<?xml version='1.0' encoding='UTF-8'?><gpx version="1.1" creator="JPX - https://github.com/jenetics/jpx" xmlns="http://www.topografix.com/GPX/1/1"><trk><trkseg><trkpt lat="42.69418" lon="-8.50546"><ele>257.0</ele><time>2026-04-14T07:07:31.825Z</time></trkpt><trkpt lat="42.6940833" lon="-8.505485"><ele>257.0</ele><time>2026-04-14T07:09:08.826Z</time></trkpt><trkpt lat="42.6940883" lon="-8.5053917"><ele>257.0</ele><time>2026-04-14T07:26:05.83Z</time></trkpt><trkpt lat="42.694065" lon="-8.5053067"><ele>257.0</ele><time>2026-04-14T07:33:38.831Z</time></trkpt><trkpt lat="42.6940483" lon="-8.50522"><ele>257.0</ele><time>2026-04-14T07:33:45.831Z</time></trkpt><trkpt lat="42.6939683" lon="-8.505305"><ele>257.0</ele><time>2026-04-14T07:38:43.832Z</time></trkpt><trkpt lat="42.6938333" lon="-8.5053883"><ele>257.0</ele><time>2026-04-14T07:40:31.831Z</time></trkpt><trkpt lat="42.6937083" lon="-8.5054467"><ele>257.0</ele><time>2026-04-14T07:40:33.832Z</time></trkpt><trkpt lat="42.6936217" lon="-8.50548"><ele>257.0</ele><time>2026-04-14T07:40:34.832Z</time></trkpt><trkpt lat="42.6935383" lon="-8.5055417"><ele>257.0</ele><time>2026-04-14T07:40:35.831Z</time></trkpt><trkpt lat="42.6934533" lon="-8.5056133"><ele>257.0</ele><time>2026-04-14T07:40:36.832Z</time></trkpt><trkpt lat="42.69337" lon="-8.505685"><ele>257.75</ele><time>2026-04-14T07:40:37.831Z</time></trkpt><trkpt lat="42.6932733" lon="-8.5057467"><ele>258.5</ele><time>2026-04-14T07:40:38.832Z</time></trkpt><trkpt lat="42.6931633" lon="-8.5058"><ele>259.25</ele><time>2026-04-14T07:40:39.831Z</time></trkpt><trkpt lat="42.69305" lon="-8.50585"><ele>260.0</ele><time>2026-04-14T07:40:40.831Z</time></trkpt><trkpt lat="42.6929333" lon="-8.505895"><ele>260.0</ele><time>2026-04-14T07:40:41.831Z</time></trkpt><trkpt lat="42.69282" lon="-8.5059317"><ele>260.0</ele><time>2026-04-14T07:40:42.831Z</time></trkpt><trkpt lat="42.6927" lon="-8.50596"><ele>260.0</ele><time>2026-04-14T07:40:43.831Z</time></trkpt><trkpt lat="42.6925933" lon="-8.50599"><ele>260.0</ele><time>2026-04-14T07:40:44.832Z</time></trkpt><trkpt lat="42.692495" lon="-8.5060183"><ele>260.0</ele><time>2026-04-14T07:40:45.831Z</time></trkpt><trkpt lat="42.6924033" lon="-8.5060467"><ele>262.0</ele><time>2026-04-14T07:40:46.831Z</time></trkpt><trkpt lat="42.692315" lon="-8.5060733"><ele>264.0</ele><time>2026-04-14T07:40:47.831Z</time></trkpt><trkpt lat="42.6922283" lon="-8.5060933"><ele>266.0</ele><time>2026-04-14T07:40:48.831Z</time></trkpt><trkpt lat="42.6921367" lon="-8.506105"><ele>268.0</ele><time>2026-04-14T07:40:49.832Z</time></trkpt><trkpt lat="42.69204" lon="-8.5061033"><ele>270.0</ele><time>2026-04-14T07:40:50.832Z</time></trkpt><trkpt lat="42.691945" lon="-8.5060917"><ele>272.2</ele><time>2026-04-14T07:40:51.831Z</time></trkpt><trkpt lat="42.691845" lon="-8.5060717"><ele>274.4</ele><time>2026-04-14T07:40:52.831Z</time></trkpt><trkpt lat="42.6917433" lon="-8.5060483"><ele>276.6</ele><time>2026-04-14T07:40:53.831Z</time></trkpt><trkpt lat="42.6916383" lon="-8.5060267"><ele>278.8</ele><time>2026-04-14T07:40:54.831Z</time></trkpt><trkpt lat="42.69153" lon="-8.5059967"><ele>281.0</ele><time>2026-04-14T07:40:55.832Z</time></trkpt><trkpt lat="42.69142" lon="-8.5059667"><ele>281.0</ele><time>2026-04-14T07:40:56.832Z</time></trkpt><trkpt lat="42.6913083" lon="-8.5059317"><ele>281.0</ele><time>2026-04-14T07:40:57.831Z</time></trkpt><trkpt lat="42.6912017" lon="-8.5059"><ele>281.0</ele><time>2026-04-14T07:40:58.831Z</time></trkpt><trkpt lat="42.691115" lon="-8.5058633"><ele>281.0</ele><time>2026-04-14T07:40:59.833Z</time></trkpt><trkpt lat="42.6910383" lon="-8.50582"><ele>281.0</ele><time>2026-04-14T07:41:00.832Z</time></trkpt><trkpt lat="42.6909717" lon="-8.5057433"><ele>281.6</ele><time>2026-04-14T07:41:01.832Z</time></trkpt><trkpt lat="42.6909217" lon="-8.50565"><ele>282.20000000000005</ele><time>2026-04-14T07:41:02.832Z</time></trkpt><trkpt lat="42.690865" lon="-8.5055367"><ele>282.79999999999995</ele><time>2026-04-14T07:41:03.832Z</time></trkpt><trkpt lat="42.6908" lon="-8.5054333"><ele>283.4</ele><time>2026-04-14T07:41:04.833Z</time></trkpt><trkpt lat="42.6907333" lon="-8.5053267"><ele>284.0</ele><time>2026-04-14T07:41:05.833Z</time></trkpt><trkpt lat="42.6906767" lon="-8.5052317"><ele>284.0</ele><time>2026-04-14T07:41:06.832Z</time></trkpt><trkpt lat="42.6906283" lon="-8.50514"><ele>284.0</ele><time>2026-04-14T07:41:07.832Z</time></trkpt><trkpt lat="42.6905817" lon="-8.505045"><ele>284.0</ele><time>2026-04-14T07:41:08.832Z</time></trkpt><trkpt lat="42.6905267" lon="-8.504935"><ele>284.0</ele><time>2026-04-14T07:41:09.832Z</time></trkpt><trkpt lat="42.69048" lon="-8.5048417"><ele>284.0</ele><time>2026-04-14T07:41:10.833Z</time></trkpt><trkpt lat="42.690435" lon="-8.5047583"><ele>284.0</ele><time>2026-04-14T07:41:11.832Z</time></trkpt><trkpt lat="42.69035" lon="-8.50466"><ele>284.4</ele><time>2026-04-14T07:41:13.832Z</time></trkpt><trkpt lat="42.690255" lon="-8.5046767"><ele>284.79999999999995</ele><time>2026-04-14T07:41:15.833Z</time></trkpt><trkpt lat="42.69015" lon="-8.5048083"><ele>285.20000000000005</ele><time>2026-04-14T07:41:17.833Z</time></trkpt><trkpt lat="42.690075" lon="-8.5048833"><ele>285.6</ele><time>2026-04-14T07:41:18.832Z</time></trkpt><trkpt lat="42.6899917" lon="-8.504965"><ele>286.0</ele><time>2026-04-14T07:41:19.833Z</time></trkpt><trkpt lat="42.6899133" lon="-8.50504"><ele>286.0</ele><time>2026-04-14T07:41:20.833Z</time></trkpt><trkpt lat="42.68982" lon="-8.5051083"><ele>286.0</ele><time>2026-04-14T07:41:21.832Z</time></trkpt><trkpt lat="42.6897317" lon="-8.50519"><ele>286.0</ele><time>2026-04-14T07:41:22.832Z</time></trkpt><trkpt lat="42.6896333" lon="-8.5052683"><ele>286.0</ele><time>2026-04-14T07:41:23.832Z</time></trkpt><trkpt lat="42.6895217" lon="-8.5053517"><ele>288.5</ele><time>2026-04-14T07:41:24.832Z</time></trkpt><trkpt lat="42.6894167" lon="-8.5054417"><ele>291.0</ele><time>2026-04-14T07:41:25.833Z</time></trkpt><trkpt lat="42.6892983" lon="-8.505545"><ele>293.5</ele><time>2026-04-14T07:41:26.833Z</time></trkpt><trkpt lat="42.6891733" lon="-8.5056533"><ele>296.0</ele><time>2026-04-14T07:41:27.832Z</time></trkpt><trkpt lat="42.6890517" lon="-8.5057433"><ele>296.0</ele><time>2026-04-14T07:41:28.833Z</time></trkpt><trkpt lat="42.6889567" lon="-8.5058167"><ele>296.0</ele><time>2026-04-14T07:41:29.833Z</time></trkpt><trkpt lat="42.6888733" lon="-8.50588"><ele>296.0</ele><time>2026-04-14T07:41:30.832Z</time></trkpt><trkpt lat="42.688805" lon="-8.5059367"><ele>296.0</ele><time>2026-04-14T07:41:31.832Z</time></trkpt><trkpt lat="42.6887317" lon="-8.505985"><ele>296.0</ele><time>2026-04-14T07:41:32.832Z</time></trkpt><trkpt lat="42.688645" lon="-8.50605"><ele>297.0</ele><time>2026-04-14T07:41:33.832Z</time></trkpt><trkpt lat="42.6885667" lon="-8.5061117"><ele>298.0</ele><time>2026-04-14T07:41:34.833Z</time></trkpt><trkpt lat="42.6884867" lon="-8.5061717"><ele>299.0</ele><time>2026-04-14T07:41:35.833Z</time></trkpt><trkpt lat="42.6884067" lon="-8.5062317"><ele>300.0</ele><time>2026-04-14T07:41:36.832Z</time></trkpt><trkpt lat="42.6883217" lon="-8.5062933"><ele>301.0</ele><time>2026-04-14T07:41:37.832Z</time></trkpt><trkpt lat="42.688235" lon="-8.5063567"><ele>301.0</ele><time>2026-04-14T07:41:38.832Z</time></trkpt><trkpt lat="42.68815" lon="-8.506415"><ele>301.0</ele><time>2026-04-14T07:41:39.833Z</time></trkpt><trkpt lat="42.6880583" lon="-8.5064617"><ele>301.0</ele><time>2026-04-14T07:41:40.833Z</time></trkpt><trkpt lat="42.6879667" lon="-8.506505"><ele>301.0</ele><time>2026-04-14T07:41:41.832Z</time></trkpt><trkpt lat="42.68788" lon="-8.5065517"><ele>301.0</ele><time>2026-04-14T07:41:42.833Z</time></trkpt><trkpt lat="42.6877917" lon="-8.5065967"><ele>301.3333333333333</ele><time>2026-04-14T07:41:43.833Z</time></trkpt><trkpt lat="42.6877117" lon="-8.506645"><ele>301.66666666666663</ele><time>2026-04-14T07:41:44.833Z</time></trkpt><trkpt lat="42.687635" lon="-8.5066883"><ele>302.0</ele><time>2026-04-14T07:41:45.832Z</time></trkpt><trkpt lat="42.6875583" lon="-8.506735"><ele>302.3333333333333</ele><time>2026-04-14T07:41:46.832Z</time></trkpt><trkpt lat="42.6874783" lon="-8.5067833"><ele>302.6666666666667</ele><time>2026-04-14T07:41:47.832Z</time></trkpt><trkpt lat="42.687395" lon="-8.506825"><ele>303.0</ele><time>2026-04-14T07:41:48.832Z</time></trkpt><trkpt lat="42.6873067" lon="-8.5068683"><ele>303.0</ele><time>2026-04-14T07:41:49.833Z</time></trkpt><trkpt lat="42.6872217" lon="-8.5069083"><ele>303.0</ele><time>2026-04-14T07:41:50.832Z</time></trkpt><trkpt lat="42.68714" lon="-8.5069483"><ele>303.0</ele><time>2026-04-14T07:41:51.832Z</time></trkpt><trkpt lat="42.6870567" lon="-8.5069933"><ele>303.0</ele><time>2026-04-14T07:41:52.832Z</time></trkpt><trkpt lat="42.6869833" lon="-8.5070383"><ele>303.0</ele><time>2026-04-14T07:41:53.833Z</time></trkpt><trkpt lat="42.6869233" lon="-8.5070767"><ele>303.0</ele><time>2026-04-14T07:41:54.833Z</time></trkpt><trkpt lat="42.6868367" lon="-8.5071517"><ele>303.3333333333333</ele><time>2026-04-14T07:41:56.833Z</time></trkpt><trkpt lat="42.6867767" lon="-8.5071917"><ele>303.6666666666667</ele><time>2026-04-14T07:41:59.833Z</time></trkpt><trkpt lat="42.686705" lon="-8.5071667"><ele>304.0</ele><time>2026-04-14T07:42:01.832Z</time></trkpt><trkpt lat="42.6866017" lon="-8.5071317"><ele>304.33333333333337</ele><time>2026-04-14T07:42:03.833Z</time></trkpt><trkpt lat="42.686525" lon="-8.5071117"><ele>304.6666666666667</ele><time>2026-04-14T07:42:04.832Z</time></trkpt><trkpt lat="42.6864383" lon="-8.507065"><ele>305.0</ele><time>2026-04-14T07:42:05.832Z</time></trkpt><trkpt lat="42.6863433" lon="-8.5070117"><ele>305.0</ele><time>2026-04-14T07:42:06.833Z</time></trkpt><trkpt lat="42.6862383" lon="-8.506955"><ele>305.0</ele><time>2026-04-14T07:42:07.833Z</time></trkpt><trkpt lat="42.686135" lon="-8.5068983"><ele>305.0</ele><time>2026-04-14T07:42:08.833Z</time></trkpt><trkpt lat="42.68603" lon="-8.5068333"><ele>305.0</ele><time>2026-04-14T07:42:09.832Z</time></trkpt><trkpt lat="42.6859217" lon="-8.5067633"><ele>306.5</ele><time>2026-04-14T07:42:10.833Z</time></trkpt><trkpt lat="42.685815" lon="-8.506685"><ele>308.0</ele><time>2026-04-14T07:42:11.833Z</time></trkpt><trkpt lat="42.6857033" lon="-8.5066117"><ele>309.5</ele><time>2026-04-14T07:42:12.832Z</time></trkpt><trkpt lat="42.6856067" lon="-8.506535"><ele>311.0</ele><time>2026-04-14T07:42:13.833Z</time></trkpt><trkpt lat="42.6855083" lon="-8.5064483"><ele>311.0</ele><time>2026-04-14T07:42:14.832Z</time></trkpt><trkpt lat="42.685415" lon="-8.5063517"><ele>311.0</ele><time>2026-04-14T07:42:15.832Z</time></trkpt><trkpt lat="42.6853267" lon="-8.5062417"><ele>311.0</ele><time>2026-04-14T07:42:16.832Z</time></trkpt><trkpt lat="42.685255" lon="-8.5061183"><ele>311.0</ele><time>2026-04-14T07:42:17.832Z</time></trkpt><trkpt lat="42.6851933" lon="-8.50598"><ele>311.0</ele><time>2026-04-14T07:42:18.833Z</time></trkpt><trkpt lat="42.68515" lon="-8.505835"><ele>311.0</ele><time>2026-04-14T07:42:19.833Z</time></trkpt><trkpt lat="42.6851117" lon="-8.5056733"><ele>311.0</ele><time>2026-04-14T07:42:20.832Z</time></trkpt><trkpt lat="42.6850533" lon="-8.5055067"><ele>311.0</ele><time>2026-04-14T07:42:21.833Z</time></trkpt><trkpt lat="42.6850333" lon="-8.5053633"><ele>310.8</ele><time>2026-04-14T07:42:22.833Z</time></trkpt><trkpt lat="42.6850183" lon="-8.50522"><ele>310.6</ele><time>2026-04-14T07:42:23.832Z</time></trkpt><trkpt lat="42.6850133" lon="-8.5050833"><ele>310.4</ele><time>2026-04-14T07:42:24.832Z</time></trkpt><trkpt lat="42.6850167" lon="-8.504935"><ele>310.2</ele><time>2026-04-14T07:42:25.832Z</time></trkpt><trkpt lat="42.68503" lon="-8.5048"><ele>310.0</ele><time>2026-04-14T07:42:26.832Z</time></trkpt><trkpt lat="42.6850433" lon="-8.5046633"><ele>310.0</ele><time>2026-04-14T07:42:27.832Z</time></trkpt><trkpt lat="42.68507" lon="-8.5045417"><ele>310.0</ele><time>2026-04-14T07:42:28.833Z</time></trkpt><trkpt lat="42.6850983" lon="-8.50443"><ele>310.0</ele><time>2026-04-14T07:42:29.832Z</time></trkpt><trkpt lat="42.68514" lon="-8.5043217"><ele>310.0</ele><time>2026-04-14T07:42:30.832Z</time></trkpt><trkpt lat="42.6851883" lon="-8.5042033"><ele>310.0</ele><time>2026-04-14T07:42:31.832Z</time></trkpt><trkpt lat="42.68524" lon="-8.504075"><ele>308.8</ele><time>2026-04-14T07:42:32.832Z</time></trkpt><trkpt lat="42.6853017" lon="-8.5039483"><ele>307.6</ele><time>2026-04-14T07:42:33.832Z</time></trkpt><trkpt lat="42.68536" lon="-8.50382"><ele>306.4</ele><time>2026-04-14T07:42:34.832Z</time></trkpt><trkpt lat="42.68542" lon="-8.50368"><ele>305.2</ele><time>2026-04-14T07:42:35.833Z</time></trkpt><trkpt lat="42.6854767" lon="-8.5035567"><ele>304.0</ele><time>2026-04-14T07:42:36.833Z</time></trkpt><trkpt lat="42.68553" lon="-8.5034367"><ele>303.8</ele><time>2026-04-14T07:42:37.832Z</time></trkpt><trkpt lat="42.68558" lon="-8.50332"><ele>303.59999999999997</ele><time>2026-04-14T07:42:38.833Z</time></trkpt><trkpt lat="42.6856217" lon="-8.5032033"><ele>303.4</ele><time>2026-04-14T07:42:39.833Z</time></trkpt><trkpt lat="42.6856667" lon="-8.503085"><ele>303.2</ele><time>2026-04-14T07:42:40.833Z</time></trkpt><trkpt lat="42.685695" lon="-8.5029683"><ele>303.0</ele><time>2026-04-14T07:42:41.833Z</time></trkpt><trkpt lat="42.6857217" lon="-8.502855"><ele>303.3333333333333</ele><time>2026-04-14T07:42:42.833Z</time></trkpt><trkpt lat="42.6857467" lon="-8.5027467"><ele>303.6666666666667</ele><time>2026-04-14T07:42:43.832Z</time></trkpt><trkpt lat="42.68579" lon="-8.5026533"><ele>304.0</ele><time>2026-04-14T07:42:44.833Z</time></trkpt><trkpt lat="42.68586" lon="-8.50258"><ele>304.33333333333337</ele><time>2026-04-14T07:42:45.833Z</time></trkpt><trkpt lat="42.68593" lon="-8.5024967"><ele>304.6666666666667</ele><time>2026-04-14T07:42:46.832Z</time></trkpt><trkpt lat="42.6859983" lon="-8.5024017"><ele>305.0</ele><time>2026-04-14T07:42:47.833Z</time></trkpt><trkpt lat="42.6860583" lon="-8.5022983"><ele>304.2</ele><time>2026-04-14T07:42:48.833Z</time></trkpt><trkpt lat="42.68612" lon="-8.5021817"><ele>303.4</ele><time>2026-04-14T07:42:49.833Z</time></trkpt><trkpt lat="42.68618" lon="-8.502055"><ele>302.6</ele><time>2026-04-14T07:42:50.833Z</time></trkpt><trkpt lat="42.6862433" lon="-8.501935"><ele>301.8</ele><time>2026-04-14T07:42:51.833Z</time></trkpt><trkpt lat="42.686305" lon="-8.50181"><ele>301.0</ele><time>2026-04-14T07:42:52.832Z</time></trkpt><trkpt lat="42.6863617" lon="-8.50168"><ele>301.0</ele><time>2026-04-14T07:42:53.833Z</time></trkpt><trkpt lat="42.686415" lon="-8.5015633"><ele>301.0</ele><time>2026-04-14T07:42:54.833Z</time></trkpt><trkpt lat="42.6864633" lon="-8.5014417"><ele>301.0</ele><time>2026-04-14T07:42:55.832Z</time></trkpt><trkpt lat="42.6865067" lon="-8.5013133"><ele>301.0</ele><time>2026-04-14T07:42:56.832Z</time></trkpt><trkpt lat="42.68655" lon="-8.5011883"><ele>301.0</ele><time>2026-04-14T07:42:57.833Z</time></trkpt><trkpt lat="42.6865933" lon="-8.50107"><ele>302.2</ele><time>2026-04-14T07:42:58.833Z</time></trkpt><trkpt lat="42.6866433" lon="-8.500955"><ele>303.40000000000003</ele><time>2026-04-14T07:42:59.833Z</time></trkpt><trkpt lat="42.6867017" lon="-8.5008533"><ele>304.6</ele><time>2026-04-14T07:43:00.833Z</time></trkpt><trkpt lat="42.6867683" lon="-8.500755"><ele>305.8</ele><time>2026-04-14T07:43:01.833Z</time></trkpt><trkpt lat="42.6868217" lon="-8.5006483"><ele>307.0</ele><time>2026-04-14T07:43:02.832Z</time></trkpt><trkpt lat="42.68687" lon="-8.500535"><ele>307.0</ele><time>2026-04-14T07:43:03.832Z</time></trkpt><trkpt lat="42.68692" lon="-8.5004267"><ele>307.0</ele><time>2026-04-14T07:43:04.833Z</time></trkpt><trkpt lat="42.6869783" lon="-8.500315"><ele>307.0</ele><time>2026-04-14T07:43:05.833Z</time></trkpt><trkpt lat="42.6870333" lon="-8.5002067"><ele>307.0</ele><time>2026-04-14T07:43:06.833Z</time></trkpt><trkpt lat="42.68709" lon="-8.5000917"><ele>307.0</ele><time>2026-04-14T07:43:07.832Z</time></trkpt><trkpt lat="42.6871467" lon="-8.4999733"><ele>307.4</ele><time>2026-04-14T07:43:08.832Z</time></trkpt><trkpt lat="42.6872" lon="-8.4998683"><ele>307.79999999999995</ele><time>2026-04-14T07:43:09.833Z</time></trkpt><trkpt lat="42.6872533" lon="-8.4997667"><ele>308.2</ele><time>2026-04-14T07:43:10.833Z</time></trkpt><trkpt lat="42.6873183" lon="-8.499675"><ele>308.59999999999997</ele><time>2026-04-14T07:43:11.833Z</time></trkpt><trkpt lat="42.68737" lon="-8.4995767"><ele>309.0</ele><time>2026-04-14T07:43:12.832Z</time></trkpt><trkpt lat="42.6874133" lon="-8.4994733"><ele>309.0</ele><time>2026-04-14T07:43:13.833Z</time></trkpt><trkpt lat="42.6874633" lon="-8.4993783"><ele>309.0</ele><time>2026-04-14T07:43:14.833Z</time></trkpt><trkpt lat="42.68751" lon="-8.49928"><ele>309.0</ele><time>2026-04-14T07:43:15.832Z</time></trkpt><trkpt lat="42.6875583" lon="-8.4991717"><ele>309.0</ele><time>2026-04-14T07:43:16.832Z</time></trkpt><trkpt lat="42.6876083" lon="-8.49906"><ele>309.0</ele><time>2026-04-14T07:43:17.833Z</time></trkpt><trkpt lat="42.6876617" lon="-8.49895"><ele>309.0</ele><time>2026-04-14T07:43:18.833Z</time></trkpt><trkpt lat="42.6877183" lon="-8.4988367"><ele>309.0</ele><time>2026-04-14T07:43:19.832Z</time></trkpt><trkpt lat="42.687765" lon="-8.4987217"><ele>309.0</ele><time>2026-04-14T07:43:20.833Z</time></trkpt><trkpt lat="42.6878133" lon="-8.4986017"><ele>309.0</ele><time>2026-04-14T07:43:21.832Z</time></trkpt><trkpt lat="42.6878583" lon="-8.4984917"><ele>309.0</ele><time>2026-04-14T07:43:22.832Z</time></trkpt><trkpt lat="42.6879083" lon="-8.4983733"><ele>309.1666666666667</ele><time>2026-04-14T07:43:23.833Z</time></trkpt><trkpt lat="42.6879433" lon="-8.4982567"><ele>309.3333333333333</ele><time>2026-04-14T07:43:24.832Z</time></trkpt><trkpt lat="42.68797" lon="-8.49814"><ele>309.5</ele><time>2026-04-14T07:43:25.832Z</time></trkpt><trkpt lat="42.688" lon="-8.4980283"><ele>309.66666666666663</ele><time>2026-04-14T07:43:26.832Z</time></trkpt><trkpt lat="42.6880233" lon="-8.4979133"><ele>309.8333333333333</ele><time>2026-04-14T07:43:27.832Z</time></trkpt><trkpt lat="42.68804" lon="-8.4977967"><ele>310.0</ele><time>2026-04-14T07:43:28.833Z</time></trkpt><trkpt lat="42.6880533" lon="-8.4976783"><ele>310.0</ele><time>2026-04-14T07:43:29.832Z</time></trkpt><trkpt lat="42.6880683" lon="-8.49756"><ele>310.0</ele><time>2026-04-14T07:43:30.833Z</time></trkpt><trkpt lat="42.688085" lon="-8.4974417"><ele>310.0</ele><time>2026-04-14T07:43:31.832Z</time></trkpt><trkpt lat="42.6881" lon="-8.497325"><ele>310.0</ele><time>2026-04-14T07:43:32.833Z</time></trkpt><trkpt lat="42.6881217" lon="-8.49721"><ele>310.0</ele><time>2026-04-14T07:43:33.833Z</time></trkpt><trkpt lat="42.688135" lon="-8.49709"><ele>310.0</ele><time>2026-04-14T07:43:34.832Z</time></trkpt><trkpt lat="42.68815" lon="-8.49697"><ele>310.5</ele><time>2026-04-14T07:43:35.832Z</time></trkpt><trkpt lat="42.68816" lon="-8.4968467"><ele>311.0</ele><time>2026-04-14T07:43:36.832Z</time></trkpt><trkpt lat="42.688175" lon="-8.49673"><ele>311.5</ele><time>2026-04-14T07:43:37.833Z</time></trkpt><trkpt lat="42.6881883" lon="-8.496625"><ele>312.0</ele><time>2026-04-14T07:43:38.832Z</time></trkpt><trkpt lat="42.6882083" lon="-8.4965317"><ele>312.5</ele><time>2026-04-14T07:43:39.832Z</time></trkpt><trkpt lat="42.6882383" lon="-8.4963983"><ele>313.0</ele><time>2026-04-14T07:43:41.832Z</time></trkpt><trkpt lat="42.6882417" lon="-8.4962917"><ele>313.0</ele><time>2026-04-14T07:44:17.833Z</time></trkpt><trkpt lat="42.6882533" lon="-8.4961667"><ele>313.0</ele><time>2026-04-14T07:44:19.833Z</time></trkpt><trkpt lat="42.6882667" lon="-8.4960733"><ele>313.0</ele><time>2026-04-14T07:44:20.832Z</time></trkpt><trkpt lat="42.688275" lon="-8.4959667"><ele>313.0</ele><time>2026-04-14T07:44:21.832Z</time></trkpt><trkpt lat="42.6882667" lon="-8.4958483"><ele>313.0</ele><time>2026-04-14T07:44:22.832Z</time></trkpt><trkpt lat="42.68826" lon="-8.4957233"><ele>313.0</ele><time>2026-04-14T07:44:23.833Z</time></trkpt><trkpt lat="42.6882517" lon="-8.4955933"><ele>313.0</ele><time>2026-04-14T07:44:24.832Z</time></trkpt><trkpt lat="42.6882467" lon="-8.4954633"><ele>313.0</ele><time>2026-04-14T07:44:25.833Z</time></trkpt><trkpt lat="42.6882417" lon="-8.4953417"><ele>313.0</ele><time>2026-04-14T07:44:26.832Z</time></trkpt><trkpt lat="42.68824" lon="-8.49523"><ele>313.0</ele><time>2026-04-14T07:44:27.832Z</time></trkpt><trkpt lat="42.6882417" lon="-8.495125"><ele>313.0</ele><time>2026-04-14T07:44:28.832Z</time></trkpt><trkpt lat="42.6882483" lon="-8.49503"><ele>313.0</ele><time>2026-04-14T07:44:29.833Z</time></trkpt><trkpt lat="42.68825" lon="-8.494935"><ele>313.0</ele><time>2026-04-14T07:44:30.832Z</time></trkpt><trkpt lat="42.688255" lon="-8.4948383"><ele>313.0</ele><time>2026-04-14T07:44:31.832Z</time></trkpt><trkpt lat="42.6882567" lon="-8.4947417"><ele>313.0</ele><time>2026-04-14T07:44:32.833Z</time></trkpt><trkpt lat="42.6882533" lon="-8.4946467"><ele>313.0</ele><time>2026-04-14T07:44:33.832Z</time></trkpt><trkpt lat="42.6882533" lon="-8.49455"><ele>313.0</ele><time>2026-04-14T07:44:34.832Z</time></trkpt><trkpt lat="42.68827" lon="-8.4944417"><ele>313.0</ele><time>2026-04-14T07:44:35.832Z</time></trkpt><trkpt lat="42.688275" lon="-8.4943433"><ele>313.0</ele><time>2026-04-14T07:44:36.833Z</time></trkpt><trkpt lat="42.68828" lon="-8.494245"><ele>313.0</ele><time>2026-04-14T07:44:37.832Z</time></trkpt><trkpt lat="42.68828" lon="-8.4941583"><ele>313.0</ele><time>2026-04-14T07:44:38.832Z</time></trkpt><trkpt lat="42.68828" lon="-8.49407"><ele>313.0</ele><time>2026-04-14T07:44:39.833Z</time></trkpt><trkpt lat="42.6882783" lon="-8.4939783"><ele>313.0</ele><time>2026-04-14T07:44:40.832Z</time></trkpt><trkpt lat="42.688275" lon="-8.4938883"><ele>313.0</ele><time>2026-04-14T07:44:41.832Z</time></trkpt><trkpt lat="42.68827" lon="-8.4938"><ele>313.0</ele><time>2026-04-14T07:44:42.833Z</time></trkpt><trkpt lat="42.68827" lon="-8.4937117"><ele>313.0</ele><time>2026-04-14T07:44:43.833Z</time></trkpt><trkpt lat="42.688255" lon="-8.4935433"><ele>313.0</ele><time>2026-04-14T07:44:45.833Z</time></trkpt><trkpt lat="42.6882517" lon="-8.4934483"><ele>313.0</ele><time>2026-04-14T07:44:46.833Z</time></trkpt><trkpt lat="42.688245" lon="-8.4933483"><ele>313.0</ele><time>2026-04-14T07:44:47.833Z</time></trkpt><trkpt lat="42.6882433" lon="-8.49325"><ele>313.0</ele><time>2026-04-14T07:44:48.833Z</time></trkpt><trkpt lat="42.6882433" lon="-8.4931533"><ele>313.0</ele><time>2026-04-14T07:44:49.833Z</time></trkpt><trkpt lat="42.68824" lon="-8.4930567"><ele>313.0</ele><time>2026-04-14T07:44:50.833Z</time></trkpt><trkpt lat="42.6882417" lon="-8.492965"><ele>313.0</ele><time>2026-04-14T07:44:51.832Z</time></trkpt><trkpt lat="42.6882467" lon="-8.492875"><ele>311.8</ele><time>2026-04-14T07:44:52.832Z</time></trkpt><trkpt lat="42.6882517" lon="-8.4926983"><ele>310.6</ele><time>2026-04-14T07:44:54.833Z</time></trkpt><trkpt lat="42.68825" lon="-8.4925317"><ele>309.4</ele><time>2026-04-14T07:44:56.832Z</time></trkpt><trkpt lat="42.6882517" lon="-8.49244"><ele>308.2</ele><time>2026-04-14T07:44:57.833Z</time></trkpt><trkpt lat="42.688255" lon="-8.4923533"><ele>307.0</ele><time>2026-04-14T07:44:58.833Z</time></trkpt><trkpt lat="42.6882467" lon="-8.4922017"><ele>306.0</ele><time>2026-04-14T07:45:00.833Z</time></trkpt><trkpt lat="42.688255" lon="-8.4920517"><ele>305.0</ele><time>2026-04-14T07:45:02.832Z</time></trkpt><trkpt lat="42.68826" lon="-8.4919617"><ele>304.0</ele><time>2026-04-14T07:45:03.832Z</time></trkpt><trkpt lat="42.688265" lon="-8.49186"><ele>303.0</ele><time>2026-04-14T07:45:04.832Z</time></trkpt><trkpt lat="42.68827" lon="-8.4917617"><ele>302.0</ele><time>2026-04-14T07:45:05.833Z</time></trkpt><trkpt lat="42.6882667" lon="-8.491665"><ele>301.0</ele><time>2026-04-14T07:45:06.832Z</time></trkpt><trkpt lat="42.6882667" lon="-8.4915767"><ele>301.0</ele><time>2026-04-14T07:45:07.833Z</time></trkpt><trkpt lat="42.6882717" lon="-8.4914883"><ele>301.0</ele><time>2026-04-14T07:45:08.833Z</time></trkpt><trkpt lat="42.6882733" lon="-8.4913967"><ele>301.0</ele><time>2026-04-14T07:45:09.833Z</time></trkpt><trkpt lat="42.6882717" lon="-8.4913017"><ele>301.0</ele><time>2026-04-14T07:45:10.832Z</time></trkpt><trkpt lat="42.68827" lon="-8.4912017"><ele>301.0</ele><time>2026-04-14T07:45:11.832Z</time></trkpt><trkpt lat="42.6882733" lon="-8.4911017"><ele>301.0</ele><time>2026-04-14T07:45:12.832Z</time></trkpt><trkpt lat="42.6882717" lon="-8.4910033"><ele>301.0</ele><time>2026-04-14T07:45:13.832Z</time></trkpt><trkpt lat="42.688265" lon="-8.49091"><ele>300.7142857142857</ele><time>2026-04-14T07:45:14.833Z</time></trkpt><trkpt lat="42.6882617" lon="-8.4908217"><ele>300.42857142857144</ele><time>2026-04-14T07:45:15.832Z</time></trkpt><trkpt lat="42.68826" lon="-8.490735"><ele>300.1428571428571</ele><time>2026-04-14T07:45:16.833Z</time></trkpt><trkpt lat="42.6882517" lon="-8.490645"><ele>299.8571428571429</ele><time>2026-04-14T07:45:17.833Z</time></trkpt><trkpt lat="42.6882467" lon="-8.4905483"><ele>299.57142857142856</ele><time>2026-04-14T07:45:18.832Z</time></trkpt><trkpt lat="42.68825" lon="-8.49045"><ele>299.2857142857143</ele><time>2026-04-14T07:45:19.832Z</time></trkpt><trkpt lat="42.6882633" lon="-8.4903517"><ele>299.0</ele><time>2026-04-14T07:45:20.833Z</time></trkpt><trkpt lat="42.688275" lon="-8.4902567"><ele>299.0</ele><time>2026-04-14T07:45:21.833Z</time></trkpt><trkpt lat="42.688275" lon="-8.4901667"><ele>299.0</ele><time>2026-04-14T07:45:22.833Z</time></trkpt><trkpt lat="42.688275" lon="-8.490075"><ele>299.0</ele><time>2026-04-14T07:45:23.833Z</time></trkpt><trkpt lat="42.68828" lon="-8.4899817"><ele>299.0</ele><time>2026-04-14T07:45:24.833Z</time></trkpt><trkpt lat="42.688275" lon="-8.4898233"><ele>299.0</ele><time>2026-04-14T07:45:26.832Z</time></trkpt><trkpt lat="42.6882717" lon="-8.4896767"><ele>299.0</ele><time>2026-04-14T07:45:28.832Z</time></trkpt><trkpt lat="42.6882733" lon="-8.4895"><ele>299.1428571428571</ele><time>2026-04-14T07:45:30.833Z</time></trkpt><trkpt lat="42.6882733" lon="-8.4894"><ele>299.2857142857143</ele><time>2026-04-14T07:45:31.833Z</time></trkpt><trkpt lat="42.688275" lon="-8.489295"><ele>299.42857142857144</ele><time>2026-04-14T07:45:32.832Z</time></trkpt><trkpt lat="42.6882633" lon="-8.4891983"><ele>299.57142857142856</ele><time>2026-04-14T07:45:33.832Z</time></trkpt><trkpt lat="42.6882633" lon="-8.489105"><ele>299.7142857142857</ele><time>2026-04-14T07:45:34.832Z</time></trkpt><trkpt lat="42.68826" lon="-8.4890133"><ele>299.85714285714283</ele><time>2026-04-14T07:45:35.833Z</time></trkpt><trkpt lat="42.68826" lon="-8.4889167"><ele>300.0</ele><time>2026-04-14T07:45:36.833Z</time></trkpt><trkpt lat="42.6882517" lon="-8.48882"><ele>299.85714285714283</ele><time>2026-04-14T07:45:37.833Z</time></trkpt><trkpt lat="42.6882567" lon="-8.4887183"><ele>299.7142857142857</ele><time>2026-04-14T07:45:38.833Z</time></trkpt><trkpt lat="42.68826" lon="-8.4886217"><ele>299.57142857142856</ele><time>2026-04-14T07:45:39.833Z</time></trkpt><trkpt lat="42.6882633" lon="-8.4885283"><ele>299.42857142857144</ele><time>2026-04-14T07:45:40.832Z</time></trkpt><trkpt lat="42.6882633" lon="-8.4884333"><ele>299.2857142857143</ele><time>2026-04-14T07:45:41.832Z</time></trkpt><trkpt lat="42.6882633" lon="-8.48834"><ele>299.1428571428571</ele><time>2026-04-14T07:45:42.833Z</time></trkpt><trkpt lat="42.6882633" lon="-8.48825"><ele>299.0</ele><time>2026-04-14T07:45:43.833Z</time></trkpt><trkpt lat="42.6882717" lon="-8.4880933"><ele>299.0</ele><time>2026-04-14T07:45:45.832Z</time></trkpt><trkpt lat="42.6882717" lon="-8.4879467"><ele>299.0</ele><time>2026-04-14T07:45:47.833Z</time></trkpt><trkpt lat="42.6882733" lon="-8.4877817"><ele>299.0</ele><time>2026-04-14T07:45:49.833Z</time></trkpt><trkpt lat="42.6882783" lon="-8.4876317"><ele>299.0</ele><time>2026-04-14T07:45:51.832Z</time></trkpt><trkpt lat="42.6882683" lon="-8.48748"><ele>298.6666666666667</ele><time>2026-04-14T07:45:53.832Z</time></trkpt><trkpt lat="42.6882667" lon="-8.4873883"><ele>298.33333333333337</ele><time>2026-04-14T07:45:54.832Z</time></trkpt><trkpt lat="42.6882567" lon="-8.4872883"><ele>298.0</ele><time>2026-04-14T07:45:55.833Z</time></trkpt><trkpt lat="42.6882633" lon="-8.4871867"><ele>297.6666666666667</ele><time>2026-04-14T07:45:56.833Z</time></trkpt><trkpt lat="42.68827" lon="-8.48708"><ele>297.3333333333333</ele><time>2026-04-14T07:45:57.833Z</time></trkpt><trkpt lat="42.68827" lon="-8.4869683"><ele>297.0</ele><time>2026-04-14T07:45:58.833Z</time></trkpt><trkpt lat="42.68828" lon="-8.486845"><ele>296.8333333333333</ele><time>2026-04-14T07:45:59.832Z</time></trkpt><trkpt lat="42.688285" lon="-8.48672"><ele>296.6666666666667</ele><time>2026-04-14T07:46:00.833Z</time></trkpt><trkpt lat="42.68829" lon="-8.4865933"><ele>296.5</ele><time>2026-04-14T07:46:01.833Z</time></trkpt><trkpt lat="42.6882967" lon="-8.486475"><ele>296.33333333333337</ele><time>2026-04-14T07:46:02.832Z</time></trkpt><trkpt lat="42.6882983" lon="-8.4863633"><ele>296.1666666666667</ele><time>2026-04-14T07:46:03.833Z</time></trkpt><trkpt lat="42.6882917" lon="-8.4862567"><ele>296.0</ele><time>2026-04-14T07:46:04.833Z</time></trkpt><trkpt lat="42.6882933" lon="-8.4861433"><ele>295.40000000000003</ele><time>2026-04-14T07:46:05.833Z</time></trkpt><trkpt lat="42.6882967" lon="-8.4860317"><ele>294.8</ele><time>2026-04-14T07:46:06.832Z</time></trkpt><trkpt lat="42.6883017" lon="-8.485935"><ele>294.20000000000005</ele><time>2026-04-14T07:46:07.833Z</time></trkpt><trkpt lat="42.6883133" lon="-8.4857833"><ele>293.6</ele><time>2026-04-14T07:46:09.832Z</time></trkpt><trkpt lat="42.68833" lon="-8.48562"><ele>293.0</ele><time>2026-04-14T07:46:11.833Z</time></trkpt><trkpt lat="42.68834" lon="-8.4855317"><ele>292.99999999999994</ele><time>2026-04-14T07:46:12.832Z</time></trkpt><trkpt lat="42.68834" lon="-8.48544"><ele>293.0</ele><time>2026-04-14T07:46:13.833Z</time></trkpt><trkpt lat="42.6883367" lon="-8.4853467"><ele>293.0</ele><time>2026-04-14T07:46:14.832Z</time></trkpt><trkpt lat="42.6883367" lon="-8.4852567"><ele>293.0</ele><time>2026-04-14T07:46:15.833Z</time></trkpt><trkpt lat="42.6883317" lon="-8.4851383"><ele>293.0</ele><time>2026-04-14T07:46:17.833Z</time></trkpt><trkpt lat="42.6883283" lon="-8.4850483"><ele>292.99999999999994</ele><time>2026-04-14T07:46:19.833Z</time></trkpt><trkpt lat="42.6883267" lon="-8.4849417"><ele>293.0</ele><time>2026-04-14T07:46:22.834Z</time></trkpt><trkpt lat="42.68832" lon="-8.4848483"><ele>293.0</ele><time>2026-04-14T07:46:36.834Z</time></trkpt><trkpt lat="42.68832" lon="-8.4847383"><ele>293.0</ele><time>2026-04-14T07:46:37.833Z</time></trkpt><trkpt lat="42.6883217" lon="-8.48462"><ele>293.0</ele><time>2026-04-14T07:46:38.833Z</time></trkpt><trkpt lat="42.688325" lon="-8.4845"><ele>293.0</ele><time>2026-04-14T07:46:39.833Z</time></trkpt><trkpt lat="42.6883283" lon="-8.4843717"><ele>293.0</ele><time>2026-04-14T07:46:40.833Z</time></trkpt><trkpt lat="42.6883283" lon="-8.4842333"><ele>292.6</ele><time>2026-04-14T07:46:41.833Z</time></trkpt><trkpt lat="42.68833" lon="-8.4840917"><ele>292.20000000000005</ele><time>2026-04-14T07:46:42.834Z</time></trkpt><trkpt lat="42.68833" lon="-8.4839583"><ele>291.8</ele><time>2026-04-14T07:46:43.834Z</time></trkpt><trkpt lat="42.6883267" lon="-8.48383"><ele>291.40000000000003</ele><time>2026-04-14T07:46:44.833Z</time></trkpt><trkpt lat="42.688325" lon="-8.4836867"><ele>291.0</ele><time>2026-04-14T07:46:45.833Z</time></trkpt><trkpt lat="42.6883183" lon="-8.48354"><ele>290.5</ele><time>2026-04-14T07:46:46.833Z</time></trkpt><trkpt lat="42.688315" lon="-8.483395"><ele>290.0</ele><time>2026-04-14T07:46:47.833Z</time></trkpt><trkpt lat="42.6883267" lon="-8.4832317"><ele>289.5</ele><time>2026-04-14T07:46:48.833Z</time></trkpt><trkpt lat="42.68833" lon="-8.483065"><ele>289.0</ele><time>2026-04-14T07:46:49.834Z</time></trkpt><trkpt lat="42.6883317" lon="-8.4828917"><ele>289.0</ele><time>2026-04-14T07:46:50.834Z</time></trkpt><trkpt lat="42.6883317" lon="-8.4827133"><ele>289.0</ele><time>2026-04-14T07:46:51.834Z</time></trkpt><trkpt lat="42.6883383" lon="-8.4825183"><ele>289.0</ele><time>2026-04-14T07:46:52.833Z</time></trkpt><trkpt lat="42.6883483" lon="-8.4823117"><ele>289.0</ele><time>2026-04-14T07:46:53.834Z</time></trkpt><trkpt lat="42.6883483" lon="-8.4821033"><ele>288.3333333333333</ele><time>2026-04-14T07:46:54.834Z</time></trkpt><trkpt lat="42.68835" lon="-8.481885"><ele>287.6666666666667</ele><time>2026-04-14T07:46:55.834Z</time></trkpt><trkpt lat="42.68835" lon="-8.481665"><ele>287.0</ele><time>2026-04-14T07:46:56.833Z</time></trkpt><trkpt lat="42.6883583" lon="-8.4814433"><ele>285.33333333333337</ele><time>2026-04-14T07:46:57.833Z</time></trkpt><trkpt lat="42.688365" lon="-8.4812167"><ele>283.6666666666667</ele><time>2026-04-14T07:46:58.834Z</time></trkpt><trkpt lat="42.68837" lon="-8.4809933"><ele>282.0</ele><time>2026-04-14T07:46:59.833Z</time></trkpt><trkpt lat="42.6883733" lon="-8.48077"><ele>282.0</ele><time>2026-04-14T07:47:00.833Z</time></trkpt><trkpt lat="42.6883783" lon="-8.4805483"><ele>282.0</ele><time>2026-04-14T07:47:01.834Z</time></trkpt><trkpt lat="42.6883867" lon="-8.48032"><ele>282.0</ele><time>2026-04-14T07:47:02.833Z</time></trkpt><trkpt lat="42.688395" lon="-8.4800933"><ele>280.3333333333333</ele><time>2026-04-14T07:47:03.834Z</time></trkpt><trkpt lat="42.6884067" lon="-8.4798583"><ele>278.66666666666663</ele><time>2026-04-14T07:47:04.833Z</time></trkpt><trkpt lat="42.6884167" lon="-8.4796333"><ele>277.0</ele><time>2026-04-14T07:47:05.833Z</time></trkpt><trkpt lat="42.6884233" lon="-8.4794067"><ele>276.3333333333333</ele><time>2026-04-14T07:47:06.834Z</time></trkpt><trkpt lat="42.68843" lon="-8.479185"><ele>275.6666666666667</ele><time>2026-04-14T07:47:07.834Z</time></trkpt><trkpt lat="42.688435" lon="-8.4789617"><ele>275.0</ele><time>2026-04-14T07:47:08.833Z</time></trkpt><trkpt lat="42.68844" lon="-8.4787417"><ele>273.33333333333337</ele><time>2026-04-14T07:47:09.833Z</time></trkpt><trkpt lat="42.68843" lon="-8.478515"><ele>271.6666666666667</ele><time>2026-04-14T07:47:10.834Z</time></trkpt><trkpt lat="42.6884383" lon="-8.4782817"><ele>270.0</ele><time>2026-04-14T07:47:11.834Z</time></trkpt><trkpt lat="42.6884433" lon="-8.4780483"><ele>268.6666666666667</ele><time>2026-04-14T07:47:12.834Z</time></trkpt><trkpt lat="42.6884467" lon="-8.4778167"><ele>267.33333333333337</ele><time>2026-04-14T07:47:13.834Z</time></trkpt><trkpt lat="42.6884483" lon="-8.4775783"><ele>266.0</ele><time>2026-04-14T07:47:14.834Z</time></trkpt><trkpt lat="42.6884533" lon="-8.47735"><ele>266.0</ele><time>2026-04-14T07:47:15.833Z</time></trkpt><trkpt lat="42.6884583" lon="-8.4771217"><ele>266.0</ele><time>2026-04-14T07:47:16.833Z</time></trkpt><trkpt lat="42.6884567" lon="-8.4769067"><ele>266.0</ele><time>2026-04-14T07:47:17.833Z</time></trkpt><trkpt lat="42.6884517" lon="-8.4766833"><ele>265.0</ele><time>2026-04-14T07:47:18.833Z</time></trkpt><trkpt lat="42.6884633" lon="-8.4764583"><ele>264.0</ele><time>2026-04-14T07:47:19.833Z</time></trkpt><trkpt lat="42.6884833" lon="-8.4762467"><ele>263.0</ele><time>2026-04-14T07:47:20.833Z</time></trkpt><trkpt lat="42.68851" lon="-8.4760317"><ele>262.33333333333337</ele><time>2026-04-14T07:47:21.834Z</time></trkpt><trkpt lat="42.6885383" lon="-8.4758167"><ele>261.6666666666667</ele><time>2026-04-14T07:47:22.833Z</time></trkpt><trkpt lat="42.6885717" lon="-8.475605"><ele>261.0</ele><time>2026-04-14T07:47:23.833Z</time></trkpt><trkpt lat="42.6886117" lon="-8.475395"><ele>262.3333333333333</ele><time>2026-04-14T07:47:24.833Z</time></trkpt><trkpt lat="42.6886617" lon="-8.47519"><ele>263.66666666666663</ele><time>2026-04-14T07:47:25.833Z</time></trkpt><trkpt lat="42.6887167" lon="-8.4749833"><ele>265.0</ele><time>2026-04-14T07:47:26.834Z</time></trkpt><trkpt lat="42.6887683" lon="-8.4747833"><ele>263.66666666666663</ele><time>2026-04-14T07:47:27.834Z</time></trkpt><trkpt lat="42.6888283" lon="-8.4745867"><ele>262.3333333333333</ele><time>2026-04-14T07:47:28.833Z</time></trkpt><trkpt lat="42.688895" lon="-8.4743867"><ele>261.0</ele><time>2026-04-14T07:47:29.833Z</time></trkpt><trkpt lat="42.6889617" lon="-8.4741967"><ele>261.0</ele><time>2026-04-14T07:47:30.833Z</time></trkpt><trkpt lat="42.6890417" lon="-8.47401"><ele>261.0</ele><time>2026-04-14T07:47:31.834Z</time></trkpt><trkpt lat="42.68912" lon="-8.4738117"><ele>261.0</ele><time>2026-04-14T07:47:32.833Z</time></trkpt><trkpt lat="42.6892083" lon="-8.4736217"><ele>259.6666666666667</ele><time>2026-04-14T07:47:33.833Z</time></trkpt><trkpt lat="42.6893067" lon="-8.4734383"><ele>258.33333333333337</ele><time>2026-04-14T07:47:34.833Z</time></trkpt><trkpt lat="42.689415" lon="-8.4732633"><ele>257.0</ele><time>2026-04-14T07:47:35.834Z</time></trkpt><trkpt lat="42.68952" lon="-8.4730933"><ele>257.0</ele><time>2026-04-14T07:47:36.834Z</time></trkpt><trkpt lat="42.6896217" lon="-8.47294"><ele>257.0</ele><time>2026-04-14T07:47:37.833Z</time></trkpt><trkpt lat="42.68971" lon="-8.472795"><ele>257.0</ele><time>2026-04-14T07:47:38.833Z</time></trkpt><trkpt lat="42.689795" lon="-8.47265"><ele>257.0</ele><time>2026-04-14T07:47:39.833Z</time></trkpt><trkpt lat="42.68987" lon="-8.472505"><ele>256.0</ele><time>2026-04-14T07:47:40.833Z</time></trkpt><trkpt lat="42.68993" lon="-8.4723717"><ele>255.0</ele><time>2026-04-14T07:47:41.834Z</time></trkpt><trkpt lat="42.69" lon="-8.47224"><ele>254.0</ele><time>2026-04-14T07:47:42.833Z</time></trkpt><trkpt lat="42.6900667" lon="-8.472125"><ele>253.0</ele><time>2026-04-14T07:47:43.833Z</time></trkpt><trkpt lat="42.690155" lon="-8.4720133"><ele>252.0</ele><time>2026-04-14T07:47:44.833Z</time></trkpt><trkpt lat="42.6902583" lon="-8.4719117"><ele>251.0</ele><time>2026-04-14T07:47:45.833Z</time></trkpt><trkpt lat="42.69037" lon="-8.4718"><ele>250.0</ele><time>2026-04-14T07:47:46.833Z</time></trkpt><trkpt lat="42.6904767" lon="-8.4716567"><ele>249.0</ele><time>2026-04-14T07:47:47.833Z</time></trkpt><trkpt lat="42.69059" lon="-8.4715"><ele>249.0</ele><time>2026-04-14T07:47:48.834Z</time></trkpt><trkpt lat="42.6906983" lon="-8.471335"><ele>249.0</ele><time>2026-04-14T07:47:49.833Z</time></trkpt><trkpt lat="42.6908067" lon="-8.4711567"><ele>249.0</ele><time>2026-04-14T07:47:50.833Z</time></trkpt><trkpt lat="42.69092" lon="-8.4709867"><ele>247.33333333333331</ele><time>2026-04-14T07:47:51.833Z</time></trkpt><trkpt lat="42.6910367" lon="-8.4708083"><ele>245.66666666666666</ele><time>2026-04-14T07:47:52.834Z</time></trkpt><trkpt lat="42.69115" lon="-8.4706333"><ele>244.0</ele><time>2026-04-14T07:47:53.833Z</time></trkpt><trkpt lat="42.6912733" lon="-8.470455"><ele>242.0</ele><time>2026-04-14T07:47:54.833Z</time></trkpt><trkpt lat="42.6913917" lon="-8.470285"><ele>240.0</ele><time>2026-04-14T07:47:55.833Z</time></trkpt><trkpt lat="42.6915083" lon="-8.4701"><ele>238.0</ele><time>2026-04-14T07:47:56.834Z</time></trkpt><trkpt lat="42.6916283" lon="-8.4699283"><ele>238.0</ele><time>2026-04-14T07:47:57.834Z</time></trkpt><trkpt lat="42.6917517" lon="-8.4697433"><ele>238.0</ele><time>2026-04-14T07:47:58.833Z</time></trkpt><trkpt lat="42.6918717" lon="-8.4695783"><ele>238.0</ele><time>2026-04-14T07:47:59.833Z</time></trkpt><trkpt lat="42.6919967" lon="-8.4694083"><ele>234.0</ele><time>2026-04-14T07:48:00.833Z</time></trkpt><trkpt lat="42.69212" lon="-8.4692367"><ele>230.0</ele><time>2026-04-14T07:48:01.833Z</time></trkpt><trkpt lat="42.692245" lon="-8.4690683"><ele>226.0</ele><time>2026-04-14T07:48:02.833Z</time></trkpt><trkpt lat="42.692365" lon="-8.4689"><ele>226.33333333333331</ele><time>2026-04-14T07:48:03.834Z</time></trkpt><trkpt lat="42.692485" lon="-8.4687317"><ele>226.66666666666669</ele><time>2026-04-14T07:48:04.833Z</time></trkpt><trkpt lat="42.6926033" lon="-8.46856"><ele>227.0</ele><time>2026-04-14T07:48:05.833Z</time></trkpt><trkpt lat="42.6927183" lon="-8.468395"><ele>225.66666666666669</ele><time>2026-04-14T07:48:06.833Z</time></trkpt><trkpt lat="42.6928367" lon="-8.4682283"><ele>224.33333333333331</ele><time>2026-04-14T07:48:07.834Z</time></trkpt><trkpt lat="42.69296" lon="-8.468065"><ele>223.0</ele><time>2026-04-14T07:48:08.833Z</time></trkpt><trkpt lat="42.693085" lon="-8.4678967"><ele>223.0</ele><time>2026-04-14T07:48:09.833Z</time></trkpt><trkpt lat="42.6932117" lon="-8.4677333"><ele>223.0</ele><time>2026-04-14T07:48:10.833Z</time></trkpt><trkpt lat="42.6933383" lon="-8.4675633"><ele>223.0</ele><time>2026-04-14T07:48:11.833Z</time></trkpt><trkpt lat="42.6934683" lon="-8.4673883"><ele>220.66666666666666</ele><time>2026-04-14T07:48:12.834Z</time></trkpt><trkpt lat="42.6936" lon="-8.4672017"><ele>218.33333333333331</ele><time>2026-04-14T07:48:13.833Z</time></trkpt><trkpt lat="42.69373" lon="-8.467005"><ele>216.0</ele><time>2026-04-14T07:48:14.833Z</time></trkpt><trkpt lat="42.6938617" lon="-8.466805"><ele>216.0</ele><time>2026-04-14T07:48:15.833Z</time></trkpt><trkpt lat="42.6939833" lon="-8.46659"><ele>216.0</ele><time>2026-04-14T07:48:16.834Z</time></trkpt><trkpt lat="42.694095" lon="-8.46637"><ele>216.0</ele><time>2026-04-14T07:48:17.833Z</time></trkpt><trkpt lat="42.6942083" lon="-8.466155"><ele>215.33333333333331</ele><time>2026-04-14T07:48:18.833Z</time></trkpt><trkpt lat="42.694325" lon="-8.4659417"><ele>214.66666666666666</ele><time>2026-04-14T07:48:19.833Z</time></trkpt><trkpt lat="42.6944267" lon="-8.46573"><ele>214.0</ele><time>2026-04-14T07:48:20.834Z</time></trkpt><trkpt lat="42.6945267" lon="-8.465515"><ele>211.66666666666666</ele><time>2026-04-14T07:48:21.833Z</time></trkpt><trkpt lat="42.6946317" lon="-8.4653"><ele>209.33333333333331</ele><time>2026-04-14T07:48:22.833Z</time></trkpt><trkpt lat="42.6947283" lon="-8.465085"><ele>207.0</ele><time>2026-04-14T07:48:23.833Z</time></trkpt><trkpt lat="42.6948317" lon="-8.4648717"><ele>207.0</ele><time>2026-04-14T07:48:24.834Z</time></trkpt><trkpt lat="42.6949367" lon="-8.4646667"><ele>207.0</ele><time>2026-04-14T07:48:25.834Z</time></trkpt><trkpt lat="42.6950367" lon="-8.4644517"><ele>207.0</ele><time>2026-04-14T07:48:26.833Z</time></trkpt><trkpt lat="42.6951383" lon="-8.4642383"><ele>206.66666666666669</ele><time>2026-04-14T07:48:27.834Z</time></trkpt><trkpt lat="42.69524" lon="-8.4640183"><ele>206.33333333333334</ele><time>2026-04-14T07:48:28.834Z</time></trkpt><trkpt lat="42.6953467" lon="-8.4638"><ele>206.0</ele><time>2026-04-14T07:48:29.833Z</time></trkpt><trkpt lat="42.69545" lon="-8.4635867"><ele>205.66666666666669</ele><time>2026-04-14T07:48:30.834Z</time></trkpt><trkpt lat="42.69556" lon="-8.4633817"><ele>205.33333333333331</ele><time>2026-04-14T07:48:31.834Z</time></trkpt><trkpt lat="42.69567" lon="-8.4631667"><ele>205.0</ele><time>2026-04-14T07:48:32.833Z</time></trkpt><trkpt lat="42.6957817" lon="-8.46295"><ele>205.33333333333331</ele><time>2026-04-14T07:48:33.833Z</time></trkpt><trkpt lat="42.6958867" lon="-8.4627383"><ele>205.66666666666669</ele><time>2026-04-14T07:48:34.834Z</time></trkpt><trkpt lat="42.6959833" lon="-8.46253"><ele>206.0</ele><time>2026-04-14T07:48:35.834Z</time></trkpt><trkpt lat="42.696095" lon="-8.4623167"><ele>201.33333333333334</ele><time>2026-04-14T07:48:36.834Z</time></trkpt><trkpt lat="42.6962033" lon="-8.4621033"><ele>196.66666666666669</ele><time>2026-04-14T07:48:37.833Z</time></trkpt><trkpt lat="42.6963017" lon="-8.4618883"><ele>192.0</ele><time>2026-04-14T07:48:38.834Z</time></trkpt><trkpt lat="42.6964033" lon="-8.4616817"><ele>192.0</ele><time>2026-04-14T07:48:39.833Z</time></trkpt><trkpt lat="42.696505" lon="-8.4614767"><ele>192.0</ele><time>2026-04-14T07:48:40.833Z</time></trkpt><trkpt lat="42.6966083" lon="-8.461265"><ele>192.0</ele><time>2026-04-14T07:48:41.833Z</time></trkpt><trkpt lat="42.6967167" lon="-8.4610617"><ele>190.66666666666666</ele><time>2026-04-14T07:48:42.833Z</time></trkpt><trkpt lat="42.6968183" lon="-8.4608533"><ele>189.33333333333331</ele><time>2026-04-14T07:48:43.833Z</time></trkpt><trkpt lat="42.6969217" lon="-8.460645"><ele>188.0</ele><time>2026-04-14T07:48:44.834Z</time></trkpt><trkpt lat="42.6970183" lon="-8.4604367"><ele>187.0</ele><time>2026-04-14T07:48:45.833Z</time></trkpt><trkpt lat="42.6971167" lon="-8.4602333"><ele>186.0</ele><time>2026-04-14T07:48:46.833Z</time></trkpt><trkpt lat="42.6972167" lon="-8.460025"><ele>185.0</ele><time>2026-04-14T07:48:47.833Z</time></trkpt><trkpt lat="42.6973233" lon="-8.4598167"><ele>185.0</ele><time>2026-04-14T07:48:48.834Z</time></trkpt><trkpt lat="42.69743" lon="-8.4596133"><ele>185.0</ele><time>2026-04-14T07:48:49.833Z</time></trkpt><trkpt lat="42.6975317" lon="-8.459405"><ele>185.0</ele><time>2026-04-14T07:48:50.833Z</time></trkpt><trkpt lat="42.6976433" lon="-8.4592"><ele>185.0</ele><time>2026-04-14T07:48:51.834Z</time></trkpt><trkpt lat="42.697755" lon="-8.4589867"><ele>185.0</ele><time>2026-04-14T07:48:52.834Z</time></trkpt><trkpt lat="42.69786" lon="-8.458775"><ele>185.0</ele><time>2026-04-14T07:48:53.833Z</time></trkpt><trkpt lat="42.697965" lon="-8.4585633"><ele>185.0</ele><time>2026-04-14T07:48:54.834Z</time></trkpt><trkpt lat="42.6980583" lon="-8.4583483"><ele>185.0</ele><time>2026-04-14T07:48:55.833Z</time></trkpt><trkpt lat="42.6981517" lon="-8.4581317"><ele>185.0</ele><time>2026-04-14T07:48:56.833Z</time></trkpt><trkpt lat="42.69825" lon="-8.4579217"><ele>185.66666666666666</ele><time>2026-04-14T07:48:57.833Z</time></trkpt><trkpt lat="42.69834" lon="-8.4577067"><ele>186.33333333333334</ele><time>2026-04-14T07:48:58.833Z</time></trkpt><trkpt lat="42.6984267" lon="-8.4574817"><ele>187.0</ele><time>2026-04-14T07:48:59.833Z</time></trkpt><trkpt lat="42.6985167" lon="-8.4572517"><ele>187.33333333333334</ele><time>2026-04-14T07:49:00.833Z</time></trkpt><trkpt lat="42.6985833" lon="-8.45701"><ele>187.66666666666666</ele><time>2026-04-14T07:49:01.833Z</time></trkpt><trkpt lat="42.69864" lon="-8.4567667"><ele>188.0</ele><time>2026-04-14T07:49:02.834Z</time></trkpt><trkpt lat="42.6986817" lon="-8.4565217"><ele>185.33333333333331</ele><time>2026-04-14T07:49:03.833Z</time></trkpt><trkpt lat="42.6987217" lon="-8.456275"><ele>182.66666666666666</ele><time>2026-04-14T07:49:04.833Z</time></trkpt><trkpt lat="42.6987517" lon="-8.4560267"><ele>180.0</ele><time>2026-04-14T07:49:05.834Z</time></trkpt><trkpt lat="42.6987867" lon="-8.4557817"><ele>180.0</ele><time>2026-04-14T07:49:06.833Z</time></trkpt><trkpt lat="42.6988383" lon="-8.45553"><ele>180.0</ele><time>2026-04-14T07:49:07.833Z</time></trkpt><trkpt lat="42.69888" lon="-8.45528"><ele>180.0</ele><time>2026-04-14T07:49:08.833Z</time></trkpt><trkpt lat="42.6989233" lon="-8.4550367"><ele>178.33333333333334</ele><time>2026-04-14T07:49:09.833Z</time></trkpt><trkpt lat="42.698975" lon="-8.4547967"><ele>176.66666666666669</ele><time>2026-04-14T07:49:10.833Z</time></trkpt><trkpt lat="42.69904" lon="-8.4545733"><ele>175.0</ele><time>2026-04-14T07:49:11.834Z</time></trkpt><trkpt lat="42.699115" lon="-8.4543517"><ele>175.0</ele><time>2026-04-14T07:49:12.834Z</time></trkpt><trkpt lat="42.6992117" lon="-8.45414"><ele>175.0</ele><time>2026-04-14T07:49:13.833Z</time></trkpt><trkpt lat="42.69932" lon="-8.4539383"><ele>175.0</ele><time>2026-04-14T07:49:14.833Z</time></trkpt><trkpt lat="42.699435" lon="-8.4537383"><ele>175.0</ele><time>2026-04-14T07:49:15.833Z</time></trkpt><trkpt lat="42.699545" lon="-8.45353"><ele>175.0</ele><time>2026-04-14T07:49:16.833Z</time></trkpt><trkpt lat="42.6996567" lon="-8.4533317"><ele>175.0</ele><time>2026-04-14T07:49:17.833Z</time></trkpt><trkpt lat="42.699775" lon="-8.4531283"><ele>176.66666666666669</ele><time>2026-04-14T07:49:18.833Z</time></trkpt><trkpt lat="42.69989" lon="-8.4529267"><ele>178.33333333333334</ele><time>2026-04-14T07:49:19.833Z</time></trkpt><trkpt lat="42.6999983" lon="-8.4527183"><ele>180.0</ele><time>2026-04-14T07:49:20.833Z</time></trkpt><trkpt lat="42.7000933" lon="-8.4525033"><ele>180.0</ele><time>2026-04-14T07:49:21.833Z</time></trkpt><trkpt lat="42.7001767" lon="-8.4522783"><ele>180.0</ele><time>2026-04-14T07:49:22.833Z</time></trkpt><trkpt lat="42.7002517" lon="-8.4520533"><ele>180.0</ele><time>2026-04-14T07:49:23.833Z</time></trkpt><trkpt lat="42.7003317" lon="-8.4518333"><ele>181.66666666666666</ele><time>2026-04-14T07:49:24.833Z</time></trkpt><trkpt lat="42.7004067" lon="-8.4516067"><ele>183.33333333333331</ele><time>2026-04-14T07:49:25.834Z</time></trkpt><trkpt lat="42.7004767" lon="-8.4513917"><ele>185.0</ele><time>2026-04-14T07:49:26.833Z</time></trkpt><trkpt lat="42.700545" lon="-8.4511967"><ele>186.33333333333331</ele><time>2026-04-14T07:49:27.833Z</time></trkpt><trkpt lat="42.70061" lon="-8.4510067"><ele>187.66666666666666</ele><time>2026-04-14T07:49:28.834Z</time></trkpt><trkpt lat="42.70068" lon="-8.4508267"><ele>189.0</ele><time>2026-04-14T07:49:29.833Z</time></trkpt><trkpt lat="42.700735" lon="-8.4506367"><ele>191.0</ele><time>2026-04-14T07:49:30.833Z</time></trkpt><trkpt lat="42.700785" lon="-8.4504383"><ele>193.0</ele><time>2026-04-14T07:49:31.833Z</time></trkpt><trkpt lat="42.70084" lon="-8.4502417"><ele>195.0</ele><time>2026-04-14T07:49:32.833Z</time></trkpt><trkpt lat="42.7009083" lon="-8.4500317"><ele>195.0</ele><time>2026-04-14T07:49:33.833Z</time></trkpt><trkpt lat="42.70098" lon="-8.449825"><ele>195.0</ele><time>2026-04-14T07:49:34.833Z</time></trkpt><trkpt lat="42.7010483" lon="-8.44961"><ele>195.0</ele><time>2026-04-14T07:49:35.834Z</time></trkpt><trkpt lat="42.7011133" lon="-8.449395"><ele>198.0</ele><time>2026-04-14T07:49:36.833Z</time></trkpt><trkpt lat="42.701175" lon="-8.44918"><ele>201.0</ele><time>2026-04-14T07:49:37.834Z</time></trkpt><trkpt lat="42.7012417" lon="-8.4489683"><ele>204.0</ele><time>2026-04-14T07:49:38.834Z</time></trkpt><trkpt lat="42.7013183" lon="-8.44875"><ele>204.0</ele><time>2026-04-14T07:49:39.833Z</time></trkpt><trkpt lat="42.701395" lon="-8.44854"><ele>204.0</ele><time>2026-04-14T07:49:40.834Z</time></trkpt><trkpt lat="42.70147" lon="-8.4483217"><ele>204.0</ele><time>2026-04-14T07:49:41.834Z</time></trkpt><trkpt lat="42.70154" lon="-8.4480917"><ele>203.66666666666669</ele><time>2026-04-14T07:49:42.833Z</time></trkpt><trkpt lat="42.7016167" lon="-8.4478667"><ele>203.33333333333334</ele><time>2026-04-14T07:49:43.833Z</time></trkpt><trkpt lat="42.7016817" lon="-8.44764"><ele>203.0</ele><time>2026-04-14T07:49:44.834Z</time></trkpt><trkpt lat="42.7017467" lon="-8.44741"><ele>203.0</ele><time>2026-04-14T07:49:45.833Z</time></trkpt><trkpt lat="42.7018167" lon="-8.447185"><ele>203.0</ele><time>2026-04-14T07:49:46.834Z</time></trkpt><trkpt lat="42.7018883" lon="-8.4469617"><ele>203.0</ele><time>2026-04-14T07:49:47.833Z</time></trkpt><trkpt lat="42.701965" lon="-8.4467383"><ele>204.0</ele><time>2026-04-14T07:49:48.834Z</time></trkpt><trkpt lat="42.702035" lon="-8.44651"><ele>205.0</ele><time>2026-04-14T07:49:49.833Z</time></trkpt><trkpt lat="42.702105" lon="-8.446285"><ele>206.0</ele><time>2026-04-14T07:49:50.833Z</time></trkpt><trkpt lat="42.7021867" lon="-8.446055"><ele>206.0</ele><time>2026-04-14T07:49:51.833Z</time></trkpt><trkpt lat="42.7022667" lon="-8.44582"><ele>206.0</ele><time>2026-04-14T07:49:52.834Z</time></trkpt><trkpt lat="42.702345" lon="-8.4455933"><ele>206.0</ele><time>2026-04-14T07:49:53.833Z</time></trkpt><trkpt lat="42.7024183" lon="-8.44536"><ele>203.66666666666669</ele><time>2026-04-14T07:49:54.834Z</time></trkpt><trkpt lat="42.7024933" lon="-8.44513"><ele>201.33333333333331</ele><time>2026-04-14T07:49:55.834Z</time></trkpt><trkpt lat="42.7025567" lon="-8.444905"><ele>199.0</ele><time>2026-04-14T07:49:56.833Z</time></trkpt><trkpt lat="42.7026283" lon="-8.44468"><ele>199.0</ele><time>2026-04-14T07:49:57.833Z</time></trkpt><trkpt lat="42.70269" lon="-8.4444567"><ele>199.0</ele><time>2026-04-14T07:49:58.834Z</time></trkpt><trkpt lat="42.7027433" lon="-8.444225"><ele>199.0</ele><time>2026-04-14T07:49:59.834Z</time></trkpt><trkpt lat="42.7027933" lon="-8.4439967"><ele>203.33333333333331</ele><time>2026-04-14T07:50:00.833Z</time></trkpt><trkpt lat="42.7028333" lon="-8.4437633"><ele>207.66666666666669</ele><time>2026-04-14T07:50:01.833Z</time></trkpt><trkpt lat="42.702865" lon="-8.4435283"><ele>212.0</ele><time>2026-04-14T07:50:02.833Z</time></trkpt><trkpt lat="42.70288" lon="-8.4432983"><ele>212.0</ele><time>2026-04-14T07:50:03.833Z</time></trkpt><trkpt lat="42.7028833" lon="-8.443065"><ele>212.0</ele><time>2026-04-14T07:50:04.833Z</time></trkpt><trkpt lat="42.7028617" lon="-8.4428267"><ele>212.0</ele><time>2026-04-14T07:50:05.834Z</time></trkpt><trkpt lat="42.7028283" lon="-8.442605"><ele>211.66666666666669</ele><time>2026-04-14T07:50:06.833Z</time></trkpt><trkpt lat="42.70277" lon="-8.4423983"><ele>211.33333333333331</ele><time>2026-04-14T07:50:07.834Z</time></trkpt><trkpt lat="42.70269" lon="-8.4421867"><ele>211.0</ele><time>2026-04-14T07:50:08.834Z</time></trkpt><trkpt lat="42.702595" lon="-8.441985"><ele>212.66666666666666</ele><time>2026-04-14T07:50:09.834Z</time></trkpt><trkpt lat="42.7024967" lon="-8.4418033"><ele>214.33333333333331</ele><time>2026-04-14T07:50:10.833Z</time></trkpt><trkpt lat="42.702385" lon="-8.4416317"><ele>216.0</ele><time>2026-04-14T07:50:11.834Z</time></trkpt><trkpt lat="42.7022533" lon="-8.4414783"><ele>216.0</ele><time>2026-04-14T07:50:12.833Z</time></trkpt><trkpt lat="42.70213" lon="-8.4413367"><ele>216.0</ele><time>2026-04-14T07:50:13.833Z</time></trkpt><trkpt lat="42.7020033" lon="-8.441205"><ele>216.0</ele><time>2026-04-14T07:50:14.834Z</time></trkpt><trkpt lat="42.7018683" lon="-8.44109"><ele>218.66666666666669</ele><time>2026-04-14T07:50:15.834Z</time></trkpt><trkpt lat="42.70173" lon="-8.4409767"><ele>221.33333333333334</ele><time>2026-04-14T07:50:16.833Z</time></trkpt><trkpt lat="42.7015817" lon="-8.440875"><ele>224.0</ele><time>2026-04-14T07:50:17.833Z</time></trkpt><trkpt lat="42.7014333" lon="-8.4407667"><ele>224.0</ele><time>2026-04-14T07:50:18.833Z</time></trkpt><trkpt lat="42.70128" lon="-8.4406633"><ele>224.0</ele><time>2026-04-14T07:50:19.833Z</time></trkpt><trkpt lat="42.7011217" lon="-8.44056"><ele>224.0</ele><time>2026-04-14T07:50:20.834Z</time></trkpt><trkpt lat="42.7009633" lon="-8.440445"><ele>225.66666666666669</ele><time>2026-04-14T07:50:21.834Z</time></trkpt><trkpt lat="42.7008117" lon="-8.44033"><ele>227.33333333333331</ele><time>2026-04-14T07:50:22.833Z</time></trkpt><trkpt lat="42.7006583" lon="-8.4402183"><ele>229.0</ele><time>2026-04-14T07:50:23.834Z</time></trkpt><trkpt lat="42.70051" lon="-8.44011"><ele>229.0</ele><time>2026-04-14T07:50:24.833Z</time></trkpt><trkpt lat="42.7003617" lon="-8.44"><ele>229.0</ele><time>2026-04-14T07:50:25.833Z</time></trkpt><trkpt lat="42.700205" lon="-8.43989"><ele>229.0</ele><time>2026-04-14T07:50:26.834Z</time></trkpt><trkpt lat="42.70006" lon="-8.439785"><ele>230.33333333333331</ele><time>2026-04-14T07:50:27.833Z</time></trkpt><trkpt lat="42.6999133" lon="-8.439685"><ele>231.66666666666669</ele><time>2026-04-14T07:50:28.833Z</time></trkpt><trkpt lat="42.699765" lon="-8.43957"><ele>233.0</ele><time>2026-04-14T07:50:29.834Z</time></trkpt><trkpt lat="42.6996233" lon="-8.4394567"><ele>234.0</ele><time>2026-04-14T07:50:30.833Z</time></trkpt><trkpt lat="42.6994817" lon="-8.4393333"><ele>235.0</ele><time>2026-04-14T07:50:31.834Z</time></trkpt><trkpt lat="42.69934" lon="-8.4392067"><ele>236.0</ele><time>2026-04-14T07:50:32.833Z</time></trkpt><trkpt lat="42.699205" lon="-8.4390733"><ele>236.33333333333334</ele><time>2026-04-14T07:50:33.834Z</time></trkpt><trkpt lat="42.6990817" lon="-8.438925"><ele>236.66666666666669</ele><time>2026-04-14T07:50:34.834Z</time></trkpt><trkpt lat="42.6989683" lon="-8.4387667"><ele>237.0</ele><time>2026-04-14T07:50:35.834Z</time></trkpt><trkpt lat="42.6988667" lon="-8.4386017"><ele>238.0</ele><time>2026-04-14T07:50:36.834Z</time></trkpt><trkpt lat="42.6987633" lon="-8.4384383"><ele>239.0</ele><time>2026-04-14T07:50:37.833Z</time></trkpt><trkpt lat="42.6986783" lon="-8.4382767"><ele>240.0</ele><time>2026-04-14T07:50:38.834Z</time></trkpt><trkpt lat="42.6986167" lon="-8.4381567"><ele>241.0</ele><time>2026-04-14T07:50:39.834Z</time></trkpt><trkpt lat="42.6985833" lon="-8.4380783"><ele>242.0</ele><time>2026-04-14T07:50:40.833Z</time></trkpt><trkpt lat="42.698535" lon="-8.4379583"><ele>243.0</ele><time>2026-04-14T07:50:42.834Z</time></trkpt><trkpt lat="42.6984683" lon="-8.4377867"><ele>244.0</ele><time>2026-04-14T07:50:44.833Z</time></trkpt><trkpt lat="42.6984283" lon="-8.4376633"><ele>245.0</ele><time>2026-04-14T07:50:45.833Z</time></trkpt><trkpt lat="42.6983733" lon="-8.43752"><ele>245.0</ele><time>2026-04-14T07:50:46.834Z</time></trkpt><trkpt lat="42.698315" lon="-8.4373633"><ele>245.0</ele><time>2026-04-14T07:50:47.834Z</time></trkpt><trkpt lat="42.6982567" lon="-8.4371967"><ele>245.0</ele><time>2026-04-14T07:50:48.833Z</time></trkpt><trkpt lat="42.69819" lon="-8.4370083"><ele>245.0</ele><time>2026-04-14T07:50:49.834Z</time></trkpt><trkpt lat="42.698125" lon="-8.436825"><ele>246.0</ele><time>2026-04-14T07:50:50.833Z</time></trkpt><trkpt lat="42.6980583" lon="-8.43665"><ele>247.0</ele><time>2026-04-14T07:50:51.834Z</time></trkpt><trkpt lat="42.697995" lon="-8.4364667"><ele>248.0</ele><time>2026-04-14T07:50:52.834Z</time></trkpt><trkpt lat="42.697925" lon="-8.436275"><ele>247.33333333333334</ele><time>2026-04-14T07:50:53.834Z</time></trkpt><trkpt lat="42.6978533" lon="-8.43609"><ele>246.66666666666669</ele><time>2026-04-14T07:50:54.833Z</time></trkpt><trkpt lat="42.6977817" lon="-8.4359"><ele>246.0</ele><time>2026-04-14T07:50:55.833Z</time></trkpt><trkpt lat="42.6977167" lon="-8.4357017"><ele>246.0</ele><time>2026-04-14T07:50:56.834Z</time></trkpt><trkpt lat="42.6976633" lon="-8.4354917"><ele>246.0</ele><time>2026-04-14T07:50:57.834Z</time></trkpt><trkpt lat="42.6976217" lon="-8.4352667"><ele>246.0</ele><time>2026-04-14T07:50:58.834Z</time></trkpt><trkpt lat="42.6975883" lon="-8.4350367"><ele>247.66666666666669</ele><time>2026-04-14T07:50:59.834Z</time></trkpt><trkpt lat="42.6975733" lon="-8.434805"><ele>249.33333333333334</ele><time>2026-04-14T07:51:00.833Z</time></trkpt><trkpt lat="42.6975717" lon="-8.434575"><ele>251.0</ele><time>2026-04-14T07:51:01.833Z</time></trkpt><trkpt lat="42.69757" lon="-8.43435"><ele>253.0</ele><time>2026-04-14T07:51:02.833Z</time></trkpt><trkpt lat="42.6975817" lon="-8.4341183"><ele>255.0</ele><time>2026-04-14T07:51:03.834Z</time></trkpt><trkpt lat="42.6976033" lon="-8.4338883"><ele>257.0</ele><time>2026-04-14T07:51:04.833Z</time></trkpt><trkpt lat="42.69763" lon="-8.43366"><ele>259.0</ele><time>2026-04-14T07:51:05.834Z</time></trkpt><trkpt lat="42.6976533" lon="-8.4334333"><ele>261.0</ele><time>2026-04-14T07:51:06.833Z</time></trkpt><trkpt lat="42.69768" lon="-8.4332033"><ele>263.0</ele><time>2026-04-14T07:51:07.833Z</time></trkpt><trkpt lat="42.6977117" lon="-8.4329567"><ele>265.33333333333337</ele><time>2026-04-14T07:51:08.834Z</time></trkpt><trkpt lat="42.6977367" lon="-8.4327167"><ele>267.6666666666667</ele><time>2026-04-14T07:51:09.833Z</time></trkpt><trkpt lat="42.697765" lon="-8.4324783"><ele>270.0</ele><time>2026-04-14T07:51:10.833Z</time></trkpt><trkpt lat="42.6977933" lon="-8.4322433"><ele>276.3333333333333</ele><time>2026-04-14T07:51:11.834Z</time></trkpt><trkpt lat="42.69783" lon="-8.431995"><ele>282.66666666666663</ele><time>2026-04-14T07:51:12.833Z</time></trkpt><trkpt lat="42.6978733" lon="-8.4317533"><ele>289.0</ele><time>2026-04-14T07:51:13.833Z</time></trkpt><trkpt lat="42.69792" lon="-8.4315167"><ele>288.3333333333333</ele><time>2026-04-14T07:51:14.834Z</time></trkpt><trkpt lat="42.697975" lon="-8.431285"><ele>287.6666666666667</ele><time>2026-04-14T07:51:15.833Z</time></trkpt><trkpt lat="42.698035" lon="-8.43106"><ele>287.0</ele><time>2026-04-14T07:51:16.833Z</time></trkpt><trkpt lat="42.698095" lon="-8.43084"><ele>287.0</ele><time>2026-04-14T07:51:17.833Z</time></trkpt><trkpt lat="42.69816" lon="-8.43062"><ele>287.0</ele><time>2026-04-14T07:51:18.834Z</time></trkpt><trkpt lat="42.69824" lon="-8.430405"><ele>287.0</ele><time>2026-04-14T07:51:19.834Z</time></trkpt><trkpt lat="42.6983267" lon="-8.4302033"><ele>288.0</ele><time>2026-04-14T07:51:20.833Z</time></trkpt><trkpt lat="42.69842" lon="-8.4300017"><ele>289.0</ele><time>2026-04-14T07:51:21.833Z</time></trkpt><trkpt lat="42.69852" lon="-8.4298033"><ele>290.0</ele><time>2026-04-14T07:51:22.833Z</time></trkpt><trkpt lat="42.6986217" lon="-8.4296017"><ele>290.0</ele><time>2026-04-14T07:51:23.834Z</time></trkpt><trkpt lat="42.6987283" lon="-8.429405"><ele>290.0</ele><time>2026-04-14T07:51:24.834Z</time></trkpt><trkpt lat="42.69885" lon="-8.4292083"><ele>290.0</ele><time>2026-04-14T07:51:25.833Z</time></trkpt><trkpt lat="42.698975" lon="-8.4290183"><ele>290.0</ele><time>2026-04-14T07:51:26.833Z</time></trkpt><trkpt lat="42.6990983" lon="-8.4288433"><ele>290.0</ele><time>2026-04-14T07:51:27.833Z</time></trkpt><trkpt lat="42.699225" lon="-8.4286617"><ele>290.0</ele><time>2026-04-14T07:51:28.834Z</time></trkpt><trkpt lat="42.699365" lon="-8.4285083"><ele>292.33333333333337</ele><time>2026-04-14T07:51:29.833Z</time></trkpt><trkpt lat="42.699495" lon="-8.4283533"><ele>294.6666666666667</ele><time>2026-04-14T07:51:30.833Z</time></trkpt><trkpt lat="42.6996433" lon="-8.4282033"><ele>297.0</ele><time>2026-04-14T07:51:31.834Z</time></trkpt><trkpt lat="42.699795" lon="-8.4280517"><ele>296.3333333333333</ele><time>2026-04-14T07:51:32.834Z</time></trkpt><trkpt lat="42.6999367" lon="-8.4279017"><ele>295.66666666666663</ele><time>2026-04-14T07:51:33.834Z</time></trkpt><trkpt lat="42.7000883" lon="-8.427765"><ele>295.0</ele><time>2026-04-14T07:51:34.834Z</time></trkpt><trkpt lat="42.7002483" lon="-8.4276317"><ele>298.0</ele><time>2026-04-14T07:51:35.833Z</time></trkpt><trkpt lat="42.70041" lon="-8.4275"><ele>301.0</ele><time>2026-04-14T07:51:36.833Z</time></trkpt><trkpt lat="42.7005617" lon="-8.4273583"><ele>304.0</ele><time>2026-04-14T07:51:37.834Z</time></trkpt><trkpt lat="42.7007083" lon="-8.427215"><ele>303.3333333333333</ele><time>2026-04-14T07:51:38.833Z</time></trkpt><trkpt lat="42.700865" lon="-8.4270767"><ele>302.6666666666667</ele><time>2026-04-14T07:51:39.834Z</time></trkpt><trkpt lat="42.701025" lon="-8.426935"><ele>302.0</ele><time>2026-04-14T07:51:40.833Z</time></trkpt><trkpt lat="42.70119" lon="-8.4267983"><ele>301.6666666666667</ele><time>2026-04-14T07:51:41.834Z</time></trkpt><trkpt lat="42.7013583" lon="-8.426655"><ele>301.3333333333333</ele><time>2026-04-14T07:51:42.833Z</time></trkpt><trkpt lat="42.7015217" lon="-8.426515"><ele>301.0</ele><time>2026-04-14T07:51:43.833Z</time></trkpt><trkpt lat="42.7016833" lon="-8.4263617"><ele>301.0</ele><time>2026-04-14T07:51:44.833Z</time></trkpt><trkpt lat="42.7018433" lon="-8.4262083"><ele>301.0</ele><time>2026-04-14T07:51:45.834Z</time></trkpt><trkpt lat="42.7020033" lon="-8.4260633"><ele>301.0</ele><time>2026-04-14T07:51:46.834Z</time></trkpt><trkpt lat="42.70216" lon="-8.4259133"><ele>302.0</ele><time>2026-04-14T07:51:47.833Z</time></trkpt><trkpt lat="42.7023167" lon="-8.4257733"><ele>303.0</ele><time>2026-04-14T07:51:48.834Z</time></trkpt><trkpt lat="42.7024767" lon="-8.4256333"><ele>304.0</ele><time>2026-04-14T07:51:49.834Z</time></trkpt><trkpt lat="42.7026367" lon="-8.4254933"><ele>305.0</ele><time>2026-04-14T07:51:50.835Z</time></trkpt><trkpt lat="42.7027867" lon="-8.425355"><ele>306.0</ele><time>2026-04-14T07:51:51.835Z</time></trkpt><trkpt lat="42.7029283" lon="-8.4252117"><ele>307.0</ele><time>2026-04-14T07:51:52.834Z</time></trkpt><trkpt lat="42.7030883" lon="-8.4250767"><ele>307.0</ele><time>2026-04-14T07:51:53.835Z</time></trkpt><trkpt lat="42.70324" lon="-8.4249367"><ele>307.0</ele><time>2026-04-14T07:51:54.834Z</time></trkpt><trkpt lat="42.70339" lon="-8.4247867"><ele>307.0</ele><time>2026-04-14T07:51:55.834Z</time></trkpt><trkpt lat="42.7035417" lon="-8.4246483"><ele>307.3333333333333</ele><time>2026-04-14T07:51:56.835Z</time></trkpt><trkpt lat="42.7036983" lon="-8.4245067"><ele>307.6666666666667</ele><time>2026-04-14T07:51:57.834Z</time></trkpt><trkpt lat="42.703855" lon="-8.4243717"><ele>308.0</ele><time>2026-04-14T07:51:58.834Z</time></trkpt><trkpt lat="42.7039967" lon="-8.4242467"><ele>308.0</ele><time>2026-04-14T07:51:59.834Z</time></trkpt><trkpt lat="42.70415" lon="-8.4241383"><ele>308.0</ele><time>2026-04-14T07:52:00.834Z</time></trkpt><trkpt lat="42.7042983" lon="-8.42401"><ele>308.0</ele><time>2026-04-14T07:52:01.834Z</time></trkpt><trkpt lat="42.7044417" lon="-8.4238717"><ele>310.33333333333337</ele><time>2026-04-14T07:52:02.835Z</time></trkpt><trkpt lat="42.704585" lon="-8.4237267"><ele>312.6666666666667</ele><time>2026-04-14T07:52:03.834Z</time></trkpt><trkpt lat="42.7047267" lon="-8.42359"><ele>315.0</ele><time>2026-04-14T07:52:04.834Z</time></trkpt><trkpt lat="42.7048733" lon="-8.423455"><ele>315.0</ele><time>2026-04-14T07:52:05.835Z</time></trkpt><trkpt lat="42.7050217" lon="-8.4233117"><ele>315.0</ele><time>2026-04-14T07:52:06.834Z</time></trkpt><trkpt lat="42.705175" lon="-8.4231633"><ele>315.0</ele><time>2026-04-14T07:52:07.834Z</time></trkpt><trkpt lat="42.7053267" lon="-8.4230267"><ele>317.0</ele><time>2026-04-14T07:52:08.835Z</time></trkpt><trkpt lat="42.70548" lon="-8.4228933"><ele>319.0</ele><time>2026-04-14T07:52:09.834Z</time></trkpt><trkpt lat="42.70564" lon="-8.4227617"><ele>321.0</ele><time>2026-04-14T07:52:10.834Z</time></trkpt><trkpt lat="42.7057867" lon="-8.4226167"><ele>321.0</ele><time>2026-04-14T07:52:11.835Z</time></trkpt><trkpt lat="42.7059333" lon="-8.4224717"><ele>321.0</ele><time>2026-04-14T07:52:12.835Z</time></trkpt><trkpt lat="42.7060783" lon="-8.42233"><ele>321.0</ele><time>2026-04-14T07:52:13.834Z</time></trkpt><trkpt lat="42.7062233" lon="-8.4221917"><ele>319.6666666666667</ele><time>2026-04-14T07:52:14.834Z</time></trkpt><trkpt lat="42.70637" lon="-8.4220567"><ele>318.33333333333337</ele><time>2026-04-14T07:52:15.835Z</time></trkpt><trkpt lat="42.706515" lon="-8.4219183"><ele>317.0</ele><time>2026-04-14T07:52:16.835Z</time></trkpt><trkpt lat="42.70666" lon="-8.421785"><ele>317.0</ele><time>2026-04-14T07:52:17.835Z</time></trkpt><trkpt lat="42.7067933" lon="-8.421635"><ele>317.0</ele><time>2026-04-14T07:52:18.835Z</time></trkpt><trkpt lat="42.706915" lon="-8.421475"><ele>317.0</ele><time>2026-04-14T07:52:19.834Z</time></trkpt><trkpt lat="42.70703" lon="-8.4212917"><ele>320.6666666666667</ele><time>2026-04-14T07:52:20.834Z</time></trkpt><trkpt lat="42.70714" lon="-8.42111"><ele>324.3333333333333</ele><time>2026-04-14T07:52:21.834Z</time></trkpt><trkpt lat="42.707235" lon="-8.42091"><ele>328.0</ele><time>2026-04-14T07:52:22.834Z</time></trkpt><trkpt lat="42.707305" lon="-8.4206967"><ele>327.66666666666663</ele><time>2026-04-14T07:52:23.834Z</time></trkpt><trkpt lat="42.7073683" lon="-8.4204733"><ele>327.3333333333333</ele><time>2026-04-14T07:52:24.834Z</time></trkpt><trkpt lat="42.7074267" lon="-8.4202567"><ele>327.0</ele><time>2026-04-14T07:52:25.834Z</time></trkpt><trkpt lat="42.7074683" lon="-8.4200383"><ele>327.0</ele><time>2026-04-14T07:52:26.835Z</time></trkpt><trkpt lat="42.7074767" lon="-8.41981"><ele>327.0</ele><time>2026-04-14T07:52:27.834Z</time></trkpt><trkpt lat="42.7074683" lon="-8.41958"><ele>327.0</ele><time>2026-04-14T07:52:28.834Z</time></trkpt><trkpt lat="42.70745" lon="-8.419345"><ele>328.3333333333333</ele><time>2026-04-14T07:52:29.834Z</time></trkpt><trkpt lat="42.7074183" lon="-8.4191067"><ele>329.66666666666663</ele><time>2026-04-14T07:52:30.834Z</time></trkpt><trkpt lat="42.70739" lon="-8.4188683"><ele>331.0</ele><time>2026-04-14T07:52:31.834Z</time></trkpt><trkpt lat="42.7073583" lon="-8.41863"><ele>332.3333333333333</ele><time>2026-04-14T07:52:32.834Z</time></trkpt><trkpt lat="42.70734" lon="-8.4183817"><ele>333.6666666666667</ele><time>2026-04-14T07:52:33.835Z</time></trkpt><trkpt lat="42.707315" lon="-8.41814"><ele>335.0</ele><time>2026-04-14T07:52:34.834Z</time></trkpt><trkpt lat="42.707285" lon="-8.417895"><ele>336.33333333333337</ele><time>2026-04-14T07:52:35.835Z</time></trkpt><trkpt lat="42.7072533" lon="-8.41765"><ele>337.6666666666667</ele><time>2026-04-14T07:52:36.834Z</time></trkpt><trkpt lat="42.7072233" lon="-8.417405"><ele>339.0</ele><time>2026-04-14T07:52:37.834Z</time></trkpt><trkpt lat="42.7072" lon="-8.4171633"><ele>339.6666666666667</ele><time>2026-04-14T07:52:38.834Z</time></trkpt><trkpt lat="42.707175" lon="-8.416925"><ele>340.33333333333337</ele><time>2026-04-14T07:52:39.835Z</time></trkpt><trkpt lat="42.707145" lon="-8.416675"><ele>341.0</ele><time>2026-04-14T07:52:40.835Z</time></trkpt><trkpt lat="42.707115" lon="-8.416425"><ele>341.0</ele><time>2026-04-14T07:52:41.835Z</time></trkpt><trkpt lat="42.7070833" lon="-8.4161883"><ele>341.0</ele><time>2026-04-14T07:52:42.834Z</time></trkpt><trkpt lat="42.7070433" lon="-8.41595"><ele>341.0</ele><time>2026-04-14T07:52:43.834Z</time></trkpt><trkpt lat="42.7070033" lon="-8.4157083"><ele>341.0</ele><time>2026-04-14T07:52:44.834Z</time></trkpt><trkpt lat="42.7069733" lon="-8.4154667"><ele>341.0</ele><time>2026-04-14T07:52:45.835Z</time></trkpt><trkpt lat="42.7069533" lon="-8.4152233"><ele>341.0</ele><time>2026-04-14T07:52:46.834Z</time></trkpt><trkpt lat="42.7069333" lon="-8.4149767"><ele>340.33333333333337</ele><time>2026-04-14T07:52:47.834Z</time></trkpt><trkpt lat="42.7069017" lon="-8.4147367"><ele>339.6666666666667</ele><time>2026-04-14T07:52:48.834Z</time></trkpt><trkpt lat="42.7068667" lon="-8.4145033"><ele>339.0</ele><time>2026-04-14T07:52:49.835Z</time></trkpt><trkpt lat="42.7068417" lon="-8.414265"><ele>342.0</ele><time>2026-04-14T07:52:50.834Z</time></trkpt><trkpt lat="42.7068133" lon="-8.41403"><ele>345.0</ele><time>2026-04-14T07:52:51.835Z</time></trkpt><trkpt lat="42.70678" lon="-8.4137933"><ele>348.0</ele><time>2026-04-14T07:52:52.835Z</time></trkpt><trkpt lat="42.706755" lon="-8.41356"><ele>349.3333333333333</ele><time>2026-04-14T07:52:53.834Z</time></trkpt><trkpt lat="42.70673" lon="-8.4133217"><ele>350.66666666666663</ele><time>2026-04-14T07:52:54.835Z</time></trkpt><trkpt lat="42.7067017" lon="-8.413085"><ele>352.0</ele><time>2026-04-14T07:52:55.835Z</time></trkpt><trkpt lat="42.7066683" lon="-8.4128467"><ele>353.0</ele><time>2026-04-14T07:52:56.835Z</time></trkpt><trkpt lat="42.706645" lon="-8.4126167"><ele>354.0</ele><time>2026-04-14T07:52:57.834Z</time></trkpt><trkpt lat="42.70662" lon="-8.4123783"><ele>355.0</ele><time>2026-04-14T07:52:58.835Z</time></trkpt><trkpt lat="42.7066033" lon="-8.4121417"><ele>356.3333333333333</ele><time>2026-04-14T07:52:59.835Z</time></trkpt><trkpt lat="42.70657" lon="-8.4119083"><ele>357.6666666666667</ele><time>2026-04-14T07:53:00.835Z</time></trkpt><trkpt lat="42.7065367" lon="-8.411675"><ele>359.0</ele><time>2026-04-14T07:53:01.835Z</time></trkpt><trkpt lat="42.7065167" lon="-8.4114317"><ele>360.0</ele><time>2026-04-14T07:53:02.834Z</time></trkpt><trkpt lat="42.7064933" lon="-8.4111983"><ele>361.0</ele><time>2026-04-14T07:53:03.834Z</time></trkpt><trkpt lat="42.706475" lon="-8.4109633"><ele>362.0</ele><time>2026-04-14T07:53:04.834Z</time></trkpt><trkpt lat="42.706445" lon="-8.4107333"><ele>362.0</ele><time>2026-04-14T07:53:05.835Z</time></trkpt><trkpt lat="42.706415" lon="-8.4105"><ele>362.0</ele><time>2026-04-14T07:53:06.834Z</time></trkpt><trkpt lat="42.7063867" lon="-8.41027"><ele>362.0</ele><time>2026-04-14T07:53:07.834Z</time></trkpt><trkpt lat="42.706355" lon="-8.4100383"><ele>362.33333333333337</ele><time>2026-04-14T07:53:08.834Z</time></trkpt><trkpt lat="42.7063333" lon="-8.4098"><ele>362.6666666666667</ele><time>2026-04-14T07:53:09.835Z</time></trkpt><trkpt lat="42.7063067" lon="-8.4095617"><ele>363.0</ele><time>2026-04-14T07:53:10.834Z</time></trkpt><trkpt lat="42.7062767" lon="-8.409325"><ele>363.3333333333333</ele><time>2026-04-14T07:53:11.834Z</time></trkpt><trkpt lat="42.70625" lon="-8.409085"><ele>363.66666666666663</ele><time>2026-04-14T07:53:12.834Z</time></trkpt><trkpt lat="42.7062283" lon="-8.4088533"><ele>364.0</ele><time>2026-04-14T07:53:13.835Z</time></trkpt><trkpt lat="42.7062083" lon="-8.4086133"><ele>364.66666666666663</ele><time>2026-04-14T07:53:14.835Z</time></trkpt><trkpt lat="42.7061767" lon="-8.40838"><ele>365.3333333333333</ele><time>2026-04-14T07:53:15.835Z</time></trkpt><trkpt lat="42.7061517" lon="-8.4081417"><ele>366.0</ele><time>2026-04-14T07:53:16.835Z</time></trkpt><trkpt lat="42.7061217" lon="-8.4079083"><ele>366.3333333333333</ele><time>2026-04-14T07:53:17.834Z</time></trkpt><trkpt lat="42.7060983" lon="-8.407675"><ele>366.66666666666663</ele><time>2026-04-14T07:53:18.835Z</time></trkpt><trkpt lat="42.7060783" lon="-8.40744"><ele>367.0</ele><time>2026-04-14T07:53:19.835Z</time></trkpt><trkpt lat="42.7060533" lon="-8.4072083"><ele>366.0</ele><time>2026-04-14T07:53:20.835Z</time></trkpt><trkpt lat="42.7060267" lon="-8.4069717"><ele>365.0</ele><time>2026-04-14T07:53:21.834Z</time></trkpt><trkpt lat="42.705995" lon="-8.4067317"><ele>364.0</ele><time>2026-04-14T07:53:22.835Z</time></trkpt><trkpt lat="42.7059733" lon="-8.4064917"><ele>364.3333333333333</ele><time>2026-04-14T07:53:23.834Z</time></trkpt><trkpt lat="42.70595" lon="-8.4062533"><ele>364.6666666666667</ele><time>2026-04-14T07:53:24.835Z</time></trkpt><trkpt lat="42.7059267" lon="-8.4060167"><ele>365.0</ele><time>2026-04-14T07:53:25.834Z</time></trkpt><trkpt lat="42.7059" lon="-8.4058017"><ele>365.0</ele><time>2026-04-14T07:53:26.834Z</time></trkpt><trkpt lat="42.7058783" lon="-8.4055817"><ele>365.0</ele><time>2026-04-14T07:53:27.835Z</time></trkpt><trkpt lat="42.7058617" lon="-8.4053817"><ele>365.0</ele><time>2026-04-14T07:53:28.835Z</time></trkpt><trkpt lat="42.70584" lon="-8.4051917"><ele>364.6666666666667</ele><time>2026-04-14T07:53:29.834Z</time></trkpt><trkpt lat="42.7058317" lon="-8.4049767"><ele>364.3333333333333</ele><time>2026-04-14T07:53:30.834Z</time></trkpt><trkpt lat="42.70582" lon="-8.40477"><ele>364.0</ele><time>2026-04-14T07:53:31.834Z</time></trkpt><trkpt lat="42.7058033" lon="-8.4045683"><ele>363.0</ele><time>2026-04-14T07:53:32.835Z</time></trkpt><trkpt lat="42.7057867" lon="-8.4043717"><ele>362.0</ele><time>2026-04-14T07:53:33.835Z</time></trkpt><trkpt lat="42.7057733" lon="-8.404175"><ele>361.0</ele><time>2026-04-14T07:53:34.834Z</time></trkpt><trkpt lat="42.7057683" lon="-8.4039733"><ele>360.0</ele><time>2026-04-14T07:53:35.835Z</time></trkpt><trkpt lat="42.7057533" lon="-8.4037717"><ele>358.3333333333333</ele><time>2026-04-14T07:53:36.834Z</time></trkpt><trkpt lat="42.705735" lon="-8.4035633"><ele>356.66666666666663</ele><time>2026-04-14T07:53:37.835Z</time></trkpt><trkpt lat="42.7057267" lon="-8.40335"><ele>355.0</ele><time>2026-04-14T07:53:38.834Z</time></trkpt><trkpt lat="42.7057217" lon="-8.4031317"><ele>354.0</ele><time>2026-04-14T07:53:39.835Z</time></trkpt><trkpt lat="42.70571" lon="-8.40293"><ele>353.0</ele><time>2026-04-14T07:53:40.835Z</time></trkpt><trkpt lat="42.7056917" lon="-8.40273"><ele>352.0</ele><time>2026-04-14T07:53:41.835Z</time></trkpt><trkpt lat="42.7056767" lon="-8.4025517"><ele>351.0</ele><time>2026-04-14T07:53:42.835Z</time></trkpt><trkpt lat="42.705665" lon="-8.4023767"><ele>351.0</ele><time>2026-04-14T07:53:43.835Z</time></trkpt><trkpt lat="42.7056567" lon="-8.4021983"><ele>351.0</ele><time>2026-04-14T07:53:44.834Z</time></trkpt><trkpt lat="42.7056467" lon="-8.4020217"><ele>351.0</ele><time>2026-04-14T07:53:45.835Z</time></trkpt><trkpt lat="42.7056383" lon="-8.40184"><ele>351.0</ele><time>2026-04-14T07:53:46.834Z</time></trkpt><trkpt lat="42.7056233" lon="-8.4016533"><ele>350.5</ele><time>2026-04-14T07:53:47.834Z</time></trkpt><trkpt lat="42.70561" lon="-8.4014583"><ele>350.0</ele><time>2026-04-14T07:53:48.834Z</time></trkpt><trkpt lat="42.7056033" lon="-8.4012583"><ele>349.5</ele><time>2026-04-14T07:53:49.834Z</time></trkpt><trkpt lat="42.705595" lon="-8.4010617"><ele>349.0</ele><time>2026-04-14T07:53:50.835Z</time></trkpt><trkpt lat="42.705585" lon="-8.4008733"><ele>349.0</ele><time>2026-04-14T07:53:51.835Z</time></trkpt><trkpt lat="42.7055733" lon="-8.4006917"><ele>349.0</ele><time>2026-04-14T07:53:52.835Z</time></trkpt><trkpt lat="42.7055633" lon="-8.4005133"><ele>349.0</ele><time>2026-04-14T07:53:53.834Z</time></trkpt><trkpt lat="42.7055533" lon="-8.4003283"><ele>349.0</ele><time>2026-04-14T07:53:54.835Z</time></trkpt><trkpt lat="42.705535" lon="-8.40015"><ele>349.0</ele><time>2026-04-14T07:53:55.835Z</time></trkpt><trkpt lat="42.705525" lon="-8.39998"><ele>349.0</ele><time>2026-04-14T07:53:56.834Z</time></trkpt><trkpt lat="42.7055167" lon="-8.3998"><ele>349.0</ele><time>2026-04-14T07:53:57.834Z</time></trkpt><trkpt lat="42.7055067" lon="-8.3996283"><ele>349.0</ele><time>2026-04-14T07:53:58.835Z</time></trkpt><trkpt lat="42.7054983" lon="-8.3994583"><ele>350.5</ele><time>2026-04-14T07:53:59.834Z</time></trkpt><trkpt lat="42.70549" lon="-8.3992883"><ele>352.0</ele><time>2026-04-14T07:54:00.834Z</time></trkpt><trkpt lat="42.7054917" lon="-8.39912"><ele>353.5</ele><time>2026-04-14T07:54:01.834Z</time></trkpt><trkpt lat="42.7054983" lon="-8.39896"><ele>355.0</ele><time>2026-04-14T07:54:02.834Z</time></trkpt><trkpt lat="42.7055217" lon="-8.3988067"><ele>356.5</ele><time>2026-04-14T07:54:03.834Z</time></trkpt><trkpt lat="42.7055733" lon="-8.3986517"><ele>358.0</ele><time>2026-04-14T07:54:04.834Z</time></trkpt><trkpt lat="42.7056283" lon="-8.3984983"><ele>359.5</ele><time>2026-04-14T07:54:05.835Z</time></trkpt><trkpt lat="42.7056933" lon="-8.398335"><ele>361.0</ele><time>2026-04-14T07:54:06.835Z</time></trkpt><trkpt lat="42.7057667" lon="-8.3981867"><ele>361.0</ele><time>2026-04-14T07:54:07.834Z</time></trkpt><trkpt lat="42.705845" lon="-8.39804"><ele>361.0</ele><time>2026-04-14T07:54:08.835Z</time></trkpt><trkpt lat="42.7059267" lon="-8.397895"><ele>361.0</ele><time>2026-04-14T07:54:09.835Z</time></trkpt><trkpt lat="42.7060083" lon="-8.3977383"><ele>361.0</ele><time>2026-04-14T07:54:10.835Z</time></trkpt><trkpt lat="42.706085" lon="-8.3975767"><ele>362.5</ele><time>2026-04-14T07:54:11.835Z</time></trkpt><trkpt lat="42.70616" lon="-8.3974217"><ele>364.0</ele><time>2026-04-14T07:54:12.834Z</time></trkpt><trkpt lat="42.7062383" lon="-8.3972533"><ele>365.5</ele><time>2026-04-14T07:54:13.835Z</time></trkpt><trkpt lat="42.7063233" lon="-8.3970833"><ele>367.0</ele><time>2026-04-14T07:54:14.835Z</time></trkpt><trkpt lat="42.706415" lon="-8.39691"><ele>367.3333333333333</ele><time>2026-04-14T07:54:15.834Z</time></trkpt><trkpt lat="42.70651" lon="-8.396735"><ele>367.6666666666667</ele><time>2026-04-14T07:54:16.834Z</time></trkpt><trkpt lat="42.7066017" lon="-8.3965533"><ele>368.0</ele><time>2026-04-14T07:54:17.835Z</time></trkpt><trkpt lat="42.706695" lon="-8.3963767"><ele>366.0</ele><time>2026-04-14T07:54:18.835Z</time></trkpt><trkpt lat="42.706785" lon="-8.3962017"><ele>364.0</ele><time>2026-04-14T07:54:19.834Z</time></trkpt><trkpt lat="42.706875" lon="-8.39602"><ele>362.0</ele><time>2026-04-14T07:54:20.834Z</time></trkpt><trkpt lat="42.7069633" lon="-8.395835"><ele>362.0</ele><time>2026-04-14T07:54:21.834Z</time></trkpt><trkpt lat="42.7070583" lon="-8.3956583"><ele>362.0</ele><time>2026-04-14T07:54:22.834Z</time></trkpt><trkpt lat="42.7071483" lon="-8.3954733"><ele>362.0</ele><time>2026-04-14T07:54:23.835Z</time></trkpt><trkpt lat="42.7072367" lon="-8.3952867"><ele>365.0</ele><time>2026-04-14T07:54:24.834Z</time></trkpt><trkpt lat="42.7073217" lon="-8.3951"><ele>368.0</ele><time>2026-04-14T07:54:25.834Z</time></trkpt><trkpt lat="42.7074133" lon="-8.3949133"><ele>371.0</ele><time>2026-04-14T07:54:26.835Z</time></trkpt><trkpt lat="42.7075067" lon="-8.39472"><ele>372.6666666666667</ele><time>2026-04-14T07:54:27.834Z</time></trkpt><trkpt lat="42.707595" lon="-8.3945267"><ele>374.3333333333333</ele><time>2026-04-14T07:54:28.834Z</time></trkpt><trkpt lat="42.7076733" lon="-8.3943283"><ele>376.0</ele><time>2026-04-14T07:54:29.835Z</time></trkpt><trkpt lat="42.707755" lon="-8.3941333"><ele>376.0</ele><time>2026-04-14T07:54:30.834Z</time></trkpt><trkpt lat="42.7078267" lon="-8.39394"><ele>376.0</ele><time>2026-04-14T07:54:31.834Z</time></trkpt><trkpt lat="42.7079033" lon="-8.393735"><ele>376.0</ele><time>2026-04-14T07:54:32.835Z</time></trkpt><trkpt lat="42.7079733" lon="-8.39353"><ele>377.3333333333333</ele><time>2026-04-14T07:54:33.834Z</time></trkpt><trkpt lat="42.7080283" lon="-8.3933317"><ele>378.6666666666667</ele><time>2026-04-14T07:54:34.835Z</time></trkpt><trkpt lat="42.708075" lon="-8.39312"><ele>380.0</ele><time>2026-04-14T07:54:35.834Z</time></trkpt><trkpt lat="42.70812" lon="-8.3929083"><ele>381.0</ele><time>2026-04-14T07:54:36.834Z</time></trkpt><trkpt lat="42.7081583" lon="-8.3926983"><ele>382.0</ele><time>2026-04-14T07:54:37.834Z</time></trkpt><trkpt lat="42.7081933" lon="-8.3924867"><ele>383.0</ele><time>2026-04-14T07:54:38.834Z</time></trkpt><trkpt lat="42.7082183" lon="-8.3922767"><ele>385.0</ele><time>2026-04-14T07:54:39.834Z</time></trkpt><trkpt lat="42.7082567" lon="-8.3920567"><ele>387.0</ele><time>2026-04-14T07:54:40.834Z</time></trkpt><trkpt lat="42.708295" lon="-8.3918317"><ele>389.0</ele><time>2026-04-14T07:54:41.835Z</time></trkpt><trkpt lat="42.70833" lon="-8.3916183"><ele>389.0</ele><time>2026-04-14T07:54:42.834Z</time></trkpt><trkpt lat="42.70837" lon="-8.3913983"><ele>389.0</ele><time>2026-04-14T07:54:43.834Z</time></trkpt><trkpt lat="42.7084167" lon="-8.391175"><ele>389.0</ele><time>2026-04-14T07:54:44.835Z</time></trkpt><trkpt lat="42.7084467" lon="-8.3909517"><ele>391.66666666666663</ele><time>2026-04-14T07:54:45.834Z</time></trkpt><trkpt lat="42.70849" lon="-8.3907267"><ele>394.33333333333337</ele><time>2026-04-14T07:54:46.835Z</time></trkpt><trkpt lat="42.70852" lon="-8.3905017"><ele>397.0</ele><time>2026-04-14T07:54:47.835Z</time></trkpt><trkpt lat="42.7085567" lon="-8.3902833"><ele>395.6666666666667</ele><time>2026-04-14T07:54:48.834Z</time></trkpt><trkpt lat="42.70859" lon="-8.390065"><ele>394.33333333333337</ele><time>2026-04-14T07:54:49.835Z</time></trkpt><trkpt lat="42.7086283" lon="-8.3898483"><ele>393.0</ele><time>2026-04-14T07:54:50.835Z</time></trkpt><trkpt lat="42.7086683" lon="-8.3896333"><ele>395.66666666666663</ele><time>2026-04-14T07:54:51.835Z</time></trkpt><trkpt lat="42.7087067" lon="-8.3894167"><ele>398.3333333333333</ele><time>2026-04-14T07:54:52.835Z</time></trkpt><trkpt lat="42.7087317" lon="-8.3891917"><ele>401.0</ele><time>2026-04-14T07:54:53.834Z</time></trkpt><trkpt lat="42.7087517" lon="-8.3889667"><ele>402.3333333333333</ele><time>2026-04-14T07:54:54.834Z</time></trkpt><trkpt lat="42.7087617" lon="-8.38874"><ele>403.66666666666663</ele><time>2026-04-14T07:54:55.835Z</time></trkpt><trkpt lat="42.7087517" lon="-8.38852"><ele>405.0</ele><time>2026-04-14T07:54:56.835Z</time></trkpt><trkpt lat="42.7087383" lon="-8.3883017"><ele>405.0</ele><time>2026-04-14T07:54:57.835Z</time></trkpt><trkpt lat="42.7087367" lon="-8.38808"><ele>405.0</ele><time>2026-04-14T07:54:58.834Z</time></trkpt><trkpt lat="42.7087367" lon="-8.3878583"><ele>405.0</ele><time>2026-04-14T07:54:59.835Z</time></trkpt><trkpt lat="42.7087367" lon="-8.387635"><ele>405.66666666666663</ele><time>2026-04-14T07:55:00.834Z</time></trkpt><trkpt lat="42.7087417" lon="-8.3874167"><ele>406.3333333333333</ele><time>2026-04-14T07:55:01.834Z</time></trkpt><trkpt lat="42.708745" lon="-8.3871983"><ele>407.0</ele><time>2026-04-14T07:55:02.835Z</time></trkpt><trkpt lat="42.7087767" lon="-8.3869883"><ele>408.66666666666663</ele><time>2026-04-14T07:55:03.834Z</time></trkpt><trkpt lat="42.708825" lon="-8.3867817"><ele>410.33333333333337</ele><time>2026-04-14T07:55:04.835Z</time></trkpt><trkpt lat="42.708885" lon="-8.3865817"><ele>412.0</ele><time>2026-04-14T07:55:05.835Z</time></trkpt><trkpt lat="42.708965" lon="-8.3863833"><ele>415.0</ele><time>2026-04-14T07:55:06.835Z</time></trkpt><trkpt lat="42.70904" lon="-8.3861867"><ele>418.0</ele><time>2026-04-14T07:55:07.835Z</time></trkpt><trkpt lat="42.7091267" lon="-8.3860017"><ele>421.0</ele><time>2026-04-14T07:55:08.835Z</time></trkpt><trkpt lat="42.7092267" lon="-8.3858283"><ele>421.0</ele><time>2026-04-14T07:55:09.834Z</time></trkpt><trkpt lat="42.7093417" lon="-8.3856683"><ele>421.0</ele><time>2026-04-14T07:55:10.835Z</time></trkpt><trkpt lat="42.7094683" lon="-8.3855267"><ele>421.0</ele><time>2026-04-14T07:55:11.834Z</time></trkpt><trkpt lat="42.7096117" lon="-8.3854083"><ele>425.33333333333337</ele><time>2026-04-14T07:55:12.835Z</time></trkpt><trkpt lat="42.7097633" lon="-8.3852983"><ele>429.66666666666663</ele><time>2026-04-14T07:55:13.834Z</time></trkpt><trkpt lat="42.70992" lon="-8.3852017"><ele>434.0</ele><time>2026-04-14T07:55:14.835Z</time></trkpt><trkpt lat="42.7100817" lon="-8.3851067"><ele>434.3333333333333</ele><time>2026-04-14T07:55:15.834Z</time></trkpt><trkpt lat="42.710245" lon="-8.3850117"><ele>434.66666666666663</ele><time>2026-04-14T07:55:16.834Z</time></trkpt><trkpt lat="42.7104" lon="-8.3849283"><ele>435.0</ele><time>2026-04-14T07:55:17.834Z</time></trkpt><trkpt lat="42.7105617" lon="-8.3848317"><ele>435.0</ele><time>2026-04-14T07:55:18.835Z</time></trkpt><trkpt lat="42.710715" lon="-8.3847083"><ele>435.0</ele><time>2026-04-14T07:55:19.834Z</time></trkpt><trkpt lat="42.710865" lon="-8.3845567"><ele>435.0</ele><time>2026-04-14T07:55:20.835Z</time></trkpt><trkpt lat="42.7109967" lon="-8.3843883"><ele>434.66666666666663</ele><time>2026-04-14T07:55:21.834Z</time></trkpt><trkpt lat="42.7111183" lon="-8.3842067"><ele>434.3333333333333</ele><time>2026-04-14T07:55:22.835Z</time></trkpt><trkpt lat="42.7112233" lon="-8.3840217"><ele>434.0</ele><time>2026-04-14T07:55:23.834Z</time></trkpt><trkpt lat="42.71132" lon="-8.3838283"><ele>439.0</ele><time>2026-04-14T07:55:24.834Z</time></trkpt><trkpt lat="42.71142" lon="-8.3836317"><ele>444.0</ele><time>2026-04-14T07:55:25.834Z</time></trkpt><trkpt lat="42.7115133" lon="-8.3834333"><ele>449.0</ele><time>2026-04-14T07:55:26.834Z</time></trkpt><trkpt lat="42.7116083" lon="-8.3832283"><ele>449.0</ele><time>2026-04-14T07:55:27.834Z</time></trkpt><trkpt lat="42.7117117" lon="-8.38303"><ele>449.0</ele><time>2026-04-14T07:55:28.835Z</time></trkpt><trkpt lat="42.7118133" lon="-8.382825"><ele>449.0</ele><time>2026-04-14T07:55:29.834Z</time></trkpt><trkpt lat="42.7119133" lon="-8.38262"><ele>449.0</ele><time>2026-04-14T07:55:30.835Z</time></trkpt><trkpt lat="42.71201" lon="-8.3824033"><ele>449.0</ele><time>2026-04-14T07:55:31.835Z</time></trkpt><trkpt lat="42.7120867" lon="-8.382185"><ele>449.0</ele><time>2026-04-14T07:55:32.835Z</time></trkpt><trkpt lat="42.7121583" lon="-8.381965"><ele>449.0</ele><time>2026-04-14T07:55:33.834Z</time></trkpt><trkpt lat="42.7122117" lon="-8.3817383"><ele>449.0</ele><time>2026-04-14T07:55:34.834Z</time></trkpt><trkpt lat="42.7122567" lon="-8.3815017"><ele>449.0</ele><time>2026-04-14T07:55:35.834Z</time></trkpt><trkpt lat="42.7122883" lon="-8.38127"><ele>453.0</ele><time>2026-04-14T07:55:36.835Z</time></trkpt><trkpt lat="42.7123183" lon="-8.38103"><ele>457.0</ele><time>2026-04-14T07:55:37.835Z</time></trkpt><trkpt lat="42.7123483" lon="-8.380795"><ele>461.0</ele><time>2026-04-14T07:55:38.834Z</time></trkpt><trkpt lat="42.7123833" lon="-8.38056"><ele>465.0</ele><time>2026-04-14T07:55:39.834Z</time></trkpt><trkpt lat="42.712425" lon="-8.3803467"><ele>469.0</ele><time>2026-04-14T07:55:40.834Z</time></trkpt><trkpt lat="42.71247" lon="-8.38012"><ele>473.0</ele><time>2026-04-14T07:55:41.834Z</time></trkpt><trkpt lat="42.71253" lon="-8.3799017"><ele>471.3333333333333</ele><time>2026-04-14T07:55:42.835Z</time></trkpt><trkpt lat="42.712605" lon="-8.3796817"><ele>469.66666666666663</ele><time>2026-04-14T07:55:43.835Z</time></trkpt><trkpt lat="42.7126917" lon="-8.37948"><ele>468.0</ele><time>2026-04-14T07:55:44.834Z</time></trkpt><trkpt lat="42.712785" lon="-8.3792867"><ele>468.0</ele><time>2026-04-14T07:55:45.834Z</time></trkpt><trkpt lat="42.7128833" lon="-8.3790867"><ele>468.0</ele><time>2026-04-14T07:55:46.834Z</time></trkpt><trkpt lat="42.7129717" lon="-8.3788883"><ele>468.0</ele><time>2026-04-14T07:55:47.835Z</time></trkpt><trkpt lat="42.713055" lon="-8.3786867"><ele>470.66666666666663</ele><time>2026-04-14T07:55:48.834Z</time></trkpt><trkpt lat="42.7131417" lon="-8.3784717"><ele>473.3333333333333</ele><time>2026-04-14T07:55:49.835Z</time></trkpt><trkpt lat="42.7132217" lon="-8.3782467"><ele>476.0</ele><time>2026-04-14T07:55:50.834Z</time></trkpt><trkpt lat="42.7132833" lon="-8.3780217"><ele>478.3333333333333</ele><time>2026-04-14T07:55:51.834Z</time></trkpt><trkpt lat="42.7133383" lon="-8.3777983"><ele>480.66666666666663</ele><time>2026-04-14T07:55:52.834Z</time></trkpt><trkpt lat="42.7133833" lon="-8.3775633"><ele>483.0</ele><time>2026-04-14T07:55:53.835Z</time></trkpt><trkpt lat="42.7134317" lon="-8.3773283"><ele>486.0</ele><time>2026-04-14T07:55:54.835Z</time></trkpt><trkpt lat="42.7134767" lon="-8.3771017"><ele>489.0</ele><time>2026-04-14T07:55:55.835Z</time></trkpt><trkpt lat="42.7135233" lon="-8.3768683"><ele>492.0</ele><time>2026-04-14T07:55:56.835Z</time></trkpt><trkpt lat="42.71361" lon="-8.3766417"><ele>489.0</ele><time>2026-04-14T07:55:57.834Z</time></trkpt><trkpt lat="42.7136967" lon="-8.3764283"><ele>486.0</ele><time>2026-04-14T07:55:58.835Z</time></trkpt><trkpt lat="42.7138" lon="-8.3762233"><ele>483.0</ele><time>2026-04-14T07:55:59.834Z</time></trkpt><trkpt lat="42.713895" lon="-8.37602"><ele>483.0</ele><time>2026-04-14T07:56:00.834Z</time></trkpt><trkpt lat="42.7139983" lon="-8.3758167"><ele>483.0</ele><time>2026-04-14T07:56:01.834Z</time></trkpt><trkpt lat="42.714085" lon="-8.3756017"><ele>483.0</ele><time>2026-04-14T07:56:02.835Z</time></trkpt><trkpt lat="42.7141617" lon="-8.37538"><ele>486.33333333333337</ele><time>2026-04-14T07:56:03.834Z</time></trkpt><trkpt lat="42.7142333" lon="-8.3751567"><ele>489.6666666666667</ele><time>2026-04-14T07:56:04.834Z</time></trkpt><trkpt lat="42.714295" lon="-8.3749233"><ele>493.0</ele><time>2026-04-14T07:56:05.835Z</time></trkpt><trkpt lat="42.7143367" lon="-8.3746883"><ele>493.6666666666667</ele><time>2026-04-14T07:56:06.835Z</time></trkpt><trkpt lat="42.71436" lon="-8.3744483"><ele>494.33333333333337</ele><time>2026-04-14T07:56:07.834Z</time></trkpt><trkpt lat="42.71437" lon="-8.3742117"><ele>495.0</ele><time>2026-04-14T07:56:08.835Z</time></trkpt><trkpt lat="42.714355" lon="-8.373975"><ele>495.33333333333337</ele><time>2026-04-14T07:56:09.835Z</time></trkpt><trkpt lat="42.71431" lon="-8.37374"><ele>495.6666666666667</ele><time>2026-04-14T07:56:10.835Z</time></trkpt><trkpt lat="42.7142583" lon="-8.373515"><ele>496.0</ele><time>2026-04-14T07:56:11.834Z</time></trkpt><trkpt lat="42.71418" lon="-8.3732967"><ele>496.0</ele><time>2026-04-14T07:56:12.835Z</time></trkpt><trkpt lat="42.7140833" lon="-8.3730917"><ele>496.0</ele><time>2026-04-14T07:56:13.835Z</time></trkpt><trkpt lat="42.71398" lon="-8.3728967"><ele>496.0</ele><time>2026-04-14T07:56:14.834Z</time></trkpt><trkpt lat="42.7138783" lon="-8.372715"><ele>497.0</ele><time>2026-04-14T07:56:15.834Z</time></trkpt><trkpt lat="42.7137633" lon="-8.3725417"><ele>498.0</ele><time>2026-04-14T07:56:16.835Z</time></trkpt><trkpt lat="42.7136433" lon="-8.3723683"><ele>499.0</ele><time>2026-04-14T07:56:17.835Z</time></trkpt><trkpt lat="42.713525" lon="-8.3721883"><ele>502.33333333333337</ele><time>2026-04-14T07:56:18.835Z</time></trkpt><trkpt lat="42.71341" lon="-8.3720033"><ele>505.66666666666663</ele><time>2026-04-14T07:56:19.834Z</time></trkpt><trkpt lat="42.713305" lon="-8.3718083"><ele>509.0</ele><time>2026-04-14T07:56:20.835Z</time></trkpt><trkpt lat="42.7132117" lon="-8.3716083"><ele>509.0</ele><time>2026-04-14T07:56:21.834Z</time></trkpt><trkpt lat="42.71313" lon="-8.3714"><ele>509.0</ele><time>2026-04-14T07:56:22.834Z</time></trkpt><trkpt lat="42.7130683" lon="-8.3711767"><ele>509.0</ele><time>2026-04-14T07:56:23.835Z</time></trkpt><trkpt lat="42.7130117" lon="-8.3709433"><ele>508.0</ele><time>2026-04-14T07:56:24.834Z</time></trkpt><trkpt lat="42.71298" lon="-8.3707083"><ele>507.0</ele><time>2026-04-14T07:56:25.834Z</time></trkpt><trkpt lat="42.712955" lon="-8.370465"><ele>506.0</ele><time>2026-04-14T07:56:26.834Z</time></trkpt><trkpt lat="42.7129517" lon="-8.3702133"><ele>504.66666666666663</ele><time>2026-04-14T07:56:27.835Z</time></trkpt><trkpt lat="42.71297" lon="-8.3699633"><ele>503.33333333333337</ele><time>2026-04-14T07:56:28.834Z</time></trkpt><trkpt lat="42.7129967" lon="-8.3697217"><ele>502.0</ele><time>2026-04-14T07:56:29.834Z</time></trkpt><trkpt lat="42.7130383" lon="-8.36949"><ele>505.6666666666667</ele><time>2026-04-14T07:56:30.834Z</time></trkpt><trkpt lat="42.7130983" lon="-8.3692667"><ele>509.33333333333337</ele><time>2026-04-14T07:56:31.835Z</time></trkpt><trkpt lat="42.7131783" lon="-8.369055"><ele>513.0</ele><time>2026-04-14T07:56:32.834Z</time></trkpt><trkpt lat="42.71327" lon="-8.3688533"><ele>512.3333333333334</ele><time>2026-04-14T07:56:33.835Z</time></trkpt><trkpt lat="42.7133717" lon="-8.368665"><ele>511.6666666666667</ele><time>2026-04-14T07:56:34.834Z</time></trkpt><trkpt lat="42.7134783" lon="-8.36848"><ele>511.0</ele><time>2026-04-14T07:56:35.834Z</time></trkpt><trkpt lat="42.713595" lon="-8.3682983"><ele>511.0</ele><time>2026-04-14T07:56:36.834Z</time></trkpt><trkpt lat="42.7137167" lon="-8.3681283"><ele>511.0</ele><time>2026-04-14T07:56:37.834Z</time></trkpt><trkpt lat="42.713855" lon="-8.3679633"><ele>511.0</ele><time>2026-04-14T07:56:38.835Z</time></trkpt><trkpt lat="42.713975" lon="-8.367795"><ele>516.0</ele><time>2026-04-14T07:56:39.835Z</time></trkpt><trkpt lat="42.714105" lon="-8.3676383"><ele>521.0</ele><time>2026-04-14T07:56:40.834Z</time></trkpt><trkpt lat="42.7142367" lon="-8.3674667"><ele>526.0</ele><time>2026-04-14T07:56:41.834Z</time></trkpt><trkpt lat="42.714365" lon="-8.3672967"><ele>529.0</ele><time>2026-04-14T07:56:42.835Z</time></trkpt><trkpt lat="42.714485" lon="-8.36712"><ele>532.0</ele><time>2026-04-14T07:56:43.835Z</time></trkpt><trkpt lat="42.7146017" lon="-8.3669383"><ele>535.0</ele><time>2026-04-14T07:56:44.834Z</time></trkpt><trkpt lat="42.7146933" lon="-8.3667467"><ele>535.0</ele><time>2026-04-14T07:56:45.834Z</time></trkpt><trkpt lat="42.71477" lon="-8.3665417"><ele>535.0</ele><time>2026-04-14T07:56:46.835Z</time></trkpt><trkpt lat="42.7148367" lon="-8.3663283"><ele>535.0</ele><time>2026-04-14T07:56:47.834Z</time></trkpt><trkpt lat="42.7148933" lon="-8.366105"><ele>535.6666666666667</ele><time>2026-04-14T07:56:48.834Z</time></trkpt><trkpt lat="42.7149433" lon="-8.365875"><ele>536.3333333333334</ele><time>2026-04-14T07:56:49.834Z</time></trkpt><trkpt lat="42.71497" lon="-8.365645"><ele>537.0</ele><time>2026-04-14T07:56:50.835Z</time></trkpt><trkpt lat="42.714995" lon="-8.36541"><ele>538.3333333333334</ele><time>2026-04-14T07:56:51.835Z</time></trkpt><trkpt lat="42.7150067" lon="-8.36518"><ele>539.6666666666667</ele><time>2026-04-14T07:56:52.834Z</time></trkpt><trkpt lat="42.715" lon="-8.3649517"><ele>541.0</ele><time>2026-04-14T07:56:53.834Z</time></trkpt><trkpt lat="42.7149967" lon="-8.3647283"><ele>542.0</ele><time>2026-04-14T07:56:54.834Z</time></trkpt><trkpt lat="42.7149983" lon="-8.3645"><ele>543.0</ele><time>2026-04-14T07:56:55.835Z</time></trkpt><trkpt lat="42.7149917" lon="-8.36426"><ele>544.0</ele><time>2026-04-14T07:56:56.835Z</time></trkpt><trkpt lat="42.7149867" lon="-8.36403"><ele>545.3333333333334</ele><time>2026-04-14T07:56:57.834Z</time></trkpt><trkpt lat="42.71499" lon="-8.3637983"><ele>546.6666666666666</ele><time>2026-04-14T07:56:58.834Z</time></trkpt><trkpt lat="42.7149933" lon="-8.3635617"><ele>548.0</ele><time>2026-04-14T07:56:59.834Z</time></trkpt><trkpt lat="42.7149917" lon="-8.3633217"><ele>548.0</ele><time>2026-04-14T07:57:00.835Z</time></trkpt><trkpt lat="42.7149883" lon="-8.3630833"><ele>548.0</ele><time>2026-04-14T07:57:01.834Z</time></trkpt><trkpt lat="42.7149917" lon="-8.3628533"><ele>548.0</ele><time>2026-04-14T07:57:02.835Z</time></trkpt><trkpt lat="42.714985" lon="-8.3626067"><ele>550.0</ele><time>2026-04-14T07:57:03.834Z</time></trkpt><trkpt lat="42.7149683" lon="-8.3623683"><ele>552.0</ele><time>2026-04-14T07:57:04.835Z</time></trkpt><trkpt lat="42.71494" lon="-8.3621317"><ele>554.0</ele><time>2026-04-14T07:57:05.835Z</time></trkpt><trkpt lat="42.7149083" lon="-8.3619"><ele>554.3333333333333</ele><time>2026-04-14T07:57:06.834Z</time></trkpt><trkpt lat="42.7148683" lon="-8.36167"><ele>554.6666666666666</ele><time>2026-04-14T07:57:07.834Z</time></trkpt><trkpt lat="42.7148083" lon="-8.361445"><ele>555.0</ele><time>2026-04-14T07:57:08.835Z</time></trkpt><trkpt lat="42.7147467" lon="-8.3612333"><ele>552.6666666666666</ele><time>2026-04-14T07:57:09.834Z</time></trkpt><trkpt lat="42.7146833" lon="-8.3610233"><ele>550.3333333333333</ele><time>2026-04-14T07:57:10.834Z</time></trkpt><trkpt lat="42.7146117" lon="-8.36081"><ele>548.0</ele><time>2026-04-14T07:57:11.834Z</time></trkpt><trkpt lat="42.7145317" lon="-8.36061"><ele>547.0</ele><time>2026-04-14T07:57:12.834Z</time></trkpt><trkpt lat="42.7144483" lon="-8.3604"><ele>546.0</ele><time>2026-04-14T07:57:13.835Z</time></trkpt><trkpt lat="42.7143833" lon="-8.3601967"><ele>545.0</ele><time>2026-04-14T07:57:14.835Z</time></trkpt><trkpt lat="42.7142583" lon="-8.3600167"><ele>550.0</ele><time>2026-04-14T07:57:15.835Z</time></trkpt><trkpt lat="42.7141317" lon="-8.3598467"><ele>555.0</ele><time>2026-04-14T07:57:16.835Z</time></trkpt><trkpt lat="42.7139917" lon="-8.3596983"><ele>560.0</ele><time>2026-04-14T07:57:17.834Z</time></trkpt><trkpt lat="42.71385" lon="-8.3595617"><ele>560.0</ele><time>2026-04-14T07:57:18.835Z</time></trkpt><trkpt lat="42.7136667" lon="-8.3594533"><ele>560.0</ele><time>2026-04-14T07:57:19.835Z</time></trkpt><trkpt lat="42.713505" lon="-8.3593683"><ele>560.0</ele><time>2026-04-14T07:57:20.835Z</time></trkpt><trkpt lat="42.7133383" lon="-8.3592983"><ele>563.3333333333333</ele><time>2026-04-14T07:57:21.835Z</time></trkpt><trkpt lat="42.7131683" lon="-8.3592217"><ele>566.6666666666666</ele><time>2026-04-14T07:57:22.835Z</time></trkpt><trkpt lat="42.7129967" lon="-8.35915"><ele>570.0</ele><time>2026-04-14T07:57:23.834Z</time></trkpt><trkpt lat="42.7128183" lon="-8.3590783"><ele>570.0</ele><time>2026-04-14T07:57:24.834Z</time></trkpt><trkpt lat="42.7126433" lon="-8.3590017"><ele>570.0</ele><time>2026-04-14T07:57:25.834Z</time></trkpt><trkpt lat="42.7124867" lon="-8.3589283"><ele>570.0</ele><time>2026-04-14T07:57:26.835Z</time></trkpt><trkpt lat="42.712315" lon="-8.3588417"><ele>570.0</ele><time>2026-04-14T07:57:27.835Z</time></trkpt><trkpt lat="42.712145" lon="-8.3587483"><ele>570.0</ele><time>2026-04-14T07:57:28.835Z</time></trkpt><trkpt lat="42.7119833" lon="-8.3586517"><ele>570.0</ele><time>2026-04-14T07:57:29.836Z</time></trkpt><trkpt lat="42.7118217" lon="-8.3585433"><ele>573.3333333333334</ele><time>2026-04-14T07:57:30.835Z</time></trkpt><trkpt lat="42.7116733" lon="-8.358425"><ele>576.6666666666667</ele><time>2026-04-14T07:57:31.835Z</time></trkpt><trkpt lat="42.7115267" lon="-8.35828"><ele>580.0</ele><time>2026-04-14T07:57:32.836Z</time></trkpt><trkpt lat="42.7113883" lon="-8.358115"><ele>579.0</ele><time>2026-04-14T07:57:33.835Z</time></trkpt><trkpt lat="42.7112617" lon="-8.3579283"><ele>578.0</ele><time>2026-04-14T07:57:34.836Z</time></trkpt><trkpt lat="42.7111383" lon="-8.3577267"><ele>577.0</ele><time>2026-04-14T07:57:35.836Z</time></trkpt><trkpt lat="42.71104" lon="-8.3575117"><ele>580.6666666666667</ele><time>2026-04-14T07:57:36.836Z</time></trkpt><trkpt lat="42.7109533" lon="-8.357295"><ele>584.3333333333334</ele><time>2026-04-14T07:57:37.836Z</time></trkpt><trkpt lat="42.7108933" lon="-8.3570617"><ele>588.0</ele><time>2026-04-14T07:57:38.835Z</time></trkpt><trkpt lat="42.7108483" lon="-8.356825"><ele>588.3333333333334</ele><time>2026-04-14T07:57:39.836Z</time></trkpt><trkpt lat="42.7108033" lon="-8.35658"><ele>588.6666666666667</ele><time>2026-04-14T07:57:40.836Z</time></trkpt><trkpt lat="42.7107717" lon="-8.3563467"><ele>589.0</ele><time>2026-04-14T07:57:41.835Z</time></trkpt><trkpt lat="42.7107383" lon="-8.3561067"><ele>589.3333333333334</ele><time>2026-04-14T07:57:42.836Z</time></trkpt><trkpt lat="42.710715" lon="-8.3558717"><ele>589.6666666666666</ele><time>2026-04-14T07:57:43.835Z</time></trkpt><trkpt lat="42.7107" lon="-8.3556383"><ele>590.0</ele><time>2026-04-14T07:57:44.836Z</time></trkpt><trkpt lat="42.7106683" lon="-8.3554033"><ele>590.6666666666666</ele><time>2026-04-14T07:57:45.835Z</time></trkpt><trkpt lat="42.71063" lon="-8.3551617"><ele>591.3333333333334</ele><time>2026-04-14T07:57:46.835Z</time></trkpt><trkpt lat="42.7105883" lon="-8.3549217"><ele>592.0</ele><time>2026-04-14T07:57:47.835Z</time></trkpt><trkpt lat="42.710535" lon="-8.3546817"><ele>592.3333333333334</ele><time>2026-04-14T07:57:48.836Z</time></trkpt><trkpt lat="42.7104767" lon="-8.354445"><ele>592.6666666666666</ele><time>2026-04-14T07:57:49.836Z</time></trkpt><trkpt lat="42.7104117" lon="-8.354205"><ele>593.0</ele><time>2026-04-14T07:57:50.835Z</time></trkpt><trkpt lat="42.710345" lon="-8.35397"><ele>593.0</ele><time>2026-04-14T07:57:51.836Z</time></trkpt><trkpt lat="42.7102767" lon="-8.353735"><ele>593.0</ele><time>2026-04-14T07:57:52.835Z</time></trkpt><trkpt lat="42.7102133" lon="-8.3535017"><ele>593.0</ele><time>2026-04-14T07:57:53.836Z</time></trkpt><trkpt lat="42.7101467" lon="-8.353265"><ele>594.3333333333333</ele><time>2026-04-14T07:57:54.835Z</time></trkpt><trkpt lat="42.710075" lon="-8.3530267"><ele>595.6666666666666</ele><time>2026-04-14T07:57:55.836Z</time></trkpt><trkpt lat="42.7100133" lon="-8.352785"><ele>597.0</ele><time>2026-04-14T07:57:56.835Z</time></trkpt><trkpt lat="42.7099533" lon="-8.3525417"><ele>597.0</ele><time>2026-04-14T07:57:57.836Z</time></trkpt><trkpt lat="42.7098867" lon="-8.3523033"><ele>597.0</ele><time>2026-04-14T07:57:58.835Z</time></trkpt><trkpt lat="42.7098233" lon="-8.3520683"><ele>597.0</ele><time>2026-04-14T07:57:59.836Z</time></trkpt><trkpt lat="42.709755" lon="-8.351835"><ele>597.3333333333334</ele><time>2026-04-14T07:58:00.835Z</time></trkpt><trkpt lat="42.7096833" lon="-8.351595"><ele>597.6666666666667</ele><time>2026-04-14T07:58:01.835Z</time></trkpt><trkpt lat="42.70962" lon="-8.3513433"><ele>598.0</ele><time>2026-04-14T07:58:02.836Z</time></trkpt><trkpt lat="42.7095617" lon="-8.3511017"><ele>597.3333333333334</ele><time>2026-04-14T07:58:03.835Z</time></trkpt><trkpt lat="42.7095" lon="-8.35086"><ele>596.6666666666666</ele><time>2026-04-14T07:58:04.836Z</time></trkpt><trkpt lat="42.7094417" lon="-8.3506217"><ele>596.0</ele><time>2026-04-14T07:58:05.835Z</time></trkpt><trkpt lat="42.7093883" lon="-8.3503783"><ele>598.3333333333333</ele><time>2026-04-14T07:58:06.835Z</time></trkpt><trkpt lat="42.70932" lon="-8.3501417"><ele>600.6666666666666</ele><time>2026-04-14T07:58:07.836Z</time></trkpt><trkpt lat="42.7092467" lon="-8.3499083"><ele>603.0</ele><time>2026-04-14T07:58:08.836Z</time></trkpt><trkpt lat="42.7091717" lon="-8.3496783"><ele>603.0</ele><time>2026-04-14T07:58:09.835Z</time></trkpt><trkpt lat="42.7091033" lon="-8.3494533"><ele>603.0</ele><time>2026-04-14T07:58:10.835Z</time></trkpt><trkpt lat="42.7090317" lon="-8.349235"><ele>603.0</ele><time>2026-04-14T07:58:11.836Z</time></trkpt><trkpt lat="42.7089617" lon="-8.3490033"><ele>604.3333333333334</ele><time>2026-04-14T07:58:12.836Z</time></trkpt><trkpt lat="42.7089" lon="-8.3487867"><ele>605.6666666666667</ele><time>2026-04-14T07:58:13.835Z</time></trkpt><trkpt lat="42.7088333" lon="-8.3485683"><ele>607.0</ele><time>2026-04-14T07:58:14.835Z</time></trkpt><trkpt lat="42.708755" lon="-8.3483567"><ele>607.0</ele><time>2026-04-14T07:58:15.835Z</time></trkpt><trkpt lat="42.7086717" lon="-8.34815"><ele>607.0</ele><time>2026-04-14T07:58:16.835Z</time></trkpt><trkpt lat="42.70858" lon="-8.3479567"><ele>607.0</ele><time>2026-04-14T07:58:17.835Z</time></trkpt><trkpt lat="42.7084767" lon="-8.34777"><ele>611.0</ele><time>2026-04-14T07:58:18.835Z</time></trkpt><trkpt lat="42.7083667" lon="-8.3475917"><ele>615.0</ele><time>2026-04-14T07:58:19.835Z</time></trkpt><trkpt lat="42.7082467" lon="-8.3474283"><ele>619.0</ele><time>2026-04-14T07:58:20.836Z</time></trkpt><trkpt lat="42.7081233" lon="-8.34728"><ele>620.3333333333334</ele><time>2026-04-14T07:58:21.836Z</time></trkpt><trkpt lat="42.7079883" lon="-8.3471433"><ele>621.6666666666666</ele><time>2026-04-14T07:58:22.835Z</time></trkpt><trkpt lat="42.7078517" lon="-8.34701"><ele>623.0</ele><time>2026-04-14T07:58:23.835Z</time></trkpt><trkpt lat="42.7077183" lon="-8.3468683"><ele>624.0</ele><time>2026-04-14T07:58:24.835Z</time></trkpt><trkpt lat="42.7075917" lon="-8.3467217"><ele>625.0</ele><time>2026-04-14T07:58:25.836Z</time></trkpt><trkpt lat="42.707455" lon="-8.3465767"><ele>626.0</ele><time>2026-04-14T07:58:26.835Z</time></trkpt><trkpt lat="42.70731" lon="-8.3464317"><ele>626.3333333333333</ele><time>2026-04-14T07:58:27.835Z</time></trkpt><trkpt lat="42.707165" lon="-8.346285"><ele>626.6666666666666</ele><time>2026-04-14T07:58:28.835Z</time></trkpt><trkpt lat="42.7070167" lon="-8.3461367"><ele>627.0</ele><time>2026-04-14T07:58:29.835Z</time></trkpt><trkpt lat="42.7068583" lon="-8.3459883"><ele>627.0</ele><time>2026-04-14T07:58:30.836Z</time></trkpt><trkpt lat="42.7067" lon="-8.3458267"><ele>627.0</ele><time>2026-04-14T07:58:31.836Z</time></trkpt><trkpt lat="42.7065333" lon="-8.3456767"><ele>627.0</ele><time>2026-04-14T07:58:32.835Z</time></trkpt><trkpt lat="42.7063833" lon="-8.3455233"><ele>627.3333333333334</ele><time>2026-04-14T07:58:33.835Z</time></trkpt><trkpt lat="42.7062283" lon="-8.345365"><ele>627.6666666666667</ele><time>2026-04-14T07:58:34.835Z</time></trkpt><trkpt lat="42.7060733" lon="-8.3452"><ele>628.0</ele><time>2026-04-14T07:58:35.835Z</time></trkpt><trkpt lat="42.7059317" lon="-8.3450367"><ele>628.0</ele><time>2026-04-14T07:58:36.836Z</time></trkpt><trkpt lat="42.70578" lon="-8.3448833"><ele>628.0</ele><time>2026-04-14T07:58:37.835Z</time></trkpt><trkpt lat="42.7056333" lon="-8.344725"><ele>628.0</ele><time>2026-04-14T07:58:38.835Z</time></trkpt><trkpt lat="42.70548" lon="-8.3445667"><ele>628.0</ele><time>2026-04-14T07:58:39.835Z</time></trkpt><trkpt lat="42.7053233" lon="-8.3444117"><ele>628.0</ele><time>2026-04-14T07:58:40.836Z</time></trkpt><trkpt lat="42.7051667" lon="-8.3442633"><ele>628.0</ele><time>2026-04-14T07:58:41.836Z</time></trkpt><trkpt lat="42.7050033" lon="-8.344095"><ele>628.0</ele><time>2026-04-14T07:58:42.835Z</time></trkpt><trkpt lat="42.7048483" lon="-8.3439333"><ele>628.0</ele><time>2026-04-14T07:58:43.836Z</time></trkpt><trkpt lat="42.7046883" lon="-8.3437617"><ele>628.0</ele><time>2026-04-14T07:58:44.835Z</time></trkpt><trkpt lat="42.704525" lon="-8.3435867"><ele>627.6666666666667</ele><time>2026-04-14T07:58:45.836Z</time></trkpt><trkpt lat="42.7043617" lon="-8.3434083"><ele>627.3333333333334</ele><time>2026-04-14T07:58:46.836Z</time></trkpt><trkpt lat="42.7041983" lon="-8.3432383"><ele>627.0</ele><time>2026-04-14T07:58:47.835Z</time></trkpt><trkpt lat="42.704045" lon="-8.3430617"><ele>625.6666666666666</ele><time>2026-04-14T07:58:48.835Z</time></trkpt><trkpt lat="42.7038833" lon="-8.3428833"><ele>624.3333333333333</ele><time>2026-04-14T07:58:49.835Z</time></trkpt><trkpt lat="42.703725" lon="-8.342715"><ele>623.0</ele><time>2026-04-14T07:58:50.836Z</time></trkpt><trkpt lat="42.703555" lon="-8.34256"><ele>623.0</ele><time>2026-04-14T07:58:51.835Z</time></trkpt><trkpt lat="42.7033883" lon="-8.3424"><ele>623.0</ele><time>2026-04-14T07:58:52.835Z</time></trkpt><trkpt lat="42.7032283" lon="-8.3422333"><ele>623.0</ele><time>2026-04-14T07:58:53.836Z</time></trkpt><trkpt lat="42.7030683" lon="-8.34207"><ele>622.0</ele><time>2026-04-14T07:58:54.836Z</time></trkpt><trkpt lat="42.7029067" lon="-8.341905"><ele>621.0</ele><time>2026-04-14T07:58:55.836Z</time></trkpt><trkpt lat="42.7027483" lon="-8.3417417"><ele>620.0</ele><time>2026-04-14T07:58:56.836Z</time></trkpt><trkpt lat="42.7025867" lon="-8.341575"><ele>620.0</ele><time>2026-04-14T07:58:57.835Z</time></trkpt><trkpt lat="42.702425" lon="-8.341405"><ele>620.0</ele><time>2026-04-14T07:58:58.835Z</time></trkpt><trkpt lat="42.7022567" lon="-8.3412383"><ele>620.0</ele><time>2026-04-14T07:58:59.835Z</time></trkpt><trkpt lat="42.7020883" lon="-8.341075"><ele>617.0</ele><time>2026-04-14T07:59:00.835Z</time></trkpt><trkpt lat="42.70192" lon="-8.34092"><ele>614.0</ele><time>2026-04-14T07:59:01.835Z</time></trkpt><trkpt lat="42.7017667" lon="-8.3407483"><ele>611.0</ele><time>2026-04-14T07:59:02.836Z</time></trkpt><trkpt lat="42.7016033" lon="-8.3405783"><ele>606.0</ele><time>2026-04-14T07:59:03.835Z</time></trkpt><trkpt lat="42.7014367" lon="-8.3404117"><ele>601.0</ele><time>2026-04-14T07:59:04.836Z</time></trkpt><trkpt lat="42.7012683" lon="-8.3402533"><ele>596.0</ele><time>2026-04-14T07:59:05.836Z</time></trkpt><trkpt lat="42.7011033" lon="-8.340085"><ele>594.0</ele><time>2026-04-14T07:59:06.835Z</time></trkpt><trkpt lat="42.70094" lon="-8.3399283"><ele>592.0</ele><time>2026-04-14T07:59:07.835Z</time></trkpt><trkpt lat="42.700775" lon="-8.3397733"><ele>590.0</ele><time>2026-04-14T07:59:08.836Z</time></trkpt><trkpt lat="42.7006183" lon="-8.339615"><ele>590.0</ele><time>2026-04-14T07:59:09.835Z</time></trkpt><trkpt lat="42.7004517" lon="-8.33947"><ele>590.0</ele><time>2026-04-14T07:59:10.835Z</time></trkpt><trkpt lat="42.700285" lon="-8.3393383"><ele>590.0</ele><time>2026-04-14T07:59:11.835Z</time></trkpt><trkpt lat="42.7001167" lon="-8.3392133"><ele>592.0</ele><time>2026-04-14T07:59:12.835Z</time></trkpt><trkpt lat="42.6999483" lon="-8.3391167"><ele>594.0</ele><time>2026-04-14T07:59:13.836Z</time></trkpt><trkpt lat="42.6997767" lon="-8.3390317"><ele>596.0</ele><time>2026-04-14T07:59:14.836Z</time></trkpt><trkpt lat="42.699605" lon="-8.33894"><ele>592.3333333333333</ele><time>2026-04-14T07:59:15.836Z</time></trkpt><trkpt lat="42.6994217" lon="-8.3388517"><ele>588.6666666666666</ele><time>2026-04-14T07:59:16.835Z</time></trkpt><trkpt lat="42.69925" lon="-8.3387617"><ele>585.0</ele><time>2026-04-14T07:59:17.835Z</time></trkpt><trkpt lat="42.6990867" lon="-8.3386533"><ele>585.0</ele><time>2026-04-14T07:59:18.836Z</time></trkpt><trkpt lat="42.698935" lon="-8.3385267"><ele>585.0</ele><time>2026-04-14T07:59:19.835Z</time></trkpt><trkpt lat="42.6987917" lon="-8.3383867"><ele>585.0</ele><time>2026-04-14T07:59:20.836Z</time></trkpt><trkpt lat="42.69865" lon="-8.338215"><ele>581.3333333333334</ele><time>2026-04-14T07:59:21.836Z</time></trkpt><trkpt lat="42.69853" lon="-8.33802"><ele>577.6666666666667</ele><time>2026-04-14T07:59:22.836Z</time></trkpt><trkpt lat="42.6984217" lon="-8.3378083"><ele>574.0</ele><time>2026-04-14T07:59:23.836Z</time></trkpt><trkpt lat="42.6983267" lon="-8.3375767"><ele>574.0</ele><time>2026-04-14T07:59:24.835Z</time></trkpt><trkpt lat="42.698235" lon="-8.3373517"><ele>574.0</ele><time>2026-04-14T07:59:25.836Z</time></trkpt><trkpt lat="42.6981633" lon="-8.3371117"><ele>574.0</ele><time>2026-04-14T07:59:26.835Z</time></trkpt><trkpt lat="42.6981183" lon="-8.3368733"><ele>573.3333333333334</ele><time>2026-04-14T07:59:27.835Z</time></trkpt><trkpt lat="42.69809" lon="-8.3366317"><ele>572.6666666666666</ele><time>2026-04-14T07:59:28.836Z</time></trkpt><trkpt lat="42.69808" lon="-8.33639"><ele>572.0</ele><time>2026-04-14T07:59:29.836Z</time></trkpt><trkpt lat="42.6981033" lon="-8.3361433"><ele>574.3333333333333</ele><time>2026-04-14T07:59:30.835Z</time></trkpt><trkpt lat="42.698135" lon="-8.3358967"><ele>576.6666666666666</ele><time>2026-04-14T07:59:31.835Z</time></trkpt><trkpt lat="42.698175" lon="-8.3356467"><ele>579.0</ele><time>2026-04-14T07:59:32.835Z</time></trkpt><trkpt lat="42.6982283" lon="-8.335395"><ele>581.3333333333334</ele><time>2026-04-14T07:59:33.836Z</time></trkpt><trkpt lat="42.69829" lon="-8.335145"><ele>583.6666666666667</ele><time>2026-04-14T07:59:34.836Z</time></trkpt><trkpt lat="42.6983683" lon="-8.3348967"><ele>586.0</ele><time>2026-04-14T07:59:35.835Z</time></trkpt><trkpt lat="42.698425" lon="-8.3346433"><ele>586.6666666666667</ele><time>2026-04-14T07:59:36.835Z</time></trkpt><trkpt lat="42.698465" lon="-8.334385"><ele>587.3333333333334</ele><time>2026-04-14T07:59:37.835Z</time></trkpt><trkpt lat="42.6984917" lon="-8.334115"><ele>588.0</ele><time>2026-04-14T07:59:38.835Z</time></trkpt><trkpt lat="42.6984967" lon="-8.33385"><ele>588.0</ele><time>2026-04-14T07:59:39.835Z</time></trkpt><trkpt lat="42.69849" lon="-8.3335883"><ele>588.0</ele><time>2026-04-14T07:59:40.835Z</time></trkpt><trkpt lat="42.6984583" lon="-8.3333317"><ele>588.0</ele><time>2026-04-14T07:59:41.836Z</time></trkpt><trkpt lat="42.6984017" lon="-8.3330833"><ele>583.6666666666666</ele><time>2026-04-14T07:59:42.835Z</time></trkpt><trkpt lat="42.69833" lon="-8.33284"><ele>579.3333333333333</ele><time>2026-04-14T07:59:43.836Z</time></trkpt><trkpt lat="42.6982467" lon="-8.3326067"><ele>575.0</ele><time>2026-04-14T07:59:44.835Z</time></trkpt><trkpt lat="42.6981683" lon="-8.3323817"><ele>571.3333333333333</ele><time>2026-04-14T07:59:45.835Z</time></trkpt><trkpt lat="42.6980683" lon="-8.3321583"><ele>567.6666666666666</ele><time>2026-04-14T07:59:46.835Z</time></trkpt><trkpt lat="42.6979733" lon="-8.3319367"><ele>564.0</ele><time>2026-04-14T07:59:47.836Z</time></trkpt><trkpt lat="42.6979017" lon="-8.3317033"><ele>564.0</ele><time>2026-04-14T07:59:48.835Z</time></trkpt><trkpt lat="42.6978417" lon="-8.3314667"><ele>564.0</ele><time>2026-04-14T07:59:49.836Z</time></trkpt><trkpt lat="42.6978033" lon="-8.3312167"><ele>564.0</ele><time>2026-04-14T07:59:50.835Z</time></trkpt><trkpt lat="42.6977833" lon="-8.3309717"><ele>560.0</ele><time>2026-04-14T07:59:51.835Z</time></trkpt><trkpt lat="42.6977783" lon="-8.3307217"><ele>556.0</ele><time>2026-04-14T07:59:52.836Z</time></trkpt><trkpt lat="42.6977767" lon="-8.3304617"><ele>552.0</ele><time>2026-04-14T07:59:53.836Z</time></trkpt><trkpt lat="42.6977867" lon="-8.3302067"><ele>549.6666666666666</ele><time>2026-04-14T07:59:54.835Z</time></trkpt><trkpt lat="42.6977933" lon="-8.329945"><ele>547.3333333333333</ele><time>2026-04-14T07:59:55.836Z</time></trkpt><trkpt lat="42.6978017" lon="-8.329685"><ele>545.0</ele><time>2026-04-14T07:59:56.836Z</time></trkpt><trkpt lat="42.6978117" lon="-8.3294317"><ele>543.0</ele><time>2026-04-14T07:59:57.836Z</time></trkpt><trkpt lat="42.6978217" lon="-8.32918"><ele>541.0</ele><time>2026-04-14T07:59:58.835Z</time></trkpt><trkpt lat="42.6978133" lon="-8.3289167"><ele>539.0</ele><time>2026-04-14T07:59:59.835Z</time></trkpt><trkpt lat="42.6977867" lon="-8.32866"><ele>543.0</ele><time>2026-04-14T08:00:00.835Z</time></trkpt><trkpt lat="42.6977517" lon="-8.3284017"><ele>547.0</ele><time>2026-04-14T08:00:01.835Z</time></trkpt><trkpt lat="42.6977067" lon="-8.3281433"><ele>551.0</ele><time>2026-04-14T08:00:02.836Z</time></trkpt><trkpt lat="42.697645" lon="-8.3279"><ele>551.0</ele><time>2026-04-14T08:00:03.836Z</time></trkpt><trkpt lat="42.6975733" lon="-8.3276567"><ele>551.0</ele><time>2026-04-14T08:00:04.836Z</time></trkpt><trkpt lat="42.697505" lon="-8.3274133"><ele>551.0</ele><time>2026-04-14T08:00:05.836Z</time></trkpt><trkpt lat="42.6974433" lon="-8.3271733"><ele>547.3333333333333</ele><time>2026-04-14T08:00:06.835Z</time></trkpt><trkpt lat="42.6973817" lon="-8.326935"><ele>543.6666666666666</ele><time>2026-04-14T08:00:07.835Z</time></trkpt><trkpt lat="42.6973117" lon="-8.3266917"><ele>540.0</ele><time>2026-04-14T08:00:08.835Z</time></trkpt><trkpt lat="42.697245" lon="-8.3264483"><ele>538.6666666666666</ele><time>2026-04-14T08:00:09.835Z</time></trkpt><trkpt lat="42.6972083" lon="-8.3261983"><ele>537.3333333333333</ele><time>2026-04-14T08:00:10.836Z</time></trkpt><trkpt lat="42.6971883" lon="-8.32595"><ele>536.0</ele><time>2026-04-14T08:00:11.836Z</time></trkpt><trkpt lat="42.6971917" lon="-8.3256917"><ele>533.3333333333333</ele><time>2026-04-14T08:00:12.835Z</time></trkpt><trkpt lat="42.697215" lon="-8.325435"><ele>530.6666666666666</ele><time>2026-04-14T08:00:13.835Z</time></trkpt><trkpt lat="42.697255" lon="-8.3251817"><ele>528.0</ele><time>2026-04-14T08:00:14.835Z</time></trkpt><trkpt lat="42.6973133" lon="-8.3249283"><ele>527.3333333333334</ele><time>2026-04-14T08:00:15.835Z</time></trkpt><trkpt lat="42.6973833" lon="-8.32469"><ele>526.6666666666667</ele><time>2026-04-14T08:00:16.835Z</time></trkpt><trkpt lat="42.69747" lon="-8.3244567"><ele>526.0</ele><time>2026-04-14T08:00:17.836Z</time></trkpt><trkpt lat="42.6975633" lon="-8.32423"><ele>526.0</ele><time>2026-04-14T08:00:18.836Z</time></trkpt><trkpt lat="42.697675" lon="-8.3240183"><ele>526.0</ele><time>2026-04-14T08:00:19.836Z</time></trkpt><trkpt lat="42.6977883" lon="-8.3238133"><ele>526.0</ele><time>2026-04-14T08:00:20.835Z</time></trkpt><trkpt lat="42.6979" lon="-8.3235983"><ele>523.3333333333334</ele><time>2026-04-14T08:00:21.835Z</time></trkpt><trkpt lat="42.6980083" lon="-8.3233867"><ele>520.6666666666666</ele><time>2026-04-14T08:00:22.836Z</time></trkpt><trkpt lat="42.6981083" lon="-8.3231783"><ele>518.0</ele><time>2026-04-14T08:00:23.836Z</time></trkpt><trkpt lat="42.6982067" lon="-8.322955"><ele>518.0</ele><time>2026-04-14T08:00:24.835Z</time></trkpt><trkpt lat="42.6982983" lon="-8.322715"><ele>518.0</ele><time>2026-04-14T08:00:25.835Z</time></trkpt><trkpt lat="42.698375" lon="-8.3224717"><ele>518.0</ele><time>2026-04-14T08:00:26.836Z</time></trkpt><trkpt lat="42.69842" lon="-8.3222267"><ele>515.3333333333333</ele><time>2026-04-14T08:00:27.836Z</time></trkpt><trkpt lat="42.6984533" lon="-8.32197"><ele>512.6666666666666</ele><time>2026-04-14T08:00:28.836Z</time></trkpt><trkpt lat="42.6984633" lon="-8.321715"><ele>510.0</ele><time>2026-04-14T08:00:29.836Z</time></trkpt><trkpt lat="42.6984683" lon="-8.3214567"><ele>508.33333333333337</ele><time>2026-04-14T08:00:30.835Z</time></trkpt><trkpt lat="42.698475" lon="-8.3212033"><ele>506.6666666666667</ele><time>2026-04-14T08:00:31.835Z</time></trkpt><trkpt lat="42.6984883" lon="-8.3209467"><ele>505.0</ele><time>2026-04-14T08:00:32.836Z</time></trkpt><trkpt lat="42.6985067" lon="-8.3206933"><ele>503.6666666666667</ele><time>2026-04-14T08:00:33.836Z</time></trkpt><trkpt lat="42.69853" lon="-8.3204533"><ele>502.33333333333337</ele><time>2026-04-14T08:00:34.835Z</time></trkpt><trkpt lat="42.698565" lon="-8.32022"><ele>501.0</ele><time>2026-04-14T08:00:35.836Z</time></trkpt><trkpt lat="42.6986083" lon="-8.3199933"><ele>500.0</ele><time>2026-04-14T08:00:36.835Z</time></trkpt><trkpt lat="42.6986467" lon="-8.31977"><ele>499.0</ele><time>2026-04-14T08:00:37.836Z</time></trkpt><trkpt lat="42.6986983" lon="-8.319545"><ele>498.0</ele><time>2026-04-14T08:00:38.836Z</time></trkpt><trkpt lat="42.698745" lon="-8.3193217"><ele>495.66666666666663</ele><time>2026-04-14T08:00:39.836Z</time></trkpt><trkpt lat="42.6988033" lon="-8.3190983"><ele>493.3333333333333</ele><time>2026-04-14T08:00:40.835Z</time></trkpt><trkpt lat="42.6988783" lon="-8.3188733"><ele>491.0</ele><time>2026-04-14T08:00:41.836Z</time></trkpt><trkpt lat="42.69895" lon="-8.3186467"><ele>490.3333333333333</ele><time>2026-04-14T08:00:42.836Z</time></trkpt><trkpt lat="42.6990167" lon="-8.3184267"><ele>489.66666666666663</ele><time>2026-04-14T08:00:43.835Z</time></trkpt><trkpt lat="42.6990817" lon="-8.3182183"><ele>489.0</ele><time>2026-04-14T08:00:44.836Z</time></trkpt><trkpt lat="42.69914" lon="-8.3180133"><ele>488.33333333333337</ele><time>2026-04-14T08:00:45.835Z</time></trkpt><trkpt lat="42.6992067" lon="-8.317805"><ele>487.6666666666667</ele><time>2026-04-14T08:00:46.835Z</time></trkpt><trkpt lat="42.69928" lon="-8.3175917"><ele>487.0</ele><time>2026-04-14T08:00:47.836Z</time></trkpt><trkpt lat="42.6993483" lon="-8.3173717"><ele>487.6666666666667</ele><time>2026-04-14T08:00:48.835Z</time></trkpt><trkpt lat="42.6994167" lon="-8.3171467"><ele>488.33333333333337</ele><time>2026-04-14T08:00:49.836Z</time></trkpt><trkpt lat="42.6994867" lon="-8.3169117"><ele>489.0</ele><time>2026-04-14T08:00:50.835Z</time></trkpt><trkpt lat="42.699555" lon="-8.3166617"><ele>489.0</ele><time>2026-04-14T08:00:51.835Z</time></trkpt><trkpt lat="42.699635" lon="-8.3164133"><ele>489.0</ele><time>2026-04-14T08:00:52.836Z</time></trkpt><trkpt lat="42.69971" lon="-8.3161717"><ele>489.0</ele><time>2026-04-14T08:00:53.835Z</time></trkpt><trkpt lat="42.6997933" lon="-8.3159433"><ele>486.0</ele><time>2026-04-14T08:00:54.835Z</time></trkpt><trkpt lat="42.6998883" lon="-8.3157217"><ele>483.0</ele><time>2026-04-14T08:00:55.836Z</time></trkpt><trkpt lat="42.699995" lon="-8.3155083"><ele>480.0</ele><time>2026-04-14T08:00:56.836Z</time></trkpt><trkpt lat="42.7001133" lon="-8.3153183"><ele>478.0</ele><time>2026-04-14T08:00:57.835Z</time></trkpt><trkpt lat="42.7002283" lon="-8.315125"><ele>476.0</ele><time>2026-04-14T08:00:58.835Z</time></trkpt><trkpt lat="42.70035" lon="-8.3149367"><ele>474.0</ele><time>2026-04-14T08:00:59.836Z</time></trkpt><trkpt lat="42.7004683" lon="-8.31474"><ele>472.0</ele><time>2026-04-14T08:01:00.835Z</time></trkpt><trkpt lat="42.700605" lon="-8.31457"><ele>470.0</ele><time>2026-04-14T08:01:01.835Z</time></trkpt><trkpt lat="42.70073" lon="-8.31439"><ele>468.0</ele><time>2026-04-14T08:01:02.835Z</time></trkpt><trkpt lat="42.7008433" lon="-8.3141983"><ele>468.0</ele><time>2026-04-14T08:01:03.835Z</time></trkpt><trkpt lat="42.7009383" lon="-8.314005"><ele>468.0</ele><time>2026-04-14T08:01:04.836Z</time></trkpt><trkpt lat="42.7010283" lon="-8.3138083"><ele>468.0</ele><time>2026-04-14T08:01:05.836Z</time></trkpt><trkpt lat="42.7011067" lon="-8.3135967"><ele>467.0</ele><time>2026-04-14T08:01:06.835Z</time></trkpt><trkpt lat="42.70117" lon="-8.3133767"><ele>466.0</ele><time>2026-04-14T08:01:07.835Z</time></trkpt><trkpt lat="42.7012283" lon="-8.3131467"><ele>465.0</ele><time>2026-04-14T08:01:08.835Z</time></trkpt><trkpt lat="42.7012917" lon="-8.31292"><ele>465.0</ele><time>2026-04-14T08:01:09.835Z</time></trkpt><trkpt lat="42.7013533" lon="-8.3127017"><ele>465.0</ele><time>2026-04-14T08:01:10.836Z</time></trkpt><trkpt lat="42.7014233" lon="-8.3124783"><ele>465.0</ele><time>2026-04-14T08:01:11.835Z</time></trkpt><trkpt lat="42.7014967" lon="-8.3122567"><ele>461.0</ele><time>2026-04-14T08:01:12.836Z</time></trkpt><trkpt lat="42.7015833" lon="-8.312055"><ele>457.0</ele><time>2026-04-14T08:01:13.835Z</time></trkpt><trkpt lat="42.701695" lon="-8.311865"><ele>453.0</ele><time>2026-04-14T08:01:14.836Z</time></trkpt><trkpt lat="42.7018133" lon="-8.31168"><ele>454.66666666666663</ele><time>2026-04-14T08:01:15.836Z</time></trkpt><trkpt lat="42.7019383" lon="-8.31152"><ele>456.3333333333333</ele><time>2026-04-14T08:01:16.836Z</time></trkpt><trkpt lat="42.7020833" lon="-8.3113833"><ele>458.0</ele><time>2026-04-14T08:01:17.835Z</time></trkpt><trkpt lat="42.702235" lon="-8.3112517"><ele>453.66666666666663</ele><time>2026-04-14T08:01:18.835Z</time></trkpt><trkpt lat="42.7023983" lon="-8.3111433"><ele>449.33333333333337</ele><time>2026-04-14T08:01:19.836Z</time></trkpt><trkpt lat="42.702565" lon="-8.31105"><ele>445.0</ele><time>2026-04-14T08:01:20.835Z</time></trkpt><trkpt lat="42.702735" lon="-8.3109633"><ele>444.6666666666667</ele><time>2026-04-14T08:01:21.835Z</time></trkpt><trkpt lat="42.7029067" lon="-8.3108717"><ele>444.33333333333337</ele><time>2026-04-14T08:01:22.835Z</time></trkpt><trkpt lat="42.7030883" lon="-8.310775"><ele>444.0</ele><time>2026-04-14T08:01:23.836Z</time></trkpt><trkpt lat="42.7032633" lon="-8.3106717"><ele>444.0</ele><time>2026-04-14T08:01:24.836Z</time></trkpt><trkpt lat="42.70344" lon="-8.3105817"><ele>444.0</ele><time>2026-04-14T08:01:25.835Z</time></trkpt><trkpt lat="42.7036183" lon="-8.3104833"><ele>444.0</ele><time>2026-04-14T08:01:26.835Z</time></trkpt><trkpt lat="42.703785" lon="-8.3103883"><ele>441.0</ele><time>2026-04-14T08:01:27.835Z</time></trkpt><trkpt lat="42.703955" lon="-8.3102883"><ele>438.0</ele><time>2026-04-14T08:01:28.835Z</time></trkpt><trkpt lat="42.7041267" lon="-8.3101717"><ele>435.0</ele><time>2026-04-14T08:01:29.835Z</time></trkpt><trkpt lat="42.70428" lon="-8.310025"><ele>435.0</ele><time>2026-04-14T08:01:30.835Z</time></trkpt><trkpt lat="42.7044117" lon="-8.3098567"><ele>435.0</ele><time>2026-04-14T08:01:31.836Z</time></trkpt><trkpt lat="42.7045383" lon="-8.309675"><ele>435.0</ele><time>2026-04-14T08:01:32.835Z</time></trkpt><trkpt lat="42.7046567" lon="-8.30948"><ele>435.0</ele><time>2026-04-14T08:01:33.835Z</time></trkpt><trkpt lat="42.704755" lon="-8.3092733"><ele>435.0</ele><time>2026-04-14T08:01:34.835Z</time></trkpt><trkpt lat="42.7048333" lon="-8.30905"><ele>435.0</ele><time>2026-04-14T08:01:35.836Z</time></trkpt><trkpt lat="42.7049033" lon="-8.3088217"><ele>432.33333333333337</ele><time>2026-04-14T08:01:36.836Z</time></trkpt><trkpt lat="42.7049717" lon="-8.3085967"><ele>429.6666666666667</ele><time>2026-04-14T08:01:37.835Z</time></trkpt><trkpt lat="42.7050333" lon="-8.30836"><ele>427.0</ele><time>2026-04-14T08:01:38.835Z</time></trkpt><trkpt lat="42.7050767" lon="-8.308125"><ele>426.0</ele><time>2026-04-14T08:01:39.835Z</time></trkpt><trkpt lat="42.70514" lon="-8.3078833"><ele>425.0</ele><time>2026-04-14T08:01:40.836Z</time></trkpt><trkpt lat="42.70519" lon="-8.307625"><ele>424.0</ele><time>2026-04-14T08:01:41.836Z</time></trkpt><trkpt lat="42.7052483" lon="-8.3073767"><ele>422.6666666666667</ele><time>2026-04-14T08:01:42.835Z</time></trkpt><trkpt lat="42.7052967" lon="-8.3071333"><ele>421.33333333333337</ele><time>2026-04-14T08:01:43.835Z</time></trkpt><trkpt lat="42.7053567" lon="-8.3068817"><ele>420.0</ele><time>2026-04-14T08:01:44.835Z</time></trkpt><trkpt lat="42.7054183" lon="-8.3066333"><ele>416.66666666666663</ele><time>2026-04-14T08:01:45.835Z</time></trkpt><trkpt lat="42.7054733" lon="-8.3063883"><ele>413.3333333333333</ele><time>2026-04-14T08:01:46.835Z</time></trkpt><trkpt lat="42.7055317" lon="-8.3061483"><ele>410.0</ele><time>2026-04-14T08:01:47.836Z</time></trkpt><trkpt lat="42.7055917" lon="-8.3059133"><ele>410.0</ele><time>2026-04-14T08:01:48.836Z</time></trkpt><trkpt lat="42.7056533" lon="-8.3056767"><ele>410.0</ele><time>2026-04-14T08:01:49.836Z</time></trkpt><trkpt lat="42.7057133" lon="-8.3054383"><ele>410.0</ele><time>2026-04-14T08:01:50.836Z</time></trkpt><trkpt lat="42.7057767" lon="-8.305195"><ele>408.0</ele><time>2026-04-14T08:01:51.836Z</time></trkpt><trkpt lat="42.70583" lon="-8.3049583"><ele>406.0</ele><time>2026-04-14T08:01:52.835Z</time></trkpt><trkpt lat="42.7058833" lon="-8.3047233"><ele>404.0</ele><time>2026-04-14T08:01:53.835Z</time></trkpt><trkpt lat="42.7059383" lon="-8.304495"><ele>402.66666666666663</ele><time>2026-04-14T08:01:54.835Z</time></trkpt><trkpt lat="42.705985" lon="-8.30426"><ele>401.33333333333337</ele><time>2026-04-14T08:01:55.835Z</time></trkpt><trkpt lat="42.7060433" lon="-8.30403"><ele>400.0</ele><time>2026-04-14T08:01:56.836Z</time></trkpt><trkpt lat="42.7061067" lon="-8.3037983"><ele>399.33333333333337</ele><time>2026-04-14T08:01:57.836Z</time></trkpt><trkpt lat="42.70617" lon="-8.30356"><ele>398.66666666666663</ele><time>2026-04-14T08:01:58.836Z</time></trkpt><trkpt lat="42.7062333" lon="-8.30332"><ele>398.0</ele><time>2026-04-14T08:01:59.836Z</time></trkpt><trkpt lat="42.7062933" lon="-8.303085"><ele>397.0</ele><time>2026-04-14T08:02:00.836Z</time></trkpt><trkpt lat="42.70634" lon="-8.3028583"><ele>396.0</ele><time>2026-04-14T08:02:01.835Z</time></trkpt><trkpt lat="42.7063967" lon="-8.3026283"><ele>395.0</ele><time>2026-04-14T08:02:02.835Z</time></trkpt><trkpt lat="42.7064517" lon="-8.3024083"><ele>394.66666666666663</ele><time>2026-04-14T08:02:03.835Z</time></trkpt><trkpt lat="42.70651" lon="-8.3021783"><ele>394.33333333333337</ele><time>2026-04-14T08:02:04.836Z</time></trkpt><trkpt lat="42.7065683" lon="-8.3019517"><ele>394.0</ele><time>2026-04-14T08:02:05.835Z</time></trkpt><trkpt lat="42.7066233" lon="-8.30172"><ele>394.0</ele><time>2026-04-14T08:02:06.835Z</time></trkpt><trkpt lat="42.706675" lon="-8.3014983"><ele>394.0</ele><time>2026-04-14T08:02:07.836Z</time></trkpt><trkpt lat="42.7067283" lon="-8.301265"><ele>394.0</ele><time>2026-04-14T08:02:08.836Z</time></trkpt><trkpt lat="42.7067883" lon="-8.3010333"><ele>394.6666666666667</ele><time>2026-04-14T08:02:09.836Z</time></trkpt><trkpt lat="42.7068467" lon="-8.300795"><ele>395.33333333333337</ele><time>2026-04-14T08:02:10.835Z</time></trkpt><trkpt lat="42.7069067" lon="-8.300555"><ele>396.0</ele><time>2026-04-14T08:02:11.836Z</time></trkpt><trkpt lat="42.70697" lon="-8.300315"><ele>396.0</ele><time>2026-04-14T08:02:12.836Z</time></trkpt><trkpt lat="42.70703" lon="-8.3000817"><ele>396.0</ele><time>2026-04-14T08:02:13.835Z</time></trkpt><trkpt lat="42.7070917" lon="-8.2998367"><ele>396.0</ele><time>2026-04-14T08:02:14.835Z</time></trkpt><trkpt lat="42.7071533" lon="-8.2995967"><ele>395.33333333333337</ele><time>2026-04-14T08:02:15.836Z</time></trkpt><trkpt lat="42.7072083" lon="-8.2993717"><ele>394.6666666666667</ele><time>2026-04-14T08:02:16.835Z</time></trkpt><trkpt lat="42.7072667" lon="-8.2991467"><ele>394.0</ele><time>2026-04-14T08:02:17.836Z</time></trkpt><trkpt lat="42.7073267" lon="-8.2989167"><ele>393.6666666666667</ele><time>2026-04-14T08:02:18.835Z</time></trkpt><trkpt lat="42.70738" lon="-8.298685"><ele>393.33333333333337</ele><time>2026-04-14T08:02:19.836Z</time></trkpt><trkpt lat="42.70743" lon="-8.298455"><ele>393.0</ele><time>2026-04-14T08:02:20.835Z</time></trkpt><trkpt lat="42.7074883" lon="-8.2982333"><ele>392.66666666666663</ele><time>2026-04-14T08:02:21.835Z</time></trkpt><trkpt lat="42.707545" lon="-8.2980083"><ele>392.3333333333333</ele><time>2026-04-14T08:02:22.836Z</time></trkpt><trkpt lat="42.7076" lon="-8.2977817"><ele>392.0</ele><time>2026-04-14T08:02:23.835Z</time></trkpt><trkpt lat="42.70766" lon="-8.2975667"><ele>392.0</ele><time>2026-04-14T08:02:24.836Z</time></trkpt><trkpt lat="42.7077333" lon="-8.2973567"><ele>392.0</ele><time>2026-04-14T08:02:25.835Z</time></trkpt><trkpt lat="42.7078017" lon="-8.2971467"><ele>392.0</ele><time>2026-04-14T08:02:26.836Z</time></trkpt><trkpt lat="42.7078867" lon="-8.2969483"><ele>390.66666666666663</ele><time>2026-04-14T08:02:27.836Z</time></trkpt><trkpt lat="42.707975" lon="-8.2967633"><ele>389.33333333333337</ele><time>2026-04-14T08:02:28.836Z</time></trkpt><trkpt lat="42.7080667" lon="-8.2965933"><ele>388.0</ele><time>2026-04-14T08:02:29.836Z</time></trkpt><trkpt lat="42.7081533" lon="-8.2964183"><ele>387.0</ele><time>2026-04-14T08:02:30.836Z</time></trkpt><trkpt lat="42.7082417" lon="-8.296265"><ele>386.0</ele><time>2026-04-14T08:02:31.835Z</time></trkpt><trkpt lat="42.70833" lon="-8.2961033"><ele>385.0</ele><time>2026-04-14T08:02:32.835Z</time></trkpt><trkpt lat="42.7084317" lon="-8.2959467"><ele>384.0</ele><time>2026-04-14T08:02:33.836Z</time></trkpt><trkpt lat="42.7085283" lon="-8.295805"><ele>383.3333333333333</ele><time>2026-04-14T08:02:34.836Z</time></trkpt><trkpt lat="42.708635" lon="-8.2956533"><ele>382.66666666666663</ele><time>2026-04-14T08:02:35.836Z</time></trkpt><trkpt lat="42.7087533" lon="-8.2955233"><ele>382.0</ele><time>2026-04-14T08:02:36.835Z</time></trkpt><trkpt lat="42.7088817" lon="-8.2953783"><ele>382.0</ele><time>2026-04-14T08:02:37.836Z</time></trkpt><trkpt lat="42.7090217" lon="-8.2952333"><ele>382.0</ele><time>2026-04-14T08:02:38.835Z</time></trkpt><trkpt lat="42.7091683" lon="-8.2950983"><ele>382.0</ele><time>2026-04-14T08:02:39.836Z</time></trkpt><trkpt lat="42.709325" lon="-8.2949817"><ele>383.3333333333333</ele><time>2026-04-14T08:02:40.836Z</time></trkpt><trkpt lat="42.7094833" lon="-8.2948717"><ele>384.66666666666663</ele><time>2026-04-14T08:02:41.835Z</time></trkpt><trkpt lat="42.7096317" lon="-8.2947567"><ele>386.0</ele><time>2026-04-14T08:02:42.836Z</time></trkpt><trkpt lat="42.7097867" lon="-8.2946617"><ele>383.0</ele><time>2026-04-14T08:02:43.836Z</time></trkpt><trkpt lat="42.7099533" lon="-8.2945817"><ele>380.0</ele><time>2026-04-14T08:02:44.835Z</time></trkpt><trkpt lat="42.71013" lon="-8.2945"><ele>377.0</ele><time>2026-04-14T08:02:45.835Z</time></trkpt><trkpt lat="42.7103117" lon="-8.294425"><ele>377.0</ele><time>2026-04-14T08:02:46.836Z</time></trkpt><trkpt lat="42.7105017" lon="-8.2943467"><ele>377.0</ele><time>2026-04-14T08:02:47.835Z</time></trkpt><trkpt lat="42.710685" lon="-8.2942583"><ele>377.0</ele><time>2026-04-14T08:02:48.836Z</time></trkpt><trkpt lat="42.7108617" lon="-8.29418"><ele>377.0</ele><time>2026-04-14T08:02:49.835Z</time></trkpt><trkpt lat="42.7110417" lon="-8.294095"><ele>377.0</ele><time>2026-04-14T08:02:50.836Z</time></trkpt><trkpt lat="42.7112233" lon="-8.2940183"><ele>377.0</ele><time>2026-04-14T08:02:51.835Z</time></trkpt><trkpt lat="42.7114083" lon="-8.2939367"><ele>374.33333333333337</ele><time>2026-04-14T08:02:52.836Z</time></trkpt><trkpt lat="42.7115933" lon="-8.2938433"><ele>371.6666666666667</ele><time>2026-04-14T08:02:53.835Z</time></trkpt><trkpt lat="42.7117667" lon="-8.29376"><ele>369.0</ele><time>2026-04-14T08:02:54.835Z</time></trkpt><trkpt lat="42.7119583" lon="-8.2936833"><ele>367.3333333333333</ele><time>2026-04-14T08:02:55.835Z</time></trkpt><trkpt lat="42.7121483" lon="-8.2936017"><ele>365.66666666666663</ele><time>2026-04-14T08:02:56.835Z</time></trkpt><trkpt lat="42.7123317" lon="-8.2935183"><ele>364.0</ele><time>2026-04-14T08:02:57.836Z</time></trkpt><trkpt lat="42.712505" lon="-8.2934267"><ele>364.0</ele><time>2026-04-14T08:02:58.835Z</time></trkpt><trkpt lat="42.7126883" lon="-8.2933433"><ele>364.0</ele><time>2026-04-14T08:02:59.836Z</time></trkpt><trkpt lat="42.71287" lon="-8.2932633"><ele>364.0</ele><time>2026-04-14T08:03:00.835Z</time></trkpt><trkpt lat="42.7130517" lon="-8.293175"><ele>363.0</ele><time>2026-04-14T08:03:01.836Z</time></trkpt><trkpt lat="42.71322" lon="-8.293095"><ele>362.0</ele><time>2026-04-14T08:03:02.836Z</time></trkpt><trkpt lat="42.7133783" lon="-8.2930217"><ele>361.0</ele><time>2026-04-14T08:03:03.836Z</time></trkpt><trkpt lat="42.71353" lon="-8.2929333"><ele>359.66666666666663</ele><time>2026-04-14T08:03:04.835Z</time></trkpt><trkpt lat="42.7136683" lon="-8.292835"><ele>358.3333333333333</ele><time>2026-04-14T08:03:05.836Z</time></trkpt><trkpt lat="42.7138033" lon="-8.29273"><ele>357.0</ele><time>2026-04-14T08:03:06.837Z</time></trkpt><trkpt lat="42.7139417" lon="-8.2926033"><ele>357.0</ele><time>2026-04-14T08:03:07.836Z</time></trkpt><trkpt lat="42.71408" lon="-8.292465"><ele>357.0</ele><time>2026-04-14T08:03:08.836Z</time></trkpt><trkpt lat="42.714215" lon="-8.292305"><ele>357.0</ele><time>2026-04-14T08:03:09.836Z</time></trkpt><trkpt lat="42.7143483" lon="-8.2921283"><ele>358.6666666666667</ele><time>2026-04-14T08:03:10.837Z</time></trkpt><trkpt lat="42.71448" lon="-8.291945"><ele>360.33333333333337</ele><time>2026-04-14T08:03:11.836Z</time></trkpt><trkpt lat="42.7145917" lon="-8.2917433"><ele>362.0</ele><time>2026-04-14T08:03:12.837Z</time></trkpt><trkpt lat="42.7147017" lon="-8.2915317"><ele>361.33333333333337</ele><time>2026-04-14T08:03:13.837Z</time></trkpt><trkpt lat="42.7148" lon="-8.29131"><ele>360.6666666666667</ele><time>2026-04-14T08:03:14.836Z</time></trkpt><trkpt lat="42.714905" lon="-8.29108"><ele>360.0</ele><time>2026-04-14T08:03:15.837Z</time></trkpt><trkpt lat="42.715" lon="-8.2908367"><ele>360.0</ele><time>2026-04-14T08:03:16.836Z</time></trkpt><trkpt lat="42.7150917" lon="-8.290595"><ele>360.0</ele><time>2026-04-14T08:03:17.837Z</time></trkpt><trkpt lat="42.7151867" lon="-8.2903533"><ele>360.0</ele><time>2026-04-14T08:03:18.836Z</time></trkpt><trkpt lat="42.715285" lon="-8.2901083"><ele>359.6666666666667</ele><time>2026-04-14T08:03:19.837Z</time></trkpt><trkpt lat="42.7153883" lon="-8.28987"><ele>359.33333333333337</ele><time>2026-04-14T08:03:20.837Z</time></trkpt><trkpt lat="42.7154867" lon="-8.2896267"><ele>359.0</ele><time>2026-04-14T08:03:21.837Z</time></trkpt><trkpt lat="42.7155883" lon="-8.2893883"><ele>359.0</ele><time>2026-04-14T08:03:22.837Z</time></trkpt><trkpt lat="42.7156817" lon="-8.2891567"><ele>359.0</ele><time>2026-04-14T08:03:23.836Z</time></trkpt><trkpt lat="42.71577" lon="-8.28893"><ele>359.0</ele><time>2026-04-14T08:03:24.836Z</time></trkpt><trkpt lat="42.71586" lon="-8.28871"><ele>358.6666666666667</ele><time>2026-04-14T08:03:25.836Z</time></trkpt><trkpt lat="42.7159483" lon="-8.2884867"><ele>358.3333333333333</ele><time>2026-04-14T08:03:26.836Z</time></trkpt><trkpt lat="42.71604" lon="-8.28826"><ele>358.0</ele><time>2026-04-14T08:03:27.837Z</time></trkpt><trkpt lat="42.7161317" lon="-8.2880317"><ele>358.0</ele><time>2026-04-14T08:03:28.837Z</time></trkpt><trkpt lat="42.71622" lon="-8.287795"><ele>358.0</ele><time>2026-04-14T08:03:29.836Z</time></trkpt><trkpt lat="42.7163167" lon="-8.2875433"><ele>358.0</ele><time>2026-04-14T08:03:30.837Z</time></trkpt><trkpt lat="42.7164183" lon="-8.2873"><ele>355.66666666666663</ele><time>2026-04-14T08:03:31.836Z</time></trkpt><trkpt lat="42.71651" lon="-8.28707"><ele>353.3333333333333</ele><time>2026-04-14T08:03:32.836Z</time></trkpt><trkpt lat="42.716605" lon="-8.2868383"><ele>351.0</ele><time>2026-04-14T08:03:33.836Z</time></trkpt><trkpt lat="42.7166933" lon="-8.2866083"><ele>347.6666666666667</ele><time>2026-04-14T08:03:34.837Z</time></trkpt><trkpt lat="42.7167767" lon="-8.2863733"><ele>344.33333333333337</ele><time>2026-04-14T08:03:35.836Z</time></trkpt><trkpt lat="42.7168617" lon="-8.28614"><ele>341.0</ele><time>2026-04-14T08:03:36.836Z</time></trkpt><trkpt lat="42.7169433" lon="-8.2859067"><ele>339.6666666666667</ele><time>2026-04-14T08:03:37.836Z</time></trkpt><trkpt lat="42.71703" lon="-8.2856683"><ele>338.3333333333333</ele><time>2026-04-14T08:03:38.836Z</time></trkpt><trkpt lat="42.7171133" lon="-8.285435"><ele>337.0</ele><time>2026-04-14T08:03:39.836Z</time></trkpt><trkpt lat="42.717195" lon="-8.2852"><ele>335.66666666666663</ele><time>2026-04-14T08:03:40.836Z</time></trkpt><trkpt lat="42.7172767" lon="-8.2849583"><ele>334.3333333333333</ele><time>2026-04-14T08:03:41.836Z</time></trkpt><trkpt lat="42.7173617" lon="-8.2847283"><ele>333.0</ele><time>2026-04-14T08:03:42.837Z</time></trkpt><trkpt lat="42.717435" lon="-8.2845183"><ele>333.0</ele><time>2026-04-14T08:03:43.837Z</time></trkpt><trkpt lat="42.7175017" lon="-8.2843183"><ele>333.0</ele><time>2026-04-14T08:03:44.836Z</time></trkpt><trkpt lat="42.7175583" lon="-8.2841217"><ele>333.0</ele><time>2026-04-14T08:03:45.837Z</time></trkpt><trkpt lat="42.7176033" lon="-8.2839283"><ele>333.0</ele><time>2026-04-14T08:03:46.836Z</time></trkpt><trkpt lat="42.717625" lon="-8.2837467"><ele>333.0</ele><time>2026-04-14T08:03:47.837Z</time></trkpt><trkpt lat="42.7176233" lon="-8.2835617"><ele>333.0</ele><time>2026-04-14T08:03:48.837Z</time></trkpt><trkpt lat="42.71761" lon="-8.283365"><ele>333.0</ele><time>2026-04-14T08:03:49.836Z</time></trkpt><trkpt lat="42.7175667" lon="-8.2831683"><ele>333.0</ele><time>2026-04-14T08:03:50.837Z</time></trkpt><trkpt lat="42.7174917" lon="-8.2829833"><ele>333.0</ele><time>2026-04-14T08:03:51.836Z</time></trkpt><trkpt lat="42.7173817" lon="-8.28281"><ele>333.0</ele><time>2026-04-14T08:03:52.837Z</time></trkpt><trkpt lat="42.71726" lon="-8.2826483"><ele>333.0</ele><time>2026-04-14T08:03:53.837Z</time></trkpt><trkpt lat="42.717135" lon="-8.2824867"><ele>333.0</ele><time>2026-04-14T08:03:54.837Z</time></trkpt><trkpt lat="42.7170083" lon="-8.2823183"><ele>333.0</ele><time>2026-04-14T08:03:55.836Z</time></trkpt><trkpt lat="42.7168967" lon="-8.2821367"><ele>333.0</ele><time>2026-04-14T08:03:56.836Z</time></trkpt><trkpt lat="42.71677" lon="-8.2819567"><ele>333.0</ele><time>2026-04-14T08:03:57.836Z</time></trkpt><trkpt lat="42.7166417" lon="-8.2817717"><ele>333.0</ele><time>2026-04-14T08:03:58.837Z</time></trkpt><trkpt lat="42.7165083" lon="-8.281585"><ele>333.0</ele><time>2026-04-14T08:03:59.836Z</time></trkpt><trkpt lat="42.716375" lon="-8.28139"><ele>333.0</ele><time>2026-04-14T08:04:00.836Z</time></trkpt><trkpt lat="42.7162367" lon="-8.2811983"><ele>333.0</ele><time>2026-04-14T08:04:01.836Z</time></trkpt><trkpt lat="42.7161017" lon="-8.281005"><ele>333.0</ele><time>2026-04-14T08:04:02.837Z</time></trkpt><trkpt lat="42.7159533" lon="-8.2808167"><ele>333.0</ele><time>2026-04-14T08:04:03.837Z</time></trkpt><trkpt lat="42.7158167" lon="-8.28062"><ele>333.0</ele><time>2026-04-14T08:04:04.837Z</time></trkpt><trkpt lat="42.7156667" lon="-8.2804567"><ele>333.0</ele><time>2026-04-14T08:04:05.837Z</time></trkpt><trkpt lat="42.7155067" lon="-8.2802933"><ele>333.0</ele><time>2026-04-14T08:04:06.837Z</time></trkpt><trkpt lat="42.7153333" lon="-8.2801683"><ele>333.0</ele><time>2026-04-14T08:04:07.837Z</time></trkpt><trkpt lat="42.7151483" lon="-8.280075"><ele>333.0</ele><time>2026-04-14T08:04:08.836Z</time></trkpt><trkpt lat="42.714955" lon="-8.2800183"><ele>333.0</ele><time>2026-04-14T08:04:09.837Z</time></trkpt><trkpt lat="42.7147567" lon="-8.2799833"><ele>333.0</ele><time>2026-04-14T08:04:10.837Z</time></trkpt><trkpt lat="42.71456" lon="-8.279985"><ele>335.0</ele><time>2026-04-14T08:04:11.837Z</time></trkpt><trkpt lat="42.7143717" lon="-8.2799783"><ele>337.0</ele><time>2026-04-14T08:04:12.836Z</time></trkpt><trkpt lat="42.7141817" lon="-8.2799567"><ele>339.0</ele><time>2026-04-14T08:04:13.836Z</time></trkpt><trkpt lat="42.7139917" lon="-8.27994"><ele>339.0</ele><time>2026-04-14T08:04:14.837Z</time></trkpt><trkpt lat="42.7138117" lon="-8.2798983"><ele>339.0</ele><time>2026-04-14T08:04:15.836Z</time></trkpt><trkpt lat="42.71363" lon="-8.2798383"><ele>339.0</ele><time>2026-04-14T08:04:16.836Z</time></trkpt><trkpt lat="42.7134717" lon="-8.27975"><ele>342.0</ele><time>2026-04-14T08:04:17.836Z</time></trkpt><trkpt lat="42.71331" lon="-8.2796333"><ele>345.0</ele><time>2026-04-14T08:04:18.837Z</time></trkpt><trkpt lat="42.713155" lon="-8.2795017"><ele>348.0</ele><time>2026-04-14T08:04:19.837Z</time></trkpt><trkpt lat="42.7130083" lon="-8.2793383"><ele>348.0</ele><time>2026-04-14T08:04:20.837Z</time></trkpt><trkpt lat="42.7128767" lon="-8.2791567"><ele>348.0</ele><time>2026-04-14T08:04:21.837Z</time></trkpt><trkpt lat="42.7127483" lon="-8.2789583"><ele>348.0</ele><time>2026-04-14T08:04:22.836Z</time></trkpt><trkpt lat="42.7126333" lon="-8.2787517"><ele>350.0</ele><time>2026-04-14T08:04:23.837Z</time></trkpt><trkpt lat="42.71252" lon="-8.2785367"><ele>352.0</ele><time>2026-04-14T08:04:24.836Z</time></trkpt><trkpt lat="42.7124117" lon="-8.2783217"><ele>354.0</ele><time>2026-04-14T08:04:25.837Z</time></trkpt><trkpt lat="42.7123067" lon="-8.2781"><ele>355.0</ele><time>2026-04-14T08:04:26.836Z</time></trkpt><trkpt lat="42.7121967" lon="-8.2778867"><ele>356.0</ele><time>2026-04-14T08:04:27.836Z</time></trkpt><trkpt lat="42.71209" lon="-8.27767"><ele>357.0</ele><time>2026-04-14T08:04:28.836Z</time></trkpt><trkpt lat="42.7119883" lon="-8.2774483"><ele>358.6666666666667</ele><time>2026-04-14T08:04:29.836Z</time></trkpt><trkpt lat="42.71188" lon="-8.2772367"><ele>360.33333333333337</ele><time>2026-04-14T08:04:30.837Z</time></trkpt><trkpt lat="42.7117683" lon="-8.2770183"><ele>362.0</ele><time>2026-04-14T08:04:31.837Z</time></trkpt><trkpt lat="42.7116617" lon="-8.2768033"><ele>362.0</ele><time>2026-04-14T08:04:32.836Z</time></trkpt><trkpt lat="42.7115583" lon="-8.2765867"><ele>362.0</ele><time>2026-04-14T08:04:33.837Z</time></trkpt><trkpt lat="42.711455" lon="-8.2763667"><ele>362.0</ele><time>2026-04-14T08:04:34.837Z</time></trkpt><trkpt lat="42.7113533" lon="-8.27615"><ele>363.33333333333337</ele><time>2026-04-14T08:04:35.837Z</time></trkpt><trkpt lat="42.71125" lon="-8.275935"><ele>364.6666666666667</ele><time>2026-04-14T08:04:36.836Z</time></trkpt><trkpt lat="42.7111417" lon="-8.2757217"><ele>366.0</ele><time>2026-04-14T08:04:37.836Z</time></trkpt><trkpt lat="42.7110367" lon="-8.2755067"><ele>366.3333333333333</ele><time>2026-04-14T08:04:38.837Z</time></trkpt><trkpt lat="42.7109333" lon="-8.275295"><ele>366.66666666666663</ele><time>2026-04-14T08:04:39.836Z</time></trkpt><trkpt lat="42.7108333" lon="-8.2750767"><ele>367.0</ele><time>2026-04-14T08:04:40.836Z</time></trkpt><trkpt lat="42.7107367" lon="-8.2748517"><ele>369.0</ele><time>2026-04-14T08:04:41.837Z</time></trkpt><trkpt lat="42.710635" lon="-8.2746283"><ele>371.0</ele><time>2026-04-14T08:04:42.836Z</time></trkpt><trkpt lat="42.7105467" lon="-8.2744067"><ele>373.0</ele><time>2026-04-14T08:04:43.836Z</time></trkpt><trkpt lat="42.7104517" lon="-8.274185"><ele>373.0</ele><time>2026-04-14T08:04:44.837Z</time></trkpt><trkpt lat="42.7103583" lon="-8.2739617"><ele>373.0</ele><time>2026-04-14T08:04:45.836Z</time></trkpt><trkpt lat="42.7102633" lon="-8.2737367"><ele>373.0</ele><time>2026-04-14T08:04:46.837Z</time></trkpt><trkpt lat="42.7101767" lon="-8.2735167"><ele>375.0</ele><time>2026-04-14T08:04:47.837Z</time></trkpt><trkpt lat="42.7100717" lon="-8.2733"><ele>377.0</ele><time>2026-04-14T08:04:48.837Z</time></trkpt><trkpt lat="42.7099833" lon="-8.2730817"><ele>379.0</ele><time>2026-04-14T08:04:49.837Z</time></trkpt><trkpt lat="42.709895" lon="-8.272865"><ele>381.66666666666663</ele><time>2026-04-14T08:04:50.837Z</time></trkpt><trkpt lat="42.7098133" lon="-8.2726467"><ele>384.3333333333333</ele><time>2026-04-14T08:04:51.836Z</time></trkpt><trkpt lat="42.7097233" lon="-8.2724183"><ele>387.0</ele><time>2026-04-14T08:04:52.837Z</time></trkpt><trkpt lat="42.70962" lon="-8.2721983"><ele>388.0</ele><time>2026-04-14T08:04:53.837Z</time></trkpt><trkpt lat="42.7095217" lon="-8.2719767"><ele>389.0</ele><time>2026-04-14T08:04:54.836Z</time></trkpt><trkpt lat="42.7094383" lon="-8.2717583"><ele>390.0</ele><time>2026-04-14T08:04:55.836Z</time></trkpt><trkpt lat="42.7093483" lon="-8.2715333"><ele>388.66666666666663</ele><time>2026-04-14T08:04:56.836Z</time></trkpt><trkpt lat="42.7092667" lon="-8.2713083"><ele>387.3333333333333</ele><time>2026-04-14T08:04:57.836Z</time></trkpt><trkpt lat="42.7091817" lon="-8.2710733"><ele>386.0</ele><time>2026-04-14T08:04:58.836Z</time></trkpt><trkpt lat="42.7091017" lon="-8.2708383"><ele>386.0</ele><time>2026-04-14T08:04:59.836Z</time></trkpt><trkpt lat="42.7090083" lon="-8.2706083"><ele>386.0</ele><time>2026-04-14T08:05:00.837Z</time></trkpt><trkpt lat="42.7089133" lon="-8.270375"><ele>386.0</ele><time>2026-04-14T08:05:01.837Z</time></trkpt><trkpt lat="42.708825" lon="-8.270145"><ele>387.66666666666663</ele><time>2026-04-14T08:05:02.837Z</time></trkpt><trkpt lat="42.7087433" lon="-8.2699117"><ele>389.33333333333337</ele><time>2026-04-14T08:05:03.837Z</time></trkpt><trkpt lat="42.7086617" lon="-8.2696833"><ele>391.0</ele><time>2026-04-14T08:05:04.836Z</time></trkpt><trkpt lat="42.7085817" lon="-8.2694633"><ele>391.0</ele><time>2026-04-14T08:05:05.836Z</time></trkpt><trkpt lat="42.7084983" lon="-8.2692483"><ele>391.0</ele><time>2026-04-14T08:05:06.836Z</time></trkpt><trkpt lat="42.7084217" lon="-8.2690217"><ele>391.0</ele><time>2026-04-14T08:05:07.837Z</time></trkpt><trkpt lat="42.7083433" lon="-8.2687983"><ele>393.6666666666667</ele><time>2026-04-14T08:05:08.837Z</time></trkpt><trkpt lat="42.708255" lon="-8.268575"><ele>396.33333333333337</ele><time>2026-04-14T08:05:09.836Z</time></trkpt><trkpt lat="42.70817" lon="-8.2683417"><ele>399.0</ele><time>2026-04-14T08:05:10.837Z</time></trkpt><trkpt lat="42.7080883" lon="-8.2681083"><ele>401.0</ele><time>2026-04-14T08:05:11.837Z</time></trkpt><trkpt lat="42.708005" lon="-8.2678717"><ele>403.0</ele><time>2026-04-14T08:05:12.836Z</time></trkpt><trkpt lat="42.707915" lon="-8.2676267"><ele>405.0</ele><time>2026-04-14T08:05:13.836Z</time></trkpt><trkpt lat="42.7078283" lon="-8.2673833"><ele>404.33333333333337</ele><time>2026-04-14T08:05:14.837Z</time></trkpt><trkpt lat="42.7077383" lon="-8.26713"><ele>403.6666666666667</ele><time>2026-04-14T08:05:15.836Z</time></trkpt><trkpt lat="42.7076517" lon="-8.26687"><ele>403.0</ele><time>2026-04-14T08:05:16.837Z</time></trkpt><trkpt lat="42.707555" lon="-8.2666117"><ele>405.6666666666667</ele><time>2026-04-14T08:05:17.836Z</time></trkpt><trkpt lat="42.707455" lon="-8.2663517"><ele>408.33333333333337</ele><time>2026-04-14T08:05:18.837Z</time></trkpt><trkpt lat="42.7073433" lon="-8.26611"><ele>411.0</ele><time>2026-04-14T08:05:19.836Z</time></trkpt><trkpt lat="42.70723" lon="-8.26588"><ele>411.0</ele><time>2026-04-14T08:05:20.837Z</time></trkpt><trkpt lat="42.7071083" lon="-8.2656567"><ele>411.0</ele><time>2026-04-14T08:05:21.837Z</time></trkpt><trkpt lat="42.706975" lon="-8.2654417"><ele>411.0</ele><time>2026-04-14T08:05:22.836Z</time></trkpt><trkpt lat="42.7068517" lon="-8.2652133"><ele>411.0</ele><time>2026-04-14T08:05:23.837Z</time></trkpt><trkpt lat="42.7067383" lon="-8.264975"><ele>411.0</ele><time>2026-04-14T08:05:24.837Z</time></trkpt><trkpt lat="42.7066383" lon="-8.264735"><ele>411.0</ele><time>2026-04-14T08:05:25.836Z</time></trkpt><trkpt lat="42.70656" lon="-8.2644833"><ele>413.33333333333337</ele><time>2026-04-14T08:05:26.837Z</time></trkpt><trkpt lat="42.7064817" lon="-8.2642167"><ele>415.6666666666667</ele><time>2026-04-14T08:05:27.837Z</time></trkpt><trkpt lat="42.7064267" lon="-8.2639483"><ele>418.0</ele><time>2026-04-14T08:05:28.837Z</time></trkpt><trkpt lat="42.7063933" lon="-8.26368"><ele>419.6666666666667</ele><time>2026-04-14T08:05:29.836Z</time></trkpt><trkpt lat="42.70637" lon="-8.2634033"><ele>421.33333333333337</ele><time>2026-04-14T08:05:30.837Z</time></trkpt><trkpt lat="42.7063567" lon="-8.263115"><ele>423.0</ele><time>2026-04-14T08:05:31.836Z</time></trkpt><trkpt lat="42.7063517" lon="-8.2628333"><ele>424.0</ele><time>2026-04-14T08:05:32.836Z</time></trkpt><trkpt lat="42.70637" lon="-8.262545"><ele>425.0</ele><time>2026-04-14T08:05:33.836Z</time></trkpt><trkpt lat="42.7063883" lon="-8.2622567"><ele>426.0</ele><time>2026-04-14T08:05:34.837Z</time></trkpt><trkpt lat="42.7064117" lon="-8.2619667"><ele>426.33333333333337</ele><time>2026-04-14T08:05:35.837Z</time></trkpt><trkpt lat="42.7064317" lon="-8.2616717"><ele>426.6666666666667</ele><time>2026-04-14T08:05:36.837Z</time></trkpt><trkpt lat="42.7064417" lon="-8.2613733"><ele>427.0</ele><time>2026-04-14T08:05:37.836Z</time></trkpt><trkpt lat="42.7064433" lon="-8.2610783"><ele>427.0</ele><time>2026-04-14T08:05:38.836Z</time></trkpt><trkpt lat="42.70643" lon="-8.2607883"><ele>427.0</ele><time>2026-04-14T08:05:39.836Z</time></trkpt><trkpt lat="42.7063917" lon="-8.2605133"><ele>427.0</ele><time>2026-04-14T08:05:40.836Z</time></trkpt><trkpt lat="42.7063333" lon="-8.2602367"><ele>427.0</ele><time>2026-04-14T08:05:41.837Z</time></trkpt><trkpt lat="42.7062483" lon="-8.2599783"><ele>427.0</ele><time>2026-04-14T08:05:42.836Z</time></trkpt><trkpt lat="42.70614" lon="-8.2597417"><ele>427.0</ele><time>2026-04-14T08:05:43.837Z</time></trkpt><trkpt lat="42.7060083" lon="-8.2595317"><ele>429.6666666666667</ele><time>2026-04-14T08:05:44.837Z</time></trkpt><trkpt lat="42.70586" lon="-8.2593483"><ele>432.33333333333337</ele><time>2026-04-14T08:05:45.837Z</time></trkpt><trkpt lat="42.705705" lon="-8.259185"><ele>435.0</ele><time>2026-04-14T08:05:46.836Z</time></trkpt><trkpt lat="42.7055333" lon="-8.25905"><ele>437.0</ele><time>2026-04-14T08:05:47.836Z</time></trkpt><trkpt lat="42.7053533" lon="-8.2589383"><ele>439.0</ele><time>2026-04-14T08:05:48.836Z</time></trkpt><trkpt lat="42.7051617" lon="-8.25885"><ele>441.0</ele><time>2026-04-14T08:05:49.836Z</time></trkpt><trkpt lat="42.7049683" lon="-8.258795"><ele>442.0</ele><time>2026-04-14T08:05:50.837Z</time></trkpt><trkpt lat="42.7047683" lon="-8.2587617"><ele>443.0</ele><time>2026-04-14T08:05:51.837Z</time></trkpt><trkpt lat="42.7045617" lon="-8.2587517"><ele>444.0</ele><time>2026-04-14T08:05:52.837Z</time></trkpt><trkpt lat="42.7043567" lon="-8.2587533"><ele>448.0</ele><time>2026-04-14T08:05:53.836Z</time></trkpt><trkpt lat="42.7041533" lon="-8.2587583"><ele>452.0</ele><time>2026-04-14T08:05:54.837Z</time></trkpt><trkpt lat="42.70395" lon="-8.2587633"><ele>456.0</ele><time>2026-04-14T08:05:55.836Z</time></trkpt><trkpt lat="42.703745" lon="-8.25877"><ele>458.66666666666663</ele><time>2026-04-14T08:05:56.836Z</time></trkpt><trkpt lat="42.7035483" lon="-8.2587717"><ele>461.3333333333333</ele><time>2026-04-14T08:05:57.837Z</time></trkpt><trkpt lat="42.703345" lon="-8.2587717"><ele>464.0</ele><time>2026-04-14T08:05:58.836Z</time></trkpt><trkpt lat="42.7031533" lon="-8.2587667"><ele>464.0</ele><time>2026-04-14T08:05:59.836Z</time></trkpt><trkpt lat="42.7029383" lon="-8.2587417"><ele>464.0</ele><time>2026-04-14T08:06:00.836Z</time></trkpt><trkpt lat="42.702745" lon="-8.2586933"><ele>464.0</ele><time>2026-04-14T08:06:01.837Z</time></trkpt><trkpt lat="42.7025767" lon="-8.2586133"><ele>462.3333333333333</ele><time>2026-04-14T08:06:02.836Z</time></trkpt><trkpt lat="42.7024267" lon="-8.2585083"><ele>460.66666666666663</ele><time>2026-04-14T08:06:03.837Z</time></trkpt><trkpt lat="42.7022967" lon="-8.2583867"><ele>459.0</ele><time>2026-04-14T08:06:04.836Z</time></trkpt><trkpt lat="42.7021733" lon="-8.2582483"><ele>460.33333333333337</ele><time>2026-04-14T08:06:05.836Z</time></trkpt><trkpt lat="42.7020667" lon="-8.2580767"><ele>461.6666666666667</ele><time>2026-04-14T08:06:06.836Z</time></trkpt><trkpt lat="42.7019633" lon="-8.257885"><ele>463.0</ele><time>2026-04-14T08:06:07.836Z</time></trkpt><trkpt lat="42.7018683" lon="-8.2576817"><ele>461.0</ele><time>2026-04-14T08:06:08.837Z</time></trkpt><trkpt lat="42.70179" lon="-8.2574617"><ele>459.0</ele><time>2026-04-14T08:06:09.836Z</time></trkpt><trkpt lat="42.7017317" lon="-8.257235"><ele>457.0</ele><time>2026-04-14T08:06:10.837Z</time></trkpt><trkpt lat="42.7016833" lon="-8.256995"><ele>457.0</ele><time>2026-04-14T08:06:11.836Z</time></trkpt><trkpt lat="42.7016417" lon="-8.2567467"><ele>457.0</ele><time>2026-04-14T08:06:12.837Z</time></trkpt><trkpt lat="42.7015933" lon="-8.256495"><ele>457.0</ele><time>2026-04-14T08:06:13.836Z</time></trkpt><trkpt lat="42.701545" lon="-8.2562417"><ele>457.0</ele><time>2026-04-14T08:06:14.836Z</time></trkpt><trkpt lat="42.70149" lon="-8.2559967"><ele>457.0</ele><time>2026-04-14T08:06:15.836Z</time></trkpt><trkpt lat="42.7014117" lon="-8.2557717"><ele>457.0</ele><time>2026-04-14T08:06:16.837Z</time></trkpt><trkpt lat="42.701315" lon="-8.255575"><ele>458.33333333333337</ele><time>2026-04-14T08:06:17.836Z</time></trkpt><trkpt lat="42.7012017" lon="-8.255385"><ele>459.66666666666663</ele><time>2026-04-14T08:06:18.837Z</time></trkpt><trkpt lat="42.7010717" lon="-8.2552283"><ele>461.0</ele><time>2026-04-14T08:06:19.836Z</time></trkpt><trkpt lat="42.70092" lon="-8.2550983"><ele>461.0</ele><time>2026-04-14T08:06:20.836Z</time></trkpt><trkpt lat="42.7007567" lon="-8.254985"><ele>461.0</ele><time>2026-04-14T08:06:21.836Z</time></trkpt><trkpt lat="42.7005867" lon="-8.25488"><ele>461.0</ele><time>2026-04-14T08:06:22.837Z</time></trkpt><trkpt lat="42.7004183" lon="-8.2547717"><ele>463.3333333333333</ele><time>2026-04-14T08:06:23.836Z</time></trkpt><trkpt lat="42.7002517" lon="-8.25465"><ele>465.66666666666663</ele><time>2026-04-14T08:06:24.837Z</time></trkpt><trkpt lat="42.70009" lon="-8.2545233"><ele>468.0</ele><time>2026-04-14T08:06:25.836Z</time></trkpt><trkpt lat="42.699935" lon="-8.25437"><ele>468.0</ele><time>2026-04-14T08:06:26.836Z</time></trkpt><trkpt lat="42.699795" lon="-8.2541983"><ele>468.0</ele><time>2026-04-14T08:06:27.836Z</time></trkpt><trkpt lat="42.6996583" lon="-8.2540083"><ele>468.0</ele><time>2026-04-14T08:06:28.837Z</time></trkpt><trkpt lat="42.699545" lon="-8.2537883"><ele>468.33333333333337</ele><time>2026-04-14T08:06:29.836Z</time></trkpt><trkpt lat="42.69944" lon="-8.253555"><ele>468.6666666666667</ele><time>2026-04-14T08:06:30.836Z</time></trkpt><trkpt lat="42.69935" lon="-8.253305"><ele>469.0</ele><time>2026-04-14T08:06:31.837Z</time></trkpt><trkpt lat="42.6992767" lon="-8.2530517"><ele>469.0</ele><time>2026-04-14T08:06:32.836Z</time></trkpt><trkpt lat="42.6992283" lon="-8.2527933"><ele>469.0</ele><time>2026-04-14T08:06:33.836Z</time></trkpt><trkpt lat="42.6992033" lon="-8.2525333"><ele>469.0</ele><time>2026-04-14T08:06:34.836Z</time></trkpt><trkpt lat="42.6992067" lon="-8.252275"><ele>470.33333333333337</ele><time>2026-04-14T08:06:35.837Z</time></trkpt><trkpt lat="42.6992217" lon="-8.252015"><ele>471.66666666666663</ele><time>2026-04-14T08:06:36.837Z</time></trkpt><trkpt lat="42.6992667" lon="-8.2517633"><ele>473.0</ele><time>2026-04-14T08:06:37.836Z</time></trkpt><trkpt lat="42.6992867" lon="-8.2515167"><ele>473.0</ele><time>2026-04-14T08:06:38.836Z</time></trkpt><trkpt lat="42.6992983" lon="-8.251285"><ele>473.0</ele><time>2026-04-14T08:06:39.836Z</time></trkpt><trkpt lat="42.6993133" lon="-8.2510517"><ele>473.0</ele><time>2026-04-14T08:06:40.837Z</time></trkpt><trkpt lat="42.6993167" lon="-8.2508133"><ele>473.3333333333333</ele><time>2026-04-14T08:06:41.836Z</time></trkpt><trkpt lat="42.699315" lon="-8.2505817"><ele>473.66666666666663</ele><time>2026-04-14T08:06:42.836Z</time></trkpt><trkpt lat="42.6992867" lon="-8.2503633"><ele>474.0</ele><time>2026-04-14T08:06:43.836Z</time></trkpt><trkpt lat="42.6992433" lon="-8.2501583"><ele>474.0</ele><time>2026-04-14T08:06:44.837Z</time></trkpt><trkpt lat="42.6991867" lon="-8.2499667"><ele>474.0</ele><time>2026-04-14T08:06:45.836Z</time></trkpt><trkpt lat="42.6991183" lon="-8.2497883"><ele>474.0</ele><time>2026-04-14T08:06:46.837Z</time></trkpt><trkpt lat="42.699035" lon="-8.249635"><ele>474.0</ele><time>2026-04-14T08:06:47.836Z</time></trkpt><trkpt lat="42.69894" lon="-8.2494867"><ele>474.75</ele><time>2026-04-14T08:06:48.837Z</time></trkpt><trkpt lat="42.6988333" lon="-8.24935"><ele>475.5</ele><time>2026-04-14T08:06:49.837Z</time></trkpt><trkpt lat="42.698715" lon="-8.2492233"><ele>476.25</ele><time>2026-04-14T08:06:50.837Z</time></trkpt><trkpt lat="42.6985883" lon="-8.24911"><ele>477.0</ele><time>2026-04-14T08:06:51.837Z</time></trkpt><trkpt lat="42.6984567" lon="-8.249"><ele>479.33333333333337</ele><time>2026-04-14T08:06:52.837Z</time></trkpt><trkpt lat="42.6983133" lon="-8.2488983"><ele>481.6666666666667</ele><time>2026-04-14T08:06:53.836Z</time></trkpt><trkpt lat="42.698175" lon="-8.2487933"><ele>484.0</ele><time>2026-04-14T08:06:54.836Z</time></trkpt><trkpt lat="42.6980283" lon="-8.2487017"><ele>484.0</ele><time>2026-04-14T08:06:55.837Z</time></trkpt><trkpt lat="42.697895" lon="-8.2485933"><ele>484.0</ele><time>2026-04-14T08:06:56.837Z</time></trkpt><trkpt lat="42.6977617" lon="-8.2485017"><ele>484.0</ele><time>2026-04-14T08:06:57.837Z</time></trkpt><trkpt lat="42.6976533" lon="-8.248395"><ele>484.0</ele><time>2026-04-14T08:06:58.837Z</time></trkpt><trkpt lat="42.6975717" lon="-8.24829"><ele>484.4</ele><time>2026-04-14T08:06:59.836Z</time></trkpt><trkpt lat="42.697515" lon="-8.2481833"><ele>484.79999999999995</ele><time>2026-04-14T08:07:00.836Z</time></trkpt><trkpt lat="42.6974667" lon="-8.2480617"><ele>485.20000000000005</ele><time>2026-04-14T08:07:01.837Z</time></trkpt><trkpt lat="42.6974567" lon="-8.247925"><ele>485.6</ele><time>2026-04-14T08:07:02.836Z</time></trkpt><trkpt lat="42.6974483" lon="-8.247795"><ele>486.0</ele><time>2026-04-14T08:07:03.837Z</time></trkpt><trkpt lat="42.69744" lon="-8.2476817"><ele>486.6666666666667</ele><time>2026-04-14T08:07:04.836Z</time></trkpt><trkpt lat="42.697435" lon="-8.2475883"><ele>487.33333333333337</ele><time>2026-04-14T08:07:05.836Z</time></trkpt><trkpt lat="42.6974433" lon="-8.2474567"><ele>488.0</ele><time>2026-04-14T08:07:07.836Z</time></trkpt><trkpt lat="42.6974383" lon="-8.2473667"><ele>488.6666666666667</ele><time>2026-04-14T08:07:09.836Z</time></trkpt><trkpt lat="42.6974317" lon="-8.2472467"><ele>489.33333333333337</ele><time>2026-04-14T08:07:39.836Z</time></trkpt><trkpt lat="42.6974167" lon="-8.2471567"><ele>490.0</ele><time>2026-04-14T08:07:40.836Z</time></trkpt><trkpt lat="42.6974083" lon="-8.2470567"><ele>490.1666666666667</ele><time>2026-04-14T08:07:41.836Z</time></trkpt><trkpt lat="42.697405" lon="-8.2469417"><ele>490.33333333333337</ele><time>2026-04-14T08:07:42.836Z</time></trkpt><trkpt lat="42.6974033" lon="-8.2468133"><ele>490.5</ele><time>2026-04-14T08:07:43.837Z</time></trkpt><trkpt lat="42.6974017" lon="-8.2466833"><ele>490.66666666666663</ele><time>2026-04-14T08:07:44.837Z</time></trkpt><trkpt lat="42.6974017" lon="-8.24656"><ele>490.8333333333333</ele><time>2026-04-14T08:07:45.837Z</time></trkpt><trkpt lat="42.6973967" lon="-8.24645"><ele>491.0</ele><time>2026-04-14T08:07:46.836Z</time></trkpt><trkpt lat="42.6973933" lon="-8.246345"><ele>491.1428571428571</ele><time>2026-04-14T08:07:47.836Z</time></trkpt><trkpt lat="42.69739" lon="-8.2462367"><ele>491.2857142857142</ele><time>2026-04-14T08:07:48.837Z</time></trkpt><trkpt lat="42.697385" lon="-8.2461367"><ele>491.42857142857144</ele><time>2026-04-14T08:07:49.837Z</time></trkpt><trkpt lat="42.69737" lon="-8.2460383"><ele>491.57142857142856</ele><time>2026-04-14T08:07:50.836Z</time></trkpt><trkpt lat="42.69736" lon="-8.2459433"><ele>491.7142857142857</ele><time>2026-04-14T08:07:51.837Z</time></trkpt><trkpt lat="42.6973467" lon="-8.2458533"><ele>491.8571428571429</ele><time>2026-04-14T08:07:52.836Z</time></trkpt><trkpt lat="42.697335" lon="-8.245755"><ele>492.00000000000006</ele><time>2026-04-14T08:07:53.837Z</time></trkpt><trkpt lat="42.69732" lon="-8.24565"><ele>491.8333333333333</ele><time>2026-04-14T08:07:54.836Z</time></trkpt><trkpt lat="42.6973083" lon="-8.2455417"><ele>491.66666666666663</ele><time>2026-04-14T08:07:55.837Z</time></trkpt><trkpt lat="42.6972983" lon="-8.24543"><ele>491.5</ele><time>2026-04-14T08:07:56.837Z</time></trkpt><trkpt lat="42.6972883" lon="-8.2453067"><ele>491.3333333333333</ele><time>2026-04-14T08:07:57.836Z</time></trkpt><trkpt lat="42.69728" lon="-8.2451817"><ele>491.16666666666663</ele><time>2026-04-14T08:07:58.837Z</time></trkpt><trkpt lat="42.6972683" lon="-8.2450617"><ele>491.0</ele><time>2026-04-14T08:07:59.837Z</time></trkpt><trkpt lat="42.6972567" lon="-8.2449417"><ele>490.99999999999994</ele><time>2026-04-14T08:08:00.836Z</time></trkpt><trkpt lat="42.6972367" lon="-8.2448267"><ele>491.0</ele><time>2026-04-14T08:08:01.836Z</time></trkpt><trkpt lat="42.69723" lon="-8.2447133"><ele>491.0</ele><time>2026-04-14T08:08:02.836Z</time></trkpt><trkpt lat="42.697215" lon="-8.24461"><ele>491.0</ele><time>2026-04-14T08:08:03.836Z</time></trkpt><trkpt lat="42.697205" lon="-8.2445033"><ele>490.99999999999994</ele><time>2026-04-14T08:08:04.837Z</time></trkpt><trkpt lat="42.6971683" lon="-8.2443933"><ele>491.0</ele><time>2026-04-14T08:08:05.836Z</time></trkpt><trkpt lat="42.6971083" lon="-8.24429"><ele>489.5</ele><time>2026-04-14T08:08:06.837Z</time></trkpt><trkpt lat="42.6970217" lon="-8.2441983"><ele>488.0</ele><time>2026-04-14T08:08:07.837Z</time></trkpt><trkpt lat="42.6969133" lon="-8.2441067"><ele>486.5</ele><time>2026-04-14T08:08:08.837Z</time></trkpt><trkpt lat="42.6968083" lon="-8.244"><ele>485.0</ele><time>2026-04-14T08:08:09.836Z</time></trkpt><trkpt lat="42.6967017" lon="-8.2438933"><ele>483.5</ele><time>2026-04-14T08:08:10.836Z</time></trkpt><trkpt lat="42.6966267" lon="-8.2437967"><ele>482.0</ele><time>2026-04-14T08:08:11.837Z</time></trkpt><trkpt lat="42.6965317" lon="-8.2437033"><ele>480.5</ele><time>2026-04-14T08:08:12.837Z</time></trkpt><trkpt lat="42.696425" lon="-8.2435967"><ele>479.0</ele><time>2026-04-14T08:08:13.836Z</time></trkpt><trkpt lat="42.696325" lon="-8.2434683"><ele>479.0</ele><time>2026-04-14T08:08:14.837Z</time></trkpt><trkpt lat="42.6962267" lon="-8.24333"><ele>479.0</ele><time>2026-04-14T08:08:15.836Z</time></trkpt><trkpt lat="42.6961383" lon="-8.24317"><ele>479.0</ele><time>2026-04-14T08:08:16.837Z</time></trkpt><trkpt lat="42.69606" lon="-8.2429967"><ele>479.0</ele><time>2026-04-14T08:08:17.836Z</time></trkpt><trkpt lat="42.6959883" lon="-8.2428317"><ele>479.2</ele><time>2026-04-14T08:08:18.836Z</time></trkpt><trkpt lat="42.695935" lon="-8.2426833"><ele>479.4</ele><time>2026-04-14T08:08:19.837Z</time></trkpt><trkpt lat="42.6958867" lon="-8.2425383"><ele>479.6</ele><time>2026-04-14T08:08:20.837Z</time></trkpt><trkpt lat="42.695855" lon="-8.2424017"><ele>479.8</ele><time>2026-04-14T08:08:21.837Z</time></trkpt><trkpt lat="42.6958333" lon="-8.2422683"><ele>480.0</ele><time>2026-04-14T08:08:22.836Z</time></trkpt><trkpt lat="42.6958183" lon="-8.2421433"><ele>479.2</ele><time>2026-04-14T08:08:23.837Z</time></trkpt><trkpt lat="42.6958117" lon="-8.2420183"><ele>478.4</ele><time>2026-04-14T08:08:24.836Z</time></trkpt><trkpt lat="42.695795" lon="-8.2418817"><ele>477.6</ele><time>2026-04-14T08:08:25.837Z</time></trkpt><trkpt lat="42.6957833" lon="-8.2417367"><ele>476.8</ele><time>2026-04-14T08:08:26.837Z</time></trkpt><trkpt lat="42.69577" lon="-8.2415883"><ele>476.0</ele><time>2026-04-14T08:08:27.837Z</time></trkpt><trkpt lat="42.6957467" lon="-8.241435"><ele>475.0</ele><time>2026-04-14T08:08:28.837Z</time></trkpt><trkpt lat="42.69572" lon="-8.2412933"><ele>474.0</ele><time>2026-04-14T08:08:29.837Z</time></trkpt><trkpt lat="42.6956983" lon="-8.24115"><ele>473.0</ele><time>2026-04-14T08:08:30.836Z</time></trkpt><trkpt lat="42.6956783" lon="-8.2410133"><ele>472.0</ele><time>2026-04-14T08:08:31.836Z</time></trkpt><trkpt lat="42.6956617" lon="-8.2408717"><ele>471.0</ele><time>2026-04-14T08:08:32.836Z</time></trkpt><trkpt lat="42.6956417" lon="-8.2407283"><ele>470.4</ele><time>2026-04-14T08:08:33.836Z</time></trkpt><trkpt lat="42.6956083" lon="-8.2405967"><ele>469.8</ele><time>2026-04-14T08:08:34.837Z</time></trkpt><trkpt lat="42.6955667" lon="-8.240475"><ele>469.19999999999993</ele><time>2026-04-14T08:08:35.836Z</time></trkpt><trkpt lat="42.695515" lon="-8.2403617"><ele>468.59999999999997</ele><time>2026-04-14T08:08:36.836Z</time></trkpt><trkpt lat="42.6954667" lon="-8.240255"><ele>468.0</ele><time>2026-04-14T08:08:37.836Z</time></trkpt><trkpt lat="42.695435" lon="-8.2401467"><ele>468.0</ele><time>2026-04-14T08:08:38.836Z</time></trkpt><trkpt lat="42.6954167" lon="-8.240045"><ele>467.99999999999994</ele><time>2026-04-14T08:08:39.837Z</time></trkpt><trkpt lat="42.6954267" lon="-8.2399283"><ele>467.99999999999994</ele><time>2026-04-14T08:08:40.837Z</time></trkpt><trkpt lat="42.6954533" lon="-8.2397967"><ele>468.0</ele><time>2026-04-14T08:08:41.837Z</time></trkpt><trkpt lat="42.6954767" lon="-8.23966"><ele>468.0</ele><time>2026-04-14T08:08:42.837Z</time></trkpt><trkpt lat="42.6954833" lon="-8.2395083"><ele>468.25</ele><time>2026-04-14T08:08:43.838Z</time></trkpt><trkpt lat="42.6954867" lon="-8.2393367"><ele>468.5</ele><time>2026-04-14T08:08:44.838Z</time></trkpt><trkpt lat="42.69548" lon="-8.2391517"><ele>468.75</ele><time>2026-04-14T08:08:45.837Z</time></trkpt><trkpt lat="42.6954583" lon="-8.23896"><ele>469.0</ele><time>2026-04-14T08:08:46.838Z</time></trkpt><trkpt lat="42.69543" lon="-8.2387467"><ele>468.0</ele><time>2026-04-14T08:08:47.838Z</time></trkpt><trkpt lat="42.6954083" lon="-8.2385117"><ele>467.0</ele><time>2026-04-14T08:08:48.837Z</time></trkpt><trkpt lat="42.6953883" lon="-8.2382617"><ele>466.0</ele><time>2026-04-14T08:08:49.838Z</time></trkpt><trkpt lat="42.6953517" lon="-8.2380017"><ele>464.0</ele><time>2026-04-14T08:08:50.837Z</time></trkpt><trkpt lat="42.6953167" lon="-8.2377317"><ele>462.0</ele><time>2026-04-14T08:08:51.837Z</time></trkpt><trkpt lat="42.6952783" lon="-8.2374583"><ele>460.0</ele><time>2026-04-14T08:08:52.837Z</time></trkpt><trkpt lat="42.6952383" lon="-8.2371817"><ele>460.0</ele><time>2026-04-14T08:08:53.838Z</time></trkpt><trkpt lat="42.6951983" lon="-8.2369"><ele>460.0</ele><time>2026-04-14T08:08:54.838Z</time></trkpt><trkpt lat="42.69516" lon="-8.2366167"><ele>460.0</ele><time>2026-04-14T08:08:55.837Z</time></trkpt><trkpt lat="42.695115" lon="-8.236335"><ele>459.33333333333337</ele><time>2026-04-14T08:08:56.837Z</time></trkpt><trkpt lat="42.69507" lon="-8.2360517"><ele>458.66666666666663</ele><time>2026-04-14T08:08:57.837Z</time></trkpt><trkpt lat="42.6950317" lon="-8.2357767"><ele>458.0</ele><time>2026-04-14T08:08:58.837Z</time></trkpt><trkpt lat="42.694995" lon="-8.235505"><ele>457.3333333333333</ele><time>2026-04-14T08:08:59.837Z</time></trkpt><trkpt lat="42.694955" lon="-8.2352417"><ele>456.66666666666663</ele><time>2026-04-14T08:09:00.838Z</time></trkpt><trkpt lat="42.6949217" lon="-8.2349767"><ele>456.0</ele><time>2026-04-14T08:09:01.837Z</time></trkpt><trkpt lat="42.6948733" lon="-8.2347117"><ele>454.0</ele><time>2026-04-14T08:09:02.838Z</time></trkpt><trkpt lat="42.6948367" lon="-8.2344433"><ele>452.0</ele><time>2026-04-14T08:09:03.838Z</time></trkpt><trkpt lat="42.6947967" lon="-8.2341867"><ele>450.0</ele><time>2026-04-14T08:09:04.837Z</time></trkpt><trkpt lat="42.694755" lon="-8.2339283"><ele>449.0</ele><time>2026-04-14T08:09:05.837Z</time></trkpt><trkpt lat="42.69471" lon="-8.2336867"><ele>448.0</ele><time>2026-04-14T08:09:06.837Z</time></trkpt><trkpt lat="42.694685" lon="-8.2334317"><ele>447.0</ele><time>2026-04-14T08:09:07.838Z</time></trkpt><trkpt lat="42.6946517" lon="-8.2331917"><ele>446.66666666666663</ele><time>2026-04-14T08:09:08.837Z</time></trkpt><trkpt lat="42.6946167" lon="-8.2329517"><ele>446.3333333333333</ele><time>2026-04-14T08:09:09.837Z</time></trkpt><trkpt lat="42.6945783" lon="-8.232715"><ele>446.0</ele><time>2026-04-14T08:09:10.837Z</time></trkpt><trkpt lat="42.6945383" lon="-8.232475"><ele>444.66666666666663</ele><time>2026-04-14T08:09:11.837Z</time></trkpt><trkpt lat="42.6945" lon="-8.2322317"><ele>443.33333333333337</ele><time>2026-04-14T08:09:12.837Z</time></trkpt><trkpt lat="42.69446" lon="-8.2319883"><ele>442.0</ele><time>2026-04-14T08:09:13.838Z</time></trkpt><trkpt lat="42.6944167" lon="-8.231735"><ele>440.6666666666667</ele><time>2026-04-14T08:09:14.837Z</time></trkpt><trkpt lat="42.69438" lon="-8.231485"><ele>439.33333333333337</ele><time>2026-04-14T08:09:15.837Z</time></trkpt><trkpt lat="42.6943367" lon="-8.231235"><ele>438.0</ele><time>2026-04-14T08:09:16.837Z</time></trkpt><trkpt lat="42.6942967" lon="-8.2309817"><ele>438.0</ele><time>2026-04-14T08:09:17.838Z</time></trkpt><trkpt lat="42.6942533" lon="-8.23073"><ele>438.0</ele><time>2026-04-14T08:09:18.838Z</time></trkpt><trkpt lat="42.6942183" lon="-8.2304733"><ele>438.0</ele><time>2026-04-14T08:09:19.838Z</time></trkpt><trkpt lat="42.69418" lon="-8.2302233"><ele>438.66666666666663</ele><time>2026-04-14T08:09:20.837Z</time></trkpt><trkpt lat="42.6941417" lon="-8.2299783"><ele>439.3333333333333</ele><time>2026-04-14T08:09:21.838Z</time></trkpt><trkpt lat="42.6941017" lon="-8.2297383"><ele>440.0</ele><time>2026-04-14T08:09:22.837Z</time></trkpt><trkpt lat="42.6940733" lon="-8.2295033"><ele>442.0</ele><time>2026-04-14T08:09:23.837Z</time></trkpt><trkpt lat="42.6940467" lon="-8.2292717"><ele>444.0</ele><time>2026-04-14T08:09:24.837Z</time></trkpt><trkpt lat="42.69401" lon="-8.229045"><ele>446.0</ele><time>2026-04-14T08:09:25.838Z</time></trkpt><trkpt lat="42.6939683" lon="-8.2288183"><ele>447.66666666666663</ele><time>2026-04-14T08:09:26.837Z</time></trkpt><trkpt lat="42.69393" lon="-8.2285817"><ele>449.33333333333337</ele><time>2026-04-14T08:09:27.837Z</time></trkpt><trkpt lat="42.6938933" lon="-8.2283517"><ele>451.0</ele><time>2026-04-14T08:09:28.838Z</time></trkpt><trkpt lat="42.6938467" lon="-8.2281217"><ele>452.6666666666667</ele><time>2026-04-14T08:09:29.838Z</time></trkpt><trkpt lat="42.6938067" lon="-8.2278833"><ele>454.33333333333337</ele><time>2026-04-14T08:09:30.838Z</time></trkpt><trkpt lat="42.6937483" lon="-8.2276567"><ele>456.0</ele><time>2026-04-14T08:09:31.838Z</time></trkpt><trkpt lat="42.693685" lon="-8.2274283"><ele>457.0</ele><time>2026-04-14T08:09:32.838Z</time></trkpt><trkpt lat="42.6936283" lon="-8.2272017"><ele>458.0</ele><time>2026-04-14T08:09:33.837Z</time></trkpt><trkpt lat="42.69357" lon="-8.2269667"><ele>459.0</ele><time>2026-04-14T08:09:34.837Z</time></trkpt><trkpt lat="42.6934967" lon="-8.2267367"><ele>459.66666666666663</ele><time>2026-04-14T08:09:35.838Z</time></trkpt><trkpt lat="42.6934083" lon="-8.22652"><ele>460.3333333333333</ele><time>2026-04-14T08:09:36.837Z</time></trkpt><trkpt lat="42.6933017" lon="-8.226315"><ele>461.0</ele><time>2026-04-14T08:09:37.838Z</time></trkpt><trkpt lat="42.6931917" lon="-8.2261167"><ele>461.3333333333333</ele><time>2026-04-14T08:09:38.837Z</time></trkpt><trkpt lat="42.6930733" lon="-8.2259317"><ele>461.66666666666663</ele><time>2026-04-14T08:09:39.838Z</time></trkpt><trkpt lat="42.6929467" lon="-8.2257433"><ele>462.0</ele><time>2026-04-14T08:09:40.837Z</time></trkpt><trkpt lat="42.6928233" lon="-8.2255517"><ele>462.33333333333337</ele><time>2026-04-14T08:09:41.837Z</time></trkpt><trkpt lat="42.6926983" lon="-8.2253567"><ele>462.6666666666667</ele><time>2026-04-14T08:09:42.838Z</time></trkpt><trkpt lat="42.69257" lon="-8.2251517"><ele>463.0</ele><time>2026-04-14T08:09:43.837Z</time></trkpt><trkpt lat="42.6924317" lon="-8.2249583"><ele>462.33333333333337</ele><time>2026-04-14T08:09:44.838Z</time></trkpt><trkpt lat="42.692295" lon="-8.2247633"><ele>461.66666666666663</ele><time>2026-04-14T08:09:45.838Z</time></trkpt><trkpt lat="42.6921583" lon="-8.2245583"><ele>461.0</ele><time>2026-04-14T08:09:46.837Z</time></trkpt><trkpt lat="42.6920233" lon="-8.224355"><ele>460.66666666666663</ele><time>2026-04-14T08:09:47.837Z</time></trkpt><trkpt lat="42.6918917" lon="-8.2241533"><ele>460.33333333333337</ele><time>2026-04-14T08:09:48.837Z</time></trkpt><trkpt lat="42.6917517" lon="-8.22395"><ele>460.0</ele><time>2026-04-14T08:09:49.838Z</time></trkpt><trkpt lat="42.69162" lon="-8.223735"><ele>459.0</ele><time>2026-04-14T08:09:50.837Z</time></trkpt><trkpt lat="42.6914783" lon="-8.2235117"><ele>458.0</ele><time>2026-04-14T08:09:51.838Z</time></trkpt><trkpt lat="42.69134" lon="-8.2233217"><ele>457.0</ele><time>2026-04-14T08:09:52.837Z</time></trkpt><trkpt lat="42.6912167" lon="-8.22314"><ele>455.0</ele><time>2026-04-14T08:09:53.838Z</time></trkpt><trkpt lat="42.6911033" lon="-8.2229683"><ele>453.0</ele><time>2026-04-14T08:09:54.837Z</time></trkpt><trkpt lat="42.69098" lon="-8.2227917"><ele>451.0</ele><time>2026-04-14T08:09:55.838Z</time></trkpt><trkpt lat="42.6908717" lon="-8.2226183"><ele>451.0</ele><time>2026-04-14T08:09:56.837Z</time></trkpt><trkpt lat="42.69076" lon="-8.2224467"><ele>451.0</ele><time>2026-04-14T08:09:57.837Z</time></trkpt><trkpt lat="42.6906417" lon="-8.2222683"><ele>451.0</ele><time>2026-04-14T08:09:58.838Z</time></trkpt><trkpt lat="42.6905117" lon="-8.2220867"><ele>452.6666666666667</ele><time>2026-04-14T08:09:59.837Z</time></trkpt><trkpt lat="42.690385" lon="-8.2219033"><ele>454.33333333333337</ele><time>2026-04-14T08:10:00.837Z</time></trkpt><trkpt lat="42.6902483" lon="-8.2217317"><ele>456.0</ele><time>2026-04-14T08:10:01.837Z</time></trkpt><trkpt lat="42.6901017" lon="-8.2215717"><ele>453.0</ele><time>2026-04-14T08:10:02.837Z</time></trkpt><trkpt lat="42.689955" lon="-8.2214283"><ele>450.0</ele><time>2026-04-14T08:10:03.838Z</time></trkpt><trkpt lat="42.6898117" lon="-8.22131"><ele>447.0</ele><time>2026-04-14T08:10:04.837Z</time></trkpt><trkpt lat="42.6896583" lon="-8.2212017"><ele>447.0</ele><time>2026-04-14T08:10:05.838Z</time></trkpt><trkpt lat="42.6894917" lon="-8.2210933"><ele>447.0</ele><time>2026-04-14T08:10:06.838Z</time></trkpt><trkpt lat="42.68932" lon="-8.2209733"><ele>447.0</ele><time>2026-04-14T08:10:07.837Z</time></trkpt><trkpt lat="42.6891483" lon="-8.220855"><ele>448.33333333333337</ele><time>2026-04-14T08:10:08.838Z</time></trkpt><trkpt lat="42.68897" lon="-8.220725"><ele>449.6666666666667</ele><time>2026-04-14T08:10:09.838Z</time></trkpt><trkpt lat="42.68879" lon="-8.220615"><ele>451.0</ele><time>2026-04-14T08:10:10.838Z</time></trkpt><trkpt lat="42.6885983" lon="-8.2205033"><ele>448.33333333333337</ele><time>2026-04-14T08:10:11.838Z</time></trkpt><trkpt lat="42.68841" lon="-8.2204"><ele>445.66666666666663</ele><time>2026-04-14T08:10:12.838Z</time></trkpt><trkpt lat="42.6882233" lon="-8.220285"><ele>443.0</ele><time>2026-04-14T08:10:13.838Z</time></trkpt><trkpt lat="42.6880367" lon="-8.2201767"><ele>443.0</ele><time>2026-04-14T08:10:14.837Z</time></trkpt><trkpt lat="42.6878633" lon="-8.220065"><ele>443.0</ele><time>2026-04-14T08:10:15.838Z</time></trkpt><trkpt lat="42.687705" lon="-8.2199483"><ele>443.0</ele><time>2026-04-14T08:10:16.837Z</time></trkpt><trkpt lat="42.6875583" lon="-8.219835"><ele>442.66666666666663</ele><time>2026-04-14T08:10:17.838Z</time></trkpt><trkpt lat="42.687415" lon="-8.2197083"><ele>442.33333333333337</ele><time>2026-04-14T08:10:18.837Z</time></trkpt><trkpt lat="42.6872783" lon="-8.2195683"><ele>442.0</ele><time>2026-04-14T08:10:19.838Z</time></trkpt><trkpt lat="42.6871283" lon="-8.219405"><ele>442.0</ele><time>2026-04-14T08:10:20.838Z</time></trkpt><trkpt lat="42.6869817" lon="-8.2192433"><ele>442.0</ele><time>2026-04-14T08:10:21.837Z</time></trkpt><trkpt lat="42.6868367" lon="-8.2190617"><ele>442.0</ele><time>2026-04-14T08:10:22.837Z</time></trkpt><trkpt lat="42.6866983" lon="-8.2188733"><ele>444.0</ele><time>2026-04-14T08:10:23.837Z</time></trkpt><trkpt lat="42.68657" lon="-8.2186783"><ele>446.0</ele><time>2026-04-14T08:10:24.838Z</time></trkpt><trkpt lat="42.6864567" lon="-8.21846"><ele>448.0</ele><time>2026-04-14T08:10:25.838Z</time></trkpt><trkpt lat="42.6863583" lon="-8.2182367"><ele>446.6666666666667</ele><time>2026-04-14T08:10:26.837Z</time></trkpt><trkpt lat="42.6862733" lon="-8.21799"><ele>445.33333333333337</ele><time>2026-04-14T08:10:27.837Z</time></trkpt><trkpt lat="42.6862033" lon="-8.2177317"><ele>444.0</ele><time>2026-04-14T08:10:28.837Z</time></trkpt><trkpt lat="42.6861383" lon="-8.2174717"><ele>441.0</ele><time>2026-04-14T08:10:29.837Z</time></trkpt><trkpt lat="42.6860617" lon="-8.2172067"><ele>438.0</ele><time>2026-04-14T08:10:30.837Z</time></trkpt><trkpt lat="42.6860217" lon="-8.2169417"><ele>435.0</ele><time>2026-04-14T08:10:31.838Z</time></trkpt><trkpt lat="42.6859817" lon="-8.2166933"><ele>433.66666666666663</ele><time>2026-04-14T08:10:32.838Z</time></trkpt><trkpt lat="42.6859717" lon="-8.216465"><ele>432.3333333333333</ele><time>2026-04-14T08:10:33.838Z</time></trkpt><trkpt lat="42.685965" lon="-8.2162433"><ele>431.0</ele><time>2026-04-14T08:10:34.837Z</time></trkpt><trkpt lat="42.6859633" lon="-8.2160083"><ele>431.0</ele><time>2026-04-14T08:10:35.837Z</time></trkpt><trkpt lat="42.6859683" lon="-8.2157583"><ele>431.0</ele><time>2026-04-14T08:10:36.837Z</time></trkpt><trkpt lat="42.6859783" lon="-8.2155017"><ele>431.0</ele><time>2026-04-14T08:10:37.837Z</time></trkpt><trkpt lat="42.68601" lon="-8.2152367"><ele>430.3333333333333</ele><time>2026-04-14T08:10:38.837Z</time></trkpt><trkpt lat="42.68604" lon="-8.2149667"><ele>429.66666666666663</ele><time>2026-04-14T08:10:39.838Z</time></trkpt><trkpt lat="42.68607" lon="-8.2146967"><ele>429.0</ele><time>2026-04-14T08:10:40.837Z</time></trkpt><trkpt lat="42.6861017" lon="-8.2144133"><ele>428.33333333333337</ele><time>2026-04-14T08:10:41.838Z</time></trkpt><trkpt lat="42.6861283" lon="-8.214135"><ele>427.6666666666667</ele><time>2026-04-14T08:10:42.837Z</time></trkpt><trkpt lat="42.6861583" lon="-8.213855"><ele>427.0</ele><time>2026-04-14T08:10:43.837Z</time></trkpt><trkpt lat="42.686185" lon="-8.2135767"><ele>426.0</ele><time>2026-04-14T08:10:44.838Z</time></trkpt><trkpt lat="42.686215" lon="-8.213285"><ele>425.0</ele><time>2026-04-14T08:10:45.837Z</time></trkpt><trkpt lat="42.6862417" lon="-8.213"><ele>424.0</ele><time>2026-04-14T08:10:46.837Z</time></trkpt><trkpt lat="42.68627" lon="-8.2127183"><ele>423.0</ele><time>2026-04-14T08:10:47.837Z</time></trkpt><trkpt lat="42.6863033" lon="-8.212445"><ele>422.0</ele><time>2026-04-14T08:10:48.837Z</time></trkpt><trkpt lat="42.6863283" lon="-8.2121667"><ele>421.0</ele><time>2026-04-14T08:10:49.837Z</time></trkpt><trkpt lat="42.6863633" lon="-8.21189"><ele>419.6666666666667</ele><time>2026-04-14T08:10:50.837Z</time></trkpt><trkpt lat="42.6864017" lon="-8.2116133"><ele>418.33333333333337</ele><time>2026-04-14T08:10:51.837Z</time></trkpt><trkpt lat="42.6864367" lon="-8.21134"><ele>417.0</ele><time>2026-04-14T08:10:52.837Z</time></trkpt><trkpt lat="42.6864683" lon="-8.2110633"><ele>416.0</ele><time>2026-04-14T08:10:53.837Z</time></trkpt><trkpt lat="42.686495" lon="-8.2107883"><ele>415.0</ele><time>2026-04-14T08:10:54.837Z</time></trkpt><trkpt lat="42.686525" lon="-8.2105083"><ele>414.0</ele><time>2026-04-14T08:10:55.838Z</time></trkpt><trkpt lat="42.686545" lon="-8.2102317"><ele>413.0</ele><time>2026-04-14T08:10:56.838Z</time></trkpt><trkpt lat="42.6865667" lon="-8.2099533"><ele>412.0</ele><time>2026-04-14T08:10:57.837Z</time></trkpt><trkpt lat="42.6865983" lon="-8.2096767"><ele>411.0</ele><time>2026-04-14T08:10:58.838Z</time></trkpt><trkpt lat="42.686635" lon="-8.2094017"><ele>410.66666666666663</ele><time>2026-04-14T08:10:59.837Z</time></trkpt><trkpt lat="42.6866583" lon="-8.20913"><ele>410.3333333333333</ele><time>2026-04-14T08:11:00.837Z</time></trkpt><trkpt lat="42.6866867" lon="-8.2088633"><ele>410.0</ele><time>2026-04-14T08:11:01.837Z</time></trkpt><trkpt lat="42.6867183" lon="-8.2085983"><ele>409.3333333333333</ele><time>2026-04-14T08:11:02.837Z</time></trkpt><trkpt lat="42.6867467" lon="-8.208335"><ele>408.66666666666663</ele><time>2026-04-14T08:11:03.837Z</time></trkpt><trkpt lat="42.6867817" lon="-8.2080683"><ele>408.0</ele><time>2026-04-14T08:11:04.838Z</time></trkpt><trkpt lat="42.6868217" lon="-8.207805"><ele>406.66666666666663</ele><time>2026-04-14T08:11:05.837Z</time></trkpt><trkpt lat="42.686845" lon="-8.2075483"><ele>405.3333333333333</ele><time>2026-04-14T08:11:06.837Z</time></trkpt><trkpt lat="42.6868683" lon="-8.20729"><ele>404.0</ele><time>2026-04-14T08:11:07.837Z</time></trkpt><trkpt lat="42.68689" lon="-8.20703"><ele>404.0</ele><time>2026-04-14T08:11:08.837Z</time></trkpt><trkpt lat="42.686915" lon="-8.2067717"><ele>404.0</ele><time>2026-04-14T08:11:09.837Z</time></trkpt><trkpt lat="42.68694" lon="-8.2065083"><ele>404.0</ele><time>2026-04-14T08:11:10.837Z</time></trkpt><trkpt lat="42.6869417" lon="-8.206245"><ele>403.0</ele><time>2026-04-14T08:11:11.837Z</time></trkpt><trkpt lat="42.68694" lon="-8.2059733"><ele>402.0</ele><time>2026-04-14T08:11:12.837Z</time></trkpt><trkpt lat="42.6869217" lon="-8.20571"><ele>401.0</ele><time>2026-04-14T08:11:13.838Z</time></trkpt><trkpt lat="42.686885" lon="-8.2054483"><ele>399.66666666666663</ele><time>2026-04-14T08:11:14.838Z</time></trkpt><trkpt lat="42.6868517" lon="-8.2051833"><ele>398.33333333333337</ele><time>2026-04-14T08:11:15.837Z</time></trkpt><trkpt lat="42.686805" lon="-8.2049283"><ele>397.0</ele><time>2026-04-14T08:11:16.838Z</time></trkpt><trkpt lat="42.6867517" lon="-8.2046683"><ele>397.0</ele><time>2026-04-14T08:11:17.837Z</time></trkpt><trkpt lat="42.68669" lon="-8.204415"><ele>397.0</ele><time>2026-04-14T08:11:18.838Z</time></trkpt><trkpt lat="42.68662" lon="-8.204165"><ele>397.0</ele><time>2026-04-14T08:11:19.838Z</time></trkpt><trkpt lat="42.686535" lon="-8.2039267"><ele>400.6666666666667</ele><time>2026-04-14T08:11:20.838Z</time></trkpt><trkpt lat="42.68644" lon="-8.2036833"><ele>404.33333333333337</ele><time>2026-04-14T08:11:21.837Z</time></trkpt><trkpt lat="42.6863433" lon="-8.2034333"><ele>408.0</ele><time>2026-04-14T08:11:22.837Z</time></trkpt><trkpt lat="42.6862367" lon="-8.2031883"><ele>409.66666666666663</ele><time>2026-04-14T08:11:23.838Z</time></trkpt><trkpt lat="42.686145" lon="-8.202935"><ele>411.3333333333333</ele><time>2026-04-14T08:11:24.837Z</time></trkpt><trkpt lat="42.6860383" lon="-8.2026867"><ele>413.0</ele><time>2026-04-14T08:11:25.838Z</time></trkpt><trkpt lat="42.6859317" lon="-8.2024417"><ele>408.0</ele><time>2026-04-14T08:11:26.838Z</time></trkpt><trkpt lat="42.6858367" lon="-8.2022033"><ele>403.0</ele><time>2026-04-14T08:11:27.838Z</time></trkpt><trkpt lat="42.685735" lon="-8.20196"><ele>398.0</ele><time>2026-04-14T08:11:28.837Z</time></trkpt><trkpt lat="42.68563" lon="-8.2017217"><ele>396.66666666666663</ele><time>2026-04-14T08:11:29.837Z</time></trkpt><trkpt lat="42.6855267" lon="-8.2014833"><ele>395.33333333333337</ele><time>2026-04-14T08:11:30.837Z</time></trkpt><trkpt lat="42.68543" lon="-8.2012433"><ele>394.0</ele><time>2026-04-14T08:11:31.838Z</time></trkpt><trkpt lat="42.6853267" lon="-8.201005"><ele>387.6666666666667</ele><time>2026-04-14T08:11:32.837Z</time></trkpt><trkpt lat="42.68523" lon="-8.20077"><ele>381.33333333333337</ele><time>2026-04-14T08:11:33.838Z</time></trkpt><trkpt lat="42.6851383" lon="-8.20054"><ele>375.0</ele><time>2026-04-14T08:11:34.837Z</time></trkpt><trkpt lat="42.68504" lon="-8.2003117"><ele>371.0</ele><time>2026-04-14T08:11:35.837Z</time></trkpt><trkpt lat="42.6849417" lon="-8.200075"><ele>367.0</ele><time>2026-04-14T08:11:36.837Z</time></trkpt><trkpt lat="42.6848483" lon="-8.1998467"><ele>363.0</ele><time>2026-04-14T08:11:37.838Z</time></trkpt><trkpt lat="42.6847533" lon="-8.19961"><ele>360.6666666666667</ele><time>2026-04-14T08:11:38.837Z</time></trkpt><trkpt lat="42.684655" lon="-8.19937"><ele>358.33333333333337</ele><time>2026-04-14T08:11:39.838Z</time></trkpt><trkpt lat="42.6845617" lon="-8.199135"><ele>356.0</ele><time>2026-04-14T08:11:40.837Z</time></trkpt><trkpt lat="42.6844717" lon="-8.1989067"><ele>369.33333333333337</ele><time>2026-04-14T08:11:41.838Z</time></trkpt><trkpt lat="42.684375" lon="-8.1986767"><ele>382.6666666666667</ele><time>2026-04-14T08:11:42.838Z</time></trkpt><trkpt lat="42.6842767" lon="-8.1984533"><ele>396.0</ele><time>2026-04-14T08:11:43.837Z</time></trkpt><trkpt lat="42.684185" lon="-8.198225"><ele>400.0</ele><time>2026-04-14T08:11:44.838Z</time></trkpt><trkpt lat="42.68409" lon="-8.1979967"><ele>404.0</ele><time>2026-04-14T08:11:45.837Z</time></trkpt><trkpt lat="42.6839983" lon="-8.19777"><ele>408.0</ele><time>2026-04-14T08:11:46.837Z</time></trkpt><trkpt lat="42.683905" lon="-8.197545"><ele>409.0</ele><time>2026-04-14T08:11:47.837Z</time></trkpt><trkpt lat="42.6838133" lon="-8.1973133"><ele>410.0</ele><time>2026-04-14T08:11:48.837Z</time></trkpt><trkpt lat="42.6837283" lon="-8.19708"><ele>411.0</ele><time>2026-04-14T08:11:49.838Z</time></trkpt><trkpt lat="42.6836383" lon="-8.19684"><ele>413.0</ele><time>2026-04-14T08:11:50.838Z</time></trkpt><trkpt lat="42.68356" lon="-8.19659"><ele>415.0</ele><time>2026-04-14T08:11:51.837Z</time></trkpt><trkpt lat="42.6834967" lon="-8.1963333"><ele>417.0</ele><time>2026-04-14T08:11:52.838Z</time></trkpt><trkpt lat="42.6834467" lon="-8.1960717"><ele>418.66666666666663</ele><time>2026-04-14T08:11:53.838Z</time></trkpt><trkpt lat="42.6833983" lon="-8.1958067"><ele>420.3333333333333</ele><time>2026-04-14T08:11:54.838Z</time></trkpt><trkpt lat="42.68336" lon="-8.19555"><ele>422.0</ele><time>2026-04-14T08:11:55.837Z</time></trkpt><trkpt lat="42.6833383" lon="-8.19529"><ele>423.3333333333333</ele><time>2026-04-14T08:11:56.838Z</time></trkpt><trkpt lat="42.6833233" lon="-8.195035"><ele>424.66666666666663</ele><time>2026-04-14T08:11:57.838Z</time></trkpt><trkpt lat="42.6833217" lon="-8.194785"><ele>426.0</ele><time>2026-04-14T08:11:58.837Z</time></trkpt><trkpt lat="42.6833267" lon="-8.1945417"><ele>426.33333333333337</ele><time>2026-04-14T08:11:59.837Z</time></trkpt><trkpt lat="42.683345" lon="-8.1943017"><ele>426.6666666666667</ele><time>2026-04-14T08:12:00.838Z</time></trkpt><trkpt lat="42.6833633" lon="-8.1940667"><ele>427.0</ele><time>2026-04-14T08:12:01.837Z</time></trkpt><trkpt lat="42.6833883" lon="-8.1938333"><ele>427.6666666666667</ele><time>2026-04-14T08:12:02.838Z</time></trkpt><trkpt lat="42.6834133" lon="-8.1936017"><ele>428.33333333333337</ele><time>2026-04-14T08:12:03.837Z</time></trkpt><trkpt lat="42.683435" lon="-8.1933733"><ele>429.0</ele><time>2026-04-14T08:12:04.838Z</time></trkpt><trkpt lat="42.683455" lon="-8.1931483"><ele>430.33333333333337</ele><time>2026-04-14T08:12:05.838Z</time></trkpt><trkpt lat="42.68347" lon="-8.1929183"><ele>431.6666666666667</ele><time>2026-04-14T08:12:06.838Z</time></trkpt><trkpt lat="42.683485" lon="-8.1926883"><ele>433.0</ele><time>2026-04-14T08:12:07.838Z</time></trkpt><trkpt lat="42.683505" lon="-8.1924517"><ele>433.0</ele><time>2026-04-14T08:12:08.838Z</time></trkpt><trkpt lat="42.6835283" lon="-8.19222"><ele>433.0</ele><time>2026-04-14T08:12:09.837Z</time></trkpt><trkpt lat="42.6835483" lon="-8.191985"><ele>433.0</ele><time>2026-04-14T08:12:10.838Z</time></trkpt><trkpt lat="42.683565" lon="-8.1917467"><ele>432.33333333333337</ele><time>2026-04-14T08:12:11.837Z</time></trkpt><trkpt lat="42.6835833" lon="-8.1915067"><ele>431.66666666666663</ele><time>2026-04-14T08:12:12.837Z</time></trkpt><trkpt lat="42.6836033" lon="-8.1912667"><ele>431.0</ele><time>2026-04-14T08:12:13.838Z</time></trkpt><trkpt lat="42.683625" lon="-8.1910233"><ele>431.3333333333333</ele><time>2026-04-14T08:12:14.838Z</time></trkpt><trkpt lat="42.6836483" lon="-8.1907817"><ele>431.66666666666663</ele><time>2026-04-14T08:12:15.838Z</time></trkpt><trkpt lat="42.683675" lon="-8.190535"><ele>432.0</ele><time>2026-04-14T08:12:16.837Z</time></trkpt><trkpt lat="42.6837" lon="-8.19029"><ele>408.0</ele><time>2026-04-14T08:12:17.837Z</time></trkpt><trkpt lat="42.683905" lon="-8.197545"><ele>409.0</ele><time>2026-04-14T08:11:47.837Z</time></trkpt><trkpt lat="42.6838133" lon="-8.1973133"><ele>410.0</ele><time>2026-04-14T08:11:48.837Z</time></trkpt><trkpt lat="42.6837283" lon="-8.19708"><ele>411.0</ele><time>2026-04-14T08:11:49.838Z</time></trkpt><trkpt lat="42.6836383" lon="-8.19684"><ele>413.0</ele><time>2026-04-14T08:11:50.838Z</time></trkpt><trkpt lat="42.68356" lon="-8.19659"><ele>415.0</ele><time>2026-04-14T08:11:51.837Z</time></trkpt><trkpt lat="42.6834967" lon="-8.1963333"><ele>417.0</ele><time>2026-04-14T08:11:52.838Z</time></trkpt><trkpt lat="42.6834467" lon="-8.1960717"><ele>418.66666666666663</ele><time>2026-04-14T08:11:53.838Z</time></trkpt><trkpt lat="42.6833983" lon="-8.1958067"><ele>420.3333333333333</ele><time>2026-04-14T08:11:54.838Z</time></trkpt><trkpt lat="42.68336" lon="-8.19555"><ele>422.0</ele><time>2026-04-14T08:11:55.837Z</time></trkpt><trkpt lat="42.6833383" lon="-8.19529"><ele>423.3333333333333</ele><time>2026-04-14T08:11:56.838Z</time></trkpt><trkpt lat="42.6833233" lon="-8.195035"><ele>424.66666666666663</ele><time>2026-04-14T08:11:57.838Z</time></trkpt><trkpt lat="42.6833217" lon="-8.194785"><ele>426.0</ele><time>2026-04-14T08:11:58.837Z</time></trkpt><trkpt lat="42.6833267" lon="-8.1945417"><ele>426.33333333333337</ele><time>2026-04-14T08:11:59.837Z</time></trkpt><trkpt lat="42.683345" lon="-8.1943017"><ele>426.6666666666667</ele><time>2026-04-14T08:12:00.838Z</time></trkpt><trkpt lat="42.6833633" lon="-8.1940667"><ele>427.0</ele><time>2026-04-14T08:12:01.837Z</time></trkpt><trkpt lat="42.6833883" lon="-8.1938333"><ele>427.6666666666667</ele><time>2026-04-14T08:12:02.838Z</time></trkpt><trkpt lat="42.6834133" lon="-8.1936017"><ele>428.33333333333337</ele><time>2026-04-14T08:12:03.837Z</time></trkpt><trkpt lat="42.683435" lon="-8.1933733"><ele>429.0</ele><time>2026-04-14T08:12:04.838Z</time></trkpt><trkpt lat="42.683455" lon="-8.1931483"><ele>430.33333333333337</ele><time>2026-04-14T08:12:05.838Z</time></trkpt><trkpt lat="42.68347" lon="-8.1929183"><ele>431.6666666666667</ele><time>2026-04-14T08:12:06.838Z</time></trkpt><trkpt lat="42.683485" lon="-8.1926883"><ele>433.0</ele><time>2026-04-14T08:12:07.838Z</time></trkpt><trkpt lat="42.683505" lon="-8.1924517"><ele>433.0</ele><time>2026-04-14T08:12:08.838Z</time></trkpt><trkpt lat="42.6835283" lon="-8.19222"><ele>433.0</ele><time>2026-04-14T08:12:09.837Z</time></trkpt><trkpt lat="42.6835483" lon="-8.191985"><ele>433.0</ele><time>2026-04-14T08:12:10.838Z</time></trkpt><trkpt lat="42.683565" lon="-8.1917467"><ele>432.33333333333337</ele><time>2026-04-14T08:12:11.837Z</time></trkpt><trkpt lat="42.6835833" lon="-8.1915067"><ele>431.66666666666663</ele><time>2026-04-14T08:12:12.837Z</time></trkpt><trkpt lat="42.6836033" lon="-8.1912667"><ele>431.0</ele><time>2026-04-14T08:12:13.838Z</time></trkpt><trkpt lat="42.683625" lon="-8.1910233"><ele>431.3333333333333</ele><time>2026-04-14T08:12:14.838Z</time></trkpt><trkpt lat="42.6836483" lon="-8.1907817"><ele>431.66666666666663</ele><time>2026-04-14T08:12:15.838Z</time></trkpt><trkpt lat="42.683675" lon="-8.190535"><ele>432.0</ele><time>2026-04-14T08:12:16.837Z</time></trkpt><trkpt lat="42.6837" lon="-8.19029"><ele>432.0</ele><time>2026-04-14T08:12:17.837Z</time></trkpt><trkpt lat="42.6837233" lon="-8.19004"><ele>432.0</ele><time>2026-04-14T08:12:18.838Z</time></trkpt><trkpt lat="42.6837367" lon="-8.1897917"><ele>432.0</ele><time>2026-04-14T08:12:19.837Z</time></trkpt><trkpt lat="42.6837567" lon="-8.1895417"><ele>431.66666666666663</ele><time>2026-04-14T08:12:20.838Z</time></trkpt><trkpt lat="42.6837817" lon="-8.1892983"><ele>431.3333333333333</ele><time>2026-04-14T08:12:21.838Z</time></trkpt><trkpt lat="42.6838033" lon="-8.189055"><ele>431.0</ele><time>2026-04-14T08:12:22.837Z</time></trkpt><trkpt lat="42.6838217" lon="-8.1888133"><ele>431.0</ele><time>2026-04-14T08:12:23.838Z</time></trkpt><trkpt lat="42.6838317" lon="-8.1885783"><ele>431.0</ele><time>2026-04-14T08:12:24.837Z</time></trkpt><trkpt lat="42.6838367" lon="-8.1883517"><ele>431.0</ele><time>2026-04-14T08:12:25.837Z</time></trkpt><trkpt lat="42.6838333" lon="-8.188125"><ele>432.0</ele><time>2026-04-14T08:12:26.837Z</time></trkpt><trkpt lat="42.683835" lon="-8.1878967"><ele>433.0</ele><time>2026-04-14T08:12:27.838Z</time></trkpt><trkpt lat="42.6838267" lon="-8.1876567"><ele>434.0</ele><time>2026-04-14T08:12:28.837Z</time></trkpt><trkpt lat="42.6838017" lon="-8.187415"><ele>435.0</ele><time>2026-04-14T08:12:29.837Z</time></trkpt><trkpt lat="42.6837733" lon="-8.18717"><ele>436.0</ele><time>2026-04-14T08:12:30.838Z</time></trkpt><trkpt lat="42.6837483" lon="-8.1869233"><ele>437.0</ele><time>2026-04-14T08:12:31.838Z</time></trkpt><trkpt lat="42.6837083" lon="-8.1866717"><ele>438.3333333333333</ele><time>2026-04-14T08:12:32.837Z</time></trkpt><trkpt lat="42.6836733" lon="-8.1864183"><ele>439.66666666666663</ele><time>2026-04-14T08:12:33.837Z</time></trkpt><trkpt lat="42.6836283" lon="-8.186165"><ele>441.0</ele><time>2026-04-14T08:12:34.837Z</time></trkpt><trkpt lat="42.6835833" lon="-8.1859133"><ele>442.33333333333337</ele><time>2026-04-14T08:12:35.838Z</time></trkpt><trkpt lat="42.683535" lon="-8.1856617"><ele>443.6666666666667</ele><time>2026-04-14T08:12:36.837Z</time></trkpt><trkpt lat="42.6834817" lon="-8.1854"><ele>445.0</ele><time>2026-04-14T08:12:37.837Z</time></trkpt><trkpt lat="42.683425" lon="-8.1851467"><ele>445.0</ele><time>2026-04-14T08:12:38.838Z</time></trkpt><trkpt lat="42.6833667" lon="-8.1848917"><ele>445.0</ele><time>2026-04-14T08:12:39.837Z</time></trkpt><trkpt lat="42.68331" lon="-8.1846333"><ele>445.0</ele><time>2026-04-14T08:12:40.838Z</time></trkpt><trkpt lat="42.68325" lon="-8.18438"><ele>446.0</ele><time>2026-04-14T08:12:41.838Z</time></trkpt><trkpt lat="42.683185" lon="-8.18412"><ele>447.0</ele><time>2026-04-14T08:12:42.838Z</time></trkpt><trkpt lat="42.68312" lon="-8.183855"><ele>448.0</ele><time>2026-04-14T08:12:43.838Z</time></trkpt><trkpt lat="42.6830467" lon="-8.1836"><ele>449.6666666666667</ele><time>2026-04-14T08:12:44.837Z</time></trkpt><trkpt lat="42.6829733" lon="-8.183345"><ele>451.33333333333337</ele><time>2026-04-14T08:12:45.838Z</time></trkpt><trkpt lat="42.6828983" lon="-8.1830933"><ele>453.0</ele><time>2026-04-14T08:12:46.838Z</time></trkpt><trkpt lat="42.682825" lon="-8.18284"><ele>453.33333333333337</ele><time>2026-04-14T08:12:47.838Z</time></trkpt><trkpt lat="42.6827617" lon="-8.1825833"><ele>453.6666666666667</ele><time>2026-04-14T08:12:48.838Z</time></trkpt><trkpt lat="42.682695" lon="-8.1823317"><ele>454.0</ele><time>2026-04-14T08:12:49.837Z</time></trkpt><trkpt lat="42.6826267" lon="-8.1820817"><ele>454.0</ele><time>2026-04-14T08:12:50.838Z</time></trkpt><trkpt lat="42.682555" lon="-8.181835"><ele>454.0</ele><time>2026-04-14T08:12:51.837Z</time></trkpt><trkpt lat="42.6824867" lon="-8.1815833"><ele>454.0</ele><time>2026-04-14T08:12:52.837Z</time></trkpt><trkpt lat="42.6824183" lon="-8.1813333"><ele>455.6666666666667</ele><time>2026-04-14T08:12:53.838Z</time></trkpt><trkpt lat="42.6823533" lon="-8.18109"><ele>457.33333333333337</ele><time>2026-04-14T08:12:54.838Z</time></trkpt><trkpt lat="42.682275" lon="-8.1808483"><ele>459.0</ele><time>2026-04-14T08:12:55.837Z</time></trkpt><trkpt lat="42.6822067" lon="-8.1806017"><ele>460.66666666666663</ele><time>2026-04-14T08:12:56.838Z</time></trkpt><trkpt lat="42.6821317" lon="-8.1803617"><ele>462.3333333333333</ele><time>2026-04-14T08:12:57.837Z</time></trkpt><trkpt lat="42.6820617" lon="-8.1801183"><ele>464.0</ele><time>2026-04-14T08:12:58.837Z</time></trkpt><trkpt lat="42.68199" lon="-8.1798733"><ele>464.66666666666663</ele><time>2026-04-14T08:12:59.837Z</time></trkpt><trkpt lat="42.681915" lon="-8.179625"><ele>465.33333333333337</ele><time>2026-04-14T08:13:00.837Z</time></trkpt><trkpt lat="42.681845" lon="-8.1793817"><ele>466.0</ele><time>2026-04-14T08:13:01.837Z</time></trkpt><trkpt lat="42.68178" lon="-8.1791417"><ele>466.6666666666667</ele><time>2026-04-14T08:13:02.837Z</time></trkpt><trkpt lat="42.6817183" lon="-8.1789017"><ele>467.33333333333337</ele><time>2026-04-14T08:13:03.837Z</time></trkpt><trkpt lat="42.6816617" lon="-8.1786583"><ele>468.0</ele><time>2026-04-14T08:13:04.837Z</time></trkpt><trkpt lat="42.6816083" lon="-8.1784083"><ele>469.0</ele><time>2026-04-14T08:13:05.837Z</time></trkpt><trkpt lat="42.68156" lon="-8.1781533"><ele>470.0</ele><time>2026-04-14T08:13:06.837Z</time></trkpt><trkpt lat="42.6815267" lon="-8.1778917"><ele>471.0</ele><time>2026-04-14T08:13:07.838Z</time></trkpt><trkpt lat="42.6815033" lon="-8.1776367"><ele>471.0</ele><time>2026-04-14T08:13:08.838Z</time></trkpt><trkpt lat="42.6815" lon="-8.17737"><ele>471.0</ele><time>2026-04-14T08:13:09.837Z</time></trkpt><trkpt lat="42.681505" lon="-8.1771117"><ele>471.0</ele><time>2026-04-14T08:13:10.838Z</time></trkpt><trkpt lat="42.6815233" lon="-8.1768517"><ele>471.66666666666663</ele><time>2026-04-14T08:13:11.837Z</time></trkpt><trkpt lat="42.681555" lon="-8.17659"><ele>472.3333333333333</ele><time>2026-04-14T08:13:12.838Z</time></trkpt><trkpt lat="42.68157" lon="-8.1763283"><ele>473.0</ele><time>2026-04-14T08:13:13.837Z</time></trkpt><trkpt lat="42.6815917" lon="-8.1760633"><ele>473.66666666666663</ele><time>2026-04-14T08:13:14.838Z</time></trkpt><trkpt lat="42.6816133" lon="-8.1758"><ele>474.33333333333337</ele><time>2026-04-14T08:13:15.838Z</time></trkpt><trkpt lat="42.6816383" lon="-8.17554"><ele>475.0</ele><time>2026-04-14T08:13:16.837Z</time></trkpt><trkpt lat="42.6816517" lon="-8.1752733"><ele>475.33333333333337</ele><time>2026-04-14T08:13:17.838Z</time></trkpt><trkpt lat="42.68169" lon="-8.175"><ele>475.66666666666663</ele><time>2026-04-14T08:13:18.838Z</time></trkpt><trkpt lat="42.68172" lon="-8.1747217"><ele>476.0</ele><time>2026-04-14T08:13:19.837Z</time></trkpt><trkpt lat="42.681745" lon="-8.1744533"><ele>475.66666666666663</ele><time>2026-04-14T08:13:20.838Z</time></trkpt><trkpt lat="42.6817717" lon="-8.1741883"><ele>475.33333333333337</ele><time>2026-04-14T08:13:21.838Z</time></trkpt><trkpt lat="42.6818033" lon="-8.1739283"><ele>475.0</ele><time>2026-04-14T08:13:22.837Z</time></trkpt><trkpt lat="42.68184" lon="-8.1736633"><ele>475.0</ele><time>2026-04-14T08:13:23.837Z</time></trkpt><trkpt lat="42.6818817" lon="-8.1734017"><ele>475.0</ele><time>2026-04-14T08:13:24.837Z</time></trkpt><trkpt lat="42.6819367" lon="-8.173145"><ele>475.0</ele><time>2026-04-14T08:13:25.838Z</time></trkpt><trkpt lat="42.681995" lon="-8.1728917"><ele>477.33333333333337</ele><time>2026-04-14T08:13:26.838Z</time></trkpt><trkpt lat="42.682065" lon="-8.1726383"><ele>479.66666666666663</ele><time>2026-04-14T08:13:27.837Z</time></trkpt><trkpt lat="42.6821317" lon="-8.1723783"><ele>482.0</ele><time>2026-04-14T08:13:28.838Z</time></trkpt><trkpt lat="42.6822017" lon="-8.172125"><ele>482.0</ele><time>2026-04-14T08:13:29.838Z</time></trkpt><trkpt lat="42.6822733" lon="-8.1718667"><ele>482.0</ele><time>2026-04-14T08:13:30.837Z</time></trkpt><trkpt lat="42.6823533" lon="-8.1716017"><ele>482.0</ele><time>2026-04-14T08:13:31.838Z</time></trkpt><trkpt lat="42.68243" lon="-8.1713467"><ele>480.3333333333333</ele><time>2026-04-14T08:13:32.837Z</time></trkpt><trkpt lat="42.682505" lon="-8.1710867"><ele>478.66666666666663</ele><time>2026-04-14T08:13:33.838Z</time></trkpt><trkpt lat="42.6825583" lon="-8.170825"><ele>477.0</ele><time>2026-04-14T08:13:34.837Z</time></trkpt><trkpt lat="42.6826067" lon="-8.1705617"><ele>476.33333333333337</ele><time>2026-04-14T08:13:35.837Z</time></trkpt><trkpt lat="42.6826417" lon="-8.1702933"><ele>475.6666666666667</ele><time>2026-04-14T08:13:36.838Z</time></trkpt><trkpt lat="42.6826683" lon="-8.170025"><ele>475.0</ele><time>2026-04-14T08:13:37.837Z</time></trkpt><trkpt lat="42.682685" lon="-8.1697433"><ele>475.33333333333337</ele><time>2026-04-14T08:13:38.837Z</time></trkpt><trkpt lat="42.6826667" lon="-8.169475"><ele>475.66666666666663</ele><time>2026-04-14T08:13:39.838Z</time></trkpt><trkpt lat="42.6826317" lon="-8.1692133"><ele>476.0</ele><time>2026-04-14T08:13:40.837Z</time></trkpt><trkpt lat="42.68258" lon="-8.1689583"><ele>476.0</ele><time>2026-04-14T08:13:41.837Z</time></trkpt><trkpt lat="42.6825083" lon="-8.1687117"><ele>476.0</ele><time>2026-04-14T08:13:42.838Z</time></trkpt><trkpt lat="42.6824333" lon="-8.1684783"><ele>476.0</ele><time>2026-04-14T08:13:43.837Z</time></trkpt><trkpt lat="42.68234" lon="-8.1682567"><ele>475.0</ele><time>2026-04-14T08:13:44.838Z</time></trkpt><trkpt lat="42.6815917" lon="-8.1760633"><ele>475.0</ele><time>2026-04-14T08:13:14.838Z</time></trkpt><trkpt lat="42.6816133" lon="-8.1758"><ele>475.0</ele><time>2026-04-14T08:13:15.838Z</time></trkpt><trkpt lat="42.6816383" lon="-8.17554"><ele>475.0</ele><time>2026-04-14T08:13:16.837Z</time></trkpt><trkpt lat="42.6816517" lon="-8.1752733"><ele>475.33333333333337</ele><time>2026-04-14T08:13:17.838Z</time></trkpt><trkpt lat="42.68169" lon="-8.175"><ele>475.66666666666663</ele><time>2026-04-14T08:13:18.838Z</time></trkpt><trkpt lat="42.68172" lon="-8.1747217"><ele>476.0</ele><time>2026-04-14T08:13:19.837Z</time></trkpt><trkpt lat="42.681745" lon="-8.1744533"><ele>475.66666666666663</ele><time>2026-04-14T08:13:20.838Z</time></trkpt><trkpt lat="42.6817717" lon="-8.1741883"><ele>475.33333333333337</ele><time>2026-04-14T08:13:21.838Z</time></trkpt><trkpt lat="42.6818033" lon="-8.1739283"><ele>475.0</ele><time>2026-04-14T08:13:22.837Z</time></trkpt><trkpt lat="42.68184" lon="-8.1736633"><ele>475.0</ele><time>2026-04-14T08:13:23.837Z</time></trkpt><trkpt lat="42.6818817" lon="-8.1734017"><ele>475.0</ele><time>2026-04-14T08:13:24.837Z</time></trkpt><trkpt lat="42.6819367" lon="-8.173145"><ele>475.0</ele><time>2026-04-14T08:13:25.838Z</time></trkpt><trkpt lat="42.681995" lon="-8.1728917"><ele>477.33333333333337</ele><time>2026-04-14T08:13:26.838Z</time></trkpt><trkpt lat="42.682065" lon="-8.1726383"><ele>479.66666666666663</ele><time>2026-04-14T08:13:27.837Z</time></trkpt><trkpt lat="42.6821317" lon="-8.1723783"><ele>482.0</ele><time>2026-04-14T08:13:28.838Z</time></trkpt><trkpt lat="42.6822017" lon="-8.172125"><ele>482.0</ele><time>2026-04-14T08:13:29.838Z</time></trkpt><trkpt lat="42.6822733" lon="-8.1718667"><ele>482.0</ele><time>2026-04-14T08:13:30.837Z</time></trkpt><trkpt lat="42.6823533" lon="-8.1716017"><ele>482.0</ele><time>2026-04-14T08:13:31.838Z</time></trkpt><trkpt lat="42.68243" lon="-8.1713467"><ele>480.3333333333333</ele><time>2026-04-14T08:13:32.837Z</time></trkpt><trkpt lat="42.682505" lon="-8.1710867"><ele>478.66666666666663</ele><time>2026-04-14T08:13:33.838Z</time></trkpt><trkpt lat="42.6825583" lon="-8.170825"><ele>477.0</ele><time>2026-04-14T08:13:34.837Z</time></trkpt><trkpt lat="42.6826067" lon="-8.1705617"><ele>476.33333333333337</ele><time>2026-04-14T08:13:35.837Z</time></trkpt><trkpt lat="42.6826417" lon="-8.1702933"><ele>475.6666666666667</ele><time>2026-04-14T08:13:36.838Z</time></trkpt><trkpt lat="42.6826683" lon="-8.170025"><ele>475.0</ele><time>2026-04-14T08:13:37.837Z</time></trkpt><trkpt lat="42.682685" lon="-8.1697433"><ele>475.33333333333337</ele><time>2026-04-14T08:13:38.837Z</time></trkpt><trkpt lat="42.6826667" lon="-8.169475"><ele>475.66666666666663</ele><time>2026-04-14T08:13:39.838Z</time></trkpt><trkpt lat="42.6826317" lon="-8.1692133"><ele>476.0</ele><time>2026-04-14T08:13:40.837Z</time></trkpt><trkpt lat="42.68258" lon="-8.1689583"><ele>476.0</ele><time>2026-04-14T08:13:41.837Z</time></trkpt><trkpt lat="42.6825083" lon="-8.1687117"><ele>476.0</ele><time>2026-04-14T08:13:42.838Z</time></trkpt><trkpt lat="42.6824333" lon="-8.1684783"><ele>476.0</ele><time>2026-04-14T08:13:43.837Z</time></trkpt><trkpt lat="42.68234" lon="-8.1682567"><ele>477.66666666666663</ele><time>2026-04-14T08:13:44.838Z</time></trkpt><trkpt lat="42.6822333" lon="-8.1680433"><ele>479.33333333333337</ele><time>2026-04-14T08:13:45.837Z</time></trkpt><trkpt lat="42.6821167" lon="-8.1678483"><ele>481.0</ele><time>2026-04-14T08:13:46.838Z</time></trkpt><trkpt lat="42.68199" lon="-8.1676617"><ele>481.6666666666667</ele><time>2026-04-14T08:13:47.838Z</time></trkpt><trkpt lat="42.68185" lon="-8.1674983"><ele>482.33333333333337</ele><time>2026-04-14T08:13:48.837Z</time></trkpt><trkpt lat="42.6817067" lon="-8.1673483"><ele>483.0</ele><time>2026-04-14T08:13:49.838Z</time></trkpt><trkpt lat="42.6815583" lon="-8.1672083"><ele>486.0</ele><time>2026-04-14T08:13:50.837Z</time></trkpt><trkpt lat="42.6813933" lon="-8.167095"><ele>489.0</ele><time>2026-04-14T08:13:51.837Z</time></trkpt><trkpt lat="42.681225" lon="-8.1670017"><ele>492.0</ele><time>2026-04-14T08:13:52.837Z</time></trkpt><trkpt lat="42.6810517" lon="-8.166915"><ele>492.0</ele><time>2026-04-14T08:13:53.838Z</time></trkpt><trkpt lat="42.6808683" lon="-8.1668467"><ele>492.0</ele><time>2026-04-14T08:13:54.837Z</time></trkpt><trkpt lat="42.680685" lon="-8.16678"><ele>492.0</ele><time>2026-04-14T08:13:55.838Z</time></trkpt><trkpt lat="42.6804983" lon="-8.1667183"><ele>492.0</ele><time>2026-04-14T08:13:56.838Z</time></trkpt><trkpt lat="42.6803283" lon="-8.1666483"><ele>492.0</ele><time>2026-04-14T08:13:57.838Z</time></trkpt><trkpt lat="42.68014" lon="-8.1665833"><ele>492.0</ele><time>2026-04-14T08:13:58.838Z</time></trkpt><trkpt lat="42.6799583" lon="-8.1665133"><ele>491.66666666666663</ele><time>2026-04-14T08:13:59.838Z</time></trkpt><trkpt lat="42.6797717" lon="-8.1664367"><ele>491.3333333333333</ele><time>2026-04-14T08:14:00.837Z</time></trkpt><trkpt lat="42.67959" lon="-8.1663683"><ele>491.0</ele><time>2026-04-14T08:14:01.837Z</time></trkpt><trkpt lat="42.6794017" lon="-8.1662883"><ele>491.0</ele><time>2026-04-14T08:14:02.838Z</time></trkpt><trkpt lat="42.67921" lon="-8.16621"><ele>491.0</ele><time>2026-04-14T08:14:03.837Z</time></trkpt><trkpt lat="42.6790217" lon="-8.166125"><ele>491.0</ele><time>2026-04-14T08:14:04.837Z</time></trkpt><trkpt lat="42.6788317" lon="-8.1660333"><ele>491.0</ele><time>2026-04-14T08:14:05.837Z</time></trkpt><trkpt lat="42.67864" lon="-8.165945"><ele>491.0</ele><time>2026-04-14T08:14:06.837Z</time></trkpt><trkpt lat="42.6784383" lon="-8.1658533"><ele>491.0</ele><time>2026-04-14T08:14:07.837Z</time></trkpt><trkpt lat="42.6782383" lon="-8.1657633"><ele>490.0</ele><time>2026-04-14T08:14:08.837Z</time></trkpt><trkpt lat="42.67804" lon="-8.16567"><ele>489.0</ele><time>2026-04-14T08:14:09.837Z</time></trkpt><trkpt lat="42.67785" lon="-8.165585"><ele>488.0</ele><time>2026-04-14T08:14:10.837Z</time></trkpt><trkpt lat="42.6776567" lon="-8.1655017"><ele>486.3333333333333</ele><time>2026-04-14T08:14:11.838Z</time></trkpt><trkpt lat="42.677455" lon="-8.1654167"><ele>484.66666666666663</ele><time>2026-04-14T08:14:12.838Z</time></trkpt><trkpt lat="42.677265" lon="-8.1653283"><ele>483.0</ele><time>2026-04-14T08:14:13.837Z</time></trkpt><trkpt lat="42.677075" lon="-8.16525"><ele>480.66666666666663</ele><time>2026-04-14T08:14:14.837Z</time></trkpt><trkpt lat="42.67689" lon="-8.165155"><ele>478.3333333333333</ele><time>2026-04-14T08:14:15.838Z</time></trkpt><trkpt lat="42.6767067" lon="-8.1650733"><ele>476.0</ele><time>2026-04-14T08:14:16.838Z</time></trkpt><trkpt lat="42.6765217" lon="-8.164995"><ele>476.0</ele><time>2026-04-14T08:14:17.837Z</time></trkpt><trkpt lat="42.6763383" lon="-8.164905"><ele>476.0</ele><time>2026-04-14T08:14:18.837Z</time></trkpt><trkpt lat="42.67616" lon="-8.164815"><ele>476.0</ele><time>2026-04-14T08:14:19.837Z</time></trkpt><trkpt lat="42.6759767" lon="-8.1647283"><ele>474.66666666666663</ele><time>2026-04-14T08:14:20.838Z</time></trkpt><trkpt lat="42.675795" lon="-8.1646217"><ele>473.33333333333337</ele><time>2026-04-14T08:14:21.838Z</time></trkpt><trkpt lat="42.675615" lon="-8.1645067"><ele>472.0</ele><time>2026-04-14T08:14:22.838Z</time></trkpt><trkpt lat="42.6754417" lon="-8.1643917"><ele>472.0</ele><time>2026-04-14T08:14:23.837Z</time></trkpt><trkpt lat="42.6752717" lon="-8.164255"><ele>472.0</ele><time>2026-04-14T08:14:24.839Z</time></trkpt><trkpt lat="42.6751083" lon="-8.1641117"><ele>472.0</ele><time>2026-04-14T08:14:25.838Z</time></trkpt><trkpt lat="42.6749517" lon="-8.1639633"><ele>473.0</ele><time>2026-04-14T08:14:26.838Z</time></trkpt><trkpt lat="42.6747983" lon="-8.1638033"><ele>474.0</ele><time>2026-04-14T08:14:27.839Z</time></trkpt><trkpt lat="42.6746583" lon="-8.1636383"><ele>475.0</ele><time>2026-04-14T08:14:28.838Z</time></trkpt><trkpt lat="42.6745267" lon="-8.1634617"><ele>477.0</ele><time>2026-04-14T08:14:29.838Z</time></trkpt><trkpt lat="42.6744083" lon="-8.1632733"><ele>479.0</ele><time>2026-04-14T08:14:30.838Z</time></trkpt><trkpt lat="42.674295" lon="-8.1630883"><ele>481.0</ele><time>2026-04-14T08:14:31.839Z</time></trkpt><trkpt lat="42.6741883" lon="-8.1628983"><ele>481.0</ele><time>2026-04-14T08:14:32.838Z</time></trkpt><trkpt lat="42.6740917" lon="-8.162715"><ele>481.0</ele><time>2026-04-14T08:14:33.839Z</time></trkpt><trkpt lat="42.674" lon="-8.1625267"><ele>481.0</ele><time>2026-04-14T08:14:34.839Z</time></trkpt><trkpt lat="42.6739167" lon="-8.1623383"><ele>481.25</ele><time>2026-04-14T08:14:35.838Z</time></trkpt><trkpt lat="42.6738417" lon="-8.162165"><ele>481.5</ele><time>2026-04-14T08:14:36.838Z</time></trkpt><trkpt lat="42.6737667" lon="-8.1619983"><ele>481.75</ele><time>2026-04-14T08:14:37.838Z</time></trkpt><trkpt lat="42.6736967" lon="-8.1618817"><ele>482.0</ele><time>2026-04-14T08:14:38.839Z</time></trkpt><trkpt lat="42.6736233" lon="-8.16178"><ele>482.99999999999994</ele><time>2026-04-14T08:14:39.838Z</time></trkpt><trkpt lat="42.6735617" lon="-8.1617033"><ele>484.0</ele><time>2026-04-14T08:14:40.838Z</time></trkpt><trkpt lat="42.6735117" lon="-8.1616267"><ele>485.0</ele><time>2026-04-14T08:14:41.839Z</time></trkpt><trkpt lat="42.67348" lon="-8.16153"><ele>486.0</ele><time>2026-04-14T08:14:42.838Z</time></trkpt><trkpt lat="42.6734683" lon="-8.161415"><ele>486.99999999999994</ele><time>2026-04-14T08:14:43.838Z</time></trkpt><trkpt lat="42.67348" lon="-8.16129"><ele>488.0</ele><time>2026-04-14T08:14:44.838Z</time></trkpt><trkpt lat="42.67351" lon="-8.1611483"><ele>488.0</ele><time>2026-04-14T08:14:45.838Z</time></trkpt><trkpt lat="42.6735317" lon="-8.1610017"><ele>487.99999999999994</ele><time>2026-04-14T08:14:46.839Z</time></trkpt><trkpt lat="42.6735383" lon="-8.1608633"><ele>487.99999999999994</ele><time>2026-04-14T08:14:47.839Z</time></trkpt><trkpt lat="42.6735383" lon="-8.1607367"><ele>488.0</ele><time>2026-04-14T08:14:48.838Z</time></trkpt><trkpt lat="42.673525" lon="-8.160615"><ele>488.0</ele><time>2026-04-14T08:14:49.838Z</time></trkpt><trkpt lat="42.6735117" lon="-8.1604883"><ele>488.8333333333333</ele><time>2026-04-14T08:14:50.838Z</time></trkpt><trkpt lat="42.6735033" lon="-8.1603683"><ele>489.66666666666663</ele><time>2026-04-14T08:14:51.838Z</time></trkpt><trkpt lat="42.6735" lon="-8.16026"><ele>490.5</ele><time>2026-04-14T08:14:52.838Z</time></trkpt><trkpt lat="42.6734983" lon="-8.1601583"><ele>491.33333333333337</ele><time>2026-04-14T08:14:53.838Z</time></trkpt><trkpt lat="42.6734983" lon="-8.16007"><ele>492.1666666666667</ele><time>2026-04-14T08:14:54.839Z</time></trkpt><trkpt lat="42.67349" lon="-8.1599817"><ele>493.0</ele><time>2026-04-14T08:14:55.839Z</time></trkpt><trkpt lat="42.6734667" lon="-8.1598167"><ele>493.1666666666667</ele><time>2026-04-14T08:14:57.839Z</time></trkpt><trkpt lat="42.673445" lon="-8.1597233"><ele>493.33333333333337</ele><time>2026-04-14T08:14:58.839Z</time></trkpt><trkpt lat="42.67342" lon="-8.159625"><ele>493.5</ele><time>2026-04-14T08:14:59.838Z</time></trkpt><trkpt lat="42.6733917" lon="-8.159515"><ele>493.66666666666663</ele><time>2026-04-14T08:15:00.838Z</time></trkpt><trkpt lat="42.6733733" lon="-8.1593883"><ele>493.8333333333333</ele><time>2026-04-14T08:15:01.838Z</time></trkpt><trkpt lat="42.6733733" lon="-8.1592567"><ele>494.0</ele><time>2026-04-14T08:15:02.838Z</time></trkpt><trkpt lat="42.6733933" lon="-8.15913"><ele>494.4</ele><time>2026-04-14T08:15:03.838Z</time></trkpt><trkpt lat="42.673425" lon="-8.1590233"><ele>494.79999999999995</ele><time>2026-04-14T08:15:04.839Z</time></trkpt><trkpt lat="42.6734733" lon="-8.158925"><ele>495.20000000000005</ele><time>2026-04-14T08:15:05.838Z</time></trkpt><trkpt lat="42.6735217" lon="-8.158815"><ele>495.6</ele><time>2026-04-14T08:15:06.838Z</time></trkpt><trkpt lat="42.67356" lon="-8.1586917"><ele>496.0</ele><time>2026-04-14T08:15:07.839Z</time></trkpt><trkpt lat="42.67359" lon="-8.1585567"><ele>495.75</ele><time>2026-04-14T08:15:08.838Z</time></trkpt><trkpt lat="42.6736133" lon="-8.1584283"><ele>495.5</ele><time>2026-04-14T08:15:09.839Z</time></trkpt><trkpt lat="42.6736233" lon="-8.1582933"><ele>495.25</ele><time>2026-04-14T08:15:10.839Z</time></trkpt><trkpt lat="42.67364" lon="-8.15815"><ele>495.0</ele><time>2026-04-14T08:15:11.839Z</time></trkpt><trkpt lat="42.6735117" lon="-8.1616267"><ele>493.6</ele><time>2026-04-14T08:14:41.839Z</time></trkpt><trkpt lat="42.67348" lon="-8.16153"><ele>492.2</ele><time>2026-04-14T08:14:42.838Z</time></trkpt><trkpt lat="42.6734683" lon="-8.161415"><ele>490.79999999999995</ele><time>2026-04-14T08:14:43.838Z</time></trkpt><trkpt lat="42.67348" lon="-8.16129"><ele>489.4</ele><time>2026-04-14T08:14:44.838Z</time></trkpt><trkpt lat="42.67351" lon="-8.1611483"><ele>488.0</ele><time>2026-04-14T08:14:45.838Z</time></trkpt><trkpt lat="42.6735317" lon="-8.1610017"><ele>488.0</ele><time>2026-04-14T08:14:46.839Z</time></trkpt><trkpt lat="42.6735383" lon="-8.1608633"><ele>487.99999999999994</ele><time>2026-04-14T08:14:47.839Z</time></trkpt><trkpt lat="42.6735383" lon="-8.1607367"><ele>487.99999999999994</ele><time>2026-04-14T08:14:48.838Z</time></trkpt><trkpt lat="42.673525" lon="-8.160615"><ele>488.0</ele><time>2026-04-14T08:14:49.838Z</time></trkpt><trkpt lat="42.6735117" lon="-8.1604883"><ele>488.0</ele><time>2026-04-14T08:14:50.838Z</time></trkpt><trkpt lat="42.6735033" lon="-8.1603683"><ele>488.8333333333333</ele><time>2026-04-14T08:14:51.838Z</time></trkpt><trkpt lat="42.6735" lon="-8.16026"><ele>489.66666666666663</ele><time>2026-04-14T08:14:52.838Z</time></trkpt><trkpt lat="42.6734983" lon="-8.1601583"><ele>490.5</ele><time>2026-04-14T08:14:53.838Z</time></trkpt><trkpt lat="42.6734983" lon="-8.16007"><ele>491.33333333333337</ele><time>2026-04-14T08:14:54.839Z</time></trkpt><trkpt lat="42.67349" lon="-8.1599817"><ele>492.1666666666667</ele><time>2026-04-14T08:14:55.839Z</time></trkpt><trkpt lat="42.6734667" lon="-8.1598167"><ele>493.0</ele><time>2026-04-14T08:14:57.839Z</time></trkpt><trkpt lat="42.673445" lon="-8.1597233"><ele>493.1666666666667</ele><time>2026-04-14T08:14:58.839Z</time></trkpt><trkpt lat="42.67342" lon="-8.159625"><ele>493.33333333333337</ele><time>2026-04-14T08:14:59.838Z</time></trkpt><trkpt lat="42.6733917" lon="-8.159515"><ele>493.5</ele><time>2026-04-14T08:15:00.838Z</time></trkpt><trkpt lat="42.6733733" lon="-8.1593883"><ele>493.66666666666663</ele><time>2026-04-14T08:15:01.838Z</time></trkpt><trkpt lat="42.6733733" lon="-8.1592567"><ele>493.8333333333333</ele><time>2026-04-14T08:15:02.838Z</time></trkpt><trkpt lat="42.6733933" lon="-8.15913"><ele>494.0</ele><time>2026-04-14T08:15:03.838Z</time></trkpt><trkpt lat="42.673425" lon="-8.1590233"><ele>494.4</ele><time>2026-04-14T08:15:04.839Z</time></trkpt><trkpt lat="42.6734733" lon="-8.158925"><ele>494.79999999999995</ele><time>2026-04-14T08:15:05.838Z</time></trkpt><trkpt lat="42.6735217" lon="-8.158815"><ele>495.20000000000005</ele><time>2026-04-14T08:15:06.838Z</time></trkpt><trkpt lat="42.67356" lon="-8.1586917"><ele>495.6</ele><time>2026-04-14T08:15:07.839Z</time></trkpt><trkpt lat="42.67359" lon="-8.1585567"><ele>496.0</ele><time>2026-04-14T08:15:08.838Z</time></trkpt><trkpt lat="42.6736133" lon="-8.1584283"><ele>495.8</ele><time>2026-04-14T08:15:09.839Z</time></trkpt><trkpt lat="42.6736233" lon="-8.1582933"><ele>495.6</ele><time>2026-04-14T08:15:10.839Z</time></trkpt><trkpt lat="42.67364" lon="-8.15815"><ele>495.4</ele><time>2026-04-14T08:15:11.839Z</time></trkpt><trkpt lat="42.67366" lon="-8.158005"><ele>495.2</ele><time>2026-04-14T08:15:12.838Z</time></trkpt><trkpt lat="42.67368" lon="-8.1578583"><ele>495.0</ele><time>2026-04-14T08:15:13.838Z</time></trkpt><trkpt lat="42.6736967" lon="-8.1577133"><ele>495.0</ele><time>2026-04-14T08:15:14.838Z</time></trkpt><trkpt lat="42.6737083" lon="-8.1575633"><ele>495.0</ele><time>2026-04-14T08:15:15.839Z</time></trkpt><trkpt lat="42.6737233" lon="-8.1574"><ele>495.0</ele><time>2026-04-14T08:15:16.838Z</time></trkpt><trkpt lat="42.6737283" lon="-8.157215"><ele>495.0</ele><time>2026-04-14T08:15:17.838Z</time></trkpt><trkpt lat="42.6737367" lon="-8.1570167"><ele>494.75</ele><time>2026-04-14T08:15:18.839Z</time></trkpt><trkpt lat="42.6737483" lon="-8.1568183"><ele>494.5</ele><time>2026-04-14T08:15:19.839Z</time></trkpt><trkpt lat="42.6737667" lon="-8.1566367"><ele>494.25</ele><time>2026-04-14T08:15:20.838Z</time></trkpt><trkpt lat="42.67378" lon="-8.1564633"><ele>494.0</ele><time>2026-04-14T08:15:21.839Z</time></trkpt><trkpt lat="42.67378" lon="-8.1563"><ele>494.0</ele><time>2026-04-14T08:15:22.839Z</time></trkpt><trkpt lat="42.6737833" lon="-8.156145"><ele>494.0</ele><time>2026-04-14T08:15:23.839Z</time></trkpt><trkpt lat="42.6737783" lon="-8.155995"><ele>494.0</ele><time>2026-04-14T08:15:24.838Z</time></trkpt><trkpt lat="42.6737733" lon="-8.1558417"><ele>494.0</ele><time>2026-04-14T08:15:25.838Z</time></trkpt><trkpt lat="42.67377" lon="-8.1556783"><ele>494.25</ele><time>2026-04-14T08:15:26.839Z</time></trkpt><trkpt lat="42.6737667" lon="-8.1555017"><ele>494.5</ele><time>2026-04-14T08:15:27.838Z</time></trkpt><trkpt lat="42.6737583" lon="-8.1553267"><ele>494.75</ele><time>2026-04-14T08:15:28.839Z</time></trkpt><trkpt lat="42.673725" lon="-8.1551417"><ele>495.0</ele><time>2026-04-14T08:15:29.838Z</time></trkpt><trkpt lat="42.673685" lon="-8.1549483"><ele>495.25</ele><time>2026-04-14T08:15:30.838Z</time></trkpt><trkpt lat="42.6736433" lon="-8.15476"><ele>495.5</ele><time>2026-04-14T08:15:31.839Z</time></trkpt><trkpt lat="42.6735933" lon="-8.1545917"><ele>495.75</ele><time>2026-04-14T08:15:32.838Z</time></trkpt><trkpt lat="42.6735383" lon="-8.1544233"><ele>496.0</ele><time>2026-04-14T08:15:33.838Z</time></trkpt><trkpt lat="42.67348" lon="-8.1542467"><ele>495.6666666666667</ele><time>2026-04-14T08:15:34.839Z</time></trkpt><trkpt lat="42.6734167" lon="-8.1540683"><ele>495.33333333333337</ele><time>2026-04-14T08:15:35.838Z</time></trkpt><trkpt lat="42.6733417" lon="-8.1538883"><ele>495.0</ele><time>2026-04-14T08:15:36.838Z</time></trkpt><trkpt lat="42.6732633" lon="-8.1536883"><ele>495.0</ele><time>2026-04-14T08:15:37.839Z</time></trkpt><trkpt lat="42.6731867" lon="-8.1534867"><ele>495.0</ele><time>2026-04-14T08:15:38.839Z</time></trkpt><trkpt lat="42.673105" lon="-8.15327"><ele>495.0</ele><time>2026-04-14T08:15:39.838Z</time></trkpt><trkpt lat="42.6730167" lon="-8.1530417"><ele>495.33333333333337</ele><time>2026-04-14T08:15:40.838Z</time></trkpt><trkpt lat="42.6729283" lon="-8.1527933"><ele>495.6666666666667</ele><time>2026-04-14T08:15:41.838Z</time></trkpt><trkpt lat="42.6728283" lon="-8.1525283"><ele>496.0</ele><time>2026-04-14T08:15:42.838Z</time></trkpt><trkpt lat="42.6727283" lon="-8.1522717"><ele>496.0</ele><time>2026-04-14T08:15:43.839Z</time></trkpt><trkpt lat="42.6726283" lon="-8.1520183"><ele>496.0</ele><time>2026-04-14T08:15:44.838Z</time></trkpt><trkpt lat="42.6725267" lon="-8.15176"><ele>496.0</ele><time>2026-04-14T08:15:45.839Z</time></trkpt><trkpt lat="42.6724367" lon="-8.1515083"><ele>497.33333333333337</ele><time>2026-04-14T08:15:46.838Z</time></trkpt><trkpt lat="42.6723417" lon="-8.1512567"><ele>498.66666666666663</ele><time>2026-04-14T08:15:47.838Z</time></trkpt><trkpt lat="42.67225" lon="-8.151005"><ele>500.0</ele><time>2026-04-14T08:15:48.838Z</time></trkpt><trkpt lat="42.6721583" lon="-8.1507483"><ele>501.0</ele><time>2026-04-14T08:15:49.839Z</time></trkpt><trkpt lat="42.6720767" lon="-8.1504883"><ele>502.0</ele><time>2026-04-14T08:15:50.838Z</time></trkpt><trkpt lat="42.6719867" lon="-8.150225"><ele>503.0</ele><time>2026-04-14T08:15:51.838Z</time></trkpt><trkpt lat="42.6718883" lon="-8.1499733"><ele>499.66666666666663</ele><time>2026-04-14T08:15:52.838Z</time></trkpt><trkpt lat="42.67179" lon="-8.1497217"><ele>496.33333333333337</ele><time>2026-04-14T08:15:53.838Z</time></trkpt><trkpt lat="42.6716783" lon="-8.1494767"><ele>493.0</ele><time>2026-04-14T08:15:54.838Z</time></trkpt><trkpt lat="42.67157" lon="-8.1492367"><ele>493.6666666666667</ele><time>2026-04-14T08:15:55.839Z</time></trkpt><trkpt lat="42.6714567" lon="-8.1489967"><ele>494.33333333333337</ele><time>2026-04-14T08:15:56.838Z</time></trkpt><trkpt lat="42.6713317" lon="-8.1487717"><ele>495.0</ele><time>2026-04-14T08:15:57.838Z</time></trkpt><trkpt lat="42.6711967" lon="-8.148565"><ele>496.0</ele><time>2026-04-14T08:15:58.839Z</time></trkpt><trkpt lat="42.67107" lon="-8.1483617"><ele>497.0</ele><time>2026-04-14T08:15:59.839Z</time></trkpt><trkpt lat="42.6709333" lon="-8.1481617"><ele>498.0</ele><time>2026-04-14T08:16:00.839Z</time></trkpt><trkpt lat="42.6708067" lon="-8.1479717"><ele>498.0</ele><time>2026-04-14T08:16:01.839Z</time></trkpt><trkpt lat="42.6706767" lon="-8.1477817"><ele>498.0</ele><time>2026-04-14T08:16:02.838Z</time></trkpt><trkpt lat="42.6705483" lon="-8.1476017"><ele>498.0</ele><time>2026-04-14T08:16:03.839Z</time></trkpt><trkpt lat="42.6704217" lon="-8.1474283"><ele>499.0</ele><time>2026-04-14T08:16:04.838Z</time></trkpt><trkpt lat="42.6703017" lon="-8.1472433"><ele>500.0</ele><time>2026-04-14T08:16:05.839Z</time></trkpt><trkpt lat="42.6701767" lon="-8.1470567"><ele>501.0</ele><time>2026-04-14T08:16:06.838Z</time></trkpt><trkpt lat="42.6700483" lon="-8.1468733"><ele>501.0</ele><time>2026-04-14T08:16:07.838Z</time></trkpt><trkpt lat="42.6699167" lon="-8.1466883"><ele>501.0</ele><time>2026-04-14T08:16:08.839Z</time></trkpt><trkpt lat="42.669785" lon="-8.14651"><ele>501.0</ele><time>2026-04-14T08:16:09.839Z</time></trkpt><trkpt lat="42.6696517" lon="-8.1463267"><ele>500.33333333333337</ele><time>2026-04-14T08:16:10.839Z</time></trkpt><trkpt lat="42.6695333" lon="-8.146165"><ele>499.6666666666667</ele><time>2026-04-14T08:16:11.838Z</time></trkpt><trkpt lat="42.6694217" lon="-8.1460167"><ele>499.0</ele><time>2026-04-14T08:16:12.838Z</time></trkpt><trkpt lat="42.6693183" lon="-8.1458783"><ele>499.0</ele><time>2026-04-14T08:16:13.839Z</time></trkpt><trkpt lat="42.6692183" lon="-8.14574"><ele>499.0</ele><time>2026-04-14T08:16:14.838Z</time></trkpt><trkpt lat="42.66913" lon="-8.1456033"><ele>499.0</ele><time>2026-04-14T08:16:15.838Z</time></trkpt><trkpt lat="42.6690483" lon="-8.14547"><ele>499.0</ele><time>2026-04-14T08:16:16.838Z</time></trkpt><trkpt lat="42.668955" lon="-8.1453367"><ele>501.25</ele><time>2026-04-14T08:16:17.838Z</time></trkpt><trkpt lat="42.668865" lon="-8.1452117"><ele>503.5</ele><time>2026-04-14T08:16:18.839Z</time></trkpt><trkpt lat="42.6687683" lon="-8.1450917"><ele>505.75</ele><time>2026-04-14T08:16:19.839Z</time></trkpt><trkpt lat="42.6686733" lon="-8.14497"><ele>508.0</ele><time>2026-04-14T08:16:20.838Z</time></trkpt><trkpt lat="42.668585" lon="-8.1448433"><ele>508.5</ele><time>2026-04-14T08:16:21.839Z</time></trkpt><trkpt lat="42.6684967" lon="-8.144715"><ele>509.0</ele><time>2026-04-14T08:16:22.838Z</time></trkpt><trkpt lat="42.6684117" lon="-8.1445883"><ele>509.5</ele><time>2026-04-14T08:16:23.839Z</time></trkpt><trkpt lat="42.668325" lon="-8.1444617"><ele>510.0</ele><time>2026-04-14T08:16:24.838Z</time></trkpt><trkpt lat="42.6682367" lon="-8.14434"><ele>510.0</ele><time>2026-04-14T08:16:25.839Z</time></trkpt><trkpt lat="42.6681467" lon="-8.1442217"><ele>510.0</ele><time>2026-04-14T08:16:26.838Z</time></trkpt><trkpt lat="42.6680717" lon="-8.1440983"><ele>510.0</ele><time>2026-04-14T08:16:27.838Z</time></trkpt><trkpt lat="42.668005" lon="-8.1439683"><ele>510.0</ele><time>2026-04-14T08:16:28.838Z</time></trkpt><trkpt lat="42.66794" lon="-8.143815"><ele>511.0</ele><time>2026-04-14T08:16:29.839Z</time></trkpt><trkpt lat="42.66788" lon="-8.1436517"><ele>512.0</ele><time>2026-04-14T08:16:30.838Z</time></trkpt><trkpt lat="42.6678333" lon="-8.1434833"><ele>513.0</ele><time>2026-04-14T08:16:31.838Z</time></trkpt><trkpt lat="42.667775" lon="-8.1433167"><ele>514.0</ele><time>2026-04-14T08:16:32.838Z</time></trkpt><trkpt lat="42.6677333" lon="-8.14313"><ele>514.0</ele><time>2026-04-14T08:16:33.839Z</time></trkpt><trkpt lat="42.6676983" lon="-8.1429333"><ele>514.0</ele><time>2026-04-14T08:16:34.838Z</time></trkpt><trkpt lat="42.66769" lon="-8.142735"><ele>514.0</ele><time>2026-04-14T08:16:35.839Z</time></trkpt><trkpt lat="42.66769" lon="-8.142545"><ele>514.0</ele><time>2026-04-14T08:16:36.839Z</time></trkpt><trkpt lat="42.6677033" lon="-8.1423567"><ele>511.5</ele><time>2026-04-14T08:16:37.839Z</time></trkpt><trkpt lat="42.66773" lon="-8.1421767"><ele>509.0</ele><time>2026-04-14T08:16:38.838Z</time></trkpt><trkpt lat="42.6699167" lon="-8.1466883"><ele>508.3333333333333</ele><time>2026-04-14T08:16:08.839Z</time></trkpt><trkpt lat="42.669785" lon="-8.14651"><ele>507.66666666666663</ele><time>2026-04-14T08:16:09.839Z</time></trkpt><trkpt lat="42.6696517" lon="-8.1463267"><ele>507.0</ele><time>2026-04-14T08:16:10.839Z</time></trkpt><trkpt lat="42.6695333" lon="-8.146165"><ele>507.25</ele><time>2026-04-14T08:16:11.838Z</time></trkpt><trkpt lat="42.6694217" lon="-8.1460167"><ele>507.5</ele><time>2026-04-14T08:16:12.838Z</time></trkpt><trkpt lat="42.6693183" lon="-8.1458783"><ele>507.75</ele><time>2026-04-14T08:16:13.839Z</time></trkpt><trkpt lat="42.6692183" lon="-8.14574"><ele>508.0</ele><time>2026-04-14T08:16:14.838Z</time></trkpt><trkpt lat="42.66913" lon="-8.1456033"><ele>508.0</ele><time>2026-04-14T08:16:15.838Z</time></trkpt><trkpt lat="42.6690483" lon="-8.14547"><ele>508.0</ele><time>2026-04-14T08:16:16.838Z</time></trkpt><trkpt lat="42.668955" lon="-8.1453367"><ele>508.0</ele><time>2026-04-14T08:16:17.838Z</time></trkpt><trkpt lat="42.668865" lon="-8.1452117"><ele>508.0</ele><time>2026-04-14T08:16:18.839Z</time></trkpt><trkpt lat="42.6687683" lon="-8.1450917"><ele>508.0</ele><time>2026-04-14T08:16:19.839Z</time></trkpt><trkpt lat="42.6686733" lon="-8.14497"><ele>508.0</ele><time>2026-04-14T08:16:20.838Z</time></trkpt><trkpt lat="42.668585" lon="-8.1448433"><ele>508.0</ele><time>2026-04-14T08:16:21.839Z</time></trkpt><trkpt lat="42.6684967" lon="-8.144715"><ele>508.0</ele><time>2026-04-14T08:16:22.838Z</time></trkpt><trkpt lat="42.6684117" lon="-8.1445883"><ele>508.5</ele><time>2026-04-14T08:16:23.839Z</time></trkpt><trkpt lat="42.668325" lon="-8.1444617"><ele>509.0</ele><time>2026-04-14T08:16:24.838Z</time></trkpt><trkpt lat="42.6682367" lon="-8.14434"><ele>509.5</ele><time>2026-04-14T08:16:25.839Z</time></trkpt><trkpt lat="42.6681467" lon="-8.1442217"><ele>510.0</ele><time>2026-04-14T08:16:26.838Z</time></trkpt><trkpt lat="42.6680717" lon="-8.1440983"><ele>512.25</ele><time>2026-04-14T08:16:27.838Z</time></trkpt><trkpt lat="42.668005" lon="-8.1439683"><ele>514.5</ele><time>2026-04-14T08:16:28.838Z</time></trkpt><trkpt lat="42.66794" lon="-8.143815"><ele>516.75</ele><time>2026-04-14T08:16:29.839Z</time></trkpt><trkpt lat="42.66788" lon="-8.1436517"><ele>519.0</ele><time>2026-04-14T08:16:30.838Z</time></trkpt><trkpt lat="42.6678333" lon="-8.1434833"><ele>517.75</ele><time>2026-04-14T08:16:31.838Z</time></trkpt><trkpt lat="42.667775" lon="-8.1433167"><ele>516.5</ele><time>2026-04-14T08:16:32.838Z</time></trkpt><trkpt lat="42.6677333" lon="-8.14313"><ele>515.25</ele><time>2026-04-14T08:16:33.839Z</time></trkpt><trkpt lat="42.6676983" lon="-8.1429333"><ele>514.0</ele><time>2026-04-14T08:16:34.838Z</time></trkpt><trkpt lat="42.66769" lon="-8.142735"><ele>514.0</ele><time>2026-04-14T08:16:35.839Z</time></trkpt><trkpt lat="42.66769" lon="-8.142545"><ele>514.0</ele><time>2026-04-14T08:16:36.839Z</time></trkpt><trkpt lat="42.6677033" lon="-8.1423567"><ele>514.0</ele><time>2026-04-14T08:16:37.839Z</time></trkpt><trkpt lat="42.66773" lon="-8.1421767"><ele>514.0</ele><time>2026-04-14T08:16:38.838Z</time></trkpt><trkpt lat="42.66776" lon="-8.141985"><ele>513.3333333333334</ele><time>2026-04-14T08:16:39.838Z</time></trkpt><trkpt lat="42.6678033" lon="-8.1417833"><ele>512.6666666666666</ele><time>2026-04-14T08:16:40.838Z</time></trkpt><trkpt lat="42.6678617" lon="-8.1415833"><ele>512.0</ele><time>2026-04-14T08:16:41.839Z</time></trkpt><trkpt lat="42.66794" lon="-8.1413933"><ele>510.66666666666663</ele><time>2026-04-14T08:16:42.838Z</time></trkpt><trkpt lat="42.6680283" lon="-8.1412033"><ele>509.33333333333337</ele><time>2026-04-14T08:16:43.839Z</time></trkpt><trkpt lat="42.6681383" lon="-8.141"><ele>508.0</ele><time>2026-04-14T08:16:44.838Z</time></trkpt><trkpt lat="42.6682567" lon="-8.1407717"><ele>508.6666666666667</ele><time>2026-04-14T08:16:45.838Z</time></trkpt><trkpt lat="42.6683767" lon="-8.140545"><ele>509.33333333333337</ele><time>2026-04-14T08:16:46.838Z</time></trkpt><trkpt lat="42.6685083" lon="-8.1403317"><ele>510.0</ele><time>2026-04-14T08:16:47.839Z</time></trkpt><trkpt lat="42.66863" lon="-8.1400967"><ele>508.33333333333337</ele><time>2026-04-14T08:16:48.838Z</time></trkpt><trkpt lat="42.6687533" lon="-8.1398617"><ele>506.6666666666667</ele><time>2026-04-14T08:16:49.839Z</time></trkpt><trkpt lat="42.6688683" lon="-8.1396133"><ele>505.0</ele><time>2026-04-14T08:16:50.838Z</time></trkpt><trkpt lat="42.6689967" lon="-8.1393833"><ele>505.0</ele><time>2026-04-14T08:16:51.839Z</time></trkpt><trkpt lat="42.6691217" lon="-8.13914"><ele>505.0</ele><time>2026-04-14T08:16:52.838Z</time></trkpt><trkpt lat="42.6692483" lon="-8.1389017"><ele>505.0</ele><time>2026-04-14T08:16:53.838Z</time></trkpt><trkpt lat="42.6693733" lon="-8.13867"><ele>505.0</ele><time>2026-04-14T08:16:54.839Z</time></trkpt><trkpt lat="42.6694867" lon="-8.1384533"><ele>505.0</ele><time>2026-04-14T08:16:55.838Z</time></trkpt><trkpt lat="42.669615" lon="-8.13823"><ele>505.0</ele><time>2026-04-14T08:16:56.838Z</time></trkpt><trkpt lat="42.669755" lon="-8.138"><ele>502.33333333333337</ele><time>2026-04-14T08:16:57.838Z</time></trkpt><trkpt lat="42.669885" lon="-8.13777"><ele>499.66666666666663</ele><time>2026-04-14T08:16:58.838Z</time></trkpt><trkpt lat="42.6700083" lon="-8.1375317"><ele>497.0</ele><time>2026-04-14T08:16:59.838Z</time></trkpt><trkpt lat="42.67012" lon="-8.1373033"><ele>497.3333333333333</ele><time>2026-04-14T08:17:00.839Z</time></trkpt><trkpt lat="42.67022" lon="-8.13707"><ele>497.66666666666663</ele><time>2026-04-14T08:17:01.838Z</time></trkpt><trkpt lat="42.670315" lon="-8.1368333"><ele>498.0</ele><time>2026-04-14T08:17:02.839Z</time></trkpt><trkpt lat="42.6704017" lon="-8.1365967"><ele>497.33333333333337</ele><time>2026-04-14T08:17:03.838Z</time></trkpt><trkpt lat="42.67048" lon="-8.136345"><ele>496.6666666666667</ele><time>2026-04-14T08:17:04.838Z</time></trkpt><trkpt lat="42.670545" lon="-8.1360883"><ele>496.0</ele><time>2026-04-14T08:17:05.839Z</time></trkpt><trkpt lat="42.6705867" lon="-8.1358333"><ele>494.33333333333337</ele><time>2026-04-14T08:17:06.839Z</time></trkpt><trkpt lat="42.6706167" lon="-8.1355717"><ele>492.66666666666663</ele><time>2026-04-14T08:17:07.838Z</time></trkpt><trkpt lat="42.6706283" lon="-8.1353017"><ele>491.0</ele><time>2026-04-14T08:17:08.839Z</time></trkpt><trkpt lat="42.6706367" lon="-8.1350383"><ele>491.0</ele><time>2026-04-14T08:17:09.838Z</time></trkpt><trkpt lat="42.6706383" lon="-8.1347683"><ele>491.0</ele><time>2026-04-14T08:17:10.838Z</time></trkpt><trkpt lat="42.6706183" lon="-8.1345067"><ele>491.0</ele><time>2026-04-14T08:17:11.839Z</time></trkpt><trkpt lat="42.6705717" lon="-8.1342467"><ele>492.0</ele><time>2026-04-14T08:17:12.839Z</time></trkpt><trkpt lat="42.6705083" lon="-8.133995"><ele>493.0</ele><time>2026-04-14T08:17:13.838Z</time></trkpt><trkpt lat="42.6704367" lon="-8.133755"><ele>494.0</ele><time>2026-04-14T08:17:14.839Z</time></trkpt><trkpt lat="42.67036" lon="-8.13352"><ele>494.0</ele><time>2026-04-14T08:17:15.838Z</time></trkpt><trkpt lat="42.6702783" lon="-8.1332883"><ele>494.0</ele><time>2026-04-14T08:17:16.838Z</time></trkpt><trkpt lat="42.6701867" lon="-8.13305"><ele>494.0</ele><time>2026-04-14T08:17:17.839Z</time></trkpt><trkpt lat="42.6700817" lon="-8.1328217"><ele>494.0</ele><time>2026-04-14T08:17:18.838Z</time></trkpt><trkpt lat="42.6699833" lon="-8.1325917"><ele>494.0</ele><time>2026-04-14T08:17:19.839Z</time></trkpt><trkpt lat="42.66989" lon="-8.132365"><ele>494.0</ele><time>2026-04-14T08:17:20.838Z</time></trkpt><trkpt lat="42.669795" lon="-8.132135"><ele>496.0</ele><time>2026-04-14T08:17:21.838Z</time></trkpt><trkpt lat="42.6696983" lon="-8.1319"><ele>498.0</ele><time>2026-04-14T08:17:22.838Z</time></trkpt><trkpt lat="42.6695983" lon="-8.1316633"><ele>500.0</ele><time>2026-04-14T08:17:23.838Z</time></trkpt><trkpt lat="42.669495" lon="-8.131435"><ele>499.3333333333333</ele><time>2026-04-14T08:17:24.839Z</time></trkpt><trkpt lat="42.6694017" lon="-8.1312117"><ele>498.66666666666663</ele><time>2026-04-14T08:17:25.839Z</time></trkpt><trkpt lat="42.66932" lon="-8.1309883"><ele>498.0</ele><time>2026-04-14T08:17:26.839Z</time></trkpt><trkpt lat="42.66924" lon="-8.1307583"><ele>499.66666666666663</ele><time>2026-04-14T08:17:27.839Z</time></trkpt><trkpt lat="42.6691517" lon="-8.1305317"><ele>501.3333333333333</ele><time>2026-04-14T08:17:28.839Z</time></trkpt><trkpt lat="42.6690683" lon="-8.1303083"><ele>503.0</ele><time>2026-04-14T08:17:29.838Z</time></trkpt><trkpt lat="42.668985" lon="-8.1300817"><ele>504.3333333333333</ele><time>2026-04-14T08:17:30.838Z</time></trkpt><trkpt lat="42.6689117" lon="-8.1298517"><ele>505.66666666666663</ele><time>2026-04-14T08:17:31.839Z</time></trkpt><trkpt lat="42.6688417" lon="-8.1296217"><ele>507.0</ele><time>2026-04-14T08:17:32.839Z</time></trkpt><trkpt lat="42.6687717" lon="-8.129395"><ele>507.0</ele><time>2026-04-14T08:17:33.838Z</time></trkpt><trkpt lat="42.6687" lon="-8.1291683"><ele>507.0</ele><time>2026-04-14T08:17:34.838Z</time></trkpt><trkpt lat="42.6686283" lon="-8.1289367"><ele>507.0</ele><time>2026-04-14T08:17:35.839Z</time></trkpt><trkpt lat="42.6685583" lon="-8.12871"><ele>507.0</ele><time>2026-04-14T08:17:36.839Z</time></trkpt><trkpt lat="42.6684867" lon="-8.1284933"><ele>507.0</ele><time>2026-04-14T08:17:37.838Z</time></trkpt><trkpt lat="42.668415" lon="-8.1282833"><ele>507.0</ele><time>2026-04-14T08:17:38.838Z</time></trkpt><trkpt lat="42.6683433" lon="-8.1280867"><ele>507.5</ele><time>2026-04-14T08:17:39.838Z</time></trkpt><trkpt lat="42.6682767" lon="-8.1279017"><ele>508.0</ele><time>2026-04-14T08:17:40.838Z</time></trkpt><trkpt lat="42.6682233" lon="-8.1277317"><ele>508.5</ele><time>2026-04-14T08:17:41.839Z</time></trkpt><trkpt lat="42.6681667" lon="-8.12757"><ele>509.0</ele><time>2026-04-14T08:17:42.838Z</time></trkpt><trkpt lat="42.6681067" lon="-8.1274167"><ele>509.0</ele><time>2026-04-14T08:17:43.839Z</time></trkpt><trkpt lat="42.6680467" lon="-8.1272933"><ele>509.0</ele><time>2026-04-14T08:17:44.839Z</time></trkpt><trkpt lat="42.667975" lon="-8.127185"><ele>509.0</ele><time>2026-04-14T08:17:45.839Z</time></trkpt><trkpt lat="42.6679067" lon="-8.1270983"><ele>509.0</ele><time>2026-04-14T08:17:46.838Z</time></trkpt><trkpt lat="42.66783" lon="-8.1270317"><ele>509.0</ele><time>2026-04-14T08:17:47.839Z</time></trkpt><trkpt lat="42.66776" lon="-8.1269817"><ele>508.49999999999994</ele><time>2026-04-14T08:17:48.838Z</time></trkpt><trkpt lat="42.6677" lon="-8.1269217"><ele>508.0</ele><time>2026-04-14T08:17:49.839Z</time></trkpt><trkpt lat="42.6676567" lon="-8.1268467"><ele>507.5</ele><time>2026-04-14T08:17:50.839Z</time></trkpt><trkpt lat="42.6676217" lon="-8.126765"><ele>507.0</ele><time>2026-04-14T08:17:51.839Z</time></trkpt><trkpt lat="42.6676133" lon="-8.12668"><ele>506.49999999999994</ele><time>2026-04-14T08:17:52.838Z</time></trkpt><trkpt lat="42.66766" lon="-8.1265317"><ele>506.0</ele><time>2026-04-14T08:17:54.838Z</time></trkpt><trkpt lat="42.667725" lon="-8.1263967"><ele>506.99999999999994</ele><time>2026-04-14T08:17:56.839Z</time></trkpt><trkpt lat="42.6677633" lon="-8.126245"><ele>508.0</ele><time>2026-04-14T08:17:58.839Z</time></trkpt><trkpt lat="42.66778" lon="-8.1260983"><ele>509.0</ele><time>2026-04-14T08:18:00.839Z</time></trkpt><trkpt lat="42.6677817" lon="-8.1260083"><ele>510.0</ele><time>2026-04-14T08:18:01.839Z</time></trkpt><trkpt lat="42.6677917" lon="-8.12591"><ele>510.99999999999994</ele><time>2026-04-14T08:18:02.838Z</time></trkpt><trkpt lat="42.6677933" lon="-8.1258133"><ele>512.0</ele><time>2026-04-14T08:18:03.838Z</time></trkpt><trkpt lat="42.6677967" lon="-8.125715"><ele>512.0</ele><time>2026-04-14T08:18:04.839Z</time></trkpt><trkpt lat="42.66779" lon="-8.1256017"><ele>512.0</ele><time>2026-04-14T08:18:05.838Z</time></trkpt><trkpt lat="42.6686283" lon="-8.1289367"><ele>510.3333333333333</ele><time>2026-04-14T08:17:35.839Z</time></trkpt><trkpt lat="42.6685583" lon="-8.12871"><ele>508.66666666666663</ele><time>2026-04-14T08:17:36.839Z</time></trkpt><trkpt lat="42.6684867" lon="-8.1284933"><ele>507.0</ele><time>2026-04-14T08:17:37.838Z</time></trkpt><trkpt lat="42.668415" lon="-8.1282833"><ele>507.5</ele><time>2026-04-14T08:17:38.838Z</time></trkpt><trkpt lat="42.6683433" lon="-8.1280867"><ele>508.0</ele><time>2026-04-14T08:17:39.838Z</time></trkpt><trkpt lat="42.6682767" lon="-8.1279017"><ele>508.5</ele><time>2026-04-14T08:17:40.838Z</time></trkpt><trkpt lat="42.6682233" lon="-8.1277317"><ele>509.0</ele><time>2026-04-14T08:17:41.839Z</time></trkpt><trkpt lat="42.6681667" lon="-8.12757"><ele>509.0</ele><time>2026-04-14T08:17:42.838Z</time></trkpt><trkpt lat="42.6681067" lon="-8.1274167"><ele>509.0</ele><time>2026-04-14T08:17:43.839Z</time></trkpt><trkpt lat="42.6680467" lon="-8.1272933"><ele>509.0</ele><time>2026-04-14T08:17:44.839Z</time></trkpt><trkpt lat="42.667975" lon="-8.127185"><ele>509.0</ele><time>2026-04-14T08:17:45.839Z</time></trkpt><trkpt lat="42.6679067" lon="-8.1270983"><ele>509.0</ele><time>2026-04-14T08:17:46.838Z</time></trkpt><trkpt lat="42.66783" lon="-8.1270317"><ele>508.49999999999994</ele><time>2026-04-14T08:17:47.839Z</time></trkpt><trkpt lat="42.66776" lon="-8.1269817"><ele>508.0</ele><time>2026-04-14T08:17:48.838Z</time></trkpt><trkpt lat="42.6677" lon="-8.1269217"><ele>507.5</ele><time>2026-04-14T08:17:49.839Z</time></trkpt><trkpt lat="42.6676567" lon="-8.1268467"><ele>507.0</ele><time>2026-04-14T08:17:50.839Z</time></trkpt><trkpt lat="42.6676217" lon="-8.126765"><ele>506.49999999999994</ele><time>2026-04-14T08:17:51.839Z</time></trkpt><trkpt lat="42.6676133" lon="-8.12668"><ele>506.0</ele><time>2026-04-14T08:17:52.838Z</time></trkpt><trkpt lat="42.66766" lon="-8.1265317"><ele>507.20000000000005</ele><time>2026-04-14T08:17:54.838Z</time></trkpt><trkpt lat="42.667725" lon="-8.1263967"><ele>508.40000000000003</ele><time>2026-04-14T08:17:56.839Z</time></trkpt><trkpt lat="42.6677633" lon="-8.126245"><ele>509.6</ele><time>2026-04-14T08:17:58.839Z</time></trkpt><trkpt lat="42.66778" lon="-8.1260983"><ele>510.8</ele><time>2026-04-14T08:18:00.839Z</time></trkpt><trkpt lat="42.6677817" lon="-8.1260083"><ele>512.0</ele><time>2026-04-14T08:18:01.839Z</time></trkpt><trkpt lat="42.6677917" lon="-8.12591"><ele>511.99999999999994</ele><time>2026-04-14T08:18:02.838Z</time></trkpt><trkpt lat="42.6677933" lon="-8.1258133"><ele>512.0</ele><time>2026-04-14T08:18:03.838Z</time></trkpt><trkpt lat="42.6677967" lon="-8.125715"><ele>512.0</ele><time>2026-04-14T08:18:04.839Z</time></trkpt><trkpt lat="42.66779" lon="-8.1256017"><ele>512.0</ele><time>2026-04-14T08:18:05.838Z</time></trkpt><trkpt lat="42.6678" lon="-8.1254983"><ele>511.99999999999994</ele><time>2026-04-14T08:18:06.839Z</time></trkpt><trkpt lat="42.667815" lon="-8.1253917"><ele>512.0</ele><time>2026-04-14T08:18:07.838Z</time></trkpt><trkpt lat="42.6678233" lon="-8.1252783"><ele>513.2</ele><time>2026-04-14T08:18:08.838Z</time></trkpt><trkpt lat="42.66783" lon="-8.125165"><ele>514.4000000000001</ele><time>2026-04-14T08:18:09.839Z</time></trkpt><trkpt lat="42.6678333" lon="-8.125045"><ele>515.5999999999999</ele><time>2026-04-14T08:18:10.839Z</time></trkpt><trkpt lat="42.66785" lon="-8.1249117"><ele>516.8</ele><time>2026-04-14T08:18:11.839Z</time></trkpt><trkpt lat="42.6678633" lon="-8.124755"><ele>518.0</ele><time>2026-04-14T08:18:12.839Z</time></trkpt><trkpt lat="42.6678817" lon="-8.1245733"><ele>518.3333333333333</ele><time>2026-04-14T08:18:13.838Z</time></trkpt><trkpt lat="42.667895" lon="-8.1243783"><ele>518.6666666666666</ele><time>2026-04-14T08:18:14.839Z</time></trkpt><trkpt lat="42.6679183" lon="-8.12416"><ele>519.0</ele><time>2026-04-14T08:18:15.839Z</time></trkpt><trkpt lat="42.6679317" lon="-8.1239383"><ele>520.6666666666666</ele><time>2026-04-14T08:18:16.838Z</time></trkpt><trkpt lat="42.6679333" lon="-8.1237"><ele>522.3333333333333</ele><time>2026-04-14T08:18:17.838Z</time></trkpt><trkpt lat="42.66793" lon="-8.12345"><ele>524.0</ele><time>2026-04-14T08:18:18.839Z</time></trkpt><trkpt lat="42.6679317" lon="-8.1231967"><ele>526.0</ele><time>2026-04-14T08:18:19.838Z</time></trkpt><trkpt lat="42.66794" lon="-8.122935"><ele>528.0</ele><time>2026-04-14T08:18:20.838Z</time></trkpt><trkpt lat="42.6679517" lon="-8.1226717"><ele>530.0</ele><time>2026-04-14T08:18:21.838Z</time></trkpt><trkpt lat="42.66797" lon="-8.122405"><ele>531.3333333333333</ele><time>2026-04-14T08:18:22.838Z</time></trkpt><trkpt lat="42.667985" lon="-8.1221383"><ele>532.6666666666666</ele><time>2026-04-14T08:18:23.839Z</time></trkpt><trkpt lat="42.6680083" lon="-8.1218733"><ele>534.0</ele><time>2026-04-14T08:18:24.839Z</time></trkpt><trkpt lat="42.6680267" lon="-8.1216017"><ele>534.6666666666666</ele><time>2026-04-14T08:18:25.838Z</time></trkpt><trkpt lat="42.6680417" lon="-8.12134"><ele>535.3333333333333</ele><time>2026-04-14T08:18:26.839Z</time></trkpt><trkpt lat="42.668065" lon="-8.1210733"><ele>536.0</ele><time>2026-04-14T08:18:27.839Z</time></trkpt><trkpt lat="42.6680817" lon="-8.120805"><ele>537.0</ele><time>2026-04-14T08:18:28.839Z</time></trkpt><trkpt lat="42.6680967" lon="-8.1205517"><ele>538.0</ele><time>2026-04-14T08:18:29.838Z</time></trkpt><trkpt lat="42.6681083" lon="-8.1202883"><ele>539.0</ele><time>2026-04-14T08:18:30.838Z</time></trkpt><trkpt lat="42.6681233" lon="-8.12003"><ele>538.6666666666666</ele><time>2026-04-14T08:18:31.838Z</time></trkpt><trkpt lat="42.6681417" lon="-8.11978"><ele>538.3333333333334</ele><time>2026-04-14T08:18:32.839Z</time></trkpt><trkpt lat="42.6681517" lon="-8.1195583"><ele>538.0</ele><time>2026-04-14T08:18:33.838Z</time></trkpt><trkpt lat="42.66816" lon="-8.119355"><ele>538.0</ele><time>2026-04-14T08:18:34.839Z</time></trkpt><trkpt lat="42.66817" lon="-8.1191633"><ele>538.0</ele><time>2026-04-14T08:18:35.839Z</time></trkpt><trkpt lat="42.66816" lon="-8.1189967"><ele>538.0</ele><time>2026-04-14T08:18:36.839Z</time></trkpt><trkpt lat="42.66815" lon="-8.1188417"><ele>538.0</ele><time>2026-04-14T08:18:37.839Z</time></trkpt><trkpt lat="42.6681517" lon="-8.1186817"><ele>538.0</ele><time>2026-04-14T08:18:38.838Z</time></trkpt><trkpt lat="42.6681717" lon="-8.11852"><ele>538.0</ele><time>2026-04-14T08:18:39.839Z</time></trkpt><trkpt lat="42.6682067" lon="-8.1183417"><ele>538.0</ele><time>2026-04-14T08:18:40.838Z</time></trkpt><trkpt lat="42.66823" lon="-8.1181517"><ele>538.0</ele><time>2026-04-14T08:18:41.839Z</time></trkpt><trkpt lat="42.6682533" lon="-8.1179517"><ele>538.3333333333334</ele><time>2026-04-14T08:18:42.838Z</time></trkpt><trkpt lat="42.6682617" lon="-8.1177383"><ele>538.6666666666666</ele><time>2026-04-14T08:18:43.838Z</time></trkpt><trkpt lat="42.6682733" lon="-8.117515"><ele>539.0</ele><time>2026-04-14T08:18:44.839Z</time></trkpt><trkpt lat="42.6682933" lon="-8.11729"><ele>538.3333333333333</ele><time>2026-04-14T08:18:45.839Z</time></trkpt><trkpt lat="42.6683" lon="-8.1170533"><ele>537.6666666666666</ele><time>2026-04-14T08:18:46.839Z</time></trkpt><trkpt lat="42.6683117" lon="-8.1168067"><ele>537.0</ele><time>2026-04-14T08:18:47.838Z</time></trkpt><trkpt lat="42.668325" lon="-8.116555"><ele>535.6666666666666</ele><time>2026-04-14T08:18:48.839Z</time></trkpt><trkpt lat="42.6683417" lon="-8.116305"><ele>534.3333333333333</ele><time>2026-04-14T08:18:49.839Z</time></trkpt><trkpt lat="42.6683633" lon="-8.116055"><ele>533.0</ele><time>2026-04-14T08:18:50.839Z</time></trkpt><trkpt lat="42.6683783" lon="-8.1157983"><ele>531.0</ele><time>2026-04-14T08:18:51.838Z</time></trkpt><trkpt lat="42.66839" lon="-8.1155383"><ele>529.0</ele><time>2026-04-14T08:18:52.839Z</time></trkpt><trkpt lat="42.668405" lon="-8.1152817"><ele>527.0</ele><time>2026-04-14T08:18:53.838Z</time></trkpt><trkpt lat="42.6684233" lon="-8.1150267"><ele>528.0</ele><time>2026-04-14T08:18:54.838Z</time></trkpt><trkpt lat="42.6684333" lon="-8.114775"><ele>529.0</ele><time>2026-04-14T08:18:55.838Z</time></trkpt><trkpt lat="42.66845" lon="-8.1145267"><ele>530.0</ele><time>2026-04-14T08:18:56.839Z</time></trkpt><trkpt lat="42.6684733" lon="-8.1142767"><ele>532.0</ele><time>2026-04-14T08:18:57.838Z</time></trkpt><trkpt lat="42.6685017" lon="-8.11403"><ele>534.0</ele><time>2026-04-14T08:18:58.839Z</time></trkpt><trkpt lat="42.668545" lon="-8.1137867"><ele>536.0</ele><time>2026-04-14T08:18:59.838Z</time></trkpt><trkpt lat="42.6686033" lon="-8.1135417"><ele>539.3333333333333</ele><time>2026-04-14T08:19:00.839Z</time></trkpt><trkpt lat="42.6686867" lon="-8.1133033"><ele>542.6666666666666</ele><time>2026-04-14T08:19:01.838Z</time></trkpt><trkpt lat="42.6687783" lon="-8.1130717"><ele>546.0</ele><time>2026-04-14T08:19:02.838Z</time></trkpt><trkpt lat="42.66886" lon="-8.1128417"><ele>547.6666666666666</ele><time>2026-04-14T08:19:03.838Z</time></trkpt><trkpt lat="42.6689433" lon="-8.1126133"><ele>549.3333333333333</ele><time>2026-04-14T08:19:04.839Z</time></trkpt><trkpt lat="42.6690283" lon="-8.1123933"><ele>551.0</ele><time>2026-04-14T08:19:05.839Z</time></trkpt><trkpt lat="42.6690967" lon="-8.1121967"><ele>553.75</ele><time>2026-04-14T08:19:06.838Z</time></trkpt><trkpt lat="42.6691483" lon="-8.1120117"><ele>556.5</ele><time>2026-04-14T08:19:07.838Z</time></trkpt><trkpt lat="42.6692" lon="-8.1118417"><ele>559.25</ele><time>2026-04-14T08:19:08.838Z</time></trkpt><trkpt lat="42.66927" lon="-8.1116633"><ele>562.0</ele><time>2026-04-14T08:19:09.839Z</time></trkpt><trkpt lat="42.6693633" lon="-8.1114983"><ele>568.3333333333334</ele><time>2026-04-14T08:19:10.838Z</time></trkpt><trkpt lat="42.6694433" lon="-8.1113233"><ele>574.6666666666666</ele><time>2026-04-14T08:19:11.838Z</time></trkpt><trkpt lat="42.66953" lon="-8.1111433"><ele>581.0</ele><time>2026-04-14T08:19:12.839Z</time></trkpt><trkpt lat="42.66961" lon="-8.1109533"><ele>581.0</ele><time>2026-04-14T08:19:13.838Z</time></trkpt><trkpt lat="42.6696917" lon="-8.11076"><ele>581.0</ele><time>2026-04-14T08:19:14.839Z</time></trkpt><trkpt lat="42.66975" lon="-8.1105417"><ele>581.0</ele><time>2026-04-14T08:19:15.839Z</time></trkpt><trkpt lat="42.669805" lon="-8.1103133"><ele>581.6666666666666</ele><time>2026-04-14T08:19:16.839Z</time></trkpt><trkpt lat="42.6698433" lon="-8.1100667"><ele>582.3333333333334</ele><time>2026-04-14T08:19:17.839Z</time></trkpt><trkpt lat="42.6698733" lon="-8.1098167"><ele>583.0</ele><time>2026-04-14T08:19:18.839Z</time></trkpt><trkpt lat="42.66991" lon="-8.1095633"><ele>584.3333333333334</ele><time>2026-04-14T08:19:19.839Z</time></trkpt><trkpt lat="42.6699417" lon="-8.1093117"><ele>585.6666666666666</ele><time>2026-04-14T08:19:20.839Z</time></trkpt><trkpt lat="42.66997" lon="-8.1090483"><ele>587.0</ele><time>2026-04-14T08:19:21.839Z</time></trkpt><trkpt lat="42.6700033" lon="-8.10879"><ele>587.0</ele><time>2026-04-14T08:19:22.838Z</time></trkpt><trkpt lat="42.6700467" lon="-8.1085333"><ele>587.0</ele><time>2026-04-14T08:19:23.839Z</time></trkpt><trkpt lat="42.6700783" lon="-8.1082783"><ele>587.0</ele><time>2026-04-14T08:19:24.839Z</time></trkpt><trkpt lat="42.6701083" lon="-8.1080233"><ele>587.3333333333333</ele><time>2026-04-14T08:19:25.839Z</time></trkpt><trkpt lat="42.6701367" lon="-8.1077767"><ele>587.6666666666666</ele><time>2026-04-14T08:19:26.838Z</time></trkpt><trkpt lat="42.6701617" lon="-8.1075367"><ele>588.0</ele><time>2026-04-14T08:19:27.838Z</time></trkpt><trkpt lat="42.6701783" lon="-8.1073167"><ele>587.5</ele><time>2026-04-14T08:19:28.839Z</time></trkpt><trkpt lat="42.6701817" lon="-8.107105"><ele>587.0</ele><time>2026-04-14T08:19:29.838Z</time></trkpt><trkpt lat="42.67017" lon="-8.10692"><ele>586.5</ele><time>2026-04-14T08:19:30.839Z</time></trkpt><trkpt lat="42.6701483" lon="-8.1067367"><ele>586.0</ele><time>2026-04-14T08:19:31.838Z</time></trkpt><trkpt lat="42.6701183" lon="-8.10656"><ele>551.0</ele><time>2026-04-14T08:19:32.839Z</time></trkpt><trkpt lat="42.6687783" lon="-8.1130717"><ele>551.0</ele><time>2026-04-14T08:19:02.838Z</time></trkpt><trkpt lat="42.66886" lon="-8.1128417"><ele>551.0</ele><time>2026-04-14T08:19:03.838Z</time></trkpt><trkpt lat="42.6689433" lon="-8.1126133"><ele>551.0</ele><time>2026-04-14T08:19:04.839Z</time></trkpt><trkpt lat="42.6690283" lon="-8.1123933"><ele>553.75</ele><time>2026-04-14T08:19:05.839Z</time></trkpt><trkpt lat="42.6690967" lon="-8.1121967"><ele>556.5</ele><time>2026-04-14T08:19:06.838Z</time></trkpt><trkpt lat="42.6691483" lon="-8.1120117"><ele>559.25</ele><time>2026-04-14T08:19:07.838Z</time></trkpt><trkpt lat="42.6692" lon="-8.1118417"><ele>562.0</ele><time>2026-04-14T08:19:08.838Z</time></trkpt><trkpt lat="42.66927" lon="-8.1116633"><ele>565.3333333333334</ele><time>2026-04-14T08:19:09.839Z</time></trkpt><trkpt lat="42.6693633" lon="-8.1114983"><ele>568.6666666666666</ele><time>2026-04-14T08:19:10.838Z</time></trkpt><trkpt lat="42.6694433" lon="-8.1113233"><ele>572.0</ele><time>2026-04-14T08:19:11.838Z</time></trkpt><trkpt lat="42.66953" lon="-8.1111433"><ele>575.0</ele><time>2026-04-14T08:19:12.839Z</time></trkpt><trkpt lat="42.66961" lon="-8.1109533"><ele>578.0</ele><time>2026-04-14T08:19:13.838Z</time></trkpt><trkpt lat="42.6696917" lon="-8.11076"><ele>581.0</ele><time>2026-04-14T08:19:14.839Z</time></trkpt><trkpt lat="42.66975" lon="-8.1105417"><ele>581.6666666666666</ele><time>2026-04-14T08:19:15.839Z</time></trkpt><trkpt lat="42.669805" lon="-8.1103133"><ele>582.3333333333334</ele><time>2026-04-14T08:19:16.839Z</time></trkpt><trkpt lat="42.6698433" lon="-8.1100667"><ele>583.0</ele><time>2026-04-14T08:19:17.839Z</time></trkpt><trkpt lat="42.6698733" lon="-8.1098167"><ele>584.3333333333334</ele><time>2026-04-14T08:19:18.839Z</time></trkpt><trkpt lat="42.66991" lon="-8.1095633"><ele>585.6666666666666</ele><time>2026-04-14T08:19:19.839Z</time></trkpt><trkpt lat="42.6699417" lon="-8.1093117"><ele>587.0</ele><time>2026-04-14T08:19:20.839Z</time></trkpt><trkpt lat="42.66997" lon="-8.1090483"><ele>587.0</ele><time>2026-04-14T08:19:21.839Z</time></trkpt><trkpt lat="42.6700033" lon="-8.10879"><ele>587.0</ele><time>2026-04-14T08:19:22.838Z</time></trkpt><trkpt lat="42.6700467" lon="-8.1085333"><ele>587.0</ele><time>2026-04-14T08:19:23.839Z</time></trkpt><trkpt lat="42.6700783" lon="-8.1082783"><ele>587.3333333333333</ele><time>2026-04-14T08:19:24.839Z</time></trkpt><trkpt lat="42.6701083" lon="-8.1080233"><ele>587.6666666666666</ele><time>2026-04-14T08:19:25.839Z</time></trkpt><trkpt lat="42.6701367" lon="-8.1077767"><ele>588.0</ele><time>2026-04-14T08:19:26.838Z</time></trkpt><trkpt lat="42.6701617" lon="-8.1075367"><ele>587.3333333333334</ele><time>2026-04-14T08:19:27.838Z</time></trkpt><trkpt lat="42.6701783" lon="-8.1073167"><ele>586.6666666666667</ele><time>2026-04-14T08:19:28.839Z</time></trkpt><trkpt lat="42.6701817" lon="-8.107105"><ele>586.0</ele><time>2026-04-14T08:19:29.838Z</time></trkpt><trkpt lat="42.67017" lon="-8.10692"><ele>586.0</ele><time>2026-04-14T08:19:30.839Z</time></trkpt><trkpt lat="42.6701483" lon="-8.1067367"><ele>586.0</ele><time>2026-04-14T08:19:31.838Z</time></trkpt><trkpt lat="42.6701183" lon="-8.10656"><ele>586.0</ele><time>2026-04-14T08:19:32.839Z</time></trkpt><trkpt lat="42.6700967" lon="-8.1063717"><ele>586.0</ele><time>2026-04-14T08:19:33.838Z</time></trkpt><trkpt lat="42.6700617" lon="-8.1061967"><ele>585.5</ele><time>2026-04-14T08:19:34.839Z</time></trkpt><trkpt lat="42.6700233" lon="-8.106045"><ele>585.0</ele><time>2026-04-14T08:19:35.838Z</time></trkpt><trkpt lat="42.6699633" lon="-8.1059133"><ele>584.5</ele><time>2026-04-14T08:19:36.839Z</time></trkpt><trkpt lat="42.6698983" lon="-8.1057933"><ele>584.0</ele><time>2026-04-14T08:19:37.838Z</time></trkpt><trkpt lat="42.6698283" lon="-8.10568"><ele>583.5</ele><time>2026-04-14T08:19:38.838Z</time></trkpt><trkpt lat="42.6697533" lon="-8.1055533"><ele>583.0</ele><time>2026-04-14T08:19:39.839Z</time></trkpt><trkpt lat="42.6696717" lon="-8.1054167"><ele>582.5</ele><time>2026-04-14T08:19:40.838Z</time></trkpt><trkpt lat="42.6695933" lon="-8.1052833"><ele>582.0</ele><time>2026-04-14T08:19:41.839Z</time></trkpt><trkpt lat="42.6695117" lon="-8.1051483"><ele>579.25</ele><time>2026-04-14T08:19:42.838Z</time></trkpt><trkpt lat="42.669415" lon="-8.1050183"><ele>576.5</ele><time>2026-04-14T08:19:43.839Z</time></trkpt><trkpt lat="42.6693183" lon="-8.1048933"><ele>573.75</ele><time>2026-04-14T08:19:44.838Z</time></trkpt><trkpt lat="42.6692117" lon="-8.1047683"><ele>571.0</ele><time>2026-04-14T08:19:45.838Z</time></trkpt><trkpt lat="42.66909" lon="-8.1046417"><ele>571.0</ele><time>2026-04-14T08:19:46.838Z</time></trkpt><trkpt lat="42.6689667" lon="-8.104515"><ele>571.0</ele><time>2026-04-14T08:19:47.838Z</time></trkpt><trkpt lat="42.6688283" lon="-8.1043933"><ele>571.0</ele><time>2026-04-14T08:19:48.838Z</time></trkpt><trkpt lat="42.6686683" lon="-8.1042767"><ele>568.0</ele><time>2026-04-14T08:19:49.838Z</time></trkpt><trkpt lat="42.6685033" lon="-8.10418"><ele>565.0</ele><time>2026-04-14T08:19:50.839Z</time></trkpt><trkpt lat="42.6683433" lon="-8.104095"><ele>562.0</ele><time>2026-04-14T08:19:51.838Z</time></trkpt><trkpt lat="42.668195" lon="-8.104015"><ele>560.75</ele><time>2026-04-14T08:19:52.839Z</time></trkpt><trkpt lat="42.6680517" lon="-8.1039583"><ele>559.5</ele><time>2026-04-14T08:19:53.839Z</time></trkpt><trkpt lat="42.66791" lon="-8.1039167"><ele>558.25</ele><time>2026-04-14T08:19:54.839Z</time></trkpt><trkpt lat="42.6677667" lon="-8.1038767"><ele>557.0</ele><time>2026-04-14T08:19:55.839Z</time></trkpt><trkpt lat="42.66763" lon="-8.1038483"><ele>556.8000000000001</ele><time>2026-04-14T08:19:56.838Z</time></trkpt><trkpt lat="42.6675117" lon="-8.1038417"><ele>556.6</ele><time>2026-04-14T08:19:57.839Z</time></trkpt><trkpt lat="42.6674233" lon="-8.10386"><ele>556.4000000000001</ele><time>2026-04-14T08:19:58.838Z</time></trkpt><trkpt lat="42.6673317" lon="-8.10391"><ele>556.2</ele><time>2026-04-14T08:19:59.839Z</time></trkpt><trkpt lat="42.6672533" lon="-8.1039717"><ele>556.0</ele><time>2026-04-14T08:20:00.839Z</time></trkpt><trkpt lat="42.6671817" lon="-8.10401"><ele>556.0</ele><time>2026-04-14T08:20:01.84Z</time></trkpt><trkpt lat="42.667105" lon="-8.104015"><ele>556.0</ele><time>2026-04-14T08:20:02.84Z</time></trkpt><trkpt lat="42.667025" lon="-8.103985"><ele>556.0</ele><time>2026-04-14T08:20:03.84Z</time></trkpt><trkpt lat="42.6669483" lon="-8.1039317"><ele>556.0</ele><time>2026-04-14T08:20:04.839Z</time></trkpt><trkpt lat="42.6668733" lon="-8.1038533"><ele>556.0</ele><time>2026-04-14T08:20:05.839Z</time></trkpt><trkpt lat="42.6667833" lon="-8.10378"><ele>556.0</ele><time>2026-04-14T08:20:06.84Z</time></trkpt><trkpt lat="42.6666717" lon="-8.1037233"><ele>555.3333333333334</ele><time>2026-04-14T08:20:07.84Z</time></trkpt><trkpt lat="42.6665383" lon="-8.103695"><ele>554.6666666666666</ele><time>2026-04-14T08:20:08.839Z</time></trkpt><trkpt lat="42.6663883" lon="-8.1036733"><ele>554.0</ele><time>2026-04-14T08:20:09.839Z</time></trkpt><trkpt lat="42.6662217" lon="-8.10365"><ele>554.6666666666666</ele><time>2026-04-14T08:20:10.839Z</time></trkpt><trkpt lat="42.6660467" lon="-8.1036233"><ele>555.3333333333334</ele><time>2026-04-14T08:20:11.839Z</time></trkpt><trkpt lat="42.6658717" lon="-8.1036033"><ele>556.0</ele><time>2026-04-14T08:20:12.839Z</time></trkpt><trkpt lat="42.6656883" lon="-8.10358"><ele>556.0</ele><time>2026-04-14T08:20:13.84Z</time></trkpt><trkpt lat="42.6655083" lon="-8.1035567"><ele>556.0</ele><time>2026-04-14T08:20:14.839Z</time></trkpt><trkpt lat="42.66532" lon="-8.1035567"><ele>556.0</ele><time>2026-04-14T08:20:15.839Z</time></trkpt><trkpt lat="42.665135" lon="-8.1035617"><ele>555.6666666666667</ele><time>2026-04-14T08:20:16.84Z</time></trkpt><trkpt lat="42.664955" lon="-8.1035833"><ele>555.3333333333334</ele><time>2026-04-14T08:20:17.84Z</time></trkpt><trkpt lat="42.6647817" lon="-8.1036217"><ele>555.0</ele><time>2026-04-14T08:20:18.84Z</time></trkpt><trkpt lat="42.6646017" lon="-8.10368"><ele>555.6666666666666</ele><time>2026-04-14T08:20:19.839Z</time></trkpt><trkpt lat="42.6644233" lon="-8.1037533"><ele>556.3333333333333</ele><time>2026-04-14T08:20:20.84Z</time></trkpt><trkpt lat="42.6642517" lon="-8.10384"><ele>557.0</ele><time>2026-04-14T08:20:21.84Z</time></trkpt><trkpt lat="42.6640867" lon="-8.103935"><ele>557.0</ele><time>2026-04-14T08:20:22.839Z</time></trkpt><trkpt lat="42.6639183" lon="-8.104045"><ele>557.0</ele><time>2026-04-14T08:20:23.839Z</time></trkpt><trkpt lat="42.66376" lon="-8.1041633"><ele>557.0</ele><time>2026-04-14T08:20:24.839Z</time></trkpt><trkpt lat="42.6636167" lon="-8.10429"><ele>556.6666666666666</ele><time>2026-04-14T08:20:25.84Z</time></trkpt><trkpt lat="42.663475" lon="-8.10442"><ele>556.3333333333334</ele><time>2026-04-14T08:20:26.839Z</time></trkpt><trkpt lat="42.6633317" lon="-8.10455"><ele>556.0</ele><time>2026-04-14T08:20:27.839Z</time></trkpt><trkpt lat="42.6631817" lon="-8.10468"><ele>556.0</ele><time>2026-04-14T08:20:28.839Z</time></trkpt><trkpt lat="42.66304" lon="-8.104815"><ele>556.0</ele><time>2026-04-14T08:20:29.839Z</time></trkpt><trkpt lat="42.662905" lon="-8.104945"><ele>556.0</ele><time>2026-04-14T08:20:30.839Z</time></trkpt><trkpt lat="42.662775" lon="-8.105065"><ele>558.6666666666667</ele><time>2026-04-14T08:20:31.839Z</time></trkpt><trkpt lat="42.6626367" lon="-8.10517"><ele>561.3333333333334</ele><time>2026-04-14T08:20:32.839Z</time></trkpt><trkpt lat="42.6624983" lon="-8.105265"><ele>564.0</ele><time>2026-04-14T08:20:33.839Z</time></trkpt><trkpt lat="42.6623633" lon="-8.1053333"><ele>564.0</ele><time>2026-04-14T08:20:34.84Z</time></trkpt><trkpt lat="42.6622433" lon="-8.1053767"><ele>564.0</ele><time>2026-04-14T08:20:35.839Z</time></trkpt><trkpt lat="42.662125" lon="-8.1054217"><ele>564.0</ele><time>2026-04-14T08:20:36.84Z</time></trkpt><trkpt lat="42.662025" lon="-8.1054617"><ele>564.0</ele><time>2026-04-14T08:20:37.839Z</time></trkpt><trkpt lat="42.6619317" lon="-8.105495"><ele>564.0</ele><time>2026-04-14T08:20:38.839Z</time></trkpt><trkpt lat="42.6618533" lon="-8.10551"><ele>566.8</ele><time>2026-04-14T08:20:39.839Z</time></trkpt><trkpt lat="42.66179" lon="-8.105515"><ele>569.5999999999999</ele><time>2026-04-14T08:20:40.839Z</time></trkpt><trkpt lat="42.661705" lon="-8.1054433"><ele>572.4</ele><time>2026-04-14T08:20:42.839Z</time></trkpt><trkpt lat="42.6617117" lon="-8.1053017"><ele>575.1999999999999</ele><time>2026-04-14T08:20:44.84Z</time></trkpt><trkpt lat="42.6617583" lon="-8.1052017"><ele>578.0</ele><time>2026-04-14T08:20:45.839Z</time></trkpt><trkpt lat="42.6617967" lon="-8.1050833"><ele>578.0</ele><time>2026-04-14T08:20:46.839Z</time></trkpt><trkpt lat="42.6618217" lon="-8.1049467"><ele>578.0</ele><time>2026-04-14T08:20:47.84Z</time></trkpt><trkpt lat="42.661835" lon="-8.1047933"><ele>578.0</ele><time>2026-04-14T08:20:48.84Z</time></trkpt><trkpt lat="42.6618417" lon="-8.1046317"><ele>578.0</ele><time>2026-04-14T08:20:49.839Z</time></trkpt><trkpt lat="42.6618317" lon="-8.1044483"><ele>578.3333333333333</ele><time>2026-04-14T08:20:50.84Z</time></trkpt><trkpt lat="42.661805" lon="-8.1042483"><ele>578.6666666666666</ele><time>2026-04-14T08:20:51.839Z</time></trkpt><trkpt lat="42.6617583" lon="-8.10404"><ele>579.0</ele><time>2026-04-14T08:20:52.839Z</time></trkpt><trkpt lat="42.6617117" lon="-8.1038267"><ele>579.3333333333334</ele><time>2026-04-14T08:20:53.84Z</time></trkpt><trkpt lat="42.6616667" lon="-8.1036117"><ele>579.6666666666667</ele><time>2026-04-14T08:20:54.84Z</time></trkpt><trkpt lat="42.6616267" lon="-8.1033867"><ele>580.0</ele><time>2026-04-14T08:20:55.839Z</time></trkpt><trkpt lat="42.6615783" lon="-8.10316"><ele>580.6666666666667</ele><time>2026-04-14T08:20:56.839Z</time></trkpt><trkpt lat="42.661535" lon="-8.102935"><ele>581.3333333333334</ele><time>2026-04-14T08:20:57.839Z</time></trkpt><trkpt lat="42.6614933" lon="-8.102705"><ele>582.0</ele><time>2026-04-14T08:20:58.839Z</time></trkpt><trkpt lat="42.6614567" lon="-8.1024733"><ele>556.0</ele><time>2026-04-14T08:20:59.839Z</time></trkpt><trkpt lat="42.66304" lon="-8.104815"><ele>556.3333333333334</ele><time>2026-04-14T08:20:29.839Z</time></trkpt><trkpt lat="42.662905" lon="-8.104945"><ele>556.6666666666666</ele><time>2026-04-14T08:20:30.839Z</time></trkpt><trkpt lat="42.662775" lon="-8.105065"><ele>557.0</ele><time>2026-04-14T08:20:31.839Z</time></trkpt><trkpt lat="42.6626367" lon="-8.10517"><ele>558.75</ele><time>2026-04-14T08:20:32.839Z</time></trkpt><trkpt lat="42.6624983" lon="-8.105265"><ele>560.5</ele><time>2026-04-14T08:20:33.839Z</time></trkpt><trkpt lat="42.6623633" lon="-8.1053333"><ele>562.25</ele><time>2026-04-14T08:20:34.84Z</time></trkpt><trkpt lat="42.6622433" lon="-8.1053767"><ele>564.0</ele><time>2026-04-14T08:20:35.839Z</time></trkpt><trkpt lat="42.662125" lon="-8.1054217"><ele>564.0</ele><time>2026-04-14T08:20:36.84Z</time></trkpt><trkpt lat="42.662025" lon="-8.1054617"><ele>564.0</ele><time>2026-04-14T08:20:37.839Z</time></trkpt><trkpt lat="42.6619317" lon="-8.105495"><ele>564.0</ele><time>2026-04-14T08:20:38.839Z</time></trkpt><trkpt lat="42.6618533" lon="-8.10551"><ele>564.0</ele><time>2026-04-14T08:20:39.839Z</time></trkpt><trkpt lat="42.66179" lon="-8.105515"><ele>564.0</ele><time>2026-04-14T08:20:40.839Z</time></trkpt><trkpt lat="42.661705" lon="-8.1054433"><ele>564.0</ele><time>2026-04-14T08:20:42.839Z</time></trkpt><trkpt lat="42.6617117" lon="-8.1053017"><ele>566.8</ele><time>2026-04-14T08:20:44.84Z</time></trkpt><trkpt lat="42.6617583" lon="-8.1052017"><ele>569.5999999999999</ele><time>2026-04-14T08:20:45.839Z</time></trkpt><trkpt lat="42.6617967" lon="-8.1050833"><ele>572.4</ele><time>2026-04-14T08:20:46.839Z</time></trkpt><trkpt lat="42.6618217" lon="-8.1049467"><ele>575.1999999999999</ele><time>2026-04-14T08:20:47.84Z</time></trkpt><trkpt lat="42.661835" lon="-8.1047933"><ele>578.0</ele><time>2026-04-14T08:20:48.84Z</time></trkpt><trkpt lat="42.6618417" lon="-8.1046317"><ele>578.25</ele><time>2026-04-14T08:20:49.839Z</time></trkpt><trkpt lat="42.6618317" lon="-8.1044483"><ele>578.5</ele><time>2026-04-14T08:20:50.84Z</time></trkpt><trkpt lat="42.661805" lon="-8.1042483"><ele>578.75</ele><time>2026-04-14T08:20:51.839Z</time></trkpt><trkpt lat="42.6617583" lon="-8.10404"><ele>579.0</ele><time>2026-04-14T08:20:52.839Z</time></trkpt><trkpt lat="42.6617117" lon="-8.1038267"><ele>579.3333333333334</ele><time>2026-04-14T08:20:53.84Z</time></trkpt><trkpt lat="42.6616667" lon="-8.1036117"><ele>579.6666666666667</ele><time>2026-04-14T08:20:54.84Z</time></trkpt><trkpt lat="42.6616267" lon="-8.1033867"><ele>580.0</ele><time>2026-04-14T08:20:55.839Z</time></trkpt><trkpt lat="42.6615783" lon="-8.10316"><ele>580.6666666666667</ele><time>2026-04-14T08:20:56.839Z</time></trkpt><trkpt lat="42.661535" lon="-8.102935"><ele>581.3333333333334</ele><time>2026-04-14T08:20:57.839Z</time></trkpt><trkpt lat="42.6614933" lon="-8.102705"><ele>582.0</ele><time>2026-04-14T08:20:58.839Z</time></trkpt><trkpt lat="42.6614567" lon="-8.1024733"><ele>583.6666666666666</ele><time>2026-04-14T08:20:59.839Z</time></trkpt><trkpt lat="42.6614217" lon="-8.1022417"><ele>585.3333333333333</ele><time>2026-04-14T08:21:00.84Z</time></trkpt><trkpt lat="42.6613933" lon="-8.1020167"><ele>587.0</ele><time>2026-04-14T08:21:01.839Z</time></trkpt><trkpt lat="42.6613583" lon="-8.1018183"><ele>587.0</ele><time>2026-04-14T08:21:02.84Z</time></trkpt><trkpt lat="42.6613567" lon="-8.1016467"><ele>587.0</ele><time>2026-04-14T08:21:03.839Z</time></trkpt><trkpt lat="42.661385" lon="-8.1014917"><ele>587.0</ele><time>2026-04-14T08:21:04.84Z</time></trkpt><trkpt lat="42.661455" lon="-8.1013517"><ele>587.0</ele><time>2026-04-14T08:21:05.839Z</time></trkpt><trkpt lat="42.6615483" lon="-8.1012467"><ele>588.25</ele><time>2026-04-14T08:21:06.839Z</time></trkpt><trkpt lat="42.6616567" lon="-8.1011467"><ele>589.5</ele><time>2026-04-14T08:21:07.84Z</time></trkpt><trkpt lat="42.6617883" lon="-8.1010717"><ele>590.75</ele><time>2026-04-14T08:21:08.84Z</time></trkpt><trkpt lat="42.6619217" lon="-8.101005"><ele>592.0</ele><time>2026-04-14T08:21:09.84Z</time></trkpt><trkpt lat="42.662075" lon="-8.100925"><ele>592.0</ele><time>2026-04-14T08:21:10.84Z</time></trkpt><trkpt lat="42.6622183" lon="-8.1008283"><ele>592.0</ele><time>2026-04-14T08:21:11.839Z</time></trkpt><trkpt lat="42.6623567" lon="-8.1007083"><ele>592.0</ele><time>2026-04-14T08:21:12.839Z</time></trkpt><trkpt lat="42.6624783" lon="-8.100565"><ele>594.6666666666667</ele><time>2026-04-14T08:21:13.84Z</time></trkpt><trkpt lat="42.6625733" lon="-8.10038"><ele>597.3333333333334</ele><time>2026-04-14T08:21:14.84Z</time></trkpt><trkpt lat="42.66264" lon="-8.1001683"><ele>600.0</ele><time>2026-04-14T08:21:15.839Z</time></trkpt><trkpt lat="42.6627133" lon="-8.0999533"><ele>600.0</ele><time>2026-04-14T08:21:16.84Z</time></trkpt><trkpt lat="42.66279" lon="-8.0997333"><ele>600.0</ele><time>2026-04-14T08:21:17.839Z</time></trkpt><trkpt lat="42.6628783" lon="-8.0995017"><ele>600.0</ele><time>2026-04-14T08:21:18.84Z</time></trkpt><trkpt lat="42.6629567" lon="-8.0992733"><ele>601.0</ele><time>2026-04-14T08:21:19.84Z</time></trkpt><trkpt lat="42.663035" lon="-8.099045"><ele>602.0</ele><time>2026-04-14T08:21:20.84Z</time></trkpt><trkpt lat="42.66312" lon="-8.098815"><ele>603.0</ele><time>2026-04-14T08:21:21.839Z</time></trkpt><trkpt lat="42.6631933" lon="-8.09859"><ele>603.0</ele><time>2026-04-14T08:21:22.839Z</time></trkpt><trkpt lat="42.66325" lon="-8.0983667"><ele>603.0</ele><time>2026-04-14T08:21:23.84Z</time></trkpt><trkpt lat="42.6632967" lon="-8.0981367"><ele>603.0</ele><time>2026-04-14T08:21:24.84Z</time></trkpt><trkpt lat="42.6632917" lon="-8.0979017"><ele>604.0</ele><time>2026-04-14T08:21:25.839Z</time></trkpt><trkpt lat="42.6632683" lon="-8.0976617"><ele>605.0</ele><time>2026-04-14T08:21:26.84Z</time></trkpt><trkpt lat="42.66326" lon="-8.09742"><ele>606.0</ele><time>2026-04-14T08:21:27.84Z</time></trkpt><trkpt lat="42.663255" lon="-8.0971867"><ele>606.25</ele><time>2026-04-14T08:21:28.839Z</time></trkpt><trkpt lat="42.66323" lon="-8.0969683"><ele>606.5</ele><time>2026-04-14T08:21:29.84Z</time></trkpt><trkpt lat="42.6631817" lon="-8.09679"><ele>606.75</ele><time>2026-04-14T08:21:30.839Z</time></trkpt><trkpt lat="42.6631067" lon="-8.096665"><ele>607.0</ele><time>2026-04-14T08:21:31.84Z</time></trkpt><trkpt lat="42.663005" lon="-8.09658"><ele>606.5</ele><time>2026-04-14T08:21:32.84Z</time></trkpt><trkpt lat="42.662875" lon="-8.0965183"><ele>606.0</ele><time>2026-04-14T08:21:33.84Z</time></trkpt><trkpt lat="42.6627333" lon="-8.0964567"><ele>605.5</ele><time>2026-04-14T08:21:34.839Z</time></trkpt><trkpt lat="42.662595" lon="-8.0963833"><ele>605.0</ele><time>2026-04-14T08:21:35.84Z</time></trkpt><trkpt lat="42.6624517" lon="-8.0963"><ele>608.0</ele><time>2026-04-14T08:21:36.84Z</time></trkpt><trkpt lat="42.6623" lon="-8.09622"><ele>611.0</ele><time>2026-04-14T08:21:37.84Z</time></trkpt><trkpt lat="42.662155" lon="-8.0961183"><ele>614.0</ele><time>2026-04-14T08:21:38.839Z</time></trkpt><trkpt lat="42.6620033" lon="-8.096005"><ele>617.0</ele><time>2026-04-14T08:21:39.84Z</time></trkpt><trkpt lat="42.6618517" lon="-8.095895"><ele>620.0</ele><time>2026-04-14T08:21:40.839Z</time></trkpt><trkpt lat="42.6616967" lon="-8.0957683"><ele>623.0</ele><time>2026-04-14T08:21:41.839Z</time></trkpt><trkpt lat="42.661545" lon="-8.0956317"><ele>623.0</ele><time>2026-04-14T08:21:42.839Z</time></trkpt><trkpt lat="42.6614" lon="-8.09549"><ele>623.0</ele><time>2026-04-14T08:21:43.84Z</time></trkpt><trkpt lat="42.661245" lon="-8.0953417"><ele>623.0</ele><time>2026-04-14T08:21:44.839Z</time></trkpt><trkpt lat="42.6610833" lon="-8.0952167"><ele>624.6666666666666</ele><time>2026-04-14T08:21:45.84Z</time></trkpt><trkpt lat="42.6609217" lon="-8.095075"><ele>626.3333333333334</ele><time>2026-04-14T08:21:46.839Z</time></trkpt><trkpt lat="42.66076" lon="-8.094935"><ele>628.0</ele><time>2026-04-14T08:21:47.84Z</time></trkpt><trkpt lat="42.660595" lon="-8.0947983"><ele>628.0</ele><time>2026-04-14T08:21:48.84Z</time></trkpt><trkpt lat="42.6604333" lon="-8.0946567"><ele>628.0</ele><time>2026-04-14T08:21:49.84Z</time></trkpt><trkpt lat="42.66026" lon="-8.0945133"><ele>628.0</ele><time>2026-04-14T08:21:50.84Z</time></trkpt><trkpt lat="42.6600783" lon="-8.0943617"><ele>631.6666666666667</ele><time>2026-04-14T08:21:51.84Z</time></trkpt><trkpt lat="42.6599067" lon="-8.0942183"><ele>635.3333333333334</ele><time>2026-04-14T08:21:52.84Z</time></trkpt><trkpt lat="42.65974" lon="-8.09406"><ele>639.0</ele><time>2026-04-14T08:21:53.839Z</time></trkpt><trkpt lat="42.6595917" lon="-8.0938917"><ele>642.3333333333334</ele><time>2026-04-14T08:21:54.839Z</time></trkpt><trkpt lat="42.65944" lon="-8.093715"><ele>645.6666666666667</ele><time>2026-04-14T08:21:55.839Z</time></trkpt><trkpt lat="42.6593" lon="-8.0935317"><ele>649.0</ele><time>2026-04-14T08:21:56.839Z</time></trkpt><trkpt lat="42.659175" lon="-8.0933317"><ele>650.6666666666667</ele><time>2026-04-14T08:21:57.839Z</time></trkpt><trkpt lat="42.6590517" lon="-8.09313"><ele>652.3333333333334</ele><time>2026-04-14T08:21:58.839Z</time></trkpt><trkpt lat="42.6589167" lon="-8.0929283"><ele>654.0</ele><time>2026-04-14T08:21:59.839Z</time></trkpt><trkpt lat="42.658785" lon="-8.0927217"><ele>654.0</ele><time>2026-04-14T08:22:00.84Z</time></trkpt><trkpt lat="42.65865" lon="-8.09251"><ele>654.0</ele><time>2026-04-14T08:22:01.84Z</time></trkpt><trkpt lat="42.6585133" lon="-8.0922917"><ele>654.0</ele><time>2026-04-14T08:22:02.839Z</time></trkpt><trkpt lat="42.6583783" lon="-8.09206"><ele>655.6666666666666</ele><time>2026-04-14T08:22:03.84Z</time></trkpt><trkpt lat="42.6582433" lon="-8.091835"><ele>657.3333333333333</ele><time>2026-04-14T08:22:04.839Z</time></trkpt><trkpt lat="42.65811" lon="-8.0916133"><ele>659.0</ele><time>2026-04-14T08:22:05.84Z</time></trkpt><trkpt lat="42.6579733" lon="-8.0913933"><ele>659.0</ele><time>2026-04-14T08:22:06.839Z</time></trkpt><trkpt lat="42.6578417" lon="-8.0911717"><ele>659.0</ele><time>2026-04-14T08:22:07.84Z</time></trkpt><trkpt lat="42.657705" lon="-8.0909383"><ele>659.0</ele><time>2026-04-14T08:22:08.839Z</time></trkpt><trkpt lat="42.6575683" lon="-8.0907183"><ele>657.3333333333333</ele><time>2026-04-14T08:22:09.84Z</time></trkpt><trkpt lat="42.6574333" lon="-8.0904967"><ele>655.6666666666666</ele><time>2026-04-14T08:22:10.839Z</time></trkpt><trkpt lat="42.65728" lon="-8.090295"><ele>654.0</ele><time>2026-04-14T08:22:11.84Z</time></trkpt><trkpt lat="42.6571167" lon="-8.0901067"><ele>652.6666666666666</ele><time>2026-04-14T08:22:12.839Z</time></trkpt><trkpt lat="42.656945" lon="-8.089935"><ele>651.3333333333333</ele><time>2026-04-14T08:22:13.839Z</time></trkpt><trkpt lat="42.6567683" lon="-8.0897733"><ele>650.0</ele><time>2026-04-14T08:22:14.84Z</time></trkpt><trkpt lat="42.65658" lon="-8.089635"><ele>650.0</ele><time>2026-04-14T08:22:15.84Z</time></trkpt><trkpt lat="42.6563883" lon="-8.0895267"><ele>650.0</ele><time>2026-04-14T08:22:16.839Z</time></trkpt><trkpt lat="42.6562033" lon="-8.0894267"><ele>650.0</ele><time>2026-04-14T08:22:17.84Z</time></trkpt><trkpt lat="42.65602" lon="-8.0893233"><ele>649.3333333333333</ele><time>2026-04-14T08:22:18.839Z</time></trkpt><trkpt lat="42.6558317" lon="-8.0892083"><ele>648.6666666666666</ele><time>2026-04-14T08:22:19.839Z</time></trkpt><trkpt lat="42.6556383" lon="-8.089095"><ele>648.0</ele><time>2026-04-14T08:22:20.84Z</time></trkpt><trkpt lat="42.655455" lon="-8.0889817"><ele>651.0</ele><time>2026-04-14T08:22:21.839Z</time></trkpt><trkpt lat="42.6552767" lon="-8.0888533"><ele>654.0</ele><time>2026-04-14T08:22:22.84Z</time></trkpt><trkpt lat="42.65511" lon="-8.088705"><ele>657.0</ele><time>2026-04-14T08:22:23.839Z</time></trkpt><trkpt lat="42.6549267" lon="-8.0885617"><ele>657.0</ele><time>2026-04-14T08:22:24.839Z</time></trkpt><trkpt lat="42.65477" lon="-8.0883933"><ele>657.0</ele><time>2026-04-14T08:22:25.84Z</time></trkpt><trkpt lat="42.6546333" lon="-8.0881967"><ele>657.0</ele><time>2026-04-14T08:22:26.839Z</time></trkpt><trkpt lat="42.6593" lon="-8.0935317"><ele>656.0</ele><time>2026-04-14T08:21:56.839Z</time></trkpt><trkpt lat="42.659175" lon="-8.0933317"><ele>655.0</ele><time>2026-04-14T08:21:57.839Z</time></trkpt><trkpt lat="42.6590517" lon="-8.09313"><ele>654.0</ele><time>2026-04-14T08:21:58.839Z</time></trkpt><trkpt lat="42.6589167" lon="-8.0929283"><ele>654.0</ele><time>2026-04-14T08:21:59.839Z</time></trkpt><trkpt lat="42.658785" lon="-8.0927217"><ele>654.0</ele><time>2026-04-14T08:22:00.84Z</time></trkpt><trkpt lat="42.65865" lon="-8.09251"><ele>654.0</ele><time>2026-04-14T08:22:01.84Z</time></trkpt><trkpt lat="42.6585133" lon="-8.0922917"><ele>656.6666666666666</ele><time>2026-04-14T08:22:02.839Z</time></trkpt><trkpt lat="42.6583783" lon="-8.09206"><ele>659.3333333333333</ele><time>2026-04-14T08:22:03.84Z</time></trkpt><trkpt lat="42.6582433" lon="-8.091835"><ele>662.0</ele><time>2026-04-14T08:22:04.839Z</time></trkpt><trkpt lat="42.65811" lon="-8.0916133"><ele>662.6666666666666</ele><time>2026-04-14T08:22:05.84Z</time></trkpt><trkpt lat="42.6579733" lon="-8.0913933"><ele>663.3333333333334</ele><time>2026-04-14T08:22:06.839Z</time></trkpt><trkpt lat="42.6578417" lon="-8.0911717"><ele>664.0</ele><time>2026-04-14T08:22:07.84Z</time></trkpt><trkpt lat="42.657705" lon="-8.0909383"><ele>660.6666666666667</ele><time>2026-04-14T08:22:08.839Z</time></trkpt><trkpt lat="42.6575683" lon="-8.0907183"><ele>657.3333333333334</ele><time>2026-04-14T08:22:09.84Z</time></trkpt><trkpt lat="42.6574333" lon="-8.0904967"><ele>654.0</ele><time>2026-04-14T08:22:10.839Z</time></trkpt><trkpt lat="42.65728" lon="-8.090295"><ele>654.0</ele><time>2026-04-14T08:22:11.84Z</time></trkpt><trkpt lat="42.6571167" lon="-8.0901067"><ele>654.0</ele><time>2026-04-14T08:22:12.839Z</time></trkpt><trkpt lat="42.656945" lon="-8.089935"><ele>654.0</ele><time>2026-04-14T08:22:13.839Z</time></trkpt><trkpt lat="42.6567683" lon="-8.0897733"><ele>652.6666666666666</ele><time>2026-04-14T08:22:14.84Z</time></trkpt><trkpt lat="42.65658" lon="-8.089635"><ele>651.3333333333333</ele><time>2026-04-14T08:22:15.84Z</time></trkpt><trkpt lat="42.6563883" lon="-8.0895267"><ele>650.0</ele><time>2026-04-14T08:22:16.839Z</time></trkpt><trkpt lat="42.6562033" lon="-8.0894267"><ele>653.0</ele><time>2026-04-14T08:22:17.84Z</time></trkpt><trkpt lat="42.65602" lon="-8.0893233"><ele>656.0</ele><time>2026-04-14T08:22:18.839Z</time></trkpt><trkpt lat="42.6558317" lon="-8.0892083"><ele>659.0</ele><time>2026-04-14T08:22:19.839Z</time></trkpt><trkpt lat="42.6556383" lon="-8.089095"><ele>658.3333333333333</ele><time>2026-04-14T08:22:20.84Z</time></trkpt><trkpt lat="42.655455" lon="-8.0889817"><ele>657.6666666666666</ele><time>2026-04-14T08:22:21.839Z</time></trkpt><trkpt lat="42.6552767" lon="-8.0888533"><ele>657.0</ele><time>2026-04-14T08:22:22.84Z</time></trkpt><trkpt lat="42.65511" lon="-8.088705"><ele>657.0</ele><time>2026-04-14T08:22:23.839Z</time></trkpt><trkpt lat="42.6549267" lon="-8.0885617"><ele>657.0</ele><time>2026-04-14T08:22:24.839Z</time></trkpt><trkpt lat="42.65477" lon="-8.0883933"><ele>657.0</ele><time>2026-04-14T08:22:25.84Z</time></trkpt><trkpt lat="42.6546333" lon="-8.0881967"><ele>657.6666666666666</ele><time>2026-04-14T08:22:26.839Z</time></trkpt><trkpt lat="42.6545033" lon="-8.0879967"><ele>658.3333333333333</ele><time>2026-04-14T08:22:27.84Z</time></trkpt><trkpt lat="42.654395" lon="-8.0877817"><ele>659.0</ele><time>2026-04-14T08:22:28.839Z</time></trkpt><trkpt lat="42.6542917" lon="-8.0875617"><ele>661.6666666666666</ele><time>2026-04-14T08:22:29.839Z</time></trkpt><trkpt lat="42.65418" lon="-8.0873417"><ele>664.3333333333334</ele><time>2026-04-14T08:22:30.839Z</time></trkpt><trkpt lat="42.6540767" lon="-8.0871167"><ele>667.0</ele><time>2026-04-14T08:22:31.84Z</time></trkpt><trkpt lat="42.6539733" lon="-8.0868833"><ele>667.0</ele><time>2026-04-14T08:22:32.84Z</time></trkpt><trkpt lat="42.6538767" lon="-8.0866383"><ele>667.0</ele><time>2026-04-14T08:22:33.84Z</time></trkpt><trkpt lat="42.65378" lon="-8.0864"><ele>667.0</ele><time>2026-04-14T08:22:34.839Z</time></trkpt><trkpt lat="42.6536867" lon="-8.086165"><ele>667.0</ele><time>2026-04-14T08:22:35.839Z</time></trkpt><trkpt lat="42.6536" lon="-8.0859367"><ele>667.0</ele><time>2026-04-14T08:22:36.839Z</time></trkpt><trkpt lat="42.6535133" lon="-8.0857033"><ele>667.0</ele><time>2026-04-14T08:22:37.84Z</time></trkpt><trkpt lat="42.65343" lon="-8.0854633"><ele>668.0</ele><time>2026-04-14T08:22:38.84Z</time></trkpt><trkpt lat="42.653365" lon="-8.08522"><ele>669.0</ele><time>2026-04-14T08:22:39.839Z</time></trkpt><trkpt lat="42.653315" lon="-8.08496"><ele>670.0</ele><time>2026-04-14T08:22:40.839Z</time></trkpt><trkpt lat="42.6532717" lon="-8.0846917"><ele>670.6666666666667</ele><time>2026-04-14T08:22:41.84Z</time></trkpt><trkpt lat="42.6532517" lon="-8.08442"><ele>671.3333333333334</ele><time>2026-04-14T08:22:42.84Z</time></trkpt><trkpt lat="42.6532383" lon="-8.0841433"><ele>672.0</ele><time>2026-04-14T08:22:43.839Z</time></trkpt><trkpt lat="42.653255" lon="-8.0838717"><ele>672.0</ele><time>2026-04-14T08:22:44.839Z</time></trkpt><trkpt lat="42.653285" lon="-8.0835967"><ele>672.0</ele><time>2026-04-14T08:22:45.839Z</time></trkpt><trkpt lat="42.653345" lon="-8.0833283"><ele>672.0</ele><time>2026-04-14T08:22:46.84Z</time></trkpt><trkpt lat="42.653415" lon="-8.0830667"><ele>671.3333333333334</ele><time>2026-04-14T08:22:47.84Z</time></trkpt><trkpt lat="42.6534983" lon="-8.082815"><ele>670.6666666666667</ele><time>2026-04-14T08:22:48.839Z</time></trkpt><trkpt lat="42.65359" lon="-8.082575"><ele>670.0</ele><time>2026-04-14T08:22:49.839Z</time></trkpt><trkpt lat="42.653695" lon="-8.0823333"><ele>672.6666666666667</ele><time>2026-04-14T08:22:50.839Z</time></trkpt><trkpt lat="42.6538" lon="-8.08209"><ele>675.3333333333334</ele><time>2026-04-14T08:22:51.84Z</time></trkpt><trkpt lat="42.6538967" lon="-8.0818433"><ele>678.0</ele><time>2026-04-14T08:22:52.839Z</time></trkpt><trkpt lat="42.6539933" lon="-8.0816"><ele>676.6666666666666</ele><time>2026-04-14T08:22:53.839Z</time></trkpt><trkpt lat="42.6540867" lon="-8.0813433"><ele>675.3333333333333</ele><time>2026-04-14T08:22:54.839Z</time></trkpt><trkpt lat="42.654185" lon="-8.081095"><ele>674.0</ele><time>2026-04-14T08:22:55.84Z</time></trkpt><trkpt lat="42.654285" lon="-8.0808517"><ele>674.6666666666666</ele><time>2026-04-14T08:22:56.84Z</time></trkpt><trkpt lat="42.654385" lon="-8.0805917"><ele>675.3333333333334</ele><time>2026-04-14T08:22:57.839Z</time></trkpt><trkpt lat="42.6544883" lon="-8.0803367"><ele>676.0</ele><time>2026-04-14T08:22:58.839Z</time></trkpt><trkpt lat="42.654585" lon="-8.0800783"><ele>675.6666666666667</ele><time>2026-04-14T08:22:59.84Z</time></trkpt><trkpt lat="42.6546883" lon="-8.0798233"><ele>675.3333333333334</ele><time>2026-04-14T08:23:00.839Z</time></trkpt><trkpt lat="42.654785" lon="-8.0795683"><ele>675.0</ele><time>2026-04-14T08:23:01.84Z</time></trkpt><trkpt lat="42.65488" lon="-8.0793083"><ele>674.6666666666666</ele><time>2026-04-14T08:23:02.84Z</time></trkpt><trkpt lat="42.654955" lon="-8.0790567"><ele>674.3333333333333</ele><time>2026-04-14T08:23:03.839Z</time></trkpt><trkpt lat="42.655015" lon="-8.0787933"><ele>674.0</ele><time>2026-04-14T08:23:04.839Z</time></trkpt><trkpt lat="42.6550517" lon="-8.078525"><ele>674.6666666666666</ele><time>2026-04-14T08:23:05.839Z</time></trkpt><trkpt lat="42.6550667" lon="-8.0782533"><ele>675.3333333333334</ele><time>2026-04-14T08:23:06.84Z</time></trkpt><trkpt lat="42.6550583" lon="-8.0779733"><ele>676.0</ele><time>2026-04-14T08:23:07.839Z</time></trkpt><trkpt lat="42.6550433" lon="-8.0777017"><ele>676.0</ele><time>2026-04-14T08:23:08.839Z</time></trkpt><trkpt lat="42.655005" lon="-8.0774417"><ele>676.0</ele><time>2026-04-14T08:23:09.84Z</time></trkpt><trkpt lat="42.6549583" lon="-8.07718"><ele>676.0</ele><time>2026-04-14T08:23:10.84Z</time></trkpt><trkpt lat="42.6548833" lon="-8.076925"><ele>678.3333333333334</ele><time>2026-04-14T08:23:11.839Z</time></trkpt><trkpt lat="42.6547917" lon="-8.076675"><ele>680.6666666666666</ele><time>2026-04-14T08:23:12.839Z</time></trkpt><trkpt lat="42.6546983" lon="-8.0764383"><ele>683.0</ele><time>2026-04-14T08:23:13.839Z</time></trkpt><trkpt lat="42.65459" lon="-8.0762167"><ele>686.6666666666666</ele><time>2026-04-14T08:23:14.84Z</time></trkpt><trkpt lat="42.65448" lon="-8.0759817"><ele>690.3333333333334</ele><time>2026-04-14T08:23:15.839Z</time></trkpt><trkpt lat="42.65436" lon="-8.075745"><ele>694.0</ele><time>2026-04-14T08:23:16.839Z</time></trkpt><trkpt lat="42.65425" lon="-8.0755117"><ele>694.3333333333334</ele><time>2026-04-14T08:23:17.84Z</time></trkpt><trkpt lat="42.654145" lon="-8.0752783"><ele>694.6666666666666</ele><time>2026-04-14T08:23:18.839Z</time></trkpt><trkpt lat="42.6540367" lon="-8.0750383"><ele>695.0</ele><time>2026-04-14T08:23:19.839Z</time></trkpt><trkpt lat="42.65393" lon="-8.0748017"><ele>698.0</ele><time>2026-04-14T08:23:20.84Z</time></trkpt><trkpt lat="42.65382" lon="-8.074565"><ele>701.0</ele><time>2026-04-14T08:23:21.839Z</time></trkpt><trkpt lat="42.65371" lon="-8.0743233"><ele>704.0</ele><time>2026-04-14T08:23:22.839Z</time></trkpt><trkpt lat="42.6535967" lon="-8.0740933"><ele>704.0</ele><time>2026-04-14T08:23:23.84Z</time></trkpt><trkpt lat="42.653485" lon="-8.0738583"><ele>704.0</ele><time>2026-04-14T08:23:24.839Z</time></trkpt><trkpt lat="42.653365" lon="-8.07363"><ele>704.0</ele><time>2026-04-14T08:23:25.84Z</time></trkpt><trkpt lat="42.6532467" lon="-8.0733983"><ele>707.6666666666666</ele><time>2026-04-14T08:23:26.839Z</time></trkpt><trkpt lat="42.653135" lon="-8.0731683"><ele>711.3333333333334</ele><time>2026-04-14T08:23:27.84Z</time></trkpt><trkpt lat="42.65303" lon="-8.0729433"><ele>715.0</ele><time>2026-04-14T08:23:28.839Z</time></trkpt><trkpt lat="42.6529233" lon="-8.0727133"><ele>715.0</ele><time>2026-04-14T08:23:29.84Z</time></trkpt><trkpt lat="42.6528167" lon="-8.0724817"><ele>715.0</ele><time>2026-04-14T08:23:30.84Z</time></trkpt><trkpt lat="42.652705" lon="-8.07225"><ele>715.0</ele><time>2026-04-14T08:23:31.839Z</time></trkpt><trkpt lat="42.6526017" lon="-8.0720217"><ele>715.0</ele><time>2026-04-14T08:23:32.839Z</time></trkpt><trkpt lat="42.6525033" lon="-8.071785"><ele>715.0</ele><time>2026-04-14T08:23:33.839Z</time></trkpt><trkpt lat="42.6524233" lon="-8.0715367"><ele>715.0</ele><time>2026-04-14T08:23:34.839Z</time></trkpt><trkpt lat="42.65235" lon="-8.071285"><ele>716.0</ele><time>2026-04-14T08:23:35.84Z</time></trkpt><trkpt lat="42.6522883" lon="-8.0710233"><ele>717.0</ele><time>2026-04-14T08:23:36.839Z</time></trkpt><trkpt lat="42.6522367" lon="-8.070745"><ele>718.0</ele><time>2026-04-14T08:23:37.84Z</time></trkpt><trkpt lat="42.6522033" lon="-8.07047"><ele>718.0</ele><time>2026-04-14T08:23:38.839Z</time></trkpt><trkpt lat="42.65218" lon="-8.0701933"><ele>718.0</ele><time>2026-04-14T08:23:39.84Z</time></trkpt><trkpt lat="42.65218" lon="-8.0699117"><ele>718.0</ele><time>2026-04-14T08:23:40.839Z</time></trkpt><trkpt lat="42.652175" lon="-8.0696333"><ele>717.6666666666667</ele><time>2026-04-14T08:23:41.839Z</time></trkpt><trkpt lat="42.6521733" lon="-8.06935"><ele>717.3333333333334</ele><time>2026-04-14T08:23:42.839Z</time></trkpt><trkpt lat="42.6521767" lon="-8.06906"><ele>717.0</ele><time>2026-04-14T08:23:43.839Z</time></trkpt><trkpt lat="42.65218" lon="-8.068775"><ele>717.3333333333334</ele><time>2026-04-14T08:23:44.839Z</time></trkpt><trkpt lat="42.6521917" lon="-8.0684867"><ele>717.6666666666667</ele><time>2026-04-14T08:23:45.839Z</time></trkpt><trkpt lat="42.6522033" lon="-8.068205"><ele>718.0</ele><time>2026-04-14T08:23:46.84Z</time></trkpt><trkpt lat="42.6522167" lon="-8.06792"><ele>718.0</ele><time>2026-04-14T08:23:47.839Z</time></trkpt><trkpt lat="42.6522283" lon="-8.0676317"><ele>718.0</ele><time>2026-04-14T08:23:48.839Z</time></trkpt><trkpt lat="42.6522283" lon="-8.0673417"><ele>718.0</ele><time>2026-04-14T08:23:49.839Z</time></trkpt><trkpt lat="42.65224" lon="-8.067055"><ele>716.6666666666667</ele><time>2026-04-14T08:23:50.84Z</time></trkpt><trkpt lat="42.6522433" lon="-8.066765"><ele>715.3333333333334</ele><time>2026-04-14T08:23:51.839Z</time></trkpt><trkpt lat="42.6522517" lon="-8.066475"><ele>714.0</ele><time>2026-04-14T08:23:52.839Z</time></trkpt><trkpt lat="42.65226" lon="-8.0661883"><ele>704.0</ele><time>2026-04-14T08:23:53.839Z</time></trkpt><trkpt lat="42.6535967" lon="-8.0740933"><ele>704.0</ele><time>2026-04-14T08:23:23.84Z</time></trkpt><trkpt lat="42.653485" lon="-8.0738583"><ele>704.0</ele><time>2026-04-14T08:23:24.839Z</time></trkpt><trkpt lat="42.653365" lon="-8.07363"><ele>704.0</ele><time>2026-04-14T08:23:25.84Z</time></trkpt><trkpt lat="42.6532467" lon="-8.0733983"><ele>707.6666666666666</ele><time>2026-04-14T08:23:26.839Z</time></trkpt><trkpt lat="42.653135" lon="-8.0731683"><ele>711.3333333333334</ele><time>2026-04-14T08:23:27.84Z</time></trkpt><trkpt lat="42.65303" lon="-8.0729433"><ele>715.0</ele><time>2026-04-14T08:23:28.839Z</time></trkpt><trkpt lat="42.6529233" lon="-8.0727133"><ele>715.0</ele><time>2026-04-14T08:23:29.84Z</time></trkpt><trkpt lat="42.6528167" lon="-8.0724817"><ele>715.0</ele><time>2026-04-14T08:23:30.84Z</time></trkpt><trkpt lat="42.652705" lon="-8.07225"><ele>715.0</ele><time>2026-04-14T08:23:31.839Z</time></trkpt><trkpt lat="42.6526017" lon="-8.0720217"><ele>715.0</ele><time>2026-04-14T08:23:32.839Z</time></trkpt><trkpt lat="42.6525033" lon="-8.071785"><ele>715.0</ele><time>2026-04-14T08:23:33.839Z</time></trkpt><trkpt lat="42.6524233" lon="-8.0715367"><ele>715.0</ele><time>2026-04-14T08:23:34.839Z</time></trkpt><trkpt lat="42.65235" lon="-8.071285"><ele>716.0</ele><time>2026-04-14T08:23:35.84Z</time></trkpt><trkpt lat="42.6522883" lon="-8.0710233"><ele>717.0</ele><time>2026-04-14T08:23:36.839Z</time></trkpt><trkpt lat="42.6522367" lon="-8.070745"><ele>718.0</ele><time>2026-04-14T08:23:37.84Z</time></trkpt><trkpt lat="42.6522033" lon="-8.07047"><ele>718.0</ele><time>2026-04-14T08:23:38.839Z</time></trkpt><trkpt lat="42.65218" lon="-8.0701933"><ele>718.0</ele><time>2026-04-14T08:23:39.84Z</time></trkpt><trkpt lat="42.65218" lon="-8.0699117"><ele>718.0</ele><time>2026-04-14T08:23:40.839Z</time></trkpt><trkpt lat="42.652175" lon="-8.0696333"><ele>717.6666666666667</ele><time>2026-04-14T08:23:41.839Z</time></trkpt><trkpt lat="42.6521733" lon="-8.06935"><ele>717.3333333333334</ele><time>2026-04-14T08:23:42.839Z</time></trkpt><trkpt lat="42.6521767" lon="-8.06906"><ele>717.0</ele><time>2026-04-14T08:23:43.839Z</time></trkpt><trkpt lat="42.65218" lon="-8.068775"><ele>717.3333333333334</ele><time>2026-04-14T08:23:44.839Z</time></trkpt><trkpt lat="42.6521917" lon="-8.0684867"><ele>717.6666666666667</ele><time>2026-04-14T08:23:45.839Z</time></trkpt><trkpt lat="42.6522033" lon="-8.068205"><ele>718.0</ele><time>2026-04-14T08:23:46.84Z</time></trkpt><trkpt lat="42.6522167" lon="-8.06792"><ele>718.0</ele><time>2026-04-14T08:23:47.839Z</time></trkpt><trkpt lat="42.6522283" lon="-8.0676317"><ele>718.0</ele><time>2026-04-14T08:23:48.839Z</time></trkpt><trkpt lat="42.6522283" lon="-8.0673417"><ele>718.0</ele><time>2026-04-14T08:23:49.839Z</time></trkpt><trkpt lat="42.65224" lon="-8.067055"><ele>716.6666666666667</ele><time>2026-04-14T08:23:50.84Z</time></trkpt><trkpt lat="42.6522433" lon="-8.066765"><ele>715.3333333333334</ele><time>2026-04-14T08:23:51.839Z</time></trkpt><trkpt lat="42.6522517" lon="-8.066475"><ele>714.0</ele><time>2026-04-14T08:23:52.839Z</time></trkpt><trkpt lat="42.65226" lon="-8.0661883"><ele>713.6666666666666</ele><time>2026-04-14T08:23:53.839Z</time></trkpt><trkpt lat="42.6522717" lon="-8.0658983"><ele>713.3333333333333</ele><time>2026-04-14T08:23:54.839Z</time></trkpt><trkpt lat="42.6522683" lon="-8.0656033"><ele>713.0</ele><time>2026-04-14T08:23:55.839Z</time></trkpt><trkpt lat="42.6522683" lon="-8.0653033"><ele>713.0</ele><time>2026-04-14T08:23:56.839Z</time></trkpt><trkpt lat="42.6522733" lon="-8.0650117"><ele>713.0</ele><time>2026-04-14T08:23:57.84Z</time></trkpt><trkpt lat="42.6522783" lon="-8.0647217"><ele>713.0</ele><time>2026-04-14T08:23:58.839Z</time></trkpt><trkpt lat="42.65228" lon="-8.0644317"><ele>713.6666666666666</ele><time>2026-04-14T08:23:59.839Z</time></trkpt><trkpt lat="42.6522933" lon="-8.06414"><ele>714.3333333333334</ele><time>2026-04-14T08:24:00.84Z</time></trkpt><trkpt lat="42.6523083" lon="-8.06386"><ele>715.0</ele><time>2026-04-14T08:24:01.84Z</time></trkpt><trkpt lat="42.6523083" lon="-8.0635733"><ele>715.6666666666667</ele><time>2026-04-14T08:24:02.84Z</time></trkpt><trkpt lat="42.65231" lon="-8.0632917"><ele>716.3333333333334</ele><time>2026-04-14T08:24:03.839Z</time></trkpt><trkpt lat="42.6523083" lon="-8.06301"><ele>717.0</ele><time>2026-04-14T08:24:04.84Z</time></trkpt><trkpt lat="42.6523117" lon="-8.062725"><ele>716.3333333333334</ele><time>2026-04-14T08:24:05.84Z</time></trkpt><trkpt lat="42.6523217" lon="-8.062445"><ele>715.6666666666667</ele><time>2026-04-14T08:24:06.839Z</time></trkpt><trkpt lat="42.6523333" lon="-8.062165"><ele>715.0</ele><time>2026-04-14T08:24:07.839Z</time></trkpt><trkpt lat="42.6523467" lon="-8.06189"><ele>713.6666666666667</ele><time>2026-04-14T08:24:08.839Z</time></trkpt><trkpt lat="42.6523467" lon="-8.061615"><ele>712.3333333333334</ele><time>2026-04-14T08:24:09.839Z</time></trkpt><trkpt lat="42.6523517" lon="-8.0613333"><ele>711.0</ele><time>2026-04-14T08:24:10.84Z</time></trkpt><trkpt lat="42.6523533" lon="-8.0610517"><ele>710.3333333333334</ele><time>2026-04-14T08:24:11.839Z</time></trkpt><trkpt lat="42.652365" lon="-8.0607733"><ele>709.6666666666667</ele><time>2026-04-14T08:24:12.839Z</time></trkpt><trkpt lat="42.6523733" lon="-8.06049"><ele>709.0</ele><time>2026-04-14T08:24:13.839Z</time></trkpt><trkpt lat="42.652365" lon="-8.0602133"><ele>708.6666666666667</ele><time>2026-04-14T08:24:14.84Z</time></trkpt><trkpt lat="42.652345" lon="-8.0599483"><ele>708.3333333333334</ele><time>2026-04-14T08:24:15.84Z</time></trkpt><trkpt lat="42.6523133" lon="-8.0596833"><ele>708.0</ele><time>2026-04-14T08:24:16.839Z</time></trkpt><trkpt lat="42.6522783" lon="-8.0594133"><ele>708.0</ele><time>2026-04-14T08:24:17.839Z</time></trkpt><trkpt lat="42.6522467" lon="-8.0591467"><ele>708.0</ele><time>2026-04-14T08:24:18.84Z</time></trkpt><trkpt lat="42.65221" lon="-8.0588833"><ele>708.0</ele><time>2026-04-14T08:24:19.839Z</time></trkpt><trkpt lat="42.6521667" lon="-8.05862"><ele>708.3333333333334</ele><time>2026-04-14T08:24:20.84Z</time></trkpt><trkpt lat="42.6521267" lon="-8.0583583"><ele>708.6666666666667</ele><time>2026-04-14T08:24:21.839Z</time></trkpt><trkpt lat="42.652075" lon="-8.0580917"><ele>709.0</ele><time>2026-04-14T08:24:22.839Z</time></trkpt><trkpt lat="42.6520183" lon="-8.0578267"><ele>708.0</ele><time>2026-04-14T08:24:23.839Z</time></trkpt><trkpt lat="42.6519567" lon="-8.057575"><ele>707.0</ele><time>2026-04-14T08:24:24.84Z</time></trkpt><trkpt lat="42.651885" lon="-8.0573183"><ele>706.0</ele><time>2026-04-14T08:24:25.84Z</time></trkpt><trkpt lat="42.6518133" lon="-8.0570667"><ele>705.0</ele><time>2026-04-14T08:24:26.84Z</time></trkpt><trkpt lat="42.6517367" lon="-8.056805"><ele>704.0</ele><time>2026-04-14T08:24:27.84Z</time></trkpt><trkpt lat="42.65165" lon="-8.0565483"><ele>703.0</ele><time>2026-04-14T08:24:28.84Z</time></trkpt><trkpt lat="42.6515567" lon="-8.05629"><ele>701.0</ele><time>2026-04-14T08:24:29.84Z</time></trkpt><trkpt lat="42.651455" lon="-8.0560383"><ele>699.0</ele><time>2026-04-14T08:24:30.84Z</time></trkpt><trkpt lat="42.6513483" lon="-8.0557933"><ele>697.0</ele><time>2026-04-14T08:24:31.839Z</time></trkpt><trkpt lat="42.65124" lon="-8.0555517"><ele>696.3333333333334</ele><time>2026-04-14T08:24:32.84Z</time></trkpt><trkpt lat="42.651125" lon="-8.055315"><ele>695.6666666666666</ele><time>2026-04-14T08:24:33.839Z</time></trkpt><trkpt lat="42.6510067" lon="-8.0550867"><ele>695.0</ele><time>2026-04-14T08:24:34.839Z</time></trkpt><trkpt lat="42.65089" lon="-8.0548517"><ele>695.0</ele><time>2026-04-14T08:24:35.84Z</time></trkpt><trkpt lat="42.6507717" lon="-8.0546167"><ele>695.0</ele><time>2026-04-14T08:24:36.839Z</time></trkpt><trkpt lat="42.6506533" lon="-8.0543733"><ele>695.0</ele><time>2026-04-14T08:24:37.839Z</time></trkpt><trkpt lat="42.6505483" lon="-8.0541383"><ele>696.6666666666666</ele><time>2026-04-14T08:24:38.839Z</time></trkpt><trkpt lat="42.6504433" lon="-8.0539067"><ele>698.3333333333334</ele><time>2026-04-14T08:24:39.839Z</time></trkpt><trkpt lat="42.6503267" lon="-8.05367"><ele>700.0</ele><time>2026-04-14T08:24:40.839Z</time></trkpt><trkpt lat="42.6502033" lon="-8.0534267"><ele>696.6666666666667</ele><time>2026-04-14T08:24:41.839Z</time></trkpt><trkpt lat="42.6500817" lon="-8.0531867"><ele>693.3333333333334</ele><time>2026-04-14T08:24:42.839Z</time></trkpt><trkpt lat="42.6499683" lon="-8.0529467"><ele>690.0</ele><time>2026-04-14T08:24:43.839Z</time></trkpt><trkpt lat="42.64986" lon="-8.0527133"><ele>690.0</ele><time>2026-04-14T08:24:44.84Z</time></trkpt><trkpt lat="42.6497467" lon="-8.0524783"><ele>690.0</ele><time>2026-04-14T08:24:45.84Z</time></trkpt><trkpt lat="42.6496283" lon="-8.0522517"><ele>690.0</ele><time>2026-04-14T08:24:46.839Z</time></trkpt><trkpt lat="42.649505" lon="-8.05203"><ele>690.6666666666666</ele><time>2026-04-14T08:24:47.839Z</time></trkpt><trkpt lat="42.6493733" lon="-8.0518033"><ele>691.3333333333333</ele><time>2026-04-14T08:24:48.84Z</time></trkpt><trkpt lat="42.6492333" lon="-8.0515917"><ele>692.0</ele><time>2026-04-14T08:24:49.839Z</time></trkpt><trkpt lat="42.6490767" lon="-8.0514067"><ele>689.3333333333333</ele><time>2026-04-14T08:24:50.839Z</time></trkpt><trkpt lat="42.6489233" lon="-8.0512283"><ele>686.6666666666666</ele><time>2026-04-14T08:24:51.84Z</time></trkpt><trkpt lat="42.6487733" lon="-8.0510483"><ele>684.0</ele><time>2026-04-14T08:24:52.84Z</time></trkpt><trkpt lat="42.648605" lon="-8.0508883"><ele>682.3333333333334</ele><time>2026-04-14T08:24:53.839Z</time></trkpt><trkpt lat="42.6484367" lon="-8.0507233"><ele>680.6666666666667</ele><time>2026-04-14T08:24:54.84Z</time></trkpt><trkpt lat="42.648265" lon="-8.0505583"><ele>679.0</ele><time>2026-04-14T08:24:55.84Z</time></trkpt><trkpt lat="42.648095" lon="-8.0503967"><ele>679.0</ele><time>2026-04-14T08:24:56.84Z</time></trkpt><trkpt lat="42.6479267" lon="-8.05023"><ele>679.0</ele><time>2026-04-14T08:24:57.839Z</time></trkpt><trkpt lat="42.647765" lon="-8.0500667"><ele>679.0</ele><time>2026-04-14T08:24:58.839Z</time></trkpt><trkpt lat="42.6476067" lon="-8.04989"><ele>678.6666666666667</ele><time>2026-04-14T08:24:59.84Z</time></trkpt><trkpt lat="42.6474667" lon="-8.0497033"><ele>678.3333333333334</ele><time>2026-04-14T08:25:00.84Z</time></trkpt><trkpt lat="42.64733" lon="-8.0495083"><ele>678.0</ele><time>2026-04-14T08:25:01.839Z</time></trkpt><trkpt lat="42.647205" lon="-8.0492933"><ele>678.0</ele><time>2026-04-14T08:25:02.84Z</time></trkpt><trkpt lat="42.6470917" lon="-8.0490783"><ele>678.0</ele><time>2026-04-14T08:25:03.839Z</time></trkpt><trkpt lat="42.6469933" lon="-8.0488533"><ele>678.0</ele><time>2026-04-14T08:25:04.839Z</time></trkpt><trkpt lat="42.6469083" lon="-8.0486217"><ele>678.0</ele><time>2026-04-14T08:25:05.84Z</time></trkpt><trkpt lat="42.6468433" lon="-8.0483783"><ele>678.0</ele><time>2026-04-14T08:25:06.84Z</time></trkpt><trkpt lat="42.646795" lon="-8.04813"><ele>678.0</ele><time>2026-04-14T08:25:07.84Z</time></trkpt><trkpt lat="42.6467467" lon="-8.0478583"><ele>677.6666666666666</ele><time>2026-04-14T08:25:08.84Z</time></trkpt><trkpt lat="42.6467" lon="-8.0475933"><ele>677.3333333333333</ele><time>2026-04-14T08:25:09.839Z</time></trkpt><trkpt lat="42.6466483" lon="-8.0473283"><ele>677.0</ele><time>2026-04-14T08:25:10.839Z</time></trkpt><trkpt lat="42.646605" lon="-8.0470583"><ele>677.0</ele><time>2026-04-14T08:25:11.839Z</time></trkpt><trkpt lat="42.6465567" lon="-8.046785"><ele>677.0</ele><time>2026-04-14T08:25:12.839Z</time></trkpt><trkpt lat="42.6465083" lon="-8.04651"><ele>677.0</ele><time>2026-04-14T08:25:13.839Z</time></trkpt><trkpt lat="42.6464517" lon="-8.0462317"><ele>677.0</ele><time>2026-04-14T08:25:14.839Z</time></trkpt><trkpt lat="42.6464067" lon="-8.045955"><ele>677.0</ele><time>2026-04-14T08:25:15.84Z</time></trkpt><trkpt lat="42.64636" lon="-8.04568"><ele>677.0</ele><time>2026-04-14T08:25:16.839Z</time></trkpt><trkpt lat="42.646315" lon="-8.0454067"><ele>676.6666666666666</ele><time>2026-04-14T08:25:17.84Z</time></trkpt><trkpt lat="42.6462733" lon="-8.045135"><ele>676.3333333333334</ele><time>2026-04-14T08:25:18.839Z</time></trkpt><trkpt lat="42.6462317" lon="-8.0448733"><ele>676.0</ele><time>2026-04-14T08:25:19.839Z</time></trkpt><trkpt lat="42.64618" lon="-8.0446117"><ele>684.0</ele><time>2026-04-14T08:25:20.84Z</time></trkpt><trkpt lat="42.6490767" lon="-8.0514067"><ele>684.0</ele><time>2026-04-14T08:24:50.839Z</time></trkpt><trkpt lat="42.6489233" lon="-8.0512283"><ele>684.0</ele><time>2026-04-14T08:24:51.84Z</time></trkpt><trkpt lat="42.6487733" lon="-8.0510483"><ele>684.0</ele><time>2026-04-14T08:24:52.84Z</time></trkpt><trkpt lat="42.648605" lon="-8.0508883"><ele>682.3333333333334</ele><time>2026-04-14T08:24:53.839Z</time></trkpt><trkpt lat="42.6484367" lon="-8.0507233"><ele>680.6666666666667</ele><time>2026-04-14T08:24:54.84Z</time></trkpt><trkpt lat="42.648265" lon="-8.0505583"><ele>679.0</ele><time>2026-04-14T08:24:55.84Z</time></trkpt><trkpt lat="42.648095" lon="-8.0503967"><ele>679.0</ele><time>2026-04-14T08:24:56.84Z</time></trkpt><trkpt lat="42.6479267" lon="-8.05023"><ele>679.0</ele><time>2026-04-14T08:24:57.839Z</time></trkpt><trkpt lat="42.647765" lon="-8.0500667"><ele>679.0</ele><time>2026-04-14T08:24:58.839Z</time></trkpt><trkpt lat="42.6476067" lon="-8.04989"><ele>678.6666666666667</ele><time>2026-04-14T08:24:59.84Z</time></trkpt><trkpt lat="42.6474667" lon="-8.0497033"><ele>678.3333333333334</ele><time>2026-04-14T08:25:00.84Z</time></trkpt><trkpt lat="42.64733" lon="-8.0495083"><ele>678.0</ele><time>2026-04-14T08:25:01.839Z</time></trkpt><trkpt lat="42.647205" lon="-8.0492933"><ele>678.0</ele><time>2026-04-14T08:25:02.84Z</time></trkpt><trkpt lat="42.6470917" lon="-8.0490783"><ele>678.0</ele><time>2026-04-14T08:25:03.839Z</time></trkpt><trkpt lat="42.6469933" lon="-8.0488533"><ele>678.0</ele><time>2026-04-14T08:25:04.839Z</time></trkpt><trkpt lat="42.6469083" lon="-8.0486217"><ele>678.0</ele><time>2026-04-14T08:25:05.84Z</time></trkpt><trkpt lat="42.6468433" lon="-8.0483783"><ele>678.0</ele><time>2026-04-14T08:25:06.84Z</time></trkpt><trkpt lat="42.646795" lon="-8.04813"><ele>678.0</ele><time>2026-04-14T08:25:07.84Z</time></trkpt><trkpt lat="42.6467467" lon="-8.0478583"><ele>677.6666666666666</ele><time>2026-04-14T08:25:08.84Z</time></trkpt><trkpt lat="42.6467" lon="-8.0475933"><ele>677.3333333333333</ele><time>2026-04-14T08:25:09.839Z</time></trkpt><trkpt lat="42.6466483" lon="-8.0473283"><ele>677.0</ele><time>2026-04-14T08:25:10.839Z</time></trkpt><trkpt lat="42.646605" lon="-8.0470583"><ele>677.0</ele><time>2026-04-14T08:25:11.839Z</time></trkpt><trkpt lat="42.6465567" lon="-8.046785"><ele>677.0</ele><time>2026-04-14T08:25:12.839Z</time></trkpt><trkpt lat="42.6465083" lon="-8.04651"><ele>677.0</ele><time>2026-04-14T08:25:13.839Z</time></trkpt><trkpt lat="42.6464517" lon="-8.0462317"><ele>677.0</ele><time>2026-04-14T08:25:14.839Z</time></trkpt><trkpt lat="42.6464067" lon="-8.045955"><ele>677.0</ele><time>2026-04-14T08:25:15.84Z</time></trkpt><trkpt lat="42.64636" lon="-8.04568"><ele>677.0</ele><time>2026-04-14T08:25:16.839Z</time></trkpt><trkpt lat="42.646315" lon="-8.0454067"><ele>676.6666666666666</ele><time>2026-04-14T08:25:17.84Z</time></trkpt><trkpt lat="42.6462733" lon="-8.045135"><ele>676.3333333333334</ele><time>2026-04-14T08:25:18.839Z</time></trkpt><trkpt lat="42.6462317" lon="-8.0448733"><ele>676.0</ele><time>2026-04-14T08:25:19.839Z</time></trkpt><trkpt lat="42.64618" lon="-8.0446117"><ele>675.0</ele><time>2026-04-14T08:25:20.84Z</time></trkpt><trkpt lat="42.6461283" lon="-8.0443483"><ele>674.0</ele><time>2026-04-14T08:25:21.839Z</time></trkpt><trkpt lat="42.6460667" lon="-8.0440867"><ele>673.0</ele><time>2026-04-14T08:25:22.84Z</time></trkpt><trkpt lat="42.6459933" lon="-8.04384"><ele>675.0</ele><time>2026-04-14T08:25:23.839Z</time></trkpt><trkpt lat="42.6459133" lon="-8.0435967"><ele>677.0</ele><time>2026-04-14T08:25:24.839Z</time></trkpt><trkpt lat="42.645815" lon="-8.043355"><ele>679.0</ele><time>2026-04-14T08:25:25.84Z</time></trkpt><trkpt lat="42.6457033" lon="-8.04312"><ele>679.0</ele><time>2026-04-14T08:25:26.84Z</time></trkpt><trkpt lat="42.6455817" lon="-8.0428917"><ele>679.0</ele><time>2026-04-14T08:25:27.839Z</time></trkpt><trkpt lat="42.6454567" lon="-8.0426733"><ele>679.0</ele><time>2026-04-14T08:25:28.839Z</time></trkpt><trkpt lat="42.6453283" lon="-8.04247"><ele>681.0</ele><time>2026-04-14T08:25:29.839Z</time></trkpt><trkpt lat="42.64519" lon="-8.0422683"><ele>683.0</ele><time>2026-04-14T08:25:30.84Z</time></trkpt><trkpt lat="42.6450483" lon="-8.0420717"><ele>685.0</ele><time>2026-04-14T08:25:31.84Z</time></trkpt><trkpt lat="42.6449017" lon="-8.041885"><ele>685.0</ele><time>2026-04-14T08:25:32.839Z</time></trkpt><trkpt lat="42.6447517" lon="-8.0416983"><ele>685.0</ele><time>2026-04-14T08:25:33.839Z</time></trkpt><trkpt lat="42.6446" lon="-8.04151"><ele>685.0</ele><time>2026-04-14T08:25:34.84Z</time></trkpt><trkpt lat="42.64445" lon="-8.041315"><ele>686.3333333333334</ele><time>2026-04-14T08:25:35.839Z</time></trkpt><trkpt lat="42.6443067" lon="-8.041125"><ele>687.6666666666666</ele><time>2026-04-14T08:25:36.84Z</time></trkpt><trkpt lat="42.644165" lon="-8.04093"><ele>689.0</ele><time>2026-04-14T08:25:37.839Z</time></trkpt><trkpt lat="42.6440167" lon="-8.040745"><ele>689.0</ele><time>2026-04-14T08:25:38.839Z</time></trkpt><trkpt lat="42.6438667" lon="-8.0405667"><ele>689.0</ele><time>2026-04-14T08:25:39.84Z</time></trkpt><trkpt lat="42.6437033" lon="-8.0404083"><ele>689.0</ele><time>2026-04-14T08:25:40.841Z</time></trkpt><trkpt lat="42.6435383" lon="-8.04026"><ele>689.0</ele><time>2026-04-14T08:25:41.84Z</time></trkpt><trkpt lat="42.6433783" lon="-8.040115"><ele>689.0</ele><time>2026-04-14T08:25:42.841Z</time></trkpt><trkpt lat="42.6431933" lon="-8.0400183"><ele>689.0</ele><time>2026-04-14T08:25:43.841Z</time></trkpt><trkpt lat="42.6430017" lon="-8.03993"><ele>690.0</ele><time>2026-04-14T08:25:44.841Z</time></trkpt><trkpt lat="42.6428067" lon="-8.0398417"><ele>691.0</ele><time>2026-04-14T08:25:45.841Z</time></trkpt><trkpt lat="42.6426133" lon="-8.0397583"><ele>692.0</ele><time>2026-04-14T08:25:46.841Z</time></trkpt><trkpt lat="42.6424317" lon="-8.0396417"><ele>692.0</ele><time>2026-04-14T08:25:47.841Z</time></trkpt><trkpt lat="42.6422517" lon="-8.03954"><ele>692.0</ele><time>2026-04-14T08:25:48.84Z</time></trkpt><trkpt lat="42.64207" lon="-8.039455"><ele>692.0</ele><time>2026-04-14T08:25:49.841Z</time></trkpt><trkpt lat="42.64189" lon="-8.039355"><ele>692.3333333333333</ele><time>2026-04-14T08:25:50.84Z</time></trkpt><trkpt lat="42.6417117" lon="-8.03924"><ele>692.6666666666666</ele><time>2026-04-14T08:25:51.84Z</time></trkpt><trkpt lat="42.6415383" lon="-8.0391117"><ele>693.0</ele><time>2026-04-14T08:25:52.84Z</time></trkpt><trkpt lat="42.6413717" lon="-8.0389633"><ele>694.0</ele><time>2026-04-14T08:25:53.84Z</time></trkpt><trkpt lat="42.6412117" lon="-8.0388067"><ele>695.0</ele><time>2026-04-14T08:25:54.84Z</time></trkpt><trkpt lat="42.6410517" lon="-8.0386317"><ele>696.0</ele><time>2026-04-14T08:25:55.84Z</time></trkpt><trkpt lat="42.6409017" lon="-8.0384467"><ele>696.3333333333334</ele><time>2026-04-14T08:25:56.84Z</time></trkpt><trkpt lat="42.6407633" lon="-8.0382483"><ele>696.6666666666667</ele><time>2026-04-14T08:25:57.841Z</time></trkpt><trkpt lat="42.6406283" lon="-8.0380367"><ele>697.0</ele><time>2026-04-14T08:25:58.84Z</time></trkpt><trkpt lat="42.64051" lon="-8.03782"><ele>697.0</ele><time>2026-04-14T08:25:59.84Z</time></trkpt><trkpt lat="42.64041" lon="-8.0375983"><ele>697.0</ele><time>2026-04-14T08:26:00.84Z</time></trkpt><trkpt lat="42.6403017" lon="-8.0373667"><ele>697.0</ele><time>2026-04-14T08:26:01.84Z</time></trkpt><trkpt lat="42.640195" lon="-8.03714"><ele>696.6666666666667</ele><time>2026-04-14T08:26:02.84Z</time></trkpt><trkpt lat="42.6400917" lon="-8.0369117"><ele>696.3333333333334</ele><time>2026-04-14T08:26:03.841Z</time></trkpt><trkpt lat="42.6399933" lon="-8.0366817"><ele>696.0</ele><time>2026-04-14T08:26:04.84Z</time></trkpt><trkpt lat="42.6398833" lon="-8.0364617"><ele>697.6666666666666</ele><time>2026-04-14T08:26:05.84Z</time></trkpt><trkpt lat="42.6397667" lon="-8.0362333"><ele>699.3333333333333</ele><time>2026-04-14T08:26:06.841Z</time></trkpt><trkpt lat="42.6396483" lon="-8.0360117"><ele>701.0</ele><time>2026-04-14T08:26:07.84Z</time></trkpt><trkpt lat="42.63952" lon="-8.0358"><ele>702.6666666666666</ele><time>2026-04-14T08:26:08.841Z</time></trkpt><trkpt lat="42.6393867" lon="-8.0356017"><ele>704.3333333333334</ele><time>2026-04-14T08:26:09.84Z</time></trkpt><trkpt lat="42.6392533" lon="-8.035405"><ele>706.0</ele><time>2026-04-14T08:26:10.841Z</time></trkpt><trkpt lat="42.6391167" lon="-8.03521"><ele>706.0</ele><time>2026-04-14T08:26:11.84Z</time></trkpt><trkpt lat="42.6389817" lon="-8.035005"><ele>706.0</ele><time>2026-04-14T08:26:12.84Z</time></trkpt><trkpt lat="42.6388417" lon="-8.0348117"><ele>706.0</ele><time>2026-04-14T08:26:13.841Z</time></trkpt><trkpt lat="42.638705" lon="-8.034615"><ele>707.6666666666667</ele><time>2026-04-14T08:26:14.84Z</time></trkpt><trkpt lat="42.638565" lon="-8.03442"><ele>709.3333333333334</ele><time>2026-04-14T08:26:15.84Z</time></trkpt><trkpt lat="42.6384283" lon="-8.03422"><ele>711.0</ele><time>2026-04-14T08:26:16.84Z</time></trkpt><trkpt lat="42.63829" lon="-8.03402"><ele>711.0</ele><time>2026-04-14T08:26:17.84Z</time></trkpt><trkpt lat="42.6381517" lon="-8.0338183"><ele>711.0</ele><time>2026-04-14T08:26:18.841Z</time></trkpt><trkpt lat="42.6380117" lon="-8.033615"><ele>711.0</ele><time>2026-04-14T08:26:19.841Z</time></trkpt><trkpt lat="42.6378733" lon="-8.0334133"><ele>712.6666666666666</ele><time>2026-04-14T08:26:20.84Z</time></trkpt><trkpt lat="42.6377367" lon="-8.0332167"><ele>714.3333333333333</ele><time>2026-04-14T08:26:21.84Z</time></trkpt><trkpt lat="42.6375983" lon="-8.0330183"><ele>716.0</ele><time>2026-04-14T08:26:22.84Z</time></trkpt><trkpt lat="42.6374667" lon="-8.0328233"><ele>716.0</ele><time>2026-04-14T08:26:23.84Z</time></trkpt><trkpt lat="42.6373317" lon="-8.0326267"><ele>716.0</ele><time>2026-04-14T08:26:24.841Z</time></trkpt><trkpt lat="42.6371883" lon="-8.032435"><ele>716.0</ele><time>2026-04-14T08:26:25.841Z</time></trkpt><trkpt lat="42.6370567" lon="-8.0322467"><ele>718.0</ele><time>2026-04-14T08:26:26.84Z</time></trkpt><trkpt lat="42.6369217" lon="-8.0320417"><ele>720.0</ele><time>2026-04-14T08:26:27.841Z</time></trkpt><trkpt lat="42.6367867" lon="-8.0318417"><ele>722.0</ele><time>2026-04-14T08:26:28.84Z</time></trkpt><trkpt lat="42.6366433" lon="-8.031645"><ele>721.3333333333333</ele><time>2026-04-14T08:26:29.84Z</time></trkpt><trkpt lat="42.6365083" lon="-8.0314517"><ele>720.6666666666666</ele><time>2026-04-14T08:26:30.841Z</time></trkpt><trkpt lat="42.63637" lon="-8.03126"><ele>720.0</ele><time>2026-04-14T08:26:31.84Z</time></trkpt><trkpt lat="42.636235" lon="-8.0310617"><ele>722.6666666666666</ele><time>2026-04-14T08:26:32.841Z</time></trkpt><trkpt lat="42.6360983" lon="-8.030865"><ele>725.3333333333333</ele><time>2026-04-14T08:26:33.84Z</time></trkpt><trkpt lat="42.6359667" lon="-8.030665"><ele>728.0</ele><time>2026-04-14T08:26:34.841Z</time></trkpt><trkpt lat="42.63583" lon="-8.0304617"><ele>728.3333333333333</ele><time>2026-04-14T08:26:35.84Z</time></trkpt><trkpt lat="42.6356933" lon="-8.0302633"><ele>728.6666666666666</ele><time>2026-04-14T08:26:36.841Z</time></trkpt><trkpt lat="42.6355617" lon="-8.030065"><ele>729.0</ele><time>2026-04-14T08:26:37.841Z</time></trkpt><trkpt lat="42.6354233" lon="-8.0298667"><ele>732.6666666666666</ele><time>2026-04-14T08:26:38.841Z</time></trkpt><trkpt lat="42.63528" lon="-8.0296683"><ele>736.3333333333333</ele><time>2026-04-14T08:26:39.84Z</time></trkpt><trkpt lat="42.635135" lon="-8.02948"><ele>740.0</ele><time>2026-04-14T08:26:40.841Z</time></trkpt><trkpt lat="42.6349933" lon="-8.0292817"><ele>742.3333333333333</ele><time>2026-04-14T08:26:41.84Z</time></trkpt><trkpt lat="42.6348533" lon="-8.0290833"><ele>744.6666666666666</ele><time>2026-04-14T08:26:42.84Z</time></trkpt><trkpt lat="42.63472" lon="-8.028885"><ele>747.0</ele><time>2026-04-14T08:26:43.84Z</time></trkpt><trkpt lat="42.634585" lon="-8.028685"><ele>747.3333333333334</ele><time>2026-04-14T08:26:44.841Z</time></trkpt><trkpt lat="42.63445" lon="-8.028485"><ele>747.6666666666667</ele><time>2026-04-14T08:26:45.84Z</time></trkpt><trkpt lat="42.6343083" lon="-8.0282817"><ele>748.0</ele><time>2026-04-14T08:26:46.841Z</time></trkpt><trkpt lat="42.6341717" lon="-8.02808"><ele>711.0</ele><time>2026-04-14T08:26:47.841Z</time></trkpt><trkpt lat="42.63829" lon="-8.03402"><ele>711.0</ele><time>2026-04-14T08:26:17.84Z</time></trkpt><trkpt lat="42.6381517" lon="-8.0338183"><ele>711.0</ele><time>2026-04-14T08:26:18.841Z</time></trkpt><trkpt lat="42.6380117" lon="-8.033615"><ele>711.0</ele><time>2026-04-14T08:26:19.841Z</time></trkpt><trkpt lat="42.6378733" lon="-8.0334133"><ele>712.6666666666666</ele><time>2026-04-14T08:26:20.84Z</time></trkpt><trkpt lat="42.6377367" lon="-8.0332167"><ele>714.3333333333333</ele><time>2026-04-14T08:26:21.84Z</time></trkpt><trkpt lat="42.6375983" lon="-8.0330183"><ele>716.0</ele><time>2026-04-14T08:26:22.84Z</time></trkpt><trkpt lat="42.6374667" lon="-8.0328233"><ele>716.0</ele><time>2026-04-14T08:26:23.84Z</time></trkpt><trkpt lat="42.6373317" lon="-8.0326267"><ele>716.0</ele><time>2026-04-14T08:26:24.841Z</time></trkpt><trkpt lat="42.6371883" lon="-8.032435"><ele>716.0</ele><time>2026-04-14T08:26:25.841Z</time></trkpt><trkpt lat="42.6370567" lon="-8.0322467"><ele>718.0</ele><time>2026-04-14T08:26:26.84Z</time></trkpt><trkpt lat="42.6369217" lon="-8.0320417"><ele>720.0</ele><time>2026-04-14T08:26:27.841Z</time></trkpt><trkpt lat="42.6367867" lon="-8.0318417"><ele>722.0</ele><time>2026-04-14T08:26:28.84Z</time></trkpt><trkpt lat="42.6366433" lon="-8.031645"><ele>721.3333333333333</ele><time>2026-04-14T08:26:29.84Z</time></trkpt><trkpt lat="42.6365083" lon="-8.0314517"><ele>720.6666666666666</ele><time>2026-04-14T08:26:30.841Z</time></trkpt><trkpt lat="42.63637" lon="-8.03126"><ele>720.0</ele><time>2026-04-14T08:26:31.84Z</time></trkpt><trkpt lat="42.636235" lon="-8.0310617"><ele>722.6666666666666</ele><time>2026-04-14T08:26:32.841Z</time></trkpt><trkpt lat="42.6360983" lon="-8.030865"><ele>725.3333333333333</ele><time>2026-04-14T08:26:33.84Z</time></trkpt><trkpt lat="42.6359667" lon="-8.030665"><ele>728.0</ele><time>2026-04-14T08:26:34.841Z</time></trkpt><trkpt lat="42.63583" lon="-8.0304617"><ele>728.3333333333333</ele><time>2026-04-14T08:26:35.84Z</time></trkpt><trkpt lat="42.6356933" lon="-8.0302633"><ele>728.6666666666666</ele><time>2026-04-14T08:26:36.841Z</time></trkpt><trkpt lat="42.6355617" lon="-8.030065"><ele>729.0</ele><time>2026-04-14T08:26:37.841Z</time></trkpt><trkpt lat="42.6354233" lon="-8.0298667"><ele>732.6666666666666</ele><time>2026-04-14T08:26:38.841Z</time></trkpt><trkpt lat="42.63528" lon="-8.0296683"><ele>736.3333333333333</ele><time>2026-04-14T08:26:39.84Z</time></trkpt><trkpt lat="42.635135" lon="-8.02948"><ele>740.0</ele><time>2026-04-14T08:26:40.841Z</time></trkpt><trkpt lat="42.6349933" lon="-8.0292817"><ele>742.3333333333333</ele><time>2026-04-14T08:26:41.84Z</time></trkpt><trkpt lat="42.6348533" lon="-8.0290833"><ele>744.6666666666666</ele><time>2026-04-14T08:26:42.84Z</time></trkpt><trkpt lat="42.63472" lon="-8.028885"><ele>747.0</ele><time>2026-04-14T08:26:43.84Z</time></trkpt><trkpt lat="42.634585" lon="-8.028685"><ele>747.3333333333334</ele><time>2026-04-14T08:26:44.841Z</time></trkpt><trkpt lat="42.63445" lon="-8.028485"><ele>747.6666666666667</ele><time>2026-04-14T08:26:45.84Z</time></trkpt><trkpt lat="42.6343083" lon="-8.0282817"><ele>748.0</ele><time>2026-04-14T08:26:46.841Z</time></trkpt><trkpt lat="42.6341717" lon="-8.02808"><ele>749.3333333333334</ele><time>2026-04-14T08:26:47.841Z</time></trkpt><trkpt lat="42.6340367" lon="-8.0278867"><ele>750.6666666666666</ele><time>2026-04-14T08:26:48.84Z</time></trkpt><trkpt lat="42.6338983" lon="-8.0276983"><ele>752.0</ele><time>2026-04-14T08:26:49.84Z</time></trkpt><trkpt lat="42.6337633" lon="-8.0275"><ele>752.6666666666666</ele><time>2026-04-14T08:26:50.84Z</time></trkpt><trkpt lat="42.633625" lon="-8.0273033"><ele>753.3333333333334</ele><time>2026-04-14T08:26:51.841Z</time></trkpt><trkpt lat="42.6334783" lon="-8.0270983"><ele>754.0</ele><time>2026-04-14T08:26:52.841Z</time></trkpt><trkpt lat="42.63333" lon="-8.0268917"><ele>754.0</ele><time>2026-04-14T08:26:53.84Z</time></trkpt><trkpt lat="42.6331833" lon="-8.0266817"><ele>754.0</ele><time>2026-04-14T08:26:54.841Z</time></trkpt><trkpt lat="42.63304" lon="-8.0264733"><ele>754.0</ele><time>2026-04-14T08:26:55.84Z</time></trkpt><trkpt lat="42.6329017" lon="-8.0262633"><ele>756.3333333333334</ele><time>2026-04-14T08:26:56.841Z</time></trkpt><trkpt lat="42.6327683" lon="-8.026045"><ele>758.6666666666666</ele><time>2026-04-14T08:26:57.84Z</time></trkpt><trkpt lat="42.6326433" lon="-8.0258183"><ele>761.0</ele><time>2026-04-14T08:26:58.84Z</time></trkpt><trkpt lat="42.632535" lon="-8.0255867"><ele>761.0</ele><time>2026-04-14T08:26:59.841Z</time></trkpt><trkpt lat="42.6324383" lon="-8.0253367"><ele>761.0</ele><time>2026-04-14T08:27:00.84Z</time></trkpt><trkpt lat="42.6323533" lon="-8.02508"><ele>761.0</ele><time>2026-04-14T08:27:01.841Z</time></trkpt><trkpt lat="42.6322883" lon="-8.0248017"><ele>761.0</ele><time>2026-04-14T08:27:02.84Z</time></trkpt><trkpt lat="42.632235" lon="-8.0245117"><ele>761.0</ele><time>2026-04-14T08:27:03.841Z</time></trkpt><trkpt lat="42.6321917" lon="-8.02422"><ele>761.0</ele><time>2026-04-14T08:27:04.84Z</time></trkpt><trkpt lat="42.6321667" lon="-8.0239333"><ele>761.0</ele><time>2026-04-14T08:27:05.841Z</time></trkpt><trkpt lat="42.6321567" lon="-8.02364"><ele>761.0</ele><time>2026-04-14T08:27:06.841Z</time></trkpt><trkpt lat="42.6321683" lon="-8.02335"><ele>761.0</ele><time>2026-04-14T08:27:07.84Z</time></trkpt><trkpt lat="42.6321867" lon="-8.023065"><ele>761.3333333333333</ele><time>2026-04-14T08:27:08.841Z</time></trkpt><trkpt lat="42.6321933" lon="-8.0227683"><ele>761.6666666666666</ele><time>2026-04-14T08:27:09.841Z</time></trkpt><trkpt lat="42.6321983" lon="-8.02248"><ele>762.0</ele><time>2026-04-14T08:27:10.841Z</time></trkpt><trkpt lat="42.6322083" lon="-8.0221967"><ele>762.0</ele><time>2026-04-14T08:27:11.841Z</time></trkpt><trkpt lat="42.6322283" lon="-8.021905"><ele>762.0</ele><time>2026-04-14T08:27:12.841Z</time></trkpt><trkpt lat="42.6322483" lon="-8.0216"><ele>762.0</ele><time>2026-04-14T08:27:13.84Z</time></trkpt><trkpt lat="42.632285" lon="-8.0212967"><ele>760.6666666666666</ele><time>2026-04-14T08:27:14.841Z</time></trkpt><trkpt lat="42.6323283" lon="-8.021"><ele>759.3333333333333</ele><time>2026-04-14T08:27:15.84Z</time></trkpt><trkpt lat="42.632385" lon="-8.0207017"><ele>758.0</ele><time>2026-04-14T08:27:16.84Z</time></trkpt><trkpt lat="42.6324517" lon="-8.0204167"><ele>758.0</ele><time>2026-04-14T08:27:17.841Z</time></trkpt><trkpt lat="42.6325267" lon="-8.0201317"><ele>758.0</ele><time>2026-04-14T08:27:18.841Z</time></trkpt><trkpt lat="42.6326267" lon="-8.0198467"><ele>758.0</ele><time>2026-04-14T08:27:19.841Z</time></trkpt><trkpt lat="42.632725" lon="-8.0195683"><ele>758.0</ele><time>2026-04-14T08:27:20.84Z</time></trkpt><trkpt lat="42.632835" lon="-8.0193067"><ele>758.0</ele><time>2026-04-14T08:27:21.84Z</time></trkpt><trkpt lat="42.632955" lon="-8.0190583"><ele>755.3333333333333</ele><time>2026-04-14T08:27:22.84Z</time></trkpt><trkpt lat="42.6330767" lon="-8.018815"><ele>752.6666666666666</ele><time>2026-04-14T08:27:23.841Z</time></trkpt><trkpt lat="42.6332083" lon="-8.01857"><ele>750.0</ele><time>2026-04-14T08:27:24.841Z</time></trkpt><trkpt lat="42.6333317" lon="-8.0183217"><ele>749.5</ele><time>2026-04-14T08:27:25.84Z</time></trkpt><trkpt lat="42.633465" lon="-8.0180733"><ele>749.0</ele><time>2026-04-14T08:27:26.841Z</time></trkpt><trkpt lat="42.6335983" lon="-8.017825"><ele>747.0</ele><time>2026-04-14T08:27:27.841Z</time></trkpt><trkpt lat="42.6337267" lon="-8.017575"><ele>745.0</ele><time>2026-04-14T08:27:28.841Z</time></trkpt><trkpt lat="42.6338517" lon="-8.017325"><ele>743.0</ele><time>2026-04-14T08:27:29.84Z</time></trkpt><trkpt lat="42.63398" lon="-8.0170667"><ele>743.0</ele><time>2026-04-14T08:27:30.841Z</time></trkpt><trkpt lat="42.634105" lon="-8.0168117"><ele>743.0</ele><time>2026-04-14T08:27:31.841Z</time></trkpt><trkpt lat="42.634215" lon="-8.0165483"><ele>743.0</ele><time>2026-04-14T08:27:32.841Z</time></trkpt><trkpt lat="42.6343117" lon="-8.0162733"><ele>743.0</ele><time>2026-04-14T08:27:33.841Z</time></trkpt><trkpt lat="42.6343933" lon="-8.0159883"><ele>743.0</ele><time>2026-04-14T08:27:34.841Z</time></trkpt><trkpt lat="42.6344567" lon="-8.0157083"><ele>743.0</ele><time>2026-04-14T08:27:35.84Z</time></trkpt><trkpt lat="42.634515" lon="-8.0154167"><ele>738.3333333333333</ele><time>2026-04-14T08:27:36.84Z</time></trkpt><trkpt lat="42.634565" lon="-8.0151217"><ele>733.6666666666666</ele><time>2026-04-14T08:27:37.841Z</time></trkpt><trkpt lat="42.634605" lon="-8.0148217"><ele>729.0</ele><time>2026-04-14T08:27:38.84Z</time></trkpt><trkpt lat="42.6346333" lon="-8.01452"><ele>729.0</ele><time>2026-04-14T08:27:39.84Z</time></trkpt><trkpt lat="42.6346633" lon="-8.0142233"><ele>729.0</ele><time>2026-04-14T08:27:40.84Z</time></trkpt><trkpt lat="42.634695" lon="-8.0139283"><ele>729.0</ele><time>2026-04-14T08:27:41.84Z</time></trkpt><trkpt lat="42.6347367" lon="-8.0136333"><ele>728.6666666666666</ele><time>2026-04-14T08:27:42.841Z</time></trkpt><trkpt lat="42.6347733" lon="-8.0133417"><ele>728.3333333333333</ele><time>2026-04-14T08:27:43.841Z</time></trkpt><trkpt lat="42.6348067" lon="-8.01306"><ele>728.0</ele><time>2026-04-14T08:27:44.84Z</time></trkpt><trkpt lat="42.634855" lon="-8.0127783"><ele>728.3333333333333</ele><time>2026-04-14T08:27:45.84Z</time></trkpt><trkpt lat="42.63489" lon="-8.012495"><ele>728.6666666666666</ele><time>2026-04-14T08:27:46.841Z</time></trkpt><trkpt lat="42.63492" lon="-8.0122117"><ele>729.0</ele><time>2026-04-14T08:27:47.84Z</time></trkpt><trkpt lat="42.6349583" lon="-8.0119317"><ele>729.6666666666666</ele><time>2026-04-14T08:27:48.84Z</time></trkpt><trkpt lat="42.634995" lon="-8.0116567"><ele>730.3333333333333</ele><time>2026-04-14T08:27:49.841Z</time></trkpt><trkpt lat="42.63503" lon="-8.011365"><ele>731.0</ele><time>2026-04-14T08:27:50.84Z</time></trkpt><trkpt lat="42.635075" lon="-8.0110717"><ele>730.0</ele><time>2026-04-14T08:27:51.84Z</time></trkpt><trkpt lat="42.6351183" lon="-8.01078"><ele>729.0</ele><time>2026-04-14T08:27:52.84Z</time></trkpt><trkpt lat="42.635155" lon="-8.0104933"><ele>728.0</ele><time>2026-04-14T08:27:53.84Z</time></trkpt><trkpt lat="42.6351933" lon="-8.01021"><ele>727.6666666666666</ele><time>2026-04-14T08:27:54.841Z</time></trkpt><trkpt lat="42.6352283" lon="-8.0099217"><ele>727.3333333333334</ele><time>2026-04-14T08:27:55.841Z</time></trkpt><trkpt lat="42.63527" lon="-8.0096317"><ele>727.0</ele><time>2026-04-14T08:27:56.84Z</time></trkpt><trkpt lat="42.63531" lon="-8.0093333"><ele>727.5</ele><time>2026-04-14T08:27:57.84Z</time></trkpt><trkpt lat="42.6353483" lon="-8.00903"><ele>728.0</ele><time>2026-04-14T08:27:58.841Z</time></trkpt><trkpt lat="42.6353917" lon="-8.00873"><ele>728.0</ele><time>2026-04-14T08:27:59.84Z</time></trkpt><trkpt lat="42.6354267" lon="-8.0084267"><ele>728.0</ele><time>2026-04-14T08:28:00.84Z</time></trkpt><trkpt lat="42.6354667" lon="-8.008125"><ele>727.3333333333333</ele><time>2026-04-14T08:28:01.84Z</time></trkpt><trkpt lat="42.6355083" lon="-8.0078283"><ele>726.6666666666666</ele><time>2026-04-14T08:28:02.84Z</time></trkpt><trkpt lat="42.6355467" lon="-8.007525"><ele>726.0</ele><time>2026-04-14T08:28:03.841Z</time></trkpt><trkpt lat="42.63559" lon="-8.00723"><ele>726.0</ele><time>2026-04-14T08:28:04.84Z</time></trkpt><trkpt lat="42.63564" lon="-8.0069367"><ele>726.0</ele><time>2026-04-14T08:28:05.841Z</time></trkpt><trkpt lat="42.6357067" lon="-8.0066383"><ele>725.3333333333334</ele><time>2026-04-14T08:28:06.841Z</time></trkpt><trkpt lat="42.6357767" lon="-8.006355"><ele>724.6666666666667</ele><time>2026-04-14T08:28:07.84Z</time></trkpt><trkpt lat="42.635855" lon="-8.0060767"><ele>724.0</ele><time>2026-04-14T08:28:08.84Z</time></trkpt><trkpt lat="42.6359417" lon="-8.0058067"><ele>723.0</ele><time>2026-04-14T08:28:09.84Z</time></trkpt><trkpt lat="42.6360383" lon="-8.00554"><ele>722.0</ele><time>2026-04-14T08:28:10.84Z</time></trkpt><trkpt lat="42.6361483" lon="-8.0052733"><ele>721.0</ele><time>2026-04-14T08:28:11.84Z</time></trkpt><trkpt lat="42.6362733" lon="-8.0050133"><ele>718.5</ele><time>2026-04-14T08:28:12.841Z</time></trkpt><trkpt lat="42.6364067" lon="-8.0047633"><ele>716.0</ele><time>2026-04-14T08:28:13.84Z</time></trkpt><trkpt lat="42.6365433" lon="-8.00452"><ele>730.0</ele><time>2026-04-14T08:28:14.84Z</time></trkpt><trkpt lat="42.6348067" lon="-8.01306"><ele>730.0</ele><time>2026-04-14T08:27:44.84Z</time></trkpt><trkpt lat="42.634855" lon="-8.0127783"><ele>730.0</ele><time>2026-04-14T08:27:45.84Z</time></trkpt><trkpt lat="42.63489" lon="-8.012495"><ele>730.0</ele><time>2026-04-14T08:27:46.841Z</time></trkpt><trkpt lat="42.63492" lon="-8.0122117"><ele>729.6666666666667</ele><time>2026-04-14T08:27:47.84Z</time></trkpt><trkpt lat="42.6349583" lon="-8.0119317"><ele>729.3333333333334</ele><time>2026-04-14T08:27:48.84Z</time></trkpt><trkpt lat="42.634995" lon="-8.0116567"><ele>729.0</ele><time>2026-04-14T08:27:49.841Z</time></trkpt><trkpt lat="42.63503" lon="-8.011365"><ele>728.6666666666666</ele><time>2026-04-14T08:27:50.84Z</time></trkpt><trkpt lat="42.635075" lon="-8.0110717"><ele>728.3333333333333</ele><time>2026-04-14T08:27:51.84Z</time></trkpt><trkpt lat="42.6351183" lon="-8.01078"><ele>728.0</ele><time>2026-04-14T08:27:52.84Z</time></trkpt><trkpt lat="42.635155" lon="-8.0104933"><ele>728.0</ele><time>2026-04-14T08:27:53.84Z</time></trkpt><trkpt lat="42.6351933" lon="-8.01021"><ele>728.0</ele><time>2026-04-14T08:27:54.841Z</time></trkpt><trkpt lat="42.6352283" lon="-8.0099217"><ele>728.0</ele><time>2026-04-14T08:27:55.841Z</time></trkpt><trkpt lat="42.63527" lon="-8.0096317"><ele>728.0</ele><time>2026-04-14T08:27:56.84Z</time></trkpt><trkpt lat="42.63531" lon="-8.0093333"><ele>728.0</ele><time>2026-04-14T08:27:57.84Z</time></trkpt><trkpt lat="42.6353483" lon="-8.00903"><ele>728.0</ele><time>2026-04-14T08:27:58.841Z</time></trkpt><trkpt lat="42.6353917" lon="-8.00873"><ele>728.0</ele><time>2026-04-14T08:27:59.84Z</time></trkpt><trkpt lat="42.6354267" lon="-8.0084267"><ele>727.3333333333333</ele><time>2026-04-14T08:28:00.84Z</time></trkpt><trkpt lat="42.6354667" lon="-8.008125"><ele>726.6666666666666</ele><time>2026-04-14T08:28:01.84Z</time></trkpt><trkpt lat="42.6355083" lon="-8.0078283"><ele>726.0</ele><time>2026-04-14T08:28:02.84Z</time></trkpt><trkpt lat="42.6355467" lon="-8.007525"><ele>726.0</ele><time>2026-04-14T08:28:03.841Z</time></trkpt><trkpt lat="42.63559" lon="-8.00723"><ele>726.0</ele><time>2026-04-14T08:28:04.84Z</time></trkpt><trkpt lat="42.63564" lon="-8.0069367"><ele>726.0</ele><time>2026-04-14T08:28:05.841Z</time></trkpt><trkpt lat="42.6357067" lon="-8.0066383"><ele>725.3333333333334</ele><time>2026-04-14T08:28:06.841Z</time></trkpt><trkpt lat="42.6357767" lon="-8.006355"><ele>724.6666666666667</ele><time>2026-04-14T08:28:07.84Z</time></trkpt><trkpt lat="42.635855" lon="-8.0060767"><ele>724.0</ele><time>2026-04-14T08:28:08.84Z</time></trkpt><trkpt lat="42.6359417" lon="-8.0058067"><ele>723.0</ele><time>2026-04-14T08:28:09.84Z</time></trkpt><trkpt lat="42.6360383" lon="-8.00554"><ele>722.0</ele><time>2026-04-14T08:28:10.84Z</time></trkpt><trkpt lat="42.6361483" lon="-8.0052733"><ele>721.0</ele><time>2026-04-14T08:28:11.84Z</time></trkpt><trkpt lat="42.6362733" lon="-8.0050133"><ele>718.5</ele><time>2026-04-14T08:28:12.841Z</time></trkpt><trkpt lat="42.6364067" lon="-8.0047633"><ele>716.0</ele><time>2026-04-14T08:28:13.84Z</time></trkpt><trkpt lat="42.6365433" lon="-8.00452"><ele>716.0</ele><time>2026-04-14T08:28:14.84Z</time></trkpt><trkpt lat="42.63669" lon="-8.0042817"><ele>716.0</ele><time>2026-04-14T08:28:15.841Z</time></trkpt><trkpt lat="42.636835" lon="-8.004055"><ele>715.0</ele><time>2026-04-14T08:28:16.84Z</time></trkpt><trkpt lat="42.636985" lon="-8.0038383"><ele>714.0</ele><time>2026-04-14T08:28:17.84Z</time></trkpt><trkpt lat="42.6371467" lon="-8.00363"><ele>713.0</ele><time>2026-04-14T08:28:18.84Z</time></trkpt><trkpt lat="42.6373133" lon="-8.0034267"><ele>712.0</ele><time>2026-04-14T08:28:19.84Z</time></trkpt><trkpt lat="42.6374867" lon="-8.0032333"><ele>711.0</ele><time>2026-04-14T08:28:20.84Z</time></trkpt><trkpt lat="42.6376633" lon="-8.00304"><ele>710.0</ele><time>2026-04-14T08:28:21.841Z</time></trkpt><trkpt lat="42.63783" lon="-8.002845"><ele>709.0</ele><time>2026-04-14T08:28:22.841Z</time></trkpt><trkpt lat="42.6380017" lon="-8.00266"><ele>708.0</ele><time>2026-04-14T08:28:23.84Z</time></trkpt><trkpt lat="42.6381633" lon="-8.0024567"><ele>707.6666666666666</ele><time>2026-04-14T08:28:24.84Z</time></trkpt><trkpt lat="42.6383233" lon="-8.0022367"><ele>707.3333333333333</ele><time>2026-04-14T08:28:25.841Z</time></trkpt><trkpt lat="42.638465" lon="-8.0020083"><ele>707.0</ele><time>2026-04-14T08:28:26.84Z</time></trkpt><trkpt lat="42.63859" lon="-8.0017583"><ele>706.6666666666666</ele><time>2026-04-14T08:28:27.841Z</time></trkpt><trkpt lat="42.6387083" lon="-8.0015067"><ele>706.3333333333334</ele><time>2026-04-14T08:28:28.841Z</time></trkpt><trkpt lat="42.6388167" lon="-8.0012417"><ele>706.0</ele><time>2026-04-14T08:28:29.84Z</time></trkpt><trkpt lat="42.63891" lon="-8.0009717"><ele>706.0</ele><time>2026-04-14T08:28:30.841Z</time></trkpt><trkpt lat="42.639" lon="-8.0007083"><ele>706.0</ele><time>2026-04-14T08:28:31.841Z</time></trkpt><trkpt lat="42.63908" lon="-8.00045"><ele>706.0</ele><time>2026-04-14T08:28:32.841Z</time></trkpt><trkpt lat="42.639175" lon="-8.0001883"><ele>706.0</ele><time>2026-04-14T08:28:33.841Z</time></trkpt><trkpt lat="42.6392717" lon="-7.9999183"><ele>706.0</ele><time>2026-04-14T08:28:34.84Z</time></trkpt><trkpt lat="42.63936" lon="-7.9996667"><ele>706.0</ele><time>2026-04-14T08:28:35.84Z</time></trkpt><trkpt lat="42.63945" lon="-7.9994083"><ele>706.6666666666667</ele><time>2026-04-14T08:28:36.84Z</time></trkpt><trkpt lat="42.6395367" lon="-7.9991467"><ele>707.3333333333334</ele><time>2026-04-14T08:28:37.841Z</time></trkpt><trkpt lat="42.6396267" lon="-7.99888"><ele>708.0</ele><time>2026-04-14T08:28:38.84Z</time></trkpt><trkpt lat="42.6397167" lon="-7.998615"><ele>708.0</ele><time>2026-04-14T08:28:39.841Z</time></trkpt><trkpt lat="42.639805" lon="-7.9983533"><ele>708.0</ele><time>2026-04-14T08:28:40.841Z</time></trkpt><trkpt lat="42.63989" lon="-7.9980967"><ele>708.0</ele><time>2026-04-14T08:28:41.84Z</time></trkpt><trkpt lat="42.6399783" lon="-7.9978283"><ele>707.3333333333334</ele><time>2026-04-14T08:28:42.841Z</time></trkpt><trkpt lat="42.6400583" lon="-7.9975483"><ele>706.6666666666667</ele><time>2026-04-14T08:28:43.841Z</time></trkpt><trkpt lat="42.6401317" lon="-7.9972667"><ele>706.0</ele><time>2026-04-14T08:28:44.84Z</time></trkpt><trkpt lat="42.64018" lon="-7.996995"><ele>705.3333333333334</ele><time>2026-04-14T08:28:45.841Z</time></trkpt><trkpt lat="42.6402117" lon="-7.9967167"><ele>704.6666666666666</ele><time>2026-04-14T08:28:46.84Z</time></trkpt><trkpt lat="42.64023" lon="-7.9964283"><ele>704.0</ele><time>2026-04-14T08:28:47.841Z</time></trkpt><trkpt lat="42.6402367" lon="-7.9961317"><ele>703.6666666666666</ele><time>2026-04-14T08:28:48.84Z</time></trkpt><trkpt lat="42.6402383" lon="-7.99584"><ele>703.3333333333334</ele><time>2026-04-14T08:28:49.84Z</time></trkpt><trkpt lat="42.640255" lon="-7.9955483"><ele>703.0</ele><time>2026-04-14T08:28:50.84Z</time></trkpt><trkpt lat="42.6402633" lon="-7.9952633"><ele>702.3333333333334</ele><time>2026-04-14T08:28:51.84Z</time></trkpt><trkpt lat="42.6402733" lon="-7.9949667"><ele>701.6666666666666</ele><time>2026-04-14T08:28:52.84Z</time></trkpt><trkpt lat="42.6402867" lon="-7.9946633"><ele>701.0</ele><time>2026-04-14T08:28:53.841Z</time></trkpt><trkpt lat="42.6402817" lon="-7.99437"><ele>699.6666666666666</ele><time>2026-04-14T08:28:54.84Z</time></trkpt><trkpt lat="42.6402833" lon="-7.994085"><ele>698.3333333333334</ele><time>2026-04-14T08:28:55.84Z</time></trkpt><trkpt lat="42.64028" lon="-7.9937967"><ele>697.0</ele><time>2026-04-14T08:28:56.84Z</time></trkpt><trkpt lat="42.6402733" lon="-7.9935067"><ele>696.6666666666667</ele><time>2026-04-14T08:28:57.84Z</time></trkpt><trkpt lat="42.6402517" lon="-7.99322"><ele>696.3333333333334</ele><time>2026-04-14T08:28:58.841Z</time></trkpt><trkpt lat="42.6402067" lon="-7.99293"><ele>696.0</ele><time>2026-04-14T08:28:59.84Z</time></trkpt><trkpt lat="42.64016" lon="-7.9926383"><ele>695.6666666666666</ele><time>2026-04-14T08:29:00.84Z</time></trkpt><trkpt lat="42.64012" lon="-7.9923467"><ele>695.3333333333333</ele><time>2026-04-14T08:29:01.84Z</time></trkpt><trkpt lat="42.6400783" lon="-7.9920567"><ele>695.0</ele><time>2026-04-14T08:29:02.84Z</time></trkpt><trkpt lat="42.6400367" lon="-7.9917717"><ele>694.0</ele><time>2026-04-14T08:29:03.84Z</time></trkpt><trkpt lat="42.6399967" lon="-7.9914883"><ele>693.0</ele><time>2026-04-14T08:29:04.84Z</time></trkpt><trkpt lat="42.6399667" lon="-7.991195"><ele>692.0</ele><time>2026-04-14T08:29:05.84Z</time></trkpt><trkpt lat="42.63994" lon="-7.9908967"><ele>691.3333333333333</ele><time>2026-04-14T08:29:06.84Z</time></trkpt><trkpt lat="42.6399267" lon="-7.9906"><ele>690.6666666666666</ele><time>2026-04-14T08:29:07.841Z</time></trkpt><trkpt lat="42.63993" lon="-7.9903017"><ele>690.0</ele><time>2026-04-14T08:29:08.841Z</time></trkpt><trkpt lat="42.6399483" lon="-7.9900067"><ele>688.6666666666666</ele><time>2026-04-14T08:29:09.84Z</time></trkpt><trkpt lat="42.6399717" lon="-7.9897133"><ele>687.3333333333333</ele><time>2026-04-14T08:29:10.841Z</time></trkpt><trkpt lat="42.6399967" lon="-7.9894117"><ele>686.0</ele><time>2026-04-14T08:29:11.84Z</time></trkpt><trkpt lat="42.64002" lon="-7.9891133"><ele>684.6666666666666</ele><time>2026-04-14T08:29:12.84Z</time></trkpt><trkpt lat="42.6400433" lon="-7.9888183"><ele>683.3333333333334</ele><time>2026-04-14T08:29:13.84Z</time></trkpt><trkpt lat="42.6400667" lon="-7.98853"><ele>682.0</ele><time>2026-04-14T08:29:14.841Z</time></trkpt><trkpt lat="42.6400817" lon="-7.9882333"><ele>681.3333333333334</ele><time>2026-04-14T08:29:15.841Z</time></trkpt><trkpt lat="42.6401067" lon="-7.9879433"><ele>680.6666666666666</ele><time>2026-04-14T08:29:16.841Z</time></trkpt><trkpt lat="42.64013" lon="-7.987665"><ele>680.0</ele><time>2026-04-14T08:29:17.84Z</time></trkpt><trkpt lat="42.6401517" lon="-7.9873817"><ele>680.0</ele><time>2026-04-14T08:29:18.841Z</time></trkpt><trkpt lat="42.6401817" lon="-7.9871017"><ele>680.0</ele><time>2026-04-14T08:29:19.84Z</time></trkpt><trkpt lat="42.6402033" lon="-7.986825"><ele>680.0</ele><time>2026-04-14T08:29:20.841Z</time></trkpt><trkpt lat="42.6402283" lon="-7.9865233"><ele>678.5</ele><time>2026-04-14T08:29:21.841Z</time></trkpt><trkpt lat="42.64026" lon="-7.986195"><ele>677.0</ele><time>2026-04-14T08:29:22.841Z</time></trkpt><trkpt lat="42.64029" lon="-7.9858667"><ele>677.0</ele><time>2026-04-14T08:29:23.84Z</time></trkpt><trkpt lat="42.6403183" lon="-7.98556"><ele>677.0</ele><time>2026-04-14T08:29:24.84Z</time></trkpt><trkpt lat="42.6403433" lon="-7.98526"><ele>677.0</ele><time>2026-04-14T08:29:25.841Z</time></trkpt><trkpt lat="42.6403667" lon="-7.9849617"><ele>677.0</ele><time>2026-04-14T08:29:26.841Z</time></trkpt><trkpt lat="42.6404133" lon="-7.9846317"><ele>677.0</ele><time>2026-04-14T08:29:27.841Z</time></trkpt><trkpt lat="42.64044" lon="-7.9843433"><ele>676.3333333333333</ele><time>2026-04-14T08:29:28.841Z</time></trkpt><trkpt lat="42.6404683" lon="-7.9840633"><ele>675.6666666666666</ele><time>2026-04-14T08:29:29.84Z</time></trkpt><trkpt lat="42.6405" lon="-7.98378"><ele>675.0</ele><time>2026-04-14T08:29:30.841Z</time></trkpt><trkpt lat="42.6405383" lon="-7.9834967"><ele>674.0</ele><time>2026-04-14T08:29:31.84Z</time></trkpt><trkpt lat="42.6405817" lon="-7.9832117"><ele>673.0</ele><time>2026-04-14T08:29:32.841Z</time></trkpt><trkpt lat="42.6406267" lon="-7.9829233"><ele>672.0</ele><time>2026-04-14T08:29:33.84Z</time></trkpt><trkpt lat="42.64067" lon="-7.9826433"><ele>671.0</ele><time>2026-04-14T08:29:34.84Z</time></trkpt><trkpt lat="42.6407083" lon="-7.9823667"><ele>670.0</ele><time>2026-04-14T08:29:35.841Z</time></trkpt><trkpt lat="42.6407483" lon="-7.9820983"><ele>669.0</ele><time>2026-04-14T08:29:36.84Z</time></trkpt><trkpt lat="42.64079" lon="-7.9818267"><ele>668.3333333333334</ele><time>2026-04-14T08:29:37.841Z</time></trkpt><trkpt lat="42.6408333" lon="-7.9815533"><ele>667.6666666666667</ele><time>2026-04-14T08:29:38.841Z</time></trkpt><trkpt lat="42.64088" lon="-7.981275"><ele>667.0</ele><time>2026-04-14T08:29:39.84Z</time></trkpt><trkpt lat="42.6409283" lon="-7.981"><ele>665.5</ele><time>2026-04-14T08:29:40.84Z</time></trkpt><trkpt lat="42.6409717" lon="-7.9807183"><ele>664.0</ele><time>2026-04-14T08:29:41.841Z</time></trkpt><trkpt lat="42.6399967" lon="-7.9894117"><ele>670.0</ele><time>2026-04-14T08:29:11.84Z</time></trkpt><trkpt lat="42.64002" lon="-7.9891133"><ele>676.0</ele><time>2026-04-14T08:29:12.84Z</time></trkpt><trkpt lat="42.6400433" lon="-7.9888183"><ele>682.0</ele><time>2026-04-14T08:29:13.84Z</time></trkpt><trkpt lat="42.6400667" lon="-7.98853"><ele>681.3333333333334</ele><time>2026-04-14T08:29:14.841Z</time></trkpt><trkpt lat="42.6400817" lon="-7.9882333"><ele>680.6666666666666</ele><time>2026-04-14T08:29:15.841Z</time></trkpt><trkpt lat="42.6401067" lon="-7.9879433"><ele>680.0</ele><time>2026-04-14T08:29:16.841Z</time></trkpt><trkpt lat="42.64013" lon="-7.987665"><ele>680.0</ele><time>2026-04-14T08:29:17.84Z</time></trkpt><trkpt lat="42.6401517" lon="-7.9873817"><ele>680.0</ele><time>2026-04-14T08:29:18.841Z</time></trkpt><trkpt lat="42.6401817" lon="-7.9871017"><ele>680.0</ele><time>2026-04-14T08:29:19.84Z</time></trkpt><trkpt lat="42.6402033" lon="-7.986825"><ele>678.5</ele><time>2026-04-14T08:29:20.841Z</time></trkpt><trkpt lat="42.6402283" lon="-7.9865233"><ele>677.0</ele><time>2026-04-14T08:29:21.841Z</time></trkpt><trkpt lat="42.64026" lon="-7.986195"><ele>677.0</ele><time>2026-04-14T08:29:22.841Z</time></trkpt><trkpt lat="42.64029" lon="-7.9858667"><ele>677.0</ele><time>2026-04-14T08:29:23.84Z</time></trkpt><trkpt lat="42.6403183" lon="-7.98556"><ele>677.0</ele><time>2026-04-14T08:29:24.84Z</time></trkpt><trkpt lat="42.6403433" lon="-7.98526"><ele>677.0</ele><time>2026-04-14T08:29:25.841Z</time></trkpt><trkpt lat="42.6403667" lon="-7.9849617"><ele>677.0</ele><time>2026-04-14T08:29:26.841Z</time></trkpt><trkpt lat="42.6404133" lon="-7.9846317"><ele>677.0</ele><time>2026-04-14T08:29:27.841Z</time></trkpt><trkpt lat="42.64044" lon="-7.9843433"><ele>677.0</ele><time>2026-04-14T08:29:28.841Z</time></trkpt><trkpt lat="42.6404683" lon="-7.9840633"><ele>677.0</ele><time>2026-04-14T08:29:29.84Z</time></trkpt><trkpt lat="42.6405" lon="-7.98378"><ele>676.3333333333333</ele><time>2026-04-14T08:29:30.841Z</time></trkpt><trkpt lat="42.6405383" lon="-7.9834967"><ele>675.6666666666666</ele><time>2026-04-14T08:29:31.84Z</time></trkpt><trkpt lat="42.6405817" lon="-7.9832117"><ele>675.0</ele><time>2026-04-14T08:29:32.841Z</time></trkpt><trkpt lat="42.6406267" lon="-7.9829233"><ele>674.0</ele><time>2026-04-14T08:29:33.84Z</time></trkpt><trkpt lat="42.64067" lon="-7.9826433"><ele>673.0</ele><time>2026-04-14T08:29:34.84Z</time></trkpt><trkpt lat="42.6407083" lon="-7.9823667"><ele>672.0</ele><time>2026-04-14T08:29:35.841Z</time></trkpt><trkpt lat="42.6407483" lon="-7.9820983"><ele>671.0</ele><time>2026-04-14T08:29:36.84Z</time></trkpt><trkpt lat="42.64079" lon="-7.9818267"><ele>670.0</ele><time>2026-04-14T08:29:37.841Z</time></trkpt><trkpt lat="42.6408333" lon="-7.9815533"><ele>669.0</ele><time>2026-04-14T08:29:38.841Z</time></trkpt><trkpt lat="42.64088" lon="-7.981275"><ele>668.3333333333334</ele><time>2026-04-14T08:29:39.84Z</time></trkpt><trkpt lat="42.6409283" lon="-7.981"><ele>667.6666666666667</ele><time>2026-04-14T08:29:40.84Z</time></trkpt><trkpt lat="42.6409717" lon="-7.9807183"><ele>667.0</ele><time>2026-04-14T08:29:41.841Z</time></trkpt><trkpt lat="42.6410167" lon="-7.9804417"><ele>666.0</ele><time>2026-04-14T08:29:42.84Z</time></trkpt><trkpt lat="42.641065" lon="-7.980165"><ele>665.0</ele><time>2026-04-14T08:29:43.84Z</time></trkpt><trkpt lat="42.64111" lon="-7.9798867"><ele>664.0</ele><time>2026-04-14T08:29:44.84Z</time></trkpt><trkpt lat="42.64115" lon="-7.9796067"><ele>663.3333333333334</ele><time>2026-04-14T08:29:45.84Z</time></trkpt><trkpt lat="42.6411933" lon="-7.979325"><ele>662.6666666666666</ele><time>2026-04-14T08:29:46.84Z</time></trkpt><trkpt lat="42.641235" lon="-7.9790483"><ele>662.0</ele><time>2026-04-14T08:29:47.84Z</time></trkpt><trkpt lat="42.64128" lon="-7.9787733"><ele>662.0</ele><time>2026-04-14T08:29:48.84Z</time></trkpt><trkpt lat="42.6413267" lon="-7.9784917"><ele>662.0</ele><time>2026-04-14T08:29:49.84Z</time></trkpt><trkpt lat="42.641365" lon="-7.97821"><ele>662.0</ele><time>2026-04-14T08:29:50.841Z</time></trkpt><trkpt lat="42.6414067" lon="-7.9779283"><ele>661.0</ele><time>2026-04-14T08:29:51.84Z</time></trkpt><trkpt lat="42.6414467" lon="-7.9776517"><ele>660.0</ele><time>2026-04-14T08:29:52.841Z</time></trkpt><trkpt lat="42.6414883" lon="-7.9773817"><ele>659.0</ele><time>2026-04-14T08:29:53.84Z</time></trkpt><trkpt lat="42.6415317" lon="-7.97711"><ele>657.6666666666666</ele><time>2026-04-14T08:29:54.84Z</time></trkpt><trkpt lat="42.641575" lon="-7.97683"><ele>656.3333333333334</ele><time>2026-04-14T08:29:55.84Z</time></trkpt><trkpt lat="42.6416217" lon="-7.976555"><ele>655.0</ele><time>2026-04-14T08:29:56.841Z</time></trkpt><trkpt lat="42.6416633" lon="-7.9762767"><ele>654.0</ele><time>2026-04-14T08:29:57.841Z</time></trkpt><trkpt lat="42.64171" lon="-7.9759917"><ele>653.0</ele><time>2026-04-14T08:29:58.84Z</time></trkpt><trkpt lat="42.6417583" lon="-7.9757117"><ele>652.0</ele><time>2026-04-14T08:29:59.84Z</time></trkpt><trkpt lat="42.6418017" lon="-7.9754317"><ele>650.6666666666667</ele><time>2026-04-14T08:30:00.841Z</time></trkpt><trkpt lat="42.64185" lon="-7.9751533"><ele>649.3333333333334</ele><time>2026-04-14T08:30:01.841Z</time></trkpt><trkpt lat="42.6418917" lon="-7.9748683"><ele>648.0</ele><time>2026-04-14T08:30:02.841Z</time></trkpt><trkpt lat="42.64194" lon="-7.9745867"><ele>647.0</ele><time>2026-04-14T08:30:03.84Z</time></trkpt><trkpt lat="42.6419983" lon="-7.974305"><ele>646.0</ele><time>2026-04-14T08:30:04.84Z</time></trkpt><trkpt lat="42.64207" lon="-7.9740167"><ele>645.0</ele><time>2026-04-14T08:30:05.84Z</time></trkpt><trkpt lat="42.642155" lon="-7.9737283"><ele>643.5</ele><time>2026-04-14T08:30:06.84Z</time></trkpt><trkpt lat="42.6422617" lon="-7.97345"><ele>642.0</ele><time>2026-04-14T08:30:07.84Z</time></trkpt><trkpt lat="42.6423667" lon="-7.973175"><ele>640.0</ele><time>2026-04-14T08:30:08.841Z</time></trkpt><trkpt lat="42.6424933" lon="-7.9729067"><ele>638.0</ele><time>2026-04-14T08:30:09.841Z</time></trkpt><trkpt lat="42.6426183" lon="-7.972655"><ele>637.3333333333333</ele><time>2026-04-14T08:30:10.841Z</time></trkpt><trkpt lat="42.642745" lon="-7.97242"><ele>636.6666666666666</ele><time>2026-04-14T08:30:11.841Z</time></trkpt><trkpt lat="42.6428817" lon="-7.9721817"><ele>636.0</ele><time>2026-04-14T08:30:12.84Z</time></trkpt><trkpt lat="42.643005" lon="-7.9719383"><ele>636.0</ele><time>2026-04-14T08:30:13.84Z</time></trkpt><trkpt lat="42.6431317" lon="-7.971705"><ele>636.0</ele><time>2026-04-14T08:30:14.841Z</time></trkpt><trkpt lat="42.6432517" lon="-7.97147"><ele>636.0</ele><time>2026-04-14T08:30:15.841Z</time></trkpt><trkpt lat="42.6433683" lon="-7.9712317"><ele>633.3333333333334</ele><time>2026-04-14T08:30:16.841Z</time></trkpt><trkpt lat="42.6434917" lon="-7.970995"><ele>630.6666666666667</ele><time>2026-04-14T08:30:17.84Z</time></trkpt><trkpt lat="42.6436167" lon="-7.9707683"><ele>628.0</ele><time>2026-04-14T08:30:18.841Z</time></trkpt><trkpt lat="42.643745" lon="-7.970545"><ele>626.6666666666667</ele><time>2026-04-14T08:30:19.84Z</time></trkpt><trkpt lat="42.6438833" lon="-7.97033"><ele>625.3333333333334</ele><time>2026-04-14T08:30:20.84Z</time></trkpt><trkpt lat="42.6440233" lon="-7.9701183"><ele>624.0</ele><time>2026-04-14T08:30:21.84Z</time></trkpt><trkpt lat="42.6441667" lon="-7.9699217"><ele>622.6666666666666</ele><time>2026-04-14T08:30:22.84Z</time></trkpt><trkpt lat="42.6443217" lon="-7.969725"><ele>621.3333333333333</ele><time>2026-04-14T08:30:23.841Z</time></trkpt><trkpt lat="42.6444833" lon="-7.9695233"><ele>620.0</ele><time>2026-04-14T08:30:24.84Z</time></trkpt><trkpt lat="42.6446533" lon="-7.9693283"><ele>617.0</ele><time>2026-04-14T08:30:25.84Z</time></trkpt><trkpt lat="42.6448367" lon="-7.9691383"><ele>614.0</ele><time>2026-04-14T08:30:26.841Z</time></trkpt><trkpt lat="42.6450067" lon="-7.9689417"><ele>614.0</ele><time>2026-04-14T08:30:27.841Z</time></trkpt><trkpt lat="42.6451683" lon="-7.9687333"><ele>614.0</ele><time>2026-04-14T08:30:28.841Z</time></trkpt><trkpt lat="42.6453333" lon="-7.9685333"><ele>614.0</ele><time>2026-04-14T08:30:29.84Z</time></trkpt><trkpt lat="42.6454933" lon="-7.96832"><ele>611.6666666666666</ele><time>2026-04-14T08:30:30.84Z</time></trkpt><trkpt lat="42.6456533" lon="-7.9681133"><ele>609.3333333333334</ele><time>2026-04-14T08:30:31.841Z</time></trkpt><trkpt lat="42.6458117" lon="-7.9678933"><ele>607.0</ele><time>2026-04-14T08:30:32.84Z</time></trkpt><trkpt lat="42.6459633" lon="-7.9676633"><ele>606.6666666666667</ele><time>2026-04-14T08:30:33.84Z</time></trkpt><trkpt lat="42.6461167" lon="-7.9674433"><ele>606.3333333333334</ele><time>2026-04-14T08:30:34.84Z</time></trkpt><trkpt lat="42.6462533" lon="-7.96722"><ele>606.0</ele><time>2026-04-14T08:30:35.84Z</time></trkpt><trkpt lat="42.6463867" lon="-7.9669967"><ele>606.0</ele><time>2026-04-14T08:30:36.84Z</time></trkpt><trkpt lat="42.64651" lon="-7.9667683"><ele>606.0</ele><time>2026-04-14T08:30:37.84Z</time></trkpt><trkpt lat="42.6466433" lon="-7.96655"><ele>606.0</ele><time>2026-04-14T08:30:38.841Z</time></trkpt><trkpt lat="42.6467717" lon="-7.966335"><ele>606.0</ele><time>2026-04-14T08:30:39.84Z</time></trkpt><trkpt lat="42.6468817" lon="-7.966105"><ele>606.0</ele><time>2026-04-14T08:30:40.841Z</time></trkpt><trkpt lat="42.64698" lon="-7.9658717"><ele>606.0</ele><time>2026-04-14T08:30:41.84Z</time></trkpt><trkpt lat="42.647065" lon="-7.9656367"><ele>607.6666666666666</ele><time>2026-04-14T08:30:42.841Z</time></trkpt><trkpt lat="42.6471333" lon="-7.9653883"><ele>609.3333333333333</ele><time>2026-04-14T08:30:43.84Z</time></trkpt><trkpt lat="42.6471883" lon="-7.965145"><ele>611.0</ele><time>2026-04-14T08:30:44.841Z</time></trkpt><trkpt lat="42.647245" lon="-7.9648983"><ele>611.3333333333333</ele><time>2026-04-14T08:30:45.841Z</time></trkpt><trkpt lat="42.6473017" lon="-7.9646483"><ele>611.6666666666666</ele><time>2026-04-14T08:30:46.841Z</time></trkpt><trkpt lat="42.6473633" lon="-7.9643933"><ele>612.0</ele><time>2026-04-14T08:30:47.84Z</time></trkpt><trkpt lat="42.6474283" lon="-7.9641333"><ele>613.0</ele><time>2026-04-14T08:30:48.841Z</time></trkpt><trkpt lat="42.6474883" lon="-7.9638733"><ele>614.0</ele><time>2026-04-14T08:30:49.84Z</time></trkpt><trkpt lat="42.6475467" lon="-7.9636217"><ele>615.0</ele><time>2026-04-14T08:30:50.841Z</time></trkpt><trkpt lat="42.647605" lon="-7.963365"><ele>615.3333333333334</ele><time>2026-04-14T08:30:51.841Z</time></trkpt><trkpt lat="42.64767" lon="-7.9631017"><ele>615.6666666666667</ele><time>2026-04-14T08:30:52.84Z</time></trkpt><trkpt lat="42.6477333" lon="-7.9628367"><ele>616.0</ele><time>2026-04-14T08:30:53.841Z</time></trkpt><trkpt lat="42.647795" lon="-7.9625717"><ele>618.6666666666667</ele><time>2026-04-14T08:30:54.841Z</time></trkpt><trkpt lat="42.6478533" lon="-7.962305"><ele>621.3333333333334</ele><time>2026-04-14T08:30:55.84Z</time></trkpt><trkpt lat="42.6479017" lon="-7.9620383"><ele>624.0</ele><time>2026-04-14T08:30:56.84Z</time></trkpt><trkpt lat="42.6479567" lon="-7.9617717"><ele>625.0</ele><time>2026-04-14T08:30:57.84Z</time></trkpt><trkpt lat="42.647995" lon="-7.961495"><ele>626.0</ele><time>2026-04-14T08:30:58.841Z</time></trkpt><trkpt lat="42.648025" lon="-7.9612283"><ele>627.0</ele><time>2026-04-14T08:30:59.841Z</time></trkpt><trkpt lat="42.6480483" lon="-7.960955"><ele>627.0</ele><time>2026-04-14T08:31:00.841Z</time></trkpt><trkpt lat="42.64807" lon="-7.9606833"><ele>627.0</ele><time>2026-04-14T08:31:01.84Z</time></trkpt><trkpt lat="42.648085" lon="-7.9604167"><ele>627.0</ele><time>2026-04-14T08:31:02.841Z</time></trkpt><trkpt lat="42.6480933" lon="-7.9601467"><ele>627.0</ele><time>2026-04-14T08:31:03.841Z</time></trkpt><trkpt lat="42.6481033" lon="-7.95988"><ele>627.0</ele><time>2026-04-14T08:31:04.841Z</time></trkpt><trkpt lat="42.6480933" lon="-7.9596067"><ele>627.0</ele><time>2026-04-14T08:31:05.841Z</time></trkpt><trkpt lat="42.648085" lon="-7.959335"><ele>628.0</ele><time>2026-04-14T08:31:06.84Z</time></trkpt><trkpt lat="42.64808" lon="-7.9590717"><ele>629.0</ele><time>2026-04-14T08:31:07.84Z</time></trkpt><trkpt lat="42.6481017" lon="-7.9588167"><ele>630.0</ele><time>2026-04-14T08:31:08.841Z</time></trkpt><trkpt lat="42.6466433" lon="-7.96655"><ele>623.3333333333334</ele><time>2026-04-14T08:30:38.841Z</time></trkpt><trkpt lat="42.6467717" lon="-7.966335"><ele>616.6666666666667</ele><time>2026-04-14T08:30:39.84Z</time></trkpt><trkpt lat="42.6468817" lon="-7.966105"><ele>610.0</ele><time>2026-04-14T08:30:40.841Z</time></trkpt><trkpt lat="42.64698" lon="-7.9658717"><ele>610.3333333333334</ele><time>2026-04-14T08:30:41.84Z</time></trkpt><trkpt lat="42.647065" lon="-7.9656367"><ele>610.6666666666666</ele><time>2026-04-14T08:30:42.841Z</time></trkpt><trkpt lat="42.6471333" lon="-7.9653883"><ele>611.0</ele><time>2026-04-14T08:30:43.84Z</time></trkpt><trkpt lat="42.6471883" lon="-7.965145"><ele>611.3333333333333</ele><time>2026-04-14T08:30:44.841Z</time></trkpt><trkpt lat="42.647245" lon="-7.9648983"><ele>611.6666666666666</ele><time>2026-04-14T08:30:45.841Z</time></trkpt><trkpt lat="42.6473017" lon="-7.9646483"><ele>612.0</ele><time>2026-04-14T08:30:46.841Z</time></trkpt><trkpt lat="42.6473633" lon="-7.9643933"><ele>613.0</ele><time>2026-04-14T08:30:47.84Z</time></trkpt><trkpt lat="42.6474283" lon="-7.9641333"><ele>614.0</ele><time>2026-04-14T08:30:48.841Z</time></trkpt><trkpt lat="42.6474883" lon="-7.9638733"><ele>615.0</ele><time>2026-04-14T08:30:49.84Z</time></trkpt><trkpt lat="42.6475467" lon="-7.9636217"><ele>615.0</ele><time>2026-04-14T08:30:50.841Z</time></trkpt><trkpt lat="42.647605" lon="-7.963365"><ele>615.0</ele><time>2026-04-14T08:30:51.841Z</time></trkpt><trkpt lat="42.64767" lon="-7.9631017"><ele>615.0</ele><time>2026-04-14T08:30:52.84Z</time></trkpt><trkpt lat="42.6477333" lon="-7.9628367"><ele>617.6666666666666</ele><time>2026-04-14T08:30:53.841Z</time></trkpt><trkpt lat="42.647795" lon="-7.9625717"><ele>620.3333333333333</ele><time>2026-04-14T08:30:54.841Z</time></trkpt><trkpt lat="42.6478533" lon="-7.962305"><ele>623.0</ele><time>2026-04-14T08:30:55.84Z</time></trkpt><trkpt lat="42.6479017" lon="-7.9620383"><ele>623.3333333333333</ele><time>2026-04-14T08:30:56.84Z</time></trkpt><trkpt lat="42.6479567" lon="-7.9617717"><ele>623.6666666666666</ele><time>2026-04-14T08:30:57.84Z</time></trkpt><trkpt lat="42.647995" lon="-7.961495"><ele>624.0</ele><time>2026-04-14T08:30:58.841Z</time></trkpt><trkpt lat="42.648025" lon="-7.9612283"><ele>625.0</ele><time>2026-04-14T08:30:59.841Z</time></trkpt><trkpt lat="42.6480483" lon="-7.960955"><ele>626.0</ele><time>2026-04-14T08:31:00.841Z</time></trkpt><trkpt lat="42.64807" lon="-7.9606833"><ele>627.0</ele><time>2026-04-14T08:31:01.84Z</time></trkpt><trkpt lat="42.648085" lon="-7.9604167"><ele>627.0</ele><time>2026-04-14T08:31:02.841Z</time></trkpt><trkpt lat="42.6480933" lon="-7.9601467"><ele>627.0</ele><time>2026-04-14T08:31:03.841Z</time></trkpt><trkpt lat="42.6481033" lon="-7.95988"><ele>627.0</ele><time>2026-04-14T08:31:04.841Z</time></trkpt><trkpt lat="42.6480933" lon="-7.9596067"><ele>627.0</ele><time>2026-04-14T08:31:05.841Z</time></trkpt><trkpt lat="42.648085" lon="-7.959335"><ele>627.0</ele><time>2026-04-14T08:31:06.84Z</time></trkpt><trkpt lat="42.64808" lon="-7.9590717"><ele>627.0</ele><time>2026-04-14T08:31:07.84Z</time></trkpt><trkpt lat="42.6481017" lon="-7.9588167"><ele>628.0</ele><time>2026-04-14T08:31:08.841Z</time></trkpt><trkpt lat="42.64814" lon="-7.9585683"><ele>629.0</ele><time>2026-04-14T08:31:09.84Z</time></trkpt><trkpt lat="42.6481917" lon="-7.958335"><ele>630.0</ele><time>2026-04-14T08:31:10.841Z</time></trkpt><trkpt lat="42.6482567" lon="-7.958105"><ele>630.6666666666666</ele><time>2026-04-14T08:31:11.841Z</time></trkpt><trkpt lat="42.6483267" lon="-7.9578867"><ele>631.3333333333333</ele><time>2026-04-14T08:31:12.84Z</time></trkpt><trkpt lat="42.6483933" lon="-7.9576767"><ele>632.0</ele><time>2026-04-14T08:31:13.841Z</time></trkpt><trkpt lat="42.648455" lon="-7.95746"><ele>630.6666666666666</ele><time>2026-04-14T08:31:14.841Z</time></trkpt><trkpt lat="42.6485183" lon="-7.9572383"><ele>629.3333333333334</ele><time>2026-04-14T08:31:15.842Z</time></trkpt><trkpt lat="42.6485683" lon="-7.95701"><ele>628.0</ele><time>2026-04-14T08:31:16.841Z</time></trkpt><trkpt lat="42.6486183" lon="-7.9567783"><ele>632.0</ele><time>2026-04-14T08:31:17.842Z</time></trkpt><trkpt lat="42.648665" lon="-7.9565367"><ele>636.0</ele><time>2026-04-14T08:31:18.841Z</time></trkpt><trkpt lat="42.6487083" lon="-7.9562983"><ele>640.0</ele><time>2026-04-14T08:31:19.841Z</time></trkpt><trkpt lat="42.648745" lon="-7.9560633"><ele>639.0</ele><time>2026-04-14T08:31:20.841Z</time></trkpt><trkpt lat="42.6487817" lon="-7.9558333"><ele>638.0</ele><time>2026-04-14T08:31:21.841Z</time></trkpt><trkpt lat="42.6488333" lon="-7.9555983"><ele>637.0</ele><time>2026-04-14T08:31:22.842Z</time></trkpt><trkpt lat="42.648895" lon="-7.9553617"><ele>637.0</ele><time>2026-04-14T08:31:23.841Z</time></trkpt><trkpt lat="42.6489567" lon="-7.9551383"><ele>637.0</ele><time>2026-04-14T08:31:24.841Z</time></trkpt><trkpt lat="42.6490417" lon="-7.9549133"><ele>637.0</ele><time>2026-04-14T08:31:25.841Z</time></trkpt><trkpt lat="42.64914" lon="-7.9547"><ele>634.6666666666667</ele><time>2026-04-14T08:31:26.842Z</time></trkpt><trkpt lat="42.6492333" lon="-7.9544883"><ele>632.3333333333334</ele><time>2026-04-14T08:31:27.842Z</time></trkpt><trkpt lat="42.64932" lon="-7.954265"><ele>630.0</ele><time>2026-04-14T08:31:28.842Z</time></trkpt><trkpt lat="42.6493817" lon="-7.954045"><ele>629.0</ele><time>2026-04-14T08:31:29.842Z</time></trkpt><trkpt lat="42.6494383" lon="-7.953835"><ele>628.0</ele><time>2026-04-14T08:31:30.841Z</time></trkpt><trkpt lat="42.6494733" lon="-7.9536317"><ele>627.0</ele><time>2026-04-14T08:31:31.842Z</time></trkpt><trkpt lat="42.6494917" lon="-7.9534367"><ele>629.75</ele><time>2026-04-14T08:31:32.842Z</time></trkpt><trkpt lat="42.6494983" lon="-7.9532617"><ele>632.5</ele><time>2026-04-14T08:31:33.842Z</time></trkpt><trkpt lat="42.6495083" lon="-7.9531083"><ele>635.25</ele><time>2026-04-14T08:31:34.841Z</time></trkpt><trkpt lat="42.6495167" lon="-7.9529617"><ele>638.0</ele><time>2026-04-14T08:31:35.841Z</time></trkpt><trkpt lat="42.6495117" lon="-7.95282"><ele>638.0</ele><time>2026-04-14T08:31:36.842Z</time></trkpt><trkpt lat="42.6494917" lon="-7.9526667"><ele>638.0</ele><time>2026-04-14T08:31:37.842Z</time></trkpt><trkpt lat="42.649445" lon="-7.9525067"><ele>638.0</ele><time>2026-04-14T08:31:38.842Z</time></trkpt><trkpt lat="42.6493833" lon="-7.9523533"><ele>638.0</ele><time>2026-04-14T08:31:39.842Z</time></trkpt><trkpt lat="42.6493167" lon="-7.952195"><ele>635.75</ele><time>2026-04-14T08:31:40.841Z</time></trkpt><trkpt lat="42.6492483" lon="-7.952035"><ele>633.5</ele><time>2026-04-14T08:31:41.841Z</time></trkpt><trkpt lat="42.649165" lon="-7.9518667"><ele>631.25</ele><time>2026-04-14T08:31:42.841Z</time></trkpt><trkpt lat="42.6491117" lon="-7.9517"><ele>629.0</ele><time>2026-04-14T08:31:43.842Z</time></trkpt><trkpt lat="42.649075" lon="-7.951515"><ele>629.0</ele><time>2026-04-14T08:31:44.842Z</time></trkpt><trkpt lat="42.6490583" lon="-7.9513167"><ele>629.0</ele><time>2026-04-14T08:31:45.841Z</time></trkpt><trkpt lat="42.6490567" lon="-7.9511067"><ele>629.0</ele><time>2026-04-14T08:31:46.841Z</time></trkpt><trkpt lat="42.64907" lon="-7.9508767"><ele>628.6666666666666</ele><time>2026-04-14T08:31:47.841Z</time></trkpt><trkpt lat="42.6490667" lon="-7.9506517"><ele>628.3333333333334</ele><time>2026-04-14T08:31:48.841Z</time></trkpt><trkpt lat="42.6490817" lon="-7.95044"><ele>628.0</ele><time>2026-04-14T08:31:49.841Z</time></trkpt><trkpt lat="42.64909" lon="-7.9502383"><ele>628.0</ele><time>2026-04-14T08:31:50.842Z</time></trkpt><trkpt lat="42.64909" lon="-7.950045"><ele>628.0</ele><time>2026-04-14T08:31:51.842Z</time></trkpt><trkpt lat="42.6490933" lon="-7.949865"><ele>628.0</ele><time>2026-04-14T08:31:52.842Z</time></trkpt><trkpt lat="42.6491017" lon="-7.9496817"><ele>628.0</ele><time>2026-04-14T08:31:53.842Z</time></trkpt><trkpt lat="42.6491067" lon="-7.9495067"><ele>628.75</ele><time>2026-04-14T08:31:54.841Z</time></trkpt><trkpt lat="42.6491167" lon="-7.9493267"><ele>629.5</ele><time>2026-04-14T08:31:55.841Z</time></trkpt><trkpt lat="42.6491183" lon="-7.949145"><ele>630.25</ele><time>2026-04-14T08:31:56.842Z</time></trkpt><trkpt lat="42.6491067" lon="-7.948975"><ele>631.0</ele><time>2026-04-14T08:31:57.841Z</time></trkpt><trkpt lat="42.6490967" lon="-7.9488217"><ele>631.3333333333334</ele><time>2026-04-14T08:31:58.841Z</time></trkpt><trkpt lat="42.6490917" lon="-7.9486833"><ele>631.6666666666667</ele><time>2026-04-14T08:31:59.842Z</time></trkpt><trkpt lat="42.6490767" lon="-7.9485633"><ele>632.0</ele><time>2026-04-14T08:32:00.841Z</time></trkpt><trkpt lat="42.649055" lon="-7.9484617"><ele>632.3333333333334</ele><time>2026-04-14T08:32:01.841Z</time></trkpt><trkpt lat="42.64901" lon="-7.9483817"><ele>632.6666666666666</ele><time>2026-04-14T08:32:02.842Z</time></trkpt><trkpt lat="42.6489533" lon="-7.94829"><ele>633.0</ele><time>2026-04-14T08:32:03.842Z</time></trkpt><trkpt lat="42.6489167" lon="-7.9481717"><ele>634.0</ele><time>2026-04-14T08:32:04.842Z</time></trkpt><trkpt lat="42.6488933" lon="-7.9480267"><ele>635.0</ele><time>2026-04-14T08:32:05.841Z</time></trkpt><trkpt lat="42.648865" lon="-7.947875"><ele>636.0</ele><time>2026-04-14T08:32:06.841Z</time></trkpt><trkpt lat="42.648815" lon="-7.9477417"><ele>637.0</ele><time>2026-04-14T08:32:07.842Z</time></trkpt><trkpt lat="42.6487517" lon="-7.947605"><ele>637.25</ele><time>2026-04-14T08:32:08.841Z</time></trkpt><trkpt lat="42.648665" lon="-7.9474783"><ele>637.5</ele><time>2026-04-14T08:32:09.841Z</time></trkpt><trkpt lat="42.64857" lon="-7.9473483"><ele>637.75</ele><time>2026-04-14T08:32:10.842Z</time></trkpt><trkpt lat="42.648485" lon="-7.9472"><ele>638.0</ele><time>2026-04-14T08:32:11.841Z</time></trkpt><trkpt lat="42.6484" lon="-7.947055"><ele>640.6666666666666</ele><time>2026-04-14T08:32:12.842Z</time></trkpt><trkpt lat="42.6483017" lon="-7.9469033"><ele>643.3333333333334</ele><time>2026-04-14T08:32:13.841Z</time></trkpt><trkpt lat="42.6481967" lon="-7.9467533"><ele>646.0</ele><time>2026-04-14T08:32:14.841Z</time></trkpt><trkpt lat="42.6480967" lon="-7.9465967"><ele>646.3333333333334</ele><time>2026-04-14T08:32:15.842Z</time></trkpt><trkpt lat="42.6480017" lon="-7.9464283"><ele>646.6666666666666</ele><time>2026-04-14T08:32:16.842Z</time></trkpt><trkpt lat="42.647905" lon="-7.9462617"><ele>647.0</ele><time>2026-04-14T08:32:17.842Z</time></trkpt><trkpt lat="42.647795" lon="-7.9461067"><ele>648.6666666666666</ele><time>2026-04-14T08:32:18.841Z</time></trkpt><trkpt lat="42.647675" lon="-7.945955"><ele>650.3333333333334</ele><time>2026-04-14T08:32:19.841Z</time></trkpt><trkpt lat="42.6475467" lon="-7.9458183"><ele>652.0</ele><time>2026-04-14T08:32:20.841Z</time></trkpt><trkpt lat="42.647415" lon="-7.9457033"><ele>652.0</ele><time>2026-04-14T08:32:21.841Z</time></trkpt><trkpt lat="42.6472567" lon="-7.9456267"><ele>652.0</ele><time>2026-04-14T08:32:22.841Z</time></trkpt><trkpt lat="42.6471083" lon="-7.9455617"><ele>652.0</ele><time>2026-04-14T08:32:23.841Z</time></trkpt><trkpt lat="42.6469517" lon="-7.945505"><ele>653.6666666666667</ele><time>2026-04-14T08:32:24.842Z</time></trkpt><trkpt lat="42.64679" lon="-7.94545"><ele>655.3333333333334</ele><time>2026-04-14T08:32:25.842Z</time></trkpt><trkpt lat="42.646625" lon="-7.945395"><ele>657.0</ele><time>2026-04-14T08:32:26.841Z</time></trkpt><trkpt lat="42.6464533" lon="-7.9453367"><ele>657.0</ele><time>2026-04-14T08:32:27.841Z</time></trkpt><trkpt lat="42.6462983" lon="-7.945275"><ele>657.0</ele><time>2026-04-14T08:32:28.842Z</time></trkpt><trkpt lat="42.64617" lon="-7.94519"><ele>657.0</ele><time>2026-04-14T08:32:29.841Z</time></trkpt><trkpt lat="42.64608" lon="-7.9450917"><ele>657.0</ele><time>2026-04-14T08:32:30.842Z</time></trkpt><trkpt lat="42.6460283" lon="-7.9449683"><ele>658.0</ele><time>2026-04-14T08:32:31.841Z</time></trkpt><trkpt lat="42.646" lon="-7.9448317"><ele>659.0</ele><time>2026-04-14T08:32:32.841Z</time></trkpt><trkpt lat="42.6460083" lon="-7.94468"><ele>660.0</ele><time>2026-04-14T08:32:33.842Z</time></trkpt><trkpt lat="42.6460367" lon="-7.944515"><ele>661.0</ele><time>2026-04-14T08:32:34.841Z</time></trkpt><trkpt lat="42.64608" lon="-7.94434"><ele>637.0</ele><time>2026-04-14T08:32:35.841Z</time></trkpt><trkpt lat="42.6488933" lon="-7.9480267"><ele>637.0</ele><time>2026-04-14T08:32:05.841Z</time></trkpt><trkpt lat="42.648865" lon="-7.947875"><ele>637.0</ele><time>2026-04-14T08:32:06.841Z</time></trkpt><trkpt lat="42.648815" lon="-7.9477417"><ele>637.0</ele><time>2026-04-14T08:32:07.842Z</time></trkpt><trkpt lat="42.6487517" lon="-7.947605"><ele>637.0</ele><time>2026-04-14T08:32:08.841Z</time></trkpt><trkpt lat="42.648665" lon="-7.9474783"><ele>639.25</ele><time>2026-04-14T08:32:09.841Z</time></trkpt><trkpt lat="42.64857" lon="-7.9473483"><ele>641.5</ele><time>2026-04-14T08:32:10.842Z</time></trkpt><trkpt lat="42.648485" lon="-7.9472"><ele>643.75</ele><time>2026-04-14T08:32:11.841Z</time></trkpt><trkpt lat="42.6484" lon="-7.947055"><ele>646.0</ele><time>2026-04-14T08:32:12.842Z</time></trkpt><trkpt lat="42.6483017" lon="-7.9469033"><ele>646.0</ele><time>2026-04-14T08:32:13.841Z</time></trkpt><trkpt lat="42.6481967" lon="-7.9467533"><ele>646.0</ele><time>2026-04-14T08:32:14.841Z</time></trkpt><trkpt lat="42.6480967" lon="-7.9465967"><ele>646.0</ele><time>2026-04-14T08:32:15.842Z</time></trkpt><trkpt lat="42.6480017" lon="-7.9464283"><ele>646.3333333333334</ele><time>2026-04-14T08:32:16.842Z</time></trkpt><trkpt lat="42.647905" lon="-7.9462617"><ele>646.6666666666666</ele><time>2026-04-14T08:32:17.842Z</time></trkpt><trkpt lat="42.647795" lon="-7.9461067"><ele>647.0</ele><time>2026-04-14T08:32:18.841Z</time></trkpt><trkpt lat="42.647675" lon="-7.945955"><ele>648.6666666666666</ele><time>2026-04-14T08:32:19.841Z</time></trkpt><trkpt lat="42.6475467" lon="-7.9458183"><ele>650.3333333333334</ele><time>2026-04-14T08:32:20.841Z</time></trkpt><trkpt lat="42.647415" lon="-7.9457033"><ele>652.0</ele><time>2026-04-14T08:32:21.841Z</time></trkpt><trkpt lat="42.6472567" lon="-7.9456267"><ele>652.0</ele><time>2026-04-14T08:32:22.841Z</time></trkpt><trkpt lat="42.6471083" lon="-7.9455617"><ele>652.0</ele><time>2026-04-14T08:32:23.841Z</time></trkpt><trkpt lat="42.6469517" lon="-7.945505"><ele>652.0</ele><time>2026-04-14T08:32:24.842Z</time></trkpt><trkpt lat="42.64679" lon="-7.94545"><ele>653.6666666666667</ele><time>2026-04-14T08:32:25.842Z</time></trkpt><trkpt lat="42.646625" lon="-7.945395"><ele>655.3333333333334</ele><time>2026-04-14T08:32:26.841Z</time></trkpt><trkpt lat="42.6464533" lon="-7.9453367"><ele>657.0</ele><time>2026-04-14T08:32:27.841Z</time></trkpt><trkpt lat="42.6462983" lon="-7.945275"><ele>657.0</ele><time>2026-04-14T08:32:28.842Z</time></trkpt><trkpt lat="42.64617" lon="-7.94519"><ele>657.0</ele><time>2026-04-14T08:32:29.841Z</time></trkpt><trkpt lat="42.64608" lon="-7.9450917"><ele>657.0</ele><time>2026-04-14T08:32:30.842Z</time></trkpt><trkpt lat="42.6460283" lon="-7.9449683"><ele>657.0</ele><time>2026-04-14T08:32:31.841Z</time></trkpt><trkpt lat="42.646" lon="-7.9448317"><ele>658.0</ele><time>2026-04-14T08:32:32.841Z</time></trkpt><trkpt lat="42.6460083" lon="-7.94468"><ele>659.0</ele><time>2026-04-14T08:32:33.842Z</time></trkpt><trkpt lat="42.6460367" lon="-7.944515"><ele>660.0</ele><time>2026-04-14T08:32:34.841Z</time></trkpt><trkpt lat="42.64608" lon="-7.94434"><ele>661.0</ele><time>2026-04-14T08:32:35.841Z</time></trkpt><trkpt lat="42.6461267" lon="-7.9441583"><ele>661.6666666666667</ele><time>2026-04-14T08:32:36.842Z</time></trkpt><trkpt lat="42.6461817" lon="-7.9439683"><ele>662.3333333333334</ele><time>2026-04-14T08:32:37.842Z</time></trkpt><trkpt lat="42.6462467" lon="-7.9437733"><ele>663.0</ele><time>2026-04-14T08:32:38.841Z</time></trkpt><trkpt lat="42.646325" lon="-7.94357"><ele>665.3333333333334</ele><time>2026-04-14T08:32:39.841Z</time></trkpt><trkpt lat="42.6464167" lon="-7.94337"><ele>667.6666666666667</ele><time>2026-04-14T08:32:40.842Z</time></trkpt><trkpt lat="42.6465067" lon="-7.9431583"><ele>670.0</ele><time>2026-04-14T08:32:41.841Z</time></trkpt><trkpt lat="42.6465917" lon="-7.942955"><ele>670.0</ele><time>2026-04-14T08:32:42.841Z</time></trkpt><trkpt lat="42.6466867" lon="-7.9427533"><ele>670.0</ele><time>2026-04-14T08:32:43.842Z</time></trkpt><trkpt lat="42.6467817" lon="-7.9425567"><ele>670.0</ele><time>2026-04-14T08:32:44.842Z</time></trkpt><trkpt lat="42.6468583" lon="-7.942375"><ele>671.0</ele><time>2026-04-14T08:32:45.841Z</time></trkpt><trkpt lat="42.6469233" lon="-7.9421933"><ele>672.0</ele><time>2026-04-14T08:32:46.841Z</time></trkpt><trkpt lat="42.6469317" lon="-7.9420233"><ele>673.0</ele><time>2026-04-14T08:32:47.841Z</time></trkpt><trkpt lat="42.6469233" lon="-7.9418683"><ele>674.0</ele><time>2026-04-14T08:32:48.842Z</time></trkpt><trkpt lat="42.6468783" lon="-7.94173"><ele>674.25</ele><time>2026-04-14T08:32:49.841Z</time></trkpt><trkpt lat="42.646805" lon="-7.9416"><ele>674.5</ele><time>2026-04-14T08:32:50.841Z</time></trkpt><trkpt lat="42.6467217" lon="-7.9414717"><ele>674.75</ele><time>2026-04-14T08:32:51.842Z</time></trkpt><trkpt lat="42.646645" lon="-7.9413417"><ele>675.0</ele><time>2026-04-14T08:32:52.842Z</time></trkpt><trkpt lat="42.6465783" lon="-7.9412067"><ele>675.0</ele><time>2026-04-14T08:32:53.841Z</time></trkpt><trkpt lat="42.6465217" lon="-7.9410833"><ele>675.0</ele><time>2026-04-14T08:32:54.841Z</time></trkpt><trkpt lat="42.64648" lon="-7.940965"><ele>675.0</ele><time>2026-04-14T08:32:55.841Z</time></trkpt><trkpt lat="42.646455" lon="-7.9408517"><ele>675.0</ele><time>2026-04-14T08:32:56.841Z</time></trkpt><trkpt lat="42.64645" lon="-7.9407633"><ele>675.0</ele><time>2026-04-14T08:32:57.842Z</time></trkpt><trkpt lat="42.6464967" lon="-7.940645"><ele>674.0</ele><time>2026-04-14T08:32:59.841Z</time></trkpt><trkpt lat="42.6465683" lon="-7.9406067"><ele>673.0</ele><time>2026-04-14T08:33:01.841Z</time></trkpt><trkpt lat="42.6466633" lon="-7.940665"><ele>672.0</ele><time>2026-04-14T08:36:58.843Z</time></trkpt><trkpt lat="42.6466833" lon="-7.9405433"><ele>671.0</ele><time>2026-04-14T08:41:44.842Z</time></trkpt><trkpt lat="42.6466717" lon="-7.9404"><ele>670.0</ele><time>2026-04-14T08:41:59.843Z</time></trkpt><trkpt lat="42.6466833" lon="-7.9405433"><ele>670.0</ele><time>2026-04-14T08:41:44.842Z</time></trkpt><trkpt lat="42.6466717" lon="-7.9404"><ele>670.0</ele><time>2026-04-14T08:41:59.843Z</time></trkpt><trkpt lat="42.64666" lon="-7.9404883"><ele>670.0</ele><time>2026-04-14T08:42:36.843Z</time></trkpt><trkpt lat="42.646705" lon="-7.940605"><ele>670.0</ele><time>2026-04-14T08:42:59.844Z</time></trkpt><trkpt lat="42.64663" lon="-7.9405283"><ele>670.0</ele><time>2026-04-14T08:45:00.844Z</time></trkpt><trkpt lat="42.6465117" lon="-7.9405567"><ele>670.0</ele><time>2026-04-14T08:45:02.843Z</time></trkpt><trkpt lat="42.6464533" lon="-7.9405983"><ele>670.0</ele><time>2026-04-14T08:45:03.843Z</time></trkpt><trkpt lat="42.64637" lon="-7.940665"><ele>670.0</ele><time>2026-04-14T08:45:05.844Z</time></trkpt><trkpt lat="42.6462767" lon="-7.9406517"><ele>670.0</ele><time>2026-04-14T08:45:07.844Z</time></trkpt><trkpt lat="42.6462283" lon="-7.9405783"><ele>670.0</ele><time>2026-04-14T08:45:08.843Z</time></trkpt><trkpt lat="42.6461783" lon="-7.9404667"><ele>670.0</ele><time>2026-04-14T08:45:09.843Z</time></trkpt><trkpt lat="42.6461283" lon="-7.940325"><ele>671.0</ele><time>2026-04-14T08:45:10.843Z</time></trkpt><trkpt lat="42.6460733" lon="-7.940145"><ele>672.0</ele><time>2026-04-14T08:45:11.843Z</time></trkpt><trkpt lat="42.64601" lon="-7.9399533"><ele>673.0</ele><time>2026-04-14T08:45:12.843Z</time></trkpt><trkpt lat="42.6459483" lon="-7.93974"><ele>673.0</ele><time>2026-04-14T08:45:13.843Z</time></trkpt><trkpt lat="42.6459" lon="-7.9395367"><ele>673.0</ele><time>2026-04-14T08:45:14.843Z</time></trkpt><trkpt lat="42.6458617" lon="-7.9393367"><ele>673.0</ele><time>2026-04-14T08:45:15.844Z</time></trkpt><trkpt lat="42.6458317" lon="-7.939125"><ele>672.0</ele><time>2026-04-14T08:45:16.843Z</time></trkpt><trkpt lat="42.64581" lon="-7.9389067"><ele>671.0</ele><time>2026-04-14T08:45:17.843Z</time></trkpt><trkpt lat="42.6458" lon="-7.9386767"><ele>670.0</ele><time>2026-04-14T08:45:18.844Z</time></trkpt><trkpt lat="42.6458" lon="-7.9384333"><ele>671.0</ele><time>2026-04-14T08:45:19.843Z</time></trkpt><trkpt lat="42.6458117" lon="-7.9381767"><ele>672.0</ele><time>2026-04-14T08:45:20.844Z</time></trkpt><trkpt lat="42.6458217" lon="-7.9379183"><ele>673.0</ele><time>2026-04-14T08:45:21.843Z</time></trkpt><trkpt lat="42.645835" lon="-7.9376633"><ele>675.6666666666667</ele><time>2026-04-14T08:45:22.844Z</time></trkpt><trkpt lat="42.645845" lon="-7.9374033"><ele>678.3333333333334</ele><time>2026-04-14T08:45:23.843Z</time></trkpt><trkpt lat="42.6458517" lon="-7.937145"><ele>681.0</ele><time>2026-04-14T08:45:24.844Z</time></trkpt><trkpt lat="42.6458633" lon="-7.9368867"><ele>681.6666666666666</ele><time>2026-04-14T08:45:25.844Z</time></trkpt><trkpt lat="42.645885" lon="-7.9366367"><ele>682.3333333333333</ele><time>2026-04-14T08:45:26.843Z</time></trkpt><trkpt lat="42.6459033" lon="-7.936385"><ele>683.0</ele><time>2026-04-14T08:45:27.844Z</time></trkpt><trkpt lat="42.645915" lon="-7.93613"><ele>684.0</ele><time>2026-04-14T08:45:28.844Z</time></trkpt><trkpt lat="42.645935" lon="-7.9358667"><ele>685.0</ele><time>2026-04-14T08:45:29.843Z</time></trkpt><trkpt lat="42.64663" lon="-7.9405283"><ele>682.5</ele><time>2026-04-14T08:45:00.844Z</time></trkpt><trkpt lat="42.6465117" lon="-7.9405567"><ele>680.0</ele><time>2026-04-14T08:45:02.843Z</time></trkpt><trkpt lat="42.6464533" lon="-7.9405983"><ele>677.5</ele><time>2026-04-14T08:45:03.843Z</time></trkpt><trkpt lat="42.64637" lon="-7.940665"><ele>675.0</ele><time>2026-04-14T08:45:05.844Z</time></trkpt><trkpt lat="42.6462767" lon="-7.9406517"><ele>672.5</ele><time>2026-04-14T08:45:07.844Z</time></trkpt><trkpt lat="42.6462283" lon="-7.9405783"><ele>670.0</ele><time>2026-04-14T08:45:08.843Z</time></trkpt><trkpt lat="42.6461783" lon="-7.9404667"><ele>670.0</ele><time>2026-04-14T08:45:09.843Z</time></trkpt><trkpt lat="42.6461283" lon="-7.940325"><ele>670.0</ele><time>2026-04-14T08:45:10.843Z</time></trkpt><trkpt lat="42.6460733" lon="-7.940145"><ele>670.0</ele><time>2026-04-14T08:45:11.843Z</time></trkpt><trkpt lat="42.64601" lon="-7.9399533"><ele>670.0</ele><time>2026-04-14T08:45:12.843Z</time></trkpt><trkpt lat="42.6459483" lon="-7.93974"><ele>670.0</ele><time>2026-04-14T08:45:13.843Z</time></trkpt><trkpt lat="42.6459" lon="-7.9395367"><ele>670.0</ele><time>2026-04-14T08:45:14.843Z</time></trkpt><trkpt lat="42.6458617" lon="-7.9393367"><ele>670.0</ele><time>2026-04-14T08:45:15.844Z</time></trkpt><trkpt lat="42.6458317" lon="-7.939125"><ele>670.0</ele><time>2026-04-14T08:45:16.843Z</time></trkpt><trkpt lat="42.64581" lon="-7.9389067"><ele>670.0</ele><time>2026-04-14T08:45:17.843Z</time></trkpt><trkpt lat="42.6458" lon="-7.9386767"><ele>670.0</ele><time>2026-04-14T08:45:18.844Z</time></trkpt><trkpt lat="42.6458" lon="-7.9384333"><ele>671.0</ele><time>2026-04-14T08:45:19.843Z</time></trkpt><trkpt lat="42.6458117" lon="-7.9381767"><ele>672.0</ele><time>2026-04-14T08:45:20.844Z</time></trkpt><trkpt lat="42.6458217" lon="-7.9379183"><ele>673.0</ele><time>2026-04-14T08:45:21.843Z</time></trkpt><trkpt lat="42.645835" lon="-7.9376633"><ele>675.6666666666667</ele><time>2026-04-14T08:45:22.844Z</time></trkpt><trkpt lat="42.645845" lon="-7.9374033"><ele>678.3333333333334</ele><time>2026-04-14T08:45:23.843Z</time></trkpt><trkpt lat="42.6458517" lon="-7.937145"><ele>681.0</ele><time>2026-04-14T08:45:24.844Z</time></trkpt><trkpt lat="42.6458633" lon="-7.9368867"><ele>681.6666666666666</ele><time>2026-04-14T08:45:25.844Z</time></trkpt><trkpt lat="42.645885" lon="-7.9366367"><ele>682.3333333333333</ele><time>2026-04-14T08:45:26.843Z</time></trkpt><trkpt lat="42.6459033" lon="-7.936385"><ele>683.0</ele><time>2026-04-14T08:45:27.844Z</time></trkpt><trkpt lat="42.645915" lon="-7.93613"><ele>683.6666666666666</ele><time>2026-04-14T08:45:28.844Z</time></trkpt><trkpt lat="42.645935" lon="-7.9358667"><ele>684.3333333333334</ele><time>2026-04-14T08:45:29.843Z</time></trkpt><trkpt lat="42.6459467" lon="-7.9356067"><ele>685.0</ele><time>2026-04-14T08:45:30.844Z</time></trkpt><trkpt lat="42.6459567" lon="-7.9353417"><ele>685.0</ele><time>2026-04-14T08:45:31.843Z</time></trkpt><trkpt lat="42.6459733" lon="-7.9350733"><ele>685.0</ele><time>2026-04-14T08:45:32.843Z</time></trkpt><trkpt lat="42.64601" lon="-7.9348"><ele>685.0</ele><time>2026-04-14T08:45:33.844Z</time></trkpt><trkpt lat="42.6460517" lon="-7.934535"><ele>685.3333333333334</ele><time>2026-04-14T08:45:34.844Z</time></trkpt><trkpt lat="42.6460967" lon="-7.9342667"><ele>685.6666666666666</ele><time>2026-04-14T08:45:35.843Z</time></trkpt><trkpt lat="42.64616" lon="-7.93402"><ele>686.0</ele><time>2026-04-14T08:45:36.844Z</time></trkpt><trkpt lat="42.6462367" lon="-7.9337817"><ele>686.0</ele><time>2026-04-14T08:45:37.843Z</time></trkpt><trkpt lat="42.646315" lon="-7.9335433"><ele>686.0</ele><time>2026-04-14T08:45:38.843Z</time></trkpt><trkpt lat="42.64639" lon="-7.9333"><ele>686.0</ele><time>2026-04-14T08:45:39.843Z</time></trkpt><trkpt lat="42.646465" lon="-7.9330433"><ele>686.0</ele><time>2026-04-14T08:45:40.843Z</time></trkpt><trkpt lat="42.6465333" lon="-7.9328017"><ele>686.0</ele><time>2026-04-14T08:45:41.843Z</time></trkpt><trkpt lat="42.6466067" lon="-7.9325567"><ele>686.0</ele><time>2026-04-14T08:45:42.843Z</time></trkpt><trkpt lat="42.646675" lon="-7.9323117"><ele>686.3333333333333</ele><time>2026-04-14T08:45:43.844Z</time></trkpt><trkpt lat="42.646745" lon="-7.9320633"><ele>686.6666666666666</ele><time>2026-04-14T08:45:44.844Z</time></trkpt><trkpt lat="42.6467983" lon="-7.9318067"><ele>687.0</ele><time>2026-04-14T08:45:45.843Z</time></trkpt><trkpt lat="42.64684" lon="-7.9315433"><ele>689.0</ele><time>2026-04-14T08:45:46.844Z</time></trkpt><trkpt lat="42.6468717" lon="-7.9312717"><ele>691.0</ele><time>2026-04-14T08:45:47.844Z</time></trkpt><trkpt lat="42.6468967" lon="-7.9309933"><ele>693.0</ele><time>2026-04-14T08:45:48.843Z</time></trkpt><trkpt lat="42.646915" lon="-7.9307317"><ele>693.3333333333334</ele><time>2026-04-14T08:45:49.843Z</time></trkpt><trkpt lat="42.6469383" lon="-7.9304983"><ele>693.6666666666667</ele><time>2026-04-14T08:45:50.844Z</time></trkpt><trkpt lat="42.6469617" lon="-7.9302817"><ele>694.0</ele><time>2026-04-14T08:45:51.843Z</time></trkpt><trkpt lat="42.6469867" lon="-7.930065"><ele>692.6666666666667</ele><time>2026-04-14T08:45:52.843Z</time></trkpt><trkpt lat="42.6470133" lon="-7.9298467"><ele>691.3333333333334</ele><time>2026-04-14T08:45:53.844Z</time></trkpt><trkpt lat="42.6470367" lon="-7.9296183"><ele>690.0</ele><time>2026-04-14T08:45:54.843Z</time></trkpt><trkpt lat="42.6470517" lon="-7.9293833"><ele>689.6666666666666</ele><time>2026-04-14T08:45:55.843Z</time></trkpt><trkpt lat="42.6470767" lon="-7.92914"><ele>689.3333333333333</ele><time>2026-04-14T08:45:56.843Z</time></trkpt><trkpt lat="42.647105" lon="-7.9288933"><ele>689.0</ele><time>2026-04-14T08:45:57.844Z</time></trkpt><trkpt lat="42.6471317" lon="-7.92864"><ele>689.3333333333333</ele><time>2026-04-14T08:45:58.843Z</time></trkpt><trkpt lat="42.6471633" lon="-7.92838"><ele>689.6666666666666</ele><time>2026-04-14T08:45:59.843Z</time></trkpt><trkpt lat="42.647185" lon="-7.9281167"><ele>690.0</ele><time>2026-04-14T08:46:00.844Z</time></trkpt><trkpt lat="42.647215" lon="-7.9278533"><ele>690.0</ele><time>2026-04-14T08:46:01.844Z</time></trkpt><trkpt lat="42.647235" lon="-7.92758"><ele>690.0</ele><time>2026-04-14T08:46:02.844Z</time></trkpt><trkpt lat="42.6472567" lon="-7.9273067"><ele>690.0</ele><time>2026-04-14T08:46:03.843Z</time></trkpt><trkpt lat="42.64728" lon="-7.9270267"><ele>691.6666666666666</ele><time>2026-04-14T08:46:04.843Z</time></trkpt><trkpt lat="42.647305" lon="-7.92675"><ele>693.3333333333333</ele><time>2026-04-14T08:46:05.844Z</time></trkpt><trkpt lat="42.6473283" lon="-7.9264867"><ele>695.0</ele><time>2026-04-14T08:46:06.843Z</time></trkpt><trkpt lat="42.647355" lon="-7.9262133"><ele>695.6666666666666</ele><time>2026-04-14T08:46:07.843Z</time></trkpt><trkpt lat="42.6473717" lon="-7.9259417"><ele>696.3333333333334</ele><time>2026-04-14T08:46:08.843Z</time></trkpt><trkpt lat="42.6474017" lon="-7.9256667"><ele>697.0</ele><time>2026-04-14T08:46:09.844Z</time></trkpt><trkpt lat="42.6474383" lon="-7.92539"><ele>697.3333333333334</ele><time>2026-04-14T08:46:10.844Z</time></trkpt><trkpt lat="42.6474617" lon="-7.9251083"><ele>697.6666666666666</ele><time>2026-04-14T08:46:11.843Z</time></trkpt><trkpt lat="42.647485" lon="-7.9248367"><ele>698.0</ele><time>2026-04-14T08:46:12.843Z</time></trkpt><trkpt lat="42.6475133" lon="-7.9245667"><ele>698.3333333333333</ele><time>2026-04-14T08:46:13.843Z</time></trkpt><trkpt lat="42.6475383" lon="-7.9242967"><ele>698.6666666666666</ele><time>2026-04-14T08:46:14.843Z</time></trkpt><trkpt lat="42.6475683" lon="-7.9240133"><ele>699.0</ele><time>2026-04-14T08:46:15.844Z</time></trkpt><trkpt lat="42.6475967" lon="-7.9237383"><ele>699.6666666666666</ele><time>2026-04-14T08:46:16.844Z</time></trkpt><trkpt lat="42.6476317" lon="-7.9234633"><ele>700.3333333333333</ele><time>2026-04-14T08:46:17.844Z</time></trkpt><trkpt lat="42.6476617" lon="-7.92318"><ele>701.0</ele><time>2026-04-14T08:46:18.843Z</time></trkpt><trkpt lat="42.64769" lon="-7.922895"><ele>701.3333333333333</ele><time>2026-04-14T08:46:19.843Z</time></trkpt><trkpt lat="42.6477117" lon="-7.9226133"><ele>701.6666666666666</ele><time>2026-04-14T08:46:20.843Z</time></trkpt><trkpt lat="42.6477333" lon="-7.92233"><ele>702.0</ele><time>2026-04-14T08:46:21.844Z</time></trkpt><trkpt lat="42.647755" lon="-7.9220417"><ele>702.0</ele><time>2026-04-14T08:46:22.843Z</time></trkpt><trkpt lat="42.6477767" lon="-7.921755"><ele>702.0</ele><time>2026-04-14T08:46:23.844Z</time></trkpt><trkpt lat="42.64781" lon="-7.921465"><ele>702.0</ele><time>2026-04-14T08:46:24.843Z</time></trkpt><trkpt lat="42.6478333" lon="-7.9211767"><ele>700.6666666666666</ele><time>2026-04-14T08:46:25.843Z</time></trkpt><trkpt lat="42.64786" lon="-7.920895"><ele>699.3333333333333</ele><time>2026-04-14T08:46:26.843Z</time></trkpt><trkpt lat="42.6478833" lon="-7.9206117"><ele>698.0</ele><time>2026-04-14T08:46:27.843Z</time></trkpt><trkpt lat="42.647915" lon="-7.9203217"><ele>698.3333333333333</ele><time>2026-04-14T08:46:28.844Z</time></trkpt><trkpt lat="42.64795" lon="-7.9200367"><ele>698.6666666666666</ele><time>2026-04-14T08:46:29.844Z</time></trkpt><trkpt lat="42.64798" lon="-7.919755"><ele>699.0</ele><time>2026-04-14T08:46:30.843Z</time></trkpt><trkpt lat="42.6480117" lon="-7.9194733"><ele>699.3333333333334</ele><time>2026-04-14T08:46:31.843Z</time></trkpt><trkpt lat="42.6480483" lon="-7.9192083"><ele>699.6666666666667</ele><time>2026-04-14T08:46:32.844Z</time></trkpt><trkpt lat="42.64809" lon="-7.9189367"><ele>700.0</ele><time>2026-04-14T08:46:33.844Z</time></trkpt><trkpt lat="42.6481433" lon="-7.9186733"><ele>700.0</ele><time>2026-04-14T08:46:34.844Z</time></trkpt><trkpt lat="42.6482067" lon="-7.9184167"><ele>700.0</ele><time>2026-04-14T08:46:35.843Z</time></trkpt><trkpt lat="42.6482933" lon="-7.9181633"><ele>700.0</ele><time>2026-04-14T08:46:36.844Z</time></trkpt><trkpt lat="42.6483833" lon="-7.9179133"><ele>701.0</ele><time>2026-04-14T08:46:37.844Z</time></trkpt><trkpt lat="42.6484733" lon="-7.9176567"><ele>702.0</ele><time>2026-04-14T08:46:38.844Z</time></trkpt><trkpt lat="42.6485633" lon="-7.91741"><ele>703.0</ele><time>2026-04-14T08:46:39.843Z</time></trkpt><trkpt lat="42.6486517" lon="-7.9171633"><ele>703.3333333333334</ele><time>2026-04-14T08:46:40.844Z</time></trkpt><trkpt lat="42.6487367" lon="-7.9169133"><ele>703.6666666666666</ele><time>2026-04-14T08:46:41.843Z</time></trkpt><trkpt lat="42.6488233" lon="-7.9166633"><ele>704.0</ele><time>2026-04-14T08:46:42.844Z</time></trkpt><trkpt lat="42.64891" lon="-7.9164117"><ele>704.6666666666666</ele><time>2026-04-14T08:46:43.843Z</time></trkpt><trkpt lat="42.6489917" lon="-7.91616"><ele>705.3333333333334</ele><time>2026-04-14T08:46:44.843Z</time></trkpt><trkpt lat="42.649055" lon="-7.91589"><ele>706.0</ele><time>2026-04-14T08:46:45.844Z</time></trkpt><trkpt lat="42.649095" lon="-7.9156217"><ele>708.3333333333334</ele><time>2026-04-14T08:46:46.844Z</time></trkpt><trkpt lat="42.6491233" lon="-7.915355"><ele>710.6666666666666</ele><time>2026-04-14T08:46:47.843Z</time></trkpt><trkpt lat="42.649135" lon="-7.91508"><ele>713.0</ele><time>2026-04-14T08:46:48.843Z</time></trkpt><trkpt lat="42.64913" lon="-7.9148117"><ele>714.0</ele><time>2026-04-14T08:46:49.843Z</time></trkpt><trkpt lat="42.6491217" lon="-7.91454"><ele>715.0</ele><time>2026-04-14T08:46:50.843Z</time></trkpt><trkpt lat="42.64911" lon="-7.9142783"><ele>716.0</ele><time>2026-04-14T08:46:51.844Z</time></trkpt><trkpt lat="42.6490883" lon="-7.9140117"><ele>716.6666666666666</ele><time>2026-04-14T08:46:52.844Z</time></trkpt><trkpt lat="42.64907" lon="-7.9137483"><ele>717.3333333333334</ele><time>2026-04-14T08:46:53.843Z</time></trkpt><trkpt lat="42.64905" lon="-7.9134767"><ele>718.0</ele><time>2026-04-14T08:46:54.844Z</time></trkpt><trkpt lat="42.6490283" lon="-7.9132133"><ele>719.5</ele><time>2026-04-14T08:46:55.843Z</time></trkpt><trkpt lat="42.6490167" lon="-7.9129483"><ele>721.0</ele><time>2026-04-14T08:46:56.844Z</time></trkpt><trkpt lat="42.64786" lon="-7.920895"><ele>713.6666666666667</ele><time>2026-04-14T08:46:26.843Z</time></trkpt><trkpt lat="42.6478833" lon="-7.9206117"><ele>706.3333333333334</ele><time>2026-04-14T08:46:27.843Z</time></trkpt><trkpt lat="42.647915" lon="-7.9203217"><ele>699.0</ele><time>2026-04-14T08:46:28.844Z</time></trkpt><trkpt lat="42.64795" lon="-7.9200367"><ele>699.0</ele><time>2026-04-14T08:46:29.844Z</time></trkpt><trkpt lat="42.64798" lon="-7.919755"><ele>699.0</ele><time>2026-04-14T08:46:30.843Z</time></trkpt><trkpt lat="42.6480117" lon="-7.9194733"><ele>699.0</ele><time>2026-04-14T08:46:31.843Z</time></trkpt><trkpt lat="42.6480483" lon="-7.9192083"><ele>699.3333333333334</ele><time>2026-04-14T08:46:32.844Z</time></trkpt><trkpt lat="42.64809" lon="-7.9189367"><ele>699.6666666666667</ele><time>2026-04-14T08:46:33.844Z</time></trkpt><trkpt lat="42.6481433" lon="-7.9186733"><ele>700.0</ele><time>2026-04-14T08:46:34.844Z</time></trkpt><trkpt lat="42.6482067" lon="-7.9184167"><ele>701.0</ele><time>2026-04-14T08:46:35.843Z</time></trkpt><trkpt lat="42.6482933" lon="-7.9181633"><ele>702.0</ele><time>2026-04-14T08:46:36.844Z</time></trkpt><trkpt lat="42.6483833" lon="-7.9179133"><ele>703.0</ele><time>2026-04-14T08:46:37.844Z</time></trkpt><trkpt lat="42.6484733" lon="-7.9176567"><ele>703.3333333333334</ele><time>2026-04-14T08:46:38.844Z</time></trkpt><trkpt lat="42.6485633" lon="-7.91741"><ele>703.6666666666666</ele><time>2026-04-14T08:46:39.843Z</time></trkpt><trkpt lat="42.6486517" lon="-7.9171633"><ele>704.0</ele><time>2026-04-14T08:46:40.844Z</time></trkpt><trkpt lat="42.6487367" lon="-7.9169133"><ele>704.6666666666666</ele><time>2026-04-14T08:46:41.843Z</time></trkpt><trkpt lat="42.6488233" lon="-7.9166633"><ele>705.3333333333334</ele><time>2026-04-14T08:46:42.844Z</time></trkpt><trkpt lat="42.64891" lon="-7.9164117"><ele>706.0</ele><time>2026-04-14T08:46:43.843Z</time></trkpt><trkpt lat="42.6489917" lon="-7.91616"><ele>708.3333333333334</ele><time>2026-04-14T08:46:44.843Z</time></trkpt><trkpt lat="42.649055" lon="-7.91589"><ele>710.6666666666666</ele><time>2026-04-14T08:46:45.844Z</time></trkpt><trkpt lat="42.649095" lon="-7.9156217"><ele>713.0</ele><time>2026-04-14T08:46:46.844Z</time></trkpt><trkpt lat="42.6491233" lon="-7.915355"><ele>713.0</ele><time>2026-04-14T08:46:47.843Z</time></trkpt><trkpt lat="42.649135" lon="-7.91508"><ele>713.0</ele><time>2026-04-14T08:46:48.843Z</time></trkpt><trkpt lat="42.64913" lon="-7.9148117"><ele>713.0</ele><time>2026-04-14T08:46:49.843Z</time></trkpt><trkpt lat="42.6491217" lon="-7.91454"><ele>714.0</ele><time>2026-04-14T08:46:50.843Z</time></trkpt><trkpt lat="42.64911" lon="-7.9142783"><ele>715.0</ele><time>2026-04-14T08:46:51.844Z</time></trkpt><trkpt lat="42.6490883" lon="-7.9140117"><ele>716.0</ele><time>2026-04-14T08:46:52.844Z</time></trkpt><trkpt lat="42.64907" lon="-7.9137483"><ele>716.6666666666666</ele><time>2026-04-14T08:46:53.843Z</time></trkpt><trkpt lat="42.64905" lon="-7.9134767"><ele>717.3333333333334</ele><time>2026-04-14T08:46:54.844Z</time></trkpt><trkpt lat="42.6490283" lon="-7.9132133"><ele>718.0</ele><time>2026-04-14T08:46:55.843Z</time></trkpt><trkpt lat="42.6490167" lon="-7.9129483"><ele>719.0</ele><time>2026-04-14T08:46:56.844Z</time></trkpt><trkpt lat="42.6489967" lon="-7.912685"><ele>720.0</ele><time>2026-04-14T08:46:57.843Z</time></trkpt><trkpt lat="42.6489717" lon="-7.9124133"><ele>721.0</ele><time>2026-04-14T08:46:58.843Z</time></trkpt><trkpt lat="42.648945" lon="-7.9121433"><ele>721.3333333333334</ele><time>2026-04-14T08:46:59.843Z</time></trkpt><trkpt lat="42.6489233" lon="-7.9118767"><ele>721.6666666666666</ele><time>2026-04-14T08:47:00.844Z</time></trkpt><trkpt lat="42.6489017" lon="-7.9116133"><ele>722.0</ele><time>2026-04-14T08:47:01.844Z</time></trkpt><trkpt lat="42.648885" lon="-7.91135"><ele>723.3333333333333</ele><time>2026-04-14T08:47:02.843Z</time></trkpt><trkpt lat="42.648875" lon="-7.911085"><ele>724.6666666666666</ele><time>2026-04-14T08:47:03.844Z</time></trkpt><trkpt lat="42.6488667" lon="-7.91082"><ele>726.0</ele><time>2026-04-14T08:47:04.844Z</time></trkpt><trkpt lat="42.6488667" lon="-7.910555"><ele>727.6666666666666</ele><time>2026-04-14T08:47:05.843Z</time></trkpt><trkpt lat="42.64887" lon="-7.9102933"><ele>729.3333333333333</ele><time>2026-04-14T08:47:06.844Z</time></trkpt><trkpt lat="42.6488817" lon="-7.91004"><ele>731.0</ele><time>2026-04-14T08:47:07.844Z</time></trkpt><trkpt lat="42.6489117" lon="-7.90977"><ele>732.0</ele><time>2026-04-14T08:47:08.844Z</time></trkpt><trkpt lat="42.6489417" lon="-7.9095033"><ele>733.0</ele><time>2026-04-14T08:47:09.844Z</time></trkpt><trkpt lat="42.64898" lon="-7.9092383"><ele>734.0</ele><time>2026-04-14T08:47:10.845Z</time></trkpt><trkpt lat="42.6490283" lon="-7.9089733"><ele>735.6666666666666</ele><time>2026-04-14T08:47:11.844Z</time></trkpt><trkpt lat="42.6490817" lon="-7.9087083"><ele>737.3333333333334</ele><time>2026-04-14T08:47:12.844Z</time></trkpt><trkpt lat="42.6491367" lon="-7.90845"><ele>739.0</ele><time>2026-04-14T08:47:13.844Z</time></trkpt><trkpt lat="42.6492067" lon="-7.9081967"><ele>740.6666666666667</ele><time>2026-04-14T08:47:14.844Z</time></trkpt><trkpt lat="42.64928" lon="-7.907955"><ele>742.3333333333334</ele><time>2026-04-14T08:47:15.844Z</time></trkpt><trkpt lat="42.6493733" lon="-7.9077183"><ele>744.0</ele><time>2026-04-14T08:47:16.844Z</time></trkpt><trkpt lat="42.6494583" lon="-7.9074817"><ele>744.3333333333334</ele><time>2026-04-14T08:47:17.844Z</time></trkpt><trkpt lat="42.6495383" lon="-7.907235"><ele>744.6666666666667</ele><time>2026-04-14T08:47:18.844Z</time></trkpt><trkpt lat="42.64962" lon="-7.9069883"><ele>745.0</ele><time>2026-04-14T08:47:19.844Z</time></trkpt><trkpt lat="42.649705" lon="-7.9067433"><ele>745.0</ele><time>2026-04-14T08:47:20.845Z</time></trkpt><trkpt lat="42.6497833" lon="-7.9064967"><ele>745.0</ele><time>2026-04-14T08:47:21.844Z</time></trkpt><trkpt lat="42.6498683" lon="-7.9062533"><ele>745.0</ele><time>2026-04-14T08:47:22.844Z</time></trkpt><trkpt lat="42.6499517" lon="-7.906"><ele>747.3333333333334</ele><time>2026-04-14T08:47:23.844Z</time></trkpt><trkpt lat="42.6500383" lon="-7.9057483"><ele>749.6666666666666</ele><time>2026-04-14T08:47:24.845Z</time></trkpt><trkpt lat="42.6501183" lon="-7.9055033"><ele>752.0</ele><time>2026-04-14T08:47:25.844Z</time></trkpt><trkpt lat="42.650205" lon="-7.9052617"><ele>751.6666666666666</ele><time>2026-04-14T08:47:26.844Z</time></trkpt><trkpt lat="42.65029" lon="-7.90502"><ele>751.3333333333334</ele><time>2026-04-14T08:47:27.844Z</time></trkpt><trkpt lat="42.6503767" lon="-7.90478"><ele>751.0</ele><time>2026-04-14T08:47:28.844Z</time></trkpt><trkpt lat="42.6504583" lon="-7.90453"><ele>751.0</ele><time>2026-04-14T08:47:29.844Z</time></trkpt><trkpt lat="42.6505483" lon="-7.904275"><ele>751.0</ele><time>2026-04-14T08:47:30.844Z</time></trkpt><trkpt lat="42.65064" lon="-7.9040283"><ele>751.0</ele><time>2026-04-14T08:47:31.844Z</time></trkpt><trkpt lat="42.6507533" lon="-7.9037883"><ele>754.6666666666667</ele><time>2026-04-14T08:47:32.844Z</time></trkpt><trkpt lat="42.6508783" lon="-7.90356"><ele>758.3333333333334</ele><time>2026-04-14T08:47:33.845Z</time></trkpt><trkpt lat="42.651025" lon="-7.9033533"><ele>762.0</ele><time>2026-04-14T08:47:34.844Z</time></trkpt><trkpt lat="42.6511767" lon="-7.9031583"><ele>764.0</ele><time>2026-04-14T08:47:35.845Z</time></trkpt><trkpt lat="42.65134" lon="-7.90297"><ele>766.0</ele><time>2026-04-14T08:47:36.844Z</time></trkpt><trkpt lat="42.6515083" lon="-7.902795"><ele>768.0</ele><time>2026-04-14T08:47:37.845Z</time></trkpt><trkpt lat="42.6516917" lon="-7.902635"><ele>771.0</ele><time>2026-04-14T08:47:38.845Z</time></trkpt><trkpt lat="42.651875" lon="-7.9024933"><ele>774.0</ele><time>2026-04-14T08:47:39.845Z</time></trkpt><trkpt lat="42.6520683" lon="-7.9023583"><ele>777.0</ele><time>2026-04-14T08:47:40.844Z</time></trkpt><trkpt lat="42.6522583" lon="-7.9022217"><ele>777.0</ele><time>2026-04-14T08:47:41.845Z</time></trkpt><trkpt lat="42.6524417" lon="-7.9020783"><ele>777.0</ele><time>2026-04-14T08:47:42.844Z</time></trkpt><trkpt lat="42.652625" lon="-7.901925"><ele>777.0</ele><time>2026-04-14T08:47:43.845Z</time></trkpt><trkpt lat="42.6528017" lon="-7.9017633"><ele>778.3333333333333</ele><time>2026-04-14T08:47:44.844Z</time></trkpt><trkpt lat="42.652965" lon="-7.9015817"><ele>779.6666666666666</ele><time>2026-04-14T08:47:45.844Z</time></trkpt><trkpt lat="42.6531217" lon="-7.9013817"><ele>781.0</ele><time>2026-04-14T08:47:46.844Z</time></trkpt><trkpt lat="42.65326" lon="-7.90117"><ele>781.0</ele><time>2026-04-14T08:47:47.844Z</time></trkpt><trkpt lat="42.6534017" lon="-7.9009567"><ele>781.0</ele><time>2026-04-14T08:47:48.845Z</time></trkpt><trkpt lat="42.65354" lon="-7.9007367"><ele>781.0</ele><time>2026-04-14T08:47:49.844Z</time></trkpt><trkpt lat="42.6536817" lon="-7.9005217"><ele>780.0</ele><time>2026-04-14T08:47:50.845Z</time></trkpt><trkpt lat="42.65382" lon="-7.90031"><ele>779.0</ele><time>2026-04-14T08:47:51.845Z</time></trkpt><trkpt lat="42.6539583" lon="-7.9000983"><ele>778.0</ele><time>2026-04-14T08:47:52.844Z</time></trkpt><trkpt lat="42.6540967" lon="-7.8998767"><ele>782.6666666666666</ele><time>2026-04-14T08:47:53.844Z</time></trkpt><trkpt lat="42.6542317" lon="-7.8996633"><ele>787.3333333333333</ele><time>2026-04-14T08:47:54.844Z</time></trkpt><trkpt lat="42.654375" lon="-7.8994517"><ele>792.0</ele><time>2026-04-14T08:47:55.844Z</time></trkpt><trkpt lat="42.65452" lon="-7.8992483"><ele>792.3333333333333</ele><time>2026-04-14T08:47:56.844Z</time></trkpt><trkpt lat="42.6546683" lon="-7.8990517"><ele>792.6666666666666</ele><time>2026-04-14T08:47:57.845Z</time></trkpt><trkpt lat="42.6548217" lon="-7.8988667"><ele>793.0</ele><time>2026-04-14T08:47:58.844Z</time></trkpt><trkpt lat="42.6549833" lon="-7.8986917"><ele>793.0</ele><time>2026-04-14T08:47:59.845Z</time></trkpt><trkpt lat="42.655155" lon="-7.8985333"><ele>793.0</ele><time>2026-04-14T08:48:00.844Z</time></trkpt><trkpt lat="42.6553367" lon="-7.8983867"><ele>793.0</ele><time>2026-04-14T08:48:01.844Z</time></trkpt><trkpt lat="42.65552" lon="-7.89824"><ele>797.0</ele><time>2026-04-14T08:48:02.844Z</time></trkpt><trkpt lat="42.6557033" lon="-7.8981"><ele>801.0</ele><time>2026-04-14T08:48:03.844Z</time></trkpt><trkpt lat="42.6558917" lon="-7.8979617"><ele>805.0</ele><time>2026-04-14T08:48:04.845Z</time></trkpt><trkpt lat="42.6560717" lon="-7.8978167"><ele>806.0</ele><time>2026-04-14T08:48:05.844Z</time></trkpt><trkpt lat="42.656265" lon="-7.8976767"><ele>807.0</ele><time>2026-04-14T08:48:06.844Z</time></trkpt><trkpt lat="42.6564567" lon="-7.897535"><ele>808.0</ele><time>2026-04-14T08:48:07.844Z</time></trkpt><trkpt lat="42.6566433" lon="-7.897395"><ele>809.6666666666666</ele><time>2026-04-14T08:48:08.844Z</time></trkpt><trkpt lat="42.6568333" lon="-7.8972533"><ele>811.3333333333333</ele><time>2026-04-14T08:48:09.844Z</time></trkpt><trkpt lat="42.6570283" lon="-7.8971133"><ele>813.0</ele><time>2026-04-14T08:48:10.844Z</time></trkpt><trkpt lat="42.65722" lon="-7.8969733"><ele>813.0</ele><time>2026-04-14T08:48:11.844Z</time></trkpt><trkpt lat="42.657415" lon="-7.8968317"><ele>813.0</ele><time>2026-04-14T08:48:12.844Z</time></trkpt><trkpt lat="42.6576033" lon="-7.8966917"><ele>813.0</ele><time>2026-04-14T08:48:13.844Z</time></trkpt><trkpt lat="42.6577967" lon="-7.8965467"><ele>816.0</ele><time>2026-04-14T08:48:14.845Z</time></trkpt><trkpt lat="42.657985" lon="-7.8963967"><ele>819.0</ele><time>2026-04-14T08:48:15.844Z</time></trkpt><trkpt lat="42.65818" lon="-7.8962567"><ele>822.0</ele><time>2026-04-14T08:48:16.845Z</time></trkpt><trkpt lat="42.6583683" lon="-7.896115"><ele>822.0</ele><time>2026-04-14T08:48:17.844Z</time></trkpt><trkpt lat="42.6585567" lon="-7.8959783"><ele>822.0</ele><time>2026-04-14T08:48:18.844Z</time></trkpt><trkpt lat="42.65874" lon="-7.8958383"><ele>822.0</ele><time>2026-04-14T08:48:19.844Z</time></trkpt><trkpt lat="42.6589333" lon="-7.8957033"><ele>826.3333333333333</ele><time>2026-04-14T08:48:20.845Z</time></trkpt><trkpt lat="42.6591183" lon="-7.8955633"><ele>830.6666666666666</ele><time>2026-04-14T08:48:21.845Z</time></trkpt><trkpt lat="42.6593133" lon="-7.8954283"><ele>835.0</ele><time>2026-04-14T08:48:22.844Z</time></trkpt><trkpt lat="42.659505" lon="-7.8952917"><ele>835.0</ele><time>2026-04-14T08:48:23.844Z</time></trkpt><trkpt lat="42.6596967" lon="-7.895145"><ele>835.0</ele><time>2026-04-14T08:48:24.844Z</time></trkpt><trkpt lat="42.6540967" lon="-7.8998767"><ele>821.0</ele><time>2026-04-14T08:47:53.844Z</time></trkpt><trkpt lat="42.6542317" lon="-7.8996633"><ele>807.0</ele><time>2026-04-14T08:47:54.844Z</time></trkpt><trkpt lat="42.654375" lon="-7.8994517"><ele>793.0</ele><time>2026-04-14T08:47:55.844Z</time></trkpt><trkpt lat="42.65452" lon="-7.8992483"><ele>793.0</ele><time>2026-04-14T08:47:56.844Z</time></trkpt><trkpt lat="42.6546683" lon="-7.8990517"><ele>793.0</ele><time>2026-04-14T08:47:57.845Z</time></trkpt><trkpt lat="42.6548217" lon="-7.8988667"><ele>793.0</ele><time>2026-04-14T08:47:58.844Z</time></trkpt><trkpt lat="42.6549833" lon="-7.8986917"><ele>793.0</ele><time>2026-04-14T08:47:59.845Z</time></trkpt><trkpt lat="42.655155" lon="-7.8985333"><ele>793.0</ele><time>2026-04-14T08:48:00.844Z</time></trkpt><trkpt lat="42.6553367" lon="-7.8983867"><ele>793.0</ele><time>2026-04-14T08:48:01.844Z</time></trkpt><trkpt lat="42.65552" lon="-7.89824"><ele>797.0</ele><time>2026-04-14T08:48:02.844Z</time></trkpt><trkpt lat="42.6557033" lon="-7.8981"><ele>801.0</ele><time>2026-04-14T08:48:03.844Z</time></trkpt><trkpt lat="42.6558917" lon="-7.8979617"><ele>805.0</ele><time>2026-04-14T08:48:04.845Z</time></trkpt><trkpt lat="42.6560717" lon="-7.8978167"><ele>806.0</ele><time>2026-04-14T08:48:05.844Z</time></trkpt><trkpt lat="42.656265" lon="-7.8976767"><ele>807.0</ele><time>2026-04-14T08:48:06.844Z</time></trkpt><trkpt lat="42.6564567" lon="-7.897535"><ele>808.0</ele><time>2026-04-14T08:48:07.844Z</time></trkpt><trkpt lat="42.6566433" lon="-7.897395"><ele>809.6666666666666</ele><time>2026-04-14T08:48:08.844Z</time></trkpt><trkpt lat="42.6568333" lon="-7.8972533"><ele>811.3333333333333</ele><time>2026-04-14T08:48:09.844Z</time></trkpt><trkpt lat="42.6570283" lon="-7.8971133"><ele>813.0</ele><time>2026-04-14T08:48:10.844Z</time></trkpt><trkpt lat="42.65722" lon="-7.8969733"><ele>813.0</ele><time>2026-04-14T08:48:11.844Z</time></trkpt><trkpt lat="42.657415" lon="-7.8968317"><ele>813.0</ele><time>2026-04-14T08:48:12.844Z</time></trkpt><trkpt lat="42.6576033" lon="-7.8966917"><ele>813.0</ele><time>2026-04-14T08:48:13.844Z</time></trkpt><trkpt lat="42.6577967" lon="-7.8965467"><ele>816.0</ele><time>2026-04-14T08:48:14.845Z</time></trkpt><trkpt lat="42.657985" lon="-7.8963967"><ele>819.0</ele><time>2026-04-14T08:48:15.844Z</time></trkpt><trkpt lat="42.65818" lon="-7.8962567"><ele>822.0</ele><time>2026-04-14T08:48:16.845Z</time></trkpt><trkpt lat="42.6583683" lon="-7.896115"><ele>822.0</ele><time>2026-04-14T08:48:17.844Z</time></trkpt><trkpt lat="42.6585567" lon="-7.8959783"><ele>822.0</ele><time>2026-04-14T08:48:18.844Z</time></trkpt><trkpt lat="42.65874" lon="-7.8958383"><ele>822.0</ele><time>2026-04-14T08:48:19.844Z</time></trkpt><trkpt lat="42.6589333" lon="-7.8957033"><ele>826.3333333333333</ele><time>2026-04-14T08:48:20.845Z</time></trkpt><trkpt lat="42.6591183" lon="-7.8955633"><ele>830.6666666666666</ele><time>2026-04-14T08:48:21.845Z</time></trkpt><trkpt lat="42.6593133" lon="-7.8954283"><ele>835.0</ele><time>2026-04-14T08:48:22.844Z</time></trkpt><trkpt lat="42.659505" lon="-7.8952917"><ele>835.0</ele><time>2026-04-14T08:48:23.844Z</time></trkpt><trkpt lat="42.6596967" lon="-7.895145"><ele>835.0</ele><time>2026-04-14T08:48:24.844Z</time></trkpt><trkpt lat="42.659885" lon="-7.8949983"><ele>835.0</ele><time>2026-04-14T08:48:25.845Z</time></trkpt><trkpt lat="42.6600817" lon="-7.894855"><ele>836.3333333333333</ele><time>2026-04-14T08:48:26.845Z</time></trkpt><trkpt lat="42.6602717" lon="-7.8947133"><ele>837.6666666666667</ele><time>2026-04-14T08:48:27.845Z</time></trkpt><trkpt lat="42.660465" lon="-7.89457"><ele>839.0</ele><time>2026-04-14T08:48:28.844Z</time></trkpt><trkpt lat="42.660665" lon="-7.8944183"><ele>839.0</ele><time>2026-04-14T08:48:29.845Z</time></trkpt><trkpt lat="42.66086" lon="-7.8942683"><ele>839.0</ele><time>2026-04-14T08:48:30.845Z</time></trkpt><trkpt lat="42.6610467" lon="-7.8941183"><ele>839.0</ele><time>2026-04-14T08:48:31.845Z</time></trkpt><trkpt lat="42.6612433" lon="-7.89398"><ele>840.0</ele><time>2026-04-14T08:48:32.845Z</time></trkpt><trkpt lat="42.661435" lon="-7.893845"><ele>841.0</ele><time>2026-04-14T08:48:33.844Z</time></trkpt><trkpt lat="42.661635" lon="-7.8937217"><ele>842.0</ele><time>2026-04-14T08:48:34.845Z</time></trkpt><trkpt lat="42.6618367" lon="-7.893605"><ele>843.3333333333334</ele><time>2026-04-14T08:48:35.844Z</time></trkpt><trkpt lat="42.6620367" lon="-7.8935117"><ele>844.6666666666667</ele><time>2026-04-14T08:48:36.844Z</time></trkpt><trkpt lat="42.6622433" lon="-7.893435"><ele>846.0</ele><time>2026-04-14T08:48:37.845Z</time></trkpt><trkpt lat="42.6624617" lon="-7.893385"><ele>849.0</ele><time>2026-04-14T08:48:38.844Z</time></trkpt><trkpt lat="42.6626733" lon="-7.893345"><ele>852.0</ele><time>2026-04-14T08:48:39.845Z</time></trkpt><trkpt lat="42.662885" lon="-7.89333"><ele>855.0</ele><time>2026-04-14T08:48:40.844Z</time></trkpt><trkpt lat="42.6631067" lon="-7.8933183"><ele>855.6666666666667</ele><time>2026-04-14T08:48:41.845Z</time></trkpt><trkpt lat="42.66333" lon="-7.8933033"><ele>856.3333333333334</ele><time>2026-04-14T08:48:42.844Z</time></trkpt><trkpt lat="42.66354" lon="-7.8932833"><ele>857.0</ele><time>2026-04-14T08:48:43.845Z</time></trkpt><trkpt lat="42.663755" lon="-7.8932567"><ele>857.3333333333334</ele><time>2026-04-14T08:48:44.845Z</time></trkpt><trkpt lat="42.6639683" lon="-7.8932167"><ele>857.6666666666667</ele><time>2026-04-14T08:48:45.844Z</time></trkpt><trkpt lat="42.6641817" lon="-7.8931683"><ele>858.0</ele><time>2026-04-14T08:48:46.845Z</time></trkpt><trkpt lat="42.6643917" lon="-7.8931183"><ele>856.6666666666667</ele><time>2026-04-14T08:48:47.844Z</time></trkpt><trkpt lat="42.6646033" lon="-7.8930667"><ele>855.3333333333334</ele><time>2026-04-14T08:48:48.844Z</time></trkpt><trkpt lat="42.6648233" lon="-7.8930017"><ele>854.0</ele><time>2026-04-14T08:48:49.844Z</time></trkpt><trkpt lat="42.6650383" lon="-7.892925"><ele>854.0</ele><time>2026-04-14T08:48:50.845Z</time></trkpt><trkpt lat="42.6652533" lon="-7.8928433"><ele>854.0</ele><time>2026-04-14T08:48:51.844Z</time></trkpt><trkpt lat="42.66546" lon="-7.892765"><ele>854.0</ele><time>2026-04-14T08:48:52.844Z</time></trkpt><trkpt lat="42.665665" lon="-7.892675"><ele>857.0</ele><time>2026-04-14T08:48:53.845Z</time></trkpt><trkpt lat="42.6658667" lon="-7.8925767"><ele>860.0</ele><time>2026-04-14T08:48:54.844Z</time></trkpt><trkpt lat="42.6660717" lon="-7.8924783"><ele>863.0</ele><time>2026-04-14T08:48:55.845Z</time></trkpt><trkpt lat="42.666275" lon="-7.892375"><ele>863.0</ele><time>2026-04-14T08:48:56.844Z</time></trkpt><trkpt lat="42.6664783" lon="-7.892275"><ele>863.0</ele><time>2026-04-14T08:48:57.845Z</time></trkpt><trkpt lat="42.6666833" lon="-7.89218"><ele>863.0</ele><time>2026-04-14T08:48:58.844Z</time></trkpt><trkpt lat="42.666895" lon="-7.8920733"><ele>864.0</ele><time>2026-04-14T08:48:59.845Z</time></trkpt><trkpt lat="42.6671117" lon="-7.891955"><ele>865.0</ele><time>2026-04-14T08:49:00.844Z</time></trkpt><trkpt lat="42.6673167" lon="-7.89183"><ele>868.0</ele><time>2026-04-14T08:49:01.844Z</time></trkpt><trkpt lat="42.6675167" lon="-7.8916833"><ele>871.0</ele><time>2026-04-14T08:49:02.844Z</time></trkpt><trkpt lat="42.6677117" lon="-7.8915267"><ele>871.5</ele><time>2026-04-14T08:49:03.845Z</time></trkpt><trkpt lat="42.6679083" lon="-7.8913667"><ele>872.0</ele><time>2026-04-14T08:49:04.844Z</time></trkpt><trkpt lat="42.668115" lon="-7.8911883"><ele>872.0</ele><time>2026-04-14T08:49:05.844Z</time></trkpt><trkpt lat="42.6683167" lon="-7.8909967"><ele>872.0</ele><time>2026-04-14T08:49:06.844Z</time></trkpt><trkpt lat="42.6685033" lon="-7.890795"><ele>867.5</ele><time>2026-04-14T08:49:07.845Z</time></trkpt><trkpt lat="42.668685" lon="-7.8905833"><ele>863.0</ele><time>2026-04-14T08:49:08.844Z</time></trkpt><trkpt lat="42.6688683" lon="-7.8903717"><ele>863.0</ele><time>2026-04-14T08:49:09.844Z</time></trkpt><trkpt lat="42.669045" lon="-7.89015"><ele>863.0</ele><time>2026-04-14T08:49:10.844Z</time></trkpt><trkpt lat="42.6692067" lon="-7.8899117"><ele>856.5</ele><time>2026-04-14T08:49:11.845Z</time></trkpt><trkpt lat="42.669365" lon="-7.889665"><ele>850.0</ele><time>2026-04-14T08:49:12.845Z</time></trkpt><trkpt lat="42.6695133" lon="-7.88942"><ele>841.5</ele><time>2026-04-14T08:49:13.845Z</time></trkpt><trkpt lat="42.6696533" lon="-7.88916"><ele>833.0</ele><time>2026-04-14T08:49:14.844Z</time></trkpt><trkpt lat="42.6697867" lon="-7.888895"><ele>833.0</ele><time>2026-04-14T08:49:15.845Z</time></trkpt><trkpt lat="42.6699033" lon="-7.88863"><ele>833.0</ele><time>2026-04-14T08:49:16.845Z</time></trkpt><trkpt lat="42.67001" lon="-7.8883533"><ele>834.0</ele><time>2026-04-14T08:49:17.845Z</time></trkpt><trkpt lat="42.6701067" lon="-7.8880633"><ele>835.0</ele><time>2026-04-14T08:49:18.845Z</time></trkpt><trkpt lat="42.67019" lon="-7.88777"><ele>837.5</ele><time>2026-04-14T08:49:19.844Z</time></trkpt><trkpt lat="42.670265" lon="-7.88746"><ele>840.0</ele><time>2026-04-14T08:49:20.845Z</time></trkpt><trkpt lat="42.67033" lon="-7.8871417"><ele>829.0</ele><time>2026-04-14T08:49:21.844Z</time></trkpt><trkpt lat="42.670375" lon="-7.8868183"><ele>818.0</ele><time>2026-04-14T08:49:22.844Z</time></trkpt><trkpt lat="42.6704133" lon="-7.8864967"><ele>815.5</ele><time>2026-04-14T08:49:23.845Z</time></trkpt><trkpt lat="42.6704383" lon="-7.8861717"><ele>813.0</ele><time>2026-04-14T08:49:24.844Z</time></trkpt><trkpt lat="42.6704517" lon="-7.8858317"><ele>811.0</ele><time>2026-04-14T08:49:25.844Z</time></trkpt><trkpt lat="42.6704433" lon="-7.8854933"><ele>809.0</ele><time>2026-04-14T08:49:26.844Z</time></trkpt><trkpt lat="42.6704217" lon="-7.8851583"><ele>807.0</ele><time>2026-04-14T08:49:27.845Z</time></trkpt><trkpt lat="42.6703767" lon="-7.884835"><ele>805.0</ele><time>2026-04-14T08:49:28.845Z</time></trkpt><trkpt lat="42.670315" lon="-7.8845117"><ele>811.5</ele><time>2026-04-14T08:49:29.844Z</time></trkpt><trkpt lat="42.670245" lon="-7.8841933"><ele>818.0</ele><time>2026-04-14T08:49:30.845Z</time></trkpt><trkpt lat="42.6701617" lon="-7.8838867"><ele>818.0</ele><time>2026-04-14T08:49:31.845Z</time></trkpt><trkpt lat="42.6700717" lon="-7.8835867"><ele>818.0</ele><time>2026-04-14T08:49:32.845Z</time></trkpt><trkpt lat="42.669965" lon="-7.8832967"><ele>810.5</ele><time>2026-04-14T08:49:33.844Z</time></trkpt><trkpt lat="42.669845" lon="-7.8830067"><ele>803.0</ele><time>2026-04-14T08:49:34.845Z</time></trkpt><trkpt lat="42.66972" lon="-7.8827217"><ele>807.0</ele><time>2026-04-14T08:49:35.845Z</time></trkpt><trkpt lat="42.6695783" lon="-7.882455"><ele>811.0</ele><time>2026-04-14T08:49:36.844Z</time></trkpt><trkpt lat="42.66943" lon="-7.8821967"><ele>811.0</ele><time>2026-04-14T08:49:37.844Z</time></trkpt><trkpt lat="42.6692683" lon="-7.8819483"><ele>811.0</ele><time>2026-04-14T08:49:38.844Z</time></trkpt><trkpt lat="42.6691" lon="-7.8817133"><ele>804.5</ele><time>2026-04-14T08:49:39.844Z</time></trkpt><trkpt lat="42.668935" lon="-7.8814917"><ele>798.0</ele><time>2026-04-14T08:49:40.844Z</time></trkpt><trkpt lat="42.66877" lon="-7.8812733"><ele>798.0</ele><time>2026-04-14T08:49:41.845Z</time></trkpt><trkpt lat="42.6686117" lon="-7.881055"><ele>798.0</ele><time>2026-04-14T08:49:42.844Z</time></trkpt><trkpt lat="42.6684567" lon="-7.8808383"><ele>798.0</ele><time>2026-04-14T08:49:43.844Z</time></trkpt><trkpt lat="42.6683067" lon="-7.8806133"><ele>796.6666666666667</ele><time>2026-04-14T08:49:44.845Z</time></trkpt><trkpt lat="42.6681683" lon="-7.880385"><ele>795.3333333333334</ele><time>2026-04-14T08:49:45.844Z</time></trkpt><trkpt lat="42.6680517" lon="-7.8801333"><ele>794.0</ele><time>2026-04-14T08:49:46.844Z</time></trkpt><trkpt lat="42.6679517" lon="-7.87987"><ele>789.6666666666667</ele><time>2026-04-14T08:49:47.845Z</time></trkpt><trkpt lat="42.6678583" lon="-7.8796017"><ele>785.3333333333333</ele><time>2026-04-14T08:49:48.845Z</time></trkpt><trkpt lat="42.66778" lon="-7.8793233"><ele>781.0</ele><time>2026-04-14T08:49:49.844Z</time></trkpt><trkpt lat="42.6677067" lon="-7.87903"><ele>780.0</ele><time>2026-04-14T08:49:50.845Z</time></trkpt><trkpt lat="42.6676433" lon="-7.8787567"><ele>779.0</ele><time>2026-04-14T08:49:51.845Z</time></trkpt><trkpt lat="42.6675983" lon="-7.8784883"><ele>778.0</ele><time>2026-04-14T08:49:52.845Z</time></trkpt><trkpt lat="42.6675683" lon="-7.8782017"><ele>818.0</ele><time>2026-04-14T08:49:53.845Z</time></trkpt><trkpt lat="42.67033" lon="-7.8871417"><ele>818.0</ele><time>2026-04-14T08:49:21.844Z</time></trkpt><trkpt lat="42.670375" lon="-7.8868183"><ele>818.0</ele><time>2026-04-14T08:49:22.844Z</time></trkpt><trkpt lat="42.6704133" lon="-7.8864967"><ele>815.5</ele><time>2026-04-14T08:49:23.845Z</time></trkpt><trkpt lat="42.6704383" lon="-7.8861717"><ele>813.0</ele><time>2026-04-14T08:49:24.844Z</time></trkpt><trkpt lat="42.6704517" lon="-7.8858317"><ele>811.0</ele><time>2026-04-14T08:49:25.844Z</time></trkpt><trkpt lat="42.6704433" lon="-7.8854933"><ele>809.0</ele><time>2026-04-14T08:49:26.844Z</time></trkpt><trkpt lat="42.6704217" lon="-7.8851583"><ele>807.0</ele><time>2026-04-14T08:49:27.845Z</time></trkpt><trkpt lat="42.6703767" lon="-7.884835"><ele>805.0</ele><time>2026-04-14T08:49:28.845Z</time></trkpt><trkpt lat="42.670315" lon="-7.8845117"><ele>811.5</ele><time>2026-04-14T08:49:29.844Z</time></trkpt><trkpt lat="42.670245" lon="-7.8841933"><ele>818.0</ele><time>2026-04-14T08:49:30.845Z</time></trkpt><trkpt lat="42.6701617" lon="-7.8838867"><ele>818.0</ele><time>2026-04-14T08:49:31.845Z</time></trkpt><trkpt lat="42.6700717" lon="-7.8835867"><ele>818.0</ele><time>2026-04-14T08:49:32.845Z</time></trkpt><trkpt lat="42.669965" lon="-7.8832967"><ele>810.5</ele><time>2026-04-14T08:49:33.844Z</time></trkpt><trkpt lat="42.669845" lon="-7.8830067"><ele>803.0</ele><time>2026-04-14T08:49:34.845Z</time></trkpt><trkpt lat="42.66972" lon="-7.8827217"><ele>807.0</ele><time>2026-04-14T08:49:35.845Z</time></trkpt><trkpt lat="42.6695783" lon="-7.882455"><ele>811.0</ele><time>2026-04-14T08:49:36.844Z</time></trkpt><trkpt lat="42.66943" lon="-7.8821967"><ele>811.0</ele><time>2026-04-14T08:49:37.844Z</time></trkpt><trkpt lat="42.6692683" lon="-7.8819483"><ele>811.0</ele><time>2026-04-14T08:49:38.844Z</time></trkpt><trkpt lat="42.6691" lon="-7.8817133"><ele>804.5</ele><time>2026-04-14T08:49:39.844Z</time></trkpt><trkpt lat="42.668935" lon="-7.8814917"><ele>798.0</ele><time>2026-04-14T08:49:40.844Z</time></trkpt><trkpt lat="42.66877" lon="-7.8812733"><ele>798.0</ele><time>2026-04-14T08:49:41.845Z</time></trkpt><trkpt lat="42.6686117" lon="-7.881055"><ele>798.0</ele><time>2026-04-14T08:49:42.844Z</time></trkpt><trkpt lat="42.6684567" lon="-7.8808383"><ele>798.0</ele><time>2026-04-14T08:49:43.844Z</time></trkpt><trkpt lat="42.6683067" lon="-7.8806133"><ele>796.6666666666667</ele><time>2026-04-14T08:49:44.845Z</time></trkpt><trkpt lat="42.6681683" lon="-7.880385"><ele>795.3333333333334</ele><time>2026-04-14T08:49:45.844Z</time></trkpt><trkpt lat="42.6680517" lon="-7.8801333"><ele>794.0</ele><time>2026-04-14T08:49:46.844Z</time></trkpt><trkpt lat="42.6679517" lon="-7.87987"><ele>789.6666666666667</ele><time>2026-04-14T08:49:47.845Z</time></trkpt><trkpt lat="42.6678583" lon="-7.8796017"><ele>785.3333333333333</ele><time>2026-04-14T08:49:48.845Z</time></trkpt><trkpt lat="42.66778" lon="-7.8793233"><ele>781.0</ele><time>2026-04-14T08:49:49.844Z</time></trkpt><trkpt lat="42.6677067" lon="-7.87903"><ele>780.0</ele><time>2026-04-14T08:49:50.845Z</time></trkpt><trkpt lat="42.6676433" lon="-7.8787567"><ele>779.0</ele><time>2026-04-14T08:49:51.845Z</time></trkpt><trkpt lat="42.6675983" lon="-7.8784883"><ele>778.0</ele><time>2026-04-14T08:49:52.845Z</time></trkpt><trkpt lat="42.6675683" lon="-7.8782017"><ele>775.0</ele><time>2026-04-14T08:49:53.845Z</time></trkpt><trkpt lat="42.6675517" lon="-7.8779183"><ele>772.0</ele><time>2026-04-14T08:49:54.844Z</time></trkpt><trkpt lat="42.667535" lon="-7.8776283"><ele>769.0</ele><time>2026-04-14T08:49:55.844Z</time></trkpt><trkpt lat="42.667545" lon="-7.8773417"><ele>765.6666666666666</ele><time>2026-04-14T08:49:56.844Z</time></trkpt><trkpt lat="42.6675683" lon="-7.8770483"><ele>762.3333333333333</ele><time>2026-04-14T08:49:57.845Z</time></trkpt><trkpt lat="42.6675983" lon="-7.8767467"><ele>759.0</ele><time>2026-04-14T08:49:58.845Z</time></trkpt><trkpt lat="42.6676367" lon="-7.8764467"><ele>757.5</ele><time>2026-04-14T08:49:59.845Z</time></trkpt><trkpt lat="42.6676933" lon="-7.8761483"><ele>756.0</ele><time>2026-04-14T08:50:00.845Z</time></trkpt><trkpt lat="42.6677683" lon="-7.8758567"><ele>753.0</ele><time>2026-04-14T08:50:01.844Z</time></trkpt><trkpt lat="42.66786" lon="-7.875575"><ele>750.0</ele><time>2026-04-14T08:50:02.845Z</time></trkpt><trkpt lat="42.6679633" lon="-7.8752917"><ele>748.5</ele><time>2026-04-14T08:50:03.844Z</time></trkpt><trkpt lat="42.6680633" lon="-7.8750067"><ele>747.0</ele><time>2026-04-14T08:50:04.844Z</time></trkpt><trkpt lat="42.6681733" lon="-7.8747283"><ele>747.0</ele><time>2026-04-14T08:50:05.844Z</time></trkpt><trkpt lat="42.66828" lon="-7.87444"><ele>747.0</ele><time>2026-04-14T08:50:06.845Z</time></trkpt><trkpt lat="42.668385" lon="-7.8741383"><ele>743.5</ele><time>2026-04-14T08:50:07.844Z</time></trkpt><trkpt lat="42.6684767" lon="-7.873835"><ele>740.0</ele><time>2026-04-14T08:50:08.845Z</time></trkpt><trkpt lat="42.6685617" lon="-7.8735367"><ele>732.0</ele><time>2026-04-14T08:50:09.845Z</time></trkpt><trkpt lat="42.668635" lon="-7.8732433"><ele>724.0</ele><time>2026-04-14T08:50:10.844Z</time></trkpt><trkpt lat="42.6687017" lon="-7.8729517"><ele>724.0</ele><time>2026-04-14T08:50:11.845Z</time></trkpt><trkpt lat="42.668755" lon="-7.8726667"><ele>724.0</ele><time>2026-04-14T08:50:12.844Z</time></trkpt><trkpt lat="42.6688" lon="-7.872375"><ele>724.0</ele><time>2026-04-14T08:50:13.844Z</time></trkpt><trkpt lat="42.6688383" lon="-7.8720833"><ele>724.5</ele><time>2026-04-14T08:50:14.844Z</time></trkpt><trkpt lat="42.6688617" lon="-7.8717833"><ele>725.0</ele><time>2026-04-14T08:50:15.845Z</time></trkpt><trkpt lat="42.6688767" lon="-7.8714733"><ele>722.0</ele><time>2026-04-14T08:50:16.845Z</time></trkpt><trkpt lat="42.668895" lon="-7.87116"><ele>719.0</ele><time>2026-04-14T08:50:17.844Z</time></trkpt><trkpt lat="42.6689167" lon="-7.8708417"><ele>715.5</ele><time>2026-04-14T08:50:18.845Z</time></trkpt><trkpt lat="42.668915" lon="-7.8705367"><ele>712.0</ele><time>2026-04-14T08:50:19.844Z</time></trkpt><trkpt lat="42.6688917" lon="-7.8702317"><ele>712.0</ele><time>2026-04-14T08:50:20.845Z</time></trkpt><trkpt lat="42.668875" lon="-7.8699167"><ele>712.0</ele><time>2026-04-14T08:50:21.844Z</time></trkpt><trkpt lat="42.6688483" lon="-7.8696083"><ele>712.0</ele><time>2026-04-14T08:50:22.845Z</time></trkpt><trkpt lat="42.6688233" lon="-7.869295"><ele>712.0</ele><time>2026-04-14T08:50:23.845Z</time></trkpt><trkpt lat="42.6687833" lon="-7.8689817"><ele>710.0</ele><time>2026-04-14T08:50:24.844Z</time></trkpt><trkpt lat="42.6687333" lon="-7.8686767"><ele>708.0</ele><time>2026-04-14T08:50:25.844Z</time></trkpt><trkpt lat="42.66868" lon="-7.8683733"><ele>710.5</ele><time>2026-04-14T08:50:26.844Z</time></trkpt><trkpt lat="42.66862" lon="-7.8680733"><ele>713.0</ele><time>2026-04-14T08:50:27.844Z</time></trkpt><trkpt lat="42.6685367" lon="-7.8677767"><ele>707.5</ele><time>2026-04-14T08:50:28.844Z</time></trkpt><trkpt lat="42.668445" lon="-7.8674833"><ele>702.0</ele><time>2026-04-14T08:50:29.845Z</time></trkpt><trkpt lat="42.6683467" lon="-7.867205"><ele>702.0</ele><time>2026-04-14T08:50:30.844Z</time></trkpt><trkpt lat="42.6682317" lon="-7.866925"><ele>702.0</ele><time>2026-04-14T08:50:31.844Z</time></trkpt><trkpt lat="42.6680933" lon="-7.8666667"><ele>698.5</ele><time>2026-04-14T08:50:32.845Z</time></trkpt><trkpt lat="42.66795" lon="-7.86642"><ele>695.0</ele><time>2026-04-14T08:50:33.845Z</time></trkpt><trkpt lat="42.667805" lon="-7.866185"><ele>695.0</ele><time>2026-04-14T08:50:34.845Z</time></trkpt><trkpt lat="42.6676567" lon="-7.865965"><ele>695.0</ele><time>2026-04-14T08:50:35.844Z</time></trkpt><trkpt lat="42.6674867" lon="-7.8657533"><ele>692.0</ele><time>2026-04-14T08:50:36.844Z</time></trkpt><trkpt lat="42.6673083" lon="-7.865555"><ele>689.0</ele><time>2026-04-14T08:50:37.845Z</time></trkpt><trkpt lat="42.66712" lon="-7.86538"><ele>688.5</ele><time>2026-04-14T08:50:38.845Z</time></trkpt><trkpt lat="42.66693" lon="-7.8652117"><ele>688.0</ele><time>2026-04-14T08:50:39.845Z</time></trkpt><trkpt lat="42.66673" lon="-7.8650717"><ele>684.0</ele><time>2026-04-14T08:50:40.844Z</time></trkpt><trkpt lat="42.666515" lon="-7.8649467"><ele>680.0</ele><time>2026-04-14T08:50:41.845Z</time></trkpt><trkpt lat="42.6663" lon="-7.8648283"><ele>678.6666666666666</ele><time>2026-04-14T08:50:42.844Z</time></trkpt><trkpt lat="42.6660883" lon="-7.864755"><ele>677.3333333333334</ele><time>2026-04-14T08:50:43.845Z</time></trkpt><trkpt lat="42.6658633" lon="-7.864685"><ele>676.0</ele><time>2026-04-14T08:50:44.844Z</time></trkpt><trkpt lat="42.665645" lon="-7.8646367"><ele>676.0</ele><time>2026-04-14T08:50:45.845Z</time></trkpt><trkpt lat="42.6654317" lon="-7.86461"><ele>676.0</ele><time>2026-04-14T08:50:46.844Z</time></trkpt><trkpt lat="42.6652167" lon="-7.8646"><ele>676.0</ele><time>2026-04-14T08:50:47.844Z</time></trkpt><trkpt lat="42.6649967" lon="-7.8646033"><ele>674.5</ele><time>2026-04-14T08:50:48.845Z</time></trkpt><trkpt lat="42.6647717" lon="-7.8646033"><ele>673.0</ele><time>2026-04-14T08:50:49.845Z</time></trkpt><trkpt lat="42.6645467" lon="-7.8646133"><ele>671.6666666666667</ele><time>2026-04-14T08:50:50.844Z</time></trkpt><trkpt lat="42.6643233" lon="-7.8646233"><ele>670.3333333333334</ele><time>2026-04-14T08:50:51.844Z</time></trkpt><trkpt lat="42.6641" lon="-7.8646317"><ele>669.0</ele><time>2026-04-14T08:50:52.845Z</time></trkpt><trkpt lat="42.6638817" lon="-7.8646283"><ele>669.0</ele><time>2026-04-14T08:50:53.845Z</time></trkpt><trkpt lat="42.6636567" lon="-7.8646167"><ele>669.0</ele><time>2026-04-14T08:50:54.845Z</time></trkpt><trkpt lat="42.6634367" lon="-7.8645867"><ele>669.0</ele><time>2026-04-14T08:50:55.844Z</time></trkpt><trkpt lat="42.66322" lon="-7.864545"><ele>669.0</ele><time>2026-04-14T08:50:56.844Z</time></trkpt><trkpt lat="42.6630117" lon="-7.8644783"><ele>669.0</ele><time>2026-04-14T08:50:57.845Z</time></trkpt><trkpt lat="42.6628083" lon="-7.8643867"><ele>669.0</ele><time>2026-04-14T08:50:58.844Z</time></trkpt><trkpt lat="42.6626017" lon="-7.864285"><ele>670.0</ele><time>2026-04-14T08:50:59.845Z</time></trkpt><trkpt lat="42.6624017" lon="-7.8641683"><ele>671.0</ele><time>2026-04-14T08:51:00.845Z</time></trkpt><trkpt lat="42.6622033" lon="-7.86403"><ele>672.0</ele><time>2026-04-14T08:51:01.844Z</time></trkpt><trkpt lat="42.6620117" lon="-7.86387"><ele>670.0</ele><time>2026-04-14T08:51:02.844Z</time></trkpt><trkpt lat="42.66183" lon="-7.86369"><ele>668.0</ele><time>2026-04-14T08:51:03.845Z</time></trkpt><trkpt lat="42.6616533" lon="-7.86349"><ele>667.0</ele><time>2026-04-14T08:51:04.845Z</time></trkpt><trkpt lat="42.6614917" lon="-7.8632783"><ele>666.0</ele><time>2026-04-14T08:51:05.845Z</time></trkpt><trkpt lat="42.6613367" lon="-7.8630483"><ele>666.0</ele><time>2026-04-14T08:51:06.845Z</time></trkpt><trkpt lat="42.6611883" lon="-7.8627917"><ele>666.0</ele><time>2026-04-14T08:51:07.844Z</time></trkpt><trkpt lat="42.6610467" lon="-7.8625567"><ele>664.0</ele><time>2026-04-14T08:51:08.845Z</time></trkpt><trkpt lat="42.6609133" lon="-7.862295"><ele>662.0</ele><time>2026-04-14T08:51:09.844Z</time></trkpt><trkpt lat="42.6607917" lon="-7.86203"><ele>662.3333333333333</ele><time>2026-04-14T08:51:10.845Z</time></trkpt><trkpt lat="42.6606967" lon="-7.861755"><ele>662.6666666666666</ele><time>2026-04-14T08:51:11.844Z</time></trkpt><trkpt lat="42.6606133" lon="-7.8614717"><ele>663.0</ele><time>2026-04-14T08:51:12.844Z</time></trkpt><trkpt lat="42.6605467" lon="-7.8611767"><ele>663.0</ele><time>2026-04-14T08:51:13.845Z</time></trkpt><trkpt lat="42.66048" lon="-7.8608733"><ele>663.0</ele><time>2026-04-14T08:51:14.844Z</time></trkpt><trkpt lat="42.6604217" lon="-7.8605783"><ele>663.0</ele><time>2026-04-14T08:51:15.844Z</time></trkpt><trkpt lat="42.6603717" lon="-7.8602817"><ele>663.0</ele><time>2026-04-14T08:51:16.845Z</time></trkpt><trkpt lat="42.660315" lon="-7.86"><ele>663.0</ele><time>2026-04-14T08:51:17.844Z</time></trkpt><trkpt lat="42.660265" lon="-7.85971"><ele>661.0</ele><time>2026-04-14T08:51:18.845Z</time></trkpt><trkpt lat="42.6602083" lon="-7.8594283"><ele>659.0</ele><time>2026-04-14T08:51:19.844Z</time></trkpt><trkpt lat="42.6601483" lon="-7.8591517"><ele>657.0</ele><time>2026-04-14T08:51:20.844Z</time></trkpt><trkpt lat="42.6645467" lon="-7.8646133"><ele>661.0</ele><time>2026-04-14T08:50:50.844Z</time></trkpt><trkpt lat="42.6643233" lon="-7.8646233"><ele>665.0</ele><time>2026-04-14T08:50:51.844Z</time></trkpt><trkpt lat="42.6641" lon="-7.8646317"><ele>669.0</ele><time>2026-04-14T08:50:52.845Z</time></trkpt><trkpt lat="42.6638817" lon="-7.8646283"><ele>669.0</ele><time>2026-04-14T08:50:53.845Z</time></trkpt><trkpt lat="42.6636567" lon="-7.8646167"><ele>669.0</ele><time>2026-04-14T08:50:54.845Z</time></trkpt><trkpt lat="42.6634367" lon="-7.8645867"><ele>669.0</ele><time>2026-04-14T08:50:55.844Z</time></trkpt><trkpt lat="42.66322" lon="-7.864545"><ele>669.0</ele><time>2026-04-14T08:50:56.844Z</time></trkpt><trkpt lat="42.6630117" lon="-7.8644783"><ele>669.0</ele><time>2026-04-14T08:50:57.845Z</time></trkpt><trkpt lat="42.6628083" lon="-7.8643867"><ele>669.0</ele><time>2026-04-14T08:50:58.844Z</time></trkpt><trkpt lat="42.6626017" lon="-7.864285"><ele>670.0</ele><time>2026-04-14T08:50:59.845Z</time></trkpt><trkpt lat="42.6624017" lon="-7.8641683"><ele>671.0</ele><time>2026-04-14T08:51:00.845Z</time></trkpt><trkpt lat="42.6622033" lon="-7.86403"><ele>672.0</ele><time>2026-04-14T08:51:01.844Z</time></trkpt><trkpt lat="42.6620117" lon="-7.86387"><ele>670.0</ele><time>2026-04-14T08:51:02.844Z</time></trkpt><trkpt lat="42.66183" lon="-7.86369"><ele>668.0</ele><time>2026-04-14T08:51:03.845Z</time></trkpt><trkpt lat="42.6616533" lon="-7.86349"><ele>667.0</ele><time>2026-04-14T08:51:04.845Z</time></trkpt><trkpt lat="42.6614917" lon="-7.8632783"><ele>666.0</ele><time>2026-04-14T08:51:05.845Z</time></trkpt><trkpt lat="42.6613367" lon="-7.8630483"><ele>666.0</ele><time>2026-04-14T08:51:06.845Z</time></trkpt><trkpt lat="42.6611883" lon="-7.8627917"><ele>666.0</ele><time>2026-04-14T08:51:07.844Z</time></trkpt><trkpt lat="42.6610467" lon="-7.8625567"><ele>664.0</ele><time>2026-04-14T08:51:08.845Z</time></trkpt><trkpt lat="42.6609133" lon="-7.862295"><ele>662.0</ele><time>2026-04-14T08:51:09.844Z</time></trkpt><trkpt lat="42.6607917" lon="-7.86203"><ele>662.3333333333333</ele><time>2026-04-14T08:51:10.845Z</time></trkpt><trkpt lat="42.6606967" lon="-7.861755"><ele>662.6666666666666</ele><time>2026-04-14T08:51:11.844Z</time></trkpt><trkpt lat="42.6606133" lon="-7.8614717"><ele>663.0</ele><time>2026-04-14T08:51:12.844Z</time></trkpt><trkpt lat="42.6605467" lon="-7.8611767"><ele>663.0</ele><time>2026-04-14T08:51:13.845Z</time></trkpt><trkpt lat="42.66048" lon="-7.8608733"><ele>663.0</ele><time>2026-04-14T08:51:14.844Z</time></trkpt><trkpt lat="42.6604217" lon="-7.8605783"><ele>663.0</ele><time>2026-04-14T08:51:15.844Z</time></trkpt><trkpt lat="42.6603717" lon="-7.8602817"><ele>663.0</ele><time>2026-04-14T08:51:16.845Z</time></trkpt><trkpt lat="42.660315" lon="-7.86"><ele>663.0</ele><time>2026-04-14T08:51:17.844Z</time></trkpt><trkpt lat="42.660265" lon="-7.85971"><ele>661.0</ele><time>2026-04-14T08:51:18.845Z</time></trkpt><trkpt lat="42.6602083" lon="-7.8594283"><ele>659.0</ele><time>2026-04-14T08:51:19.844Z</time></trkpt><trkpt lat="42.6601483" lon="-7.8591517"><ele>657.0</ele><time>2026-04-14T08:51:20.844Z</time></trkpt><trkpt lat="42.6600733" lon="-7.85888"><ele>657.0</ele><time>2026-04-14T08:51:21.845Z</time></trkpt><trkpt lat="42.6600017" lon="-7.858605"><ele>657.0</ele><time>2026-04-14T08:51:22.844Z</time></trkpt><trkpt lat="42.6599317" lon="-7.8583267"><ele>657.0</ele><time>2026-04-14T08:51:23.845Z</time></trkpt><trkpt lat="42.6598617" lon="-7.8580467"><ele>657.0</ele><time>2026-04-14T08:51:24.844Z</time></trkpt><trkpt lat="42.6597883" lon="-7.85778"><ele>657.0</ele><time>2026-04-14T08:51:25.844Z</time></trkpt><trkpt lat="42.659705" lon="-7.8575067"><ele>657.0</ele><time>2026-04-14T08:51:26.844Z</time></trkpt><trkpt lat="42.65962" lon="-7.8572367"><ele>657.3333333333334</ele><time>2026-04-14T08:51:27.844Z</time></trkpt><trkpt lat="42.6595283" lon="-7.8569567"><ele>657.6666666666667</ele><time>2026-04-14T08:51:28.845Z</time></trkpt><trkpt lat="42.6594333" lon="-7.8566917"><ele>658.0</ele><time>2026-04-14T08:51:29.845Z</time></trkpt><trkpt lat="42.6593317" lon="-7.856415"><ele>657.0</ele><time>2026-04-14T08:51:30.844Z</time></trkpt><trkpt lat="42.659225" lon="-7.856145"><ele>656.0</ele><time>2026-04-14T08:51:31.844Z</time></trkpt><trkpt lat="42.65912" lon="-7.85588"><ele>655.0</ele><time>2026-04-14T08:51:32.844Z</time></trkpt><trkpt lat="42.6590083" lon="-7.8556033"><ele>653.5</ele><time>2026-04-14T08:51:33.844Z</time></trkpt><trkpt lat="42.6588867" lon="-7.8553333"><ele>652.0</ele><time>2026-04-14T08:51:34.844Z</time></trkpt><trkpt lat="42.658755" lon="-7.85506"><ele>651.5</ele><time>2026-04-14T08:51:35.844Z</time></trkpt><trkpt lat="42.65862" lon="-7.8547783"><ele>651.0</ele><time>2026-04-14T08:51:36.845Z</time></trkpt><trkpt lat="42.6584783" lon="-7.85448"><ele>650.5</ele><time>2026-04-14T08:51:37.844Z</time></trkpt><trkpt lat="42.6583267" lon="-7.85419"><ele>650.0</ele><time>2026-04-14T08:51:38.844Z</time></trkpt><trkpt lat="42.65817" lon="-7.8538983"><ele>650.0</ele><time>2026-04-14T08:51:39.844Z</time></trkpt><trkpt lat="42.6580133" lon="-7.853625"><ele>650.0</ele><time>2026-04-14T08:51:40.844Z</time></trkpt><trkpt lat="42.6578533" lon="-7.8533433"><ele>649.5</ele><time>2026-04-14T08:51:41.844Z</time></trkpt><trkpt lat="42.657685" lon="-7.8530633"><ele>649.0</ele><time>2026-04-14T08:51:42.844Z</time></trkpt><trkpt lat="42.65752" lon="-7.8528"><ele>649.5</ele><time>2026-04-14T08:51:43.845Z</time></trkpt><trkpt lat="42.6573633" lon="-7.8525517"><ele>650.0</ele><time>2026-04-14T08:51:44.844Z</time></trkpt><trkpt lat="42.6572033" lon="-7.85231"><ele>650.0</ele><time>2026-04-14T08:51:45.844Z</time></trkpt><trkpt lat="42.6570483" lon="-7.8520767"><ele>650.0</ele><time>2026-04-14T08:51:46.845Z</time></trkpt><trkpt lat="42.6569" lon="-7.851875"><ele>650.0</ele><time>2026-04-14T08:51:47.845Z</time></trkpt><trkpt lat="42.656765" lon="-7.8516883"><ele>653.0</ele><time>2026-04-14T08:51:48.845Z</time></trkpt><trkpt lat="42.6566233" lon="-7.851505"><ele>656.0</ele><time>2026-04-14T08:51:49.845Z</time></trkpt><trkpt lat="42.65648" lon="-7.8513133"><ele>659.0</ele><time>2026-04-14T08:51:50.845Z</time></trkpt><trkpt lat="42.65634" lon="-7.8511317"><ele>660.6666666666666</ele><time>2026-04-14T08:51:51.844Z</time></trkpt><trkpt lat="42.6562017" lon="-7.85095"><ele>662.3333333333334</ele><time>2026-04-14T08:51:52.844Z</time></trkpt><trkpt lat="42.6560733" lon="-7.8507617"><ele>664.0</ele><time>2026-04-14T08:51:53.844Z</time></trkpt><trkpt lat="42.6559433" lon="-7.8505883"><ele>667.0</ele><time>2026-04-14T08:51:54.844Z</time></trkpt><trkpt lat="42.6558017" lon="-7.8504067"><ele>670.0</ele><time>2026-04-14T08:51:55.845Z</time></trkpt><trkpt lat="42.65567" lon="-7.8502283"><ele>673.0</ele><time>2026-04-14T08:51:56.844Z</time></trkpt><trkpt lat="42.655535" lon="-7.8500517"><ele>673.0</ele><time>2026-04-14T08:51:57.844Z</time></trkpt><trkpt lat="42.6554083" lon="-7.84988"><ele>673.0</ele><time>2026-04-14T08:51:58.845Z</time></trkpt><trkpt lat="42.655285" lon="-7.8497117"><ele>673.0</ele><time>2026-04-14T08:51:59.844Z</time></trkpt><trkpt lat="42.6551533" lon="-7.84954"><ele>674.3333333333334</ele><time>2026-04-14T08:52:00.844Z</time></trkpt><trkpt lat="42.655035" lon="-7.849365"><ele>675.6666666666666</ele><time>2026-04-14T08:52:01.845Z</time></trkpt><trkpt lat="42.65492" lon="-7.849195"><ele>677.0</ele><time>2026-04-14T08:52:02.844Z</time></trkpt><trkpt lat="42.6547967" lon="-7.849025"><ele>677.0</ele><time>2026-04-14T08:52:03.844Z</time></trkpt><trkpt lat="42.6546717" lon="-7.8488567"><ele>677.0</ele><time>2026-04-14T08:52:04.845Z</time></trkpt><trkpt lat="42.65456" lon="-7.8486883"><ele>677.0</ele><time>2026-04-14T08:52:05.844Z</time></trkpt><trkpt lat="42.65445" lon="-7.8485183"><ele>682.3333333333333</ele><time>2026-04-14T08:52:06.844Z</time></trkpt><trkpt lat="42.65434" lon="-7.8483667"><ele>687.6666666666666</ele><time>2026-04-14T08:52:07.844Z</time></trkpt><trkpt lat="42.654235" lon="-7.8482117"><ele>693.0</ele><time>2026-04-14T08:52:08.845Z</time></trkpt><trkpt lat="42.6541317" lon="-7.84806"><ele>693.0</ele><time>2026-04-14T08:52:09.845Z</time></trkpt><trkpt lat="42.654025" lon="-7.8479067"><ele>693.0</ele><time>2026-04-14T08:52:10.845Z</time></trkpt><trkpt lat="42.65392" lon="-7.8477483"><ele>693.0</ele><time>2026-04-14T08:52:11.845Z</time></trkpt><trkpt lat="42.6538083" lon="-7.8475883"><ele>692.25</ele><time>2026-04-14T08:52:12.844Z</time></trkpt><trkpt lat="42.65371" lon="-7.84743"><ele>691.5</ele><time>2026-04-14T08:52:13.844Z</time></trkpt><trkpt lat="42.653615" lon="-7.84728"><ele>690.75</ele><time>2026-04-14T08:52:14.845Z</time></trkpt><trkpt lat="42.6535217" lon="-7.8471233"><ele>690.0</ele><time>2026-04-14T08:52:15.844Z</time></trkpt><trkpt lat="42.6534183" lon="-7.846975"><ele>693.6666666666666</ele><time>2026-04-14T08:52:16.845Z</time></trkpt><trkpt lat="42.65331" lon="-7.8468183"><ele>697.3333333333333</ele><time>2026-04-14T08:52:17.844Z</time></trkpt><trkpt lat="42.65321" lon="-7.8466667"><ele>701.0</ele><time>2026-04-14T08:52:18.845Z</time></trkpt><trkpt lat="42.6530983" lon="-7.8465133"><ele>701.0</ele><time>2026-04-14T08:52:19.844Z</time></trkpt><trkpt lat="42.652995" lon="-7.8463383"><ele>701.0</ele><time>2026-04-14T08:52:20.844Z</time></trkpt><trkpt lat="42.6528917" lon="-7.846155"><ele>701.0</ele><time>2026-04-14T08:52:21.845Z</time></trkpt><trkpt lat="42.6527833" lon="-7.8459817"><ele>701.0</ele><time>2026-04-14T08:52:22.845Z</time></trkpt><trkpt lat="42.652675" lon="-7.845815"><ele>701.0</ele><time>2026-04-14T08:52:23.844Z</time></trkpt><trkpt lat="42.6525683" lon="-7.8456417"><ele>701.0</ele><time>2026-04-14T08:52:24.845Z</time></trkpt><trkpt lat="42.6524667" lon="-7.84547"><ele>701.0</ele><time>2026-04-14T08:52:25.845Z</time></trkpt><trkpt lat="42.6523633" lon="-7.84529"><ele>701.0</ele><time>2026-04-14T08:52:26.844Z</time></trkpt><trkpt lat="42.65225" lon="-7.8451117"><ele>701.0</ele><time>2026-04-14T08:52:27.845Z</time></trkpt><trkpt lat="42.6521333" lon="-7.84492"><ele>699.6666666666666</ele><time>2026-04-14T08:52:28.844Z</time></trkpt><trkpt lat="42.65202" lon="-7.8447233"><ele>698.3333333333334</ele><time>2026-04-14T08:52:29.845Z</time></trkpt><trkpt lat="42.6518933" lon="-7.8445267"><ele>697.0</ele><time>2026-04-14T08:52:30.845Z</time></trkpt><trkpt lat="42.6517617" lon="-7.8443217"><ele>694.0</ele><time>2026-04-14T08:52:31.845Z</time></trkpt><trkpt lat="42.6516183" lon="-7.8441067"><ele>691.0</ele><time>2026-04-14T08:52:32.845Z</time></trkpt><trkpt lat="42.6514783" lon="-7.8438867"><ele>688.0</ele><time>2026-04-14T08:52:33.845Z</time></trkpt><trkpt lat="42.6513367" lon="-7.8436783"><ele>686.5</ele><time>2026-04-14T08:52:34.846Z</time></trkpt><trkpt lat="42.6511783" lon="-7.84346"><ele>685.0</ele><time>2026-04-14T08:52:35.845Z</time></trkpt><trkpt lat="42.6510083" lon="-7.8432417"><ele>685.0</ele><time>2026-04-14T08:52:36.845Z</time></trkpt><trkpt lat="42.6508367" lon="-7.8430167"><ele>685.0</ele><time>2026-04-14T08:52:37.846Z</time></trkpt><trkpt lat="42.65066" lon="-7.8427917"><ele>683.0</ele><time>2026-04-14T08:52:38.845Z</time></trkpt><trkpt lat="42.6504733" lon="-7.8425767"><ele>681.0</ele><time>2026-04-14T08:52:39.845Z</time></trkpt><trkpt lat="42.65027" lon="-7.8423583"><ele>681.0</ele><time>2026-04-14T08:52:40.845Z</time></trkpt><trkpt lat="42.650065" lon="-7.842145"><ele>681.0</ele><time>2026-04-14T08:52:41.846Z</time></trkpt><trkpt lat="42.6498483" lon="-7.84195"><ele>680.0</ele><time>2026-04-14T08:52:42.846Z</time></trkpt><trkpt lat="42.6496367" lon="-7.8417633"><ele>679.0</ele><time>2026-04-14T08:52:43.846Z</time></trkpt><trkpt lat="42.6494217" lon="-7.8415917"><ele>679.0</ele><time>2026-04-14T08:52:44.846Z</time></trkpt><trkpt lat="42.64921" lon="-7.84145"><ele>679.0</ele><time>2026-04-14T08:52:45.845Z</time></trkpt><trkpt lat="42.6489967" lon="-7.841295"><ele>679.0</ele><time>2026-04-14T08:52:46.845Z</time></trkpt><trkpt lat="42.648775" lon="-7.84115"><ele>679.0</ele><time>2026-04-14T08:52:47.846Z</time></trkpt><trkpt lat="42.6485617" lon="-7.8410083"><ele>706.0</ele><time>2026-04-14T08:52:48.846Z</time></trkpt><trkpt lat="42.65331" lon="-7.8468183"><ele>704.3333333333334</ele><time>2026-04-14T08:52:17.844Z</time></trkpt><trkpt lat="42.65321" lon="-7.8466667"><ele>702.6666666666666</ele><time>2026-04-14T08:52:18.845Z</time></trkpt><trkpt lat="42.6530983" lon="-7.8465133"><ele>701.0</ele><time>2026-04-14T08:52:19.844Z</time></trkpt><trkpt lat="42.652995" lon="-7.8463383"><ele>701.0</ele><time>2026-04-14T08:52:20.844Z</time></trkpt><trkpt lat="42.6528917" lon="-7.846155"><ele>701.0</ele><time>2026-04-14T08:52:21.845Z</time></trkpt><trkpt lat="42.6527833" lon="-7.8459817"><ele>701.0</ele><time>2026-04-14T08:52:22.845Z</time></trkpt><trkpt lat="42.652675" lon="-7.845815"><ele>701.0</ele><time>2026-04-14T08:52:23.844Z</time></trkpt><trkpt lat="42.6525683" lon="-7.8456417"><ele>701.0</ele><time>2026-04-14T08:52:24.845Z</time></trkpt><trkpt lat="42.6524667" lon="-7.84547"><ele>701.0</ele><time>2026-04-14T08:52:25.845Z</time></trkpt><trkpt lat="42.6523633" lon="-7.84529"><ele>699.6666666666666</ele><time>2026-04-14T08:52:26.844Z</time></trkpt><trkpt lat="42.65225" lon="-7.8451117"><ele>698.3333333333334</ele><time>2026-04-14T08:52:27.845Z</time></trkpt><trkpt lat="42.6521333" lon="-7.84492"><ele>697.0</ele><time>2026-04-14T08:52:28.844Z</time></trkpt><trkpt lat="42.65202" lon="-7.8447233"><ele>696.3333333333334</ele><time>2026-04-14T08:52:29.845Z</time></trkpt><trkpt lat="42.6518933" lon="-7.8445267"><ele>695.6666666666666</ele><time>2026-04-14T08:52:30.845Z</time></trkpt><trkpt lat="42.6517617" lon="-7.8443217"><ele>695.0</ele><time>2026-04-14T08:52:31.845Z</time></trkpt><trkpt lat="42.6516183" lon="-7.8441067"><ele>692.6666666666666</ele><time>2026-04-14T08:52:32.845Z</time></trkpt><trkpt lat="42.6514783" lon="-7.8438867"><ele>690.3333333333334</ele><time>2026-04-14T08:52:33.845Z</time></trkpt><trkpt lat="42.6513367" lon="-7.8436783"><ele>688.0</ele><time>2026-04-14T08:52:34.846Z</time></trkpt><trkpt lat="42.6511783" lon="-7.84346"><ele>686.5</ele><time>2026-04-14T08:52:35.845Z</time></trkpt><trkpt lat="42.6510083" lon="-7.8432417"><ele>685.0</ele><time>2026-04-14T08:52:36.845Z</time></trkpt><trkpt lat="42.6508367" lon="-7.8430167"><ele>685.0</ele><time>2026-04-14T08:52:37.846Z</time></trkpt><trkpt lat="42.65066" lon="-7.8427917"><ele>685.0</ele><time>2026-04-14T08:52:38.845Z</time></trkpt><trkpt lat="42.6504733" lon="-7.8425767"><ele>683.0</ele><time>2026-04-14T08:52:39.845Z</time></trkpt><trkpt lat="42.65027" lon="-7.8423583"><ele>681.0</ele><time>2026-04-14T08:52:40.845Z</time></trkpt><trkpt lat="42.650065" lon="-7.842145"><ele>681.0</ele><time>2026-04-14T08:52:41.846Z</time></trkpt><trkpt lat="42.6498483" lon="-7.84195"><ele>681.0</ele><time>2026-04-14T08:52:42.846Z</time></trkpt><trkpt lat="42.6496367" lon="-7.8417633"><ele>680.0</ele><time>2026-04-14T08:52:43.846Z</time></trkpt><trkpt lat="42.6494217" lon="-7.8415917"><ele>679.0</ele><time>2026-04-14T08:52:44.846Z</time></trkpt><trkpt lat="42.64921" lon="-7.84145"><ele>679.0</ele><time>2026-04-14T08:52:45.845Z</time></trkpt><trkpt lat="42.6489967" lon="-7.841295"><ele>679.0</ele><time>2026-04-14T08:52:46.845Z</time></trkpt><trkpt lat="42.648775" lon="-7.84115"><ele>679.0</ele><time>2026-04-14T08:52:47.846Z</time></trkpt><trkpt lat="42.6485617" lon="-7.8410083"><ele>679.0</ele><time>2026-04-14T08:52:48.846Z</time></trkpt><trkpt lat="42.6483417" lon="-7.84087"><ele>677.5</ele><time>2026-04-14T08:52:49.846Z</time></trkpt><trkpt lat="42.6481167" lon="-7.8407533"><ele>676.0</ele><time>2026-04-14T08:52:50.845Z</time></trkpt><trkpt lat="42.6478967" lon="-7.8406467"><ele>679.5</ele><time>2026-04-14T08:52:51.845Z</time></trkpt><trkpt lat="42.6476817" lon="-7.840545"><ele>683.0</ele><time>2026-04-14T08:52:52.846Z</time></trkpt><trkpt lat="42.6474667" lon="-7.8404333"><ele>683.0</ele><time>2026-04-14T08:52:53.845Z</time></trkpt><trkpt lat="42.6472533" lon="-7.8403333"><ele>683.0</ele><time>2026-04-14T08:52:54.846Z</time></trkpt><trkpt lat="42.6470317" lon="-7.8402433"><ele>683.0</ele><time>2026-04-14T08:52:55.845Z</time></trkpt><trkpt lat="42.646805" lon="-7.8401733"><ele>683.0</ele><time>2026-04-14T08:52:56.846Z</time></trkpt><trkpt lat="42.64658" lon="-7.840115"><ele>683.0</ele><time>2026-04-14T08:52:57.846Z</time></trkpt><trkpt lat="42.64635" lon="-7.840045"><ele>683.0</ele><time>2026-04-14T08:52:58.845Z</time></trkpt><trkpt lat="42.6461217" lon="-7.839985"><ele>681.0</ele><time>2026-04-14T08:52:59.846Z</time></trkpt><trkpt lat="42.6458983" lon="-7.839935"><ele>679.0</ele><time>2026-04-14T08:53:00.845Z</time></trkpt><trkpt lat="42.6456717" lon="-7.839885"><ele>679.0</ele><time>2026-04-14T08:53:01.846Z</time></trkpt><trkpt lat="42.6454467" lon="-7.83983"><ele>679.0</ele><time>2026-04-14T08:53:02.846Z</time></trkpt><trkpt lat="42.6452267" lon="-7.83976"><ele>679.3333333333334</ele><time>2026-04-14T08:53:03.846Z</time></trkpt><trkpt lat="42.645015" lon="-7.839685"><ele>679.6666666666666</ele><time>2026-04-14T08:53:04.846Z</time></trkpt><trkpt lat="42.6448033" lon="-7.8395867"><ele>680.0</ele><time>2026-04-14T08:53:05.845Z</time></trkpt><trkpt lat="42.6445883" lon="-7.8394717"><ele>681.0</ele><time>2026-04-14T08:53:06.845Z</time></trkpt><trkpt lat="42.64438" lon="-7.8393467"><ele>682.0</ele><time>2026-04-14T08:53:07.846Z</time></trkpt><trkpt lat="42.64417" lon="-7.8392033"><ele>679.5</ele><time>2026-04-14T08:53:08.846Z</time></trkpt><trkpt lat="42.643965" lon="-7.8390383"><ele>677.0</ele><time>2026-04-14T08:53:09.846Z</time></trkpt><trkpt lat="42.6437667" lon="-7.8388683"><ele>679.5</ele><time>2026-04-14T08:53:10.846Z</time></trkpt><trkpt lat="42.6435783" lon="-7.8386667"><ele>682.0</ele><time>2026-04-14T08:53:11.846Z</time></trkpt><trkpt lat="42.6433867" lon="-7.8384617"><ele>675.5</ele><time>2026-04-14T08:53:12.845Z</time></trkpt><trkpt lat="42.6432" lon="-7.83825"><ele>669.0</ele><time>2026-04-14T08:53:13.846Z</time></trkpt><trkpt lat="42.64301" lon="-7.8380567"><ele>669.0</ele><time>2026-04-14T08:53:14.846Z</time></trkpt><trkpt lat="42.642815" lon="-7.837875"><ele>669.0</ele><time>2026-04-14T08:53:15.845Z</time></trkpt><trkpt lat="42.6426133" lon="-7.8377117"><ele>665.0</ele><time>2026-04-14T08:53:16.846Z</time></trkpt><trkpt lat="42.6424067" lon="-7.8375717"><ele>661.0</ele><time>2026-04-14T08:53:17.845Z</time></trkpt><trkpt lat="42.6421967" lon="-7.8374417"><ele>661.0</ele><time>2026-04-14T08:53:18.846Z</time></trkpt><trkpt lat="42.641975" lon="-7.8373383"><ele>661.0</ele><time>2026-04-14T08:53:19.846Z</time></trkpt><trkpt lat="42.6417417" lon="-7.8372433"><ele>659.5</ele><time>2026-04-14T08:53:20.846Z</time></trkpt><trkpt lat="42.641515" lon="-7.8371667"><ele>658.0</ele><time>2026-04-14T08:53:21.845Z</time></trkpt><trkpt lat="42.64128" lon="-7.8371133"><ele>657.0</ele><time>2026-04-14T08:53:22.845Z</time></trkpt><trkpt lat="42.6410517" lon="-7.8370783"><ele>656.0</ele><time>2026-04-14T08:53:23.845Z</time></trkpt><trkpt lat="42.6408317" lon="-7.8370733"><ele>656.0</ele><time>2026-04-14T08:53:24.845Z</time></trkpt><trkpt lat="42.6406033" lon="-7.8370867"><ele>656.0</ele><time>2026-04-14T08:53:25.846Z</time></trkpt><trkpt lat="42.640375" lon="-7.8371133"><ele>653.3333333333333</ele><time>2026-04-14T08:53:26.845Z</time></trkpt><trkpt lat="42.6401517" lon="-7.8371533"><ele>650.6666666666666</ele><time>2026-04-14T08:53:27.845Z</time></trkpt><trkpt lat="42.6399333" lon="-7.8372067"><ele>648.0</ele><time>2026-04-14T08:53:28.845Z</time></trkpt><trkpt lat="42.6397167" lon="-7.83728"><ele>648.0</ele><time>2026-04-14T08:53:29.845Z</time></trkpt><trkpt lat="42.6395117" lon="-7.837375"><ele>648.0</ele><time>2026-04-14T08:53:30.846Z</time></trkpt><trkpt lat="42.6393033" lon="-7.837495"><ele>648.0</ele><time>2026-04-14T08:53:31.846Z</time></trkpt><trkpt lat="42.6390917" lon="-7.8376067"><ele>645.6666666666666</ele><time>2026-04-14T08:53:32.845Z</time></trkpt><trkpt lat="42.6388817" lon="-7.83771"><ele>643.3333333333333</ele><time>2026-04-14T08:53:33.846Z</time></trkpt><trkpt lat="42.6386733" lon="-7.83781"><ele>641.0</ele><time>2026-04-14T08:53:34.845Z</time></trkpt><trkpt lat="42.6384583" lon="-7.837895"><ele>637.0</ele><time>2026-04-14T08:53:35.845Z</time></trkpt><trkpt lat="42.6382433" lon="-7.8379683"><ele>633.0</ele><time>2026-04-14T08:53:36.845Z</time></trkpt><trkpt lat="42.6380217" lon="-7.8380333"><ele>629.0</ele><time>2026-04-14T08:53:37.846Z</time></trkpt><trkpt lat="42.6377983" lon="-7.8380817"><ele>624.0</ele><time>2026-04-14T08:53:38.846Z</time></trkpt><trkpt lat="42.6375767" lon="-7.8381167"><ele>619.0</ele><time>2026-04-14T08:53:39.845Z</time></trkpt><trkpt lat="42.6373517" lon="-7.8381383"><ele>614.0</ele><time>2026-04-14T08:53:40.846Z</time></trkpt><trkpt lat="42.63713" lon="-7.838145"><ele>609.0</ele><time>2026-04-14T08:53:41.845Z</time></trkpt><trkpt lat="42.6369017" lon="-7.838125"><ele>604.0</ele><time>2026-04-14T08:53:42.845Z</time></trkpt><trkpt lat="42.6366767" lon="-7.83809"><ele>604.0</ele><time>2026-04-14T08:53:43.845Z</time></trkpt><trkpt lat="42.6364533" lon="-7.83804"><ele>604.0</ele><time>2026-04-14T08:53:44.845Z</time></trkpt><trkpt lat="42.636225" lon="-7.837955"><ele>601.0</ele><time>2026-04-14T08:53:45.845Z</time></trkpt><trkpt lat="42.6360117" lon="-7.8378617"><ele>598.0</ele><time>2026-04-14T08:53:46.845Z</time></trkpt><trkpt lat="42.6358017" lon="-7.8377417"><ele>598.6666666666667</ele><time>2026-04-14T08:53:47.845Z</time></trkpt><trkpt lat="42.6355967" lon="-7.8376183"><ele>599.3333333333334</ele><time>2026-04-14T08:53:48.845Z</time></trkpt><trkpt lat="42.6354033" lon="-7.837485"><ele>600.0</ele><time>2026-04-14T08:53:49.846Z</time></trkpt><trkpt lat="42.635215" lon="-7.8373433"><ele>597.3333333333334</ele><time>2026-04-14T08:53:50.846Z</time></trkpt><trkpt lat="42.6350367" lon="-7.837195"><ele>594.6666666666667</ele><time>2026-04-14T08:53:51.845Z</time></trkpt><trkpt lat="42.6348633" lon="-7.837025"><ele>592.0</ele><time>2026-04-14T08:53:52.845Z</time></trkpt><trkpt lat="42.6346817" lon="-7.83682"><ele>591.0</ele><time>2026-04-14T08:53:53.846Z</time></trkpt><trkpt lat="42.63451" lon="-7.8366"><ele>590.0</ele><time>2026-04-14T08:53:54.845Z</time></trkpt><trkpt lat="42.6343517" lon="-7.8363783"><ele>588.6666666666666</ele><time>2026-04-14T08:53:55.845Z</time></trkpt><trkpt lat="42.6342067" lon="-7.8361467"><ele>587.3333333333334</ele><time>2026-04-14T08:53:56.845Z</time></trkpt><trkpt lat="42.6340717" lon="-7.8359083"><ele>586.0</ele><time>2026-04-14T08:53:57.845Z</time></trkpt><trkpt lat="42.633945" lon="-7.83566"><ele>585.6666666666667</ele><time>2026-04-14T08:53:58.845Z</time></trkpt><trkpt lat="42.6338283" lon="-7.8354"><ele>585.3333333333334</ele><time>2026-04-14T08:53:59.845Z</time></trkpt><trkpt lat="42.633715" lon="-7.835145"><ele>585.0</ele><time>2026-04-14T08:54:00.846Z</time></trkpt><trkpt lat="42.6336" lon="-7.834885"><ele>585.3333333333334</ele><time>2026-04-14T08:54:01.846Z</time></trkpt><trkpt lat="42.6334783" lon="-7.8346333"><ele>585.6666666666667</ele><time>2026-04-14T08:54:02.845Z</time></trkpt><trkpt lat="42.63337" lon="-7.83439"><ele>586.0</ele><time>2026-04-14T08:54:03.846Z</time></trkpt><trkpt lat="42.6332533" lon="-7.8341483"><ele>586.0</ele><time>2026-04-14T08:54:04.845Z</time></trkpt><trkpt lat="42.633135" lon="-7.8339067"><ele>586.0</ele><time>2026-04-14T08:54:05.846Z</time></trkpt><trkpt lat="42.6330167" lon="-7.83368"><ele>586.0</ele><time>2026-04-14T08:54:06.846Z</time></trkpt><trkpt lat="42.63289" lon="-7.8334567"><ele>591.3333333333334</ele><time>2026-04-14T08:54:07.845Z</time></trkpt><trkpt lat="42.6327667" lon="-7.833235"><ele>596.6666666666666</ele><time>2026-04-14T08:54:08.845Z</time></trkpt><trkpt lat="42.6326417" lon="-7.8330167"><ele>602.0</ele><time>2026-04-14T08:54:09.846Z</time></trkpt><trkpt lat="42.6325117" lon="-7.832805"><ele>600.0</ele><time>2026-04-14T08:54:10.845Z</time></trkpt><trkpt lat="42.6323633" lon="-7.8326"><ele>598.0</ele><time>2026-04-14T08:54:11.845Z</time></trkpt><trkpt lat="42.632225" lon="-7.8323967"><ele>596.0</ele><time>2026-04-14T08:54:12.846Z</time></trkpt><trkpt lat="42.6320833" lon="-7.8322017"><ele>598.3333333333333</ele><time>2026-04-14T08:54:13.846Z</time></trkpt><trkpt lat="42.6319367" lon="-7.832005"><ele>600.6666666666666</ele><time>2026-04-14T08:54:14.846Z</time></trkpt><trkpt lat="42.6317817" lon="-7.8318183"><ele>603.0</ele><time>2026-04-14T08:54:15.846Z</time></trkpt><trkpt lat="42.6316267" lon="-7.831625"><ele>603.0</ele><time>2026-04-14T08:54:16.846Z</time></trkpt><trkpt lat="42.631475" lon="-7.8314383"><ele>603.0</ele><time>2026-04-14T08:54:17.845Z</time></trkpt><trkpt lat="42.631325" lon="-7.8312467"><ele>603.0</ele><time>2026-04-14T08:54:18.845Z</time></trkpt><trkpt lat="42.6311867" lon="-7.8310483"><ele>603.3333333333334</ele><time>2026-04-14T08:54:19.845Z</time></trkpt><trkpt lat="42.6310517" lon="-7.83084"><ele>603.6666666666667</ele><time>2026-04-14T08:54:20.845Z</time></trkpt><trkpt lat="42.6309217" lon="-7.8306233"><ele>604.0</ele><time>2026-04-14T08:54:21.845Z</time></trkpt><trkpt lat="42.6308033" lon="-7.830395"><ele>604.0</ele><time>2026-04-14T08:54:22.846Z</time></trkpt><trkpt lat="42.6307" lon="-7.8301583"><ele>604.0</ele><time>2026-04-14T08:54:23.846Z</time></trkpt><trkpt lat="42.6305967" lon="-7.82991"><ele>604.0</ele><time>2026-04-14T08:54:24.845Z</time></trkpt><trkpt lat="42.6305033" lon="-7.82966"><ele>604.3333333333334</ele><time>2026-04-14T08:54:25.845Z</time></trkpt><trkpt lat="42.6304183" lon="-7.829395"><ele>604.6666666666666</ele><time>2026-04-14T08:54:26.846Z</time></trkpt><trkpt lat="42.6303567" lon="-7.8291317"><ele>605.0</ele><time>2026-04-14T08:54:27.846Z</time></trkpt><trkpt lat="42.6302967" lon="-7.8288533"><ele>607.6666666666666</ele><time>2026-04-14T08:54:28.845Z</time></trkpt><trkpt lat="42.6302467" lon="-7.82856"><ele>610.3333333333334</ele><time>2026-04-14T08:54:29.846Z</time></trkpt><trkpt lat="42.6302033" lon="-7.8282717"><ele>613.0</ele><time>2026-04-14T08:54:30.846Z</time></trkpt><trkpt lat="42.6301667" lon="-7.8279933"><ele>614.3333333333334</ele><time>2026-04-14T08:54:31.846Z</time></trkpt><trkpt lat="42.630125" lon="-7.8277033"><ele>615.6666666666666</ele><time>2026-04-14T08:54:32.845Z</time></trkpt><trkpt lat="42.63008" lon="-7.8274317"><ele>617.0</ele><time>2026-04-14T08:54:33.845Z</time></trkpt><trkpt lat="42.630025" lon="-7.8271517"><ele>619.0</ele><time>2026-04-14T08:54:34.846Z</time></trkpt><trkpt lat="42.629965" lon="-7.8268867"><ele>621.0</ele><time>2026-04-14T08:54:35.846Z</time></trkpt><trkpt lat="42.629895" lon="-7.82662"><ele>623.0</ele><time>2026-04-14T08:54:36.846Z</time></trkpt><trkpt lat="42.6298133" lon="-7.8263383"><ele>623.6666666666666</ele><time>2026-04-14T08:54:37.845Z</time></trkpt><trkpt lat="42.62972" lon="-7.82609"><ele>624.3333333333334</ele><time>2026-04-14T08:54:38.845Z</time></trkpt><trkpt lat="42.6296117" lon="-7.8258467"><ele>625.0</ele><time>2026-04-14T08:54:39.845Z</time></trkpt><trkpt lat="42.6294917" lon="-7.8256017"><ele>627.3333333333334</ele><time>2026-04-14T08:54:40.845Z</time></trkpt><trkpt lat="42.6293717" lon="-7.82538"><ele>629.6666666666666</ele><time>2026-04-14T08:54:41.846Z</time></trkpt><trkpt lat="42.6292333" lon="-7.8251483"><ele>632.0</ele><time>2026-04-14T08:54:42.845Z</time></trkpt><trkpt lat="42.629085" lon="-7.82494"><ele>632.0</ele><time>2026-04-14T08:54:43.845Z</time></trkpt><trkpt lat="42.6289317" lon="-7.8247283"><ele>632.0</ele><time>2026-04-14T08:54:44.845Z</time></trkpt><trkpt lat="42.628765" lon="-7.824535"><ele>632.0</ele><time>2026-04-14T08:54:45.846Z</time></trkpt><trkpt lat="42.628605" lon="-7.8243383"><ele>631.6666666666666</ele><time>2026-04-14T08:54:46.845Z</time></trkpt><trkpt lat="42.6284383" lon="-7.82415"><ele>631.3333333333334</ele><time>2026-04-14T08:54:47.846Z</time></trkpt><trkpt lat="42.6282633" lon="-7.82397"><ele>631.0</ele><time>2026-04-14T08:54:48.846Z</time></trkpt><trkpt lat="42.6280967" lon="-7.82376"><ele>631.0</ele><time>2026-04-14T08:54:49.845Z</time></trkpt><trkpt lat="42.62793" lon="-7.8235483"><ele>631.0</ele><time>2026-04-14T08:54:50.845Z</time></trkpt><trkpt lat="42.6277633" lon="-7.8233333"><ele>604.0</ele><time>2026-04-14T08:54:51.845Z</time></trkpt><trkpt lat="42.6309217" lon="-7.8306233"><ele>604.0</ele><time>2026-04-14T08:54:21.845Z</time></trkpt><trkpt lat="42.6308033" lon="-7.830395"><ele>604.0</ele><time>2026-04-14T08:54:22.846Z</time></trkpt><trkpt lat="42.6307" lon="-7.8301583"><ele>604.0</ele><time>2026-04-14T08:54:23.846Z</time></trkpt><trkpt lat="42.6305967" lon="-7.82991"><ele>604.3333333333334</ele><time>2026-04-14T08:54:24.845Z</time></trkpt><trkpt lat="42.6305033" lon="-7.82966"><ele>604.6666666666666</ele><time>2026-04-14T08:54:25.845Z</time></trkpt><trkpt lat="42.6304183" lon="-7.829395"><ele>605.0</ele><time>2026-04-14T08:54:26.846Z</time></trkpt><trkpt lat="42.6303567" lon="-7.8291317"><ele>607.6666666666666</ele><time>2026-04-14T08:54:27.846Z</time></trkpt><trkpt lat="42.6302967" lon="-7.8288533"><ele>610.3333333333334</ele><time>2026-04-14T08:54:28.845Z</time></trkpt><trkpt lat="42.6302467" lon="-7.82856"><ele>613.0</ele><time>2026-04-14T08:54:29.846Z</time></trkpt><trkpt lat="42.6302033" lon="-7.8282717"><ele>614.3333333333334</ele><time>2026-04-14T08:54:30.846Z</time></trkpt><trkpt lat="42.6301667" lon="-7.8279933"><ele>615.6666666666666</ele><time>2026-04-14T08:54:31.846Z</time></trkpt><trkpt lat="42.630125" lon="-7.8277033"><ele>617.0</ele><time>2026-04-14T08:54:32.845Z</time></trkpt><trkpt lat="42.63008" lon="-7.8274317"><ele>619.0</ele><time>2026-04-14T08:54:33.845Z</time></trkpt><trkpt lat="42.630025" lon="-7.8271517"><ele>621.0</ele><time>2026-04-14T08:54:34.846Z</time></trkpt><trkpt lat="42.629965" lon="-7.8268867"><ele>623.0</ele><time>2026-04-14T08:54:35.846Z</time></trkpt><trkpt lat="42.629895" lon="-7.82662"><ele>623.6666666666666</ele><time>2026-04-14T08:54:36.846Z</time></trkpt><trkpt lat="42.6298133" lon="-7.8263383"><ele>624.3333333333334</ele><time>2026-04-14T08:54:37.845Z</time></trkpt><trkpt lat="42.62972" lon="-7.82609"><ele>625.0</ele><time>2026-04-14T08:54:38.845Z</time></trkpt><trkpt lat="42.6296117" lon="-7.8258467"><ele>626.0</ele><time>2026-04-14T08:54:39.845Z</time></trkpt><trkpt lat="42.6294917" lon="-7.8256017"><ele>627.0</ele><time>2026-04-14T08:54:40.845Z</time></trkpt><trkpt lat="42.6293717" lon="-7.82538"><ele>628.0</ele><time>2026-04-14T08:54:41.846Z</time></trkpt><trkpt lat="42.6292333" lon="-7.8251483"><ele>629.3333333333334</ele><time>2026-04-14T08:54:42.845Z</time></trkpt><trkpt lat="42.629085" lon="-7.82494"><ele>630.6666666666666</ele><time>2026-04-14T08:54:43.845Z</time></trkpt><trkpt lat="42.6289317" lon="-7.8247283"><ele>632.0</ele><time>2026-04-14T08:54:44.845Z</time></trkpt><trkpt lat="42.628765" lon="-7.824535"><ele>631.6666666666666</ele><time>2026-04-14T08:54:45.846Z</time></trkpt><trkpt lat="42.628605" lon="-7.8243383"><ele>631.3333333333334</ele><time>2026-04-14T08:54:46.845Z</time></trkpt><trkpt lat="42.6284383" lon="-7.82415"><ele>631.0</ele><time>2026-04-14T08:54:47.846Z</time></trkpt><trkpt lat="42.6282633" lon="-7.82397"><ele>631.0</ele><time>2026-04-14T08:54:48.846Z</time></trkpt><trkpt lat="42.6280967" lon="-7.82376"><ele>631.0</ele><time>2026-04-14T08:54:49.845Z</time></trkpt><trkpt lat="42.62793" lon="-7.8235483"><ele>633.5</ele><time>2026-04-14T08:54:50.845Z</time></trkpt><trkpt lat="42.6277633" lon="-7.8233333"><ele>636.0</ele><time>2026-04-14T08:54:51.845Z</time></trkpt><trkpt lat="42.6276033" lon="-7.823115"><ele>636.0</ele><time>2026-04-14T08:54:52.845Z</time></trkpt><trkpt lat="42.6274483" lon="-7.8228867"><ele>636.0</ele><time>2026-04-14T08:54:53.846Z</time></trkpt><trkpt lat="42.6272967" lon="-7.8226567"><ele>633.5</ele><time>2026-04-14T08:54:54.845Z</time></trkpt><trkpt lat="42.627135" lon="-7.8224217"><ele>631.0</ele><time>2026-04-14T08:54:55.845Z</time></trkpt><trkpt lat="42.62698" lon="-7.8221933"><ele>629.6666666666667</ele><time>2026-04-14T08:54:56.846Z</time></trkpt><trkpt lat="42.626835" lon="-7.8219683"><ele>628.3333333333334</ele><time>2026-04-14T08:54:57.846Z</time></trkpt><trkpt lat="42.6266933" lon="-7.8217483"><ele>627.0</ele><time>2026-04-14T08:54:58.845Z</time></trkpt><trkpt lat="42.626555" lon="-7.82152"><ele>627.0</ele><time>2026-04-14T08:54:59.846Z</time></trkpt><trkpt lat="42.6264117" lon="-7.82129"><ele>627.0</ele><time>2026-04-14T08:55:00.845Z</time></trkpt><trkpt lat="42.6262717" lon="-7.82106"><ele>627.0</ele><time>2026-04-14T08:55:01.845Z</time></trkpt><trkpt lat="42.6261417" lon="-7.820825"><ele>626.0</ele><time>2026-04-14T08:55:02.846Z</time></trkpt><trkpt lat="42.62602" lon="-7.8205967"><ele>625.0</ele><time>2026-04-14T08:55:03.846Z</time></trkpt><trkpt lat="42.6259033" lon="-7.8203617"><ele>624.0</ele><time>2026-04-14T08:55:04.846Z</time></trkpt><trkpt lat="42.625785" lon="-7.8201183"><ele>621.0</ele><time>2026-04-14T08:55:05.846Z</time></trkpt><trkpt lat="42.6256733" lon="-7.8198667"><ele>618.0</ele><time>2026-04-14T08:55:06.846Z</time></trkpt><trkpt lat="42.6255583" lon="-7.819615"><ele>615.0</ele><time>2026-04-14T08:55:07.845Z</time></trkpt><trkpt lat="42.6254383" lon="-7.819365"><ele>614.3333333333334</ele><time>2026-04-14T08:55:08.845Z</time></trkpt><trkpt lat="42.6253233" lon="-7.8191083"><ele>613.6666666666667</ele><time>2026-04-14T08:55:09.846Z</time></trkpt><trkpt lat="42.6252133" lon="-7.8188417"><ele>613.0</ele><time>2026-04-14T08:55:10.846Z</time></trkpt><trkpt lat="42.625105" lon="-7.8185783"><ele>609.6666666666667</ele><time>2026-04-14T08:55:11.845Z</time></trkpt><trkpt lat="42.625" lon="-7.81831"><ele>606.3333333333334</ele><time>2026-04-14T08:55:12.846Z</time></trkpt><trkpt lat="42.6249" lon="-7.8180417"><ele>603.0</ele><time>2026-04-14T08:55:13.845Z</time></trkpt><trkpt lat="42.6248" lon="-7.81777"><ele>602.3333333333334</ele><time>2026-04-14T08:55:14.846Z</time></trkpt><trkpt lat="42.6247133" lon="-7.817495"><ele>601.6666666666667</ele><time>2026-04-14T08:55:15.845Z</time></trkpt><trkpt lat="42.624625" lon="-7.8172117"><ele>601.0</ele><time>2026-04-14T08:55:16.845Z</time></trkpt><trkpt lat="42.6245283" lon="-7.8169333"><ele>599.3333333333334</ele><time>2026-04-14T08:55:17.845Z</time></trkpt><trkpt lat="42.6244467" lon="-7.8166767"><ele>597.6666666666666</ele><time>2026-04-14T08:55:18.845Z</time></trkpt><trkpt lat="42.624365" lon="-7.8164033"><ele>596.0</ele><time>2026-04-14T08:55:19.845Z</time></trkpt><trkpt lat="42.6242817" lon="-7.8161283"><ele>593.3333333333333</ele><time>2026-04-14T08:55:20.845Z</time></trkpt><trkpt lat="42.6242067" lon="-7.8158517"><ele>590.6666666666666</ele><time>2026-04-14T08:55:21.845Z</time></trkpt><trkpt lat="42.6241367" lon="-7.8155783"><ele>588.0</ele><time>2026-04-14T08:55:22.845Z</time></trkpt><trkpt lat="42.624065" lon="-7.815305"><ele>587.6666666666666</ele><time>2026-04-14T08:55:23.846Z</time></trkpt><trkpt lat="42.6239833" lon="-7.8150367"><ele>587.3333333333333</ele><time>2026-04-14T08:55:24.845Z</time></trkpt><trkpt lat="42.6239" lon="-7.81477"><ele>587.0</ele><time>2026-04-14T08:55:25.846Z</time></trkpt><trkpt lat="42.62382" lon="-7.814505"><ele>586.6666666666666</ele><time>2026-04-14T08:55:26.846Z</time></trkpt><trkpt lat="42.6237267" lon="-7.81424"><ele>586.3333333333334</ele><time>2026-04-14T08:55:27.845Z</time></trkpt><trkpt lat="42.6236317" lon="-7.813975"><ele>586.0</ele><time>2026-04-14T08:55:28.845Z</time></trkpt><trkpt lat="42.6235333" lon="-7.8137083"><ele>584.0</ele><time>2026-04-14T08:55:29.846Z</time></trkpt><trkpt lat="42.6234333" lon="-7.8134517"><ele>582.0</ele><time>2026-04-14T08:55:30.845Z</time></trkpt><trkpt lat="42.62333" lon="-7.813195"><ele>580.0</ele><time>2026-04-14T08:55:31.846Z</time></trkpt><trkpt lat="42.6232283" lon="-7.8129333"><ele>580.0</ele><time>2026-04-14T08:55:32.845Z</time></trkpt><trkpt lat="42.6231183" lon="-7.8126917"><ele>580.0</ele><time>2026-04-14T08:55:33.845Z</time></trkpt><trkpt lat="42.6230117" lon="-7.8124583"><ele>580.0</ele><time>2026-04-14T08:55:34.845Z</time></trkpt><trkpt lat="42.622905" lon="-7.81222"><ele>578.6666666666667</ele><time>2026-04-14T08:55:35.845Z</time></trkpt><trkpt lat="42.6227967" lon="-7.811985"><ele>577.3333333333334</ele><time>2026-04-14T08:55:36.846Z</time></trkpt><trkpt lat="42.6226733" lon="-7.8117467"><ele>576.0</ele><time>2026-04-14T08:55:37.846Z</time></trkpt><trkpt lat="42.6225517" lon="-7.81151"><ele>575.6666666666666</ele><time>2026-04-14T08:55:38.845Z</time></trkpt><trkpt lat="42.62243" lon="-7.81127"><ele>575.3333333333333</ele><time>2026-04-14T08:55:39.846Z</time></trkpt><trkpt lat="42.6223" lon="-7.8110433"><ele>575.0</ele><time>2026-04-14T08:55:40.845Z</time></trkpt><trkpt lat="42.6221667" lon="-7.8108083"><ele>574.3333333333333</ele><time>2026-04-14T08:55:41.846Z</time></trkpt><trkpt lat="42.62203" lon="-7.8105767"><ele>573.6666666666666</ele><time>2026-04-14T08:55:42.846Z</time></trkpt><trkpt lat="42.6218917" lon="-7.8103417"><ele>573.0</ele><time>2026-04-14T08:55:43.846Z</time></trkpt><trkpt lat="42.6217483" lon="-7.8101117"><ele>572.6666666666666</ele><time>2026-04-14T08:55:44.845Z</time></trkpt><trkpt lat="42.6216" lon="-7.8098867"><ele>572.3333333333333</ele><time>2026-04-14T08:55:45.846Z</time></trkpt><trkpt lat="42.6214533" lon="-7.80966"><ele>572.0</ele><time>2026-04-14T08:55:46.845Z</time></trkpt><trkpt lat="42.6213" lon="-7.8094317"><ele>570.6666666666666</ele><time>2026-04-14T08:55:47.845Z</time></trkpt><trkpt lat="42.6211433" lon="-7.8092167"><ele>569.3333333333334</ele><time>2026-04-14T08:55:48.845Z</time></trkpt><trkpt lat="42.6209967" lon="-7.8090033"><ele>568.0</ele><time>2026-04-14T08:55:49.845Z</time></trkpt><trkpt lat="42.6208483" lon="-7.8087917"><ele>568.0</ele><time>2026-04-14T08:55:50.845Z</time></trkpt><trkpt lat="42.620705" lon="-7.808575"><ele>568.0</ele><time>2026-04-14T08:55:51.845Z</time></trkpt><trkpt lat="42.6205667" lon="-7.808355"><ele>568.0</ele><time>2026-04-14T08:55:52.845Z</time></trkpt><trkpt lat="42.6204317" lon="-7.80813"><ele>568.3333333333334</ele><time>2026-04-14T08:55:53.846Z</time></trkpt><trkpt lat="42.6202933" lon="-7.8079083"><ele>568.6666666666666</ele><time>2026-04-14T08:55:54.845Z</time></trkpt><trkpt lat="42.62017" lon="-7.8076833"><ele>569.0</ele><time>2026-04-14T08:55:55.845Z</time></trkpt><trkpt lat="42.6200417" lon="-7.8074633"><ele>570.0</ele><time>2026-04-14T08:55:56.846Z</time></trkpt><trkpt lat="42.6199167" lon="-7.80723"><ele>571.0</ele><time>2026-04-14T08:55:57.845Z</time></trkpt><trkpt lat="42.6197983" lon="-7.8069867"><ele>572.0</ele><time>2026-04-14T08:55:58.845Z</time></trkpt><trkpt lat="42.6196833" lon="-7.806745"><ele>572.6666666666666</ele><time>2026-04-14T08:55:59.845Z</time></trkpt><trkpt lat="42.619565" lon="-7.8065033"><ele>573.3333333333334</ele><time>2026-04-14T08:56:00.846Z</time></trkpt><trkpt lat="42.6194583" lon="-7.806255"><ele>574.0</ele><time>2026-04-14T08:56:01.846Z</time></trkpt><trkpt lat="42.6193467" lon="-7.8059967"><ele>575.6666666666667</ele><time>2026-04-14T08:56:02.845Z</time></trkpt><trkpt lat="42.619245" lon="-7.8057367"><ele>577.3333333333334</ele><time>2026-04-14T08:56:03.845Z</time></trkpt><trkpt lat="42.6191383" lon="-7.8054767"><ele>579.0</ele><time>2026-04-14T08:56:04.845Z</time></trkpt><trkpt lat="42.6190383" lon="-7.8052183"><ele>580.0</ele><time>2026-04-14T08:56:05.845Z</time></trkpt><trkpt lat="42.6189417" lon="-7.8049533"><ele>581.0</ele><time>2026-04-14T08:56:06.846Z</time></trkpt><trkpt lat="42.6188583" lon="-7.804675"><ele>582.0</ele><time>2026-04-14T08:56:07.846Z</time></trkpt><trkpt lat="42.6187717" lon="-7.8044"><ele>583.0</ele><time>2026-04-14T08:56:08.846Z</time></trkpt><trkpt lat="42.6186867" lon="-7.804125"><ele>584.0</ele><time>2026-04-14T08:56:09.845Z</time></trkpt><trkpt lat="42.6186083" lon="-7.8038433"><ele>585.0</ele><time>2026-04-14T08:56:10.845Z</time></trkpt><trkpt lat="42.6185367" lon="-7.80356"><ele>585.3333333333334</ele><time>2026-04-14T08:56:11.845Z</time></trkpt><trkpt lat="42.618475" lon="-7.8032717"><ele>585.6666666666667</ele><time>2026-04-14T08:56:12.845Z</time></trkpt><trkpt lat="42.6184167" lon="-7.802985"><ele>586.0</ele><time>2026-04-14T08:56:13.846Z</time></trkpt><trkpt lat="42.618355" lon="-7.8027033"><ele>586.0</ele><time>2026-04-14T08:56:14.846Z</time></trkpt><trkpt lat="42.6182983" lon="-7.80242"><ele>586.0</ele><time>2026-04-14T08:56:15.845Z</time></trkpt><trkpt lat="42.6182433" lon="-7.8021433"><ele>586.0</ele><time>2026-04-14T08:56:16.846Z</time></trkpt><trkpt lat="42.618205" lon="-7.801845"><ele>584.5</ele><time>2026-04-14T08:56:17.846Z</time></trkpt><trkpt lat="42.6181667" lon="-7.80156"><ele>583.0</ele><time>2026-04-14T08:56:18.845Z</time></trkpt><trkpt lat="42.6211433" lon="-7.8092167"><ele>578.0</ele><time>2026-04-14T08:55:48.845Z</time></trkpt><trkpt lat="42.6209967" lon="-7.8090033"><ele>573.0</ele><time>2026-04-14T08:55:49.845Z</time></trkpt><trkpt lat="42.6208483" lon="-7.8087917"><ele>568.0</ele><time>2026-04-14T08:55:50.845Z</time></trkpt><trkpt lat="42.620705" lon="-7.808575"><ele>568.3333333333334</ele><time>2026-04-14T08:55:51.845Z</time></trkpt><trkpt lat="42.6205667" lon="-7.808355"><ele>568.6666666666666</ele><time>2026-04-14T08:55:52.845Z</time></trkpt><trkpt lat="42.6204317" lon="-7.80813"><ele>569.0</ele><time>2026-04-14T08:55:53.846Z</time></trkpt><trkpt lat="42.6202933" lon="-7.8079083"><ele>569.0</ele><time>2026-04-14T08:55:54.845Z</time></trkpt><trkpt lat="42.62017" lon="-7.8076833"><ele>569.0</ele><time>2026-04-14T08:55:55.845Z</time></trkpt><trkpt lat="42.6200417" lon="-7.8074633"><ele>569.0</ele><time>2026-04-14T08:55:56.846Z</time></trkpt><trkpt lat="42.6199167" lon="-7.80723"><ele>570.0</ele><time>2026-04-14T08:55:57.845Z</time></trkpt><trkpt lat="42.6197983" lon="-7.8069867"><ele>571.0</ele><time>2026-04-14T08:55:58.845Z</time></trkpt><trkpt lat="42.6196833" lon="-7.806745"><ele>572.0</ele><time>2026-04-14T08:55:59.845Z</time></trkpt><trkpt lat="42.619565" lon="-7.8065033"><ele>573.3333333333333</ele><time>2026-04-14T08:56:00.846Z</time></trkpt><trkpt lat="42.6194583" lon="-7.806255"><ele>574.6666666666666</ele><time>2026-04-14T08:56:01.846Z</time></trkpt><trkpt lat="42.6193467" lon="-7.8059967"><ele>576.0</ele><time>2026-04-14T08:56:02.845Z</time></trkpt><trkpt lat="42.619245" lon="-7.8057367"><ele>577.0</ele><time>2026-04-14T08:56:03.845Z</time></trkpt><trkpt lat="42.6191383" lon="-7.8054767"><ele>578.0</ele><time>2026-04-14T08:56:04.845Z</time></trkpt><trkpt lat="42.6190383" lon="-7.8052183"><ele>579.0</ele><time>2026-04-14T08:56:05.845Z</time></trkpt><trkpt lat="42.6189417" lon="-7.8049533"><ele>580.0</ele><time>2026-04-14T08:56:06.846Z</time></trkpt><trkpt lat="42.6188583" lon="-7.804675"><ele>581.0</ele><time>2026-04-14T08:56:07.846Z</time></trkpt><trkpt lat="42.6187717" lon="-7.8044"><ele>582.0</ele><time>2026-04-14T08:56:08.846Z</time></trkpt><trkpt lat="42.6186867" lon="-7.804125"><ele>583.3333333333334</ele><time>2026-04-14T08:56:09.845Z</time></trkpt><trkpt lat="42.6186083" lon="-7.8038433"><ele>584.6666666666667</ele><time>2026-04-14T08:56:10.845Z</time></trkpt><trkpt lat="42.6185367" lon="-7.80356"><ele>586.0</ele><time>2026-04-14T08:56:11.845Z</time></trkpt><trkpt lat="42.618475" lon="-7.8032717"><ele>586.0</ele><time>2026-04-14T08:56:12.845Z</time></trkpt><trkpt lat="42.6184167" lon="-7.802985"><ele>586.0</ele><time>2026-04-14T08:56:13.846Z</time></trkpt><trkpt lat="42.618355" lon="-7.8027033"><ele>586.0</ele><time>2026-04-14T08:56:14.846Z</time></trkpt><trkpt lat="42.6182983" lon="-7.80242"><ele>586.0</ele><time>2026-04-14T08:56:15.845Z</time></trkpt><trkpt lat="42.6182433" lon="-7.8021433"><ele>586.0</ele><time>2026-04-14T08:56:16.846Z</time></trkpt><trkpt lat="42.618205" lon="-7.801845"><ele>586.0</ele><time>2026-04-14T08:56:17.846Z</time></trkpt><trkpt lat="42.6181667" lon="-7.80156"><ele>585.0</ele><time>2026-04-14T08:56:18.845Z</time></trkpt><trkpt lat="42.6181267" lon="-7.8012833"><ele>584.0</ele><time>2026-04-14T08:56:19.845Z</time></trkpt><trkpt lat="42.6180933" lon="-7.800995"><ele>583.0</ele><time>2026-04-14T08:56:20.845Z</time></trkpt><trkpt lat="42.6180683" lon="-7.8006967"><ele>582.6666666666667</ele><time>2026-04-14T08:56:21.846Z</time></trkpt><trkpt lat="42.6180417" lon="-7.800405"><ele>582.3333333333334</ele><time>2026-04-14T08:56:22.846Z</time></trkpt><trkpt lat="42.618015" lon="-7.8001217"><ele>582.0</ele><time>2026-04-14T08:56:23.846Z</time></trkpt><trkpt lat="42.6179883" lon="-7.799835"><ele>582.0</ele><time>2026-04-14T08:56:24.846Z</time></trkpt><trkpt lat="42.6179667" lon="-7.79955"><ele>582.0</ele><time>2026-04-14T08:56:25.845Z</time></trkpt><trkpt lat="42.6179433" lon="-7.7992667"><ele>582.0</ele><time>2026-04-14T08:56:26.845Z</time></trkpt><trkpt lat="42.6179233" lon="-7.798975"><ele>582.0</ele><time>2026-04-14T08:56:27.845Z</time></trkpt><trkpt lat="42.617895" lon="-7.7986883"><ele>582.0</ele><time>2026-04-14T08:56:28.845Z</time></trkpt><trkpt lat="42.6178717" lon="-7.7984133"><ele>582.0</ele><time>2026-04-14T08:56:29.845Z</time></trkpt><trkpt lat="42.617835" lon="-7.7981267"><ele>582.0</ele><time>2026-04-14T08:56:30.845Z</time></trkpt><trkpt lat="42.617795" lon="-7.79785"><ele>582.0</ele><time>2026-04-14T08:56:31.846Z</time></trkpt><trkpt lat="42.6177517" lon="-7.7975733"><ele>582.0</ele><time>2026-04-14T08:56:32.845Z</time></trkpt><trkpt lat="42.61771" lon="-7.7972967"><ele>583.6666666666666</ele><time>2026-04-14T08:56:33.845Z</time></trkpt><trkpt lat="42.6176633" lon="-7.79702"><ele>585.3333333333333</ele><time>2026-04-14T08:56:34.845Z</time></trkpt><trkpt lat="42.617615" lon="-7.796745"><ele>587.0</ele><time>2026-04-14T08:56:35.846Z</time></trkpt><trkpt lat="42.6175633" lon="-7.7964683"><ele>588.0</ele><time>2026-04-14T08:56:36.846Z</time></trkpt><trkpt lat="42.61751" lon="-7.79619"><ele>589.0</ele><time>2026-04-14T08:56:37.846Z</time></trkpt><trkpt lat="42.6174583" lon="-7.795915"><ele>590.0</ele><time>2026-04-14T08:56:38.846Z</time></trkpt><trkpt lat="42.6174017" lon="-7.7956467"><ele>590.0</ele><time>2026-04-14T08:56:39.845Z</time></trkpt><trkpt lat="42.6173367" lon="-7.79538"><ele>590.0</ele><time>2026-04-14T08:56:40.845Z</time></trkpt><trkpt lat="42.617265" lon="-7.7951117"><ele>590.0</ele><time>2026-04-14T08:56:41.845Z</time></trkpt><trkpt lat="42.6171917" lon="-7.7948433"><ele>590.0</ele><time>2026-04-14T08:56:42.845Z</time></trkpt><trkpt lat="42.61711" lon="-7.7945783"><ele>590.0</ele><time>2026-04-14T08:56:43.846Z</time></trkpt><trkpt lat="42.6170267" lon="-7.79431"><ele>590.0</ele><time>2026-04-14T08:56:44.845Z</time></trkpt><trkpt lat="42.6169483" lon="-7.79404"><ele>588.6666666666666</ele><time>2026-04-14T08:56:45.846Z</time></trkpt><trkpt lat="42.6168667" lon="-7.7937817"><ele>587.3333333333334</ele><time>2026-04-14T08:56:46.845Z</time></trkpt><trkpt lat="42.6167867" lon="-7.79351"><ele>586.0</ele><time>2026-04-14T08:56:47.846Z</time></trkpt><trkpt lat="42.616705" lon="-7.7932417"><ele>583.6666666666667</ele><time>2026-04-14T08:56:48.846Z</time></trkpt><trkpt lat="42.6166183" lon="-7.792985"><ele>581.3333333333334</ele><time>2026-04-14T08:56:49.845Z</time></trkpt><trkpt lat="42.6165683" lon="-7.7927"><ele>579.0</ele><time>2026-04-14T08:56:50.846Z</time></trkpt><trkpt lat="42.6165267" lon="-7.792415"><ele>577.6666666666666</ele><time>2026-04-14T08:56:51.846Z</time></trkpt><trkpt lat="42.6164917" lon="-7.7921267"><ele>576.3333333333333</ele><time>2026-04-14T08:56:52.846Z</time></trkpt><trkpt lat="42.61646" lon="-7.791835"><ele>575.0</ele><time>2026-04-14T08:56:53.846Z</time></trkpt><trkpt lat="42.6164367" lon="-7.7915433"><ele>574.6666666666666</ele><time>2026-04-14T08:56:54.845Z</time></trkpt><trkpt lat="42.6164317" lon="-7.79126"><ele>574.3333333333334</ele><time>2026-04-14T08:56:55.846Z</time></trkpt><trkpt lat="42.6164233" lon="-7.7909767"><ele>574.0</ele><time>2026-04-14T08:56:56.845Z</time></trkpt><trkpt lat="42.6164317" lon="-7.7906983"><ele>573.3333333333334</ele><time>2026-04-14T08:56:57.846Z</time></trkpt><trkpt lat="42.61645" lon="-7.7904183"><ele>572.6666666666666</ele><time>2026-04-14T08:56:58.845Z</time></trkpt><trkpt lat="42.6164767" lon="-7.7901433"><ele>572.0</ele><time>2026-04-14T08:56:59.845Z</time></trkpt><trkpt lat="42.61652" lon="-7.789865"><ele>571.6666666666666</ele><time>2026-04-14T08:57:00.845Z</time></trkpt><trkpt lat="42.6165733" lon="-7.789595"><ele>571.3333333333334</ele><time>2026-04-14T08:57:01.846Z</time></trkpt><trkpt lat="42.6166283" lon="-7.78934"><ele>571.0</ele><time>2026-04-14T08:57:02.846Z</time></trkpt><trkpt lat="42.6166867" lon="-7.78908"><ele>570.6666666666667</ele><time>2026-04-14T08:57:03.846Z</time></trkpt><trkpt lat="42.6167483" lon="-7.7888217"><ele>570.3333333333334</ele><time>2026-04-14T08:57:04.846Z</time></trkpt><trkpt lat="42.6168333" lon="-7.7885667"><ele>570.0</ele><time>2026-04-14T08:57:05.845Z</time></trkpt><trkpt lat="42.6169217" lon="-7.788325"><ele>571.3333333333334</ele><time>2026-04-14T08:57:06.846Z</time></trkpt><trkpt lat="42.61701" lon="-7.7880833"><ele>572.6666666666667</ele><time>2026-04-14T08:57:07.845Z</time></trkpt><trkpt lat="42.6171183" lon="-7.78785"><ele>574.0</ele><time>2026-04-14T08:57:08.846Z</time></trkpt><trkpt lat="42.6172233" lon="-7.7876117"><ele>574.6666666666667</ele><time>2026-04-14T08:57:09.846Z</time></trkpt><trkpt lat="42.617335" lon="-7.78738"><ele>575.3333333333334</ele><time>2026-04-14T08:57:10.845Z</time></trkpt><trkpt lat="42.6174483" lon="-7.7871517"><ele>576.0</ele><time>2026-04-14T08:57:11.845Z</time></trkpt><trkpt lat="42.6175633" lon="-7.7869183"><ele>576.3333333333334</ele><time>2026-04-14T08:57:12.845Z</time></trkpt><trkpt lat="42.6176783" lon="-7.7866867"><ele>576.6666666666667</ele><time>2026-04-14T08:57:13.845Z</time></trkpt><trkpt lat="42.61779" lon="-7.7864533"><ele>577.0</ele><time>2026-04-14T08:57:14.845Z</time></trkpt><trkpt lat="42.617895" lon="-7.7862183"><ele>577.6666666666667</ele><time>2026-04-14T08:57:15.845Z</time></trkpt><trkpt lat="42.61801" lon="-7.7859833"><ele>578.3333333333334</ele><time>2026-04-14T08:57:16.845Z</time></trkpt><trkpt lat="42.618125" lon="-7.7857617"><ele>579.0</ele><time>2026-04-14T08:57:17.846Z</time></trkpt><trkpt lat="42.618235" lon="-7.785535"><ele>579.0</ele><time>2026-04-14T08:57:18.846Z</time></trkpt><trkpt lat="42.6183517" lon="-7.7853067"><ele>579.0</ele><time>2026-04-14T08:57:19.845Z</time></trkpt><trkpt lat="42.6184583" lon="-7.7850783"><ele>579.0</ele><time>2026-04-14T08:57:20.846Z</time></trkpt><trkpt lat="42.6185667" lon="-7.7848467"><ele>579.0</ele><time>2026-04-14T08:57:21.845Z</time></trkpt><trkpt lat="42.6186717" lon="-7.784615"><ele>579.0</ele><time>2026-04-14T08:57:22.846Z</time></trkpt><trkpt lat="42.6187833" lon="-7.7843717"><ele>579.0</ele><time>2026-04-14T08:57:23.846Z</time></trkpt><trkpt lat="42.618885" lon="-7.78413"><ele>578.6666666666666</ele><time>2026-04-14T08:57:24.845Z</time></trkpt><trkpt lat="42.6189933" lon="-7.783885"><ele>578.3333333333333</ele><time>2026-04-14T08:57:25.845Z</time></trkpt><trkpt lat="42.6190933" lon="-7.7836467"><ele>578.0</ele><time>2026-04-14T08:57:26.846Z</time></trkpt><trkpt lat="42.6191917" lon="-7.7833967"><ele>578.0</ele><time>2026-04-14T08:57:27.846Z</time></trkpt><trkpt lat="42.619295" lon="-7.7831483"><ele>578.0</ele><time>2026-04-14T08:57:28.846Z</time></trkpt><trkpt lat="42.6194017" lon="-7.782905"><ele>578.0</ele><time>2026-04-14T08:57:29.846Z</time></trkpt><trkpt lat="42.6195117" lon="-7.7826533"><ele>578.0</ele><time>2026-04-14T08:57:30.845Z</time></trkpt><trkpt lat="42.6196267" lon="-7.7824117"><ele>578.0</ele><time>2026-04-14T08:57:31.846Z</time></trkpt><trkpt lat="42.619735" lon="-7.7821633"><ele>578.0</ele><time>2026-04-14T08:57:32.846Z</time></trkpt><trkpt lat="42.6198367" lon="-7.78191"><ele>577.0</ele><time>2026-04-14T08:57:33.846Z</time></trkpt><trkpt lat="42.61994" lon="-7.781645"><ele>576.0</ele><time>2026-04-14T08:57:34.846Z</time></trkpt><trkpt lat="42.62004" lon="-7.78139"><ele>575.0</ele><time>2026-04-14T08:57:35.846Z</time></trkpt><trkpt lat="42.6201417" lon="-7.7811317"><ele>574.6666666666666</ele><time>2026-04-14T08:57:36.845Z</time></trkpt><trkpt lat="42.620245" lon="-7.780875"><ele>574.3333333333334</ele><time>2026-04-14T08:57:37.846Z</time></trkpt><trkpt lat="42.62035" lon="-7.7806233"><ele>574.0</ele><time>2026-04-14T08:57:38.845Z</time></trkpt><trkpt lat="42.6204417" lon="-7.78038"><ele>572.6666666666667</ele><time>2026-04-14T08:57:39.845Z</time></trkpt><trkpt lat="42.6205317" lon="-7.7801367"><ele>571.3333333333334</ele><time>2026-04-14T08:57:40.845Z</time></trkpt><trkpt lat="42.62063" lon="-7.779895"><ele>570.0</ele><time>2026-04-14T08:57:41.846Z</time></trkpt><trkpt lat="42.6207233" lon="-7.7796583"><ele>570.0</ele><time>2026-04-14T08:57:42.846Z</time></trkpt><trkpt lat="42.6208117" lon="-7.7794117"><ele>570.0</ele><time>2026-04-14T08:57:43.845Z</time></trkpt><trkpt lat="42.6209083" lon="-7.77916"><ele>570.0</ele><time>2026-04-14T08:57:44.846Z</time></trkpt><trkpt lat="42.6210067" lon="-7.778915"><ele>570.5</ele><time>2026-04-14T08:57:45.845Z</time></trkpt><trkpt lat="42.6210917" lon="-7.7786583"><ele>571.0</ele><time>2026-04-14T08:57:46.846Z</time></trkpt><trkpt lat="42.617895" lon="-7.7862183"><ele>573.6666666666667</ele><time>2026-04-14T08:57:15.845Z</time></trkpt><trkpt lat="42.61801" lon="-7.7859833"><ele>576.3333333333334</ele><time>2026-04-14T08:57:16.845Z</time></trkpt><trkpt lat="42.618125" lon="-7.7857617"><ele>579.0</ele><time>2026-04-14T08:57:17.846Z</time></trkpt><trkpt lat="42.618235" lon="-7.785535"><ele>579.0</ele><time>2026-04-14T08:57:18.846Z</time></trkpt><trkpt lat="42.6183517" lon="-7.7853067"><ele>579.0</ele><time>2026-04-14T08:57:19.845Z</time></trkpt><trkpt lat="42.6184583" lon="-7.7850783"><ele>579.0</ele><time>2026-04-14T08:57:20.846Z</time></trkpt><trkpt lat="42.6185667" lon="-7.7848467"><ele>579.0</ele><time>2026-04-14T08:57:21.845Z</time></trkpt><trkpt lat="42.6186717" lon="-7.784615"><ele>579.0</ele><time>2026-04-14T08:57:22.846Z</time></trkpt><trkpt lat="42.6187833" lon="-7.7843717"><ele>579.0</ele><time>2026-04-14T08:57:23.846Z</time></trkpt><trkpt lat="42.618885" lon="-7.78413"><ele>578.6666666666666</ele><time>2026-04-14T08:57:24.845Z</time></trkpt><trkpt lat="42.6189933" lon="-7.783885"><ele>578.3333333333333</ele><time>2026-04-14T08:57:25.845Z</time></trkpt><trkpt lat="42.6190933" lon="-7.7836467"><ele>578.0</ele><time>2026-04-14T08:57:26.846Z</time></trkpt><trkpt lat="42.6191917" lon="-7.7833967"><ele>578.0</ele><time>2026-04-14T08:57:27.846Z</time></trkpt><trkpt lat="42.619295" lon="-7.7831483"><ele>578.0</ele><time>2026-04-14T08:57:28.846Z</time></trkpt><trkpt lat="42.6194017" lon="-7.782905"><ele>578.0</ele><time>2026-04-14T08:57:29.846Z</time></trkpt><trkpt lat="42.6195117" lon="-7.7826533"><ele>578.0</ele><time>2026-04-14T08:57:30.845Z</time></trkpt><trkpt lat="42.6196267" lon="-7.7824117"><ele>578.0</ele><time>2026-04-14T08:57:31.846Z</time></trkpt><trkpt lat="42.619735" lon="-7.7821633"><ele>578.0</ele><time>2026-04-14T08:57:32.846Z</time></trkpt><trkpt lat="42.6198367" lon="-7.78191"><ele>577.0</ele><time>2026-04-14T08:57:33.846Z</time></trkpt><trkpt lat="42.61994" lon="-7.781645"><ele>576.0</ele><time>2026-04-14T08:57:34.846Z</time></trkpt><trkpt lat="42.62004" lon="-7.78139"><ele>575.0</ele><time>2026-04-14T08:57:35.846Z</time></trkpt><trkpt lat="42.6201417" lon="-7.7811317"><ele>574.6666666666666</ele><time>2026-04-14T08:57:36.845Z</time></trkpt><trkpt lat="42.620245" lon="-7.780875"><ele>574.3333333333334</ele><time>2026-04-14T08:57:37.846Z</time></trkpt><trkpt lat="42.62035" lon="-7.7806233"><ele>574.0</ele><time>2026-04-14T08:57:38.845Z</time></trkpt><trkpt lat="42.6204417" lon="-7.78038"><ele>572.6666666666667</ele><time>2026-04-14T08:57:39.845Z</time></trkpt><trkpt lat="42.6205317" lon="-7.7801367"><ele>571.3333333333334</ele><time>2026-04-14T08:57:40.845Z</time></trkpt><trkpt lat="42.62063" lon="-7.779895"><ele>570.0</ele><time>2026-04-14T08:57:41.846Z</time></trkpt><trkpt lat="42.6207233" lon="-7.7796583"><ele>570.0</ele><time>2026-04-14T08:57:42.846Z</time></trkpt><trkpt lat="42.6208117" lon="-7.7794117"><ele>570.0</ele><time>2026-04-14T08:57:43.845Z</time></trkpt><trkpt lat="42.6209083" lon="-7.77916"><ele>570.0</ele><time>2026-04-14T08:57:44.846Z</time></trkpt><trkpt lat="42.6210067" lon="-7.778915"><ele>570.0</ele><time>2026-04-14T08:57:45.845Z</time></trkpt><trkpt lat="42.6210917" lon="-7.7786583"><ele>570.0</ele><time>2026-04-14T08:57:46.846Z</time></trkpt><trkpt lat="42.621175" lon="-7.7784"><ele>570.0</ele><time>2026-04-14T08:57:47.845Z</time></trkpt><trkpt lat="42.62127" lon="-7.7781417"><ele>570.0</ele><time>2026-04-14T08:57:48.846Z</time></trkpt><trkpt lat="42.6213683" lon="-7.777875"><ele>570.0</ele><time>2026-04-14T08:57:49.845Z</time></trkpt><trkpt lat="42.62146" lon="-7.777605"><ele>570.0</ele><time>2026-04-14T08:57:50.845Z</time></trkpt><trkpt lat="42.62155" lon="-7.7773383"><ele>569.6666666666666</ele><time>2026-04-14T08:57:51.845Z</time></trkpt><trkpt lat="42.6216333" lon="-7.7770567"><ele>569.3333333333333</ele><time>2026-04-14T08:57:52.847Z</time></trkpt><trkpt lat="42.621715" lon="-7.7767733"><ele>569.0</ele><time>2026-04-14T08:57:53.846Z</time></trkpt><trkpt lat="42.6217983" lon="-7.7765"><ele>568.6666666666666</ele><time>2026-04-14T08:57:54.846Z</time></trkpt><trkpt lat="42.6218683" lon="-7.7762183"><ele>568.3333333333334</ele><time>2026-04-14T08:57:55.847Z</time></trkpt><trkpt lat="42.6219383" lon="-7.7759367"><ele>568.0</ele><time>2026-04-14T08:57:56.847Z</time></trkpt><trkpt lat="42.6220017" lon="-7.7756617"><ele>569.0</ele><time>2026-04-14T08:57:57.847Z</time></trkpt><trkpt lat="42.6220617" lon="-7.775385"><ele>570.0</ele><time>2026-04-14T08:57:58.847Z</time></trkpt><trkpt lat="42.6221167" lon="-7.7751083"><ele>571.0</ele><time>2026-04-14T08:57:59.847Z</time></trkpt><trkpt lat="42.6221667" lon="-7.7748383"><ele>572.6666666666667</ele><time>2026-04-14T08:58:00.846Z</time></trkpt><trkpt lat="42.62221" lon="-7.774565"><ele>574.3333333333334</ele><time>2026-04-14T08:58:01.846Z</time></trkpt><trkpt lat="42.6222417" lon="-7.7742933"><ele>576.0</ele><time>2026-04-14T08:58:02.847Z</time></trkpt><trkpt lat="42.6222667" lon="-7.7740233"><ele>577.3333333333334</ele><time>2026-04-14T08:58:03.846Z</time></trkpt><trkpt lat="42.6222817" lon="-7.7737583"><ele>578.6666666666667</ele><time>2026-04-14T08:58:04.846Z</time></trkpt><trkpt lat="42.6222967" lon="-7.7734917"><ele>580.0</ele><time>2026-04-14T08:58:05.847Z</time></trkpt><trkpt lat="42.6223033" lon="-7.7732317"><ele>581.3333333333334</ele><time>2026-04-14T08:58:06.847Z</time></trkpt><trkpt lat="42.6223067" lon="-7.77297"><ele>582.6666666666666</ele><time>2026-04-14T08:58:07.846Z</time></trkpt><trkpt lat="42.6223133" lon="-7.7727083"><ele>584.0</ele><time>2026-04-14T08:58:08.846Z</time></trkpt><trkpt lat="42.622305" lon="-7.7724533"><ele>584.0</ele><time>2026-04-14T08:58:09.847Z</time></trkpt><trkpt lat="42.62229" lon="-7.772195"><ele>584.0</ele><time>2026-04-14T08:58:10.846Z</time></trkpt><trkpt lat="42.6222683" lon="-7.7719183"><ele>584.0</ele><time>2026-04-14T08:58:11.847Z</time></trkpt><trkpt lat="42.6222433" lon="-7.7716433"><ele>584.0</ele><time>2026-04-14T08:58:12.847Z</time></trkpt><trkpt lat="42.6222133" lon="-7.771365"><ele>584.0</ele><time>2026-04-14T08:58:13.847Z</time></trkpt><trkpt lat="42.62218" lon="-7.7710783"><ele>584.0</ele><time>2026-04-14T08:58:14.846Z</time></trkpt><trkpt lat="42.6221467" lon="-7.7707867"><ele>584.0</ele><time>2026-04-14T08:58:15.846Z</time></trkpt><trkpt lat="42.6221033" lon="-7.7705083"><ele>584.0</ele><time>2026-04-14T08:58:16.847Z</time></trkpt><trkpt lat="42.622055" lon="-7.7702533"><ele>584.0</ele><time>2026-04-14T08:58:17.847Z</time></trkpt><trkpt lat="42.622005" lon="-7.7700183"><ele>581.6666666666666</ele><time>2026-04-14T08:58:18.847Z</time></trkpt><trkpt lat="42.621945" lon="-7.7697883"><ele>579.3333333333334</ele><time>2026-04-14T08:58:19.846Z</time></trkpt><trkpt lat="42.62188" lon="-7.769575"><ele>577.0</ele><time>2026-04-14T08:58:20.847Z</time></trkpt><trkpt lat="42.6218033" lon="-7.7693817"><ele>576.5</ele><time>2026-04-14T08:58:21.847Z</time></trkpt><trkpt lat="42.6217133" lon="-7.76921"><ele>576.0</ele><time>2026-04-14T08:58:22.846Z</time></trkpt><trkpt lat="42.6216183" lon="-7.7690617"><ele>575.5</ele><time>2026-04-14T08:58:23.847Z</time></trkpt><trkpt lat="42.6215333" lon="-7.7689183"><ele>575.0</ele><time>2026-04-14T08:58:24.847Z</time></trkpt><trkpt lat="42.6214567" lon="-7.7687767"><ele>575.0</ele><time>2026-04-14T08:58:25.846Z</time></trkpt><trkpt lat="42.6213867" lon="-7.7686567"><ele>575.0</ele><time>2026-04-14T08:58:26.847Z</time></trkpt><trkpt lat="42.6213167" lon="-7.7685517"><ele>575.0</ele><time>2026-04-14T08:58:27.847Z</time></trkpt><trkpt lat="42.6212483" lon="-7.7684367"><ele>575.0</ele><time>2026-04-14T08:58:28.846Z</time></trkpt><trkpt lat="42.6211767" lon="-7.7682967"><ele>574.25</ele><time>2026-04-14T08:58:29.847Z</time></trkpt><trkpt lat="42.62111" lon="-7.768135"><ele>573.5</ele><time>2026-04-14T08:58:30.846Z</time></trkpt><trkpt lat="42.6210533" lon="-7.76795"><ele>572.75</ele><time>2026-04-14T08:58:31.846Z</time></trkpt><trkpt lat="42.620995" lon="-7.7677483"><ele>572.0</ele><time>2026-04-14T08:58:32.847Z</time></trkpt><trkpt lat="42.62093" lon="-7.7675333"><ele>572.0</ele><time>2026-04-14T08:58:33.846Z</time></trkpt><trkpt lat="42.6208617" lon="-7.7673067"><ele>572.0</ele><time>2026-04-14T08:58:34.847Z</time></trkpt><trkpt lat="42.620785" lon="-7.76707"><ele>572.0</ele><time>2026-04-14T08:58:35.846Z</time></trkpt><trkpt lat="42.6207083" lon="-7.7668233"><ele>570.3333333333333</ele><time>2026-04-14T08:58:36.846Z</time></trkpt><trkpt lat="42.6206367" lon="-7.7665767"><ele>568.6666666666666</ele><time>2026-04-14T08:58:37.847Z</time></trkpt><trkpt lat="42.6205617" lon="-7.76632"><ele>567.0</ele><time>2026-04-14T08:58:38.846Z</time></trkpt><trkpt lat="42.62048" lon="-7.7660683"><ele>565.0</ele><time>2026-04-14T08:58:39.847Z</time></trkpt><trkpt lat="42.6203983" lon="-7.7658117"><ele>563.0</ele><time>2026-04-14T08:58:40.846Z</time></trkpt><trkpt lat="42.6203183" lon="-7.7655617"><ele>561.0</ele><time>2026-04-14T08:58:41.847Z</time></trkpt><trkpt lat="42.6202417" lon="-7.7653083"><ele>558.3333333333334</ele><time>2026-04-14T08:58:42.847Z</time></trkpt><trkpt lat="42.620155" lon="-7.7650483"><ele>555.6666666666667</ele><time>2026-04-14T08:58:43.846Z</time></trkpt><trkpt lat="42.6200667" lon="-7.7647917"><ele>553.0</ele><time>2026-04-14T08:58:44.846Z</time></trkpt><trkpt lat="42.6199783" lon="-7.76453"><ele>552.3333333333334</ele><time>2026-04-14T08:58:45.846Z</time></trkpt><trkpt lat="42.6198883" lon="-7.76426"><ele>551.6666666666666</ele><time>2026-04-14T08:58:46.847Z</time></trkpt><trkpt lat="42.6197833" lon="-7.7639933"><ele>551.0</ele><time>2026-04-14T08:58:47.846Z</time></trkpt><trkpt lat="42.619675" lon="-7.7637283"><ele>550.3333333333333</ele><time>2026-04-14T08:58:48.846Z</time></trkpt><trkpt lat="42.619565" lon="-7.7634667"><ele>549.6666666666666</ele><time>2026-04-14T08:58:49.847Z</time></trkpt><trkpt lat="42.6194483" lon="-7.76321"><ele>549.0</ele><time>2026-04-14T08:58:50.847Z</time></trkpt><trkpt lat="42.6193267" lon="-7.7629567"><ele>549.0</ele><time>2026-04-14T08:58:51.846Z</time></trkpt><trkpt lat="42.6192033" lon="-7.7627117"><ele>549.0</ele><time>2026-04-14T08:58:52.847Z</time></trkpt><trkpt lat="42.6190733" lon="-7.7624733"><ele>549.0</ele><time>2026-04-14T08:58:53.846Z</time></trkpt><trkpt lat="42.618935" lon="-7.76225"><ele>549.0</ele><time>2026-04-14T08:58:54.847Z</time></trkpt><trkpt lat="42.618795" lon="-7.76203"><ele>549.0</ele><time>2026-04-14T08:58:55.847Z</time></trkpt><trkpt lat="42.6186517" lon="-7.7618217"><ele>549.0</ele><time>2026-04-14T08:58:56.846Z</time></trkpt><trkpt lat="42.6185067" lon="-7.7616167"><ele>548.3333333333334</ele><time>2026-04-14T08:58:57.846Z</time></trkpt><trkpt lat="42.6183633" lon="-7.76141"><ele>547.6666666666667</ele><time>2026-04-14T08:58:58.847Z</time></trkpt><trkpt lat="42.6182183" lon="-7.76121"><ele>547.0</ele><time>2026-04-14T08:58:59.846Z</time></trkpt><trkpt lat="42.6180617" lon="-7.7610133"><ele>546.0</ele><time>2026-04-14T08:59:00.847Z</time></trkpt><trkpt lat="42.6179067" lon="-7.7608117"><ele>545.0</ele><time>2026-04-14T08:59:01.846Z</time></trkpt><trkpt lat="42.617755" lon="-7.760605"><ele>544.0</ele><time>2026-04-14T08:59:02.846Z</time></trkpt><trkpt lat="42.6175933" lon="-7.7604067"><ele>543.0</ele><time>2026-04-14T08:59:03.846Z</time></trkpt><trkpt lat="42.61743" lon="-7.7602083"><ele>542.0</ele><time>2026-04-14T08:59:04.847Z</time></trkpt><trkpt lat="42.6172733" lon="-7.7600083"><ele>541.0</ele><time>2026-04-14T08:59:05.846Z</time></trkpt><trkpt lat="42.6171133" lon="-7.7598067"><ele>538.0</ele><time>2026-04-14T08:59:06.846Z</time></trkpt><trkpt lat="42.6169517" lon="-7.7596"><ele>535.0</ele><time>2026-04-14T08:59:07.846Z</time></trkpt><trkpt lat="42.6167883" lon="-7.7593933"><ele>532.0</ele><time>2026-04-14T08:59:08.847Z</time></trkpt><trkpt lat="42.6166283" lon="-7.759185"><ele>532.0</ele><time>2026-04-14T08:59:09.846Z</time></trkpt><trkpt lat="42.6164717" lon="-7.75897"><ele>532.0</ele><time>2026-04-14T08:59:10.847Z</time></trkpt><trkpt lat="42.6163067" lon="-7.7587517"><ele>531.5</ele><time>2026-04-14T08:59:11.847Z</time></trkpt><trkpt lat="42.616145" lon="-7.75854"><ele>531.0</ele><time>2026-04-14T08:59:12.847Z</time></trkpt><trkpt lat="42.61598" lon="-7.75833"><ele>553.0</ele><time>2026-04-14T08:59:13.846Z</time></trkpt><trkpt lat="42.620155" lon="-7.7650483"><ele>553.0</ele><time>2026-04-14T08:58:43.846Z</time></trkpt><trkpt lat="42.6200667" lon="-7.7647917"><ele>553.0</ele><time>2026-04-14T08:58:44.846Z</time></trkpt><trkpt lat="42.6199783" lon="-7.76453"><ele>553.0</ele><time>2026-04-14T08:58:45.846Z</time></trkpt><trkpt lat="42.6198883" lon="-7.76426"><ele>552.3333333333334</ele><time>2026-04-14T08:58:46.847Z</time></trkpt><trkpt lat="42.6197833" lon="-7.7639933"><ele>551.6666666666666</ele><time>2026-04-14T08:58:47.846Z</time></trkpt><trkpt lat="42.619675" lon="-7.7637283"><ele>551.0</ele><time>2026-04-14T08:58:48.846Z</time></trkpt><trkpt lat="42.619565" lon="-7.7634667"><ele>549.3333333333333</ele><time>2026-04-14T08:58:49.847Z</time></trkpt><trkpt lat="42.6194483" lon="-7.76321"><ele>547.6666666666666</ele><time>2026-04-14T08:58:50.847Z</time></trkpt><trkpt lat="42.6193267" lon="-7.7629567"><ele>546.0</ele><time>2026-04-14T08:58:51.846Z</time></trkpt><trkpt lat="42.6192033" lon="-7.7627117"><ele>547.0</ele><time>2026-04-14T08:58:52.847Z</time></trkpt><trkpt lat="42.6190733" lon="-7.7624733"><ele>548.0</ele><time>2026-04-14T08:58:53.846Z</time></trkpt><trkpt lat="42.618935" lon="-7.76225"><ele>549.0</ele><time>2026-04-14T08:58:54.847Z</time></trkpt><trkpt lat="42.618795" lon="-7.76203"><ele>548.3333333333334</ele><time>2026-04-14T08:58:55.847Z</time></trkpt><trkpt lat="42.6186517" lon="-7.7618217"><ele>547.6666666666667</ele><time>2026-04-14T08:58:56.846Z</time></trkpt><trkpt lat="42.6185067" lon="-7.7616167"><ele>547.0</ele><time>2026-04-14T08:58:57.846Z</time></trkpt><trkpt lat="42.6183633" lon="-7.76141"><ele>547.0</ele><time>2026-04-14T08:58:58.847Z</time></trkpt><trkpt lat="42.6182183" lon="-7.76121"><ele>547.0</ele><time>2026-04-14T08:58:59.846Z</time></trkpt><trkpt lat="42.6180617" lon="-7.7610133"><ele>547.0</ele><time>2026-04-14T08:59:00.847Z</time></trkpt><trkpt lat="42.6179067" lon="-7.7608117"><ele>545.0</ele><time>2026-04-14T08:59:01.846Z</time></trkpt><trkpt lat="42.617755" lon="-7.760605"><ele>543.0</ele><time>2026-04-14T08:59:02.846Z</time></trkpt><trkpt lat="42.6175933" lon="-7.7604067"><ele>541.0</ele><time>2026-04-14T08:59:03.846Z</time></trkpt><trkpt lat="42.61743" lon="-7.7602083"><ele>539.6666666666667</ele><time>2026-04-14T08:59:04.847Z</time></trkpt><trkpt lat="42.6172733" lon="-7.7600083"><ele>538.3333333333334</ele><time>2026-04-14T08:59:05.846Z</time></trkpt><trkpt lat="42.6171133" lon="-7.7598067"><ele>537.0</ele><time>2026-04-14T08:59:06.846Z</time></trkpt><trkpt lat="42.6169517" lon="-7.7596"><ele>535.3333333333334</ele><time>2026-04-14T08:59:07.846Z</time></trkpt><trkpt lat="42.6167883" lon="-7.7593933"><ele>533.6666666666667</ele><time>2026-04-14T08:59:08.847Z</time></trkpt><trkpt lat="42.6166283" lon="-7.759185"><ele>532.0</ele><time>2026-04-14T08:59:09.846Z</time></trkpt><trkpt lat="42.6164717" lon="-7.75897"><ele>532.0</ele><time>2026-04-14T08:59:10.847Z</time></trkpt><trkpt lat="42.6163067" lon="-7.7587517"><ele>532.0</ele><time>2026-04-14T08:59:11.847Z</time></trkpt><trkpt lat="42.616145" lon="-7.75854"><ele>531.5</ele><time>2026-04-14T08:59:12.847Z</time></trkpt><trkpt lat="42.61598" lon="-7.75833"><ele>531.0</ele><time>2026-04-14T08:59:13.846Z</time></trkpt><trkpt lat="42.6158133" lon="-7.7581217"><ele>531.0</ele><time>2026-04-14T08:59:14.847Z</time></trkpt><trkpt lat="42.61565" lon="-7.757915"><ele>531.0</ele><time>2026-04-14T08:59:15.847Z</time></trkpt><trkpt lat="42.6154917" lon="-7.7577"><ele>531.0</ele><time>2026-04-14T08:59:16.846Z</time></trkpt><trkpt lat="42.615335" lon="-7.7574783"><ele>530.5</ele><time>2026-04-14T08:59:17.846Z</time></trkpt><trkpt lat="42.6151667" lon="-7.75726"><ele>530.0</ele><time>2026-04-14T08:59:18.846Z</time></trkpt><trkpt lat="42.6149967" lon="-7.757045"><ele>531.0</ele><time>2026-04-14T08:59:19.846Z</time></trkpt><trkpt lat="42.6148333" lon="-7.7568317"><ele>532.0</ele><time>2026-04-14T08:59:20.847Z</time></trkpt><trkpt lat="42.6146783" lon="-7.7566267"><ele>533.0</ele><time>2026-04-14T08:59:21.847Z</time></trkpt><trkpt lat="42.61452" lon="-7.7564367"><ele>530.6666666666666</ele><time>2026-04-14T08:59:22.847Z</time></trkpt><trkpt lat="42.6143417" lon="-7.7562533"><ele>528.3333333333334</ele><time>2026-04-14T08:59:23.847Z</time></trkpt><trkpt lat="42.6141633" lon="-7.7561067"><ele>526.0</ele><time>2026-04-14T08:59:24.847Z</time></trkpt><trkpt lat="42.613975" lon="-7.755965"><ele>526.0</ele><time>2026-04-14T08:59:25.846Z</time></trkpt><trkpt lat="42.613785" lon="-7.7558317"><ele>526.0</ele><time>2026-04-14T08:59:26.847Z</time></trkpt><trkpt lat="42.6135933" lon="-7.7556967"><ele>526.0</ele><time>2026-04-14T08:59:27.846Z</time></trkpt><trkpt lat="42.6133967" lon="-7.7555683"><ele>523.0</ele><time>2026-04-14T08:59:28.847Z</time></trkpt><trkpt lat="42.6131933" lon="-7.755455"><ele>520.0</ele><time>2026-04-14T08:59:29.847Z</time></trkpt><trkpt lat="42.6129833" lon="-7.7553583"><ele>517.0</ele><time>2026-04-14T08:59:30.846Z</time></trkpt><trkpt lat="42.61277" lon="-7.755265"><ele>515.0</ele><time>2026-04-14T08:59:31.846Z</time></trkpt><trkpt lat="42.6125483" lon="-7.755195"><ele>513.0</ele><time>2026-04-14T08:59:32.847Z</time></trkpt><trkpt lat="42.6123317" lon="-7.75515"><ele>511.0</ele><time>2026-04-14T08:59:33.847Z</time></trkpt><trkpt lat="42.61212" lon="-7.755115"><ele>509.6666666666667</ele><time>2026-04-14T08:59:34.847Z</time></trkpt><trkpt lat="42.61191" lon="-7.7550983"><ele>508.33333333333337</ele><time>2026-04-14T08:59:35.847Z</time></trkpt><trkpt lat="42.6116933" lon="-7.7550833"><ele>507.0</ele><time>2026-04-14T08:59:36.847Z</time></trkpt><trkpt lat="42.611485" lon="-7.755085"><ele>507.0</ele><time>2026-04-14T08:59:37.846Z</time></trkpt><trkpt lat="42.6112817" lon="-7.7551067"><ele>507.0</ele><time>2026-04-14T08:59:38.847Z</time></trkpt><trkpt lat="42.611075" lon="-7.7551367"><ele>507.0</ele><time>2026-04-14T08:59:39.846Z</time></trkpt><trkpt lat="42.6108717" lon="-7.75518"><ele>505.66666666666663</ele><time>2026-04-14T08:59:40.846Z</time></trkpt><trkpt lat="42.6106633" lon="-7.755225"><ele>504.3333333333333</ele><time>2026-04-14T08:59:41.847Z</time></trkpt><trkpt lat="42.610455" lon="-7.7552733"><ele>503.0</ele><time>2026-04-14T08:59:42.846Z</time></trkpt><trkpt lat="42.6102533" lon="-7.7553183"><ele>501.0</ele><time>2026-04-14T08:59:43.847Z</time></trkpt><trkpt lat="42.6100533" lon="-7.755365"><ele>499.0</ele><time>2026-04-14T08:59:44.847Z</time></trkpt><trkpt lat="42.6098633" lon="-7.7554117"><ele>497.0</ele><time>2026-04-14T08:59:45.846Z</time></trkpt><trkpt lat="42.6096767" lon="-7.75546"><ele>497.0</ele><time>2026-04-14T08:59:46.846Z</time></trkpt><trkpt lat="42.609505" lon="-7.7555267"><ele>497.0</ele><time>2026-04-14T08:59:47.847Z</time></trkpt><trkpt lat="42.609345" lon="-7.7556017"><ele>497.0</ele><time>2026-04-14T08:59:48.847Z</time></trkpt><trkpt lat="42.6091933" lon="-7.7556767"><ele>495.3333333333333</ele><time>2026-04-14T08:59:49.847Z</time></trkpt><trkpt lat="42.6090483" lon="-7.7557633"><ele>493.66666666666663</ele><time>2026-04-14T08:59:50.846Z</time></trkpt><trkpt lat="42.6088917" lon="-7.755845"><ele>492.0</ele><time>2026-04-14T08:59:51.847Z</time></trkpt><trkpt lat="42.6087417" lon="-7.755925"><ele>491.25</ele><time>2026-04-14T08:59:52.846Z</time></trkpt><trkpt lat="42.6086017" lon="-7.7560067"><ele>490.5</ele><time>2026-04-14T08:59:53.847Z</time></trkpt><trkpt lat="42.6084667" lon="-7.7560817"><ele>489.75</ele><time>2026-04-14T08:59:54.847Z</time></trkpt><trkpt lat="42.6083333" lon="-7.756155"><ele>489.0</ele><time>2026-04-14T08:59:55.846Z</time></trkpt><trkpt lat="42.6082183" lon="-7.75624"><ele>488.79999999999995</ele><time>2026-04-14T08:59:56.846Z</time></trkpt><trkpt lat="42.6081233" lon="-7.7563383"><ele>488.59999999999997</ele><time>2026-04-14T08:59:57.846Z</time></trkpt><trkpt lat="42.608055" lon="-7.7564417"><ele>488.4</ele><time>2026-04-14T08:59:58.846Z</time></trkpt><trkpt lat="42.6080167" lon="-7.7565417"><ele>488.2</ele><time>2026-04-14T08:59:59.846Z</time></trkpt><trkpt lat="42.6079917" lon="-7.7566633"><ele>488.0</ele><time>2026-04-14T09:00:01.847Z</time></trkpt><trkpt lat="42.6079117" lon="-7.75668"><ele>488.0</ele><time>2026-04-14T09:00:05.847Z</time></trkpt><trkpt lat="42.6078933" lon="-7.7565433"><ele>487.99999999999994</ele><time>2026-04-14T09:00:07.846Z</time></trkpt><trkpt lat="42.6079" lon="-7.7564167"><ele>487.99999999999994</ele><time>2026-04-14T09:00:08.846Z</time></trkpt><trkpt lat="42.6078983" lon="-7.756265"><ele>488.0</ele><time>2026-04-14T09:00:09.846Z</time></trkpt><trkpt lat="42.6078867" lon="-7.756095"><ele>488.0</ele><time>2026-04-14T09:00:10.847Z</time></trkpt><trkpt lat="42.60788" lon="-7.755915"><ele>488.25</ele><time>2026-04-14T09:00:11.846Z</time></trkpt><trkpt lat="42.6078767" lon="-7.75573"><ele>488.5</ele><time>2026-04-14T09:00:12.846Z</time></trkpt><trkpt lat="42.60788" lon="-7.7555367"><ele>488.75</ele><time>2026-04-14T09:00:13.846Z</time></trkpt><trkpt lat="42.607875" lon="-7.7553383"><ele>489.0</ele><time>2026-04-14T09:00:14.846Z</time></trkpt><trkpt lat="42.607875" lon="-7.7551333"><ele>488.5</ele><time>2026-04-14T09:00:15.846Z</time></trkpt><trkpt lat="42.607885" lon="-7.7549283"><ele>488.0</ele><time>2026-04-14T09:00:16.846Z</time></trkpt><trkpt lat="42.607915" lon="-7.7547317"><ele>487.5</ele><time>2026-04-14T09:00:17.847Z</time></trkpt><trkpt lat="42.60796" lon="-7.754545"><ele>487.0</ele><time>2026-04-14T09:00:18.847Z</time></trkpt><trkpt lat="42.60802" lon="-7.7543783"><ele>486.0</ele><time>2026-04-14T09:00:19.846Z</time></trkpt><trkpt lat="42.6080983" lon="-7.7542183"><ele>485.0</ele><time>2026-04-14T09:00:20.846Z</time></trkpt><trkpt lat="42.608195" lon="-7.7540683"><ele>484.0</ele><time>2026-04-14T09:00:21.846Z</time></trkpt><trkpt lat="42.6083033" lon="-7.7539333"><ele>483.0</ele><time>2026-04-14T09:00:22.847Z</time></trkpt><trkpt lat="42.608415" lon="-7.7538083"><ele>483.0</ele><time>2026-04-14T09:00:23.847Z</time></trkpt><trkpt lat="42.6085367" lon="-7.7536883"><ele>483.0</ele><time>2026-04-14T09:00:24.847Z</time></trkpt><trkpt lat="42.60866" lon="-7.753575"><ele>483.0</ele><time>2026-04-14T09:00:25.847Z</time></trkpt><trkpt lat="42.60878" lon="-7.7534767"><ele>483.0</ele><time>2026-04-14T09:00:26.847Z</time></trkpt><trkpt lat="42.6089033" lon="-7.75339"><ele>482.75</ele><time>2026-04-14T09:00:27.846Z</time></trkpt><trkpt lat="42.6090233" lon="-7.7532983"><ele>482.5</ele><time>2026-04-14T09:00:28.847Z</time></trkpt><trkpt lat="42.609145" lon="-7.753215"><ele>482.25</ele><time>2026-04-14T09:00:29.846Z</time></trkpt><trkpt lat="42.60927" lon="-7.7531267"><ele>482.0</ele><time>2026-04-14T09:00:30.846Z</time></trkpt><trkpt lat="42.609395" lon="-7.7530367"><ele>482.5</ele><time>2026-04-14T09:00:31.847Z</time></trkpt><trkpt lat="42.6095017" lon="-7.7529567"><ele>483.0</ele><time>2026-04-14T09:00:32.846Z</time></trkpt><trkpt lat="42.6095983" lon="-7.7528767"><ele>483.5</ele><time>2026-04-14T09:00:33.846Z</time></trkpt><trkpt lat="42.6097" lon="-7.7527983"><ele>484.0</ele><time>2026-04-14T09:00:34.847Z</time></trkpt><trkpt lat="42.6097933" lon="-7.7527183"><ele>483.0</ele><time>2026-04-14T09:00:35.847Z</time></trkpt><trkpt lat="42.6098917" lon="-7.7526467"><ele>482.0</ele><time>2026-04-14T09:00:36.846Z</time></trkpt><trkpt lat="42.6100017" lon="-7.752575"><ele>481.0</ele><time>2026-04-14T09:00:37.847Z</time></trkpt><trkpt lat="42.6101067" lon="-7.7524833"><ele>480.0</ele><time>2026-04-14T09:00:38.847Z</time></trkpt><trkpt lat="42.610205" lon="-7.7523517"><ele>480.0</ele><time>2026-04-14T09:00:39.846Z</time></trkpt><trkpt lat="42.6103017" lon="-7.7522033"><ele>480.0</ele><time>2026-04-14T09:00:40.846Z</time></trkpt><trkpt lat="42.610385" lon="-7.7520383"><ele>480.0</ele><time>2026-04-14T09:00:41.847Z</time></trkpt><trkpt lat="42.6078867" lon="-7.756095"><ele>482.25</ele><time>2026-04-14T09:00:10.847Z</time></trkpt><trkpt lat="42.60788" lon="-7.755915"><ele>484.5</ele><time>2026-04-14T09:00:11.846Z</time></trkpt><trkpt lat="42.6078767" lon="-7.75573"><ele>486.75</ele><time>2026-04-14T09:00:12.846Z</time></trkpt><trkpt lat="42.60788" lon="-7.7555367"><ele>489.0</ele><time>2026-04-14T09:00:13.846Z</time></trkpt><trkpt lat="42.607875" lon="-7.7553383"><ele>488.33333333333337</ele><time>2026-04-14T09:00:14.846Z</time></trkpt><trkpt lat="42.607875" lon="-7.7551333"><ele>487.6666666666667</ele><time>2026-04-14T09:00:15.846Z</time></trkpt><trkpt lat="42.607885" lon="-7.7549283"><ele>487.0</ele><time>2026-04-14T09:00:16.846Z</time></trkpt><trkpt lat="42.607915" lon="-7.7547317"><ele>487.0</ele><time>2026-04-14T09:00:17.847Z</time></trkpt><trkpt lat="42.60796" lon="-7.754545"><ele>487.0</ele><time>2026-04-14T09:00:18.847Z</time></trkpt><trkpt lat="42.60802" lon="-7.7543783"><ele>487.0</ele><time>2026-04-14T09:00:19.846Z</time></trkpt><trkpt lat="42.6080983" lon="-7.7542183"><ele>487.0</ele><time>2026-04-14T09:00:20.846Z</time></trkpt><trkpt lat="42.608195" lon="-7.7540683"><ele>487.0</ele><time>2026-04-14T09:00:21.846Z</time></trkpt><trkpt lat="42.6083033" lon="-7.7539333"><ele>487.0</ele><time>2026-04-14T09:00:22.847Z</time></trkpt><trkpt lat="42.608415" lon="-7.7538083"><ele>487.0</ele><time>2026-04-14T09:00:23.847Z</time></trkpt><trkpt lat="42.6085367" lon="-7.7536883"><ele>487.0</ele><time>2026-04-14T09:00:24.847Z</time></trkpt><trkpt lat="42.60866" lon="-7.753575"><ele>485.75</ele><time>2026-04-14T09:00:25.847Z</time></trkpt><trkpt lat="42.60878" lon="-7.7534767"><ele>484.5</ele><time>2026-04-14T09:00:26.847Z</time></trkpt><trkpt lat="42.6089033" lon="-7.75339"><ele>483.25</ele><time>2026-04-14T09:00:27.846Z</time></trkpt><trkpt lat="42.6090233" lon="-7.7532983"><ele>482.0</ele><time>2026-04-14T09:00:28.847Z</time></trkpt><trkpt lat="42.609145" lon="-7.753215"><ele>482.0</ele><time>2026-04-14T09:00:29.846Z</time></trkpt><trkpt lat="42.60927" lon="-7.7531267"><ele>482.0</ele><time>2026-04-14T09:00:30.846Z</time></trkpt><trkpt lat="42.609395" lon="-7.7530367"><ele>482.0</ele><time>2026-04-14T09:00:31.847Z</time></trkpt><trkpt lat="42.6095017" lon="-7.7529567"><ele>482.0</ele><time>2026-04-14T09:00:32.846Z</time></trkpt><trkpt lat="42.6095983" lon="-7.7528767"><ele>482.5</ele><time>2026-04-14T09:00:33.846Z</time></trkpt><trkpt lat="42.6097" lon="-7.7527983"><ele>483.0</ele><time>2026-04-14T09:00:34.847Z</time></trkpt><trkpt lat="42.6097933" lon="-7.7527183"><ele>483.5</ele><time>2026-04-14T09:00:35.847Z</time></trkpt><trkpt lat="42.6098917" lon="-7.7526467"><ele>484.0</ele><time>2026-04-14T09:00:36.846Z</time></trkpt><trkpt lat="42.6100017" lon="-7.752575"><ele>484.25</ele><time>2026-04-14T09:00:37.847Z</time></trkpt><trkpt lat="42.6101067" lon="-7.7524833"><ele>484.5</ele><time>2026-04-14T09:00:38.847Z</time></trkpt><trkpt lat="42.610205" lon="-7.7523517"><ele>484.75</ele><time>2026-04-14T09:00:39.846Z</time></trkpt><trkpt lat="42.6103017" lon="-7.7522033"><ele>485.0</ele><time>2026-04-14T09:00:40.846Z</time></trkpt><trkpt lat="42.610385" lon="-7.7520383"><ele>484.0</ele><time>2026-04-14T09:00:41.847Z</time></trkpt><trkpt lat="42.61047" lon="-7.7518617"><ele>483.0</ele><time>2026-04-14T09:00:42.846Z</time></trkpt><trkpt lat="42.6105533" lon="-7.7516633"><ele>482.0</ele><time>2026-04-14T09:00:43.847Z</time></trkpt><trkpt lat="42.6106333" lon="-7.7514467"><ele>482.0</ele><time>2026-04-14T09:00:44.847Z</time></trkpt><trkpt lat="42.6107" lon="-7.7512067"><ele>482.0</ele><time>2026-04-14T09:00:45.846Z</time></trkpt><trkpt lat="42.6107517" lon="-7.7509533"><ele>482.0</ele><time>2026-04-14T09:00:46.846Z</time></trkpt><trkpt lat="42.6108" lon="-7.7507017"><ele>481.3333333333333</ele><time>2026-04-14T09:00:47.846Z</time></trkpt><trkpt lat="42.6108483" lon="-7.7504517"><ele>480.66666666666663</ele><time>2026-04-14T09:00:48.847Z</time></trkpt><trkpt lat="42.6108967" lon="-7.750205"><ele>480.0</ele><time>2026-04-14T09:00:49.847Z</time></trkpt><trkpt lat="42.6109417" lon="-7.7499767"><ele>479.66666666666663</ele><time>2026-04-14T09:00:50.847Z</time></trkpt><trkpt lat="42.6109933" lon="-7.7497633"><ele>479.3333333333333</ele><time>2026-04-14T09:00:51.846Z</time></trkpt><trkpt lat="42.6110467" lon="-7.7495517"><ele>479.0</ele><time>2026-04-14T09:00:52.846Z</time></trkpt><trkpt lat="42.6111" lon="-7.7493417"><ele>482.3333333333333</ele><time>2026-04-14T09:00:53.847Z</time></trkpt><trkpt lat="42.6111583" lon="-7.7491217"><ele>485.66666666666663</ele><time>2026-04-14T09:00:54.847Z</time></trkpt><trkpt lat="42.6112033" lon="-7.7489017"><ele>489.0</ele><time>2026-04-14T09:00:55.846Z</time></trkpt><trkpt lat="42.6112567" lon="-7.7486783"><ele>486.66666666666663</ele><time>2026-04-14T09:00:56.846Z</time></trkpt><trkpt lat="42.6113117" lon="-7.7484517"><ele>484.3333333333333</ele><time>2026-04-14T09:00:57.846Z</time></trkpt><trkpt lat="42.6113633" lon="-7.748225"><ele>482.0</ele><time>2026-04-14T09:00:58.847Z</time></trkpt><trkpt lat="42.6114167" lon="-7.7479917"><ele>482.0</ele><time>2026-04-14T09:00:59.846Z</time></trkpt><trkpt lat="42.6114733" lon="-7.74776"><ele>482.0</ele><time>2026-04-14T09:01:00.847Z</time></trkpt><trkpt lat="42.6115217" lon="-7.74753"><ele>482.0</ele><time>2026-04-14T09:01:01.846Z</time></trkpt><trkpt lat="42.6115717" lon="-7.7473033"><ele>481.0</ele><time>2026-04-14T09:01:02.847Z</time></trkpt><trkpt lat="42.6116183" lon="-7.7470667"><ele>480.0</ele><time>2026-04-14T09:01:03.847Z</time></trkpt><trkpt lat="42.6116383" lon="-7.74683"><ele>479.0</ele><time>2026-04-14T09:01:04.847Z</time></trkpt><trkpt lat="42.6116533" lon="-7.7466017"><ele>479.0</ele><time>2026-04-14T09:01:05.847Z</time></trkpt><trkpt lat="42.61166" lon="-7.7463667"><ele>479.0</ele><time>2026-04-14T09:01:06.847Z</time></trkpt><trkpt lat="42.61166" lon="-7.7461283"><ele>479.0</ele><time>2026-04-14T09:01:07.846Z</time></trkpt><trkpt lat="42.611665" lon="-7.74589"><ele>479.0</ele><time>2026-04-14T09:01:08.847Z</time></trkpt><trkpt lat="42.6116717" lon="-7.745645"><ele>479.0</ele><time>2026-04-14T09:01:09.847Z</time></trkpt><trkpt lat="42.6116783" lon="-7.7454033"><ele>479.0</ele><time>2026-04-14T09:01:10.847Z</time></trkpt><trkpt lat="42.61168" lon="-7.7451617"><ele>478.0</ele><time>2026-04-14T09:01:11.846Z</time></trkpt><trkpt lat="42.6116783" lon="-7.7449217"><ele>477.0</ele><time>2026-04-14T09:01:12.846Z</time></trkpt><trkpt lat="42.61167" lon="-7.7447"><ele>476.0</ele><time>2026-04-14T09:01:13.846Z</time></trkpt><trkpt lat="42.6116483" lon="-7.74449"><ele>475.66666666666663</ele><time>2026-04-14T09:01:14.847Z</time></trkpt><trkpt lat="42.611605" lon="-7.7442783"><ele>475.33333333333337</ele><time>2026-04-14T09:01:15.846Z</time></trkpt><trkpt lat="42.61153" lon="-7.7440683"><ele>475.0</ele><time>2026-04-14T09:01:16.846Z</time></trkpt><trkpt lat="42.611445" lon="-7.74387"><ele>475.0</ele><time>2026-04-14T09:01:17.846Z</time></trkpt><trkpt lat="42.6113517" lon="-7.7436767"><ele>475.0</ele><time>2026-04-14T09:01:18.846Z</time></trkpt><trkpt lat="42.6112417" lon="-7.7434967"><ele>475.0</ele><time>2026-04-14T09:01:19.847Z</time></trkpt><trkpt lat="42.6111283" lon="-7.7433067"><ele>474.33333333333337</ele><time>2026-04-14T09:01:20.846Z</time></trkpt><trkpt lat="42.6110133" lon="-7.7431133"><ele>473.66666666666663</ele><time>2026-04-14T09:01:21.846Z</time></trkpt><trkpt lat="42.61089" lon="-7.7429017"><ele>473.0</ele><time>2026-04-14T09:01:22.846Z</time></trkpt><trkpt lat="42.61077" lon="-7.7427017"><ele>473.0</ele><time>2026-04-14T09:01:23.847Z</time></trkpt><trkpt lat="42.6106483" lon="-7.7424983"><ele>473.0</ele><time>2026-04-14T09:01:24.846Z</time></trkpt><trkpt lat="42.61053" lon="-7.7422933"><ele>473.0</ele><time>2026-04-14T09:01:25.846Z</time></trkpt><trkpt lat="42.6104083" lon="-7.7420817"><ele>472.0</ele><time>2026-04-14T09:01:26.846Z</time></trkpt><trkpt lat="42.6102867" lon="-7.7418717"><ele>471.0</ele><time>2026-04-14T09:01:27.846Z</time></trkpt><trkpt lat="42.610165" lon="-7.741665"><ele>470.0</ele><time>2026-04-14T09:01:28.847Z</time></trkpt><trkpt lat="42.6100433" lon="-7.7414667"><ele>470.0</ele><time>2026-04-14T09:01:29.846Z</time></trkpt><trkpt lat="42.609915" lon="-7.7412667"><ele>470.0</ele><time>2026-04-14T09:01:30.847Z</time></trkpt><trkpt lat="42.6097933" lon="-7.741065"><ele>470.0</ele><time>2026-04-14T09:01:31.847Z</time></trkpt><trkpt lat="42.6096783" lon="-7.74086"><ele>470.0</ele><time>2026-04-14T09:01:32.847Z</time></trkpt><trkpt lat="42.6095783" lon="-7.7406483"><ele>470.0</ele><time>2026-04-14T09:01:33.847Z</time></trkpt><trkpt lat="42.6094883" lon="-7.7404317"><ele>470.0</ele><time>2026-04-14T09:01:34.847Z</time></trkpt><trkpt lat="42.6094367" lon="-7.7402"><ele>470.66666666666663</ele><time>2026-04-14T09:01:35.847Z</time></trkpt><trkpt lat="42.609415" lon="-7.7399633"><ele>471.33333333333337</ele><time>2026-04-14T09:01:36.846Z</time></trkpt><trkpt lat="42.60943" lon="-7.7397217"><ele>472.0</ele><time>2026-04-14T09:01:37.847Z</time></trkpt><trkpt lat="42.6094683" lon="-7.7394667"><ele>477.6666666666667</ele><time>2026-04-14T09:01:38.847Z</time></trkpt><trkpt lat="42.6095217" lon="-7.7392217"><ele>483.33333333333337</ele><time>2026-04-14T09:01:39.847Z</time></trkpt><trkpt lat="42.60958" lon="-7.7389733"><ele>489.0</ele><time>2026-04-14T09:01:40.846Z</time></trkpt><trkpt lat="42.6096267" lon="-7.7387167"><ele>489.33333333333337</ele><time>2026-04-14T09:01:41.847Z</time></trkpt><trkpt lat="42.6096667" lon="-7.7384633"><ele>489.6666666666667</ele><time>2026-04-14T09:01:42.846Z</time></trkpt><trkpt lat="42.6096867" lon="-7.738205"><ele>490.0</ele><time>2026-04-14T09:01:43.846Z</time></trkpt><trkpt lat="42.6096833" lon="-7.7379417"><ele>489.6666666666667</ele><time>2026-04-14T09:01:44.847Z</time></trkpt><trkpt lat="42.6096617" lon="-7.7376933"><ele>489.33333333333337</ele><time>2026-04-14T09:01:45.847Z</time></trkpt><trkpt lat="42.6096267" lon="-7.7374467"><ele>489.0</ele><time>2026-04-14T09:01:46.847Z</time></trkpt><trkpt lat="42.6095917" lon="-7.73721"><ele>489.0</ele><time>2026-04-14T09:01:47.847Z</time></trkpt><trkpt lat="42.609565" lon="-7.7369783"><ele>489.0</ele><time>2026-04-14T09:01:48.846Z</time></trkpt><trkpt lat="42.6095567" lon="-7.7367683"><ele>489.0</ele><time>2026-04-14T09:01:49.847Z</time></trkpt><trkpt lat="42.6095633" lon="-7.7365467"><ele>488.0</ele><time>2026-04-14T09:01:50.847Z</time></trkpt><trkpt lat="42.6096" lon="-7.7363517"><ele>487.0</ele><time>2026-04-14T09:01:51.847Z</time></trkpt><trkpt lat="42.6096617" lon="-7.736165"><ele>486.0</ele><time>2026-04-14T09:01:52.846Z</time></trkpt><trkpt lat="42.60976" lon="-7.7359933"><ele>480.66666666666663</ele><time>2026-04-14T09:01:53.847Z</time></trkpt><trkpt lat="42.609885" lon="-7.7358367"><ele>475.3333333333333</ele><time>2026-04-14T09:01:54.847Z</time></trkpt><trkpt lat="42.6100333" lon="-7.7356867"><ele>470.0</ele><time>2026-04-14T09:01:55.847Z</time></trkpt><trkpt lat="42.6101917" lon="-7.735545"><ele>470.66666666666663</ele><time>2026-04-14T09:01:56.846Z</time></trkpt><trkpt lat="42.6103483" lon="-7.7354017"><ele>471.33333333333337</ele><time>2026-04-14T09:01:57.846Z</time></trkpt><trkpt lat="42.6104917" lon="-7.7352233"><ele>472.0</ele><time>2026-04-14T09:01:58.846Z</time></trkpt><trkpt lat="42.6106217" lon="-7.7350167"><ele>472.0</ele><time>2026-04-14T09:01:59.846Z</time></trkpt><trkpt lat="42.610735" lon="-7.7348"><ele>472.0</ele><time>2026-04-14T09:02:00.847Z</time></trkpt><trkpt lat="42.6108483" lon="-7.7345883"><ele>472.0</ele><time>2026-04-14T09:02:01.846Z</time></trkpt><trkpt lat="42.61096" lon="-7.7343783"><ele>472.33333333333337</ele><time>2026-04-14T09:02:02.846Z</time></trkpt><trkpt lat="42.611085" lon="-7.7341817"><ele>472.66666666666663</ele><time>2026-04-14T09:02:03.846Z</time></trkpt><trkpt lat="42.611215" lon="-7.7340017"><ele>473.0</ele><time>2026-04-14T09:02:04.847Z</time></trkpt><trkpt lat="42.61136" lon="-7.7338583"><ele>473.0</ele><time>2026-04-14T09:02:05.846Z</time></trkpt><trkpt lat="42.61151" lon="-7.73374"><ele>473.0</ele><time>2026-04-14T09:02:06.846Z</time></trkpt><trkpt lat="42.6116633" lon="-7.7336317"><ele>473.0</ele><time>2026-04-14T09:02:07.846Z</time></trkpt><trkpt lat="42.6118267" lon="-7.7335333"><ele>472.0</ele><time>2026-04-14T09:02:08.846Z</time></trkpt><trkpt lat="42.6094683" lon="-7.7394667"><ele>477.6666666666667</ele><time>2026-04-14T09:01:38.847Z</time></trkpt><trkpt lat="42.6095217" lon="-7.7392217"><ele>483.33333333333337</ele><time>2026-04-14T09:01:39.847Z</time></trkpt><trkpt lat="42.60958" lon="-7.7389733"><ele>489.0</ele><time>2026-04-14T09:01:40.846Z</time></trkpt><trkpt lat="42.6096267" lon="-7.7387167"><ele>489.33333333333337</ele><time>2026-04-14T09:01:41.847Z</time></trkpt><trkpt lat="42.6096667" lon="-7.7384633"><ele>489.6666666666667</ele><time>2026-04-14T09:01:42.846Z</time></trkpt><trkpt lat="42.6096867" lon="-7.738205"><ele>490.0</ele><time>2026-04-14T09:01:43.846Z</time></trkpt><trkpt lat="42.6096833" lon="-7.7379417"><ele>489.6666666666667</ele><time>2026-04-14T09:01:44.847Z</time></trkpt><trkpt lat="42.6096617" lon="-7.7376933"><ele>489.33333333333337</ele><time>2026-04-14T09:01:45.847Z</time></trkpt><trkpt lat="42.6096267" lon="-7.7374467"><ele>489.0</ele><time>2026-04-14T09:01:46.847Z</time></trkpt><trkpt lat="42.6095917" lon="-7.73721"><ele>489.0</ele><time>2026-04-14T09:01:47.847Z</time></trkpt><trkpt lat="42.609565" lon="-7.7369783"><ele>489.0</ele><time>2026-04-14T09:01:48.846Z</time></trkpt><trkpt lat="42.6095567" lon="-7.7367683"><ele>489.0</ele><time>2026-04-14T09:01:49.847Z</time></trkpt><trkpt lat="42.6095633" lon="-7.7365467"><ele>488.0</ele><time>2026-04-14T09:01:50.847Z</time></trkpt><trkpt lat="42.6096" lon="-7.7363517"><ele>487.0</ele><time>2026-04-14T09:01:51.847Z</time></trkpt><trkpt lat="42.6096617" lon="-7.736165"><ele>486.0</ele><time>2026-04-14T09:01:52.846Z</time></trkpt><trkpt lat="42.60976" lon="-7.7359933"><ele>480.66666666666663</ele><time>2026-04-14T09:01:53.847Z</time></trkpt><trkpt lat="42.609885" lon="-7.7358367"><ele>475.3333333333333</ele><time>2026-04-14T09:01:54.847Z</time></trkpt><trkpt lat="42.6100333" lon="-7.7356867"><ele>470.0</ele><time>2026-04-14T09:01:55.847Z</time></trkpt><trkpt lat="42.6101917" lon="-7.735545"><ele>470.66666666666663</ele><time>2026-04-14T09:01:56.846Z</time></trkpt><trkpt lat="42.6103483" lon="-7.7354017"><ele>471.33333333333337</ele><time>2026-04-14T09:01:57.846Z</time></trkpt><trkpt lat="42.6104917" lon="-7.7352233"><ele>472.0</ele><time>2026-04-14T09:01:58.846Z</time></trkpt><trkpt lat="42.6106217" lon="-7.7350167"><ele>472.0</ele><time>2026-04-14T09:01:59.846Z</time></trkpt><trkpt lat="42.610735" lon="-7.7348"><ele>472.0</ele><time>2026-04-14T09:02:00.847Z</time></trkpt><trkpt lat="42.6108483" lon="-7.7345883"><ele>472.0</ele><time>2026-04-14T09:02:01.846Z</time></trkpt><trkpt lat="42.61096" lon="-7.7343783"><ele>472.33333333333337</ele><time>2026-04-14T09:02:02.846Z</time></trkpt><trkpt lat="42.611085" lon="-7.7341817"><ele>472.66666666666663</ele><time>2026-04-14T09:02:03.846Z</time></trkpt><trkpt lat="42.611215" lon="-7.7340017"><ele>473.0</ele><time>2026-04-14T09:02:04.847Z</time></trkpt><trkpt lat="42.61136" lon="-7.7338583"><ele>473.0</ele><time>2026-04-14T09:02:05.846Z</time></trkpt><trkpt lat="42.61151" lon="-7.73374"><ele>473.0</ele><time>2026-04-14T09:02:06.846Z</time></trkpt><trkpt lat="42.6116633" lon="-7.7336317"><ele>473.0</ele><time>2026-04-14T09:02:07.846Z</time></trkpt><trkpt lat="42.6118267" lon="-7.7335333"><ele>467.3333333333333</ele><time>2026-04-14T09:02:08.846Z</time></trkpt><trkpt lat="42.612" lon="-7.73345"><ele>461.66666666666663</ele><time>2026-04-14T09:02:09.846Z</time></trkpt><trkpt lat="42.6121767" lon="-7.7333683"><ele>456.0</ele><time>2026-04-14T09:02:10.847Z</time></trkpt><trkpt lat="42.6123533" lon="-7.7332833"><ele>456.0</ele><time>2026-04-14T09:02:11.846Z</time></trkpt><trkpt lat="42.6125333" lon="-7.7331967"><ele>456.0</ele><time>2026-04-14T09:02:12.846Z</time></trkpt><trkpt lat="42.6127083" lon="-7.733095"><ele>456.0</ele><time>2026-04-14T09:02:13.846Z</time></trkpt><trkpt lat="42.6128667" lon="-7.7329767"><ele>457.0</ele><time>2026-04-14T09:02:14.846Z</time></trkpt><trkpt lat="42.6130033" lon="-7.7328267"><ele>458.0</ele><time>2026-04-14T09:02:15.847Z</time></trkpt><trkpt lat="42.61311" lon="-7.7326583"><ele>459.0</ele><time>2026-04-14T09:02:16.846Z</time></trkpt><trkpt lat="42.613195" lon="-7.732475"><ele>459.0</ele><time>2026-04-14T09:02:17.847Z</time></trkpt><trkpt lat="42.613245" lon="-7.73226"><ele>459.0</ele><time>2026-04-14T09:02:18.847Z</time></trkpt><trkpt lat="42.6132733" lon="-7.7320367"><ele>459.0</ele><time>2026-04-14T09:02:19.847Z</time></trkpt><trkpt lat="42.6132833" lon="-7.7318033"><ele>452.66666666666663</ele><time>2026-04-14T09:02:20.847Z</time></trkpt><trkpt lat="42.6132917" lon="-7.7315583"><ele>446.3333333333333</ele><time>2026-04-14T09:02:21.847Z</time></trkpt><trkpt lat="42.6133017" lon="-7.7313167"><ele>440.0</ele><time>2026-04-14T09:02:22.846Z</time></trkpt><trkpt lat="42.61332" lon="-7.7310833"><ele>433.66666666666663</ele><time>2026-04-14T09:02:23.846Z</time></trkpt><trkpt lat="42.613355" lon="-7.730855"><ele>427.33333333333337</ele><time>2026-04-14T09:02:24.846Z</time></trkpt><trkpt lat="42.6134167" lon="-7.73066"><ele>421.0</ele><time>2026-04-14T09:02:25.846Z</time></trkpt><trkpt lat="42.6134917" lon="-7.7304633"><ele>421.0</ele><time>2026-04-14T09:02:26.846Z</time></trkpt><trkpt lat="42.6135633" lon="-7.7302633"><ele>421.0</ele><time>2026-04-14T09:02:27.846Z</time></trkpt><trkpt lat="42.6136083" lon="-7.7300583"><ele>421.0</ele><time>2026-04-14T09:02:28.846Z</time></trkpt><trkpt lat="42.61362" lon="-7.7298317"><ele>417.0</ele><time>2026-04-14T09:02:29.846Z</time></trkpt><trkpt lat="42.6136017" lon="-7.7296083"><ele>413.0</ele><time>2026-04-14T09:02:30.846Z</time></trkpt><trkpt lat="42.6135617" lon="-7.7294"><ele>409.0</ele><time>2026-04-14T09:02:31.846Z</time></trkpt><trkpt lat="42.6134733" lon="-7.7292267"><ele>409.0</ele><time>2026-04-14T09:02:32.846Z</time></trkpt><trkpt lat="42.6133517" lon="-7.72909"><ele>409.0</ele><time>2026-04-14T09:02:33.847Z</time></trkpt><trkpt lat="42.613215" lon="-7.7289833"><ele>409.0</ele><time>2026-04-14T09:02:34.846Z</time></trkpt><trkpt lat="42.6130533" lon="-7.7289067"><ele>409.0</ele><time>2026-04-14T09:02:35.847Z</time></trkpt><trkpt lat="42.6128817" lon="-7.728865"><ele>409.0</ele><time>2026-04-14T09:02:36.846Z</time></trkpt><trkpt lat="42.6126967" lon="-7.7288417"><ele>409.0</ele><time>2026-04-14T09:02:37.846Z</time></trkpt><trkpt lat="42.61251" lon="-7.7288317"><ele>404.6666666666667</ele><time>2026-04-14T09:02:38.846Z</time></trkpt><trkpt lat="42.6123333" lon="-7.728835"><ele>400.33333333333337</ele><time>2026-04-14T09:02:39.847Z</time></trkpt><trkpt lat="42.612165" lon="-7.728835"><ele>396.0</ele><time>2026-04-14T09:02:40.847Z</time></trkpt><trkpt lat="42.6120083" lon="-7.72882"><ele>393.66666666666663</ele><time>2026-04-14T09:02:41.847Z</time></trkpt><trkpt lat="42.61185" lon="-7.728785"><ele>391.3333333333333</ele><time>2026-04-14T09:02:42.846Z</time></trkpt><trkpt lat="42.6116933" lon="-7.7287217"><ele>389.0</ele><time>2026-04-14T09:02:43.846Z</time></trkpt><trkpt lat="42.6115533" lon="-7.72863"><ele>392.66666666666663</ele><time>2026-04-14T09:02:44.846Z</time></trkpt><trkpt lat="42.6114267" lon="-7.728515"><ele>396.33333333333337</ele><time>2026-04-14T09:02:45.846Z</time></trkpt><trkpt lat="42.6113167" lon="-7.7283667"><ele>400.0</ele><time>2026-04-14T09:02:46.846Z</time></trkpt><trkpt lat="42.6112267" lon="-7.7281967"><ele>400.0</ele><time>2026-04-14T09:02:47.846Z</time></trkpt><trkpt lat="42.6111617" lon="-7.7279983"><ele>400.0</ele><time>2026-04-14T09:02:48.846Z</time></trkpt><trkpt lat="42.6111183" lon="-7.727795"><ele>400.0</ele><time>2026-04-14T09:02:49.847Z</time></trkpt><trkpt lat="42.6110967" lon="-7.72758"><ele>390.33333333333337</ele><time>2026-04-14T09:02:50.847Z</time></trkpt><trkpt lat="42.61109" lon="-7.72736"><ele>380.6666666666667</ele><time>2026-04-14T09:02:51.846Z</time></trkpt><trkpt lat="42.6110983" lon="-7.7271467"><ele>371.0</ele><time>2026-04-14T09:02:52.846Z</time></trkpt><trkpt lat="42.6110917" lon="-7.7269317"><ele>369.33333333333337</ele><time>2026-04-14T09:02:53.847Z</time></trkpt><trkpt lat="42.6110733" lon="-7.7267"><ele>367.6666666666667</ele><time>2026-04-14T09:02:54.846Z</time></trkpt><trkpt lat="42.61103" lon="-7.7264767"><ele>366.0</ele><time>2026-04-14T09:02:55.846Z</time></trkpt><trkpt lat="42.61096" lon="-7.7262517"><ele>369.0</ele><time>2026-04-14T09:02:56.847Z</time></trkpt><trkpt lat="42.61085" lon="-7.726035"><ele>372.0</ele><time>2026-04-14T09:02:57.847Z</time></trkpt><trkpt lat="42.61071" lon="-7.72584"><ele>375.0</ele><time>2026-04-14T09:02:58.846Z</time></trkpt><trkpt lat="42.6105583" lon="-7.7256767"><ele>375.0</ele><time>2026-04-14T09:02:59.847Z</time></trkpt><trkpt lat="42.6104233" lon="-7.7255083"><ele>375.0</ele><time>2026-04-14T09:03:00.846Z</time></trkpt><trkpt lat="42.61031" lon="-7.7253217"><ele>375.0</ele><time>2026-04-14T09:03:01.846Z</time></trkpt><trkpt lat="42.6102167" lon="-7.725115"><ele>370.6666666666667</ele><time>2026-04-14T09:03:02.846Z</time></trkpt><trkpt lat="42.6101483" lon="-7.7248833"><ele>366.33333333333337</ele><time>2026-04-14T09:03:03.846Z</time></trkpt><trkpt lat="42.610095" lon="-7.7246367"><ele>362.0</ele><time>2026-04-14T09:03:04.847Z</time></trkpt><trkpt lat="42.6100583" lon="-7.72438"><ele>362.0</ele><time>2026-04-14T09:03:05.847Z</time></trkpt><trkpt lat="42.61004" lon="-7.7241283"><ele>362.0</ele><time>2026-04-14T09:03:06.847Z</time></trkpt><trkpt lat="42.6100317" lon="-7.7238733"><ele>362.0</ele><time>2026-04-14T09:03:07.846Z</time></trkpt><trkpt lat="42.6100383" lon="-7.72362"><ele>361.0</ele><time>2026-04-14T09:03:08.847Z</time></trkpt><trkpt lat="42.6100683" lon="-7.7233883"><ele>360.0</ele><time>2026-04-14T09:03:09.846Z</time></trkpt><trkpt lat="42.6101167" lon="-7.7231617"><ele>359.0</ele><time>2026-04-14T09:03:10.846Z</time></trkpt><trkpt lat="42.6101917" lon="-7.7229467"><ele>359.0</ele><time>2026-04-14T09:03:11.847Z</time></trkpt><trkpt lat="42.6102717" lon="-7.7227383"><ele>359.0</ele><time>2026-04-14T09:03:12.846Z</time></trkpt><trkpt lat="42.61037" lon="-7.7225433"><ele>359.0</ele><time>2026-04-14T09:03:13.846Z</time></trkpt><trkpt lat="42.6104917" lon="-7.7223717"><ele>363.0</ele><time>2026-04-14T09:03:14.847Z</time></trkpt><trkpt lat="42.6106267" lon="-7.722205"><ele>367.0</ele><time>2026-04-14T09:03:15.848Z</time></trkpt><trkpt lat="42.6107633" lon="-7.7220483"><ele>371.0</ele><time>2026-04-14T09:03:16.848Z</time></trkpt><trkpt lat="42.61089" lon="-7.7219017"><ele>370.0</ele><time>2026-04-14T09:03:17.848Z</time></trkpt><trkpt lat="42.6110067" lon="-7.7217733"><ele>369.0</ele><time>2026-04-14T09:03:18.847Z</time></trkpt><trkpt lat="42.6111117" lon="-7.7216567"><ele>368.0</ele><time>2026-04-14T09:03:19.848Z</time></trkpt><trkpt lat="42.6112217" lon="-7.72154"><ele>367.0</ele><time>2026-04-14T09:03:20.848Z</time></trkpt><trkpt lat="42.6113333" lon="-7.7214033"><ele>367.0</ele><time>2026-04-14T09:03:21.848Z</time></trkpt><trkpt lat="42.6114467" lon="-7.7212617"><ele>367.0</ele><time>2026-04-14T09:03:22.848Z</time></trkpt><trkpt lat="42.6115617" lon="-7.7211283"><ele>367.0</ele><time>2026-04-14T09:03:23.847Z</time></trkpt><trkpt lat="42.6116483" lon="-7.7209833"><ele>367.0</ele><time>2026-04-14T09:03:24.848Z</time></trkpt><trkpt lat="42.6117333" lon="-7.72083"><ele>365.0</ele><time>2026-04-14T09:03:25.847Z</time></trkpt><trkpt lat="42.61181" lon="-7.7206617"><ele>363.0</ele><time>2026-04-14T09:03:26.848Z</time></trkpt><trkpt lat="42.6118917" lon="-7.7205067"><ele>361.0</ele><time>2026-04-14T09:03:27.848Z</time></trkpt><trkpt lat="42.61195" lon="-7.7203417"><ele>359.0</ele><time>2026-04-14T09:03:28.847Z</time></trkpt><trkpt lat="42.611995" lon="-7.7201867"><ele>359.0</ele><time>2026-04-14T09:03:29.847Z</time></trkpt><trkpt lat="42.61203" lon="-7.7200417"><ele>359.0</ele><time>2026-04-14T09:03:30.847Z</time></trkpt><trkpt lat="42.61205" lon="-7.7199183"><ele>359.0</ele><time>2026-04-14T09:03:31.848Z</time></trkpt><trkpt lat="42.6120517" lon="-7.7198067"><ele>359.0</ele><time>2026-04-14T09:03:32.848Z</time></trkpt><trkpt lat="42.6120367" lon="-7.7197167"><ele>359.0</ele><time>2026-04-14T09:03:33.847Z</time></trkpt><trkpt lat="42.6119417" lon="-7.719625"><ele>362.0</ele><time>2026-04-14T09:03:35.848Z</time></trkpt><trkpt lat="42.6100583" lon="-7.72438"><ele>362.0</ele><time>2026-04-14T09:03:05.847Z</time></trkpt><trkpt lat="42.61004" lon="-7.7241283"><ele>362.0</ele><time>2026-04-14T09:03:06.847Z</time></trkpt><trkpt lat="42.6100317" lon="-7.7238733"><ele>362.0</ele><time>2026-04-14T09:03:07.846Z</time></trkpt><trkpt lat="42.6100383" lon="-7.72362"><ele>361.0</ele><time>2026-04-14T09:03:08.847Z</time></trkpt><trkpt lat="42.6100683" lon="-7.7233883"><ele>360.0</ele><time>2026-04-14T09:03:09.846Z</time></trkpt><trkpt lat="42.6101167" lon="-7.7231617"><ele>359.0</ele><time>2026-04-14T09:03:10.846Z</time></trkpt><trkpt lat="42.6101917" lon="-7.7229467"><ele>359.0</ele><time>2026-04-14T09:03:11.847Z</time></trkpt><trkpt lat="42.6102717" lon="-7.7227383"><ele>359.0</ele><time>2026-04-14T09:03:12.846Z</time></trkpt><trkpt lat="42.61037" lon="-7.7225433"><ele>359.0</ele><time>2026-04-14T09:03:13.846Z</time></trkpt><trkpt lat="42.6104917" lon="-7.7223717"><ele>363.0</ele><time>2026-04-14T09:03:14.847Z</time></trkpt><trkpt lat="42.6106267" lon="-7.722205"><ele>367.0</ele><time>2026-04-14T09:03:15.848Z</time></trkpt><trkpt lat="42.6107633" lon="-7.7220483"><ele>371.0</ele><time>2026-04-14T09:03:16.848Z</time></trkpt><trkpt lat="42.61089" lon="-7.7219017"><ele>370.0</ele><time>2026-04-14T09:03:17.848Z</time></trkpt><trkpt lat="42.6110067" lon="-7.7217733"><ele>369.0</ele><time>2026-04-14T09:03:18.847Z</time></trkpt><trkpt lat="42.6111117" lon="-7.7216567"><ele>368.0</ele><time>2026-04-14T09:03:19.848Z</time></trkpt><trkpt lat="42.6112217" lon="-7.72154"><ele>367.0</ele><time>2026-04-14T09:03:20.848Z</time></trkpt><trkpt lat="42.6113333" lon="-7.7214033"><ele>367.0</ele><time>2026-04-14T09:03:21.848Z</time></trkpt><trkpt lat="42.6114467" lon="-7.7212617"><ele>367.0</ele><time>2026-04-14T09:03:22.848Z</time></trkpt><trkpt lat="42.6115617" lon="-7.7211283"><ele>367.0</ele><time>2026-04-14T09:03:23.847Z</time></trkpt><trkpt lat="42.6116483" lon="-7.7209833"><ele>367.0</ele><time>2026-04-14T09:03:24.848Z</time></trkpt><trkpt lat="42.6117333" lon="-7.72083"><ele>365.0</ele><time>2026-04-14T09:03:25.847Z</time></trkpt><trkpt lat="42.61181" lon="-7.7206617"><ele>363.0</ele><time>2026-04-14T09:03:26.848Z</time></trkpt><trkpt lat="42.6118917" lon="-7.7205067"><ele>361.0</ele><time>2026-04-14T09:03:27.848Z</time></trkpt><trkpt lat="42.61195" lon="-7.7203417"><ele>359.0</ele><time>2026-04-14T09:03:28.847Z</time></trkpt><trkpt lat="42.611995" lon="-7.7201867"><ele>359.0</ele><time>2026-04-14T09:03:29.847Z</time></trkpt><trkpt lat="42.61203" lon="-7.7200417"><ele>359.0</ele><time>2026-04-14T09:03:30.847Z</time></trkpt><trkpt lat="42.61205" lon="-7.7199183"><ele>359.0</ele><time>2026-04-14T09:03:31.848Z</time></trkpt><trkpt lat="42.6120517" lon="-7.7198067"><ele>359.0</ele><time>2026-04-14T09:03:32.848Z</time></trkpt><trkpt lat="42.6120367" lon="-7.7197167"><ele>359.0</ele><time>2026-04-14T09:03:33.847Z</time></trkpt><trkpt lat="42.6119417" lon="-7.719625"><ele>354.83333333333337</ele><time>2026-04-14T09:03:35.848Z</time></trkpt><trkpt lat="42.6118733" lon="-7.7196417"><ele>350.6666666666667</ele><time>2026-04-14T09:03:36.847Z</time></trkpt><trkpt lat="42.6118133" lon="-7.7197033"><ele>346.5</ele><time>2026-04-14T09:03:37.848Z</time></trkpt><trkpt lat="42.6117617" lon="-7.7197933"><ele>342.3333333333333</ele><time>2026-04-14T09:03:38.848Z</time></trkpt><trkpt lat="42.61174" lon="-7.71991"><ele>338.16666666666663</ele><time>2026-04-14T09:03:39.847Z</time></trkpt><trkpt lat="42.6117283" lon="-7.7200567"><ele>334.0</ele><time>2026-04-14T09:03:40.848Z</time></trkpt><trkpt lat="42.6116833" lon="-7.7201933"><ele>337.0</ele><time>2026-04-14T09:03:41.847Z</time></trkpt><trkpt lat="42.6115933" lon="-7.720315"><ele>340.0</ele><time>2026-04-14T09:03:42.848Z</time></trkpt><trkpt lat="42.611475" lon="-7.72041"><ele>343.0</ele><time>2026-04-14T09:03:43.847Z</time></trkpt><trkpt lat="42.6113517" lon="-7.7205"><ele>346.0</ele><time>2026-04-14T09:03:44.848Z</time></trkpt><trkpt lat="42.61124" lon="-7.7205783"><ele>345.0</ele><time>2026-04-14T09:03:45.847Z</time></trkpt><trkpt lat="42.61115" lon="-7.72065"><ele>344.0</ele><time>2026-04-14T09:03:46.847Z</time></trkpt><trkpt lat="42.6110717" lon="-7.7207433"><ele>343.0</ele><time>2026-04-14T09:03:47.848Z</time></trkpt><trkpt lat="42.6110067" lon="-7.7208583"><ele>342.0</ele><time>2026-04-14T09:03:48.848Z</time></trkpt><trkpt lat="42.6109333" lon="-7.7209967"><ele>341.0</ele><time>2026-04-14T09:03:49.848Z</time></trkpt><trkpt lat="42.6108567" lon="-7.7211483"><ele>341.0</ele><time>2026-04-14T09:03:50.848Z</time></trkpt><trkpt lat="42.6107533" lon="-7.7212767"><ele>341.0</ele><time>2026-04-14T09:03:51.848Z</time></trkpt><trkpt lat="42.610625" lon="-7.72139"><ele>341.0</ele><time>2026-04-14T09:03:52.848Z</time></trkpt><trkpt lat="42.6104917" lon="-7.72149"><ele>341.0</ele><time>2026-04-14T09:03:53.848Z</time></trkpt><trkpt lat="42.61036" lon="-7.7215733"><ele>335.5</ele><time>2026-04-14T09:03:54.847Z</time></trkpt><trkpt lat="42.6102267" lon="-7.7216367"><ele>330.0</ele><time>2026-04-14T09:03:55.847Z</time></trkpt><trkpt lat="42.610105" lon="-7.7216967"><ele>324.5</ele><time>2026-04-14T09:03:56.848Z</time></trkpt><trkpt lat="42.6099867" lon="-7.7217383"><ele>319.0</ele><time>2026-04-14T09:03:57.848Z</time></trkpt><trkpt lat="42.609875" lon="-7.7217733"><ele>319.0</ele><time>2026-04-14T09:03:58.847Z</time></trkpt><trkpt lat="42.60975" lon="-7.7217967"><ele>319.0</ele><time>2026-04-14T09:03:59.847Z</time></trkpt><trkpt lat="42.60962" lon="-7.7218167"><ele>319.0</ele><time>2026-04-14T09:04:00.847Z</time></trkpt><trkpt lat="42.6095" lon="-7.7218533"><ele>319.0</ele><time>2026-04-14T09:04:01.847Z</time></trkpt><trkpt lat="42.6093767" lon="-7.7218867"><ele>320.5</ele><time>2026-04-14T09:04:02.848Z</time></trkpt><trkpt lat="42.6092433" lon="-7.7219167"><ele>322.0</ele><time>2026-04-14T09:04:03.847Z</time></trkpt><trkpt lat="42.6091067" lon="-7.7219583"><ele>323.5</ele><time>2026-04-14T09:04:04.848Z</time></trkpt><trkpt lat="42.6089683" lon="-7.722"><ele>325.0</ele><time>2026-04-14T09:04:05.847Z</time></trkpt><trkpt lat="42.6088217" lon="-7.7220383"><ele>325.0</ele><time>2026-04-14T09:04:06.847Z</time></trkpt><trkpt lat="42.6086767" lon="-7.7220733"><ele>325.0</ele><time>2026-04-14T09:04:07.847Z</time></trkpt><trkpt lat="42.6085333" lon="-7.7221"><ele>325.0</ele><time>2026-04-14T09:04:08.847Z</time></trkpt><trkpt lat="42.6083833" lon="-7.7221133"><ele>325.0</ele><time>2026-04-14T09:04:09.847Z</time></trkpt><trkpt lat="42.6082317" lon="-7.722115"><ele>322.25</ele><time>2026-04-14T09:04:10.847Z</time></trkpt><trkpt lat="42.6080967" lon="-7.722105"><ele>319.5</ele><time>2026-04-14T09:04:11.848Z</time></trkpt><trkpt lat="42.60796" lon="-7.7221017"><ele>316.75</ele><time>2026-04-14T09:04:12.847Z</time></trkpt><trkpt lat="42.6078283" lon="-7.722105"><ele>314.0</ele><time>2026-04-14T09:04:13.847Z</time></trkpt><trkpt lat="42.6076917" lon="-7.7221233"><ele>311.75</ele><time>2026-04-14T09:04:14.847Z</time></trkpt><trkpt lat="42.6075733" lon="-7.7221533"><ele>309.5</ele><time>2026-04-14T09:04:15.847Z</time></trkpt><trkpt lat="42.607455" lon="-7.7221917"><ele>307.25</ele><time>2026-04-14T09:04:16.847Z</time></trkpt><trkpt lat="42.6073417" lon="-7.7222283"><ele>305.0</ele><time>2026-04-14T09:04:17.848Z</time></trkpt><trkpt lat="42.6072383" lon="-7.722275"><ele>305.0</ele><time>2026-04-14T09:04:18.847Z</time></trkpt><trkpt lat="42.60714" lon="-7.7223417"><ele>305.0</ele><time>2026-04-14T09:04:19.847Z</time></trkpt><trkpt lat="42.60705" lon="-7.722405"><ele>305.0</ele><time>2026-04-14T09:04:20.847Z</time></trkpt><trkpt lat="42.6069617" lon="-7.7224417"><ele>305.0</ele><time>2026-04-14T09:04:21.847Z</time></trkpt><trkpt lat="42.6068733" lon="-7.722445"><ele>305.0</ele><time>2026-04-14T09:04:22.848Z</time></trkpt><trkpt lat="42.6067967" lon="-7.722395"><ele>302.1666666666667</ele><time>2026-04-14T09:04:23.847Z</time></trkpt><trkpt lat="42.6067383" lon="-7.7223067"><ele>299.33333333333337</ele><time>2026-04-14T09:04:24.847Z</time></trkpt><trkpt lat="42.6067033" lon="-7.722195"><ele>296.5</ele><time>2026-04-14T09:04:25.847Z</time></trkpt><trkpt lat="42.6066967" lon="-7.7220783"><ele>293.6666666666667</ele><time>2026-04-14T09:04:26.847Z</time></trkpt><trkpt lat="42.6067217" lon="-7.72198"><ele>290.8333333333333</ele><time>2026-04-14T09:04:27.847Z</time></trkpt><trkpt lat="42.6067767" lon="-7.7219"><ele>288.0</ele><time>2026-04-14T09:04:28.847Z</time></trkpt><trkpt lat="42.6068617" lon="-7.72184"><ele>287.25</ele><time>2026-04-14T09:04:29.847Z</time></trkpt><trkpt lat="42.606985" lon="-7.7218017"><ele>286.5</ele><time>2026-04-14T09:04:30.847Z</time></trkpt><trkpt lat="42.6071383" lon="-7.721765"><ele>285.75</ele><time>2026-04-14T09:04:31.847Z</time></trkpt><trkpt lat="42.6072917" lon="-7.721715"><ele>285.0</ele><time>2026-04-14T09:04:32.847Z</time></trkpt><trkpt lat="42.60744" lon="-7.721655"><ele>285.0</ele><time>2026-04-14T09:04:33.848Z</time></trkpt><trkpt lat="42.60758" lon="-7.721595"><ele>285.0</ele><time>2026-04-14T09:04:34.848Z</time></trkpt><trkpt lat="42.607725" lon="-7.7215433"><ele>285.0</ele><time>2026-04-14T09:04:35.848Z</time></trkpt><trkpt lat="42.60786" lon="-7.72148"><ele>285.0</ele><time>2026-04-14T09:04:36.847Z</time></trkpt><trkpt lat="42.608" lon="-7.7214083"><ele>288.0</ele><time>2026-04-14T09:04:37.848Z</time></trkpt><trkpt lat="42.60814" lon="-7.72133"><ele>291.0</ele><time>2026-04-14T09:04:38.848Z</time></trkpt><trkpt lat="42.6082833" lon="-7.72124"><ele>294.0</ele><time>2026-04-14T09:04:39.847Z</time></trkpt><trkpt lat="42.6084267" lon="-7.72116"><ele>294.0</ele><time>2026-04-14T09:04:40.847Z</time></trkpt><trkpt lat="42.60857" lon="-7.7210933"><ele>294.0</ele><time>2026-04-14T09:04:41.847Z</time></trkpt><trkpt lat="42.6087133" lon="-7.7210317"><ele>294.0</ele><time>2026-04-14T09:04:42.848Z</time></trkpt><trkpt lat="42.6088483" lon="-7.7209733"><ele>294.0</ele><time>2026-04-14T09:04:43.848Z</time></trkpt><trkpt lat="42.6089717" lon="-7.7208983"><ele>292.5</ele><time>2026-04-14T09:04:44.847Z</time></trkpt><trkpt lat="42.6090983" lon="-7.7208233"><ele>291.0</ele><time>2026-04-14T09:04:45.847Z</time></trkpt><trkpt lat="42.60923" lon="-7.72076"><ele>289.5</ele><time>2026-04-14T09:04:46.847Z</time></trkpt><trkpt lat="42.609365" lon="-7.7207033"><ele>288.0</ele><time>2026-04-14T09:04:47.847Z</time></trkpt><trkpt lat="42.6094933" lon="-7.7206583"><ele>288.0</ele><time>2026-04-14T09:04:48.848Z</time></trkpt><trkpt lat="42.60962" lon="-7.7205917"><ele>288.0</ele><time>2026-04-14T09:04:49.848Z</time></trkpt><trkpt lat="42.6097317" lon="-7.7204833"><ele>288.0</ele><time>2026-04-14T09:04:50.848Z</time></trkpt><trkpt lat="42.6098267" lon="-7.7203483"><ele>288.0</ele><time>2026-04-14T09:04:51.848Z</time></trkpt><trkpt lat="42.6098933" lon="-7.7202033"><ele>284.25</ele><time>2026-04-14T09:04:52.847Z</time></trkpt><trkpt lat="42.6099267" lon="-7.7200517"><ele>280.5</ele><time>2026-04-14T09:04:53.847Z</time></trkpt><trkpt lat="42.609925" lon="-7.7198933"><ele>276.75</ele><time>2026-04-14T09:04:54.847Z</time></trkpt><trkpt lat="42.6098833" lon="-7.71974"><ele>273.0</ele><time>2026-04-14T09:04:55.847Z</time></trkpt><trkpt lat="42.6098233" lon="-7.719585"><ele>273.0</ele><time>2026-04-14T09:04:56.847Z</time></trkpt><trkpt lat="42.6097733" lon="-7.7194367"><ele>273.0</ele><time>2026-04-14T09:04:57.848Z</time></trkpt><trkpt lat="42.6097433" lon="-7.7192867"><ele>273.0</ele><time>2026-04-14T09:04:58.847Z</time></trkpt><trkpt lat="42.6097267" lon="-7.7191267"><ele>273.0</ele><time>2026-04-14T09:04:59.847Z</time></trkpt><trkpt lat="42.6097433" lon="-7.718975"><ele>271.6666666666667</ele><time>2026-04-14T09:05:00.848Z</time></trkpt><trkpt lat="42.609795" lon="-7.7188267"><ele>270.33333333333337</ele><time>2026-04-14T09:05:01.848Z</time></trkpt><trkpt lat="42.6098583" lon="-7.7187033"><ele>269.0</ele><time>2026-04-14T09:05:02.847Z</time></trkpt><trkpt lat="42.6072917" lon="-7.721715"><ele>274.33333333333337</ele><time>2026-04-14T09:04:32.847Z</time></trkpt><trkpt lat="42.60744" lon="-7.721655"><ele>279.6666666666667</ele><time>2026-04-14T09:04:33.848Z</time></trkpt><trkpt lat="42.60758" lon="-7.721595"><ele>285.0</ele><time>2026-04-14T09:04:34.848Z</time></trkpt><trkpt lat="42.607725" lon="-7.7215433"><ele>287.25</ele><time>2026-04-14T09:04:35.848Z</time></trkpt><trkpt lat="42.60786" lon="-7.72148"><ele>289.5</ele><time>2026-04-14T09:04:36.847Z</time></trkpt><trkpt lat="42.608" lon="-7.7214083"><ele>291.75</ele><time>2026-04-14T09:04:37.848Z</time></trkpt><trkpt lat="42.60814" lon="-7.72133"><ele>294.0</ele><time>2026-04-14T09:04:38.848Z</time></trkpt><trkpt lat="42.6082833" lon="-7.72124"><ele>294.0</ele><time>2026-04-14T09:04:39.847Z</time></trkpt><trkpt lat="42.6084267" lon="-7.72116"><ele>294.0</ele><time>2026-04-14T09:04:40.847Z</time></trkpt><trkpt lat="42.60857" lon="-7.7210933"><ele>294.0</ele><time>2026-04-14T09:04:41.847Z</time></trkpt><trkpt lat="42.6087133" lon="-7.7210317"><ele>289.0</ele><time>2026-04-14T09:04:42.848Z</time></trkpt><trkpt lat="42.6088483" lon="-7.7209733"><ele>284.0</ele><time>2026-04-14T09:04:43.848Z</time></trkpt><trkpt lat="42.6089717" lon="-7.7208983"><ele>279.0</ele><time>2026-04-14T09:04:44.847Z</time></trkpt><trkpt lat="42.6090983" lon="-7.7208233"><ele>274.0</ele><time>2026-04-14T09:04:45.847Z</time></trkpt><trkpt lat="42.60923" lon="-7.72076"><ele>274.0</ele><time>2026-04-14T09:04:46.847Z</time></trkpt><trkpt lat="42.609365" lon="-7.7207033"><ele>274.0</ele><time>2026-04-14T09:04:47.847Z</time></trkpt><trkpt lat="42.6094933" lon="-7.7206583"><ele>274.0</ele><time>2026-04-14T09:04:48.848Z</time></trkpt><trkpt lat="42.60962" lon="-7.7205917"><ele>274.0</ele><time>2026-04-14T09:04:49.848Z</time></trkpt><trkpt lat="42.6097317" lon="-7.7204833"><ele>273.75</ele><time>2026-04-14T09:04:50.848Z</time></trkpt><trkpt lat="42.6098267" lon="-7.7203483"><ele>273.5</ele><time>2026-04-14T09:04:51.848Z</time></trkpt><trkpt lat="42.6098933" lon="-7.7202033"><ele>273.25</ele><time>2026-04-14T09:04:52.847Z</time></trkpt><trkpt lat="42.6099267" lon="-7.7200517"><ele>273.0</ele><time>2026-04-14T09:04:53.847Z</time></trkpt><trkpt lat="42.609925" lon="-7.7198933"><ele>273.0</ele><time>2026-04-14T09:04:54.847Z</time></trkpt><trkpt lat="42.6098833" lon="-7.71974"><ele>273.0</ele><time>2026-04-14T09:04:55.847Z</time></trkpt><trkpt lat="42.6098233" lon="-7.719585"><ele>273.0</ele><time>2026-04-14T09:04:56.847Z</time></trkpt><trkpt lat="42.6097733" lon="-7.7194367"><ele>273.0</ele><time>2026-04-14T09:04:57.848Z</time></trkpt><trkpt lat="42.6097433" lon="-7.7192867"><ele>272.0</ele><time>2026-04-14T09:04:58.847Z</time></trkpt><trkpt lat="42.6097267" lon="-7.7191267"><ele>271.0</ele><time>2026-04-14T09:04:59.847Z</time></trkpt><trkpt lat="42.6097433" lon="-7.718975"><ele>270.0</ele><time>2026-04-14T09:05:00.848Z</time></trkpt><trkpt lat="42.609795" lon="-7.7188267"><ele>269.0</ele><time>2026-04-14T09:05:01.848Z</time></trkpt><trkpt lat="42.6098583" lon="-7.7187033"><ele>269.0</ele><time>2026-04-14T09:05:02.847Z</time></trkpt><trkpt lat="42.60992" lon="-7.718605"><ele>269.0</ele><time>2026-04-14T09:05:03.848Z</time></trkpt><trkpt lat="42.6099683" lon="-7.7185133"><ele>269.0</ele><time>2026-04-14T09:05:04.848Z</time></trkpt><trkpt lat="42.60997" lon="-7.7183533"><ele>269.0</ele><time>2026-04-14T09:05:06.847Z</time></trkpt><trkpt lat="42.609845" lon="-7.7183233"><ele>269.0</ele><time>2026-04-14T09:05:08.847Z</time></trkpt><trkpt lat="42.609755" lon="-7.7183917"><ele>269.0</ele><time>2026-04-14T09:05:09.848Z</time></trkpt><trkpt lat="42.6096483" lon="-7.71852"><ele>269.0</ele><time>2026-04-14T09:05:10.848Z</time></trkpt><trkpt lat="42.60954" lon="-7.7186933"><ele>269.0</ele><time>2026-04-14T09:05:11.847Z</time></trkpt><trkpt lat="42.60946" lon="-7.7188817"><ele>263.0</ele><time>2026-04-14T09:05:12.847Z</time></trkpt><trkpt lat="42.60941" lon="-7.7190517"><ele>257.0</ele><time>2026-04-14T09:05:13.847Z</time></trkpt><trkpt lat="42.609385" lon="-7.7192333"><ele>251.0</ele><time>2026-04-14T09:05:14.847Z</time></trkpt><trkpt lat="42.6093717" lon="-7.7194"><ele>245.0</ele><time>2026-04-14T09:05:15.847Z</time></trkpt><trkpt lat="42.6093933" lon="-7.71954"><ele>245.00000000000003</ele><time>2026-04-14T09:05:16.847Z</time></trkpt><trkpt lat="42.6094383" lon="-7.7196633"><ele>245.0</ele><time>2026-04-14T09:05:17.847Z</time></trkpt><trkpt lat="42.6094817" lon="-7.7197717"><ele>245.0</ele><time>2026-04-14T09:05:18.847Z</time></trkpt><trkpt lat="42.6094933" lon="-7.7198717"><ele>245.0</ele><time>2026-04-14T09:05:19.847Z</time></trkpt><trkpt lat="42.609475" lon="-7.7199617"><ele>245.00000000000003</ele><time>2026-04-14T09:05:20.848Z</time></trkpt><trkpt lat="42.60942" lon="-7.7200417"><ele>245.0</ele><time>2026-04-14T09:05:21.847Z</time></trkpt><trkpt lat="42.609315" lon="-7.7200667"><ele>245.0</ele><time>2026-04-14T09:05:22.847Z</time></trkpt><trkpt lat="42.6091933" lon="-7.7200717"><ele>245.0</ele><time>2026-04-14T09:05:23.848Z</time></trkpt><trkpt lat="42.6090667" lon="-7.7200567"><ele>245.0</ele><time>2026-04-14T09:05:24.847Z</time></trkpt><trkpt lat="42.608945" lon="-7.720035"><ele>245.0</ele><time>2026-04-14T09:05:25.847Z</time></trkpt><trkpt lat="42.60882" lon="-7.7200117"><ele>245.0</ele><time>2026-04-14T09:05:26.847Z</time></trkpt><trkpt lat="42.6086983" lon="-7.71997"><ele>245.0</ele><time>2026-04-14T09:05:27.848Z</time></trkpt><trkpt lat="42.60858" lon="-7.71991"><ele>245.0</ele><time>2026-04-14T09:05:28.847Z</time></trkpt><trkpt lat="42.6084533" lon="-7.7198433"><ele>245.0</ele><time>2026-04-14T09:05:29.847Z</time></trkpt><trkpt lat="42.60834" lon="-7.7197767"><ele>243.25</ele><time>2026-04-14T09:05:30.848Z</time></trkpt><trkpt lat="42.608225" lon="-7.7197367"><ele>241.5</ele><time>2026-04-14T09:05:31.847Z</time></trkpt><trkpt lat="42.6081133" lon="-7.719735"><ele>239.75</ele><time>2026-04-14T09:05:32.847Z</time></trkpt><trkpt lat="42.608" lon="-7.7197817"><ele>238.0</ele><time>2026-04-14T09:05:33.848Z</time></trkpt><trkpt lat="42.60789" lon="-7.719855"><ele>236.0</ele><time>2026-04-14T09:05:34.848Z</time></trkpt><trkpt lat="42.607775" lon="-7.7199417"><ele>234.0</ele><time>2026-04-14T09:05:35.848Z</time></trkpt><trkpt lat="42.6076583" lon="-7.7199967"><ele>232.0</ele><time>2026-04-14T09:05:36.847Z</time></trkpt><trkpt lat="42.6075333" lon="-7.7200117"><ele>230.0</ele><time>2026-04-14T09:05:37.847Z</time></trkpt><trkpt lat="42.6073967" lon="-7.7199917"><ele>230.0</ele><time>2026-04-14T09:05:38.848Z</time></trkpt><trkpt lat="42.6072633" lon="-7.719955"><ele>230.0</ele><time>2026-04-14T09:05:39.847Z</time></trkpt><trkpt lat="42.6071333" lon="-7.719905"><ele>230.0</ele><time>2026-04-14T09:05:40.848Z</time></trkpt><trkpt lat="42.6070017" lon="-7.71986"><ele>230.0</ele><time>2026-04-14T09:05:41.848Z</time></trkpt><trkpt lat="42.6068783" lon="-7.7198333"><ele>228.0</ele><time>2026-04-14T09:05:42.847Z</time></trkpt><trkpt lat="42.6067633" lon="-7.7198333"><ele>226.0</ele><time>2026-04-14T09:05:43.848Z</time></trkpt><trkpt lat="42.6066533" lon="-7.7198617"><ele>224.0</ele><time>2026-04-14T09:05:44.848Z</time></trkpt><trkpt lat="42.6065467" lon="-7.7199283"><ele>222.0</ele><time>2026-04-14T09:05:45.848Z</time></trkpt><trkpt lat="42.606445" lon="-7.7200183"><ele>222.0</ele><time>2026-04-14T09:05:46.847Z</time></trkpt><trkpt lat="42.6063467" lon="-7.720105"><ele>222.0</ele><time>2026-04-14T09:05:47.848Z</time></trkpt><trkpt lat="42.6062517" lon="-7.7201833"><ele>222.0</ele><time>2026-04-14T09:05:48.847Z</time></trkpt><trkpt lat="42.6061567" lon="-7.7202317"><ele>222.0</ele><time>2026-04-14T09:05:49.848Z</time></trkpt><trkpt lat="42.6060683" lon="-7.7202233"><ele>222.0</ele><time>2026-04-14T09:05:50.847Z</time></trkpt><trkpt lat="42.6059917" lon="-7.720175"><ele>219.39999999999998</ele><time>2026-04-14T09:05:51.847Z</time></trkpt><trkpt lat="42.6059233" lon="-7.7200767"><ele>216.79999999999998</ele><time>2026-04-14T09:05:52.847Z</time></trkpt><trkpt lat="42.6058533" lon="-7.7199583"><ele>214.2</ele><time>2026-04-14T09:05:53.847Z</time></trkpt><trkpt lat="42.605785" lon="-7.719845"><ele>211.6</ele><time>2026-04-14T09:05:54.847Z</time></trkpt><trkpt lat="42.605715" lon="-7.719745"><ele>209.0</ele><time>2026-04-14T09:05:55.847Z</time></trkpt><trkpt lat="42.605645" lon="-7.7196567"><ele>209.0</ele><time>2026-04-14T09:05:56.847Z</time></trkpt><trkpt lat="42.60558" lon="-7.719575"><ele>209.0</ele><time>2026-04-14T09:05:57.847Z</time></trkpt><trkpt lat="42.60552" lon="-7.71948"><ele>209.0</ele><time>2026-04-14T09:05:58.848Z</time></trkpt><trkpt lat="42.605465" lon="-7.719405"><ele>209.0</ele><time>2026-04-14T09:05:59.848Z</time></trkpt><trkpt lat="42.6053617" lon="-7.7193517"><ele>209.0</ele><time>2026-04-14T09:06:01.847Z</time></trkpt><trkpt lat="42.6052633" lon="-7.71946"><ele>212.0</ele><time>2026-04-14T09:06:03.847Z</time></trkpt><trkpt lat="42.6051967" lon="-7.71956"><ele>215.0</ele><time>2026-04-14T09:06:04.848Z</time></trkpt><trkpt lat="42.6051" lon="-7.7196733"><ele>218.0</ele><time>2026-04-14T09:06:05.848Z</time></trkpt><trkpt lat="42.60499" lon="-7.7197983"><ele>221.0</ele><time>2026-04-14T09:06:06.848Z</time></trkpt><trkpt lat="42.604885" lon="-7.7199233"><ele>221.0</ele><time>2026-04-14T09:06:07.847Z</time></trkpt><trkpt lat="42.604775" lon="-7.7200583"><ele>221.0</ele><time>2026-04-14T09:06:08.847Z</time></trkpt><trkpt lat="42.60466" lon="-7.7201933"><ele>221.0</ele><time>2026-04-14T09:06:09.847Z</time></trkpt><trkpt lat="42.6045383" lon="-7.72033"><ele>220.0</ele><time>2026-04-14T09:06:10.848Z</time></trkpt><trkpt lat="42.6044083" lon="-7.7204633"><ele>219.0</ele><time>2026-04-14T09:06:11.847Z</time></trkpt><trkpt lat="42.6042767" lon="-7.7205883"><ele>218.0</ele><time>2026-04-14T09:06:12.848Z</time></trkpt><trkpt lat="42.6041333" lon="-7.7206883"><ele>218.0</ele><time>2026-04-14T09:06:13.847Z</time></trkpt><trkpt lat="42.6039833" lon="-7.7207783"><ele>218.0</ele><time>2026-04-14T09:06:14.847Z</time></trkpt><trkpt lat="42.6038267" lon="-7.72085"><ele>218.0</ele><time>2026-04-14T09:06:15.847Z</time></trkpt><trkpt lat="42.6036667" lon="-7.72091"><ele>219.66666666666669</ele><time>2026-04-14T09:06:16.848Z</time></trkpt><trkpt lat="42.6035067" lon="-7.7209583"><ele>221.33333333333331</ele><time>2026-04-14T09:06:17.847Z</time></trkpt><trkpt lat="42.6033467" lon="-7.7209867"><ele>223.0</ele><time>2026-04-14T09:06:18.848Z</time></trkpt><trkpt lat="42.6031867" lon="-7.7209833"><ele>223.0</ele><time>2026-04-14T09:06:19.848Z</time></trkpt><trkpt lat="42.6030267" lon="-7.7209567"><ele>223.0</ele><time>2026-04-14T09:06:20.847Z</time></trkpt><trkpt lat="42.6028667" lon="-7.7209183"><ele>223.0</ele><time>2026-04-14T09:06:21.847Z</time></trkpt><trkpt lat="42.6027033" lon="-7.7208817"><ele>221.33333333333331</ele><time>2026-04-14T09:06:22.847Z</time></trkpt><trkpt lat="42.6025417" lon="-7.720835"><ele>219.66666666666669</ele><time>2026-04-14T09:06:23.848Z</time></trkpt><trkpt lat="42.602385" lon="-7.7208083"><ele>218.0</ele><time>2026-04-14T09:06:24.848Z</time></trkpt><trkpt lat="42.6022267" lon="-7.720775"><ele>218.0</ele><time>2026-04-14T09:06:25.847Z</time></trkpt><trkpt lat="42.6020633" lon="-7.7207533"><ele>218.0</ele><time>2026-04-14T09:06:26.848Z</time></trkpt><trkpt lat="42.6019033" lon="-7.7207533"><ele>218.0</ele><time>2026-04-14T09:06:27.848Z</time></trkpt><trkpt lat="42.6017417" lon="-7.7207683"><ele>218.0</ele><time>2026-04-14T09:06:28.847Z</time></trkpt><trkpt lat="42.6015867" lon="-7.7207917"><ele>218.0</ele><time>2026-04-14T09:06:29.848Z</time></trkpt><trkpt lat="42.6014267" lon="-7.7208167"><ele>218.0</ele><time>2026-04-14T09:06:30.848Z</time></trkpt><trkpt lat="42.605465" lon="-7.719405"><ele>217.5</ele><time>2026-04-14T09:05:59.848Z</time></trkpt><trkpt lat="42.6053617" lon="-7.7193517"><ele>217.0</ele><time>2026-04-14T09:06:01.847Z</time></trkpt><trkpt lat="42.6052633" lon="-7.71946"><ele>216.5</ele><time>2026-04-14T09:06:03.847Z</time></trkpt><trkpt lat="42.6051967" lon="-7.71956"><ele>216.0</ele><time>2026-04-14T09:06:04.848Z</time></trkpt><trkpt lat="42.6051" lon="-7.7196733"><ele>217.25</ele><time>2026-04-14T09:06:05.848Z</time></trkpt><trkpt lat="42.60499" lon="-7.7197983"><ele>218.5</ele><time>2026-04-14T09:06:06.848Z</time></trkpt><trkpt lat="42.604885" lon="-7.7199233"><ele>219.75</ele><time>2026-04-14T09:06:07.847Z</time></trkpt><trkpt lat="42.604775" lon="-7.7200583"><ele>221.0</ele><time>2026-04-14T09:06:08.847Z</time></trkpt><trkpt lat="42.60466" lon="-7.7201933"><ele>221.0</ele><time>2026-04-14T09:06:09.847Z</time></trkpt><trkpt lat="42.6045383" lon="-7.72033"><ele>221.0</ele><time>2026-04-14T09:06:10.848Z</time></trkpt><trkpt lat="42.6044083" lon="-7.7204633"><ele>221.0</ele><time>2026-04-14T09:06:11.847Z</time></trkpt><trkpt lat="42.6042767" lon="-7.7205883"><ele>220.0</ele><time>2026-04-14T09:06:12.848Z</time></trkpt><trkpt lat="42.6041333" lon="-7.7206883"><ele>219.0</ele><time>2026-04-14T09:06:13.847Z</time></trkpt><trkpt lat="42.6039833" lon="-7.7207783"><ele>218.0</ele><time>2026-04-14T09:06:14.847Z</time></trkpt><trkpt lat="42.6038267" lon="-7.72085"><ele>218.0</ele><time>2026-04-14T09:06:15.847Z</time></trkpt><trkpt lat="42.6036667" lon="-7.72091"><ele>218.0</ele><time>2026-04-14T09:06:16.848Z</time></trkpt><trkpt lat="42.6035067" lon="-7.7209583"><ele>218.0</ele><time>2026-04-14T09:06:17.847Z</time></trkpt><trkpt lat="42.6033467" lon="-7.7209867"><ele>219.66666666666669</ele><time>2026-04-14T09:06:18.848Z</time></trkpt><trkpt lat="42.6031867" lon="-7.7209833"><ele>221.33333333333331</ele><time>2026-04-14T09:06:19.848Z</time></trkpt><trkpt lat="42.6030267" lon="-7.7209567"><ele>223.0</ele><time>2026-04-14T09:06:20.847Z</time></trkpt><trkpt lat="42.6028667" lon="-7.7209183"><ele>221.33333333333331</ele><time>2026-04-14T09:06:21.847Z</time></trkpt><trkpt lat="42.6027033" lon="-7.7208817"><ele>219.66666666666669</ele><time>2026-04-14T09:06:22.847Z</time></trkpt><trkpt lat="42.6025417" lon="-7.720835"><ele>218.0</ele><time>2026-04-14T09:06:23.848Z</time></trkpt><trkpt lat="42.602385" lon="-7.7208083"><ele>218.0</ele><time>2026-04-14T09:06:24.848Z</time></trkpt><trkpt lat="42.6022267" lon="-7.720775"><ele>218.0</ele><time>2026-04-14T09:06:25.847Z</time></trkpt><trkpt lat="42.6020633" lon="-7.7207533"><ele>218.0</ele><time>2026-04-14T09:06:26.848Z</time></trkpt><trkpt lat="42.6019033" lon="-7.7207533"><ele>218.0</ele><time>2026-04-14T09:06:27.848Z</time></trkpt><trkpt lat="42.6017417" lon="-7.7207683"><ele>218.0</ele><time>2026-04-14T09:06:28.847Z</time></trkpt><trkpt lat="42.6015867" lon="-7.7207917"><ele>218.0</ele><time>2026-04-14T09:06:29.848Z</time></trkpt><trkpt lat="42.6014267" lon="-7.7208167"><ele>218.0</ele><time>2026-04-14T09:06:30.848Z</time></trkpt><trkpt lat="42.6012667" lon="-7.7208317"><ele>218.0</ele><time>2026-04-14T09:06:31.847Z</time></trkpt><trkpt lat="42.60111" lon="-7.7208517"><ele>218.0</ele><time>2026-04-14T09:06:32.848Z</time></trkpt><trkpt lat="42.6009483" lon="-7.72089"><ele>218.0</ele><time>2026-04-14T09:06:33.847Z</time></trkpt><trkpt lat="42.60078" lon="-7.7209517"><ele>218.0</ele><time>2026-04-14T09:06:34.848Z</time></trkpt><trkpt lat="42.6006033" lon="-7.721025"><ele>218.0</ele><time>2026-04-14T09:06:35.847Z</time></trkpt><trkpt lat="42.6004233" lon="-7.7211083"><ele>216.66666666666669</ele><time>2026-04-14T09:06:36.848Z</time></trkpt><trkpt lat="42.6002417" lon="-7.7212033"><ele>215.33333333333331</ele><time>2026-04-14T09:06:37.847Z</time></trkpt><trkpt lat="42.600055" lon="-7.7212883"><ele>214.0</ele><time>2026-04-14T09:06:38.847Z</time></trkpt><trkpt lat="42.5998833" lon="-7.7213733"><ele>214.0</ele><time>2026-04-14T09:06:39.847Z</time></trkpt><trkpt lat="42.5997167" lon="-7.7214683"><ele>214.0</ele><time>2026-04-14T09:06:40.848Z</time></trkpt><trkpt lat="42.5995467" lon="-7.7215583"><ele>214.0</ele><time>2026-04-14T09:06:41.847Z</time></trkpt><trkpt lat="42.5993883" lon="-7.721645"><ele>215.0</ele><time>2026-04-14T09:06:42.847Z</time></trkpt><trkpt lat="42.599245" lon="-7.7217467"><ele>216.0</ele><time>2026-04-14T09:06:43.848Z</time></trkpt><trkpt lat="42.5991083" lon="-7.7218783"><ele>217.0</ele><time>2026-04-14T09:06:44.847Z</time></trkpt><trkpt lat="42.5989883" lon="-7.7220267"><ele>217.0</ele><time>2026-04-14T09:06:45.847Z</time></trkpt><trkpt lat="42.5988617" lon="-7.7221917"><ele>217.0</ele><time>2026-04-14T09:06:46.848Z</time></trkpt><trkpt lat="42.598735" lon="-7.722335"><ele>217.0</ele><time>2026-04-14T09:06:47.847Z</time></trkpt><trkpt lat="42.5985983" lon="-7.72248"><ele>216.33333333333331</ele><time>2026-04-14T09:06:48.847Z</time></trkpt><trkpt lat="42.5984517" lon="-7.7226117"><ele>215.66666666666669</ele><time>2026-04-14T09:06:49.848Z</time></trkpt><trkpt lat="42.5982883" lon="-7.7227317"><ele>215.0</ele><time>2026-04-14T09:06:50.847Z</time></trkpt><trkpt lat="42.5981267" lon="-7.722865"><ele>215.0</ele><time>2026-04-14T09:06:51.848Z</time></trkpt><trkpt lat="42.5979667" lon="-7.7229817"><ele>215.0</ele><time>2026-04-14T09:06:52.847Z</time></trkpt><trkpt lat="42.5977967" lon="-7.7230967"><ele>215.0</ele><time>2026-04-14T09:06:53.847Z</time></trkpt><trkpt lat="42.5976367" lon="-7.7232117"><ele>217.33333333333334</ele><time>2026-04-14T09:06:54.847Z</time></trkpt><trkpt lat="42.5974717" lon="-7.72332"><ele>219.66666666666669</ele><time>2026-04-14T09:06:55.848Z</time></trkpt><trkpt lat="42.5973067" lon="-7.723425"><ele>222.0</ele><time>2026-04-14T09:06:56.847Z</time></trkpt><trkpt lat="42.5971433" lon="-7.7235333"><ele>220.33333333333331</ele><time>2026-04-14T09:06:57.847Z</time></trkpt><trkpt lat="42.59698" lon="-7.7236417"><ele>218.66666666666666</ele><time>2026-04-14T09:06:58.848Z</time></trkpt><trkpt lat="42.59682" lon="-7.7237383"><ele>217.0</ele><time>2026-04-14T09:06:59.848Z</time></trkpt><trkpt lat="42.5966583" lon="-7.7238467"><ele>217.0</ele><time>2026-04-14T09:07:00.847Z</time></trkpt><trkpt lat="42.5965017" lon="-7.72396"><ele>217.0</ele><time>2026-04-14T09:07:01.847Z</time></trkpt><trkpt lat="42.5963433" lon="-7.7240483"><ele>217.0</ele><time>2026-04-14T09:07:02.848Z</time></trkpt><trkpt lat="42.596175" lon="-7.7241233"><ele>222.33333333333331</ele><time>2026-04-14T09:07:03.847Z</time></trkpt><trkpt lat="42.596" lon="-7.7241917"><ele>227.66666666666669</ele><time>2026-04-14T09:07:04.848Z</time></trkpt><trkpt lat="42.595825" lon="-7.724265"><ele>233.0</ele><time>2026-04-14T09:07:05.847Z</time></trkpt><trkpt lat="42.5956583" lon="-7.7243217"><ele>233.0</ele><time>2026-04-14T09:07:06.848Z</time></trkpt><trkpt lat="42.5954783" lon="-7.7243817"><ele>233.0</ele><time>2026-04-14T09:07:07.848Z</time></trkpt><trkpt lat="42.5952967" lon="-7.72444"><ele>233.0</ele><time>2026-04-14T09:07:08.847Z</time></trkpt><trkpt lat="42.5951133" lon="-7.7244983"><ele>229.0</ele><time>2026-04-14T09:07:09.848Z</time></trkpt><trkpt lat="42.59494" lon="-7.7245517"><ele>225.0</ele><time>2026-04-14T09:07:10.847Z</time></trkpt><trkpt lat="42.59477" lon="-7.72462"><ele>221.0</ele><time>2026-04-14T09:07:11.847Z</time></trkpt><trkpt lat="42.5946333" lon="-7.7246667"><ele>221.33333333333334</ele><time>2026-04-14T09:07:12.847Z</time></trkpt><trkpt lat="42.59445" lon="-7.724775"><ele>221.66666666666669</ele><time>2026-04-14T09:07:13.847Z</time></trkpt><trkpt lat="42.59428" lon="-7.7248633"><ele>222.0</ele><time>2026-04-14T09:07:14.848Z</time></trkpt><trkpt lat="42.5941167" lon="-7.724945"><ele>222.0</ele><time>2026-04-14T09:07:15.848Z</time></trkpt><trkpt lat="42.593955" lon="-7.725025"><ele>222.0</ele><time>2026-04-14T09:07:16.848Z</time></trkpt><trkpt lat="42.5938083" lon="-7.7251067"><ele>222.0</ele><time>2026-04-14T09:07:17.848Z</time></trkpt><trkpt lat="42.59365" lon="-7.72518"><ele>223.33333333333331</ele><time>2026-04-14T09:07:18.847Z</time></trkpt><trkpt lat="42.5935017" lon="-7.7252117"><ele>224.66666666666666</ele><time>2026-04-14T09:07:19.848Z</time></trkpt><trkpt lat="42.5933567" lon="-7.72522"><ele>226.0</ele><time>2026-04-14T09:07:20.847Z</time></trkpt><trkpt lat="42.5931983" lon="-7.7252267"><ele>226.0</ele><time>2026-04-14T09:07:21.848Z</time></trkpt><trkpt lat="42.5930567" lon="-7.7251967"><ele>226.0</ele><time>2026-04-14T09:07:22.847Z</time></trkpt><trkpt lat="42.5929167" lon="-7.7251433"><ele>226.0</ele><time>2026-04-14T09:07:23.848Z</time></trkpt><trkpt lat="42.5927717" lon="-7.7250767"><ele>226.0</ele><time>2026-04-14T09:07:24.847Z</time></trkpt><trkpt lat="42.59263" lon="-7.7250083"><ele>224.0</ele><time>2026-04-14T09:07:25.848Z</time></trkpt><trkpt lat="42.5924967" lon="-7.7249433"><ele>222.0</ele><time>2026-04-14T09:07:26.848Z</time></trkpt><trkpt lat="42.5923583" lon="-7.72488"><ele>220.0</ele><time>2026-04-14T09:07:27.847Z</time></trkpt><trkpt lat="42.5922217" lon="-7.7248083"><ele>218.0</ele><time>2026-04-14T09:07:28.848Z</time></trkpt><trkpt lat="42.5920733" lon="-7.7247367"><ele>216.25</ele><time>2026-04-14T09:07:29.847Z</time></trkpt><trkpt lat="42.59193" lon="-7.7246683"><ele>214.5</ele><time>2026-04-14T09:07:30.848Z</time></trkpt><trkpt lat="42.5917883" lon="-7.7246"><ele>212.75</ele><time>2026-04-14T09:07:31.847Z</time></trkpt><trkpt lat="42.5916567" lon="-7.7245333"><ele>211.0</ele><time>2026-04-14T09:07:32.847Z</time></trkpt><trkpt lat="42.591535" lon="-7.7244783"><ele>211.0</ele><time>2026-04-14T09:07:33.848Z</time></trkpt><trkpt lat="42.591415" lon="-7.7244233"><ele>211.0</ele><time>2026-04-14T09:07:34.848Z</time></trkpt><trkpt lat="42.5912933" lon="-7.7243667"><ele>211.0</ele><time>2026-04-14T09:07:35.848Z</time></trkpt><trkpt lat="42.59116" lon="-7.7243183"><ele>211.0</ele><time>2026-04-14T09:07:36.847Z</time></trkpt><trkpt lat="42.5910083" lon="-7.7242683"><ele>213.33333333333331</ele><time>2026-04-14T09:07:37.847Z</time></trkpt><trkpt lat="42.590855" lon="-7.7242133"><ele>215.66666666666669</ele><time>2026-04-14T09:07:38.848Z</time></trkpt><trkpt lat="42.5907033" lon="-7.7241633"><ele>218.0</ele><time>2026-04-14T09:07:39.847Z</time></trkpt><trkpt lat="42.59055" lon="-7.7241083"><ele>218.0</ele><time>2026-04-14T09:07:40.847Z</time></trkpt><trkpt lat="42.5904" lon="-7.72405"><ele>218.0</ele><time>2026-04-14T09:07:41.847Z</time></trkpt><trkpt lat="42.590245" lon="-7.7239717"><ele>218.0</ele><time>2026-04-14T09:07:42.847Z</time></trkpt><trkpt lat="42.5901" lon="-7.723895"><ele>216.0</ele><time>2026-04-14T09:07:43.847Z</time></trkpt><trkpt lat="42.58995" lon="-7.7238133"><ele>214.0</ele><time>2026-04-14T09:07:44.847Z</time></trkpt><trkpt lat="42.5898033" lon="-7.7237467"><ele>212.0</ele><time>2026-04-14T09:07:45.848Z</time></trkpt><trkpt lat="42.5896467" lon="-7.7236967"><ele>213.5</ele><time>2026-04-14T09:07:46.848Z</time></trkpt><trkpt lat="42.5895017" lon="-7.723665"><ele>215.0</ele><time>2026-04-14T09:07:47.847Z</time></trkpt><trkpt lat="42.5893567" lon="-7.7236417"><ele>216.5</ele><time>2026-04-14T09:07:48.847Z</time></trkpt><trkpt lat="42.5892133" lon="-7.723615"><ele>218.0</ele><time>2026-04-14T09:07:49.848Z</time></trkpt><trkpt lat="42.5890717" lon="-7.7235833"><ele>218.25</ele><time>2026-04-14T09:07:50.848Z</time></trkpt><trkpt lat="42.588935" lon="-7.7235367"><ele>218.5</ele><time>2026-04-14T09:07:51.848Z</time></trkpt><trkpt lat="42.588815" lon="-7.7234833"><ele>218.75</ele><time>2026-04-14T09:07:52.848Z</time></trkpt><trkpt lat="42.5887033" lon="-7.7234133"><ele>219.0</ele><time>2026-04-14T09:07:53.847Z</time></trkpt><trkpt lat="42.5885983" lon="-7.7233083"><ele>218.75</ele><time>2026-04-14T09:07:54.847Z</time></trkpt><trkpt lat="42.5885" lon="-7.7231833"><ele>218.5</ele><time>2026-04-14T09:07:55.847Z</time></trkpt><trkpt lat="42.5884017" lon="-7.7230467"><ele>218.25</ele><time>2026-04-14T09:07:56.847Z</time></trkpt><trkpt lat="42.5882983" lon="-7.72293"><ele>218.0</ele><time>2026-04-14T09:07:57.847Z</time></trkpt><trkpt lat="42.5923583" lon="-7.72488"><ele>218.0</ele><time>2026-04-14T09:07:27.847Z</time></trkpt><trkpt lat="42.5922217" lon="-7.7248083"><ele>218.0</ele><time>2026-04-14T09:07:28.848Z</time></trkpt><trkpt lat="42.5920733" lon="-7.7247367"><ele>218.0</ele><time>2026-04-14T09:07:29.847Z</time></trkpt><trkpt lat="42.59193" lon="-7.7246683"><ele>216.25</ele><time>2026-04-14T09:07:30.848Z</time></trkpt><trkpt lat="42.5917883" lon="-7.7246"><ele>214.5</ele><time>2026-04-14T09:07:31.847Z</time></trkpt><trkpt lat="42.5916567" lon="-7.7245333"><ele>212.75</ele><time>2026-04-14T09:07:32.847Z</time></trkpt><trkpt lat="42.591535" lon="-7.7244783"><ele>211.0</ele><time>2026-04-14T09:07:33.848Z</time></trkpt><trkpt lat="42.591415" lon="-7.7244233"><ele>212.75</ele><time>2026-04-14T09:07:34.848Z</time></trkpt><trkpt lat="42.5912933" lon="-7.7243667"><ele>214.5</ele><time>2026-04-14T09:07:35.848Z</time></trkpt><trkpt lat="42.59116" lon="-7.7243183"><ele>216.25</ele><time>2026-04-14T09:07:36.847Z</time></trkpt><trkpt lat="42.5910083" lon="-7.7242683"><ele>218.0</ele><time>2026-04-14T09:07:37.847Z</time></trkpt><trkpt lat="42.590855" lon="-7.7242133"><ele>218.0</ele><time>2026-04-14T09:07:38.848Z</time></trkpt><trkpt lat="42.5907033" lon="-7.7241633"><ele>218.0</ele><time>2026-04-14T09:07:39.847Z</time></trkpt><trkpt lat="42.59055" lon="-7.7241083"><ele>218.0</ele><time>2026-04-14T09:07:40.847Z</time></trkpt><trkpt lat="42.5904" lon="-7.72405"><ele>216.0</ele><time>2026-04-14T09:07:41.847Z</time></trkpt><trkpt lat="42.590245" lon="-7.7239717"><ele>214.0</ele><time>2026-04-14T09:07:42.847Z</time></trkpt><trkpt lat="42.5901" lon="-7.723895"><ele>212.0</ele><time>2026-04-14T09:07:43.847Z</time></trkpt><trkpt lat="42.58995" lon="-7.7238133"><ele>212.0</ele><time>2026-04-14T09:07:44.847Z</time></trkpt><trkpt lat="42.5898033" lon="-7.7237467"><ele>212.0</ele><time>2026-04-14T09:07:45.848Z</time></trkpt><trkpt lat="42.5896467" lon="-7.7236967"><ele>212.0</ele><time>2026-04-14T09:07:46.848Z</time></trkpt><trkpt lat="42.5895017" lon="-7.723665"><ele>213.5</ele><time>2026-04-14T09:07:47.847Z</time></trkpt><trkpt lat="42.5893567" lon="-7.7236417"><ele>215.0</ele><time>2026-04-14T09:07:48.847Z</time></trkpt><trkpt lat="42.5892133" lon="-7.723615"><ele>216.5</ele><time>2026-04-14T09:07:49.848Z</time></trkpt><trkpt lat="42.5890717" lon="-7.7235833"><ele>218.0</ele><time>2026-04-14T09:07:50.848Z</time></trkpt><trkpt lat="42.588935" lon="-7.7235367"><ele>218.25</ele><time>2026-04-14T09:07:51.848Z</time></trkpt><trkpt lat="42.588815" lon="-7.7234833"><ele>218.5</ele><time>2026-04-14T09:07:52.848Z</time></trkpt><trkpt lat="42.5887033" lon="-7.7234133"><ele>218.75</ele><time>2026-04-14T09:07:53.847Z</time></trkpt><trkpt lat="42.5885983" lon="-7.7233083"><ele>219.0</ele><time>2026-04-14T09:07:54.847Z</time></trkpt><trkpt lat="42.5885" lon="-7.7231833"><ele>218.25</ele><time>2026-04-14T09:07:55.847Z</time></trkpt><trkpt lat="42.5884017" lon="-7.7230467"><ele>217.5</ele><time>2026-04-14T09:07:56.847Z</time></trkpt><trkpt lat="42.5882983" lon="-7.72293"><ele>216.75</ele><time>2026-04-14T09:07:57.847Z</time></trkpt><trkpt lat="42.5881833" lon="-7.72281"><ele>216.0</ele><time>2026-04-14T09:07:58.847Z</time></trkpt><trkpt lat="42.5880533" lon="-7.722715"><ele>217.0</ele><time>2026-04-14T09:07:59.847Z</time></trkpt><trkpt lat="42.587915" lon="-7.72263"><ele>218.0</ele><time>2026-04-14T09:08:00.847Z</time></trkpt><trkpt lat="42.5877683" lon="-7.7225317"><ele>219.0</ele><time>2026-04-14T09:08:01.847Z</time></trkpt><trkpt lat="42.5876317" lon="-7.7224317"><ele>219.0</ele><time>2026-04-14T09:08:02.848Z</time></trkpt><trkpt lat="42.587495" lon="-7.7223533"><ele>219.0</ele><time>2026-04-14T09:08:03.847Z</time></trkpt><trkpt lat="42.5873517" lon="-7.7222883"><ele>219.0</ele><time>2026-04-14T09:08:04.847Z</time></trkpt><trkpt lat="42.587205" lon="-7.7222717"><ele>219.0</ele><time>2026-04-14T09:08:05.847Z</time></trkpt><trkpt lat="42.587055" lon="-7.722275"><ele>218.66666666666669</ele><time>2026-04-14T09:08:06.848Z</time></trkpt><trkpt lat="42.5868917" lon="-7.72231"><ele>218.33333333333334</ele><time>2026-04-14T09:08:07.848Z</time></trkpt><trkpt lat="42.5867167" lon="-7.72237"><ele>218.0</ele><time>2026-04-14T09:08:08.847Z</time></trkpt><trkpt lat="42.5865433" lon="-7.7224083"><ele>218.0</ele><time>2026-04-14T09:08:09.847Z</time></trkpt><trkpt lat="42.5863683" lon="-7.7224233"><ele>218.0</ele><time>2026-04-14T09:08:10.847Z</time></trkpt><trkpt lat="42.586195" lon="-7.7224367"><ele>218.0</ele><time>2026-04-14T09:08:11.848Z</time></trkpt><trkpt lat="42.5860383" lon="-7.7224617"><ele>218.33333333333334</ele><time>2026-04-14T09:08:12.847Z</time></trkpt><trkpt lat="42.5858867" lon="-7.7224967"><ele>218.66666666666669</ele><time>2026-04-14T09:08:13.847Z</time></trkpt><trkpt lat="42.58574" lon="-7.722525"><ele>219.0</ele><time>2026-04-14T09:08:14.848Z</time></trkpt><trkpt lat="42.5855917" lon="-7.7225417"><ele>219.0</ele><time>2026-04-14T09:08:15.847Z</time></trkpt><trkpt lat="42.58544" lon="-7.7225367"><ele>219.0</ele><time>2026-04-14T09:08:16.848Z</time></trkpt><trkpt lat="42.5852867" lon="-7.7225383"><ele>219.0</ele><time>2026-04-14T09:08:17.848Z</time></trkpt><trkpt lat="42.58514" lon="-7.7225567"><ele>220.66666666666669</ele><time>2026-04-14T09:08:18.848Z</time></trkpt><trkpt lat="42.5849833" lon="-7.722585"><ele>222.33333333333334</ele><time>2026-04-14T09:08:19.848Z</time></trkpt><trkpt lat="42.5848317" lon="-7.7226317"><ele>224.0</ele><time>2026-04-14T09:08:20.847Z</time></trkpt><trkpt lat="42.584685" lon="-7.72267"><ele>224.0</ele><time>2026-04-14T09:08:21.848Z</time></trkpt><trkpt lat="42.584535" lon="-7.7227133"><ele>224.0</ele><time>2026-04-14T09:08:22.847Z</time></trkpt><trkpt lat="42.584385" lon="-7.72276"><ele>224.0</ele><time>2026-04-14T09:08:23.847Z</time></trkpt><trkpt lat="42.5842317" lon="-7.722805"><ele>221.66666666666669</ele><time>2026-04-14T09:08:24.847Z</time></trkpt><trkpt lat="42.5840733" lon="-7.722835"><ele>219.33333333333331</ele><time>2026-04-14T09:08:25.847Z</time></trkpt><trkpt lat="42.58391" lon="-7.7228717"><ele>217.0</ele><time>2026-04-14T09:08:26.848Z</time></trkpt><trkpt lat="42.5837433" lon="-7.7229"><ele>216.66666666666666</ele><time>2026-04-14T09:08:27.848Z</time></trkpt><trkpt lat="42.5835717" lon="-7.722935"><ele>216.33333333333331</ele><time>2026-04-14T09:08:28.848Z</time></trkpt><trkpt lat="42.583405" lon="-7.7229633"><ele>216.0</ele><time>2026-04-14T09:08:29.847Z</time></trkpt><trkpt lat="42.5832383" lon="-7.72297"><ele>216.0</ele><time>2026-04-14T09:08:30.847Z</time></trkpt><trkpt lat="42.5830633" lon="-7.72299"><ele>216.0</ele><time>2026-04-14T09:08:31.848Z</time></trkpt><trkpt lat="42.5828967" lon="-7.7230083"><ele>216.0</ele><time>2026-04-14T09:08:32.848Z</time></trkpt><trkpt lat="42.582735" lon="-7.7230233"><ele>216.33333333333331</ele><time>2026-04-14T09:08:33.847Z</time></trkpt><trkpt lat="42.5825733" lon="-7.7230233"><ele>216.66666666666666</ele><time>2026-04-14T09:08:34.848Z</time></trkpt><trkpt lat="42.5824083" lon="-7.72303"><ele>217.0</ele><time>2026-04-14T09:08:35.848Z</time></trkpt><trkpt lat="42.5822533" lon="-7.7230167"><ele>217.0</ele><time>2026-04-14T09:08:36.848Z</time></trkpt><trkpt lat="42.5820983" lon="-7.7229883"><ele>217.0</ele><time>2026-04-14T09:08:37.848Z</time></trkpt><trkpt lat="42.5819583" lon="-7.7229383"><ele>217.0</ele><time>2026-04-14T09:08:38.848Z</time></trkpt><trkpt lat="42.5818167" lon="-7.7228667"><ele>217.75</ele><time>2026-04-14T09:08:39.849Z</time></trkpt><trkpt lat="42.5816817" lon="-7.722775"><ele>218.5</ele><time>2026-04-14T09:08:40.848Z</time></trkpt><trkpt lat="42.5815517" lon="-7.7226783"><ele>219.25</ele><time>2026-04-14T09:08:41.848Z</time></trkpt><trkpt lat="42.5814317" lon="-7.7225933"><ele>220.0</ele><time>2026-04-14T09:08:42.849Z</time></trkpt><trkpt lat="42.5813117" lon="-7.722535"><ele>220.83333333333331</ele><time>2026-04-14T09:08:43.848Z</time></trkpt><trkpt lat="42.5812233" lon="-7.72246"><ele>221.66666666666666</ele><time>2026-04-14T09:08:44.849Z</time></trkpt><trkpt lat="42.5811667" lon="-7.7223833"><ele>222.5</ele><time>2026-04-14T09:08:45.848Z</time></trkpt><trkpt lat="42.58114" lon="-7.7223033"><ele>223.33333333333331</ele><time>2026-04-14T09:08:46.849Z</time></trkpt><trkpt lat="42.5811417" lon="-7.7221933"><ele>224.16666666666666</ele><time>2026-04-14T09:08:47.848Z</time></trkpt><trkpt lat="42.58116" lon="-7.7220533"><ele>225.0</ele><time>2026-04-14T09:08:48.848Z</time></trkpt><trkpt lat="42.5811733" lon="-7.7219083"><ele>224.83333333333334</ele><time>2026-04-14T09:08:49.849Z</time></trkpt><trkpt lat="42.5811667" lon="-7.7217733"><ele>224.66666666666669</ele><time>2026-04-14T09:08:50.849Z</time></trkpt><trkpt lat="42.5811467" lon="-7.721655"><ele>224.5</ele><time>2026-04-14T09:08:51.848Z</time></trkpt><trkpt lat="42.5811083" lon="-7.72157"><ele>224.33333333333334</ele><time>2026-04-14T09:08:52.848Z</time></trkpt><trkpt lat="42.5810583" lon="-7.7215083"><ele>224.16666666666669</ele><time>2026-04-14T09:08:53.848Z</time></trkpt><trkpt lat="42.580995" lon="-7.721475"><ele>224.0</ele><time>2026-04-14T09:08:54.848Z</time></trkpt><trkpt lat="42.5809267" lon="-7.7214917"><ele>224.00000000000003</ele><time>2026-04-14T09:08:55.848Z</time></trkpt><trkpt lat="42.5808683" lon="-7.7215517"><ele>224.0</ele><time>2026-04-14T09:08:56.848Z</time></trkpt><trkpt lat="42.58081" lon="-7.72164"><ele>224.0</ele><time>2026-04-14T09:08:57.848Z</time></trkpt><trkpt lat="42.58075" lon="-7.7217383"><ele>224.0</ele><time>2026-04-14T09:08:58.848Z</time></trkpt><trkpt lat="42.580675" lon="-7.721815"><ele>224.00000000000003</ele><time>2026-04-14T09:08:59.848Z</time></trkpt><trkpt lat="42.5805817" lon="-7.7218583"><ele>224.0</ele><time>2026-04-14T09:09:00.849Z</time></trkpt><trkpt lat="42.58046" lon="-7.7218867"><ele>223.25</ele><time>2026-04-14T09:09:01.849Z</time></trkpt><trkpt lat="42.5803383" lon="-7.7219133"><ele>222.5</ele><time>2026-04-14T09:09:02.849Z</time></trkpt><trkpt lat="42.580215" lon="-7.7219467"><ele>221.75</ele><time>2026-04-14T09:09:03.848Z</time></trkpt><trkpt lat="42.5800883" lon="-7.7219833"><ele>221.0</ele><time>2026-04-14T09:09:04.848Z</time></trkpt><trkpt lat="42.5799633" lon="-7.722025"><ele>221.0</ele><time>2026-04-14T09:09:05.849Z</time></trkpt><trkpt lat="42.579835" lon="-7.7220783"><ele>221.0</ele><time>2026-04-14T09:09:06.848Z</time></trkpt><trkpt lat="42.5797067" lon="-7.7221417"><ele>221.0</ele><time>2026-04-14T09:09:07.849Z</time></trkpt><trkpt lat="42.5795833" lon="-7.7222283"><ele>221.0</ele><time>2026-04-14T09:09:08.848Z</time></trkpt><trkpt lat="42.57946" lon="-7.7223367"><ele>223.0</ele><time>2026-04-14T09:09:09.848Z</time></trkpt><trkpt lat="42.579335" lon="-7.722445"><ele>225.0</ele><time>2026-04-14T09:09:10.848Z</time></trkpt><trkpt lat="42.5792033" lon="-7.7225483"><ele>227.0</ele><time>2026-04-14T09:09:11.849Z</time></trkpt><trkpt lat="42.5790767" lon="-7.72267"><ele>223.33333333333334</ele><time>2026-04-14T09:09:12.848Z</time></trkpt><trkpt lat="42.5789533" lon="-7.7227917"><ele>219.66666666666669</ele><time>2026-04-14T09:09:13.849Z</time></trkpt><trkpt lat="42.5788333" lon="-7.7229417"><ele>216.0</ele><time>2026-04-14T09:09:14.848Z</time></trkpt><trkpt lat="42.5787133" lon="-7.7231"><ele>219.0</ele><time>2026-04-14T09:09:15.848Z</time></trkpt><trkpt lat="42.57859" lon="-7.7232383"><ele>222.0</ele><time>2026-04-14T09:09:16.848Z</time></trkpt><trkpt lat="42.5784533" lon="-7.7233567"><ele>225.0</ele><time>2026-04-14T09:09:17.849Z</time></trkpt><trkpt lat="42.5783017" lon="-7.7234483"><ele>225.0</ele><time>2026-04-14T09:09:18.849Z</time></trkpt><trkpt lat="42.578155" lon="-7.7235117"><ele>225.0</ele><time>2026-04-14T09:09:19.849Z</time></trkpt><trkpt lat="42.5780167" lon="-7.7235567"><ele>225.0</ele><time>2026-04-14T09:09:20.848Z</time></trkpt><trkpt lat="42.57786" lon="-7.7235683"><ele>222.33333333333331</ele><time>2026-04-14T09:09:21.848Z</time></trkpt><trkpt lat="42.5776967" lon="-7.7235783"><ele>219.66666666666666</ele><time>2026-04-14T09:09:22.849Z</time></trkpt><trkpt lat="42.5775417" lon="-7.72361"><ele>217.0</ele><time>2026-04-14T09:09:23.849Z</time></trkpt><trkpt lat="42.57738" lon="-7.72367"><ele>224.0</ele><time>2026-04-14T09:09:24.848Z</time></trkpt><trkpt lat="42.580995" lon="-7.721475"><ele>224.00000000000003</ele><time>2026-04-14T09:08:54.848Z</time></trkpt><trkpt lat="42.5809267" lon="-7.7214917"><ele>224.0</ele><time>2026-04-14T09:08:55.848Z</time></trkpt><trkpt lat="42.5808683" lon="-7.7215517"><ele>224.0</ele><time>2026-04-14T09:08:56.848Z</time></trkpt><trkpt lat="42.58081" lon="-7.72164"><ele>224.0</ele><time>2026-04-14T09:08:57.848Z</time></trkpt><trkpt lat="42.58075" lon="-7.7217383"><ele>224.00000000000003</ele><time>2026-04-14T09:08:58.848Z</time></trkpt><trkpt lat="42.580675" lon="-7.721815"><ele>224.0</ele><time>2026-04-14T09:08:59.848Z</time></trkpt><trkpt lat="42.5805817" lon="-7.7218583"><ele>224.0</ele><time>2026-04-14T09:09:00.849Z</time></trkpt><trkpt lat="42.58046" lon="-7.7218867"><ele>224.0</ele><time>2026-04-14T09:09:01.849Z</time></trkpt><trkpt lat="42.5803383" lon="-7.7219133"><ele>224.0</ele><time>2026-04-14T09:09:02.849Z</time></trkpt><trkpt lat="42.580215" lon="-7.7219467"><ele>224.0</ele><time>2026-04-14T09:09:03.848Z</time></trkpt><trkpt lat="42.5800883" lon="-7.7219833"><ele>223.25</ele><time>2026-04-14T09:09:04.848Z</time></trkpt><trkpt lat="42.5799633" lon="-7.722025"><ele>222.5</ele><time>2026-04-14T09:09:05.849Z</time></trkpt><trkpt lat="42.579835" lon="-7.7220783"><ele>221.75</ele><time>2026-04-14T09:09:06.848Z</time></trkpt><trkpt lat="42.5797067" lon="-7.7221417"><ele>221.0</ele><time>2026-04-14T09:09:07.849Z</time></trkpt><trkpt lat="42.5795833" lon="-7.7222283"><ele>222.5</ele><time>2026-04-14T09:09:08.848Z</time></trkpt><trkpt lat="42.57946" lon="-7.7223367"><ele>224.0</ele><time>2026-04-14T09:09:09.848Z</time></trkpt><trkpt lat="42.579335" lon="-7.722445"><ele>225.5</ele><time>2026-04-14T09:09:10.848Z</time></trkpt><trkpt lat="42.5792033" lon="-7.7225483"><ele>227.0</ele><time>2026-04-14T09:09:11.849Z</time></trkpt><trkpt lat="42.5790767" lon="-7.72267"><ele>223.33333333333334</ele><time>2026-04-14T09:09:12.848Z</time></trkpt><trkpt lat="42.5789533" lon="-7.7227917"><ele>219.66666666666669</ele><time>2026-04-14T09:09:13.849Z</time></trkpt><trkpt lat="42.5788333" lon="-7.7229417"><ele>216.0</ele><time>2026-04-14T09:09:14.848Z</time></trkpt><trkpt lat="42.5787133" lon="-7.7231"><ele>219.0</ele><time>2026-04-14T09:09:15.848Z</time></trkpt><trkpt lat="42.57859" lon="-7.7232383"><ele>222.0</ele><time>2026-04-14T09:09:16.848Z</time></trkpt><trkpt lat="42.5784533" lon="-7.7233567"><ele>225.0</ele><time>2026-04-14T09:09:17.849Z</time></trkpt><trkpt lat="42.5783017" lon="-7.7234483"><ele>225.0</ele><time>2026-04-14T09:09:18.849Z</time></trkpt><trkpt lat="42.578155" lon="-7.7235117"><ele>225.0</ele><time>2026-04-14T09:09:19.849Z</time></trkpt><trkpt lat="42.5780167" lon="-7.7235567"><ele>225.0</ele><time>2026-04-14T09:09:20.848Z</time></trkpt><trkpt lat="42.57786" lon="-7.7235683"><ele>222.33333333333331</ele><time>2026-04-14T09:09:21.848Z</time></trkpt><trkpt lat="42.5776967" lon="-7.7235783"><ele>219.66666666666666</ele><time>2026-04-14T09:09:22.849Z</time></trkpt><trkpt lat="42.5775417" lon="-7.72361"><ele>217.0</ele><time>2026-04-14T09:09:23.849Z</time></trkpt><trkpt lat="42.57738" lon="-7.72367"><ele>217.0</ele><time>2026-04-14T09:09:24.848Z</time></trkpt><trkpt lat="42.5772117" lon="-7.7237317"><ele>217.0</ele><time>2026-04-14T09:09:25.849Z</time></trkpt><trkpt lat="42.5770517" lon="-7.7238083"><ele>217.0</ele><time>2026-04-14T09:09:26.849Z</time></trkpt><trkpt lat="42.576885" lon="-7.72387"><ele>216.66666666666666</ele><time>2026-04-14T09:09:27.848Z</time></trkpt><trkpt lat="42.5767167" lon="-7.7239233"><ele>216.33333333333331</ele><time>2026-04-14T09:09:28.848Z</time></trkpt><trkpt lat="42.57655" lon="-7.7239633"><ele>216.0</ele><time>2026-04-14T09:09:29.848Z</time></trkpt><trkpt lat="42.576385" lon="-7.7240033"><ele>216.0</ele><time>2026-04-14T09:09:30.849Z</time></trkpt><trkpt lat="42.5762267" lon="-7.7240483"><ele>216.0</ele><time>2026-04-14T09:09:31.848Z</time></trkpt><trkpt lat="42.5760817" lon="-7.7241417"><ele>216.0</ele><time>2026-04-14T09:09:32.848Z</time></trkpt><trkpt lat="42.5759317" lon="-7.724255"><ele>215.66666666666669</ele><time>2026-04-14T09:09:33.848Z</time></trkpt><trkpt lat="42.575785" lon="-7.7243717"><ele>215.33333333333334</ele><time>2026-04-14T09:09:34.849Z</time></trkpt><trkpt lat="42.5756517" lon="-7.7245"><ele>215.0</ele><time>2026-04-14T09:09:35.848Z</time></trkpt><trkpt lat="42.575525" lon="-7.7246267"><ele>215.0</ele><time>2026-04-14T09:09:36.849Z</time></trkpt><trkpt lat="42.5753967" lon="-7.724735"><ele>215.0</ele><time>2026-04-14T09:09:37.849Z</time></trkpt><trkpt lat="42.5752733" lon="-7.724835"><ele>215.0</ele><time>2026-04-14T09:09:38.849Z</time></trkpt><trkpt lat="42.5751617" lon="-7.72491"><ele>215.0</ele><time>2026-04-14T09:09:39.849Z</time></trkpt><trkpt lat="42.5750483" lon="-7.7249433"><ele>217.0</ele><time>2026-04-14T09:09:40.848Z</time></trkpt><trkpt lat="42.5749217" lon="-7.7249583"><ele>219.0</ele><time>2026-04-14T09:09:41.848Z</time></trkpt><trkpt lat="42.5747817" lon="-7.724965"><ele>221.0</ele><time>2026-04-14T09:09:42.849Z</time></trkpt><trkpt lat="42.5746367" lon="-7.7249983"><ele>223.0</ele><time>2026-04-14T09:09:43.849Z</time></trkpt><trkpt lat="42.5744917" lon="-7.7250517"><ele>221.0</ele><time>2026-04-14T09:09:44.849Z</time></trkpt><trkpt lat="42.574345" lon="-7.72512"><ele>219.0</ele><time>2026-04-14T09:09:45.849Z</time></trkpt><trkpt lat="42.5741933" lon="-7.7251883"><ele>217.0</ele><time>2026-04-14T09:09:46.849Z</time></trkpt><trkpt lat="42.5740483" lon="-7.72527"><ele>217.0</ele><time>2026-04-14T09:09:47.848Z</time></trkpt><trkpt lat="42.5739017" lon="-7.7253783"><ele>217.0</ele><time>2026-04-14T09:09:48.848Z</time></trkpt><trkpt lat="42.5737533" lon="-7.7254917"><ele>217.0</ele><time>2026-04-14T09:09:49.849Z</time></trkpt><trkpt lat="42.5736233" lon="-7.72561"><ele>219.0</ele><time>2026-04-14T09:09:50.848Z</time></trkpt><trkpt lat="42.573505" lon="-7.7257083"><ele>221.0</ele><time>2026-04-14T09:09:51.848Z</time></trkpt><trkpt lat="42.573385" lon="-7.7257767"><ele>223.0</ele><time>2026-04-14T09:09:52.849Z</time></trkpt><trkpt lat="42.5732533" lon="-7.7258167"><ele>225.0</ele><time>2026-04-14T09:09:53.849Z</time></trkpt><trkpt lat="42.5731133" lon="-7.7258767"><ele>225.0</ele><time>2026-04-14T09:09:54.848Z</time></trkpt><trkpt lat="42.5729667" lon="-7.7259417"><ele>225.0</ele><time>2026-04-14T09:09:55.848Z</time></trkpt><trkpt lat="42.57282" lon="-7.7260333"><ele>225.0</ele><time>2026-04-14T09:09:56.848Z</time></trkpt><trkpt lat="42.5726833" lon="-7.726135"><ele>222.0</ele><time>2026-04-14T09:09:57.848Z</time></trkpt><trkpt lat="42.5725417" lon="-7.7262333"><ele>219.0</ele><time>2026-04-14T09:09:58.848Z</time></trkpt><trkpt lat="42.5724" lon="-7.7263183"><ele>216.0</ele><time>2026-04-14T09:09:59.849Z</time></trkpt><trkpt lat="42.5722733" lon="-7.7263967"><ele>216.0</ele><time>2026-04-14T09:10:00.848Z</time></trkpt><trkpt lat="42.572155" lon="-7.726475"><ele>216.0</ele><time>2026-04-14T09:10:01.849Z</time></trkpt><trkpt lat="42.57204" lon="-7.72655"><ele>216.0</ele><time>2026-04-14T09:10:02.848Z</time></trkpt><trkpt lat="42.5719183" lon="-7.72659"><ele>216.0</ele><time>2026-04-14T09:10:03.848Z</time></trkpt><trkpt lat="42.5718" lon="-7.726615"><ele>216.20000000000002</ele><time>2026-04-14T09:10:04.849Z</time></trkpt><trkpt lat="42.5716783" lon="-7.7266283"><ele>216.40000000000003</ele><time>2026-04-14T09:10:05.849Z</time></trkpt><trkpt lat="42.5715717" lon="-7.72663"><ele>216.6</ele><time>2026-04-14T09:10:06.849Z</time></trkpt><trkpt lat="42.571495" lon="-7.7265967"><ele>216.8</ele><time>2026-04-14T09:10:07.849Z</time></trkpt><trkpt lat="42.5714267" lon="-7.726535"><ele>217.0</ele><time>2026-04-14T09:10:08.848Z</time></trkpt><trkpt lat="42.5713633" lon="-7.7264583"><ele>217.0</ele><time>2026-04-14T09:10:09.848Z</time></trkpt><trkpt lat="42.5712867" lon="-7.7263633"><ele>217.0</ele><time>2026-04-14T09:10:10.848Z</time></trkpt><trkpt lat="42.5711967" lon="-7.7262683"><ele>217.0</ele><time>2026-04-14T09:10:11.848Z</time></trkpt><trkpt lat="42.5711083" lon="-7.7261717"><ele>217.0</ele><time>2026-04-14T09:10:12.848Z</time></trkpt><trkpt lat="42.5710283" lon="-7.7260567"><ele>217.0</ele><time>2026-04-14T09:10:13.848Z</time></trkpt><trkpt lat="42.5709633" lon="-7.72592"><ele>217.25</ele><time>2026-04-14T09:10:14.849Z</time></trkpt><trkpt lat="42.5709133" lon="-7.72577"><ele>217.5</ele><time>2026-04-14T09:10:15.849Z</time></trkpt><trkpt lat="42.5708667" lon="-7.725595"><ele>217.75</ele><time>2026-04-14T09:10:16.848Z</time></trkpt><trkpt lat="42.5708167" lon="-7.7254217"><ele>218.0</ele><time>2026-04-14T09:10:17.848Z</time></trkpt><trkpt lat="42.57076" lon="-7.7252483"><ele>222.0</ele><time>2026-04-14T09:10:18.848Z</time></trkpt><trkpt lat="42.5706867" lon="-7.7250683"><ele>226.0</ele><time>2026-04-14T09:10:19.848Z</time></trkpt><trkpt lat="42.5705967" lon="-7.7249067"><ele>230.0</ele><time>2026-04-14T09:10:20.849Z</time></trkpt><trkpt lat="42.5705" lon="-7.7247433"><ele>230.0</ele><time>2026-04-14T09:10:21.848Z</time></trkpt><trkpt lat="42.5704033" lon="-7.72458"><ele>230.0</ele><time>2026-04-14T09:10:22.849Z</time></trkpt><trkpt lat="42.5703033" lon="-7.7244133"><ele>230.0</ele><time>2026-04-14T09:10:23.848Z</time></trkpt><trkpt lat="42.5701983" lon="-7.7242617"><ele>226.66666666666669</ele><time>2026-04-14T09:10:24.849Z</time></trkpt><trkpt lat="42.570085" lon="-7.72411"><ele>223.33333333333331</ele><time>2026-04-14T09:10:25.848Z</time></trkpt><trkpt lat="42.5699633" lon="-7.723975"><ele>220.0</ele><time>2026-04-14T09:10:26.849Z</time></trkpt><trkpt lat="42.5698383" lon="-7.7238433"><ele>220.0</ele><time>2026-04-14T09:10:27.848Z</time></trkpt><trkpt lat="42.5697083" lon="-7.72372"><ele>220.0</ele><time>2026-04-14T09:10:28.849Z</time></trkpt><trkpt lat="42.5695733" lon="-7.7236067"><ele>220.0</ele><time>2026-04-14T09:10:29.848Z</time></trkpt><trkpt lat="42.56944" lon="-7.7234817"><ele>218.66666666666666</ele><time>2026-04-14T09:10:30.848Z</time></trkpt><trkpt lat="42.569305" lon="-7.7233583"><ele>217.33333333333331</ele><time>2026-04-14T09:10:31.848Z</time></trkpt><trkpt lat="42.56917" lon="-7.7232183"><ele>216.0</ele><time>2026-04-14T09:10:32.849Z</time></trkpt><trkpt lat="42.5690217" lon="-7.723075"><ele>216.0</ele><time>2026-04-14T09:10:33.849Z</time></trkpt><trkpt lat="42.5688883" lon="-7.7229133"><ele>216.0</ele><time>2026-04-14T09:10:34.849Z</time></trkpt><trkpt lat="42.5687817" lon="-7.722755"><ele>216.0</ele><time>2026-04-14T09:10:35.849Z</time></trkpt><trkpt lat="42.568685" lon="-7.7225867"><ele>216.0</ele><time>2026-04-14T09:10:36.849Z</time></trkpt><trkpt lat="42.5685967" lon="-7.7224133"><ele>216.0</ele><time>2026-04-14T09:10:37.849Z</time></trkpt><trkpt lat="42.5685067" lon="-7.72224"><ele>216.0</ele><time>2026-04-14T09:10:38.849Z</time></trkpt><trkpt lat="42.5684133" lon="-7.722065"><ele>216.0</ele><time>2026-04-14T09:10:39.848Z</time></trkpt><trkpt lat="42.5683167" lon="-7.7219033"><ele>216.0</ele><time>2026-04-14T09:10:40.849Z</time></trkpt><trkpt lat="42.5682233" lon="-7.7217617"><ele>216.0</ele><time>2026-04-14T09:10:41.848Z</time></trkpt><trkpt lat="42.5681317" lon="-7.7216417"><ele>216.0</ele><time>2026-04-14T09:10:42.849Z</time></trkpt><trkpt lat="42.5680683" lon="-7.7215317"><ele>218.20000000000002</ele><time>2026-04-14T09:10:43.848Z</time></trkpt><trkpt lat="42.568035" lon="-7.7214183"><ele>220.40000000000003</ele><time>2026-04-14T09:10:44.848Z</time></trkpt><trkpt lat="42.56802" lon="-7.7212917"><ele>222.6</ele><time>2026-04-14T09:10:45.848Z</time></trkpt><trkpt lat="42.5680467" lon="-7.721165"><ele>224.8</ele><time>2026-04-14T09:10:46.848Z</time></trkpt><trkpt lat="42.5680717" lon="-7.72102"><ele>227.0</ele><time>2026-04-14T09:10:47.849Z</time></trkpt><trkpt lat="42.5680867" lon="-7.7208667"><ele>227.75</ele><time>2026-04-14T09:10:48.848Z</time></trkpt><trkpt lat="42.568085" lon="-7.7207217"><ele>228.5</ele><time>2026-04-14T09:10:49.849Z</time></trkpt><trkpt lat="42.5680817" lon="-7.7205933"><ele>229.25</ele><time>2026-04-14T09:10:50.849Z</time></trkpt><trkpt lat="42.568085" lon="-7.72048"><ele>230.0</ele><time>2026-04-14T09:10:51.848Z</time></trkpt><trkpt lat="42.5705" lon="-7.7247433"><ele>230.0</ele><time>2026-04-14T09:10:21.848Z</time></trkpt><trkpt lat="42.5704033" lon="-7.72458"><ele>230.0</ele><time>2026-04-14T09:10:22.849Z</time></trkpt><trkpt lat="42.5703033" lon="-7.7244133"><ele>230.0</ele><time>2026-04-14T09:10:23.848Z</time></trkpt><trkpt lat="42.5701983" lon="-7.7242617"><ele>226.66666666666669</ele><time>2026-04-14T09:10:24.849Z</time></trkpt><trkpt lat="42.570085" lon="-7.72411"><ele>223.33333333333331</ele><time>2026-04-14T09:10:25.848Z</time></trkpt><trkpt lat="42.5699633" lon="-7.723975"><ele>220.0</ele><time>2026-04-14T09:10:26.849Z</time></trkpt><trkpt lat="42.5698383" lon="-7.7238433"><ele>220.0</ele><time>2026-04-14T09:10:27.848Z</time></trkpt><trkpt lat="42.5697083" lon="-7.72372"><ele>220.0</ele><time>2026-04-14T09:10:28.849Z</time></trkpt><trkpt lat="42.5695733" lon="-7.7236067"><ele>220.0</ele><time>2026-04-14T09:10:29.848Z</time></trkpt><trkpt lat="42.56944" lon="-7.7234817"><ele>218.66666666666666</ele><time>2026-04-14T09:10:30.848Z</time></trkpt><trkpt lat="42.569305" lon="-7.7233583"><ele>217.33333333333331</ele><time>2026-04-14T09:10:31.848Z</time></trkpt><trkpt lat="42.56917" lon="-7.7232183"><ele>216.0</ele><time>2026-04-14T09:10:32.849Z</time></trkpt><trkpt lat="42.5690217" lon="-7.723075"><ele>216.0</ele><time>2026-04-14T09:10:33.849Z</time></trkpt><trkpt lat="42.5688883" lon="-7.7229133"><ele>216.0</ele><time>2026-04-14T09:10:34.849Z</time></trkpt><trkpt lat="42.5687817" lon="-7.722755"><ele>216.0</ele><time>2026-04-14T09:10:35.849Z</time></trkpt><trkpt lat="42.568685" lon="-7.7225867"><ele>216.0</ele><time>2026-04-14T09:10:36.849Z</time></trkpt><trkpt lat="42.5685967" lon="-7.7224133"><ele>216.0</ele><time>2026-04-14T09:10:37.849Z</time></trkpt><trkpt lat="42.5685067" lon="-7.72224"><ele>216.0</ele><time>2026-04-14T09:10:38.849Z</time></trkpt><trkpt lat="42.5684133" lon="-7.722065"><ele>216.0</ele><time>2026-04-14T09:10:39.848Z</time></trkpt><trkpt lat="42.5683167" lon="-7.7219033"><ele>216.0</ele><time>2026-04-14T09:10:40.849Z</time></trkpt><trkpt lat="42.5682233" lon="-7.7217617"><ele>216.0</ele><time>2026-04-14T09:10:41.848Z</time></trkpt><trkpt lat="42.5681317" lon="-7.7216417"><ele>216.0</ele><time>2026-04-14T09:10:42.849Z</time></trkpt><trkpt lat="42.5680683" lon="-7.7215317"><ele>218.20000000000002</ele><time>2026-04-14T09:10:43.848Z</time></trkpt><trkpt lat="42.568035" lon="-7.7214183"><ele>220.40000000000003</ele><time>2026-04-14T09:10:44.848Z</time></trkpt><trkpt lat="42.56802" lon="-7.7212917"><ele>222.6</ele><time>2026-04-14T09:10:45.848Z</time></trkpt><trkpt lat="42.5680467" lon="-7.721165"><ele>224.8</ele><time>2026-04-14T09:10:46.848Z</time></trkpt><trkpt lat="42.5680717" lon="-7.72102"><ele>227.0</ele><time>2026-04-14T09:10:47.849Z</time></trkpt><trkpt lat="42.5680867" lon="-7.7208667"><ele>227.66666666666669</ele><time>2026-04-14T09:10:48.848Z</time></trkpt><trkpt lat="42.568085" lon="-7.7207217"><ele>228.33333333333334</ele><time>2026-04-14T09:10:49.849Z</time></trkpt><trkpt lat="42.5680817" lon="-7.7205933"><ele>229.0</ele><time>2026-04-14T09:10:50.849Z</time></trkpt><trkpt lat="42.568085" lon="-7.72048"><ele>229.66666666666669</ele><time>2026-04-14T09:10:51.848Z</time></trkpt><trkpt lat="42.5681017" lon="-7.720385"><ele>230.33333333333334</ele><time>2026-04-14T09:10:52.848Z</time></trkpt><trkpt lat="42.56815" lon="-7.720295"><ele>231.0</ele><time>2026-04-14T09:10:53.848Z</time></trkpt><trkpt lat="42.5682167" lon="-7.7202067"><ele>228.5</ele><time>2026-04-14T09:10:54.848Z</time></trkpt><trkpt lat="42.5682933" lon="-7.7201133"><ele>226.0</ele><time>2026-04-14T09:10:55.848Z</time></trkpt><trkpt lat="42.5683817" lon="-7.7199983"><ele>223.5</ele><time>2026-04-14T09:10:56.848Z</time></trkpt><trkpt lat="42.5684683" lon="-7.7198617"><ele>221.0</ele><time>2026-04-14T09:10:57.848Z</time></trkpt><trkpt lat="42.568555" lon="-7.719715"><ele>221.0</ele><time>2026-04-14T09:10:58.849Z</time></trkpt><trkpt lat="42.568655" lon="-7.7195683"><ele>221.0</ele><time>2026-04-14T09:10:59.848Z</time></trkpt><trkpt lat="42.568755" lon="-7.71942"><ele>221.0</ele><time>2026-04-14T09:11:00.848Z</time></trkpt><trkpt lat="42.568845" lon="-7.7192633"><ele>221.0</ele><time>2026-04-14T09:11:01.849Z</time></trkpt><trkpt lat="42.5689283" lon="-7.7190783"><ele>221.75</ele><time>2026-04-14T09:11:02.849Z</time></trkpt><trkpt lat="42.5690017" lon="-7.718895"><ele>222.5</ele><time>2026-04-14T09:11:03.848Z</time></trkpt><trkpt lat="42.56905" lon="-7.71871"><ele>223.25</ele><time>2026-04-14T09:11:04.848Z</time></trkpt><trkpt lat="42.56909" lon="-7.718515"><ele>224.0</ele><time>2026-04-14T09:11:05.849Z</time></trkpt><trkpt lat="42.56912" lon="-7.718325"><ele>224.0</ele><time>2026-04-14T09:11:06.848Z</time></trkpt><trkpt lat="42.5691417" lon="-7.7181383"><ele>224.0</ele><time>2026-04-14T09:11:07.849Z</time></trkpt><trkpt lat="42.5691567" lon="-7.7179583"><ele>224.0</ele><time>2026-04-14T09:11:08.848Z</time></trkpt><trkpt lat="42.5691633" lon="-7.7177867"><ele>224.0</ele><time>2026-04-14T09:11:09.849Z</time></trkpt><trkpt lat="42.56917" lon="-7.717635"><ele>223.0</ele><time>2026-04-14T09:11:10.848Z</time></trkpt><trkpt lat="42.56919" lon="-7.7175"><ele>221.99999999999997</ele><time>2026-04-14T09:11:11.848Z</time></trkpt><trkpt lat="42.5692283" lon="-7.7173833"><ele>220.99999999999997</ele><time>2026-04-14T09:11:12.848Z</time></trkpt><trkpt lat="42.5692767" lon="-7.7172667"><ele>220.0</ele><time>2026-04-14T09:11:13.849Z</time></trkpt><trkpt lat="42.5693117" lon="-7.7171633"><ele>219.0</ele><time>2026-04-14T09:11:14.848Z</time></trkpt><trkpt lat="42.5693267" lon="-7.717065"><ele>219.0</ele><time>2026-04-14T09:11:15.848Z</time></trkpt><trkpt lat="42.5693167" lon="-7.716965"><ele>218.99999999999997</ele><time>2026-04-14T09:11:16.848Z</time></trkpt><trkpt lat="42.56926" lon="-7.7168867"><ele>218.99999999999997</ele><time>2026-04-14T09:11:17.849Z</time></trkpt><trkpt lat="42.5691767" lon="-7.7168017"><ele>219.0</ele><time>2026-04-14T09:11:18.848Z</time></trkpt><trkpt lat="42.5690633" lon="-7.71672"><ele>219.0</ele><time>2026-04-14T09:11:19.849Z</time></trkpt><trkpt lat="42.5689517" lon="-7.7166267"><ele>220.0</ele><time>2026-04-14T09:11:20.848Z</time></trkpt><trkpt lat="42.56884" lon="-7.71652"><ele>221.0</ele><time>2026-04-14T09:11:21.848Z</time></trkpt><trkpt lat="42.5687233" lon="-7.7163967"><ele>222.0</ele><time>2026-04-14T09:11:22.849Z</time></trkpt><trkpt lat="42.5685983" lon="-7.716265"><ele>223.0</ele><time>2026-04-14T09:11:23.848Z</time></trkpt><trkpt lat="42.5684683" lon="-7.7161467"><ele>224.0</ele><time>2026-04-14T09:11:24.849Z</time></trkpt><trkpt lat="42.56834" lon="-7.7160317"><ele>225.0</ele><time>2026-04-14T09:11:25.848Z</time></trkpt><trkpt lat="42.5682" lon="-7.7159167"><ele>226.0</ele><time>2026-04-14T09:11:26.848Z</time></trkpt><trkpt lat="42.5680583" lon="-7.7158083"><ele>226.0</ele><time>2026-04-14T09:11:27.848Z</time></trkpt><trkpt lat="42.5679083" lon="-7.7156917"><ele>226.0</ele><time>2026-04-14T09:11:28.848Z</time></trkpt><trkpt lat="42.5677667" lon="-7.7155617"><ele>226.0</ele><time>2026-04-14T09:11:29.848Z</time></trkpt><trkpt lat="42.5676233" lon="-7.7154367"><ele>225.0</ele><time>2026-04-14T09:11:30.848Z</time></trkpt><trkpt lat="42.567485" lon="-7.7153033"><ele>224.0</ele><time>2026-04-14T09:11:31.849Z</time></trkpt><trkpt lat="42.5673483" lon="-7.7151817"><ele>223.0</ele><time>2026-04-14T09:11:32.849Z</time></trkpt><trkpt lat="42.5672167" lon="-7.715065"><ele>223.0</ele><time>2026-04-14T09:11:33.849Z</time></trkpt><trkpt lat="42.5670883" lon="-7.714935"><ele>223.0</ele><time>2026-04-14T09:11:34.848Z</time></trkpt><trkpt lat="42.566965" lon="-7.7147983"><ele>223.0</ele><time>2026-04-14T09:11:35.848Z</time></trkpt><trkpt lat="42.5668467" lon="-7.714645"><ele>225.33333333333331</ele><time>2026-04-14T09:11:36.848Z</time></trkpt><trkpt lat="42.5667283" lon="-7.7144983"><ele>227.66666666666669</ele><time>2026-04-14T09:11:37.848Z</time></trkpt><trkpt lat="42.56661" lon="-7.7143533"><ele>230.0</ele><time>2026-04-14T09:11:38.848Z</time></trkpt><trkpt lat="42.5664983" lon="-7.7142117"><ele>230.0</ele><time>2026-04-14T09:11:39.848Z</time></trkpt><trkpt lat="42.5663817" lon="-7.7140633"><ele>230.0</ele><time>2026-04-14T09:11:40.849Z</time></trkpt><trkpt lat="42.5662667" lon="-7.7139133"><ele>230.0</ele><time>2026-04-14T09:11:41.849Z</time></trkpt><trkpt lat="42.5661617" lon="-7.71377"><ele>228.0</ele><time>2026-04-14T09:11:42.848Z</time></trkpt><trkpt lat="42.5660667" lon="-7.713615"><ele>226.0</ele><time>2026-04-14T09:11:43.848Z</time></trkpt><trkpt lat="42.5659867" lon="-7.7134617"><ele>224.0</ele><time>2026-04-14T09:11:44.848Z</time></trkpt><trkpt lat="42.5659267" lon="-7.7132917"><ele>222.0</ele><time>2026-04-14T09:11:45.849Z</time></trkpt><trkpt lat="42.5658867" lon="-7.7131117"><ele>222.0</ele><time>2026-04-14T09:11:46.849Z</time></trkpt><trkpt lat="42.5658633" lon="-7.71293"><ele>222.0</ele><time>2026-04-14T09:11:47.849Z</time></trkpt><trkpt lat="42.5658433" lon="-7.7127383"><ele>222.0</ele><time>2026-04-14T09:11:48.848Z</time></trkpt><trkpt lat="42.56584" lon="-7.7125417"><ele>222.0</ele><time>2026-04-14T09:11:49.848Z</time></trkpt><trkpt lat="42.5658417" lon="-7.7123433"><ele>225.25</ele><time>2026-04-14T09:11:50.848Z</time></trkpt><trkpt lat="42.5658367" lon="-7.7121417"><ele>228.5</ele><time>2026-04-14T09:11:51.848Z</time></trkpt><trkpt lat="42.5658317" lon="-7.711945"><ele>231.75</ele><time>2026-04-14T09:11:52.848Z</time></trkpt><trkpt lat="42.56583" lon="-7.7117567"><ele>235.0</ele><time>2026-04-14T09:11:53.849Z</time></trkpt><trkpt lat="42.565845" lon="-7.7115667"><ele>236.5</ele><time>2026-04-14T09:11:54.848Z</time></trkpt><trkpt lat="42.56588" lon="-7.7113783"><ele>238.0</ele><time>2026-04-14T09:11:55.849Z</time></trkpt><trkpt lat="42.5659117" lon="-7.7111883"><ele>239.5</ele><time>2026-04-14T09:11:56.848Z</time></trkpt><trkpt lat="42.5659383" lon="-7.7109983"><ele>241.0</ele><time>2026-04-14T09:11:57.849Z</time></trkpt><trkpt lat="42.5659683" lon="-7.7108033"><ele>241.5</ele><time>2026-04-14T09:11:58.849Z</time></trkpt><trkpt lat="42.5659917" lon="-7.7106033"><ele>242.0</ele><time>2026-04-14T09:11:59.848Z</time></trkpt><trkpt lat="42.56599" lon="-7.710405"><ele>242.5</ele><time>2026-04-14T09:12:00.849Z</time></trkpt><trkpt lat="42.56597" lon="-7.7102233"><ele>243.0</ele><time>2026-04-14T09:12:01.848Z</time></trkpt><trkpt lat="42.5659333" lon="-7.7100683"><ele>244.8</ele><time>2026-04-14T09:12:02.848Z</time></trkpt><trkpt lat="42.5658733" lon="-7.7099367"><ele>246.60000000000002</ele><time>2026-04-14T09:12:03.849Z</time></trkpt><trkpt lat="42.5657983" lon="-7.7098267"><ele>248.39999999999998</ele><time>2026-04-14T09:12:04.849Z</time></trkpt><trkpt lat="42.56572" lon="-7.7097383"><ele>250.2</ele><time>2026-04-14T09:12:05.848Z</time></trkpt><trkpt lat="42.565665" lon="-7.7096533"><ele>252.0</ele><time>2026-04-14T09:12:06.848Z</time></trkpt><trkpt lat="42.565635" lon="-7.7095317"><ele>255.0</ele><time>2026-04-14T09:12:07.849Z</time></trkpt><trkpt lat="42.5656183" lon="-7.7093983"><ele>258.0</ele><time>2026-04-14T09:12:08.848Z</time></trkpt><trkpt lat="42.5656233" lon="-7.70925"><ele>261.0</ele><time>2026-04-14T09:12:09.848Z</time></trkpt><trkpt lat="42.5656283" lon="-7.709105"><ele>264.0</ele><time>2026-04-14T09:12:10.849Z</time></trkpt><trkpt lat="42.56565" lon="-7.708965"><ele>267.0</ele><time>2026-04-14T09:12:11.849Z</time></trkpt><trkpt lat="42.5656783" lon="-7.7088233"><ele>267.0</ele><time>2026-04-14T09:12:12.848Z</time></trkpt><trkpt lat="42.5657217" lon="-7.7086883"><ele>267.0</ele><time>2026-04-14T09:12:13.849Z</time></trkpt><trkpt lat="42.56577" lon="-7.70855"><ele>267.0</ele><time>2026-04-14T09:12:14.848Z</time></trkpt><trkpt lat="42.5658183" lon="-7.70841"><ele>267.0</ele><time>2026-04-14T09:12:15.848Z</time></trkpt><trkpt lat="42.565875" lon="-7.7082933"><ele>267.0</ele><time>2026-04-14T09:12:16.848Z</time></trkpt><trkpt lat="42.56594" lon="-7.708195"><ele>262.0</ele><time>2026-04-14T09:12:17.848Z</time></trkpt><trkpt lat="42.56601" lon="-7.7081117"><ele>257.0</ele><time>2026-04-14T09:12:18.849Z</time></trkpt><trkpt lat="42.5658433" lon="-7.7127383"><ele>251.5</ele><time>2026-04-14T09:11:48.848Z</time></trkpt><trkpt lat="42.56584" lon="-7.7125417"><ele>246.0</ele><time>2026-04-14T09:11:49.848Z</time></trkpt><trkpt lat="42.5658417" lon="-7.7123433"><ele>240.5</ele><time>2026-04-14T09:11:50.848Z</time></trkpt><trkpt lat="42.5658367" lon="-7.7121417"><ele>235.0</ele><time>2026-04-14T09:11:51.848Z</time></trkpt><trkpt lat="42.5658317" lon="-7.711945"><ele>236.5</ele><time>2026-04-14T09:11:52.848Z</time></trkpt><trkpt lat="42.56583" lon="-7.7117567"><ele>238.0</ele><time>2026-04-14T09:11:53.849Z</time></trkpt><trkpt lat="42.565845" lon="-7.7115667"><ele>239.5</ele><time>2026-04-14T09:11:54.848Z</time></trkpt><trkpt lat="42.56588" lon="-7.7113783"><ele>241.0</ele><time>2026-04-14T09:11:55.849Z</time></trkpt><trkpt lat="42.5659117" lon="-7.7111883"><ele>241.5</ele><time>2026-04-14T09:11:56.848Z</time></trkpt><trkpt lat="42.5659383" lon="-7.7109983"><ele>242.0</ele><time>2026-04-14T09:11:57.849Z</time></trkpt><trkpt lat="42.5659683" lon="-7.7108033"><ele>242.5</ele><time>2026-04-14T09:11:58.849Z</time></trkpt><trkpt lat="42.5659917" lon="-7.7106033"><ele>243.0</ele><time>2026-04-14T09:11:59.848Z</time></trkpt><trkpt lat="42.56599" lon="-7.710405"><ele>245.25</ele><time>2026-04-14T09:12:00.849Z</time></trkpt><trkpt lat="42.56597" lon="-7.7102233"><ele>247.5</ele><time>2026-04-14T09:12:01.848Z</time></trkpt><trkpt lat="42.5659333" lon="-7.7100683"><ele>249.75</ele><time>2026-04-14T09:12:02.848Z</time></trkpt><trkpt lat="42.5658733" lon="-7.7099367"><ele>252.0</ele><time>2026-04-14T09:12:03.849Z</time></trkpt><trkpt lat="42.5657983" lon="-7.7098267"><ele>252.0</ele><time>2026-04-14T09:12:04.849Z</time></trkpt><trkpt lat="42.56572" lon="-7.7097383"><ele>252.0</ele><time>2026-04-14T09:12:05.848Z</time></trkpt><trkpt lat="42.565665" lon="-7.7096533"><ele>252.0</ele><time>2026-04-14T09:12:06.848Z</time></trkpt><trkpt lat="42.565635" lon="-7.7095317"><ele>252.0</ele><time>2026-04-14T09:12:07.849Z</time></trkpt><trkpt lat="42.5656183" lon="-7.7093983"><ele>252.0</ele><time>2026-04-14T09:12:08.848Z</time></trkpt><trkpt lat="42.5656233" lon="-7.70925"><ele>253.0</ele><time>2026-04-14T09:12:09.848Z</time></trkpt><trkpt lat="42.5656283" lon="-7.709105"><ele>254.0</ele><time>2026-04-14T09:12:10.849Z</time></trkpt><trkpt lat="42.56565" lon="-7.708965"><ele>255.0</ele><time>2026-04-14T09:12:11.849Z</time></trkpt><trkpt lat="42.5656783" lon="-7.7088233"><ele>256.0</ele><time>2026-04-14T09:12:12.848Z</time></trkpt><trkpt lat="42.5657217" lon="-7.7086883"><ele>257.0</ele><time>2026-04-14T09:12:13.849Z</time></trkpt><trkpt lat="42.56577" lon="-7.70855"><ele>257.0</ele><time>2026-04-14T09:12:14.848Z</time></trkpt><trkpt lat="42.5658183" lon="-7.70841"><ele>257.0</ele><time>2026-04-14T09:12:15.848Z</time></trkpt><trkpt lat="42.565875" lon="-7.7082933"><ele>257.0</ele><time>2026-04-14T09:12:16.848Z</time></trkpt><trkpt lat="42.56594" lon="-7.708195"><ele>257.0</ele><time>2026-04-14T09:12:17.848Z</time></trkpt><trkpt lat="42.56601" lon="-7.7081117"><ele>257.0</ele><time>2026-04-14T09:12:18.849Z</time></trkpt><trkpt lat="42.5660883" lon="-7.708045"><ele>257.0</ele><time>2026-04-14T09:12:19.848Z</time></trkpt><trkpt lat="42.5661667" lon="-7.707995"><ele>257.0</ele><time>2026-04-14T09:12:20.849Z</time></trkpt><trkpt lat="42.566215" lon="-7.7079283"><ele>257.0</ele><time>2026-04-14T09:12:21.848Z</time></trkpt><trkpt lat="42.5662467" lon="-7.707845"><ele>257.0</ele><time>2026-04-14T09:12:22.848Z</time></trkpt><trkpt lat="42.5662433" lon="-7.7077533"><ele>257.0</ele><time>2026-04-14T09:12:23.849Z</time></trkpt><trkpt lat="42.566225" lon="-7.7076483"><ele>257.0</ele><time>2026-04-14T09:12:24.848Z</time></trkpt><trkpt lat="42.5661767" lon="-7.7075417"><ele>254.25</ele><time>2026-04-14T09:12:25.849Z</time></trkpt><trkpt lat="42.566105" lon="-7.7074367"><ele>251.5</ele><time>2026-04-14T09:12:26.848Z</time></trkpt><trkpt lat="42.5660083" lon="-7.7073167"><ele>248.75</ele><time>2026-04-14T09:12:27.848Z</time></trkpt><trkpt lat="42.565885" lon="-7.707215"><ele>246.0</ele><time>2026-04-14T09:12:28.849Z</time></trkpt><trkpt lat="42.5657733" lon="-7.7071167"><ele>246.0</ele><time>2026-04-14T09:12:29.848Z</time></trkpt><trkpt lat="42.5656717" lon="-7.7070233"><ele>246.0</ele><time>2026-04-14T09:12:30.849Z</time></trkpt><trkpt lat="42.56558" lon="-7.7069217"><ele>246.0</ele><time>2026-04-14T09:12:31.848Z</time></trkpt><trkpt lat="42.5655083" lon="-7.7068017"><ele>246.0</ele><time>2026-04-14T09:12:32.849Z</time></trkpt><trkpt lat="42.5654633" lon="-7.7066783"><ele>248.8</ele><time>2026-04-14T09:12:33.849Z</time></trkpt><trkpt lat="42.56544" lon="-7.7065433"><ele>251.60000000000002</ele><time>2026-04-14T09:12:34.849Z</time></trkpt><trkpt lat="42.5654433" lon="-7.7064033"><ele>254.4</ele><time>2026-04-14T09:12:35.848Z</time></trkpt><trkpt lat="42.5654767" lon="-7.7062567"><ele>257.2</ele><time>2026-04-14T09:12:36.849Z</time></trkpt><trkpt lat="42.5655233" lon="-7.7061117"><ele>260.0</ele><time>2026-04-14T09:12:37.848Z</time></trkpt><trkpt lat="42.5655567" lon="-7.7059633"><ele>261.75</ele><time>2026-04-14T09:12:38.849Z</time></trkpt><trkpt lat="42.5655683" lon="-7.70581"><ele>263.5</ele><time>2026-04-14T09:12:39.849Z</time></trkpt><trkpt lat="42.56558" lon="-7.7056367"><ele>265.25</ele><time>2026-04-14T09:12:40.849Z</time></trkpt><trkpt lat="42.5656033" lon="-7.70545"><ele>267.0</ele><time>2026-04-14T09:12:41.849Z</time></trkpt><trkpt lat="42.5656417" lon="-7.70526"><ele>265.0</ele><time>2026-04-14T09:12:42.848Z</time></trkpt><trkpt lat="42.5657033" lon="-7.70507"><ele>263.0</ele><time>2026-04-14T09:12:43.849Z</time></trkpt><trkpt lat="42.565765" lon="-7.7048833"><ele>261.0</ele><time>2026-04-14T09:12:44.848Z</time></trkpt><trkpt lat="42.5658233" lon="-7.704695"><ele>261.0</ele><time>2026-04-14T09:12:45.848Z</time></trkpt><trkpt lat="42.5658783" lon="-7.7045067"><ele>261.0</ele><time>2026-04-14T09:12:46.848Z</time></trkpt><trkpt lat="42.5659317" lon="-7.704325"><ele>261.0</ele><time>2026-04-14T09:12:47.849Z</time></trkpt><trkpt lat="42.5659867" lon="-7.7041433"><ele>261.0</ele><time>2026-04-14T09:12:48.849Z</time></trkpt><trkpt lat="42.566035" lon="-7.703995"><ele>261.75</ele><time>2026-04-14T09:12:49.848Z</time></trkpt><trkpt lat="42.5660933" lon="-7.7038683"><ele>262.5</ele><time>2026-04-14T09:12:50.848Z</time></trkpt><trkpt lat="42.566165" lon="-7.70375"><ele>263.25</ele><time>2026-04-14T09:12:51.849Z</time></trkpt><trkpt lat="42.5662583" lon="-7.703645"><ele>264.0</ele><time>2026-04-14T09:12:52.849Z</time></trkpt><trkpt lat="42.5663517" lon="-7.7035367"><ele>264.0</ele><time>2026-04-14T09:12:53.848Z</time></trkpt><trkpt lat="42.5664367" lon="-7.7034283"><ele>264.0</ele><time>2026-04-14T09:12:54.849Z</time></trkpt><trkpt lat="42.566525" lon="-7.7033417"><ele>264.0</ele><time>2026-04-14T09:12:55.849Z</time></trkpt><trkpt lat="42.5666283" lon="-7.7032733"><ele>264.0</ele><time>2026-04-14T09:12:56.849Z</time></trkpt><trkpt lat="42.5667383" lon="-7.7032117"><ele>264.0</ele><time>2026-04-14T09:12:57.848Z</time></trkpt><trkpt lat="42.566845" lon="-7.7031517"><ele>264.0</ele><time>2026-04-14T09:12:58.849Z</time></trkpt><trkpt lat="42.5669367" lon="-7.7030583"><ele>264.0</ele><time>2026-04-14T09:12:59.849Z</time></trkpt><trkpt lat="42.56702" lon="-7.7029483"><ele>264.0</ele><time>2026-04-14T09:13:00.849Z</time></trkpt><trkpt lat="42.5670967" lon="-7.7028217"><ele>267.1666666666667</ele><time>2026-04-14T09:13:01.849Z</time></trkpt><trkpt lat="42.5671583" lon="-7.702705"><ele>270.3333333333333</ele><time>2026-04-14T09:13:02.848Z</time></trkpt><trkpt lat="42.5671883" lon="-7.7026"><ele>273.5</ele><time>2026-04-14T09:13:03.848Z</time></trkpt><trkpt lat="42.5671917" lon="-7.7025017"><ele>276.66666666666663</ele><time>2026-04-14T09:13:04.848Z</time></trkpt><trkpt lat="42.567165" lon="-7.7024083"><ele>279.8333333333333</ele><time>2026-04-14T09:13:05.848Z</time></trkpt><trkpt lat="42.567105" lon="-7.70231"><ele>283.0</ele><time>2026-04-14T09:13:06.849Z</time></trkpt><trkpt lat="42.5670333" lon="-7.702195"><ele>274.6</ele><time>2026-04-14T09:13:07.849Z</time></trkpt><trkpt lat="42.566975" lon="-7.7020683"><ele>266.20000000000005</ele><time>2026-04-14T09:13:08.849Z</time></trkpt><trkpt lat="42.56694" lon="-7.7019267"><ele>257.8</ele><time>2026-04-14T09:13:09.848Z</time></trkpt><trkpt lat="42.5669383" lon="-7.70178"><ele>249.4</ele><time>2026-04-14T09:13:10.848Z</time></trkpt><trkpt lat="42.5669617" lon="-7.701625"><ele>241.0</ele><time>2026-04-14T09:13:11.849Z</time></trkpt><trkpt lat="42.567005" lon="-7.7014717"><ele>247.25</ele><time>2026-04-14T09:13:12.848Z</time></trkpt><trkpt lat="42.5670683" lon="-7.70132"><ele>253.5</ele><time>2026-04-14T09:13:13.848Z</time></trkpt><trkpt lat="42.567145" lon="-7.7011833"><ele>259.75</ele><time>2026-04-14T09:13:14.848Z</time></trkpt><trkpt lat="42.5672267" lon="-7.701035"><ele>266.0</ele><time>2026-04-14T09:13:15.848Z</time></trkpt><trkpt lat="42.5672817" lon="-7.70089"><ele>266.0</ele><time>2026-04-14T09:13:16.849Z</time></trkpt><trkpt lat="42.5673117" lon="-7.70073"><ele>266.0</ele><time>2026-04-14T09:13:17.849Z</time></trkpt><trkpt lat="42.5673167" lon="-7.7005667"><ele>266.0</ele><time>2026-04-14T09:13:18.849Z</time></trkpt><trkpt lat="42.5673167" lon="-7.7003983"><ele>266.0</ele><time>2026-04-14T09:13:19.848Z</time></trkpt><trkpt lat="42.5673067" lon="-7.700215"><ele>264.0</ele><time>2026-04-14T09:13:20.848Z</time></trkpt><trkpt lat="42.5672983" lon="-7.70003"><ele>262.0</ele><time>2026-04-14T09:13:21.848Z</time></trkpt><trkpt lat="42.567315" lon="-7.6998617"><ele>260.0</ele><time>2026-04-14T09:13:22.849Z</time></trkpt><trkpt lat="42.56733" lon="-7.699695"><ele>258.0</ele><time>2026-04-14T09:13:23.848Z</time></trkpt><trkpt lat="42.5673467" lon="-7.6995383"><ele>255.8</ele><time>2026-04-14T09:13:24.849Z</time></trkpt><trkpt lat="42.56735" lon="-7.6993917"><ele>253.60000000000002</ele><time>2026-04-14T09:13:25.849Z</time></trkpt><trkpt lat="42.567375" lon="-7.699245"><ele>251.39999999999998</ele><time>2026-04-14T09:13:26.848Z</time></trkpt><trkpt lat="42.567415" lon="-7.6991117"><ele>249.2</ele><time>2026-04-14T09:13:27.848Z</time></trkpt><trkpt lat="42.56747" lon="-7.6989917"><ele>247.0</ele><time>2026-04-14T09:13:28.848Z</time></trkpt><trkpt lat="42.5675333" lon="-7.698885"><ele>247.0</ele><time>2026-04-14T09:13:29.849Z</time></trkpt><trkpt lat="42.567625" lon="-7.6987883"><ele>247.0</ele><time>2026-04-14T09:13:30.849Z</time></trkpt><trkpt lat="42.5677167" lon="-7.6986983"><ele>247.0</ele><time>2026-04-14T09:13:31.848Z</time></trkpt><trkpt lat="42.56781" lon="-7.6986217"><ele>247.0</ele><time>2026-04-14T09:13:32.848Z</time></trkpt><trkpt lat="42.5678967" lon="-7.6985533"><ele>247.0</ele><time>2026-04-14T09:13:33.848Z</time></trkpt><trkpt lat="42.5679683" lon="-7.698485"><ele>244.49999999999997</ele><time>2026-04-14T09:13:34.849Z</time></trkpt><trkpt lat="42.5680233" lon="-7.698405"><ele>242.0</ele><time>2026-04-14T09:13:35.848Z</time></trkpt><trkpt lat="42.5680517" lon="-7.698325"><ele>239.5</ele><time>2026-04-14T09:13:36.849Z</time></trkpt><trkpt lat="42.5680167" lon="-7.6981667"><ele>237.0</ele><time>2026-04-14T09:13:38.848Z</time></trkpt><trkpt lat="42.56796" lon="-7.6980917"><ele>234.49999999999997</ele><time>2026-04-14T09:13:39.849Z</time></trkpt><trkpt lat="42.56788" lon="-7.6980083"><ele>232.0</ele><time>2026-04-14T09:13:40.849Z</time></trkpt><trkpt lat="42.5678133" lon="-7.6979183"><ele>232.0</ele><time>2026-04-14T09:13:41.848Z</time></trkpt><trkpt lat="42.5677733" lon="-7.6978083"><ele>232.0</ele><time>2026-04-14T09:13:42.849Z</time></trkpt><trkpt lat="42.567755" lon="-7.6976883"><ele>232.0</ele><time>2026-04-14T09:13:43.848Z</time></trkpt><trkpt lat="42.5677583" lon="-7.6975533"><ele>232.0</ele><time>2026-04-14T09:13:44.848Z</time></trkpt><trkpt lat="42.5677817" lon="-7.6974267"><ele>232.0</ele><time>2026-04-14T09:13:45.849Z</time></trkpt><trkpt lat="42.5672267" lon="-7.701035"><ele>240.5</ele><time>2026-04-14T09:13:15.848Z</time></trkpt><trkpt lat="42.5672817" lon="-7.70089"><ele>249.0</ele><time>2026-04-14T09:13:16.849Z</time></trkpt><trkpt lat="42.5673117" lon="-7.70073"><ele>257.5</ele><time>2026-04-14T09:13:17.849Z</time></trkpt><trkpt lat="42.5673167" lon="-7.7005667"><ele>266.0</ele><time>2026-04-14T09:13:18.849Z</time></trkpt><trkpt lat="42.5673167" lon="-7.7003983"><ele>264.0</ele><time>2026-04-14T09:13:19.848Z</time></trkpt><trkpt lat="42.5673067" lon="-7.700215"><ele>262.0</ele><time>2026-04-14T09:13:20.848Z</time></trkpt><trkpt lat="42.5672983" lon="-7.70003"><ele>260.0</ele><time>2026-04-14T09:13:21.848Z</time></trkpt><trkpt lat="42.567315" lon="-7.6998617"><ele>258.0</ele><time>2026-04-14T09:13:22.849Z</time></trkpt><trkpt lat="42.56733" lon="-7.699695"><ele>258.0</ele><time>2026-04-14T09:13:23.848Z</time></trkpt><trkpt lat="42.5673467" lon="-7.6995383"><ele>258.0</ele><time>2026-04-14T09:13:24.849Z</time></trkpt><trkpt lat="42.56735" lon="-7.6993917"><ele>258.0</ele><time>2026-04-14T09:13:25.849Z</time></trkpt><trkpt lat="42.567375" lon="-7.699245"><ele>258.0</ele><time>2026-04-14T09:13:26.848Z</time></trkpt><trkpt lat="42.567415" lon="-7.6991117"><ele>258.0</ele><time>2026-04-14T09:13:27.848Z</time></trkpt><trkpt lat="42.56747" lon="-7.6989917"><ele>259.2</ele><time>2026-04-14T09:13:28.848Z</time></trkpt><trkpt lat="42.5675333" lon="-7.698885"><ele>260.4</ele><time>2026-04-14T09:13:29.849Z</time></trkpt><trkpt lat="42.567625" lon="-7.6987883"><ele>261.59999999999997</ele><time>2026-04-14T09:13:30.849Z</time></trkpt><trkpt lat="42.5677167" lon="-7.6986983"><ele>262.8</ele><time>2026-04-14T09:13:31.848Z</time></trkpt><trkpt lat="42.56781" lon="-7.6986217"><ele>264.0</ele><time>2026-04-14T09:13:32.848Z</time></trkpt><trkpt lat="42.5678967" lon="-7.6985533"><ele>264.0</ele><time>2026-04-14T09:13:33.848Z</time></trkpt><trkpt lat="42.5679683" lon="-7.698485"><ele>264.0</ele><time>2026-04-14T09:13:34.849Z</time></trkpt><trkpt lat="42.5680233" lon="-7.698405"><ele>264.0</ele><time>2026-04-14T09:13:35.848Z</time></trkpt><trkpt lat="42.5680517" lon="-7.698325"><ele>264.0</ele><time>2026-04-14T09:13:36.849Z</time></trkpt><trkpt lat="42.5680167" lon="-7.6981667"><ele>264.0</ele><time>2026-04-14T09:13:38.848Z</time></trkpt><trkpt lat="42.56796" lon="-7.6980917"><ele>264.0</ele><time>2026-04-14T09:13:39.849Z</time></trkpt><trkpt lat="42.56788" lon="-7.6980083"><ele>257.59999999999997</ele><time>2026-04-14T09:13:40.849Z</time></trkpt><trkpt lat="42.5678133" lon="-7.6979183"><ele>251.2</ele><time>2026-04-14T09:13:41.848Z</time></trkpt><trkpt lat="42.5677733" lon="-7.6978083"><ele>244.79999999999998</ele><time>2026-04-14T09:13:42.849Z</time></trkpt><trkpt lat="42.567755" lon="-7.6976883"><ele>238.39999999999998</ele><time>2026-04-14T09:13:43.848Z</time></trkpt><trkpt lat="42.5677583" lon="-7.6975533"><ele>232.0</ele><time>2026-04-14T09:13:44.848Z</time></trkpt><trkpt lat="42.5677817" lon="-7.6974267"><ele>231.39999999999998</ele><time>2026-04-14T09:13:45.849Z</time></trkpt><trkpt lat="42.5678233" lon="-7.6973033"><ele>230.79999999999998</ele><time>2026-04-14T09:13:46.848Z</time></trkpt><trkpt lat="42.5678967" lon="-7.69719"><ele>230.2</ele><time>2026-04-14T09:13:47.848Z</time></trkpt><trkpt lat="42.5679817" lon="-7.69709"><ele>229.6</ele><time>2026-04-14T09:13:48.848Z</time></trkpt><trkpt lat="42.5680533" lon="-7.69698"><ele>229.0</ele><time>2026-04-14T09:13:49.848Z</time></trkpt><trkpt lat="42.568095" lon="-7.69685"><ele>234.6</ele><time>2026-04-14T09:13:50.849Z</time></trkpt><trkpt lat="42.5681" lon="-7.696715"><ele>240.2</ele><time>2026-04-14T09:13:51.848Z</time></trkpt><trkpt lat="42.56808" lon="-7.6965617"><ele>245.79999999999998</ele><time>2026-04-14T09:13:52.849Z</time></trkpt><trkpt lat="42.56804" lon="-7.6964133"><ele>251.39999999999998</ele><time>2026-04-14T09:13:53.848Z</time></trkpt><trkpt lat="42.5680233" lon="-7.6962617"><ele>257.0</ele><time>2026-04-14T09:13:54.849Z</time></trkpt><trkpt lat="42.5680183" lon="-7.6960967"><ele>256.75</ele><time>2026-04-14T09:13:55.849Z</time></trkpt><trkpt lat="42.5680383" lon="-7.6959183"><ele>256.5</ele><time>2026-04-14T09:13:56.849Z</time></trkpt><trkpt lat="42.5680617" lon="-7.6957233"><ele>256.25</ele><time>2026-04-14T09:13:57.848Z</time></trkpt><trkpt lat="42.5680883" lon="-7.6955283"><ele>256.0</ele><time>2026-04-14T09:13:58.849Z</time></trkpt><trkpt lat="42.5681033" lon="-7.6953317"><ele>254.33333333333331</ele><time>2026-04-14T09:13:59.848Z</time></trkpt><trkpt lat="42.568115" lon="-7.6951283"><ele>252.66666666666669</ele><time>2026-04-14T09:14:00.849Z</time></trkpt><trkpt lat="42.56814" lon="-7.69491"><ele>251.0</ele><time>2026-04-14T09:14:01.849Z</time></trkpt><trkpt lat="42.5681717" lon="-7.6947233"><ele>251.0</ele><time>2026-04-14T09:14:02.849Z</time></trkpt><trkpt lat="42.56821" lon="-7.694525"><ele>251.0</ele><time>2026-04-14T09:14:03.848Z</time></trkpt><trkpt lat="42.5682483" lon="-7.694335"><ele>251.0</ele><time>2026-04-14T09:14:04.85Z</time></trkpt><trkpt lat="42.568255" lon="-7.694145"><ele>251.0</ele><time>2026-04-14T09:14:05.849Z</time></trkpt><trkpt lat="42.5682533" lon="-7.6939433"><ele>250.0</ele><time>2026-04-14T09:14:06.849Z</time></trkpt><trkpt lat="42.5682617" lon="-7.6937417"><ele>249.0</ele><time>2026-04-14T09:14:07.849Z</time></trkpt><trkpt lat="42.5682583" lon="-7.69356"><ele>248.0</ele><time>2026-04-14T09:14:08.85Z</time></trkpt><trkpt lat="42.5682583" lon="-7.6934017"><ele>247.0</ele><time>2026-04-14T09:14:09.85Z</time></trkpt><trkpt lat="42.56826" lon="-7.6932633"><ele>245.83333333333331</ele><time>2026-04-14T09:14:10.85Z</time></trkpt><trkpt lat="42.56828" lon="-7.6931717"><ele>244.66666666666666</ele><time>2026-04-14T09:14:11.849Z</time></trkpt><trkpt lat="42.5683233" lon="-7.6930867"><ele>243.5</ele><time>2026-04-14T09:14:12.849Z</time></trkpt><trkpt lat="42.5683933" lon="-7.69301"><ele>242.33333333333331</ele><time>2026-04-14T09:14:13.85Z</time></trkpt><trkpt lat="42.5684717" lon="-7.6929217"><ele>241.16666666666666</ele><time>2026-04-14T09:14:14.85Z</time></trkpt><trkpt lat="42.5685467" lon="-7.6928183"><ele>240.0</ele><time>2026-04-14T09:14:15.849Z</time></trkpt><trkpt lat="42.56861" lon="-7.6927117"><ele>241.8</ele><time>2026-04-14T09:14:16.85Z</time></trkpt><trkpt lat="42.568675" lon="-7.6926267"><ele>243.6</ele><time>2026-04-14T09:14:17.85Z</time></trkpt><trkpt lat="42.5687567" lon="-7.6925667"><ele>245.39999999999998</ele><time>2026-04-14T09:14:18.85Z</time></trkpt><trkpt lat="42.5688533" lon="-7.6925233"><ele>247.2</ele><time>2026-04-14T09:14:19.849Z</time></trkpt><trkpt lat="42.5689467" lon="-7.6924783"><ele>249.0</ele><time>2026-04-14T09:14:20.849Z</time></trkpt><trkpt lat="42.5690333" lon="-7.6924267"><ele>249.0</ele><time>2026-04-14T09:14:21.85Z</time></trkpt><trkpt lat="42.5690983" lon="-7.69235"><ele>249.0</ele><time>2026-04-14T09:14:22.85Z</time></trkpt><trkpt lat="42.5691367" lon="-7.6922583"><ele>249.0</ele><time>2026-04-14T09:14:23.849Z</time></trkpt><trkpt lat="42.5691433" lon="-7.69215"><ele>249.0</ele><time>2026-04-14T09:14:24.85Z</time></trkpt><trkpt lat="42.569125" lon="-7.6920383"><ele>249.0</ele><time>2026-04-14T09:14:25.849Z</time></trkpt><trkpt lat="42.5690683" lon="-7.6919067"><ele>249.0</ele><time>2026-04-14T09:14:26.85Z</time></trkpt><trkpt lat="42.56899" lon="-7.6917717"><ele>247.0</ele><time>2026-04-14T09:14:27.849Z</time></trkpt><trkpt lat="42.5689167" lon="-7.6916417"><ele>245.0</ele><time>2026-04-14T09:14:28.85Z</time></trkpt><trkpt lat="42.5688283" lon="-7.6915217"><ele>243.0</ele><time>2026-04-14T09:14:29.849Z</time></trkpt><trkpt lat="42.568735" lon="-7.69141"><ele>241.0</ele><time>2026-04-14T09:14:30.85Z</time></trkpt><trkpt lat="42.5686417" lon="-7.6913217"><ele>238.25</ele><time>2026-04-14T09:14:31.849Z</time></trkpt><trkpt lat="42.5685333" lon="-7.691275"><ele>235.5</ele><time>2026-04-14T09:14:32.85Z</time></trkpt><trkpt lat="42.5684133" lon="-7.6912567"><ele>232.75</ele><time>2026-04-14T09:14:33.85Z</time></trkpt><trkpt lat="42.5682817" lon="-7.6912733"><ele>230.0</ele><time>2026-04-14T09:14:34.85Z</time></trkpt><trkpt lat="42.5681467" lon="-7.6913083"><ele>230.0</ele><time>2026-04-14T09:14:35.849Z</time></trkpt><trkpt lat="42.568025" lon="-7.6913383"><ele>230.0</ele><time>2026-04-14T09:14:36.849Z</time></trkpt><trkpt lat="42.5679233" lon="-7.6913533"><ele>230.0</ele><time>2026-04-14T09:14:37.85Z</time></trkpt><trkpt lat="42.5678383" lon="-7.6913533"><ele>230.0</ele><time>2026-04-14T09:14:38.849Z</time></trkpt><trkpt lat="42.5677583" lon="-7.691325"><ele>230.0</ele><time>2026-04-14T09:14:39.849Z</time></trkpt><trkpt lat="42.56768" lon="-7.691285"><ele>230.2</ele><time>2026-04-14T09:14:40.85Z</time></trkpt><trkpt lat="42.567635" lon="-7.6912017"><ele>230.4</ele><time>2026-04-14T09:14:41.85Z</time></trkpt><trkpt lat="42.56761" lon="-7.69111"><ele>230.60000000000002</ele><time>2026-04-14T09:14:42.849Z</time></trkpt><trkpt lat="42.56761" lon="-7.6909867"><ele>230.8</ele><time>2026-04-14T09:14:43.849Z</time></trkpt><trkpt lat="42.5676167" lon="-7.6908467"><ele>231.0</ele><time>2026-04-14T09:14:44.849Z</time></trkpt><trkpt lat="42.5676283" lon="-7.6906917"><ele>231.0</ele><time>2026-04-14T09:14:45.849Z</time></trkpt><trkpt lat="42.5676467" lon="-7.69052"><ele>231.0</ele><time>2026-04-14T09:14:46.849Z</time></trkpt><trkpt lat="42.5676633" lon="-7.6903383"><ele>231.0</ele><time>2026-04-14T09:14:47.849Z</time></trkpt><trkpt lat="42.5676683" lon="-7.6901317"><ele>231.0</ele><time>2026-04-14T09:14:48.85Z</time></trkpt><trkpt lat="42.5676667" lon="-7.6899267"><ele>231.0</ele><time>2026-04-14T09:14:49.849Z</time></trkpt><trkpt lat="42.5676717" lon="-7.6897"><ele>231.0</ele><time>2026-04-14T09:14:50.85Z</time></trkpt><trkpt lat="42.56767" lon="-7.6894567"><ele>231.0</ele><time>2026-04-14T09:14:51.85Z</time></trkpt><trkpt lat="42.5676583" lon="-7.6892283"><ele>230.66666666666669</ele><time>2026-04-14T09:14:52.85Z</time></trkpt><trkpt lat="42.5676467" lon="-7.689005"><ele>230.33333333333334</ele><time>2026-04-14T09:14:53.85Z</time></trkpt><trkpt lat="42.5676383" lon="-7.6887867"><ele>230.0</ele><time>2026-04-14T09:14:54.85Z</time></trkpt><trkpt lat="42.5676217" lon="-7.6885817"><ele>230.0</ele><time>2026-04-14T09:14:55.849Z</time></trkpt><trkpt lat="42.5676133" lon="-7.6883917"><ele>230.0</ele><time>2026-04-14T09:14:56.85Z</time></trkpt><trkpt lat="42.56761" lon="-7.6882217"><ele>230.0</ele><time>2026-04-14T09:14:57.849Z</time></trkpt><trkpt lat="42.5676017" lon="-7.6880733"><ele>230.0</ele><time>2026-04-14T09:14:58.849Z</time></trkpt><trkpt lat="42.5676183" lon="-7.6879233"><ele>230.0</ele><time>2026-04-14T09:14:59.85Z</time></trkpt><trkpt lat="42.5676417" lon="-7.68778"><ele>230.0</ele><time>2026-04-14T09:15:00.849Z</time></trkpt><trkpt lat="42.5676717" lon="-7.687635"><ele>230.0</ele><time>2026-04-14T09:15:01.849Z</time></trkpt><trkpt lat="42.567665" lon="-7.687525"><ele>230.0</ele><time>2026-04-14T09:15:02.85Z</time></trkpt><trkpt lat="42.5676317" lon="-7.6874333"><ele>230.0</ele><time>2026-04-14T09:15:03.849Z</time></trkpt><trkpt lat="42.567575" lon="-7.687365"><ele>232.0</ele><time>2026-04-14T09:15:04.849Z</time></trkpt><trkpt lat="42.5674967" lon="-7.6873183"><ele>234.0</ele><time>2026-04-14T09:15:05.849Z</time></trkpt><trkpt lat="42.5673933" lon="-7.6872683"><ele>236.0</ele><time>2026-04-14T09:15:06.85Z</time></trkpt><trkpt lat="42.5673017" lon="-7.68719"><ele>238.0</ele><time>2026-04-14T09:15:07.849Z</time></trkpt><trkpt lat="42.56723" lon="-7.687065"><ele>240.0</ele><time>2026-04-14T09:15:08.85Z</time></trkpt><trkpt lat="42.5671667" lon="-7.6869133"><ele>243.25</ele><time>2026-04-14T09:15:09.849Z</time></trkpt><trkpt lat="42.567115" lon="-7.6867583"><ele>246.5</ele><time>2026-04-14T09:15:10.849Z</time></trkpt><trkpt lat="42.5670483" lon="-7.6865817"><ele>249.75</ele><time>2026-04-14T09:15:11.849Z</time></trkpt><trkpt lat="42.5669733" lon="-7.6864"><ele>253.0</ele><time>2026-04-14T09:15:12.849Z</time></trkpt><trkpt lat="42.56761" lon="-7.69111"><ele>248.60000000000002</ele><time>2026-04-14T09:14:42.849Z</time></trkpt><trkpt lat="42.56761" lon="-7.6909867"><ele>244.20000000000002</ele><time>2026-04-14T09:14:43.849Z</time></trkpt><trkpt lat="42.5676167" lon="-7.6908467"><ele>239.8</ele><time>2026-04-14T09:14:44.849Z</time></trkpt><trkpt lat="42.5676283" lon="-7.6906917"><ele>235.4</ele><time>2026-04-14T09:14:45.849Z</time></trkpt><trkpt lat="42.5676467" lon="-7.69052"><ele>231.0</ele><time>2026-04-14T09:14:46.849Z</time></trkpt><trkpt lat="42.5676633" lon="-7.6903383"><ele>231.0</ele><time>2026-04-14T09:14:47.849Z</time></trkpt><trkpt lat="42.5676683" lon="-7.6901317"><ele>231.0</ele><time>2026-04-14T09:14:48.85Z</time></trkpt><trkpt lat="42.5676667" lon="-7.6899267"><ele>231.0</ele><time>2026-04-14T09:14:49.849Z</time></trkpt><trkpt lat="42.5676717" lon="-7.6897"><ele>231.0</ele><time>2026-04-14T09:14:50.85Z</time></trkpt><trkpt lat="42.56767" lon="-7.6894567"><ele>231.0</ele><time>2026-04-14T09:14:51.85Z</time></trkpt><trkpt lat="42.5676583" lon="-7.6892283"><ele>231.0</ele><time>2026-04-14T09:14:52.85Z</time></trkpt><trkpt lat="42.5676467" lon="-7.689005"><ele>230.66666666666669</ele><time>2026-04-14T09:14:53.85Z</time></trkpt><trkpt lat="42.5676383" lon="-7.6887867"><ele>230.33333333333334</ele><time>2026-04-14T09:14:54.85Z</time></trkpt><trkpt lat="42.5676217" lon="-7.6885817"><ele>230.0</ele><time>2026-04-14T09:14:55.849Z</time></trkpt><trkpt lat="42.5676133" lon="-7.6883917"><ele>230.0</ele><time>2026-04-14T09:14:56.85Z</time></trkpt><trkpt lat="42.56761" lon="-7.6882217"><ele>230.0</ele><time>2026-04-14T09:14:57.849Z</time></trkpt><trkpt lat="42.5676017" lon="-7.6880733"><ele>230.0</ele><time>2026-04-14T09:14:58.849Z</time></trkpt><trkpt lat="42.5676183" lon="-7.6879233"><ele>230.0</ele><time>2026-04-14T09:14:59.85Z</time></trkpt><trkpt lat="42.5676417" lon="-7.68778"><ele>231.66666666666669</ele><time>2026-04-14T09:15:00.849Z</time></trkpt><trkpt lat="42.5676717" lon="-7.687635"><ele>233.33333333333334</ele><time>2026-04-14T09:15:01.849Z</time></trkpt><trkpt lat="42.567665" lon="-7.687525"><ele>235.0</ele><time>2026-04-14T09:15:02.85Z</time></trkpt><trkpt lat="42.5676317" lon="-7.6874333"><ele>236.66666666666669</ele><time>2026-04-14T09:15:03.849Z</time></trkpt><trkpt lat="42.567575" lon="-7.687365"><ele>238.33333333333334</ele><time>2026-04-14T09:15:04.849Z</time></trkpt><trkpt lat="42.5674967" lon="-7.6873183"><ele>240.0</ele><time>2026-04-14T09:15:05.849Z</time></trkpt><trkpt lat="42.5673933" lon="-7.6872683"><ele>240.0</ele><time>2026-04-14T09:15:06.85Z</time></trkpt><trkpt lat="42.5673017" lon="-7.68719"><ele>240.0</ele><time>2026-04-14T09:15:07.849Z</time></trkpt><trkpt lat="42.56723" lon="-7.687065"><ele>240.0</ele><time>2026-04-14T09:15:08.85Z</time></trkpt><trkpt lat="42.5671667" lon="-7.6869133"><ele>240.0</ele><time>2026-04-14T09:15:09.849Z</time></trkpt><trkpt lat="42.567115" lon="-7.6867583"><ele>244.33333333333331</ele><time>2026-04-14T09:15:10.849Z</time></trkpt><trkpt lat="42.5670483" lon="-7.6865817"><ele>248.66666666666666</ele><time>2026-04-14T09:15:11.849Z</time></trkpt><trkpt lat="42.5669733" lon="-7.6864"><ele>253.0</ele><time>2026-04-14T09:15:12.849Z</time></trkpt><trkpt lat="42.566895" lon="-7.6862067"><ele>245.0</ele><time>2026-04-14T09:15:13.849Z</time></trkpt><trkpt lat="42.5668217" lon="-7.6860217"><ele>237.0</ele><time>2026-04-14T09:15:14.849Z</time></trkpt><trkpt lat="42.5667383" lon="-7.6858317"><ele>229.0</ele><time>2026-04-14T09:15:15.85Z</time></trkpt><trkpt lat="42.56666" lon="-7.6856567"><ele>229.0</ele><time>2026-04-14T09:15:16.849Z</time></trkpt><trkpt lat="42.566575" lon="-7.685495"><ele>229.0</ele><time>2026-04-14T09:15:17.849Z</time></trkpt><trkpt lat="42.5664917" lon="-7.6853483"><ele>229.0</ele><time>2026-04-14T09:15:18.849Z</time></trkpt><trkpt lat="42.5663917" lon="-7.6852417"><ele>229.0</ele><time>2026-04-14T09:15:19.849Z</time></trkpt><trkpt lat="42.5662783" lon="-7.6851467"><ele>226.25</ele><time>2026-04-14T09:15:20.85Z</time></trkpt><trkpt lat="42.5661767" lon="-7.6850317"><ele>223.5</ele><time>2026-04-14T09:15:21.849Z</time></trkpt><trkpt lat="42.5660883" lon="-7.6848967"><ele>220.75</ele><time>2026-04-14T09:15:22.849Z</time></trkpt><trkpt lat="42.566" lon="-7.684755"><ele>218.0</ele><time>2026-04-14T09:15:23.85Z</time></trkpt><trkpt lat="42.565925" lon="-7.68461"><ele>218.00000000000003</ele><time>2026-04-14T09:15:24.849Z</time></trkpt><trkpt lat="42.565865" lon="-7.684485"><ele>218.0</ele><time>2026-04-14T09:15:25.85Z</time></trkpt><trkpt lat="42.565825" lon="-7.6843733"><ele>218.0</ele><time>2026-04-14T09:15:26.85Z</time></trkpt><trkpt lat="42.5658083" lon="-7.6842617"><ele>218.0</ele><time>2026-04-14T09:15:27.85Z</time></trkpt><trkpt lat="42.565805" lon="-7.68416"><ele>218.00000000000003</ele><time>2026-04-14T09:15:28.85Z</time></trkpt><trkpt lat="42.565815" lon="-7.6840617"><ele>218.0</ele><time>2026-04-14T09:15:29.849Z</time></trkpt><trkpt lat="42.56581" lon="-7.683975"><ele>220.4</ele><time>2026-04-14T09:15:30.85Z</time></trkpt><trkpt lat="42.56579" lon="-7.6838783"><ele>222.8</ele><time>2026-04-14T09:15:31.85Z</time></trkpt><trkpt lat="42.5657317" lon="-7.6838"><ele>225.2</ele><time>2026-04-14T09:15:32.849Z</time></trkpt><trkpt lat="42.5656567" lon="-7.6837383"><ele>227.6</ele><time>2026-04-14T09:15:33.85Z</time></trkpt><trkpt lat="42.56557" lon="-7.6836817"><ele>230.0</ele><time>2026-04-14T09:15:34.849Z</time></trkpt><trkpt lat="42.56546" lon="-7.6836183"><ele>227.0</ele><time>2026-04-14T09:15:35.85Z</time></trkpt><trkpt lat="42.5653383" lon="-7.6835433"><ele>224.0</ele><time>2026-04-14T09:15:36.85Z</time></trkpt><trkpt lat="42.565225" lon="-7.6834383"><ele>221.0</ele><time>2026-04-14T09:15:37.849Z</time></trkpt><trkpt lat="42.5650967" lon="-7.6833317"><ele>218.0</ele><time>2026-04-14T09:15:38.849Z</time></trkpt><trkpt lat="42.56498" lon="-7.6832333"><ele>218.0</ele><time>2026-04-14T09:15:39.849Z</time></trkpt><trkpt lat="42.56488" lon="-7.68316"><ele>218.0</ele><time>2026-04-14T09:15:40.849Z</time></trkpt><trkpt lat="42.5647933" lon="-7.6830967"><ele>218.0</ele><time>2026-04-14T09:15:41.849Z</time></trkpt><trkpt lat="42.564735" lon="-7.6830417"><ele>218.0</ele><time>2026-04-14T09:15:42.849Z</time></trkpt><trkpt lat="42.56469" lon="-7.6829783"><ele>218.0</ele><time>2026-04-14T09:15:43.849Z</time></trkpt><trkpt lat="42.564685" lon="-7.6828233"><ele>218.83333333333334</ele><time>2026-04-14T09:15:45.85Z</time></trkpt><trkpt lat="42.564725" lon="-7.6827567"><ele>219.66666666666669</ele><time>2026-04-14T09:15:46.849Z</time></trkpt><trkpt lat="42.5647817" lon="-7.6827"><ele>220.5</ele><time>2026-04-14T09:15:47.849Z</time></trkpt><trkpt lat="42.56485" lon="-7.682645"><ele>221.33333333333331</ele><time>2026-04-14T09:15:48.85Z</time></trkpt><trkpt lat="42.5649467" lon="-7.682595"><ele>222.16666666666666</ele><time>2026-04-14T09:15:49.849Z</time></trkpt><trkpt lat="42.56505" lon="-7.6825283"><ele>223.0</ele><time>2026-04-14T09:15:50.85Z</time></trkpt><trkpt lat="42.5651533" lon="-7.682445"><ele>223.0</ele><time>2026-04-14T09:15:51.85Z</time></trkpt><trkpt lat="42.56525" lon="-7.6823467"><ele>223.0</ele><time>2026-04-14T09:15:52.85Z</time></trkpt><trkpt lat="42.5653333" lon="-7.6822333"><ele>223.0</ele><time>2026-04-14T09:15:53.85Z</time></trkpt><trkpt lat="42.5653917" lon="-7.6821467"><ele>223.0</ele><time>2026-04-14T09:15:54.849Z</time></trkpt><trkpt lat="42.5654533" lon="-7.6820783"><ele>223.0</ele><time>2026-04-14T09:15:55.849Z</time></trkpt><trkpt lat="42.5655367" lon="-7.6820233"><ele>226.8</ele><time>2026-04-14T09:15:56.849Z</time></trkpt><trkpt lat="42.56563" lon="-7.6819883"><ele>230.60000000000002</ele><time>2026-04-14T09:15:57.849Z</time></trkpt><trkpt lat="42.5657233" lon="-7.6819483"><ele>234.39999999999998</ele><time>2026-04-14T09:15:58.85Z</time></trkpt><trkpt lat="42.5658267" lon="-7.681895"><ele>238.2</ele><time>2026-04-14T09:15:59.85Z</time></trkpt><trkpt lat="42.5659383" lon="-7.681825"><ele>242.0</ele><time>2026-04-14T09:16:00.849Z</time></trkpt><trkpt lat="42.5660433" lon="-7.6817183"><ele>242.0</ele><time>2026-04-14T09:16:01.85Z</time></trkpt><trkpt lat="42.5661433" lon="-7.6815833"><ele>242.0</ele><time>2026-04-14T09:16:02.849Z</time></trkpt><trkpt lat="42.5662317" lon="-7.681435"><ele>242.0</ele><time>2026-04-14T09:16:03.849Z</time></trkpt><trkpt lat="42.5663" lon="-7.6812917"><ele>242.0</ele><time>2026-04-14T09:16:04.85Z</time></trkpt><trkpt lat="42.566365" lon="-7.6811583"><ele>246.0</ele><time>2026-04-14T09:16:05.849Z</time></trkpt><trkpt lat="42.5664283" lon="-7.6810533"><ele>250.0</ele><time>2026-04-14T09:16:06.85Z</time></trkpt><trkpt lat="42.566485" lon="-7.6809683"><ele>254.0</ele><time>2026-04-14T09:16:07.849Z</time></trkpt><trkpt lat="42.56652" lon="-7.68089"><ele>258.0</ele><time>2026-04-14T09:16:08.85Z</time></trkpt><trkpt lat="42.5665133" lon="-7.68074"><ele>262.0</ele><time>2026-04-14T09:16:10.85Z</time></trkpt><trkpt lat="42.5664117" lon="-7.6806917"><ele>262.0</ele><time>2026-04-14T09:16:12.85Z</time></trkpt><trkpt lat="42.5663317" lon="-7.6807033"><ele>262.0</ele><time>2026-04-14T09:16:13.849Z</time></trkpt><trkpt lat="42.5662467" lon="-7.6807133"><ele>262.0</ele><time>2026-04-14T09:16:14.85Z</time></trkpt><trkpt lat="42.56613" lon="-7.6807417"><ele>262.0</ele><time>2026-04-14T09:16:15.849Z</time></trkpt><trkpt lat="42.5660067" lon="-7.68079"><ele>262.0</ele><time>2026-04-14T09:16:16.849Z</time></trkpt><trkpt lat="42.5658583" lon="-7.68085"><ele>260.25</ele><time>2026-04-14T09:16:17.85Z</time></trkpt><trkpt lat="42.5657117" lon="-7.6808733"><ele>258.5</ele><time>2026-04-14T09:16:18.85Z</time></trkpt><trkpt lat="42.5655667" lon="-7.680865"><ele>256.75</ele><time>2026-04-14T09:16:19.85Z</time></trkpt><trkpt lat="42.565435" lon="-7.6808533"><ele>255.0</ele><time>2026-04-14T09:16:20.85Z</time></trkpt><trkpt lat="42.56531" lon="-7.680815"><ele>253.5</ele><time>2026-04-14T09:16:21.85Z</time></trkpt><trkpt lat="42.5652033" lon="-7.6807533"><ele>252.0</ele><time>2026-04-14T09:16:22.849Z</time></trkpt><trkpt lat="42.565095" lon="-7.6806633"><ele>250.5</ele><time>2026-04-14T09:16:23.849Z</time></trkpt><trkpt lat="42.5650117" lon="-7.68056"><ele>249.0</ele><time>2026-04-14T09:16:24.849Z</time></trkpt><trkpt lat="42.5649417" lon="-7.6804383"><ele>249.0</ele><time>2026-04-14T09:16:25.85Z</time></trkpt><trkpt lat="42.5648817" lon="-7.680295"><ele>249.0</ele><time>2026-04-14T09:16:26.849Z</time></trkpt><trkpt lat="42.564825" lon="-7.680135"><ele>249.0</ele><time>2026-04-14T09:16:27.849Z</time></trkpt><trkpt lat="42.5647783" lon="-7.6799783"><ele>249.0</ele><time>2026-04-14T09:16:28.85Z</time></trkpt><trkpt lat="42.5647217" lon="-7.679825"><ele>251.6</ele><time>2026-04-14T09:16:29.85Z</time></trkpt><trkpt lat="42.5646517" lon="-7.6797"><ele>254.2</ele><time>2026-04-14T09:16:30.849Z</time></trkpt><trkpt lat="42.564585" lon="-7.6796217"><ele>256.79999999999995</ele><time>2026-04-14T09:16:31.849Z</time></trkpt><trkpt lat="42.5645133" lon="-7.679575"><ele>259.4</ele><time>2026-04-14T09:16:32.85Z</time></trkpt><trkpt lat="42.564425" lon="-7.6795533"><ele>262.0</ele><time>2026-04-14T09:16:33.849Z</time></trkpt><trkpt lat="42.5643133" lon="-7.679555"><ele>262.0</ele><time>2026-04-14T09:16:34.849Z</time></trkpt><trkpt lat="42.5641883" lon="-7.6795583"><ele>262.0</ele><time>2026-04-14T09:16:35.849Z</time></trkpt><trkpt lat="42.5640667" lon="-7.6795817"><ele>262.0</ele><time>2026-04-14T09:16:36.849Z</time></trkpt><trkpt lat="42.5639367" lon="-7.679625"><ele>262.0</ele><time>2026-04-14T09:16:37.849Z</time></trkpt><trkpt lat="42.5638017" lon="-7.679675"><ele>262.0</ele><time>2026-04-14T09:16:38.849Z</time></trkpt><trkpt lat="42.5636783" lon="-7.6797283"><ele>262.0</ele><time>2026-04-14T09:16:39.849Z</time></trkpt><trkpt lat="42.563575" lon="-7.679775"><ele>262.0</ele><time>2026-04-14T09:16:40.849Z</time></trkpt><trkpt lat="42.563475" lon="-7.6797967"><ele>262.0</ele><time>2026-04-14T09:16:41.849Z</time></trkpt><trkpt lat="42.5665133" lon="-7.68074"><ele>262.0</ele><time>2026-04-14T09:16:10.85Z</time></trkpt><trkpt lat="42.5664117" lon="-7.6806917"><ele>262.0</ele><time>2026-04-14T09:16:12.85Z</time></trkpt><trkpt lat="42.5663317" lon="-7.6807033"><ele>262.0</ele><time>2026-04-14T09:16:13.849Z</time></trkpt><trkpt lat="42.5662467" lon="-7.6807133"><ele>262.0</ele><time>2026-04-14T09:16:14.85Z</time></trkpt><trkpt lat="42.56613" lon="-7.6807417"><ele>262.0</ele><time>2026-04-14T09:16:15.849Z</time></trkpt><trkpt lat="42.5660067" lon="-7.68079"><ele>260.25</ele><time>2026-04-14T09:16:16.849Z</time></trkpt><trkpt lat="42.5658583" lon="-7.68085"><ele>258.5</ele><time>2026-04-14T09:16:17.85Z</time></trkpt><trkpt lat="42.5657117" lon="-7.6808733"><ele>256.75</ele><time>2026-04-14T09:16:18.85Z</time></trkpt><trkpt lat="42.5655667" lon="-7.680865"><ele>255.0</ele><time>2026-04-14T09:16:19.85Z</time></trkpt><trkpt lat="42.565435" lon="-7.6808533"><ele>253.5</ele><time>2026-04-14T09:16:20.85Z</time></trkpt><trkpt lat="42.56531" lon="-7.680815"><ele>252.0</ele><time>2026-04-14T09:16:21.85Z</time></trkpt><trkpt lat="42.5652033" lon="-7.6807533"><ele>250.5</ele><time>2026-04-14T09:16:22.849Z</time></trkpt><trkpt lat="42.565095" lon="-7.6806633"><ele>249.0</ele><time>2026-04-14T09:16:23.849Z</time></trkpt><trkpt lat="42.5650117" lon="-7.68056"><ele>249.0</ele><time>2026-04-14T09:16:24.849Z</time></trkpt><trkpt lat="42.5649417" lon="-7.6804383"><ele>249.0</ele><time>2026-04-14T09:16:25.85Z</time></trkpt><trkpt lat="42.5648817" lon="-7.680295"><ele>249.0</ele><time>2026-04-14T09:16:26.849Z</time></trkpt><trkpt lat="42.564825" lon="-7.680135"><ele>249.0</ele><time>2026-04-14T09:16:27.849Z</time></trkpt><trkpt lat="42.5647783" lon="-7.6799783"><ele>251.6</ele><time>2026-04-14T09:16:28.85Z</time></trkpt><trkpt lat="42.5647217" lon="-7.679825"><ele>254.2</ele><time>2026-04-14T09:16:29.85Z</time></trkpt><trkpt lat="42.5646517" lon="-7.6797"><ele>256.79999999999995</ele><time>2026-04-14T09:16:30.849Z</time></trkpt><trkpt lat="42.564585" lon="-7.6796217"><ele>259.4</ele><time>2026-04-14T09:16:31.849Z</time></trkpt><trkpt lat="42.5645133" lon="-7.679575"><ele>262.0</ele><time>2026-04-14T09:16:32.85Z</time></trkpt><trkpt lat="42.564425" lon="-7.6795533"><ele>262.0</ele><time>2026-04-14T09:16:33.849Z</time></trkpt><trkpt lat="42.5643133" lon="-7.679555"><ele>262.0</ele><time>2026-04-14T09:16:34.849Z</time></trkpt><trkpt lat="42.5641883" lon="-7.6795583"><ele>262.0</ele><time>2026-04-14T09:16:35.849Z</time></trkpt><trkpt lat="42.5640667" lon="-7.6795817"><ele>262.0</ele><time>2026-04-14T09:16:36.849Z</time></trkpt><trkpt lat="42.5639367" lon="-7.679625"><ele>262.0</ele><time>2026-04-14T09:16:37.849Z</time></trkpt><trkpt lat="42.5638017" lon="-7.679675"><ele>262.0</ele><time>2026-04-14T09:16:38.849Z</time></trkpt><trkpt lat="42.5636783" lon="-7.6797283"><ele>262.0</ele><time>2026-04-14T09:16:39.849Z</time></trkpt><trkpt lat="42.563575" lon="-7.679775"><ele>262.0</ele><time>2026-04-14T09:16:40.849Z</time></trkpt><trkpt lat="42.563475" lon="-7.6797967"><ele>262.25</ele><time>2026-04-14T09:16:41.849Z</time></trkpt><trkpt lat="42.56337" lon="-7.6797783"><ele>262.5</ele><time>2026-04-14T09:16:42.85Z</time></trkpt><trkpt lat="42.56326" lon="-7.679735"><ele>262.75</ele><time>2026-04-14T09:16:43.849Z</time></trkpt><trkpt lat="42.5631567" lon="-7.6796767"><ele>263.0</ele><time>2026-04-14T09:16:44.85Z</time></trkpt><trkpt lat="42.563045" lon="-7.67961"><ele>263.0</ele><time>2026-04-14T09:16:45.849Z</time></trkpt><trkpt lat="42.5629383" lon="-7.67956"><ele>263.0</ele><time>2026-04-14T09:16:46.85Z</time></trkpt><trkpt lat="42.56283" lon="-7.6795067"><ele>263.0</ele><time>2026-04-14T09:16:47.849Z</time></trkpt><trkpt lat="42.562735" lon="-7.6794583"><ele>263.0</ele><time>2026-04-14T09:16:48.849Z</time></trkpt><trkpt lat="42.5626717" lon="-7.6793867"><ele>263.0</ele><time>2026-04-14T09:16:49.85Z</time></trkpt><trkpt lat="42.5626167" lon="-7.6792883"><ele>267.6</ele><time>2026-04-14T09:16:50.85Z</time></trkpt><trkpt lat="42.5625617" lon="-7.6791683"><ele>272.20000000000005</ele><time>2026-04-14T09:16:51.849Z</time></trkpt><trkpt lat="42.562505" lon="-7.6790483"><ele>276.8</ele><time>2026-04-14T09:16:52.849Z</time></trkpt><trkpt lat="42.5624567" lon="-7.6789283"><ele>281.40000000000003</ele><time>2026-04-14T09:16:53.849Z</time></trkpt><trkpt lat="42.562415" lon="-7.6788367"><ele>286.0</ele><time>2026-04-14T09:16:54.85Z</time></trkpt><trkpt lat="42.562325" lon="-7.6787533"><ele>286.0</ele><time>2026-04-14T09:16:56.849Z</time></trkpt><trkpt lat="42.5622833" lon="-7.6788267"><ele>286.0</ele><time>2026-04-14T09:16:58.849Z</time></trkpt><trkpt lat="42.5622467" lon="-7.6789017"><ele>286.0</ele><time>2026-04-14T09:16:59.849Z</time></trkpt><trkpt lat="42.5621867" lon="-7.6789933"><ele>286.0</ele><time>2026-04-14T09:17:00.85Z</time></trkpt><trkpt lat="42.562095" lon="-7.6790783"><ele>286.0</ele><time>2026-04-14T09:17:01.85Z</time></trkpt><trkpt lat="42.562" lon="-7.6791367"><ele>286.0</ele><time>2026-04-14T09:17:02.85Z</time></trkpt><trkpt lat="42.56189" lon="-7.6791867"><ele>287.5</ele><time>2026-04-14T09:17:03.85Z</time></trkpt><trkpt lat="42.5617917" lon="-7.6791833"><ele>289.0</ele><time>2026-04-14T09:17:04.849Z</time></trkpt><trkpt lat="42.561725" lon="-7.6791667"><ele>290.5</ele><time>2026-04-14T09:17:05.85Z</time></trkpt><trkpt lat="42.5617" lon="-7.67908"><ele>292.0</ele><time>2026-04-14T09:17:08.849Z</time></trkpt><trkpt lat="42.5618083" lon="-7.679035"><ele>293.5</ele><time>2026-04-14T09:17:10.849Z</time></trkpt><trkpt lat="42.56187" lon="-7.679"><ele>295.0</ele><time>2026-04-14T09:17:11.85Z</time></trkpt><trkpt lat="42.56193" lon="-7.6789467"><ele>295.0</ele><time>2026-04-14T09:17:12.849Z</time></trkpt><trkpt lat="42.56198" lon="-7.67887"><ele>295.0</ele><time>2026-04-14T09:17:13.849Z</time></trkpt><trkpt lat="42.5620267" lon="-7.6787633"><ele>295.0</ele><time>2026-04-14T09:17:14.85Z</time></trkpt><trkpt lat="42.5620683" lon="-7.678635"><ele>295.0</ele><time>2026-04-14T09:17:15.849Z</time></trkpt><trkpt lat="42.5621067" lon="-7.6784917"><ele>295.0</ele><time>2026-04-14T09:17:16.849Z</time></trkpt><trkpt lat="42.5621483" lon="-7.6783417"><ele>300.0</ele><time>2026-04-14T09:17:17.849Z</time></trkpt><trkpt lat="42.5621867" lon="-7.6781783"><ele>305.0</ele><time>2026-04-14T09:17:18.849Z</time></trkpt><trkpt lat="42.5622317" lon="-7.6780183"><ele>310.0</ele><time>2026-04-14T09:17:19.85Z</time></trkpt><trkpt lat="42.5622767" lon="-7.6778733"><ele>315.0</ele><time>2026-04-14T09:17:20.849Z</time></trkpt><trkpt lat="42.5623167" lon="-7.67776"><ele>315.0</ele><time>2026-04-14T09:17:21.849Z</time></trkpt><trkpt lat="42.562355" lon="-7.677675"><ele>315.0</ele><time>2026-04-14T09:17:22.849Z</time></trkpt><trkpt lat="42.5624667" lon="-7.6776583"><ele>315.0</ele><time>2026-04-14T09:17:24.849Z</time></trkpt><trkpt lat="42.5625383" lon="-7.67772"><ele>315.0</ele><time>2026-04-14T09:17:25.85Z</time></trkpt><trkpt lat="42.562595" lon="-7.6778167"><ele>315.0</ele><time>2026-04-14T09:17:26.849Z</time></trkpt><trkpt lat="42.56264" lon="-7.6779467"><ele>315.0</ele><time>2026-04-14T09:17:27.849Z</time></trkpt><trkpt lat="42.5626967" lon="-7.678055"><ele>315.0</ele><time>2026-04-14T09:17:28.849Z</time></trkpt><trkpt lat="42.56276" lon="-7.678135"><ele>315.0</ele><time>2026-04-14T09:17:29.85Z</time></trkpt><trkpt lat="42.5628267" lon="-7.6781667"><ele>315.0</ele><time>2026-04-14T09:17:30.849Z</time></trkpt><trkpt lat="42.56289" lon="-7.6781717"><ele>315.0</ele><time>2026-04-14T09:17:31.85Z</time></trkpt><trkpt lat="42.5629717" lon="-7.6781667"><ele>315.0</ele><time>2026-04-14T09:17:32.85Z</time></trkpt><trkpt lat="42.5630617" lon="-7.6781617"><ele>317.75</ele><time>2026-04-14T09:17:33.85Z</time></trkpt><trkpt lat="42.5631617" lon="-7.678145"><ele>320.5</ele><time>2026-04-14T09:17:34.849Z</time></trkpt><trkpt lat="42.5632717" lon="-7.6781117"><ele>323.25</ele><time>2026-04-14T09:17:35.849Z</time></trkpt><trkpt lat="42.563405" lon="-7.678065"><ele>326.0</ele><time>2026-04-14T09:17:36.85Z</time></trkpt><trkpt lat="42.5635417" lon="-7.6780167"><ele>326.0</ele><time>2026-04-14T09:17:37.849Z</time></trkpt><trkpt lat="42.5636767" lon="-7.67798"><ele>326.0</ele><time>2026-04-14T09:17:38.849Z</time></trkpt><trkpt lat="42.563805" lon="-7.6779417"><ele>326.0</ele><time>2026-04-14T09:17:39.849Z</time></trkpt><trkpt lat="42.5639233" lon="-7.6778917"><ele>326.0</ele><time>2026-04-14T09:17:40.849Z</time></trkpt><trkpt lat="42.56403" lon="-7.6778267"><ele>333.5</ele><time>2026-04-14T09:17:41.849Z</time></trkpt><trkpt lat="42.56413" lon="-7.677725"><ele>341.0</ele><time>2026-04-14T09:17:42.849Z</time></trkpt><trkpt lat="42.564225" lon="-7.677615"><ele>348.5</ele><time>2026-04-14T09:17:43.849Z</time></trkpt><trkpt lat="42.5643217" lon="-7.6774933"><ele>356.0</ele><time>2026-04-14T09:17:44.849Z</time></trkpt><trkpt lat="42.5644267" lon="-7.6773717"><ele>354.25</ele><time>2026-04-14T09:17:45.849Z</time></trkpt><trkpt lat="42.56454" lon="-7.677255"><ele>352.5</ele><time>2026-04-14T09:17:46.85Z</time></trkpt><trkpt lat="42.564655" lon="-7.6771467"><ele>350.75</ele><time>2026-04-14T09:17:47.85Z</time></trkpt><trkpt lat="42.5647567" lon="-7.67703"><ele>349.0</ele><time>2026-04-14T09:17:48.849Z</time></trkpt><trkpt lat="42.5648317" lon="-7.67692"><ele>353.4</ele><time>2026-04-14T09:17:49.849Z</time></trkpt><trkpt lat="42.56487" lon="-7.6768117"><ele>357.79999999999995</ele><time>2026-04-14T09:17:50.85Z</time></trkpt><trkpt lat="42.5648683" lon="-7.6766833"><ele>362.20000000000005</ele><time>2026-04-14T09:17:52.849Z</time></trkpt><trkpt lat="42.56475" lon="-7.67676"><ele>366.6</ele><time>2026-04-14T09:17:56.849Z</time></trkpt><trkpt lat="42.5646783" lon="-7.6768133"><ele>371.0</ele><time>2026-04-14T09:17:57.85Z</time></trkpt><trkpt lat="42.5645917" lon="-7.67685"><ele>373.75</ele><time>2026-04-14T09:17:58.849Z</time></trkpt><trkpt lat="42.5644917" lon="-7.6768883"><ele>376.5</ele><time>2026-04-14T09:17:59.849Z</time></trkpt><trkpt lat="42.56439" lon="-7.67693"><ele>379.25</ele><time>2026-04-14T09:18:00.85Z</time></trkpt><trkpt lat="42.56428" lon="-7.6769783"><ele>382.0</ele><time>2026-04-14T09:18:01.849Z</time></trkpt><trkpt lat="42.5641533" lon="-7.6770367"><ele>375.75</ele><time>2026-04-14T09:18:02.85Z</time></trkpt><trkpt lat="42.56402" lon="-7.6770933"><ele>369.5</ele><time>2026-04-14T09:18:03.85Z</time></trkpt><trkpt lat="42.5638883" lon="-7.6771433"><ele>363.25</ele><time>2026-04-14T09:18:04.85Z</time></trkpt><trkpt lat="42.5637667" lon="-7.6771933"><ele>357.0</ele><time>2026-04-14T09:18:05.849Z</time></trkpt><trkpt lat="42.563655" lon="-7.6772267"><ele>357.0</ele><time>2026-04-14T09:18:06.849Z</time></trkpt><trkpt lat="42.5635567" lon="-7.677235"><ele>357.0</ele><time>2026-04-14T09:18:07.85Z</time></trkpt><trkpt lat="42.5634683" lon="-7.6772083"><ele>357.0</ele><time>2026-04-14T09:18:08.85Z</time></trkpt><trkpt lat="42.5633833" lon="-7.6771617"><ele>357.0</ele><time>2026-04-14T09:18:09.85Z</time></trkpt><trkpt lat="42.56331" lon="-7.6770833"><ele>357.0</ele><time>2026-04-14T09:18:10.849Z</time></trkpt><trkpt lat="42.5632417" lon="-7.6769933"><ele>363.75</ele><time>2026-04-14T09:18:11.85Z</time></trkpt><trkpt lat="42.5631733" lon="-7.6768717"><ele>370.5</ele><time>2026-04-14T09:18:12.849Z</time></trkpt><trkpt lat="42.5631083" lon="-7.6767433"><ele>377.25</ele><time>2026-04-14T09:18:13.849Z</time></trkpt><trkpt lat="42.56304" lon="-7.6766083"><ele>384.0</ele><time>2026-04-14T09:18:14.849Z</time></trkpt><trkpt lat="42.5629733" lon="-7.6764633"><ele>384.0</ele><time>2026-04-14T09:18:15.85Z</time></trkpt><trkpt lat="42.5628967" lon="-7.6763267"><ele>384.0</ele><time>2026-04-14T09:18:16.849Z</time></trkpt><trkpt lat="42.5628133" lon="-7.6761833"><ele>384.0</ele><time>2026-04-14T09:18:17.85Z</time></trkpt><trkpt lat="42.562725" lon="-7.6760367"><ele>384.0</ele><time>2026-04-14T09:18:18.85Z</time></trkpt><trkpt lat="42.562625" lon="-7.67591"><ele>385.0</ele><time>2026-04-14T09:18:19.85Z</time></trkpt><trkpt lat="42.5625083" lon="-7.6757917"><ele>386.0</ele><time>2026-04-14T09:18:20.85Z</time></trkpt><trkpt lat="42.56238" lon="-7.6756967"><ele>387.0</ele><time>2026-04-14T09:18:21.849Z</time></trkpt><trkpt lat="42.56225" lon="-7.6756067"><ele>388.0</ele><time>2026-04-14T09:18:22.849Z</time></trkpt><trkpt lat="42.5621367" lon="-7.67551"><ele>388.0</ele><time>2026-04-14T09:18:23.849Z</time></trkpt><trkpt lat="42.5620383" lon="-7.6754033"><ele>388.0</ele><time>2026-04-14T09:18:24.85Z</time></trkpt><trkpt lat="42.5619317" lon="-7.67531"><ele>388.0</ele><time>2026-04-14T09:18:25.849Z</time></trkpt><trkpt lat="42.5618217" lon="-7.6752183"><ele>388.0</ele><time>2026-04-14T09:18:26.849Z</time></trkpt><trkpt lat="42.5617217" lon="-7.6751383"><ele>390.1666666666667</ele><time>2026-04-14T09:18:27.849Z</time></trkpt><trkpt lat="42.5616383" lon="-7.6750833"><ele>392.33333333333337</ele><time>2026-04-14T09:18:28.849Z</time></trkpt><trkpt lat="42.5615617" lon="-7.6750367"><ele>394.5</ele><time>2026-04-14T09:18:29.849Z</time></trkpt><trkpt lat="42.5614917" lon="-7.6749967"><ele>396.66666666666663</ele><time>2026-04-14T09:18:30.849Z</time></trkpt><trkpt lat="42.5614233" lon="-7.67497"><ele>398.8333333333333</ele><time>2026-04-14T09:18:31.849Z</time></trkpt><trkpt lat="42.5613467" lon="-7.674955"><ele>401.0</ele><time>2026-04-14T09:18:32.849Z</time></trkpt><trkpt lat="42.561275" lon="-7.6749483"><ele>400.99999999999994</ele><time>2026-04-14T09:18:33.849Z</time></trkpt><trkpt lat="42.5612117" lon="-7.6749683"><ele>401.0</ele><time>2026-04-14T09:18:34.85Z</time></trkpt><trkpt lat="42.5611167" lon="-7.675095"><ele>401.0</ele><time>2026-04-14T09:18:36.849Z</time></trkpt><trkpt lat="42.5610867" lon="-7.6751833"><ele>401.0</ele><time>2026-04-14T09:18:37.849Z</time></trkpt><trkpt lat="42.561055" lon="-7.6752883"><ele>400.99999999999994</ele><time>2026-04-14T09:18:38.849Z</time></trkpt><trkpt lat="42.5610133" lon="-7.6753817"><ele>401.0</ele><time>2026-04-14T09:18:39.849Z</time></trkpt><trkpt lat="42.5609667" lon="-7.6754483"><ele>357.0</ele><time>2026-04-14T09:18:40.85Z</time></trkpt><trkpt lat="42.56331" lon="-7.6770833"><ele>357.0</ele><time>2026-04-14T09:18:10.849Z</time></trkpt><trkpt lat="42.5632417" lon="-7.6769933"><ele>357.0</ele><time>2026-04-14T09:18:11.85Z</time></trkpt><trkpt lat="42.5631733" lon="-7.6768717"><ele>357.0</ele><time>2026-04-14T09:18:12.849Z</time></trkpt><trkpt lat="42.5631083" lon="-7.6767433"><ele>357.0</ele><time>2026-04-14T09:18:13.849Z</time></trkpt><trkpt lat="42.56304" lon="-7.6766083"><ele>357.0</ele><time>2026-04-14T09:18:14.849Z</time></trkpt><trkpt lat="42.5629733" lon="-7.6764633"><ele>358.25</ele><time>2026-04-14T09:18:15.85Z</time></trkpt><trkpt lat="42.5628967" lon="-7.6763267"><ele>359.5</ele><time>2026-04-14T09:18:16.849Z</time></trkpt><trkpt lat="42.5628133" lon="-7.6761833"><ele>360.75</ele><time>2026-04-14T09:18:17.85Z</time></trkpt><trkpt lat="42.562725" lon="-7.6760367"><ele>362.0</ele><time>2026-04-14T09:18:18.85Z</time></trkpt><trkpt lat="42.562625" lon="-7.67591"><ele>368.5</ele><time>2026-04-14T09:18:19.85Z</time></trkpt><trkpt lat="42.5625083" lon="-7.6757917"><ele>375.0</ele><time>2026-04-14T09:18:20.85Z</time></trkpt><trkpt lat="42.56238" lon="-7.6756967"><ele>381.5</ele><time>2026-04-14T09:18:21.849Z</time></trkpt><trkpt lat="42.56225" lon="-7.6756067"><ele>388.0</ele><time>2026-04-14T09:18:22.849Z</time></trkpt><trkpt lat="42.5621367" lon="-7.67551"><ele>388.0</ele><time>2026-04-14T09:18:23.849Z</time></trkpt><trkpt lat="42.5620383" lon="-7.6754033"><ele>388.0</ele><time>2026-04-14T09:18:24.85Z</time></trkpt><trkpt lat="42.5619317" lon="-7.67531"><ele>388.0</ele><time>2026-04-14T09:18:25.849Z</time></trkpt><trkpt lat="42.5618217" lon="-7.6752183"><ele>388.0</ele><time>2026-04-14T09:18:26.849Z</time></trkpt><trkpt lat="42.5617217" lon="-7.6751383"><ele>390.1666666666667</ele><time>2026-04-14T09:18:27.849Z</time></trkpt><trkpt lat="42.5616383" lon="-7.6750833"><ele>392.33333333333337</ele><time>2026-04-14T09:18:28.849Z</time></trkpt><trkpt lat="42.5615617" lon="-7.6750367"><ele>394.5</ele><time>2026-04-14T09:18:29.849Z</time></trkpt><trkpt lat="42.5614917" lon="-7.6749967"><ele>396.66666666666663</ele><time>2026-04-14T09:18:30.849Z</time></trkpt><trkpt lat="42.5614233" lon="-7.67497"><ele>398.8333333333333</ele><time>2026-04-14T09:18:31.849Z</time></trkpt><trkpt lat="42.5613467" lon="-7.674955"><ele>401.0</ele><time>2026-04-14T09:18:32.849Z</time></trkpt><trkpt lat="42.561275" lon="-7.6749483"><ele>400.99999999999994</ele><time>2026-04-14T09:18:33.849Z</time></trkpt><trkpt lat="42.5612117" lon="-7.6749683"><ele>401.0</ele><time>2026-04-14T09:18:34.85Z</time></trkpt><trkpt lat="42.5611167" lon="-7.675095"><ele>401.0</ele><time>2026-04-14T09:18:36.849Z</time></trkpt><trkpt lat="42.5610867" lon="-7.6751833"><ele>401.0</ele><time>2026-04-14T09:18:37.849Z</time></trkpt><trkpt lat="42.561055" lon="-7.6752883"><ele>400.99999999999994</ele><time>2026-04-14T09:18:38.849Z</time></trkpt><trkpt lat="42.5610133" lon="-7.6753817"><ele>401.0</ele><time>2026-04-14T09:18:39.849Z</time></trkpt><trkpt lat="42.5609667" lon="-7.6754483"><ele>398.8</ele><time>2026-04-14T09:18:40.85Z</time></trkpt><trkpt lat="42.5609067" lon="-7.6754983"><ele>396.6</ele><time>2026-04-14T09:18:41.85Z</time></trkpt><trkpt lat="42.5608233" lon="-7.67552"><ele>394.4</ele><time>2026-04-14T09:18:42.849Z</time></trkpt><trkpt lat="42.5607267" lon="-7.675525"><ele>392.2</ele><time>2026-04-14T09:18:43.849Z</time></trkpt><trkpt lat="42.5606183" lon="-7.6755117"><ele>390.0</ele><time>2026-04-14T09:18:44.849Z</time></trkpt><trkpt lat="42.5605083" lon="-7.6755017"><ele>390.0</ele><time>2026-04-14T09:18:45.849Z</time></trkpt><trkpt lat="42.5604167" lon="-7.67548"><ele>390.0</ele><time>2026-04-14T09:18:46.849Z</time></trkpt><trkpt lat="42.5603317" lon="-7.6754317"><ele>390.0</ele><time>2026-04-14T09:18:47.85Z</time></trkpt><trkpt lat="42.5602517" lon="-7.675355"><ele>390.0</ele><time>2026-04-14T09:18:48.849Z</time></trkpt><trkpt lat="42.5601717" lon="-7.6752567"><ele>390.0</ele><time>2026-04-14T09:18:49.85Z</time></trkpt><trkpt lat="42.5600767" lon="-7.6751433"><ele>393.75</ele><time>2026-04-14T09:18:50.849Z</time></trkpt><trkpt lat="42.5599717" lon="-7.6750267"><ele>397.5</ele><time>2026-04-14T09:18:51.849Z</time></trkpt><trkpt lat="42.55986" lon="-7.6748967"><ele>401.25</ele><time>2026-04-14T09:18:52.849Z</time></trkpt><trkpt lat="42.5597367" lon="-7.674765"><ele>405.0</ele><time>2026-04-14T09:18:53.85Z</time></trkpt><trkpt lat="42.5596133" lon="-7.6746333"><ele>408.33333333333337</ele><time>2026-04-14T09:18:54.849Z</time></trkpt><trkpt lat="42.5595033" lon="-7.67449"><ele>411.6666666666667</ele><time>2026-04-14T09:18:55.849Z</time></trkpt><trkpt lat="42.559395" lon="-7.6743217"><ele>415.0</ele><time>2026-04-14T09:18:56.85Z</time></trkpt><trkpt lat="42.5592833" lon="-7.6741467"><ele>418.0</ele><time>2026-04-14T09:18:57.849Z</time></trkpt><trkpt lat="42.5591833" lon="-7.673985"><ele>421.0</ele><time>2026-04-14T09:18:58.849Z</time></trkpt><trkpt lat="42.5591017" lon="-7.6738433"><ele>424.0</ele><time>2026-04-14T09:18:59.85Z</time></trkpt><trkpt lat="42.5590267" lon="-7.6737133"><ele>427.0</ele><time>2026-04-14T09:19:00.85Z</time></trkpt><trkpt lat="42.5589767" lon="-7.67365"><ele>427.0</ele><time>2026-04-14T09:19:01.849Z</time></trkpt><trkpt lat="42.558875" lon="-7.673645"><ele>427.00000000000006</ele><time>2026-04-14T09:19:03.849Z</time></trkpt><trkpt lat="42.5588283" lon="-7.67376"><ele>427.00000000000006</ele><time>2026-04-14T09:19:05.85Z</time></trkpt><trkpt lat="42.55881" lon="-7.6738883"><ele>427.0</ele><time>2026-04-14T09:19:06.849Z</time></trkpt><trkpt lat="42.5588067" lon="-7.6740633"><ele>427.0</ele><time>2026-04-14T09:19:07.849Z</time></trkpt><trkpt lat="42.5587833" lon="-7.6742433"><ele>424.0</ele><time>2026-04-14T09:19:08.849Z</time></trkpt><trkpt lat="42.558775" lon="-7.674445"><ele>421.0</ele><time>2026-04-14T09:19:09.85Z</time></trkpt><trkpt lat="42.5587767" lon="-7.6746333"><ele>418.0</ele><time>2026-04-14T09:19:10.85Z</time></trkpt><trkpt lat="42.5587683" lon="-7.6748267"><ele>415.0</ele><time>2026-04-14T09:19:11.849Z</time></trkpt><trkpt lat="42.5587417" lon="-7.67501"><ele>415.0</ele><time>2026-04-14T09:19:12.849Z</time></trkpt><trkpt lat="42.558715" lon="-7.6751683"><ele>415.0</ele><time>2026-04-14T09:19:13.85Z</time></trkpt><trkpt lat="42.5586833" lon="-7.6753383"><ele>415.0</ele><time>2026-04-14T09:19:14.849Z</time></trkpt><trkpt lat="42.5586533" lon="-7.6755233"><ele>415.0</ele><time>2026-04-14T09:19:15.85Z</time></trkpt><trkpt lat="42.55862" lon="-7.6757117"><ele>422.0</ele><time>2026-04-14T09:19:16.85Z</time></trkpt><trkpt lat="42.5585717" lon="-7.6758983"><ele>429.0</ele><time>2026-04-14T09:19:17.849Z</time></trkpt><trkpt lat="42.55852" lon="-7.676095"><ele>436.0</ele><time>2026-04-14T09:19:18.85Z</time></trkpt><trkpt lat="42.558465" lon="-7.6762833"><ele>443.0</ele><time>2026-04-14T09:19:19.849Z</time></trkpt><trkpt lat="42.5584133" lon="-7.67646"><ele>443.0</ele><time>2026-04-14T09:19:20.849Z</time></trkpt><trkpt lat="42.5583767" lon="-7.6766133"><ele>442.99999999999994</ele><time>2026-04-14T09:19:21.849Z</time></trkpt><trkpt lat="42.55834" lon="-7.676735"><ele>442.99999999999994</ele><time>2026-04-14T09:19:22.85Z</time></trkpt><trkpt lat="42.5583017" lon="-7.67683"><ele>443.0</ele><time>2026-04-14T09:19:23.85Z</time></trkpt><trkpt lat="42.55821" lon="-7.67691"><ele>443.0</ele><time>2026-04-14T09:19:25.849Z</time></trkpt><trkpt lat="42.55814" lon="-7.6768133"><ele>443.0</ele><time>2026-04-14T09:19:27.85Z</time></trkpt><trkpt lat="42.5581433" lon="-7.67671"><ele>442.99999999999994</ele><time>2026-04-14T09:19:28.849Z</time></trkpt><trkpt lat="42.5581533" lon="-7.6765867"><ele>442.99999999999994</ele><time>2026-04-14T09:19:29.849Z</time></trkpt><trkpt lat="42.5581617" lon="-7.6764517"><ele>443.0</ele><time>2026-04-14T09:19:30.85Z</time></trkpt><trkpt lat="42.5581583" lon="-7.6762917"><ele>443.0</ele><time>2026-04-14T09:19:31.849Z</time></trkpt><trkpt lat="42.5581583" lon="-7.6761217"><ele>445.25</ele><time>2026-04-14T09:19:32.85Z</time></trkpt><trkpt lat="42.5581533" lon="-7.67595"><ele>447.5</ele><time>2026-04-14T09:19:33.85Z</time></trkpt><trkpt lat="42.55812" lon="-7.6757767"><ele>449.75</ele><time>2026-04-14T09:19:34.849Z</time></trkpt><trkpt lat="42.55809" lon="-7.6756067"><ele>452.0</ele><time>2026-04-14T09:19:35.849Z</time></trkpt><trkpt lat="42.5580417" lon="-7.6754367"><ele>452.66666666666663</ele><time>2026-04-14T09:19:36.849Z</time></trkpt><trkpt lat="42.5579783" lon="-7.6752567"><ele>453.33333333333337</ele><time>2026-04-14T09:19:37.85Z</time></trkpt><trkpt lat="42.5579133" lon="-7.6750567"><ele>454.0</ele><time>2026-04-14T09:19:38.85Z</time></trkpt><trkpt lat="42.557835" lon="-7.674855"><ele>462.5</ele><time>2026-04-14T09:19:39.849Z</time></trkpt><trkpt lat="42.5577717" lon="-7.6746617"><ele>471.0</ele><time>2026-04-14T09:19:40.851Z</time></trkpt><trkpt lat="42.5577267" lon="-7.674485"><ele>479.5</ele><time>2026-04-14T09:19:41.851Z</time></trkpt><trkpt lat="42.557705" lon="-7.6743183"><ele>488.0</ele><time>2026-04-14T09:19:42.85Z</time></trkpt><trkpt lat="42.5577" lon="-7.6741567"><ele>489.75</ele><time>2026-04-14T09:19:43.851Z</time></trkpt><trkpt lat="42.5577183" lon="-7.6739783"><ele>491.5</ele><time>2026-04-14T09:19:44.851Z</time></trkpt><trkpt lat="42.55775" lon="-7.6737967"><ele>493.25</ele><time>2026-04-14T09:19:45.851Z</time></trkpt><trkpt lat="42.5578017" lon="-7.6736133"><ele>495.0</ele><time>2026-04-14T09:19:46.851Z</time></trkpt><trkpt lat="42.5578233" lon="-7.6734417"><ele>496.5</ele><time>2026-04-14T09:19:47.851Z</time></trkpt><trkpt lat="42.5578383" lon="-7.67325"><ele>498.0</ele><time>2026-04-14T09:19:48.85Z</time></trkpt><trkpt lat="42.5578433" lon="-7.673055"><ele>499.5</ele><time>2026-04-14T09:19:49.851Z</time></trkpt><trkpt lat="42.5578383" lon="-7.67285"><ele>501.0</ele><time>2026-04-14T09:19:50.85Z</time></trkpt><trkpt lat="42.5578333" lon="-7.6726333"><ele>501.75</ele><time>2026-04-14T09:19:51.851Z</time></trkpt><trkpt lat="42.5578117" lon="-7.672435"><ele>502.5</ele><time>2026-04-14T09:19:52.85Z</time></trkpt><trkpt lat="42.5577783" lon="-7.672235"><ele>503.25</ele><time>2026-04-14T09:19:53.851Z</time></trkpt><trkpt lat="42.557735" lon="-7.67204"><ele>504.0</ele><time>2026-04-14T09:19:54.851Z</time></trkpt><trkpt lat="42.5576767" lon="-7.671855"><ele>504.66666666666663</ele><time>2026-04-14T09:19:55.85Z</time></trkpt><trkpt lat="42.5576183" lon="-7.67168"><ele>505.3333333333333</ele><time>2026-04-14T09:19:56.851Z</time></trkpt><trkpt lat="42.5575467" lon="-7.6714933"><ele>506.0</ele><time>2026-04-14T09:19:57.85Z</time></trkpt><trkpt lat="42.55747" lon="-7.6713133"><ele>506.0</ele><time>2026-04-14T09:19:58.85Z</time></trkpt><trkpt lat="42.55739" lon="-7.6711567"><ele>506.0</ele><time>2026-04-14T09:19:59.85Z</time></trkpt><trkpt lat="42.5573267" lon="-7.6710183"><ele>506.0</ele><time>2026-04-14T09:20:00.851Z</time></trkpt><trkpt lat="42.5572717" lon="-7.6708983"><ele>506.0</ele><time>2026-04-14T09:20:01.85Z</time></trkpt><trkpt lat="42.5572217" lon="-7.670795"><ele>507.0</ele><time>2026-04-14T09:20:02.851Z</time></trkpt><trkpt lat="42.5571867" lon="-7.67071"><ele>508.0</ele><time>2026-04-14T09:20:03.851Z</time></trkpt><trkpt lat="42.5571433" lon="-7.6706367"><ele>509.0</ele><time>2026-04-14T09:20:04.851Z</time></trkpt><trkpt lat="42.5570617" lon="-7.6705317"><ele>510.0</ele><time>2026-04-14T09:20:06.851Z</time></trkpt><trkpt lat="42.5579783" lon="-7.6752567"><ele>502.66666666666663</ele><time>2026-04-14T09:19:37.85Z</time></trkpt><trkpt lat="42.5579133" lon="-7.6750567"><ele>495.3333333333333</ele><time>2026-04-14T09:19:38.85Z</time></trkpt><trkpt lat="42.557835" lon="-7.674855"><ele>488.0</ele><time>2026-04-14T09:19:39.849Z</time></trkpt><trkpt lat="42.5577717" lon="-7.6746617"><ele>488.0</ele><time>2026-04-14T09:19:40.851Z</time></trkpt><trkpt lat="42.5577267" lon="-7.674485"><ele>488.0</ele><time>2026-04-14T09:19:41.851Z</time></trkpt><trkpt lat="42.557705" lon="-7.6743183"><ele>488.0</ele><time>2026-04-14T09:19:42.85Z</time></trkpt><trkpt lat="42.5577" lon="-7.6741567"><ele>488.0</ele><time>2026-04-14T09:19:43.851Z</time></trkpt><trkpt lat="42.5577183" lon="-7.6739783"><ele>489.75</ele><time>2026-04-14T09:19:44.851Z</time></trkpt><trkpt lat="42.55775" lon="-7.6737967"><ele>491.5</ele><time>2026-04-14T09:19:45.851Z</time></trkpt><trkpt lat="42.5578017" lon="-7.6736133"><ele>493.25</ele><time>2026-04-14T09:19:46.851Z</time></trkpt><trkpt lat="42.5578233" lon="-7.6734417"><ele>495.0</ele><time>2026-04-14T09:19:47.851Z</time></trkpt><trkpt lat="42.5578383" lon="-7.67325"><ele>497.0</ele><time>2026-04-14T09:19:48.85Z</time></trkpt><trkpt lat="42.5578433" lon="-7.673055"><ele>499.0</ele><time>2026-04-14T09:19:49.851Z</time></trkpt><trkpt lat="42.5578383" lon="-7.67285"><ele>501.0</ele><time>2026-04-14T09:19:50.85Z</time></trkpt><trkpt lat="42.5578333" lon="-7.6726333"><ele>501.75</ele><time>2026-04-14T09:19:51.851Z</time></trkpt><trkpt lat="42.5578117" lon="-7.672435"><ele>502.5</ele><time>2026-04-14T09:19:52.85Z</time></trkpt><trkpt lat="42.5577783" lon="-7.672235"><ele>503.25</ele><time>2026-04-14T09:19:53.851Z</time></trkpt><trkpt lat="42.557735" lon="-7.67204"><ele>504.0</ele><time>2026-04-14T09:19:54.851Z</time></trkpt><trkpt lat="42.5576767" lon="-7.671855"><ele>504.66666666666663</ele><time>2026-04-14T09:19:55.85Z</time></trkpt><trkpt lat="42.5576183" lon="-7.67168"><ele>505.3333333333333</ele><time>2026-04-14T09:19:56.851Z</time></trkpt><trkpt lat="42.5575467" lon="-7.6714933"><ele>506.0</ele><time>2026-04-14T09:19:57.85Z</time></trkpt><trkpt lat="42.55747" lon="-7.6713133"><ele>506.0</ele><time>2026-04-14T09:19:58.85Z</time></trkpt><trkpt lat="42.55739" lon="-7.6711567"><ele>506.0</ele><time>2026-04-14T09:19:59.85Z</time></trkpt><trkpt lat="42.5573267" lon="-7.6710183"><ele>506.0</ele><time>2026-04-14T09:20:00.851Z</time></trkpt><trkpt lat="42.5572717" lon="-7.6708983"><ele>506.0</ele><time>2026-04-14T09:20:01.85Z</time></trkpt><trkpt lat="42.5572217" lon="-7.670795"><ele>506.8</ele><time>2026-04-14T09:20:02.851Z</time></trkpt><trkpt lat="42.5571867" lon="-7.67071"><ele>507.6</ele><time>2026-04-14T09:20:03.851Z</time></trkpt><trkpt lat="42.5571433" lon="-7.6706367"><ele>508.4</ele><time>2026-04-14T09:20:04.851Z</time></trkpt><trkpt lat="42.5570617" lon="-7.6705317"><ele>509.2</ele><time>2026-04-14T09:20:06.851Z</time></trkpt><trkpt lat="42.55696" lon="-7.6704617"><ele>510.0</ele><time>2026-04-14T09:20:08.85Z</time></trkpt><trkpt lat="42.5568517" lon="-7.6703933"><ele>513.8</ele><time>2026-04-14T09:20:10.851Z</time></trkpt><trkpt lat="42.5567783" lon="-7.6703517"><ele>517.6</ele><time>2026-04-14T09:20:11.851Z</time></trkpt><trkpt lat="42.5566983" lon="-7.6703083"><ele>521.4</ele><time>2026-04-14T09:20:12.851Z</time></trkpt><trkpt lat="42.5565883" lon="-7.670265"><ele>525.2</ele><time>2026-04-14T09:20:13.85Z</time></trkpt><trkpt lat="42.556475" lon="-7.67021"><ele>529.0</ele><time>2026-04-14T09:20:14.851Z</time></trkpt><trkpt lat="42.5563667" lon="-7.670145"><ele>529.2857142857143</ele><time>2026-04-14T09:20:15.851Z</time></trkpt><trkpt lat="42.5562717" lon="-7.6700883"><ele>529.5714285714286</ele><time>2026-04-14T09:20:16.851Z</time></trkpt><trkpt lat="42.5562183" lon="-7.6700383"><ele>529.8571428571429</ele><time>2026-04-14T09:20:17.851Z</time></trkpt><trkpt lat="42.5561633" lon="-7.6699833"><ele>530.1428571428571</ele><time>2026-04-14T09:20:18.85Z</time></trkpt><trkpt lat="42.55612" lon="-7.6699183"><ele>530.4285714285714</ele><time>2026-04-14T09:20:19.85Z</time></trkpt><trkpt lat="42.5560933" lon="-7.66984"><ele>530.7142857142858</ele><time>2026-04-14T09:20:20.851Z</time></trkpt><trkpt lat="42.5560717" lon="-7.66975"><ele>531.0</ele><time>2026-04-14T09:20:21.85Z</time></trkpt><trkpt lat="42.556055" lon="-7.66965"><ele>533.8333333333334</ele><time>2026-04-14T09:20:22.851Z</time></trkpt><trkpt lat="42.5560517" lon="-7.6695483"><ele>536.6666666666666</ele><time>2026-04-14T09:20:23.851Z</time></trkpt><trkpt lat="42.5560383" lon="-7.6694583"><ele>539.5</ele><time>2026-04-14T09:20:24.85Z</time></trkpt><trkpt lat="42.555995" lon="-7.6693433"><ele>542.3333333333333</ele><time>2026-04-14T09:20:26.851Z</time></trkpt><trkpt lat="42.555915" lon="-7.6693883"><ele>545.1666666666666</ele><time>2026-04-14T09:20:29.851Z</time></trkpt><trkpt lat="42.5558583" lon="-7.6695317"><ele>548.0</ele><time>2026-04-14T09:20:31.85Z</time></trkpt><trkpt lat="42.5558267" lon="-7.6696167"><ele>548.0</ele><time>2026-04-14T09:20:32.851Z</time></trkpt><trkpt lat="42.5557867" lon="-7.6697217"><ele>548.0</ele><time>2026-04-14T09:20:33.85Z</time></trkpt><trkpt lat="42.5557383" lon="-7.6698617"><ele>548.0</ele><time>2026-04-14T09:20:34.85Z</time></trkpt><trkpt lat="42.5556883" lon="-7.6700083"><ele>548.0</ele><time>2026-04-14T09:20:35.85Z</time></trkpt><trkpt lat="42.5556317" lon="-7.67016"><ele>548.0</ele><time>2026-04-14T09:20:36.85Z</time></trkpt><trkpt lat="42.55557" lon="-7.6702917"><ele>548.4</ele><time>2026-04-14T09:20:37.85Z</time></trkpt><trkpt lat="42.5555183" lon="-7.67038"><ele>548.8</ele><time>2026-04-14T09:20:38.851Z</time></trkpt><trkpt lat="42.5554433" lon="-7.6704533"><ele>549.2</ele><time>2026-04-14T09:20:39.851Z</time></trkpt><trkpt lat="42.5553417" lon="-7.6704833"><ele>549.6</ele><time>2026-04-14T09:20:40.85Z</time></trkpt><trkpt lat="42.55522" lon="-7.6704933"><ele>550.0</ele><time>2026-04-14T09:20:41.85Z</time></trkpt><trkpt lat="42.5551" lon="-7.6704767"><ele>550.5</ele><time>2026-04-14T09:20:42.851Z</time></trkpt><trkpt lat="42.5549783" lon="-7.6704617"><ele>551.0</ele><time>2026-04-14T09:20:43.851Z</time></trkpt><trkpt lat="42.554855" lon="-7.6704517"><ele>551.5</ele><time>2026-04-14T09:20:44.851Z</time></trkpt><trkpt lat="42.55473" lon="-7.67045"><ele>552.0</ele><time>2026-04-14T09:20:45.851Z</time></trkpt><trkpt lat="42.55461" lon="-7.670455"><ele>553.4</ele><time>2026-04-14T09:20:46.85Z</time></trkpt><trkpt lat="42.5545" lon="-7.6704617"><ele>554.8000000000001</ele><time>2026-04-14T09:20:47.85Z</time></trkpt><trkpt lat="42.5544017" lon="-7.6704817"><ele>556.2</ele><time>2026-04-14T09:20:48.85Z</time></trkpt><trkpt lat="42.5543117" lon="-7.670515"><ele>557.6</ele><time>2026-04-14T09:20:49.851Z</time></trkpt><trkpt lat="42.55423" lon="-7.67056"><ele>559.0</ele><time>2026-04-14T09:20:50.85Z</time></trkpt><trkpt lat="42.554175" lon="-7.67063"><ele>559.0</ele><time>2026-04-14T09:20:51.851Z</time></trkpt><trkpt lat="42.5541217" lon="-7.67072"><ele>559.0</ele><time>2026-04-14T09:20:52.85Z</time></trkpt><trkpt lat="42.5540767" lon="-7.670835"><ele>559.0</ele><time>2026-04-14T09:20:53.851Z</time></trkpt><trkpt lat="42.554035" lon="-7.670935"><ele>559.0</ele><time>2026-04-14T09:20:54.85Z</time></trkpt><trkpt lat="42.553985" lon="-7.6710117"><ele>559.0</ele><time>2026-04-14T09:20:55.851Z</time></trkpt><trkpt lat="42.55393" lon="-7.6710633"><ele>559.0</ele><time>2026-04-14T09:20:56.851Z</time></trkpt><trkpt lat="42.5538083" lon="-7.6710683"><ele>559.0</ele><time>2026-04-14T09:20:58.85Z</time></trkpt><trkpt lat="42.5537283" lon="-7.6710417"><ele>559.0</ele><time>2026-04-14T09:20:59.85Z</time></trkpt><trkpt lat="42.5536317" lon="-7.671015"><ele>559.0</ele><time>2026-04-14T09:21:00.85Z</time></trkpt><trkpt lat="42.5535383" lon="-7.6710017"><ele>559.0</ele><time>2026-04-14T09:21:01.851Z</time></trkpt><trkpt lat="42.5534633" lon="-7.671025"><ele>559.0</ele><time>2026-04-14T09:21:02.851Z</time></trkpt><trkpt lat="42.553405" lon="-7.6710683"><ele>559.0</ele><time>2026-04-14T09:21:03.851Z</time></trkpt><trkpt lat="42.5533533" lon="-7.67112"><ele>560.6666666666667</ele><time>2026-04-14T09:21:04.85Z</time></trkpt><trkpt lat="42.5532367" lon="-7.6711433"><ele>562.3333333333334</ele><time>2026-04-14T09:21:06.851Z</time></trkpt><trkpt lat="42.5531717" lon="-7.67114"><ele>564.0</ele><time>2026-04-14T09:21:07.851Z</time></trkpt><trkpt lat="42.5531083" lon="-7.6711583"><ele>565.6666666666666</ele><time>2026-04-14T09:21:08.851Z</time></trkpt><trkpt lat="42.553015" lon="-7.67117"><ele>567.3333333333333</ele><time>2026-04-14T09:21:10.851Z</time></trkpt><trkpt lat="42.5529483" lon="-7.6711967"><ele>569.0</ele><time>2026-04-14T09:21:13.851Z</time></trkpt><trkpt lat="42.552995" lon="-7.6711383"><ele>569.0</ele><time>2026-04-14T09:21:17.85Z</time></trkpt><trkpt lat="42.55307" lon="-7.671135"><ele>569.0</ele><time>2026-04-14T09:21:20.85Z</time></trkpt><trkpt lat="42.5531717" lon="-7.67113"><ele>569.0</ele><time>2026-04-14T09:21:22.85Z</time></trkpt><trkpt lat="42.553255" lon="-7.6711267"><ele>569.0</ele><time>2026-04-14T09:21:24.85Z</time></trkpt><trkpt lat="42.5533367" lon="-7.6711267"><ele>569.0</ele><time>2026-04-14T09:21:27.851Z</time></trkpt><trkpt lat="42.5533533" lon="-7.67112"><ele>569.0</ele><time>2026-04-14T09:21:04.85Z</time></trkpt><trkpt lat="42.5532367" lon="-7.6711433"><ele>569.0000000000001</ele><time>2026-04-14T09:21:06.851Z</time></trkpt><trkpt lat="42.5531717" lon="-7.67114"><ele>569.0</ele><time>2026-04-14T09:21:07.851Z</time></trkpt><trkpt lat="42.5531083" lon="-7.6711583"><ele>569.0</ele><time>2026-04-14T09:21:08.851Z</time></trkpt><trkpt lat="42.553015" lon="-7.67117"><ele>569.0</ele><time>2026-04-14T09:21:10.851Z</time></trkpt><trkpt lat="42.5529483" lon="-7.6711967"><ele>569.0</ele><time>2026-04-14T09:21:13.851Z</time></trkpt><trkpt lat="42.552995" lon="-7.6711383"><ele>569.0000000000001</ele><time>2026-04-14T09:21:17.85Z</time></trkpt><trkpt lat="42.55307" lon="-7.671135"><ele>569.0</ele><time>2026-04-14T09:21:20.85Z</time></trkpt><trkpt lat="42.5531717" lon="-7.67113"><ele>569.0</ele><time>2026-04-14T09:21:22.85Z</time></trkpt><trkpt lat="42.553255" lon="-7.6711267"><ele>569.0</ele><time>2026-04-14T09:21:24.85Z</time></trkpt><trkpt lat="42.5533367" lon="-7.6711267"><ele>569.0</ele><time>2026-04-14T09:21:27.851Z</time></trkpt><trkpt lat="42.5532533" lon="-7.6711433"><ele>569.0</ele><time>2026-04-14T09:21:55.85Z</time></trkpt><trkpt lat="42.5531167" lon="-7.6711167"><ele>569.0</ele><time>2026-04-14T09:21:57.85Z</time></trkpt><trkpt lat="42.5530233" lon="-7.6711217"><ele>569.0</ele><time>2026-04-14T09:21:58.85Z</time></trkpt><trkpt lat="42.55292" lon="-7.6711317"><ele>569.0</ele><time>2026-04-14T09:21:59.851Z</time></trkpt><trkpt lat="42.55282" lon="-7.6711383"><ele>569.0</ele><time>2026-04-14T09:22:00.851Z</time></trkpt><trkpt lat="42.5527183" lon="-7.6711383"><ele>569.0</ele><time>2026-04-14T09:22:01.851Z</time></trkpt><trkpt lat="42.55262" lon="-7.6711383"><ele>569.0</ele><time>2026-04-14T09:22:02.851Z</time></trkpt><trkpt lat="42.5525267" lon="-7.67114"><ele>570.2</ele><time>2026-04-14T09:22:03.851Z</time></trkpt><trkpt lat="42.55243" lon="-7.6711367"><ele>571.4</ele><time>2026-04-14T09:22:04.851Z</time></trkpt><trkpt lat="42.55234" lon="-7.6711417"><ele>572.6</ele><time>2026-04-14T09:22:05.85Z</time></trkpt><trkpt lat="42.55225" lon="-7.6711467"><ele>573.8</ele><time>2026-04-14T09:22:06.851Z</time></trkpt><trkpt lat="42.5521533" lon="-7.6711467"><ele>575.0</ele><time>2026-04-14T09:22:07.85Z</time></trkpt><trkpt lat="42.552055" lon="-7.6711433"><ele>576.0</ele><time>2026-04-14T09:22:08.85Z</time></trkpt><trkpt lat="42.551955" lon="-7.6711467"><ele>577.0</ele><time>2026-04-14T09:22:09.851Z</time></trkpt><trkpt lat="42.5518683" lon="-7.6711517"><ele>578.0</ele><time>2026-04-14T09:22:10.851Z</time></trkpt><trkpt lat="42.5517883" lon="-7.67114"><ele>579.0</ele><time>2026-04-14T09:22:11.85Z</time></trkpt><trkpt lat="42.55171" lon="-7.671105"><ele>580.0</ele><time>2026-04-14T09:22:12.85Z</time></trkpt><trkpt lat="42.5516367" lon="-7.6710533"><ele>581.0</ele><time>2026-04-14T09:22:13.851Z</time></trkpt><trkpt lat="42.551555" lon="-7.6709767"><ele>581.0</ele><time>2026-04-14T09:22:14.851Z</time></trkpt><trkpt lat="42.5514833" lon="-7.6708817"><ele>581.0</ele><time>2026-04-14T09:22:15.851Z</time></trkpt><trkpt lat="42.5514067" lon="-7.6707767"><ele>581.0</ele><time>2026-04-14T09:22:16.851Z</time></trkpt><trkpt lat="42.55133" lon="-7.6706633"><ele>581.0</ele><time>2026-04-14T09:22:17.851Z</time></trkpt><trkpt lat="42.5512483" lon="-7.6705367"><ele>581.0</ele><time>2026-04-14T09:22:18.85Z</time></trkpt><trkpt lat="42.5511633" lon="-7.670405"><ele>582.25</ele><time>2026-04-14T09:22:19.851Z</time></trkpt><trkpt lat="42.55108" lon="-7.67027"><ele>583.5</ele><time>2026-04-14T09:22:20.851Z</time></trkpt><trkpt lat="42.55099" lon="-7.6701333"><ele>584.75</ele><time>2026-04-14T09:22:21.85Z</time></trkpt><trkpt lat="42.5509067" lon="-7.6700033"><ele>586.0</ele><time>2026-04-14T09:22:22.851Z</time></trkpt><trkpt lat="42.550825" lon="-7.66988"><ele>586.0</ele><time>2026-04-14T09:22:23.851Z</time></trkpt><trkpt lat="42.5507483" lon="-7.6697683"><ele>586.0</ele><time>2026-04-14T09:22:24.85Z</time></trkpt><trkpt lat="42.5506817" lon="-7.6696717"><ele>586.0</ele><time>2026-04-14T09:22:25.851Z</time></trkpt><trkpt lat="42.5506117" lon="-7.6695967"><ele>586.0</ele><time>2026-04-14T09:22:26.85Z</time></trkpt><trkpt lat="42.5505483" lon="-7.669555"><ele>586.0</ele><time>2026-04-14T09:22:27.85Z</time></trkpt><trkpt lat="42.5504667" lon="-7.66957"><ele>586.0</ele><time>2026-04-14T09:22:29.85Z</time></trkpt><trkpt lat="42.55041" lon="-7.6697183"><ele>586.0</ele><time>2026-04-14T09:22:31.85Z</time></trkpt><trkpt lat="42.5503767" lon="-7.669855"><ele>586.0</ele><time>2026-04-14T09:22:32.851Z</time></trkpt><trkpt lat="42.5503433" lon="-7.670045"><ele>586.0</ele><time>2026-04-14T09:22:33.851Z</time></trkpt><trkpt lat="42.550305" lon="-7.6702467"><ele>587.0</ele><time>2026-04-14T09:22:34.851Z</time></trkpt><trkpt lat="42.550265" lon="-7.6704617"><ele>588.0</ele><time>2026-04-14T09:22:35.851Z</time></trkpt><trkpt lat="42.5502233" lon="-7.67066"><ele>589.0</ele><time>2026-04-14T09:22:36.85Z</time></trkpt><trkpt lat="42.5501817" lon="-7.6708517"><ele>589.0</ele><time>2026-04-14T09:22:37.851Z</time></trkpt><trkpt lat="42.5501467" lon="-7.6710417"><ele>589.0</ele><time>2026-04-14T09:22:38.85Z</time></trkpt><trkpt lat="42.5501117" lon="-7.6712233"><ele>589.0</ele><time>2026-04-14T09:22:39.85Z</time></trkpt><trkpt lat="42.55007" lon="-7.6714083"><ele>589.0</ele><time>2026-04-14T09:22:40.85Z</time></trkpt><trkpt lat="42.55002" lon="-7.67158"><ele>588.25</ele><time>2026-04-14T09:22:41.851Z</time></trkpt><trkpt lat="42.5499767" lon="-7.6717567"><ele>587.5</ele><time>2026-04-14T09:22:42.851Z</time></trkpt><trkpt lat="42.54993" lon="-7.6719267"><ele>586.75</ele><time>2026-04-14T09:22:43.851Z</time></trkpt><trkpt lat="42.54988" lon="-7.6720867"><ele>586.0</ele><time>2026-04-14T09:22:44.85Z</time></trkpt><trkpt lat="42.5498317" lon="-7.672235"><ele>586.1666666666667</ele><time>2026-04-14T09:22:45.851Z</time></trkpt><trkpt lat="42.54979" lon="-7.6723633"><ele>586.3333333333334</ele><time>2026-04-14T09:22:46.851Z</time></trkpt><trkpt lat="42.5497417" lon="-7.672475"><ele>586.5</ele><time>2026-04-14T09:22:47.85Z</time></trkpt><trkpt lat="42.5496967" lon="-7.67256"><ele>586.6666666666666</ele><time>2026-04-14T09:22:48.851Z</time></trkpt><trkpt lat="42.5496433" lon="-7.6726217"><ele>586.8333333333333</ele><time>2026-04-14T09:22:49.85Z</time></trkpt><trkpt lat="42.5495833" lon="-7.6726617"><ele>587.0</ele><time>2026-04-14T09:22:50.85Z</time></trkpt><trkpt lat="42.54952" lon="-7.6726783"><ele>587.0</ele><time>2026-04-14T09:22:51.85Z</time></trkpt><trkpt lat="42.5494517" lon="-7.6726717"><ele>587.0</ele><time>2026-04-14T09:22:52.851Z</time></trkpt><trkpt lat="42.5493267" lon="-7.6726667"><ele>587.0</ele><time>2026-04-14T09:22:54.85Z</time></trkpt><trkpt lat="42.5492583" lon="-7.6726567"><ele>587.0</ele><time>2026-04-14T09:22:55.851Z</time></trkpt><trkpt lat="42.5491833" lon="-7.6726483"><ele>587.0</ele><time>2026-04-14T09:22:56.85Z</time></trkpt><trkpt lat="42.5491017" lon="-7.6726467"><ele>587.0</ele><time>2026-04-14T09:22:57.85Z</time></trkpt><trkpt lat="42.5490183" lon="-7.672645"><ele>587.0</ele><time>2026-04-14T09:22:58.85Z</time></trkpt><trkpt lat="42.548935" lon="-7.672645"><ele>587.0</ele><time>2026-04-14T09:22:59.851Z</time></trkpt><trkpt lat="42.5488533" lon="-7.6726367"><ele>587.0</ele><time>2026-04-14T09:23:00.851Z</time></trkpt><trkpt lat="42.5487567" lon="-7.6726483"><ele>587.0</ele><time>2026-04-14T09:23:01.85Z</time></trkpt><trkpt lat="42.5486517" lon="-7.67266"><ele>587.0</ele><time>2026-04-14T09:23:02.85Z</time></trkpt><trkpt lat="42.5485417" lon="-7.672685"><ele>587.2</ele><time>2026-04-14T09:23:03.851Z</time></trkpt><trkpt lat="42.5484283" lon="-7.672725"><ele>587.4000000000001</ele><time>2026-04-14T09:23:04.851Z</time></trkpt><trkpt lat="42.5483233" lon="-7.672775"><ele>587.5999999999999</ele><time>2026-04-14T09:23:05.85Z</time></trkpt><trkpt lat="42.5482183" lon="-7.6728233"><ele>587.8</ele><time>2026-04-14T09:23:06.85Z</time></trkpt><trkpt lat="42.548115" lon="-7.6728517"><ele>588.0</ele><time>2026-04-14T09:23:07.85Z</time></trkpt><trkpt lat="42.5479933" lon="-7.6728767"><ele>588.25</ele><time>2026-04-14T09:23:08.851Z</time></trkpt><trkpt lat="42.54786" lon="-7.6728933"><ele>588.5</ele><time>2026-04-14T09:23:09.85Z</time></trkpt><trkpt lat="42.54772" lon="-7.672915"><ele>588.75</ele><time>2026-04-14T09:23:10.85Z</time></trkpt><trkpt lat="42.5475683" lon="-7.67294"><ele>589.0</ele><time>2026-04-14T09:23:11.85Z</time></trkpt><trkpt lat="42.5474133" lon="-7.6729817"><ele>589.0</ele><time>2026-04-14T09:23:12.85Z</time></trkpt><trkpt lat="42.54726" lon="-7.6730367"><ele>589.0</ele><time>2026-04-14T09:23:13.851Z</time></trkpt><trkpt lat="42.5471033" lon="-7.6731133"><ele>589.0</ele><time>2026-04-14T09:23:14.85Z</time></trkpt><trkpt lat="42.54695" lon="-7.6731967"><ele>591.0</ele><time>2026-04-14T09:23:15.85Z</time></trkpt><trkpt lat="42.5467983" lon="-7.6732767"><ele>593.0</ele><time>2026-04-14T09:23:16.851Z</time></trkpt><trkpt lat="42.5466383" lon="-7.67335"><ele>595.0</ele><time>2026-04-14T09:23:17.851Z</time></trkpt><trkpt lat="42.5464883" lon="-7.6734167"><ele>595.0</ele><time>2026-04-14T09:23:18.85Z</time></trkpt><trkpt lat="42.5463433" lon="-7.6734583"><ele>595.0</ele><time>2026-04-14T09:23:19.851Z</time></trkpt><trkpt lat="42.5462033" lon="-7.6734867"><ele>595.0</ele><time>2026-04-14T09:23:20.85Z</time></trkpt><trkpt lat="42.5460617" lon="-7.6734933"><ele>595.0</ele><time>2026-04-14T09:23:21.85Z</time></trkpt><trkpt lat="42.54592" lon="-7.6734833"><ele>596.5</ele><time>2026-04-14T09:23:22.85Z</time></trkpt><trkpt lat="42.545795" lon="-7.6734733"><ele>598.0</ele><time>2026-04-14T09:23:23.851Z</time></trkpt><trkpt lat="42.5456717" lon="-7.6734483"><ele>599.5</ele><time>2026-04-14T09:23:24.85Z</time></trkpt><trkpt lat="42.54555" lon="-7.673385"><ele>601.0</ele><time>2026-04-14T09:23:25.851Z</time></trkpt><trkpt lat="42.5454417" lon="-7.6733033"><ele>601.0</ele><time>2026-04-14T09:23:26.851Z</time></trkpt><trkpt lat="42.5453367" lon="-7.673225"><ele>601.0</ele><time>2026-04-14T09:23:27.85Z</time></trkpt><trkpt lat="42.5452317" lon="-7.67315"><ele>601.0</ele><time>2026-04-14T09:23:28.85Z</time></trkpt><trkpt lat="42.5451233" lon="-7.6730833"><ele>601.0</ele><time>2026-04-14T09:23:29.85Z</time></trkpt><trkpt lat="42.545" lon="-7.673025"><ele>601.0</ele><time>2026-04-14T09:23:30.85Z</time></trkpt><trkpt lat="42.5448617" lon="-7.672975"><ele>601.0</ele><time>2026-04-14T09:23:31.85Z</time></trkpt><trkpt lat="42.5447283" lon="-7.6729367"><ele>601.0</ele><time>2026-04-14T09:23:32.85Z</time></trkpt><trkpt lat="42.54458" lon="-7.6729017"><ele>601.0</ele><time>2026-04-14T09:23:33.851Z</time></trkpt><trkpt lat="42.5444367" lon="-7.67287"><ele>601.6666666666667</ele><time>2026-04-14T09:23:34.85Z</time></trkpt><trkpt lat="42.5442883" lon="-7.67284"><ele>602.3333333333334</ele><time>2026-04-14T09:23:35.851Z</time></trkpt><trkpt lat="42.5441367" lon="-7.6728067"><ele>603.0</ele><time>2026-04-14T09:23:36.85Z</time></trkpt><trkpt lat="42.5439833" lon="-7.6727767"><ele>603.25</ele><time>2026-04-14T09:23:37.85Z</time></trkpt><trkpt lat="42.5438367" lon="-7.6727517"><ele>603.5</ele><time>2026-04-14T09:23:38.851Z</time></trkpt><trkpt lat="42.5437017" lon="-7.67273"><ele>603.75</ele><time>2026-04-14T09:23:39.85Z</time></trkpt><trkpt lat="42.5435683" lon="-7.6727383"><ele>604.0</ele><time>2026-04-14T09:23:40.851Z</time></trkpt><trkpt lat="42.5434383" lon="-7.67277"><ele>604.0</ele><time>2026-04-14T09:23:41.85Z</time></trkpt><trkpt lat="42.5433133" lon="-7.6728283"><ele>604.0</ele><time>2026-04-14T09:23:42.85Z</time></trkpt><trkpt lat="42.5431783" lon="-7.6729033"><ele>604.0</ele><time>2026-04-14T09:23:43.851Z</time></trkpt><trkpt lat="42.543045" lon="-7.6729933"><ele>604.0</ele><time>2026-04-14T09:23:44.851Z</time></trkpt><trkpt lat="42.5429067" lon="-7.6730883"><ele>604.0</ele><time>2026-04-14T09:23:45.851Z</time></trkpt><trkpt lat="42.5427683" lon="-7.673205"><ele>604.0</ele><time>2026-04-14T09:23:46.851Z</time></trkpt><trkpt lat="42.5426217" lon="-7.6733467"><ele>604.0</ele><time>2026-04-14T09:23:47.85Z</time></trkpt><trkpt lat="42.5424783" lon="-7.6735083"><ele>605.3333333333334</ele><time>2026-04-14T09:23:48.85Z</time></trkpt><trkpt lat="42.5423417" lon="-7.67368"><ele>606.6666666666666</ele><time>2026-04-14T09:23:49.85Z</time></trkpt><trkpt lat="42.5422017" lon="-7.6738533"><ele>608.0</ele><time>2026-04-14T09:23:50.851Z</time></trkpt><trkpt lat="42.5420617" lon="-7.6740283"><ele>607.3333333333333</ele><time>2026-04-14T09:23:51.851Z</time></trkpt><trkpt lat="42.5419183" lon="-7.674205"><ele>606.6666666666666</ele><time>2026-04-14T09:23:52.851Z</time></trkpt><trkpt lat="42.5417817" lon="-7.6743917"><ele>606.0</ele><time>2026-04-14T09:23:53.85Z</time></trkpt><trkpt lat="42.5416483" lon="-7.6745783"><ele>606.0</ele><time>2026-04-14T09:23:54.85Z</time></trkpt><trkpt lat="42.5415183" lon="-7.6747667"><ele>606.0</ele><time>2026-04-14T09:23:55.85Z</time></trkpt><trkpt lat="42.5413867" lon="-7.6749567"><ele>606.0</ele><time>2026-04-14T09:23:56.85Z</time></trkpt><trkpt lat="42.5412567" lon="-7.6751483"><ele>605.6666666666666</ele><time>2026-04-14T09:23:57.851Z</time></trkpt><trkpt lat="42.541135" lon="-7.675325"><ele>605.3333333333333</ele><time>2026-04-14T09:23:58.851Z</time></trkpt><trkpt lat="42.5410117" lon="-7.6754933"><ele>605.0</ele><time>2026-04-14T09:23:59.85Z</time></trkpt><trkpt lat="42.5408983" lon="-7.6756383"><ele>605.0</ele><time>2026-04-14T09:24:00.85Z</time></trkpt><trkpt lat="42.5407833" lon="-7.6757783"><ele>605.0</ele><time>2026-04-14T09:24:01.85Z</time></trkpt><trkpt lat="42.5406617" lon="-7.6759167"><ele>605.0</ele><time>2026-04-14T09:24:02.85Z</time></trkpt><trkpt lat="42.5405467" lon="-7.676065"><ele>604.3333333333333</ele><time>2026-04-14T09:24:03.851Z</time></trkpt><trkpt lat="42.5404467" lon="-7.676235"><ele>603.6666666666666</ele><time>2026-04-14T09:24:04.85Z</time></trkpt><trkpt lat="42.5403633" lon="-7.67642"><ele>603.0</ele><time>2026-04-14T09:24:05.851Z</time></trkpt><trkpt lat="42.540295" lon="-7.6766283"><ele>604.3333333333334</ele><time>2026-04-14T09:24:06.851Z</time></trkpt><trkpt lat="42.54023" lon="-7.6768483"><ele>605.6666666666667</ele><time>2026-04-14T09:24:07.85Z</time></trkpt><trkpt lat="42.54016" lon="-7.6770683"><ele>607.0</ele><time>2026-04-14T09:24:08.851Z</time></trkpt><trkpt lat="42.540095" lon="-7.67728"><ele>607.75</ele><time>2026-04-14T09:24:09.85Z</time></trkpt><trkpt lat="42.5400367" lon="-7.67748"><ele>608.5</ele><time>2026-04-14T09:24:10.851Z</time></trkpt><trkpt lat="42.5399767" lon="-7.6776567"><ele>609.25</ele><time>2026-04-14T09:24:11.85Z</time></trkpt><trkpt lat="42.5399117" lon="-7.6778033"><ele>610.0</ele><time>2026-04-14T09:24:12.851Z</time></trkpt><trkpt lat="42.53985" lon="-7.6779183"><ele>610.5</ele><time>2026-04-14T09:24:13.85Z</time></trkpt><trkpt lat="42.5398133" lon="-7.678015"><ele>611.0</ele><time>2026-04-14T09:24:14.85Z</time></trkpt><trkpt lat="42.539795" lon="-7.6780983"><ele>611.5</ele><time>2026-04-14T09:24:15.851Z</time></trkpt><trkpt lat="42.5398333" lon="-7.6782167"><ele>612.0</ele><time>2026-04-14T09:24:17.851Z</time></trkpt><trkpt lat="42.5398867" lon="-7.6782767"><ele>612.5</ele><time>2026-04-14T09:24:18.85Z</time></trkpt><trkpt lat="42.539955" lon="-7.67835"><ele>613.0</ele><time>2026-04-14T09:24:19.85Z</time></trkpt><trkpt lat="42.5400283" lon="-7.678445"><ele>613.0</ele><time>2026-04-14T09:24:20.851Z</time></trkpt><trkpt lat="42.5401" lon="-7.6785533"><ele>613.0</ele><time>2026-04-14T09:24:21.85Z</time></trkpt><trkpt lat="42.5401817" lon="-7.67866"><ele>613.0</ele><time>2026-04-14T09:24:22.851Z</time></trkpt><trkpt lat="42.5402633" lon="-7.6787617"><ele>613.0</ele><time>2026-04-14T09:24:23.851Z</time></trkpt><trkpt lat="42.5403517" lon="-7.6788483"><ele>613.0</ele><time>2026-04-14T09:24:24.851Z</time></trkpt><trkpt lat="42.5404533" lon="-7.6789133"><ele>611.25</ele><time>2026-04-14T09:24:25.85Z</time></trkpt><trkpt lat="42.54057" lon="-7.67897"><ele>609.5</ele><time>2026-04-14T09:24:26.85Z</time></trkpt><trkpt lat="42.5407083" lon="-7.6790217"><ele>607.75</ele><time>2026-04-14T09:24:27.85Z</time></trkpt><trkpt lat="42.5408583" lon="-7.6790783"><ele>606.0</ele><time>2026-04-14T09:24:28.85Z</time></trkpt><trkpt lat="42.5410017" lon="-7.6791417"><ele>606.0</ele><time>2026-04-14T09:24:29.85Z</time></trkpt><trkpt lat="42.5411417" lon="-7.67921"><ele>606.0</ele><time>2026-04-14T09:24:30.851Z</time></trkpt><trkpt lat="42.54128" lon="-7.6792817"><ele>606.0</ele><time>2026-04-14T09:24:31.851Z</time></trkpt><trkpt lat="42.5414183" lon="-7.6793583"><ele>606.0</ele><time>2026-04-14T09:24:32.851Z</time></trkpt><trkpt lat="42.5415517" lon="-7.6794233"><ele>601.25</ele><time>2026-04-14T09:24:33.85Z</time></trkpt><trkpt lat="42.5416767" lon="-7.6794783"><ele>596.5</ele><time>2026-04-14T09:24:34.851Z</time></trkpt><trkpt lat="42.5418" lon="-7.679515"><ele>591.75</ele><time>2026-04-14T09:24:35.85Z</time></trkpt><trkpt lat="42.541925" lon="-7.6795417"><ele>587.0</ele><time>2026-04-14T09:24:36.85Z</time></trkpt><trkpt lat="42.542055" lon="-7.6795383"><ele>585.75</ele><time>2026-04-14T09:24:37.85Z</time></trkpt><trkpt lat="42.5421883" lon="-7.67953"><ele>584.5</ele><time>2026-04-14T09:24:38.851Z</time></trkpt><trkpt lat="42.5423183" lon="-7.6795233"><ele>583.25</ele><time>2026-04-14T09:24:39.851Z</time></trkpt><trkpt lat="42.5424483" lon="-7.67953"><ele>582.0</ele><time>2026-04-14T09:24:40.85Z</time></trkpt><trkpt lat="42.5425617" lon="-7.6795633"><ele>582.0</ele><time>2026-04-14T09:24:41.851Z</time></trkpt><trkpt lat="42.54268" lon="-7.679625"><ele>582.0</ele><time>2026-04-14T09:24:42.85Z</time></trkpt><trkpt lat="42.5427983" lon="-7.67972"><ele>582.0</ele><time>2026-04-14T09:24:43.85Z</time></trkpt><trkpt lat="42.54292" lon="-7.679835"><ele>582.0</ele><time>2026-04-14T09:24:44.85Z</time></trkpt><trkpt lat="42.5430483" lon="-7.6799517"><ele>582.75</ele><time>2026-04-14T09:24:45.85Z</time></trkpt><trkpt lat="42.5431667" lon="-7.6800633"><ele>583.5</ele><time>2026-04-14T09:24:46.851Z</time></trkpt><trkpt lat="42.5432783" lon="-7.68017"><ele>584.25</ele><time>2026-04-14T09:24:47.85Z</time></trkpt><trkpt lat="42.543385" lon="-7.6802767"><ele>585.0</ele><time>2026-04-14T09:24:48.851Z</time></trkpt><trkpt lat="42.5434917" lon="-7.6803817"><ele>581.25</ele><time>2026-04-14T09:24:49.851Z</time></trkpt><trkpt lat="42.5436033" lon="-7.6804767"><ele>577.5</ele><time>2026-04-14T09:24:50.851Z</time></trkpt><trkpt lat="42.5437117" lon="-7.6805733"><ele>573.75</ele><time>2026-04-14T09:24:51.851Z</time></trkpt><trkpt lat="42.5438183" lon="-7.6806417"><ele>570.0</ele><time>2026-04-14T09:24:52.85Z</time></trkpt><trkpt lat="42.5439267" lon="-7.6807"><ele>570.0</ele><time>2026-04-14T09:24:53.85Z</time></trkpt><trkpt lat="42.544045" lon="-7.680735"><ele>570.0</ele><time>2026-04-14T09:24:54.851Z</time></trkpt><trkpt lat="42.5441617" lon="-7.6807483"><ele>570.0</ele><time>2026-04-14T09:24:55.851Z</time></trkpt><trkpt lat="42.544275" lon="-7.6807483"><ele>570.0</ele><time>2026-04-14T09:24:56.85Z</time></trkpt><trkpt lat="42.5443867" lon="-7.6807417"><ele>570.0</ele><time>2026-04-14T09:24:57.851Z</time></trkpt><trkpt lat="42.5444967" lon="-7.6807217"><ele>570.0</ele><time>2026-04-14T09:24:58.85Z</time></trkpt><trkpt lat="42.54461" lon="-7.6806883"><ele>570.0</ele><time>2026-04-14T09:24:59.851Z</time></trkpt><trkpt lat="42.5447217" lon="-7.6806417"><ele>570.0</ele><time>2026-04-14T09:25:00.85Z</time></trkpt><trkpt lat="42.544835" lon="-7.6805867"><ele>569.2</ele><time>2026-04-14T09:25:01.851Z</time></trkpt><trkpt lat="42.544935" lon="-7.6805417"><ele>568.4</ele><time>2026-04-14T09:25:02.851Z</time></trkpt><trkpt lat="42.54503" lon="-7.6805267"><ele>567.6</ele><time>2026-04-14T09:25:03.851Z</time></trkpt><trkpt lat="42.5451183" lon="-7.6805367"><ele>566.8</ele><time>2026-04-14T09:25:04.85Z</time></trkpt><trkpt lat="42.54521" lon="-7.6806183"><ele>566.0</ele><time>2026-04-14T09:25:06.851Z</time></trkpt><trkpt lat="42.54519" lon="-7.6807867"><ele>566.0</ele><time>2026-04-14T09:25:08.851Z</time></trkpt><trkpt lat="42.545145" lon="-7.6808983"><ele>566.0</ele><time>2026-04-14T09:25:09.851Z</time></trkpt><trkpt lat="42.5450733" lon="-7.681025"><ele>566.0</ele><time>2026-04-14T09:25:10.851Z</time></trkpt><trkpt lat="42.5449967" lon="-7.6811767"><ele>566.0</ele><time>2026-04-14T09:25:11.85Z</time></trkpt><trkpt lat="42.544925" lon="-7.6813667"><ele>566.3333333333333</ele><time>2026-04-14T09:25:12.85Z</time></trkpt><trkpt lat="42.5448517" lon="-7.6815617"><ele>566.6666666666666</ele><time>2026-04-14T09:25:13.851Z</time></trkpt><trkpt lat="42.5447933" lon="-7.6817433"><ele>567.0</ele><time>2026-04-14T09:25:14.851Z</time></trkpt><trkpt lat="42.5447267" lon="-7.681915"><ele>567.0</ele><time>2026-04-14T09:25:15.851Z</time></trkpt><trkpt lat="42.5446617" lon="-7.6820817"><ele>567.0</ele><time>2026-04-14T09:25:16.851Z</time></trkpt><trkpt lat="42.5445933" lon="-7.6822417"><ele>567.0</ele><time>2026-04-14T09:25:17.852Z</time></trkpt><trkpt lat="42.5445333" lon="-7.682405"><ele>567.0</ele><time>2026-04-14T09:25:18.851Z</time></trkpt><trkpt lat="42.5444817" lon="-7.6825767"><ele>563.75</ele><time>2026-04-14T09:25:19.851Z</time></trkpt><trkpt lat="42.544445" lon="-7.6827567"><ele>560.5</ele><time>2026-04-14T09:25:20.852Z</time></trkpt><trkpt lat="42.54442" lon="-7.6829433"><ele>557.25</ele><time>2026-04-14T09:25:21.851Z</time></trkpt><trkpt lat="42.5444033" lon="-7.683135"><ele>554.0</ele><time>2026-04-14T09:25:22.852Z</time></trkpt><trkpt lat="42.5443917" lon="-7.68331"><ele>553.0</ele><time>2026-04-14T09:25:23.852Z</time></trkpt><trkpt lat="42.5443983" lon="-7.683475"><ele>552.0</ele><time>2026-04-14T09:25:24.851Z</time></trkpt><trkpt lat="42.54441" lon="-7.6836483"><ele>551.0</ele><time>2026-04-14T09:25:25.851Z</time></trkpt><trkpt lat="42.54443" lon="-7.6838217"><ele>550.0</ele><time>2026-04-14T09:25:26.851Z</time></trkpt><trkpt lat="42.54446" lon="-7.68399"><ele>550.75</ele><time>2026-04-14T09:25:27.852Z</time></trkpt><trkpt lat="42.5444967" lon="-7.6841517"><ele>551.5</ele><time>2026-04-14T09:25:28.852Z</time></trkpt><trkpt lat="42.54452" lon="-7.6843167"><ele>552.25</ele><time>2026-04-14T09:25:29.851Z</time></trkpt><trkpt lat="42.5445533" lon="-7.6844733"><ele>553.0</ele><time>2026-04-14T09:25:30.851Z</time></trkpt><trkpt lat="42.5445783" lon="-7.68463"><ele>553.0</ele><time>2026-04-14T09:25:31.851Z</time></trkpt><trkpt lat="42.5446183" lon="-7.6847917"><ele>553.0</ele><time>2026-04-14T09:25:32.852Z</time></trkpt><trkpt lat="42.5446433" lon="-7.6849633"><ele>553.0</ele><time>2026-04-14T09:25:33.851Z</time></trkpt><trkpt lat="42.5446717" lon="-7.68513"><ele>553.0</ele><time>2026-04-14T09:25:34.851Z</time></trkpt><trkpt lat="42.5446983" lon="-7.685285"><ele>550.5</ele><time>2026-04-14T09:25:35.852Z</time></trkpt><trkpt lat="42.5447267" lon="-7.685445"><ele>548.0</ele><time>2026-04-14T09:25:36.852Z</time></trkpt><trkpt lat="42.5447483" lon="-7.685615"><ele>545.5</ele><time>2026-04-14T09:25:37.851Z</time></trkpt><trkpt lat="42.54478" lon="-7.6857867"><ele>543.0</ele><time>2026-04-14T09:25:38.852Z</time></trkpt><trkpt lat="42.54481" lon="-7.6859433"><ele>539.75</ele><time>2026-04-14T09:25:39.852Z</time></trkpt><trkpt lat="42.5448417" lon="-7.68611"><ele>536.5</ele><time>2026-04-14T09:25:40.852Z</time></trkpt><trkpt lat="42.5448733" lon="-7.6862983"><ele>533.25</ele><time>2026-04-14T09:25:41.851Z</time></trkpt><trkpt lat="42.5449033" lon="-7.6865083"><ele>530.0</ele><time>2026-04-14T09:25:42.852Z</time></trkpt><trkpt lat="42.5449417" lon="-7.68674"><ele>527.3333333333333</ele><time>2026-04-14T09:25:43.851Z</time></trkpt><trkpt lat="42.54498" lon="-7.6869617"><ele>524.6666666666666</ele><time>2026-04-14T09:25:44.851Z</time></trkpt><trkpt lat="42.545015" lon="-7.687185"><ele>522.0</ele><time>2026-04-14T09:25:45.851Z</time></trkpt><trkpt lat="42.5450433" lon="-7.6873883"><ele>522.0</ele><time>2026-04-14T09:25:46.851Z</time></trkpt><trkpt lat="42.5450717" lon="-7.6875833"><ele>522.0</ele><time>2026-04-14T09:25:47.852Z</time></trkpt><trkpt lat="42.5450967" lon="-7.6877767"><ele>522.0</ele><time>2026-04-14T09:25:48.851Z</time></trkpt><trkpt lat="42.545125" lon="-7.6879567"><ele>522.0</ele><time>2026-04-14T09:25:49.852Z</time></trkpt><trkpt lat="42.545165" lon="-7.688125"><ele>519.5</ele><time>2026-04-14T09:25:50.851Z</time></trkpt><trkpt lat="42.545215" lon="-7.6882783"><ele>517.0</ele><time>2026-04-14T09:25:51.851Z</time></trkpt><trkpt lat="42.54526" lon="-7.6884417"><ele>514.5</ele><time>2026-04-14T09:25:52.852Z</time></trkpt><trkpt lat="42.5453033" lon="-7.6885917"><ele>512.0</ele><time>2026-04-14T09:25:53.851Z</time></trkpt><trkpt lat="42.545325" lon="-7.6887333"><ele>510.0</ele><time>2026-04-14T09:25:54.852Z</time></trkpt><trkpt lat="42.54532" lon="-7.6888767"><ele>508.0</ele><time>2026-04-14T09:25:55.851Z</time></trkpt><trkpt lat="42.5452883" lon="-7.6890333"><ele>506.0</ele><time>2026-04-14T09:25:56.852Z</time></trkpt><trkpt lat="42.5452367" lon="-7.68921"><ele>504.0</ele><time>2026-04-14T09:25:57.851Z</time></trkpt><trkpt lat="42.5451833" lon="-7.6893833"><ele>503.25</ele><time>2026-04-14T09:25:58.851Z</time></trkpt><trkpt lat="42.5451367" lon="-7.6895483"><ele>502.5</ele><time>2026-04-14T09:25:59.852Z</time></trkpt><trkpt lat="42.5450933" lon="-7.68971"><ele>501.75</ele><time>2026-04-14T09:26:00.851Z</time></trkpt><trkpt lat="42.545055" lon="-7.6898667"><ele>501.0</ele><time>2026-04-14T09:26:01.852Z</time></trkpt><trkpt lat="42.54502" lon="-7.6900233"><ele>501.0</ele><time>2026-04-14T09:26:02.851Z</time></trkpt><trkpt lat="42.544985" lon="-7.6901833"><ele>501.0</ele><time>2026-04-14T09:26:03.851Z</time></trkpt><trkpt lat="42.5449567" lon="-7.6903383"><ele>501.0</ele><time>2026-04-14T09:26:04.852Z</time></trkpt><trkpt lat="42.5449417" lon="-7.6904883"><ele>501.0</ele><time>2026-04-14T09:26:05.851Z</time></trkpt><trkpt lat="42.5449367" lon="-7.69064"><ele>499.5</ele><time>2026-04-14T09:26:06.852Z</time></trkpt><trkpt lat="42.5449367" lon="-7.6907933"><ele>498.0</ele><time>2026-04-14T09:26:07.852Z</time></trkpt><trkpt lat="42.54494" lon="-7.690965"><ele>496.5</ele><time>2026-04-14T09:26:08.851Z</time></trkpt><trkpt lat="42.54495" lon="-7.691125"><ele>495.0</ele><time>2026-04-14T09:26:09.852Z</time></trkpt><trkpt lat="42.5449633" lon="-7.6912883"><ele>493.0</ele><time>2026-04-14T09:26:10.851Z</time></trkpt><trkpt lat="42.5449683" lon="-7.691455"><ele>491.0</ele><time>2026-04-14T09:26:11.852Z</time></trkpt><trkpt lat="42.5449533" lon="-7.69162"><ele>489.0</ele><time>2026-04-14T09:26:12.851Z</time></trkpt><trkpt lat="42.544945" lon="-7.6917667"><ele>487.0</ele><time>2026-04-14T09:26:13.851Z</time></trkpt><trkpt lat="42.544955" lon="-7.6918833"><ele>485.0</ele><time>2026-04-14T09:26:14.852Z</time></trkpt><trkpt lat="42.54498" lon="-7.6919717"><ele>482.2</ele><time>2026-04-14T09:26:15.851Z</time></trkpt><trkpt lat="42.5450317" lon="-7.692125"><ele>479.4</ele><time>2026-04-14T09:26:17.851Z</time></trkpt><trkpt lat="42.5450867" lon="-7.69227"><ele>476.6</ele><time>2026-04-14T09:26:19.851Z</time></trkpt><trkpt lat="42.54513" lon="-7.692425"><ele>473.8</ele><time>2026-04-14T09:26:21.852Z</time></trkpt><trkpt lat="42.5451483" lon="-7.69251"><ele>471.0</ele><time>2026-04-14T09:26:22.851Z</time></trkpt><trkpt lat="42.54518" lon="-7.69268"><ele>469.4285714285715</ele><time>2026-04-14T09:26:24.851Z</time></trkpt><trkpt lat="42.5451883" lon="-7.692765"><ele>467.8571428571429</ele><time>2026-04-14T09:26:25.851Z</time></trkpt><trkpt lat="42.5451967" lon="-7.6928617"><ele>466.2857142857143</ele><time>2026-04-14T09:26:26.851Z</time></trkpt><trkpt lat="42.5452083" lon="-7.6929533"><ele>464.7142857142857</ele><time>2026-04-14T09:26:27.851Z</time></trkpt><trkpt lat="42.5452217" lon="-7.6930433"><ele>463.1428571428571</ele><time>2026-04-14T09:26:28.851Z</time></trkpt><trkpt lat="42.54524" lon="-7.693135"><ele>461.5714285714285</ele><time>2026-04-14T09:26:29.852Z</time></trkpt><trkpt lat="42.5452667" lon="-7.693235"><ele>459.99999999999994</ele><time>2026-04-14T09:26:30.852Z</time></trkpt><trkpt lat="42.5452933" lon="-7.6933333"><ele>460.00000000000006</ele><time>2026-04-14T09:26:31.851Z</time></trkpt><trkpt lat="42.5453217" lon="-7.69341"><ele>460.0</ele><time>2026-04-14T09:26:32.852Z</time></trkpt><trkpt lat="42.5453483" lon="-7.69349"><ele>460.0</ele><time>2026-04-14T09:26:33.851Z</time></trkpt><trkpt lat="42.5453767" lon="-7.6935667"><ele>460.0</ele><time>2026-04-14T09:26:34.852Z</time></trkpt><trkpt lat="42.5454167" lon="-7.693715"><ele>460.00000000000006</ele><time>2026-04-14T09:26:36.852Z</time></trkpt><trkpt lat="42.5454333" lon="-7.6938683"><ele>460.0</ele><time>2026-04-14T09:26:38.851Z</time></trkpt><trkpt lat="42.54546" lon="-7.6940267"><ele>460.4</ele><time>2026-04-14T09:26:40.851Z</time></trkpt><trkpt lat="42.5454683" lon="-7.6941733"><ele>460.8</ele><time>2026-04-14T09:26:42.851Z</time></trkpt><trkpt lat="42.5454867" lon="-7.694315"><ele>461.20000000000005</ele><time>2026-04-14T09:26:44.851Z</time></trkpt><trkpt lat="42.5455033" lon="-7.694455"><ele>461.6</ele><time>2026-04-14T09:26:46.851Z</time></trkpt><trkpt lat="42.5455133" lon="-7.6946033"><ele>462.0</ele><time>2026-04-14T09:26:48.852Z</time></trkpt><trkpt lat="42.5455" lon="-7.694765"><ele>462.0</ele><time>2026-04-14T09:26:50.851Z</time></trkpt><trkpt lat="42.545465" lon="-7.69492"><ele>462.0</ele><time>2026-04-14T09:26:52.852Z</time></trkpt><trkpt lat="42.5454433" lon="-7.6950033"><ele>462.0</ele><time>2026-04-14T09:26:53.851Z</time></trkpt><trkpt lat="42.5454167" lon="-7.69515"><ele>462.0</ele><time>2026-04-14T09:26:55.851Z</time></trkpt><trkpt lat="42.5453633" lon="-7.6952283"><ele>462.0</ele><time>2026-04-14T09:26:58.851Z</time></trkpt><trkpt lat="42.5453133" lon="-7.695155"><ele>462.0</ele><time>2026-04-14T09:27:00.852Z</time></trkpt><trkpt lat="42.545285" lon="-7.6950067"><ele>457.6666666666667</ele><time>2026-04-14T09:27:02.852Z</time></trkpt><trkpt lat="42.5452617" lon="-7.6948833"><ele>453.33333333333337</ele><time>2026-04-14T09:27:04.852Z</time></trkpt><trkpt lat="42.54524" lon="-7.6948017"><ele>449.0</ele><time>2026-04-14T09:27:06.852Z</time></trkpt><trkpt lat="42.5452183" lon="-7.6947183"><ele>444.6666666666667</ele><time>2026-04-14T09:27:09.852Z</time></trkpt><trkpt lat="42.545155" lon="-7.6946683"><ele>440.33333333333337</ele><time>2026-04-14T09:27:12.851Z</time></trkpt><trkpt lat="42.5450717" lon="-7.69462"><ele>436.0</ele><time>2026-04-14T09:27:14.852Z</time></trkpt><trkpt lat="42.5449833" lon="-7.6945683"><ele>436.0</ele><time>2026-04-14T09:27:16.851Z</time></trkpt><trkpt lat="42.544905" lon="-7.69448"><ele>436.0</ele><time>2026-04-14T09:27:18.851Z</time></trkpt><trkpt lat="42.544825" lon="-7.6943817"><ele>436.0</ele><time>2026-04-14T09:27:20.851Z</time></trkpt><trkpt lat="42.5447533" lon="-7.694295"><ele>436.0</ele><time>2026-04-14T09:27:22.851Z</time></trkpt><trkpt lat="42.5446917" lon="-7.6941717"><ele>436.0</ele><time>2026-04-14T09:27:24.852Z</time></trkpt><trkpt lat="42.544645" lon="-7.6940467"><ele>436.0</ele><time>2026-04-14T09:27:26.852Z</time></trkpt><trkpt lat="42.5446033" lon="-7.6938983"><ele>436.0</ele><time>2026-04-14T09:27:28.851Z</time></trkpt><trkpt lat="42.5445617" lon="-7.6937583"><ele>436.0</ele><time>2026-04-14T09:27:30.851Z</time></trkpt><trkpt lat="42.5444983" lon="-7.69362"><ele>436.0</ele><time>2026-04-14T09:27:32.851Z</time></trkpt><trkpt lat="42.544415" lon="-7.6934983"><ele>436.00000000000006</ele><time>2026-04-14T09:27:34.851Z</time></trkpt><trkpt lat="42.5443667" lon="-7.6934367"><ele>436.0</ele><time>2026-04-14T09:27:35.851Z</time></trkpt><trkpt lat="42.5443117" lon="-7.6933617"><ele>436.0</ele><time>2026-04-14T09:27:36.852Z</time></trkpt><trkpt lat="42.54426" lon="-7.6932717"><ele>436.0</ele><time>2026-04-14T09:27:37.851Z</time></trkpt><trkpt lat="42.5442067" lon="-7.693175"><ele>436.00000000000006</ele><time>2026-04-14T09:27:38.851Z</time></trkpt><trkpt lat="42.54415" lon="-7.69307"><ele>436.0</ele><time>2026-04-14T09:27:39.852Z</time></trkpt><trkpt lat="42.5440917" lon="-7.6929733"><ele>436.00000000000006</ele><time>2026-04-14T09:27:40.851Z</time></trkpt><trkpt lat="42.5440267" lon="-7.6928767"><ele>436.0</ele><time>2026-04-14T09:27:41.851Z</time></trkpt><trkpt lat="42.5439733" lon="-7.6927717"><ele>436.0</ele><time>2026-04-14T09:27:42.852Z</time></trkpt><trkpt lat="42.5439217" lon="-7.69268"><ele>436.0</ele><time>2026-04-14T09:27:43.852Z</time></trkpt><trkpt lat="42.54388" lon="-7.69259"><ele>436.00000000000006</ele><time>2026-04-14T09:27:44.851Z</time></trkpt><trkpt lat="42.54383" lon="-7.6925083"><ele>436.0</ele><time>2026-04-14T09:27:45.851Z</time></trkpt><trkpt lat="42.54378" lon="-7.69245"><ele>436.20000000000005</ele><time>2026-04-14T09:27:46.852Z</time></trkpt><trkpt lat="42.5436917" lon="-7.6924317"><ele>436.40000000000003</ele><time>2026-04-14T09:27:48.852Z</time></trkpt><trkpt lat="42.54364" lon="-7.6925033"><ele>436.6</ele><time>2026-04-14T09:27:50.852Z</time></trkpt><trkpt lat="42.5435783" lon="-7.6926683"><ele>436.8</ele><time>2026-04-14T09:27:52.852Z</time></trkpt><trkpt lat="42.54353" lon="-7.6927783"><ele>437.0</ele><time>2026-04-14T09:27:53.851Z</time></trkpt><trkpt lat="42.5434717" lon="-7.6929"><ele>437.0</ele><time>2026-04-14T09:27:54.852Z</time></trkpt><trkpt lat="42.5433917" lon="-7.6930283"><ele>437.0</ele><time>2026-04-14T09:27:55.852Z</time></trkpt><trkpt lat="42.54331" lon="-7.6931783"><ele>437.0</ele><time>2026-04-14T09:27:56.851Z</time></trkpt><trkpt lat="42.54325" lon="-7.6933233"><ele>437.0</ele><time>2026-04-14T09:27:57.851Z</time></trkpt><trkpt lat="42.5432" lon="-7.6934733"><ele>434.0</ele><time>2026-04-14T09:27:58.852Z</time></trkpt><trkpt lat="42.543145" lon="-7.69362"><ele>431.0</ele><time>2026-04-14T09:27:59.851Z</time></trkpt><trkpt lat="42.54307" lon="-7.693755"><ele>428.0</ele><time>2026-04-14T09:28:00.852Z</time></trkpt><trkpt lat="42.5430017" lon="-7.6938733"><ele>425.0</ele><time>2026-04-14T09:28:01.851Z</time></trkpt><trkpt lat="42.5429467" lon="-7.6939783"><ele>424.99999999999994</ele><time>2026-04-14T09:28:02.851Z</time></trkpt><trkpt lat="42.54291" lon="-7.6940783"><ele>425.0</ele><time>2026-04-14T09:28:03.852Z</time></trkpt><trkpt lat="42.5428767" lon="-7.6941833"><ele>425.0</ele><time>2026-04-14T09:28:04.852Z</time></trkpt><trkpt lat="42.5428667" lon="-7.6942883"><ele>425.0</ele><time>2026-04-14T09:28:05.852Z</time></trkpt><trkpt lat="42.5428983" lon="-7.6944083"><ele>424.99999999999994</ele><time>2026-04-14T09:28:06.852Z</time></trkpt><trkpt lat="42.5429183" lon="-7.69455"><ele>425.0</ele><time>2026-04-14T09:28:07.852Z</time></trkpt><trkpt lat="42.5429533" lon="-7.694725"><ele>422.75</ele><time>2026-04-14T09:28:08.852Z</time></trkpt><trkpt lat="42.5429833" lon="-7.6949"><ele>420.5</ele><time>2026-04-14T09:28:09.851Z</time></trkpt><trkpt lat="42.543" lon="-7.6950783"><ele>418.25</ele><time>2026-04-14T09:28:10.852Z</time></trkpt><trkpt lat="42.5430167" lon="-7.6952383"><ele>416.0</ele><time>2026-04-14T09:28:11.851Z</time></trkpt><trkpt lat="42.54302" lon="-7.6953783"><ele>417.8</ele><time>2026-04-14T09:28:12.852Z</time></trkpt><trkpt lat="42.5430183" lon="-7.6954933"><ele>419.6</ele><time>2026-04-14T09:28:13.852Z</time></trkpt><trkpt lat="42.5430017" lon="-7.69558"><ele>421.4</ele><time>2026-04-14T09:28:14.851Z</time></trkpt><trkpt lat="42.542915" lon="-7.69571"><ele>423.2</ele><time>2026-04-14T09:28:16.851Z</time></trkpt><trkpt lat="42.5428367" lon="-7.69577"><ele>425.0</ele><time>2026-04-14T09:28:17.851Z</time></trkpt><trkpt lat="42.5427533" lon="-7.6958317"><ele>425.0</ele><time>2026-04-14T09:28:18.851Z</time></trkpt><trkpt lat="42.54266" lon="-7.695895"><ele>425.0</ele><time>2026-04-14T09:28:19.851Z</time></trkpt><trkpt lat="42.54256" lon="-7.6959733"><ele>425.0</ele><time>2026-04-14T09:28:20.852Z</time></trkpt><trkpt lat="42.542455" lon="-7.6960667"><ele>425.0</ele><time>2026-04-14T09:28:21.851Z</time></trkpt><trkpt lat="42.542345" lon="-7.6961617"><ele>423.25</ele><time>2026-04-14T09:28:22.852Z</time></trkpt><trkpt lat="42.542215" lon="-7.69624"><ele>421.5</ele><time>2026-04-14T09:28:23.851Z</time></trkpt><trkpt lat="42.542065" lon="-7.6963033"><ele>419.75</ele><time>2026-04-14T09:28:24.852Z</time></trkpt><trkpt lat="42.5419283" lon="-7.6963633"><ele>418.0</ele><time>2026-04-14T09:28:25.852Z</time></trkpt><trkpt lat="42.5418167" lon="-7.6964467"><ele>418.0</ele><time>2026-04-14T09:28:26.851Z</time></trkpt><trkpt lat="42.5417383" lon="-7.6965483"><ele>418.0</ele><time>2026-04-14T09:28:27.851Z</time></trkpt><trkpt lat="42.54169" lon="-7.6966733"><ele>418.0</ele><time>2026-04-14T09:28:28.851Z</time></trkpt><trkpt lat="42.5416467" lon="-7.6968083"><ele>418.0</ele><time>2026-04-14T09:28:29.851Z</time></trkpt><trkpt lat="42.541595" lon="-7.69692"><ele>418.0</ele><time>2026-04-14T09:28:30.852Z</time></trkpt><trkpt lat="42.5415483" lon="-7.6969933"><ele>418.79999999999995</ele><time>2026-04-14T09:28:31.851Z</time></trkpt><trkpt lat="42.54143" lon="-7.6970333"><ele>419.6</ele><time>2026-04-14T09:28:33.851Z</time></trkpt><trkpt lat="42.541345" lon="-7.6969917"><ele>420.4</ele><time>2026-04-14T09:28:34.852Z</time></trkpt><trkpt lat="42.54125" lon="-7.696935"><ele>421.20000000000005</ele><time>2026-04-14T09:28:35.852Z</time></trkpt><trkpt lat="42.5411383" lon="-7.6968867"><ele>422.0</ele><time>2026-04-14T09:28:36.852Z</time></trkpt><trkpt lat="42.5410217" lon="-7.696875"><ele>422.0</ele><time>2026-04-14T09:28:37.852Z</time></trkpt><trkpt lat="42.540905" lon="-7.696885"><ele>422.0</ele><time>2026-04-14T09:28:38.851Z</time></trkpt><trkpt lat="42.5407917" lon="-7.6968867"><ele>422.0</ele><time>2026-04-14T09:28:39.851Z</time></trkpt><trkpt lat="42.540685" lon="-7.696875"><ele>422.0</ele><time>2026-04-14T09:28:40.852Z</time></trkpt><trkpt lat="42.540585" lon="-7.69686"><ele>422.0</ele><time>2026-04-14T09:28:41.852Z</time></trkpt><trkpt lat="42.5404933" lon="-7.6968267"><ele>422.0</ele><time>2026-04-14T09:28:42.851Z</time></trkpt><trkpt lat="42.5404217" lon="-7.6967733"><ele>422.0</ele><time>2026-04-14T09:28:43.852Z</time></trkpt><trkpt lat="42.5403617" lon="-7.6967017"><ele>422.0</ele><time>2026-04-14T09:28:44.851Z</time></trkpt><trkpt lat="42.5403117" lon="-7.6965933"><ele>422.0</ele><time>2026-04-14T09:28:45.851Z</time></trkpt><trkpt lat="42.540265" lon="-7.696465"><ele>422.0</ele><time>2026-04-14T09:28:46.852Z</time></trkpt><trkpt lat="42.540215" lon="-7.696335"><ele>421.6</ele><time>2026-04-14T09:28:47.852Z</time></trkpt><trkpt lat="42.540165" lon="-7.696215"><ele>421.20000000000005</ele><time>2026-04-14T09:28:48.852Z</time></trkpt><trkpt lat="42.5400983" lon="-7.696105"><ele>420.8</ele><time>2026-04-14T09:28:49.851Z</time></trkpt><trkpt lat="42.54002" lon="-7.695995"><ele>420.4</ele><time>2026-04-14T09:28:50.851Z</time></trkpt><trkpt lat="42.5399367" lon="-7.6958817"><ele>420.0</ele><time>2026-04-14T09:28:51.852Z</time></trkpt><trkpt lat="42.5398367" lon="-7.6957567"><ele>420.0</ele><time>2026-04-14T09:28:52.852Z</time></trkpt><trkpt lat="42.5397267" lon="-7.695635"><ele>420.0</ele><time>2026-04-14T09:28:53.851Z</time></trkpt><trkpt lat="42.539625" lon="-7.695515"><ele>420.0</ele><time>2026-04-14T09:28:54.851Z</time></trkpt><trkpt lat="42.5395283" lon="-7.6954017"><ele>420.0</ele><time>2026-04-14T09:28:55.852Z</time></trkpt><trkpt lat="42.5394317" lon="-7.695325"><ele>421.0</ele><time>2026-04-14T09:28:56.852Z</time></trkpt><trkpt lat="42.53934" lon="-7.69528"><ele>422.0</ele><time>2026-04-14T09:28:57.851Z</time></trkpt><trkpt lat="42.5392583" lon="-7.6952567"><ele>423.0</ele><time>2026-04-14T09:28:58.851Z</time></trkpt><trkpt lat="42.53919" lon="-7.695245"><ele>424.0</ele><time>2026-04-14T09:28:59.851Z</time></trkpt><trkpt lat="42.5391033" lon="-7.6953133"><ele>425.0</ele><time>2026-04-14T09:29:01.851Z</time></trkpt><trkpt lat="42.5391033" lon="-7.6954417"><ele>426.0</ele><time>2026-04-14T09:29:03.852Z</time></trkpt><trkpt lat="42.539155" lon="-7.69551"><ele>426.0</ele><time>2026-04-14T09:29:04.851Z</time></trkpt><trkpt lat="42.5392133" lon="-7.6955817"><ele>426.0</ele><time>2026-04-14T09:29:05.851Z</time></trkpt><trkpt lat="42.5392717" lon="-7.695675"><ele>426.0</ele><time>2026-04-14T09:29:06.851Z</time></trkpt><trkpt lat="42.5393217" lon="-7.6957817"><ele>426.0</ele><time>2026-04-14T09:29:07.851Z</time></trkpt><trkpt lat="42.5393733" lon="-7.6959133"><ele>426.0</ele><time>2026-04-14T09:29:08.852Z</time></trkpt><trkpt lat="42.5394183" lon="-7.6960583"><ele>425.8</ele><time>2026-04-14T09:29:09.852Z</time></trkpt><trkpt lat="42.5394583" lon="-7.6962133"><ele>425.6</ele><time>2026-04-14T09:29:10.851Z</time></trkpt><trkpt lat="42.5394833" lon="-7.6963517"><ele>425.4</ele><time>2026-04-14T09:29:11.852Z</time></trkpt><trkpt lat="42.539495" lon="-7.6964833"><ele>425.2</ele><time>2026-04-14T09:29:12.851Z</time></trkpt><trkpt lat="42.539505" lon="-7.6966267"><ele>425.0</ele><time>2026-04-14T09:29:13.852Z</time></trkpt><trkpt lat="42.53951" lon="-7.69678"><ele>423.25</ele><time>2026-04-14T09:29:14.851Z</time></trkpt><trkpt lat="42.5395017" lon="-7.6969483"><ele>421.5</ele><time>2026-04-14T09:29:15.851Z</time></trkpt><trkpt lat="42.5394883" lon="-7.69714"><ele>419.75</ele><time>2026-04-14T09:29:16.852Z</time></trkpt><trkpt lat="42.5394667" lon="-7.6973433"><ele>418.0</ele><time>2026-04-14T09:29:17.851Z</time></trkpt><trkpt lat="42.539455" lon="-7.6975383"><ele>418.0</ele><time>2026-04-14T09:29:18.851Z</time></trkpt><trkpt lat="42.539445" lon="-7.6977417"><ele>418.0</ele><time>2026-04-14T09:29:19.851Z</time></trkpt><trkpt lat="42.5394383" lon="-7.6979183"><ele>418.0</ele><time>2026-04-14T09:29:20.852Z</time></trkpt><trkpt lat="42.539425" lon="-7.6981017"><ele>418.0</ele><time>2026-04-14T09:29:21.852Z</time></trkpt><trkpt lat="42.5394333" lon="-7.6982767"><ele>416.5</ele><time>2026-04-14T09:29:22.852Z</time></trkpt><trkpt lat="42.5394633" lon="-7.6984383"><ele>415.0</ele><time>2026-04-14T09:29:23.852Z</time></trkpt><trkpt lat="42.539495" lon="-7.698595"><ele>413.5</ele><time>2026-04-14T09:29:24.852Z</time></trkpt><trkpt lat="42.5395367" lon="-7.6987383"><ele>412.0</ele><time>2026-04-14T09:29:25.851Z</time></trkpt><trkpt lat="42.53959" lon="-7.6988783"><ele>402.40000000000003</ele><time>2026-04-14T09:29:26.851Z</time></trkpt><trkpt lat="42.5396467" lon="-7.6990117"><ele>392.8</ele><time>2026-04-14T09:29:27.852Z</time></trkpt><trkpt lat="42.5396917" lon="-7.6991367"><ele>383.2</ele><time>2026-04-14T09:29:28.851Z</time></trkpt><trkpt lat="42.5397183" lon="-7.699265"><ele>373.6</ele><time>2026-04-14T09:29:29.851Z</time></trkpt><trkpt lat="42.5397233" lon="-7.6993867"><ele>364.0</ele><time>2026-04-14T09:29:30.851Z</time></trkpt><trkpt lat="42.5397167" lon="-7.6995"><ele>362.0</ele><time>2026-04-14T09:29:31.852Z</time></trkpt><trkpt lat="42.5396867" lon="-7.6995967"><ele>360.0</ele><time>2026-04-14T09:29:32.852Z</time></trkpt><trkpt lat="42.5396317" lon="-7.6996783"><ele>358.0</ele><time>2026-04-14T09:29:33.852Z</time></trkpt><trkpt lat="42.539555" lon="-7.6997517"><ele>356.0</ele><time>2026-04-14T09:29:34.851Z</time></trkpt><trkpt lat="42.53945" lon="-7.6998267"><ele>354.0</ele><time>2026-04-14T09:29:35.851Z</time></trkpt><trkpt lat="42.539345" lon="-7.6999117"><ele>360.5</ele><time>2026-04-14T09:29:36.851Z</time></trkpt><trkpt lat="42.5392383" lon="-7.6999933"><ele>367.0</ele><time>2026-04-14T09:29:37.851Z</time></trkpt><trkpt lat="42.5391267" lon="-7.70007"><ele>373.5</ele><time>2026-04-14T09:29:38.852Z</time></trkpt><trkpt lat="42.5390133" lon="-7.7001333"><ele>380.0</ele><time>2026-04-14T09:29:39.852Z</time></trkpt><trkpt lat="42.5389033" lon="-7.700195"><ele>376.6</ele><time>2026-04-14T09:29:40.851Z</time></trkpt><trkpt lat="42.5387983" lon="-7.7002633"><ele>373.2</ele><time>2026-04-14T09:29:41.852Z</time></trkpt><trkpt lat="42.53871" lon="-7.7003367"><ele>369.79999999999995</ele><time>2026-04-14T09:29:42.851Z</time></trkpt><trkpt lat="42.5386217" lon="-7.700405"><ele>366.4</ele><time>2026-04-14T09:29:43.851Z</time></trkpt><trkpt lat="42.5385383" lon="-7.70049"><ele>363.0</ele><time>2026-04-14T09:29:44.851Z</time></trkpt><trkpt lat="42.5384533" lon="-7.7005867"><ele>363.0</ele><time>2026-04-14T09:29:45.852Z</time></trkpt><trkpt lat="42.5383683" lon="-7.7006817"><ele>363.0</ele><time>2026-04-14T09:29:46.851Z</time></trkpt><trkpt lat="42.5382833" lon="-7.7007833"><ele>363.0</ele><time>2026-04-14T09:29:47.851Z</time></trkpt><trkpt lat="42.5382067" lon="-7.7008867"><ele>363.0</ele><time>2026-04-14T09:29:48.851Z</time></trkpt><trkpt lat="42.53814" lon="-7.700975"><ele>363.0</ele><time>2026-04-14T09:29:49.852Z</time></trkpt><trkpt lat="42.53809" lon="-7.70107"><ele>364.1666666666667</ele><time>2026-04-14T09:29:50.852Z</time></trkpt><trkpt lat="42.5380417" lon="-7.7011767"><ele>365.3333333333333</ele><time>2026-04-14T09:29:51.852Z</time></trkpt><trkpt lat="42.5380017" lon="-7.701275"><ele>366.5</ele><time>2026-04-14T09:29:52.851Z</time></trkpt><trkpt lat="42.5379583" lon="-7.70138"><ele>367.66666666666663</ele><time>2026-04-14T09:29:53.851Z</time></trkpt><trkpt lat="42.5379217" lon="-7.7014867"><ele>368.8333333333333</ele><time>2026-04-14T09:29:54.852Z</time></trkpt><trkpt lat="42.537895" lon="-7.7015933"><ele>370.0</ele><time>2026-04-14T09:29:55.852Z</time></trkpt><trkpt lat="42.5378833" lon="-7.7017083"><ele>370.0</ele><time>2026-04-14T09:29:56.851Z</time></trkpt><trkpt lat="42.5378767" lon="-7.7018417"><ele>370.0</ele><time>2026-04-14T09:29:57.852Z</time></trkpt><trkpt lat="42.53788" lon="-7.7019883"><ele>370.0</ele><time>2026-04-14T09:29:58.851Z</time></trkpt><trkpt lat="42.5378983" lon="-7.7021433"><ele>370.0</ele><time>2026-04-14T09:29:59.852Z</time></trkpt><trkpt lat="42.5379267" lon="-7.702295"><ele>370.0</ele><time>2026-04-14T09:30:00.852Z</time></trkpt><trkpt lat="42.5379533" lon="-7.7024367"><ele>361.75</ele><time>2026-04-14T09:30:01.852Z</time></trkpt><trkpt lat="42.5379883" lon="-7.70258"><ele>353.5</ele><time>2026-04-14T09:30:02.852Z</time></trkpt><trkpt lat="42.53803" lon="-7.702715"><ele>345.25</ele><time>2026-04-14T09:30:03.851Z</time></trkpt><trkpt lat="42.53809" lon="-7.7028467"><ele>337.0</ele><time>2026-04-14T09:30:04.851Z</time></trkpt><trkpt lat="42.5381667" lon="-7.7029683"><ele>337.0</ele><time>2026-04-14T09:30:05.851Z</time></trkpt><trkpt lat="42.53826" lon="-7.703085"><ele>337.0</ele><time>2026-04-14T09:30:06.852Z</time></trkpt><trkpt lat="42.5383433" lon="-7.70319"><ele>337.0</ele><time>2026-04-14T09:30:07.851Z</time></trkpt><trkpt lat="42.53842" lon="-7.7032967"><ele>337.0</ele><time>2026-04-14T09:30:08.852Z</time></trkpt><trkpt lat="42.5384817" lon="-7.7034017"><ele>337.0</ele><time>2026-04-14T09:30:09.852Z</time></trkpt><trkpt lat="42.538525" lon="-7.7034967"><ele>337.0</ele><time>2026-04-14T09:30:10.851Z</time></trkpt><trkpt lat="42.538545" lon="-7.7035817"><ele>337.0</ele><time>2026-04-14T09:30:11.851Z</time></trkpt><trkpt lat="42.53859" lon="-7.7036917"><ele>337.0</ele><time>2026-04-14T09:30:13.851Z</time></trkpt><trkpt lat="42.5386667" lon="-7.7036567"><ele>337.0</ele><time>2026-04-14T09:30:15.852Z</time></trkpt><trkpt lat="42.5387083" lon="-7.70349"><ele>337.0</ele><time>2026-04-14T09:30:17.851Z</time></trkpt><trkpt lat="42.5386917" lon="-7.7033683"><ele>337.0</ele><time>2026-04-14T09:30:18.851Z</time></trkpt><trkpt lat="42.5386467" lon="-7.7032517"><ele>337.0</ele><time>2026-04-14T09:30:19.851Z</time></trkpt><trkpt lat="42.5386133" lon="-7.7031483"><ele>337.0</ele><time>2026-04-14T09:30:20.851Z</time></trkpt><trkpt lat="42.5386333" lon="-7.7030133"><ele>337.0</ele><time>2026-04-14T09:30:22.852Z</time></trkpt><trkpt lat="42.5387167" lon="-7.70298"><ele>337.0</ele><time>2026-04-14T09:30:24.851Z</time></trkpt><trkpt lat="42.53883" lon="-7.70307"><ele>330.40000000000003</ele><time>2026-04-14T09:30:26.851Z</time></trkpt><trkpt lat="42.5388933" lon="-7.7031883"><ele>323.8</ele><time>2026-04-14T09:30:27.852Z</time></trkpt><trkpt lat="42.5389567" lon="-7.7033167"><ele>317.2</ele><time>2026-04-14T09:30:28.851Z</time></trkpt><trkpt lat="42.5389967" lon="-7.7034567"><ele>310.6</ele><time>2026-04-14T09:30:29.851Z</time></trkpt><trkpt lat="42.5390367" lon="-7.7036033"><ele>304.0</ele><time>2026-04-14T09:30:30.851Z</time></trkpt><trkpt lat="42.5390583" lon="-7.7037567"><ele>303.0</ele><time>2026-04-14T09:30:31.851Z</time></trkpt><trkpt lat="42.539055" lon="-7.7038817"><ele>302.0</ele><time>2026-04-14T09:30:32.851Z</time></trkpt><trkpt lat="42.5390383" lon="-7.7040083"><ele>301.0</ele><time>2026-04-14T09:30:33.852Z</time></trkpt><trkpt lat="42.539" lon="-7.7041333"><ele>300.0</ele><time>2026-04-14T09:30:34.851Z</time></trkpt><trkpt lat="42.5389567" lon="-7.7042633"><ele>299.0</ele><time>2026-04-14T09:30:35.852Z</time></trkpt><trkpt lat="42.5389217" lon="-7.7043967"><ele>296.75</ele><time>2026-04-14T09:30:36.851Z</time></trkpt><trkpt lat="42.5388933" lon="-7.7045533"><ele>294.5</ele><time>2026-04-14T09:30:37.851Z</time></trkpt><trkpt lat="42.5388917" lon="-7.7047067"><ele>292.25</ele><time>2026-04-14T09:30:38.852Z</time></trkpt><trkpt lat="42.5388983" lon="-7.7048633"><ele>290.0</ele><time>2026-04-14T09:30:39.852Z</time></trkpt><trkpt lat="42.53892" lon="-7.7050317"><ele>290.0</ele><time>2026-04-14T09:30:40.851Z</time></trkpt><trkpt lat="42.5389383" lon="-7.7052033"><ele>290.0</ele><time>2026-04-14T09:30:41.851Z</time></trkpt><trkpt lat="42.5389583" lon="-7.7053867"><ele>290.0</ele><time>2026-04-14T09:30:42.851Z</time></trkpt><trkpt lat="42.5389817" lon="-7.70558"><ele>290.0</ele><time>2026-04-14T09:30:43.851Z</time></trkpt><trkpt lat="42.5390067" lon="-7.7057683"><ele>289.2</ele><time>2026-04-14T09:30:44.851Z</time></trkpt><trkpt lat="42.539035" lon="-7.705935"><ele>288.4</ele><time>2026-04-14T09:30:45.852Z</time></trkpt><trkpt lat="42.53904" lon="-7.7060917"><ele>287.6</ele><time>2026-04-14T09:30:46.853Z</time></trkpt><trkpt lat="42.5390333" lon="-7.7062283"><ele>286.8</ele><time>2026-04-14T09:30:47.852Z</time></trkpt><trkpt lat="42.5389983" lon="-7.7063467"><ele>286.0</ele><time>2026-04-14T09:30:48.852Z</time></trkpt><trkpt lat="42.5389367" lon="-7.7064583"><ele>288.75</ele><time>2026-04-14T09:30:49.852Z</time></trkpt><trkpt lat="42.53885" lon="-7.7065617"><ele>291.5</ele><time>2026-04-14T09:30:50.852Z</time></trkpt><trkpt lat="42.538765" lon="-7.7066717"><ele>294.25</ele><time>2026-04-14T09:30:51.853Z</time></trkpt><trkpt lat="42.5387" lon="-7.7068033"><ele>297.0</ele><time>2026-04-14T09:30:52.852Z</time></trkpt><trkpt lat="42.5386367" lon="-7.7069317"><ele>291.6</ele><time>2026-04-14T09:30:53.852Z</time></trkpt><trkpt lat="42.5385733" lon="-7.7070317"><ele>286.2</ele><time>2026-04-14T09:30:54.853Z</time></trkpt><trkpt lat="42.5384933" lon="-7.7071017"><ele>280.8</ele><time>2026-04-14T09:30:55.852Z</time></trkpt><trkpt lat="42.538395" lon="-7.70715"><ele>275.4</ele><time>2026-04-14T09:30:56.852Z</time></trkpt><trkpt lat="42.5382767" lon="-7.7071683"><ele>270.0</ele><time>2026-04-14T09:30:57.853Z</time></trkpt><trkpt lat="42.5381483" lon="-7.7071683"><ele>270.0</ele><time>2026-04-14T09:30:58.852Z</time></trkpt><trkpt lat="42.5380133" lon="-7.7071583"><ele>270.0</ele><time>2026-04-14T09:30:59.852Z</time></trkpt><trkpt lat="42.5378833" lon="-7.7071433"><ele>270.0</ele><time>2026-04-14T09:31:00.852Z</time></trkpt><trkpt lat="42.5377567" lon="-7.7071167"><ele>270.0</ele><time>2026-04-14T09:31:01.853Z</time></trkpt><trkpt lat="42.537635" lon="-7.7070933"><ele>268.2</ele><time>2026-04-14T09:31:02.853Z</time></trkpt><trkpt lat="42.5375233" lon="-7.7070717"><ele>266.4</ele><time>2026-04-14T09:31:03.853Z</time></trkpt><trkpt lat="42.5374217" lon="-7.7070583"><ele>264.6</ele><time>2026-04-14T09:31:04.853Z</time></trkpt><trkpt lat="42.537335" lon="-7.707035"><ele>262.8</ele><time>2026-04-14T09:31:05.853Z</time></trkpt><trkpt lat="42.5372517" lon="-7.7070267"><ele>261.0</ele><time>2026-04-14T09:31:06.853Z</time></trkpt><trkpt lat="42.53718" lon="-7.7070333"><ele>261.0</ele><time>2026-04-14T09:31:07.852Z</time></trkpt><trkpt lat="42.53712" lon="-7.7070617"><ele>261.0</ele><time>2026-04-14T09:31:08.852Z</time></trkpt><trkpt lat="42.5370733" lon="-7.70717"><ele>261.0</ele><time>2026-04-14T09:31:10.852Z</time></trkpt><trkpt lat="42.5371417" lon="-7.7073167"><ele>261.0</ele><time>2026-04-14T09:31:12.852Z</time></trkpt><trkpt lat="42.53723" lon="-7.707405"><ele>261.0</ele><time>2026-04-14T09:31:13.852Z</time></trkpt><trkpt lat="42.537325" lon="-7.7075083"><ele>261.0</ele><time>2026-04-14T09:31:14.852Z</time></trkpt><trkpt lat="42.5374233" lon="-7.70763"><ele>261.0</ele><time>2026-04-14T09:31:15.853Z</time></trkpt><trkpt lat="42.53752" lon="-7.7077433"><ele>261.0</ele><time>2026-04-14T09:31:16.852Z</time></trkpt><trkpt lat="42.5376117" lon="-7.7078533"><ele>261.0</ele><time>2026-04-14T09:31:17.853Z</time></trkpt><trkpt lat="42.5377" lon="-7.7079467"><ele>258.1666666666667</ele><time>2026-04-14T09:31:18.853Z</time></trkpt><trkpt lat="42.5377833" lon="-7.70804"><ele>255.33333333333331</ele><time>2026-04-14T09:31:19.852Z</time></trkpt><trkpt lat="42.537855" lon="-7.7081283"><ele>252.5</ele><time>2026-04-14T09:31:20.852Z</time></trkpt><trkpt lat="42.5379133" lon="-7.7081883"><ele>249.66666666666666</ele><time>2026-04-14T09:31:21.853Z</time></trkpt><trkpt lat="42.5379733" lon="-7.7082767"><ele>246.83333333333331</ele><time>2026-04-14T09:31:23.852Z</time></trkpt><trkpt lat="42.5379417" lon="-7.7083683"><ele>244.0</ele><time>2026-04-14T09:31:27.853Z</time></trkpt><trkpt lat="42.5378167" lon="-7.7083983"><ele>243.66666666666666</ele><time>2026-04-14T09:31:29.853Z</time></trkpt><trkpt lat="42.5377467" lon="-7.7084183"><ele>243.33333333333331</ele><time>2026-04-14T09:31:30.852Z</time></trkpt><trkpt lat="42.5376767" lon="-7.7084217"><ele>243.0</ele><time>2026-04-14T09:31:31.853Z</time></trkpt><trkpt lat="42.5376033" lon="-7.7083983"><ele>242.66666666666669</ele><time>2026-04-14T09:31:32.852Z</time></trkpt><trkpt lat="42.537515" lon="-7.7083717"><ele>242.33333333333334</ele><time>2026-04-14T09:31:33.852Z</time></trkpt><trkpt lat="42.5374283" lon="-7.7083467"><ele>242.0</ele><time>2026-04-14T09:31:34.853Z</time></trkpt><trkpt lat="42.537345" lon="-7.70833"><ele>242.00000000000003</ele><time>2026-04-14T09:31:35.853Z</time></trkpt><trkpt lat="42.537265" lon="-7.7083317"><ele>242.0</ele><time>2026-04-14T09:31:36.852Z</time></trkpt><trkpt lat="42.5371733" lon="-7.70835"><ele>242.0</ele><time>2026-04-14T09:31:37.852Z</time></trkpt><trkpt lat="42.5370883" lon="-7.708365"><ele>242.0</ele><time>2026-04-14T09:31:38.853Z</time></trkpt><trkpt lat="42.537015" lon="-7.70837"><ele>242.00000000000003</ele><time>2026-04-14T09:31:39.853Z</time></trkpt><trkpt lat="42.53695" lon="-7.7083683"><ele>242.0</ele><time>2026-04-14T09:31:40.853Z</time></trkpt><trkpt lat="42.5368683" lon="-7.7083417"><ele>242.83333333333334</ele><time>2026-04-14T09:31:42.852Z</time></trkpt><trkpt lat="42.5368133" lon="-7.7082567"><ele>243.66666666666669</ele><time>2026-04-14T09:31:45.853Z</time></trkpt><trkpt lat="42.53679" lon="-7.7081283"><ele>244.5</ele><time>2026-04-14T09:31:47.852Z</time></trkpt><trkpt lat="42.5367933" lon="-7.708035"><ele>245.33333333333331</ele><time>2026-04-14T09:31:48.852Z</time></trkpt><trkpt lat="42.5368017" lon="-7.7079383"><ele>246.16666666666666</ele><time>2026-04-14T09:31:49.852Z</time></trkpt><trkpt lat="42.5367983" lon="-7.707835"><ele>247.0</ele><time>2026-04-14T09:31:50.853Z</time></trkpt><trkpt lat="42.5367717" lon="-7.7077383"><ele>246.99999999999997</ele><time>2026-04-14T09:31:51.853Z</time></trkpt><trkpt lat="42.5367417" lon="-7.70764"><ele>247.0</ele><time>2026-04-14T09:31:52.853Z</time></trkpt><trkpt lat="42.5367167" lon="-7.7075467"><ele>247.0</ele><time>2026-04-14T09:31:53.853Z</time></trkpt><trkpt lat="42.5366967" lon="-7.70745"><ele>247.0</ele><time>2026-04-14T09:31:54.852Z</time></trkpt><trkpt lat="42.5366717" lon="-7.7073517"><ele>246.99999999999997</ele><time>2026-04-14T09:31:55.853Z</time></trkpt><trkpt lat="42.536645" lon="-7.707245"><ele>247.0</ele><time>2026-04-14T09:31:56.852Z</time></trkpt><trkpt lat="42.536615" lon="-7.7071433"><ele>246.99999999999997</ele><time>2026-04-14T09:31:57.852Z</time></trkpt><trkpt lat="42.5365783" lon="-7.7070683"><ele>247.0</ele><time>2026-04-14T09:31:58.852Z</time></trkpt><trkpt lat="42.5365067" lon="-7.7069917"><ele>247.0</ele><time>2026-04-14T09:32:00.852Z</time></trkpt><trkpt lat="42.53645" lon="-7.7070833"><ele>247.0</ele><time>2026-04-14T09:32:02.853Z</time></trkpt><trkpt lat="42.5364217" lon="-7.7071983"><ele>246.99999999999997</ele><time>2026-04-14T09:32:03.852Z</time></trkpt><trkpt lat="42.5363633" lon="-7.707305"><ele>247.0</ele><time>2026-04-14T09:32:04.853Z</time></trkpt><trkpt lat="42.5362717" lon="-7.7074233"><ele>248.66666666666666</ele><time>2026-04-14T09:32:05.852Z</time></trkpt><trkpt lat="42.5361333" lon="-7.70754"><ele>250.33333333333331</ele><time>2026-04-14T09:32:06.852Z</time></trkpt><trkpt lat="42.53595" lon="-7.707645"><ele>252.0</ele><time>2026-04-14T09:32:07.853Z</time></trkpt><trkpt lat="42.5357667" lon="-7.7077483"><ele>248.33333333333331</ele><time>2026-04-14T09:32:08.853Z</time></trkpt><trkpt lat="42.5355983" lon="-7.7078483"><ele>244.66666666666666</ele><time>2026-04-14T09:32:09.853Z</time></trkpt><trkpt lat="42.5354533" lon="-7.7079333"><ele>241.0</ele><time>2026-04-14T09:32:10.852Z</time></trkpt><trkpt lat="42.5353183" lon="-7.70801"><ele>241.0</ele><time>2026-04-14T09:32:11.853Z</time></trkpt><trkpt lat="42.5351917" lon="-7.7081"><ele>241.0</ele><time>2026-04-14T09:32:12.853Z</time></trkpt><trkpt lat="42.5350617" lon="-7.7081983"><ele>241.0</ele><time>2026-04-14T09:32:13.853Z</time></trkpt><trkpt lat="42.5349367" lon="-7.7082933"><ele>241.0</ele><time>2026-04-14T09:32:14.853Z</time></trkpt><trkpt lat="42.5348317" lon="-7.7083567"><ele>240.99999999999997</ele><time>2026-04-14T09:32:15.852Z</time></trkpt><trkpt lat="42.5347517" lon="-7.7083817"><ele>241.0</ele><time>2026-04-14T09:32:16.852Z</time></trkpt><trkpt lat="42.534685" lon="-7.708385"><ele>241.0</ele><time>2026-04-14T09:32:17.853Z</time></trkpt><trkpt lat="42.534625" lon="-7.70835"><ele>241.0</ele><time>2026-04-14T09:32:18.853Z</time></trkpt><trkpt lat="42.5345717" lon="-7.7082733"><ele>240.99999999999997</ele><time>2026-04-14T09:32:19.852Z</time></trkpt><trkpt lat="42.5345283" lon="-7.7081633"><ele>241.0</ele><time>2026-04-14T09:32:20.853Z</time></trkpt><trkpt lat="42.5345067" lon="-7.7080767"><ele>239.33333333333331</ele><time>2026-04-14T09:32:21.852Z</time></trkpt><trkpt lat="42.5344867" lon="-7.707925"><ele>237.66666666666666</ele><time>2026-04-14T09:32:23.852Z</time></trkpt><trkpt lat="42.5344617" lon="-7.70784"><ele>236.0</ele><time>2026-04-14T09:32:24.852Z</time></trkpt><trkpt lat="42.5344267" lon="-7.70775"><ele>234.33333333333331</ele><time>2026-04-14T09:32:25.852Z</time></trkpt><trkpt lat="42.5343767" lon="-7.7076583"><ele>232.66666666666666</ele><time>2026-04-14T09:32:26.853Z</time></trkpt><trkpt lat="42.534305" lon="-7.7075817"><ele>231.0</ele><time>2026-04-14T09:32:27.852Z</time></trkpt><trkpt lat="42.5342317" lon="-7.7075183"><ele>235.0</ele><time>2026-04-14T09:32:28.853Z</time></trkpt><trkpt lat="42.53417" lon="-7.7074617"><ele>239.00000000000003</ele><time>2026-04-14T09:32:29.852Z</time></trkpt><trkpt lat="42.5341267" lon="-7.70738"><ele>243.00000000000003</ele><time>2026-04-14T09:32:30.852Z</time></trkpt><trkpt lat="42.53409" lon="-7.70727"><ele>247.0</ele><time>2026-04-14T09:32:31.852Z</time></trkpt><trkpt lat="42.534065" lon="-7.70713"><ele>251.0</ele><time>2026-04-14T09:32:32.852Z</time></trkpt><trkpt lat="42.5340267" lon="-7.7069683"><ele>254.0</ele><time>2026-04-14T09:32:33.853Z</time></trkpt><trkpt lat="42.5339733" lon="-7.7068"><ele>257.0</ele><time>2026-04-14T09:32:34.852Z</time></trkpt><trkpt lat="42.5339067" lon="-7.7066617"><ele>260.0</ele><time>2026-04-14T09:32:35.852Z</time></trkpt><trkpt lat="42.5338467" lon="-7.7065467"><ele>263.0</ele><time>2026-04-14T09:32:36.852Z</time></trkpt><trkpt lat="42.5338" lon="-7.7064517"><ele>266.0</ele><time>2026-04-14T09:32:37.852Z</time></trkpt><trkpt lat="42.5337617" lon="-7.7063617"><ele>266.0</ele><time>2026-04-14T09:32:38.853Z</time></trkpt><trkpt lat="42.5337367" lon="-7.7062167"><ele>266.0</ele><time>2026-04-14T09:32:40.853Z</time></trkpt><trkpt lat="42.53372" lon="-7.7061183"><ele>266.0</ele><time>2026-04-14T09:32:48.852Z</time></trkpt><trkpt lat="42.53374" lon="-7.706025"><ele>266.0</ele><time>2026-04-14T09:32:50.852Z</time></trkpt><trkpt lat="42.5337517" lon="-7.7058417"><ele>266.0</ele><time>2026-04-14T09:32:52.852Z</time></trkpt><trkpt lat="42.533765" lon="-7.7057217"><ele>267.6</ele><time>2026-04-14T09:32:53.852Z</time></trkpt><trkpt lat="42.5337883" lon="-7.7056"><ele>269.20000000000005</ele><time>2026-04-14T09:32:54.853Z</time></trkpt><trkpt lat="42.5338017" lon="-7.7054917"><ele>270.79999999999995</ele><time>2026-04-14T09:32:55.853Z</time></trkpt><trkpt lat="42.5337967" lon="-7.70536"><ele>272.4</ele><time>2026-04-14T09:32:57.852Z</time></trkpt><trkpt lat="42.5337833" lon="-7.7055367"><ele>274.0</ele><time>2026-04-14T09:33:13.852Z</time></trkpt><trkpt lat="42.5337617" lon="-7.705645"><ele>274.0</ele><time>2026-04-14T09:33:14.852Z</time></trkpt><trkpt lat="42.5337483" lon="-7.7057617"><ele>274.0</ele><time>2026-04-14T09:33:15.853Z</time></trkpt><trkpt lat="42.533735" lon="-7.7058783"><ele>274.0</ele><time>2026-04-14T09:33:16.852Z</time></trkpt><trkpt lat="42.5337317" lon="-7.705985"><ele>274.0</ele><time>2026-04-14T09:33:17.852Z</time></trkpt><trkpt lat="42.53371" lon="-7.7061183"><ele>274.0</ele><time>2026-04-14T09:33:19.853Z</time></trkpt><trkpt lat="42.533675" lon="-7.7062267"><ele>274.0</ele><time>2026-04-14T09:33:37.853Z</time></trkpt><trkpt lat="42.5336533" lon="-7.7064017"><ele>264.2</ele><time>2026-04-14T09:33:39.852Z</time></trkpt><trkpt lat="42.5336383" lon="-7.7065017"><ele>254.39999999999998</ele><time>2026-04-14T09:33:40.852Z</time></trkpt><trkpt lat="42.533635" lon="-7.7066117"><ele>244.6</ele><time>2026-04-14T09:33:41.853Z</time></trkpt><trkpt lat="42.5336433" lon="-7.7067467"><ele>234.8</ele><time>2026-04-14T09:33:42.852Z</time></trkpt><trkpt lat="42.5336583" lon="-7.706895"><ele>225.0</ele><time>2026-04-14T09:33:43.852Z</time></trkpt><trkpt lat="42.5336833" lon="-7.70704"><ele>224.5</ele><time>2026-04-14T09:33:44.852Z</time></trkpt><trkpt lat="42.5336933" lon="-7.7071667"><ele>224.0</ele><time>2026-04-14T09:33:45.853Z</time></trkpt><trkpt lat="42.5336967" lon="-7.70728"><ele>223.5</ele><time>2026-04-14T09:33:46.852Z</time></trkpt><trkpt lat="42.5336783" lon="-7.70738"><ele>223.0</ele><time>2026-04-14T09:33:47.852Z</time></trkpt><trkpt lat="42.5336467" lon="-7.707475"><ele>222.5</ele><time>2026-04-14T09:33:48.853Z</time></trkpt><trkpt lat="42.5336167" lon="-7.7075667"><ele>222.0</ele><time>2026-04-14T09:33:49.852Z</time></trkpt><trkpt lat="42.5336067" lon="-7.7076667"><ele>221.14285714285714</ele><time>2026-04-14T09:33:50.852Z</time></trkpt><trkpt lat="42.5336133" lon="-7.7077617"><ele>220.2857142857143</ele><time>2026-04-14T09:33:51.852Z</time></trkpt><trkpt lat="42.5336283" lon="-7.7078583"><ele>219.42857142857144</ele><time>2026-04-14T09:33:52.853Z</time></trkpt><trkpt lat="42.5336433" lon="-7.707965"><ele>218.57142857142856</ele><time>2026-04-14T09:33:53.852Z</time></trkpt><trkpt lat="42.53366" lon="-7.7080617"><ele>217.71428571428572</ele><time>2026-04-14T09:33:54.853Z</time></trkpt><trkpt lat="42.533675" lon="-7.7081567"><ele>216.85714285714286</ele><time>2026-04-14T09:33:55.853Z</time></trkpt><trkpt lat="42.5336933" lon="-7.7082433"><ele>216.0</ele><time>2026-04-14T09:33:56.853Z</time></trkpt><trkpt lat="42.5337333" lon="-7.7083733"><ele>216.0</ele><time>2026-04-14T09:33:58.853Z</time></trkpt><trkpt lat="42.533755" lon="-7.7084683"><ele>216.0</ele><time>2026-04-14T09:34:00.852Z</time></trkpt><trkpt lat="42.533715" lon="-7.7085417"><ele>216.0</ele><time>2026-04-14T09:34:02.852Z</time></trkpt><trkpt lat="42.533635" lon="-7.7085183"><ele>216.0</ele><time>2026-04-14T09:34:05.852Z</time></trkpt><trkpt lat="42.53357" lon="-7.7084"><ele>216.0</ele><time>2026-04-14T09:34:07.852Z</time></trkpt><trkpt lat="42.5335233" lon="-7.70833"><ele>216.0</ele><time>2026-04-14T09:34:08.853Z</time></trkpt><trkpt lat="42.5334683" lon="-7.7082733"><ele>216.0</ele><time>2026-04-14T09:34:09.853Z</time></trkpt><trkpt lat="42.5333783" lon="-7.7081817"><ele>216.00000000000003</ele><time>2026-04-14T09:34:11.853Z</time></trkpt><trkpt lat="42.5333267" lon="-7.7080083"><ele>216.00000000000003</ele><time>2026-04-14T09:34:13.853Z</time></trkpt><trkpt lat="42.5333083" lon="-7.7078967"><ele>216.0</ele><time>2026-04-14T09:34:14.852Z</time></trkpt><trkpt lat="42.5332867" lon="-7.7077717"><ele>216.0</ele><time>2026-04-14T09:34:15.853Z</time></trkpt><trkpt lat="42.53326" lon="-7.7076433"><ele>217.0</ele><time>2026-04-14T09:34:16.853Z</time></trkpt><trkpt lat="42.5332467" lon="-7.707535"><ele>218.0</ele><time>2026-04-14T09:34:17.852Z</time></trkpt><trkpt lat="42.5332483" lon="-7.7074333"><ele>219.0</ele><time>2026-04-14T09:34:18.853Z</time></trkpt><trkpt lat="42.53326" lon="-7.707325"><ele>220.0</ele><time>2026-04-14T09:34:19.853Z</time></trkpt><trkpt lat="42.533265" lon="-7.707235"><ele>221.0</ele><time>2026-04-14T09:34:20.852Z</time></trkpt><trkpt lat="42.533205" lon="-7.7070833"><ele>222.0</ele><time>2026-04-14T09:34:22.852Z</time></trkpt><trkpt lat="42.5331283" lon="-7.706945"><ele>222.5</ele><time>2026-04-14T09:34:24.852Z</time></trkpt><trkpt lat="42.5331217" lon="-7.7068417"><ele>223.0</ele><time>2026-04-14T09:34:25.853Z</time></trkpt><trkpt lat="42.5331233" lon="-7.706725"><ele>223.5</ele><time>2026-04-14T09:34:26.852Z</time></trkpt><trkpt lat="42.5331333" lon="-7.7065967"><ele>224.0</ele><time>2026-04-14T09:34:27.853Z</time></trkpt><trkpt lat="42.5331483" lon="-7.7064767"><ele>224.5</ele><time>2026-04-14T09:34:28.852Z</time></trkpt><trkpt lat="42.5331783" lon="-7.7063583"><ele>225.0</ele><time>2026-04-14T09:34:29.853Z</time></trkpt><trkpt lat="42.5332217" lon="-7.70625"><ele>225.0</ele><time>2026-04-14T09:34:30.852Z</time></trkpt><trkpt lat="42.5332633" lon="-7.706155"><ele>225.0</ele><time>2026-04-14T09:34:31.852Z</time></trkpt><trkpt lat="42.5332967" lon="-7.706065"><ele>225.0</ele><time>2026-04-14T09:34:32.852Z</time></trkpt><trkpt lat="42.5333333" lon="-7.70595"><ele>225.0</ele><time>2026-04-14T09:34:34.853Z</time></trkpt><trkpt lat="42.533235" lon="-7.7059067"><ele>225.0</ele><time>2026-04-14T09:34:37.853Z</time></trkpt><trkpt lat="42.533165" lon="-7.7059433"><ele>225.0</ele><time>2026-04-14T09:34:38.852Z</time></trkpt><trkpt lat="42.5330617" lon="-7.7060017"><ele>224.0</ele><time>2026-04-14T09:34:39.852Z</time></trkpt><trkpt lat="42.532955" lon="-7.70604"><ele>223.0</ele><time>2026-04-14T09:34:40.853Z</time></trkpt><trkpt lat="42.53287" lon="-7.70607"><ele>222.0</ele><time>2026-04-14T09:34:41.852Z</time></trkpt><trkpt lat="42.53279" lon="-7.7060833"><ele>221.0</ele><time>2026-04-14T09:34:42.852Z</time></trkpt><trkpt lat="42.5327167" lon="-7.7060683"><ele>220.0</ele><time>2026-04-14T09:34:43.853Z</time></trkpt><trkpt lat="42.5326533" lon="-7.7060167"><ele>219.0</ele><time>2026-04-14T09:34:44.853Z</time></trkpt><trkpt lat="42.5325867" lon="-7.70595"><ele>219.0</ele><time>2026-04-14T09:34:45.853Z</time></trkpt><trkpt lat="42.5325333" lon="-7.70586"><ele>219.0</ele><time>2026-04-14T09:34:46.852Z</time></trkpt><trkpt lat="42.5324867" lon="-7.7057883"><ele>219.0</ele><time>2026-04-14T09:34:47.852Z</time></trkpt><trkpt lat="42.5324317" lon="-7.7057317"><ele>219.0</ele><time>2026-04-14T09:34:48.853Z</time></trkpt><trkpt lat="42.5323683" lon="-7.70569"><ele>219.0</ele><time>2026-04-14T09:34:49.853Z</time></trkpt><trkpt lat="42.5322967" lon="-7.70567"><ele>219.0</ele><time>2026-04-14T09:34:50.852Z</time></trkpt><trkpt lat="42.5322267" lon="-7.705655"><ele>219.0</ele><time>2026-04-14T09:34:51.853Z</time></trkpt><trkpt lat="42.5321467" lon="-7.705655"><ele>219.0</ele><time>2026-04-14T09:34:52.852Z</time></trkpt><trkpt lat="42.5320783" lon="-7.7056633"><ele>218.99999999999997</ele><time>2026-04-14T09:34:53.853Z</time></trkpt><trkpt lat="42.531995" lon="-7.7057117"><ele>218.99999999999997</ele><time>2026-04-14T09:34:55.852Z</time></trkpt><trkpt lat="42.5319817" lon="-7.7058133"><ele>219.0</ele><time>2026-04-14T09:34:57.852Z</time></trkpt><trkpt lat="42.5320717" lon="-7.70595"><ele>219.0</ele><time>2026-04-14T09:34:59.852Z</time></trkpt><trkpt lat="42.532125" lon="-7.7060383"><ele>218.2</ele><time>2026-04-14T09:35:00.853Z</time></trkpt><trkpt lat="42.532155" lon="-7.7061317"><ele>217.39999999999998</ele><time>2026-04-14T09:35:01.852Z</time></trkpt><trkpt lat="42.5321967" lon="-7.706245"><ele>216.6</ele><time>2026-04-14T09:35:02.853Z</time></trkpt><trkpt lat="42.5322383" lon="-7.7063633"><ele>215.8</ele><time>2026-04-14T09:35:03.852Z</time></trkpt><trkpt lat="42.5322817" lon="-7.7064867"><ele>215.0</ele><time>2026-04-14T09:35:04.852Z</time></trkpt><trkpt lat="42.5323233" lon="-7.7065933"><ele>215.00000000000003</ele><time>2026-04-14T09:35:05.852Z</time></trkpt><trkpt lat="42.5323467" lon="-7.706685"><ele>215.0</ele><time>2026-04-14T09:35:06.852Z</time></trkpt><trkpt lat="42.5323567" lon="-7.7068533"><ele>215.0</ele><time>2026-04-14T09:35:08.852Z</time></trkpt><trkpt lat="42.5323383" lon="-7.7069533"><ele>215.0</ele><time>2026-04-14T09:35:09.852Z</time></trkpt><trkpt lat="42.5323067" lon="-7.7070633"><ele>215.00000000000003</ele><time>2026-04-14T09:35:10.853Z</time></trkpt><trkpt lat="42.532285" lon="-7.707175"><ele>215.0</ele><time>2026-04-14T09:35:11.852Z</time></trkpt><trkpt lat="42.532275" lon="-7.70729"><ele>215.33333333333334</ele><time>2026-04-14T09:35:12.852Z</time></trkpt><trkpt lat="42.532275" lon="-7.7074"><ele>215.66666666666669</ele><time>2026-04-14T09:35:13.853Z</time></trkpt><trkpt lat="42.5322783" lon="-7.7075033"><ele>216.0</ele><time>2026-04-14T09:35:14.853Z</time></trkpt><trkpt lat="42.532285" lon="-7.7076083"><ele>216.33333333333331</ele><time>2026-04-14T09:35:15.853Z</time></trkpt><trkpt lat="42.532285" lon="-7.7077083"><ele>216.66666666666666</ele><time>2026-04-14T09:35:16.853Z</time></trkpt><trkpt lat="42.5322767" lon="-7.70782"><ele>217.0</ele><time>2026-04-14T09:35:17.852Z</time></trkpt><trkpt lat="42.5322533" lon="-7.707915"><ele>216.39999999999998</ele><time>2026-04-14T09:35:18.853Z</time></trkpt><trkpt lat="42.5321683" lon="-7.7080517"><ele>215.79999999999998</ele><time>2026-04-14T09:35:20.853Z</time></trkpt><trkpt lat="42.5321083" lon="-7.70812"><ele>215.2</ele><time>2026-04-14T09:35:22.853Z</time></trkpt><trkpt lat="42.5320333" lon="-7.7080967"><ele>214.6</ele><time>2026-04-14T09:35:24.852Z</time></trkpt><trkpt lat="42.5319483" lon="-7.7080117"><ele>214.0</ele><time>2026-04-14T09:35:26.853Z</time></trkpt><trkpt lat="42.53189" lon="-7.707955"><ele>213.99999999999997</ele><time>2026-04-14T09:35:27.852Z</time></trkpt><trkpt lat="42.5318217" lon="-7.7078883"><ele>214.0</ele><time>2026-04-14T09:35:28.852Z</time></trkpt><trkpt lat="42.5317483" lon="-7.70783"><ele>214.0</ele><time>2026-04-14T09:35:29.853Z</time></trkpt><trkpt lat="42.5316683" lon="-7.70778"><ele>214.0</ele><time>2026-04-14T09:35:30.852Z</time></trkpt><trkpt lat="42.5315867" lon="-7.7077267"><ele>213.99999999999997</ele><time>2026-04-14T09:35:31.852Z</time></trkpt><trkpt lat="42.53151" lon="-7.7076717"><ele>214.0</ele><time>2026-04-14T09:35:32.853Z</time></trkpt><trkpt lat="42.5314367" lon="-7.7076267"><ele>216.99999999999997</ele><time>2026-04-14T09:35:33.852Z</time></trkpt><trkpt lat="42.5313633" lon="-7.7075767"><ele>220.0</ele><time>2026-04-14T09:35:34.852Z</time></trkpt><trkpt lat="42.5312917" lon="-7.7075317"><ele>223.0</ele><time>2026-04-14T09:35:35.852Z</time></trkpt><trkpt lat="42.5312117" lon="-7.7075083"><ele>226.0</ele><time>2026-04-14T09:35:36.853Z</time></trkpt><trkpt lat="42.53113" lon="-7.7075067"><ele>228.99999999999997</ele><time>2026-04-14T09:35:37.853Z</time></trkpt><trkpt lat="42.5310583" lon="-7.7075133"><ele>232.0</ele><time>2026-04-14T09:35:38.853Z</time></trkpt><trkpt lat="42.5309833" lon="-7.7076233"><ele>233.16666666666666</ele><time>2026-04-14T09:35:40.853Z</time></trkpt><trkpt lat="42.5309683" lon="-7.7077117"><ele>234.33333333333331</ele><time>2026-04-14T09:35:41.852Z</time></trkpt><trkpt lat="42.5309233" lon="-7.7078"><ele>235.5</ele><time>2026-04-14T09:35:42.852Z</time></trkpt><trkpt lat="42.53087" lon="-7.7078533"><ele>236.66666666666669</ele><time>2026-04-14T09:35:43.853Z</time></trkpt><trkpt lat="42.5308083" lon="-7.70781"><ele>237.83333333333334</ele><time>2026-04-14T09:35:45.852Z</time></trkpt><trkpt lat="42.530835" lon="-7.7076417"><ele>239.0</ele><time>2026-04-14T09:35:47.852Z</time></trkpt><trkpt lat="42.5308417" lon="-7.7075433"><ele>239.00000000000003</ele><time>2026-04-14T09:35:48.853Z</time></trkpt><trkpt lat="42.53083" lon="-7.7074367"><ele>239.0</ele><time>2026-04-14T09:35:49.852Z</time></trkpt><trkpt lat="42.5308033" lon="-7.707325"><ele>239.0</ele><time>2026-04-14T09:35:50.852Z</time></trkpt><trkpt lat="42.5307783" lon="-7.707225"><ele>239.0</ele><time>2026-04-14T09:35:51.852Z</time></trkpt><trkpt lat="42.530755" lon="-7.7071267"><ele>239.00000000000003</ele><time>2026-04-14T09:35:52.852Z</time></trkpt><trkpt lat="42.5307333" lon="-7.7070233"><ele>239.0</ele><time>2026-04-14T09:35:53.853Z</time></trkpt><trkpt lat="42.5307133" lon="-7.7069267"><ele>243.0</ele><time>2026-04-14T09:35:54.852Z</time></trkpt><trkpt lat="42.5306733" lon="-7.70679"><ele>246.99999999999997</ele><time>2026-04-14T09:35:56.853Z</time></trkpt><trkpt lat="42.5306167" lon="-7.7066867"><ele>250.99999999999997</ele><time>2026-04-14T09:35:58.852Z</time></trkpt><trkpt lat="42.530565" lon="-7.70657"><ele>255.0</ele><time>2026-04-14T09:36:00.852Z</time></trkpt><trkpt lat="42.530525" lon="-7.7064467"><ele>259.0</ele><time>2026-04-14T09:36:02.852Z</time></trkpt><trkpt lat="42.5305" lon="-7.70631"><ele>259.0</ele><time>2026-04-14T09:36:04.852Z</time></trkpt><trkpt lat="42.5304683" lon="-7.7061883"><ele>259.0</ele><time>2026-04-14T09:36:06.853Z</time></trkpt><trkpt lat="42.5304017" lon="-7.7060933"><ele>259.0</ele><time>2026-04-14T09:36:08.853Z</time></trkpt><trkpt lat="42.5303" lon="-7.7060483"><ele>259.0</ele><time>2026-04-14T09:36:10.853Z</time></trkpt><trkpt lat="42.5302083" lon="-7.7060467"><ele>259.0</ele><time>2026-04-14T09:36:12.853Z</time></trkpt><trkpt lat="42.530115" lon="-7.7060617"><ele>263.5</ele><time>2026-04-14T09:36:14.852Z</time></trkpt><trkpt lat="42.5300317" lon="-7.7060183"><ele>268.0</ele><time>2026-04-14T09:36:16.853Z</time></trkpt><trkpt lat="42.5299617" lon="-7.7059583"><ele>272.5</ele><time>2026-04-14T09:36:18.852Z</time></trkpt><trkpt lat="42.5298867" lon="-7.705905"><ele>277.0</ele><time>2026-04-14T09:36:20.854Z</time></trkpt><trkpt lat="42.5298117" lon="-7.70582"><ele>281.5</ele><time>2026-04-14T09:36:22.854Z</time></trkpt><trkpt lat="42.529785" lon="-7.7057017"><ele>286.0</ele><time>2026-04-14T09:36:24.854Z</time></trkpt><trkpt lat="42.5297783" lon="-7.705565"><ele>286.0</ele><time>2026-04-14T09:36:26.854Z</time></trkpt><trkpt lat="42.5298017" lon="-7.7054283"><ele>286.0</ele><time>2026-04-14T09:36:28.854Z</time></trkpt><trkpt lat="42.5298217" lon="-7.7052867"><ele>286.0</ele><time>2026-04-14T09:36:30.853Z</time></trkpt><trkpt lat="42.5298567" lon="-7.70514"><ele>286.0</ele><time>2026-04-14T09:36:32.853Z</time></trkpt><trkpt lat="42.529905" lon="-7.7050133"><ele>286.0</ele><time>2026-04-14T09:36:34.853Z</time></trkpt><trkpt lat="42.52991" lon="-7.7048883"><ele>288.2</ele><time>2026-04-14T09:36:36.853Z</time></trkpt><trkpt lat="42.5298633" lon="-7.7047567"><ele>290.40000000000003</ele><time>2026-04-14T09:36:38.854Z</time></trkpt><trkpt lat="42.529765" lon="-7.704635"><ele>292.6</ele><time>2026-04-14T09:36:40.854Z</time></trkpt><trkpt lat="42.52972" lon="-7.7045633"><ele>294.8</ele><time>2026-04-14T09:36:41.854Z</time></trkpt><trkpt lat="42.52968" lon="-7.7044717"><ele>297.0</ele><time>2026-04-14T09:36:42.854Z</time></trkpt><trkpt lat="42.5296483" lon="-7.7043683"><ele>297.3333333333333</ele><time>2026-04-14T09:36:43.853Z</time></trkpt><trkpt lat="42.5296183" lon="-7.7042567"><ele>297.6666666666667</ele><time>2026-04-14T09:36:44.853Z</time></trkpt><trkpt lat="42.5296017" lon="-7.7041367"><ele>298.0</ele><time>2026-04-14T09:36:45.854Z</time></trkpt><trkpt lat="42.5295883" lon="-7.7040117"><ele>298.33333333333337</ele><time>2026-04-14T09:36:46.854Z</time></trkpt><trkpt lat="42.5295633" lon="-7.7039083"><ele>298.6666666666667</ele><time>2026-04-14T09:36:47.853Z</time></trkpt><trkpt lat="42.5295233" lon="-7.7038183"><ele>299.0</ele><time>2026-04-14T09:36:48.853Z</time></trkpt><trkpt lat="42.52947" lon="-7.7037467"><ele>307.79999999999995</ele><time>2026-04-14T09:36:49.854Z</time></trkpt><trkpt lat="42.529405" lon="-7.7036717"><ele>316.59999999999997</ele><time>2026-04-14T09:36:50.854Z</time></trkpt><trkpt lat="42.5293567" lon="-7.7035917"><ele>325.4</ele><time>2026-04-14T09:36:51.853Z</time></trkpt><trkpt lat="42.52932" lon="-7.7035167"><ele>334.2</ele><time>2026-04-14T09:36:52.853Z</time></trkpt><trkpt lat="42.52933" lon="-7.7033983"><ele>343.0</ele><time>2026-04-14T09:36:54.853Z</time></trkpt><trkpt lat="42.5294433" lon="-7.7032967"><ele>343.79999999999995</ele><time>2026-04-14T09:36:56.854Z</time></trkpt><trkpt lat="42.5295283" lon="-7.7032433"><ele>344.6</ele><time>2026-04-14T09:36:57.853Z</time></trkpt><trkpt lat="42.5296133" lon="-7.7032"><ele>345.4</ele><time>2026-04-14T09:36:58.854Z</time></trkpt><trkpt lat="42.5297167" lon="-7.703175"><ele>346.20000000000005</ele><time>2026-04-14T09:36:59.854Z</time></trkpt><trkpt lat="42.52981" lon="-7.7031567"><ele>347.0</ele><time>2026-04-14T09:37:00.853Z</time></trkpt><trkpt lat="42.5298967" lon="-7.7031317"><ele>345.6666666666667</ele><time>2026-04-14T09:37:01.853Z</time></trkpt><trkpt lat="42.5299867" lon="-7.7031017"><ele>344.33333333333337</ele><time>2026-04-14T09:37:02.854Z</time></trkpt><trkpt lat="42.5300633" lon="-7.7030617"><ele>343.0</ele><time>2026-04-14T09:37:03.853Z</time></trkpt><trkpt lat="42.5301233" lon="-7.702995"><ele>341.6666666666667</ele><time>2026-04-14T09:37:04.854Z</time></trkpt><trkpt lat="42.53017" lon="-7.7029217"><ele>340.3333333333333</ele><time>2026-04-14T09:37:05.853Z</time></trkpt><trkpt lat="42.5302017" lon="-7.7028333"><ele>339.0</ele><time>2026-04-14T09:37:06.853Z</time></trkpt><trkpt lat="42.5302217" lon="-7.7027283"><ele>339.0</ele><time>2026-04-14T09:37:07.853Z</time></trkpt><trkpt lat="42.5302283" lon="-7.7026017"><ele>339.0</ele><time>2026-04-14T09:37:08.854Z</time></trkpt><trkpt lat="42.5302183" lon="-7.7024617"><ele>339.0</ele><time>2026-04-14T09:37:09.853Z</time></trkpt><trkpt lat="42.5302033" lon="-7.7023183"><ele>339.0</ele><time>2026-04-14T09:37:10.853Z</time></trkpt><trkpt lat="42.5301617" lon="-7.7021667"><ele>339.0</ele><time>2026-04-14T09:37:11.853Z</time></trkpt><trkpt lat="42.5301033" lon="-7.7020333"><ele>339.2</ele><time>2026-04-14T09:37:12.853Z</time></trkpt><trkpt lat="42.5300417" lon="-7.7018983"><ele>339.4</ele><time>2026-04-14T09:37:13.854Z</time></trkpt><trkpt lat="42.529975" lon="-7.70178"><ele>339.6</ele><time>2026-04-14T09:37:14.853Z</time></trkpt><trkpt lat="42.5299067" lon="-7.7016667"><ele>339.8</ele><time>2026-04-14T09:37:15.853Z</time></trkpt><trkpt lat="42.5298383" lon="-7.7015633"><ele>340.0</ele><time>2026-04-14T09:37:16.854Z</time></trkpt><trkpt lat="42.529765" lon="-7.7014633"><ele>340.0</ele><time>2026-04-14T09:37:17.853Z</time></trkpt><trkpt lat="42.52968" lon="-7.70136"><ele>340.0</ele><time>2026-04-14T09:37:18.854Z</time></trkpt><trkpt lat="42.5295917" lon="-7.70126"><ele>340.0</ele><time>2026-04-14T09:37:19.854Z</time></trkpt><trkpt lat="42.5294883" lon="-7.7011467"><ele>340.0</ele><time>2026-04-14T09:37:20.854Z</time></trkpt><trkpt lat="42.5293983" lon="-7.701025"><ele>351.25</ele><time>2026-04-14T09:37:21.854Z</time></trkpt><trkpt lat="42.5293083" lon="-7.7009117"><ele>362.5</ele><time>2026-04-14T09:37:22.854Z</time></trkpt><trkpt lat="42.52922" lon="-7.7007933"><ele>373.75</ele><time>2026-04-14T09:37:23.854Z</time></trkpt><trkpt lat="42.5291433" lon="-7.700655"><ele>385.0</ele><time>2026-04-14T09:37:24.853Z</time></trkpt><trkpt lat="42.529075" lon="-7.7005283"><ele>385.0</ele><time>2026-04-14T09:37:25.854Z</time></trkpt><trkpt lat="42.5290233" lon="-7.70041"><ele>385.0</ele><time>2026-04-14T09:37:26.853Z</time></trkpt><trkpt lat="42.528995" lon="-7.70031"><ele>385.0</ele><time>2026-04-14T09:37:27.854Z</time></trkpt><trkpt lat="42.5289633" lon="-7.70021"><ele>385.0</ele><time>2026-04-14T09:37:28.854Z</time></trkpt><trkpt lat="42.5289633" lon="-7.7001167"><ele>385.0</ele><time>2026-04-14T09:37:29.854Z</time></trkpt><trkpt lat="42.5290317" lon="-7.69998"><ele>385.6666666666667</ele><time>2026-04-14T09:37:31.853Z</time></trkpt><trkpt lat="42.5290933" lon="-7.6999517"><ele>386.33333333333337</ele><time>2026-04-14T09:37:32.853Z</time></trkpt><trkpt lat="42.529175" lon="-7.6999367"><ele>387.0</ele><time>2026-04-14T09:37:33.854Z</time></trkpt><trkpt lat="42.5292683" lon="-7.6999133"><ele>387.66666666666663</ele><time>2026-04-14T09:37:34.853Z</time></trkpt><trkpt lat="42.5293617" lon="-7.699885"><ele>388.3333333333333</ele><time>2026-04-14T09:37:35.853Z</time></trkpt><trkpt lat="42.52943" lon="-7.6998233"><ele>389.0</ele><time>2026-04-14T09:37:36.854Z</time></trkpt><trkpt lat="42.5294717" lon="-7.69972"><ele>389.0</ele><time>2026-04-14T09:37:37.854Z</time></trkpt><trkpt lat="42.5295083" lon="-7.69961"><ele>389.0</ele><time>2026-04-14T09:37:38.853Z</time></trkpt><trkpt lat="42.529535" lon="-7.69948"><ele>389.0</ele><time>2026-04-14T09:37:39.853Z</time></trkpt><trkpt lat="42.529565" lon="-7.699355"><ele>389.0</ele><time>2026-04-14T09:37:40.854Z</time></trkpt><trkpt lat="42.5296133" lon="-7.699225"><ele>389.0</ele><time>2026-04-14T09:37:41.853Z</time></trkpt><trkpt lat="42.5296767" lon="-7.6991133"><ele>389.49999999999994</ele><time>2026-04-14T09:37:42.853Z</time></trkpt><trkpt lat="42.5297383" lon="-7.6990217"><ele>390.0</ele><time>2026-04-14T09:37:43.853Z</time></trkpt><trkpt lat="42.52979" lon="-7.6989317"><ele>390.5</ele><time>2026-04-14T09:37:44.853Z</time></trkpt><trkpt lat="42.52983" lon="-7.6988233"><ele>391.0</ele><time>2026-04-14T09:37:45.853Z</time></trkpt><trkpt lat="42.5298583" lon="-7.6987183"><ele>391.49999999999994</ele><time>2026-04-14T09:37:46.853Z</time></trkpt><trkpt lat="42.5298883" lon="-7.6986367"><ele>392.0</ele><time>2026-04-14T09:37:47.854Z</time></trkpt><trkpt lat="42.5299817" lon="-7.6985483"><ele>392.0</ele><time>2026-04-14T09:37:49.853Z</time></trkpt><trkpt lat="42.5300583" lon="-7.698555"><ele>392.0</ele><time>2026-04-14T09:37:50.853Z</time></trkpt><trkpt lat="42.5301533" lon="-7.698595"><ele>392.0</ele><time>2026-04-14T09:37:51.854Z</time></trkpt><trkpt lat="42.5302583" lon="-7.69867"><ele>392.0</ele><time>2026-04-14T09:37:52.854Z</time></trkpt><trkpt lat="42.5303583" lon="-7.69877"><ele>392.0</ele><time>2026-04-14T09:37:53.853Z</time></trkpt><trkpt lat="42.5304483" lon="-7.6988817"><ele>392.8</ele><time>2026-04-14T09:37:54.854Z</time></trkpt><trkpt lat="42.5305267" lon="-7.69899"><ele>393.6</ele><time>2026-04-14T09:37:55.853Z</time></trkpt><trkpt lat="42.5306017" lon="-7.6990867"><ele>394.40000000000003</ele><time>2026-04-14T09:37:56.854Z</time></trkpt><trkpt lat="42.5306767" lon="-7.6991783"><ele>395.20000000000005</ele><time>2026-04-14T09:37:57.853Z</time></trkpt><trkpt lat="42.5307367" lon="-7.6992167"><ele>396.0</ele><time>2026-04-14T09:37:58.853Z</time></trkpt><trkpt lat="42.5308433" lon="-7.6991233"><ele>396.0</ele><time>2026-04-14T09:38:00.853Z</time></trkpt><trkpt lat="42.5308833" lon="-7.699035"><ele>396.0</ele><time>2026-04-14T09:38:01.853Z</time></trkpt><trkpt lat="42.5309217" lon="-7.6989267"><ele>396.0</ele><time>2026-04-14T09:38:02.854Z</time></trkpt><trkpt lat="42.5309767" lon="-7.69882"><ele>396.0</ele><time>2026-04-14T09:38:03.853Z</time></trkpt><trkpt lat="42.5310433" lon="-7.6987317"><ele>396.0</ele><time>2026-04-14T09:38:04.853Z</time></trkpt><trkpt lat="42.5311383" lon="-7.6986683"><ele>395.8</ele><time>2026-04-14T09:38:05.854Z</time></trkpt><trkpt lat="42.5312417" lon="-7.698615"><ele>395.6</ele><time>2026-04-14T09:38:06.854Z</time></trkpt><trkpt lat="42.5313383" lon="-7.6985633"><ele>395.4</ele><time>2026-04-14T09:38:07.853Z</time></trkpt><trkpt lat="42.5314383" lon="-7.6985183"><ele>395.2</ele><time>2026-04-14T09:38:08.854Z</time></trkpt><trkpt lat="42.531525" lon="-7.6985"><ele>395.0</ele><time>2026-04-14T09:38:09.853Z</time></trkpt><trkpt lat="42.5316033" lon="-7.6984733"><ele>394.99999999999994</ele><time>2026-04-14T09:38:10.853Z</time></trkpt><trkpt lat="42.5316717" lon="-7.6984933"><ele>395.0</ele><time>2026-04-14T09:38:11.854Z</time></trkpt><trkpt lat="42.5317267" lon="-7.6985583"><ele>395.0</ele><time>2026-04-14T09:38:12.853Z</time></trkpt><trkpt lat="42.5317767" lon="-7.6986233"><ele>395.0</ele><time>2026-04-14T09:38:13.853Z</time></trkpt><trkpt lat="42.5318417" lon="-7.6987283"><ele>394.99999999999994</ele><time>2026-04-14T09:38:14.853Z</time></trkpt><trkpt lat="42.5319283" lon="-7.6988567"><ele>395.0</ele><time>2026-04-14T09:38:15.854Z</time></trkpt><trkpt lat="42.532025" lon="-7.6989583"><ele>401.25</ele><time>2026-04-14T09:38:16.854Z</time></trkpt><trkpt lat="42.5321317" lon="-7.6990417"><ele>407.5</ele><time>2026-04-14T09:38:17.853Z</time></trkpt><trkpt lat="42.53224" lon="-7.6991167"><ele>413.75</ele><time>2026-04-14T09:38:18.854Z</time></trkpt><trkpt lat="42.5323483" lon="-7.699205"><ele>420.0</ele><time>2026-04-14T09:38:19.853Z</time></trkpt><trkpt lat="42.5324617" lon="-7.699285"><ele>420.0</ele><time>2026-04-14T09:38:20.853Z</time></trkpt><trkpt lat="42.5325667" lon="-7.6993733"><ele>420.0</ele><time>2026-04-14T09:38:21.854Z</time></trkpt><trkpt lat="42.5326683" lon="-7.6994517"><ele>420.0</ele><time>2026-04-14T09:38:22.854Z</time></trkpt><trkpt lat="42.5327567" lon="-7.69952"><ele>420.0</ele><time>2026-04-14T09:38:23.854Z</time></trkpt><trkpt lat="42.5328183" lon="-7.6995583"><ele>420.0</ele><time>2026-04-14T09:38:24.853Z</time></trkpt><trkpt lat="42.5328517" lon="-7.6994767"><ele>420.0</ele><time>2026-04-14T09:38:28.853Z</time></trkpt><trkpt lat="42.5327817" lon="-7.6994017"><ele>420.0</ele><time>2026-04-14T09:38:30.854Z</time></trkpt><trkpt lat="42.532715" lon="-7.6992967"><ele>420.0</ele><time>2026-04-14T09:38:32.853Z</time></trkpt><trkpt lat="42.5327867" lon="-7.6992183"><ele>420.0</ele><time>2026-04-14T09:38:35.853Z</time></trkpt><trkpt lat="42.5329067" lon="-7.6992533"><ele>420.0</ele><time>2026-04-14T09:38:37.853Z</time></trkpt><trkpt lat="42.53298" lon="-7.69925"><ele>422.3333333333333</ele><time>2026-04-14T09:38:38.853Z</time></trkpt><trkpt lat="42.5330567" lon="-7.6992217"><ele>424.66666666666663</ele><time>2026-04-14T09:38:39.854Z</time></trkpt><trkpt lat="42.5331383" lon="-7.6991783"><ele>427.0</ele><time>2026-04-14T09:38:40.854Z</time></trkpt><trkpt lat="42.5332183" lon="-7.69912"><ele>429.3333333333333</ele><time>2026-04-14T09:38:41.853Z</time></trkpt><trkpt lat="42.5332967" lon="-7.6990533"><ele>431.66666666666663</ele><time>2026-04-14T09:38:42.854Z</time></trkpt><trkpt lat="42.5333783" lon="-7.6989833"><ele>434.0</ele><time>2026-04-14T09:38:43.854Z</time></trkpt><trkpt lat="42.5334617" lon="-7.698915"><ele>434.0</ele><time>2026-04-14T09:38:44.854Z</time></trkpt><trkpt lat="42.5335333" lon="-7.6988533"><ele>434.0</ele><time>2026-04-14T09:38:45.853Z</time></trkpt><trkpt lat="42.533615" lon="-7.6987883"><ele>434.0</ele><time>2026-04-14T09:38:46.853Z</time></trkpt><trkpt lat="42.5336867" lon="-7.6987167"><ele>434.0</ele><time>2026-04-14T09:38:47.853Z</time></trkpt><trkpt lat="42.5337483" lon="-7.6986267"><ele>434.0</ele><time>2026-04-14T09:38:48.854Z</time></trkpt><trkpt lat="42.5338117" lon="-7.6985183"><ele>436.0</ele><time>2026-04-14T09:38:49.854Z</time></trkpt><trkpt lat="42.5338533" lon="-7.6983917"><ele>438.0</ele><time>2026-04-14T09:38:50.853Z</time></trkpt><trkpt lat="42.533895" lon="-7.6982617"><ele>440.0</ele><time>2026-04-14T09:38:51.853Z</time></trkpt><trkpt lat="42.5339333" lon="-7.698115"><ele>442.0</ele><time>2026-04-14T09:38:52.853Z</time></trkpt><trkpt lat="42.5339733" lon="-7.6979617"><ele>444.0</ele><time>2026-04-14T09:38:53.853Z</time></trkpt><trkpt lat="42.5340067" lon="-7.6977933"><ele>448.25</ele><time>2026-04-14T09:38:54.853Z</time></trkpt><trkpt lat="42.5340417" lon="-7.6976233"><ele>452.5</ele><time>2026-04-14T09:38:55.854Z</time></trkpt><trkpt lat="42.5340767" lon="-7.6974533"><ele>456.75</ele><time>2026-04-14T09:38:56.854Z</time></trkpt><trkpt lat="42.5341133" lon="-7.6972817"><ele>461.0</ele><time>2026-04-14T09:38:57.854Z</time></trkpt><trkpt lat="42.53415" lon="-7.6971383"><ele>461.0</ele><time>2026-04-14T09:38:58.854Z</time></trkpt><trkpt lat="42.5341867" lon="-7.69702"><ele>461.0</ele><time>2026-04-14T09:38:59.854Z</time></trkpt><trkpt lat="42.5342333" lon="-7.69692"><ele>461.0</ele><time>2026-04-14T09:39:00.853Z</time></trkpt><trkpt lat="42.5343083" lon="-7.6968283"><ele>461.0</ele><time>2026-04-14T09:39:01.853Z</time></trkpt><trkpt lat="42.53439" lon="-7.6967567"><ele>461.0</ele><time>2026-04-14T09:39:02.853Z</time></trkpt><trkpt lat="42.5344817" lon="-7.69671"><ele>465.6</ele><time>2026-04-14T09:39:03.853Z</time></trkpt><trkpt lat="42.534585" lon="-7.6967033"><ele>470.20000000000005</ele><time>2026-04-14T09:39:04.853Z</time></trkpt><trkpt lat="42.5346933" lon="-7.6967217"><ele>474.79999999999995</ele><time>2026-04-14T09:39:05.853Z</time></trkpt><trkpt lat="42.5347767" lon="-7.6967617"><ele>479.4</ele><time>2026-04-14T09:39:06.853Z</time></trkpt><trkpt lat="42.534875" lon="-7.6968233"><ele>484.0</ele><time>2026-04-14T09:39:08.854Z</time></trkpt><trkpt lat="42.5348783" lon="-7.6967083"><ele>484.0</ele><time>2026-04-14T09:39:13.853Z</time></trkpt><trkpt lat="42.534795" lon="-7.69658"><ele>484.0</ele><time>2026-04-14T09:39:15.853Z</time></trkpt><trkpt lat="42.5347233" lon="-7.6965067"><ele>484.0</ele><time>2026-04-14T09:39:16.853Z</time></trkpt><trkpt lat="42.5346383" lon="-7.6964317"><ele>484.0</ele><time>2026-04-14T09:39:17.853Z</time></trkpt><trkpt lat="42.5345517" lon="-7.6963567"><ele>484.0</ele><time>2026-04-14T09:39:18.853Z</time></trkpt><trkpt lat="42.53446" lon="-7.6962867"><ele>483.2</ele><time>2026-04-14T09:39:19.853Z</time></trkpt><trkpt lat="42.5343667" lon="-7.6962383"><ele>482.4</ele><time>2026-04-14T09:39:20.853Z</time></trkpt><trkpt lat="42.534265" lon="-7.6962067"><ele>481.6</ele><time>2026-04-14T09:39:21.853Z</time></trkpt><trkpt lat="42.53416" lon="-7.6961867"><ele>480.8</ele><time>2026-04-14T09:39:22.853Z</time></trkpt><trkpt lat="42.5340517" lon="-7.6961833"><ele>480.0</ele><time>2026-04-14T09:39:23.853Z</time></trkpt><trkpt lat="42.5339417" lon="-7.6962083"><ele>480.0</ele><time>2026-04-14T09:39:24.853Z</time></trkpt><trkpt lat="42.5338333" lon="-7.69625"><ele>480.0</ele><time>2026-04-14T09:39:25.854Z</time></trkpt><trkpt lat="42.533725" lon="-7.69631"><ele>480.0</ele><time>2026-04-14T09:39:26.854Z</time></trkpt><trkpt lat="42.5336117" lon="-7.6963867"><ele>480.0</ele><time>2026-04-14T09:39:27.853Z</time></trkpt><trkpt lat="42.5334883" lon="-7.696485"><ele>486.33333333333337</ele><time>2026-04-14T09:39:28.853Z</time></trkpt><trkpt lat="42.5333367" lon="-7.696605"><ele>492.6666666666667</ele><time>2026-04-14T09:39:29.853Z</time></trkpt><trkpt lat="42.5331883" lon="-7.6967267"><ele>499.0</ele><time>2026-04-14T09:39:30.854Z</time></trkpt><trkpt lat="42.533055" lon="-7.6968317"><ele>499.0</ele><time>2026-04-14T09:39:31.854Z</time></trkpt><trkpt lat="42.5329417" lon="-7.6969117"><ele>499.0</ele><time>2026-04-14T09:39:32.854Z</time></trkpt><trkpt lat="42.5328317" lon="-7.6969617"><ele>499.0</ele><time>2026-04-14T09:39:33.853Z</time></trkpt><trkpt lat="42.53275" lon="-7.6969483"><ele>499.0</ele><time>2026-04-14T09:39:34.853Z</time></trkpt><trkpt lat="42.5326933" lon="-7.6968817"><ele>499.0</ele><time>2026-04-14T09:39:35.854Z</time></trkpt><trkpt lat="42.532635" lon="-7.6968083"><ele>500.25</ele><time>2026-04-14T09:39:36.854Z</time></trkpt><trkpt lat="42.5325683" lon="-7.6967133"><ele>501.5</ele><time>2026-04-14T09:39:37.854Z</time></trkpt><trkpt lat="42.532495" lon="-7.6966083"><ele>502.75</ele><time>2026-04-14T09:39:38.853Z</time></trkpt><trkpt lat="42.5324083" lon="-7.6964917"><ele>504.0</ele><time>2026-04-14T09:39:39.853Z</time></trkpt><trkpt lat="42.532305" lon="-7.6963767"><ele>504.0</ele><time>2026-04-14T09:39:40.853Z</time></trkpt><trkpt lat="42.5321867" lon="-7.69626"><ele>504.0</ele><time>2026-04-14T09:39:41.853Z</time></trkpt><trkpt lat="42.5320483" lon="-7.6961517"><ele>504.0</ele><time>2026-04-14T09:39:42.854Z</time></trkpt><trkpt lat="42.5319067" lon="-7.6960283"><ele>509.25</ele><time>2026-04-14T09:39:43.853Z</time></trkpt><trkpt lat="42.5317817" lon="-7.6959117"><ele>514.5</ele><time>2026-04-14T09:39:44.854Z</time></trkpt><trkpt lat="42.5316617" lon="-7.695815"><ele>519.75</ele><time>2026-04-14T09:39:45.853Z</time></trkpt><trkpt lat="42.53155" lon="-7.6957683"><ele>525.0</ele><time>2026-04-14T09:39:46.853Z</time></trkpt><trkpt lat="42.5314283" lon="-7.695775"><ele>525.0</ele><time>2026-04-14T09:39:47.853Z</time></trkpt><trkpt lat="42.5313233" lon="-7.695825"><ele>525.0</ele><time>2026-04-14T09:39:48.853Z</time></trkpt><trkpt lat="42.5312067" lon="-7.6958967"><ele>525.0</ele><time>2026-04-14T09:39:49.853Z</time></trkpt><trkpt lat="42.531085" lon="-7.6959767"><ele>525.0</ele><time>2026-04-14T09:39:50.853Z</time></trkpt><trkpt lat="42.5309533" lon="-7.6960533"><ele>526.0</ele><time>2026-04-14T09:39:51.854Z</time></trkpt><trkpt lat="42.5308267" lon="-7.6960817"><ele>527.0</ele><time>2026-04-14T09:39:52.854Z</time></trkpt><trkpt lat="42.5306867" lon="-7.6960867"><ele>528.0</ele><time>2026-04-14T09:39:53.854Z</time></trkpt><trkpt lat="42.5305433" lon="-7.6960667"><ele>529.0</ele><time>2026-04-14T09:39:54.854Z</time></trkpt><trkpt lat="42.530385" lon="-7.69603"><ele>529.0</ele><time>2026-04-14T09:39:55.854Z</time></trkpt><trkpt lat="42.5302183" lon="-7.6959783"><ele>529.0</ele><time>2026-04-14T09:39:56.853Z</time></trkpt><trkpt lat="42.5300617" lon="-7.6959117"><ele>529.0</ele><time>2026-04-14T09:39:57.854Z</time></trkpt><trkpt lat="42.5299383" lon="-7.6958483"><ele>529.0</ele><time>2026-04-14T09:39:58.854Z</time></trkpt><trkpt lat="42.529825" lon="-7.6957667"><ele>529.0</ele><time>2026-04-14T09:39:59.854Z</time></trkpt><trkpt lat="42.5297333" lon="-7.6956683"><ele>529.0</ele><time>2026-04-14T09:40:00.853Z</time></trkpt><trkpt lat="42.5296567" lon="-7.6955483"><ele>529.0</ele><time>2026-04-14T09:40:01.853Z</time></trkpt><trkpt lat="42.5295933" lon="-7.69542"><ele>528.0</ele><time>2026-04-14T09:40:02.853Z</time></trkpt><trkpt lat="42.5295333" lon="-7.6952967"><ele>527.0</ele><time>2026-04-14T09:40:03.853Z</time></trkpt><trkpt lat="42.5294767" lon="-7.6952267"><ele>526.0</ele><time>2026-04-14T09:40:04.853Z</time></trkpt><trkpt lat="42.5294183" lon="-7.6951833"><ele>525.0</ele><time>2026-04-14T09:40:05.854Z</time></trkpt><trkpt lat="42.529285" lon="-7.695225"><ele>524.0</ele><time>2026-04-14T09:40:07.853Z</time></trkpt><trkpt lat="42.5292017" lon="-7.69533"><ele>524.0</ele><time>2026-04-14T09:40:08.853Z</time></trkpt><trkpt lat="42.5290667" lon="-7.6954583"><ele>524.0</ele><time>2026-04-14T09:40:09.853Z</time></trkpt><trkpt lat="42.52894" lon="-7.6955233"><ele>524.0</ele><time>2026-04-14T09:40:10.853Z</time></trkpt><trkpt lat="42.5288067" lon="-7.69555"><ele>524.0</ele><time>2026-04-14T09:40:11.854Z</time></trkpt><trkpt lat="42.5286733" lon="-7.6955433"><ele>527.5</ele><time>2026-04-14T09:40:12.854Z</time></trkpt><trkpt lat="42.5285367" lon="-7.6955133"><ele>531.0</ele><time>2026-04-14T09:40:13.854Z</time></trkpt><trkpt lat="42.5283983" lon="-7.69547"><ele>534.5</ele><time>2026-04-14T09:40:14.854Z</time></trkpt><trkpt lat="42.52827" lon="-7.6954333"><ele>538.0</ele><time>2026-04-14T09:40:15.854Z</time></trkpt><trkpt lat="42.5281433" lon="-7.6954133"><ele>538.0</ele><time>2026-04-14T09:40:16.854Z</time></trkpt><trkpt lat="42.52802" lon="-7.695415"><ele>538.0</ele><time>2026-04-14T09:40:17.853Z</time></trkpt><trkpt lat="42.5279" lon="-7.6954267"><ele>538.0</ele><time>2026-04-14T09:40:18.854Z</time></trkpt><trkpt lat="42.52778" lon="-7.6954417"><ele>538.0</ele><time>2026-04-14T09:40:19.854Z</time></trkpt><trkpt lat="42.52767" lon="-7.6954283"><ele>540.75</ele><time>2026-04-14T09:40:20.854Z</time></trkpt><trkpt lat="42.5275667" lon="-7.6953683"><ele>543.5</ele><time>2026-04-14T09:40:21.853Z</time></trkpt><trkpt lat="42.527475" lon="-7.6952767"><ele>546.25</ele><time>2026-04-14T09:40:22.854Z</time></trkpt><trkpt lat="42.5273917" lon="-7.6951633"><ele>549.0</ele><time>2026-04-14T09:40:23.853Z</time></trkpt><trkpt lat="42.5273217" lon="-7.6950333"><ele>552.75</ele><time>2026-04-14T09:40:24.854Z</time></trkpt><trkpt lat="42.5272617" lon="-7.6948917"><ele>556.5</ele><time>2026-04-14T09:40:25.853Z</time></trkpt><trkpt lat="42.5272167" lon="-7.6947383"><ele>560.25</ele><time>2026-04-14T09:40:26.854Z</time></trkpt><trkpt lat="42.52718" lon="-7.6945867"><ele>564.0</ele><time>2026-04-14T09:40:27.854Z</time></trkpt><trkpt lat="42.52714" lon="-7.69443"><ele>564.0</ele><time>2026-04-14T09:40:28.854Z</time></trkpt><trkpt lat="42.5271133" lon="-7.6942867"><ele>564.0</ele><time>2026-04-14T09:40:29.854Z</time></trkpt><trkpt lat="42.5270983" lon="-7.6941517"><ele>564.0</ele><time>2026-04-14T09:40:30.854Z</time></trkpt><trkpt lat="42.52708" lon="-7.6940267"><ele>564.0</ele><time>2026-04-14T09:40:31.853Z</time></trkpt><trkpt lat="42.5270433" lon="-7.6939"><ele>564.0</ele><time>2026-04-14T09:40:32.854Z</time></trkpt><trkpt lat="42.526985" lon="-7.6937867"><ele>564.0</ele><time>2026-04-14T09:40:33.854Z</time></trkpt><trkpt lat="42.52691" lon="-7.69368"><ele>564.0</ele><time>2026-04-14T09:40:34.853Z</time></trkpt><trkpt lat="42.52683" lon="-7.6935717"><ele>564.0</ele><time>2026-04-14T09:40:35.854Z</time></trkpt><trkpt lat="42.5267633" lon="-7.693445"><ele>564.0</ele><time>2026-04-14T09:40:36.854Z</time></trkpt><trkpt lat="42.5267117" lon="-7.6933133"><ele>564.0</ele><time>2026-04-14T09:40:37.853Z</time></trkpt><trkpt lat="42.52667" lon="-7.693155"><ele>564.5</ele><time>2026-04-14T09:40:38.853Z</time></trkpt><trkpt lat="42.52664" lon="-7.69298"><ele>565.0</ele><time>2026-04-14T09:40:39.853Z</time></trkpt><trkpt lat="42.5266283" lon="-7.692785"><ele>565.5</ele><time>2026-04-14T09:40:40.854Z</time></trkpt><trkpt lat="42.52664" lon="-7.692585"><ele>566.0</ele><time>2026-04-14T09:40:41.854Z</time></trkpt><trkpt lat="42.5266733" lon="-7.692385"><ele>566.0</ele><time>2026-04-14T09:40:42.854Z</time></trkpt><trkpt lat="42.5267133" lon="-7.6921883"><ele>566.0</ele><time>2026-04-14T09:40:43.854Z</time></trkpt><trkpt lat="42.5267767" lon="-7.6920083"><ele>566.0</ele><time>2026-04-14T09:40:44.853Z</time></trkpt><trkpt lat="42.5268533" lon="-7.691845"><ele>566.0</ele><time>2026-04-14T09:40:45.853Z</time></trkpt><trkpt lat="42.5269483" lon="-7.691685"><ele>565.5</ele><time>2026-04-14T09:40:46.854Z</time></trkpt><trkpt lat="42.52704" lon="-7.6915117"><ele>565.0</ele><time>2026-04-14T09:40:47.853Z</time></trkpt><trkpt lat="42.527115" lon="-7.6913517"><ele>564.5</ele><time>2026-04-14T09:40:48.853Z</time></trkpt><trkpt lat="42.5271983" lon="-7.6911933"><ele>564.0</ele><time>2026-04-14T09:40:49.854Z</time></trkpt><trkpt lat="42.52727" lon="-7.6910483"><ele>564.0</ele><time>2026-04-14T09:40:50.854Z</time></trkpt><trkpt lat="42.52733" lon="-7.69091"><ele>564.0</ele><time>2026-04-14T09:40:51.853Z</time></trkpt><trkpt lat="42.5273867" lon="-7.6907767"><ele>564.0</ele><time>2026-04-14T09:40:52.854Z</time></trkpt><trkpt lat="42.52744" lon="-7.69064"><ele>564.0</ele><time>2026-04-14T09:40:53.853Z</time></trkpt><trkpt lat="42.5274867" lon="-7.6905"><ele>564.0</ele><time>2026-04-14T09:40:54.854Z</time></trkpt><trkpt lat="42.5275217" lon="-7.6903433"><ele>564.0</ele><time>2026-04-14T09:40:55.854Z</time></trkpt><trkpt lat="42.52755" lon="-7.6901883"><ele>564.0</ele><time>2026-04-14T09:40:56.854Z</time></trkpt><trkpt lat="42.5275683" lon="-7.69003"><ele>564.0</ele><time>2026-04-14T09:40:57.853Z</time></trkpt><trkpt lat="42.5275783" lon="-7.689865"><ele>562.5</ele><time>2026-04-14T09:40:58.853Z</time></trkpt><trkpt lat="42.527595" lon="-7.689695"><ele>561.0</ele><time>2026-04-14T09:40:59.854Z</time></trkpt><trkpt lat="42.52761" lon="-7.68953"><ele>559.5</ele><time>2026-04-14T09:41:00.854Z</time></trkpt><trkpt lat="42.5276267" lon="-7.6893717"><ele>558.0</ele><time>2026-04-14T09:41:01.853Z</time></trkpt><trkpt lat="42.5276483" lon="-7.689215"><ele>557.5</ele><time>2026-04-14T09:41:02.853Z</time></trkpt><trkpt lat="42.5276833" lon="-7.6890667"><ele>557.0</ele><time>2026-04-14T09:41:03.853Z</time></trkpt><trkpt lat="42.527735" lon="-7.6889317"><ele>556.5</ele><time>2026-04-14T09:41:04.853Z</time></trkpt><trkpt lat="42.5278" lon="-7.6888017"><ele>556.0</ele><time>2026-04-14T09:41:05.853Z</time></trkpt><trkpt lat="42.5278733" lon="-7.6886633"><ele>557.8</ele><time>2026-04-14T09:41:06.854Z</time></trkpt><trkpt lat="42.5279333" lon="-7.6885233"><ele>559.6</ele><time>2026-04-14T09:41:07.853Z</time></trkpt><trkpt lat="42.52799" lon="-7.68839"><ele>561.4</ele><time>2026-04-14T09:41:08.854Z</time></trkpt><trkpt lat="42.5280267" lon="-7.6882567"><ele>563.2</ele><time>2026-04-14T09:41:09.854Z</time></trkpt><trkpt lat="42.5280533" lon="-7.6881333"><ele>565.0</ele><time>2026-04-14T09:41:10.854Z</time></trkpt><trkpt lat="42.528055" lon="-7.687995"><ele>565.0</ele><time>2026-04-14T09:41:11.854Z</time></trkpt><trkpt lat="42.52804" lon="-7.687855"><ele>565.0</ele><time>2026-04-14T09:41:12.854Z</time></trkpt><trkpt lat="42.5280133" lon="-7.68771"><ele>565.0</ele><time>2026-04-14T09:41:13.853Z</time></trkpt><trkpt lat="42.52798" lon="-7.6875683"><ele>565.0</ele><time>2026-04-14T09:41:14.854Z</time></trkpt><trkpt lat="42.52794" lon="-7.6874333"><ele>565.0</ele><time>2026-04-14T09:41:15.853Z</time></trkpt><trkpt lat="42.527875" lon="-7.6873133"><ele>564.0</ele><time>2026-04-14T09:41:16.854Z</time></trkpt><trkpt lat="42.52781" lon="-7.68718"><ele>563.0</ele><time>2026-04-14T09:41:17.854Z</time></trkpt><trkpt lat="42.5277433" lon="-7.68704"><ele>562.0</ele><time>2026-04-14T09:41:18.853Z</time></trkpt><trkpt lat="42.5276817" lon="-7.68688"><ele>561.0</ele><time>2026-04-14T09:41:19.854Z</time></trkpt><trkpt lat="42.527625" lon="-7.68671"><ele>561.0</ele><time>2026-04-14T09:41:20.853Z</time></trkpt><trkpt lat="42.5275717" lon="-7.6865383"><ele>561.0</ele><time>2026-04-14T09:41:21.853Z</time></trkpt><trkpt lat="42.52752" lon="-7.6863733"><ele>561.0</ele><time>2026-04-14T09:41:22.853Z</time></trkpt><trkpt lat="42.527475" lon="-7.6862067"><ele>561.0</ele><time>2026-04-14T09:41:23.853Z</time></trkpt><trkpt lat="42.52745" lon="-7.6860667"><ele>561.4</ele><time>2026-04-14T09:41:24.853Z</time></trkpt><trkpt lat="42.5274517" lon="-7.6859317"><ele>561.8</ele><time>2026-04-14T09:41:25.853Z</time></trkpt><trkpt lat="42.5274767" lon="-7.6858133"><ele>562.1999999999999</ele><time>2026-04-14T09:41:26.853Z</time></trkpt><trkpt lat="42.5275283" lon="-7.685725"><ele>562.6</ele><time>2026-04-14T09:41:27.853Z</time></trkpt><trkpt lat="42.52761" lon="-7.6856583"><ele>563.0</ele><time>2026-04-14T09:41:28.853Z</time></trkpt><trkpt lat="42.5277217" lon="-7.6856317"><ele>563.0</ele><time>2026-04-14T09:41:29.854Z</time></trkpt><trkpt lat="42.527865" lon="-7.6856417"><ele>563.0</ele><time>2026-04-14T09:41:30.854Z</time></trkpt><trkpt lat="42.5280167" lon="-7.6856533"><ele>563.0</ele><time>2026-04-14T09:41:31.854Z</time></trkpt><trkpt lat="42.5281483" lon="-7.685655"><ele>563.0</ele><time>2026-04-14T09:41:32.854Z</time></trkpt><trkpt lat="42.5282783" lon="-7.685645"><ele>565.25</ele><time>2026-04-14T09:41:33.854Z</time></trkpt><trkpt lat="42.52841" lon="-7.6856233"><ele>567.5</ele><time>2026-04-14T09:41:34.854Z</time></trkpt><trkpt lat="42.528535" lon="-7.6855917"><ele>569.75</ele><time>2026-04-14T09:41:35.854Z</time></trkpt><trkpt lat="42.5286483" lon="-7.685565"><ele>572.0</ele><time>2026-04-14T09:41:36.854Z</time></trkpt><trkpt lat="42.5287417" lon="-7.6855133"><ele>572.4</ele><time>2026-04-14T09:41:37.853Z</time></trkpt><trkpt lat="42.5288183" lon="-7.685445"><ele>572.8000000000001</ele><time>2026-04-14T09:41:38.853Z</time></trkpt><trkpt lat="42.52886" lon="-7.685325"><ele>573.2</ele><time>2026-04-14T09:41:39.853Z</time></trkpt><trkpt lat="42.528885" lon="-7.6851767"><ele>573.6</ele><time>2026-04-14T09:41:40.854Z</time></trkpt><trkpt lat="42.5288967" lon="-7.685005"><ele>574.0</ele><time>2026-04-14T09:41:41.854Z</time></trkpt><trkpt lat="42.528905" lon="-7.6848383"><ele>574.0</ele><time>2026-04-14T09:41:42.854Z</time></trkpt><trkpt lat="42.5289117" lon="-7.6846567"><ele>574.0</ele><time>2026-04-14T09:41:43.853Z</time></trkpt><trkpt lat="42.5289117" lon="-7.6844683"><ele>574.0</ele><time>2026-04-14T09:41:44.853Z</time></trkpt><trkpt lat="42.52891" lon="-7.6842767"><ele>574.0</ele><time>2026-04-14T09:41:45.853Z</time></trkpt><trkpt lat="42.5289033" lon="-7.6840733"><ele>574.3333333333334</ele><time>2026-04-14T09:41:46.854Z</time></trkpt><trkpt lat="42.5288917" lon="-7.6838617"><ele>574.6666666666666</ele><time>2026-04-14T09:41:47.853Z</time></trkpt><trkpt lat="42.5288783" lon="-7.6836383"><ele>575.0</ele><time>2026-04-14T09:41:48.853Z</time></trkpt><trkpt lat="42.5288667" lon="-7.6834183"><ele>576.6666666666666</ele><time>2026-04-14T09:41:49.854Z</time></trkpt><trkpt lat="42.5288717" lon="-7.68319"><ele>578.3333333333334</ele><time>2026-04-14T09:41:50.853Z</time></trkpt><trkpt lat="42.5288767" lon="-7.68298"><ele>580.0</ele><time>2026-04-14T09:41:51.853Z</time></trkpt><trkpt lat="42.5288883" lon="-7.68276"><ele>581.6666666666667</ele><time>2026-04-14T09:41:52.853Z</time></trkpt><trkpt lat="42.5289083" lon="-7.6825083"><ele>583.3333333333334</ele><time>2026-04-14T09:41:53.854Z</time></trkpt><trkpt lat="42.5289367" lon="-7.6822317"><ele>585.0</ele><time>2026-04-14T09:41:54.855Z</time></trkpt><trkpt lat="42.5289617" lon="-7.6819533"><ele>584.6666666666666</ele><time>2026-04-14T09:41:55.854Z</time></trkpt><trkpt lat="42.5289667" lon="-7.6816967"><ele>584.3333333333333</ele><time>2026-04-14T09:41:56.854Z</time></trkpt><trkpt lat="42.5289683" lon="-7.6814667"><ele>584.0</ele><time>2026-04-14T09:41:57.854Z</time></trkpt><trkpt lat="42.5289767" lon="-7.681245"><ele>584.0</ele><time>2026-04-14T09:41:58.855Z</time></trkpt><trkpt lat="42.5289933" lon="-7.6810267"><ele>584.0</ele><time>2026-04-14T09:41:59.855Z</time></trkpt><trkpt lat="42.5290033" lon="-7.6808283"><ele>584.0</ele><time>2026-04-14T09:42:00.854Z</time></trkpt><trkpt lat="42.52899" lon="-7.6806283"><ele>584.0</ele><time>2026-04-14T09:42:01.855Z</time></trkpt><trkpt lat="42.5289533" lon="-7.6804367"><ele>584.0</ele><time>2026-04-14T09:42:02.855Z</time></trkpt><trkpt lat="42.5288883" lon="-7.6802517"><ele>584.0</ele><time>2026-04-14T09:42:03.854Z</time></trkpt><trkpt lat="42.5288183" lon="-7.6800717"><ele>584.0</ele><time>2026-04-14T09:42:04.854Z</time></trkpt><trkpt lat="42.5287533" lon="-7.679895"><ele>582.25</ele><time>2026-04-14T09:42:05.854Z</time></trkpt><trkpt lat="42.5286967" lon="-7.6797267"><ele>580.5</ele><time>2026-04-14T09:42:06.855Z</time></trkpt><trkpt lat="42.5286567" lon="-7.6795633"><ele>578.75</ele><time>2026-04-14T09:42:07.855Z</time></trkpt><trkpt lat="42.5286367" lon="-7.679405"><ele>577.0</ele><time>2026-04-14T09:42:08.855Z</time></trkpt><trkpt lat="42.5286367" lon="-7.6792533"><ele>576.75</ele><time>2026-04-14T09:42:09.855Z</time></trkpt><trkpt lat="42.5286517" lon="-7.6791067"><ele>576.5</ele><time>2026-04-14T09:42:10.854Z</time></trkpt><trkpt lat="42.5286817" lon="-7.6789533"><ele>576.25</ele><time>2026-04-14T09:42:11.854Z</time></trkpt><trkpt lat="42.528715" lon="-7.67879"><ele>576.0</ele><time>2026-04-14T09:42:12.855Z</time></trkpt><trkpt lat="42.5287533" lon="-7.678625"><ele>577.0</ele><time>2026-04-14T09:42:13.855Z</time></trkpt><trkpt lat="42.5287833" lon="-7.6784583"><ele>578.0</ele><time>2026-04-14T09:42:14.854Z</time></trkpt><trkpt lat="42.528815" lon="-7.678295"><ele>579.0</ele><time>2026-04-14T09:42:15.854Z</time></trkpt><trkpt lat="42.5288617" lon="-7.6781233"><ele>580.0</ele><time>2026-04-14T09:42:16.855Z</time></trkpt><trkpt lat="42.5289133" lon="-7.6779567"><ele>580.0</ele><time>2026-04-14T09:42:17.855Z</time></trkpt><trkpt lat="42.5289633" lon="-7.677785"><ele>580.0</ele><time>2026-04-14T09:42:18.855Z</time></trkpt><trkpt lat="42.52902" lon="-7.677615"><ele>580.0</ele><time>2026-04-14T09:42:19.854Z</time></trkpt><trkpt lat="42.5290717" lon="-7.67745"><ele>580.0</ele><time>2026-04-14T09:42:20.855Z</time></trkpt><trkpt lat="42.5291217" lon="-7.6772917"><ele>578.5</ele><time>2026-04-14T09:42:21.855Z</time></trkpt><trkpt lat="42.5291633" lon="-7.6771267"><ele>577.0</ele><time>2026-04-14T09:42:22.854Z</time></trkpt><trkpt lat="42.5291983" lon="-7.6769533"><ele>575.5</ele><time>2026-04-14T09:42:23.855Z</time></trkpt><trkpt lat="42.5292117" lon="-7.67678"><ele>574.0</ele><time>2026-04-14T09:42:24.855Z</time></trkpt><trkpt lat="42.52923" lon="-7.6765933"><ele>572.5</ele><time>2026-04-14T09:42:25.854Z</time></trkpt><trkpt lat="42.5292467" lon="-7.676405"><ele>571.0</ele><time>2026-04-14T09:42:26.855Z</time></trkpt><trkpt lat="42.5292533" lon="-7.6762167"><ele>569.5</ele><time>2026-04-14T09:42:27.854Z</time></trkpt><trkpt lat="42.5292633" lon="-7.6760283"><ele>568.0</ele><time>2026-04-14T09:42:28.854Z</time></trkpt><trkpt lat="42.529285" lon="-7.6758483"><ele>567.6</ele><time>2026-04-14T09:42:29.855Z</time></trkpt><trkpt lat="42.5293217" lon="-7.6756933"><ele>567.1999999999999</ele><time>2026-04-14T09:42:30.855Z</time></trkpt><trkpt lat="42.529385" lon="-7.6755883"><ele>566.8</ele><time>2026-04-14T09:42:31.855Z</time></trkpt><trkpt lat="42.5294583" lon="-7.675515"><ele>566.4</ele><time>2026-04-14T09:42:32.855Z</time></trkpt><trkpt lat="42.52954" lon="-7.675465"><ele>566.0</ele><time>2026-04-14T09:42:33.855Z</time></trkpt><trkpt lat="42.5296433" lon="-7.6754333"><ele>566.0</ele><time>2026-04-14T09:42:34.855Z</time></trkpt><trkpt lat="42.5297667" lon="-7.6754317"><ele>566.0</ele><time>2026-04-14T09:42:35.854Z</time></trkpt><trkpt lat="42.5299" lon="-7.6754517"><ele>566.0</ele><time>2026-04-14T09:42:36.854Z</time></trkpt><trkpt lat="42.5300433" lon="-7.6754883"><ele>566.0</ele><time>2026-04-14T09:42:37.854Z</time></trkpt><trkpt lat="42.530185" lon="-7.6755233"><ele>566.0</ele><time>2026-04-14T09:42:38.854Z</time></trkpt><trkpt lat="42.5303033" lon="-7.675545"><ele>566.0</ele><time>2026-04-14T09:42:39.854Z</time></trkpt><trkpt lat="42.5303967" lon="-7.6755383"><ele>566.0</ele><time>2026-04-14T09:42:40.854Z</time></trkpt><trkpt lat="42.5304633" lon="-7.6755067"><ele>566.0</ele><time>2026-04-14T09:42:41.854Z</time></trkpt><trkpt lat="42.53054" lon="-7.6753617"><ele>566.0</ele><time>2026-04-14T09:42:43.854Z</time></trkpt><trkpt lat="42.5305517" lon="-7.6752483"><ele>565.0</ele><time>2026-04-14T09:42:44.854Z</time></trkpt><trkpt lat="42.5305433" lon="-7.6750917"><ele>564.0</ele><time>2026-04-14T09:42:45.854Z</time></trkpt><trkpt lat="42.530515" lon="-7.6749017"><ele>563.0</ele><time>2026-04-14T09:42:46.855Z</time></trkpt><trkpt lat="42.5304667" lon="-7.6746917"><ele>562.0</ele><time>2026-04-14T09:42:47.854Z</time></trkpt><trkpt lat="42.5304333" lon="-7.674495"><ele>563.0</ele><time>2026-04-14T09:42:48.854Z</time></trkpt><trkpt lat="42.5303983" lon="-7.6743067"><ele>564.0</ele><time>2026-04-14T09:42:49.855Z</time></trkpt><trkpt lat="42.5303617" lon="-7.674115"><ele>565.0</ele><time>2026-04-14T09:42:50.855Z</time></trkpt><trkpt lat="42.530325" lon="-7.67391"><ele>566.0</ele><time>2026-04-14T09:42:51.855Z</time></trkpt><trkpt lat="42.5302967" lon="-7.6737117"><ele>563.25</ele><time>2026-04-14T09:42:52.855Z</time></trkpt><trkpt lat="42.530275" lon="-7.673525"><ele>560.5</ele><time>2026-04-14T09:42:53.855Z</time></trkpt><trkpt lat="42.53027" lon="-7.6733617"><ele>557.75</ele><time>2026-04-14T09:42:54.855Z</time></trkpt><trkpt lat="42.5302833" lon="-7.6732133"><ele>555.0</ele><time>2026-04-14T09:42:55.854Z</time></trkpt><trkpt lat="42.5303167" lon="-7.6730733"><ele>555.0</ele><time>2026-04-14T09:42:56.855Z</time></trkpt><trkpt lat="42.5303817" lon="-7.67294"><ele>555.0</ele><time>2026-04-14T09:42:57.855Z</time></trkpt><trkpt lat="42.5304617" lon="-7.6728283"><ele>555.0</ele><time>2026-04-14T09:42:58.854Z</time></trkpt><trkpt lat="42.5305617" lon="-7.672725"><ele>555.0</ele><time>2026-04-14T09:42:59.854Z</time></trkpt><trkpt lat="42.5306633" lon="-7.672605"><ele>556.0</ele><time>2026-04-14T09:43:00.854Z</time></trkpt><trkpt lat="42.5307433" lon="-7.67247"><ele>557.0</ele><time>2026-04-14T09:43:01.855Z</time></trkpt><trkpt lat="42.530785" lon="-7.6723267"><ele>558.0</ele><time>2026-04-14T09:43:02.854Z</time></trkpt><trkpt lat="42.530795" lon="-7.6721883"><ele>559.0</ele><time>2026-04-14T09:43:03.855Z</time></trkpt><trkpt lat="42.530775" lon="-7.6720333"><ele>558.75</ele><time>2026-04-14T09:43:04.854Z</time></trkpt><trkpt lat="42.53074" lon="-7.67187"><ele>558.5</ele><time>2026-04-14T09:43:05.854Z</time></trkpt><trkpt lat="42.5307083" lon="-7.6716967"><ele>558.25</ele><time>2026-04-14T09:43:06.854Z</time></trkpt><trkpt lat="42.53067" lon="-7.6715133"><ele>558.0</ele><time>2026-04-14T09:43:07.854Z</time></trkpt><trkpt lat="42.530625" lon="-7.6713267"><ele>558.0</ele><time>2026-04-14T09:43:08.854Z</time></trkpt><trkpt lat="42.5305883" lon="-7.6711333"><ele>558.0</ele><time>2026-04-14T09:43:09.854Z</time></trkpt><trkpt lat="42.5305517" lon="-7.6709317"><ele>558.0</ele><time>2026-04-14T09:43:10.854Z</time></trkpt><trkpt lat="42.5305017" lon="-7.67072"><ele>559.6666666666666</ele><time>2026-04-14T09:43:11.854Z</time></trkpt><trkpt lat="42.5304667" lon="-7.6705117"><ele>561.3333333333333</ele><time>2026-04-14T09:43:12.854Z</time></trkpt><trkpt lat="42.5304217" lon="-7.670315"><ele>563.0</ele><time>2026-04-14T09:43:13.854Z</time></trkpt><trkpt lat="42.53038" lon="-7.6701267"><ele>563.0</ele><time>2026-04-14T09:43:14.855Z</time></trkpt><trkpt lat="42.5303433" lon="-7.6699433"><ele>563.0</ele><time>2026-04-14T09:43:15.855Z</time></trkpt><trkpt lat="42.530305" lon="-7.66975"><ele>563.0</ele><time>2026-04-14T09:43:16.855Z</time></trkpt><trkpt lat="42.5302717" lon="-7.6695617"><ele>563.0</ele><time>2026-04-14T09:43:17.855Z</time></trkpt><trkpt lat="42.530245" lon="-7.669385"><ele>564.0</ele><time>2026-04-14T09:43:18.855Z</time></trkpt><trkpt lat="42.5302367" lon="-7.669195"><ele>565.0</ele><time>2026-04-14T09:43:19.854Z</time></trkpt><trkpt lat="42.5302333" lon="-7.6689983"><ele>566.0</ele><time>2026-04-14T09:43:20.854Z</time></trkpt><trkpt lat="42.5302383" lon="-7.6688033"><ele>567.0</ele><time>2026-04-14T09:43:21.855Z</time></trkpt><trkpt lat="42.5302433" lon="-7.66862"><ele>567.4</ele><time>2026-04-14T09:43:22.855Z</time></trkpt><trkpt lat="42.5302433" lon="-7.6684567"><ele>567.8000000000001</ele><time>2026-04-14T09:43:23.855Z</time></trkpt><trkpt lat="42.53024" lon="-7.668315"><ele>568.2</ele><time>2026-04-14T09:43:24.855Z</time></trkpt><trkpt lat="42.53024" lon="-7.668185"><ele>568.6</ele><time>2026-04-14T09:43:25.854Z</time></trkpt><trkpt lat="42.5302417" lon="-7.6680583"><ele>569.0</ele><time>2026-04-14T09:43:26.855Z</time></trkpt><trkpt lat="42.5302467" lon="-7.6679417"><ele>569.0</ele><time>2026-04-14T09:43:27.854Z</time></trkpt><trkpt lat="42.53026" lon="-7.6678333"><ele>569.0</ele><time>2026-04-14T09:43:28.854Z</time></trkpt><trkpt lat="42.5302833" lon="-7.6677183"><ele>569.0</ele><time>2026-04-14T09:43:29.854Z</time></trkpt><trkpt lat="42.5303183" lon="-7.66761"><ele>569.0</ele><time>2026-04-14T09:43:30.855Z</time></trkpt><trkpt lat="42.5303683" lon="-7.6675"><ele>569.0</ele><time>2026-04-14T09:43:31.854Z</time></trkpt><trkpt lat="42.5304283" lon="-7.667385"><ele>569.0</ele><time>2026-04-14T09:43:32.855Z</time></trkpt><trkpt lat="42.5304983" lon="-7.6672767"><ele>569.0</ele><time>2026-04-14T09:43:33.855Z</time></trkpt><trkpt lat="42.530575" lon="-7.6671567"><ele>569.0</ele><time>2026-04-14T09:43:34.855Z</time></trkpt><trkpt lat="42.5306433" lon="-7.6670267"><ele>569.0</ele><time>2026-04-14T09:43:35.855Z</time></trkpt><trkpt lat="42.5307067" lon="-7.6668967"><ele>569.0</ele><time>2026-04-14T09:43:36.855Z</time></trkpt><trkpt lat="42.5307667" lon="-7.6667733"><ele>569.0</ele><time>2026-04-14T09:43:37.854Z</time></trkpt><trkpt lat="42.5308267" lon="-7.66666"><ele>569.0</ele><time>2026-04-14T09:43:38.854Z</time></trkpt><trkpt lat="42.5308783" lon="-7.66656"><ele>569.0</ele><time>2026-04-14T09:43:39.854Z</time></trkpt><trkpt lat="42.530925" lon="-7.6664717"><ele>569.0</ele><time>2026-04-14T09:43:40.855Z</time></trkpt><trkpt lat="42.530965" lon="-7.66639"><ele>569.0000000000001</ele><time>2026-04-14T09:43:41.855Z</time></trkpt><trkpt lat="42.5310067" lon="-7.66631"><ele>569.0</ele><time>2026-04-14T09:43:42.854Z</time></trkpt><trkpt lat="42.5310483" lon="-7.6662333"><ele>569.0</ele><time>2026-04-14T09:43:43.854Z</time></trkpt><trkpt lat="42.5310883" lon="-7.6661583"><ele>569.0</ele><time>2026-04-14T09:43:44.854Z</time></trkpt><trkpt lat="42.531125" lon="-7.66608"><ele>569.0</ele><time>2026-04-14T09:43:45.854Z</time></trkpt><trkpt lat="42.5311533" lon="-7.6659983"><ele>569.0000000000001</ele><time>2026-04-14T09:43:46.855Z</time></trkpt><trkpt lat="42.5311833" lon="-7.6659117"><ele>569.0</ele><time>2026-04-14T09:43:47.854Z</time></trkpt><trkpt lat="42.531215" lon="-7.6658217"><ele>568.1428571428572</ele><time>2026-04-14T09:43:48.855Z</time></trkpt><trkpt lat="42.5312467" lon="-7.6657367"><ele>567.2857142857143</ele><time>2026-04-14T09:43:49.855Z</time></trkpt><trkpt lat="42.531275" lon="-7.665635"><ele>566.4285714285714</ele><time>2026-04-14T09:43:50.854Z</time></trkpt><trkpt lat="42.5313017" lon="-7.6655333"><ele>565.5714285714287</ele><time>2026-04-14T09:43:51.854Z</time></trkpt><trkpt lat="42.531325" lon="-7.665435"><ele>564.7142857142858</ele><time>2026-04-14T09:43:52.854Z</time></trkpt><trkpt lat="42.53135" lon="-7.665345"><ele>563.8571428571429</ele><time>2026-04-14T09:43:53.855Z</time></trkpt><trkpt lat="42.5313733" lon="-7.6652583"><ele>563.0</ele><time>2026-04-14T09:43:54.855Z</time></trkpt><trkpt lat="42.5313983" lon="-7.6651717"><ele>562.8333333333333</ele><time>2026-04-14T09:43:55.854Z</time></trkpt><trkpt lat="42.5314167" lon="-7.6650867"><ele>562.6666666666666</ele><time>2026-04-14T09:43:56.855Z</time></trkpt><trkpt lat="42.53143" lon="-7.665"><ele>562.5</ele><time>2026-04-14T09:43:57.854Z</time></trkpt><trkpt lat="42.5314467" lon="-7.6649067"><ele>562.3333333333334</ele><time>2026-04-14T09:43:58.855Z</time></trkpt><trkpt lat="42.5314917" lon="-7.66476"><ele>562.1666666666667</ele><time>2026-04-14T09:44:00.855Z</time></trkpt><trkpt lat="42.531535" lon="-7.6646217"><ele>562.0</ele><time>2026-04-14T09:44:02.854Z</time></trkpt><trkpt lat="42.5315717" lon="-7.6644867"><ele>562.0</ele><time>2026-04-14T09:44:04.855Z</time></trkpt><trkpt lat="42.5316067" lon="-7.6643667"><ele>562.0</ele><time>2026-04-14T09:44:06.855Z</time></trkpt><trkpt lat="42.5316367" lon="-7.6642483"><ele>562.0</ele><time>2026-04-14T09:44:08.854Z</time></trkpt><trkpt lat="42.5316517" lon="-7.6641333"><ele>562.0</ele><time>2026-04-14T09:44:10.855Z</time></trkpt><trkpt lat="42.531675" lon="-7.66402"><ele>562.0</ele><time>2026-04-14T09:44:12.854Z</time></trkpt><trkpt lat="42.5317" lon="-7.6638883"><ele>562.0</ele><time>2026-04-14T09:44:14.854Z</time></trkpt><trkpt lat="42.5317267" lon="-7.6637367"><ele>562.0</ele><time>2026-04-14T09:44:16.854Z</time></trkpt><trkpt lat="42.531755" lon="-7.66361"><ele>562.0</ele><time>2026-04-14T09:44:18.855Z</time></trkpt><trkpt lat="42.53173" lon="-7.663475"><ele>562.0</ele><time>2026-04-14T09:44:20.855Z</time></trkpt><trkpt lat="42.5316667" lon="-7.66335"><ele>562.0</ele><time>2026-04-14T09:44:22.855Z</time></trkpt><trkpt lat="42.5315683" lon="-7.6632767"><ele>561.6666666666667</ele><time>2026-04-14T09:44:24.854Z</time></trkpt><trkpt lat="42.5315033" lon="-7.663255"><ele>561.3333333333334</ele><time>2026-04-14T09:44:25.854Z</time></trkpt><trkpt lat="42.5314367" lon="-7.6632417"><ele>561.0</ele><time>2026-04-14T09:44:26.855Z</time></trkpt><trkpt lat="42.5313733" lon="-7.663225"><ele>560.6666666666666</ele><time>2026-04-14T09:44:27.854Z</time></trkpt><trkpt lat="42.5312567" lon="-7.6631917"><ele>560.3333333333333</ele><time>2026-04-14T09:44:29.854Z</time></trkpt><trkpt lat="42.5311367" lon="-7.6631617"><ele>560.0</ele><time>2026-04-14T09:44:31.854Z</time></trkpt><trkpt lat="42.5310217" lon="-7.6631333"><ele>559.5</ele><time>2026-04-14T09:44:33.855Z</time></trkpt><trkpt lat="42.5309083" lon="-7.663115"><ele>559.0</ele><time>2026-04-14T09:44:35.854Z</time></trkpt><trkpt lat="42.530805" lon="-7.6630467"><ele>558.5</ele><time>2026-04-14T09:44:37.855Z</time></trkpt><trkpt lat="42.5307483" lon="-7.662995"><ele>558.0</ele><time>2026-04-14T09:44:38.854Z</time></trkpt><trkpt lat="42.5307" lon="-7.66294"><ele>557.5</ele><time>2026-04-14T09:44:39.854Z</time></trkpt><trkpt lat="42.53065" lon="-7.6628683"><ele>557.0</ele><time>2026-04-14T09:44:40.855Z</time></trkpt><trkpt lat="42.5305983" lon="-7.6628"><ele>555.6</ele><time>2026-04-14T09:44:41.854Z</time></trkpt><trkpt lat="42.530515" lon="-7.66267"><ele>554.2</ele><time>2026-04-14T09:44:43.854Z</time></trkpt><trkpt lat="42.5304267" lon="-7.6625517"><ele>552.8</ele><time>2026-04-14T09:44:45.854Z</time></trkpt><trkpt lat="42.5303683" lon="-7.6624983"><ele>551.4</ele><time>2026-04-14T09:44:46.854Z</time></trkpt><trkpt lat="42.5303067" lon="-7.6624483"><ele>550.0</ele><time>2026-04-14T09:44:47.854Z</time></trkpt><trkpt lat="42.5302367" lon="-7.6624183"><ele>549.4285714285714</ele><time>2026-04-14T09:44:48.854Z</time></trkpt><trkpt lat="42.5301717" lon="-7.6623867"><ele>548.8571428571429</ele><time>2026-04-14T09:44:49.854Z</time></trkpt><trkpt lat="42.5301" lon="-7.6623617"><ele>548.2857142857142</ele><time>2026-04-14T09:44:50.854Z</time></trkpt><trkpt lat="42.5300267" lon="-7.6623417"><ele>547.7142857142858</ele><time>2026-04-14T09:44:51.855Z</time></trkpt><trkpt lat="42.5299567" lon="-7.662325"><ele>547.1428571428571</ele><time>2026-04-14T09:44:52.854Z</time></trkpt><trkpt lat="42.5298867" lon="-7.6622967"><ele>546.5714285714286</ele><time>2026-04-14T09:44:53.854Z</time></trkpt><trkpt lat="42.529825" lon="-7.662265"><ele>546.0</ele><time>2026-04-14T09:44:54.855Z</time></trkpt><trkpt lat="42.52976" lon="-7.66222"><ele>546.0</ele><time>2026-04-14T09:44:55.854Z</time></trkpt><trkpt lat="42.5296983" lon="-7.6621717"><ele>546.0</ele><time>2026-04-14T09:44:56.854Z</time></trkpt><trkpt lat="42.52964" lon="-7.66211"><ele>546.0</ele><time>2026-04-14T09:44:57.854Z</time></trkpt><trkpt lat="42.5295867" lon="-7.662045"><ele>546.0</ele><time>2026-04-14T09:44:58.855Z</time></trkpt><trkpt lat="42.5295333" lon="-7.6619783"><ele>546.0</ele><time>2026-04-14T09:44:59.855Z</time></trkpt><trkpt lat="42.529485" lon="-7.66191"><ele>546.0</ele><time>2026-04-14T09:45:00.855Z</time></trkpt><trkpt lat="42.529435" lon="-7.661845"><ele>546.0</ele><time>2026-04-14T09:45:01.855Z</time></trkpt><trkpt lat="42.529385" lon="-7.6617883"><ele>544.6</ele><time>2026-04-14T09:45:02.854Z</time></trkpt><trkpt lat="42.5293383" lon="-7.6617283"><ele>543.2</ele><time>2026-04-14T09:45:03.855Z</time></trkpt><trkpt lat="42.5292483" lon="-7.6616283"><ele>541.8</ele><time>2026-04-14T09:45:05.854Z</time></trkpt><trkpt lat="42.52916" lon="-7.6615217"><ele>540.4</ele><time>2026-04-14T09:45:07.855Z</time></trkpt><trkpt lat="42.5291133" lon="-7.6614467"><ele>539.0</ele><time>2026-04-14T09:45:08.855Z</time></trkpt><trkpt lat="42.529055" lon="-7.66135"><ele>539.0</ele><time>2026-04-14T09:45:09.855Z</time></trkpt><trkpt lat="42.5289867" lon="-7.6612517"><ele>539.0</ele><time>2026-04-14T09:45:10.854Z</time></trkpt><trkpt lat="42.5289133" lon="-7.6611533"><ele>539.0</ele><time>2026-04-14T09:45:11.854Z</time></trkpt><trkpt lat="42.5288433" lon="-7.6610633"><ele>539.0</ele><time>2026-04-14T09:45:12.854Z</time></trkpt><trkpt lat="42.5287733" lon="-7.6609917"><ele>539.0</ele><time>2026-04-14T09:45:13.854Z</time></trkpt><trkpt lat="42.528695" lon="-7.660945"><ele>539.4</ele><time>2026-04-14T09:45:14.855Z</time></trkpt><trkpt lat="42.52861" lon="-7.6609283"><ele>539.8</ele><time>2026-04-14T09:45:15.854Z</time></trkpt><trkpt lat="42.5285133" lon="-7.6609367"><ele>540.2</ele><time>2026-04-14T09:45:16.854Z</time></trkpt><trkpt lat="42.5284133" lon="-7.6609517"><ele>540.6</ele><time>2026-04-14T09:45:17.854Z</time></trkpt><trkpt lat="42.528305" lon="-7.6609583"><ele>541.0</ele><time>2026-04-14T09:45:18.855Z</time></trkpt><trkpt lat="42.528185" lon="-7.66096"><ele>541.0</ele><time>2026-04-14T09:45:19.855Z</time></trkpt><trkpt lat="42.528055" lon="-7.6609733"><ele>541.0</ele><time>2026-04-14T09:45:20.854Z</time></trkpt><trkpt lat="42.5279183" lon="-7.6609867"><ele>541.0</ele><time>2026-04-14T09:45:21.854Z</time></trkpt><trkpt lat="42.5277817" lon="-7.6609967"><ele>541.0</ele><time>2026-04-14T09:45:22.855Z</time></trkpt><trkpt lat="42.5276583" lon="-7.6610117"><ele>541.0</ele><time>2026-04-14T09:45:23.854Z</time></trkpt><trkpt lat="42.5275383" lon="-7.66103"><ele>541.0</ele><time>2026-04-14T09:45:24.855Z</time></trkpt><trkpt lat="42.5274233" lon="-7.6610533"><ele>541.0</ele><time>2026-04-14T09:45:25.854Z</time></trkpt><trkpt lat="42.52731" lon="-7.6610933"><ele>541.0</ele><time>2026-04-14T09:45:26.854Z</time></trkpt><trkpt lat="42.527205" lon="-7.6611367"><ele>541.0</ele><time>2026-04-14T09:45:27.854Z</time></trkpt><trkpt lat="42.5270933" lon="-7.6612117"><ele>541.0</ele><time>2026-04-14T09:45:28.854Z</time></trkpt><trkpt lat="42.5269917" lon="-7.6613033"><ele>541.0</ele><time>2026-04-14T09:45:29.854Z</time></trkpt><trkpt lat="42.5269017" lon="-7.6613967"><ele>541.0</ele><time>2026-04-14T09:45:30.854Z</time></trkpt><trkpt lat="42.52684" lon="-7.6615"><ele>542.4</ele><time>2026-04-14T09:45:31.854Z</time></trkpt><trkpt lat="42.5268067" lon="-7.6616217"><ele>543.8</ele><time>2026-04-14T09:45:32.855Z</time></trkpt><trkpt lat="42.5267983" lon="-7.6617433"><ele>545.1999999999999</ele><time>2026-04-14T09:45:33.855Z</time></trkpt><trkpt lat="42.5268017" lon="-7.6618783"><ele>546.6</ele><time>2026-04-14T09:45:34.855Z</time></trkpt><trkpt lat="42.5268" lon="-7.6620183"><ele>548.0</ele><time>2026-04-14T09:45:35.854Z</time></trkpt><trkpt lat="42.5267783" lon="-7.6621633"><ele>548.6</ele><time>2026-04-14T09:45:36.854Z</time></trkpt><trkpt lat="42.5267317" lon="-7.6622983"><ele>549.1999999999999</ele><time>2026-04-14T09:45:37.855Z</time></trkpt><trkpt lat="42.5266767" lon="-7.6624283"><ele>549.8</ele><time>2026-04-14T09:45:38.854Z</time></trkpt><trkpt lat="42.52662" lon="-7.6625533"><ele>550.4</ele><time>2026-04-14T09:45:39.855Z</time></trkpt><trkpt lat="42.5265633" lon="-7.662665"><ele>551.0</ele><time>2026-04-14T09:45:40.855Z</time></trkpt><trkpt lat="42.5264983" lon="-7.6627617"><ele>551.0</ele><time>2026-04-14T09:45:41.854Z</time></trkpt><trkpt lat="42.5264167" lon="-7.662855"><ele>551.0</ele><time>2026-04-14T09:45:42.854Z</time></trkpt><trkpt lat="42.5263233" lon="-7.6629417"><ele>551.0</ele><time>2026-04-14T09:45:43.854Z</time></trkpt><trkpt lat="42.5262267" lon="-7.6630267"><ele>551.0</ele><time>2026-04-14T09:45:44.855Z</time></trkpt><trkpt lat="42.5261333" lon="-7.6631083"><ele>551.0</ele><time>2026-04-14T09:45:45.854Z</time></trkpt><trkpt lat="42.52605" lon="-7.6631833"><ele>551.3333333333333</ele><time>2026-04-14T09:45:46.855Z</time></trkpt><trkpt lat="42.5259667" lon="-7.6632583"><ele>551.6666666666666</ele><time>2026-04-14T09:45:47.855Z</time></trkpt><trkpt lat="42.5258867" lon="-7.6633367"><ele>552.0</ele><time>2026-04-14T09:45:48.854Z</time></trkpt><trkpt lat="42.5258133" lon="-7.6634133"><ele>552.3333333333334</ele><time>2026-04-14T09:45:49.854Z</time></trkpt><trkpt lat="42.5257483" lon="-7.6634767"><ele>552.6666666666667</ele><time>2026-04-14T09:45:50.854Z</time></trkpt><trkpt lat="42.5256917" lon="-7.66353"><ele>553.0</ele><time>2026-04-14T09:45:51.855Z</time></trkpt><trkpt lat="42.525625" lon="-7.6636167"><ele>552.8333333333334</ele><time>2026-04-14T09:45:53.854Z</time></trkpt><trkpt lat="42.5255933" lon="-7.663695"><ele>552.6666666666667</ele><time>2026-04-14T09:46:00.855Z</time></trkpt><trkpt lat="42.5255517" lon="-7.6637733"><ele>552.5</ele><time>2026-04-14T09:46:02.855Z</time></trkpt><trkpt lat="42.5255083" lon="-7.66388"><ele>552.3333333333334</ele><time>2026-04-14T09:46:04.854Z</time></trkpt><trkpt lat="42.52547" lon="-7.66397"><ele>552.1666666666666</ele><time>2026-04-14T09:46:06.855Z</time></trkpt><trkpt lat="42.5254333" lon="-7.66405"><ele>552.0</ele><time>2026-04-14T09:46:08.854Z</time></trkpt><trkpt lat="42.525385" lon="-7.6641533"><ele>552.0</ele><time>2026-04-14T09:46:11.854Z</time></trkpt><trkpt lat="42.52535" lon="-7.6642617"><ele>552.0</ele><time>2026-04-14T09:46:14.854Z</time></trkpt><trkpt lat="42.52532" lon="-7.6643417"><ele>552.0</ele><time>2026-04-14T09:46:17.855Z</time></trkpt><trkpt lat="42.5252817" lon="-7.66445"><ele>552.0</ele><time>2026-04-14T09:46:20.854Z</time></trkpt><trkpt lat="42.5252633" lon="-7.6645533"><ele>552.0</ele><time>2026-04-14T09:46:23.854Z</time></trkpt><trkpt lat="42.5252517" lon="-7.6647433"><ele>551.8333333333334</ele><time>2026-04-14T09:47:01.855Z</time></trkpt><trkpt lat="42.5252667" lon="-7.6648433"><ele>551.6666666666666</ele><time>2026-04-14T09:47:09.854Z</time></trkpt><trkpt lat="42.5252967" lon="-7.6649317"><ele>551.5</ele><time>2026-04-14T09:47:15.855Z</time></trkpt><trkpt lat="42.525345" lon="-7.6649967"><ele>551.3333333333333</ele><time>2026-04-14T09:47:20.855Z</time></trkpt><trkpt lat="42.5252917" lon="-7.6649117"><ele>551.1666666666666</ele><time>2026-04-14T09:47:50.855Z</time></trkpt><trkpt lat="42.5252633" lon="-7.664805"><ele>551.0</ele><time>2026-04-14T09:53:30.857Z</time></trkpt><trkpt lat="42.525305" lon="-7.664945"><ele>551.0</ele><time>2026-04-14T09:53:32.857Z</time></trkpt><trkpt lat="42.5253567" lon="-7.66502"><ele>551.0</ele><time>2026-04-14T09:53:33.857Z</time></trkpt><trkpt lat="42.5253983" lon="-7.6650983"><ele>551.0</ele><time>2026-04-14T09:53:34.857Z</time></trkpt><trkpt lat="42.5254583" lon="-7.6651967"><ele>551.0</ele><time>2026-04-14T09:53:36.856Z</time></trkpt><trkpt lat="42.5254983" lon="-7.66527"><ele>551.0</ele><time>2026-04-14T09:54:34.856Z</time></trkpt><trkpt lat="42.5255267" lon="-7.66536"><ele>551.0</ele><time>2026-04-14T09:55:48.856Z</time></trkpt><trkpt lat="42.52555" lon="-7.66547"><ele>549.3333333333333</ele><time>2026-04-14T09:56:21.856Z</time></trkpt><trkpt lat="42.525565" lon="-7.66557"><ele>547.6666666666666</ele><time>2026-04-14T09:56:22.857Z</time></trkpt><trkpt lat="42.5255733" lon="-7.6657067"><ele>546.0</ele><time>2026-04-14T09:56:24.857Z</time></trkpt><trkpt lat="42.5255683" lon="-7.6658"><ele>544.3333333333334</ele><time>2026-04-14T09:56:27.857Z</time></trkpt><trkpt lat="42.525565" lon="-7.665955"><ele>542.6666666666667</ele><time>2026-04-14T09:57:58.856Z</time></trkpt><trkpt lat="42.525545" lon="-7.66605"><ele>541.0</ele><time>2026-04-14T09:58:00.857Z</time></trkpt><trkpt lat="42.52552" lon="-7.666155"><ele>540.75</ele><time>2026-04-14T09:58:01.857Z</time></trkpt><trkpt lat="42.525495" lon="-7.6662967"><ele>540.5</ele><time>2026-04-14T09:58:02.857Z</time></trkpt><trkpt lat="42.5255067" lon="-7.6664617"><ele>540.25</ele><time>2026-04-14T09:58:03.857Z</time></trkpt><trkpt lat="42.5255617" lon="-7.6666533"><ele>540.0</ele><time>2026-04-14T09:58:04.857Z</time></trkpt><trkpt lat="42.5256567" lon="-7.666865"><ele>541.3333333333334</ele><time>2026-04-14T09:58:05.857Z</time></trkpt><trkpt lat="42.5257533" lon="-7.6670767"><ele>542.6666666666667</ele><time>2026-04-14T09:58:06.856Z</time></trkpt><trkpt lat="42.5258533" lon="-7.6672633"><ele>544.0</ele><time>2026-04-14T09:58:07.856Z</time></trkpt><trkpt lat="42.5259533" lon="-7.66743"><ele>544.0</ele><time>2026-04-14T09:58:08.856Z</time></trkpt><trkpt lat="42.526065" lon="-7.6675883"><ele>544.0</ele><time>2026-04-14T09:58:09.856Z</time></trkpt><trkpt lat="42.5261683" lon="-7.667725"><ele>544.0</ele><time>2026-04-14T09:58:10.856Z</time></trkpt><trkpt lat="42.5262583" lon="-7.6678533"><ele>544.0</ele><time>2026-04-14T09:58:11.857Z</time></trkpt><trkpt lat="42.5263167" lon="-7.6679883"><ele>542.0</ele><time>2026-04-14T09:58:12.857Z</time></trkpt><trkpt lat="42.526355" lon="-7.6681617"><ele>540.0</ele><time>2026-04-14T09:58:13.856Z</time></trkpt><trkpt lat="42.52638" lon="-7.668365"><ele>538.0</ele><time>2026-04-14T09:58:14.856Z</time></trkpt><trkpt lat="42.5263867" lon="-7.6685783"><ele>536.0</ele><time>2026-04-14T09:58:15.856Z</time></trkpt><trkpt lat="42.5263817" lon="-7.6688017"><ele>535.3333333333333</ele><time>2026-04-14T09:58:16.856Z</time></trkpt><trkpt lat="42.5263533" lon="-7.6690217"><ele>534.6666666666666</ele><time>2026-04-14T09:58:17.857Z</time></trkpt><trkpt lat="42.5262983" lon="-7.6692267"><ele>534.0</ele><time>2026-04-14T09:58:18.856Z</time></trkpt><trkpt lat="42.5262083" lon="-7.6694333"><ele>534.3333333333334</ele><time>2026-04-14T09:58:19.857Z</time></trkpt><trkpt lat="42.5261017" lon="-7.6696483"><ele>534.6666666666667</ele><time>2026-04-14T09:58:20.857Z</time></trkpt><trkpt lat="42.5259933" lon="-7.669865"><ele>535.0</ele><time>2026-04-14T09:58:21.856Z</time></trkpt><trkpt lat="42.5258917" lon="-7.6700667"><ele>535.0</ele><time>2026-04-14T09:58:22.856Z</time></trkpt><trkpt lat="42.52581" lon="-7.6702633"><ele>535.0</ele><time>2026-04-14T09:58:23.857Z</time></trkpt><trkpt lat="42.5257567" lon="-7.670465"><ele>535.0</ele><time>2026-04-14T09:58:24.857Z</time></trkpt><trkpt lat="42.52572" lon="-7.67064"><ele>533.2</ele><time>2026-04-14T09:58:25.856Z</time></trkpt><trkpt lat="42.5256733" lon="-7.6707567"><ele>531.4</ele><time>2026-04-14T09:58:26.856Z</time></trkpt><trkpt lat="42.5256317" lon="-7.6708233"><ele>529.6</ele><time>2026-04-14T09:58:27.857Z</time></trkpt><trkpt lat="42.5255117" lon="-7.6708767"><ele>527.8</ele><time>2026-04-14T09:58:29.856Z</time></trkpt><trkpt lat="42.5254033" lon="-7.67088"><ele>526.0</ele><time>2026-04-14T09:58:30.856Z</time></trkpt><trkpt lat="42.5252483" lon="-7.6708767"><ele>526.0</ele><time>2026-04-14T09:58:31.857Z</time></trkpt><trkpt lat="42.525065" lon="-7.6708667"><ele>526.0</ele><time>2026-04-14T09:58:32.856Z</time></trkpt><trkpt lat="42.5248817" lon="-7.6708667"><ele>526.0</ele><time>2026-04-14T09:58:33.856Z</time></trkpt><trkpt lat="42.524715" lon="-7.6708633"><ele>526.0</ele><time>2026-04-14T09:58:34.856Z</time></trkpt><trkpt lat="42.524575" lon="-7.67086"><ele>526.0</ele><time>2026-04-14T09:58:35.856Z</time></trkpt><trkpt lat="42.5244467" lon="-7.67088"><ele>526.0</ele><time>2026-04-14T09:58:36.856Z</time></trkpt><trkpt lat="42.5243217" lon="-7.67095"><ele>526.0</ele><time>2026-04-14T09:58:37.857Z</time></trkpt><trkpt lat="42.5242" lon="-7.6710683"><ele>523.5</ele><time>2026-04-14T09:58:38.856Z</time></trkpt><trkpt lat="42.5240967" lon="-7.67119"><ele>521.0</ele><time>2026-04-14T09:58:39.856Z</time></trkpt><trkpt lat="42.5240083" lon="-7.6713183"><ele>518.5</ele><time>2026-04-14T09:58:40.857Z</time></trkpt><trkpt lat="42.5239233" lon="-7.6714533"><ele>516.0</ele><time>2026-04-14T09:58:41.856Z</time></trkpt><trkpt lat="42.52385" lon="-7.67154"><ele>516.0</ele><time>2026-04-14T09:58:42.857Z</time></trkpt><trkpt lat="42.5237867" lon="-7.6715733"><ele>516.0</ele><time>2026-04-14T09:58:43.857Z</time></trkpt><trkpt lat="42.5237233" lon="-7.6715633"><ele>516.0</ele><time>2026-04-14T09:58:44.856Z</time></trkpt><trkpt lat="42.523655" lon="-7.6715233"><ele>516.0</ele><time>2026-04-14T09:58:45.856Z</time></trkpt><trkpt lat="42.5235883" lon="-7.6714683"><ele>516.0</ele><time>2026-04-14T09:58:46.856Z</time></trkpt><trkpt lat="42.5234883" lon="-7.6714783"><ele>516.0</ele><time>2026-04-14T09:58:48.856Z</time></trkpt><trkpt lat="42.523455" lon="-7.6716733"><ele>517.75</ele><time>2026-04-14T09:58:50.856Z</time></trkpt><trkpt lat="42.52347" lon="-7.67184"><ele>519.5</ele><time>2026-04-14T09:58:51.857Z</time></trkpt><trkpt lat="42.5235133" lon="-7.6720383"><ele>521.25</ele><time>2026-04-14T09:58:52.858Z</time></trkpt><trkpt lat="42.523565" lon="-7.6722417"><ele>523.0</ele><time>2026-04-14T09:58:53.857Z</time></trkpt><trkpt lat="42.5235933" lon="-7.6724133"><ele>523.0</ele><time>2026-04-14T09:58:54.857Z</time></trkpt><trkpt lat="42.5235933" lon="-7.67258"><ele>523.0</ele><time>2026-04-14T09:58:55.857Z</time></trkpt><trkpt lat="42.52358" lon="-7.6727267"><ele>523.0</ele><time>2026-04-14T09:58:56.857Z</time></trkpt><trkpt lat="42.5235433" lon="-7.67289"><ele>523.0</ele><time>2026-04-14T09:58:57.857Z</time></trkpt><trkpt lat="42.5235067" lon="-7.6730517"><ele>521.0</ele><time>2026-04-14T09:58:58.858Z</time></trkpt><trkpt lat="42.5234567" lon="-7.6731967"><ele>519.0</ele><time>2026-04-14T09:58:59.858Z</time></trkpt><trkpt lat="42.5233917" lon="-7.6733567"><ele>517.0</ele><time>2026-04-14T09:59:00.857Z</time></trkpt><trkpt lat="42.523315" lon="-7.6735233"><ele>515.0</ele><time>2026-04-14T09:59:01.857Z</time></trkpt><trkpt lat="42.5232417" lon="-7.6736967"><ele>512.5</ele><time>2026-04-14T09:59:02.857Z</time></trkpt><trkpt lat="42.523185" lon="-7.6738683"><ele>510.0</ele><time>2026-04-14T09:59:03.858Z</time></trkpt><trkpt lat="42.52313" lon="-7.6740317"><ele>507.5</ele><time>2026-04-14T09:59:04.857Z</time></trkpt><trkpt lat="42.5230683" lon="-7.674195"><ele>505.0</ele><time>2026-04-14T09:59:05.858Z</time></trkpt><trkpt lat="42.5230083" lon="-7.6743683"><ele>503.75</ele><time>2026-04-14T09:59:06.857Z</time></trkpt><trkpt lat="42.5229483" lon="-7.6745517"><ele>502.5</ele><time>2026-04-14T09:59:07.858Z</time></trkpt><trkpt lat="42.5228933" lon="-7.6747283"><ele>501.25</ele><time>2026-04-14T09:59:08.858Z</time></trkpt><trkpt lat="42.522855" lon="-7.67488"><ele>500.0</ele><time>2026-04-14T09:59:09.857Z</time></trkpt><trkpt lat="42.5228533" lon="-7.6750083"><ele>501.25</ele><time>2026-04-14T09:59:10.858Z</time></trkpt><trkpt lat="42.5228867" lon="-7.675135"><ele>502.5</ele><time>2026-04-14T09:59:11.858Z</time></trkpt><trkpt lat="42.5229583" lon="-7.675275"><ele>503.75</ele><time>2026-04-14T09:59:12.858Z</time></trkpt><trkpt lat="42.5230333" lon="-7.67545"><ele>505.0</ele><time>2026-04-14T09:59:13.857Z</time></trkpt><trkpt lat="42.5231283" lon="-7.6756267"><ele>505.0</ele><time>2026-04-14T09:59:14.858Z</time></trkpt><trkpt lat="42.5232367" lon="-7.675765"><ele>505.0</ele><time>2026-04-14T09:59:15.858Z</time></trkpt><trkpt lat="42.5233517" lon="-7.6758617"><ele>505.0</ele><time>2026-04-14T09:59:16.858Z</time></trkpt><trkpt lat="42.52347" lon="-7.6759083"><ele>505.0</ele><time>2026-04-14T09:59:17.857Z</time></trkpt><trkpt lat="42.5235883" lon="-7.6759433"><ele>505.0</ele><time>2026-04-14T09:59:18.857Z</time></trkpt><trkpt lat="42.523695" lon="-7.6759933"><ele>505.0</ele><time>2026-04-14T09:59:19.857Z</time></trkpt><trkpt lat="42.5237767" lon="-7.67604"><ele>505.0</ele><time>2026-04-14T09:59:20.857Z</time></trkpt><trkpt lat="42.52384" lon="-7.6760717"><ele>505.0</ele><time>2026-04-14T09:59:22.858Z</time></trkpt><trkpt lat="42.5238117" lon="-7.6762183"><ele>505.0</ele><time>2026-04-14T10:00:25.857Z</time></trkpt><trkpt lat="42.52382" lon="-7.6763233"><ele>503.0</ele><time>2026-04-14T10:00:26.857Z</time></trkpt><trkpt lat="42.5238283" lon="-7.6764467"><ele>501.0</ele><time>2026-04-14T10:00:27.858Z</time></trkpt><trkpt lat="42.5238317" lon="-7.6765833"><ele>499.0</ele><time>2026-04-14T10:00:28.858Z</time></trkpt><trkpt lat="42.5238417" lon="-7.6767533"><ele>497.0</ele><time>2026-04-14T10:00:29.858Z</time></trkpt><trkpt lat="42.5238583" lon="-7.676925"><ele>495.0</ele><time>2026-04-14T10:00:30.858Z</time></trkpt><trkpt lat="42.5238767" lon="-7.6770917"><ele>495.0</ele><time>2026-04-14T10:00:31.857Z</time></trkpt><trkpt lat="42.5238867" lon="-7.677255"><ele>495.0</ele><time>2026-04-14T10:00:32.858Z</time></trkpt><trkpt lat="42.523885" lon="-7.6774217"><ele>495.0</ele><time>2026-04-14T10:00:33.858Z</time></trkpt><trkpt lat="42.523875" lon="-7.6776083"><ele>495.0</ele><time>2026-04-14T10:00:34.858Z</time></trkpt><trkpt lat="42.523855" lon="-7.6778167"><ele>495.0</ele><time>2026-04-14T10:00:35.857Z</time></trkpt><trkpt lat="42.52382" lon="-7.67803"><ele>495.0</ele><time>2026-04-14T10:00:36.857Z</time></trkpt><trkpt lat="42.52378" lon="-7.678235"><ele>495.0</ele><time>2026-04-14T10:00:37.858Z</time></trkpt><trkpt lat="42.5237317" lon="-7.6784267"><ele>500.0</ele><time>2026-04-14T10:00:38.857Z</time></trkpt><trkpt lat="42.5236817" lon="-7.6785717"><ele>505.0</ele><time>2026-04-14T10:00:39.858Z</time></trkpt><trkpt lat="42.5236317" lon="-7.678695"><ele>510.0</ele><time>2026-04-14T10:00:40.858Z</time></trkpt><trkpt lat="42.5235733" lon="-7.67881"><ele>515.0</ele><time>2026-04-14T10:00:41.857Z</time></trkpt><trkpt lat="42.5235083" lon="-7.6789117"><ele>520.0</ele><time>2026-04-14T10:00:42.858Z</time></trkpt><trkpt lat="42.523425" lon="-7.67902"><ele>520.0</ele><time>2026-04-14T10:00:43.858Z</time></trkpt><trkpt lat="42.5233183" lon="-7.67917"><ele>520.0</ele><time>2026-04-14T10:00:44.858Z</time></trkpt><trkpt lat="42.5232083" lon="-7.6793467"><ele>520.0</ele><time>2026-04-14T10:00:45.857Z</time></trkpt><trkpt lat="42.5230933" lon="-7.6795117"><ele>519.5</ele><time>2026-04-14T10:00:46.858Z</time></trkpt><trkpt lat="42.5229917" lon="-7.67966"><ele>519.0</ele><time>2026-04-14T10:00:47.858Z</time></trkpt><trkpt lat="42.5228933" lon="-7.6798017"><ele>518.5</ele><time>2026-04-14T10:00:48.857Z</time></trkpt><trkpt lat="42.522825" lon="-7.6799433"><ele>518.0</ele><time>2026-04-14T10:00:49.858Z</time></trkpt><trkpt lat="42.52274" lon="-7.6800983"><ele>522.0</ele><time>2026-04-14T10:00:50.858Z</time></trkpt><trkpt lat="42.5226717" lon="-7.680255"><ele>526.0</ele><time>2026-04-14T10:00:51.857Z</time></trkpt><trkpt lat="42.52263" lon="-7.6803967"><ele>530.0</ele><time>2026-04-14T10:00:52.857Z</time></trkpt><trkpt lat="42.5225667" lon="-7.6805217"><ele>534.0</ele><time>2026-04-14T10:00:53.858Z</time></trkpt><trkpt lat="42.5224983" lon="-7.6806383"><ele>534.0</ele><time>2026-04-14T10:00:54.857Z</time></trkpt><trkpt lat="42.52239" lon="-7.680745"><ele>534.0</ele><time>2026-04-14T10:00:55.857Z</time></trkpt><trkpt lat="42.5222633" lon="-7.6808617"><ele>534.0</ele><time>2026-04-14T10:00:56.858Z</time></trkpt><trkpt lat="42.52214" lon="-7.6810183"><ele>535.75</ele><time>2026-04-14T10:00:57.858Z</time></trkpt><trkpt lat="42.5220217" lon="-7.6811733"><ele>537.5</ele><time>2026-04-14T10:00:58.858Z</time></trkpt><trkpt lat="42.5219283" lon="-7.681315"><ele>539.25</ele><time>2026-04-14T10:00:59.857Z</time></trkpt><trkpt lat="42.5218683" lon="-7.68144"><ele>541.0</ele><time>2026-04-14T10:01:00.858Z</time></trkpt><trkpt lat="42.5217917" lon="-7.6815217"><ele>541.0</ele><time>2026-04-14T10:01:01.858Z</time></trkpt><trkpt lat="42.521715" lon="-7.681615"><ele>541.0</ele><time>2026-04-14T10:01:02.857Z</time></trkpt><trkpt lat="42.5216267" lon="-7.6816933"><ele>541.0</ele><time>2026-04-14T10:01:03.857Z</time></trkpt><trkpt lat="42.5215217" lon="-7.6817583"><ele>541.0</ele><time>2026-04-14T10:01:04.857Z</time></trkpt><trkpt lat="42.52141" lon="-7.681825"><ele>541.0</ele><time>2026-04-14T10:01:05.858Z</time></trkpt><trkpt lat="42.5212783" lon="-7.6818867"><ele>541.75</ele><time>2026-04-14T10:01:06.857Z</time></trkpt><trkpt lat="42.5211583" lon="-7.6819383"><ele>542.5</ele><time>2026-04-14T10:01:07.857Z</time></trkpt><trkpt lat="42.5210367" lon="-7.6819967"><ele>543.25</ele><time>2026-04-14T10:01:08.857Z</time></trkpt><trkpt lat="42.5209167" lon="-7.68206"><ele>544.0</ele><time>2026-04-14T10:01:09.858Z</time></trkpt><trkpt lat="42.520795" lon="-7.6821267"><ele>544.0</ele><time>2026-04-14T10:01:10.857Z</time></trkpt><trkpt lat="42.520685" lon="-7.68221"><ele>544.0</ele><time>2026-04-14T10:01:11.857Z</time></trkpt><trkpt lat="42.5205933" lon="-7.6822917"><ele>544.0</ele><time>2026-04-14T10:01:12.857Z</time></trkpt><trkpt lat="42.5205" lon="-7.68237"><ele>544.0</ele><time>2026-04-14T10:01:13.857Z</time></trkpt><trkpt lat="42.520385" lon="-7.6824383"><ele>546.0</ele><time>2026-04-14T10:01:14.857Z</time></trkpt><trkpt lat="42.520265" lon="-7.6825333"><ele>548.0</ele><time>2026-04-14T10:01:15.858Z</time></trkpt><trkpt lat="42.5201483" lon="-7.6826433"><ele>550.0</ele><time>2026-04-14T10:01:16.857Z</time></trkpt><trkpt lat="42.5200333" lon="-7.68277"><ele>552.0</ele><time>2026-04-14T10:01:17.858Z</time></trkpt><trkpt lat="42.5199233" lon="-7.6829217"><ele>552.0</ele><time>2026-04-14T10:01:18.857Z</time></trkpt><trkpt lat="42.5198233" lon="-7.6830717"><ele>552.0</ele><time>2026-04-14T10:01:19.857Z</time></trkpt><trkpt lat="42.51975" lon="-7.6832167"><ele>552.0</ele><time>2026-04-14T10:01:20.857Z</time></trkpt><trkpt lat="42.5196767" lon="-7.6833417"><ele>552.0</ele><time>2026-04-14T10:01:21.857Z</time></trkpt><trkpt lat="42.5196" lon="-7.6834617"><ele>554.8000000000001</ele><time>2026-04-14T10:01:22.858Z</time></trkpt><trkpt lat="42.5195217" lon="-7.6835633"><ele>557.6</ele><time>2026-04-14T10:01:23.858Z</time></trkpt><trkpt lat="42.519435" lon="-7.6836367"><ele>560.4000000000001</ele><time>2026-04-14T10:01:24.858Z</time></trkpt><trkpt lat="42.5193317" lon="-7.6836817"><ele>563.2</ele><time>2026-04-14T10:01:25.857Z</time></trkpt><trkpt lat="42.519215" lon="-7.6837117"><ele>566.0</ele><time>2026-04-14T10:01:26.857Z</time></trkpt><trkpt lat="42.519085" lon="-7.6837283"><ele>566.0</ele><time>2026-04-14T10:01:27.857Z</time></trkpt><trkpt lat="42.5189567" lon="-7.6837517"><ele>566.0</ele><time>2026-04-14T10:01:28.857Z</time></trkpt><trkpt lat="42.51881" lon="-7.6837983"><ele>566.0</ele><time>2026-04-14T10:01:29.857Z</time></trkpt><trkpt lat="42.5186767" lon="-7.683865"><ele>566.0</ele><time>2026-04-14T10:01:30.858Z</time></trkpt><trkpt lat="42.5185167" lon="-7.68391"><ele>567.0</ele><time>2026-04-14T10:01:31.857Z</time></trkpt><trkpt lat="42.51836" lon="-7.68396"><ele>568.0</ele><time>2026-04-14T10:01:32.857Z</time></trkpt><trkpt lat="42.5182017" lon="-7.6840083"><ele>569.0</ele><time>2026-04-14T10:01:33.857Z</time></trkpt><trkpt lat="42.5180417" lon="-7.6840483"><ele>567.5</ele><time>2026-04-14T10:01:34.858Z</time></trkpt><trkpt lat="42.5178867" lon="-7.6840683"><ele>566.0</ele><time>2026-04-14T10:01:35.858Z</time></trkpt><trkpt lat="42.5177517" lon="-7.6840767"><ele>564.5</ele><time>2026-04-14T10:01:36.858Z</time></trkpt><trkpt lat="42.5176383" lon="-7.6840717"><ele>563.0</ele><time>2026-04-14T10:01:37.858Z</time></trkpt><trkpt lat="42.5175483" lon="-7.6840467"><ele>563.0</ele><time>2026-04-14T10:01:38.857Z</time></trkpt><trkpt lat="42.5174567" lon="-7.6839917"><ele>563.0</ele><time>2026-04-14T10:01:39.858Z</time></trkpt><trkpt lat="42.51737" lon="-7.6838917"><ele>563.0</ele><time>2026-04-14T10:01:40.857Z</time></trkpt><trkpt lat="42.5172767" lon="-7.6837617"><ele>563.0</ele><time>2026-04-14T10:01:41.858Z</time></trkpt><trkpt lat="42.5171767" lon="-7.68361"><ele>567.3333333333333</ele><time>2026-04-14T10:01:42.857Z</time></trkpt><trkpt lat="42.5170717" lon="-7.6834517"><ele>571.6666666666666</ele><time>2026-04-14T10:01:43.858Z</time></trkpt><trkpt lat="42.5169683" lon="-7.6832983"><ele>576.0</ele><time>2026-04-14T10:01:44.857Z</time></trkpt><trkpt lat="42.5168717" lon="-7.683155"><ele>576.0</ele><time>2026-04-14T10:01:45.858Z</time></trkpt><trkpt lat="42.5167917" lon="-7.6830383"><ele>576.0</ele><time>2026-04-14T10:01:46.858Z</time></trkpt><trkpt lat="42.5167267" lon="-7.6829433"><ele>576.0</ele><time>2026-04-14T10:01:47.858Z</time></trkpt><trkpt lat="42.51667" lon="-7.682875"><ele>576.0</ele><time>2026-04-14T10:01:48.857Z</time></trkpt><trkpt lat="42.51659" lon="-7.682835"><ele>576.0</ele><time>2026-04-14T10:01:50.857Z</time></trkpt><trkpt lat="42.5165367" lon="-7.6829083"><ele>576.0</ele><time>2026-04-14T10:01:52.858Z</time></trkpt><trkpt lat="42.5164617" lon="-7.6831017"><ele>576.0</ele><time>2026-04-14T10:01:54.858Z</time></trkpt><trkpt lat="42.5163833" lon="-7.6832367"><ele>576.0</ele><time>2026-04-14T10:01:55.857Z</time></trkpt><trkpt lat="42.5162667" lon="-7.68338"><ele>576.0</ele><time>2026-04-14T10:01:56.858Z</time></trkpt><trkpt lat="42.5161317" lon="-7.6835017"><ele>576.3333333333334</ele><time>2026-04-14T10:01:57.858Z</time></trkpt><trkpt lat="42.5159783" lon="-7.6836117"><ele>576.6666666666667</ele><time>2026-04-14T10:01:58.857Z</time></trkpt><trkpt lat="42.51582" lon="-7.683695"><ele>577.0</ele><time>2026-04-14T10:01:59.857Z</time></trkpt><trkpt lat="42.5156517" lon="-7.6837617"><ele>577.0</ele><time>2026-04-14T10:02:00.858Z</time></trkpt><trkpt lat="42.5154683" lon="-7.683825"><ele>577.0</ele><time>2026-04-14T10:02:01.857Z</time></trkpt><trkpt lat="42.5153" lon="-7.6838967"><ele>577.0</ele><time>2026-04-14T10:02:02.857Z</time></trkpt><trkpt lat="42.51512" lon="-7.6839767"><ele>579.0</ele><time>2026-04-14T10:02:03.857Z</time></trkpt><trkpt lat="42.514965" lon="-7.6840517"><ele>581.0</ele><time>2026-04-14T10:02:04.857Z</time></trkpt><trkpt lat="42.5148267" lon="-7.6841083"><ele>583.0</ele><time>2026-04-14T10:02:05.857Z</time></trkpt><trkpt lat="42.5146967" lon="-7.684145"><ele>585.0</ele><time>2026-04-14T10:02:06.858Z</time></trkpt><trkpt lat="42.514565" lon="-7.6841567"><ele>586.0</ele><time>2026-04-14T10:02:07.858Z</time></trkpt><trkpt lat="42.5144467" lon="-7.68414"><ele>587.0</ele><time>2026-04-14T10:02:08.857Z</time></trkpt><trkpt lat="42.5143367" lon="-7.6841167"><ele>588.0</ele><time>2026-04-14T10:02:09.858Z</time></trkpt><trkpt lat="42.5142567" lon="-7.6841117"><ele>589.0</ele><time>2026-04-14T10:02:10.857Z</time></trkpt><trkpt lat="42.5141917" lon="-7.68411"><ele>590.0</ele><time>2026-04-14T10:02:11.858Z</time></trkpt><trkpt lat="42.5141" lon="-7.6842133"><ele>590.0</ele><time>2026-04-14T10:02:13.858Z</time></trkpt><trkpt lat="42.5140867" lon="-7.684315"><ele>590.0</ele><time>2026-04-14T10:02:14.857Z</time></trkpt><trkpt lat="42.5140583" lon="-7.6843933"><ele>590.0</ele><time>2026-04-14T10:02:15.857Z</time></trkpt><trkpt lat="42.5139733" lon="-7.6844783"><ele>590.0</ele><time>2026-04-14T10:02:17.858Z</time></trkpt><trkpt lat="42.5138667" lon="-7.6844033"><ele>590.0</ele><time>2026-04-14T10:02:19.857Z</time></trkpt><trkpt lat="42.5138233" lon="-7.6843017"><ele>590.0</ele><time>2026-04-14T10:02:20.858Z</time></trkpt><trkpt lat="42.5137867" lon="-7.6841733"><ele>590.0</ele><time>2026-04-14T10:02:21.858Z</time></trkpt><trkpt lat="42.5137583" lon="-7.6840533"><ele>590.0</ele><time>2026-04-14T10:02:22.857Z</time></trkpt><trkpt lat="42.5137483" lon="-7.683955"><ele>590.0</ele><time>2026-04-14T10:02:23.858Z</time></trkpt><trkpt lat="42.51376" lon="-7.6838533"><ele>590.0</ele><time>2026-04-14T10:02:24.858Z</time></trkpt><trkpt lat="42.5138017" lon="-7.683765"><ele>590.0</ele><time>2026-04-14T10:02:25.858Z</time></trkpt><trkpt lat="42.5138767" lon="-7.68367"><ele>592.3333333333333</ele><time>2026-04-14T10:02:26.858Z</time></trkpt><trkpt lat="42.5140033" lon="-7.6835717"><ele>594.6666666666666</ele><time>2026-04-14T10:02:27.858Z</time></trkpt><trkpt lat="42.514175" lon="-7.6834633"><ele>597.0</ele><time>2026-04-14T10:02:28.858Z</time></trkpt><trkpt lat="42.5143433" lon="-7.68334"><ele>597.0</ele><time>2026-04-14T10:02:29.857Z</time></trkpt><trkpt lat="42.5145167" lon="-7.68319"><ele>597.0</ele><time>2026-04-14T10:02:30.857Z</time></trkpt><trkpt lat="42.51468" lon="-7.68304"><ele>597.0</ele><time>2026-04-14T10:02:31.857Z</time></trkpt><trkpt lat="42.5148367" lon="-7.682895"><ele>596.3333333333334</ele><time>2026-04-14T10:02:32.858Z</time></trkpt><trkpt lat="42.5149867" lon="-7.682755"><ele>595.6666666666667</ele><time>2026-04-14T10:02:33.858Z</time></trkpt><trkpt lat="42.5151383" lon="-7.6826233"><ele>595.0</ele><time>2026-04-14T10:02:34.857Z</time></trkpt><trkpt lat="42.5152883" lon="-7.6824867"><ele>593.0</ele><time>2026-04-14T10:02:35.857Z</time></trkpt><trkpt lat="42.51544" lon="-7.6823517"><ele>591.0</ele><time>2026-04-14T10:02:36.858Z</time></trkpt><trkpt lat="42.5156017" lon="-7.682185"><ele>589.0</ele><time>2026-04-14T10:02:37.858Z</time></trkpt><trkpt lat="42.515785" lon="-7.6820117"><ele>588.5</ele><time>2026-04-14T10:02:38.858Z</time></trkpt><trkpt lat="42.5159783" lon="-7.6818317"><ele>588.0</ele><time>2026-04-14T10:02:39.857Z</time></trkpt><trkpt lat="42.5161633" lon="-7.6816567"><ele>588.0</ele><time>2026-04-14T10:02:40.857Z</time></trkpt><trkpt lat="42.5163317" lon="-7.6814967"><ele>588.0</ele><time>2026-04-14T10:02:41.857Z</time></trkpt><trkpt lat="42.5165033" lon="-7.6813367"><ele>588.0</ele><time>2026-04-14T10:02:42.858Z</time></trkpt><trkpt lat="42.5166617" lon="-7.6811767"><ele>589.0</ele><time>2026-04-14T10:02:43.858Z</time></trkpt><trkpt lat="42.5168" lon="-7.6810367"><ele>590.0</ele><time>2026-04-14T10:02:44.858Z</time></trkpt><trkpt lat="42.516935" lon="-7.68091"><ele>591.0</ele><time>2026-04-14T10:02:45.858Z</time></trkpt><trkpt lat="42.5170633" lon="-7.6807967"><ele>593.3333333333334</ele><time>2026-04-14T10:02:46.857Z</time></trkpt><trkpt lat="42.51719" lon="-7.6806917"><ele>595.6666666666667</ele><time>2026-04-14T10:02:47.858Z</time></trkpt><trkpt lat="42.51732" lon="-7.6805867"><ele>598.0</ele><time>2026-04-14T10:02:48.857Z</time></trkpt><trkpt lat="42.5174533" lon="-7.6804733"><ele>598.0</ele><time>2026-04-14T10:02:49.857Z</time></trkpt><trkpt lat="42.5175883" lon="-7.680355"><ele>598.0</ele><time>2026-04-14T10:02:50.858Z</time></trkpt><trkpt lat="42.5177383" lon="-7.68024"><ele>598.0</ele><time>2026-04-14T10:02:51.857Z</time></trkpt><trkpt lat="42.5178983" lon="-7.6801283"><ele>599.3333333333334</ele><time>2026-04-14T10:02:52.858Z</time></trkpt><trkpt lat="42.518075" lon="-7.68002"><ele>600.6666666666666</ele><time>2026-04-14T10:02:53.858Z</time></trkpt><trkpt lat="42.518265" lon="-7.6799017"><ele>602.0</ele><time>2026-04-14T10:02:54.857Z</time></trkpt><trkpt lat="42.51845" lon="-7.6797633"><ele>602.0</ele><time>2026-04-14T10:02:55.858Z</time></trkpt><trkpt lat="42.518615" lon="-7.67963"><ele>602.0</ele><time>2026-04-14T10:02:56.857Z</time></trkpt><trkpt lat="42.518755" lon="-7.67949"><ele>602.0</ele><time>2026-04-14T10:02:57.858Z</time></trkpt><trkpt lat="42.5188883" lon="-7.67936"><ele>602.25</ele><time>2026-04-14T10:02:58.858Z</time></trkpt><trkpt lat="42.5190133" lon="-7.6792383"><ele>602.5</ele><time>2026-04-14T10:02:59.857Z</time></trkpt><trkpt lat="42.5191167" lon="-7.67913"><ele>602.75</ele><time>2026-04-14T10:03:00.857Z</time></trkpt><trkpt lat="42.5192033" lon="-7.67903"><ele>603.0</ele><time>2026-04-14T10:03:01.858Z</time></trkpt><trkpt lat="42.51926" lon="-7.67892"><ele>603.0</ele><time>2026-04-14T10:03:02.857Z</time></trkpt><trkpt lat="42.519295" lon="-7.6787833"><ele>603.0</ele><time>2026-04-14T10:03:03.857Z</time></trkpt><trkpt lat="42.5193" lon="-7.678615"><ele>603.0</ele><time>2026-04-14T10:03:04.857Z</time></trkpt><trkpt lat="42.5192867" lon="-7.6784183"><ele>603.0</ele><time>2026-04-14T10:03:05.858Z</time></trkpt><trkpt lat="42.51927" lon="-7.6781833"><ele>602.0</ele><time>2026-04-14T10:03:06.858Z</time></trkpt><trkpt lat="42.5192583" lon="-7.6779367"><ele>601.0</ele><time>2026-04-14T10:03:07.858Z</time></trkpt><trkpt lat="42.5192367" lon="-7.6776833"><ele>600.0</ele><time>2026-04-14T10:03:08.858Z</time></trkpt><trkpt lat="42.51923" lon="-7.6774133"><ele>598.6666666666666</ele><time>2026-04-14T10:03:09.857Z</time></trkpt><trkpt lat="42.5192117" lon="-7.6771283"><ele>597.3333333333333</ele><time>2026-04-14T10:03:10.857Z</time></trkpt><trkpt lat="42.5191867" lon="-7.676835"><ele>596.0</ele><time>2026-04-14T10:03:11.858Z</time></trkpt><trkpt lat="42.51917" lon="-7.6765167"><ele>596.0</ele><time>2026-04-14T10:03:12.858Z</time></trkpt><trkpt lat="42.519155" lon="-7.676205"><ele>596.0</ele><time>2026-04-14T10:03:13.858Z</time></trkpt><trkpt lat="42.519135" lon="-7.6759"><ele>595.6666666666666</ele><time>2026-04-14T10:03:14.858Z</time></trkpt><trkpt lat="42.5191083" lon="-7.6756"><ele>595.3333333333334</ele><time>2026-04-14T10:03:15.858Z</time></trkpt><trkpt lat="42.519085" lon="-7.67533"><ele>595.0</ele><time>2026-04-14T10:03:16.858Z</time></trkpt><trkpt lat="42.51907" lon="-7.6750583"><ele>595.0</ele><time>2026-04-14T10:03:17.857Z</time></trkpt><trkpt lat="42.5190533" lon="-7.6747767"><ele>595.0</ele><time>2026-04-14T10:03:18.857Z</time></trkpt><trkpt lat="42.5190267" lon="-7.67446"><ele>595.0</ele><time>2026-04-14T10:03:19.857Z</time></trkpt><trkpt lat="42.5190133" lon="-7.6741333"><ele>593.6666666666667</ele><time>2026-04-14T10:03:20.858Z</time></trkpt><trkpt lat="42.518985" lon="-7.6738283"><ele>592.3333333333334</ele><time>2026-04-14T10:03:21.857Z</time></trkpt><trkpt lat="42.5189633" lon="-7.6735367"><ele>591.0</ele><time>2026-04-14T10:03:22.857Z</time></trkpt><trkpt lat="42.5189433" lon="-7.6733"><ele>590.4</ele><time>2026-04-14T10:03:23.858Z</time></trkpt><trkpt lat="42.518925" lon="-7.6731"><ele>589.8</ele><time>2026-04-14T10:03:24.857Z</time></trkpt><trkpt lat="42.51891" lon="-7.67294"><ele>589.1999999999999</ele><time>2026-04-14T10:03:25.857Z</time></trkpt><trkpt lat="42.518895" lon="-7.6728067"><ele>588.6</ele><time>2026-04-14T10:03:26.858Z</time></trkpt><trkpt lat="42.5188883" lon="-7.6726983"><ele>588.0</ele><time>2026-04-14T10:03:27.857Z</time></trkpt><trkpt lat="42.518885" lon="-7.6726017"><ele>588.0</ele><time>2026-04-14T10:03:28.858Z</time></trkpt><trkpt lat="42.5188867" lon="-7.6725067"><ele>588.0</ele><time>2026-04-14T10:03:29.858Z</time></trkpt><trkpt lat="42.5188867" lon="-7.6724117"><ele>588.0</ele><time>2026-04-14T10:03:30.857Z</time></trkpt><trkpt lat="42.5188833" lon="-7.6723217"><ele>588.0</ele><time>2026-04-14T10:03:31.857Z</time></trkpt><trkpt lat="42.5188833" lon="-7.6722333"><ele>588.0</ele><time>2026-04-14T10:03:32.857Z</time></trkpt><trkpt lat="42.5188833" lon="-7.6720767"><ele>588.0</ele><time>2026-04-14T10:03:34.858Z</time></trkpt><trkpt lat="42.51889" lon="-7.6719167"><ele>588.0</ele><time>2026-04-14T10:03:36.857Z</time></trkpt><trkpt lat="42.5189017" lon="-7.6717533"><ele>588.0</ele><time>2026-04-14T10:03:38.857Z</time></trkpt><trkpt lat="42.51891" lon="-7.6716033"><ele>588.0</ele><time>2026-04-14T10:03:40.857Z</time></trkpt><trkpt lat="42.5189133" lon="-7.6715083"><ele>588.0</ele><time>2026-04-14T10:03:41.857Z</time></trkpt><trkpt lat="42.5189217" lon="-7.6714083"><ele>588.0</ele><time>2026-04-14T10:03:42.858Z</time></trkpt><trkpt lat="42.5189317" lon="-7.6713083"><ele>588.0</ele><time>2026-04-14T10:03:43.857Z</time></trkpt><trkpt lat="42.5189367" lon="-7.6712083"><ele>588.0</ele><time>2026-04-14T10:03:44.857Z</time></trkpt><trkpt lat="42.5189233" lon="-7.6711117"><ele>588.0</ele><time>2026-04-14T10:03:45.857Z</time></trkpt><trkpt lat="42.5189017" lon="-7.6710017"><ele>588.0</ele><time>2026-04-14T10:03:46.857Z</time></trkpt><trkpt lat="42.5188733" lon="-7.6708833"><ele>588.0</ele><time>2026-04-14T10:03:47.857Z</time></trkpt><trkpt lat="42.51884" lon="-7.6707667"><ele>588.0</ele><time>2026-04-14T10:03:48.857Z</time></trkpt><trkpt lat="42.5187933" lon="-7.6706683"><ele>588.8</ele><time>2026-04-14T10:03:49.858Z</time></trkpt><trkpt lat="42.5187333" lon="-7.6705833"><ele>589.5999999999999</ele><time>2026-04-14T10:03:50.857Z</time></trkpt><trkpt lat="42.5186517" lon="-7.6705083"><ele>590.4000000000001</ele><time>2026-04-14T10:03:51.857Z</time></trkpt><trkpt lat="42.5185533" lon="-7.6704417"><ele>591.2</ele><time>2026-04-14T10:03:52.857Z</time></trkpt><trkpt lat="42.51847" lon="-7.67038"><ele>592.0</ele><time>2026-04-14T10:03:53.857Z</time></trkpt><trkpt lat="42.5184017" lon="-7.670315"><ele>591.2</ele><time>2026-04-14T10:03:54.857Z</time></trkpt><trkpt lat="42.5183483" lon="-7.6702317"><ele>590.4000000000001</ele><time>2026-04-14T10:03:55.857Z</time></trkpt><trkpt lat="42.518305" lon="-7.6701267"><ele>589.5999999999999</ele><time>2026-04-14T10:03:56.857Z</time></trkpt><trkpt lat="42.5182617" lon="-7.6699967"><ele>588.8</ele><time>2026-04-14T10:03:57.858Z</time></trkpt><trkpt lat="42.51821" lon="-7.66986"><ele>588.0</ele><time>2026-04-14T10:03:58.858Z</time></trkpt><trkpt lat="42.5181683" lon="-7.669735"><ele>588.0</ele><time>2026-04-14T10:03:59.858Z</time></trkpt><trkpt lat="42.5181367" lon="-7.66961"><ele>588.0</ele><time>2026-04-14T10:04:00.858Z</time></trkpt><trkpt lat="42.51812" lon="-7.669485"><ele>588.0</ele><time>2026-04-14T10:04:01.857Z</time></trkpt><trkpt lat="42.5181167" lon="-7.6693283"><ele>588.0</ele><time>2026-04-14T10:04:02.857Z</time></trkpt><trkpt lat="42.5181333" lon="-7.6691717"><ele>588.0</ele><time>2026-04-14T10:04:03.858Z</time></trkpt><trkpt lat="42.518155" lon="-7.6690167"><ele>587.4</ele><time>2026-04-14T10:04:04.857Z</time></trkpt><trkpt lat="42.51816" lon="-7.6688817"><ele>586.8</ele><time>2026-04-14T10:04:05.857Z</time></trkpt><trkpt lat="42.5181317" lon="-7.668765"><ele>586.2</ele><time>2026-04-14T10:04:06.858Z</time></trkpt><trkpt lat="42.5180567" lon="-7.6686617"><ele>585.6</ele><time>2026-04-14T10:04:07.857Z</time></trkpt><trkpt lat="42.5179717" lon="-7.668565"><ele>585.0</ele><time>2026-04-14T10:04:08.858Z</time></trkpt><trkpt lat="42.517875" lon="-7.668515"><ele>584.4</ele><time>2026-04-14T10:04:09.857Z</time></trkpt><trkpt lat="42.517795" lon="-7.668495"><ele>583.8</ele><time>2026-04-14T10:04:10.858Z</time></trkpt><trkpt lat="42.5177117" lon="-7.6685383"><ele>583.2</ele><time>2026-04-14T10:04:12.858Z</time></trkpt><trkpt lat="42.517665" lon="-7.6687017"><ele>582.6</ele><time>2026-04-14T10:04:14.857Z</time></trkpt><trkpt lat="42.5176333" lon="-7.66883"><ele>582.0</ele><time>2026-04-14T10:04:15.857Z</time></trkpt><trkpt lat="42.5175967" lon="-7.66899"><ele>582.0</ele><time>2026-04-14T10:04:16.857Z</time></trkpt><trkpt lat="42.5175467" lon="-7.6691633"><ele>582.0</ele><time>2026-04-14T10:04:17.857Z</time></trkpt><trkpt lat="42.5174983" lon="-7.6693483"><ele>582.0</ele><time>2026-04-14T10:04:18.857Z</time></trkpt><trkpt lat="42.5174483" lon="-7.66953"><ele>582.0</ele><time>2026-04-14T10:04:19.857Z</time></trkpt><trkpt lat="42.517385" lon="-7.6697233"><ele>584.0</ele><time>2026-04-14T10:04:20.858Z</time></trkpt><trkpt lat="42.5173183" lon="-7.66993"><ele>586.0</ele><time>2026-04-14T10:04:21.857Z</time></trkpt><trkpt lat="42.5172433" lon="-7.670145"><ele>588.0</ele><time>2026-04-14T10:04:22.858Z</time></trkpt><trkpt lat="42.51717" lon="-7.6703717"><ele>588.3333333333334</ele><time>2026-04-14T10:04:23.857Z</time></trkpt><trkpt lat="42.5170917" lon="-7.6706133"><ele>588.6666666666667</ele><time>2026-04-14T10:04:24.858Z</time></trkpt><trkpt lat="42.517015" lon="-7.6708583"><ele>589.0</ele><time>2026-04-14T10:04:25.858Z</time></trkpt><trkpt lat="42.51694" lon="-7.6711033"><ele>590.3333333333334</ele><time>2026-04-14T10:04:26.857Z</time></trkpt><trkpt lat="42.516865" lon="-7.671355"><ele>591.6666666666666</ele><time>2026-04-14T10:04:27.858Z</time></trkpt><trkpt lat="42.5167883" lon="-7.6715967"><ele>593.0</ele><time>2026-04-14T10:04:28.858Z</time></trkpt><trkpt lat="42.516715" lon="-7.6718183"><ele>593.6666666666666</ele><time>2026-04-14T10:04:29.857Z</time></trkpt><trkpt lat="42.5166517" lon="-7.6720317"><ele>594.3333333333334</ele><time>2026-04-14T10:04:30.858Z</time></trkpt><trkpt lat="42.516585" lon="-7.6722467"><ele>595.0</ele><time>2026-04-14T10:04:31.857Z</time></trkpt><trkpt lat="42.51652" lon="-7.6724633"><ele>595.0</ele><time>2026-04-14T10:04:32.858Z</time></trkpt><trkpt lat="42.516455" lon="-7.6726733"><ele>595.0</ele><time>2026-04-14T10:04:33.858Z</time></trkpt><trkpt lat="42.5163983" lon="-7.672875"><ele>595.0</ele><time>2026-04-14T10:04:34.857Z</time></trkpt><trkpt lat="42.51634" lon="-7.67308"><ele>595.0</ele><time>2026-04-14T10:04:35.858Z</time></trkpt><trkpt lat="42.51628" lon="-7.6732717"><ele>595.0</ele><time>2026-04-14T10:04:36.858Z</time></trkpt><trkpt lat="42.51622" lon="-7.673445"><ele>595.0</ele><time>2026-04-14T10:04:37.857Z</time></trkpt><trkpt lat="42.5161633" lon="-7.6736"><ele>595.0</ele><time>2026-04-14T10:04:38.857Z</time></trkpt><trkpt lat="42.5161067" lon="-7.6737333"><ele>594.2</ele><time>2026-04-14T10:04:39.857Z</time></trkpt><trkpt lat="42.5160567" lon="-7.67383"><ele>593.4</ele><time>2026-04-14T10:04:40.858Z</time></trkpt><trkpt lat="42.51601" lon="-7.67389"><ele>592.6</ele><time>2026-04-14T10:04:41.857Z</time></trkpt><trkpt lat="42.5159117" lon="-7.67392"><ele>591.8</ele><time>2026-04-14T10:04:43.857Z</time></trkpt><trkpt lat="42.515805" lon="-7.6738717"><ele>591.0</ele><time>2026-04-14T10:04:45.857Z</time></trkpt><trkpt lat="42.5157317" lon="-7.67381"><ele>591.0</ele><time>2026-04-14T10:04:46.858Z</time></trkpt><trkpt lat="42.5156167" lon="-7.6737117"><ele>591.0</ele><time>2026-04-14T10:04:47.858Z</time></trkpt><trkpt lat="42.5154717" lon="-7.6736267"><ele>591.0</ele><time>2026-04-14T10:04:48.857Z</time></trkpt><trkpt lat="42.51532" lon="-7.6735683"><ele>591.75</ele><time>2026-04-14T10:04:49.857Z</time></trkpt><trkpt lat="42.5151667" lon="-7.6735383"><ele>592.5</ele><time>2026-04-14T10:04:50.858Z</time></trkpt><trkpt lat="42.5150417" lon="-7.6735567"><ele>593.25</ele><time>2026-04-14T10:04:51.857Z</time></trkpt><trkpt lat="42.5149267" lon="-7.6736083"><ele>594.0</ele><time>2026-04-14T10:04:52.858Z</time></trkpt><trkpt lat="42.5148283" lon="-7.67372"><ele>594.0</ele><time>2026-04-14T10:04:53.858Z</time></trkpt><trkpt lat="42.5147217" lon="-7.6738433"><ele>594.0</ele><time>2026-04-14T10:04:54.859Z</time></trkpt><trkpt lat="42.5146317" lon="-7.6739767"><ele>594.0</ele><time>2026-04-14T10:04:55.858Z</time></trkpt><trkpt lat="42.51456" lon="-7.674085"><ele>594.0</ele><time>2026-04-14T10:04:56.858Z</time></trkpt><trkpt lat="42.5145083" lon="-7.674155"><ele>593.8</ele><time>2026-04-14T10:04:57.859Z</time></trkpt><trkpt lat="42.5144517" lon="-7.6742033"><ele>593.5999999999999</ele><time>2026-04-14T10:04:59.858Z</time></trkpt><trkpt lat="42.514395" lon="-7.6741333"><ele>593.4</ele><time>2026-04-14T10:05:01.858Z</time></trkpt><trkpt lat="42.5143483" lon="-7.6740533"><ele>593.1999999999999</ele><time>2026-04-14T10:05:02.859Z</time></trkpt><trkpt lat="42.5142733" lon="-7.6739333"><ele>593.0</ele><time>2026-04-14T10:05:03.859Z</time></trkpt><trkpt lat="42.5141983" lon="-7.6738017"><ele>593.0</ele><time>2026-04-14T10:05:04.859Z</time></trkpt><trkpt lat="42.5141067" lon="-7.6736567"><ele>593.0</ele><time>2026-04-14T10:05:05.859Z</time></trkpt><trkpt lat="42.5140283" lon="-7.6735283"><ele>593.0</ele><time>2026-04-14T10:05:06.858Z</time></trkpt><trkpt lat="42.5139633" lon="-7.673415"><ele>593.0</ele><time>2026-04-14T10:05:07.858Z</time></trkpt><trkpt lat="42.5139117" lon="-7.673305"><ele>593.0</ele><time>2026-04-14T10:05:08.858Z</time></trkpt><trkpt lat="42.5138717" lon="-7.6732017"><ele>593.0</ele><time>2026-04-14T10:05:09.858Z</time></trkpt><trkpt lat="42.5138417" lon="-7.673095"><ele>593.0</ele><time>2026-04-14T10:05:10.858Z</time></trkpt><trkpt lat="42.5138083" lon="-7.67299"><ele>593.0</ele><time>2026-04-14T10:05:11.859Z</time></trkpt><trkpt lat="42.5137717" lon="-7.6728983"><ele>593.0</ele><time>2026-04-14T10:05:12.859Z</time></trkpt><trkpt lat="42.51373" lon="-7.6728283"><ele>593.0</ele><time>2026-04-14T10:05:13.858Z</time></trkpt><trkpt lat="42.51362" lon="-7.672785"><ele>591.0</ele><time>2026-04-14T10:05:15.859Z</time></trkpt><trkpt lat="42.51354" lon="-7.6727983"><ele>589.0</ele><time>2026-04-14T10:05:16.858Z</time></trkpt><trkpt lat="42.5134317" lon="-7.672845"><ele>587.0</ele><time>2026-04-14T10:05:17.859Z</time></trkpt><trkpt lat="42.5133317" lon="-7.6728833"><ele>585.0</ele><time>2026-04-14T10:05:18.858Z</time></trkpt><trkpt lat="42.513255" lon="-7.6729183"><ele>583.0</ele><time>2026-04-14T10:05:19.858Z</time></trkpt><trkpt lat="42.5131817" lon="-7.6729617"><ele>583.0</ele><time>2026-04-14T10:05:21.858Z</time></trkpt><trkpt lat="42.5132567" lon="-7.6729467"><ele>583.0</ele><time>2026-04-14T10:06:07.858Z</time></trkpt><trkpt lat="42.5133683" lon="-7.67292"><ele>583.0</ele><time>2026-04-14T10:06:09.858Z</time></trkpt><trkpt lat="42.5134383" lon="-7.6728983"><ele>583.0</ele><time>2026-04-14T10:06:10.859Z</time></trkpt><trkpt lat="42.5135083" lon="-7.67288"><ele>583.0</ele><time>2026-04-14T10:06:11.858Z</time></trkpt><trkpt lat="42.5136233" lon="-7.6728917"><ele>583.0</ele><time>2026-04-14T10:06:13.859Z</time></trkpt><trkpt lat="42.5137067" lon="-7.6729717"><ele>585.0</ele><time>2026-04-14T10:06:15.858Z</time></trkpt><trkpt lat="42.51375" lon="-7.67304"><ele>587.0</ele><time>2026-04-14T10:06:16.858Z</time></trkpt><trkpt lat="42.513815" lon="-7.673205"><ele>589.0</ele><time>2026-04-14T10:06:18.858Z</time></trkpt><trkpt lat="42.51386" lon="-7.673305"><ele>591.0</ele><time>2026-04-14T10:06:19.859Z</time></trkpt><trkpt lat="42.51393" lon="-7.6734183"><ele>593.0</ele><time>2026-04-14T10:06:20.858Z</time></trkpt><trkpt lat="42.51399" lon="-7.67352"><ele>593.0</ele><time>2026-04-14T10:06:21.858Z</time></trkpt><trkpt lat="42.5140517" lon="-7.6736183"><ele>593.0</ele><time>2026-04-14T10:06:22.858Z</time></trkpt><trkpt lat="42.514125" lon="-7.673725"><ele>593.0</ele><time>2026-04-14T10:06:23.859Z</time></trkpt><trkpt lat="42.514195" lon="-7.673825"><ele>593.0</ele><time>2026-04-14T10:06:24.858Z</time></trkpt><trkpt lat="42.5142683" lon="-7.6739333"><ele>593.0</ele><time>2026-04-14T10:06:25.858Z</time></trkpt><trkpt lat="42.514335" lon="-7.6740267"><ele>593.0</ele><time>2026-04-14T10:06:26.858Z</time></trkpt><trkpt lat="42.5143917" lon="-7.6741083"><ele>593.0</ele><time>2026-04-14T10:06:27.858Z</time></trkpt><trkpt lat="42.514445" lon="-7.6741633"><ele>593.0</ele><time>2026-04-14T10:06:28.858Z</time></trkpt><trkpt lat="42.5145317" lon="-7.6741833"><ele>593.0</ele><time>2026-04-14T10:06:30.859Z</time></trkpt><trkpt lat="42.514585" lon="-7.6740933"><ele>593.0</ele><time>2026-04-14T10:06:32.858Z</time></trkpt><trkpt lat="42.5146833" lon="-7.6739467"><ele>593.25</ele><time>2026-04-14T10:06:34.859Z</time></trkpt><trkpt lat="42.514765" lon="-7.6738517"><ele>593.5</ele><time>2026-04-14T10:06:35.859Z</time></trkpt><trkpt lat="42.5148517" lon="-7.6737583"><ele>593.75</ele><time>2026-04-14T10:06:36.859Z</time></trkpt><trkpt lat="42.5149433" lon="-7.6736617"><ele>594.0</ele><time>2026-04-14T10:06:37.858Z</time></trkpt><trkpt lat="42.5150567" lon="-7.6736167"><ele>593.25</ele><time>2026-04-14T10:06:38.858Z</time></trkpt><trkpt lat="42.5151817" lon="-7.6735933"><ele>592.5</ele><time>2026-04-14T10:06:39.858Z</time></trkpt><trkpt lat="42.515305" lon="-7.6735883"><ele>591.75</ele><time>2026-04-14T10:06:40.858Z</time></trkpt><trkpt lat="42.51542" lon="-7.6735967"><ele>591.0</ele><time>2026-04-14T10:06:41.858Z</time></trkpt><trkpt lat="42.515525" lon="-7.6736367"><ele>591.0</ele><time>2026-04-14T10:06:42.858Z</time></trkpt><trkpt lat="42.51562" lon="-7.673695"><ele>591.0</ele><time>2026-04-14T10:06:43.859Z</time></trkpt><trkpt lat="42.51571" lon="-7.6737667"><ele>591.0</ele><time>2026-04-14T10:06:44.858Z</time></trkpt><trkpt lat="42.51579" lon="-7.6738383"><ele>591.0</ele><time>2026-04-14T10:06:45.859Z</time></trkpt><trkpt lat="42.5158517" lon="-7.6738883"><ele>591.0</ele><time>2026-04-14T10:06:46.859Z</time></trkpt><trkpt lat="42.515975" lon="-7.67393"><ele>591.0</ele><time>2026-04-14T10:06:48.859Z</time></trkpt><trkpt lat="42.5160683" lon="-7.6738433"><ele>591.0</ele><time>2026-04-14T10:06:50.858Z</time></trkpt><trkpt lat="42.51611" lon="-7.673725"><ele>591.0</ele><time>2026-04-14T10:06:51.859Z</time></trkpt><trkpt lat="42.516165" lon="-7.67357"><ele>591.0</ele><time>2026-04-14T10:06:52.858Z</time></trkpt><trkpt lat="42.516225" lon="-7.673395"><ele>592.0</ele><time>2026-04-14T10:06:53.858Z</time></trkpt><trkpt lat="42.5162883" lon="-7.6732233"><ele>593.0</ele><time>2026-04-14T10:06:54.858Z</time></trkpt><trkpt lat="42.5163433" lon="-7.6730633"><ele>594.0</ele><time>2026-04-14T10:06:55.858Z</time></trkpt><trkpt lat="42.5163983" lon="-7.67289"><ele>595.0</ele><time>2026-04-14T10:06:56.858Z</time></trkpt><trkpt lat="42.51645" lon="-7.672715"><ele>595.0</ele><time>2026-04-14T10:06:57.858Z</time></trkpt><trkpt lat="42.5164967" lon="-7.6725433"><ele>595.0</ele><time>2026-04-14T10:06:58.858Z</time></trkpt><trkpt lat="42.5165383" lon="-7.6723783"><ele>595.0</ele><time>2026-04-14T10:06:59.859Z</time></trkpt><trkpt lat="42.5165867" lon="-7.67222"><ele>595.0</ele><time>2026-04-14T10:07:00.858Z</time></trkpt><trkpt lat="42.51663" lon="-7.67209"><ele>595.0</ele><time>2026-04-14T10:07:01.858Z</time></trkpt><trkpt lat="42.5166617" lon="-7.6719883"><ele>595.0</ele><time>2026-04-14T10:07:02.858Z</time></trkpt><trkpt lat="42.5166933" lon="-7.6718917"><ele>595.0</ele><time>2026-04-14T10:07:03.859Z</time></trkpt><trkpt lat="42.5167233" lon="-7.6718"><ele>595.0</ele><time>2026-04-14T10:07:04.858Z</time></trkpt><trkpt lat="42.5167567" lon="-7.6716883"><ele>595.0</ele><time>2026-04-14T10:07:05.858Z</time></trkpt><trkpt lat="42.5167883" lon="-7.6715683"><ele>595.0</ele><time>2026-04-14T10:07:06.859Z</time></trkpt><trkpt lat="42.5168183" lon="-7.6714483"><ele>594.6</ele><time>2026-04-14T10:07:07.858Z</time></trkpt><trkpt lat="42.5168567" lon="-7.6713317"><ele>594.2</ele><time>2026-04-14T10:07:08.858Z</time></trkpt><trkpt lat="42.5168917" lon="-7.6712083"><ele>593.8</ele><time>2026-04-14T10:07:09.859Z</time></trkpt><trkpt lat="42.5169317" lon="-7.6710833"><ele>593.4</ele><time>2026-04-14T10:07:10.858Z</time></trkpt><trkpt lat="42.51697" lon="-7.6709633"><ele>593.0</ele><time>2026-04-14T10:07:11.858Z</time></trkpt><trkpt lat="42.5170083" lon="-7.6708467"><ele>593.0</ele><time>2026-04-14T10:07:12.858Z</time></trkpt><trkpt lat="42.5170433" lon="-7.6707283"><ele>593.0</ele><time>2026-04-14T10:07:13.858Z</time></trkpt><trkpt lat="42.5170733" lon="-7.67061"><ele>593.0</ele><time>2026-04-14T10:07:14.858Z</time></trkpt><trkpt lat="42.5171067" lon="-7.6704983"><ele>593.0</ele><time>2026-04-14T10:07:15.859Z</time></trkpt><trkpt lat="42.517145" lon="-7.6703783"><ele>593.0</ele><time>2026-04-14T10:07:16.858Z</time></trkpt><trkpt lat="42.5171867" lon="-7.6702633"><ele>592.0</ele><time>2026-04-14T10:07:17.859Z</time></trkpt><trkpt lat="42.5172283" lon="-7.6701483"><ele>591.0</ele><time>2026-04-14T10:07:18.858Z</time></trkpt><trkpt lat="42.5172683" lon="-7.67003"><ele>590.0</ele><time>2026-04-14T10:07:19.858Z</time></trkpt><trkpt lat="42.51731" lon="-7.6699167"><ele>589.0</ele><time>2026-04-14T10:07:20.859Z</time></trkpt><trkpt lat="42.5173567" lon="-7.669795"><ele>588.0</ele><time>2026-04-14T10:07:21.859Z</time></trkpt><trkpt lat="42.5173967" lon="-7.6696733"><ele>588.0</ele><time>2026-04-14T10:07:22.858Z</time></trkpt><trkpt lat="42.5174317" lon="-7.66954"><ele>588.0</ele><time>2026-04-14T10:07:23.859Z</time></trkpt><trkpt lat="42.5174567" lon="-7.6694067"><ele>588.0</ele><time>2026-04-14T10:07:24.858Z</time></trkpt><trkpt lat="42.5174933" lon="-7.66927"><ele>588.0</ele><time>2026-04-14T10:07:25.858Z</time></trkpt><trkpt lat="42.5175367" lon="-7.669135"><ele>588.0</ele><time>2026-04-14T10:07:26.858Z</time></trkpt><trkpt lat="42.5175817" lon="-7.669005"><ele>587.0</ele><time>2026-04-14T10:07:27.859Z</time></trkpt><trkpt lat="42.5176183" lon="-7.6688867"><ele>586.0</ele><time>2026-04-14T10:07:28.859Z</time></trkpt><trkpt lat="42.5176483" lon="-7.668785"><ele>585.0</ele><time>2026-04-14T10:07:29.858Z</time></trkpt><trkpt lat="42.51768" lon="-7.668695"><ele>584.0</ele><time>2026-04-14T10:07:30.859Z</time></trkpt><trkpt lat="42.51772" lon="-7.66856"><ele>583.0</ele><time>2026-04-14T10:07:32.858Z</time></trkpt><trkpt lat="42.51779" lon="-7.6684967"><ele>582.0</ele><time>2026-04-14T10:07:35.859Z</time></trkpt><trkpt lat="42.51789" lon="-7.66852"><ele>582.0</ele><time>2026-04-14T10:07:37.858Z</time></trkpt><trkpt lat="42.5179583" lon="-7.66854"><ele>582.0</ele><time>2026-04-14T10:07:38.859Z</time></trkpt><trkpt lat="42.5180183" lon="-7.66859"><ele>582.0</ele><time>2026-04-14T10:07:39.858Z</time></trkpt><trkpt lat="42.51808" lon="-7.66866"><ele>582.0</ele><time>2026-04-14T10:07:40.859Z</time></trkpt><trkpt lat="42.518135" lon="-7.66873"><ele>582.0</ele><time>2026-04-14T10:07:41.858Z</time></trkpt><trkpt lat="42.5181683" lon="-7.668815"><ele>582.0</ele><time>2026-04-14T10:07:42.859Z</time></trkpt><trkpt lat="42.518175" lon="-7.668905"><ele>582.0</ele><time>2026-04-14T10:07:43.858Z</time></trkpt><trkpt lat="42.5181617" lon="-7.6690033"><ele>582.5</ele><time>2026-04-14T10:07:44.858Z</time></trkpt><trkpt lat="42.5181417" lon="-7.6691183"><ele>583.0</ele><time>2026-04-14T10:07:45.859Z</time></trkpt><trkpt lat="42.51813" lon="-7.6692383"><ele>583.5</ele><time>2026-04-14T10:07:46.858Z</time></trkpt><trkpt lat="42.5181217" lon="-7.66936"><ele>584.0</ele><time>2026-04-14T10:07:47.859Z</time></trkpt><trkpt lat="42.5181167" lon="-7.6694817"><ele>584.5</ele><time>2026-04-14T10:07:48.859Z</time></trkpt><trkpt lat="42.5181317" lon="-7.669595"><ele>585.0</ele><time>2026-04-14T10:07:49.858Z</time></trkpt><trkpt lat="42.51816" lon="-7.6696917"><ele>585.5</ele><time>2026-04-14T10:07:50.859Z</time></trkpt><trkpt lat="42.5181983" lon="-7.669785"><ele>586.0</ele><time>2026-04-14T10:07:51.858Z</time></trkpt><trkpt lat="42.5182367" lon="-7.6698817"><ele>586.5</ele><time>2026-04-14T10:07:52.859Z</time></trkpt><trkpt lat="42.518275" lon="-7.669975"><ele>587.0</ele><time>2026-04-14T10:07:53.858Z</time></trkpt><trkpt lat="42.5183067" lon="-7.67007"><ele>587.5</ele><time>2026-04-14T10:07:54.859Z</time></trkpt><trkpt lat="42.518335" lon="-7.6701567"><ele>588.0</ele><time>2026-04-14T10:07:55.858Z</time></trkpt><trkpt lat="42.5184067" lon="-7.6702983"><ele>587.6666666666666</ele><time>2026-04-14T10:07:57.859Z</time></trkpt><trkpt lat="42.51847" lon="-7.6703517"><ele>587.3333333333334</ele><time>2026-04-14T10:07:58.859Z</time></trkpt><trkpt lat="42.5185417" lon="-7.6704067"><ele>587.0</ele><time>2026-04-14T10:07:59.859Z</time></trkpt><trkpt lat="42.5186167" lon="-7.67046"><ele>586.6666666666667</ele><time>2026-04-14T10:08:00.858Z</time></trkpt><trkpt lat="42.51869" lon="-7.670505"><ele>586.3333333333334</ele><time>2026-04-14T10:08:01.858Z</time></trkpt><trkpt lat="42.5187667" lon="-7.67057"><ele>586.0</ele><time>2026-04-14T10:08:02.858Z</time></trkpt><trkpt lat="42.5188233" lon="-7.670645"><ele>586.0</ele><time>2026-04-14T10:08:03.858Z</time></trkpt><trkpt lat="42.518865" lon="-7.670725"><ele>586.0</ele><time>2026-04-14T10:08:04.859Z</time></trkpt><trkpt lat="42.5188983" lon="-7.6707983"><ele>586.0</ele><time>2026-04-14T10:08:05.859Z</time></trkpt><trkpt lat="42.51896" lon="-7.67093"><ele>586.0</ele><time>2026-04-14T10:08:07.859Z</time></trkpt><trkpt lat="42.519" lon="-7.6710733"><ele>586.0</ele><time>2026-04-14T10:08:09.858Z</time></trkpt><trkpt lat="42.5190067" lon="-7.6711983"><ele>586.0</ele><time>2026-04-14T10:08:11.858Z</time></trkpt><trkpt lat="42.5189683" lon="-7.67128"><ele>586.0</ele><time>2026-04-14T10:08:14.858Z</time></trkpt><trkpt lat="42.51893" lon="-7.6711317"><ele>586.0</ele><time>2026-04-14T10:08:37.859Z</time></trkpt><trkpt lat="42.5189133" lon="-7.67102"><ele>586.0</ele><time>2026-04-14T10:08:38.859Z</time></trkpt><trkpt lat="42.5188933" lon="-7.6709117"><ele>586.0</ele><time>2026-04-14T10:08:39.858Z</time></trkpt><trkpt lat="42.51887" lon="-7.6708117"><ele>586.0</ele><time>2026-04-14T10:08:40.858Z</time></trkpt><trkpt lat="42.51884" lon="-7.670725"><ele>586.0</ele><time>2026-04-14T10:08:41.858Z</time></trkpt><trkpt lat="42.5188017" lon="-7.6706533"><ele>586.0</ele><time>2026-04-14T10:08:42.858Z</time></trkpt><trkpt lat="42.518745" lon="-7.670585"><ele>586.0</ele><time>2026-04-14T10:08:43.859Z</time></trkpt><trkpt lat="42.5186783" lon="-7.67053"><ele>586.0</ele><time>2026-04-14T10:08:44.858Z</time></trkpt><trkpt lat="42.5186033" lon="-7.670475"><ele>586.0</ele><time>2026-04-14T10:08:45.858Z</time></trkpt><trkpt lat="42.518535" lon="-7.6704267"><ele>586.0</ele><time>2026-04-14T10:08:46.858Z</time></trkpt><trkpt lat="42.5184733" lon="-7.6703867"><ele>586.4</ele><time>2026-04-14T10:08:47.859Z</time></trkpt><trkpt lat="42.5183867" lon="-7.67031"><ele>586.8</ele><time>2026-04-14T10:08:49.859Z</time></trkpt><trkpt lat="42.5183333" lon="-7.6702067"><ele>587.1999999999999</ele><time>2026-04-14T10:08:51.858Z</time></trkpt><trkpt lat="42.5183067" lon="-7.6700883"><ele>587.6</ele><time>2026-04-14T10:08:53.859Z</time></trkpt><trkpt lat="42.518265" lon="-7.6699733"><ele>588.0</ele><time>2026-04-14T10:08:55.859Z</time></trkpt><trkpt lat="42.5182167" lon="-7.669845"><ele>588.0</ele><time>2026-04-14T10:08:57.859Z</time></trkpt><trkpt lat="42.5181533" lon="-7.669705"><ele>588.0</ele><time>2026-04-14T10:08:59.858Z</time></trkpt><trkpt lat="42.5181183" lon="-7.66958"><ele>588.0</ele><time>2026-04-14T10:09:01.858Z</time></trkpt><trkpt lat="42.5181083" lon="-7.6694133"><ele>588.0</ele><time>2026-04-14T10:09:03.859Z</time></trkpt><trkpt lat="42.5181167" lon="-7.6693133"><ele>588.0</ele><time>2026-04-14T10:09:04.858Z</time></trkpt><trkpt lat="42.5181283" lon="-7.66921"><ele>587.5714285714286</ele><time>2026-04-14T10:09:05.859Z</time></trkpt><trkpt lat="42.5181417" lon="-7.6690967"><ele>587.1428571428571</ele><time>2026-04-14T10:09:06.858Z</time></trkpt><trkpt lat="42.5181533" lon="-7.6689783"><ele>586.7142857142858</ele><time>2026-04-14T10:09:07.859Z</time></trkpt><trkpt lat="42.518155" lon="-7.66887"><ele>586.2857142857142</ele><time>2026-04-14T10:09:08.858Z</time></trkpt><trkpt lat="42.5181383" lon="-7.6687867"><ele>585.8571428571429</ele><time>2026-04-14T10:09:09.859Z</time></trkpt><trkpt lat="42.5181033" lon="-7.6687133"><ele>585.4285714285714</ele><time>2026-04-14T10:09:10.858Z</time></trkpt><trkpt lat="42.5180533" lon="-7.6686517"><ele>585.0</ele><time>2026-04-14T10:09:11.859Z</time></trkpt><trkpt lat="42.5180033" lon="-7.6685983"><ele>584.4</ele><time>2026-04-14T10:09:12.859Z</time></trkpt><trkpt lat="42.5179083" lon="-7.6685367"><ele>583.8</ele><time>2026-04-14T10:09:14.859Z</time></trkpt><trkpt lat="42.5178333" lon="-7.6685083"><ele>583.2</ele><time>2026-04-14T10:09:16.859Z</time></trkpt><trkpt lat="42.5177467" lon="-7.6685733"><ele>582.6</ele><time>2026-04-14T10:09:19.858Z</time></trkpt><trkpt lat="42.5177067" lon="-7.6686583"><ele>582.0</ele><time>2026-04-14T10:09:20.858Z</time></trkpt><trkpt lat="42.5176617" lon="-7.6687833"><ele>582.0</ele><time>2026-04-14T10:09:21.859Z</time></trkpt><trkpt lat="42.5176067" lon="-7.6689683"><ele>582.0</ele><time>2026-04-14T10:09:22.859Z</time></trkpt><trkpt lat="42.5175433" lon="-7.6691867"><ele>582.0</ele><time>2026-04-14T10:09:23.858Z</time></trkpt><trkpt lat="42.5174767" lon="-7.6694383"><ele>584.0</ele><time>2026-04-14T10:09:24.858Z</time></trkpt><trkpt lat="42.5174117" lon="-7.66967"><ele>586.0</ele><time>2026-04-14T10:09:25.858Z</time></trkpt><trkpt lat="42.5173367" lon="-7.6698833"><ele>588.0</ele><time>2026-04-14T10:09:26.859Z</time></trkpt><trkpt lat="42.5172633" lon="-7.6700817"><ele>588.3333333333334</ele><time>2026-04-14T10:09:27.858Z</time></trkpt><trkpt lat="42.5171967" lon="-7.670295"><ele>588.6666666666667</ele><time>2026-04-14T10:09:28.859Z</time></trkpt><trkpt lat="42.5171217" lon="-7.6705267"><ele>589.0</ele><time>2026-04-14T10:09:29.859Z</time></trkpt><trkpt lat="42.5170533" lon="-7.670715"><ele>589.0</ele><time>2026-04-14T10:09:30.858Z</time></trkpt><trkpt lat="42.51701" lon="-7.6708567"><ele>589.0</ele><time>2026-04-14T10:09:31.858Z</time></trkpt><trkpt lat="42.516985" lon="-7.67096"><ele>589.0</ele><time>2026-04-14T10:09:32.859Z</time></trkpt><trkpt lat="42.51694" lon="-7.671105"><ele>589.0</ele><time>2026-04-14T10:09:34.858Z</time></trkpt><trkpt lat="42.516915" lon="-7.6711967"><ele>589.0</ele><time>2026-04-14T10:09:35.859Z</time></trkpt><trkpt lat="42.516885" lon="-7.6713"><ele>589.8</ele><time>2026-04-14T10:09:36.858Z</time></trkpt><trkpt lat="42.516845" lon="-7.6714083"><ele>590.5999999999999</ele><time>2026-04-14T10:09:37.858Z</time></trkpt><trkpt lat="42.5168133" lon="-7.6715167"><ele>591.4</ele><time>2026-04-14T10:09:38.858Z</time></trkpt><trkpt lat="42.5167767" lon="-7.6716317"><ele>592.1999999999999</ele><time>2026-04-14T10:09:39.859Z</time></trkpt><trkpt lat="42.516735" lon="-7.6717567"><ele>593.0</ele><time>2026-04-14T10:09:40.858Z</time></trkpt><trkpt lat="42.5166933" lon="-7.671895"><ele>593.5</ele><time>2026-04-14T10:09:41.859Z</time></trkpt><trkpt lat="42.5166533" lon="-7.6720417"><ele>594.0</ele><time>2026-04-14T10:09:42.858Z</time></trkpt><trkpt lat="42.5166117" lon="-7.6722017"><ele>594.5</ele><time>2026-04-14T10:09:43.858Z</time></trkpt><trkpt lat="42.516565" lon="-7.6723683"><ele>595.0</ele><time>2026-04-14T10:09:44.858Z</time></trkpt><trkpt lat="42.5165167" lon="-7.6725367"><ele>595.0</ele><time>2026-04-14T10:09:45.858Z</time></trkpt><trkpt lat="42.51647" lon="-7.6727067"><ele>595.0</ele><time>2026-04-14T10:09:46.859Z</time></trkpt><trkpt lat="42.516425" lon="-7.6728733"><ele>595.0</ele><time>2026-04-14T10:09:47.858Z</time></trkpt><trkpt lat="42.5163767" lon="-7.673035"><ele>595.0</ele><time>2026-04-14T10:09:48.858Z</time></trkpt><trkpt lat="42.5163267" lon="-7.6731867"><ele>595.0</ele><time>2026-04-14T10:09:49.858Z</time></trkpt><trkpt lat="42.51627" lon="-7.6733333"><ele>595.0</ele><time>2026-04-14T10:09:50.858Z</time></trkpt><trkpt lat="42.5162217" lon="-7.6734717"><ele>595.0</ele><time>2026-04-14T10:09:51.858Z</time></trkpt><trkpt lat="42.5161717" lon="-7.6735983"><ele>595.0</ele><time>2026-04-14T10:09:52.858Z</time></trkpt><trkpt lat="42.5161233" lon="-7.6737067"><ele>595.0</ele><time>2026-04-14T10:09:53.859Z</time></trkpt><trkpt lat="42.5160767" lon="-7.6737983"><ele>594.2</ele><time>2026-04-14T10:09:54.858Z</time></trkpt><trkpt lat="42.5160317" lon="-7.6738633"><ele>593.4</ele><time>2026-04-14T10:09:55.858Z</time></trkpt><trkpt lat="42.51594" lon="-7.6739167"><ele>592.6</ele><time>2026-04-14T10:09:57.858Z</time></trkpt><trkpt lat="42.5158283" lon="-7.673835"><ele>591.8</ele><time>2026-04-14T10:09:59.859Z</time></trkpt><trkpt lat="42.51575" lon="-7.6737533"><ele>591.0</ele><time>2026-04-14T10:10:00.859Z</time></trkpt><trkpt lat="42.515635" lon="-7.6736417"><ele>590.0</ele><time>2026-04-14T10:10:01.858Z</time></trkpt><trkpt lat="42.5155133" lon="-7.6735717"><ele>589.0</ele><time>2026-04-14T10:10:02.859Z</time></trkpt><trkpt lat="42.515395" lon="-7.6735317"><ele>588.0</ele><time>2026-04-14T10:10:03.859Z</time></trkpt><trkpt lat="42.51529" lon="-7.673515"><ele>587.0</ele><time>2026-04-14T10:10:04.859Z</time></trkpt><trkpt lat="42.5151883" lon="-7.6735083"><ele>587.0</ele><time>2026-04-14T10:10:05.859Z</time></trkpt><trkpt lat="42.5150967" lon="-7.6735167"><ele>587.0</ele><time>2026-04-14T10:10:06.859Z</time></trkpt><trkpt lat="42.5150067" lon="-7.673545"><ele>587.0</ele><time>2026-04-14T10:10:07.858Z</time></trkpt><trkpt lat="42.514915" lon="-7.6735867"><ele>587.0</ele><time>2026-04-14T10:10:08.859Z</time></trkpt><trkpt lat="42.5148417" lon="-7.67366"><ele>587.0</ele><time>2026-04-14T10:10:09.859Z</time></trkpt><trkpt lat="42.51478" lon="-7.673735"><ele>588.0</ele><time>2026-04-14T10:10:10.859Z</time></trkpt><trkpt lat="42.51472" lon="-7.6738133"><ele>589.0</ele><time>2026-04-14T10:10:11.859Z</time></trkpt><trkpt lat="42.5146617" lon="-7.673885"><ele>590.0</ele><time>2026-04-14T10:10:12.858Z</time></trkpt><trkpt lat="42.5146033" lon="-7.673955"><ele>591.0</ele><time>2026-04-14T10:10:13.859Z</time></trkpt><trkpt lat="42.5145383" lon="-7.6740183"><ele>592.0</ele><time>2026-04-14T10:10:14.859Z</time></trkpt><trkpt lat="42.5144833" lon="-7.674115"><ele>593.0</ele><time>2026-04-14T10:10:16.858Z</time></trkpt><trkpt lat="42.5143867" lon="-7.67404"><ele>593.0</ele><time>2026-04-14T10:10:21.859Z</time></trkpt><trkpt lat="42.5143233" lon="-7.6739567"><ele>593.0</ele><time>2026-04-14T10:10:22.858Z</time></trkpt><trkpt lat="42.514255" lon="-7.6738583"><ele>593.0</ele><time>2026-04-14T10:10:23.858Z</time></trkpt><trkpt lat="42.5141783" lon="-7.6737433"><ele>593.0</ele><time>2026-04-14T10:10:24.858Z</time></trkpt><trkpt lat="42.5140933" lon="-7.67362"><ele>593.0</ele><time>2026-04-14T10:10:25.858Z</time></trkpt><trkpt lat="42.514025" lon="-7.673525"><ele>593.0</ele><time>2026-04-14T10:10:26.858Z</time></trkpt><trkpt lat="42.513965" lon="-7.673425"><ele>593.0</ele><time>2026-04-14T10:10:27.858Z</time></trkpt><trkpt lat="42.5139133" lon="-7.6733183"><ele>593.0</ele><time>2026-04-14T10:10:28.859Z</time></trkpt><trkpt lat="42.5138683" lon="-7.67322"><ele>593.0</ele><time>2026-04-14T10:10:29.858Z</time></trkpt><trkpt lat="42.5138383" lon="-7.6731233"><ele>593.0</ele><time>2026-04-14T10:10:30.858Z</time></trkpt><trkpt lat="42.5138033" lon="-7.67303"><ele>593.0</ele><time>2026-04-14T10:10:31.859Z</time></trkpt><trkpt lat="42.5137583" lon="-7.6729317"><ele>591.0</ele><time>2026-04-14T10:10:32.859Z</time></trkpt><trkpt lat="42.513715" lon="-7.67285"><ele>589.0</ele><time>2026-04-14T10:10:33.858Z</time></trkpt><trkpt lat="42.51361" lon="-7.6727733"><ele>587.0</ele><time>2026-04-14T10:10:35.858Z</time></trkpt><trkpt lat="42.513525" lon="-7.6727733"><ele>585.0</ele><time>2026-04-14T10:10:36.858Z</time></trkpt><trkpt lat="42.5134183" lon="-7.6728067"><ele>583.0</ele><time>2026-04-14T10:10:37.859Z</time></trkpt><trkpt lat="42.5133233" lon="-7.6728517"><ele>583.0</ele><time>2026-04-14T10:10:38.859Z</time></trkpt><trkpt lat="42.5132467" lon="-7.6728917"><ele>583.0</ele><time>2026-04-14T10:10:39.858Z</time></trkpt><trkpt lat="42.513175" lon="-7.6729517"><ele>583.0</ele><time>2026-04-14T10:10:41.859Z</time></trkpt><trkpt lat="42.5131883" lon="-7.6728533"><ele>583.0</ele><time>2026-04-14T10:10:51.859Z</time></trkpt><trkpt lat="42.513275" lon="-7.6727283"><ele>583.0</ele><time>2026-04-14T10:10:53.86Z</time></trkpt><trkpt lat="42.5133467" lon="-7.6726083"><ele>581.0</ele><time>2026-04-14T10:10:54.859Z</time></trkpt><trkpt lat="42.513435" lon="-7.6724883"><ele>579.0</ele><time>2026-04-14T10:10:55.86Z</time></trkpt><trkpt lat="42.51352" lon="-7.6723817"><ele>577.0</ele><time>2026-04-14T10:10:56.859Z</time></trkpt><trkpt lat="42.5136033" lon="-7.6722683"><ele>575.0</ele><time>2026-04-14T10:10:57.859Z</time></trkpt><trkpt lat="42.513685" lon="-7.6721617"><ele>576.6</ele><time>2026-04-14T10:10:58.86Z</time></trkpt><trkpt lat="42.5137683" lon="-7.6720633"><ele>578.2</ele><time>2026-04-14T10:10:59.859Z</time></trkpt><trkpt lat="42.5138583" lon="-7.67197"><ele>579.8</ele><time>2026-04-14T10:11:00.86Z</time></trkpt><trkpt lat="42.5139433" lon="-7.6718983"><ele>581.4</ele><time>2026-04-14T10:11:01.859Z</time></trkpt><trkpt lat="42.51403" lon="-7.6718433"><ele>583.0</ele><time>2026-04-14T10:11:02.86Z</time></trkpt><trkpt lat="42.51411" lon="-7.6718133"><ele>580.3333333333334</ele><time>2026-04-14T10:11:03.86Z</time></trkpt><trkpt lat="42.5141833" lon="-7.6717983"><ele>577.6666666666667</ele><time>2026-04-14T10:11:04.859Z</time></trkpt><trkpt lat="42.51428" lon="-7.6717717"><ele>575.0</ele><time>2026-04-14T10:11:05.86Z</time></trkpt><trkpt lat="42.514365" lon="-7.671785"><ele>572.3333333333334</ele><time>2026-04-14T10:11:06.859Z</time></trkpt><trkpt lat="42.514445" lon="-7.671795"><ele>569.6666666666666</ele><time>2026-04-14T10:11:07.859Z</time></trkpt><trkpt lat="42.5145333" lon="-7.671795"><ele>567.0</ele><time>2026-04-14T10:11:08.859Z</time></trkpt><trkpt lat="42.5146217" lon="-7.6718033"><ele>566.8333333333334</ele><time>2026-04-14T10:11:09.86Z</time></trkpt><trkpt lat="42.5147017" lon="-7.671815"><ele>566.6666666666666</ele><time>2026-04-14T10:11:10.86Z</time></trkpt><trkpt lat="42.51478" lon="-7.671835"><ele>566.5</ele><time>2026-04-14T10:11:11.86Z</time></trkpt><trkpt lat="42.5148533" lon="-7.6718567"><ele>566.3333333333333</ele><time>2026-04-14T10:11:12.859Z</time></trkpt><trkpt lat="42.5149517" lon="-7.671895"><ele>566.1666666666666</ele><time>2026-04-14T10:11:14.859Z</time></trkpt><trkpt lat="42.5150183" lon="-7.6719283"><ele>566.0</ele><time>2026-04-14T10:11:17.859Z</time></trkpt><trkpt lat="42.5150533" lon="-7.671845"><ele>566.0</ele><time>2026-04-14T10:11:21.859Z</time></trkpt><trkpt lat="42.515065" lon="-7.671705"><ele>566.0</ele><time>2026-04-14T10:11:23.859Z</time></trkpt><trkpt lat="42.515045" lon="-7.671535"><ele>566.0</ele><time>2026-04-14T10:11:25.859Z</time></trkpt><trkpt lat="42.5150233" lon="-7.6714133"><ele>566.0</ele><time>2026-04-14T10:11:26.86Z</time></trkpt><trkpt lat="42.514985" lon="-7.6712867"><ele>566.0</ele><time>2026-04-14T10:11:27.86Z</time></trkpt><trkpt lat="42.5149467" lon="-7.671145"><ele>566.25</ele><time>2026-04-14T10:11:28.86Z</time></trkpt><trkpt lat="42.5149267" lon="-7.671015"><ele>566.5</ele><time>2026-04-14T10:11:29.859Z</time></trkpt><trkpt lat="42.5149267" lon="-7.6708717"><ele>566.75</ele><time>2026-04-14T10:11:30.86Z</time></trkpt><trkpt lat="42.5149383" lon="-7.67072"><ele>567.0</ele><time>2026-04-14T10:11:31.86Z</time></trkpt><trkpt lat="42.514955" lon="-7.670515"><ele>567.0</ele><time>2026-04-14T10:11:32.86Z</time></trkpt><trkpt lat="42.515015" lon="-7.6703017"><ele>567.0</ele><time>2026-04-14T10:11:33.86Z</time></trkpt><trkpt lat="42.51509" lon="-7.6700867"><ele>567.0</ele><time>2026-04-14T10:11:34.859Z</time></trkpt><trkpt lat="42.5151783" lon="-7.6699067"><ele>566.25</ele><time>2026-04-14T10:11:35.86Z</time></trkpt><trkpt lat="42.5152683" lon="-7.6697617"><ele>565.5</ele><time>2026-04-14T10:11:36.859Z</time></trkpt><trkpt lat="42.5153633" lon="-7.6696383"><ele>564.75</ele><time>2026-04-14T10:11:37.859Z</time></trkpt><trkpt lat="42.51546" lon="-7.66952"><ele>564.0</ele><time>2026-04-14T10:11:38.859Z</time></trkpt><trkpt lat="42.5155667" lon="-7.6694283"><ele>563.6</ele><time>2026-04-14T10:11:39.86Z</time></trkpt><trkpt lat="42.515655" lon="-7.6693533"><ele>563.2</ele><time>2026-04-14T10:11:40.86Z</time></trkpt><trkpt lat="42.5157467" lon="-7.6693017"><ele>562.8000000000001</ele><time>2026-04-14T10:11:41.86Z</time></trkpt><trkpt lat="42.5158517" lon="-7.6692733"><ele>562.4</ele><time>2026-04-14T10:11:42.859Z</time></trkpt><trkpt lat="42.5159567" lon="-7.6692567"><ele>562.0</ele><time>2026-04-14T10:11:43.86Z</time></trkpt><trkpt lat="42.5160683" lon="-7.6692517"><ele>562.0</ele><time>2026-04-14T10:11:44.859Z</time></trkpt><trkpt lat="42.51617" lon="-7.6692567"><ele>562.0</ele><time>2026-04-14T10:11:45.859Z</time></trkpt><trkpt lat="42.516245" lon="-7.669265"><ele>562.0</ele><time>2026-04-14T10:11:46.859Z</time></trkpt><trkpt lat="42.516355" lon="-7.6692467"><ele>562.0</ele><time>2026-04-14T10:11:48.86Z</time></trkpt><trkpt lat="42.5163817" lon="-7.6691"><ele>562.0</ele><time>2026-04-14T10:11:50.859Z</time></trkpt><trkpt lat="42.51641" lon="-7.6689533"><ele>562.2</ele><time>2026-04-14T10:11:52.86Z</time></trkpt><trkpt lat="42.516465" lon="-7.6688333"><ele>562.4000000000001</ele><time>2026-04-14T10:11:54.86Z</time></trkpt><trkpt lat="42.516545" lon="-7.6687483"><ele>562.5999999999999</ele><time>2026-04-14T10:11:56.859Z</time></trkpt><trkpt lat="42.5166" lon="-7.668695"><ele>562.8</ele><time>2026-04-14T10:11:58.859Z</time></trkpt><trkpt lat="42.516635" lon="-7.6685917"><ele>563.0</ele><time>2026-04-14T10:12:00.859Z</time></trkpt><trkpt lat="42.5166267" lon="-7.6684333"><ele>563.0</ele><time>2026-04-14T10:12:02.86Z</time></trkpt><trkpt lat="42.5165983" lon="-7.6683283"><ele>563.0</ele><time>2026-04-14T10:12:03.859Z</time></trkpt><trkpt lat="42.5165667" lon="-7.6682033"><ele>563.0</ele><time>2026-04-14T10:12:04.859Z</time></trkpt><trkpt lat="42.5165517" lon="-7.6680733"><ele>563.0</ele><time>2026-04-14T10:12:05.86Z</time></trkpt><trkpt lat="42.51656" lon="-7.667935"><ele>563.0</ele><time>2026-04-14T10:12:06.86Z</time></trkpt><trkpt lat="42.516595" lon="-7.6677767"><ele>562.75</ele><time>2026-04-14T10:12:07.859Z</time></trkpt><trkpt lat="42.5166567" lon="-7.6676233"><ele>562.5</ele><time>2026-04-14T10:12:08.859Z</time></trkpt><trkpt lat="42.5167383" lon="-7.6674683"><ele>562.25</ele><time>2026-04-14T10:12:09.859Z</time></trkpt><trkpt lat="42.5168317" lon="-7.6673183"><ele>562.0</ele><time>2026-04-14T10:12:10.859Z</time></trkpt><trkpt lat="42.5169233" lon="-7.6671883"><ele>562.0</ele><time>2026-04-14T10:12:11.859Z</time></trkpt><trkpt lat="42.5170083" lon="-7.6670633"><ele>562.0</ele><time>2026-04-14T10:12:12.859Z</time></trkpt><trkpt lat="42.517105" lon="-7.6669333"><ele>562.0</ele><time>2026-04-14T10:12:13.859Z</time></trkpt><trkpt lat="42.5172017" lon="-7.66681"><ele>562.0</ele><time>2026-04-14T10:12:14.86Z</time></trkpt><trkpt lat="42.5172983" lon="-7.6666917"><ele>563.5</ele><time>2026-04-14T10:12:15.859Z</time></trkpt><trkpt lat="42.5173967" lon="-7.666585"><ele>565.0</ele><time>2026-04-14T10:12:16.859Z</time></trkpt><trkpt lat="42.5175017" lon="-7.6664917"><ele>566.5</ele><time>2026-04-14T10:12:17.86Z</time></trkpt><trkpt lat="42.5176133" lon="-7.6664183"><ele>568.0</ele><time>2026-04-14T10:12:18.86Z</time></trkpt><trkpt lat="42.5177283" lon="-7.666335"><ele>568.0</ele><time>2026-04-14T10:12:19.859Z</time></trkpt><trkpt lat="42.5178267" lon="-7.6662817"><ele>568.0</ele><time>2026-04-14T10:12:20.86Z</time></trkpt><trkpt lat="42.517915" lon="-7.6662383"><ele>568.0</ele><time>2026-04-14T10:12:21.86Z</time></trkpt><trkpt lat="42.51799" lon="-7.6661983"><ele>568.0</ele><time>2026-04-14T10:12:22.86Z</time></trkpt><trkpt lat="42.5180517" lon="-7.6661517"><ele>568.0</ele><time>2026-04-14T10:12:23.859Z</time></trkpt><trkpt lat="42.5181017" lon="-7.666085"><ele>568.0</ele><time>2026-04-14T10:12:24.859Z</time></trkpt><trkpt lat="42.51815" lon="-7.6660067"><ele>568.1666666666667</ele><time>2026-04-14T10:12:25.859Z</time></trkpt><trkpt lat="42.518205" lon="-7.66593"><ele>568.3333333333334</ele><time>2026-04-14T10:12:26.859Z</time></trkpt><trkpt lat="42.51827" lon="-7.665855"><ele>568.5</ele><time>2026-04-14T10:12:27.86Z</time></trkpt><trkpt lat="42.51834" lon="-7.6657833"><ele>568.6666666666666</ele><time>2026-04-14T10:12:28.859Z</time></trkpt><trkpt lat="42.518405" lon="-7.6657133"><ele>568.8333333333333</ele><time>2026-04-14T10:12:29.86Z</time></trkpt><trkpt lat="42.51846" lon="-7.66564"><ele>569.0</ele><time>2026-04-14T10:12:30.86Z</time></trkpt><trkpt lat="42.5185067" lon="-7.6655533"><ele>569.0</ele><time>2026-04-14T10:12:31.859Z</time></trkpt><trkpt lat="42.5185333" lon="-7.6654617"><ele>569.0</ele><time>2026-04-14T10:12:32.859Z</time></trkpt><trkpt lat="42.518535" lon="-7.6653667"><ele>569.0</ele><time>2026-04-14T10:12:33.86Z</time></trkpt><trkpt lat="42.5185383" lon="-7.6652633"><ele>569.0</ele><time>2026-04-14T10:12:34.86Z</time></trkpt><trkpt lat="42.5185517" lon="-7.6651617"><ele>569.0</ele><time>2026-04-14T10:12:35.859Z</time></trkpt><trkpt lat="42.5185817" lon="-7.66505"><ele>569.0</ele><time>2026-04-14T10:12:36.86Z</time></trkpt><trkpt lat="42.5186333" lon="-7.664925"><ele>568.1666666666666</ele><time>2026-04-14T10:12:37.86Z</time></trkpt><trkpt lat="42.5186967" lon="-7.66482"><ele>567.3333333333333</ele><time>2026-04-14T10:12:38.859Z</time></trkpt><trkpt lat="42.5187617" lon="-7.6647383"><ele>566.5</ele><time>2026-04-14T10:12:39.859Z</time></trkpt><trkpt lat="42.5188333" lon="-7.664665"><ele>565.6666666666666</ele><time>2026-04-14T10:12:40.86Z</time></trkpt><trkpt lat="42.5189017" lon="-7.664595"><ele>564.8333333333334</ele><time>2026-04-14T10:12:41.86Z</time></trkpt><trkpt lat="42.5189567" lon="-7.66454"><ele>564.0</ele><time>2026-04-14T10:12:42.859Z</time></trkpt><trkpt lat="42.5190283" lon="-7.66449"><ele>563.8</ele><time>2026-04-14T10:12:45.86Z</time></trkpt><trkpt lat="42.518975" lon="-7.6644033"><ele>563.5999999999999</ele><time>2026-04-14T10:13:02.86Z</time></trkpt><trkpt lat="42.518915" lon="-7.6643567"><ele>563.4</ele><time>2026-04-14T10:13:03.859Z</time></trkpt><trkpt lat="42.5188333" lon="-7.6642917"><ele>563.1999999999999</ele><time>2026-04-14T10:13:04.859Z</time></trkpt><trkpt lat="42.5187383" lon="-7.6642083"><ele>563.0</ele><time>2026-04-14T10:13:05.859Z</time></trkpt><trkpt lat="42.5186583" lon="-7.6641333"><ele>563.0</ele><time>2026-04-14T10:13:06.859Z</time></trkpt><trkpt lat="42.5185783" lon="-7.6640617"><ele>563.0</ele><time>2026-04-14T10:13:07.86Z</time></trkpt><trkpt lat="42.518505" lon="-7.663995"><ele>563.0</ele><time>2026-04-14T10:13:08.859Z</time></trkpt><trkpt lat="42.5184383" lon="-7.66394"><ele>563.0</ele><time>2026-04-14T10:13:09.859Z</time></trkpt><trkpt lat="42.5183783" lon="-7.6638867"><ele>563.0</ele><time>2026-04-14T10:13:10.86Z</time></trkpt><trkpt lat="42.5182683" lon="-7.6637967"><ele>563.0</ele><time>2026-04-14T10:13:12.86Z</time></trkpt><trkpt lat="42.51821" lon="-7.6637633"><ele>563.0</ele><time>2026-04-14T10:13:13.86Z</time></trkpt><trkpt lat="42.51815" lon="-7.6637283"><ele>563.0</ele><time>2026-04-14T10:13:14.86Z</time></trkpt><trkpt lat="42.5180767" lon="-7.6636933"><ele>563.0</ele><time>2026-04-14T10:13:15.86Z</time></trkpt><trkpt lat="42.517995" lon="-7.6636433"><ele>563.0</ele><time>2026-04-14T10:13:16.86Z</time></trkpt><trkpt lat="42.5179133" lon="-7.6636"><ele>563.0</ele><time>2026-04-14T10:13:17.859Z</time></trkpt><trkpt lat="42.517815" lon="-7.6635517"><ele>558.5</ele><time>2026-04-14T10:13:18.859Z</time></trkpt><trkpt lat="42.5177117" lon="-7.6635183"><ele>554.0</ele><time>2026-04-14T10:13:19.859Z</time></trkpt><trkpt lat="42.5176167" lon="-7.6634833"><ele>549.5</ele><time>2026-04-14T10:13:20.859Z</time></trkpt><trkpt lat="42.517535" lon="-7.663455"><ele>545.0</ele><time>2026-04-14T10:13:21.859Z</time></trkpt><trkpt lat="42.5174617" lon="-7.66343"><ele>540.5</ele><time>2026-04-14T10:13:22.859Z</time></trkpt><trkpt lat="42.517395" lon="-7.6633983"><ele>536.0</ele><time>2026-04-14T10:13:23.859Z</time></trkpt><trkpt lat="42.51728" lon="-7.6633383"><ele>536.0</ele><time>2026-04-14T10:13:25.859Z</time></trkpt><trkpt lat="42.5172183" lon="-7.6632883"><ele>536.0</ele><time>2026-04-14T10:13:26.86Z</time></trkpt><trkpt lat="42.5171533" lon="-7.66323"><ele>536.0</ele><time>2026-04-14T10:13:27.86Z</time></trkpt><trkpt lat="42.5171033" lon="-7.663175"><ele>536.0</ele><time>2026-04-14T10:13:28.859Z</time></trkpt><trkpt lat="42.5170417" lon="-7.6631283"><ele>536.0</ele><time>2026-04-14T10:13:29.86Z</time></trkpt><trkpt lat="42.5169217" lon="-7.6631183"><ele>536.0</ele><time>2026-04-14T10:13:31.86Z</time></trkpt><trkpt lat="42.516855" lon="-7.6631517"><ele>532.2</ele><time>2026-04-14T10:13:32.859Z</time></trkpt><trkpt lat="42.5167883" lon="-7.663215"><ele>528.4000000000001</ele><time>2026-04-14T10:13:33.86Z</time></trkpt><trkpt lat="42.5167133" lon="-7.6632883"><ele>524.6</ele><time>2026-04-14T10:13:34.86Z</time></trkpt><trkpt lat="42.51663" lon="-7.6633817"><ele>520.8000000000001</ele><time>2026-04-14T10:13:35.86Z</time></trkpt><trkpt lat="42.5165467" lon="-7.6634817"><ele>517.0</ele><time>2026-04-14T10:13:36.859Z</time></trkpt><trkpt lat="42.5164767" lon="-7.6635783"><ele>517.0</ele><time>2026-04-14T10:13:37.86Z</time></trkpt><trkpt lat="42.5164283" lon="-7.6636683"><ele>517.0</ele><time>2026-04-14T10:13:38.86Z</time></trkpt><trkpt lat="42.51638" lon="-7.66379"><ele>517.0</ele><time>2026-04-14T10:13:40.859Z</time></trkpt><trkpt lat="42.5163817" lon="-7.663895"><ele>517.0</ele><time>2026-04-14T10:13:42.86Z</time></trkpt><trkpt lat="42.51643" lon="-7.663965"><ele>517.0</ele><time>2026-04-14T10:13:44.859Z</time></trkpt><trkpt lat="42.5165367" lon="-7.664035"><ele>517.0</ele><time>2026-04-14T10:13:46.859Z</time></trkpt><trkpt lat="42.516615" lon="-7.6640867"><ele>517.0</ele><time>2026-04-14T10:13:47.859Z</time></trkpt><trkpt lat="42.5167067" lon="-7.664135"><ele>517.0</ele><time>2026-04-14T10:13:48.859Z</time></trkpt><trkpt lat="42.51681" lon="-7.6641817"><ele>517.0</ele><time>2026-04-14T10:13:49.859Z</time></trkpt><trkpt lat="42.5169183" lon="-7.6642367"><ele>517.0</ele><time>2026-04-14T10:13:50.86Z</time></trkpt><trkpt lat="42.5170433" lon="-7.6643033"><ele>522.75</ele><time>2026-04-14T10:13:51.859Z</time></trkpt><trkpt lat="42.5171783" lon="-7.6643533"><ele>528.5</ele><time>2026-04-14T10:13:52.859Z</time></trkpt><trkpt lat="42.5173067" lon="-7.6644067"><ele>534.25</ele><time>2026-04-14T10:13:53.86Z</time></trkpt><trkpt lat="42.517445" lon="-7.664455"><ele>540.0</ele><time>2026-04-14T10:13:54.859Z</time></trkpt><trkpt lat="42.517575" lon="-7.6645333"><ele>540.1666666666666</ele><time>2026-04-14T10:13:55.859Z</time></trkpt><trkpt lat="42.517665" lon="-7.66461"><ele>540.3333333333334</ele><time>2026-04-14T10:13:56.86Z</time></trkpt><trkpt lat="42.5177267" lon="-7.6646683"><ele>540.5</ele><time>2026-04-14T10:13:57.86Z</time></trkpt><trkpt lat="42.5177867" lon="-7.6647667"><ele>540.6666666666667</ele><time>2026-04-14T10:13:58.86Z</time></trkpt><trkpt lat="42.51782" lon="-7.6648767"><ele>540.8333333333334</ele><time>2026-04-14T10:13:59.86Z</time></trkpt><trkpt lat="42.5178467" lon="-7.6649833"><ele>541.0</ele><time>2026-04-14T10:14:00.859Z</time></trkpt><trkpt lat="42.5178583" lon="-7.6650767"><ele>541.0</ele><time>2026-04-14T10:14:01.86Z</time></trkpt><trkpt lat="42.5178167" lon="-7.6652317"><ele>541.0</ele><time>2026-04-14T10:14:03.86Z</time></trkpt><trkpt lat="42.517775" lon="-7.6652967"><ele>541.0</ele><time>2026-04-14T10:14:04.86Z</time></trkpt><trkpt lat="42.5177133" lon="-7.6653533"><ele>541.0</ele><time>2026-04-14T10:14:05.859Z</time></trkpt><trkpt lat="42.5176467" lon="-7.66543"><ele>541.0</ele><time>2026-04-14T10:14:06.859Z</time></trkpt><trkpt lat="42.5175783" lon="-7.6655083"><ele>541.0</ele><time>2026-04-14T10:14:07.86Z</time></trkpt><trkpt lat="42.5175" lon="-7.6656083"><ele>543.2</ele><time>2026-04-14T10:14:08.86Z</time></trkpt><trkpt lat="42.5174233" lon="-7.66573"><ele>545.4000000000001</ele><time>2026-04-14T10:14:09.859Z</time></trkpt><trkpt lat="42.5173567" lon="-7.665845"><ele>547.6</ele><time>2026-04-14T10:14:10.859Z</time></trkpt><trkpt lat="42.5172983" lon="-7.6659233"><ele>549.8000000000001</ele><time>2026-04-14T10:14:11.859Z</time></trkpt><trkpt lat="42.5172483" lon="-7.66599"><ele>552.0</ele><time>2026-04-14T10:14:12.859Z</time></trkpt><trkpt lat="42.51714" lon="-7.6660433"><ele>549.3333333333334</ele><time>2026-04-14T10:14:14.859Z</time></trkpt><trkpt lat="42.51706" lon="-7.66604"><ele>546.6666666666666</ele><time>2026-04-14T10:14:15.859Z</time></trkpt><trkpt lat="42.5169667" lon="-7.6660083"><ele>544.0</ele><time>2026-04-14T10:14:16.859Z</time></trkpt><trkpt lat="42.5168817" lon="-7.66597"><ele>541.3333333333333</ele><time>2026-04-14T10:14:17.86Z</time></trkpt><trkpt lat="42.5167967" lon="-7.6659283"><ele>538.6666666666666</ele><time>2026-04-14T10:14:18.859Z</time></trkpt><trkpt lat="42.5167117" lon="-7.665885"><ele>536.0</ele><time>2026-04-14T10:14:19.86Z</time></trkpt><trkpt lat="42.51664" lon="-7.6658467"><ele>536.0</ele><time>2026-04-14T10:14:20.86Z</time></trkpt><trkpt lat="42.5165717" lon="-7.6658167"><ele>536.0</ele><time>2026-04-14T10:14:21.86Z</time></trkpt><trkpt lat="42.51645" lon="-7.66584"><ele>536.0</ele><time>2026-04-14T10:14:23.859Z</time></trkpt><trkpt lat="42.5163883" lon="-7.6659133"><ele>536.0</ele><time>2026-04-14T10:14:24.86Z</time></trkpt><trkpt lat="42.5163383" lon="-7.666005"><ele>536.0</ele><time>2026-04-14T10:14:25.86Z</time></trkpt><trkpt lat="42.5162967" lon="-7.6661117"><ele>534.6</ele><time>2026-04-14T10:14:26.86Z</time></trkpt><trkpt lat="42.51626" lon="-7.666215"><ele>533.2</ele><time>2026-04-14T10:14:27.86Z</time></trkpt><trkpt lat="42.5162333" lon="-7.6662967"><ele>531.8</ele><time>2026-04-14T10:14:28.86Z</time></trkpt><trkpt lat="42.5161983" lon="-7.6664317"><ele>530.4</ele><time>2026-04-14T10:14:30.86Z</time></trkpt><trkpt lat="42.5161717" lon="-7.6665433"><ele>529.0</ele><time>2026-04-14T10:14:32.859Z</time></trkpt><trkpt lat="42.516085" lon="-7.6666467"><ele>529.0</ele><time>2026-04-14T10:15:11.86Z</time></trkpt><trkpt lat="42.516005" lon="-7.6667583"><ele>529.0</ele><time>2026-04-14T10:15:13.86Z</time></trkpt><trkpt lat="42.515955" lon="-7.6668367"><ele>529.0</ele><time>2026-04-14T10:15:14.859Z</time></trkpt><trkpt lat="42.5159083" lon="-7.6669367"><ele>529.0</ele><time>2026-04-14T10:15:15.859Z</time></trkpt><trkpt lat="42.5158633" lon="-7.6670417"><ele>529.0</ele><time>2026-04-14T10:15:16.86Z</time></trkpt><trkpt lat="42.51583" lon="-7.6671517"><ele>530.6</ele><time>2026-04-14T10:15:17.859Z</time></trkpt><trkpt lat="42.5158117" lon="-7.667285"><ele>532.2</ele><time>2026-04-14T10:15:18.86Z</time></trkpt><trkpt lat="42.5158" lon="-7.66744"><ele>533.8000000000001</ele><time>2026-04-14T10:15:19.86Z</time></trkpt><trkpt lat="42.5158033" lon="-7.667595"><ele>535.4</ele><time>2026-04-14T10:15:20.859Z</time></trkpt><trkpt lat="42.5158117" lon="-7.667735"><ele>537.0</ele><time>2026-04-14T10:15:21.859Z</time></trkpt><trkpt lat="42.5158" lon="-7.667855"><ele>539.0</ele><time>2026-04-14T10:15:22.86Z</time></trkpt><trkpt lat="42.5157917" lon="-7.6679567"><ele>541.0</ele><time>2026-04-14T10:15:23.86Z</time></trkpt><trkpt lat="42.515765" lon="-7.6680817"><ele>543.0</ele><time>2026-04-14T10:15:25.859Z</time></trkpt><trkpt lat="42.5157" lon="-7.6680367"><ele>545.0</ele><time>2026-04-14T10:15:28.859Z</time></trkpt><trkpt lat="42.5155633" lon="-7.66802"><ele>547.0</ele><time>2026-04-14T10:15:30.859Z</time></trkpt><trkpt lat="42.5154917" lon="-7.6680283"><ele>547.0</ele><time>2026-04-14T10:15:31.86Z</time></trkpt><trkpt lat="42.5154083" lon="-7.6680617"><ele>547.0</ele><time>2026-04-14T10:15:32.86Z</time></trkpt><trkpt lat="42.515335" lon="-7.6681083"><ele>547.0</ele><time>2026-04-14T10:15:33.859Z</time></trkpt><trkpt lat="42.5152633" lon="-7.6681683"><ele>547.0</ele><time>2026-04-14T10:15:34.859Z</time></trkpt><trkpt lat="42.5151733" lon="-7.6682517"><ele>547.0</ele><time>2026-04-14T10:15:35.859Z</time></trkpt><trkpt lat="42.5150483" lon="-7.668355"><ele>544.0</ele><time>2026-04-14T10:15:36.86Z</time></trkpt><trkpt lat="42.5149317" lon="-7.66847"><ele>541.0</ele><time>2026-04-14T10:15:37.859Z</time></trkpt><trkpt lat="42.514825" lon="-7.6686017"><ele>538.0</ele><time>2026-04-14T10:15:38.86Z</time></trkpt><trkpt lat="42.5146667" lon="-7.668765"><ele>536.6666666666667</ele><time>2026-04-14T10:15:39.859Z</time></trkpt><trkpt lat="42.5145883" lon="-7.6689167"><ele>535.3333333333334</ele><time>2026-04-14T10:15:40.86Z</time></trkpt><trkpt lat="42.51448" lon="-7.6691017"><ele>534.0</ele><time>2026-04-14T10:15:41.859Z</time></trkpt><trkpt lat="42.5143567" lon="-7.6692983"><ele>536.3333333333334</ele><time>2026-04-14T10:15:42.86Z</time></trkpt><trkpt lat="42.5142483" lon="-7.6694617"><ele>538.6666666666667</ele><time>2026-04-14T10:15:43.859Z</time></trkpt><trkpt lat="42.5141483" lon="-7.6696183"><ele>541.0</ele><time>2026-04-14T10:15:44.859Z</time></trkpt><trkpt lat="42.5140567" lon="-7.66976"><ele>541.0</ele><time>2026-04-14T10:15:45.86Z</time></trkpt><trkpt lat="42.5139983" lon="-7.669865"><ele>541.0</ele><time>2026-04-14T10:15:46.859Z</time></trkpt><trkpt lat="42.5139383" lon="-7.6699683"><ele>541.0</ele><time>2026-04-14T10:15:48.859Z</time></trkpt><trkpt lat="42.51387" lon="-7.6699167"><ele>541.0</ele><time>2026-04-14T10:15:51.859Z</time></trkpt><trkpt lat="42.5138183" lon="-7.66984"><ele>541.0</ele><time>2026-04-14T10:15:53.859Z</time></trkpt><trkpt lat="42.5137283" lon="-7.6698333"><ele>541.0</ele><time>2026-04-14T10:15:55.859Z</time></trkpt><trkpt lat="42.5136067" lon="-7.6698667"><ele>540.2</ele><time>2026-04-14T10:15:57.86Z</time></trkpt><trkpt lat="42.5135383" lon="-7.6698967"><ele>539.4000000000001</ele><time>2026-04-14T10:15:58.859Z</time></trkpt><trkpt lat="42.5134767" lon="-7.6699717"><ele>538.6</ele><time>2026-04-14T10:15:59.86Z</time></trkpt><trkpt lat="42.5134133" lon="-7.6700933"><ele>537.8000000000001</ele><time>2026-04-14T10:16:00.86Z</time></trkpt><trkpt lat="42.51336" lon="-7.67023"><ele>537.0</ele><time>2026-04-14T10:16:01.859Z</time></trkpt><trkpt lat="42.5132883" lon="-7.6704533"><ele>542.5</ele><time>2026-04-14T10:16:02.86Z</time></trkpt><trkpt lat="42.5132233" lon="-7.6707667"><ele>548.0</ele><time>2026-04-14T10:16:03.86Z</time></trkpt><trkpt lat="42.513155" lon="-7.6710433"><ele>552.3333333333333</ele><time>2026-04-14T10:16:04.86Z</time></trkpt><trkpt lat="42.513105" lon="-7.6712933"><ele>556.6666666666666</ele><time>2026-04-14T10:16:05.86Z</time></trkpt><trkpt lat="42.5130433" lon="-7.671505"><ele>561.0</ele><time>2026-04-14T10:16:06.859Z</time></trkpt><trkpt lat="42.5129767" lon="-7.67169"><ele>561.0</ele><time>2026-04-14T10:16:07.86Z</time></trkpt><trkpt lat="42.5129183" lon="-7.6718233"><ele>561.0</ele><time>2026-04-14T10:16:08.859Z</time></trkpt><trkpt lat="42.5128383" lon="-7.6718867"><ele>561.0</ele><time>2026-04-14T10:16:09.859Z</time></trkpt><trkpt lat="42.512765" lon="-7.6719217"><ele>561.0</ele><time>2026-04-14T10:16:10.86Z</time></trkpt><trkpt lat="42.5126833" lon="-7.6719217"><ele>561.0</ele><time>2026-04-14T10:16:11.86Z</time></trkpt><trkpt lat="42.512595" lon="-7.6719217"><ele>558.0</ele><time>2026-04-14T10:16:12.859Z</time></trkpt><trkpt lat="42.5125083" lon="-7.67192"><ele>555.0</ele><time>2026-04-14T10:16:13.86Z</time></trkpt><trkpt lat="42.5124367" lon="-7.67192"><ele>552.0</ele><time>2026-04-14T10:16:14.859Z</time></trkpt><trkpt lat="42.512345" lon="-7.6719283"><ele>549.0</ele><time>2026-04-14T10:16:16.859Z</time></trkpt><trkpt lat="42.51228" lon="-7.6719383"><ele>546.0</ele><time>2026-04-14T10:16:18.86Z</time></trkpt><trkpt lat="42.5121967" lon="-7.6719233"><ele>543.0</ele><time>2026-04-14T10:16:20.859Z</time></trkpt><trkpt lat="42.5121033" lon="-7.6718683"><ele>540.5</ele><time>2026-04-14T10:16:22.859Z</time></trkpt><trkpt lat="42.5120467" lon="-7.6717967"><ele>538.0</ele><time>2026-04-14T10:16:23.859Z</time></trkpt><trkpt lat="42.51198" lon="-7.6717117"><ele>535.5</ele><time>2026-04-14T10:16:24.86Z</time></trkpt><trkpt lat="42.5119267" lon="-7.6716217"><ele>533.0</ele><time>2026-04-14T10:16:25.859Z</time></trkpt><trkpt lat="42.5118867" lon="-7.6715467"><ele>530.5</ele><time>2026-04-14T10:16:26.86Z</time></trkpt><trkpt lat="42.5118517" lon="-7.6714683"><ele>528.0</ele><time>2026-04-14T10:16:27.859Z</time></trkpt><trkpt lat="42.5118133" lon="-7.6713917"><ele>528.0</ele><time>2026-04-14T10:16:28.86Z</time></trkpt><trkpt lat="42.5117883" lon="-7.6713133"><ele>528.0</ele><time>2026-04-14T10:16:29.859Z</time></trkpt><trkpt lat="42.511745" lon="-7.6711783"><ele>528.0</ele><time>2026-04-14T10:16:31.859Z</time></trkpt><trkpt lat="42.5116883" lon="-7.671065"><ele>528.0</ele><time>2026-04-14T10:16:33.86Z</time></trkpt><trkpt lat="42.5115967" lon="-7.6709367"><ele>528.0</ele><time>2026-04-14T10:16:35.86Z</time></trkpt><trkpt lat="42.5115367" lon="-7.6708617"><ele>526.3333333333334</ele><time>2026-04-14T10:16:36.859Z</time></trkpt><trkpt lat="42.5114767" lon="-7.67079"><ele>524.6666666666666</ele><time>2026-04-14T10:16:37.859Z</time></trkpt><trkpt lat="42.5113933" lon="-7.6706967"><ele>523.0</ele><time>2026-04-14T10:16:39.86Z</time></trkpt><trkpt lat="42.5113517" lon="-7.6706083"><ele>521.3333333333333</ele><time>2026-04-14T10:16:41.86Z</time></trkpt><trkpt lat="42.5112883" lon="-7.6706083"><ele>519.6666666666666</ele><time>2026-04-14T10:16:54.861Z</time></trkpt><trkpt lat="42.5111867" lon="-7.6706733"><ele>518.0</ele><time>2026-04-14T10:16:56.861Z</time></trkpt><trkpt lat="42.5111417" lon="-7.6707333"><ele>518.1999999999999</ele><time>2026-04-14T10:16:57.861Z</time></trkpt><trkpt lat="42.51111" lon="-7.67083"><ele>518.4</ele><time>2026-04-14T10:16:58.86Z</time></trkpt><trkpt lat="42.5110883" lon="-7.6709633"><ele>518.5999999999999</ele><time>2026-04-14T10:16:59.86Z</time></trkpt><trkpt lat="42.5110683" lon="-7.6711133"><ele>518.8</ele><time>2026-04-14T10:17:00.861Z</time></trkpt><trkpt lat="42.51106" lon="-7.67126"><ele>519.0</ele><time>2026-04-14T10:17:01.861Z</time></trkpt><trkpt lat="42.5110533" lon="-7.671385"><ele>519.0</ele><time>2026-04-14T10:17:02.86Z</time></trkpt><trkpt lat="42.5110567" lon="-7.6714867"><ele>519.0</ele><time>2026-04-14T10:17:03.86Z</time></trkpt><trkpt lat="42.5110467" lon="-7.671585"><ele>519.0</ele><time>2026-04-14T10:17:05.86Z</time></trkpt><trkpt lat="42.5110067" lon="-7.6716933"><ele>519.0</ele><time>2026-04-14T10:17:21.86Z</time></trkpt><trkpt lat="42.5109667" lon="-7.6718283"><ele>519.0</ele><time>2026-04-14T10:17:23.861Z</time></trkpt><trkpt lat="42.5109367" lon="-7.6719167"><ele>519.0</ele><time>2026-04-14T10:17:24.86Z</time></trkpt><trkpt lat="42.5109083" lon="-7.67202"><ele>520.0</ele><time>2026-04-14T10:17:25.86Z</time></trkpt><trkpt lat="42.5108917" lon="-7.67214"><ele>521.0</ele><time>2026-04-14T10:17:26.86Z</time></trkpt><trkpt lat="42.5108583" lon="-7.6722317"><ele>522.0</ele><time>2026-04-14T10:17:27.86Z</time></trkpt><trkpt lat="42.51081" lon="-7.6723733"><ele>523.0</ele><time>2026-04-14T10:17:29.86Z</time></trkpt><trkpt lat="42.51075" lon="-7.67243"><ele>524.0</ele><time>2026-04-14T10:17:31.861Z</time></trkpt><trkpt lat="42.510795" lon="-7.6723617"><ele>525.0</ele><time>2026-04-14T10:18:03.86Z</time></trkpt><trkpt lat="42.510825" lon="-7.67221"><ele>525.0</ele><time>2026-04-14T10:18:05.861Z</time></trkpt><trkpt lat="42.5108417" lon="-7.672125"><ele>525.0</ele><time>2026-04-14T10:18:06.861Z</time></trkpt><trkpt lat="42.5108583" lon="-7.6720183"><ele>525.0</ele><time>2026-04-14T10:18:07.861Z</time></trkpt><trkpt lat="42.5109233" lon="-7.67187"><ele>525.0</ele><time>2026-04-14T10:18:09.86Z</time></trkpt><trkpt lat="42.5109633" lon="-7.671785"><ele>525.0</ele><time>2026-04-14T10:18:11.86Z</time></trkpt><trkpt lat="42.51104" lon="-7.6718217"><ele>525.0</ele><time>2026-04-14T10:18:21.86Z</time></trkpt><trkpt lat="42.5111433" lon="-7.67198"><ele>525.0</ele><time>2026-04-14T10:18:23.86Z</time></trkpt><trkpt lat="42.5112167" lon="-7.6720967"><ele>525.0</ele><time>2026-04-14T10:18:24.86Z</time></trkpt><trkpt lat="42.5112983" lon="-7.67225"><ele>525.0</ele><time>2026-04-14T10:18:25.86Z</time></trkpt><trkpt lat="42.5113583" lon="-7.6724"><ele>525.0</ele><time>2026-04-14T10:18:26.86Z</time></trkpt><trkpt lat="42.5114" lon="-7.6725267"><ele>527.3333333333334</ele><time>2026-04-14T10:18:27.861Z</time></trkpt><trkpt lat="42.51143" lon="-7.6726167"><ele>529.6666666666666</ele><time>2026-04-14T10:18:28.86Z</time></trkpt><trkpt lat="42.5114667" lon="-7.67275"><ele>532.0</ele><time>2026-04-14T10:18:30.86Z</time></trkpt><trkpt lat="42.5114383" lon="-7.67284"><ele>534.3333333333333</ele><time>2026-04-14T10:18:58.86Z</time></trkpt><trkpt lat="42.5114483" lon="-7.6729283"><ele>536.6666666666666</ele><time>2026-04-14T10:18:59.86Z</time></trkpt><trkpt lat="42.5114733" lon="-7.6730333"><ele>539.0</ele><time>2026-04-14T10:19:00.86Z</time></trkpt><trkpt lat="42.5115183" lon="-7.673145"><ele>540.5</ele><time>2026-04-14T10:19:01.861Z</time></trkpt><trkpt lat="42.5115667" lon="-7.67324"><ele>542.0</ele><time>2026-04-14T10:19:02.861Z</time></trkpt><trkpt lat="42.51161" lon="-7.6733133"><ele>543.5</ele><time>2026-04-14T10:19:03.861Z</time></trkpt><trkpt lat="42.5116483" lon="-7.6733883"><ele>545.0</ele><time>2026-04-14T10:19:04.861Z</time></trkpt><trkpt lat="42.511705" lon="-7.6734917"><ele>546.5</ele><time>2026-04-14T10:19:06.861Z</time></trkpt><trkpt lat="42.511675" lon="-7.6733633"><ele>548.0</ele><time>2026-04-14T10:19:28.86Z</time></trkpt><trkpt lat="42.5116267" lon="-7.6732967"><ele>548.0</ele><time>2026-04-14T10:19:29.861Z</time></trkpt><trkpt lat="42.5115933" lon="-7.6732183"><ele>548.0</ele><time>2026-04-14T10:19:30.86Z</time></trkpt><trkpt lat="42.5115583" lon="-7.6731383"><ele>548.0</ele><time>2026-04-14T10:19:31.86Z</time></trkpt><trkpt lat="42.511505" lon="-7.6729867"><ele>548.0</ele><time>2026-04-14T10:19:33.86Z</time></trkpt><trkpt lat="42.5114833" lon="-7.6729017"><ele>548.0</ele><time>2026-04-14T10:19:34.86Z</time></trkpt><trkpt lat="42.51144" lon="-7.6728033"><ele>548.0</ele><time>2026-04-14T10:19:35.861Z</time></trkpt><trkpt lat="42.5114183" lon="-7.6727083"><ele>546.5</ele><time>2026-04-14T10:19:36.86Z</time></trkpt><trkpt lat="42.5113933" lon="-7.672575"><ele>545.0</ele><time>2026-04-14T10:19:37.86Z</time></trkpt><trkpt lat="42.5113533" lon="-7.6724633"><ele>543.5</ele><time>2026-04-14T10:19:38.861Z</time></trkpt><trkpt lat="42.51133" lon="-7.67237"><ele>542.0</ele><time>2026-04-14T10:19:39.86Z</time></trkpt><trkpt lat="42.511305" lon="-7.67228"><ele>540.5</ele><time>2026-04-14T10:19:40.861Z</time></trkpt><trkpt lat="42.5112667" lon="-7.6721933"><ele>539.0</ele><time>2026-04-14T10:19:41.861Z</time></trkpt><trkpt lat="42.511215" lon="-7.6721017"><ele>536.6666666666666</ele><time>2026-04-14T10:19:42.86Z</time></trkpt><trkpt lat="42.5111633" lon="-7.6720183"><ele>534.3333333333333</ele><time>2026-04-14T10:19:43.86Z</time></trkpt><trkpt lat="42.5111183" lon="-7.671925"><ele>532.0</ele><time>2026-04-14T10:19:44.86Z</time></trkpt><trkpt lat="42.511085" lon="-7.6718383"><ele>529.6666666666666</ele><time>2026-04-14T10:19:45.861Z</time></trkpt><trkpt lat="42.5110517" lon="-7.6717483"><ele>527.3333333333334</ele><time>2026-04-14T10:19:46.861Z</time></trkpt><trkpt lat="42.5110133" lon="-7.671655"><ele>525.0</ele><time>2026-04-14T10:19:47.86Z</time></trkpt><trkpt lat="42.5109783" lon="-7.6715433"><ele>523.8</ele><time>2026-04-14T10:19:48.86Z</time></trkpt><trkpt lat="42.5109583" lon="-7.6714183"><ele>522.6</ele><time>2026-04-14T10:19:49.861Z</time></trkpt><trkpt lat="42.51096" lon="-7.671285"><ele>521.4</ele><time>2026-04-14T10:19:50.86Z</time></trkpt><trkpt lat="42.5109783" lon="-7.6711517"><ele>520.2</ele><time>2026-04-14T10:19:51.86Z</time></trkpt><trkpt lat="42.5110017" lon="-7.6710233"><ele>519.0</ele><time>2026-04-14T10:19:52.86Z</time></trkpt><trkpt lat="42.5110283" lon="-7.6708983"><ele>518.8333333333334</ele><time>2026-04-14T10:19:53.86Z</time></trkpt><trkpt lat="42.5110517" lon="-7.6707783"><ele>518.6666666666666</ele><time>2026-04-14T10:19:54.861Z</time></trkpt><trkpt lat="42.5111167" lon="-7.670645"><ele>518.5</ele><time>2026-04-14T10:19:56.861Z</time></trkpt><trkpt lat="42.511185" lon="-7.670585"><ele>518.3333333333333</ele><time>2026-04-14T10:19:58.86Z</time></trkpt><trkpt lat="42.51126" lon="-7.67058"><ele>518.1666666666666</ele><time>2026-04-14T10:21:00.861Z</time></trkpt><trkpt lat="42.5111883" lon="-7.6706083"><ele>518.0</ele><time>2026-04-14T10:21:07.861Z</time></trkpt><trkpt lat="42.5111533" lon="-7.67069"><ele>518.1999999999999</ele><time>2026-04-14T10:21:09.86Z</time></trkpt><trkpt lat="42.51114" lon="-7.670805"><ele>518.4</ele><time>2026-04-14T10:21:11.86Z</time></trkpt><trkpt lat="42.5111417" lon="-7.6708933"><ele>518.5999999999999</ele><time>2026-04-14T10:21:12.861Z</time></trkpt><trkpt lat="42.5111217" lon="-7.6710517"><ele>518.8</ele><time>2026-04-14T10:21:14.86Z</time></trkpt><trkpt lat="42.5111067" lon="-7.6712033"><ele>519.0</ele><time>2026-04-14T10:21:16.861Z</time></trkpt><trkpt lat="42.5110883" lon="-7.6713633"><ele>519.0</ele><time>2026-04-14T10:21:18.86Z</time></trkpt><trkpt lat="42.5110717" lon="-7.6714683"><ele>519.0</ele><time>2026-04-14T10:21:20.861Z</time></trkpt><trkpt lat="42.511075" lon="-7.67156"><ele>519.0</ele><time>2026-04-14T10:21:25.861Z</time></trkpt><trkpt lat="42.5111083" lon="-7.6716917"><ele>519.0</ele><time>2026-04-14T10:21:27.86Z</time></trkpt><trkpt lat="42.5111417" lon="-7.6717667"><ele>519.0</ele><time>2026-04-14T10:21:28.861Z</time></trkpt><trkpt lat="42.511195" lon="-7.67185"><ele>519.0</ele><time>2026-04-14T10:21:29.86Z</time></trkpt><trkpt lat="42.5112533" lon="-7.671955"><ele>523.0</ele><time>2026-04-14T10:21:30.86Z</time></trkpt><trkpt lat="42.511305" lon="-7.6720667"><ele>527.0</ele><time>2026-04-14T10:21:31.86Z</time></trkpt><trkpt lat="42.5113483" lon="-7.6721933"><ele>531.0</ele><time>2026-04-14T10:21:32.86Z</time></trkpt><trkpt lat="42.5113817" lon="-7.67232"><ele>535.0</ele><time>2026-04-14T10:21:33.861Z</time></trkpt><trkpt lat="42.5114117" lon="-7.6724317"><ele>539.0</ele><time>2026-04-14T10:21:34.861Z</time></trkpt><trkpt lat="42.5114367" lon="-7.6725267"><ele>539.0</ele><time>2026-04-14T10:21:35.86Z</time></trkpt><trkpt lat="42.5114567" lon="-7.6726083"><ele>539.0</ele><time>2026-04-14T10:21:36.861Z</time></trkpt><trkpt lat="42.511475" lon="-7.672725"><ele>539.0</ele><time>2026-04-14T10:21:38.86Z</time></trkpt><trkpt lat="42.51142" lon="-7.6728267"><ele>539.0</ele><time>2026-04-14T10:22:37.861Z</time></trkpt><trkpt lat="42.5113833" lon="-7.6729"><ele>539.0</ele><time>2026-04-14T10:22:38.861Z</time></trkpt><trkpt lat="42.5113483" lon="-7.672985"><ele>539.0</ele><time>2026-04-14T10:22:39.861Z</time></trkpt><trkpt lat="42.5113033" lon="-7.6730983"><ele>539.0</ele><time>2026-04-14T10:22:41.862Z</time></trkpt><trkpt lat="42.5113583" lon="-7.672995"><ele>539.0</ele><time>2026-04-14T10:22:56.862Z</time></trkpt><trkpt lat="42.5114117" lon="-7.6729433"><ele>539.0</ele><time>2026-04-14T10:23:09.862Z</time></trkpt><trkpt lat="42.5114317" lon="-7.6728467"><ele>539.0</ele><time>2026-04-14T10:23:12.861Z</time></trkpt><trkpt lat="42.5114233" lon="-7.67273"><ele>539.0</ele><time>2026-04-14T10:23:14.861Z</time></trkpt><trkpt lat="42.5114067" lon="-7.6726267"><ele>539.0</ele><time>2026-04-14T10:23:15.861Z</time></trkpt><trkpt lat="42.5113667" lon="-7.6724867"><ele>539.0</ele><time>2026-04-14T10:23:16.861Z</time></trkpt><trkpt lat="42.51134" lon="-7.6723283"><ele>539.0</ele><time>2026-04-14T10:23:17.861Z</time></trkpt><trkpt lat="42.5113017" lon="-7.6721983"><ele>539.0</ele><time>2026-04-14T10:23:18.861Z</time></trkpt><trkpt lat="42.511255" lon="-7.67208"><ele>539.0</ele><time>2026-04-14T10:23:19.861Z</time></trkpt><trkpt lat="42.51119" lon="-7.6719867"><ele>539.0</ele><time>2026-04-14T10:23:20.862Z</time></trkpt><trkpt lat="42.5111333" lon="-7.6719033"><ele>535.6666666666666</ele><time>2026-04-14T10:23:21.862Z</time></trkpt><trkpt lat="42.5110917" lon="-7.6718317"><ele>532.3333333333333</ele><time>2026-04-14T10:23:22.861Z</time></trkpt><trkpt lat="42.5110583" lon="-7.6717583"><ele>529.0</ele><time>2026-04-14T10:23:23.862Z</time></trkpt><trkpt lat="42.5110067" lon="-7.6716083"><ele>525.6666666666666</ele><time>2026-04-14T10:23:25.862Z</time></trkpt><trkpt lat="42.51099" lon="-7.6715117"><ele>522.3333333333334</ele><time>2026-04-14T10:23:26.861Z</time></trkpt><trkpt lat="42.51098" lon="-7.6714067"><ele>519.0</ele><time>2026-04-14T10:23:27.862Z</time></trkpt><trkpt lat="42.5109767" lon="-7.6712733"><ele>519.0</ele><time>2026-04-14T10:23:28.861Z</time></trkpt><trkpt lat="42.5109833" lon="-7.67112"><ele>519.0</ele><time>2026-04-14T10:23:29.862Z</time></trkpt><trkpt lat="42.510995" lon="-7.6709633"><ele>519.0</ele><time>2026-04-14T10:23:30.862Z</time></trkpt><trkpt lat="42.5110183" lon="-7.67083"><ele>519.0</ele><time>2026-04-14T10:23:31.862Z</time></trkpt><trkpt lat="42.5110383" lon="-7.6707217"><ele>519.0</ele><time>2026-04-14T10:23:32.861Z</time></trkpt><trkpt lat="42.5110667" lon="-7.6706333"><ele>518.8333333333334</ele><time>2026-04-14T10:23:33.862Z</time></trkpt><trkpt lat="42.5111367" lon="-7.6705383"><ele>518.6666666666666</ele><time>2026-04-14T10:23:35.862Z</time></trkpt><trkpt lat="42.5112383" lon="-7.670555"><ele>518.5</ele><time>2026-04-14T10:23:37.862Z</time></trkpt><trkpt lat="42.5113133" lon="-7.6706217"><ele>518.3333333333333</ele><time>2026-04-14T10:23:39.862Z</time></trkpt><trkpt lat="42.5113733" lon="-7.670675"><ele>518.1666666666666</ele><time>2026-04-14T10:23:41.861Z</time></trkpt><trkpt lat="42.51142" lon="-7.670765"><ele>518.0</ele><time>2026-04-14T10:23:44.862Z</time></trkpt><trkpt lat="42.5114567" lon="-7.6708383"><ele>518.0</ele><time>2026-04-14T10:23:46.861Z</time></trkpt><trkpt lat="42.5115117" lon="-7.6709383"><ele>518.0</ele><time>2026-04-14T10:23:48.861Z</time></trkpt><trkpt lat="42.5115467" lon="-7.6710183"><ele>518.0</ele><time>2026-04-14T10:23:50.861Z</time></trkpt><trkpt lat="42.511605" lon="-7.6710833"><ele>518.0</ele><time>2026-04-14T10:24:00.861Z</time></trkpt><trkpt lat="42.5116533" lon="-7.6711567"><ele>518.0</ele><time>2026-04-14T10:24:02.861Z</time></trkpt><trkpt lat="42.5117017" lon="-7.6712883"><ele>518.0</ele><time>2026-04-14T10:24:04.862Z</time></trkpt><trkpt lat="42.51173" lon="-7.6713733"><ele>519.6666666666666</ele><time>2026-04-14T10:24:05.861Z</time></trkpt><trkpt lat="42.511765" lon="-7.6714617"><ele>521.3333333333333</ele><time>2026-04-14T10:24:06.862Z</time></trkpt><trkpt lat="42.5118067" lon="-7.67154"><ele>523.0</ele><time>2026-04-14T10:24:07.861Z</time></trkpt><trkpt lat="42.511845" lon="-7.6716217"><ele>524.6666666666666</ele><time>2026-04-14T10:24:08.861Z</time></trkpt><trkpt lat="42.5119217" lon="-7.6717517"><ele>526.3333333333334</ele><time>2026-04-14T10:24:10.861Z</time></trkpt><trkpt lat="42.511995" lon="-7.6718333"><ele>528.0</ele><time>2026-04-14T10:24:12.862Z</time></trkpt><trkpt lat="42.5119683" lon="-7.671755"><ele>528.0</ele><time>2026-04-14T10:24:24.861Z</time></trkpt><trkpt lat="42.5119083" lon="-7.671645"><ele>528.0</ele><time>2026-04-14T10:24:29.862Z</time></trkpt><trkpt lat="42.5118717" lon="-7.6715367"><ele>528.0</ele><time>2026-04-14T10:24:31.862Z</time></trkpt><trkpt lat="42.5118483" lon="-7.6714567"><ele>528.0</ele><time>2026-04-14T10:24:32.861Z</time></trkpt><trkpt lat="42.511825" lon="-7.67136"><ele>528.0</ele><time>2026-04-14T10:24:33.862Z</time></trkpt><trkpt lat="42.5117983" lon="-7.6712683"><ele>528.0</ele><time>2026-04-14T10:24:34.862Z</time></trkpt><trkpt lat="42.5117633" lon="-7.6711767"><ele>526.3333333333334</ele><time>2026-04-14T10:24:35.862Z</time></trkpt><trkpt lat="42.5117267" lon="-7.671085"><ele>524.6666666666666</ele><time>2026-04-14T10:24:36.861Z</time></trkpt><trkpt lat="42.5116867" lon="-7.6710033"><ele>523.0</ele><time>2026-04-14T10:24:37.862Z</time></trkpt><trkpt lat="42.5116417" lon="-7.67092"><ele>521.3333333333333</ele><time>2026-04-14T10:24:38.862Z</time></trkpt><trkpt lat="42.5115767" lon="-7.6708433"><ele>519.6666666666666</ele><time>2026-04-14T10:24:39.861Z</time></trkpt><trkpt lat="42.5115183" lon="-7.67078"><ele>518.0</ele><time>2026-04-14T10:24:40.861Z</time></trkpt><trkpt lat="42.5114533" lon="-7.670715"><ele>518.0</ele><time>2026-04-14T10:24:41.861Z</time></trkpt><trkpt lat="42.511385" lon="-7.6706533"><ele>518.0</ele><time>2026-04-14T10:24:42.862Z</time></trkpt><trkpt lat="42.5113467" lon="-7.67057"><ele>518.0</ele><time>2026-04-14T10:24:44.861Z</time></trkpt><trkpt lat="42.51126" lon="-7.670645"><ele>518.0</ele><time>2026-04-14T10:24:57.861Z</time></trkpt><trkpt lat="42.5111733" lon="-7.6707267"><ele>518.0</ele><time>2026-04-14T10:24:59.861Z</time></trkpt><trkpt lat="42.5111533" lon="-7.6708133"><ele>518.0</ele><time>2026-04-14T10:25:00.861Z</time></trkpt><trkpt lat="42.51114" lon="-7.6709167"><ele>518.1666666666666</ele><time>2026-04-14T10:25:01.862Z</time></trkpt><trkpt lat="42.5111167" lon="-7.6710233"><ele>518.3333333333333</ele><time>2026-04-14T10:25:02.861Z</time></trkpt><trkpt lat="42.5110967" lon="-7.6711333"><ele>518.5</ele><time>2026-04-14T10:25:03.861Z</time></trkpt><trkpt lat="42.51109" lon="-7.6712467"><ele>518.6666666666666</ele><time>2026-04-14T10:25:04.861Z</time></trkpt><trkpt lat="42.511085" lon="-7.6713483"><ele>518.8333333333334</ele><time>2026-04-14T10:25:05.861Z</time></trkpt><trkpt lat="42.5110867" lon="-7.6715067"><ele>519.0</ele><time>2026-04-14T10:25:07.861Z</time></trkpt><trkpt lat="42.5110783" lon="-7.6716283"><ele>519.0</ele><time>2026-04-14T10:25:12.861Z</time></trkpt><trkpt lat="42.5111233" lon="-7.6717533"><ele>519.0</ele><time>2026-04-14T10:25:15.862Z</time></trkpt><trkpt lat="42.5111667" lon="-7.6718283"><ele>519.0</ele><time>2026-04-14T10:25:16.862Z</time></trkpt><trkpt lat="42.5112167" lon="-7.6719267"><ele>519.0</ele><time>2026-04-14T10:25:17.861Z</time></trkpt><trkpt lat="42.5112617" lon="-7.6720317"><ele>519.0</ele><time>2026-04-14T10:25:18.862Z</time></trkpt><trkpt lat="42.5113117" lon="-7.6721733"><ele>523.0</ele><time>2026-04-14T10:25:19.862Z</time></trkpt><trkpt lat="42.5113567" lon="-7.6723233"><ele>527.0</ele><time>2026-04-14T10:25:20.861Z</time></trkpt><trkpt lat="42.5113967" lon="-7.672465"><ele>531.0</ele><time>2026-04-14T10:25:21.861Z</time></trkpt><trkpt lat="42.5114317" lon="-7.6725867"><ele>535.0</ele><time>2026-04-14T10:25:22.861Z</time></trkpt><trkpt lat="42.5114533" lon="-7.6726833"><ele>539.0</ele><time>2026-04-14T10:25:23.862Z</time></trkpt><trkpt lat="42.5114633" lon="-7.6728083"><ele>540.5</ele><time>2026-04-14T10:25:25.861Z</time></trkpt><trkpt lat="42.5114733" lon="-7.672965"><ele>542.0</ele><time>2026-04-14T10:25:27.862Z</time></trkpt><trkpt lat="42.5114917" lon="-7.6730633"><ele>543.5</ele><time>2026-04-14T10:25:28.861Z</time></trkpt><trkpt lat="42.5115217" lon="-7.6731517"><ele>545.0</ele><time>2026-04-14T10:25:29.861Z</time></trkpt><trkpt lat="42.51156" lon="-7.6732267"><ele>546.5</ele><time>2026-04-14T10:25:30.861Z</time></trkpt><trkpt lat="42.511605" lon="-7.6733017"><ele>548.0</ele><time>2026-04-14T10:25:31.861Z</time></trkpt><trkpt lat="42.51166" lon="-7.6733883"><ele>548.0</ele><time>2026-04-14T10:25:32.862Z</time></trkpt><trkpt lat="42.5117183" lon="-7.6734883"><ele>548.0</ele><time>2026-04-14T10:25:33.861Z</time></trkpt><trkpt lat="42.51178" lon="-7.6736083"><ele>548.0</ele><time>2026-04-14T10:25:34.862Z</time></trkpt><trkpt lat="42.5118383" lon="-7.6737267"><ele>548.0</ele><time>2026-04-14T10:25:35.862Z</time></trkpt><trkpt lat="42.511895" lon="-7.6738283"><ele>548.0</ele><time>2026-04-14T10:25:36.861Z</time></trkpt><trkpt lat="42.5119433" lon="-7.6739067"><ele>549.6666666666666</ele><time>2026-04-14T10:25:37.862Z</time></trkpt><trkpt lat="42.5120183" lon="-7.6739983"><ele>551.3333333333333</ele><time>2026-04-14T10:25:39.862Z</time></trkpt><trkpt lat="42.5120883" lon="-7.673995"><ele>553.0</ele><time>2026-04-14T10:26:50.861Z</time></trkpt><trkpt lat="42.5120183" lon="-7.673915"><ele>554.6666666666666</ele><time>2026-04-14T10:26:54.862Z</time></trkpt><trkpt lat="42.5119867" lon="-7.6738167"><ele>556.3333333333334</ele><time>2026-04-14T10:26:56.861Z</time></trkpt><trkpt lat="42.511935" lon="-7.673695"><ele>558.0</ele><time>2026-04-14T10:26:58.862Z</time></trkpt><trkpt lat="42.5119" lon="-7.6736183"><ele>556.3333333333334</ele><time>2026-04-14T10:26:59.861Z</time></trkpt><trkpt lat="42.5118383" lon="-7.673535"><ele>554.6666666666666</ele><time>2026-04-14T10:27:00.862Z</time></trkpt><trkpt lat="42.51179" lon="-7.673455"><ele>553.0</ele><time>2026-04-14T10:27:01.861Z</time></trkpt><trkpt lat="42.5117167" lon="-7.6733767"><ele>551.3333333333333</ele><time>2026-04-14T10:27:02.862Z</time></trkpt><trkpt lat="42.5116533" lon="-7.67329"><ele>549.6666666666666</ele><time>2026-04-14T10:27:03.861Z</time></trkpt><trkpt lat="42.5116017" lon="-7.67321"><ele>548.0</ele><time>2026-04-14T10:27:04.862Z</time></trkpt><trkpt lat="42.5115433" lon="-7.6731267"><ele>548.0</ele><time>2026-04-14T10:27:05.862Z</time></trkpt><trkpt lat="42.5114733" lon="-7.6729617"><ele>548.0</ele><time>2026-04-14T10:27:07.862Z</time></trkpt><trkpt lat="42.51145" lon="-7.6728717"><ele>548.0</ele><time>2026-04-14T10:27:08.861Z</time></trkpt><trkpt lat="42.51142" lon="-7.672745"><ele>548.0</ele><time>2026-04-14T10:27:10.861Z</time></trkpt><trkpt lat="42.5113783" lon="-7.6725583"><ele>546.1999999999999</ele><time>2026-04-14T10:27:12.862Z</time></trkpt><trkpt lat="42.511345" lon="-7.6724167"><ele>544.4</ele><time>2026-04-14T10:27:13.862Z</time></trkpt><trkpt lat="42.5113067" lon="-7.6722733"><ele>542.5999999999999</ele><time>2026-04-14T10:27:14.861Z</time></trkpt><trkpt lat="42.5112633" lon="-7.6721467"><ele>540.8</ele><time>2026-04-14T10:27:15.862Z</time></trkpt><trkpt lat="42.51121" lon="-7.672035"><ele>539.0</ele><time>2026-04-14T10:27:16.861Z</time></trkpt><trkpt lat="42.5111583" lon="-7.6719417"><ele>535.6666666666666</ele><time>2026-04-14T10:27:17.861Z</time></trkpt><trkpt lat="42.51111" lon="-7.6718567"><ele>532.3333333333333</ele><time>2026-04-14T10:27:18.861Z</time></trkpt><trkpt lat="42.5110717" lon="-7.671775"><ele>529.0</ele><time>2026-04-14T10:27:19.862Z</time></trkpt><trkpt lat="42.5110467" lon="-7.6716867"><ele>525.6666666666666</ele><time>2026-04-14T10:27:21.862Z</time></trkpt><trkpt lat="42.51105" lon="-7.6715967"><ele>522.3333333333334</ele><time>2026-04-14T10:27:28.862Z</time></trkpt><trkpt lat="42.5110467" lon="-7.67141"><ele>519.0</ele><time>2026-04-14T10:27:30.862Z</time></trkpt><trkpt lat="42.5110433" lon="-7.6712633"><ele>519.0</ele><time>2026-04-14T10:27:31.862Z</time></trkpt><trkpt lat="42.51105" lon="-7.67112"><ele>519.0</ele><time>2026-04-14T10:27:32.862Z</time></trkpt><trkpt lat="42.5110667" lon="-7.6710033"><ele>519.0</ele><time>2026-04-14T10:27:33.861Z</time></trkpt><trkpt lat="42.5110633" lon="-7.670885"><ele>519.0</ele><time>2026-04-14T10:27:34.861Z</time></trkpt><trkpt lat="42.5110767" lon="-7.6707917"><ele>519.0</ele><time>2026-04-14T10:27:35.861Z</time></trkpt><trkpt lat="42.51111" lon="-7.6706967"><ele>519.0</ele><time>2026-04-14T10:27:37.861Z</time></trkpt><trkpt lat="42.511165" lon="-7.6706467"><ele>518.8333333333334</ele><time>2026-04-14T10:27:40.862Z</time></trkpt><trkpt lat="42.51124" lon="-7.6706267"><ele>518.6666666666666</ele><time>2026-04-14T10:28:26.861Z</time></trkpt><trkpt lat="42.5113183" lon="-7.6706733"><ele>518.5</ele><time>2026-04-14T10:28:29.861Z</time></trkpt><trkpt lat="42.5113833" lon="-7.67075"><ele>518.3333333333333</ele><time>2026-04-14T10:28:31.862Z</time></trkpt><trkpt lat="42.51146" lon="-7.6708233"><ele>518.1666666666666</ele><time>2026-04-14T10:28:33.863Z</time></trkpt><trkpt lat="42.51152" lon="-7.6709233"><ele>518.0</ele><time>2026-04-14T10:28:40.862Z</time></trkpt><trkpt lat="42.5115817" lon="-7.6710583"><ele>520.0</ele><time>2026-04-14T10:28:42.862Z</time></trkpt><trkpt lat="42.5116267" lon="-7.6711683"><ele>522.0</ele><time>2026-04-14T10:28:43.862Z</time></trkpt><trkpt lat="42.5116733" lon="-7.671285"><ele>524.0</ele><time>2026-04-14T10:28:44.862Z</time></trkpt><trkpt lat="42.5117033" lon="-7.671395"><ele>526.0</ele><time>2026-04-14T10:28:45.862Z</time></trkpt><trkpt lat="42.5117333" lon="-7.671495"><ele>528.0</ele><time>2026-04-14T10:28:46.863Z</time></trkpt><trkpt lat="42.5117867" lon="-7.671625"><ele>528.0</ele><time>2026-04-14T10:28:48.862Z</time></trkpt><trkpt lat="42.51186" lon="-7.671755"><ele>528.0</ele><time>2026-04-14T10:28:50.862Z</time></trkpt><trkpt lat="42.5119" lon="-7.6718217"><ele>528.0</ele><time>2026-04-14T10:28:51.862Z</time></trkpt><trkpt lat="42.511945" lon="-7.6718833"><ele>528.0</ele><time>2026-04-14T10:28:52.862Z</time></trkpt><trkpt lat="42.512055" lon="-7.671965"><ele>528.0</ele><time>2026-04-14T10:28:54.862Z</time></trkpt><trkpt lat="42.51212" lon="-7.6719883"><ele>528.0</ele><time>2026-04-14T10:28:55.863Z</time></trkpt><trkpt lat="42.5121833" lon="-7.6719867"><ele>530.5</ele><time>2026-04-14T10:28:56.862Z</time></trkpt><trkpt lat="42.51225" lon="-7.6719767"><ele>533.0</ele><time>2026-04-14T10:28:57.863Z</time></trkpt><trkpt lat="42.5123233" lon="-7.6719733"><ele>535.5</ele><time>2026-04-14T10:28:58.863Z</time></trkpt><trkpt lat="42.512395" lon="-7.6719633"><ele>538.0</ele><time>2026-04-14T10:28:59.862Z</time></trkpt><trkpt lat="42.5124817" lon="-7.67195"><ele>540.5</ele><time>2026-04-14T10:29:00.863Z</time></trkpt><trkpt lat="42.5125567" lon="-7.6719333"><ele>543.0</ele><time>2026-04-14T10:29:01.863Z</time></trkpt><trkpt lat="42.512655" lon="-7.6719133"><ele>543.0</ele><time>2026-04-14T10:29:02.863Z</time></trkpt><trkpt lat="42.51276" lon="-7.6718683"><ele>543.0</ele><time>2026-04-14T10:29:03.863Z</time></trkpt><trkpt lat="42.5128533" lon="-7.6718033"><ele>543.0</ele><time>2026-04-14T10:29:04.862Z</time></trkpt><trkpt lat="42.5129417" lon="-7.671705"><ele>543.0</ele><time>2026-04-14T10:29:05.862Z</time></trkpt><trkpt lat="42.5130133" lon="-7.671565"><ele>544.6666666666666</ele><time>2026-04-14T10:29:06.863Z</time></trkpt><trkpt lat="42.513075" lon="-7.6713783"><ele>546.3333333333333</ele><time>2026-04-14T10:29:07.863Z</time></trkpt><trkpt lat="42.5131117" lon="-7.6711567"><ele>548.0</ele><time>2026-04-14T10:29:08.863Z</time></trkpt><trkpt lat="42.5131533" lon="-7.670955"><ele>548.0</ele><time>2026-04-14T10:29:09.862Z</time></trkpt><trkpt lat="42.5131967" lon="-7.670765"><ele>548.0</ele><time>2026-04-14T10:29:10.862Z</time></trkpt><trkpt lat="42.51323" lon="-7.670565"><ele>548.0</ele><time>2026-04-14T10:29:11.862Z</time></trkpt><trkpt lat="42.5132667" lon="-7.6703683"><ele>548.0</ele><time>2026-04-14T10:29:12.863Z</time></trkpt><trkpt lat="42.5133" lon="-7.6701767"><ele>545.8</ele><time>2026-04-14T10:29:13.863Z</time></trkpt><trkpt lat="42.5133267" lon="-7.6700217"><ele>543.5999999999999</ele><time>2026-04-14T10:29:14.863Z</time></trkpt><trkpt lat="42.5133433" lon="-7.6699033"><ele>541.4000000000001</ele><time>2026-04-14T10:29:15.862Z</time></trkpt><trkpt lat="42.5133717" lon="-7.6698017"><ele>539.2</ele><time>2026-04-14T10:29:16.863Z</time></trkpt><trkpt lat="42.513405" lon="-7.6696833"><ele>537.0</ele><time>2026-04-14T10:29:18.862Z</time></trkpt><trkpt lat="42.5134983" lon="-7.6696367"><ele>537.0</ele><time>2026-04-14T10:29:20.862Z</time></trkpt><trkpt lat="42.5135667" lon="-7.669635"><ele>537.0</ele><time>2026-04-14T10:29:21.863Z</time></trkpt><trkpt lat="42.5136467" lon="-7.6696683"><ele>537.0</ele><time>2026-04-14T10:29:22.862Z</time></trkpt><trkpt lat="42.5137233" lon="-7.6697283"><ele>537.0</ele><time>2026-04-14T10:29:23.863Z</time></trkpt><trkpt lat="42.5137933" lon="-7.6698033"><ele>537.0</ele><time>2026-04-14T10:29:24.862Z</time></trkpt><trkpt lat="42.5138483" lon="-7.6698683"><ele>537.0</ele><time>2026-04-14T10:29:25.863Z</time></trkpt><trkpt lat="42.5139283" lon="-7.6699383"><ele>537.0</ele><time>2026-04-14T10:29:27.863Z</time></trkpt><trkpt lat="42.5140133" lon="-7.6698133"><ele>537.0</ele><time>2026-04-14T10:30:03.862Z</time></trkpt><trkpt lat="42.5138767" lon="-7.6697983"><ele>537.0</ele><time>2026-04-14T10:30:12.863Z</time></trkpt><trkpt lat="42.5137267" lon="-7.66972"><ele>537.0</ele><time>2026-04-14T10:30:14.862Z</time></trkpt><trkpt lat="42.51364" lon="-7.6697067"><ele>536.9999999999999</ele><time>2026-04-14T10:30:15.863Z</time></trkpt><trkpt lat="42.5135683" lon="-7.6697167"><ele>537.0</ele><time>2026-04-14T10:30:16.862Z</time></trkpt><trkpt lat="42.5135017" lon="-7.6697433"><ele>537.0</ele><time>2026-04-14T10:30:17.862Z</time></trkpt><trkpt lat="42.5134433" lon="-7.6697883"><ele>537.0</ele><time>2026-04-14T10:30:18.862Z</time></trkpt><trkpt lat="42.5134" lon="-7.669855"><ele>537.0</ele><time>2026-04-14T10:30:19.862Z</time></trkpt><trkpt lat="42.5133633" lon="-7.66995"><ele>536.9999999999999</ele><time>2026-04-14T10:30:20.863Z</time></trkpt><trkpt lat="42.51334" lon="-7.6700617"><ele>537.0</ele><time>2026-04-14T10:30:21.862Z</time></trkpt><trkpt lat="42.5133217" lon="-7.6701917"><ele>539.75</ele><time>2026-04-14T10:30:22.862Z</time></trkpt><trkpt lat="42.5132833" lon="-7.6703083"><ele>542.5</ele><time>2026-04-14T10:30:23.863Z</time></trkpt><trkpt lat="42.5132483" lon="-7.6704417"><ele>545.25</ele><time>2026-04-14T10:30:24.862Z</time></trkpt><trkpt lat="42.5132133" lon="-7.6706283"><ele>548.0</ele><time>2026-04-14T10:30:25.862Z</time></trkpt><trkpt lat="42.5131867" lon="-7.6707767"><ele>548.0</ele><time>2026-04-14T10:30:26.863Z</time></trkpt><trkpt lat="42.51316" lon="-7.6709117"><ele>548.0</ele><time>2026-04-14T10:30:27.863Z</time></trkpt><trkpt lat="42.5131333" lon="-7.67105"><ele>548.0</ele><time>2026-04-14T10:30:28.862Z</time></trkpt><trkpt lat="42.5131033" lon="-7.6712017"><ele>548.0</ele><time>2026-04-14T10:30:29.863Z</time></trkpt><trkpt lat="42.5130667" lon="-7.6713483"><ele>548.0</ele><time>2026-04-14T10:30:30.863Z</time></trkpt><trkpt lat="42.5130233" lon="-7.6714817"><ele>547.0</ele><time>2026-04-14T10:30:31.862Z</time></trkpt><trkpt lat="42.512975" lon="-7.671605"><ele>546.0</ele><time>2026-04-14T10:30:32.863Z</time></trkpt><trkpt lat="42.5129117" lon="-7.6717217"><ele>545.0</ele><time>2026-04-14T10:30:33.862Z</time></trkpt><trkpt lat="42.5128433" lon="-7.671805"><ele>544.0</ele><time>2026-04-14T10:30:34.862Z</time></trkpt><trkpt lat="42.5127733" lon="-7.6718517"><ele>543.0</ele><time>2026-04-14T10:30:35.862Z</time></trkpt><trkpt lat="42.5126933" lon="-7.6718733"><ele>543.0</ele><time>2026-04-14T10:30:36.863Z</time></trkpt><trkpt lat="42.512605" lon="-7.671875"><ele>543.0</ele><time>2026-04-14T10:30:37.862Z</time></trkpt><trkpt lat="42.51252" lon="-7.6718783"><ele>543.0</ele><time>2026-04-14T10:30:38.862Z</time></trkpt><trkpt lat="42.5124417" lon="-7.6718767"><ele>543.0</ele><time>2026-04-14T10:30:39.863Z</time></trkpt><trkpt lat="42.5123783" lon="-7.67188"><ele>543.0</ele><time>2026-04-14T10:30:40.862Z</time></trkpt><trkpt lat="42.512275" lon="-7.67189"><ele>543.0</ele><time>2026-04-14T10:30:42.862Z</time></trkpt><trkpt lat="42.5121767" lon="-7.67188"><ele>543.0</ele><time>2026-04-14T10:30:44.863Z</time></trkpt><trkpt lat="42.5120933" lon="-7.6718417"><ele>543.0</ele><time>2026-04-14T10:30:46.862Z</time></trkpt><trkpt lat="42.5120067" lon="-7.6717433"><ele>543.0</ele><time>2026-04-14T10:30:48.862Z</time></trkpt><trkpt lat="42.5119533" lon="-7.6716733"><ele>543.0</ele><time>2026-04-14T10:30:49.863Z</time></trkpt><trkpt lat="42.5119133" lon="-7.67159"><ele>543.0</ele><time>2026-04-14T10:30:50.863Z</time></trkpt><trkpt lat="42.51187" lon="-7.671515"><ele>543.0</ele><time>2026-04-14T10:30:51.862Z</time></trkpt><trkpt lat="42.5118333" lon="-7.6714417"><ele>540.0</ele><time>2026-04-14T10:30:52.862Z</time></trkpt><trkpt lat="42.5117767" lon="-7.6713017"><ele>537.0</ele><time>2026-04-14T10:30:54.862Z</time></trkpt><trkpt lat="42.51173" lon="-7.67117"><ele>534.0</ele><time>2026-04-14T10:30:56.862Z</time></trkpt><trkpt lat="42.5116633" lon="-7.67104"><ele>531.0</ele><time>2026-04-14T10:30:58.862Z</time></trkpt><trkpt lat="42.5116217" lon="-7.670965"><ele>528.0</ele><time>2026-04-14T10:30:59.863Z</time></trkpt><trkpt lat="42.511575" lon="-7.6708967"><ele>526.3333333333334</ele><time>2026-04-14T10:31:00.862Z</time></trkpt><trkpt lat="42.5115283" lon="-7.670825"><ele>524.6666666666666</ele><time>2026-04-14T10:31:01.862Z</time></trkpt><trkpt lat="42.51144" lon="-7.6707283"><ele>523.0</ele><time>2026-04-14T10:31:03.863Z</time></trkpt><trkpt lat="42.5113783" lon="-7.6706567"><ele>521.3333333333333</ele><time>2026-04-14T10:31:05.862Z</time></trkpt><trkpt lat="42.51135" lon="-7.6705683"><ele>519.6666666666666</ele><time>2026-04-14T10:31:34.863Z</time></trkpt><trkpt lat="42.5114167" lon="-7.6706567"><ele>518.0</ele><time>2026-04-14T10:32:26.863Z</time></trkpt><trkpt lat="42.511465" lon="-7.6707817"><ele>518.0</ele><time>2026-04-14T10:32:28.862Z</time></trkpt><trkpt lat="42.51151" lon="-7.6708833"><ele>518.0</ele><time>2026-04-14T10:32:30.863Z</time></trkpt><trkpt lat="42.511575" lon="-7.6710167"><ele>518.0</ele><time>2026-04-14T10:32:32.862Z</time></trkpt><trkpt lat="42.5116167" lon="-7.6711067"><ele>518.0</ele><time>2026-04-14T10:32:33.862Z</time></trkpt><trkpt lat="42.511655" lon="-7.6712183"><ele>518.0</ele><time>2026-04-14T10:32:34.862Z</time></trkpt><trkpt lat="42.5116967" lon="-7.671335"><ele>519.6666666666666</ele><time>2026-04-14T10:32:35.862Z</time></trkpt><trkpt lat="42.5117417" lon="-7.6714467"><ele>521.3333333333333</ele><time>2026-04-14T10:32:36.862Z</time></trkpt><trkpt lat="42.5117783" lon="-7.6715333"><ele>523.0</ele><time>2026-04-14T10:32:37.862Z</time></trkpt><trkpt lat="42.5118217" lon="-7.671605"><ele>524.6666666666666</ele><time>2026-04-14T10:32:38.862Z</time></trkpt><trkpt lat="42.51187" lon="-7.67169"><ele>526.3333333333334</ele><time>2026-04-14T10:32:40.862Z</time></trkpt><trkpt lat="42.5119383" lon="-7.67179"><ele>528.0</ele><time>2026-04-14T10:32:43.862Z</time></trkpt><trkpt lat="42.5120167" lon="-7.671865"><ele>530.5</ele><time>2026-04-14T10:32:45.862Z</time></trkpt><trkpt lat="42.5121183" lon="-7.671905"><ele>533.0</ele><time>2026-04-14T10:32:47.862Z</time></trkpt><trkpt lat="42.5121817" lon="-7.67191"><ele>535.5</ele><time>2026-04-14T10:32:48.862Z</time></trkpt><trkpt lat="42.5122617" lon="-7.6719183"><ele>538.0</ele><time>2026-04-14T10:32:49.863Z</time></trkpt><trkpt lat="42.5123517" lon="-7.671915"><ele>540.5</ele><time>2026-04-14T10:32:50.862Z</time></trkpt><trkpt lat="42.512455" lon="-7.671915"><ele>543.0</ele><time>2026-04-14T10:32:51.862Z</time></trkpt><trkpt lat="42.51257" lon="-7.6719133"><ele>543.0</ele><time>2026-04-14T10:32:52.863Z</time></trkpt><trkpt lat="42.5126733" lon="-7.67189"><ele>543.0</ele><time>2026-04-14T10:32:53.862Z</time></trkpt><trkpt lat="42.512785" lon="-7.6718333"><ele>543.0</ele><time>2026-04-14T10:32:54.863Z</time></trkpt><trkpt lat="42.5128667" lon="-7.6717483"><ele>543.0</ele><time>2026-04-14T10:32:55.863Z</time></trkpt><trkpt lat="42.512935" lon="-7.6716333"><ele>543.0</ele><time>2026-04-14T10:32:56.862Z</time></trkpt><trkpt lat="42.512995" lon="-7.671455"><ele>544.6666666666666</ele><time>2026-04-14T10:32:57.862Z</time></trkpt><trkpt lat="42.5130533" lon="-7.671255"><ele>546.3333333333333</ele><time>2026-04-14T10:32:58.863Z</time></trkpt><trkpt lat="42.5131017" lon="-7.6710517"><ele>548.0</ele><time>2026-04-14T10:32:59.862Z</time></trkpt><trkpt lat="42.513145" lon="-7.6708467"><ele>548.0</ele><time>2026-04-14T10:33:00.863Z</time></trkpt><trkpt lat="42.5131883" lon="-7.67065"><ele>548.0</ele><time>2026-04-14T10:33:01.863Z</time></trkpt><trkpt lat="42.5132283" lon="-7.6704583"><ele>548.0</ele><time>2026-04-14T10:33:02.862Z</time></trkpt><trkpt lat="42.513265" lon="-7.6702683"><ele>548.0</ele><time>2026-04-14T10:33:03.863Z</time></trkpt><trkpt lat="42.513295" lon="-7.6701033"><ele>546.1666666666666</ele><time>2026-04-14T10:33:04.862Z</time></trkpt><trkpt lat="42.5133117" lon="-7.6699633"><ele>544.3333333333333</ele><time>2026-04-14T10:33:05.863Z</time></trkpt><trkpt lat="42.5133383" lon="-7.6698383"><ele>542.5</ele><time>2026-04-14T10:33:06.863Z</time></trkpt><trkpt lat="42.5133667" lon="-7.66975"><ele>540.6666666666666</ele><time>2026-04-14T10:33:07.862Z</time></trkpt><trkpt lat="42.5134217" lon="-7.669645"><ele>538.8333333333334</ele><time>2026-04-14T10:33:09.862Z</time></trkpt><trkpt lat="42.5134867" lon="-7.669615"><ele>537.0</ele><time>2026-04-14T10:33:10.863Z</time></trkpt><trkpt lat="42.51356" lon="-7.6696117"><ele>537.0</ele><time>2026-04-14T10:33:11.863Z</time></trkpt><trkpt lat="42.5136483" lon="-7.6696467"><ele>537.0</ele><time>2026-04-14T10:33:12.862Z</time></trkpt><trkpt lat="42.5137283" lon="-7.6697117"><ele>537.0</ele><time>2026-04-14T10:33:13.862Z</time></trkpt><trkpt lat="42.5138017" lon="-7.6698017"><ele>537.0</ele><time>2026-04-14T10:33:14.863Z</time></trkpt><trkpt lat="42.5138533" lon="-7.6698767"><ele>537.0</ele><time>2026-04-14T10:33:15.862Z</time></trkpt><trkpt lat="42.51395" lon="-7.669915"><ele>536.4</ele><time>2026-04-14T10:33:17.862Z</time></trkpt><trkpt lat="42.5140417" lon="-7.6698133"><ele>535.8000000000001</ele><time>2026-04-14T10:33:19.862Z</time></trkpt><trkpt lat="42.5140883" lon="-7.6697533"><ele>535.2</ele><time>2026-04-14T10:33:20.863Z</time></trkpt><trkpt lat="42.5141517" lon="-7.6696583"><ele>534.6</ele><time>2026-04-14T10:33:21.863Z</time></trkpt><trkpt lat="42.5142167" lon="-7.6695383"><ele>534.0</ele><time>2026-04-14T10:33:22.862Z</time></trkpt><trkpt lat="42.51431" lon="-7.669345"><ele>534.0</ele><time>2026-04-14T10:33:23.862Z</time></trkpt><trkpt lat="42.5144267" lon="-7.6691367"><ele>534.0</ele><time>2026-04-14T10:33:24.862Z</time></trkpt><trkpt lat="42.514505" lon="-7.6689483"><ele>534.0</ele><time>2026-04-14T10:33:25.862Z</time></trkpt><trkpt lat="42.5145633" lon="-7.6687967"><ele>534.8</ele><time>2026-04-14T10:33:26.862Z</time></trkpt><trkpt lat="42.51462" lon="-7.6686883"><ele>535.5999999999999</ele><time>2026-04-14T10:33:27.862Z</time></trkpt><trkpt lat="42.5146833" lon="-7.6686"><ele>536.4</ele><time>2026-04-14T10:33:28.863Z</time></trkpt><trkpt lat="42.5147683" lon="-7.6685083"><ele>537.1999999999999</ele><time>2026-04-14T10:33:29.863Z</time></trkpt><trkpt lat="42.5148433" lon="-7.6684233"><ele>538.0</ele><time>2026-04-14T10:33:30.862Z</time></trkpt><trkpt lat="42.514915" lon="-7.6683433"><ele>538.0</ele><time>2026-04-14T10:33:31.863Z</time></trkpt><trkpt lat="42.514985" lon="-7.668275"><ele>538.0</ele><time>2026-04-14T10:33:32.862Z</time></trkpt><trkpt lat="42.5150567" lon="-7.6682083"><ele>538.0</ele><time>2026-04-14T10:33:33.862Z</time></trkpt><trkpt lat="42.5151283" lon="-7.6681417"><ele>538.0</ele><time>2026-04-14T10:33:34.863Z</time></trkpt><trkpt lat="42.5152067" lon="-7.6680867"><ele>538.0</ele><time>2026-04-14T10:33:35.862Z</time></trkpt><trkpt lat="42.5152783" lon="-7.6680483"><ele>538.0</ele><time>2026-04-14T10:33:36.862Z</time></trkpt><trkpt lat="42.5153517" lon="-7.6680317"><ele>539.2857142857143</ele><time>2026-04-14T10:33:37.862Z</time></trkpt><trkpt lat="42.5154233" lon="-7.66803"><ele>540.5714285714287</ele><time>2026-04-14T10:33:38.862Z</time></trkpt><trkpt lat="42.5155" lon="-7.6680417"><ele>541.8571428571429</ele><time>2026-04-14T10:33:39.862Z</time></trkpt><trkpt lat="42.5155817" lon="-7.6680567"><ele>543.1428571428571</ele><time>2026-04-14T10:33:40.862Z</time></trkpt><trkpt lat="42.5156483" lon="-7.6680733"><ele>544.4285714285713</ele><time>2026-04-14T10:33:41.862Z</time></trkpt><trkpt lat="42.5157267" lon="-7.6680983"><ele>545.7142857142857</ele><time>2026-04-14T10:33:43.863Z</time></trkpt><trkpt lat="42.5157633" lon="-7.6680233"><ele>547.0</ele><time>2026-04-14T10:33:46.863Z</time></trkpt><trkpt lat="42.5157967" lon="-7.6678767"><ele>545.0</ele><time>2026-04-14T10:33:48.862Z</time></trkpt><trkpt lat="42.515795" lon="-7.6677517"><ele>543.0</ele><time>2026-04-14T10:33:49.862Z</time></trkpt><trkpt lat="42.51579" lon="-7.66762"><ele>541.0</ele><time>2026-04-14T10:33:50.863Z</time></trkpt><trkpt lat="42.5157867" lon="-7.667485"><ele>539.0</ele><time>2026-04-14T10:33:51.862Z</time></trkpt><trkpt lat="42.5157867" lon="-7.6673517"><ele>537.0</ele><time>2026-04-14T10:33:52.862Z</time></trkpt><trkpt lat="42.5158033" lon="-7.66723"><ele>537.0</ele><time>2026-04-14T10:33:53.863Z</time></trkpt><trkpt lat="42.5158317" lon="-7.6671033"><ele>537.0</ele><time>2026-04-14T10:33:54.863Z</time></trkpt><trkpt lat="42.51587" lon="-7.6669817"><ele>537.0</ele><time>2026-04-14T10:33:55.862Z</time></trkpt><trkpt lat="42.5159367" lon="-7.6668633"><ele>537.0</ele><time>2026-04-14T10:33:56.862Z</time></trkpt><trkpt lat="42.516005" lon="-7.6667433"><ele>537.0</ele><time>2026-04-14T10:33:57.863Z</time></trkpt><trkpt lat="42.51606" lon="-7.6666733"><ele>535.4</ele><time>2026-04-14T10:33:58.862Z</time></trkpt><trkpt lat="42.5161233" lon="-7.66658"><ele>533.8000000000001</ele><time>2026-04-14T10:34:00.862Z</time></trkpt><trkpt lat="42.5161167" lon="-7.6664583"><ele>532.2</ele><time>2026-04-14T10:42:03.865Z</time></trkpt><trkpt lat="42.5160617" lon="-7.6665333"><ele>530.6</ele><time>2026-04-14T10:42:06.864Z</time></trkpt><trkpt lat="42.51598" lon="-7.66666"><ele>529.0</ele><time>2026-04-14T10:42:08.865Z</time></trkpt><trkpt lat="42.51593" lon="-7.6667533"><ele>529.0</ele><time>2026-04-14T10:42:09.864Z</time></trkpt><trkpt lat="42.51589" lon="-7.666875"><ele>529.0</ele><time>2026-04-14T10:42:10.864Z</time></trkpt><trkpt lat="42.5158483" lon="-7.6669817"><ele>529.0</ele><time>2026-04-14T10:42:11.865Z</time></trkpt><trkpt lat="42.5158217" lon="-7.6671"><ele>529.0</ele><time>2026-04-14T10:42:12.864Z</time></trkpt><trkpt lat="42.51581" lon="-7.6672467"><ele>529.0</ele><time>2026-04-14T10:42:13.865Z</time></trkpt><trkpt lat="42.5158133" lon="-7.6674167"><ele>530.6</ele><time>2026-04-14T10:42:14.864Z</time></trkpt><trkpt lat="42.5157967" lon="-7.667605"><ele>532.2</ele><time>2026-04-14T10:42:15.865Z</time></trkpt><trkpt lat="42.5157967" lon="-7.6677483"><ele>533.8000000000001</ele><time>2026-04-14T10:42:16.865Z</time></trkpt><trkpt lat="42.5157883" lon="-7.667875"><ele>535.4</ele><time>2026-04-14T10:42:17.864Z</time></trkpt><trkpt lat="42.5157867" lon="-7.6679983"><ele>537.0</ele><time>2026-04-14T10:42:18.864Z</time></trkpt><trkpt lat="42.5157717" lon="-7.6681217"><ele>537.25</ele><time>2026-04-14T10:42:20.865Z</time></trkpt><trkpt lat="42.5157" lon="-7.6681167"><ele>537.5</ele><time>2026-04-14T10:42:23.865Z</time></trkpt><trkpt lat="42.5156283" lon="-7.668115"><ele>537.75</ele><time>2026-04-14T10:42:24.865Z</time></trkpt><trkpt lat="42.5153883" lon="-7.6680133"><ele>538.0</ele><time>2026-04-14T10:42:25.864Z</time></trkpt><trkpt lat="42.5152333" lon="-7.6680183"><ele>538.0</ele><time>2026-04-14T10:42:26.864Z</time></trkpt><trkpt lat="42.5151" lon="-7.6680483"><ele>538.0</ele><time>2026-04-14T10:42:27.864Z</time></trkpt><trkpt lat="42.5149867" lon="-7.6681133"><ele>538.0</ele><time>2026-04-14T10:42:28.865Z</time></trkpt><trkpt lat="42.5148917" lon="-7.668205"><ele>538.0</ele><time>2026-04-14T10:42:29.865Z</time></trkpt><trkpt lat="42.5147883" lon="-7.6683083"><ele>538.0</ele><time>2026-04-14T10:42:30.864Z</time></trkpt><trkpt lat="42.5146933" lon="-7.6684133"><ele>538.0</ele><time>2026-04-14T10:42:31.865Z</time></trkpt><trkpt lat="42.5146083" lon="-7.6685133"><ele>538.0</ele><time>2026-04-14T10:42:32.865Z</time></trkpt><trkpt lat="42.5145317" lon="-7.6686367"><ele>538.0</ele><time>2026-04-14T10:42:33.865Z</time></trkpt><trkpt lat="42.5144533" lon="-7.6687717"><ele>537.0</ele><time>2026-04-14T10:42:34.864Z</time></trkpt><trkpt lat="42.5143733" lon="-7.6689067"><ele>536.0</ele><time>2026-04-14T10:42:35.865Z</time></trkpt><trkpt lat="42.51429" lon="-7.6690533"><ele>535.0</ele><time>2026-04-14T10:42:36.865Z</time></trkpt><trkpt lat="42.5141983" lon="-7.6692017"><ele>534.0</ele><time>2026-04-14T10:42:37.864Z</time></trkpt><trkpt lat="42.5141067" lon="-7.66934"><ele>535.4</ele><time>2026-04-14T10:42:38.865Z</time></trkpt><trkpt lat="42.5140283" lon="-7.6694717"><ele>536.8</ele><time>2026-04-14T10:42:39.864Z</time></trkpt><trkpt lat="42.5139717" lon="-7.66958"><ele>538.2</ele><time>2026-04-14T10:42:40.864Z</time></trkpt><trkpt lat="42.5139217" lon="-7.6696717"><ele>539.6</ele><time>2026-04-14T10:42:41.865Z</time></trkpt><trkpt lat="42.5138833" lon="-7.6697567"><ele>541.0</ele><time>2026-04-14T10:42:42.865Z</time></trkpt><trkpt lat="42.5138467" lon="-7.6698633"><ele>541.0</ele><time>2026-04-14T10:42:44.864Z</time></trkpt><trkpt lat="42.5137417" lon="-7.6698333"><ele>541.0</ele><time>2026-04-14T10:42:49.864Z</time></trkpt><trkpt lat="42.513665" lon="-7.669855"><ele>541.0</ele><time>2026-04-14T10:42:50.864Z</time></trkpt><trkpt lat="42.5135867" lon="-7.6698817"><ele>541.0</ele><time>2026-04-14T10:42:51.865Z</time></trkpt><trkpt lat="42.5135133" lon="-7.669965"><ele>541.0</ele><time>2026-04-14T10:42:52.864Z</time></trkpt><trkpt lat="42.5133717" lon="-7.67002"><ele>540.0</ele><time>2026-04-14T10:42:53.865Z</time></trkpt><trkpt lat="42.5133267" lon="-7.6701833"><ele>539.0</ele><time>2026-04-14T10:42:54.864Z</time></trkpt><trkpt lat="42.5132933" lon="-7.6703517"><ele>538.0</ele><time>2026-04-14T10:42:55.865Z</time></trkpt><trkpt lat="42.5132617" lon="-7.6705367"><ele>537.0</ele><time>2026-04-14T10:42:56.865Z</time></trkpt><trkpt lat="42.5132283" lon="-7.67073"><ele>540.6666666666666</ele><time>2026-04-14T10:42:57.864Z</time></trkpt><trkpt lat="42.5131883" lon="-7.67093"><ele>544.3333333333333</ele><time>2026-04-14T10:42:58.864Z</time></trkpt><trkpt lat="42.5131483" lon="-7.67115"><ele>548.0</ele><time>2026-04-14T10:42:59.865Z</time></trkpt><trkpt lat="42.5130983" lon="-7.6713633"><ele>546.75</ele><time>2026-04-14T10:43:00.864Z</time></trkpt><trkpt lat="42.5130417" lon="-7.6715517"><ele>545.5</ele><time>2026-04-14T10:43:01.864Z</time></trkpt><trkpt lat="42.51298" lon="-7.6717067"><ele>544.25</ele><time>2026-04-14T10:43:02.864Z</time></trkpt><trkpt lat="42.5129017" lon="-7.6718283"><ele>543.0</ele><time>2026-04-14T10:43:03.864Z</time></trkpt><trkpt lat="42.5128267" lon="-7.671915"><ele>545.6</ele><time>2026-04-14T10:43:04.865Z</time></trkpt><trkpt lat="42.51275" lon="-7.6719733"><ele>548.1999999999999</ele><time>2026-04-14T10:43:05.864Z</time></trkpt><trkpt lat="42.5126533" lon="-7.6719967"><ele>550.8</ele><time>2026-04-14T10:43:06.865Z</time></trkpt><trkpt lat="42.512555" lon="-7.6720133"><ele>553.4</ele><time>2026-04-14T10:43:07.864Z</time></trkpt><trkpt lat="42.51246" lon="-7.672005"><ele>556.0</ele><time>2026-04-14T10:43:08.864Z</time></trkpt><trkpt lat="42.512375" lon="-7.6719933"><ele>556.0</ele><time>2026-04-14T10:43:09.864Z</time></trkpt><trkpt lat="42.5122983" lon="-7.671965"><ele>556.0</ele><time>2026-04-14T10:43:10.864Z</time></trkpt><trkpt lat="42.512235" lon="-7.6719167"><ele>556.0</ele><time>2026-04-14T10:43:11.864Z</time></trkpt><trkpt lat="42.5121617" lon="-7.67189"><ele>556.0</ele><time>2026-04-14T10:43:12.864Z</time></trkpt><trkpt lat="42.5120567" lon="-7.671845"><ele>556.0</ele><time>2026-04-14T10:43:14.864Z</time></trkpt><trkpt lat="42.51195" lon="-7.6717567"><ele>551.3333333333334</ele><time>2026-04-14T10:43:16.864Z</time></trkpt><trkpt lat="42.5119017" lon="-7.671685"><ele>546.6666666666667</ele><time>2026-04-14T10:43:17.864Z</time></trkpt><trkpt lat="42.511865" lon="-7.6716067"><ele>542.0</ele><time>2026-04-14T10:43:18.865Z</time></trkpt><trkpt lat="42.51182" lon="-7.6715183"><ele>537.3333333333334</ele><time>2026-04-14T10:43:19.865Z</time></trkpt><trkpt lat="42.51178" lon="-7.6714467"><ele>532.6666666666666</ele><time>2026-04-14T10:43:20.865Z</time></trkpt><trkpt lat="42.5117167" lon="-7.67131"><ele>528.0</ele><time>2026-04-14T10:43:22.865Z</time></trkpt><trkpt lat="42.5116767" lon="-7.67121"><ele>528.0</ele><time>2026-04-14T10:43:24.864Z</time></trkpt><trkpt lat="42.5116267" lon="-7.6711133"><ele>528.0</ele><time>2026-04-14T10:43:26.864Z</time></trkpt><trkpt lat="42.5115717" lon="-7.671005"><ele>528.0</ele><time>2026-04-14T10:43:28.865Z</time></trkpt><trkpt lat="42.5115083" lon="-7.6708883"><ele>528.0</ele><time>2026-04-14T10:43:30.865Z</time></trkpt><trkpt lat="42.5114533" lon="-7.670815"><ele>528.0</ele><time>2026-04-14T10:43:32.865Z</time></trkpt><trkpt lat="42.5114067" lon="-7.6707317"><ele>528.0</ele><time>2026-04-14T10:43:34.864Z</time></trkpt><trkpt lat="42.5113733" lon="-7.670635"><ele>526.3333333333334</ele><time>2026-04-14T10:43:37.865Z</time></trkpt><trkpt lat="42.5113267" lon="-7.6705683"><ele>524.6666666666666</ele><time>2026-04-14T10:43:43.864Z</time></trkpt><trkpt lat="42.511245" lon="-7.6705833"><ele>523.0</ele><time>2026-04-14T10:43:45.865Z</time></trkpt><trkpt lat="42.5111783" lon="-7.6706267"><ele>521.3333333333333</ele><time>2026-04-14T10:43:46.864Z</time></trkpt><trkpt lat="42.5111283" lon="-7.670695"><ele>519.6666666666666</ele><time>2026-04-14T10:43:47.864Z</time></trkpt><trkpt lat="42.5111017" lon="-7.6708583"><ele>518.0</ele><time>2026-04-14T10:43:48.865Z</time></trkpt><trkpt lat="42.511075" lon="-7.6709917"><ele>518.1999999999999</ele><time>2026-04-14T10:43:49.865Z</time></trkpt><trkpt lat="42.5110517" lon="-7.6711283"><ele>518.4</ele><time>2026-04-14T10:43:50.864Z</time></trkpt><trkpt lat="42.5110367" lon="-7.6712717"><ele>518.5999999999999</ele><time>2026-04-14T10:43:51.865Z</time></trkpt><trkpt lat="42.5110333" lon="-7.6714133"><ele>518.8</ele><time>2026-04-14T10:43:52.865Z</time></trkpt><trkpt lat="42.5110367" lon="-7.6715233"><ele>519.0</ele><time>2026-04-14T10:43:53.865Z</time></trkpt><trkpt lat="42.5110517" lon="-7.6716267"><ele>519.0</ele><time>2026-04-14T10:43:54.864Z</time></trkpt><trkpt lat="42.51107" lon="-7.6717167"><ele>519.0</ele><time>2026-04-14T10:43:55.865Z</time></trkpt><trkpt lat="42.5110833" lon="-7.6718117"><ele>519.0</ele><time>2026-04-14T10:43:56.864Z</time></trkpt><trkpt lat="42.5111033" lon="-7.6718967"><ele>519.0</ele><time>2026-04-14T10:43:57.864Z</time></trkpt><trkpt lat="42.511135" lon="-7.6720083"><ele>519.0</ele><time>2026-04-14T10:43:58.865Z</time></trkpt><trkpt lat="42.5111783" lon="-7.6721267"><ele>519.0</ele><time>2026-04-14T10:43:59.865Z</time></trkpt><trkpt lat="42.5112283" lon="-7.6722233"><ele>522.3333333333334</ele><time>2026-04-14T10:44:00.865Z</time></trkpt><trkpt lat="42.5112733" lon="-7.6723167"><ele>525.6666666666666</ele><time>2026-04-14T10:44:01.864Z</time></trkpt><trkpt lat="42.5113133" lon="-7.67241"><ele>529.0</ele><time>2026-04-14T10:44:02.865Z</time></trkpt><trkpt lat="42.511345" lon="-7.672505"><ele>532.3333333333333</ele><time>2026-04-14T10:44:03.864Z</time></trkpt><trkpt lat="42.511385" lon="-7.672595"><ele>535.6666666666666</ele><time>2026-04-14T10:44:04.865Z</time></trkpt><trkpt lat="42.511415" lon="-7.67268"><ele>539.0</ele><time>2026-04-14T10:44:05.864Z</time></trkpt><trkpt lat="42.5114333" lon="-7.67278"><ele>539.0</ele><time>2026-04-14T10:44:06.865Z</time></trkpt><trkpt lat="42.511445" lon="-7.6728667"><ele>539.0</ele><time>2026-04-14T10:44:07.865Z</time></trkpt><trkpt lat="42.5114783" lon="-7.67297"><ele>539.0</ele><time>2026-04-14T10:44:09.865Z</time></trkpt><trkpt lat="42.5115067" lon="-7.672775"><ele>539.0</ele><time>2026-04-14T10:44:51.865Z</time></trkpt><trkpt lat="42.511495" lon="-7.6726717"><ele>539.0</ele><time>2026-04-14T10:44:52.864Z</time></trkpt><trkpt lat="42.51147" lon="-7.6725483"><ele>539.0</ele><time>2026-04-14T10:44:53.864Z</time></trkpt><trkpt lat="42.5114433" lon="-7.6724167"><ele>539.0</ele><time>2026-04-14T10:44:54.864Z</time></trkpt><trkpt lat="42.5114117" lon="-7.6722967"><ele>539.0</ele><time>2026-04-14T10:44:55.865Z</time></trkpt><trkpt lat="42.511365" lon="-7.672185"><ele>539.0</ele><time>2026-04-14T10:44:56.864Z</time></trkpt><trkpt lat="42.5113167" lon="-7.67208"><ele>539.0</ele><time>2026-04-14T10:44:57.864Z</time></trkpt><trkpt lat="42.51126" lon="-7.6719883"><ele>535.6666666666666</ele><time>2026-04-14T10:44:58.865Z</time></trkpt><trkpt lat="42.5112067" lon="-7.6719067"><ele>532.3333333333333</ele><time>2026-04-14T10:44:59.865Z</time></trkpt><trkpt lat="42.5111583" lon="-7.6718283"><ele>529.0</ele><time>2026-04-14T10:45:00.864Z</time></trkpt><trkpt lat="42.511115" lon="-7.671765"><ele>525.6666666666666</ele><time>2026-04-14T10:45:01.865Z</time></trkpt><trkpt lat="42.511045" lon="-7.6716867"><ele>522.3333333333334</ele><time>2026-04-14T10:45:03.864Z</time></trkpt><trkpt lat="42.5109917" lon="-7.671745"><ele>519.0</ele><time>2026-04-14T10:45:19.864Z</time></trkpt><trkpt lat="42.5109533" lon="-7.67193"><ele>520.0</ele><time>2026-04-14T10:45:21.864Z</time></trkpt><trkpt lat="42.5109283" lon="-7.6720583"><ele>521.0</ele><time>2026-04-14T10:45:22.864Z</time></trkpt><trkpt lat="42.5109033" lon="-7.6721567"><ele>522.0</ele><time>2026-04-14T10:45:23.865Z</time></trkpt><trkpt lat="42.510875" lon="-7.6722567"><ele>523.0</ele><time>2026-04-14T10:45:24.864Z</time></trkpt><trkpt lat="42.5108467" lon="-7.67234"><ele>524.0</ele><time>2026-04-14T10:45:25.865Z</time></trkpt><trkpt lat="42.5107867" lon="-7.67244"><ele>525.0</ele><time>2026-04-14T10:45:27.865Z</time></trkpt><trkpt lat="42.5107117" lon="-7.672515"><ele>525.0</ele><time>2026-04-14T10:45:29.865Z</time></trkpt><trkpt lat="42.510615" lon="-7.6725783"><ele>525.0</ele><time>2026-04-14T10:45:31.864Z</time></trkpt><trkpt lat="42.5105533" lon="-7.6726017"><ele>525.0</ele><time>2026-04-14T10:45:32.864Z</time></trkpt><trkpt lat="42.5104783" lon="-7.6726967"><ele>525.0</ele><time>2026-04-14T10:45:34.865Z</time></trkpt><trkpt lat="42.5104267" lon="-7.6728467"><ele>525.0</ele><time>2026-04-14T10:45:36.864Z</time></trkpt><trkpt lat="42.5103783" lon="-7.6730133"><ele>525.1666666666666</ele><time>2026-04-14T10:45:38.865Z</time></trkpt><trkpt lat="42.5103383" lon="-7.6731083"><ele>525.3333333333334</ele><time>2026-04-14T10:45:39.864Z</time></trkpt><trkpt lat="42.510295" lon="-7.6732183"><ele>525.5</ele><time>2026-04-14T10:45:40.865Z</time></trkpt><trkpt lat="42.5102567" lon="-7.67333"><ele>525.6666666666667</ele><time>2026-04-14T10:45:41.865Z</time></trkpt><trkpt lat="42.5102267" lon="-7.6734433"><ele>525.8333333333334</ele><time>2026-04-14T10:45:42.865Z</time></trkpt><trkpt lat="42.5101883" lon="-7.6735583"><ele>526.0</ele><time>2026-04-14T10:45:43.865Z</time></trkpt><trkpt lat="42.51016" lon="-7.6736717"><ele>527.5</ele><time>2026-04-14T10:45:44.864Z</time></trkpt><trkpt lat="42.5101383" lon="-7.67378"><ele>529.0</ele><time>2026-04-14T10:45:45.864Z</time></trkpt><trkpt lat="42.510135" lon="-7.67388"><ele>530.5</ele><time>2026-04-14T10:45:46.864Z</time></trkpt><trkpt lat="42.510135" lon="-7.6739767"><ele>532.0</ele><time>2026-04-14T10:45:47.864Z</time></trkpt><trkpt lat="42.5101433" lon="-7.6741083"><ele>533.5</ele><time>2026-04-14T10:45:48.864Z</time></trkpt><trkpt lat="42.5101517" lon="-7.674235"><ele>535.0</ele><time>2026-04-14T10:45:49.864Z</time></trkpt><trkpt lat="42.5101617" lon="-7.6743517"><ele>537.0</ele><time>2026-04-14T10:45:50.864Z</time></trkpt><trkpt lat="42.510175" lon="-7.6744717"><ele>539.0</ele><time>2026-04-14T10:45:52.864Z</time></trkpt><trkpt lat="42.5102383" lon="-7.6744933"><ele>541.0</ele><time>2026-04-14T10:46:24.864Z</time></trkpt><trkpt lat="42.5102917" lon="-7.674555"><ele>543.0</ele><time>2026-04-14T10:46:25.865Z</time></trkpt><trkpt lat="42.5103467" lon="-7.674615"><ele>545.0</ele><time>2026-04-14T10:46:26.865Z</time></trkpt><trkpt lat="42.510415" lon="-7.6746967"><ele>547.0</ele><time>2026-04-14T10:46:27.864Z</time></trkpt><trkpt lat="42.5104667" lon="-7.6747633"><ele>549.2</ele><time>2026-04-14T10:46:28.864Z</time></trkpt><trkpt lat="42.5105167" lon="-7.674825"><ele>551.4000000000001</ele><time>2026-04-14T10:46:29.864Z</time></trkpt><trkpt lat="42.5105667" lon="-7.6749483"><ele>553.5999999999999</ele><time>2026-04-14T10:46:31.865Z</time></trkpt><trkpt lat="42.5105417" lon="-7.6750967"><ele>555.8</ele><time>2026-04-14T10:46:33.864Z</time></trkpt><trkpt lat="42.5105183" lon="-7.6752333"><ele>558.0</ele><time>2026-04-14T10:46:35.865Z</time></trkpt><trkpt lat="42.51052" lon="-7.6753967"><ele>559.25</ele><time>2026-04-14T10:46:37.864Z</time></trkpt><trkpt lat="42.5105367" lon="-7.67555"><ele>560.5</ele><time>2026-04-14T10:46:38.865Z</time></trkpt><trkpt lat="42.51054" lon="-7.6757283"><ele>561.75</ele><time>2026-04-14T10:46:39.864Z</time></trkpt><trkpt lat="42.5105367" lon="-7.6758767"><ele>563.0</ele><time>2026-04-14T10:46:40.865Z</time></trkpt><trkpt lat="42.5105367" lon="-7.6760167"><ele>563.75</ele><time>2026-04-14T10:46:41.865Z</time></trkpt><trkpt lat="42.5105283" lon="-7.67615"><ele>564.5</ele><time>2026-04-14T10:46:42.864Z</time></trkpt><trkpt lat="42.5105067" lon="-7.6763017"><ele>565.25</ele><time>2026-04-14T10:46:43.864Z</time></trkpt><trkpt lat="42.5104633" lon="-7.67647"><ele>566.0</ele><time>2026-04-14T10:46:44.864Z</time></trkpt><trkpt lat="42.5103983" lon="-7.6766317"><ele>566.0</ele><time>2026-04-14T10:46:45.864Z</time></trkpt><trkpt lat="42.5103467" lon="-7.6768033"><ele>566.0</ele><time>2026-04-14T10:46:46.865Z</time></trkpt><trkpt lat="42.510295" lon="-7.6769467"><ele>566.0</ele><time>2026-04-14T10:46:47.865Z</time></trkpt><trkpt lat="42.5102417" lon="-7.6770617"><ele>566.0</ele><time>2026-04-14T10:46:48.865Z</time></trkpt><trkpt lat="42.5102017" lon="-7.67714"><ele>566.0</ele><time>2026-04-14T10:46:49.864Z</time></trkpt><trkpt lat="42.5101867" lon="-7.6772233"><ele>570.25</ele><time>2026-04-14T10:46:50.864Z</time></trkpt><trkpt lat="42.5101133" lon="-7.6772317"><ele>574.5</ele><time>2026-04-14T10:46:52.864Z</time></trkpt><trkpt lat="42.5099783" lon="-7.6771367"><ele>578.75</ele><time>2026-04-14T10:46:54.865Z</time></trkpt><trkpt lat="42.509855" lon="-7.677055"><ele>583.0</ele><time>2026-04-14T10:46:55.864Z</time></trkpt><trkpt lat="42.5097083" lon="-7.6769817"><ele>573.0</ele><time>2026-04-14T10:46:56.864Z</time></trkpt><trkpt lat="42.5094" lon="-7.67681"><ele>563.0</ele><time>2026-04-14T10:46:57.864Z</time></trkpt><trkpt lat="42.509245" lon="-7.6767383"><ele>563.0</ele><time>2026-04-14T10:46:58.864Z</time></trkpt><trkpt lat="42.5090917" lon="-7.6766683"><ele>563.0</ele><time>2026-04-14T10:46:59.864Z</time></trkpt><trkpt lat="42.5089483" lon="-7.6766"><ele>563.0</ele><time>2026-04-14T10:47:00.864Z</time></trkpt><trkpt lat="42.5088033" lon="-7.676525"><ele>562.5</ele><time>2026-04-14T10:47:01.865Z</time></trkpt><trkpt lat="42.5086683" lon="-7.6764467"><ele>562.0</ele><time>2026-04-14T10:47:02.864Z</time></trkpt><trkpt lat="42.5085367" lon="-7.6763917"><ele>561.5</ele><time>2026-04-14T10:47:03.864Z</time></trkpt><trkpt lat="42.5084183" lon="-7.67636"><ele>561.0</ele><time>2026-04-14T10:47:04.864Z</time></trkpt><trkpt lat="42.5083167" lon="-7.6763417"><ele>561.0</ele><time>2026-04-14T10:47:05.864Z</time></trkpt><trkpt lat="42.5082283" lon="-7.6763317"><ele>561.0</ele><time>2026-04-14T10:47:06.864Z</time></trkpt><trkpt lat="42.5081783" lon="-7.6763883"><ele>561.0</ele><time>2026-04-14T10:47:07.865Z</time></trkpt><trkpt lat="42.5081217" lon="-7.67646"><ele>561.0</ele><time>2026-04-14T10:47:08.865Z</time></trkpt><trkpt lat="42.5080883" lon="-7.6765683"><ele>561.0</ele><time>2026-04-14T10:47:09.865Z</time></trkpt><trkpt lat="42.5080833" lon="-7.6767233"><ele>561.0</ele><time>2026-04-14T10:47:10.864Z</time></trkpt><trkpt lat="42.5081167" lon="-7.6769383"><ele>562.6666666666666</ele><time>2026-04-14T10:47:11.864Z</time></trkpt><trkpt lat="42.5081883" lon="-7.6772017"><ele>564.3333333333333</ele><time>2026-04-14T10:47:12.865Z</time></trkpt><trkpt lat="42.5082483" lon="-7.67745"><ele>566.0</ele><time>2026-04-14T10:47:13.864Z</time></trkpt><trkpt lat="42.5082783" lon="-7.677665"><ele>567.0</ele><time>2026-04-14T10:47:14.865Z</time></trkpt><trkpt lat="42.5083" lon="-7.6778517"><ele>568.0</ele><time>2026-04-14T10:47:15.865Z</time></trkpt><trkpt lat="42.5082867" lon="-7.67805"><ele>569.0</ele><time>2026-04-14T10:47:16.865Z</time></trkpt><trkpt lat="42.50825" lon="-7.6782217"><ele>570.0</ele><time>2026-04-14T10:47:17.864Z</time></trkpt><trkpt lat="42.508195" lon="-7.6784083"><ele>570.0</ele><time>2026-04-14T10:47:18.865Z</time></trkpt><trkpt lat="42.5081133" lon="-7.6785933"><ele>570.0</ele><time>2026-04-14T10:47:19.865Z</time></trkpt><trkpt lat="42.5080383" lon="-7.6787717"><ele>570.0</ele><time>2026-04-14T10:47:20.864Z</time></trkpt><trkpt lat="42.5079767" lon="-7.6789467"><ele>570.5</ele><time>2026-04-14T10:47:21.864Z</time></trkpt><trkpt lat="42.5079383" lon="-7.6791"><ele>571.0</ele><time>2026-04-14T10:47:22.865Z</time></trkpt><trkpt lat="42.5079017" lon="-7.6792217"><ele>571.5</ele><time>2026-04-14T10:47:23.865Z</time></trkpt><trkpt lat="42.5078917" lon="-7.679325"><ele>572.0</ele><time>2026-04-14T10:47:24.865Z</time></trkpt><trkpt lat="42.5078833" lon="-7.6794283"><ele>572.5</ele><time>2026-04-14T10:47:25.864Z</time></trkpt><trkpt lat="42.507885" lon="-7.6795317"><ele>573.0</ele><time>2026-04-14T10:47:26.864Z</time></trkpt><trkpt lat="42.5078917" lon="-7.6796317"><ele>573.0</ele><time>2026-04-14T10:47:27.864Z</time></trkpt><trkpt lat="42.5079067" lon="-7.679735"><ele>573.0</ele><time>2026-04-14T10:47:28.864Z</time></trkpt><trkpt lat="42.5079233" lon="-7.67983"><ele>573.0</ele><time>2026-04-14T10:47:29.864Z</time></trkpt><trkpt lat="42.5079433" lon="-7.67994"><ele>573.0</ele><time>2026-04-14T10:47:30.865Z</time></trkpt><trkpt lat="42.5079617" lon="-7.6800467"><ele>573.0</ele><time>2026-04-14T10:47:31.865Z</time></trkpt><trkpt lat="42.5079783" lon="-7.6801667"><ele>573.0</ele><time>2026-04-14T10:47:33.865Z</time></trkpt><trkpt lat="42.50801" lon="-7.6802917"><ele>575.5</ele><time>2026-04-14T10:47:35.864Z</time></trkpt><trkpt lat="42.5080317" lon="-7.680375"><ele>578.0</ele><time>2026-04-14T10:47:36.864Z</time></trkpt><trkpt lat="42.5080733" lon="-7.6804683"><ele>580.5</ele><time>2026-04-14T10:47:37.865Z</time></trkpt><trkpt lat="42.508115" lon="-7.68058"><ele>583.0</ele><time>2026-04-14T10:47:38.865Z</time></trkpt><trkpt lat="42.50815" lon="-7.6806983"><ele>585.5</ele><time>2026-04-14T10:47:39.865Z</time></trkpt><trkpt lat="42.50818" lon="-7.6808"><ele>588.0</ele><time>2026-04-14T10:47:40.865Z</time></trkpt><trkpt lat="42.5082083" lon="-7.68089"><ele>588.0</ele><time>2026-04-14T10:47:41.865Z</time></trkpt><trkpt lat="42.5082333" lon="-7.6809733"><ele>588.0</ele><time>2026-04-14T10:47:42.864Z</time></trkpt><trkpt lat="42.5082733" lon="-7.6811333"><ele>588.0</ele><time>2026-04-14T10:47:44.864Z</time></trkpt><trkpt lat="42.508305" lon="-7.6812217"><ele>588.0</ele><time>2026-04-14T10:47:45.864Z</time></trkpt><trkpt lat="42.5083367" lon="-7.6813033"><ele>588.0</ele><time>2026-04-14T10:47:46.864Z</time></trkpt><trkpt lat="42.5083633" lon="-7.68139"><ele>588.0</ele><time>2026-04-14T10:47:47.865Z</time></trkpt><trkpt lat="42.5083917" lon="-7.6814867"><ele>588.8333333333334</ele><time>2026-04-14T10:47:48.865Z</time></trkpt><trkpt lat="42.5084217" lon="-7.6815833"><ele>589.6666666666666</ele><time>2026-04-14T10:47:49.864Z</time></trkpt><trkpt lat="42.50845" lon="-7.6816883"><ele>590.5</ele><time>2026-04-14T10:47:50.864Z</time></trkpt><trkpt lat="42.508475" lon="-7.68178"><ele>591.3333333333333</ele><time>2026-04-14T10:47:51.864Z</time></trkpt><trkpt lat="42.5085" lon="-7.681875"><ele>592.1666666666666</ele><time>2026-04-14T10:47:52.864Z</time></trkpt><trkpt lat="42.50852" lon="-7.6819717"><ele>593.0</ele><time>2026-04-14T10:47:53.865Z</time></trkpt><trkpt lat="42.5085317" lon="-7.682065"><ele>593.5</ele><time>2026-04-14T10:47:54.864Z</time></trkpt><trkpt lat="42.5085433" lon="-7.6821633"><ele>594.0</ele><time>2026-04-14T10:47:55.865Z</time></trkpt><trkpt lat="42.5085617" lon="-7.68226"><ele>594.5</ele><time>2026-04-14T10:47:56.864Z</time></trkpt><trkpt lat="42.5085817" lon="-7.6823517"><ele>595.0</ele><time>2026-04-14T10:47:57.865Z</time></trkpt><trkpt lat="42.5086033" lon="-7.68245"><ele>595.5</ele><time>2026-04-14T10:47:58.865Z</time></trkpt><trkpt lat="42.5086317" lon="-7.6825333"><ele>596.0</ele><time>2026-04-14T10:47:59.865Z</time></trkpt><trkpt lat="42.5087117" lon="-7.682675"><ele>596.0</ele><time>2026-04-14T10:48:01.865Z</time></trkpt><trkpt lat="42.508765" lon="-7.6827583"><ele>596.0</ele><time>2026-04-14T10:48:02.865Z</time></trkpt><trkpt lat="42.5088283" lon="-7.6828917"><ele>596.0</ele><time>2026-04-14T10:48:03.865Z</time></trkpt><trkpt lat="42.50887" lon="-7.6830517"><ele>596.0</ele><time>2026-04-14T10:48:04.864Z</time></trkpt><trkpt lat="42.5089117" lon="-7.683185"><ele>596.0</ele><time>2026-04-14T10:48:05.865Z</time></trkpt><trkpt lat="42.5089633" lon="-7.6833167"><ele>596.0</ele><time>2026-04-14T10:48:06.864Z</time></trkpt><trkpt lat="42.5090383" lon="-7.6834283"><ele>596.0</ele><time>2026-04-14T10:48:07.864Z</time></trkpt><trkpt lat="42.5091283" lon="-7.6835333"><ele>596.0</ele><time>2026-04-14T10:48:08.864Z</time></trkpt><trkpt lat="42.5092233" lon="-7.683635"><ele>596.0</ele><time>2026-04-14T10:48:09.865Z</time></trkpt><trkpt lat="42.509325" lon="-7.68374"><ele>594.25</ele><time>2026-04-14T10:48:10.865Z</time></trkpt><trkpt lat="42.5094417" lon="-7.683845"><ele>592.5</ele><time>2026-04-14T10:48:11.866Z</time></trkpt><trkpt lat="42.50956" lon="-7.6839417"><ele>590.75</ele><time>2026-04-14T10:48:12.866Z</time></trkpt><trkpt lat="42.5096783" lon="-7.684025"><ele>589.0</ele><time>2026-04-14T10:48:13.865Z</time></trkpt><trkpt lat="42.5097867" lon="-7.6840867"><ele>589.0</ele><time>2026-04-14T10:48:14.865Z</time></trkpt><trkpt lat="42.5098833" lon="-7.6841233"><ele>589.0</ele><time>2026-04-14T10:48:15.865Z</time></trkpt><trkpt lat="42.5099733" lon="-7.6841333"><ele>589.0</ele><time>2026-04-14T10:48:16.866Z</time></trkpt><trkpt lat="42.51006" lon="-7.68414"><ele>589.0</ele><time>2026-04-14T10:48:17.865Z</time></trkpt><trkpt lat="42.5101283" lon="-7.6841417"><ele>589.0</ele><time>2026-04-14T10:48:18.865Z</time></trkpt><trkpt lat="42.5102133" lon="-7.6841417"><ele>589.0</ele><time>2026-04-14T10:48:20.865Z</time></trkpt><trkpt lat="42.51022" lon="-7.6842283"><ele>589.0</ele><time>2026-04-14T10:48:24.865Z</time></trkpt><trkpt lat="42.510255" lon="-7.6843683"><ele>589.0</ele><time>2026-04-14T10:48:26.866Z</time></trkpt><trkpt lat="42.510295" lon="-7.684475"><ele>589.0</ele><time>2026-04-14T10:48:27.866Z</time></trkpt><trkpt lat="42.51035" lon="-7.684605"><ele>589.0</ele><time>2026-04-14T10:48:28.865Z</time></trkpt><trkpt lat="42.5104133" lon="-7.6847317"><ele>589.0</ele><time>2026-04-14T10:48:29.866Z</time></trkpt><trkpt lat="42.5104933" lon="-7.68487"><ele>585.6666666666667</ele><time>2026-04-14T10:48:30.865Z</time></trkpt><trkpt lat="42.5105917" lon="-7.68503"><ele>582.3333333333334</ele><time>2026-04-14T10:48:31.866Z</time></trkpt><trkpt lat="42.5107183" lon="-7.68521"><ele>579.0</ele><time>2026-04-14T10:48:32.865Z</time></trkpt><trkpt lat="42.510845" lon="-7.685415"><ele>577.0</ele><time>2026-04-14T10:48:33.865Z</time></trkpt><trkpt lat="42.51095" lon="-7.6855983"><ele>575.0</ele><time>2026-04-14T10:48:34.865Z</time></trkpt><trkpt lat="42.5110333" lon="-7.6857333"><ele>573.0</ele><time>2026-04-14T10:48:35.865Z</time></trkpt><trkpt lat="42.511115" lon="-7.6858817"><ele>571.0</ele><time>2026-04-14T10:48:36.865Z</time></trkpt><trkpt lat="42.5111833" lon="-7.686025"><ele>569.0</ele><time>2026-04-14T10:48:37.866Z</time></trkpt><trkpt lat="42.51126" lon="-7.68619"><ele>567.0</ele><time>2026-04-14T10:48:38.865Z</time></trkpt><trkpt lat="42.511335" lon="-7.686365"><ele>565.0</ele><time>2026-04-14T10:48:39.866Z</time></trkpt><trkpt lat="42.5114167" lon="-7.6865567"><ele>565.0</ele><time>2026-04-14T10:48:40.865Z</time></trkpt><trkpt lat="42.511495" lon="-7.6867833"><ele>565.0</ele><time>2026-04-14T10:48:41.866Z</time></trkpt><trkpt lat="42.511555" lon="-7.6870033"><ele>565.0</ele><time>2026-04-14T10:48:42.865Z</time></trkpt><trkpt lat="42.5116083" lon="-7.6872133"><ele>563.3333333333334</ele><time>2026-04-14T10:48:43.866Z</time></trkpt><trkpt lat="42.511665" lon="-7.687395"><ele>561.6666666666666</ele><time>2026-04-14T10:48:44.866Z</time></trkpt><trkpt lat="42.5117367" lon="-7.6875733"><ele>560.0</ele><time>2026-04-14T10:48:45.866Z</time></trkpt><trkpt lat="42.51181" lon="-7.6877583"><ele>560.0</ele><time>2026-04-14T10:48:46.865Z</time></trkpt><trkpt lat="42.5118833" lon="-7.687935"><ele>560.0</ele><time>2026-04-14T10:48:47.866Z</time></trkpt><trkpt lat="42.511945" lon="-7.6880917"><ele>560.0</ele><time>2026-04-14T10:48:48.865Z</time></trkpt><trkpt lat="42.51199" lon="-7.68822"><ele>560.0</ele><time>2026-04-14T10:48:49.865Z</time></trkpt><trkpt lat="42.5120283" lon="-7.6883383"><ele>560.0</ele><time>2026-04-14T10:48:50.865Z</time></trkpt><trkpt lat="42.5120617" lon="-7.6884433"><ele>560.0</ele><time>2026-04-14T10:48:51.865Z</time></trkpt><trkpt lat="42.51209" lon="-7.6885367"><ele>560.0</ele><time>2026-04-14T10:48:52.865Z</time></trkpt><trkpt lat="42.51211" lon="-7.6886283"><ele>560.0</ele><time>2026-04-14T10:48:53.866Z</time></trkpt><trkpt lat="42.5121217" lon="-7.6887267"><ele>560.0</ele><time>2026-04-14T10:48:54.865Z</time></trkpt><trkpt lat="42.5121317" lon="-7.688825"><ele>560.0</ele><time>2026-04-14T10:48:55.865Z</time></trkpt><trkpt lat="42.5121417" lon="-7.688925"><ele>557.2</ele><time>2026-04-14T10:48:56.865Z</time></trkpt><trkpt lat="42.512165" lon="-7.6890417"><ele>554.4</ele><time>2026-04-14T10:48:57.866Z</time></trkpt><trkpt lat="42.5121867" lon="-7.68916"><ele>551.6</ele><time>2026-04-14T10:48:58.865Z</time></trkpt><trkpt lat="42.5122067" lon="-7.68928"><ele>548.8</ele><time>2026-04-14T10:48:59.865Z</time></trkpt><trkpt lat="42.5122133" lon="-7.6894"><ele>546.0</ele><time>2026-04-14T10:49:00.865Z</time></trkpt><trkpt lat="42.512205" lon="-7.6895283"><ele>544.4</ele><time>2026-04-14T10:49:01.866Z</time></trkpt><trkpt lat="42.51219" lon="-7.68967"><ele>542.8</ele><time>2026-04-14T10:49:02.866Z</time></trkpt><trkpt lat="42.512165" lon="-7.6898217"><ele>541.1999999999999</ele><time>2026-04-14T10:49:03.865Z</time></trkpt><trkpt lat="42.5121367" lon="-7.6899533"><ele>539.6</ele><time>2026-04-14T10:49:04.865Z</time></trkpt><trkpt lat="42.5121233" lon="-7.6900817"><ele>538.0</ele><time>2026-04-14T10:49:05.865Z</time></trkpt><trkpt lat="42.512145" lon="-7.6902517"><ele>538.0</ele><time>2026-04-14T10:49:06.866Z</time></trkpt><trkpt lat="42.512185" lon="-7.6904133"><ele>538.0</ele><time>2026-04-14T10:49:07.866Z</time></trkpt><trkpt lat="42.5122167" lon="-7.690585"><ele>538.0</ele><time>2026-04-14T10:49:08.865Z</time></trkpt><trkpt lat="42.5122583" lon="-7.6907767"><ele>538.0</ele><time>2026-04-14T10:49:09.865Z</time></trkpt><trkpt lat="42.5123167" lon="-7.6909833"><ele>538.3333333333334</ele><time>2026-04-14T10:49:10.865Z</time></trkpt><trkpt lat="42.5123717" lon="-7.6911717"><ele>538.6666666666666</ele><time>2026-04-14T10:49:11.866Z</time></trkpt><trkpt lat="42.5124317" lon="-7.6913833"><ele>539.0</ele><time>2026-04-14T10:49:12.865Z</time></trkpt><trkpt lat="42.512455" lon="-7.6915817"><ele>539.0</ele><time>2026-04-14T10:49:13.865Z</time></trkpt><trkpt lat="42.5124683" lon="-7.6917233"><ele>539.0</ele><time>2026-04-14T10:49:14.865Z</time></trkpt><trkpt lat="42.5124633" lon="-7.6918167"><ele>539.0</ele><time>2026-04-14T10:49:15.865Z</time></trkpt><trkpt lat="42.5124067" lon="-7.69198"><ele>539.0</ele><time>2026-04-14T10:49:17.866Z</time></trkpt><trkpt lat="42.5123483" lon="-7.6920633"><ele>539.0</ele><time>2026-04-14T10:49:18.865Z</time></trkpt><trkpt lat="42.5122733" lon="-7.6921283"><ele>537.75</ele><time>2026-04-14T10:49:19.866Z</time></trkpt><trkpt lat="42.5122033" lon="-7.6922533"><ele>536.5</ele><time>2026-04-14T10:49:20.866Z</time></trkpt><trkpt lat="42.5121267" lon="-7.6924083"><ele>535.25</ele><time>2026-04-14T10:49:21.865Z</time></trkpt><trkpt lat="42.5120467" lon="-7.6925717"><ele>534.0</ele><time>2026-04-14T10:49:22.865Z</time></trkpt><trkpt lat="42.5119783" lon="-7.6927183"><ele>536.8</ele><time>2026-04-14T10:49:23.865Z</time></trkpt><trkpt lat="42.51192" lon="-7.6928267"><ele>539.5999999999999</ele><time>2026-04-14T10:49:24.866Z</time></trkpt><trkpt lat="42.5118833" lon="-7.692915"><ele>542.4</ele><time>2026-04-14T10:49:25.865Z</time></trkpt><trkpt lat="42.51189" lon="-7.6930883"><ele>545.1999999999999</ele><time>2026-04-14T10:49:27.866Z</time></trkpt><trkpt lat="42.51192" lon="-7.6931767"><ele>548.0</ele><time>2026-04-14T10:49:28.866Z</time></trkpt><trkpt lat="42.5119483" lon="-7.6932733"><ele>548.0</ele><time>2026-04-14T10:49:29.865Z</time></trkpt><trkpt lat="42.5119567" lon="-7.693375"><ele>548.0</ele><time>2026-04-14T10:49:30.865Z</time></trkpt><trkpt lat="42.51194" lon="-7.6934867"><ele>548.0</ele><time>2026-04-14T10:49:31.865Z</time></trkpt><trkpt lat="42.5119017" lon="-7.69358"><ele>548.0</ele><time>2026-04-14T10:49:32.866Z</time></trkpt><trkpt lat="42.5118317" lon="-7.6936783"><ele>548.0</ele><time>2026-04-14T10:49:33.865Z</time></trkpt><trkpt lat="42.5117467" lon="-7.693755"><ele>548.0</ele><time>2026-04-14T10:49:34.866Z</time></trkpt><trkpt lat="42.5116583" lon="-7.6938167"><ele>547.75</ele><time>2026-04-14T10:49:35.865Z</time></trkpt><trkpt lat="42.511515" lon="-7.6938233"><ele>547.5</ele><time>2026-04-14T10:49:36.865Z</time></trkpt><trkpt lat="42.5113683" lon="-7.6938283"><ele>547.25</ele><time>2026-04-14T10:49:37.866Z</time></trkpt><trkpt lat="42.51123" lon="-7.6937983"><ele>547.0</ele><time>2026-04-14T10:49:38.866Z</time></trkpt><trkpt lat="42.5110967" lon="-7.6937267"><ele>547.0</ele><time>2026-04-14T10:49:39.866Z</time></trkpt><trkpt lat="42.510995" lon="-7.69367"><ele>547.0</ele><time>2026-04-14T10:49:40.866Z</time></trkpt><trkpt lat="42.5108033" lon="-7.69357"><ele>547.0</ele><time>2026-04-14T10:49:41.866Z</time></trkpt><trkpt lat="42.5107" lon="-7.6935533"><ele>547.0</ele><time>2026-04-14T10:49:42.865Z</time></trkpt><trkpt lat="42.5106183" lon="-7.6935983"><ele>547.0</ele><time>2026-04-14T10:49:43.866Z</time></trkpt><trkpt lat="42.510545" lon="-7.6937117"><ele>547.0</ele><time>2026-04-14T10:49:44.866Z</time></trkpt><trkpt lat="42.5104817" lon="-7.6938567"><ele>547.0</ele><time>2026-04-14T10:49:45.865Z</time></trkpt><trkpt lat="42.51043" lon="-7.6940867"><ele>547.0</ele><time>2026-04-14T10:49:46.865Z</time></trkpt><trkpt lat="42.5103783" lon="-7.6943383"><ele>552.3333333333334</ele><time>2026-04-14T10:49:47.865Z</time></trkpt><trkpt lat="42.51033" lon="-7.6945867"><ele>557.6666666666666</ele><time>2026-04-14T10:49:48.865Z</time></trkpt><trkpt lat="42.510299" lon="-7.6948049"><ele>563.0</ele><time>2026-04-14T10:49:49.865Z</time></trkpt><trkpt lat="42.5102897" lon="-7.6950261"><ele>563.0</ele><time>2026-04-14T10:49:50.866Z</time></trkpt><trkpt lat="42.5102927" lon="-7.695209"><ele>563.0</ele><time>2026-04-14T10:49:51.866Z</time></trkpt><trkpt lat="42.5103047" lon="-7.6953469"><ele>563.0</ele><time>2026-04-14T10:49:52.866Z</time></trkpt><trkpt lat="42.5103004" lon="-7.6954561"><ele>563.0</ele><time>2026-04-14T10:49:53.866Z</time></trkpt><trkpt lat="42.5102755" lon="-7.6955609"><ele>563.0</ele><time>2026-04-14T10:49:54.866Z</time></trkpt><trkpt lat="42.5102347" lon="-7.695684"><ele>559.5</ele><time>2026-04-14T10:49:55.866Z</time></trkpt><trkpt lat="42.5101615" lon="-7.6958317"><ele>556.0</ele><time>2026-04-14T10:49:56.865Z</time></trkpt><trkpt lat="42.51005" lon="-7.6959733"><ele>552.5</ele><time>2026-04-14T10:49:57.865Z</time></trkpt><trkpt lat="42.509933" lon="-7.6961086"><ele>549.0</ele><time>2026-04-14T10:49:58.866Z</time></trkpt><trkpt lat="42.5098183" lon="-7.6962332"><ele>550.75</ele><time>2026-04-14T10:49:59.866Z</time></trkpt><trkpt lat="42.509705" lon="-7.6963579"><ele>552.5</ele><time>2026-04-14T10:50:00.866Z</time></trkpt><trkpt lat="42.5096094" lon="-7.6964645"><ele>554.25</ele><time>2026-04-14T10:50:01.865Z</time></trkpt><trkpt lat="42.5095347" lon="-7.6965719"><ele>556.0</ele><time>2026-04-14T10:50:02.865Z</time></trkpt><trkpt lat="42.5094812" lon="-7.6966892"><ele>556.0</ele><time>2026-04-14T10:50:03.866Z</time></trkpt><trkpt lat="42.5094348" lon="-7.6968095"><ele>556.0</ele><time>2026-04-14T10:50:04.865Z</time></trkpt><trkpt lat="42.509392" lon="-7.6969163"><ele>556.0</ele><time>2026-04-14T10:50:05.865Z</time></trkpt><trkpt lat="42.509354" lon="-7.6970051"><ele>556.0</ele><time>2026-04-14T10:50:06.866Z</time></trkpt><trkpt lat="42.5093199" lon="-7.6970913"><ele>556.0</ele><time>2026-04-14T10:50:07.865Z</time></trkpt><trkpt lat="42.5092851" lon="-7.6971893"><ele>556.0</ele><time>2026-04-14T10:50:08.865Z</time></trkpt><trkpt lat="42.5092493" lon="-7.6972971"><ele>552.8</ele><time>2026-04-14T10:50:09.866Z</time></trkpt><trkpt lat="42.5092108" lon="-7.6974235"><ele>549.6</ele><time>2026-04-14T10:50:10.865Z</time></trkpt><trkpt lat="42.5091776" lon="-7.6975652"><ele>546.4</ele><time>2026-04-14T10:50:11.865Z</time></trkpt><trkpt lat="42.5091411" lon="-7.6977001"><ele>543.2</ele><time>2026-04-14T10:50:12.866Z</time></trkpt><trkpt lat="42.5091018" lon="-7.6978266"><ele>540.0</ele><time>2026-04-14T10:50:13.866Z</time></trkpt><trkpt lat="42.5090609" lon="-7.6979452"><ele>538.3333333333334</ele><time>2026-04-14T10:50:14.865Z</time></trkpt><trkpt lat="42.5090211" lon="-7.6980622"><ele>536.6666666666666</ele><time>2026-04-14T10:50:15.866Z</time></trkpt><trkpt lat="42.5089846" lon="-7.6981779"><ele>535.0</ele><time>2026-04-14T10:50:16.866Z</time></trkpt><trkpt lat="42.5089508" lon="-7.6982919"><ele>533.3333333333333</ele><time>2026-04-14T10:50:17.865Z</time></trkpt><trkpt lat="42.5089223" lon="-7.6984012"><ele>531.6666666666666</ele><time>2026-04-14T10:50:18.866Z</time></trkpt><trkpt lat="42.508894" lon="-7.6985064"><ele>530.0</ele><time>2026-04-14T10:50:19.865Z</time></trkpt><trkpt lat="42.508863" lon="-7.6986056"><ele>529.8333333333333</ele><time>2026-04-14T10:50:20.865Z</time></trkpt><trkpt lat="42.5088326" lon="-7.6987017"><ele>529.6666666666666</ele><time>2026-04-14T10:50:21.866Z</time></trkpt><trkpt lat="42.5088029" lon="-7.6987998"><ele>529.5</ele><time>2026-04-14T10:50:22.866Z</time></trkpt><trkpt lat="42.5087682" lon="-7.6989017"><ele>529.3333333333334</ele><time>2026-04-14T10:50:23.865Z</time></trkpt><trkpt lat="42.5087306" lon="-7.6989984"><ele>529.1666666666667</ele><time>2026-04-14T10:50:24.865Z</time></trkpt><trkpt lat="42.5087018" lon="-7.699095"><ele>529.0</ele><time>2026-04-14T10:50:25.866Z</time></trkpt><trkpt lat="42.5086738" lon="-7.6992134"><ele>529.0</ele><time>2026-04-14T10:50:26.866Z</time></trkpt><trkpt lat="42.5086805" lon="-7.6993195"><ele>529.0</ele><time>2026-04-14T10:50:27.866Z</time></trkpt><trkpt lat="42.5087063" lon="-7.6994174"><ele>529.0</ele><time>2026-04-14T10:50:28.865Z</time></trkpt><trkpt lat="42.5087517" lon="-7.6995051"><ele>529.0</ele><time>2026-04-14T10:50:29.866Z</time></trkpt><trkpt lat="42.5088201" lon="-7.6995849"><ele>529.0</ele><time>2026-04-14T10:50:30.865Z</time></trkpt><trkpt lat="42.5089062" lon="-7.6996563"><ele>529.0</ele><time>2026-04-14T10:50:31.866Z</time></trkpt><trkpt lat="42.5089969" lon="-7.6997296"><ele>528.4</ele><time>2026-04-14T10:50:32.866Z</time></trkpt><trkpt lat="42.5090825" lon="-7.6998108"><ele>527.8</ele><time>2026-04-14T10:50:33.865Z</time></trkpt><trkpt lat="42.5091583" lon="-7.6998978"><ele>527.2</ele><time>2026-04-14T10:50:34.866Z</time></trkpt><trkpt lat="42.5092222" lon="-7.6999877"><ele>526.6</ele><time>2026-04-14T10:50:35.865Z</time></trkpt><trkpt lat="42.5092761" lon="-7.7000838"><ele>526.0</ele><time>2026-04-14T10:50:36.865Z</time></trkpt><trkpt lat="42.5093166" lon="-7.7001777"><ele>527.1666666666667</ele><time>2026-04-14T10:50:37.865Z</time></trkpt><trkpt lat="42.5093537" lon="-7.7002716"><ele>528.3333333333334</ele><time>2026-04-14T10:50:38.865Z</time></trkpt><trkpt lat="42.509388" lon="-7.7003715"><ele>529.5</ele><time>2026-04-14T10:50:39.865Z</time></trkpt><trkpt lat="42.5094259" lon="-7.7004776"><ele>530.6666666666666</ele><time>2026-04-14T10:50:40.866Z</time></trkpt><trkpt lat="42.5094677" lon="-7.7005766"><ele>531.8333333333333</ele><time>2026-04-14T10:50:41.865Z</time></trkpt><trkpt lat="42.5095069" lon="-7.7006812"><ele>533.0</ele><time>2026-04-14T10:50:42.866Z</time></trkpt><trkpt lat="42.5095469" lon="-7.7007927"><ele>529.8</ele><time>2026-04-14T10:50:43.865Z</time></trkpt><trkpt lat="42.5095932" lon="-7.7009174"><ele>526.5999999999999</ele><time>2026-04-14T10:50:44.866Z</time></trkpt><trkpt lat="42.5096363" lon="-7.7010283"><ele>523.4000000000001</ele><time>2026-04-14T10:50:45.865Z</time></trkpt><trkpt lat="42.5096758" lon="-7.7011402"><ele>520.2</ele><time>2026-04-14T10:50:46.866Z</time></trkpt><trkpt lat="42.5097116" lon="-7.701246"><ele>517.0</ele><time>2026-04-14T10:50:47.866Z</time></trkpt><trkpt lat="42.5097452" lon="-7.7013509"><ele>517.0</ele><time>2026-04-14T10:50:48.866Z</time></trkpt><trkpt lat="42.5097716" lon="-7.7014447"><ele>517.0</ele><time>2026-04-14T10:50:49.865Z</time></trkpt><trkpt lat="42.5097991" lon="-7.7015716"><ele>517.0</ele><time>2026-04-14T10:50:51.866Z</time></trkpt><trkpt lat="42.5098041" lon="-7.7016584"><ele>517.0</ele><time>2026-04-14T10:50:53.866Z</time></trkpt><trkpt lat="42.5097896" lon="-7.7015327"><ele>517.0</ele><time>2026-04-14T10:51:02.865Z</time></trkpt><trkpt lat="42.5097494" lon="-7.7014267"><ele>517.0</ele><time>2026-04-14T10:51:03.866Z</time></trkpt><trkpt lat="42.5096732" lon="-7.7012947"><ele>522.3333333333334</ele><time>2026-04-14T10:51:04.865Z</time></trkpt><trkpt lat="42.5095563" lon="-7.7011405"><ele>527.6666666666666</ele><time>2026-04-14T10:51:05.866Z</time></trkpt><trkpt lat="42.5094412" lon="-7.7010028"><ele>533.0</ele><time>2026-04-14T10:51:06.866Z</time></trkpt><trkpt lat="42.5093144" lon="-7.7008668"><ele>533.0</ele><time>2026-04-14T10:51:07.866Z</time></trkpt><trkpt lat="42.5091819" lon="-7.7007353"><ele>533.0</ele><time>2026-04-14T10:51:08.866Z</time></trkpt><trkpt lat="42.5090507" lon="-7.7006541"><ele>533.0</ele><time>2026-04-14T10:51:09.865Z</time></trkpt><trkpt lat="42.5089218" lon="-7.7006111"><ele>533.0</ele><time>2026-04-14T10:51:10.865Z</time></trkpt><trkpt lat="42.5087859" lon="-7.700582"><ele>535.25</ele><time>2026-04-14T10:51:11.865Z</time></trkpt><trkpt lat="42.5086433" lon="-7.7005513"><ele>537.5</ele><time>2026-04-14T10:51:12.866Z</time></trkpt><trkpt lat="42.5085044" lon="-7.7005163"><ele>539.75</ele><time>2026-04-14T10:51:13.866Z</time></trkpt><trkpt lat="42.5083764" lon="-7.7004705"><ele>542.0</ele><time>2026-04-14T10:51:14.866Z</time></trkpt><trkpt lat="42.508244" lon="-7.700407"><ele>542.0</ele><time>2026-04-14T10:51:15.865Z</time></trkpt><trkpt lat="42.5081074" lon="-7.7003436"><ele>542.0</ele><time>2026-04-14T10:51:16.865Z</time></trkpt><trkpt lat="42.5079865" lon="-7.7003049"><ele>542.0</ele><time>2026-04-14T10:51:17.866Z</time></trkpt><trkpt lat="42.5078791" lon="-7.7002895"><ele>542.0</ele><time>2026-04-14T10:51:18.866Z</time></trkpt><trkpt lat="42.5077963" lon="-7.7002979"><ele>538.8000000000001</ele><time>2026-04-14T10:51:19.866Z</time></trkpt><trkpt lat="42.507732" lon="-7.7003348"><ele>535.6</ele><time>2026-04-14T10:51:20.866Z</time></trkpt><trkpt lat="42.5076741" lon="-7.7004025"><ele>532.4000000000001</ele><time>2026-04-14T10:51:21.866Z</time></trkpt><trkpt lat="42.5076231" lon="-7.7005244"><ele>529.2</ele><time>2026-04-14T10:51:22.866Z</time></trkpt><trkpt lat="42.5075531" lon="-7.7006779"><ele>526.0</ele><time>2026-04-14T10:51:23.866Z</time></trkpt><trkpt lat="42.5074482" lon="-7.7008763"><ele>526.0</ele><time>2026-04-14T10:51:24.866Z</time></trkpt><trkpt lat="42.5073251" lon="-7.7010793"><ele>526.0</ele><time>2026-04-14T10:51:25.866Z</time></trkpt><trkpt lat="42.5071955" lon="-7.7012927"><ele>526.0</ele><time>2026-04-14T10:51:26.865Z</time></trkpt><trkpt lat="42.5070814" lon="-7.7014948"><ele>523.25</ele><time>2026-04-14T10:51:27.865Z</time></trkpt><trkpt lat="42.5069742" lon="-7.7016447"><ele>520.5</ele><time>2026-04-14T10:51:28.865Z</time></trkpt><trkpt lat="42.5068698" lon="-7.7017824"><ele>517.75</ele><time>2026-04-14T10:51:29.865Z</time></trkpt><trkpt lat="42.5067694" lon="-7.701923"><ele>515.0</ele><time>2026-04-14T10:51:30.866Z</time></trkpt><trkpt lat="42.5066897" lon="-7.7020538"><ele>515.0</ele><time>2026-04-14T10:51:31.865Z</time></trkpt><trkpt lat="42.5066242" lon="-7.7021703"><ele>515.0</ele><time>2026-04-14T10:51:32.866Z</time></trkpt><trkpt lat="42.5065579" lon="-7.7022877"><ele>515.0</ele><time>2026-04-14T10:51:33.865Z</time></trkpt><trkpt lat="42.5064882" lon="-7.7023747"><ele>515.0</ele><time>2026-04-14T10:51:34.866Z</time></trkpt><trkpt lat="42.5064135" lon="-7.7024454"><ele>515.0</ele><time>2026-04-14T10:51:35.865Z</time></trkpt><trkpt lat="42.5063112" lon="-7.7025165"><ele>512.6666666666666</ele><time>2026-04-14T10:51:36.865Z</time></trkpt><trkpt lat="42.5061685" lon="-7.7025886"><ele>510.33333333333337</ele><time>2026-04-14T10:51:37.865Z</time></trkpt><trkpt lat="42.505988" lon="-7.7026674"><ele>508.0</ele><time>2026-04-14T10:51:38.865Z</time></trkpt><trkpt lat="42.5058056" lon="-7.7027607"><ele>508.0</ele><time>2026-04-14T10:51:39.865Z</time></trkpt><trkpt lat="42.5056383" lon="-7.7028559"><ele>508.0</ele><time>2026-04-14T10:51:40.866Z</time></trkpt><trkpt lat="42.5054932" lon="-7.7029468"><ele>508.0</ele><time>2026-04-14T10:51:41.866Z</time></trkpt><trkpt lat="42.5053625" lon="-7.7030543"><ele>498.0</ele><time>2026-04-14T10:51:42.866Z</time></trkpt><trkpt lat="42.5052305" lon="-7.7031515"><ele>488.0</ele><time>2026-04-14T10:51:43.865Z</time></trkpt><trkpt lat="42.5051002" lon="-7.7032557"><ele>478.0</ele><time>2026-04-14T10:51:44.865Z</time></trkpt><trkpt lat="42.5049689" lon="-7.7033724"><ele>478.0</ele><time>2026-04-14T10:51:45.865Z</time></trkpt><trkpt lat="42.5048353" lon="-7.7034854"><ele>478.0</ele><time>2026-04-14T10:51:46.866Z</time></trkpt><trkpt lat="42.5047133" lon="-7.7035965"><ele>478.0</ele><time>2026-04-14T10:51:47.866Z</time></trkpt><trkpt lat="42.5046099" lon="-7.7036862"><ele>478.0</ele><time>2026-04-14T10:51:48.865Z</time></trkpt><trkpt lat="42.504535" lon="-7.7037781"><ele>475.59999999999997</ele><time>2026-04-14T10:51:49.865Z</time></trkpt><trkpt lat="42.5044749" lon="-7.7038653"><ele>473.19999999999993</ele><time>2026-04-14T10:51:50.866Z</time></trkpt><trkpt lat="42.5044115" lon="-7.7039546"><ele>470.8</ele><time>2026-04-14T10:51:51.866Z</time></trkpt><trkpt lat="42.5043441" lon="-7.7040723"><ele>468.4</ele><time>2026-04-14T10:51:52.866Z</time></trkpt><trkpt lat="42.5042667" lon="-7.7042232"><ele>466.0</ele><time>2026-04-14T10:51:53.865Z</time></trkpt><trkpt lat="42.5041948" lon="-7.7044143"><ele>466.0</ele><time>2026-04-14T10:51:54.866Z</time></trkpt><trkpt lat="42.5041228" lon="-7.7045796"><ele>466.0</ele><time>2026-04-14T10:51:55.866Z</time></trkpt><trkpt lat="42.5040497" lon="-7.7047207"><ele>466.0</ele><time>2026-04-14T10:51:56.865Z</time></trkpt><trkpt lat="42.5039775" lon="-7.7048532"><ele>466.0</ele><time>2026-04-14T10:51:57.865Z</time></trkpt><trkpt lat="42.5038967" lon="-7.7049861"><ele>466.0</ele><time>2026-04-14T10:51:58.865Z</time></trkpt><trkpt lat="42.5038184" lon="-7.7051408"><ele>466.0</ele><time>2026-04-14T10:51:59.865Z</time></trkpt><trkpt lat="42.5037444" lon="-7.7053183"><ele>466.0</ele><time>2026-04-14T10:52:00.865Z</time></trkpt><trkpt lat="42.5036676" lon="-7.7054785"><ele>466.0</ele><time>2026-04-14T10:52:01.866Z</time></trkpt><trkpt lat="42.5035988" lon="-7.7056276"><ele>459.75</ele><time>2026-04-14T10:52:02.866Z</time></trkpt><trkpt lat="42.5035374" lon="-7.7057698"><ele>453.5</ele><time>2026-04-14T10:52:03.865Z</time></trkpt><trkpt lat="42.5034633" lon="-7.7058917"><ele>447.25</ele><time>2026-04-14T10:52:04.865Z</time></trkpt><trkpt lat="42.5033683" lon="-7.705995"><ele>441.0</ele><time>2026-04-14T10:52:05.866Z</time></trkpt><trkpt lat="42.5032733" lon="-7.7061017"><ele>441.0</ele><time>2026-04-14T10:52:06.866Z</time></trkpt><trkpt lat="42.5031967" lon="-7.7062183"><ele>441.0</ele><time>2026-04-14T10:52:07.866Z</time></trkpt><trkpt lat="42.5031533" lon="-7.7063433"><ele>441.0</ele><time>2026-04-14T10:52:08.865Z</time></trkpt><trkpt lat="42.5031383" lon="-7.7064433"><ele>441.0</ele><time>2026-04-14T10:52:09.865Z</time></trkpt><trkpt lat="42.5031933" lon="-7.7066067"><ele>441.0</ele><time>2026-04-14T10:52:11.866Z</time></trkpt><trkpt lat="42.5032667" lon="-7.7067"><ele>441.0</ele><time>2026-04-14T10:52:12.865Z</time></trkpt><trkpt lat="42.5033483" lon="-7.7068267"><ele>441.0</ele><time>2026-04-14T10:52:13.865Z</time></trkpt><trkpt lat="42.5034317" lon="-7.7069933"><ele>441.0</ele><time>2026-04-14T10:52:14.865Z</time></trkpt><trkpt lat="42.5035183" lon="-7.7071467"><ele>441.0</ele><time>2026-04-14T10:52:15.866Z</time></trkpt><trkpt lat="42.5036033" lon="-7.7073017"><ele>441.0</ele><time>2026-04-14T10:52:16.865Z</time></trkpt><trkpt lat="42.503675" lon="-7.7074383"><ele>441.0</ele><time>2026-04-14T10:52:17.865Z</time></trkpt><trkpt lat="42.5037417" lon="-7.70754"><ele>441.0</ele><time>2026-04-14T10:52:18.866Z</time></trkpt><trkpt lat="42.5037933" lon="-7.707625"><ele>441.0</ele><time>2026-04-14T10:52:19.865Z</time></trkpt><trkpt lat="42.5038667" lon="-7.7077333"><ele>441.0</ele><time>2026-04-14T10:52:21.866Z</time></trkpt><trkpt lat="42.5039167" lon="-7.7078033"><ele>436.4</ele><time>2026-04-14T10:52:22.866Z</time></trkpt><trkpt lat="42.50398" lon="-7.7078983"><ele>431.8</ele><time>2026-04-14T10:52:23.865Z</time></trkpt><trkpt lat="42.504055" lon="-7.7080017"><ele>427.2</ele><time>2026-04-14T10:52:24.865Z</time></trkpt><trkpt lat="42.504125" lon="-7.70809"><ele>422.59999999999997</ele><time>2026-04-14T10:52:25.865Z</time></trkpt><trkpt lat="42.5041967" lon="-7.7081783"><ele>418.0</ele><time>2026-04-14T10:52:26.866Z</time></trkpt><trkpt lat="42.504275" lon="-7.7082583"><ele>418.0</ele><time>2026-04-14T10:52:27.865Z</time></trkpt><trkpt lat="42.5043517" lon="-7.708325"><ele>418.0</ele><time>2026-04-14T10:52:28.865Z</time></trkpt><trkpt lat="42.5044283" lon="-7.7083683"><ele>418.0</ele><time>2026-04-14T10:52:29.866Z</time></trkpt><trkpt lat="42.5044933" lon="-7.7083817"><ele>418.0</ele><time>2026-04-14T10:52:30.865Z</time></trkpt><trkpt lat="42.5045567" lon="-7.7083883"><ele>418.0</ele><time>2026-04-14T10:52:32.865Z</time></trkpt><trkpt lat="42.5046117" lon="-7.7084333"><ele>418.0</ele><time>2026-04-14T10:52:34.866Z</time></trkpt><trkpt lat="42.504675" lon="-7.708465"><ele>418.0</ele><time>2026-04-14T10:52:35.865Z</time></trkpt><trkpt lat="42.5047583" lon="-7.7085117"><ele>418.2</ele><time>2026-04-14T10:52:36.866Z</time></trkpt><trkpt lat="42.504855" lon="-7.7085533"><ele>418.4</ele><time>2026-04-14T10:52:37.866Z</time></trkpt><trkpt lat="42.5049467" lon="-7.7086117"><ele>418.59999999999997</ele><time>2026-04-14T10:52:38.866Z</time></trkpt><trkpt lat="42.505015" lon="-7.7087083"><ele>418.79999999999995</ele><time>2026-04-14T10:52:39.865Z</time></trkpt><trkpt lat="42.5050583" lon="-7.70885"><ele>419.0</ele><time>2026-04-14T10:52:40.865Z</time></trkpt><trkpt lat="42.5051" lon="-7.7090267"><ele>419.0</ele><time>2026-04-14T10:52:41.866Z</time></trkpt><trkpt lat="42.5051383" lon="-7.7091967"><ele>419.0</ele><time>2026-04-14T10:52:42.865Z</time></trkpt><trkpt lat="42.5051733" lon="-7.7093583"><ele>419.0</ele><time>2026-04-14T10:52:43.866Z</time></trkpt><trkpt lat="42.505235" lon="-7.7094967"><ele>419.0</ele><time>2026-04-14T10:52:44.865Z</time></trkpt><trkpt lat="42.50532" lon="-7.7096233"><ele>421.16666666666663</ele><time>2026-04-14T10:52:45.865Z</time></trkpt><trkpt lat="42.5054033" lon="-7.7097417"><ele>423.3333333333333</ele><time>2026-04-14T10:52:46.866Z</time></trkpt><trkpt lat="42.5054583" lon="-7.70986"><ele>425.5</ele><time>2026-04-14T10:52:47.866Z</time></trkpt><trkpt lat="42.50549" lon="-7.709955"><ele>427.66666666666663</ele><time>2026-04-14T10:52:48.866Z</time></trkpt><trkpt lat="42.505505" lon="-7.710045"><ele>429.8333333333333</ele><time>2026-04-14T10:52:49.865Z</time></trkpt><trkpt lat="42.5055233" lon="-7.710135"><ele>432.0</ele><time>2026-04-14T10:52:50.866Z</time></trkpt><trkpt lat="42.505565" lon="-7.710225"><ele>428.0</ele><time>2026-04-14T10:52:51.866Z</time></trkpt><trkpt lat="42.5056217" lon="-7.7103083"><ele>424.0</ele><time>2026-04-14T10:52:52.866Z</time></trkpt><trkpt lat="42.5056733" lon="-7.710375"><ele>420.0</ele><time>2026-04-14T10:52:53.865Z</time></trkpt><trkpt lat="42.5057283" lon="-7.7104383"><ele>416.0</ele><time>2026-04-14T10:52:54.865Z</time></trkpt><trkpt lat="42.5057967" lon="-7.7104967"><ele>412.0</ele><time>2026-04-14T10:52:55.865Z</time></trkpt><trkpt lat="42.505895" lon="-7.7105333"><ele>408.0</ele><time>2026-04-14T10:52:56.866Z</time></trkpt><trkpt lat="42.50601" lon="-7.710535"><ele>408.0</ele><time>2026-04-14T10:52:57.866Z</time></trkpt><trkpt lat="42.5061283" lon="-7.7105283"><ele>408.0</ele><time>2026-04-14T10:52:58.865Z</time></trkpt><trkpt lat="42.5062067" lon="-7.7105083"><ele>408.0</ele><time>2026-04-14T10:52:59.866Z</time></trkpt><trkpt lat="42.5062817" lon="-7.7105133"><ele>408.0</ele><time>2026-04-14T10:53:01.865Z</time></trkpt><trkpt lat="42.5062317" lon="-7.71059"><ele>408.0</ele><time>2026-04-14T10:53:04.866Z</time></trkpt><trkpt lat="42.5061733" lon="-7.7106233"><ele>408.0</ele><time>2026-04-14T10:53:05.866Z</time></trkpt><trkpt lat="42.5060867" lon="-7.71066"><ele>408.0</ele><time>2026-04-14T10:53:06.865Z</time></trkpt><trkpt lat="42.5059717" lon="-7.710695"><ele>408.0</ele><time>2026-04-14T10:53:07.865Z</time></trkpt><trkpt lat="42.5058367" lon="-7.7107117"><ele>408.0</ele><time>2026-04-14T10:53:08.866Z</time></trkpt><trkpt lat="42.5056883" lon="-7.7106883"><ele>408.0</ele><time>2026-04-14T10:53:09.865Z</time></trkpt><trkpt lat="42.5055517" lon="-7.7106467"><ele>403.0</ele><time>2026-04-14T10:53:10.865Z</time></trkpt><trkpt lat="42.5054117" lon="-7.71057"><ele>398.0</ele><time>2026-04-14T10:53:11.865Z</time></trkpt><trkpt lat="42.505295" lon="-7.7104767"><ele>393.0</ele><time>2026-04-14T10:53:12.865Z</time></trkpt><trkpt lat="42.5051967" lon="-7.7103933"><ele>388.0</ele><time>2026-04-14T10:53:13.865Z</time></trkpt><trkpt lat="42.5051267" lon="-7.7103317"><ele>388.0</ele><time>2026-04-14T10:53:14.866Z</time></trkpt><trkpt lat="42.50508" lon="-7.7102667"><ele>388.0</ele><time>2026-04-14T10:53:16.865Z</time></trkpt><trkpt lat="42.5050483" lon="-7.7101683"><ele>388.0</ele><time>2026-04-14T10:53:18.865Z</time></trkpt><trkpt lat="42.5049983" lon="-7.7100083"><ele>388.0</ele><time>2026-04-14T10:53:20.865Z</time></trkpt><trkpt lat="42.5049483" lon="-7.70987"><ele>388.0</ele><time>2026-04-14T10:53:22.865Z</time></trkpt><trkpt lat="42.50489" lon="-7.7097867"><ele>388.59999999999997</ele><time>2026-04-14T10:53:24.865Z</time></trkpt><trkpt lat="42.5048067" lon="-7.709715"><ele>389.2</ele><time>2026-04-14T10:53:26.865Z</time></trkpt><trkpt lat="42.5047233" lon="-7.7096533"><ele>389.8</ele><time>2026-04-14T10:53:28.866Z</time></trkpt><trkpt lat="42.50464" lon="-7.70959"><ele>390.4</ele><time>2026-04-14T10:53:30.865Z</time></trkpt><trkpt lat="42.5045867" lon="-7.7094767"><ele>391.0</ele><time>2026-04-14T10:53:32.866Z</time></trkpt><trkpt lat="42.50454" lon="-7.709355"><ele>391.0</ele><time>2026-04-14T10:53:34.866Z</time></trkpt><trkpt lat="42.5044633" lon="-7.7092767"><ele>391.0</ele><time>2026-04-14T10:53:36.865Z</time></trkpt><trkpt lat="42.5043567" lon="-7.7092467"><ele>391.0</ele><time>2026-04-14T10:53:38.866Z</time></trkpt><trkpt lat="42.50425" lon="-7.7092067"><ele>391.0</ele><time>2026-04-14T10:53:40.865Z</time></trkpt><trkpt lat="42.5041517" lon="-7.7091683"><ele>391.0</ele><time>2026-04-14T10:53:42.865Z</time></trkpt><trkpt lat="42.5040733" lon="-7.70916"><ele>391.00000000000006</ele><time>2026-04-14T10:53:44.865Z</time></trkpt><trkpt lat="42.5039967" lon="-7.7091617"><ele>391.0</ele><time>2026-04-14T10:53:46.865Z</time></trkpt><trkpt lat="42.5039117" lon="-7.7091517"><ele>391.0</ele><time>2026-04-14T10:53:48.865Z</time></trkpt><trkpt lat="42.503845" lon="-7.7091283"><ele>391.0</ele><time>2026-04-14T10:53:50.866Z</time></trkpt><trkpt lat="42.5037883" lon="-7.7092"><ele>391.00000000000006</ele><time>2026-04-14T10:53:52.865Z</time></trkpt><trkpt lat="42.5036867" lon="-7.7092333"><ele>391.0</ele><time>2026-04-14T10:53:54.865Z</time></trkpt><trkpt lat="42.503585" lon="-7.709245"><ele>388.4</ele><time>2026-04-14T10:53:56.866Z</time></trkpt><trkpt lat="42.503475" lon="-7.709255"><ele>385.8</ele><time>2026-04-14T10:53:58.866Z</time></trkpt><trkpt lat="42.5033633" lon="-7.7092367"><ele>383.2</ele><time>2026-04-14T10:54:00.865Z</time></trkpt><trkpt lat="42.5032583" lon="-7.7091967"><ele>380.59999999999997</ele><time>2026-04-14T10:54:02.865Z</time></trkpt><trkpt lat="42.5031617" lon="-7.709175"><ele>378.0</ele><time>2026-04-14T10:54:04.865Z</time></trkpt><trkpt lat="42.5030833" lon="-7.709145"><ele>378.0</ele><time>2026-04-14T10:54:06.866Z</time></trkpt><trkpt lat="42.5029883" lon="-7.709115"><ele>378.0</ele><time>2026-04-14T10:54:08.866Z</time></trkpt><trkpt lat="42.5028733" lon="-7.7090583"><ele>378.0</ele><time>2026-04-14T10:54:10.866Z</time></trkpt><trkpt lat="42.5027817" lon="-7.7089817"><ele>378.0</ele><time>2026-04-14T10:54:12.866Z</time></trkpt><trkpt lat="42.502705" lon="-7.7089"><ele>378.0</ele><time>2026-04-14T10:54:14.866Z</time></trkpt><trkpt lat="42.50265" lon="-7.7088083"><ele>373.59999999999997</ele><time>2026-04-14T10:54:16.865Z</time></trkpt><trkpt lat="42.5026067" lon="-7.7087283"><ele>369.2</ele><time>2026-04-14T10:54:18.866Z</time></trkpt><trkpt lat="42.5025283" lon="-7.7087083"><ele>364.8</ele><time>2026-04-14T10:54:20.865Z</time></trkpt><trkpt lat="42.5024383" lon="-7.7087117"><ele>360.4</ele><time>2026-04-14T10:54:22.866Z</time></trkpt><trkpt lat="42.5023333" lon="-7.7087033"><ele>356.0</ele><time>2026-04-14T10:54:24.865Z</time></trkpt><trkpt lat="42.5022283" lon="-7.7086783"><ele>356.0</ele><time>2026-04-14T10:54:26.866Z</time></trkpt><trkpt lat="42.502135" lon="-7.7086233"><ele>356.0</ele><time>2026-04-14T10:54:28.866Z</time></trkpt><trkpt lat="42.50204" lon="-7.7085933"><ele>356.0</ele><time>2026-04-14T10:54:30.865Z</time></trkpt><trkpt lat="42.5019433" lon="-7.7085683"><ele>356.0</ele><time>2026-04-14T10:54:32.867Z</time></trkpt><trkpt lat="42.50184" lon="-7.70853"><ele>356.0</ele><time>2026-04-14T10:54:34.866Z</time></trkpt><trkpt lat="42.50174" lon="-7.708485"><ele>356.83333333333337</ele><time>2026-04-14T10:54:36.866Z</time></trkpt><trkpt lat="42.5016417" lon="-7.708445"><ele>357.6666666666667</ele><time>2026-04-14T10:54:38.866Z</time></trkpt><trkpt lat="42.5015617" lon="-7.7083983"><ele>358.5</ele><time>2026-04-14T10:54:40.866Z</time></trkpt><trkpt lat="42.5014717" lon="-7.7083433"><ele>359.3333333333333</ele><time>2026-04-14T10:54:42.866Z</time></trkpt><trkpt lat="42.50141" lon="-7.7083067"><ele>360.16666666666663</ele><time>2026-04-14T10:54:43.867Z</time></trkpt><trkpt lat="42.501335" lon="-7.7082533"><ele>361.0</ele><time>2026-04-14T10:54:44.867Z</time></trkpt><trkpt lat="42.50125" lon="-7.7081783"><ele>357.0</ele><time>2026-04-14T10:54:45.866Z</time></trkpt><trkpt lat="42.501165" lon="-7.708085"><ele>353.0</ele><time>2026-04-14T10:54:46.867Z</time></trkpt><trkpt lat="42.5010917" lon="-7.70799"><ele>349.0</ele><time>2026-04-14T10:54:47.866Z</time></trkpt><trkpt lat="42.501035" lon="-7.70788"><ele>345.0</ele><time>2026-04-14T10:54:48.866Z</time></trkpt><trkpt lat="42.5009983" lon="-7.7077517"><ele>341.0</ele><time>2026-04-14T10:54:49.866Z</time></trkpt><trkpt lat="42.5009917" lon="-7.7076183"><ele>341.0</ele><time>2026-04-14T10:54:50.866Z</time></trkpt><trkpt lat="42.5010117" lon="-7.7074467"><ele>341.0</ele><time>2026-04-14T10:54:51.866Z</time></trkpt><trkpt lat="42.5010317" lon="-7.7072833"><ele>341.0</ele><time>2026-04-14T10:54:52.866Z</time></trkpt><trkpt lat="42.5010317" lon="-7.7071433"><ele>341.0</ele><time>2026-04-14T10:54:53.866Z</time></trkpt><trkpt lat="42.5010467" lon="-7.7070067"><ele>338.20000000000005</ele><time>2026-04-14T10:54:54.866Z</time></trkpt><trkpt lat="42.5010617" lon="-7.7068633"><ele>335.40000000000003</ele><time>2026-04-14T10:54:55.866Z</time></trkpt><trkpt lat="42.5010783" lon="-7.706725"><ele>332.6</ele><time>2026-04-14T10:54:56.866Z</time></trkpt><trkpt lat="42.5010933" lon="-7.7065967"><ele>329.8</ele><time>2026-04-14T10:54:57.866Z</time></trkpt><trkpt lat="42.5011117" lon="-7.7064833"><ele>327.0</ele><time>2026-04-14T10:54:58.867Z</time></trkpt><trkpt lat="42.5011317" lon="-7.7063667"><ele>327.0</ele><time>2026-04-14T10:54:59.866Z</time></trkpt><trkpt lat="42.50116" lon="-7.706245"><ele>327.0</ele><time>2026-04-14T10:55:00.866Z</time></trkpt><trkpt lat="42.5011867" lon="-7.7061217"><ele>327.0</ele><time>2026-04-14T10:55:01.866Z</time></trkpt><trkpt lat="42.5012133" lon="-7.706"><ele>327.0</ele><time>2026-04-14T10:55:02.867Z</time></trkpt><trkpt lat="42.5012383" lon="-7.7058717"><ele>327.0</ele><time>2026-04-14T10:55:03.866Z</time></trkpt><trkpt lat="42.50127" lon="-7.70575"><ele>327.0</ele><time>2026-04-14T10:55:04.867Z</time></trkpt><trkpt lat="42.5013" lon="-7.705635"><ele>327.0</ele><time>2026-04-14T10:55:05.867Z</time></trkpt><trkpt lat="42.50133" lon="-7.70552"><ele>327.0</ele><time>2026-04-14T10:55:06.866Z</time></trkpt><trkpt lat="42.5013667" lon="-7.7054033"><ele>327.0</ele><time>2026-04-14T10:55:07.866Z</time></trkpt><trkpt lat="42.5014167" lon="-7.7052583"><ele>327.0</ele><time>2026-04-14T10:55:08.866Z</time></trkpt><trkpt lat="42.5014667" lon="-7.7051283"><ele>327.0</ele><time>2026-04-14T10:55:09.866Z</time></trkpt><trkpt lat="42.5015117" lon="-7.7049883"><ele>327.0</ele><time>2026-04-14T10:55:10.866Z</time></trkpt><trkpt lat="42.5015483" lon="-7.7048483"><ele>327.0</ele><time>2026-04-14T10:55:11.867Z</time></trkpt><trkpt lat="42.501575" lon="-7.704715"><ele>327.0</ele><time>2026-04-14T10:55:12.867Z</time></trkpt><trkpt lat="42.5015983" lon="-7.7046"><ele>327.0</ele><time>2026-04-14T10:55:13.866Z</time></trkpt><trkpt lat="42.5016017" lon="-7.704505"><ele>327.0</ele><time>2026-04-14T10:55:14.867Z</time></trkpt><trkpt lat="42.50161" lon="-7.7044167"><ele>327.0</ele><time>2026-04-14T10:55:15.866Z</time></trkpt><trkpt lat="42.5016133" lon="-7.70426"><ele>327.0</ele><time>2026-04-14T10:55:17.867Z</time></trkpt><trkpt lat="42.5016083" lon="-7.704095"><ele>327.0</ele><time>2026-04-14T10:55:19.866Z</time></trkpt><trkpt lat="42.5016133" lon="-7.7039133"><ele>327.0</ele><time>2026-04-14T10:55:21.866Z</time></trkpt><trkpt lat="42.501605" lon="-7.7038033"><ele>323.8333333333333</ele><time>2026-04-14T10:55:22.867Z</time></trkpt><trkpt lat="42.501595" lon="-7.7036833"><ele>320.6666666666667</ele><time>2026-04-14T10:55:23.866Z</time></trkpt><trkpt lat="42.50158" lon="-7.7035733"><ele>317.5</ele><time>2026-04-14T10:55:24.867Z</time></trkpt><trkpt lat="42.50157" lon="-7.7034833"><ele>314.33333333333337</ele><time>2026-04-14T10:55:25.866Z</time></trkpt><trkpt lat="42.5015417" lon="-7.7033783"><ele>311.1666666666667</ele><time>2026-04-14T10:55:27.867Z</time></trkpt><trkpt lat="42.501435" lon="-7.7033833"><ele>308.0</ele><time>2026-04-14T10:55:29.866Z</time></trkpt><trkpt lat="42.5013583" lon="-7.7034133"><ele>307.0</ele><time>2026-04-14T10:55:30.867Z</time></trkpt><trkpt lat="42.5012517" lon="-7.7034383"><ele>306.0</ele><time>2026-04-14T10:55:31.866Z</time></trkpt><trkpt lat="42.501115" lon="-7.7034517"><ele>305.0</ele><time>2026-04-14T10:55:32.867Z</time></trkpt><trkpt lat="42.50102" lon="-7.7034567"><ele>304.0</ele><time>2026-04-14T10:55:33.866Z</time></trkpt><trkpt lat="42.5009483" lon="-7.7034583"><ele>303.0</ele><time>2026-04-14T10:55:34.867Z</time></trkpt><trkpt lat="42.5008533" lon="-7.7034583"><ele>302.8333333333333</ele><time>2026-04-14T10:55:36.867Z</time></trkpt><trkpt lat="42.500775" lon="-7.7034517"><ele>302.6666666666667</ele><time>2026-04-14T10:55:38.867Z</time></trkpt><trkpt lat="42.5007" lon="-7.7034867"><ele>302.5</ele><time>2026-04-14T10:55:40.867Z</time></trkpt><trkpt lat="42.500645" lon="-7.7035333"><ele>302.33333333333337</ele><time>2026-04-14T10:55:41.866Z</time></trkpt><trkpt lat="42.5005583" lon="-7.7035817"><ele>302.1666666666667</ele><time>2026-04-14T10:55:43.867Z</time></trkpt><trkpt lat="42.5004617" lon="-7.7035667"><ele>302.0</ele><time>2026-04-14T10:55:45.867Z</time></trkpt><trkpt lat="42.500405" lon="-7.703475"><ele>301.6</ele><time>2026-04-14T10:55:47.866Z</time></trkpt><trkpt lat="42.500395" lon="-7.70331"><ele>301.2</ele><time>2026-04-14T10:55:49.867Z</time></trkpt><trkpt lat="42.5003917" lon="-7.703195"><ele>300.8</ele><time>2026-04-14T10:55:50.866Z</time></trkpt><trkpt lat="42.5003683" lon="-7.7030867"><ele>300.4</ele><time>2026-04-14T10:55:51.866Z</time></trkpt><trkpt lat="42.5003433" lon="-7.7029833"><ele>300.0</ele><time>2026-04-14T10:55:52.866Z</time></trkpt><trkpt lat="42.5003" lon="-7.70288"><ele>300.0</ele><time>2026-04-14T10:55:53.867Z</time></trkpt><trkpt lat="42.5002433" lon="-7.7027917"><ele>300.0</ele><time>2026-04-14T10:55:54.867Z</time></trkpt><trkpt lat="42.5001717" lon="-7.7027283"><ele>300.0</ele><time>2026-04-14T10:55:55.867Z</time></trkpt><trkpt lat="42.5000967" lon="-7.7026783"><ele>300.0</ele><time>2026-04-14T10:55:56.867Z</time></trkpt><trkpt lat="42.5000117" lon="-7.70262"><ele>300.0</ele><time>2026-04-14T10:55:57.866Z</time></trkpt><trkpt lat="42.499925" lon="-7.702565"><ele>300.0</ele><time>2026-04-14T10:55:58.866Z</time></trkpt><trkpt lat="42.4998417" lon="-7.702515"><ele>301.3333333333333</ele><time>2026-04-14T10:55:59.866Z</time></trkpt><trkpt lat="42.4997533" lon="-7.70247"><ele>302.6666666666667</ele><time>2026-04-14T10:56:00.866Z</time></trkpt><trkpt lat="42.4996683" lon="-7.7024267"><ele>304.0</ele><time>2026-04-14T10:56:01.866Z</time></trkpt><trkpt lat="42.499585" lon="-7.7023833"><ele>305.33333333333337</ele><time>2026-04-14T10:56:02.866Z</time></trkpt><trkpt lat="42.4995067" lon="-7.70234"><ele>306.6666666666667</ele><time>2026-04-14T10:56:03.866Z</time></trkpt><trkpt lat="42.4994367" lon="-7.702285"><ele>308.0</ele><time>2026-04-14T10:56:04.867Z</time></trkpt><trkpt lat="42.49937" lon="-7.702215"><ele>308.0</ele><time>2026-04-14T10:56:05.866Z</time></trkpt><trkpt lat="42.499305" lon="-7.702145"><ele>308.0</ele><time>2026-04-14T10:56:06.866Z</time></trkpt><trkpt lat="42.4992467" lon="-7.7020833"><ele>308.0</ele><time>2026-04-14T10:56:07.867Z</time></trkpt><trkpt lat="42.499185" lon="-7.702025"><ele>308.0</ele><time>2026-04-14T10:56:08.866Z</time></trkpt><trkpt lat="42.49911" lon="-7.7019683"><ele>308.0</ele><time>2026-04-14T10:56:09.866Z</time></trkpt><trkpt lat="42.499035" lon="-7.7019217"><ele>308.0</ele><time>2026-04-14T10:56:10.867Z</time></trkpt><trkpt lat="42.498955" lon="-7.7018767"><ele>312.5</ele><time>2026-04-14T10:56:11.867Z</time></trkpt><trkpt lat="42.49888" lon="-7.70184"><ele>317.0</ele><time>2026-04-14T10:56:12.867Z</time></trkpt><trkpt lat="42.4988067" lon="-7.7017983"><ele>321.5</ele><time>2026-04-14T10:56:13.867Z</time></trkpt><trkpt lat="42.49873" lon="-7.701745"><ele>326.0</ele><time>2026-04-14T10:56:14.867Z</time></trkpt><trkpt lat="42.4986583" lon="-7.7016783"><ele>330.5</ele><time>2026-04-14T10:56:15.866Z</time></trkpt><trkpt lat="42.4985983" lon="-7.7016017"><ele>335.0</ele><time>2026-04-14T10:56:16.866Z</time></trkpt><trkpt lat="42.4985367" lon="-7.7015117"><ele>336.33333333333337</ele><time>2026-04-14T10:56:17.866Z</time></trkpt><trkpt lat="42.49848" lon="-7.701425"><ele>337.6666666666667</ele><time>2026-04-14T10:56:18.866Z</time></trkpt><trkpt lat="42.49841" lon="-7.7013583"><ele>339.0</ele><time>2026-04-14T10:56:19.866Z</time></trkpt><trkpt lat="42.4983433" lon="-7.701295"><ele>340.3333333333333</ele><time>2026-04-14T10:56:20.867Z</time></trkpt><trkpt lat="42.4982783" lon="-7.701305"><ele>341.66666666666663</ele><time>2026-04-14T10:56:21.867Z</time></trkpt><trkpt lat="42.4982267" lon="-7.7013567"><ele>343.0</ele><time>2026-04-14T10:56:22.866Z</time></trkpt><trkpt lat="42.4981933" lon="-7.701475"><ele>343.0</ele><time>2026-04-14T10:56:23.866Z</time></trkpt><trkpt lat="42.49816" lon="-7.7016217"><ele>343.0</ele><time>2026-04-14T10:56:24.867Z</time></trkpt><trkpt lat="42.4981267" lon="-7.7017667"><ele>343.0</ele><time>2026-04-14T10:56:25.866Z</time></trkpt><trkpt lat="42.498105" lon="-7.701895"><ele>343.0</ele><time>2026-04-14T10:56:26.867Z</time></trkpt><trkpt lat="42.498105" lon="-7.7020383"><ele>343.0</ele><time>2026-04-14T10:56:27.867Z</time></trkpt><trkpt lat="42.4981" lon="-7.7021683"><ele>339.4</ele><time>2026-04-14T10:56:28.866Z</time></trkpt><trkpt lat="42.49808" lon="-7.702295"><ele>335.79999999999995</ele><time>2026-04-14T10:56:29.867Z</time></trkpt><trkpt lat="42.4980417" lon="-7.70241"><ele>332.2</ele><time>2026-04-14T10:56:30.867Z</time></trkpt><trkpt lat="42.4979833" lon="-7.7025233"><ele>328.6</ele><time>2026-04-14T10:56:31.866Z</time></trkpt><trkpt lat="42.4979167" lon="-7.7026183"><ele>325.0</ele><time>2026-04-14T10:56:32.867Z</time></trkpt><trkpt lat="42.49784" lon="-7.7026967"><ele>327.8</ele><time>2026-04-14T10:56:33.867Z</time></trkpt><trkpt lat="42.4977617" lon="-7.7027133"><ele>330.6</ele><time>2026-04-14T10:56:34.867Z</time></trkpt><trkpt lat="42.497675" lon="-7.702755"><ele>333.4</ele><time>2026-04-14T10:56:35.866Z</time></trkpt><trkpt lat="42.4975683" lon="-7.702775"><ele>336.2</ele><time>2026-04-14T10:56:36.866Z</time></trkpt><trkpt lat="42.4974633" lon="-7.7027917"><ele>339.0</ele><time>2026-04-14T10:56:37.866Z</time></trkpt><trkpt lat="42.4973617" lon="-7.70281"><ele>339.0</ele><time>2026-04-14T10:56:38.866Z</time></trkpt><trkpt lat="42.4972533" lon="-7.7028233"><ele>339.0</ele><time>2026-04-14T10:56:39.867Z</time></trkpt><trkpt lat="42.497145" lon="-7.7028383"><ele>339.0</ele><time>2026-04-14T10:56:40.867Z</time></trkpt><trkpt lat="42.4970383" lon="-7.702845"><ele>339.0</ele><time>2026-04-14T10:56:41.867Z</time></trkpt><trkpt lat="42.4969333" lon="-7.7028567"><ele>339.0</ele><time>2026-04-14T10:56:42.867Z</time></trkpt><trkpt lat="42.4968317" lon="-7.7028733"><ele>343.2</ele><time>2026-04-14T10:56:43.867Z</time></trkpt><trkpt lat="42.4967367" lon="-7.702905"><ele>347.4</ele><time>2026-04-14T10:56:44.866Z</time></trkpt><trkpt lat="42.4966333" lon="-7.702935"><ele>351.6</ele><time>2026-04-14T10:56:45.867Z</time></trkpt><trkpt lat="42.49654" lon="-7.7029633"><ele>355.8</ele><time>2026-04-14T10:56:46.866Z</time></trkpt><trkpt lat="42.4964417" lon="-7.7029883"><ele>360.0</ele><time>2026-04-14T10:56:47.867Z</time></trkpt><trkpt lat="42.496345" lon="-7.7030033"><ele>358.8</ele><time>2026-04-14T10:56:48.866Z</time></trkpt><trkpt lat="42.4962333" lon="-7.702995"><ele>357.6</ele><time>2026-04-14T10:56:49.866Z</time></trkpt><trkpt lat="42.4961267" lon="-7.7029683"><ele>356.4</ele><time>2026-04-14T10:56:50.867Z</time></trkpt><trkpt lat="42.4960183" lon="-7.7029167"><ele>355.2</ele><time>2026-04-14T10:56:51.867Z</time></trkpt><trkpt lat="42.4959233" lon="-7.7028467"><ele>354.0</ele><time>2026-04-14T10:56:52.867Z</time></trkpt><trkpt lat="42.4958467" lon="-7.70277"><ele>359.6</ele><time>2026-04-14T10:56:53.866Z</time></trkpt><trkpt lat="42.4957833" lon="-7.70269"><ele>365.2</ele><time>2026-04-14T10:56:54.866Z</time></trkpt><trkpt lat="42.4957417" lon="-7.70259"><ele>370.8</ele><time>2026-04-14T10:56:55.866Z</time></trkpt><trkpt lat="42.495705" lon="-7.702475"><ele>376.40000000000003</ele><time>2026-04-14T10:56:56.867Z</time></trkpt><trkpt lat="42.49568" lon="-7.7023433"><ele>382.0</ele><time>2026-04-14T10:56:57.867Z</time></trkpt><trkpt lat="42.49566" lon="-7.70222"><ele>382.0</ele><time>2026-04-14T10:56:58.867Z</time></trkpt><trkpt lat="42.49563" lon="-7.7021167"><ele>382.0</ele><time>2026-04-14T10:56:59.867Z</time></trkpt><trkpt lat="42.4955767" lon="-7.7019917"><ele>382.0</ele><time>2026-04-14T10:57:01.866Z</time></trkpt><trkpt lat="42.495475" lon="-7.7019933"><ele>382.0</ele><time>2026-04-14T10:57:04.866Z</time></trkpt><trkpt lat="42.4953417" lon="-7.7020917"><ele>382.0</ele><time>2026-04-14T10:57:05.866Z</time></trkpt><trkpt lat="42.4952133" lon="-7.70216"><ele>384.25</ele><time>2026-04-14T10:57:06.867Z</time></trkpt><trkpt lat="42.49511" lon="-7.7021883"><ele>386.5</ele><time>2026-04-14T10:57:07.866Z</time></trkpt><trkpt lat="42.4949933" lon="-7.7021967"><ele>388.75</ele><time>2026-04-14T10:57:08.867Z</time></trkpt><trkpt lat="42.4948817" lon="-7.7021733"><ele>391.0</ele><time>2026-04-14T10:57:09.867Z</time></trkpt><trkpt lat="42.4947567" lon="-7.7021567"><ele>391.0</ele><time>2026-04-14T10:57:10.867Z</time></trkpt><trkpt lat="42.4946367" lon="-7.7021517"><ele>391.0</ele><time>2026-04-14T10:57:11.866Z</time></trkpt><trkpt lat="42.494515" lon="-7.702175"><ele>391.0</ele><time>2026-04-14T10:57:12.867Z</time></trkpt><trkpt lat="42.4944067" lon="-7.7022"><ele>391.0</ele><time>2026-04-14T10:57:13.867Z</time></trkpt><trkpt lat="42.4942983" lon="-7.7022333"><ele>394.0</ele><time>2026-04-14T10:57:14.866Z</time></trkpt><trkpt lat="42.49418" lon="-7.7022767"><ele>397.0</ele><time>2026-04-14T10:57:15.867Z</time></trkpt><trkpt lat="42.4940567" lon="-7.7023033"><ele>400.0</ele><time>2026-04-14T10:57:16.867Z</time></trkpt><trkpt lat="42.4939383" lon="-7.7023233"><ele>403.0</ele><time>2026-04-14T10:57:17.867Z</time></trkpt><trkpt lat="42.49382" lon="-7.7023283"><ele>403.25</ele><time>2026-04-14T10:57:18.866Z</time></trkpt><trkpt lat="42.4937083" lon="-7.7023133"><ele>403.5</ele><time>2026-04-14T10:57:19.867Z</time></trkpt><trkpt lat="42.49358" lon="-7.7023017"><ele>403.75</ele><time>2026-04-14T10:57:20.866Z</time></trkpt><trkpt lat="42.4934617" lon="-7.7022533"><ele>404.0</ele><time>2026-04-14T10:57:21.866Z</time></trkpt><trkpt lat="42.4933617" lon="-7.7021933"><ele>404.0</ele><time>2026-04-14T10:57:22.867Z</time></trkpt><trkpt lat="42.493275" lon="-7.7021133"><ele>404.0</ele><time>2026-04-14T10:57:23.867Z</time></trkpt><trkpt lat="42.4932083" lon="-7.7020283"><ele>404.0</ele><time>2026-04-14T10:57:24.866Z</time></trkpt><trkpt lat="42.49315" lon="-7.7019217"><ele>404.0</ele><time>2026-04-14T10:57:25.866Z</time></trkpt><trkpt lat="42.493115" lon="-7.7017967"><ele>404.0</ele><time>2026-04-14T10:57:26.866Z</time></trkpt><trkpt lat="42.4931017" lon="-7.7016467"><ele>404.2</ele><time>2026-04-14T10:57:27.866Z</time></trkpt><trkpt lat="42.4930783" lon="-7.7015033"><ele>404.4</ele><time>2026-04-14T10:57:28.866Z</time></trkpt><trkpt lat="42.4930467" lon="-7.7013717"><ele>404.6</ele><time>2026-04-14T10:57:29.866Z</time></trkpt><trkpt lat="42.4930083" lon="-7.7012367"><ele>404.8</ele><time>2026-04-14T10:57:30.866Z</time></trkpt><trkpt lat="42.4929667" lon="-7.701095"><ele>405.0</ele><time>2026-04-14T10:57:31.867Z</time></trkpt><trkpt lat="42.4929217" lon="-7.700945"><ele>405.0</ele><time>2026-04-14T10:57:32.867Z</time></trkpt><trkpt lat="42.4928817" lon="-7.7007917"><ele>405.0</ele><time>2026-04-14T10:57:33.866Z</time></trkpt><trkpt lat="42.4928417" lon="-7.700635"><ele>405.0</ele><time>2026-04-14T10:57:34.867Z</time></trkpt><trkpt lat="42.4928017" lon="-7.7004817"><ele>405.0</ele><time>2026-04-14T10:57:35.867Z</time></trkpt><trkpt lat="42.4927583" lon="-7.70033"><ele>408.25</ele><time>2026-04-14T10:57:36.866Z</time></trkpt><trkpt lat="42.4927317" lon="-7.7001733"><ele>411.5</ele><time>2026-04-14T10:57:37.867Z</time></trkpt><trkpt lat="42.4927133" lon="-7.7000217"><ele>414.75</ele><time>2026-04-14T10:57:38.867Z</time></trkpt><trkpt lat="42.492715" lon="-7.6998633"><ele>418.0</ele><time>2026-04-14T10:57:39.867Z</time></trkpt><trkpt lat="42.49272" lon="-7.6997133"><ele>418.0</ele><time>2026-04-14T10:57:40.866Z</time></trkpt><trkpt lat="42.492725" lon="-7.6995617"><ele>418.0</ele><time>2026-04-14T10:57:41.866Z</time></trkpt><trkpt lat="42.49273" lon="-7.6994117"><ele>418.0</ele><time>2026-04-14T10:57:42.866Z</time></trkpt><trkpt lat="42.4927133" lon="-7.6992667"><ele>418.0</ele><time>2026-04-14T10:57:43.866Z</time></trkpt><trkpt lat="42.49268" lon="-7.69913"><ele>418.0</ele><time>2026-04-14T10:57:44.866Z</time></trkpt><trkpt lat="42.4926467" lon="-7.6989933"><ele>423.0</ele><time>2026-04-14T10:57:45.866Z</time></trkpt><trkpt lat="42.4926067" lon="-7.69885"><ele>428.0</ele><time>2026-04-14T10:57:46.867Z</time></trkpt><trkpt lat="42.4925683" lon="-7.6986983"><ele>433.0</ele><time>2026-04-14T10:57:47.867Z</time></trkpt><trkpt lat="42.4925367" lon="-7.698545"><ele>438.0</ele><time>2026-04-14T10:57:48.866Z</time></trkpt><trkpt lat="42.4924983" lon="-7.6984033"><ele>443.4</ele><time>2026-04-14T10:57:49.866Z</time></trkpt><trkpt lat="42.492455" lon="-7.6982683"><ele>448.79999999999995</ele><time>2026-04-14T10:57:50.867Z</time></trkpt><trkpt lat="42.4924" lon="-7.69814"><ele>454.2</ele><time>2026-04-14T10:57:51.866Z</time></trkpt><trkpt lat="42.49232" lon="-7.6980367"><ele>459.6</ele><time>2026-04-14T10:57:52.867Z</time></trkpt><trkpt lat="42.4922217" lon="-7.6979583"><ele>465.0</ele><time>2026-04-14T10:57:53.867Z</time></trkpt><trkpt lat="42.4921183" lon="-7.6979067"><ele>461.0</ele><time>2026-04-14T10:57:54.866Z</time></trkpt><trkpt lat="42.4920117" lon="-7.6978667"><ele>457.0</ele><time>2026-04-14T10:57:55.866Z</time></trkpt><trkpt lat="42.4918783" lon="-7.6978483"><ele>453.0</ele><time>2026-04-14T10:57:56.867Z</time></trkpt><trkpt lat="42.4917567" lon="-7.697815"><ele>449.0</ele><time>2026-04-14T10:57:57.866Z</time></trkpt><trkpt lat="42.491625" lon="-7.69778"><ele>453.25</ele><time>2026-04-14T10:57:58.866Z</time></trkpt><trkpt lat="42.4915033" lon="-7.697725"><ele>457.5</ele><time>2026-04-14T10:57:59.866Z</time></trkpt><trkpt lat="42.4913867" lon="-7.6976667"><ele>461.75</ele><time>2026-04-14T10:58:00.866Z</time></trkpt><trkpt lat="42.4912767" lon="-7.6976083"><ele>466.0</ele><time>2026-04-14T10:58:01.866Z</time></trkpt><trkpt lat="42.4911683" lon="-7.6975517"><ele>466.0</ele><time>2026-04-14T10:58:02.866Z</time></trkpt><trkpt lat="42.4910583" lon="-7.697495"><ele>466.0</ele><time>2026-04-14T10:58:03.866Z</time></trkpt><trkpt lat="42.4909417" lon="-7.6974567"><ele>466.0</ele><time>2026-04-14T10:58:04.867Z</time></trkpt><trkpt lat="42.49083" lon="-7.6974233"><ele>466.0</ele><time>2026-04-14T10:58:05.866Z</time></trkpt><trkpt lat="42.4907283" lon="-7.6973783"><ele>466.0</ele><time>2026-04-14T10:58:06.866Z</time></trkpt><trkpt lat="42.4906333" lon="-7.697315"><ele>466.0</ele><time>2026-04-14T10:58:07.867Z</time></trkpt><trkpt lat="42.490545" lon="-7.69722"><ele>466.0</ele><time>2026-04-14T10:58:08.867Z</time></trkpt><trkpt lat="42.4904617" lon="-7.6971033"><ele>466.0</ele><time>2026-04-14T10:58:09.867Z</time></trkpt><trkpt lat="42.490395" lon="-7.6969817"><ele>465.6</ele><time>2026-04-14T10:58:10.866Z</time></trkpt><trkpt lat="42.4903483" lon="-7.6968667"><ele>465.20000000000005</ele><time>2026-04-14T10:58:11.866Z</time></trkpt><trkpt lat="42.4903" lon="-7.6967433"><ele>464.79999999999995</ele><time>2026-04-14T10:58:12.867Z</time></trkpt><trkpt lat="42.4902717" lon="-7.69663"><ele>464.4</ele><time>2026-04-14T10:58:13.866Z</time></trkpt><trkpt lat="42.4902517" lon="-7.696505"><ele>464.0</ele><time>2026-04-14T10:58:14.867Z</time></trkpt><trkpt lat="42.4902333" lon="-7.6963717"><ele>463.99999999999994</ele><time>2026-04-14T10:58:15.867Z</time></trkpt><trkpt lat="42.4901917" lon="-7.69627"><ele>464.0</ele><time>2026-04-14T10:58:16.866Z</time></trkpt><trkpt lat="42.490135" lon="-7.69623"><ele>464.0</ele><time>2026-04-14T10:58:17.867Z</time></trkpt><trkpt lat="42.49007" lon="-7.6962317"><ele>464.0</ele><time>2026-04-14T10:58:18.867Z</time></trkpt><trkpt lat="42.4900083" lon="-7.6962933"><ele>463.99999999999994</ele><time>2026-04-14T10:58:19.867Z</time></trkpt><trkpt lat="42.48993" lon="-7.6963867"><ele>464.0</ele><time>2026-04-14T10:58:20.866Z</time></trkpt><trkpt lat="42.4898667" lon="-7.6965283"><ele>464.0</ele><time>2026-04-14T10:58:21.867Z</time></trkpt><trkpt lat="42.4898283" lon="-7.6966717"><ele>464.0</ele><time>2026-04-14T10:58:22.867Z</time></trkpt><trkpt lat="42.4898067" lon="-7.6967733"><ele>464.0</ele><time>2026-04-14T10:58:23.866Z</time></trkpt><trkpt lat="42.4897333" lon="-7.6967883"><ele>464.0</ele><time>2026-04-14T10:58:26.866Z</time></trkpt><trkpt lat="42.4897233" lon="-7.6966967"><ele>464.0</ele><time>2026-04-14T10:58:28.866Z</time></trkpt><trkpt lat="42.4897833" lon="-7.69652"><ele>463.99999999999994</ele><time>2026-04-14T10:58:30.866Z</time></trkpt><trkpt lat="42.4898333" lon="-7.696435"><ele>464.0</ele><time>2026-04-14T10:58:31.867Z</time></trkpt><trkpt lat="42.4898767" lon="-7.6963683"><ele>464.0</ele><time>2026-04-14T10:58:32.866Z</time></trkpt><trkpt lat="42.4899183" lon="-7.696285"><ele>464.0</ele><time>2026-04-14T10:58:34.867Z</time></trkpt><trkpt lat="42.4899433" lon="-7.6962033"><ele>463.99999999999994</ele><time>2026-04-14T10:58:36.867Z</time></trkpt><trkpt lat="42.4898583" lon="-7.696135"><ele>464.0</ele><time>2026-04-14T10:58:39.866Z</time></trkpt><trkpt lat="42.48976" lon="-7.6960717"><ele>467.5</ele><time>2026-04-14T10:58:41.866Z</time></trkpt><trkpt lat="42.4896967" lon="-7.69596"><ele>471.0</ele><time>2026-04-14T10:58:43.866Z</time></trkpt><trkpt lat="42.4896483" lon="-7.695825"><ele>474.5</ele><time>2026-04-14T10:58:45.866Z</time></trkpt><trkpt lat="42.4896167" lon="-7.695675"><ele>478.0</ele><time>2026-04-14T10:58:47.867Z</time></trkpt><trkpt lat="42.489605" lon="-7.69551"><ele>478.00000000000006</ele><time>2026-04-14T10:58:49.867Z</time></trkpt><trkpt lat="42.4896067" lon="-7.6954133"><ele>478.0</ele><time>2026-04-14T10:58:50.867Z</time></trkpt><trkpt lat="42.489605" lon="-7.695315"><ele>478.00000000000006</ele><time>2026-04-14T10:58:51.866Z</time></trkpt><trkpt lat="42.4896" lon="-7.6952083"><ele>478.00000000000006</ele><time>2026-04-14T10:58:52.866Z</time></trkpt><trkpt lat="42.4895983" lon="-7.6951067"><ele>478.0</ele><time>2026-04-14T10:58:53.867Z</time></trkpt><trkpt lat="42.4896083" lon="-7.6950117"><ele>478.00000000000006</ele><time>2026-04-14T10:58:54.867Z</time></trkpt><trkpt lat="42.4896183" lon="-7.6949117"><ele>478.00000000000006</ele><time>2026-04-14T10:58:55.866Z</time></trkpt><trkpt lat="42.4896517" lon="-7.6948333"><ele>479.83333333333337</ele><time>2026-04-14T10:58:56.866Z</time></trkpt><trkpt lat="42.4897017" lon="-7.6947733"><ele>481.6666666666667</ele><time>2026-04-14T10:58:57.866Z</time></trkpt><trkpt lat="42.4897683" lon="-7.6947217"><ele>483.5</ele><time>2026-04-14T10:58:58.866Z</time></trkpt><trkpt lat="42.489835" lon="-7.69468"><ele>485.33333333333337</ele><time>2026-04-14T10:58:59.866Z</time></trkpt><trkpt lat="42.4899017" lon="-7.69467"><ele>487.1666666666667</ele><time>2026-04-14T10:59:00.866Z</time></trkpt><trkpt lat="42.4899733" lon="-7.6946567"><ele>489.0</ele><time>2026-04-14T10:59:01.867Z</time></trkpt><trkpt lat="42.4900667" lon="-7.6945967"><ele>489.0</ele><time>2026-04-14T10:59:02.866Z</time></trkpt><trkpt lat="42.4901233" lon="-7.6945317"><ele>489.0</ele><time>2026-04-14T10:59:03.867Z</time></trkpt><trkpt lat="42.49017" lon="-7.6944583"><ele>489.0</ele><time>2026-04-14T10:59:04.867Z</time></trkpt><trkpt lat="42.4902167" lon="-7.6943917"><ele>489.0</ele><time>2026-04-14T10:59:05.866Z</time></trkpt><trkpt lat="42.490265" lon="-7.6943167"><ele>489.0</ele><time>2026-04-14T10:59:06.866Z</time></trkpt><trkpt lat="42.4903283" lon="-7.6942217"><ele>489.0</ele><time>2026-04-14T10:59:07.867Z</time></trkpt><trkpt lat="42.490315" lon="-7.6940833"><ele>490.79999999999995</ele><time>2026-04-14T10:59:08.867Z</time></trkpt><trkpt lat="42.49029" lon="-7.6939317"><ele>492.59999999999997</ele><time>2026-04-14T10:59:09.866Z</time></trkpt><trkpt lat="42.49025" lon="-7.6938133"><ele>494.4</ele><time>2026-04-14T10:59:10.867Z</time></trkpt><trkpt lat="42.4901983" lon="-7.6937033"><ele>496.2</ele><time>2026-04-14T10:59:11.866Z</time></trkpt><trkpt lat="42.49014" lon="-7.6936033"><ele>498.0</ele><time>2026-04-14T10:59:12.866Z</time></trkpt><trkpt lat="42.4900917" lon="-7.69351"><ele>499.5</ele><time>2026-04-14T10:59:13.867Z</time></trkpt><trkpt lat="42.49006" lon="-7.6934183"><ele>501.0</ele><time>2026-04-14T10:59:14.866Z</time></trkpt><trkpt lat="42.4900517" lon="-7.69331"><ele>502.5</ele><time>2026-04-14T10:59:15.866Z</time></trkpt><trkpt lat="42.490065" lon="-7.69321"><ele>504.0</ele><time>2026-04-14T10:59:16.866Z</time></trkpt><trkpt lat="42.490095" lon="-7.693115"><ele>505.5</ele><time>2026-04-14T10:59:17.867Z</time></trkpt><trkpt lat="42.4901367" lon="-7.6930217"><ele>507.0</ele><time>2026-04-14T10:59:18.867Z</time></trkpt><trkpt lat="42.4901967" lon="-7.69292"><ele>507.0</ele><time>2026-04-14T10:59:19.866Z</time></trkpt><trkpt lat="42.4902633" lon="-7.6928083"><ele>507.0</ele><time>2026-04-14T10:59:20.866Z</time></trkpt><trkpt lat="42.4903283" lon="-7.6927117"><ele>507.0</ele><time>2026-04-14T10:59:21.867Z</time></trkpt><trkpt lat="42.4903783" lon="-7.6926283"><ele>507.0</ele><time>2026-04-14T10:59:22.866Z</time></trkpt><trkpt lat="42.4904167" lon="-7.6925583"><ele>507.0</ele><time>2026-04-14T10:59:23.866Z</time></trkpt><trkpt lat="42.490495" lon="-7.6924717"><ele>507.0</ele><time>2026-04-14T10:59:25.867Z</time></trkpt><trkpt lat="42.4905867" lon="-7.6923567"><ele>508.6666666666667</ele><time>2026-04-14T10:59:27.866Z</time></trkpt><trkpt lat="42.490635" lon="-7.6923017"><ele>510.33333333333337</ele><time>2026-04-14T10:59:28.867Z</time></trkpt><trkpt lat="42.4907067" lon="-7.692185"><ele>512.0</ele><time>2026-04-14T10:59:30.867Z</time></trkpt><trkpt lat="42.490745" lon="-7.6921"><ele>513.6666666666667</ele><time>2026-04-14T10:59:31.866Z</time></trkpt><trkpt lat="42.490795" lon="-7.69201"><ele>515.3333333333334</ele><time>2026-04-14T10:59:32.866Z</time></trkpt><trkpt lat="42.490845" lon="-7.6918967"><ele>517.0</ele><time>2026-04-14T10:59:33.867Z</time></trkpt><trkpt lat="42.4909067" lon="-7.6917767"><ele>519.0</ele><time>2026-04-14T10:59:34.866Z</time></trkpt><trkpt lat="42.4909617" lon="-7.691675"><ele>521.0</ele><time>2026-04-14T10:59:35.866Z</time></trkpt><trkpt lat="42.491025" lon="-7.691575"><ele>523.0</ele><time>2026-04-14T10:59:36.867Z</time></trkpt><trkpt lat="42.4911" lon="-7.6914917"><ele>525.0</ele><time>2026-04-14T10:59:37.867Z</time></trkpt><trkpt lat="42.4911733" lon="-7.6914267"><ele>527.0</ele><time>2026-04-14T10:59:38.866Z</time></trkpt><trkpt lat="42.4912533" lon="-7.6913717"><ele>527.6666666666666</ele><time>2026-04-14T10:59:39.866Z</time></trkpt><trkpt lat="42.4913283" lon="-7.6913417"><ele>528.3333333333333</ele><time>2026-04-14T10:59:40.867Z</time></trkpt><trkpt lat="42.491395" lon="-7.6913233"><ele>529.0</ele><time>2026-04-14T10:59:41.867Z</time></trkpt><trkpt lat="42.4914617" lon="-7.6913133"><ele>529.6666666666666</ele><time>2026-04-14T10:59:42.866Z</time></trkpt><trkpt lat="42.4915367" lon="-7.6912867"><ele>530.3333333333334</ele><time>2026-04-14T10:59:43.866Z</time></trkpt><trkpt lat="42.4916133" lon="-7.6912317"><ele>531.0</ele><time>2026-04-14T10:59:44.867Z</time></trkpt><trkpt lat="42.4916817" lon="-7.6911667"><ele>531.8</ele><time>2026-04-14T10:59:45.866Z</time></trkpt><trkpt lat="42.4917483" lon="-7.6910817"><ele>532.6</ele><time>2026-04-14T10:59:46.866Z</time></trkpt><trkpt lat="42.49182" lon="-7.6909783"><ele>533.4</ele><time>2026-04-14T10:59:47.867Z</time></trkpt><trkpt lat="42.49189" lon="-7.6908617"><ele>534.2</ele><time>2026-04-14T10:59:48.866Z</time></trkpt><trkpt lat="42.4919417" lon="-7.6907583"><ele>535.0</ele><time>2026-04-14T10:59:49.866Z</time></trkpt><trkpt lat="42.4919883" lon="-7.6906883"><ele>535.0</ele><time>2026-04-14T10:59:50.867Z</time></trkpt><trkpt lat="42.492055" lon="-7.69062"><ele>535.0</ele><time>2026-04-14T10:59:51.867Z</time></trkpt><trkpt lat="42.49212" lon="-7.6905417"><ele>535.0</ele><time>2026-04-14T10:59:52.867Z</time></trkpt><trkpt lat="42.4921767" lon="-7.6904567"><ele>535.0</ele><time>2026-04-14T10:59:53.866Z</time></trkpt><trkpt lat="42.4922267" lon="-7.6903617"><ele>535.0</ele><time>2026-04-14T10:59:54.866Z</time></trkpt><trkpt lat="42.4922717" lon="-7.69028"><ele>535.0</ele><time>2026-04-14T10:59:55.866Z</time></trkpt><trkpt lat="42.492325" lon="-7.690205"><ele>536.6666666666667</ele><time>2026-04-14T10:59:56.867Z</time></trkpt><trkpt lat="42.4923833" lon="-7.690145"><ele>538.3333333333334</ele><time>2026-04-14T10:59:57.867Z</time></trkpt><trkpt lat="42.4924783" lon="-7.6900783"><ele>540.0</ele><time>2026-04-14T10:59:59.867Z</time></trkpt><trkpt lat="42.4925417" lon="-7.6900483"><ele>541.6666666666666</ele><time>2026-04-14T11:00:01.866Z</time></trkpt><trkpt lat="42.4926067" lon="-7.6900933"><ele>543.3333333333333</ele><time>2026-04-14T11:00:04.867Z</time></trkpt><trkpt lat="42.4926367" lon="-7.6902167"><ele>545.0</ele><time>2026-04-14T11:00:07.866Z</time></trkpt><trkpt lat="42.49264" lon="-7.6903867"><ele>545.0</ele><time>2026-04-14T11:00:09.866Z</time></trkpt><trkpt lat="42.4926383" lon="-7.6904767"><ele>545.0</ele><time>2026-04-14T11:00:10.867Z</time></trkpt><trkpt lat="42.4926667" lon="-7.69057"><ele>545.0</ele><time>2026-04-14T11:00:11.866Z</time></trkpt><trkpt lat="42.4926933" lon="-7.6907"><ele>545.0</ele><time>2026-04-14T11:00:13.867Z</time></trkpt><trkpt lat="42.4927367" lon="-7.69078"><ele>545.0</ele><time>2026-04-14T11:00:15.866Z</time></trkpt><trkpt lat="42.4927983" lon="-7.6907317"><ele>545.0</ele><time>2026-04-14T11:00:19.866Z</time></trkpt><trkpt lat="42.4928083" lon="-7.6906417"><ele>545.0</ele><time>2026-04-14T11:00:20.867Z</time></trkpt><trkpt lat="42.492845" lon="-7.6904917"><ele>545.0</ele><time>2026-04-14T11:00:22.866Z</time></trkpt><trkpt lat="42.4928783" lon="-7.6903867"><ele>545.0</ele><time>2026-04-14T11:00:23.867Z</time></trkpt><trkpt lat="42.4929267" lon="-7.690265"><ele>545.0</ele><time>2026-04-14T11:00:24.866Z</time></trkpt><trkpt lat="42.4930267" lon="-7.6900667"><ele>550.4</ele><time>2026-04-14T11:00:25.866Z</time></trkpt><trkpt lat="42.4931033" lon="-7.6899267"><ele>555.8</ele><time>2026-04-14T11:00:26.867Z</time></trkpt><trkpt lat="42.49318" lon="-7.6897967"><ele>561.2</ele><time>2026-04-14T11:00:27.866Z</time></trkpt><trkpt lat="42.4932433" lon="-7.689695"><ele>566.6</ele><time>2026-04-14T11:00:28.867Z</time></trkpt><trkpt lat="42.4933017" lon="-7.6895883"><ele>572.0</ele><time>2026-04-14T11:00:29.866Z</time></trkpt><trkpt lat="42.4933483" lon="-7.6895033"><ele>571.1666666666666</ele><time>2026-04-14T11:00:30.867Z</time></trkpt><trkpt lat="42.4934017" lon="-7.6894067"><ele>570.3333333333333</ele><time>2026-04-14T11:00:31.867Z</time></trkpt><trkpt lat="42.49344" lon="-7.6893267"><ele>569.5</ele><time>2026-04-14T11:00:32.866Z</time></trkpt><trkpt lat="42.4934767" lon="-7.6892533"><ele>568.6666666666666</ele><time>2026-04-14T11:00:33.866Z</time></trkpt><trkpt lat="42.493525" lon="-7.689135"><ele>567.8333333333334</ele><time>2026-04-14T11:00:35.867Z</time></trkpt><trkpt lat="42.4935883" lon="-7.68901"><ele>567.0</ele><time>2026-04-14T11:00:37.866Z</time></trkpt><trkpt lat="42.49366" lon="-7.6888767"><ele>567.0</ele><time>2026-04-14T11:00:39.867Z</time></trkpt><trkpt lat="42.4937033" lon="-7.6888083"><ele>567.0</ele><time>2026-04-14T11:00:40.866Z</time></trkpt><trkpt lat="42.493765" lon="-7.688705"><ele>567.0</ele><time>2026-04-14T11:00:41.867Z</time></trkpt><trkpt lat="42.4938333" lon="-7.6886117"><ele>567.0</ele><time>2026-04-14T11:00:42.866Z</time></trkpt><trkpt lat="42.4939133" lon="-7.6885133"><ele>567.0</ele><time>2026-04-14T11:00:43.867Z</time></trkpt><trkpt lat="42.4940017" lon="-7.6884"><ele>570.75</ele><time>2026-04-14T11:00:44.867Z</time></trkpt><trkpt lat="42.4940933" lon="-7.6882833"><ele>574.5</ele><time>2026-04-14T11:00:45.866Z</time></trkpt><trkpt lat="42.4942133" lon="-7.688155"><ele>578.25</ele><time>2026-04-14T11:00:46.866Z</time></trkpt><trkpt lat="42.494345" lon="-7.6880217"><ele>582.0</ele><time>2026-04-14T11:00:47.866Z</time></trkpt><trkpt lat="42.494465" lon="-7.6879467"><ele>585.5</ele><time>2026-04-14T11:00:48.868Z</time></trkpt><trkpt lat="42.4945933" lon="-7.68788"><ele>589.0</ele><time>2026-04-14T11:00:49.868Z</time></trkpt><trkpt lat="42.4947167" lon="-7.6878417"><ele>592.5</ele><time>2026-04-14T11:00:50.867Z</time></trkpt><trkpt lat="42.4948467" lon="-7.6878033"><ele>596.0</ele><time>2026-04-14T11:00:51.868Z</time></trkpt><trkpt lat="42.494965" lon="-7.6877867"><ele>595.4</ele><time>2026-04-14T11:00:52.867Z</time></trkpt><trkpt lat="42.4950683" lon="-7.6877383"><ele>594.8</ele><time>2026-04-14T11:00:53.868Z</time></trkpt><trkpt lat="42.4951717" lon="-7.687665"><ele>594.1999999999999</ele><time>2026-04-14T11:00:54.867Z</time></trkpt><trkpt lat="42.49526" lon="-7.687605"><ele>593.6</ele><time>2026-04-14T11:00:55.867Z</time></trkpt><trkpt lat="42.4953533" lon="-7.6875467"><ele>593.0</ele><time>2026-04-14T11:00:56.868Z</time></trkpt><trkpt lat="42.4954317" lon="-7.687495"><ele>593.0</ele><time>2026-04-14T11:00:57.867Z</time></trkpt><trkpt lat="42.49549" lon="-7.687445"><ele>593.0</ele><time>2026-04-14T11:00:58.867Z</time></trkpt><trkpt lat="42.4953983" lon="-7.6873983"><ele>593.0</ele><time>2026-04-14T11:01:08.868Z</time></trkpt><trkpt lat="42.495345" lon="-7.68729"><ele>593.0</ele><time>2026-04-14T11:01:10.868Z</time></trkpt><trkpt lat="42.4952833" lon="-7.6871817"><ele>593.0</ele><time>2026-04-14T11:01:12.868Z</time></trkpt><trkpt lat="42.4952517" lon="-7.6871067"><ele>593.0</ele><time>2026-04-14T11:01:13.868Z</time></trkpt><trkpt lat="42.4952233" lon="-7.68701"><ele>593.3333333333333</ele><time>2026-04-14T11:01:14.867Z</time></trkpt><trkpt lat="42.4951967" lon="-7.6869267"><ele>593.6666666666666</ele><time>2026-04-14T11:01:15.867Z</time></trkpt><trkpt lat="42.4952033" lon="-7.6867667"><ele>594.0</ele><time>2026-04-14T11:01:16.868Z</time></trkpt><trkpt lat="42.4952033" lon="-7.6866733"><ele>594.3333333333334</ele><time>2026-04-14T11:01:17.867Z</time></trkpt><trkpt lat="42.4952267" lon="-7.686575"><ele>594.6666666666667</ele><time>2026-04-14T11:01:18.867Z</time></trkpt><trkpt lat="42.4952667" lon="-7.6864667"><ele>595.0</ele><time>2026-04-14T11:01:19.867Z</time></trkpt><trkpt lat="42.4953" lon="-7.6863717"><ele>595.0</ele><time>2026-04-14T11:01:20.868Z</time></trkpt><trkpt lat="42.495335" lon="-7.68628"><ele>595.0</ele><time>2026-04-14T11:01:21.867Z</time></trkpt><trkpt lat="42.49536" lon="-7.6861767"><ele>595.0</ele><time>2026-04-14T11:01:22.868Z</time></trkpt><trkpt lat="42.4953717" lon="-7.6860767"><ele>595.0</ele><time>2026-04-14T11:01:23.868Z</time></trkpt><trkpt lat="42.495385" lon="-7.68598"><ele>595.0</ele><time>2026-04-14T11:01:24.868Z</time></trkpt><trkpt lat="42.4954017" lon="-7.68589"><ele>595.0</ele><time>2026-04-14T11:01:25.868Z</time></trkpt><trkpt lat="42.4954183" lon="-7.6858"><ele>595.0</ele><time>2026-04-14T11:01:26.867Z</time></trkpt><trkpt lat="42.4954417" lon="-7.6857083"><ele>597.6666666666667</ele><time>2026-04-14T11:01:27.867Z</time></trkpt><trkpt lat="42.4954683" lon="-7.6856167"><ele>600.3333333333334</ele><time>2026-04-14T11:01:28.867Z</time></trkpt><trkpt lat="42.4955083" lon="-7.6855317"><ele>603.0</ele><time>2026-04-14T11:01:29.868Z</time></trkpt><trkpt lat="42.495555" lon="-7.6854517"><ele>605.6666666666666</ele><time>2026-04-14T11:01:30.867Z</time></trkpt><trkpt lat="42.4956017" lon="-7.6853533"><ele>608.3333333333333</ele><time>2026-04-14T11:01:31.867Z</time></trkpt><trkpt lat="42.4956417" lon="-7.685235"><ele>611.0</ele><time>2026-04-14T11:01:32.867Z</time></trkpt><trkpt lat="42.4956717" lon="-7.6851017"><ele>611.5</ele><time>2026-04-14T11:01:33.867Z</time></trkpt><trkpt lat="42.4957033" lon="-7.68498"><ele>612.0</ele><time>2026-04-14T11:01:34.867Z</time></trkpt><trkpt lat="42.4957267" lon="-7.684865"><ele>612.5</ele><time>2026-04-14T11:01:35.867Z</time></trkpt><trkpt lat="42.49575" lon="-7.6847483"><ele>613.0</ele><time>2026-04-14T11:01:36.868Z</time></trkpt><trkpt lat="42.495775" lon="-7.6846433"><ele>613.5</ele><time>2026-04-14T11:01:37.868Z</time></trkpt><trkpt lat="42.4958" lon="-7.684555"><ele>614.0</ele><time>2026-04-14T11:01:38.868Z</time></trkpt><trkpt lat="42.4958383" lon="-7.68448"><ele>615.8</ele><time>2026-04-14T11:01:39.868Z</time></trkpt><trkpt lat="42.4958983" lon="-7.6844167"><ele>617.5999999999999</ele><time>2026-04-14T11:01:40.867Z</time></trkpt><trkpt lat="42.4959783" lon="-7.6843633"><ele>619.4</ele><time>2026-04-14T11:01:41.867Z</time></trkpt><trkpt lat="42.496085" lon="-7.6843033"><ele>621.1999999999999</ele><time>2026-04-14T11:01:42.868Z</time></trkpt><trkpt lat="42.49623" lon="-7.684215"><ele>623.0</ele><time>2026-04-14T11:01:43.867Z</time></trkpt><trkpt lat="42.49638" lon="-7.6840983"><ele>624.0</ele><time>2026-04-14T11:01:44.868Z</time></trkpt><trkpt lat="42.4965" lon="-7.6839633"><ele>625.0</ele><time>2026-04-14T11:01:45.868Z</time></trkpt><trkpt lat="42.4965867" lon="-7.6837933"><ele>626.0</ele><time>2026-04-14T11:01:46.867Z</time></trkpt><trkpt lat="42.49666" lon="-7.6836"><ele>627.0</ele><time>2026-04-14T11:01:47.868Z</time></trkpt><trkpt lat="42.496735" lon="-7.6834183"><ele>628.0</ele><time>2026-04-14T11:01:48.868Z</time></trkpt><trkpt lat="42.4968183" lon="-7.683255"><ele>629.0</ele><time>2026-04-14T11:01:49.868Z</time></trkpt><trkpt lat="42.4968883" lon="-7.68312"><ele>630.0</ele><time>2026-04-14T11:01:50.868Z</time></trkpt><trkpt lat="42.49695" lon="-7.6830167"><ele>630.0</ele><time>2026-04-14T11:01:51.868Z</time></trkpt><trkpt lat="42.4970117" lon="-7.68295"><ele>630.0</ele><time>2026-04-14T11:01:52.868Z</time></trkpt><trkpt lat="42.4970967" lon="-7.6829217"><ele>630.0</ele><time>2026-04-14T11:01:53.868Z</time></trkpt><trkpt lat="42.4972" lon="-7.68292"><ele>630.0</ele><time>2026-04-14T11:01:54.868Z</time></trkpt><trkpt lat="42.497305" lon="-7.6829017"><ele>630.0</ele><time>2026-04-14T11:01:55.867Z</time></trkpt><trkpt lat="42.4974017" lon="-7.6828717"><ele>631.0</ele><time>2026-04-14T11:01:56.867Z</time></trkpt><trkpt lat="42.4974883" lon="-7.68284"><ele>632.0</ele><time>2026-04-14T11:01:57.868Z</time></trkpt><trkpt lat="42.4975483" lon="-7.6827933"><ele>633.0</ele><time>2026-04-14T11:01:58.868Z</time></trkpt><trkpt lat="42.4975467" lon="-7.6826967"><ele>634.0</ele><time>2026-04-14T11:02:00.867Z</time></trkpt><trkpt lat="42.4974867" lon="-7.6826417"><ele>635.0</ele><time>2026-04-14T11:02:01.867Z</time></trkpt><trkpt lat="42.497395" lon="-7.682555"><ele>636.0</ele><time>2026-04-14T11:02:02.868Z</time></trkpt><trkpt lat="42.497285" lon="-7.6824483"><ele>636.0</ele><time>2026-04-14T11:02:03.868Z</time></trkpt><trkpt lat="42.4971383" lon="-7.682335"><ele>636.0</ele><time>2026-04-14T11:02:04.868Z</time></trkpt><trkpt lat="42.4969833" lon="-7.6822433"><ele>636.0</ele><time>2026-04-14T11:02:05.867Z</time></trkpt><trkpt lat="42.4968217" lon="-7.6821867"><ele>636.6666666666666</ele><time>2026-04-14T11:02:06.867Z</time></trkpt><trkpt lat="42.4966683" lon="-7.6821433"><ele>637.3333333333333</ele><time>2026-04-14T11:02:07.868Z</time></trkpt><trkpt lat="42.4965067" lon="-7.6821067"><ele>638.0</ele><time>2026-04-14T11:02:08.867Z</time></trkpt><trkpt lat="42.4963333" lon="-7.6820767"><ele>639.6666666666666</ele><time>2026-04-14T11:02:09.867Z</time></trkpt><trkpt lat="42.496165" lon="-7.68204"><ele>641.3333333333334</ele><time>2026-04-14T11:02:10.868Z</time></trkpt><trkpt lat="42.4960033" lon="-7.6819967"><ele>643.0</ele><time>2026-04-14T11:02:11.867Z</time></trkpt><trkpt lat="42.49584" lon="-7.6819517"><ele>644.3333333333334</ele><time>2026-04-14T11:02:12.867Z</time></trkpt><trkpt lat="42.4956717" lon="-7.681905"><ele>645.6666666666666</ele><time>2026-04-14T11:02:13.868Z</time></trkpt><trkpt lat="42.4955033" lon="-7.6818633"><ele>647.0</ele><time>2026-04-14T11:02:14.868Z</time></trkpt><trkpt lat="42.4953267" lon="-7.68182"><ele>647.6666666666666</ele><time>2026-04-14T11:02:15.867Z</time></trkpt><trkpt lat="42.4951533" lon="-7.6817833"><ele>648.3333333333334</ele><time>2026-04-14T11:02:16.868Z</time></trkpt><trkpt lat="42.4949917" lon="-7.6817333"><ele>649.0</ele><time>2026-04-14T11:02:17.867Z</time></trkpt><trkpt lat="42.4948517" lon="-7.681705"><ele>649.0</ele><time>2026-04-14T11:02:18.867Z</time></trkpt><trkpt lat="42.4947367" lon="-7.681675"><ele>649.0</ele><time>2026-04-14T11:02:19.867Z</time></trkpt><trkpt lat="42.494645" lon="-7.6816317"><ele>649.0</ele><time>2026-04-14T11:02:20.867Z</time></trkpt><trkpt lat="42.4945617" lon="-7.6815683"><ele>649.0</ele><time>2026-04-14T11:02:21.867Z</time></trkpt><trkpt lat="42.4944933" lon="-7.6814767"><ele>649.0</ele><time>2026-04-14T11:02:22.867Z</time></trkpt><trkpt lat="42.49443" lon="-7.68136"><ele>648.6</ele><time>2026-04-14T11:02:23.868Z</time></trkpt><trkpt lat="42.4943683" lon="-7.681235"><ele>648.2</ele><time>2026-04-14T11:02:24.867Z</time></trkpt><trkpt lat="42.4943" lon="-7.681125"><ele>647.8000000000001</ele><time>2026-04-14T11:02:25.868Z</time></trkpt><trkpt lat="42.4942267" lon="-7.6810383"><ele>647.4000000000001</ele><time>2026-04-14T11:02:26.867Z</time></trkpt><trkpt lat="42.4941433" lon="-7.680985"><ele>647.0</ele><time>2026-04-14T11:02:27.868Z</time></trkpt><trkpt lat="42.494055" lon="-7.68096"><ele>648.0</ele><time>2026-04-14T11:02:28.867Z</time></trkpt><trkpt lat="42.4939717" lon="-7.680935"><ele>649.0</ele><time>2026-04-14T11:02:29.867Z</time></trkpt><trkpt lat="42.4939067" lon="-7.680895"><ele>650.0</ele><time>2026-04-14T11:02:30.868Z</time></trkpt><trkpt lat="42.493855" lon="-7.6807567"><ele>651.0</ele><time>2026-04-14T11:02:32.868Z</time></trkpt><trkpt lat="42.4938683" lon="-7.6806583"><ele>652.0</ele><time>2026-04-14T11:02:33.868Z</time></trkpt><trkpt lat="42.493895" lon="-7.680525"><ele>653.0</ele><time>2026-04-14T11:02:34.867Z</time></trkpt><trkpt lat="42.493935" lon="-7.6803517"><ele>652.3333333333333</ele><time>2026-04-14T11:02:35.868Z</time></trkpt><trkpt lat="42.4939567" lon="-7.680125"><ele>651.6666666666666</ele><time>2026-04-14T11:02:36.868Z</time></trkpt><trkpt lat="42.4940017" lon="-7.679895"><ele>651.0</ele><time>2026-04-14T11:02:37.867Z</time></trkpt><trkpt lat="42.4940267" lon="-7.6796967"><ele>651.0</ele><time>2026-04-14T11:02:38.867Z</time></trkpt><trkpt lat="42.4940517" lon="-7.6795217"><ele>651.0</ele><time>2026-04-14T11:02:39.867Z</time></trkpt><trkpt lat="42.4940683" lon="-7.6793583"><ele>651.0</ele><time>2026-04-14T11:02:40.868Z</time></trkpt><trkpt lat="42.4940867" lon="-7.6792267"><ele>651.0</ele><time>2026-04-14T11:02:41.868Z</time></trkpt><trkpt lat="42.4940767" lon="-7.679125"><ele>651.0</ele><time>2026-04-14T11:02:42.868Z</time></trkpt><trkpt lat="42.4940433" lon="-7.6790083"><ele>650.5</ele><time>2026-04-14T11:02:44.867Z</time></trkpt><trkpt lat="42.4939467" lon="-7.6789717"><ele>650.0</ele><time>2026-04-14T11:02:46.867Z</time></trkpt><trkpt lat="42.493855" lon="-7.6789317"><ele>649.5</ele><time>2026-04-14T11:02:47.868Z</time></trkpt><trkpt lat="42.4937567" lon="-7.678885"><ele>649.0</ele><time>2026-04-14T11:02:48.867Z</time></trkpt><trkpt lat="42.4936817" lon="-7.6788617"><ele>648.5</ele><time>2026-04-14T11:02:49.867Z</time></trkpt><trkpt lat="42.4936133" lon="-7.6788383"><ele>648.0</ele><time>2026-04-14T11:02:50.868Z</time></trkpt><trkpt lat="42.4935517" lon="-7.67882"><ele>648.0</ele><time>2026-04-14T11:02:51.868Z</time></trkpt><trkpt lat="42.4934883" lon="-7.6787867"><ele>648.0</ele><time>2026-04-14T11:02:52.868Z</time></trkpt><trkpt lat="42.4934117" lon="-7.6787683"><ele>648.0</ele><time>2026-04-14T11:02:53.867Z</time></trkpt><trkpt lat="42.4933167" lon="-7.678755"><ele>648.0</ele><time>2026-04-14T11:02:54.868Z</time></trkpt><trkpt lat="42.4931983" lon="-7.6787283"><ele>648.0</ele><time>2026-04-14T11:02:55.868Z</time></trkpt><trkpt lat="42.4930383" lon="-7.6786783"><ele>649.0</ele><time>2026-04-14T11:02:56.867Z</time></trkpt><trkpt lat="42.492875" lon="-7.678635"><ele>650.0</ele><time>2026-04-14T11:02:57.868Z</time></trkpt><trkpt lat="42.4927233" lon="-7.678595"><ele>651.0</ele><time>2026-04-14T11:02:58.868Z</time></trkpt><trkpt lat="42.4925533" lon="-7.6785667"><ele>648.3333333333334</ele><time>2026-04-14T11:02:59.867Z</time></trkpt><trkpt lat="42.49238" lon="-7.678565"><ele>645.6666666666667</ele><time>2026-04-14T11:03:00.868Z</time></trkpt><trkpt lat="42.4922017" lon="-7.6785683"><ele>643.0</ele><time>2026-04-14T11:03:01.868Z</time></trkpt><trkpt lat="42.4920333" lon="-7.6785533"><ele>643.0</ele><time>2026-04-14T11:03:02.868Z</time></trkpt><trkpt lat="42.4918733" lon="-7.6785333"><ele>643.0</ele><time>2026-04-14T11:03:03.867Z</time></trkpt><trkpt lat="42.4917183" lon="-7.6785033"><ele>643.0</ele><time>2026-04-14T11:03:04.868Z</time></trkpt><trkpt lat="42.4915567" lon="-7.6784717"><ele>643.0</ele><time>2026-04-14T11:03:05.868Z</time></trkpt><trkpt lat="42.49138" lon="-7.678425"><ele>643.0</ele><time>2026-04-14T11:03:06.867Z</time></trkpt><trkpt lat="42.4912117" lon="-7.6783767"><ele>643.0</ele><time>2026-04-14T11:03:07.868Z</time></trkpt><trkpt lat="42.491045" lon="-7.6783217"><ele>645.6666666666667</ele><time>2026-04-14T11:03:08.868Z</time></trkpt><trkpt lat="42.4908883" lon="-7.6782717"><ele>648.3333333333334</ele><time>2026-04-14T11:03:09.868Z</time></trkpt><trkpt lat="42.4907367" lon="-7.6782133"><ele>651.0</ele><time>2026-04-14T11:03:10.867Z</time></trkpt><trkpt lat="42.49061" lon="-7.67815"><ele>651.0</ele><time>2026-04-14T11:03:11.868Z</time></trkpt><trkpt lat="42.4905" lon="-7.6781"><ele>651.0</ele><time>2026-04-14T11:03:12.867Z</time></trkpt><trkpt lat="42.4903883" lon="-7.6780667"><ele>651.0</ele><time>2026-04-14T11:03:13.867Z</time></trkpt><trkpt lat="42.4902933" lon="-7.678045"><ele>651.0</ele><time>2026-04-14T11:03:14.868Z</time></trkpt><trkpt lat="42.4902267" lon="-7.6780417"><ele>651.0</ele><time>2026-04-14T11:03:15.868Z</time></trkpt><trkpt lat="42.4901217" lon="-7.67811"><ele>652.0</ele><time>2026-04-14T11:03:17.867Z</time></trkpt><trkpt lat="42.49008" lon="-7.6781967"><ele>653.0</ele><time>2026-04-14T11:03:18.868Z</time></trkpt><trkpt lat="42.49004" lon="-7.6783033"><ele>654.0</ele><time>2026-04-14T11:03:19.868Z</time></trkpt><trkpt lat="42.4899833" lon="-7.6784267"><ele>655.0</ele><time>2026-04-14T11:03:20.868Z</time></trkpt><trkpt lat="42.4899183" lon="-7.6785367"><ele>656.0</ele><time>2026-04-14T11:03:21.867Z</time></trkpt><trkpt lat="42.4898633" lon="-7.678655"><ele>657.4</ele><time>2026-04-14T11:03:22.868Z</time></trkpt><trkpt lat="42.4897967" lon="-7.6787533"><ele>658.8</ele><time>2026-04-14T11:03:23.867Z</time></trkpt><trkpt lat="42.489725" lon="-7.678845"><ele>660.1999999999999</ele><time>2026-04-14T11:03:24.867Z</time></trkpt><trkpt lat="42.489655" lon="-7.6789433"><ele>661.5999999999999</ele><time>2026-04-14T11:03:25.868Z</time></trkpt><trkpt lat="42.48959" lon="-7.6790383"><ele>663.0</ele><time>2026-04-14T11:03:26.868Z</time></trkpt><trkpt lat="42.4895317" lon="-7.6791117"><ele>663.8</ele><time>2026-04-14T11:03:27.867Z</time></trkpt><trkpt lat="42.4894533" lon="-7.67922"><ele>664.5999999999999</ele><time>2026-04-14T11:03:29.867Z</time></trkpt><trkpt lat="42.48937" lon="-7.67934"><ele>665.4000000000001</ele><time>2026-04-14T11:03:31.867Z</time></trkpt><trkpt lat="42.4893233" lon="-7.6794167"><ele>666.2</ele><time>2026-04-14T11:03:32.867Z</time></trkpt><trkpt lat="42.4892767" lon="-7.679485"><ele>667.0</ele><time>2026-04-14T11:03:33.868Z</time></trkpt><trkpt lat="42.489235" lon="-7.6795683"><ele>667.4285714285714</ele><time>2026-04-14T11:03:35.868Z</time></trkpt><trkpt lat="42.4892883" lon="-7.6796483"><ele>667.8571428571429</ele><time>2026-04-14T11:03:38.867Z</time></trkpt><trkpt lat="42.4893133" lon="-7.67975"><ele>668.2857142857142</ele><time>2026-04-14T11:04:25.867Z</time></trkpt><trkpt lat="42.48933" lon="-7.679835"><ele>668.7142857142858</ele><time>2026-04-14T11:04:26.867Z</time></trkpt><trkpt lat="42.4893417" lon="-7.67992"><ele>669.1428571428571</ele><time>2026-04-14T11:04:27.868Z</time></trkpt><trkpt lat="42.4893533" lon="-7.680005"><ele>669.5714285714286</ele><time>2026-04-14T11:04:28.868Z</time></trkpt><trkpt lat="42.48937" lon="-7.68009"><ele>670.0</ele><time>2026-04-14T11:04:29.868Z</time></trkpt><trkpt lat="42.4893783" lon="-7.6801783"><ele>669.5</ele><time>2026-04-14T11:04:30.868Z</time></trkpt><trkpt lat="42.4893933" lon="-7.6802683"><ele>669.0</ele><time>2026-04-14T11:04:31.868Z</time></trkpt><trkpt lat="42.4894067" lon="-7.68037"><ele>668.5</ele><time>2026-04-14T11:04:32.868Z</time></trkpt><trkpt lat="42.489425" lon="-7.680485"><ele>668.0</ele><time>2026-04-14T11:04:33.868Z</time></trkpt><trkpt lat="42.4894467" lon="-7.6805983"><ele>667.5</ele><time>2026-04-14T11:04:34.868Z</time></trkpt><trkpt lat="42.4894633" lon="-7.6807017"><ele>667.0</ele><time>2026-04-14T11:04:35.867Z</time></trkpt><trkpt lat="42.4894733" lon="-7.6807983"><ele>667.0</ele><time>2026-04-14T11:04:36.867Z</time></trkpt><trkpt lat="42.4894633" lon="-7.6808917"><ele>667.0</ele><time>2026-04-14T11:04:37.868Z</time></trkpt><trkpt lat="42.4894283" lon="-7.6809833"><ele>667.0</ele><time>2026-04-14T11:04:38.867Z</time></trkpt><trkpt lat="42.4893767" lon="-7.6810867"><ele>667.0</ele><time>2026-04-14T11:04:39.867Z</time></trkpt><trkpt lat="42.4893117" lon="-7.6812017"><ele>667.0</ele><time>2026-04-14T11:04:40.868Z</time></trkpt><trkpt lat="42.4892383" lon="-7.68133"><ele>665.75</ele><time>2026-04-14T11:04:41.867Z</time></trkpt><trkpt lat="42.4891583" lon="-7.68147"><ele>664.5</ele><time>2026-04-14T11:04:42.868Z</time></trkpt><trkpt lat="42.4890933" lon="-7.6816033"><ele>663.25</ele><time>2026-04-14T11:04:43.867Z</time></trkpt><trkpt lat="42.4890267" lon="-7.6817317"><ele>662.0</ele><time>2026-04-14T11:04:44.867Z</time></trkpt><trkpt lat="42.4889583" lon="-7.6818667"><ele>660.25</ele><time>2026-04-14T11:04:45.868Z</time></trkpt><trkpt lat="42.4888783" lon="-7.6820017"><ele>658.5</ele><time>2026-04-14T11:04:46.867Z</time></trkpt><trkpt lat="42.4887917" lon="-7.682145"><ele>656.75</ele><time>2026-04-14T11:04:47.868Z</time></trkpt><trkpt lat="42.4887083" lon="-7.6823017"><ele>655.0</ele><time>2026-04-14T11:04:48.868Z</time></trkpt><trkpt lat="42.4886317" lon="-7.68246"><ele>654.5</ele><time>2026-04-14T11:04:49.867Z</time></trkpt><trkpt lat="42.488555" lon="-7.6826133"><ele>654.0</ele><time>2026-04-14T11:04:50.867Z</time></trkpt><trkpt lat="42.48848" lon="-7.68276"><ele>653.5</ele><time>2026-04-14T11:04:51.867Z</time></trkpt><trkpt lat="42.4884" lon="-7.6829083"><ele>653.0</ele><time>2026-04-14T11:04:52.868Z</time></trkpt><trkpt lat="42.4883017" lon="-7.6830667"><ele>651.5999999999999</ele><time>2026-04-14T11:04:53.867Z</time></trkpt><trkpt lat="42.48822" lon="-7.6832117"><ele>650.1999999999999</ele><time>2026-04-14T11:04:54.867Z</time></trkpt><trkpt lat="42.4881517" lon="-7.6833167"><ele>648.8</ele><time>2026-04-14T11:04:55.867Z</time></trkpt><trkpt lat="42.4880933" lon="-7.68342"><ele>647.4</ele><time>2026-04-14T11:04:56.868Z</time></trkpt><trkpt lat="42.4880317" lon="-7.6835467"><ele>646.0</ele><time>2026-04-14T11:04:57.867Z</time></trkpt><trkpt lat="42.4879467" lon="-7.6837017"><ele>645.3333333333334</ele><time>2026-04-14T11:04:58.868Z</time></trkpt><trkpt lat="42.4878483" lon="-7.6838767"><ele>644.6666666666666</ele><time>2026-04-14T11:04:59.867Z</time></trkpt><trkpt lat="42.487735" lon="-7.6840667"><ele>644.0</ele><time>2026-04-14T11:05:00.868Z</time></trkpt><trkpt lat="42.4876133" lon="-7.6842733"><ele>645.0</ele><time>2026-04-14T11:05:01.867Z</time></trkpt><trkpt lat="42.487495" lon="-7.6844867"><ele>646.0</ele><time>2026-04-14T11:05:02.868Z</time></trkpt><trkpt lat="42.4873817" lon="-7.684695"><ele>647.0</ele><time>2026-04-14T11:05:03.867Z</time></trkpt><trkpt lat="42.4872767" lon="-7.68489"><ele>647.0</ele><time>2026-04-14T11:05:04.868Z</time></trkpt><trkpt lat="42.4871917" lon="-7.685055"><ele>647.0</ele><time>2026-04-14T11:05:05.868Z</time></trkpt><trkpt lat="42.4871417" lon="-7.6851767"><ele>647.0</ele><time>2026-04-14T11:05:06.868Z</time></trkpt><trkpt lat="42.4870983" lon="-7.6852617"><ele>647.0</ele><time>2026-04-14T11:05:07.867Z</time></trkpt><trkpt lat="42.4870517" lon="-7.6853517"><ele>647.0</ele><time>2026-04-14T11:05:08.867Z</time></trkpt><trkpt lat="42.4870183" lon="-7.6854367"><ele>645.8</ele><time>2026-04-14T11:05:09.868Z</time></trkpt><trkpt lat="42.4869267" lon="-7.68553"><ele>644.6</ele><time>2026-04-14T11:05:11.867Z</time></trkpt><trkpt lat="42.486855" lon="-7.6855417"><ele>643.4</ele><time>2026-04-14T11:05:12.868Z</time></trkpt><trkpt lat="42.4867517" lon="-7.6855317"><ele>642.1999999999999</ele><time>2026-04-14T11:05:13.868Z</time></trkpt><trkpt lat="42.4866217" lon="-7.6855233"><ele>641.0</ele><time>2026-04-14T11:05:14.868Z</time></trkpt><trkpt lat="42.4864417" lon="-7.6854983"><ele>641.3333333333333</ele><time>2026-04-14T11:05:15.867Z</time></trkpt><trkpt lat="42.4862367" lon="-7.6854933"><ele>641.6666666666666</ele><time>2026-04-14T11:05:16.868Z</time></trkpt><trkpt lat="42.48605" lon="-7.6854883"><ele>642.0</ele><time>2026-04-14T11:05:17.867Z</time></trkpt><trkpt lat="42.4858967" lon="-7.6854867"><ele>642.0</ele><time>2026-04-14T11:05:18.868Z</time></trkpt><trkpt lat="42.485765" lon="-7.6854917"><ele>642.0</ele><time>2026-04-14T11:05:19.867Z</time></trkpt><trkpt lat="42.48564" lon="-7.6854967"><ele>642.0</ele><time>2026-04-14T11:05:20.867Z</time></trkpt><trkpt lat="42.485535" lon="-7.6854933"><ele>642.0</ele><time>2026-04-14T11:05:21.867Z</time></trkpt><trkpt lat="42.4854517" lon="-7.68549"><ele>642.0</ele><time>2026-04-14T11:05:22.867Z</time></trkpt><trkpt lat="42.4853533" lon="-7.68549"><ele>641.25</ele><time>2026-04-14T11:05:23.868Z</time></trkpt><trkpt lat="42.48525" lon="-7.6855233"><ele>640.5</ele><time>2026-04-14T11:05:24.868Z</time></trkpt><trkpt lat="42.4851383" lon="-7.68558"><ele>639.75</ele><time>2026-04-14T11:05:25.867Z</time></trkpt><trkpt lat="42.4850033" lon="-7.68564"><ele>639.0</ele><time>2026-04-14T11:05:26.868Z</time></trkpt><trkpt lat="42.48487" lon="-7.6856983"><ele>639.0</ele><time>2026-04-14T11:05:27.867Z</time></trkpt><trkpt lat="42.4847283" lon="-7.6857517"><ele>639.0</ele><time>2026-04-14T11:05:28.867Z</time></trkpt><trkpt lat="42.4845883" lon="-7.6858233"><ele>639.0</ele><time>2026-04-14T11:05:29.867Z</time></trkpt><trkpt lat="42.4844617" lon="-7.6859033"><ele>639.0</ele><time>2026-04-14T11:05:30.868Z</time></trkpt><trkpt lat="42.484355" lon="-7.6859783"><ele>636.6</ele><time>2026-04-14T11:05:31.867Z</time></trkpt><trkpt lat="42.48427" lon="-7.6860317"><ele>634.2</ele><time>2026-04-14T11:05:32.867Z</time></trkpt><trkpt lat="42.4841633" lon="-7.6860717"><ele>631.8000000000001</ele><time>2026-04-14T11:05:34.867Z</time></trkpt><trkpt lat="42.484105" lon="-7.6859967"><ele>629.4</ele><time>2026-04-14T11:05:36.867Z</time></trkpt><trkpt lat="42.484065" lon="-7.6859117"><ele>627.0</ele><time>2026-04-14T11:05:37.867Z</time></trkpt><trkpt lat="42.4840183" lon="-7.685775"><ele>627.0</ele><time>2026-04-14T11:05:38.867Z</time></trkpt><trkpt lat="42.4839383" lon="-7.6856383"><ele>627.0</ele><time>2026-04-14T11:05:39.868Z</time></trkpt><trkpt lat="42.483835" lon="-7.68552"><ele>627.0</ele><time>2026-04-14T11:05:40.867Z</time></trkpt><trkpt lat="42.4837167" lon="-7.68542"><ele>627.0</ele><time>2026-04-14T11:05:41.867Z</time></trkpt><trkpt lat="42.483615" lon="-7.6853583"><ele>623.75</ele><time>2026-04-14T11:05:42.867Z</time></trkpt><trkpt lat="42.4835167" lon="-7.6853367"><ele>620.5</ele><time>2026-04-14T11:05:43.867Z</time></trkpt><trkpt lat="42.4834033" lon="-7.6853183"><ele>617.25</ele><time>2026-04-14T11:05:44.867Z</time></trkpt><trkpt lat="42.4832683" lon="-7.6853083"><ele>614.0</ele><time>2026-04-14T11:05:45.868Z</time></trkpt><trkpt lat="42.48313" lon="-7.6853117"><ele>614.0</ele><time>2026-04-14T11:05:46.868Z</time></trkpt><trkpt lat="42.482985" lon="-7.6853317"><ele>614.0</ele><time>2026-04-14T11:05:47.867Z</time></trkpt><trkpt lat="42.4828483" lon="-7.6853567"><ele>614.0</ele><time>2026-04-14T11:05:48.868Z</time></trkpt><trkpt lat="42.4827267" lon="-7.6853883"><ele>614.0</ele><time>2026-04-14T11:05:49.868Z</time></trkpt><trkpt lat="42.4826183" lon="-7.685435"><ele>612.1666666666666</ele><time>2026-04-14T11:05:50.867Z</time></trkpt><trkpt lat="42.4825317" lon="-7.6854617"><ele>610.3333333333333</ele><time>2026-04-14T11:05:51.867Z</time></trkpt><trkpt lat="42.48246" lon="-7.68546"><ele>608.5</ele><time>2026-04-14T11:05:52.867Z</time></trkpt><trkpt lat="42.4823967" lon="-7.6854283"><ele>606.6666666666666</ele><time>2026-04-14T11:05:53.868Z</time></trkpt><trkpt lat="42.4823417" lon="-7.6853867"><ele>604.8333333333334</ele><time>2026-04-14T11:05:54.867Z</time></trkpt><trkpt lat="42.4822633" lon="-7.6853367"><ele>603.0</ele><time>2026-04-14T11:05:56.867Z</time></trkpt><trkpt lat="42.482185" lon="-7.6854317"><ele>603.0</ele><time>2026-04-14T11:05:58.868Z</time></trkpt><trkpt lat="42.4821367" lon="-7.685565"><ele>603.0</ele><time>2026-04-14T11:05:59.868Z</time></trkpt><trkpt lat="42.4820817" lon="-7.6857233"><ele>603.0</ele><time>2026-04-14T11:06:00.867Z</time></trkpt><trkpt lat="42.4820567" lon="-7.6859033"><ele>603.0</ele><time>2026-04-14T11:06:01.867Z</time></trkpt><trkpt lat="42.4820617" lon="-7.68607"><ele>599.75</ele><time>2026-04-14T11:06:02.867Z</time></trkpt><trkpt lat="42.4821" lon="-7.6862317"><ele>596.5</ele><time>2026-04-14T11:06:03.868Z</time></trkpt><trkpt lat="42.482155" lon="-7.686405"><ele>593.25</ele><time>2026-04-14T11:06:04.867Z</time></trkpt><trkpt lat="42.482235" lon="-7.6865883"><ele>590.0</ele><time>2026-04-14T11:06:05.867Z</time></trkpt><trkpt lat="42.4823233" lon="-7.6867583"><ele>583.6666666666666</ele><time>2026-04-14T11:06:06.867Z</time></trkpt><trkpt lat="42.4824083" lon="-7.6869283"><ele>577.3333333333334</ele><time>2026-04-14T11:06:07.867Z</time></trkpt><trkpt lat="42.4824917" lon="-7.6871083"><ele>571.0</ele><time>2026-04-14T11:06:08.868Z</time></trkpt><trkpt lat="42.482575" lon="-7.687325"><ele>571.0</ele><time>2026-04-14T11:06:09.867Z</time></trkpt><trkpt lat="42.4826767" lon="-7.6875533"><ele>571.0</ele><time>2026-04-14T11:06:10.868Z</time></trkpt><trkpt lat="42.482785" lon="-7.6877733"><ele>571.0</ele><time>2026-04-14T11:06:11.868Z</time></trkpt><trkpt lat="42.48288" lon="-7.68798"><ele>573.0</ele><time>2026-04-14T11:06:12.867Z</time></trkpt><trkpt lat="42.4829817" lon="-7.6881683"><ele>575.0</ele><time>2026-04-14T11:06:13.868Z</time></trkpt><trkpt lat="42.4830583" lon="-7.6883567"><ele>577.0</ele><time>2026-04-14T11:06:14.867Z</time></trkpt><trkpt lat="42.48313" lon="-7.6885683"><ele>573.5</ele><time>2026-04-14T11:06:15.868Z</time></trkpt><trkpt lat="42.4831817" lon="-7.6887517"><ele>570.0</ele><time>2026-04-14T11:06:16.867Z</time></trkpt><trkpt lat="42.4832333" lon="-7.6889"><ele>566.5</ele><time>2026-04-14T11:06:17.867Z</time></trkpt><trkpt lat="42.4833017" lon="-7.6890133"><ele>563.0</ele><time>2026-04-14T11:06:18.867Z</time></trkpt><trkpt lat="42.4833917" lon="-7.6891367"><ele>563.0</ele><time>2026-04-14T11:06:19.868Z</time></trkpt><trkpt lat="42.48347" lon="-7.689255"><ele>563.0</ele><time>2026-04-14T11:06:20.868Z</time></trkpt><trkpt lat="42.4835333" lon="-7.6893833"><ele>563.0</ele><time>2026-04-14T11:06:21.867Z</time></trkpt><trkpt lat="42.4835733" lon="-7.689525"><ele>563.0</ele><time>2026-04-14T11:06:22.868Z</time></trkpt><trkpt lat="42.48362" lon="-7.6896867"><ele>559.25</ele><time>2026-04-14T11:06:23.868Z</time></trkpt><trkpt lat="42.4836533" lon="-7.6898567"><ele>555.5</ele><time>2026-04-14T11:06:24.868Z</time></trkpt><trkpt lat="42.4837017" lon="-7.690025"><ele>551.75</ele><time>2026-04-14T11:06:25.868Z</time></trkpt><trkpt lat="42.4837483" lon="-7.690185"><ele>548.0</ele><time>2026-04-14T11:06:26.868Z</time></trkpt><trkpt lat="42.4838017" lon="-7.6903367"><ele>546.25</ele><time>2026-04-14T11:06:27.867Z</time></trkpt><trkpt lat="42.4838883" lon="-7.6904783"><ele>544.5</ele><time>2026-04-14T11:06:28.868Z</time></trkpt><trkpt lat="42.484" lon="-7.6906217"><ele>542.75</ele><time>2026-04-14T11:06:29.868Z</time></trkpt><trkpt lat="42.4841167" lon="-7.6907583"><ele>541.0</ele><time>2026-04-14T11:06:30.867Z</time></trkpt><trkpt lat="42.4842283" lon="-7.69089"><ele>541.0</ele><time>2026-04-14T11:06:31.867Z</time></trkpt><trkpt lat="42.4843333" lon="-7.6910283"><ele>541.0</ele><time>2026-04-14T11:06:32.867Z</time></trkpt><trkpt lat="42.4844367" lon="-7.6911533"><ele>541.0</ele><time>2026-04-14T11:06:33.867Z</time></trkpt><trkpt lat="42.4845283" lon="-7.6912583"><ele>541.0</ele><time>2026-04-14T11:06:34.867Z</time></trkpt><trkpt lat="42.4846117" lon="-7.6913617"><ele>542.25</ele><time>2026-04-14T11:06:35.867Z</time></trkpt><trkpt lat="42.4846783" lon="-7.6914733"><ele>543.5</ele><time>2026-04-14T11:06:36.868Z</time></trkpt><trkpt lat="42.4847233" lon="-7.6916067"><ele>544.75</ele><time>2026-04-14T11:06:37.867Z</time></trkpt><trkpt lat="42.4847367" lon="-7.6917633"><ele>546.0</ele><time>2026-04-14T11:06:38.868Z</time></trkpt><trkpt lat="42.4847467" lon="-7.6919517"><ele>542.5</ele><time>2026-04-14T11:06:39.867Z</time></trkpt><trkpt lat="42.4847517" lon="-7.69215"><ele>539.0</ele><time>2026-04-14T11:06:40.867Z</time></trkpt><trkpt lat="42.4847583" lon="-7.6923383"><ele>535.5</ele><time>2026-04-14T11:06:41.868Z</time></trkpt><trkpt lat="42.4847783" lon="-7.692505"><ele>532.0</ele><time>2026-04-14T11:06:42.867Z</time></trkpt><trkpt lat="42.4847933" lon="-7.6926517"><ele>526.8000000000001</ele><time>2026-04-14T11:06:43.868Z</time></trkpt><trkpt lat="42.4848333" lon="-7.692775"><ele>521.6</ele><time>2026-04-14T11:06:44.868Z</time></trkpt><trkpt lat="42.4848967" lon="-7.692885"><ele>516.4000000000001</ele><time>2026-04-14T11:06:45.868Z</time></trkpt><trkpt lat="42.48498" lon="-7.6929833"><ele>511.20000000000005</ele><time>2026-04-14T11:06:46.868Z</time></trkpt><trkpt lat="42.485075" lon="-7.6930517"><ele>506.0</ele><time>2026-04-14T11:06:47.868Z</time></trkpt><trkpt lat="42.4851733" lon="-7.693095"><ele>506.0</ele><time>2026-04-14T11:06:48.868Z</time></trkpt><trkpt lat="42.4852717" lon="-7.693115"><ele>506.0</ele><time>2026-04-14T11:06:49.867Z</time></trkpt><trkpt lat="42.4853833" lon="-7.6931067"><ele>506.0</ele><time>2026-04-14T11:06:50.867Z</time></trkpt><trkpt lat="42.48552" lon="-7.6930817"><ele>506.0</ele><time>2026-04-14T11:06:51.867Z</time></trkpt><trkpt lat="42.48569" lon="-7.69305"><ele>503.3333333333333</ele><time>2026-04-14T11:06:52.867Z</time></trkpt><trkpt lat="42.4858617" lon="-7.6930283"><ele>500.66666666666663</ele><time>2026-04-14T11:06:53.868Z</time></trkpt><trkpt lat="42.4860333" lon="-7.6930117"><ele>498.0</ele><time>2026-04-14T11:06:54.868Z</time></trkpt><trkpt lat="42.4861883" lon="-7.6929617"><ele>500.66666666666663</ele><time>2026-04-14T11:06:55.868Z</time></trkpt><trkpt lat="42.486335" lon="-7.692905"><ele>503.3333333333333</ele><time>2026-04-14T11:06:56.867Z</time></trkpt><trkpt lat="42.48648" lon="-7.6927983"><ele>506.0</ele><time>2026-04-14T11:06:57.867Z</time></trkpt><trkpt lat="42.48663" lon="-7.6926667"><ele>506.0</ele><time>2026-04-14T11:06:58.867Z</time></trkpt><trkpt lat="42.4867733" lon="-7.6925067"><ele>506.0</ele><time>2026-04-14T11:06:59.867Z</time></trkpt><trkpt lat="42.4868933" lon="-7.69237"><ele>506.0</ele><time>2026-04-14T11:07:00.868Z</time></trkpt><trkpt lat="42.4869917" lon="-7.69223"><ele>506.0</ele><time>2026-04-14T11:07:01.868Z</time></trkpt><trkpt lat="42.4870683" lon="-7.692125"><ele>506.0</ele><time>2026-04-14T11:07:02.868Z</time></trkpt><trkpt lat="42.487145" lon="-7.69204"><ele>506.0</ele><time>2026-04-14T11:07:04.868Z</time></trkpt><trkpt lat="42.4871867" lon="-7.692145"><ele>506.0</ele><time>2026-04-14T11:07:07.868Z</time></trkpt><trkpt lat="42.487155" lon="-7.692345"><ele>506.0</ele><time>2026-04-14T11:07:09.868Z</time></trkpt><trkpt lat="42.4871117" lon="-7.69252"><ele>506.0</ele><time>2026-04-14T11:07:10.869Z</time></trkpt><trkpt lat="42.4870133" lon="-7.692755"><ele>506.0</ele><time>2026-04-14T11:07:11.868Z</time></trkpt><trkpt lat="42.4869283" lon="-7.6929567"><ele>506.0</ele><time>2026-04-14T11:07:12.868Z</time></trkpt><trkpt lat="42.48686" lon="-7.693105"><ele>500.5</ele><time>2026-04-14T11:07:13.869Z</time></trkpt><trkpt lat="42.4867733" lon="-7.6932333"><ele>495.0</ele><time>2026-04-14T11:07:14.869Z</time></trkpt><trkpt lat="42.486705" lon="-7.693345"><ele>489.5</ele><time>2026-04-14T11:07:15.869Z</time></trkpt><trkpt lat="42.48664" lon="-7.6934533"><ele>484.0</ele><time>2026-04-14T11:07:16.869Z</time></trkpt><trkpt lat="42.4865683" lon="-7.6935783"><ele>480.75</ele><time>2026-04-14T11:07:17.869Z</time></trkpt><trkpt lat="42.4864867" lon="-7.6936833"><ele>477.5</ele><time>2026-04-14T11:07:18.869Z</time></trkpt><trkpt lat="42.4863767" lon="-7.6937483"><ele>474.25</ele><time>2026-04-14T11:07:19.868Z</time></trkpt><trkpt lat="42.4862417" lon="-7.693795"><ele>471.0</ele><time>2026-04-14T11:07:20.868Z</time></trkpt><trkpt lat="42.4860933" lon="-7.6938617"><ele>471.0</ele><time>2026-04-14T11:07:21.868Z</time></trkpt><trkpt lat="42.4859367" lon="-7.6939617"><ele>471.0</ele><time>2026-04-14T11:07:22.869Z</time></trkpt><trkpt lat="42.4858083" lon="-7.6940883"><ele>471.0</ele><time>2026-04-14T11:07:23.868Z</time></trkpt><trkpt lat="42.4857" lon="-7.6941683"><ele>471.0</ele><time>2026-04-14T11:07:24.869Z</time></trkpt><trkpt lat="42.48563" lon="-7.69424"><ele>471.0</ele><time>2026-04-14T11:07:25.868Z</time></trkpt><trkpt lat="42.4856017" lon="-7.69433"><ele>471.0</ele><time>2026-04-14T11:07:27.868Z</time></trkpt><trkpt lat="42.485725" lon="-7.6942983"><ele>471.0</ele><time>2026-04-14T11:07:30.868Z</time></trkpt><trkpt lat="42.4857867" lon="-7.6942767"><ele>471.0</ele><time>2026-04-14T11:07:31.868Z</time></trkpt><trkpt lat="42.4858583" lon="-7.69425"><ele>471.0</ele><time>2026-04-14T11:07:32.868Z</time></trkpt><trkpt lat="42.4859283" lon="-7.69422"><ele>471.0</ele><time>2026-04-14T11:07:33.868Z</time></trkpt><trkpt lat="42.4860017" lon="-7.6941883"><ele>471.0</ele><time>2026-04-14T11:07:34.869Z</time></trkpt><trkpt lat="42.4860683" lon="-7.694155"><ele>471.0</ele><time>2026-04-14T11:07:35.869Z</time></trkpt><trkpt lat="42.4861483" lon="-7.6941267"><ele>471.0</ele><time>2026-04-14T11:07:36.869Z</time></trkpt><trkpt lat="42.4862417" lon="-7.69411"><ele>471.0</ele><time>2026-04-14T11:07:37.869Z</time></trkpt><trkpt lat="42.4863417" lon="-7.69411"><ele>471.0</ele><time>2026-04-14T11:07:38.868Z</time></trkpt><trkpt lat="42.48644" lon="-7.69412"><ele>469.5</ele><time>2026-04-14T11:07:39.868Z</time></trkpt><trkpt lat="42.4865333" lon="-7.6941433"><ele>468.0</ele><time>2026-04-14T11:07:40.869Z</time></trkpt><trkpt lat="42.4866233" lon="-7.6941667"><ele>466.5</ele><time>2026-04-14T11:07:41.869Z</time></trkpt><trkpt lat="42.4867017" lon="-7.6941983"><ele>465.0</ele><time>2026-04-14T11:07:42.869Z</time></trkpt><trkpt lat="42.4867817" lon="-7.6942267"><ele>463.5</ele><time>2026-04-14T11:07:43.868Z</time></trkpt><trkpt lat="42.4868517" lon="-7.6942633"><ele>462.0</ele><time>2026-04-14T11:07:44.868Z</time></trkpt><trkpt lat="42.4869483" lon="-7.69436"><ele>460.3333333333333</ele><time>2026-04-14T11:07:46.868Z</time></trkpt><trkpt lat="42.487005" lon="-7.694495"><ele>458.66666666666663</ele><time>2026-04-14T11:07:48.868Z</time></trkpt><trkpt lat="42.4870133" lon="-7.6945883"><ele>457.0</ele><time>2026-04-14T11:07:49.868Z</time></trkpt><trkpt lat="42.487025" lon="-7.69469"><ele>455.3333333333333</ele><time>2026-04-14T11:07:50.868Z</time></trkpt><trkpt lat="42.4870533" lon="-7.6947983"><ele>453.66666666666663</ele><time>2026-04-14T11:07:51.868Z</time></trkpt><trkpt lat="42.4870983" lon="-7.6948983"><ele>452.0</ele><time>2026-04-14T11:07:52.868Z</time></trkpt><trkpt lat="42.4871717" lon="-7.69501"><ele>452.0</ele><time>2026-04-14T11:07:53.869Z</time></trkpt><trkpt lat="42.4872567" lon="-7.6950917"><ele>452.00000000000006</ele><time>2026-04-14T11:07:54.869Z</time></trkpt><trkpt lat="42.487345" lon="-7.695155"><ele>452.00000000000006</ele><time>2026-04-14T11:07:55.869Z</time></trkpt><trkpt lat="42.4874317" lon="-7.6952067"><ele>452.0</ele><time>2026-04-14T11:07:56.869Z</time></trkpt><trkpt lat="42.4875183" lon="-7.695245"><ele>452.0</ele><time>2026-04-14T11:07:57.869Z</time></trkpt><trkpt lat="42.4875983" lon="-7.6952767"><ele>444.25</ele><time>2026-04-14T11:07:58.869Z</time></trkpt><trkpt lat="42.48767" lon="-7.695295"><ele>436.5</ele><time>2026-04-14T11:07:59.869Z</time></trkpt><trkpt lat="42.487765" lon="-7.6953383"><ele>428.75</ele><time>2026-04-14T11:08:01.868Z</time></trkpt><trkpt lat="42.487705" lon="-7.6953917"><ele>421.0</ele><time>2026-04-14T11:08:08.868Z</time></trkpt><trkpt lat="42.4874917" lon="-7.6953933"><ele>421.0</ele><time>2026-04-14T11:08:10.868Z</time></trkpt><trkpt lat="42.487405" lon="-7.6954"><ele>421.0</ele><time>2026-04-14T11:08:11.868Z</time></trkpt><trkpt lat="42.4872867" lon="-7.69538"><ele>421.0</ele><time>2026-04-14T11:08:12.868Z</time></trkpt><trkpt lat="42.48694" lon="-7.6953517"><ele>424.5</ele><time>2026-04-14T11:08:13.869Z</time></trkpt><trkpt lat="42.4868167" lon="-7.695285"><ele>428.0</ele><time>2026-04-14T11:08:14.869Z</time></trkpt><trkpt lat="42.4867267" lon="-7.6951817"><ele>431.5</ele><time>2026-04-14T11:08:15.869Z</time></trkpt><trkpt lat="42.4866567" lon="-7.6950583"><ele>435.0</ele><time>2026-04-14T11:08:16.868Z</time></trkpt><trkpt lat="42.4866183" lon="-7.6949367"><ele>435.0</ele><time>2026-04-14T11:08:17.868Z</time></trkpt><trkpt lat="42.48659" lon="-7.6948167"><ele>435.0</ele><time>2026-04-14T11:08:18.869Z</time></trkpt><trkpt lat="42.48659" lon="-7.69468"><ele>435.0</ele><time>2026-04-14T11:08:19.869Z</time></trkpt><trkpt lat="42.48655" lon="-7.694605"><ele>435.0</ele><time>2026-04-14T11:08:20.869Z</time></trkpt><trkpt lat="42.4864933" lon="-7.6944983"><ele>435.0</ele><time>2026-04-14T11:08:22.868Z</time></trkpt><trkpt lat="42.4864167" lon="-7.6945317"><ele>435.0</ele><time>2026-04-14T11:08:24.868Z</time></trkpt><trkpt lat="42.48635" lon="-7.6947117"><ele>435.0</ele><time>2026-04-14T11:08:26.868Z</time></trkpt><trkpt lat="42.4862833" lon="-7.694865"><ele>435.0</ele><time>2026-04-14T11:08:27.869Z</time></trkpt><trkpt lat="42.4862017" lon="-7.69502"><ele>435.0</ele><time>2026-04-14T11:08:28.868Z</time></trkpt><trkpt lat="42.4860867" lon="-7.6951933"><ele>435.0</ele><time>2026-04-14T11:08:29.868Z</time></trkpt><trkpt lat="42.4859833" lon="-7.6953333"><ele>429.0</ele><time>2026-04-14T11:08:30.868Z</time></trkpt><trkpt lat="42.485885" lon="-7.6954333"><ele>423.0</ele><time>2026-04-14T11:08:31.869Z</time></trkpt><trkpt lat="42.4857867" lon="-7.6955017"><ele>417.0</ele><time>2026-04-14T11:08:32.868Z</time></trkpt><trkpt lat="42.4856767" lon="-7.6955383"><ele>411.0</ele><time>2026-04-14T11:08:33.869Z</time></trkpt><trkpt lat="42.485565" lon="-7.69557"><ele>411.0</ele><time>2026-04-14T11:08:34.869Z</time></trkpt><trkpt lat="42.4854583" lon="-7.69561"><ele>411.0</ele><time>2026-04-14T11:08:35.869Z</time></trkpt><trkpt lat="42.4853533" lon="-7.69566"><ele>411.0</ele><time>2026-04-14T11:08:36.869Z</time></trkpt><trkpt lat="42.4852517" lon="-7.69573"><ele>411.0</ele><time>2026-04-14T11:08:37.868Z</time></trkpt><trkpt lat="42.4851567" lon="-7.695815"><ele>409.8</ele><time>2026-04-14T11:08:38.868Z</time></trkpt><trkpt lat="42.4850733" lon="-7.6959017"><ele>408.6</ele><time>2026-04-14T11:08:39.868Z</time></trkpt><trkpt lat="42.4849833" lon="-7.695995"><ele>407.4</ele><time>2026-04-14T11:08:40.869Z</time></trkpt><trkpt lat="42.4848967" lon="-7.6960867"><ele>406.2</ele><time>2026-04-14T11:08:41.868Z</time></trkpt><trkpt lat="42.4848267" lon="-7.69619"><ele>405.0</ele><time>2026-04-14T11:08:42.868Z</time></trkpt><trkpt lat="42.484775" lon="-7.696295"><ele>405.0</ele><time>2026-04-14T11:08:43.869Z</time></trkpt><trkpt lat="42.4847183" lon="-7.6964267"><ele>405.0</ele><time>2026-04-14T11:08:44.869Z</time></trkpt><trkpt lat="42.4846583" lon="-7.696555"><ele>405.0</ele><time>2026-04-14T11:08:45.868Z</time></trkpt><trkpt lat="42.484595" lon="-7.6966717"><ele>405.0</ele><time>2026-04-14T11:08:46.868Z</time></trkpt><trkpt lat="42.4845433" lon="-7.696755"><ele>405.0</ele><time>2026-04-14T11:08:47.868Z</time></trkpt><trkpt lat="42.484475" lon="-7.69682"><ele>406.4</ele><time>2026-04-14T11:08:48.868Z</time></trkpt><trkpt lat="42.484385" lon="-7.69684"><ele>407.8</ele><time>2026-04-14T11:08:49.869Z</time></trkpt><trkpt lat="42.4842783" lon="-7.6968317"><ele>409.20000000000005</ele><time>2026-04-14T11:08:50.869Z</time></trkpt><trkpt lat="42.4841667" lon="-7.6967767"><ele>410.6</ele><time>2026-04-14T11:08:51.869Z</time></trkpt><trkpt lat="42.4840483" lon="-7.6967233"><ele>412.0</ele><time>2026-04-14T11:08:52.868Z</time></trkpt><trkpt lat="42.4839433" lon="-7.69668"><ele>412.0</ele><time>2026-04-14T11:08:53.868Z</time></trkpt><trkpt lat="42.483835" lon="-7.6966233"><ele>412.0</ele><time>2026-04-14T11:08:54.868Z</time></trkpt><trkpt lat="42.4837283" lon="-7.696565"><ele>412.0</ele><time>2026-04-14T11:08:55.869Z</time></trkpt><trkpt lat="42.4836333" lon="-7.696495"><ele>412.0</ele><time>2026-04-14T11:08:56.869Z</time></trkpt><trkpt lat="42.4835533" lon="-7.6964117"><ele>412.0</ele><time>2026-04-14T11:08:57.868Z</time></trkpt><trkpt lat="42.4834917" lon="-7.6963067"><ele>410.6</ele><time>2026-04-14T11:08:58.869Z</time></trkpt><trkpt lat="42.48346" lon="-7.696185"><ele>409.20000000000005</ele><time>2026-04-14T11:08:59.869Z</time></trkpt><trkpt lat="42.4834367" lon="-7.6960367"><ele>407.8</ele><time>2026-04-14T11:09:00.868Z</time></trkpt><trkpt lat="42.483425" lon="-7.69588"><ele>406.4</ele><time>2026-04-14T11:09:01.868Z</time></trkpt><trkpt lat="42.4834067" lon="-7.695725"><ele>405.0</ele><time>2026-04-14T11:09:02.868Z</time></trkpt><trkpt lat="42.4833767" lon="-7.6955933"><ele>405.0</ele><time>2026-04-14T11:09:03.869Z</time></trkpt><trkpt lat="42.483345" lon="-7.695465"><ele>405.0</ele><time>2026-04-14T11:09:04.869Z</time></trkpt><trkpt lat="42.4833133" lon="-7.695325"><ele>405.0</ele><time>2026-04-14T11:09:05.868Z</time></trkpt><trkpt lat="42.4832617" lon="-7.6951933"><ele>405.0</ele><time>2026-04-14T11:09:06.868Z</time></trkpt><trkpt lat="42.4831983" lon="-7.6950767"><ele>405.0</ele><time>2026-04-14T11:09:07.868Z</time></trkpt><trkpt lat="42.4831283" lon="-7.6949617"><ele>407.2</ele><time>2026-04-14T11:09:08.868Z</time></trkpt><trkpt lat="42.4830467" lon="-7.6948583"><ele>409.4</ele><time>2026-04-14T11:09:09.868Z</time></trkpt><trkpt lat="42.4829667" lon="-7.6947633"><ele>411.6</ele><time>2026-04-14T11:09:10.868Z</time></trkpt><trkpt lat="42.4828817" lon="-7.6946733"><ele>413.8</ele><time>2026-04-14T11:09:11.869Z</time></trkpt><trkpt lat="42.48279" lon="-7.6945833"><ele>416.0</ele><time>2026-04-14T11:09:12.869Z</time></trkpt><trkpt lat="42.482705" lon="-7.6944917"><ele>412.20000000000005</ele><time>2026-04-14T11:09:13.868Z</time></trkpt><trkpt lat="42.4826283" lon="-7.6943967"><ele>408.40000000000003</ele><time>2026-04-14T11:09:14.868Z</time></trkpt><trkpt lat="42.4825667" lon="-7.694295"><ele>404.6</ele><time>2026-04-14T11:09:15.868Z</time></trkpt><trkpt lat="42.4825217" lon="-7.694175"><ele>400.8</ele><time>2026-04-14T11:09:16.869Z</time></trkpt><trkpt lat="42.482485" lon="-7.69405"><ele>397.0</ele><time>2026-04-14T11:09:17.868Z</time></trkpt><trkpt lat="42.48245" lon="-7.69392"><ele>397.0</ele><time>2026-04-14T11:09:18.868Z</time></trkpt><trkpt lat="42.4823983" lon="-7.6938017"><ele>397.0</ele><time>2026-04-14T11:09:19.868Z</time></trkpt><trkpt lat="42.482335" lon="-7.6937017"><ele>397.0</ele><time>2026-04-14T11:09:20.869Z</time></trkpt><trkpt lat="42.48226" lon="-7.693625"><ele>397.0</ele><time>2026-04-14T11:09:21.868Z</time></trkpt><trkpt lat="42.4821817" lon="-7.693575"><ele>397.0</ele><time>2026-04-14T11:09:22.869Z</time></trkpt><trkpt lat="42.4821133" lon="-7.6935333"><ele>395.20000000000005</ele><time>2026-04-14T11:09:23.868Z</time></trkpt><trkpt lat="42.4820517" lon="-7.6935117"><ele>393.4</ele><time>2026-04-14T11:09:24.868Z</time></trkpt><trkpt lat="42.481955" lon="-7.6935683"><ele>391.6</ele><time>2026-04-14T11:09:26.869Z</time></trkpt><trkpt lat="42.4819" lon="-7.6936417"><ele>389.79999999999995</ele><time>2026-04-14T11:09:27.869Z</time></trkpt><trkpt lat="42.48182" lon="-7.6937233"><ele>388.0</ele><time>2026-04-14T11:09:28.869Z</time></trkpt><trkpt lat="42.4817233" lon="-7.6938033"><ele>388.0</ele><time>2026-04-14T11:09:29.869Z</time></trkpt><trkpt lat="42.4816267" lon="-7.693875"><ele>388.0</ele><time>2026-04-14T11:09:30.868Z</time></trkpt><trkpt lat="42.48153" lon="-7.6939417"><ele>388.0</ele><time>2026-04-14T11:09:31.868Z</time></trkpt><trkpt lat="42.481445" lon="-7.6940167"><ele>388.0</ele><time>2026-04-14T11:09:32.869Z</time></trkpt><trkpt lat="42.4813767" lon="-7.69409"><ele>388.0</ele><time>2026-04-14T11:09:33.868Z</time></trkpt><trkpt lat="42.481315" lon="-7.69418"><ele>388.0</ele><time>2026-04-14T11:09:34.869Z</time></trkpt><trkpt lat="42.4812683" lon="-7.6942833"><ele>388.0</ele><time>2026-04-14T11:09:35.869Z</time></trkpt><trkpt lat="42.481235" lon="-7.694405"><ele>388.0</ele><time>2026-04-14T11:09:36.868Z</time></trkpt><trkpt lat="42.48121" lon="-7.694545"><ele>388.0</ele><time>2026-04-14T11:09:37.868Z</time></trkpt><trkpt lat="42.481185" lon="-7.69467"><ele>388.0</ele><time>2026-04-14T11:09:38.869Z</time></trkpt><trkpt lat="42.4811283" lon="-7.6947717"><ele>388.1666666666667</ele><time>2026-04-14T11:09:39.869Z</time></trkpt><trkpt lat="42.4810433" lon="-7.69484"><ele>388.33333333333337</ele><time>2026-04-14T11:09:40.869Z</time></trkpt><trkpt lat="42.4809567" lon="-7.6948783"><ele>388.5</ele><time>2026-04-14T11:09:41.869Z</time></trkpt><trkpt lat="42.4808683" lon="-7.6949117"><ele>388.66666666666663</ele><time>2026-04-14T11:09:42.869Z</time></trkpt><trkpt lat="42.48081" lon="-7.6949683"><ele>388.8333333333333</ele><time>2026-04-14T11:09:43.869Z</time></trkpt><trkpt lat="42.480765" lon="-7.69507"><ele>389.0</ele><time>2026-04-14T11:09:44.868Z</time></trkpt><trkpt lat="42.480755" lon="-7.6952117"><ele>386.25</ele><time>2026-04-14T11:09:45.868Z</time></trkpt><trkpt lat="42.4807533" lon="-7.695375"><ele>383.5</ele><time>2026-04-14T11:09:46.869Z</time></trkpt><trkpt lat="42.4807567" lon="-7.6955333"><ele>380.75</ele><time>2026-04-14T11:09:47.869Z</time></trkpt><trkpt lat="42.4807783" lon="-7.695685"><ele>378.0</ele><time>2026-04-14T11:09:48.869Z</time></trkpt><trkpt lat="42.4807967" lon="-7.6958183"><ele>378.0</ele><time>2026-04-14T11:09:49.868Z</time></trkpt><trkpt lat="42.4808317" lon="-7.6959433"><ele>378.0</ele><time>2026-04-14T11:09:50.868Z</time></trkpt><trkpt lat="42.480865" lon="-7.69607"><ele>378.0</ele><time>2026-04-14T11:09:51.869Z</time></trkpt><trkpt lat="42.4808967" lon="-7.69619"><ele>378.0</ele><time>2026-04-14T11:09:52.869Z</time></trkpt><trkpt lat="42.4808883" lon="-7.6963233"><ele>378.0</ele><time>2026-04-14T11:09:53.868Z</time></trkpt><trkpt lat="42.4808633" lon="-7.6964667"><ele>375.75</ele><time>2026-04-14T11:09:54.869Z</time></trkpt><trkpt lat="42.4808133" lon="-7.6966133"><ele>373.5</ele><time>2026-04-14T11:09:55.869Z</time></trkpt><trkpt lat="42.480745" lon="-7.6967517"><ele>371.25</ele><time>2026-04-14T11:09:56.869Z</time></trkpt><trkpt lat="42.4806867" lon="-7.6968867"><ele>369.0</ele><time>2026-04-14T11:09:57.868Z</time></trkpt><trkpt lat="42.48062" lon="-7.6970233"><ele>371.2</ele><time>2026-04-14T11:09:58.869Z</time></trkpt><trkpt lat="42.48055" lon="-7.6971567"><ele>373.4</ele><time>2026-04-14T11:09:59.868Z</time></trkpt><trkpt lat="42.480475" lon="-7.6972667"><ele>375.6</ele><time>2026-04-14T11:10:00.869Z</time></trkpt><trkpt lat="42.4803983" lon="-7.69737"><ele>377.8</ele><time>2026-04-14T11:10:01.868Z</time></trkpt><trkpt lat="42.480325" lon="-7.697475"><ele>380.0</ele><time>2026-04-14T11:10:02.868Z</time></trkpt><trkpt lat="42.4802483" lon="-7.69759"><ele>380.0</ele><time>2026-04-14T11:10:03.869Z</time></trkpt><trkpt lat="42.48018" lon="-7.6977017"><ele>380.0</ele><time>2026-04-14T11:10:04.868Z</time></trkpt><trkpt lat="42.4801117" lon="-7.6977967"><ele>380.0</ele><time>2026-04-14T11:10:05.869Z</time></trkpt><trkpt lat="42.48006" lon="-7.69787"><ele>380.0</ele><time>2026-04-14T11:10:06.869Z</time></trkpt><trkpt lat="42.47996" lon="-7.6979217"><ele>380.0</ele><time>2026-04-14T11:10:08.869Z</time></trkpt><trkpt lat="42.4798883" lon="-7.6979133"><ele>380.75</ele><time>2026-04-14T11:10:10.869Z</time></trkpt><trkpt lat="42.479775" lon="-7.6978717"><ele>381.5</ele><time>2026-04-14T11:10:12.868Z</time></trkpt><trkpt lat="42.4796633" lon="-7.6978167"><ele>382.25</ele><time>2026-04-14T11:10:13.869Z</time></trkpt><trkpt lat="42.4794967" lon="-7.6977083"><ele>383.0</ele><time>2026-04-14T11:10:14.868Z</time></trkpt><trkpt lat="42.47936" lon="-7.6976033"><ele>383.0</ele><time>2026-04-14T11:10:15.868Z</time></trkpt><trkpt lat="42.4792183" lon="-7.6974917"><ele>383.0</ele><time>2026-04-14T11:10:16.869Z</time></trkpt><trkpt lat="42.47908" lon="-7.6973533"><ele>383.0</ele><time>2026-04-14T11:10:17.868Z</time></trkpt><trkpt lat="42.4789367" lon="-7.6972083"><ele>383.0</ele><time>2026-04-14T11:10:18.868Z</time></trkpt><trkpt lat="42.4788083" lon="-7.6970667"><ele>383.0</ele><time>2026-04-14T11:10:19.868Z</time></trkpt><trkpt lat="42.4786767" lon="-7.696935"><ele>383.0</ele><time>2026-04-14T11:10:20.868Z</time></trkpt><trkpt lat="42.4785433" lon="-7.69682"><ele>389.0</ele><time>2026-04-14T11:10:21.868Z</time></trkpt><trkpt lat="42.4784183" lon="-7.6967217"><ele>395.0</ele><time>2026-04-14T11:10:22.869Z</time></trkpt><trkpt lat="42.47829" lon="-7.6966167"><ele>401.0</ele><time>2026-04-14T11:10:23.869Z</time></trkpt><trkpt lat="42.47816" lon="-7.696555"><ele>407.0</ele><time>2026-04-14T11:10:24.869Z</time></trkpt><trkpt lat="42.4780267" lon="-7.6965117"><ele>412.20000000000005</ele><time>2026-04-14T11:10:25.868Z</time></trkpt><trkpt lat="42.4778967" lon="-7.6964833"><ele>417.4</ele><time>2026-04-14T11:10:26.868Z</time></trkpt><trkpt lat="42.4777817" lon="-7.6964583"><ele>422.59999999999997</ele><time>2026-04-14T11:10:27.869Z</time></trkpt><trkpt lat="42.47768" lon="-7.6964167"><ele>427.79999999999995</ele><time>2026-04-14T11:10:28.869Z</time></trkpt><trkpt lat="42.4776017" lon="-7.6963917"><ele>433.0</ele><time>2026-04-14T11:10:29.869Z</time></trkpt><trkpt lat="42.4775417" lon="-7.696335"><ele>433.0</ele><time>2026-04-14T11:10:31.868Z</time></trkpt><trkpt lat="42.4775683" lon="-7.69622"><ele>433.0</ele><time>2026-04-14T11:10:33.869Z</time></trkpt><trkpt lat="42.4776167" lon="-7.69613"><ele>433.0</ele><time>2026-04-14T11:10:34.869Z</time></trkpt><trkpt lat="42.4777567" lon="-7.6959867"><ele>433.0</ele><time>2026-04-14T11:10:35.868Z</time></trkpt><trkpt lat="42.477845" lon="-7.69588"><ele>436.1666666666667</ele><time>2026-04-14T11:10:36.869Z</time></trkpt><trkpt lat="42.477915" lon="-7.6958067"><ele>439.33333333333337</ele><time>2026-04-14T11:10:37.868Z</time></trkpt><trkpt lat="42.4778367" lon="-7.69585"><ele>442.5</ele><time>2026-04-14T11:10:42.868Z</time></trkpt><trkpt lat="42.47775" lon="-7.69589"><ele>445.66666666666663</ele><time>2026-04-14T11:10:44.869Z</time></trkpt><trkpt lat="42.4777367" lon="-7.6958"><ele>448.8333333333333</ele><time>2026-04-14T11:10:48.869Z</time></trkpt><trkpt lat="42.4777883" lon="-7.6957267"><ele>452.0</ele><time>2026-04-14T11:10:49.868Z</time></trkpt><trkpt lat="42.4778533" lon="-7.6956433"><ele>450.20000000000005</ele><time>2026-04-14T11:10:50.869Z</time></trkpt><trkpt lat="42.4779367" lon="-7.6955667"><ele>448.40000000000003</ele><time>2026-04-14T11:10:51.868Z</time></trkpt><trkpt lat="42.4780133" lon="-7.6955267"><ele>446.59999999999997</ele><time>2026-04-14T11:10:52.868Z</time></trkpt><trkpt lat="42.4781217" lon="-7.695485"><ele>444.79999999999995</ele><time>2026-04-14T11:10:53.869Z</time></trkpt><trkpt lat="42.4782417" lon="-7.6954383"><ele>443.0</ele><time>2026-04-14T11:10:54.868Z</time></trkpt><trkpt lat="42.4783717" lon="-7.69537"><ele>443.0</ele><time>2026-04-14T11:10:55.869Z</time></trkpt><trkpt lat="42.4784833" lon="-7.695315"><ele>442.99999999999994</ele><time>2026-04-14T11:10:56.869Z</time></trkpt><trkpt lat="42.4785767" lon="-7.6952583"><ele>442.99999999999994</ele><time>2026-04-14T11:10:57.868Z</time></trkpt><trkpt lat="42.47865" lon="-7.69521"><ele>443.0</ele><time>2026-04-14T11:10:58.869Z</time></trkpt><trkpt lat="42.4787017" lon="-7.6951533"><ele>443.0</ele><time>2026-04-14T11:10:59.869Z</time></trkpt><trkpt lat="42.4787067" lon="-7.695"><ele>448.99999999999994</ele><time>2026-04-14T11:11:01.869Z</time></trkpt><trkpt lat="42.4786617" lon="-7.6948633"><ele>455.0</ele><time>2026-04-14T11:11:03.869Z</time></trkpt><trkpt lat="42.4785983" lon="-7.69481"><ele>461.0</ele><time>2026-04-14T11:11:04.869Z</time></trkpt><trkpt lat="42.4785117" lon="-7.6947583"><ele>467.0</ele><time>2026-04-14T11:11:05.868Z</time></trkpt><trkpt lat="42.4784483" lon="-7.69473"><ele>472.99999999999994</ele><time>2026-04-14T11:11:06.868Z</time></trkpt><trkpt lat="42.4783667" lon="-7.6947"><ele>479.0</ele><time>2026-04-14T11:11:07.869Z</time></trkpt><trkpt lat="42.47829" lon="-7.694675"><ele>479.0</ele><time>2026-04-14T11:11:08.869Z</time></trkpt><trkpt lat="42.4781917" lon="-7.6946483"><ele>479.0</ele><time>2026-04-14T11:11:09.869Z</time></trkpt><trkpt lat="42.47795" lon="-7.6945483"><ele>479.0</ele><time>2026-04-14T11:11:10.869Z</time></trkpt><trkpt lat="42.4778517" lon="-7.6945333"><ele>480.3333333333333</ele><time>2026-04-14T11:11:11.869Z</time></trkpt><trkpt lat="42.4777083" lon="-7.694515"><ele>481.66666666666663</ele><time>2026-04-14T11:11:12.868Z</time></trkpt><trkpt lat="42.4775267" lon="-7.694515"><ele>483.0</ele><time>2026-04-14T11:11:13.869Z</time></trkpt><trkpt lat="42.477315" lon="-7.6945783"><ele>483.0</ele><time>2026-04-14T11:11:14.868Z</time></trkpt><trkpt lat="42.47712" lon="-7.6945983"><ele>483.0</ele><time>2026-04-14T11:11:15.868Z</time></trkpt><trkpt lat="42.4767767" lon="-7.6946783"><ele>492.0</ele><time>2026-04-14T11:11:16.869Z</time></trkpt><trkpt lat="42.47657" lon="-7.6947317"><ele>501.0</ele><time>2026-04-14T11:11:17.868Z</time></trkpt><trkpt lat="42.4763433" lon="-7.6947433"><ele>510.0</ele><time>2026-04-14T11:11:18.869Z</time></trkpt><trkpt lat="42.4761833" lon="-7.6947433"><ele>515.25</ele><time>2026-04-14T11:11:19.868Z</time></trkpt><trkpt lat="42.476045" lon="-7.6947383"><ele>520.5</ele><time>2026-04-14T11:11:20.868Z</time></trkpt><trkpt lat="42.4759333" lon="-7.6947833"><ele>525.75</ele><time>2026-04-14T11:11:21.869Z</time></trkpt><trkpt lat="42.475845" lon="-7.69487"><ele>531.0</ele><time>2026-04-14T11:11:22.868Z</time></trkpt><trkpt lat="42.4758317" lon="-7.694995"><ele>531.0</ele><time>2026-04-14T11:11:23.868Z</time></trkpt><trkpt lat="42.4758383" lon="-7.6951533"><ele>531.0</ele><time>2026-04-14T11:11:24.869Z</time></trkpt><trkpt lat="42.4758767" lon="-7.6953583"><ele>531.0</ele><time>2026-04-14T11:11:25.868Z</time></trkpt><trkpt lat="42.4758967" lon="-7.69554"><ele>531.0</ele><time>2026-04-14T11:11:26.869Z</time></trkpt><trkpt lat="42.47599" lon="-7.6957933"><ele>528.6666666666666</ele><time>2026-04-14T11:11:27.869Z</time></trkpt><trkpt lat="42.4761" lon="-7.696085"><ele>526.3333333333333</ele><time>2026-04-14T11:11:28.869Z</time></trkpt><trkpt lat="42.47617" lon="-7.6963183"><ele>524.0</ele><time>2026-04-14T11:11:29.868Z</time></trkpt><trkpt lat="42.476195" lon="-7.6965233"><ele>524.0</ele><time>2026-04-14T11:11:30.868Z</time></trkpt><trkpt lat="42.4762083" lon="-7.6967017"><ele>524.0</ele><time>2026-04-14T11:11:31.869Z</time></trkpt><trkpt lat="42.4761867" lon="-7.6968417"><ele>524.0</ele><time>2026-04-14T11:11:32.868Z</time></trkpt><trkpt lat="42.4761533" lon="-7.6969417"><ele>524.0</ele><time>2026-04-14T11:11:33.869Z</time></trkpt><trkpt lat="42.4760833" lon="-7.6969883"><ele>524.0</ele><time>2026-04-14T11:11:34.869Z</time></trkpt><trkpt lat="42.4759717" lon="-7.696995"><ele>518.0</ele><time>2026-04-14T11:11:35.868Z</time></trkpt><trkpt lat="42.4758317" lon="-7.69699"><ele>512.0</ele><time>2026-04-14T11:11:36.869Z</time></trkpt><trkpt lat="42.4756367" lon="-7.696945"><ele>506.0</ele><time>2026-04-14T11:11:37.869Z</time></trkpt><trkpt lat="42.4754317" lon="-7.6969033"><ele>518.3333333333333</ele><time>2026-04-14T11:11:38.869Z</time></trkpt><trkpt lat="42.4752217" lon="-7.6968917"><ele>530.6666666666666</ele><time>2026-04-14T11:11:39.869Z</time></trkpt><trkpt lat="42.4750283" lon="-7.6969067"><ele>543.0</ele><time>2026-04-14T11:11:40.868Z</time></trkpt><trkpt lat="42.4748583" lon="-7.696915"><ele>543.0</ele><time>2026-04-14T11:11:41.869Z</time></trkpt><trkpt lat="42.4747117" lon="-7.6969067"><ele>543.0</ele><time>2026-04-14T11:11:42.869Z</time></trkpt><trkpt lat="42.474575" lon="-7.6968883"><ele>543.0</ele><time>2026-04-14T11:11:43.868Z</time></trkpt><trkpt lat="42.4744617" lon="-7.696885"><ele>543.0</ele><time>2026-04-14T11:11:44.868Z</time></trkpt><trkpt lat="42.474385" lon="-7.6969317"><ele>544.6</ele><time>2026-04-14T11:11:45.869Z</time></trkpt><trkpt lat="42.4743283" lon="-7.6970117"><ele>546.1999999999999</ele><time>2026-04-14T11:11:46.869Z</time></trkpt><trkpt lat="42.4742933" lon="-7.6971017"><ele>547.8</ele><time>2026-04-14T11:11:47.869Z</time></trkpt><trkpt lat="42.4742833" lon="-7.6972217"><ele>549.4</ele><time>2026-04-14T11:11:48.869Z</time></trkpt><trkpt lat="42.4743167" lon="-7.69738"><ele>551.0</ele><time>2026-04-14T11:11:49.869Z</time></trkpt><trkpt lat="42.4743567" lon="-7.697565"><ele>548.25</ele><time>2026-04-14T11:11:50.868Z</time></trkpt><trkpt lat="42.474415" lon="-7.69777"><ele>545.5</ele><time>2026-04-14T11:11:51.868Z</time></trkpt><trkpt lat="42.4744783" lon="-7.6979567"><ele>542.75</ele><time>2026-04-14T11:11:52.868Z</time></trkpt><trkpt lat="42.474525" lon="-7.6981133"><ele>540.0</ele><time>2026-04-14T11:11:53.869Z</time></trkpt><trkpt lat="42.4745367" lon="-7.69824"><ele>540.0</ele><time>2026-04-14T11:11:54.868Z</time></trkpt><trkpt lat="42.4745117" lon="-7.6983383"><ele>540.0</ele><time>2026-04-14T11:11:55.869Z</time></trkpt><trkpt lat="42.4743833" lon="-7.6984117"><ele>540.0</ele><time>2026-04-14T11:11:57.868Z</time></trkpt><trkpt lat="42.474265" lon="-7.69839"><ele>540.0</ele><time>2026-04-14T11:11:58.869Z</time></trkpt><trkpt lat="42.4741117" lon="-7.6983633"><ele>540.0</ele><time>2026-04-14T11:11:59.868Z</time></trkpt><trkpt lat="42.4739383" lon="-7.6983617"><ele>540.0</ele><time>2026-04-14T11:12:00.869Z</time></trkpt><trkpt lat="42.4737233" lon="-7.6983783"><ele>540.0</ele><time>2026-04-14T11:12:01.869Z</time></trkpt><trkpt lat="42.473495" lon="-7.6984017"><ele>544.0</ele><time>2026-04-14T11:12:02.868Z</time></trkpt><trkpt lat="42.4732867" lon="-7.698445"><ele>548.0</ele><time>2026-04-14T11:12:03.868Z</time></trkpt><trkpt lat="42.4731283" lon="-7.6984633"><ele>552.0</ele><time>2026-04-14T11:12:04.869Z</time></trkpt><trkpt lat="42.4730283" lon="-7.6985083"><ele>552.0</ele><time>2026-04-14T11:12:05.869Z</time></trkpt><trkpt lat="42.472985" lon="-7.6985783"><ele>552.0</ele><time>2026-04-14T11:12:06.869Z</time></trkpt><trkpt lat="42.4729567" lon="-7.6986833"><ele>552.0</ele><time>2026-04-14T11:12:07.868Z</time></trkpt><trkpt lat="42.47296" lon="-7.698805"><ele>552.0</ele><time>2026-04-14T11:12:08.868Z</time></trkpt><trkpt lat="42.47296" lon="-7.698945"><ele>552.0</ele><time>2026-04-14T11:12:09.868Z</time></trkpt><trkpt lat="42.4729567" lon="-7.6990833"><ele>552.0</ele><time>2026-04-14T11:12:10.869Z</time></trkpt><trkpt lat="42.4729317" lon="-7.699185"><ele>554.6</ele><time>2026-04-14T11:12:11.869Z</time></trkpt><trkpt lat="42.4728717" lon="-7.6992533"><ele>557.2</ele><time>2026-04-14T11:12:12.869Z</time></trkpt><trkpt lat="42.4728017" lon="-7.6993367"><ele>559.8</ele><time>2026-04-14T11:12:13.869Z</time></trkpt><trkpt lat="42.4727333" lon="-7.6994183"><ele>562.4</ele><time>2026-04-14T11:12:14.868Z</time></trkpt><trkpt lat="42.4727" lon="-7.6995267"><ele>565.0</ele><time>2026-04-14T11:12:15.869Z</time></trkpt><trkpt lat="42.4727183" lon="-7.6996667"><ele>565.0</ele><time>2026-04-14T11:12:16.869Z</time></trkpt><trkpt lat="42.4727217" lon="-7.69981"><ele>565.0</ele><time>2026-04-14T11:12:17.869Z</time></trkpt><trkpt lat="42.4727067" lon="-7.6999283"><ele>565.0</ele><time>2026-04-14T11:12:18.868Z</time></trkpt><trkpt lat="42.4726467" lon="-7.7000517"><ele>565.0</ele><time>2026-04-14T11:12:19.868Z</time></trkpt><trkpt lat="42.4725433" lon="-7.70019"><ele>565.0</ele><time>2026-04-14T11:12:20.869Z</time></trkpt><trkpt lat="42.4724183" lon="-7.7003317"><ele>567.3333333333334</ele><time>2026-04-14T11:12:21.868Z</time></trkpt><trkpt lat="42.4722883" lon="-7.70048"><ele>569.6666666666666</ele><time>2026-04-14T11:12:22.869Z</time></trkpt><trkpt lat="42.4721617" lon="-7.7006317"><ele>572.0</ele><time>2026-04-14T11:12:23.869Z</time></trkpt><trkpt lat="42.47202" lon="-7.7007833"><ele>572.0</ele><time>2026-04-14T11:12:24.868Z</time></trkpt><trkpt lat="42.47188" lon="-7.7009367"><ele>572.0</ele><time>2026-04-14T11:12:25.868Z</time></trkpt><trkpt lat="42.4717183" lon="-7.7010617"><ele>572.0</ele><time>2026-04-14T11:12:26.869Z</time></trkpt><trkpt lat="42.4715517" lon="-7.7011517"><ele>571.0</ele><time>2026-04-14T11:12:27.869Z</time></trkpt><trkpt lat="42.4713883" lon="-7.701195"><ele>570.0</ele><time>2026-04-14T11:12:28.868Z</time></trkpt><trkpt lat="42.471245" lon="-7.70121"><ele>569.0</ele><time>2026-04-14T11:12:29.869Z</time></trkpt><trkpt lat="42.4711117" lon="-7.7011717"><ele>568.0</ele><time>2026-04-14T11:12:30.868Z</time></trkpt><trkpt lat="42.4709833" lon="-7.70109"><ele>567.1999999999999</ele><time>2026-04-14T11:12:31.869Z</time></trkpt><trkpt lat="42.470865" lon="-7.7009833"><ele>566.4</ele><time>2026-04-14T11:12:32.869Z</time></trkpt><trkpt lat="42.4707667" lon="-7.7009033"><ele>565.5999999999999</ele><time>2026-04-14T11:12:33.868Z</time></trkpt><trkpt lat="42.4706867" lon="-7.7008467"><ele>564.8</ele><time>2026-04-14T11:12:34.869Z</time></trkpt><trkpt lat="42.470605" lon="-7.7008"><ele>564.0</ele><time>2026-04-14T11:12:35.869Z</time></trkpt><trkpt lat="42.47053" lon="-7.700755"><ele>564.0</ele><time>2026-04-14T11:12:36.868Z</time></trkpt><trkpt lat="42.4704617" lon="-7.7007183"><ele>564.0</ele><time>2026-04-14T11:12:37.868Z</time></trkpt><trkpt lat="42.4704017" lon="-7.70069"><ele>564.0</ele><time>2026-04-14T11:12:38.869Z</time></trkpt><trkpt lat="42.4702833" lon="-7.70068"><ele>564.0</ele><time>2026-04-14T11:12:40.868Z</time></trkpt><trkpt lat="42.47021" lon="-7.7007033"><ele>564.0</ele><time>2026-04-14T11:12:41.868Z</time></trkpt><trkpt lat="42.47013" lon="-7.7007283"><ele>564.0</ele><time>2026-04-14T11:12:42.869Z</time></trkpt><trkpt lat="42.470055" lon="-7.7007583"><ele>564.1666666666666</ele><time>2026-04-14T11:12:43.869Z</time></trkpt><trkpt lat="42.46998" lon="-7.7007833"><ele>564.3333333333334</ele><time>2026-04-14T11:12:44.869Z</time></trkpt><trkpt lat="42.4698967" lon="-7.7008033"><ele>564.5</ele><time>2026-04-14T11:12:45.868Z</time></trkpt><trkpt lat="42.4698217" lon="-7.700825"><ele>564.6666666666667</ele><time>2026-04-14T11:12:46.868Z</time></trkpt><trkpt lat="42.4697467" lon="-7.700845"><ele>564.8333333333334</ele><time>2026-04-14T11:12:47.868Z</time></trkpt><trkpt lat="42.4696767" lon="-7.7008633"><ele>565.0</ele><time>2026-04-14T11:12:48.869Z</time></trkpt><trkpt lat="42.469605" lon="-7.7008733"><ele>565.5</ele><time>2026-04-14T11:12:49.869Z</time></trkpt><trkpt lat="42.4695317" lon="-7.700885"><ele>566.0</ele><time>2026-04-14T11:12:50.869Z</time></trkpt><trkpt lat="42.4694583" lon="-7.7008817"><ele>566.5</ele><time>2026-04-14T11:12:51.868Z</time></trkpt><trkpt lat="42.4693933" lon="-7.70089"><ele>567.0</ele><time>2026-04-14T11:12:52.868Z</time></trkpt><trkpt lat="42.4693217" lon="-7.700895"><ele>567.5</ele><time>2026-04-14T11:12:53.868Z</time></trkpt><trkpt lat="42.4692517" lon="-7.7009067"><ele>568.0</ele><time>2026-04-14T11:12:54.869Z</time></trkpt><trkpt lat="42.469305" lon="-7.700785"><ele>568.0</ele><time>2026-04-14T11:13:00.868Z</time></trkpt><trkpt lat="42.469335" lon="-7.7007017"><ele>568.0</ele><time>2026-04-14T11:13:01.868Z</time></trkpt><trkpt lat="42.4693417" lon="-7.7005767"><ele>568.0</ele><time>2026-04-14T11:13:02.869Z</time></trkpt><trkpt lat="42.469325" lon="-7.7004067"><ele>568.0</ele><time>2026-04-14T11:13:03.868Z</time></trkpt><trkpt lat="42.46931" lon="-7.7002033"><ele>568.0</ele><time>2026-04-14T11:13:04.868Z</time></trkpt><trkpt lat="42.4692733" lon="-7.6999567"><ele>569.0</ele><time>2026-04-14T11:13:05.869Z</time></trkpt><trkpt lat="42.469225" lon="-7.6997083"><ele>570.0</ele><time>2026-04-14T11:13:06.868Z</time></trkpt><trkpt lat="42.46917" lon="-7.6994933"><ele>571.0</ele><time>2026-04-14T11:13:07.868Z</time></trkpt><trkpt lat="42.4691" lon="-7.6993083"><ele>573.25</ele><time>2026-04-14T11:13:08.868Z</time></trkpt><trkpt lat="42.4690217" lon="-7.69915"><ele>575.5</ele><time>2026-04-14T11:13:09.868Z</time></trkpt><trkpt lat="42.4689333" lon="-7.699005"><ele>577.75</ele><time>2026-04-14T11:13:10.869Z</time></trkpt><trkpt lat="42.4688333" lon="-7.6988567"><ele>580.0</ele><time>2026-04-14T11:13:11.869Z</time></trkpt><trkpt lat="42.4687233" lon="-7.6986883"><ele>581.0</ele><time>2026-04-14T11:13:12.869Z</time></trkpt><trkpt lat="42.4686117" lon="-7.69851"><ele>582.0</ele><time>2026-04-14T11:13:13.869Z</time></trkpt><trkpt lat="42.4685017" lon="-7.6983417"><ele>583.0</ele><time>2026-04-14T11:13:14.868Z</time></trkpt><trkpt lat="42.4684067" lon="-7.6981783"><ele>583.0</ele><time>2026-04-14T11:13:15.868Z</time></trkpt><trkpt lat="42.46833" lon="-7.6979917"><ele>583.0</ele><time>2026-04-14T11:13:16.868Z</time></trkpt><trkpt lat="42.4682533" lon="-7.6977867"><ele>583.0</ele><time>2026-04-14T11:13:17.869Z</time></trkpt><trkpt lat="42.4681733" lon="-7.6975467"><ele>585.0</ele><time>2026-04-14T11:13:18.868Z</time></trkpt><trkpt lat="42.4681067" lon="-7.697285"><ele>587.0</ele><time>2026-04-14T11:13:19.868Z</time></trkpt><trkpt lat="42.4680533" lon="-7.69702"><ele>589.0</ele><time>2026-04-14T11:13:20.869Z</time></trkpt><trkpt lat="42.468015" lon="-7.69678"><ele>588.0</ele><time>2026-04-14T11:13:21.868Z</time></trkpt><trkpt lat="42.46798" lon="-7.6965517"><ele>587.0</ele><time>2026-04-14T11:13:22.869Z</time></trkpt><trkpt lat="42.4679383" lon="-7.6963517"><ele>586.0</ele><time>2026-04-14T11:13:23.869Z</time></trkpt><trkpt lat="42.4678967" lon="-7.6962"><ele>585.0</ele><time>2026-04-14T11:13:24.87Z</time></trkpt><trkpt lat="42.46784" lon="-7.6960867"><ele>586.0</ele><time>2026-04-14T11:13:25.869Z</time></trkpt><trkpt lat="42.46777" lon="-7.69601"><ele>587.0</ele><time>2026-04-14T11:13:26.87Z</time></trkpt><trkpt lat="42.4676567" lon="-7.6959767"><ele>588.0</ele><time>2026-04-14T11:13:27.87Z</time></trkpt><trkpt lat="42.467515" lon="-7.69597"><ele>589.0</ele><time>2026-04-14T11:13:28.869Z</time></trkpt><trkpt lat="42.46735" lon="-7.69602"><ele>588.0</ele><time>2026-04-14T11:13:29.869Z</time></trkpt><trkpt lat="42.4671983" lon="-7.69609"><ele>587.0</ele><time>2026-04-14T11:13:30.87Z</time></trkpt><trkpt lat="42.46707" lon="-7.6961317"><ele>586.0</ele><time>2026-04-14T11:13:31.869Z</time></trkpt><trkpt lat="42.4669183" lon="-7.696135"><ele>585.0</ele><time>2026-04-14T11:13:32.869Z</time></trkpt><trkpt lat="42.4667433" lon="-7.6961033"><ele>585.0</ele><time>2026-04-14T11:13:33.869Z</time></trkpt><trkpt lat="42.4665867" lon="-7.696075"><ele>585.0</ele><time>2026-04-14T11:13:34.87Z</time></trkpt><trkpt lat="42.4664333" lon="-7.6960033"><ele>585.0</ele><time>2026-04-14T11:13:35.869Z</time></trkpt><trkpt lat="42.4662867" lon="-7.6958867"><ele>583.75</ele><time>2026-04-14T11:13:36.869Z</time></trkpt><trkpt lat="42.46615" lon="-7.695775"><ele>582.5</ele><time>2026-04-14T11:13:37.869Z</time></trkpt><trkpt lat="42.4660383" lon="-7.695705"><ele>581.25</ele><time>2026-04-14T11:13:38.87Z</time></trkpt><trkpt lat="42.4659533" lon="-7.6956767"><ele>580.0</ele><time>2026-04-14T11:13:39.869Z</time></trkpt><trkpt lat="42.4658533" lon="-7.69566"><ele>580.0</ele><time>2026-04-14T11:13:40.87Z</time></trkpt><trkpt lat="42.4657467" lon="-7.6957"><ele>580.0</ele><time>2026-04-14T11:13:41.87Z</time></trkpt><trkpt lat="42.4656233" lon="-7.695785"><ele>580.0</ele><time>2026-04-14T11:13:42.869Z</time></trkpt><trkpt lat="42.465505" lon="-7.6958667"><ele>580.0</ele><time>2026-04-14T11:13:43.87Z</time></trkpt><trkpt lat="42.46539" lon="-7.6959583"><ele>577.25</ele><time>2026-04-14T11:13:44.869Z</time></trkpt><trkpt lat="42.4652683" lon="-7.696035"><ele>574.5</ele><time>2026-04-14T11:13:45.869Z</time></trkpt><trkpt lat="42.465145" lon="-7.6961033"><ele>571.75</ele><time>2026-04-14T11:13:46.869Z</time></trkpt><trkpt lat="42.4650233" lon="-7.6961667"><ele>569.0</ele><time>2026-04-14T11:13:47.869Z</time></trkpt><trkpt lat="42.4649083" lon="-7.6962533"><ele>568.3333333333333</ele><time>2026-04-14T11:13:48.869Z</time></trkpt><trkpt lat="42.4648167" lon="-7.6963283"><ele>567.6666666666666</ele><time>2026-04-14T11:13:49.87Z</time></trkpt><trkpt lat="42.4647533" lon="-7.6963967"><ele>567.0</ele><time>2026-04-14T11:13:50.87Z</time></trkpt><trkpt lat="42.4646717" lon="-7.69646"><ele>566.3333333333334</ele><time>2026-04-14T11:13:52.869Z</time></trkpt><trkpt lat="42.4646333" lon="-7.6963917"><ele>565.6666666666667</ele><time>2026-04-14T11:13:54.87Z</time></trkpt><trkpt lat="42.464595" lon="-7.6963117"><ele>565.0</ele><time>2026-04-14T11:13:55.87Z</time></trkpt><trkpt lat="42.4645383" lon="-7.69619"><ele>562.0</ele><time>2026-04-14T11:13:56.87Z</time></trkpt><trkpt lat="42.4644867" lon="-7.6960233"><ele>559.0</ele><time>2026-04-14T11:13:57.87Z</time></trkpt><trkpt lat="42.464425" lon="-7.6958267"><ele>556.0</ele><time>2026-04-14T11:13:58.87Z</time></trkpt><trkpt lat="42.4643533" lon="-7.6956617"><ele>553.0</ele><time>2026-04-14T11:13:59.87Z</time></trkpt><trkpt lat="42.4642933" lon="-7.695515"><ele>553.0</ele><time>2026-04-14T11:14:00.87Z</time></trkpt><trkpt lat="42.464215" lon="-7.69539"><ele>553.0</ele><time>2026-04-14T11:14:01.869Z</time></trkpt><trkpt lat="42.464125" lon="-7.6952617"><ele>553.0</ele><time>2026-04-14T11:14:02.87Z</time></trkpt><trkpt lat="42.4640117" lon="-7.6951533"><ele>553.0</ele><time>2026-04-14T11:14:03.869Z</time></trkpt><trkpt lat="42.463835" lon="-7.6950967"><ele>551.25</ele><time>2026-04-14T11:14:04.87Z</time></trkpt><trkpt lat="42.463675" lon="-7.6950633"><ele>549.5</ele><time>2026-04-14T11:14:05.87Z</time></trkpt><trkpt lat="42.463535" lon="-7.695055"><ele>547.75</ele><time>2026-04-14T11:14:06.869Z</time></trkpt><trkpt lat="42.4634133" lon="-7.695065"><ele>546.0</ele><time>2026-04-14T11:14:07.869Z</time></trkpt><trkpt lat="42.4633" lon="-7.695075"><ele>546.0</ele><time>2026-04-14T11:14:08.87Z</time></trkpt><trkpt lat="42.4632" lon="-7.6951017"><ele>546.0</ele><time>2026-04-14T11:14:09.869Z</time></trkpt><trkpt lat="42.4631083" lon="-7.6951633"><ele>546.0</ele><time>2026-04-14T11:14:10.869Z</time></trkpt><trkpt lat="42.4630283" lon="-7.6952333"><ele>546.0</ele><time>2026-04-14T11:14:11.87Z</time></trkpt><trkpt lat="42.4629683" lon="-7.6952817"><ele>546.0</ele><time>2026-04-14T11:14:12.87Z</time></trkpt><trkpt lat="42.4628983" lon="-7.6952917"><ele>546.0</ele><time>2026-04-14T11:14:14.869Z</time></trkpt><trkpt lat="42.462885" lon="-7.6951367"><ele>545.8</ele><time>2026-04-14T11:14:16.869Z</time></trkpt><trkpt lat="42.4628867" lon="-7.6949917"><ele>545.6</ele><time>2026-04-14T11:14:17.87Z</time></trkpt><trkpt lat="42.4628867" lon="-7.6948083"><ele>545.4</ele><time>2026-04-14T11:14:18.869Z</time></trkpt><trkpt lat="42.462895" lon="-7.6946567"><ele>545.2</ele><time>2026-04-14T11:14:19.869Z</time></trkpt><trkpt lat="42.4629033" lon="-7.69455"><ele>545.0</ele><time>2026-04-14T11:14:20.87Z</time></trkpt><trkpt lat="42.4628883" lon="-7.69433"><ele>545.0</ele><time>2026-04-14T11:14:32.87Z</time></trkpt><trkpt lat="42.4628517" lon="-7.6942583"><ele>545.0</ele><time>2026-04-14T11:14:34.87Z</time></trkpt><trkpt lat="42.4628" lon="-7.694125"><ele>545.0</ele><time>2026-04-14T11:14:41.869Z</time></trkpt><trkpt lat="42.4627733" lon="-7.6940067"><ele>545.0</ele><time>2026-04-14T11:14:45.87Z</time></trkpt><trkpt lat="42.4627483" lon="-7.693915"><ele>545.0</ele><time>2026-04-14T11:14:46.87Z</time></trkpt><trkpt lat="42.4627533" lon="-7.6937783"><ele>545.0</ele><time>2026-04-14T11:14:48.869Z</time></trkpt><trkpt lat="42.4627683" lon="-7.69365"><ele>546.0</ele><time>2026-04-14T11:14:49.87Z</time></trkpt><trkpt lat="42.4627883" lon="-7.6934633"><ele>547.0</ele><time>2026-04-14T11:14:50.87Z</time></trkpt><trkpt lat="42.4628417" lon="-7.69316"><ele>548.0</ele><time>2026-04-14T11:14:51.869Z</time></trkpt><trkpt lat="42.462865" lon="-7.6928417"><ele>550.0</ele><time>2026-04-14T11:14:52.869Z</time></trkpt><trkpt lat="42.462885" lon="-7.6925767"><ele>552.0</ele><time>2026-04-14T11:14:53.87Z</time></trkpt><trkpt lat="42.4628783" lon="-7.6923317"><ele>554.0</ele><time>2026-04-14T11:14:54.87Z</time></trkpt><trkpt lat="42.4628317" lon="-7.692055"><ele>557.3333333333333</ele><time>2026-04-14T11:14:55.869Z</time></trkpt><trkpt lat="42.4627567" lon="-7.6917817"><ele>560.6666666666666</ele><time>2026-04-14T11:14:56.87Z</time></trkpt><trkpt lat="42.462675" lon="-7.69152"><ele>564.0</ele><time>2026-04-14T11:14:57.87Z</time></trkpt><trkpt lat="42.4625833" lon="-7.69126"><ele>567.3333333333334</ele><time>2026-04-14T11:14:58.87Z</time></trkpt><trkpt lat="42.4624883" lon="-7.69099"><ele>570.6666666666667</ele><time>2026-04-14T11:14:59.869Z</time></trkpt><trkpt lat="42.4623983" lon="-7.69072"><ele>574.0</ele><time>2026-04-14T11:15:00.869Z</time></trkpt><trkpt lat="42.4623033" lon="-7.6904633"><ele>576.0</ele><time>2026-04-14T11:15:01.87Z</time></trkpt><trkpt lat="42.4621783" lon="-7.6902383"><ele>578.0</ele><time>2026-04-14T11:15:02.87Z</time></trkpt><trkpt lat="42.46203" lon="-7.6900517"><ele>580.0</ele><time>2026-04-14T11:15:03.869Z</time></trkpt><trkpt lat="42.461855" lon="-7.6898767"><ele>582.6666666666667</ele><time>2026-04-14T11:15:04.869Z</time></trkpt><trkpt lat="42.46168" lon="-7.68971"><ele>585.3333333333334</ele><time>2026-04-14T11:15:05.87Z</time></trkpt><trkpt lat="42.4614967" lon="-7.68955"><ele>588.0</ele><time>2026-04-14T11:15:06.869Z</time></trkpt><trkpt lat="42.4613117" lon="-7.6893917"><ele>592.3333333333334</ele><time>2026-04-14T11:15:07.869Z</time></trkpt><trkpt lat="42.4611333" lon="-7.6892517"><ele>596.6666666666667</ele><time>2026-04-14T11:15:08.869Z</time></trkpt><trkpt lat="42.4609567" lon="-7.6891267"><ele>601.0</ele><time>2026-04-14T11:15:09.87Z</time></trkpt><trkpt lat="42.460785" lon="-7.6889817"><ele>601.0</ele><time>2026-04-14T11:15:10.869Z</time></trkpt><trkpt lat="42.46064" lon="-7.688865"><ele>601.0</ele><time>2026-04-14T11:15:11.87Z</time></trkpt><trkpt lat="42.4605483" lon="-7.6887983"><ele>601.0</ele><time>2026-04-14T11:15:12.87Z</time></trkpt><trkpt lat="42.460455" lon="-7.6887883"><ele>601.0</ele><time>2026-04-14T11:15:14.869Z</time></trkpt><trkpt lat="42.46039" lon="-7.68885"><ele>601.0</ele><time>2026-04-14T11:15:15.869Z</time></trkpt><trkpt lat="42.4603067" lon="-7.6889383"><ele>600.75</ele><time>2026-04-14T11:15:16.87Z</time></trkpt><trkpt lat="42.4602133" lon="-7.6890183"><ele>600.5</ele><time>2026-04-14T11:15:17.869Z</time></trkpt><trkpt lat="42.46011" lon="-7.68908"><ele>600.25</ele><time>2026-04-14T11:15:18.87Z</time></trkpt><trkpt lat="42.459995" lon="-7.6891167"><ele>600.0</ele><time>2026-04-14T11:15:19.869Z</time></trkpt><trkpt lat="42.4598617" lon="-7.6891383"><ele>600.0</ele><time>2026-04-14T11:15:20.869Z</time></trkpt><trkpt lat="42.4597217" lon="-7.6891633"><ele>600.0</ele><time>2026-04-14T11:15:21.869Z</time></trkpt><trkpt lat="42.45958" lon="-7.6891733"><ele>600.0</ele><time>2026-04-14T11:15:22.87Z</time></trkpt><trkpt lat="42.4594367" lon="-7.6891783"><ele>600.0</ele><time>2026-04-14T11:15:23.87Z</time></trkpt><trkpt lat="42.4592933" lon="-7.6891817"><ele>600.25</ele><time>2026-04-14T11:15:24.869Z</time></trkpt><trkpt lat="42.4591417" lon="-7.68918"><ele>600.5</ele><time>2026-04-14T11:15:25.869Z</time></trkpt><trkpt lat="42.4589867" lon="-7.6891733"><ele>600.75</ele><time>2026-04-14T11:15:26.87Z</time></trkpt><trkpt lat="42.458845" lon="-7.6891733"><ele>601.0</ele><time>2026-04-14T11:15:27.869Z</time></trkpt><trkpt lat="42.458725" lon="-7.689185"><ele>601.0</ele><time>2026-04-14T11:15:28.869Z</time></trkpt><trkpt lat="42.4586133" lon="-7.6892283"><ele>601.0</ele><time>2026-04-14T11:15:29.869Z</time></trkpt><trkpt lat="42.4585133" lon="-7.6892933"><ele>601.0</ele><time>2026-04-14T11:15:30.869Z</time></trkpt><trkpt lat="42.4584317" lon="-7.689355"><ele>601.0</ele><time>2026-04-14T11:15:31.869Z</time></trkpt><trkpt lat="42.4583767" lon="-7.68942"><ele>601.0</ele><time>2026-04-14T11:15:32.869Z</time></trkpt><trkpt lat="42.458345" lon="-7.68958"><ele>600.5</ele><time>2026-04-14T11:15:34.869Z</time></trkpt><trkpt lat="42.45837" lon="-7.6897083"><ele>600.0</ele><time>2026-04-14T11:15:35.869Z</time></trkpt><trkpt lat="42.4584233" lon="-7.6898667"><ele>599.5</ele><time>2026-04-14T11:15:36.869Z</time></trkpt><trkpt lat="42.4585033" lon="-7.6900317"><ele>599.0</ele><time>2026-04-14T11:15:37.87Z</time></trkpt><trkpt lat="42.4585983" lon="-7.6901517"><ele>599.0</ele><time>2026-04-14T11:15:38.869Z</time></trkpt><trkpt lat="42.45868" lon="-7.6902517"><ele>599.0</ele><time>2026-04-14T11:15:39.87Z</time></trkpt><trkpt lat="42.45873" lon="-7.6903283"><ele>599.0</ele><time>2026-04-14T11:15:40.869Z</time></trkpt><trkpt lat="42.458785" lon="-7.69039"><ele>599.0</ele><time>2026-04-14T11:15:41.869Z</time></trkpt><trkpt lat="42.45886" lon="-7.6904283"><ele>599.0</ele><time>2026-04-14T11:15:42.869Z</time></trkpt><trkpt lat="42.4589567" lon="-7.690465"><ele>599.0</ele><time>2026-04-14T11:15:43.869Z</time></trkpt><trkpt lat="42.45908" lon="-7.6904717"><ele>596.5</ele><time>2026-04-14T11:15:44.87Z</time></trkpt><trkpt lat="42.459165" lon="-7.690525"><ele>594.0</ele><time>2026-04-14T11:15:45.869Z</time></trkpt><trkpt lat="42.4592467" lon="-7.69061"><ele>591.5</ele><time>2026-04-14T11:15:46.869Z</time></trkpt><trkpt lat="42.45932" lon="-7.6907367"><ele>589.0</ele><time>2026-04-14T11:15:47.87Z</time></trkpt><trkpt lat="42.4593883" lon="-7.6909133"><ele>588.6666666666667</ele><time>2026-04-14T11:15:48.869Z</time></trkpt><trkpt lat="42.4594767" lon="-7.6911283"><ele>588.3333333333334</ele><time>2026-04-14T11:15:49.869Z</time></trkpt><trkpt lat="42.4595983" lon="-7.69133"><ele>588.0</ele><time>2026-04-14T11:15:50.869Z</time></trkpt><trkpt lat="42.4597433" lon="-7.691525"><ele>588.0</ele><time>2026-04-14T11:15:51.869Z</time></trkpt><trkpt lat="42.459885" lon="-7.6917167"><ele>588.0</ele><time>2026-04-14T11:15:52.87Z</time></trkpt><trkpt lat="42.46001" lon="-7.6919033"><ele>588.0</ele><time>2026-04-14T11:15:53.87Z</time></trkpt><trkpt lat="42.4601283" lon="-7.692105"><ele>588.0</ele><time>2026-04-14T11:15:54.869Z</time></trkpt><trkpt lat="42.460245" lon="-7.69232"><ele>588.0</ele><time>2026-04-14T11:15:55.869Z</time></trkpt><trkpt lat="42.4603567" lon="-7.692525"><ele>588.0</ele><time>2026-04-14T11:15:56.869Z</time></trkpt><trkpt lat="42.4604717" lon="-7.692715"><ele>588.5</ele><time>2026-04-14T11:15:57.87Z</time></trkpt><trkpt lat="42.4605767" lon="-7.6928667"><ele>589.0</ele><time>2026-04-14T11:15:58.87Z</time></trkpt><trkpt lat="42.4606533" lon="-7.6929983"><ele>589.5</ele><time>2026-04-14T11:15:59.869Z</time></trkpt><trkpt lat="42.460695" lon="-7.6931167"><ele>590.0</ele><time>2026-04-14T11:16:00.87Z</time></trkpt><trkpt lat="42.4607283" lon="-7.693215"><ele>590.0</ele><time>2026-04-14T11:16:01.87Z</time></trkpt><trkpt lat="42.4607433" lon="-7.6933"><ele>590.0</ele><time>2026-04-14T11:16:02.869Z</time></trkpt><trkpt lat="42.4607117" lon="-7.6934533"><ele>590.0</ele><time>2026-04-14T11:16:04.869Z</time></trkpt><trkpt lat="42.46067" lon="-7.693585"><ele>590.0</ele><time>2026-04-14T11:16:05.87Z</time></trkpt><trkpt lat="42.4606433" lon="-7.693725"><ele>590.0</ele><time>2026-04-14T11:16:06.869Z</time></trkpt><trkpt lat="42.4606267" lon="-7.69391"><ele>589.1666666666666</ele><time>2026-04-14T11:16:07.87Z</time></trkpt><trkpt lat="42.46062" lon="-7.694065"><ele>588.3333333333333</ele><time>2026-04-14T11:16:08.87Z</time></trkpt><trkpt lat="42.460605" lon="-7.69418"><ele>587.5</ele><time>2026-04-14T11:16:09.87Z</time></trkpt><trkpt lat="42.4605833" lon="-7.694285"><ele>586.6666666666666</ele><time>2026-04-14T11:16:10.869Z</time></trkpt><trkpt lat="42.460555" lon="-7.694375"><ele>585.8333333333334</ele><time>2026-04-14T11:16:11.869Z</time></trkpt><trkpt lat="42.4605317" lon="-7.69448"><ele>585.0</ele><time>2026-04-14T11:16:12.869Z</time></trkpt><trkpt lat="42.4605083" lon="-7.694605"><ele>584.3333333333334</ele><time>2026-04-14T11:16:13.87Z</time></trkpt><trkpt lat="42.460505" lon="-7.6947717"><ele>583.6666666666667</ele><time>2026-04-14T11:16:14.869Z</time></trkpt><trkpt lat="42.46052" lon="-7.695005"><ele>583.0</ele><time>2026-04-14T11:16:15.87Z</time></trkpt><trkpt lat="42.4605467" lon="-7.6952367"><ele>583.0</ele><time>2026-04-14T11:16:16.869Z</time></trkpt><trkpt lat="42.4605983" lon="-7.69544"><ele>583.0</ele><time>2026-04-14T11:16:17.87Z</time></trkpt><trkpt lat="42.4606733" lon="-7.6956283"><ele>583.0</ele><time>2026-04-14T11:16:18.87Z</time></trkpt><trkpt lat="42.4607367" lon="-7.6958017"><ele>583.0</ele><time>2026-04-14T11:16:19.869Z</time></trkpt><trkpt lat="42.460775" lon="-7.6959783"><ele>583.0</ele><time>2026-04-14T11:16:20.87Z</time></trkpt><trkpt lat="42.46077" lon="-7.69616"><ele>583.0</ele><time>2026-04-14T11:16:21.87Z</time></trkpt><trkpt lat="42.4607467" lon="-7.6963467"><ele>583.0</ele><time>2026-04-14T11:16:22.87Z</time></trkpt><trkpt lat="42.46071" lon="-7.6965317"><ele>582.0</ele><time>2026-04-14T11:16:23.87Z</time></trkpt><trkpt lat="42.46066" lon="-7.69673"><ele>581.0</ele><time>2026-04-14T11:16:24.87Z</time></trkpt><trkpt lat="42.4606067" lon="-7.6969083"><ele>580.0</ele><time>2026-04-14T11:16:25.869Z</time></trkpt><trkpt lat="42.46056" lon="-7.6970533"><ele>579.0</ele><time>2026-04-14T11:16:26.87Z</time></trkpt><trkpt lat="42.46051" lon="-7.69719"><ele>579.5</ele><time>2026-04-14T11:16:27.87Z</time></trkpt><trkpt lat="42.4604317" lon="-7.6973217"><ele>580.0</ele><time>2026-04-14T11:16:28.869Z</time></trkpt><trkpt lat="42.460345" lon="-7.6974717"><ele>580.5</ele><time>2026-04-14T11:16:29.869Z</time></trkpt><trkpt lat="42.4602583" lon="-7.6976267"><ele>581.0</ele><time>2026-04-14T11:16:30.87Z</time></trkpt><trkpt lat="42.4601817" lon="-7.69778"><ele>578.75</ele><time>2026-04-14T11:16:31.869Z</time></trkpt><trkpt lat="42.4600967" lon="-7.697915"><ele>576.5</ele><time>2026-04-14T11:16:32.87Z</time></trkpt><trkpt lat="42.460005" lon="-7.6980483"><ele>574.25</ele><time>2026-04-14T11:16:33.87Z</time></trkpt><trkpt lat="42.4599233" lon="-7.6981667"><ele>572.0</ele><time>2026-04-14T11:16:34.87Z</time></trkpt><trkpt lat="42.4598717" lon="-7.6982883"><ele>572.0</ele><time>2026-04-14T11:16:35.869Z</time></trkpt><trkpt lat="42.4598417" lon="-7.6984267"><ele>572.0</ele><time>2026-04-14T11:16:36.869Z</time></trkpt><trkpt lat="42.4598083" lon="-7.6985633"><ele>572.0</ele><time>2026-04-14T11:16:37.87Z</time></trkpt><trkpt lat="42.45976" lon="-7.698735"><ele>572.0</ele><time>2026-04-14T11:16:38.869Z</time></trkpt><trkpt lat="42.4597033" lon="-7.6988833"><ele>572.25</ele><time>2026-04-14T11:16:39.869Z</time></trkpt><trkpt lat="42.4596517" lon="-7.6990083"><ele>572.5</ele><time>2026-04-14T11:16:40.869Z</time></trkpt><trkpt lat="42.459595" lon="-7.6991167"><ele>572.75</ele><time>2026-04-14T11:16:41.869Z</time></trkpt><trkpt lat="42.4595267" lon="-7.699225"><ele>573.0</ele><time>2026-04-14T11:16:42.87Z</time></trkpt><trkpt lat="42.4594" lon="-7.6993167"><ele>569.75</ele><time>2026-04-14T11:16:43.869Z</time></trkpt><trkpt lat="42.459265" lon="-7.6994217"><ele>566.5</ele><time>2026-04-14T11:16:44.869Z</time></trkpt><trkpt lat="42.45915" lon="-7.6995467"><ele>563.25</ele><time>2026-04-14T11:16:45.87Z</time></trkpt><trkpt lat="42.459035" lon="-7.6996683"><ele>560.0</ele><time>2026-04-14T11:16:46.87Z</time></trkpt><trkpt lat="42.4589367" lon="-7.6997817"><ele>560.0</ele><time>2026-04-14T11:16:47.869Z</time></trkpt><trkpt lat="42.458845" lon="-7.6998883"><ele>560.0</ele><time>2026-04-14T11:16:48.87Z</time></trkpt><trkpt lat="42.45878" lon="-7.6999817"><ele>560.0</ele><time>2026-04-14T11:16:49.869Z</time></trkpt><trkpt lat="42.4587417" lon="-7.7000567"><ele>560.0</ele><time>2026-04-14T11:16:50.87Z</time></trkpt><trkpt lat="42.4587117" lon="-7.70019"><ele>560.0</ele><time>2026-04-14T11:16:52.87Z</time></trkpt><trkpt lat="42.4587483" lon="-7.70035"><ele>561.1666666666666</ele><time>2026-04-14T11:16:54.87Z</time></trkpt><trkpt lat="42.4587667" lon="-7.7004367"><ele>562.3333333333333</ele><time>2026-04-14T11:16:55.87Z</time></trkpt><trkpt lat="42.4587783" lon="-7.7005233"><ele>563.5</ele><time>2026-04-14T11:16:56.869Z</time></trkpt><trkpt lat="42.4587617" lon="-7.7006817"><ele>564.6666666666666</ele><time>2026-04-14T11:16:58.87Z</time></trkpt><trkpt lat="42.458725" lon="-7.7007633"><ele>565.8333333333334</ele><time>2026-04-14T11:16:59.869Z</time></trkpt><trkpt lat="42.458685" lon="-7.700865"><ele>567.0</ele><time>2026-04-14T11:17:00.87Z</time></trkpt><trkpt lat="42.458655" lon="-7.7009767"><ele>564.1666666666666</ele><time>2026-04-14T11:17:01.87Z</time></trkpt><trkpt lat="42.458625" lon="-7.7011067"><ele>561.3333333333334</ele><time>2026-04-14T11:17:02.869Z</time></trkpt><trkpt lat="42.4585717" lon="-7.7012"><ele>558.5</ele><time>2026-04-14T11:17:03.869Z</time></trkpt><trkpt lat="42.4585217" lon="-7.7012917"><ele>555.6666666666667</ele><time>2026-04-14T11:17:04.869Z</time></trkpt><trkpt lat="42.4584767" lon="-7.70139"><ele>552.8333333333334</ele><time>2026-04-14T11:17:05.869Z</time></trkpt><trkpt lat="42.4584283" lon="-7.7014767"><ele>550.0</ele><time>2026-04-14T11:17:06.87Z</time></trkpt><trkpt lat="42.4583817" lon="-7.7015633"><ele>550.0</ele><time>2026-04-14T11:17:07.869Z</time></trkpt><trkpt lat="42.458335" lon="-7.7016433"><ele>550.0</ele><time>2026-04-14T11:17:08.869Z</time></trkpt><trkpt lat="42.4582933" lon="-7.701735"><ele>550.0</ele><time>2026-04-14T11:17:09.869Z</time></trkpt><trkpt lat="42.4582567" lon="-7.7018267"><ele>550.0</ele><time>2026-04-14T11:17:10.869Z</time></trkpt><trkpt lat="42.45822" lon="-7.7019333"><ele>550.0</ele><time>2026-04-14T11:17:11.87Z</time></trkpt><trkpt lat="42.458185" lon="-7.7020367"><ele>550.0</ele><time>2026-04-14T11:17:12.87Z</time></trkpt><trkpt lat="42.45815" lon="-7.70212"><ele>548.0</ele><time>2026-04-14T11:17:13.869Z</time></trkpt><trkpt lat="42.4580883" lon="-7.7022067"><ele>546.0</ele><time>2026-04-14T11:17:15.87Z</time></trkpt><trkpt lat="42.4580033" lon="-7.7022267"><ele>544.0</ele><time>2026-04-14T11:17:17.87Z</time></trkpt><trkpt lat="42.4578617" lon="-7.702195"><ele>542.0</ele><time>2026-04-14T11:17:19.869Z</time></trkpt><trkpt lat="42.457715" lon="-7.7021667"><ele>538.0</ele><time>2026-04-14T11:17:20.869Z</time></trkpt><trkpt lat="42.4574267" lon="-7.70208"><ele>534.0</ele><time>2026-04-14T11:17:21.869Z</time></trkpt><trkpt lat="42.4572583" lon="-7.7020283"><ele>534.0</ele><time>2026-04-14T11:17:22.87Z</time></trkpt><trkpt lat="42.457125" lon="-7.7019667"><ele>534.0</ele><time>2026-04-14T11:17:23.869Z</time></trkpt><trkpt lat="42.457005" lon="-7.7018833"><ele>534.0</ele><time>2026-04-14T11:17:24.87Z</time></trkpt><trkpt lat="42.4569017" lon="-7.7017817"><ele>534.0</ele><time>2026-04-14T11:17:25.87Z</time></trkpt><trkpt lat="42.4567917" lon="-7.7016483"><ele>534.8</ele><time>2026-04-14T11:17:26.869Z</time></trkpt><trkpt lat="42.4566967" lon="-7.7015283"><ele>535.5999999999999</ele><time>2026-04-14T11:17:27.869Z</time></trkpt><trkpt lat="42.4566267" lon="-7.7014433"><ele>536.4</ele><time>2026-04-14T11:17:28.87Z</time></trkpt><trkpt lat="42.4565567" lon="-7.7013783"><ele>537.1999999999999</ele><time>2026-04-14T11:17:29.869Z</time></trkpt><trkpt lat="42.4564783" lon="-7.7013233"><ele>538.0</ele><time>2026-04-14T11:17:30.869Z</time></trkpt><trkpt lat="42.456395" lon="-7.7012517"><ele>538.0</ele><time>2026-04-14T11:17:31.87Z</time></trkpt><trkpt lat="42.4562933" lon="-7.7011633"><ele>538.0</ele><time>2026-04-14T11:17:32.87Z</time></trkpt><trkpt lat="42.456135" lon="-7.7010533"><ele>538.0</ele><time>2026-04-14T11:17:33.87Z</time></trkpt><trkpt lat="42.4559667" lon="-7.7009483"><ele>541.3333333333334</ele><time>2026-04-14T11:17:34.869Z</time></trkpt><trkpt lat="42.4558033" lon="-7.7008467"><ele>544.6666666666666</ele><time>2026-04-14T11:17:35.87Z</time></trkpt><trkpt lat="42.455645" lon="-7.7007533"><ele>548.0</ele><time>2026-04-14T11:17:36.869Z</time></trkpt><trkpt lat="42.455485" lon="-7.7006633"><ele>543.3333333333333</ele><time>2026-04-14T11:17:37.87Z</time></trkpt><trkpt lat="42.4553217" lon="-7.7005867"><ele>538.6666666666666</ele><time>2026-04-14T11:17:38.869Z</time></trkpt><trkpt lat="42.4551567" lon="-7.7005083"><ele>534.0</ele><time>2026-04-14T11:17:39.869Z</time></trkpt><trkpt lat="42.4549783" lon="-7.7004283"><ele>534.0</ele><time>2026-04-14T11:17:40.87Z</time></trkpt><trkpt lat="42.4548117" lon="-7.7003567"><ele>534.0</ele><time>2026-04-14T11:17:41.869Z</time></trkpt><trkpt lat="42.4546417" lon="-7.7002867"><ele>534.0</ele><time>2026-04-14T11:17:42.869Z</time></trkpt><trkpt lat="42.45448" lon="-7.700225"><ele>535.6</ele><time>2026-04-14T11:17:43.869Z</time></trkpt><trkpt lat="42.454335" lon="-7.7001867"><ele>537.2</ele><time>2026-04-14T11:17:44.87Z</time></trkpt><trkpt lat="42.454225" lon="-7.70017"><ele>538.8000000000001</ele><time>2026-04-14T11:17:45.87Z</time></trkpt><trkpt lat="42.4541333" lon="-7.7001933"><ele>540.4</ele><time>2026-04-14T11:17:46.87Z</time></trkpt><trkpt lat="42.4540383" lon="-7.7002217"><ele>542.0</ele><time>2026-04-14T11:17:47.869Z</time></trkpt><trkpt lat="42.4539067" lon="-7.700295"><ele>538.2</ele><time>2026-04-14T11:17:48.869Z</time></trkpt><trkpt lat="42.45379" lon="-7.700345"><ele>534.4000000000001</ele><time>2026-04-14T11:17:49.87Z</time></trkpt><trkpt lat="42.4536933" lon="-7.7003833"><ele>530.5999999999999</ele><time>2026-04-14T11:17:50.87Z</time></trkpt><trkpt lat="42.4535917" lon="-7.700405"><ele>526.8</ele><time>2026-04-14T11:17:51.869Z</time></trkpt><trkpt lat="42.4534833" lon="-7.700415"><ele>523.0</ele><time>2026-04-14T11:17:52.87Z</time></trkpt><trkpt lat="42.4533833" lon="-7.7004"><ele>524.0</ele><time>2026-04-14T11:17:53.869Z</time></trkpt><trkpt lat="42.4532783" lon="-7.7003483"><ele>525.0</ele><time>2026-04-14T11:17:54.869Z</time></trkpt><trkpt lat="42.453175" lon="-7.7003"><ele>526.0</ele><time>2026-04-14T11:17:55.869Z</time></trkpt><trkpt lat="42.4530933" lon="-7.70022"><ele>527.0</ele><time>2026-04-14T11:17:56.869Z</time></trkpt><trkpt lat="42.45303" lon="-7.7001283"><ele>528.0</ele><time>2026-04-14T11:17:57.869Z</time></trkpt><trkpt lat="42.4529767" lon="-7.7000017"><ele>521.3333333333334</ele><time>2026-04-14T11:17:58.869Z</time></trkpt><trkpt lat="42.4529317" lon="-7.69985"><ele>514.6666666666667</ele><time>2026-04-14T11:17:59.869Z</time></trkpt><trkpt lat="42.4529067" lon="-7.6996083"><ele>508.0</ele><time>2026-04-14T11:18:00.869Z</time></trkpt><trkpt lat="42.4528917" lon="-7.6992883"><ele>508.0</ele><time>2026-04-14T11:18:01.869Z</time></trkpt><trkpt lat="42.4528733" lon="-7.69905"><ele>508.0</ele><time>2026-04-14T11:18:02.869Z</time></trkpt><trkpt lat="42.4528617" lon="-7.6988233"><ele>508.0</ele><time>2026-04-14T11:18:03.87Z</time></trkpt><trkpt lat="42.4528533" lon="-7.6986083"><ele>511.6666666666667</ele><time>2026-04-14T11:18:04.87Z</time></trkpt><trkpt lat="42.45285" lon="-7.6984033"><ele>515.3333333333334</ele><time>2026-04-14T11:18:05.869Z</time></trkpt><trkpt lat="42.4528433" lon="-7.698195"><ele>519.0</ele><time>2026-04-14T11:18:06.87Z</time></trkpt><trkpt lat="42.4528217" lon="-7.6979983"><ele>519.0</ele><time>2026-04-14T11:18:07.869Z</time></trkpt><trkpt lat="42.4528017" lon="-7.6977867"><ele>519.0</ele><time>2026-04-14T11:18:08.869Z</time></trkpt><trkpt lat="42.452775" lon="-7.69757"><ele>519.0</ele><time>2026-04-14T11:18:09.87Z</time></trkpt><trkpt lat="42.4527617" lon="-7.6973483"><ele>523.3333333333334</ele><time>2026-04-14T11:18:10.869Z</time></trkpt><trkpt lat="42.4527333" lon="-7.6971467"><ele>527.6666666666667</ele><time>2026-04-14T11:18:11.87Z</time></trkpt><trkpt lat="42.45269" lon="-7.6969567"><ele>532.0</ele><time>2026-04-14T11:18:12.87Z</time></trkpt><trkpt lat="42.4526183" lon="-7.6967633"><ele>538.25</ele><time>2026-04-14T11:18:13.869Z</time></trkpt><trkpt lat="42.4525417" lon="-7.6966033"><ele>544.5</ele><time>2026-04-14T11:18:14.869Z</time></trkpt><trkpt lat="42.45247" lon="-7.6964533"><ele>550.75</ele><time>2026-04-14T11:18:15.87Z</time></trkpt><trkpt lat="42.4524133" lon="-7.6963283"><ele>557.0</ele><time>2026-04-14T11:18:16.87Z</time></trkpt><trkpt lat="42.4523467" lon="-7.6962367"><ele>557.0</ele><time>2026-04-14T11:18:17.87Z</time></trkpt><trkpt lat="42.4522933" lon="-7.69617"><ele>557.0</ele><time>2026-04-14T11:18:18.87Z</time></trkpt><trkpt lat="42.452175" lon="-7.6960733"><ele>557.0</ele><time>2026-04-14T11:18:20.869Z</time></trkpt><trkpt lat="42.452115" lon="-7.6960167"><ele>557.0</ele><time>2026-04-14T11:18:21.87Z</time></trkpt><trkpt lat="42.4520417" lon="-7.6959633"><ele>557.0</ele><time>2026-04-14T11:18:22.869Z</time></trkpt><trkpt lat="42.4519683" lon="-7.6958983"><ele>559.8000000000001</ele><time>2026-04-14T11:18:23.869Z</time></trkpt><trkpt lat="42.4518883" lon="-7.6958233"><ele>562.6</ele><time>2026-04-14T11:18:24.87Z</time></trkpt><trkpt lat="42.4517967" lon="-7.695755"><ele>565.4000000000001</ele><time>2026-04-14T11:18:25.87Z</time></trkpt><trkpt lat="42.4517133" lon="-7.6956817"><ele>568.2</ele><time>2026-04-14T11:18:26.87Z</time></trkpt><trkpt lat="42.4516433" lon="-7.6956"><ele>571.0</ele><time>2026-04-14T11:18:27.869Z</time></trkpt><trkpt lat="42.45157" lon="-7.6955233"><ele>571.0</ele><time>2026-04-14T11:18:28.869Z</time></trkpt><trkpt lat="42.4514967" lon="-7.69546"><ele>571.0</ele><time>2026-04-14T11:18:29.869Z</time></trkpt><trkpt lat="42.4514283" lon="-7.6953917"><ele>571.0</ele><time>2026-04-14T11:18:30.869Z</time></trkpt><trkpt lat="42.4513517" lon="-7.6953283"><ele>571.0</ele><time>2026-04-14T11:18:31.869Z</time></trkpt><trkpt lat="42.4512717" lon="-7.6952683"><ele>571.0</ele><time>2026-04-14T11:18:32.87Z</time></trkpt><trkpt lat="42.451195" lon="-7.6951833"><ele>574.0</ele><time>2026-04-14T11:18:33.87Z</time></trkpt><trkpt lat="42.4511133" lon="-7.695095"><ele>577.0</ele><time>2026-04-14T11:18:34.869Z</time></trkpt><trkpt lat="42.4510283" lon="-7.6949883"><ele>580.0</ele><time>2026-04-14T11:18:35.869Z</time></trkpt><trkpt lat="42.4509467" lon="-7.694875"><ele>583.0</ele><time>2026-04-14T11:18:36.869Z</time></trkpt><trkpt lat="42.4508683" lon="-7.6947533"><ele>583.0</ele><time>2026-04-14T11:18:37.869Z</time></trkpt><trkpt lat="42.4508183" lon="-7.6946383"><ele>583.0</ele><time>2026-04-14T11:18:38.87Z</time></trkpt><trkpt lat="42.4507817" lon="-7.694545"><ele>583.0</ele><time>2026-04-14T11:18:39.87Z</time></trkpt><trkpt lat="42.4507583" lon="-7.6944617"><ele>583.0</ele><time>2026-04-14T11:18:40.869Z</time></trkpt><trkpt lat="42.4507783" lon="-7.6943433"><ele>583.0</ele><time>2026-04-14T11:18:42.869Z</time></trkpt><trkpt lat="42.45088" lon="-7.6942317"><ele>584.5</ele><time>2026-04-14T11:18:44.87Z</time></trkpt><trkpt lat="42.4509483" lon="-7.6941383"><ele>586.0</ele><time>2026-04-14T11:18:45.869Z</time></trkpt><trkpt lat="42.4510533" lon="-7.69404"><ele>587.5</ele><time>2026-04-14T11:18:46.87Z</time></trkpt><trkpt lat="42.4511433" lon="-7.6939583"><ele>589.0</ele><time>2026-04-14T11:18:47.869Z</time></trkpt><trkpt lat="42.4512567" lon="-7.6939033"><ele>591.0</ele><time>2026-04-14T11:18:48.87Z</time></trkpt><trkpt lat="42.4513767" lon="-7.69386"><ele>593.0</ele><time>2026-04-14T11:18:49.87Z</time></trkpt><trkpt lat="42.451495" lon="-7.6938083"><ele>595.0</ele><time>2026-04-14T11:18:50.869Z</time></trkpt><trkpt lat="42.4515717" lon="-7.693775"><ele>597.0</ele><time>2026-04-14T11:18:51.869Z</time></trkpt><trkpt lat="42.451665" lon="-7.6936933"><ele>599.0</ele><time>2026-04-14T11:18:53.869Z</time></trkpt><trkpt lat="42.4516717" lon="-7.693505"><ele>599.3333333333333</ele><time>2026-04-14T11:18:55.87Z</time></trkpt><trkpt lat="42.4516867" lon="-7.693315"><ele>599.6666666666666</ele><time>2026-04-14T11:18:56.869Z</time></trkpt><trkpt lat="42.4517133" lon="-7.693065"><ele>600.0</ele><time>2026-04-14T11:18:57.869Z</time></trkpt><trkpt lat="42.4517283" lon="-7.692815"><ele>599.25</ele><time>2026-04-14T11:18:58.87Z</time></trkpt><trkpt lat="42.4517383" lon="-7.6926133"><ele>598.5</ele><time>2026-04-14T11:18:59.87Z</time></trkpt><trkpt lat="42.4517283" lon="-7.6924717"><ele>597.75</ele><time>2026-04-14T11:19:00.869Z</time></trkpt><trkpt lat="42.451695" lon="-7.692355"><ele>597.0</ele><time>2026-04-14T11:19:01.87Z</time></trkpt><trkpt lat="42.4516267" lon="-7.6922333"><ele>597.0</ele><time>2026-04-14T11:19:02.87Z</time></trkpt><trkpt lat="42.4515317" lon="-7.6921083"><ele>597.0</ele><time>2026-04-14T11:19:03.869Z</time></trkpt><trkpt lat="42.4514083" lon="-7.6919517"><ele>597.0</ele><time>2026-04-14T11:19:04.869Z</time></trkpt><trkpt lat="42.451265" lon="-7.6917617"><ele>596.3333333333334</ele><time>2026-04-14T11:19:05.869Z</time></trkpt><trkpt lat="42.4511067" lon="-7.691575"><ele>595.6666666666667</ele><time>2026-04-14T11:19:06.869Z</time></trkpt><trkpt lat="42.4509333" lon="-7.691415"><ele>595.0</ele><time>2026-04-14T11:19:07.869Z</time></trkpt><trkpt lat="42.4507533" lon="-7.6912933"><ele>595.0</ele><time>2026-04-14T11:19:08.869Z</time></trkpt><trkpt lat="42.45055" lon="-7.6912167"><ele>595.0</ele><time>2026-04-14T11:19:09.869Z</time></trkpt><trkpt lat="42.45035" lon="-7.6911483"><ele>595.0</ele><time>2026-04-14T11:19:10.87Z</time></trkpt><trkpt lat="42.4501633" lon="-7.6910583"><ele>596.6666666666667</ele><time>2026-04-14T11:19:11.87Z</time></trkpt><trkpt lat="42.4499933" lon="-7.690955"><ele>598.3333333333334</ele><time>2026-04-14T11:19:12.869Z</time></trkpt><trkpt lat="42.4498367" lon="-7.6908533"><ele>600.0</ele><time>2026-04-14T11:19:13.869Z</time></trkpt><trkpt lat="42.4496967" lon="-7.6907583"><ele>599.0</ele><time>2026-04-14T11:19:14.87Z</time></trkpt><trkpt lat="42.449575" lon="-7.6906367"><ele>598.0</ele><time>2026-04-14T11:19:15.869Z</time></trkpt><trkpt lat="42.4494717" lon="-7.690495"><ele>597.0</ele><time>2026-04-14T11:19:16.87Z</time></trkpt><trkpt lat="42.4493767" lon="-7.690325"><ele>598.0</ele><time>2026-04-14T11:19:17.87Z</time></trkpt><trkpt lat="42.4492917" lon="-7.6901667"><ele>599.0</ele><time>2026-04-14T11:19:18.869Z</time></trkpt><trkpt lat="42.4492233" lon="-7.69005"><ele>600.0</ele><time>2026-04-14T11:19:19.869Z</time></trkpt><trkpt lat="42.44916" lon="-7.6899917"><ele>601.0</ele><time>2026-04-14T11:19:20.869Z</time></trkpt><trkpt lat="42.4490517" lon="-7.6900167"><ele>602.0</ele><time>2026-04-14T11:19:22.869Z</time></trkpt><trkpt lat="42.4490167" lon="-7.6900983"><ele>602.0</ele><time>2026-04-14T11:19:23.869Z</time></trkpt><trkpt lat="42.4489883" lon="-7.6902383"><ele>602.0</ele><time>2026-04-14T11:19:24.869Z</time></trkpt><trkpt lat="42.4489667" lon="-7.69042"><ele>602.0</ele><time>2026-04-14T11:19:25.87Z</time></trkpt><trkpt lat="42.4489267" lon="-7.690635"><ele>602.0</ele><time>2026-04-14T11:19:26.869Z</time></trkpt><trkpt lat="42.4488567" lon="-7.69082"><ele>601.8000000000001</ele><time>2026-04-14T11:19:27.87Z</time></trkpt><trkpt lat="42.4487767" lon="-7.6909717"><ele>601.6</ele><time>2026-04-14T11:19:28.87Z</time></trkpt><trkpt lat="42.4486983" lon="-7.6910717"><ele>601.4000000000001</ele><time>2026-04-14T11:19:29.869Z</time></trkpt><trkpt lat="42.44861" lon="-7.6911133"><ele>601.2</ele><time>2026-04-14T11:19:30.87Z</time></trkpt><trkpt lat="42.4485167" lon="-7.691105"><ele>601.0</ele><time>2026-04-14T11:19:31.869Z</time></trkpt><trkpt lat="42.4484233" lon="-7.6910617"><ele>602.0</ele><time>2026-04-14T11:19:32.869Z</time></trkpt><trkpt lat="42.4483417" lon="-7.69098"><ele>603.0</ele><time>2026-04-14T11:19:33.869Z</time></trkpt><trkpt lat="42.448275" lon="-7.6908517"><ele>604.0</ele><time>2026-04-14T11:19:34.869Z</time></trkpt><trkpt lat="42.448205" lon="-7.6906417"><ele>605.0</ele><time>2026-04-14T11:19:35.869Z</time></trkpt><trkpt lat="42.4481433" lon="-7.6904267"><ele>605.75</ele><time>2026-04-14T11:19:36.869Z</time></trkpt><trkpt lat="42.4480567" lon="-7.6902517"><ele>606.5</ele><time>2026-04-14T11:19:37.869Z</time></trkpt><trkpt lat="42.4479717" lon="-7.6901033"><ele>607.25</ele><time>2026-04-14T11:19:38.87Z</time></trkpt><trkpt lat="42.447875" lon="-7.689995"><ele>608.0</ele><time>2026-04-14T11:19:39.869Z</time></trkpt><trkpt lat="42.4477617" lon="-7.6898983"><ele>606.25</ele><time>2026-04-14T11:19:40.87Z</time></trkpt><trkpt lat="42.44764" lon="-7.6898033"><ele>604.5</ele><time>2026-04-14T11:19:41.87Z</time></trkpt><trkpt lat="42.4475117" lon="-7.6897067"><ele>602.75</ele><time>2026-04-14T11:19:42.87Z</time></trkpt><trkpt lat="42.4473917" lon="-7.689605"><ele>601.0</ele><time>2026-04-14T11:19:43.87Z</time></trkpt><trkpt lat="42.44727" lon="-7.6894917"><ele>601.3333333333334</ele><time>2026-04-14T11:19:44.87Z</time></trkpt><trkpt lat="42.4471383" lon="-7.6893733"><ele>601.6666666666666</ele><time>2026-04-14T11:19:45.87Z</time></trkpt><trkpt lat="42.44699" lon="-7.6892717"><ele>602.0</ele><time>2026-04-14T11:19:46.871Z</time></trkpt><trkpt lat="42.4468433" lon="-7.689195"><ele>602.0</ele><time>2026-04-14T11:19:47.87Z</time></trkpt><trkpt lat="42.44672" lon="-7.6891233"><ele>602.0</ele><time>2026-04-14T11:19:48.871Z</time></trkpt><trkpt lat="42.44661" lon="-7.68903"><ele>602.0</ele><time>2026-04-14T11:19:49.871Z</time></trkpt><trkpt lat="42.4465067" lon="-7.6888983"><ele>602.0</ele><time>2026-04-14T11:19:50.87Z</time></trkpt><trkpt lat="42.446395" lon="-7.68876"><ele>601.5</ele><time>2026-04-14T11:19:51.87Z</time></trkpt><trkpt lat="42.44629" lon="-7.6886367"><ele>601.0</ele><time>2026-04-14T11:19:52.87Z</time></trkpt><trkpt lat="42.4461967" lon="-7.6885217"><ele>600.5</ele><time>2026-04-14T11:19:53.87Z</time></trkpt><trkpt lat="42.4461067" lon="-7.6883833"><ele>600.0</ele><time>2026-04-14T11:19:54.87Z</time></trkpt><trkpt lat="42.4460233" lon="-7.6882133"><ele>600.0</ele><time>2026-04-14T11:19:55.87Z</time></trkpt><trkpt lat="42.4459467" lon="-7.6880083"><ele>600.0</ele><time>2026-04-14T11:19:56.871Z</time></trkpt><trkpt lat="42.4458733" lon="-7.687805"><ele>600.0</ele><time>2026-04-14T11:19:57.87Z</time></trkpt><trkpt lat="42.4457983" lon="-7.6876383"><ele>601.0</ele><time>2026-04-14T11:19:58.87Z</time></trkpt><trkpt lat="42.4457367" lon="-7.687505"><ele>602.0</ele><time>2026-04-14T11:19:59.87Z</time></trkpt><trkpt lat="42.445685" lon="-7.6874133"><ele>603.0</ele><time>2026-04-14T11:20:00.87Z</time></trkpt><trkpt lat="42.4456283" lon="-7.6873617"><ele>604.0</ele><time>2026-04-14T11:20:01.87Z</time></trkpt><trkpt lat="42.445555" lon="-7.6873483"><ele>605.0</ele><time>2026-04-14T11:20:02.87Z</time></trkpt><trkpt lat="42.4454517" lon="-7.6873633"><ele>606.0</ele><time>2026-04-14T11:20:03.871Z</time></trkpt><trkpt lat="42.4453433" lon="-7.6873783"><ele>607.0</ele><time>2026-04-14T11:20:04.871Z</time></trkpt><trkpt lat="42.4452067" lon="-7.6873667"><ele>608.0</ele><time>2026-04-14T11:20:05.87Z</time></trkpt><trkpt lat="42.44507" lon="-7.68736"><ele>609.0</ele><time>2026-04-14T11:20:06.87Z</time></trkpt><trkpt lat="42.4449183" lon="-7.68736"><ele>610.0</ele><time>2026-04-14T11:20:07.871Z</time></trkpt><trkpt lat="42.444755" lon="-7.6873617"><ele>612.0</ele><time>2026-04-14T11:20:08.87Z</time></trkpt><trkpt lat="42.44459" lon="-7.6873517"><ele>614.0</ele><time>2026-04-14T11:20:09.871Z</time></trkpt><trkpt lat="42.444425" lon="-7.687315"><ele>616.0</ele><time>2026-04-14T11:20:10.871Z</time></trkpt><trkpt lat="42.4442717" lon="-7.6872233"><ele>616.0</ele><time>2026-04-14T11:20:11.871Z</time></trkpt><trkpt lat="42.4441233" lon="-7.6871017"><ele>616.0</ele><time>2026-04-14T11:20:12.871Z</time></trkpt><trkpt lat="42.4439733" lon="-7.6869683"><ele>616.0</ele><time>2026-04-14T11:20:13.87Z</time></trkpt><trkpt lat="42.44383" lon="-7.686855"><ele>618.4</ele><time>2026-04-14T11:20:14.871Z</time></trkpt><trkpt lat="42.4437017" lon="-7.6867583"><ele>620.8</ele><time>2026-04-14T11:20:15.87Z</time></trkpt><trkpt lat="42.4435983" lon="-7.6866917"><ele>623.1999999999999</ele><time>2026-04-14T11:20:16.871Z</time></trkpt><trkpt lat="42.443515" lon="-7.686645"><ele>625.6</ele><time>2026-04-14T11:20:17.871Z</time></trkpt><trkpt lat="42.4434367" lon="-7.686605"><ele>628.0</ele><time>2026-04-14T11:20:18.87Z</time></trkpt><trkpt lat="42.44336" lon="-7.6865667"><ele>628.0</ele><time>2026-04-14T11:20:19.87Z</time></trkpt><trkpt lat="42.443275" lon="-7.68652"><ele>628.0</ele><time>2026-04-14T11:20:20.87Z</time></trkpt><trkpt lat="42.4431833" lon="-7.6864833"><ele>628.0</ele><time>2026-04-14T11:20:21.87Z</time></trkpt><trkpt lat="42.44309" lon="-7.6864467"><ele>628.0</ele><time>2026-04-14T11:20:22.87Z</time></trkpt><trkpt lat="42.4430017" lon="-7.6864167"><ele>628.0</ele><time>2026-04-14T11:20:23.87Z</time></trkpt><trkpt lat="42.4429283" lon="-7.6863883"><ele>630.3333333333334</ele><time>2026-04-14T11:20:24.87Z</time></trkpt><trkpt lat="42.4428133" lon="-7.6863567"><ele>632.6666666666667</ele><time>2026-04-14T11:20:26.871Z</time></trkpt><trkpt lat="42.4426983" lon="-7.6863267"><ele>635.0</ele><time>2026-04-14T11:20:28.871Z</time></trkpt><trkpt lat="42.4426317" lon="-7.68631"><ele>637.3333333333334</ele><time>2026-04-14T11:20:29.87Z</time></trkpt><trkpt lat="42.4425667" lon="-7.6862883"><ele>639.6666666666666</ele><time>2026-04-14T11:20:30.871Z</time></trkpt><trkpt lat="42.4424983" lon="-7.68626"><ele>642.0</ele><time>2026-04-14T11:20:31.87Z</time></trkpt><trkpt lat="42.44243" lon="-7.6862217"><ele>642.0</ele><time>2026-04-14T11:20:32.871Z</time></trkpt><trkpt lat="42.442365" lon="-7.686175"><ele>642.0</ele><time>2026-04-14T11:20:33.87Z</time></trkpt><trkpt lat="42.4422633" lon="-7.6860833"><ele>642.0</ele><time>2026-04-14T11:20:35.87Z</time></trkpt><trkpt lat="42.4422133" lon="-7.6860267"><ele>642.0</ele><time>2026-04-14T11:20:36.87Z</time></trkpt><trkpt lat="42.44212" lon="-7.6859183"><ele>642.0</ele><time>2026-04-14T11:20:38.87Z</time></trkpt><trkpt lat="42.4420767" lon="-7.685855"><ele>642.0</ele><time>2026-04-14T11:20:39.87Z</time></trkpt><trkpt lat="42.4420317" lon="-7.68579"><ele>644.7142857142857</ele><time>2026-04-14T11:20:40.871Z</time></trkpt><trkpt lat="42.4419783" lon="-7.685715"><ele>647.4285714285714</ele><time>2026-04-14T11:20:41.87Z</time></trkpt><trkpt lat="42.4419283" lon="-7.685645"><ele>650.1428571428571</ele><time>2026-04-14T11:20:42.87Z</time></trkpt><trkpt lat="42.4418767" lon="-7.6855717"><ele>652.8571428571429</ele><time>2026-04-14T11:20:43.87Z</time></trkpt><trkpt lat="42.441825" lon="-7.6854967"><ele>655.5714285714286</ele><time>2026-04-14T11:20:44.87Z</time></trkpt><trkpt lat="42.441775" lon="-7.685425"><ele>658.2857142857142</ele><time>2026-04-14T11:20:45.87Z</time></trkpt><trkpt lat="42.4417233" lon="-7.68535"><ele>661.0</ele><time>2026-04-14T11:20:46.87Z</time></trkpt><trkpt lat="42.4416683" lon="-7.68527"><ele>660.0</ele><time>2026-04-14T11:20:47.87Z</time></trkpt><trkpt lat="42.441615" lon="-7.6852"><ele>659.0</ele><time>2026-04-14T11:20:48.87Z</time></trkpt><trkpt lat="42.4415567" lon="-7.6851267"><ele>658.0</ele><time>2026-04-14T11:20:49.87Z</time></trkpt><trkpt lat="42.4414967" lon="-7.68507"><ele>657.0</ele><time>2026-04-14T11:20:50.871Z</time></trkpt><trkpt lat="42.4414333" lon="-7.6850133"><ele>656.0</ele><time>2026-04-14T11:20:51.871Z</time></trkpt><trkpt lat="42.4413667" lon="-7.6849567"><ele>655.0</ele><time>2026-04-14T11:20:52.87Z</time></trkpt><trkpt lat="42.4413033" lon="-7.6849217"><ele>657.8333333333334</ele><time>2026-04-14T11:20:53.871Z</time></trkpt><trkpt lat="42.4412367" lon="-7.684895"><ele>660.6666666666667</ele><time>2026-04-14T11:20:54.87Z</time></trkpt><trkpt lat="42.441175" lon="-7.6848683"><ele>663.5</ele><time>2026-04-14T11:20:55.871Z</time></trkpt><trkpt lat="42.441115" lon="-7.6848367"><ele>666.3333333333334</ele><time>2026-04-14T11:20:56.87Z</time></trkpt><trkpt lat="42.44105" lon="-7.6848167"><ele>669.1666666666666</ele><time>2026-04-14T11:20:57.871Z</time></trkpt><trkpt lat="42.440935" lon="-7.6847583"><ele>672.0</ele><time>2026-04-14T11:20:59.871Z</time></trkpt><trkpt lat="42.4408033" lon="-7.684725"><ele>672.0</ele><time>2026-04-14T11:21:01.87Z</time></trkpt><trkpt lat="42.440725" lon="-7.68472"><ele>672.0</ele><time>2026-04-14T11:21:02.87Z</time></trkpt><trkpt lat="42.4406283" lon="-7.6847083"><ele>672.0</ele><time>2026-04-14T11:21:03.871Z</time></trkpt><trkpt lat="42.4405233" lon="-7.684695"><ele>672.0</ele><time>2026-04-14T11:21:04.87Z</time></trkpt><trkpt lat="42.440405" lon="-7.6846883"><ele>672.0</ele><time>2026-04-14T11:21:05.871Z</time></trkpt><trkpt lat="42.4402817" lon="-7.6847"><ele>672.25</ele><time>2026-04-14T11:21:06.87Z</time></trkpt><trkpt lat="42.4401733" lon="-7.684705"><ele>672.5</ele><time>2026-04-14T11:21:07.871Z</time></trkpt><trkpt lat="42.440075" lon="-7.684685"><ele>672.75</ele><time>2026-04-14T11:21:08.871Z</time></trkpt><trkpt lat="42.4399733" lon="-7.6846367"><ele>673.0</ele><time>2026-04-14T11:21:09.871Z</time></trkpt><trkpt lat="42.4398567" lon="-7.6845367"><ele>672.6666666666667</ele><time>2026-04-14T11:21:10.871Z</time></trkpt><trkpt lat="42.4397233" lon="-7.6843933"><ele>672.3333333333334</ele><time>2026-04-14T11:21:11.871Z</time></trkpt><trkpt lat="42.4395683" lon="-7.68425"><ele>672.0</ele><time>2026-04-14T11:21:12.871Z</time></trkpt><trkpt lat="42.4394167" lon="-7.6841283"><ele>669.6666666666666</ele><time>2026-04-14T11:21:13.87Z</time></trkpt><trkpt lat="42.4392517" lon="-7.6840167"><ele>667.3333333333333</ele><time>2026-04-14T11:21:14.87Z</time></trkpt><trkpt lat="42.4390667" lon="-7.683925"><ele>665.0</ele><time>2026-04-14T11:21:15.87Z</time></trkpt><trkpt lat="42.4388667" lon="-7.6838283"><ele>662.0</ele><time>2026-04-14T11:21:16.871Z</time></trkpt><trkpt lat="42.4386533" lon="-7.6837117"><ele>659.0</ele><time>2026-04-14T11:21:17.87Z</time></trkpt><trkpt lat="42.4384467" lon="-7.683575"><ele>659.0</ele><time>2026-04-14T11:21:18.87Z</time></trkpt><trkpt lat="42.43826" lon="-7.683455"><ele>659.0</ele><time>2026-04-14T11:21:19.871Z</time></trkpt><trkpt lat="42.4381033" lon="-7.6833633"><ele>659.0</ele><time>2026-04-14T11:21:20.871Z</time></trkpt><trkpt lat="42.43798" lon="-7.68328"><ele>657.8000000000001</ele><time>2026-04-14T11:21:21.871Z</time></trkpt><trkpt lat="42.43787" lon="-7.6832"><ele>656.6</ele><time>2026-04-14T11:21:22.871Z</time></trkpt><trkpt lat="42.4377983" lon="-7.6831217"><ele>655.4</ele><time>2026-04-14T11:21:23.87Z</time></trkpt><trkpt lat="42.437765" lon="-7.6830317"><ele>654.2</ele><time>2026-04-14T11:21:24.871Z</time></trkpt><trkpt lat="42.4377667" lon="-7.6829283"><ele>653.0</ele><time>2026-04-14T11:21:25.87Z</time></trkpt><trkpt lat="42.4377933" lon="-7.6828217"><ele>653.25</ele><time>2026-04-14T11:21:26.87Z</time></trkpt><trkpt lat="42.437855" lon="-7.6827117"><ele>653.5</ele><time>2026-04-14T11:21:27.871Z</time></trkpt><trkpt lat="42.437965" lon="-7.682595"><ele>653.75</ele><time>2026-04-14T11:21:28.87Z</time></trkpt><trkpt lat="42.438135" lon="-7.6824683"><ele>654.0</ele><time>2026-04-14T11:21:29.871Z</time></trkpt><trkpt lat="42.438295" lon="-7.6823167"><ele>655.3333333333334</ele><time>2026-04-14T11:21:30.87Z</time></trkpt><trkpt lat="42.4384533" lon="-7.6821483"><ele>656.6666666666667</ele><time>2026-04-14T11:21:31.871Z</time></trkpt><trkpt lat="42.4386033" lon="-7.6819467"><ele>658.0</ele><time>2026-04-14T11:21:32.87Z</time></trkpt><trkpt lat="42.4387467" lon="-7.6817317"><ele>655.3333333333334</ele><time>2026-04-14T11:21:33.87Z</time></trkpt><trkpt lat="42.4388817" lon="-7.68152"><ele>652.6666666666666</ele><time>2026-04-14T11:21:34.871Z</time></trkpt><trkpt lat="42.4389917" lon="-7.6813367"><ele>650.0</ele><time>2026-04-14T11:21:35.871Z</time></trkpt><trkpt lat="42.4390767" lon="-7.6811833"><ele>647.4</ele><time>2026-04-14T11:21:36.87Z</time></trkpt><trkpt lat="42.4391267" lon="-7.681015"><ele>644.8</ele><time>2026-04-14T11:21:37.87Z</time></trkpt><trkpt lat="42.4391483" lon="-7.6808717"><ele>642.2</ele><time>2026-04-14T11:21:38.871Z</time></trkpt><trkpt lat="42.4391667" lon="-7.68074"><ele>639.6</ele><time>2026-04-14T11:21:39.871Z</time></trkpt><trkpt lat="42.43919" lon="-7.6806583"><ele>637.0</ele><time>2026-04-14T11:21:40.87Z</time></trkpt><trkpt lat="42.4392867" lon="-7.680595"><ele>637.0</ele><time>2026-04-14T11:21:42.87Z</time></trkpt><trkpt lat="42.4393583" lon="-7.680605"><ele>637.0</ele><time>2026-04-14T11:21:43.871Z</time></trkpt><trkpt lat="42.439455" lon="-7.6806383"><ele>637.0</ele><time>2026-04-14T11:21:44.87Z</time></trkpt><trkpt lat="42.439565" lon="-7.6806933"><ele>637.0</ele><time>2026-04-14T11:21:45.87Z</time></trkpt><trkpt lat="42.4396733" lon="-7.6807517"><ele>637.0</ele><time>2026-04-14T11:21:46.87Z</time></trkpt><trkpt lat="42.4397733" lon="-7.6807683"><ele>640.0</ele><time>2026-04-14T11:21:47.87Z</time></trkpt><trkpt lat="42.4398717" lon="-7.6807417"><ele>643.0</ele><time>2026-04-14T11:21:48.871Z</time></trkpt><trkpt lat="42.4399817" lon="-7.6806667"><ele>646.0</ele><time>2026-04-14T11:21:49.87Z</time></trkpt><trkpt lat="42.440095" lon="-7.6805717"><ele>649.0</ele><time>2026-04-14T11:21:50.87Z</time></trkpt><trkpt lat="42.4402117" lon="-7.68049"><ele>649.0</ele><time>2026-04-14T11:21:51.871Z</time></trkpt><trkpt lat="42.4403267" lon="-7.6804333"><ele>649.0</ele><time>2026-04-14T11:21:52.871Z</time></trkpt><trkpt lat="42.4404483" lon="-7.6803933"><ele>649.0</ele><time>2026-04-14T11:21:53.87Z</time></trkpt><trkpt lat="42.44057" lon="-7.6803467"><ele>649.0</ele><time>2026-04-14T11:21:54.871Z</time></trkpt><trkpt lat="42.4406867" lon="-7.6802767"><ele>649.0</ele><time>2026-04-14T11:21:55.87Z</time></trkpt><trkpt lat="42.4408033" lon="-7.6801683"><ele>649.0</ele><time>2026-04-14T11:21:56.87Z</time></trkpt><trkpt lat="42.4409267" lon="-7.6800167"><ele>649.0</ele><time>2026-04-14T11:21:57.87Z</time></trkpt><trkpt lat="42.44105" lon="-7.6798283"><ele>649.0</ele><time>2026-04-14T11:21:58.87Z</time></trkpt><trkpt lat="42.4411667" lon="-7.6796167"><ele>649.0</ele><time>2026-04-14T11:21:59.871Z</time></trkpt><trkpt lat="42.4412717" lon="-7.6793867"><ele>649.0</ele><time>2026-04-14T11:22:00.871Z</time></trkpt><trkpt lat="42.4413533" lon="-7.6791783"><ele>650.25</ele><time>2026-04-14T11:22:01.871Z</time></trkpt><trkpt lat="42.44143" lon="-7.679005"><ele>651.5</ele><time>2026-04-14T11:22:02.87Z</time></trkpt><trkpt lat="42.4415067" lon="-7.6788383"><ele>652.75</ele><time>2026-04-14T11:22:03.87Z</time></trkpt><trkpt lat="42.4415917" lon="-7.6787167"><ele>654.0</ele><time>2026-04-14T11:22:04.871Z</time></trkpt><trkpt lat="42.4416917" lon="-7.6786433"><ele>654.0</ele><time>2026-04-14T11:22:05.871Z</time></trkpt><trkpt lat="42.4418083" lon="-7.6786383"><ele>654.0</ele><time>2026-04-14T11:22:06.871Z</time></trkpt><trkpt lat="42.4419317" lon="-7.6786617"><ele>654.0</ele><time>2026-04-14T11:22:07.87Z</time></trkpt><trkpt lat="42.4420667" lon="-7.6786983"><ele>654.0</ele><time>2026-04-14T11:22:08.871Z</time></trkpt><trkpt lat="42.442205" lon="-7.6787467"><ele>655.6666666666666</ele><time>2026-04-14T11:22:09.87Z</time></trkpt><trkpt lat="42.4423433" lon="-7.6788033"><ele>657.3333333333333</ele><time>2026-04-14T11:22:10.871Z</time></trkpt><trkpt lat="42.4424983" lon="-7.6788433"><ele>659.0</ele><time>2026-04-14T11:22:11.87Z</time></trkpt><trkpt lat="42.4426533" lon="-7.6788367"><ele>659.0</ele><time>2026-04-14T11:22:12.87Z</time></trkpt><trkpt lat="42.4427867" lon="-7.6788067"><ele>659.0</ele><time>2026-04-14T11:22:13.87Z</time></trkpt><trkpt lat="42.4428917" lon="-7.6787817"><ele>659.0</ele><time>2026-04-14T11:22:14.87Z</time></trkpt><trkpt lat="42.4429933" lon="-7.67872"><ele>659.0</ele><time>2026-04-14T11:22:15.87Z</time></trkpt><trkpt lat="42.4430933" lon="-7.6786333"><ele>658.5</ele><time>2026-04-14T11:22:16.87Z</time></trkpt><trkpt lat="42.4431917" lon="-7.67852"><ele>658.0</ele><time>2026-04-14T11:22:17.87Z</time></trkpt><trkpt lat="42.4433017" lon="-7.6783867"><ele>657.5</ele><time>2026-04-14T11:22:18.871Z</time></trkpt><trkpt lat="42.4434183" lon="-7.6782517"><ele>657.0</ele><time>2026-04-14T11:22:19.871Z</time></trkpt><trkpt lat="42.4435467" lon="-7.678105"><ele>657.0</ele><time>2026-04-14T11:22:20.871Z</time></trkpt><trkpt lat="42.4436817" lon="-7.6779683"><ele>657.0</ele><time>2026-04-14T11:22:21.871Z</time></trkpt><trkpt lat="42.44381" lon="-7.6778367"><ele>657.0</ele><time>2026-04-14T11:22:22.871Z</time></trkpt><trkpt lat="42.443945" lon="-7.677715"><ele>654.3333333333334</ele><time>2026-04-14T11:22:23.871Z</time></trkpt><trkpt lat="42.4440817" lon="-7.6776"><ele>651.6666666666667</ele><time>2026-04-14T11:22:24.87Z</time></trkpt><trkpt lat="42.4442117" lon="-7.6774917"><ele>649.0</ele><time>2026-04-14T11:22:25.87Z</time></trkpt><trkpt lat="42.444335" lon="-7.6773667"><ele>649.0</ele><time>2026-04-14T11:22:26.87Z</time></trkpt><trkpt lat="42.4444467" lon="-7.6772217"><ele>649.0</ele><time>2026-04-14T11:22:27.871Z</time></trkpt><trkpt lat="42.4445583" lon="-7.6770783"><ele>649.0</ele><time>2026-04-14T11:22:28.871Z</time></trkpt><trkpt lat="42.44468" lon="-7.6769333"><ele>646.0</ele><time>2026-04-14T11:22:29.871Z</time></trkpt><trkpt lat="42.4448017" lon="-7.6767833"><ele>643.0</ele><time>2026-04-14T11:22:30.87Z</time></trkpt><trkpt lat="42.44491" lon="-7.6766467"><ele>640.0</ele><time>2026-04-14T11:22:31.87Z</time></trkpt><trkpt lat="42.4449967" lon="-7.6764917"><ele>640.0</ele><time>2026-04-14T11:22:32.871Z</time></trkpt><trkpt lat="42.4450633" lon="-7.6762967"><ele>640.0</ele><time>2026-04-14T11:22:33.871Z</time></trkpt><trkpt lat="42.445135" lon="-7.676085"><ele>640.0</ele><time>2026-04-14T11:22:34.87Z</time></trkpt><trkpt lat="42.4452117" lon="-7.6758783"><ele>638.0</ele><time>2026-04-14T11:22:35.871Z</time></trkpt><trkpt lat="42.44529" lon="-7.675695"><ele>636.0</ele><time>2026-04-14T11:22:36.87Z</time></trkpt><trkpt lat="42.4453633" lon="-7.67551"><ele>634.0</ele><time>2026-04-14T11:22:37.871Z</time></trkpt><trkpt lat="42.4454433" lon="-7.6753183"><ele>632.0</ele><time>2026-04-14T11:22:38.87Z</time></trkpt><trkpt lat="42.4455133" lon="-7.6751367"><ele>630.0</ele><time>2026-04-14T11:22:39.87Z</time></trkpt><trkpt lat="42.44557" lon="-7.6749617"><ele>628.0</ele><time>2026-04-14T11:22:40.87Z</time></trkpt><trkpt lat="42.4456233" lon="-7.6747567"><ele>628.0</ele><time>2026-04-14T11:22:41.87Z</time></trkpt><trkpt lat="42.4456733" lon="-7.67453"><ele>628.0</ele><time>2026-04-14T11:22:42.871Z</time></trkpt><trkpt lat="42.4457233" lon="-7.67431"><ele>628.0</ele><time>2026-04-14T11:22:43.871Z</time></trkpt><trkpt lat="42.4457717" lon="-7.6740967"><ele>626.5</ele><time>2026-04-14T11:22:44.871Z</time></trkpt><trkpt lat="42.4458067" lon="-7.6738933"><ele>625.0</ele><time>2026-04-14T11:22:45.87Z</time></trkpt><trkpt lat="42.4458167" lon="-7.673705"><ele>623.5</ele><time>2026-04-14T11:22:46.871Z</time></trkpt><trkpt lat="42.4458233" lon="-7.673545"><ele>622.0</ele><time>2026-04-14T11:22:47.87Z</time></trkpt><trkpt lat="42.4458383" lon="-7.673415"><ele>620.6</ele><time>2026-04-14T11:22:48.871Z</time></trkpt><trkpt lat="42.4458533" lon="-7.6733117"><ele>619.2</ele><time>2026-04-14T11:22:49.87Z</time></trkpt><trkpt lat="42.445905" lon="-7.673205"><ele>617.8</ele><time>2026-04-14T11:22:51.87Z</time></trkpt><trkpt lat="42.4460267" lon="-7.6731517"><ele>616.4</ele><time>2026-04-14T11:22:53.87Z</time></trkpt><trkpt lat="42.446125" lon="-7.6731383"><ele>615.0</ele><time>2026-04-14T11:22:54.87Z</time></trkpt><trkpt lat="42.446235" lon="-7.6731383"><ele>616.0</ele><time>2026-04-14T11:22:55.871Z</time></trkpt><trkpt lat="42.44635" lon="-7.673175"><ele>617.0</ele><time>2026-04-14T11:22:56.87Z</time></trkpt><trkpt lat="42.4464733" lon="-7.673245"><ele>618.0</ele><time>2026-04-14T11:22:57.871Z</time></trkpt><trkpt lat="42.446595" lon="-7.6733317"><ele>619.0</ele><time>2026-04-14T11:22:58.87Z</time></trkpt><trkpt lat="42.4467133" lon="-7.6734183"><ele>619.0</ele><time>2026-04-14T11:22:59.87Z</time></trkpt><trkpt lat="42.44682" lon="-7.67352"><ele>619.0</ele><time>2026-04-14T11:23:00.87Z</time></trkpt><trkpt lat="42.4469083" lon="-7.6736417"><ele>619.0</ele><time>2026-04-14T11:23:01.87Z</time></trkpt><trkpt lat="42.4470017" lon="-7.6738067"><ele>619.0</ele><time>2026-04-14T11:23:02.87Z</time></trkpt><trkpt lat="42.4471067" lon="-7.6739833"><ele>619.3333333333334</ele><time>2026-04-14T11:23:03.87Z</time></trkpt><trkpt lat="42.4472417" lon="-7.6741533"><ele>619.6666666666666</ele><time>2026-04-14T11:23:04.871Z</time></trkpt><trkpt lat="42.4473767" lon="-7.6743033"><ele>620.0</ele><time>2026-04-14T11:23:05.87Z</time></trkpt><trkpt lat="42.447505" lon="-7.6744317"><ele>620.5</ele><time>2026-04-14T11:23:06.87Z</time></trkpt><trkpt lat="42.4476183" lon="-7.67457"><ele>621.0</ele><time>2026-04-14T11:23:07.871Z</time></trkpt><trkpt lat="42.4477133" lon="-7.6747"><ele>621.5</ele><time>2026-04-14T11:23:08.87Z</time></trkpt><trkpt lat="42.4478" lon="-7.6747983"><ele>622.0</ele><time>2026-04-14T11:23:09.871Z</time></trkpt><trkpt lat="42.447875" lon="-7.67484"><ele>622.0</ele><time>2026-04-14T11:23:10.871Z</time></trkpt><trkpt lat="42.4479433" lon="-7.6748383"><ele>622.0</ele><time>2026-04-14T11:23:11.871Z</time></trkpt><trkpt lat="42.4480067" lon="-7.67481"><ele>622.0</ele><time>2026-04-14T11:23:12.87Z</time></trkpt><trkpt lat="42.4480617" lon="-7.674745"><ele>622.0</ele><time>2026-04-14T11:23:13.871Z</time></trkpt><trkpt lat="42.4481133" lon="-7.67464"><ele>622.0</ele><time>2026-04-14T11:23:14.871Z</time></trkpt><trkpt lat="42.448165" lon="-7.674475"><ele>622.0</ele><time>2026-04-14T11:23:15.87Z</time></trkpt><trkpt lat="42.4482233" lon="-7.6742517"><ele>620.6666666666667</ele><time>2026-04-14T11:23:16.87Z</time></trkpt><trkpt lat="42.4482867" lon="-7.6740067"><ele>619.3333333333334</ele><time>2026-04-14T11:23:17.871Z</time></trkpt><trkpt lat="42.4483567" lon="-7.6737633"><ele>618.0</ele><time>2026-04-14T11:23:18.871Z</time></trkpt><trkpt lat="42.44842" lon="-7.6735667"><ele>616.1999999999999</ele><time>2026-04-14T11:23:19.87Z</time></trkpt><trkpt lat="42.4484817" lon="-7.6734283"><ele>614.4</ele><time>2026-04-14T11:23:20.87Z</time></trkpt><trkpt lat="42.44855" lon="-7.6733267"><ele>612.5999999999999</ele><time>2026-04-14T11:23:21.87Z</time></trkpt><trkpt lat="42.4486167" lon="-7.6732683"><ele>610.8</ele><time>2026-04-14T11:23:22.87Z</time></trkpt><trkpt lat="42.4486817" lon="-7.673245"><ele>609.0</ele><time>2026-04-14T11:23:23.87Z</time></trkpt><trkpt lat="42.4487633" lon="-7.6732667"><ele>610.25</ele><time>2026-04-14T11:23:24.871Z</time></trkpt><trkpt lat="42.4488617" lon="-7.673325"><ele>611.5</ele><time>2026-04-14T11:23:25.87Z</time></trkpt><trkpt lat="42.4489767" lon="-7.6733917"><ele>612.75</ele><time>2026-04-14T11:23:26.871Z</time></trkpt><trkpt lat="42.4490967" lon="-7.6734417"><ele>614.0</ele><time>2026-04-14T11:23:27.871Z</time></trkpt><trkpt lat="42.4492" lon="-7.6734383"><ele>614.0</ele><time>2026-04-14T11:23:28.871Z</time></trkpt><trkpt lat="42.44928" lon="-7.6733783"><ele>614.0</ele><time>2026-04-14T11:23:29.871Z</time></trkpt><trkpt lat="42.4493417" lon="-7.67327"><ele>614.0</ele><time>2026-04-14T11:23:30.871Z</time></trkpt><trkpt lat="42.4493917" lon="-7.6731267"><ele>614.0</ele><time>2026-04-14T11:23:31.87Z</time></trkpt><trkpt lat="42.4494383" lon="-7.67297"><ele>614.0</ele><time>2026-04-14T11:23:32.871Z</time></trkpt><trkpt lat="42.449485" lon="-7.6728067"><ele>613.0</ele><time>2026-04-14T11:23:33.871Z</time></trkpt><trkpt lat="42.449535" lon="-7.6726467"><ele>612.0</ele><time>2026-04-14T11:23:34.87Z</time></trkpt><trkpt lat="42.4495767" lon="-7.6725067"><ele>611.0</ele><time>2026-04-14T11:23:35.871Z</time></trkpt><trkpt lat="42.449595" lon="-7.6723983"><ele>610.0</ele><time>2026-04-14T11:23:36.871Z</time></trkpt><trkpt lat="42.4495883" lon="-7.6723033"><ele>609.0</ele><time>2026-04-14T11:23:37.87Z</time></trkpt><trkpt lat="42.4495483" lon="-7.6722317"><ele>609.0</ele><time>2026-04-14T11:23:38.871Z</time></trkpt><trkpt lat="42.4494833" lon="-7.672155"><ele>609.0</ele><time>2026-04-14T11:23:39.87Z</time></trkpt><trkpt lat="42.44939" lon="-7.6720617"><ele>609.0</ele><time>2026-04-14T11:23:40.87Z</time></trkpt><trkpt lat="42.4492933" lon="-7.671965"><ele>609.0</ele><time>2026-04-14T11:23:41.87Z</time></trkpt><trkpt lat="42.4492067" lon="-7.6718917"><ele>609.0</ele><time>2026-04-14T11:23:42.87Z</time></trkpt><trkpt lat="42.4491217" lon="-7.67182"><ele>609.0</ele><time>2026-04-14T11:23:43.871Z</time></trkpt><trkpt lat="42.4490467" lon="-7.6717267"><ele>609.0</ele><time>2026-04-14T11:23:44.871Z</time></trkpt><trkpt lat="42.4489917" lon="-7.6716117"><ele>609.0</ele><time>2026-04-14T11:23:45.871Z</time></trkpt><trkpt lat="42.448965" lon="-7.6715067"><ele>609.0</ele><time>2026-04-14T11:23:46.871Z</time></trkpt><trkpt lat="42.4489783" lon="-7.6714233"><ele>609.0</ele><time>2026-04-14T11:23:47.871Z</time></trkpt><trkpt lat="42.449025" lon="-7.671335"><ele>609.0</ele><time>2026-04-14T11:23:48.87Z</time></trkpt><trkpt lat="42.4491117" lon="-7.6712533"><ele>609.0</ele><time>2026-04-14T11:23:49.87Z</time></trkpt><trkpt lat="42.4492333" lon="-7.671165"><ele>609.0</ele><time>2026-04-14T11:23:50.87Z</time></trkpt><trkpt lat="42.4493883" lon="-7.6710967"><ele>609.0</ele><time>2026-04-14T11:23:51.87Z</time></trkpt><trkpt lat="42.44952" lon="-7.6710517"><ele>609.0</ele><time>2026-04-14T11:23:52.87Z</time></trkpt><trkpt lat="42.449655" lon="-7.6710117"><ele>608.2</ele><time>2026-04-14T11:23:53.871Z</time></trkpt><trkpt lat="42.4497717" lon="-7.670985"><ele>607.4</ele><time>2026-04-14T11:23:54.871Z</time></trkpt><trkpt lat="42.44988" lon="-7.6709567"><ele>606.6</ele><time>2026-04-14T11:23:55.87Z</time></trkpt><trkpt lat="42.44999" lon="-7.6709317"><ele>605.8</ele><time>2026-04-14T11:23:56.87Z</time></trkpt><trkpt lat="42.4500933" lon="-7.6709083"><ele>605.0</ele><time>2026-04-14T11:23:57.87Z</time></trkpt><trkpt lat="42.4501767" lon="-7.67088"><ele>605.0</ele><time>2026-04-14T11:23:58.87Z</time></trkpt><trkpt lat="42.4502633" lon="-7.6708533"><ele>605.0</ele><time>2026-04-14T11:23:59.87Z</time></trkpt><trkpt lat="42.4503517" lon="-7.6708233"><ele>605.0</ele><time>2026-04-14T11:24:00.87Z</time></trkpt><trkpt lat="42.4504333" lon="-7.670795"><ele>605.0</ele><time>2026-04-14T11:24:01.87Z</time></trkpt><trkpt lat="42.450515" lon="-7.670775"><ele>605.0</ele><time>2026-04-14T11:24:02.871Z</time></trkpt><trkpt lat="42.4505933" lon="-7.6707633"><ele>605.0</ele><time>2026-04-14T11:24:03.87Z</time></trkpt><trkpt lat="42.450675" lon="-7.670755"><ele>605.4</ele><time>2026-04-14T11:24:04.87Z</time></trkpt><trkpt lat="42.450765" lon="-7.6707567"><ele>605.8</ele><time>2026-04-14T11:24:05.87Z</time></trkpt><trkpt lat="42.4508617" lon="-7.670765"><ele>606.2</ele><time>2026-04-14T11:24:06.87Z</time></trkpt><trkpt lat="42.4509667" lon="-7.6707817"><ele>606.6</ele><time>2026-04-14T11:24:07.87Z</time></trkpt><trkpt lat="42.451065" lon="-7.6708"><ele>607.0</ele><time>2026-04-14T11:24:08.87Z</time></trkpt><trkpt lat="42.4511533" lon="-7.6708117"><ele>607.0</ele><time>2026-04-14T11:24:09.87Z</time></trkpt><trkpt lat="42.4512333" lon="-7.6708217"><ele>607.0</ele><time>2026-04-14T11:24:10.87Z</time></trkpt><trkpt lat="42.4513133" lon="-7.6708367"><ele>607.0</ele><time>2026-04-14T11:24:11.87Z</time></trkpt><trkpt lat="42.4514033" lon="-7.6708683"><ele>607.0</ele><time>2026-04-14T11:24:12.87Z</time></trkpt><trkpt lat="42.4514883" lon="-7.67092"><ele>607.0</ele><time>2026-04-14T11:24:13.871Z</time></trkpt><trkpt lat="42.4515633" lon="-7.6709633"><ele>607.0</ele><time>2026-04-14T11:24:14.871Z</time></trkpt><trkpt lat="42.45163" lon="-7.670995"><ele>606.0</ele><time>2026-04-14T11:24:15.871Z</time></trkpt><trkpt lat="42.4517283" lon="-7.671005"><ele>605.0</ele><time>2026-04-14T11:24:17.871Z</time></trkpt><trkpt lat="42.45178" lon="-7.6709067"><ele>604.0</ele><time>2026-04-14T11:24:19.87Z</time></trkpt><trkpt lat="42.4517867" lon="-7.6708217"><ele>603.0</ele><time>2026-04-14T11:24:20.87Z</time></trkpt><trkpt lat="42.4517783" lon="-7.6707033"><ele>602.0</ele><time>2026-04-14T11:24:21.871Z</time></trkpt><trkpt lat="42.4517567" lon="-7.6705717"><ele>601.0</ele><time>2026-04-14T11:24:22.871Z</time></trkpt><trkpt lat="42.4517233" lon="-7.670455"><ele>601.0</ele><time>2026-04-14T11:24:23.87Z</time></trkpt><trkpt lat="42.4516617" lon="-7.6703417"><ele>601.0</ele><time>2026-04-14T11:24:24.87Z</time></trkpt><trkpt lat="42.4515967" lon="-7.6702367"><ele>601.0</ele><time>2026-04-14T11:24:25.871Z</time></trkpt><trkpt lat="42.4515333" lon="-7.670135"><ele>601.0</ele><time>2026-04-14T11:24:26.871Z</time></trkpt><trkpt lat="42.451475" lon="-7.6700467"><ele>601.0</ele><time>2026-04-14T11:24:27.871Z</time></trkpt><trkpt lat="42.4514333" lon="-7.66996"><ele>599.2</ele><time>2026-04-14T11:24:28.87Z</time></trkpt><trkpt lat="42.4513917" lon="-7.66988"><ele>597.4000000000001</ele><time>2026-04-14T11:24:29.871Z</time></trkpt><trkpt lat="42.451365" lon="-7.66976"><ele>595.6</ele><time>2026-04-14T11:24:31.871Z</time></trkpt><trkpt lat="42.451475" lon="-7.669715"><ele>593.8000000000001</ele><time>2026-04-14T11:24:34.871Z</time></trkpt><trkpt lat="42.4515567" lon="-7.6697333"><ele>592.0</ele><time>2026-04-14T11:24:35.871Z</time></trkpt><trkpt lat="42.4516633" lon="-7.6697717"><ele>592.0</ele><time>2026-04-14T11:24:36.871Z</time></trkpt><trkpt lat="42.45177" lon="-7.669795"><ele>592.0</ele><time>2026-04-14T11:24:37.87Z</time></trkpt><trkpt lat="42.451875" lon="-7.66981"><ele>592.0</ele><time>2026-04-14T11:24:38.871Z</time></trkpt><trkpt lat="42.45199" lon="-7.6697967"><ele>592.0</ele><time>2026-04-14T11:24:39.871Z</time></trkpt><trkpt lat="42.4520917" lon="-7.6697633"><ele>592.0</ele><time>2026-04-14T11:24:40.871Z</time></trkpt><trkpt lat="42.4521833" lon="-7.6697067"><ele>591.0</ele><time>2026-04-14T11:24:41.87Z</time></trkpt><trkpt lat="42.45227" lon="-7.6696167"><ele>590.0</ele><time>2026-04-14T11:24:42.871Z</time></trkpt><trkpt lat="42.452345" lon="-7.6695033"><ele>589.0</ele><time>2026-04-14T11:24:43.871Z</time></trkpt><trkpt lat="42.4524" lon="-7.6693667"><ele>588.0</ele><time>2026-04-14T11:24:44.871Z</time></trkpt><trkpt lat="42.45244" lon="-7.6692167"><ele>587.6</ele><time>2026-04-14T11:24:45.87Z</time></trkpt><trkpt lat="42.4524783" lon="-7.6690717"><ele>587.1999999999999</ele><time>2026-04-14T11:24:46.87Z</time></trkpt><trkpt lat="42.4525217" lon="-7.668925"><ele>586.8</ele><time>2026-04-14T11:24:47.87Z</time></trkpt><trkpt lat="42.4525517" lon="-7.66878"><ele>586.4</ele><time>2026-04-14T11:24:48.87Z</time></trkpt><trkpt lat="42.4525817" lon="-7.6686433"><ele>586.0</ele><time>2026-04-14T11:24:49.871Z</time></trkpt><trkpt lat="42.4526083" lon="-7.668525"><ele>586.0</ele><time>2026-04-14T11:24:50.871Z</time></trkpt><trkpt lat="42.4526483" lon="-7.6684033"><ele>586.0</ele><time>2026-04-14T11:24:51.871Z</time></trkpt><trkpt lat="42.4526967" lon="-7.6682867"><ele>586.0</ele><time>2026-04-14T11:24:52.87Z</time></trkpt><trkpt lat="42.4527333" lon="-7.6681983"><ele>586.0</ele><time>2026-04-14T11:24:53.87Z</time></trkpt><trkpt lat="42.452715" lon="-7.6681067"><ele>586.0</ele><time>2026-04-14T11:24:55.871Z</time></trkpt><trkpt lat="42.45261" lon="-7.6679917"><ele>586.0</ele><time>2026-04-14T11:24:57.871Z</time></trkpt><trkpt lat="42.4525233" lon="-7.667905"><ele>586.0</ele><time>2026-04-14T11:24:58.871Z</time></trkpt><trkpt lat="42.45242" lon="-7.667835"><ele>586.0</ele><time>2026-04-14T11:24:59.871Z</time></trkpt><trkpt lat="42.4523317" lon="-7.6677867"><ele>586.0</ele><time>2026-04-14T11:25:00.871Z</time></trkpt><trkpt lat="42.4522367" lon="-7.6677633"><ele>586.0</ele><time>2026-04-14T11:25:01.87Z</time></trkpt><trkpt lat="42.452145" lon="-7.6677483"><ele>583.4</ele><time>2026-04-14T11:25:02.87Z</time></trkpt><trkpt lat="42.4520533" lon="-7.667735"><ele>580.8</ele><time>2026-04-14T11:25:03.87Z</time></trkpt><trkpt lat="42.45198" lon="-7.6677017"><ele>578.1999999999999</ele><time>2026-04-14T11:25:04.87Z</time></trkpt><trkpt lat="42.451905" lon="-7.667645"><ele>575.6</ele><time>2026-04-14T11:25:05.87Z</time></trkpt><trkpt lat="42.4518333" lon="-7.6675517"><ele>573.0</ele><time>2026-04-14T11:25:06.871Z</time></trkpt><trkpt lat="42.4517717" lon="-7.6674183"><ele>573.0</ele><time>2026-04-14T11:25:07.871Z</time></trkpt><trkpt lat="42.45171" lon="-7.6672867"><ele>573.0</ele><time>2026-04-14T11:25:08.871Z</time></trkpt><trkpt lat="42.4516633" lon="-7.6671517"><ele>573.0</ele><time>2026-04-14T11:25:09.871Z</time></trkpt><trkpt lat="42.4516167" lon="-7.667045"><ele>573.0</ele><time>2026-04-14T11:25:10.87Z</time></trkpt><trkpt lat="42.451575" lon="-7.666955"><ele>573.0</ele><time>2026-04-14T11:25:11.871Z</time></trkpt><trkpt lat="42.4515083" lon="-7.66688"><ele>570.75</ele><time>2026-04-14T11:25:12.87Z</time></trkpt><trkpt lat="42.45143" lon="-7.666845"><ele>568.5</ele><time>2026-04-14T11:25:13.87Z</time></trkpt><trkpt lat="42.451325" lon="-7.66681"><ele>566.25</ele><time>2026-04-14T11:25:14.871Z</time></trkpt><trkpt lat="42.451185" lon="-7.6667967"><ele>564.0</ele><time>2026-04-14T11:25:15.87Z</time></trkpt><trkpt lat="42.45104" lon="-7.6668033"><ele>562.25</ele><time>2026-04-14T11:25:16.87Z</time></trkpt><trkpt lat="42.4509017" lon="-7.6668083"><ele>560.5</ele><time>2026-04-14T11:25:17.871Z</time></trkpt><trkpt lat="42.4507683" lon="-7.6668"><ele>558.75</ele><time>2026-04-14T11:25:18.871Z</time></trkpt><trkpt lat="42.45062" lon="-7.66676"><ele>557.0</ele><time>2026-04-14T11:25:19.871Z</time></trkpt><trkpt lat="42.4504633" lon="-7.6666667"><ele>554.0</ele><time>2026-04-14T11:25:20.871Z</time></trkpt><trkpt lat="42.4502917" lon="-7.666555"><ele>551.0</ele><time>2026-04-14T11:25:21.871Z</time></trkpt><trkpt lat="42.450125" lon="-7.6664283"><ele>548.0</ele><time>2026-04-14T11:25:22.87Z</time></trkpt><trkpt lat="42.4499633" lon="-7.6662983"><ele>548.0</ele><time>2026-04-14T11:25:23.87Z</time></trkpt><trkpt lat="42.4498233" lon="-7.6661667"><ele>548.0</ele><time>2026-04-14T11:25:24.87Z</time></trkpt><trkpt lat="42.4496917" lon="-7.6660317"><ele>548.0</ele><time>2026-04-14T11:25:25.871Z</time></trkpt><trkpt lat="42.4495667" lon="-7.665905"><ele>545.6</ele><time>2026-04-14T11:25:26.87Z</time></trkpt><trkpt lat="42.4494433" lon="-7.6658233"><ele>543.1999999999999</ele><time>2026-04-14T11:25:27.87Z</time></trkpt><trkpt lat="42.44933" lon="-7.6657767"><ele>540.8</ele><time>2026-04-14T11:25:28.871Z</time></trkpt><trkpt lat="42.44925" lon="-7.66573"><ele>538.4</ele><time>2026-04-14T11:25:29.871Z</time></trkpt><trkpt lat="42.4491917" lon="-7.66567"><ele>536.0</ele><time>2026-04-14T11:25:30.87Z</time></trkpt><trkpt lat="42.4491633" lon="-7.6655783"><ele>536.0</ele><time>2026-04-14T11:25:31.871Z</time></trkpt><trkpt lat="42.44915" lon="-7.6654767"><ele>536.0</ele><time>2026-04-14T11:25:32.87Z</time></trkpt><trkpt lat="42.4491233" lon="-7.66538"><ele>536.0</ele><time>2026-04-14T11:25:33.871Z</time></trkpt><trkpt lat="42.4490467" lon="-7.6652867"><ele>536.0</ele><time>2026-04-14T11:25:35.871Z</time></trkpt><trkpt lat="42.448975" lon="-7.6652633"><ele>536.0</ele><time>2026-04-14T11:25:37.87Z</time></trkpt><trkpt lat="42.4490633" lon="-7.6652133"><ele>536.0</ele><time>2026-04-14T11:25:40.87Z</time></trkpt><trkpt lat="42.44917" lon="-7.6652033"><ele>529.3333333333333</ele><time>2026-04-14T11:25:41.871Z</time></trkpt><trkpt lat="42.4493333" lon="-7.6652033"><ele>522.6666666666666</ele><time>2026-04-14T11:25:42.87Z</time></trkpt><trkpt lat="42.449505" lon="-7.6652117"><ele>516.0</ele><time>2026-04-14T11:25:43.87Z</time></trkpt><trkpt lat="42.449655" lon="-7.66523"><ele>513.6666666666666</ele><time>2026-04-14T11:25:44.87Z</time></trkpt><trkpt lat="42.44981" lon="-7.6652683"><ele>511.3333333333333</ele><time>2026-04-14T11:25:45.871Z</time></trkpt><trkpt lat="42.4499783" lon="-7.66532"><ele>509.0</ele><time>2026-04-14T11:25:46.871Z</time></trkpt><trkpt lat="42.4501683" lon="-7.6653733"><ele>517.0</ele><time>2026-04-14T11:25:47.87Z</time></trkpt><trkpt lat="42.4503667" lon="-7.665425"><ele>525.0</ele><time>2026-04-14T11:25:48.87Z</time></trkpt><trkpt lat="42.450555" lon="-7.6654467"><ele>533.0</ele><time>2026-04-14T11:25:49.871Z</time></trkpt><trkpt lat="42.450745" lon="-7.6654367"><ele>533.0</ele><time>2026-04-14T11:25:50.87Z</time></trkpt><trkpt lat="42.450955" lon="-7.6654283"><ele>533.0</ele><time>2026-04-14T11:25:51.871Z</time></trkpt><trkpt lat="42.451175" lon="-7.665415"><ele>533.0</ele><time>2026-04-14T11:25:52.871Z</time></trkpt><trkpt lat="42.4513833" lon="-7.66541"><ele>533.6666666666666</ele><time>2026-04-14T11:25:53.871Z</time></trkpt><trkpt lat="42.4515817" lon="-7.6653867"><ele>534.3333333333334</ele><time>2026-04-14T11:25:54.87Z</time></trkpt><trkpt lat="42.4517417" lon="-7.665355"><ele>535.0</ele><time>2026-04-14T11:25:55.871Z</time></trkpt><trkpt lat="42.4518867" lon="-7.665335"><ele>535.0</ele><time>2026-04-14T11:25:56.87Z</time></trkpt><trkpt lat="42.4520417" lon="-7.66536"><ele>535.0</ele><time>2026-04-14T11:25:57.871Z</time></trkpt><trkpt lat="42.4522133" lon="-7.6654267"><ele>535.0</ele><time>2026-04-14T11:25:58.871Z</time></trkpt><trkpt lat="42.4523817" lon="-7.6654867"><ele>534.0</ele><time>2026-04-14T11:25:59.871Z</time></trkpt><trkpt lat="42.4525633" lon="-7.665535"><ele>533.0</ele><time>2026-04-14T11:26:00.87Z</time></trkpt><trkpt lat="42.4527467" lon="-7.6655583"><ele>532.0</ele><time>2026-04-14T11:26:01.87Z</time></trkpt><trkpt lat="42.452925" lon="-7.6655733"><ele>531.0</ele><time>2026-04-14T11:26:02.87Z</time></trkpt><trkpt lat="42.4530983" lon="-7.66562"><ele>530.0</ele><time>2026-04-14T11:26:03.871Z</time></trkpt><trkpt lat="42.4532617" lon="-7.6656767"><ele>529.0</ele><time>2026-04-14T11:26:04.87Z</time></trkpt><trkpt lat="42.4533933" lon="-7.665725"><ele>529.0</ele><time>2026-04-14T11:26:05.871Z</time></trkpt><trkpt lat="42.4535133" lon="-7.6657633"><ele>529.0</ele><time>2026-04-14T11:26:06.871Z</time></trkpt><trkpt lat="42.4536317" lon="-7.6658117"><ele>529.0</ele><time>2026-04-14T11:26:07.871Z</time></trkpt><trkpt lat="42.4537433" lon="-7.665855"><ele>529.0</ele><time>2026-04-14T11:26:08.872Z</time></trkpt><trkpt lat="42.453855" lon="-7.66585"><ele>528.75</ele><time>2026-04-14T11:26:09.871Z</time></trkpt><trkpt lat="42.45398" lon="-7.6658117"><ele>528.5</ele><time>2026-04-14T11:26:10.871Z</time></trkpt><trkpt lat="42.45411" lon="-7.66578"><ele>528.25</ele><time>2026-04-14T11:26:11.871Z</time></trkpt><trkpt lat="42.4542383" lon="-7.6657533"><ele>528.0</ele><time>2026-04-14T11:26:12.871Z</time></trkpt><trkpt lat="42.4543383" lon="-7.6657167"><ele>528.0</ele><time>2026-04-14T11:26:13.871Z</time></trkpt><trkpt lat="42.4543967" lon="-7.6656817"><ele>528.0</ele><time>2026-04-14T11:26:14.872Z</time></trkpt><trkpt lat="42.4544483" lon="-7.6656017"><ele>528.0</ele><time>2026-04-14T11:26:16.871Z</time></trkpt><trkpt lat="42.45448" lon="-7.6655083"><ele>528.0</ele><time>2026-04-14T11:26:18.871Z</time></trkpt><trkpt lat="42.4543567" lon="-7.6654267"><ele>528.0</ele><time>2026-04-14T11:26:19.872Z</time></trkpt><trkpt lat="42.4542967" lon="-7.6653283"><ele>528.0</ele><time>2026-04-14T11:26:20.871Z</time></trkpt><trkpt lat="42.4541933" lon="-7.6651783"><ele>525.5</ele><time>2026-04-14T11:26:21.871Z</time></trkpt><trkpt lat="42.4540517" lon="-7.664945"><ele>523.0</ele><time>2026-04-14T11:26:22.872Z</time></trkpt><trkpt lat="42.4539167" lon="-7.6646567"><ele>518.3333333333334</ele><time>2026-04-14T11:26:23.872Z</time></trkpt><trkpt lat="42.4537867" lon="-7.6643833"><ele>513.6666666666666</ele><time>2026-04-14T11:26:24.872Z</time></trkpt><trkpt lat="42.4536767" lon="-7.6641617"><ele>509.0</ele><time>2026-04-14T11:26:25.871Z</time></trkpt><trkpt lat="42.4535867" lon="-7.663995"><ele>509.0</ele><time>2026-04-14T11:26:26.872Z</time></trkpt><trkpt lat="42.453525" lon="-7.6638767"><ele>509.0</ele><time>2026-04-14T11:26:27.871Z</time></trkpt><trkpt lat="42.4534733" lon="-7.6637783"><ele>509.0</ele><time>2026-04-14T11:26:28.871Z</time></trkpt><trkpt lat="42.4534467" lon="-7.663685"><ele>509.0</ele><time>2026-04-14T11:26:29.872Z</time></trkpt><trkpt lat="42.4534967" lon="-7.6635183"><ele>509.0</ele><time>2026-04-14T11:26:31.871Z</time></trkpt><trkpt lat="42.45359" lon="-7.6634167"><ele>507.3333333333333</ele><time>2026-04-14T11:26:32.872Z</time></trkpt><trkpt lat="42.4537317" lon="-7.6633117"><ele>505.66666666666663</ele><time>2026-04-14T11:26:33.872Z</time></trkpt><trkpt lat="42.453935" lon="-7.66321"><ele>504.0</ele><time>2026-04-14T11:26:34.872Z</time></trkpt><trkpt lat="42.4541533" lon="-7.66312"><ele>509.33333333333337</ele><time>2026-04-14T11:26:35.872Z</time></trkpt><trkpt lat="42.45435" lon="-7.663025"><ele>514.6666666666667</ele><time>2026-04-14T11:26:36.871Z</time></trkpt><trkpt lat="42.4545117" lon="-7.662925"><ele>520.0</ele><time>2026-04-14T11:26:37.872Z</time></trkpt><trkpt lat="42.4546517" lon="-7.66282"><ele>519.4</ele><time>2026-04-14T11:26:38.871Z</time></trkpt><trkpt lat="42.4547483" lon="-7.6627167"><ele>518.8</ele><time>2026-04-14T11:26:39.872Z</time></trkpt><trkpt lat="42.4548117" lon="-7.66261"><ele>518.2</ele><time>2026-04-14T11:26:40.871Z</time></trkpt><trkpt lat="42.45484" lon="-7.6625167"><ele>517.6</ele><time>2026-04-14T11:26:41.872Z</time></trkpt><trkpt lat="42.4547983" lon="-7.6623883"><ele>517.0</ele><time>2026-04-14T11:26:43.871Z</time></trkpt><trkpt lat="42.454685" lon="-7.6623583"><ele>513.0</ele><time>2026-04-14T11:26:45.872Z</time></trkpt><trkpt lat="42.4545883" lon="-7.6623583"><ele>509.0</ele><time>2026-04-14T11:26:46.872Z</time></trkpt><trkpt lat="42.4544383" lon="-7.6623817"><ele>505.0</ele><time>2026-04-14T11:26:47.872Z</time></trkpt><trkpt lat="42.45423" lon="-7.6624183"><ele>505.0</ele><time>2026-04-14T11:26:48.871Z</time></trkpt><trkpt lat="42.4540417" lon="-7.6624517"><ele>505.0</ele><time>2026-04-14T11:26:49.872Z</time></trkpt><trkpt lat="42.4538717" lon="-7.6624683"><ele>505.0</ele><time>2026-04-14T11:26:50.871Z</time></trkpt><trkpt lat="42.4536933" lon="-7.6624683"><ele>502.33333333333337</ele><time>2026-04-14T11:26:51.871Z</time></trkpt><trkpt lat="42.4535" lon="-7.66246"><ele>499.66666666666663</ele><time>2026-04-14T11:26:52.872Z</time></trkpt><trkpt lat="42.45334" lon="-7.6624433"><ele>497.0</ele><time>2026-04-14T11:26:53.871Z</time></trkpt><trkpt lat="42.4531667" lon="-7.66243"><ele>497.0</ele><time>2026-04-14T11:26:54.872Z</time></trkpt><trkpt lat="42.4529883" lon="-7.6624283"><ele>497.0</ele><time>2026-04-14T11:26:55.872Z</time></trkpt><trkpt lat="42.4528017" lon="-7.6624317"><ele>497.0</ele><time>2026-04-14T11:26:56.872Z</time></trkpt><trkpt lat="42.4526183" lon="-7.6624717"><ele>496.3333333333333</ele><time>2026-04-14T11:26:57.871Z</time></trkpt><trkpt lat="42.45245" lon="-7.6625717"><ele>495.66666666666663</ele><time>2026-04-14T11:26:58.872Z</time></trkpt><trkpt lat="42.4522783" lon="-7.6626733"><ele>495.0</ele><time>2026-04-14T11:26:59.871Z</time></trkpt><trkpt lat="42.452115" lon="-7.6627633"><ele>487.0</ele><time>2026-04-14T11:27:00.871Z</time></trkpt><trkpt lat="42.4519717" lon="-7.66286"><ele>479.0</ele><time>2026-04-14T11:27:01.871Z</time></trkpt><trkpt lat="42.451845" lon="-7.662985"><ele>471.0</ele><time>2026-04-14T11:27:02.871Z</time></trkpt><trkpt lat="42.4517383" lon="-7.6631333"><ele>471.0</ele><time>2026-04-14T11:27:03.872Z</time></trkpt><trkpt lat="42.4516583" lon="-7.66328"><ele>471.0</ele><time>2026-04-14T11:27:04.871Z</time></trkpt><trkpt lat="42.45158" lon="-7.6634233"><ele>471.0</ele><time>2026-04-14T11:27:05.872Z</time></trkpt><trkpt lat="42.4515133" lon="-7.6635317"><ele>471.0</ele><time>2026-04-14T11:27:06.871Z</time></trkpt><trkpt lat="42.4514417" lon="-7.6636033"><ele>470.75</ele><time>2026-04-14T11:27:07.872Z</time></trkpt><trkpt lat="42.45135" lon="-7.6636317"><ele>470.5</ele><time>2026-04-14T11:27:08.871Z</time></trkpt><trkpt lat="42.4512433" lon="-7.663615"><ele>470.25</ele><time>2026-04-14T11:27:09.871Z</time></trkpt><trkpt lat="42.45112" lon="-7.6635517"><ele>470.0</ele><time>2026-04-14T11:27:10.872Z</time></trkpt><trkpt lat="42.4509817" lon="-7.66347"><ele>467.3333333333333</ele><time>2026-04-14T11:27:11.872Z</time></trkpt><trkpt lat="42.4508417" lon="-7.66338"><ele>464.66666666666663</ele><time>2026-04-14T11:27:12.871Z</time></trkpt><trkpt lat="42.4506983" lon="-7.663255"><ele>462.0</ele><time>2026-04-14T11:27:13.871Z</time></trkpt><trkpt lat="42.4505417" lon="-7.6631117"><ele>460.33333333333337</ele><time>2026-04-14T11:27:14.871Z</time></trkpt><trkpt lat="42.4503633" lon="-7.6629717"><ele>458.6666666666667</ele><time>2026-04-14T11:27:15.871Z</time></trkpt><trkpt lat="42.4501783" lon="-7.6628383"><ele>457.0</ele><time>2026-04-14T11:27:16.872Z</time></trkpt><trkpt lat="42.4499867" lon="-7.6627067"><ele>457.0</ele><time>2026-04-14T11:27:17.872Z</time></trkpt><trkpt lat="42.4498083" lon="-7.6625833"><ele>457.0</ele><time>2026-04-14T11:27:18.871Z</time></trkpt><trkpt lat="42.449645" lon="-7.66247"><ele>457.0</ele><time>2026-04-14T11:27:19.871Z</time></trkpt><trkpt lat="42.4494917" lon="-7.6623817"><ele>455.5</ele><time>2026-04-14T11:27:20.872Z</time></trkpt><trkpt lat="42.4493717" lon="-7.6622967"><ele>454.0</ele><time>2026-04-14T11:27:21.871Z</time></trkpt><trkpt lat="42.449285" lon="-7.6621917"><ele>452.5</ele><time>2026-04-14T11:27:22.871Z</time></trkpt><trkpt lat="42.4492133" lon="-7.6620483"><ele>451.0</ele><time>2026-04-14T11:27:23.872Z</time></trkpt><trkpt lat="42.4491567" lon="-7.66188"><ele>451.0</ele><time>2026-04-14T11:27:24.872Z</time></trkpt><trkpt lat="42.4491017" lon="-7.6617083"><ele>451.0</ele><time>2026-04-14T11:27:25.871Z</time></trkpt><trkpt lat="42.449045" lon="-7.6615283"><ele>451.0</ele><time>2026-04-14T11:27:26.872Z</time></trkpt><trkpt lat="42.4489833" lon="-7.66134"><ele>451.0</ele><time>2026-04-14T11:27:27.872Z</time></trkpt><trkpt lat="42.4489233" lon="-7.6611583"><ele>451.0</ele><time>2026-04-14T11:27:28.871Z</time></trkpt><trkpt lat="42.4488517" lon="-7.6610017"><ele>451.0</ele><time>2026-04-14T11:27:29.871Z</time></trkpt><trkpt lat="42.44875" lon="-7.66086"><ele>451.0</ele><time>2026-04-14T11:27:30.871Z</time></trkpt><trkpt lat="42.4486" lon="-7.6607717"><ele>451.0</ele><time>2026-04-14T11:27:31.871Z</time></trkpt><trkpt lat="42.4484117" lon="-7.660735"><ele>451.0</ele><time>2026-04-14T11:27:32.872Z</time></trkpt><trkpt lat="42.4482483" lon="-7.660685"><ele>451.0</ele><time>2026-04-14T11:27:33.872Z</time></trkpt><trkpt lat="42.448115" lon="-7.6605983"><ele>451.0</ele><time>2026-04-14T11:27:34.871Z</time></trkpt><trkpt lat="42.447995" lon="-7.6604833"><ele>447.6666666666667</ele><time>2026-04-14T11:27:35.872Z</time></trkpt><trkpt lat="42.4478867" lon="-7.66034"><ele>444.33333333333337</ele><time>2026-04-14T11:27:36.871Z</time></trkpt><trkpt lat="42.447795" lon="-7.6601733"><ele>441.0</ele><time>2026-04-14T11:27:37.871Z</time></trkpt><trkpt lat="42.4477183" lon="-7.659975"><ele>441.0</ele><time>2026-04-14T11:27:38.871Z</time></trkpt><trkpt lat="42.4476483" lon="-7.6597633"><ele>441.0</ele><time>2026-04-14T11:27:39.871Z</time></trkpt><trkpt lat="42.4476067" lon="-7.6595567"><ele>441.0</ele><time>2026-04-14T11:27:40.871Z</time></trkpt><trkpt lat="42.447585" lon="-7.65933"><ele>442.0</ele><time>2026-04-14T11:27:41.872Z</time></trkpt><trkpt lat="42.4475917" lon="-7.6591067"><ele>443.0</ele><time>2026-04-14T11:27:42.872Z</time></trkpt><trkpt lat="42.44762" lon="-7.65888"><ele>444.0</ele><time>2026-04-14T11:27:43.871Z</time></trkpt><trkpt lat="42.447665" lon="-7.658655"><ele>441.33333333333337</ele><time>2026-04-14T11:27:44.871Z</time></trkpt><trkpt lat="42.4477167" lon="-7.6584317"><ele>438.6666666666667</ele><time>2026-04-14T11:27:45.871Z</time></trkpt><trkpt lat="42.4477517" lon="-7.6582017"><ele>436.0</ele><time>2026-04-14T11:27:46.872Z</time></trkpt><trkpt lat="42.4477483" lon="-7.6579933"><ele>436.0</ele><time>2026-04-14T11:27:47.872Z</time></trkpt><trkpt lat="42.44772" lon="-7.6577883"><ele>436.0</ele><time>2026-04-14T11:27:48.872Z</time></trkpt><trkpt lat="42.4477017" lon="-7.6575817"><ele>436.0</ele><time>2026-04-14T11:27:49.872Z</time></trkpt><trkpt lat="42.4476783" lon="-7.6573833"><ele>435.75</ele><time>2026-04-14T11:27:50.872Z</time></trkpt><trkpt lat="42.4476633" lon="-7.657195"><ele>435.5</ele><time>2026-04-14T11:27:51.872Z</time></trkpt><trkpt lat="42.4476483" lon="-7.6570117"><ele>435.25</ele><time>2026-04-14T11:27:52.872Z</time></trkpt><trkpt lat="42.44761" lon="-7.6568567"><ele>435.0</ele><time>2026-04-14T11:27:53.871Z</time></trkpt><trkpt lat="42.4475533" lon="-7.656725"><ele>436.0</ele><time>2026-04-14T11:27:54.871Z</time></trkpt><trkpt lat="42.4474633" lon="-7.6566083"><ele>437.0</ele><time>2026-04-14T11:27:55.871Z</time></trkpt><trkpt lat="42.4473517" lon="-7.6565117"><ele>438.0</ele><time>2026-04-14T11:27:56.871Z</time></trkpt><trkpt lat="42.4472417" lon="-7.6564067"><ele>439.0</ele><time>2026-04-14T11:27:57.872Z</time></trkpt><trkpt lat="42.447135" lon="-7.656315"><ele>435.6666666666667</ele><time>2026-04-14T11:27:58.871Z</time></trkpt><trkpt lat="42.4470433" lon="-7.6562367"><ele>432.33333333333337</ele><time>2026-04-14T11:27:59.871Z</time></trkpt><trkpt lat="42.4469667" lon="-7.6561667"><ele>429.0</ele><time>2026-04-14T11:28:00.872Z</time></trkpt><trkpt lat="42.446915" lon="-7.656115"><ele>425.66666666666663</ele><time>2026-04-14T11:28:01.872Z</time></trkpt><trkpt lat="42.4468617" lon="-7.65605"><ele>422.3333333333333</ele><time>2026-04-14T11:28:04.871Z</time></trkpt><trkpt lat="42.4467567" lon="-7.6560167"><ele>419.0</ele><time>2026-04-14T11:28:07.872Z</time></trkpt><trkpt lat="42.4466717" lon="-7.6560033"><ele>419.0</ele><time>2026-04-14T11:28:08.872Z</time></trkpt><trkpt lat="42.4465617" lon="-7.655985"><ele>419.0</ele><time>2026-04-14T11:28:09.872Z</time></trkpt><trkpt lat="42.4464367" lon="-7.6559467"><ele>419.0</ele><time>2026-04-14T11:28:10.872Z</time></trkpt><trkpt lat="42.4463017" lon="-7.6558983"><ele>419.0</ele><time>2026-04-14T11:28:11.872Z</time></trkpt><trkpt lat="42.4461817" lon="-7.65584"><ele>415.6</ele><time>2026-04-14T11:28:12.872Z</time></trkpt><trkpt lat="42.446075" lon="-7.6557933"><ele>412.2</ele><time>2026-04-14T11:28:13.872Z</time></trkpt><trkpt lat="42.4459833" lon="-7.655745"><ele>408.8</ele><time>2026-04-14T11:28:14.872Z</time></trkpt><trkpt lat="42.4458933" lon="-7.6556917"><ele>405.40000000000003</ele><time>2026-04-14T11:28:15.871Z</time></trkpt><trkpt lat="42.44581" lon="-7.6556433"><ele>402.0</ele><time>2026-04-14T11:28:16.872Z</time></trkpt><trkpt lat="42.4457283" lon="-7.6556"><ele>402.0</ele><time>2026-04-14T11:28:17.871Z</time></trkpt><trkpt lat="42.4456517" lon="-7.6555683"><ele>402.0</ele><time>2026-04-14T11:28:18.872Z</time></trkpt><trkpt lat="42.4455817" lon="-7.6555483"><ele>402.0</ele><time>2026-04-14T11:28:19.871Z</time></trkpt><trkpt lat="42.4455117" lon="-7.6555283"><ele>402.0</ele><time>2026-04-14T11:28:20.872Z</time></trkpt><trkpt lat="42.4454433" lon="-7.6555117"><ele>402.0</ele><time>2026-04-14T11:28:21.871Z</time></trkpt><trkpt lat="42.4453717" lon="-7.65547"><ele>402.0</ele><time>2026-04-14T11:28:23.871Z</time></trkpt><trkpt lat="42.4454467" lon="-7.6555383"><ele>402.0</ele><time>2026-04-14T11:29:07.871Z</time></trkpt><trkpt lat="42.4455567" lon="-7.655595"><ele>402.0</ele><time>2026-04-14T11:29:09.872Z</time></trkpt><trkpt lat="42.4456267" lon="-7.6556283"><ele>402.0</ele><time>2026-04-14T11:29:10.872Z</time></trkpt><trkpt lat="42.4457133" lon="-7.6556667"><ele>402.0</ele><time>2026-04-14T11:29:11.872Z</time></trkpt><trkpt lat="42.4458133" lon="-7.6557117"><ele>402.0</ele><time>2026-04-14T11:29:12.871Z</time></trkpt><trkpt lat="42.445935" lon="-7.6557767"><ele>402.0</ele><time>2026-04-14T11:29:13.872Z</time></trkpt><trkpt lat="42.4460683" lon="-7.6558567"><ele>402.0</ele><time>2026-04-14T11:29:14.872Z</time></trkpt><trkpt lat="42.44622" lon="-7.6559283"><ele>402.0</ele><time>2026-04-14T11:29:15.871Z</time></trkpt><trkpt lat="42.4463833" lon="-7.655995"><ele>405.0</ele><time>2026-04-14T11:29:16.872Z</time></trkpt><trkpt lat="42.4465433" lon="-7.656045"><ele>408.0</ele><time>2026-04-14T11:29:17.871Z</time></trkpt><trkpt lat="42.4466817" lon="-7.6560817"><ele>411.0</ele><time>2026-04-14T11:29:18.872Z</time></trkpt><trkpt lat="42.4467833" lon="-7.6561067"><ele>414.0</ele><time>2026-04-14T11:29:19.871Z</time></trkpt><trkpt lat="42.446855" lon="-7.6561217"><ele>414.0</ele><time>2026-04-14T11:29:20.871Z</time></trkpt><trkpt lat="42.4469267" lon="-7.6561617"><ele>414.0</ele><time>2026-04-14T11:29:22.871Z</time></trkpt><trkpt lat="42.4469083" lon="-7.6560317"><ele>414.0</ele><time>2026-04-14T11:29:57.872Z</time></trkpt><trkpt lat="42.4469" lon="-7.6559183"><ele>414.0</ele><time>2026-04-14T11:30:00.871Z</time></trkpt><trkpt lat="42.4469867" lon="-7.655845"><ele>414.0</ele><time>2026-04-14T11:30:25.872Z</time></trkpt><trkpt lat="42.4470733" lon="-7.6558233"><ele>418.0</ele><time>2026-04-14T11:30:26.872Z</time></trkpt><trkpt lat="42.4471967" lon="-7.655795"><ele>422.0</ele><time>2026-04-14T11:30:27.872Z</time></trkpt><trkpt lat="42.4473617" lon="-7.6557717"><ele>426.0</ele><time>2026-04-14T11:30:28.871Z</time></trkpt><trkpt lat="42.4475383" lon="-7.6557317"><ele>426.0</ele><time>2026-04-14T11:30:29.871Z</time></trkpt><trkpt lat="42.4477183" lon="-7.6556833"><ele>426.0</ele><time>2026-04-14T11:30:30.871Z</time></trkpt><trkpt lat="42.4478933" lon="-7.6556117"><ele>426.0</ele><time>2026-04-14T11:30:31.872Z</time></trkpt><trkpt lat="42.4480683" lon="-7.6555567"><ele>426.0</ele><time>2026-04-14T11:30:32.872Z</time></trkpt><trkpt lat="42.448225" lon="-7.6555217"><ele>426.0</ele><time>2026-04-14T11:30:33.872Z</time></trkpt><trkpt lat="42.4483667" lon="-7.65549"><ele>426.0</ele><time>2026-04-14T11:30:34.871Z</time></trkpt><trkpt lat="42.4485133" lon="-7.655475"><ele>426.0</ele><time>2026-04-14T11:30:35.872Z</time></trkpt><trkpt lat="42.4486567" lon="-7.6554833"><ele>426.0</ele><time>2026-04-14T11:30:36.871Z</time></trkpt><trkpt lat="42.44879" lon="-7.65551"><ele>426.0</ele><time>2026-04-14T11:30:37.872Z</time></trkpt><trkpt lat="42.4489183" lon="-7.65555"><ele>426.0</ele><time>2026-04-14T11:30:38.871Z</time></trkpt><trkpt lat="42.4490383" lon="-7.6555967"><ele>426.0</ele><time>2026-04-14T11:30:39.871Z</time></trkpt><trkpt lat="42.44915" lon="-7.65566"><ele>426.5</ele><time>2026-04-14T11:30:40.872Z</time></trkpt><trkpt lat="42.449265" lon="-7.65573"><ele>427.0</ele><time>2026-04-14T11:30:41.872Z</time></trkpt><trkpt lat="42.4493833" lon="-7.6557833"><ele>427.5</ele><time>2026-04-14T11:30:42.871Z</time></trkpt><trkpt lat="42.449505" lon="-7.6558267"><ele>428.0</ele><time>2026-04-14T11:30:43.871Z</time></trkpt><trkpt lat="42.4496267" lon="-7.6558533"><ele>428.0</ele><time>2026-04-14T11:30:44.872Z</time></trkpt><trkpt lat="42.449765" lon="-7.6559017"><ele>428.0</ele><time>2026-04-14T11:30:45.871Z</time></trkpt><trkpt lat="42.4498933" lon="-7.6559133"><ele>428.0</ele><time>2026-04-14T11:30:46.872Z</time></trkpt><trkpt lat="42.4500233" lon="-7.655915"><ele>428.0</ele><time>2026-04-14T11:30:47.871Z</time></trkpt><trkpt lat="42.450145" lon="-7.655915"><ele>427.99999999999994</ele><time>2026-04-14T11:30:48.872Z</time></trkpt><trkpt lat="42.4502417" lon="-7.6559083"><ele>428.0</ele><time>2026-04-14T11:30:49.872Z</time></trkpt><trkpt lat="42.45033" lon="-7.6559267"><ele>428.0</ele><time>2026-04-14T11:30:50.871Z</time></trkpt><trkpt lat="42.4503967" lon="-7.65594"><ele>428.0</ele><time>2026-04-14T11:30:51.871Z</time></trkpt><trkpt lat="42.4504733" lon="-7.6559717"><ele>427.99999999999994</ele><time>2026-04-14T11:30:53.871Z</time></trkpt><trkpt lat="42.4505383" lon="-7.6558983"><ele>428.0</ele><time>2026-04-14T11:30:56.871Z</time></trkpt><trkpt lat="42.4505217" lon="-7.6557767"><ele>428.0</ele><time>2026-04-14T11:30:58.872Z</time></trkpt><trkpt lat="42.4504533" lon="-7.6556667"><ele>428.0</ele><time>2026-04-14T11:30:59.871Z</time></trkpt><trkpt lat="42.4503117" lon="-7.6555267"><ele>428.0</ele><time>2026-04-14T11:31:00.872Z</time></trkpt><trkpt lat="42.4501717" lon="-7.6553833"><ele>428.0</ele><time>2026-04-14T11:31:01.871Z</time></trkpt><trkpt lat="42.44999" lon="-7.6552367"><ele>428.0</ele><time>2026-04-14T11:31:02.872Z</time></trkpt><trkpt lat="42.4498433" lon="-7.6550883"><ele>428.0</ele><time>2026-04-14T11:31:03.872Z</time></trkpt><trkpt lat="42.4497033" lon="-7.6549417"><ele>422.66666666666663</ele><time>2026-04-14T11:31:04.871Z</time></trkpt><trkpt lat="42.44957" lon="-7.65479"><ele>417.33333333333337</ele><time>2026-04-14T11:31:05.872Z</time></trkpt><trkpt lat="42.4494333" lon="-7.6546583"><ele>412.0</ele><time>2026-04-14T11:31:06.872Z</time></trkpt><trkpt lat="42.4493133" lon="-7.6545467"><ele>412.0</ele><time>2026-04-14T11:31:07.872Z</time></trkpt><trkpt lat="42.4492083" lon="-7.6544683"><ele>412.0</ele><time>2026-04-14T11:31:08.871Z</time></trkpt><trkpt lat="42.449125" lon="-7.6544033"><ele>412.0</ele><time>2026-04-14T11:31:09.871Z</time></trkpt><trkpt lat="42.44905" lon="-7.6543017"><ele>412.0</ele><time>2026-04-14T11:31:11.872Z</time></trkpt><trkpt lat="42.4490567" lon="-7.6541867"><ele>412.0</ele><time>2026-04-14T11:31:13.872Z</time></trkpt><trkpt lat="42.4490417" lon="-7.65407"><ele>411.5</ele><time>2026-04-14T11:31:16.872Z</time></trkpt><trkpt lat="42.448925" lon="-7.654025"><ele>411.0</ele><time>2026-04-14T11:31:18.872Z</time></trkpt><trkpt lat="42.4488367" lon="-7.653975"><ele>410.5</ele><time>2026-04-14T11:31:19.872Z</time></trkpt><trkpt lat="42.44872" lon="-7.6538867"><ele>410.0</ele><time>2026-04-14T11:31:20.871Z</time></trkpt><trkpt lat="42.4485967" lon="-7.653745"><ele>414.3333333333333</ele><time>2026-04-14T11:31:21.872Z</time></trkpt><trkpt lat="42.4484933" lon="-7.6535767"><ele>418.66666666666663</ele><time>2026-04-14T11:31:22.872Z</time></trkpt><trkpt lat="42.4483833" lon="-7.6533917"><ele>423.0</ele><time>2026-04-14T11:31:23.871Z</time></trkpt><trkpt lat="42.4482867" lon="-7.6532567"><ele>423.0</ele><time>2026-04-14T11:31:24.871Z</time></trkpt><trkpt lat="42.4481867" lon="-7.65316"><ele>423.0</ele><time>2026-04-14T11:31:25.872Z</time></trkpt><trkpt lat="42.4480583" lon="-7.6531183"><ele>423.0</ele><time>2026-04-14T11:31:26.872Z</time></trkpt><trkpt lat="42.4478967" lon="-7.65307"><ele>423.0</ele><time>2026-04-14T11:31:27.871Z</time></trkpt><trkpt lat="42.447735" lon="-7.652995"><ele>425.66666666666663</ele><time>2026-04-14T11:31:28.872Z</time></trkpt><trkpt lat="42.4475567" lon="-7.652885"><ele>428.3333333333333</ele><time>2026-04-14T11:31:29.871Z</time></trkpt><trkpt lat="42.4473583" lon="-7.6527617"><ele>431.0</ele><time>2026-04-14T11:31:30.872Z</time></trkpt><trkpt lat="42.44716" lon="-7.6526383"><ele>427.5</ele><time>2026-04-14T11:31:31.871Z</time></trkpt><trkpt lat="42.4469517" lon="-7.6525317"><ele>424.0</ele><time>2026-04-14T11:31:32.871Z</time></trkpt><trkpt lat="42.44673" lon="-7.652445"><ele>424.0</ele><time>2026-04-14T11:31:33.871Z</time></trkpt><trkpt lat="42.446525" lon="-7.6523817"><ele>424.0</ele><time>2026-04-14T11:31:34.872Z</time></trkpt><trkpt lat="42.44635" lon="-7.6523117"><ele>424.0</ele><time>2026-04-14T11:31:35.871Z</time></trkpt><trkpt lat="42.4462183" lon="-7.6522417"><ele>424.5</ele><time>2026-04-14T11:31:36.871Z</time></trkpt><trkpt lat="42.4461067" lon="-7.65215"><ele>425.0</ele><time>2026-04-14T11:31:37.872Z</time></trkpt><trkpt lat="42.44602" lon="-7.6520367"><ele>425.5</ele><time>2026-04-14T11:31:38.872Z</time></trkpt><trkpt lat="42.4459533" lon="-7.6518833"><ele>426.0</ele><time>2026-04-14T11:31:39.871Z</time></trkpt><trkpt lat="42.4459017" lon="-7.6517067"><ele>426.0</ele><time>2026-04-14T11:31:40.872Z</time></trkpt><trkpt lat="42.4458783" lon="-7.6515283"><ele>426.0</ele><time>2026-04-14T11:31:41.872Z</time></trkpt><trkpt lat="42.445875" lon="-7.65135"><ele>426.0</ele><time>2026-04-14T11:31:42.872Z</time></trkpt><trkpt lat="42.44589" lon="-7.6511633"><ele>426.0</ele><time>2026-04-14T11:31:43.871Z</time></trkpt><trkpt lat="42.4459267" lon="-7.65097"><ele>425.0</ele><time>2026-04-14T11:31:44.871Z</time></trkpt><trkpt lat="42.4459767" lon="-7.6507633"><ele>424.0</ele><time>2026-04-14T11:31:45.871Z</time></trkpt><trkpt lat="42.4460483" lon="-7.6505983"><ele>423.0</ele><time>2026-04-14T11:31:46.872Z</time></trkpt><trkpt lat="42.446105" lon="-7.650465"><ele>422.0</ele><time>2026-04-14T11:31:47.871Z</time></trkpt><trkpt lat="42.4461383" lon="-7.6503617"><ele>420.40000000000003</ele><time>2026-04-14T11:31:48.871Z</time></trkpt><trkpt lat="42.446175" lon="-7.6502433"><ele>418.8</ele><time>2026-04-14T11:31:50.871Z</time></trkpt><trkpt lat="42.4462417" lon="-7.6502733"><ele>417.2</ele><time>2026-04-14T11:31:57.872Z</time></trkpt><trkpt lat="42.4463067" lon="-7.650365"><ele>415.6</ele><time>2026-04-14T11:31:59.871Z</time></trkpt><trkpt lat="42.446385" lon="-7.650485"><ele>414.0</ele><time>2026-04-14T11:32:01.872Z</time></trkpt><trkpt lat="42.446435" lon="-7.6505567"><ele>419.0</ele><time>2026-04-14T11:32:02.871Z</time></trkpt><trkpt lat="42.4464883" lon="-7.65063"><ele>424.0</ele><time>2026-04-14T11:32:03.871Z</time></trkpt><trkpt lat="42.4465533" lon="-7.6507017"><ele>429.0</ele><time>2026-04-14T11:32:04.872Z</time></trkpt><trkpt lat="42.4466217" lon="-7.6507683"><ele>434.0</ele><time>2026-04-14T11:32:05.872Z</time></trkpt><trkpt lat="42.44669" lon="-7.650835"><ele>439.0</ele><time>2026-04-14T11:32:06.872Z</time></trkpt><trkpt lat="42.44676" lon="-7.6509067"><ele>444.0</ele><time>2026-04-14T11:32:07.872Z</time></trkpt><trkpt lat="42.4468267" lon="-7.6509733"><ele>444.0</ele><time>2026-04-14T11:32:08.871Z</time></trkpt><trkpt lat="42.4469017" lon="-7.6510283"><ele>444.0</ele><time>2026-04-14T11:32:09.872Z</time></trkpt><trkpt lat="42.44698" lon="-7.6510667"><ele>444.0</ele><time>2026-04-14T11:32:10.871Z</time></trkpt><trkpt lat="42.4470533" lon="-7.6510867"><ele>444.0</ele><time>2026-04-14T11:32:11.872Z</time></trkpt><trkpt lat="42.4471267" lon="-7.6510767"><ele>444.0</ele><time>2026-04-14T11:32:12.871Z</time></trkpt><trkpt lat="42.44722" lon="-7.6510117"><ele>444.0</ele><time>2026-04-14T11:32:13.872Z</time></trkpt><trkpt lat="42.4473417" lon="-7.6509467"><ele>447.25</ele><time>2026-04-14T11:32:14.872Z</time></trkpt><trkpt lat="42.4474633" lon="-7.6509167"><ele>450.5</ele><time>2026-04-14T11:32:15.871Z</time></trkpt><trkpt lat="42.44759" lon="-7.650915"><ele>453.75</ele><time>2026-04-14T11:32:16.872Z</time></trkpt><trkpt lat="42.4477117" lon="-7.650935"><ele>457.0</ele><time>2026-04-14T11:32:17.871Z</time></trkpt><trkpt lat="42.4478217" lon="-7.6509417"><ele>457.0</ele><time>2026-04-14T11:32:18.871Z</time></trkpt><trkpt lat="42.4479233" lon="-7.6509067"><ele>457.00000000000006</ele><time>2026-04-14T11:32:19.871Z</time></trkpt><trkpt lat="42.44801" lon="-7.6508433"><ele>457.00000000000006</ele><time>2026-04-14T11:32:20.872Z</time></trkpt><trkpt lat="42.4480833" lon="-7.65077"><ele>457.0</ele><time>2026-04-14T11:32:21.872Z</time></trkpt><trkpt lat="42.44815" lon="-7.6507"><ele>457.0</ele><time>2026-04-14T11:32:22.872Z</time></trkpt><trkpt lat="42.4482317" lon="-7.65062"><ele>459.0</ele><time>2026-04-14T11:32:23.872Z</time></trkpt><trkpt lat="42.4483317" lon="-7.6505483"><ele>461.00000000000006</ele><time>2026-04-14T11:32:24.873Z</time></trkpt><trkpt lat="42.4484333" lon="-7.6505"><ele>463.00000000000006</ele><time>2026-04-14T11:32:25.873Z</time></trkpt><trkpt lat="42.4485317" lon="-7.6504833"><ele>465.0</ele><time>2026-04-14T11:32:26.872Z</time></trkpt><trkpt lat="42.4486267" lon="-7.6504867"><ele>467.0</ele><time>2026-04-14T11:32:27.873Z</time></trkpt><trkpt lat="42.44872" lon="-7.65052"><ele>469.5</ele><time>2026-04-14T11:32:28.872Z</time></trkpt><trkpt lat="42.4488267" lon="-7.6505583"><ele>472.0</ele><time>2026-04-14T11:32:29.873Z</time></trkpt><trkpt lat="42.44893" lon="-7.6505967"><ele>474.5</ele><time>2026-04-14T11:32:30.873Z</time></trkpt><trkpt lat="42.4490417" lon="-7.6506383"><ele>477.0</ele><time>2026-04-14T11:32:31.872Z</time></trkpt><trkpt lat="42.4491633" lon="-7.650705"><ele>477.0</ele><time>2026-04-14T11:32:32.873Z</time></trkpt><trkpt lat="42.4492983" lon="-7.650795"><ele>477.0</ele><time>2026-04-14T11:32:33.873Z</time></trkpt><trkpt lat="42.4494417" lon="-7.6509133"><ele>477.0</ele><time>2026-04-14T11:32:34.873Z</time></trkpt><trkpt lat="42.4495933" lon="-7.6510517"><ele>478.66666666666663</ele><time>2026-04-14T11:32:35.873Z</time></trkpt><trkpt lat="42.4497417" lon="-7.651195"><ele>480.3333333333333</ele><time>2026-04-14T11:32:36.872Z</time></trkpt><trkpt lat="42.4498883" lon="-7.6513017"><ele>482.0</ele><time>2026-04-14T11:32:37.873Z</time></trkpt><trkpt lat="42.4500283" lon="-7.6513783"><ele>482.0</ele><time>2026-04-14T11:32:38.872Z</time></trkpt><trkpt lat="42.45018" lon="-7.6514417"><ele>482.0</ele><time>2026-04-14T11:32:39.872Z</time></trkpt><trkpt lat="42.4503367" lon="-7.6514783"><ele>482.0</ele><time>2026-04-14T11:32:40.872Z</time></trkpt><trkpt lat="42.4504867" lon="-7.6514967"><ele>486.0</ele><time>2026-04-14T11:32:41.872Z</time></trkpt><trkpt lat="42.450635" lon="-7.6515033"><ele>490.0</ele><time>2026-04-14T11:32:42.873Z</time></trkpt><trkpt lat="42.4507983" lon="-7.651515"><ele>494.0</ele><time>2026-04-14T11:32:43.873Z</time></trkpt><trkpt lat="42.4509783" lon="-7.6515233"><ele>494.0</ele><time>2026-04-14T11:32:44.873Z</time></trkpt><trkpt lat="42.4511617" lon="-7.65153"><ele>494.0</ele><time>2026-04-14T11:32:45.872Z</time></trkpt><trkpt lat="42.45135" lon="-7.651545"><ele>494.0</ele><time>2026-04-14T11:32:46.873Z</time></trkpt><trkpt lat="42.4515333" lon="-7.6515517"><ele>496.75</ele><time>2026-04-14T11:32:47.872Z</time></trkpt><trkpt lat="42.4516983" lon="-7.65155"><ele>499.5</ele><time>2026-04-14T11:32:48.872Z</time></trkpt><trkpt lat="42.4518483" lon="-7.6515667"><ele>502.25</ele><time>2026-04-14T11:32:49.872Z</time></trkpt><trkpt lat="42.451975" lon="-7.6516117"><ele>505.0</ele><time>2026-04-14T11:32:50.872Z</time></trkpt><trkpt lat="42.4521017" lon="-7.6516567"><ele>509.2</ele><time>2026-04-14T11:32:51.872Z</time></trkpt><trkpt lat="42.452215" lon="-7.6516683"><ele>513.4</ele><time>2026-04-14T11:32:52.872Z</time></trkpt><trkpt lat="42.4523017" lon="-7.651685"><ele>517.6</ele><time>2026-04-14T11:32:53.872Z</time></trkpt><trkpt lat="42.4523833" lon="-7.6517167"><ele>521.8</ele><time>2026-04-14T11:32:55.872Z</time></trkpt><trkpt lat="42.4523467" lon="-7.6518767"><ele>526.0</ele><time>2026-04-14T11:32:59.872Z</time></trkpt><trkpt lat="42.452285" lon="-7.6519867"><ele>527.3333333333334</ele><time>2026-04-14T11:33:00.873Z</time></trkpt><trkpt lat="42.45221" lon="-7.65215"><ele>528.6666666666666</ele><time>2026-04-14T11:33:01.873Z</time></trkpt><trkpt lat="42.4521517" lon="-7.6523367"><ele>530.0</ele><time>2026-04-14T11:33:02.872Z</time></trkpt><trkpt lat="42.4521117" lon="-7.6525533"><ele>529.25</ele><time>2026-04-14T11:33:03.873Z</time></trkpt><trkpt lat="42.4520867" lon="-7.65278"><ele>528.5</ele><time>2026-04-14T11:33:04.873Z</time></trkpt><trkpt lat="42.4520783" lon="-7.65297"><ele>527.75</ele><time>2026-04-14T11:33:05.873Z</time></trkpt><trkpt lat="42.4520933" lon="-7.6531317"><ele>527.0</ele><time>2026-04-14T11:33:06.872Z</time></trkpt><trkpt lat="42.4521417" lon="-7.6532567"><ele>527.0</ele><time>2026-04-14T11:33:07.872Z</time></trkpt><trkpt lat="42.4522217" lon="-7.653395"><ele>527.0</ele><time>2026-04-14T11:33:08.873Z</time></trkpt><trkpt lat="42.4523367" lon="-7.6535083"><ele>527.0</ele><time>2026-04-14T11:33:09.873Z</time></trkpt><trkpt lat="42.4524517" lon="-7.6536333"><ele>527.0</ele><time>2026-04-14T11:33:10.873Z</time></trkpt><trkpt lat="42.4526017" lon="-7.6537783"><ele>526.3333333333333</ele><time>2026-04-14T11:33:11.873Z</time></trkpt><trkpt lat="42.452755" lon="-7.653925"><ele>525.6666666666666</ele><time>2026-04-14T11:33:12.872Z</time></trkpt><trkpt lat="42.4529283" lon="-7.6540467"><ele>525.0</ele><time>2026-04-14T11:33:13.873Z</time></trkpt><trkpt lat="42.45312" lon="-7.6541417"><ele>525.0</ele><time>2026-04-14T11:33:14.872Z</time></trkpt><trkpt lat="42.4533017" lon="-7.6542217"><ele>525.0</ele><time>2026-04-14T11:33:15.872Z</time></trkpt><trkpt lat="42.45345" lon="-7.6543183"><ele>525.0</ele><time>2026-04-14T11:33:16.872Z</time></trkpt><trkpt lat="42.4535683" lon="-7.654435"><ele>526.75</ele><time>2026-04-14T11:33:17.873Z</time></trkpt><trkpt lat="42.4536533" lon="-7.65456"><ele>528.5</ele><time>2026-04-14T11:33:18.872Z</time></trkpt><trkpt lat="42.4537183" lon="-7.65472"><ele>530.25</ele><time>2026-04-14T11:33:19.872Z</time></trkpt><trkpt lat="42.4537817" lon="-7.65491"><ele>532.0</ele><time>2026-04-14T11:33:20.872Z</time></trkpt><trkpt lat="42.4538667" lon="-7.655075"><ele>532.0</ele><time>2026-04-14T11:33:21.873Z</time></trkpt><trkpt lat="42.45397" lon="-7.65523"><ele>532.0</ele><time>2026-04-14T11:33:22.873Z</time></trkpt><trkpt lat="42.4541033" lon="-7.6553333"><ele>532.0</ele><time>2026-04-14T11:33:23.873Z</time></trkpt><trkpt lat="42.45425" lon="-7.6554217"><ele>533.3333333333334</ele><time>2026-04-14T11:33:24.873Z</time></trkpt><trkpt lat="42.4544017" lon="-7.6554967"><ele>534.6666666666666</ele><time>2026-04-14T11:33:25.872Z</time></trkpt><trkpt lat="42.4545483" lon="-7.6555567"><ele>536.0</ele><time>2026-04-14T11:33:26.872Z</time></trkpt><trkpt lat="42.4546917" lon="-7.6556017"><ele>536.0</ele><time>2026-04-14T11:33:27.873Z</time></trkpt><trkpt lat="42.4548333" lon="-7.6556383"><ele>536.0</ele><time>2026-04-14T11:33:28.873Z</time></trkpt><trkpt lat="42.4549817" lon="-7.6556867"><ele>536.0</ele><time>2026-04-14T11:33:29.872Z</time></trkpt><trkpt lat="42.4551417" lon="-7.6557283"><ele>536.0</ele><time>2026-04-14T11:33:30.872Z</time></trkpt><trkpt lat="42.4552983" lon="-7.65577"><ele>536.0</ele><time>2026-04-14T11:33:31.873Z</time></trkpt><trkpt lat="42.4554583" lon="-7.6558033"><ele>536.0</ele><time>2026-04-14T11:33:32.873Z</time></trkpt><trkpt lat="42.4556217" lon="-7.655815"><ele>541.0</ele><time>2026-04-14T11:33:33.873Z</time></trkpt><trkpt lat="42.4557867" lon="-7.655805"><ele>546.0</ele><time>2026-04-14T11:33:34.872Z</time></trkpt><trkpt lat="42.45595" lon="-7.6557867"><ele>551.0</ele><time>2026-04-14T11:33:35.872Z</time></trkpt><trkpt lat="42.4560983" lon="-7.655805"><ele>551.0</ele><time>2026-04-14T11:33:36.872Z</time></trkpt><trkpt lat="42.4562067" lon="-7.6558767"><ele>551.0</ele><time>2026-04-14T11:33:37.873Z</time></trkpt><trkpt lat="42.4563417" lon="-7.6559717"><ele>551.0</ele><time>2026-04-14T11:33:38.872Z</time></trkpt><trkpt lat="42.4564783" lon="-7.6560867"><ele>551.0</ele><time>2026-04-14T11:33:39.873Z</time></trkpt><trkpt lat="42.4566117" lon="-7.6562"><ele>552.75</ele><time>2026-04-14T11:33:40.872Z</time></trkpt><trkpt lat="42.456715" lon="-7.6563167"><ele>554.5</ele><time>2026-04-14T11:33:41.872Z</time></trkpt><trkpt lat="42.456815" lon="-7.6564417"><ele>556.25</ele><time>2026-04-14T11:33:42.873Z</time></trkpt><trkpt lat="42.4568967" lon="-7.656575"><ele>558.0</ele><time>2026-04-14T11:33:43.872Z</time></trkpt><trkpt lat="42.45695" lon="-7.656685"><ele>558.0</ele><time>2026-04-14T11:33:44.872Z</time></trkpt><trkpt lat="42.456965" lon="-7.6568083"><ele>558.0</ele><time>2026-04-14T11:33:45.873Z</time></trkpt><trkpt lat="42.4569333" lon="-7.6569267"><ele>558.0</ele><time>2026-04-14T11:33:46.873Z</time></trkpt><trkpt lat="42.456875" lon="-7.6570333"><ele>558.0</ele><time>2026-04-14T11:33:47.872Z</time></trkpt><trkpt lat="42.45679" lon="-7.6571467"><ele>558.0</ele><time>2026-04-14T11:33:48.873Z</time></trkpt><trkpt lat="42.4567167" lon="-7.6572733"><ele>559.0</ele><time>2026-04-14T11:33:49.873Z</time></trkpt><trkpt lat="42.4566783" lon="-7.6574083"><ele>560.0</ele><time>2026-04-14T11:33:50.873Z</time></trkpt><trkpt lat="42.4566883" lon="-7.657535"><ele>561.0</ele><time>2026-04-14T11:33:51.872Z</time></trkpt><trkpt lat="42.4567267" lon="-7.657635"><ele>562.0</ele><time>2026-04-14T11:33:52.873Z</time></trkpt><trkpt lat="42.4567983" lon="-7.65771"><ele>563.0</ele><time>2026-04-14T11:33:53.873Z</time></trkpt><trkpt lat="42.4568983" lon="-7.65776"><ele>562.5</ele><time>2026-04-14T11:33:54.872Z</time></trkpt><trkpt lat="42.457025" lon="-7.657805"><ele>562.0</ele><time>2026-04-14T11:33:55.873Z</time></trkpt><trkpt lat="42.4571517" lon="-7.6578633"><ele>561.5</ele><time>2026-04-14T11:33:56.872Z</time></trkpt><trkpt lat="42.4572683" lon="-7.657945"><ele>561.0</ele><time>2026-04-14T11:33:57.872Z</time></trkpt><trkpt lat="42.4573783" lon="-7.65803"><ele>562.6666666666666</ele><time>2026-04-14T11:33:58.872Z</time></trkpt><trkpt lat="42.45746" lon="-7.6581117"><ele>564.3333333333334</ele><time>2026-04-14T11:33:59.873Z</time></trkpt><trkpt lat="42.4575317" lon="-7.65817"><ele>566.0</ele><time>2026-04-14T11:34:00.872Z</time></trkpt><trkpt lat="42.457605" lon="-7.658215"><ele>567.6666666666667</ele><time>2026-04-14T11:34:01.872Z</time></trkpt><trkpt lat="42.457665" lon="-7.6582483"><ele>569.3333333333334</ele><time>2026-04-14T11:34:02.872Z</time></trkpt><trkpt lat="42.4577767" lon="-7.6582967"><ele>571.0</ele><time>2026-04-14T11:34:04.872Z</time></trkpt><trkpt lat="42.457835" lon="-7.6583883"><ele>571.0</ele><time>2026-04-14T11:34:06.872Z</time></trkpt><trkpt lat="42.4578317" lon="-7.6584933"><ele>571.0</ele><time>2026-04-14T11:34:07.872Z</time></trkpt><trkpt lat="42.4578067" lon="-7.6586583"><ele>571.0</ele><time>2026-04-14T11:34:08.872Z</time></trkpt><trkpt lat="42.4577517" lon="-7.6588433"><ele>571.0</ele><time>2026-04-14T11:34:09.872Z</time></trkpt><trkpt lat="42.4576767" lon="-7.6590167"><ele>571.4</ele><time>2026-04-14T11:34:10.872Z</time></trkpt><trkpt lat="42.4575917" lon="-7.6591683"><ele>571.8</ele><time>2026-04-14T11:34:11.872Z</time></trkpt><trkpt lat="42.45752" lon="-7.6592617"><ele>572.1999999999999</ele><time>2026-04-14T11:34:12.873Z</time></trkpt><trkpt lat="42.4574417" lon="-7.6593283"><ele>572.6</ele><time>2026-04-14T11:34:13.872Z</time></trkpt><trkpt lat="42.4573267" lon="-7.65935"><ele>573.0</ele><time>2026-04-14T11:34:14.872Z</time></trkpt><trkpt lat="42.4572" lon="-7.6593683"><ele>571.0</ele><time>2026-04-14T11:34:15.873Z</time></trkpt><trkpt lat="42.45709" lon="-7.6593817"><ele>569.0</ele><time>2026-04-14T11:34:16.873Z</time></trkpt><trkpt lat="42.4569867" lon="-7.65941"><ele>567.0</ele><time>2026-04-14T11:34:17.872Z</time></trkpt><trkpt lat="42.4569183" lon="-7.6594467"><ele>565.0</ele><time>2026-04-14T11:34:18.872Z</time></trkpt><trkpt lat="42.4568433" lon="-7.6595"><ele>563.0</ele><time>2026-04-14T11:34:20.873Z</time></trkpt><trkpt lat="42.4569233" lon="-7.6595633"><ele>563.0</ele><time>2026-04-14T11:34:27.872Z</time></trkpt><trkpt lat="42.45699" lon="-7.6595867"><ele>563.0</ele><time>2026-04-14T11:34:28.873Z</time></trkpt><trkpt lat="42.4570817" lon="-7.6596133"><ele>563.0</ele><time>2026-04-14T11:34:29.873Z</time></trkpt><trkpt lat="42.45721" lon="-7.6596367"><ele>563.0</ele><time>2026-04-14T11:34:30.873Z</time></trkpt><trkpt lat="42.4574" lon="-7.65963"><ele>567.0</ele><time>2026-04-14T11:34:31.873Z</time></trkpt><trkpt lat="42.4576233" lon="-7.6596183"><ele>571.0</ele><time>2026-04-14T11:34:32.872Z</time></trkpt><trkpt lat="42.4578333" lon="-7.6596067"><ele>575.0</ele><time>2026-04-14T11:34:33.873Z</time></trkpt><trkpt lat="42.4580433" lon="-7.6595983"><ele>579.6666666666666</ele><time>2026-04-14T11:34:34.872Z</time></trkpt><trkpt lat="42.4582417" lon="-7.6595867"><ele>584.3333333333334</ele><time>2026-04-14T11:34:35.872Z</time></trkpt><trkpt lat="42.4584233" lon="-7.6595783"><ele>589.0</ele><time>2026-04-14T11:34:36.872Z</time></trkpt><trkpt lat="42.4585933" lon="-7.65958"><ele>589.0</ele><time>2026-04-14T11:34:37.873Z</time></trkpt><trkpt lat="42.4587667" lon="-7.65958"><ele>589.0</ele><time>2026-04-14T11:34:38.872Z</time></trkpt><trkpt lat="42.4589567" lon="-7.6595767"><ele>589.0</ele><time>2026-04-14T11:34:39.873Z</time></trkpt><trkpt lat="42.45917" lon="-7.6595617"><ele>594.5</ele><time>2026-04-14T11:34:40.872Z</time></trkpt><trkpt lat="42.4593967" lon="-7.6595583"><ele>600.0</ele><time>2026-04-14T11:34:41.872Z</time></trkpt><trkpt lat="42.4596367" lon="-7.6595617"><ele>601.5</ele><time>2026-04-14T11:34:42.873Z</time></trkpt><trkpt lat="42.4598733" lon="-7.6595933"><ele>603.0</ele><time>2026-04-14T11:34:43.873Z</time></trkpt><trkpt lat="42.46012" lon="-7.659625"><ele>603.0</ele><time>2026-04-14T11:34:44.872Z</time></trkpt><trkpt lat="42.460355" lon="-7.6596533"><ele>603.0</ele><time>2026-04-14T11:34:45.873Z</time></trkpt><trkpt lat="42.4605767" lon="-7.659665"><ele>602.3333333333334</ele><time>2026-04-14T11:34:46.872Z</time></trkpt><trkpt lat="42.46077" lon="-7.6596633"><ele>601.6666666666667</ele><time>2026-04-14T11:34:47.873Z</time></trkpt><trkpt lat="42.4609317" lon="-7.659655"><ele>601.0</ele><time>2026-04-14T11:34:48.873Z</time></trkpt><trkpt lat="42.4610733" lon="-7.6596333"><ele>601.0</ele><time>2026-04-14T11:34:49.872Z</time></trkpt><trkpt lat="42.4612017" lon="-7.6595783"><ele>601.0</ele><time>2026-04-14T11:34:50.872Z</time></trkpt><trkpt lat="42.4613383" lon="-7.65949"><ele>601.0</ele><time>2026-04-14T11:34:51.873Z</time></trkpt><trkpt lat="42.4614983" lon="-7.6594133"><ele>603.3333333333334</ele><time>2026-04-14T11:34:52.872Z</time></trkpt><trkpt lat="42.4616717" lon="-7.65937"><ele>605.6666666666666</ele><time>2026-04-14T11:34:53.872Z</time></trkpt><trkpt lat="42.4618467" lon="-7.6593483"><ele>608.0</ele><time>2026-04-14T11:34:54.872Z</time></trkpt><trkpt lat="42.46203" lon="-7.65933"><ele>610.0</ele><time>2026-04-14T11:34:55.872Z</time></trkpt><trkpt lat="42.4622067" lon="-7.6593167"><ele>612.0</ele><time>2026-04-14T11:34:56.873Z</time></trkpt><trkpt lat="42.4623467" lon="-7.6593217"><ele>614.0</ele><time>2026-04-14T11:34:57.872Z</time></trkpt><trkpt lat="42.462445" lon="-7.6593633"><ele>616.0</ele><time>2026-04-14T11:34:58.872Z</time></trkpt><trkpt lat="42.4625217" lon="-7.6594433"><ele>614.8</ele><time>2026-04-14T11:34:59.872Z</time></trkpt><trkpt lat="42.4625617" lon="-7.659565"><ele>613.6</ele><time>2026-04-14T11:35:00.872Z</time></trkpt><trkpt lat="42.46261" lon="-7.6596883"><ele>612.4</ele><time>2026-04-14T11:35:01.873Z</time></trkpt><trkpt lat="42.4626817" lon="-7.6598033"><ele>611.2</ele><time>2026-04-14T11:35:02.873Z</time></trkpt><trkpt lat="42.4627667" lon="-7.6599"><ele>610.0</ele><time>2026-04-14T11:35:03.872Z</time></trkpt><trkpt lat="42.4628283" lon="-7.659965"><ele>610.0</ele><time>2026-04-14T11:35:04.872Z</time></trkpt><trkpt lat="42.4628967" lon="-7.65996"><ele>610.0</ele><time>2026-04-14T11:35:07.873Z</time></trkpt><trkpt lat="42.4628783" lon="-7.659875"><ele>610.0</ele><time>2026-04-14T11:35:11.872Z</time></trkpt><trkpt lat="42.4628533" lon="-7.65974"><ele>610.0</ele><time>2026-04-14T11:35:13.872Z</time></trkpt><trkpt lat="42.4628583" lon="-7.6596467"><ele>610.0</ele><time>2026-04-14T11:35:14.873Z</time></trkpt><trkpt lat="42.4628617" lon="-7.6595133"><ele>610.0</ele><time>2026-04-14T11:35:15.872Z</time></trkpt><trkpt lat="42.4628617" lon="-7.6593383"><ele>612.0</ele><time>2026-04-14T11:35:16.872Z</time></trkpt><trkpt lat="42.4628617" lon="-7.6591083"><ele>614.0</ele><time>2026-04-14T11:35:17.873Z</time></trkpt><trkpt lat="42.4628533" lon="-7.65886"><ele>616.0</ele><time>2026-04-14T11:35:18.872Z</time></trkpt><trkpt lat="42.4628517" lon="-7.6586233"><ele>618.6666666666667</ele><time>2026-04-14T11:35:19.872Z</time></trkpt><trkpt lat="42.462855" lon="-7.6584033"><ele>621.3333333333334</ele><time>2026-04-14T11:35:20.872Z</time></trkpt><trkpt lat="42.4628567" lon="-7.6581767"><ele>624.0</ele><time>2026-04-14T11:35:21.873Z</time></trkpt><trkpt lat="42.462855" lon="-7.6579433"><ele>628.6666666666666</ele><time>2026-04-14T11:35:22.872Z</time></trkpt><trkpt lat="42.462855" lon="-7.6577017"><ele>633.3333333333333</ele><time>2026-04-14T11:35:23.872Z</time></trkpt><trkpt lat="42.4628467" lon="-7.6574617"><ele>638.0</ele><time>2026-04-14T11:35:24.873Z</time></trkpt><trkpt lat="42.4628467" lon="-7.6572217"><ele>638.0</ele><time>2026-04-14T11:35:25.873Z</time></trkpt><trkpt lat="42.4628483" lon="-7.6569767"><ele>638.0</ele><time>2026-04-14T11:35:26.872Z</time></trkpt><trkpt lat="42.462845" lon="-7.656755"><ele>638.0</ele><time>2026-04-14T11:35:27.872Z</time></trkpt><trkpt lat="42.46285" lon="-7.6565633"><ele>640.75</ele><time>2026-04-14T11:35:28.873Z</time></trkpt><trkpt lat="42.4628533" lon="-7.6564133"><ele>643.5</ele><time>2026-04-14T11:35:29.873Z</time></trkpt><trkpt lat="42.462855" lon="-7.6562767"><ele>646.25</ele><time>2026-04-14T11:35:30.872Z</time></trkpt><trkpt lat="42.4628717" lon="-7.6561133"><ele>649.0</ele><time>2026-04-14T11:35:31.872Z</time></trkpt><trkpt lat="42.462905" lon="-7.6559367"><ele>649.3333333333334</ele><time>2026-04-14T11:35:32.872Z</time></trkpt><trkpt lat="42.462955" lon="-7.65572"><ele>649.6666666666666</ele><time>2026-04-14T11:35:33.872Z</time></trkpt><trkpt lat="42.4630067" lon="-7.6554717"><ele>650.0</ele><time>2026-04-14T11:35:34.873Z</time></trkpt><trkpt lat="42.463055" lon="-7.65521"><ele>646.0</ele><time>2026-04-14T11:35:35.873Z</time></trkpt><trkpt lat="42.4631067" lon="-7.6549583"><ele>642.0</ele><time>2026-04-14T11:35:36.873Z</time></trkpt><trkpt lat="42.4631633" lon="-7.65471"><ele>638.0</ele><time>2026-04-14T11:35:37.873Z</time></trkpt><trkpt lat="42.463215" lon="-7.6544667"><ele>635.3333333333333</ele><time>2026-04-14T11:35:38.872Z</time></trkpt><trkpt lat="42.4632717" lon="-7.6542017"><ele>632.6666666666666</ele><time>2026-04-14T11:35:39.872Z</time></trkpt><trkpt lat="42.4633467" lon="-7.653925"><ele>630.0</ele><time>2026-04-14T11:35:40.873Z</time></trkpt><trkpt lat="42.4634183" lon="-7.653635"><ele>628.0</ele><time>2026-04-14T11:35:41.872Z</time></trkpt><trkpt lat="42.4634833" lon="-7.65336"><ele>626.0</ele><time>2026-04-14T11:35:42.873Z</time></trkpt><trkpt lat="42.4635517" lon="-7.6531033"><ele>624.0</ele><time>2026-04-14T11:35:43.872Z</time></trkpt><trkpt lat="42.4636083" lon="-7.6528683"><ele>622.0</ele><time>2026-04-14T11:35:44.873Z</time></trkpt><trkpt lat="42.4636617" lon="-7.65265"><ele>620.0</ele><time>2026-04-14T11:35:45.872Z</time></trkpt><trkpt lat="42.4637083" lon="-7.65244"><ele>618.0</ele><time>2026-04-14T11:35:46.872Z</time></trkpt><trkpt lat="42.463745" lon="-7.65226"><ele>618.0</ele><time>2026-04-14T11:35:47.873Z</time></trkpt><trkpt lat="42.463775" lon="-7.65214"><ele>618.0</ele><time>2026-04-14T11:35:48.873Z</time></trkpt><trkpt lat="42.4638367" lon="-7.652025"><ele>618.0</ele><time>2026-04-14T11:35:50.873Z</time></trkpt><trkpt lat="42.4639017" lon="-7.652035"><ele>618.0</ele><time>2026-04-14T11:35:52.873Z</time></trkpt><trkpt lat="42.46393" lon="-7.652245"><ele>618.0</ele><time>2026-04-14T11:35:54.873Z</time></trkpt><trkpt lat="42.4639267" lon="-7.6524133"><ele>617.0</ele><time>2026-04-14T11:35:55.873Z</time></trkpt><trkpt lat="42.4639233" lon="-7.6526217"><ele>616.0</ele><time>2026-04-14T11:35:56.872Z</time></trkpt><trkpt lat="42.46393" lon="-7.6528267"><ele>615.0</ele><time>2026-04-14T11:35:57.872Z</time></trkpt><trkpt lat="42.4639367" lon="-7.65305"><ele>615.0</ele><time>2026-04-14T11:35:58.873Z</time></trkpt><trkpt lat="42.4639467" lon="-7.653245"><ele>615.0</ele><time>2026-04-14T11:35:59.872Z</time></trkpt><trkpt lat="42.4639617" lon="-7.6533917"><ele>615.0</ele><time>2026-04-14T11:36:00.872Z</time></trkpt><trkpt lat="42.4640067" lon="-7.653465"><ele>615.0</ele><time>2026-04-14T11:36:01.872Z</time></trkpt><trkpt lat="42.4641367" lon="-7.6534267"><ele>615.0</ele><time>2026-04-14T11:36:03.872Z</time></trkpt><trkpt lat="42.4642217" lon="-7.65335"><ele>615.0</ele><time>2026-04-14T11:36:04.872Z</time></trkpt><trkpt lat="42.464325" lon="-7.653225"><ele>615.0</ele><time>2026-04-14T11:36:05.873Z</time></trkpt><trkpt lat="42.464455" lon="-7.6530467"><ele>615.0</ele><time>2026-04-14T11:36:06.872Z</time></trkpt><trkpt lat="42.464605" lon="-7.6528367"><ele>612.0</ele><time>2026-04-14T11:36:07.872Z</time></trkpt><trkpt lat="42.4647533" lon="-7.6526217"><ele>609.0</ele><time>2026-04-14T11:36:08.872Z</time></trkpt><trkpt lat="42.4648983" lon="-7.6523917"><ele>606.0</ele><time>2026-04-14T11:36:09.873Z</time></trkpt><trkpt lat="42.4650217" lon="-7.6521583"><ele>604.0</ele><time>2026-04-14T11:36:10.872Z</time></trkpt><trkpt lat="42.4651117" lon="-7.6519317"><ele>602.0</ele><time>2026-04-14T11:36:11.872Z</time></trkpt><trkpt lat="42.465175" lon="-7.6517383"><ele>600.0</ele><time>2026-04-14T11:36:12.873Z</time></trkpt><trkpt lat="42.4652267" lon="-7.6515917"><ele>600.0</ele><time>2026-04-14T11:36:13.873Z</time></trkpt><trkpt lat="42.4652767" lon="-7.6515"><ele>600.0</ele><time>2026-04-14T11:36:14.872Z</time></trkpt><trkpt lat="42.4653467" lon="-7.65143"><ele>600.0</ele><time>2026-04-14T11:36:16.872Z</time></trkpt><trkpt lat="42.4653683" lon="-7.6515617"><ele>600.0</ele><time>2026-04-14T11:36:19.872Z</time></trkpt><trkpt lat="42.4653667" lon="-7.6516733"><ele>600.0</ele><time>2026-04-14T11:36:20.872Z</time></trkpt><trkpt lat="42.46537" lon="-7.6518217"><ele>601.5</ele><time>2026-04-14T11:36:21.872Z</time></trkpt><trkpt lat="42.465385" lon="-7.6519983"><ele>603.0</ele><time>2026-04-14T11:36:22.873Z</time></trkpt><trkpt lat="42.4654017" lon="-7.652195"><ele>604.5</ele><time>2026-04-14T11:36:23.872Z</time></trkpt><trkpt lat="42.4654233" lon="-7.6524017"><ele>606.0</ele><time>2026-04-14T11:36:24.872Z</time></trkpt><trkpt lat="42.4654433" lon="-7.6526133"><ele>609.3333333333334</ele><time>2026-04-14T11:36:25.872Z</time></trkpt><trkpt lat="42.4654533" lon="-7.6528367"><ele>612.6666666666667</ele><time>2026-04-14T11:36:26.872Z</time></trkpt><trkpt lat="42.4654733" lon="-7.6530583"><ele>616.0</ele><time>2026-04-14T11:36:27.873Z</time></trkpt><trkpt lat="42.4654967" lon="-7.6533083"><ele>616.0</ele><time>2026-04-14T11:36:28.872Z</time></trkpt><trkpt lat="42.46552" lon="-7.6535617"><ele>616.0</ele><time>2026-04-14T11:36:29.872Z</time></trkpt><trkpt lat="42.4655567" lon="-7.6537817"><ele>616.0</ele><time>2026-04-14T11:36:30.872Z</time></trkpt><trkpt lat="42.4655933" lon="-7.65397"><ele>617.25</ele><time>2026-04-14T11:36:31.872Z</time></trkpt><trkpt lat="42.4656283" lon="-7.65415"><ele>618.5</ele><time>2026-04-14T11:36:32.873Z</time></trkpt><trkpt lat="42.46566" lon="-7.65432"><ele>619.75</ele><time>2026-04-14T11:36:33.872Z</time></trkpt><trkpt lat="42.4657" lon="-7.6544933"><ele>621.0</ele><time>2026-04-14T11:36:34.873Z</time></trkpt><trkpt lat="42.465755" lon="-7.6546817"><ele>622.0</ele><time>2026-04-14T11:36:35.872Z</time></trkpt><trkpt lat="42.4658283" lon="-7.6549017"><ele>623.0</ele><time>2026-04-14T11:36:36.872Z</time></trkpt><trkpt lat="42.4659183" lon="-7.6551333"><ele>624.0</ele><time>2026-04-14T11:36:37.873Z</time></trkpt><trkpt lat="42.4660067" lon="-7.655355"><ele>624.6666666666666</ele><time>2026-04-14T11:36:38.872Z</time></trkpt><trkpt lat="42.466105" lon="-7.6555483"><ele>625.3333333333333</ele><time>2026-04-14T11:36:39.873Z</time></trkpt><trkpt lat="42.46619" lon="-7.65571"><ele>626.0</ele><time>2026-04-14T11:36:40.873Z</time></trkpt><trkpt lat="42.4662733" lon="-7.6558633"><ele>624.75</ele><time>2026-04-14T11:36:41.873Z</time></trkpt><trkpt lat="42.466355" lon="-7.6560283"><ele>623.5</ele><time>2026-04-14T11:36:42.873Z</time></trkpt><trkpt lat="42.4664267" lon="-7.6562033"><ele>622.25</ele><time>2026-04-14T11:36:43.872Z</time></trkpt><trkpt lat="42.4664983" lon="-7.65639"><ele>621.0</ele><time>2026-04-14T11:36:44.872Z</time></trkpt><trkpt lat="42.4665683" lon="-7.6565967"><ele>620.0</ele><time>2026-04-14T11:36:45.872Z</time></trkpt><trkpt lat="42.46662" lon="-7.6567817"><ele>619.0</ele><time>2026-04-14T11:36:46.872Z</time></trkpt><trkpt lat="42.4666633" lon="-7.6569317"><ele>618.0</ele><time>2026-04-14T11:36:47.872Z</time></trkpt><trkpt lat="42.466695" lon="-7.6570917"><ele>617.0</ele><time>2026-04-14T11:36:48.873Z</time></trkpt><trkpt lat="42.466725" lon="-7.6572633"><ele>616.5</ele><time>2026-04-14T11:36:49.873Z</time></trkpt><trkpt lat="42.4667467" lon="-7.65745"><ele>616.0</ele><time>2026-04-14T11:36:50.873Z</time></trkpt><trkpt lat="42.4667733" lon="-7.6576117"><ele>615.5</ele><time>2026-04-14T11:36:51.873Z</time></trkpt><trkpt lat="42.4668017" lon="-7.6577167"><ele>615.0</ele><time>2026-04-14T11:36:52.872Z</time></trkpt><trkpt lat="42.4668867" lon="-7.6578017"><ele>614.3333333333334</ele><time>2026-04-14T11:36:54.872Z</time></trkpt><trkpt lat="42.46695" lon="-7.6578067"><ele>613.6666666666666</ele><time>2026-04-14T11:36:55.872Z</time></trkpt><trkpt lat="42.4670267" lon="-7.6577867"><ele>613.0</ele><time>2026-04-14T11:36:56.873Z</time></trkpt><trkpt lat="42.467115" lon="-7.6577617"><ele>612.3333333333333</ele><time>2026-04-14T11:36:57.873Z</time></trkpt><trkpt lat="42.467205" lon="-7.6577233"><ele>611.6666666666666</ele><time>2026-04-14T11:36:58.873Z</time></trkpt><trkpt lat="42.467285" lon="-7.6576867"><ele>611.0</ele><time>2026-04-14T11:36:59.873Z</time></trkpt><trkpt lat="42.4673633" lon="-7.6576667"><ele>611.0000000000001</ele><time>2026-04-14T11:37:00.873Z</time></trkpt><trkpt lat="42.4674333" lon="-7.6576433"><ele>611.0</ele><time>2026-04-14T11:37:01.873Z</time></trkpt><trkpt lat="42.4675033" lon="-7.6576167"><ele>611.0</ele><time>2026-04-14T11:37:02.873Z</time></trkpt><trkpt lat="42.4675733" lon="-7.6575883"><ele>611.0</ele><time>2026-04-14T11:37:03.872Z</time></trkpt><trkpt lat="42.467645" lon="-7.6575667"><ele>611.0</ele><time>2026-04-14T11:37:04.873Z</time></trkpt><trkpt lat="42.4677133" lon="-7.6575433"><ele>611.0000000000001</ele><time>2026-04-14T11:37:05.872Z</time></trkpt><trkpt lat="42.4677817" lon="-7.6575217"><ele>611.0</ele><time>2026-04-14T11:37:06.873Z</time></trkpt><trkpt lat="42.46785" lon="-7.65751"><ele>611.0</ele><time>2026-04-14T11:37:07.872Z</time></trkpt><trkpt lat="42.46792" lon="-7.6574983"><ele>611.0</ele><time>2026-04-14T11:37:08.872Z</time></trkpt><trkpt lat="42.467985" lon="-7.65749"><ele>611.0</ele><time>2026-04-14T11:37:09.872Z</time></trkpt><trkpt lat="42.46809" lon="-7.6574783"><ele>611.0</ele><time>2026-04-14T11:37:11.873Z</time></trkpt><trkpt lat="42.468165" lon="-7.65743"><ele>611.0</ele><time>2026-04-14T11:37:13.873Z</time></trkpt><trkpt lat="42.46822" lon="-7.6573217"><ele>611.0</ele><time>2026-04-14T11:37:15.872Z</time></trkpt><trkpt lat="42.468315" lon="-7.65726"><ele>610.5</ele><time>2026-04-14T11:37:17.872Z</time></trkpt><trkpt lat="42.468385" lon="-7.6572667"><ele>610.0</ele><time>2026-04-14T11:37:18.872Z</time></trkpt><trkpt lat="42.468455" lon="-7.6572867"><ele>609.5</ele><time>2026-04-14T11:37:19.873Z</time></trkpt><trkpt lat="42.4685733" lon="-7.6573283"><ele>609.0</ele><time>2026-04-14T11:37:21.872Z</time></trkpt><trkpt lat="42.468645" lon="-7.6573667"><ele>608.5</ele><time>2026-04-14T11:37:22.872Z</time></trkpt><trkpt lat="42.46874" lon="-7.6574217"><ele>608.0</ele><time>2026-04-14T11:37:23.872Z</time></trkpt><trkpt lat="42.46884" lon="-7.65749"><ele>609.5</ele><time>2026-04-14T11:37:24.872Z</time></trkpt><trkpt lat="42.468955" lon="-7.657585"><ele>611.0</ele><time>2026-04-14T11:37:25.873Z</time></trkpt><trkpt lat="42.4690717" lon="-7.6576917"><ele>612.5</ele><time>2026-04-14T11:37:26.873Z</time></trkpt><trkpt lat="42.4691783" lon="-7.6578117"><ele>614.0</ele><time>2026-04-14T11:37:27.872Z</time></trkpt><trkpt lat="42.46928" lon="-7.6579433"><ele>614.0</ele><time>2026-04-14T11:37:28.873Z</time></trkpt><trkpt lat="42.4693633" lon="-7.6580917"><ele>614.0</ele><time>2026-04-14T11:37:29.873Z</time></trkpt><trkpt lat="42.46943" lon="-7.6582317"><ele>614.0</ele><time>2026-04-14T11:37:30.872Z</time></trkpt><trkpt lat="42.469495" lon="-7.6583833"><ele>614.0</ele><time>2026-04-14T11:37:31.872Z</time></trkpt><trkpt lat="42.4695483" lon="-7.658555"><ele>615.5</ele><time>2026-04-14T11:37:32.873Z</time></trkpt><trkpt lat="42.4696" lon="-7.6587183"><ele>617.0</ele><time>2026-04-14T11:37:33.872Z</time></trkpt><trkpt lat="42.4696783" lon="-7.6588567"><ele>618.5</ele><time>2026-04-14T11:37:34.872Z</time></trkpt><trkpt lat="42.4697867" lon="-7.659005"><ele>620.0</ele><time>2026-04-14T11:37:35.873Z</time></trkpt><trkpt lat="42.4699167" lon="-7.6591667"><ele>620.75</ele><time>2026-04-14T11:37:36.873Z</time></trkpt><trkpt lat="42.4700367" lon="-7.6593367"><ele>621.5</ele><time>2026-04-14T11:37:37.872Z</time></trkpt><trkpt lat="42.470135" lon="-7.65947"><ele>622.25</ele><time>2026-04-14T11:37:38.873Z</time></trkpt><trkpt lat="42.470245" lon="-7.659565"><ele>623.0</ele><time>2026-04-14T11:37:39.873Z</time></trkpt><trkpt lat="42.470355" lon="-7.6596217"><ele>623.75</ele><time>2026-04-14T11:37:40.873Z</time></trkpt><trkpt lat="42.470475" lon="-7.6596333"><ele>624.5</ele><time>2026-04-14T11:37:41.872Z</time></trkpt><trkpt lat="42.4706217" lon="-7.6596"><ele>625.25</ele><time>2026-04-14T11:37:42.872Z</time></trkpt><trkpt lat="42.4707783" lon="-7.6595533"><ele>626.0</ele><time>2026-04-14T11:37:43.873Z</time></trkpt><trkpt lat="42.4709583" lon="-7.6595383"><ele>626.0</ele><time>2026-04-14T11:37:44.872Z</time></trkpt><trkpt lat="42.4711333" lon="-7.659555"><ele>626.0</ele><time>2026-04-14T11:37:45.873Z</time></trkpt><trkpt lat="42.4712767" lon="-7.6595783"><ele>626.0</ele><time>2026-04-14T11:37:46.873Z</time></trkpt><trkpt lat="42.4714017" lon="-7.6596033"><ele>626.0</ele><time>2026-04-14T11:37:47.873Z</time></trkpt><trkpt lat="42.4714917" lon="-7.65964"><ele>626.8</ele><time>2026-04-14T11:37:48.872Z</time></trkpt><trkpt lat="42.471555" lon="-7.659685"><ele>627.6</ele><time>2026-04-14T11:37:49.872Z</time></trkpt><trkpt lat="42.471615" lon="-7.6598267"><ele>628.4</ele><time>2026-04-14T11:37:51.873Z</time></trkpt><trkpt lat="42.47161" lon="-7.6599467"><ele>629.2</ele><time>2026-04-14T11:37:52.872Z</time></trkpt><trkpt lat="42.4715917" lon="-7.66011"><ele>630.0</ele><time>2026-04-14T11:37:53.873Z</time></trkpt><trkpt lat="42.471565" lon="-7.6603417"><ele>631.0</ele><time>2026-04-14T11:37:54.872Z</time></trkpt><trkpt lat="42.47155" lon="-7.6605783"><ele>632.0</ele><time>2026-04-14T11:37:55.872Z</time></trkpt><trkpt lat="42.4715333" lon="-7.6608283"><ele>633.0</ele><time>2026-04-14T11:37:56.872Z</time></trkpt><trkpt lat="42.4715233" lon="-7.661065"><ele>635.6666666666666</ele><time>2026-04-14T11:37:57.872Z</time></trkpt><trkpt lat="42.4715267" lon="-7.66128"><ele>638.3333333333333</ele><time>2026-04-14T11:37:58.873Z</time></trkpt><trkpt lat="42.4715317" lon="-7.661525"><ele>641.0</ele><time>2026-04-14T11:37:59.872Z</time></trkpt><trkpt lat="42.4715283" lon="-7.661775"><ele>643.6666666666666</ele><time>2026-04-14T11:38:00.872Z</time></trkpt><trkpt lat="42.4715267" lon="-7.6620367"><ele>646.3333333333334</ele><time>2026-04-14T11:38:01.872Z</time></trkpt><trkpt lat="42.4715317" lon="-7.662305"><ele>649.0</ele><time>2026-04-14T11:38:02.872Z</time></trkpt><trkpt lat="42.4715333" lon="-7.6625833"><ele>651.3333333333334</ele><time>2026-04-14T11:38:03.872Z</time></trkpt><trkpt lat="42.4715383" lon="-7.6628583"><ele>653.6666666666666</ele><time>2026-04-14T11:38:04.872Z</time></trkpt><trkpt lat="42.4715467" lon="-7.663145"><ele>656.0</ele><time>2026-04-14T11:38:05.873Z</time></trkpt><trkpt lat="42.471555" lon="-7.6634233"><ele>658.0</ele><time>2026-04-14T11:38:06.873Z</time></trkpt><trkpt lat="42.471565" lon="-7.6636783"><ele>660.0</ele><time>2026-04-14T11:38:07.873Z</time></trkpt><trkpt lat="42.4715783" lon="-7.66392"><ele>662.0</ele><time>2026-04-14T11:38:08.872Z</time></trkpt><trkpt lat="42.4715967" lon="-7.6641667"><ele>662.0</ele><time>2026-04-14T11:38:09.873Z</time></trkpt><trkpt lat="42.4716167" lon="-7.6644417"><ele>662.0</ele><time>2026-04-14T11:38:10.873Z</time></trkpt><trkpt lat="42.471635" lon="-7.6647117"><ele>662.0</ele><time>2026-04-14T11:38:11.873Z</time></trkpt><trkpt lat="42.47165" lon="-7.6649783"><ele>662.5</ele><time>2026-04-14T11:38:12.872Z</time></trkpt><trkpt lat="42.471665" lon="-7.6652133"><ele>663.0</ele><time>2026-04-14T11:38:13.873Z</time></trkpt><trkpt lat="42.4716817" lon="-7.665415"><ele>663.5</ele><time>2026-04-14T11:38:14.873Z</time></trkpt><trkpt lat="42.4716967" lon="-7.6655767"><ele>664.0</ele><time>2026-04-14T11:38:15.872Z</time></trkpt><trkpt lat="42.4717083" lon="-7.6657133"><ele>664.0</ele><time>2026-04-14T11:38:16.873Z</time></trkpt><trkpt lat="42.4717267" lon="-7.6658283"><ele>664.0</ele><time>2026-04-14T11:38:17.873Z</time></trkpt><trkpt lat="42.4717583" lon="-7.66593"><ele>664.0</ele><time>2026-04-14T11:38:18.873Z</time></trkpt><trkpt lat="42.4718083" lon="-7.6659967"><ele>664.0</ele><time>2026-04-14T11:38:19.872Z</time></trkpt><trkpt lat="42.4718767" lon="-7.6660417"><ele>664.0</ele><time>2026-04-14T11:38:20.872Z</time></trkpt><trkpt lat="42.4719583" lon="-7.666065"><ele>664.0</ele><time>2026-04-14T11:38:21.872Z</time></trkpt><trkpt lat="42.4720467" lon="-7.6660883"><ele>665.0</ele><time>2026-04-14T11:38:22.872Z</time></trkpt><trkpt lat="42.4721367" lon="-7.666115"><ele>666.0</ele><time>2026-04-14T11:38:23.873Z</time></trkpt><trkpt lat="42.4722283" lon="-7.666145"><ele>667.0</ele><time>2026-04-14T11:38:24.872Z</time></trkpt><trkpt lat="42.47233" lon="-7.6661833"><ele>668.0</ele><time>2026-04-14T11:38:25.873Z</time></trkpt><trkpt lat="42.472435" lon="-7.66622"><ele>669.0</ele><time>2026-04-14T11:38:26.873Z</time></trkpt><trkpt lat="42.47254" lon="-7.666255"><ele>669.0</ele><time>2026-04-14T11:38:27.872Z</time></trkpt><trkpt lat="42.47265" lon="-7.6662867"><ele>669.0</ele><time>2026-04-14T11:38:28.872Z</time></trkpt><trkpt lat="42.4727567" lon="-7.6663133"><ele>669.0</ele><time>2026-04-14T11:38:29.872Z</time></trkpt><trkpt lat="42.47286" lon="-7.666335"><ele>669.0</ele><time>2026-04-14T11:38:30.873Z</time></trkpt><trkpt lat="42.4729633" lon="-7.66636"><ele>669.0</ele><time>2026-04-14T11:38:31.873Z</time></trkpt><trkpt lat="42.4730667" lon="-7.66638"><ele>669.6</ele><time>2026-04-14T11:38:32.873Z</time></trkpt><trkpt lat="42.4731667" lon="-7.666395"><ele>670.2</ele><time>2026-04-14T11:38:33.873Z</time></trkpt><trkpt lat="42.4732633" lon="-7.6663983"><ele>670.8000000000001</ele><time>2026-04-14T11:38:34.873Z</time></trkpt><trkpt lat="42.473365" lon="-7.6663983"><ele>671.4000000000001</ele><time>2026-04-14T11:38:35.872Z</time></trkpt><trkpt lat="42.473465" lon="-7.6664017"><ele>672.0</ele><time>2026-04-14T11:38:36.872Z</time></trkpt><trkpt lat="42.473565" lon="-7.6664067"><ele>672.0</ele><time>2026-04-14T11:38:37.872Z</time></trkpt><trkpt lat="42.4736667" lon="-7.66642"><ele>672.0</ele><time>2026-04-14T11:38:38.873Z</time></trkpt><trkpt lat="42.4737667" lon="-7.6664433"><ele>672.0</ele><time>2026-04-14T11:38:39.872Z</time></trkpt><trkpt lat="42.47386" lon="-7.6664833"><ele>672.0</ele><time>2026-04-14T11:38:40.872Z</time></trkpt><trkpt lat="42.47395" lon="-7.6665433"><ele>672.0</ele><time>2026-04-14T11:38:41.872Z</time></trkpt><trkpt lat="42.4740367" lon="-7.6666233"><ele>672.0</ele><time>2026-04-14T11:38:42.872Z</time></trkpt><trkpt lat="42.4741267" lon="-7.66672"><ele>672.0</ele><time>2026-04-14T11:38:43.872Z</time></trkpt><trkpt lat="42.4742133" lon="-7.666825"><ele>672.0</ele><time>2026-04-14T11:38:44.872Z</time></trkpt><trkpt lat="42.4742917" lon="-7.6669367"><ele>672.0</ele><time>2026-04-14T11:38:45.872Z</time></trkpt><trkpt lat="42.4743733" lon="-7.6670367"><ele>672.2</ele><time>2026-04-14T11:38:46.872Z</time></trkpt><trkpt lat="42.4744467" lon="-7.66713"><ele>672.4000000000001</ele><time>2026-04-14T11:38:47.873Z</time></trkpt><trkpt lat="42.474525" lon="-7.6672167"><ele>672.5999999999999</ele><time>2026-04-14T11:38:48.872Z</time></trkpt><trkpt lat="42.47459" lon="-7.6673217"><ele>672.8</ele><time>2026-04-14T11:38:49.873Z</time></trkpt><trkpt lat="42.4746533" lon="-7.6674333"><ele>673.0</ele><time>2026-04-14T11:38:50.873Z</time></trkpt><trkpt lat="42.4747083" lon="-7.66755"><ele>672.2</ele><time>2026-04-14T11:38:51.873Z</time></trkpt><trkpt lat="42.4747617" lon="-7.6676767"><ele>671.4</ele><time>2026-04-14T11:38:52.873Z</time></trkpt><trkpt lat="42.4748133" lon="-7.66781"><ele>670.6</ele><time>2026-04-14T11:38:53.874Z</time></trkpt><trkpt lat="42.4748683" lon="-7.6679367"><ele>669.8000000000001</ele><time>2026-04-14T11:38:54.874Z</time></trkpt><trkpt lat="42.474925" lon="-7.6680633"><ele>669.0</ele><time>2026-04-14T11:38:55.874Z</time></trkpt><trkpt lat="42.4749817" lon="-7.6681917"><ele>669.0</ele><time>2026-04-14T11:38:56.873Z</time></trkpt><trkpt lat="42.4750417" lon="-7.668315"><ele>669.0</ele><time>2026-04-14T11:38:57.874Z</time></trkpt><trkpt lat="42.4751017" lon="-7.66843"><ele>669.0</ele><time>2026-04-14T11:38:58.874Z</time></trkpt><trkpt lat="42.4751633" lon="-7.6685483"><ele>669.0</ele><time>2026-04-14T11:38:59.873Z</time></trkpt><trkpt lat="42.47523" lon="-7.6686567"><ele>669.0</ele><time>2026-04-14T11:39:00.874Z</time></trkpt><trkpt lat="42.4752983" lon="-7.6687667"><ele>668.8000000000001</ele><time>2026-04-14T11:39:01.873Z</time></trkpt><trkpt lat="42.4753633" lon="-7.668875"><ele>668.6</ele><time>2026-04-14T11:39:02.874Z</time></trkpt><trkpt lat="42.47543" lon="-7.6689817"><ele>668.4</ele><time>2026-04-14T11:39:03.874Z</time></trkpt><trkpt lat="42.4755067" lon="-7.6690883"><ele>668.2</ele><time>2026-04-14T11:39:04.873Z</time></trkpt><trkpt lat="42.475585" lon="-7.6692017"><ele>668.0</ele><time>2026-04-14T11:39:05.874Z</time></trkpt><trkpt lat="42.4756683" lon="-7.6693033"><ele>668.0</ele><time>2026-04-14T11:39:06.874Z</time></trkpt><trkpt lat="42.4757533" lon="-7.669405"><ele>668.0</ele><time>2026-04-14T11:39:07.873Z</time></trkpt><trkpt lat="42.475835" lon="-7.6694983"><ele>668.0</ele><time>2026-04-14T11:39:08.874Z</time></trkpt><trkpt lat="42.47592" lon="-7.6695783"><ele>668.0</ele><time>2026-04-14T11:39:09.873Z</time></trkpt><trkpt lat="42.4760117" lon="-7.6696667"><ele>668.0</ele><time>2026-04-14T11:39:10.873Z</time></trkpt><trkpt lat="42.4761017" lon="-7.6697483"><ele>668.4</ele><time>2026-04-14T11:39:11.874Z</time></trkpt><trkpt lat="42.476185" lon="-7.669835"><ele>668.8</ele><time>2026-04-14T11:39:12.873Z</time></trkpt><trkpt lat="42.47628" lon="-7.6699133"><ele>669.2</ele><time>2026-04-14T11:39:13.873Z</time></trkpt><trkpt lat="42.4763783" lon="-7.669985"><ele>669.6</ele><time>2026-04-14T11:39:14.874Z</time></trkpt><trkpt lat="42.476475" lon="-7.670045"><ele>670.0</ele><time>2026-04-14T11:39:15.874Z</time></trkpt><trkpt lat="42.4765717" lon="-7.670105"><ele>670.4</ele><time>2026-04-14T11:39:16.873Z</time></trkpt><trkpt lat="42.47667" lon="-7.67015"><ele>670.8</ele><time>2026-04-14T11:39:17.873Z</time></trkpt><trkpt lat="42.47677" lon="-7.6701917"><ele>671.2</ele><time>2026-04-14T11:39:18.873Z</time></trkpt><trkpt lat="42.47687" lon="-7.6702333"><ele>671.6</ele><time>2026-04-14T11:39:19.874Z</time></trkpt><trkpt lat="42.4769717" lon="-7.6702783"><ele>672.0</ele><time>2026-04-14T11:39:20.873Z</time></trkpt><trkpt lat="42.477075" lon="-7.670325"><ele>671.8</ele><time>2026-04-14T11:39:21.873Z</time></trkpt><trkpt lat="42.47718" lon="-7.6703733"><ele>671.6</ele><time>2026-04-14T11:39:22.873Z</time></trkpt><trkpt lat="42.4772883" lon="-7.6704317"><ele>671.4</ele><time>2026-04-14T11:39:23.874Z</time></trkpt><trkpt lat="42.4773883" lon="-7.6704833"><ele>671.1999999999999</ele><time>2026-04-14T11:39:24.874Z</time></trkpt><trkpt lat="42.4774967" lon="-7.6705317"><ele>671.0</ele><time>2026-04-14T11:39:25.873Z</time></trkpt><trkpt lat="42.4776017" lon="-7.670585"><ele>671.0</ele><time>2026-04-14T11:39:26.874Z</time></trkpt><trkpt lat="42.477705" lon="-7.670625"><ele>671.0</ele><time>2026-04-14T11:39:27.874Z</time></trkpt><trkpt lat="42.4778117" lon="-7.6706533"><ele>671.0</ele><time>2026-04-14T11:39:28.873Z</time></trkpt><trkpt lat="42.47792" lon="-7.6706717"><ele>671.0</ele><time>2026-04-14T11:39:29.874Z</time></trkpt><trkpt lat="42.4780367" lon="-7.670675"><ele>671.0</ele><time>2026-04-14T11:39:30.873Z</time></trkpt><trkpt lat="42.4781467" lon="-7.670665"><ele>671.4</ele><time>2026-04-14T11:39:31.874Z</time></trkpt><trkpt lat="42.4782617" lon="-7.6706567"><ele>671.8</ele><time>2026-04-14T11:39:32.874Z</time></trkpt><trkpt lat="42.47837" lon="-7.6706483"><ele>672.1999999999999</ele><time>2026-04-14T11:39:33.873Z</time></trkpt><trkpt lat="42.4784783" lon="-7.6706567"><ele>672.5999999999999</ele><time>2026-04-14T11:39:34.873Z</time></trkpt><trkpt lat="42.4785917" lon="-7.6706717"><ele>673.0</ele><time>2026-04-14T11:39:35.873Z</time></trkpt><trkpt lat="42.4787067" lon="-7.6706933"><ele>673.0</ele><time>2026-04-14T11:39:36.874Z</time></trkpt><trkpt lat="42.4788133" lon="-7.6707167"><ele>673.0</ele><time>2026-04-14T11:39:37.873Z</time></trkpt><trkpt lat="42.4789217" lon="-7.6707417"><ele>673.0</ele><time>2026-04-14T11:39:38.873Z</time></trkpt><trkpt lat="42.47903" lon="-7.67077"><ele>673.0</ele><time>2026-04-14T11:39:39.873Z</time></trkpt><trkpt lat="42.47914" lon="-7.6707833"><ele>673.0</ele><time>2026-04-14T11:39:40.873Z</time></trkpt><trkpt lat="42.479265" lon="-7.6707983"><ele>673.0</ele><time>2026-04-14T11:39:41.873Z</time></trkpt><trkpt lat="42.479395" lon="-7.6708067"><ele>673.0</ele><time>2026-04-14T11:39:42.873Z</time></trkpt><trkpt lat="42.4795167" lon="-7.6707967"><ele>673.0</ele><time>2026-04-14T11:39:43.873Z</time></trkpt><trkpt lat="42.4796283" lon="-7.6707733"><ele>673.0</ele><time>2026-04-14T11:39:44.874Z</time></trkpt><trkpt lat="42.4797117" lon="-7.6707333"><ele>673.25</ele><time>2026-04-14T11:39:45.873Z</time></trkpt><trkpt lat="42.4797733" lon="-7.6706633"><ele>673.5</ele><time>2026-04-14T11:39:46.874Z</time></trkpt><trkpt lat="42.479815" lon="-7.6705533"><ele>673.75</ele><time>2026-04-14T11:39:47.874Z</time></trkpt><trkpt lat="42.4798483" lon="-7.6703967"><ele>674.0</ele><time>2026-04-14T11:39:48.874Z</time></trkpt><trkpt lat="42.47988" lon="-7.6701717"><ele>674.0</ele><time>2026-04-14T11:39:49.874Z</time></trkpt><trkpt lat="42.4799283" lon="-7.66995"><ele>674.0</ele><time>2026-04-14T11:39:50.873Z</time></trkpt><trkpt lat="42.4799867" lon="-7.6697467"><ele>674.0</ele><time>2026-04-14T11:39:51.873Z</time></trkpt><trkpt lat="42.48005" lon="-7.669535"><ele>672.0</ele><time>2026-04-14T11:39:52.874Z</time></trkpt><trkpt lat="42.48011" lon="-7.6693317"><ele>670.0</ele><time>2026-04-14T11:39:53.874Z</time></trkpt><trkpt lat="42.4801767" lon="-7.669115"><ele>668.0</ele><time>2026-04-14T11:39:54.874Z</time></trkpt><trkpt lat="42.48024" lon="-7.668915"><ele>668.0</ele><time>2026-04-14T11:39:55.873Z</time></trkpt><trkpt lat="42.4803117" lon="-7.6687267"><ele>668.0</ele><time>2026-04-14T11:39:56.873Z</time></trkpt><trkpt lat="42.4803833" lon="-7.66856"><ele>668.0</ele><time>2026-04-14T11:39:57.873Z</time></trkpt><trkpt lat="42.4804417" lon="-7.6683867"><ele>668.0</ele><time>2026-04-14T11:39:58.874Z</time></trkpt><trkpt lat="42.4804983" lon="-7.6682133"><ele>665.0</ele><time>2026-04-14T11:39:59.873Z</time></trkpt><trkpt lat="42.4805633" lon="-7.668045"><ele>662.0</ele><time>2026-04-14T11:40:00.874Z</time></trkpt><trkpt lat="42.4806233" lon="-7.6678683"><ele>659.0</ele><time>2026-04-14T11:40:01.874Z</time></trkpt><trkpt lat="42.48069" lon="-7.667675"><ele>656.0</ele><time>2026-04-14T11:40:02.874Z</time></trkpt><trkpt lat="42.4807467" lon="-7.6674733"><ele>655.0</ele><time>2026-04-14T11:40:03.874Z</time></trkpt><trkpt lat="42.4808133" lon="-7.6672783"><ele>654.0</ele><time>2026-04-14T11:40:04.873Z</time></trkpt><trkpt lat="42.4808717" lon="-7.66711"><ele>653.0</ele><time>2026-04-14T11:40:05.873Z</time></trkpt><trkpt lat="42.4809333" lon="-7.6669433"><ele>652.0</ele><time>2026-04-14T11:40:06.874Z</time></trkpt><trkpt lat="42.4810017" lon="-7.6667667"><ele>650.75</ele><time>2026-04-14T11:40:07.873Z</time></trkpt><trkpt lat="42.4810767" lon="-7.6665783"><ele>649.5</ele><time>2026-04-14T11:40:08.873Z</time></trkpt><trkpt lat="42.481145" lon="-7.6663967"><ele>648.25</ele><time>2026-04-14T11:40:09.874Z</time></trkpt><trkpt lat="42.4812133" lon="-7.66623"><ele>647.0</ele><time>2026-04-14T11:40:10.874Z</time></trkpt><trkpt lat="42.481275" lon="-7.6660717"><ele>645.2</ele><time>2026-04-14T11:40:11.873Z</time></trkpt><trkpt lat="42.4813283" lon="-7.6659317"><ele>643.4000000000001</ele><time>2026-04-14T11:40:12.874Z</time></trkpt><trkpt lat="42.481385" lon="-7.6657917"><ele>641.5999999999999</ele><time>2026-04-14T11:40:13.873Z</time></trkpt><trkpt lat="42.481425" lon="-7.6656667"><ele>639.8</ele><time>2026-04-14T11:40:14.874Z</time></trkpt><trkpt lat="42.4814583" lon="-7.66554"><ele>638.0</ele><time>2026-04-14T11:40:15.873Z</time></trkpt><trkpt lat="42.4814967" lon="-7.66542"><ele>638.0</ele><time>2026-04-14T11:40:16.874Z</time></trkpt><trkpt lat="42.4815367" lon="-7.6653017"><ele>638.0</ele><time>2026-04-14T11:40:17.874Z</time></trkpt><trkpt lat="42.48158" lon="-7.6651867"><ele>638.0</ele><time>2026-04-14T11:40:18.874Z</time></trkpt><trkpt lat="42.4816183" lon="-7.6650833"><ele>638.0</ele><time>2026-04-14T11:40:19.873Z</time></trkpt><trkpt lat="42.4816533" lon="-7.6649983"><ele>638.0</ele><time>2026-04-14T11:40:20.874Z</time></trkpt><trkpt lat="42.4817433" lon="-7.664935"><ele>637.4</ele><time>2026-04-14T11:40:22.873Z</time></trkpt><trkpt lat="42.4818033" lon="-7.6649667"><ele>636.8</ele><time>2026-04-14T11:40:23.873Z</time></trkpt><trkpt lat="42.4818667" lon="-7.6650217"><ele>636.2</ele><time>2026-04-14T11:40:24.874Z</time></trkpt><trkpt lat="42.4819417" lon="-7.6650933"><ele>635.6</ele><time>2026-04-14T11:40:25.874Z</time></trkpt><trkpt lat="42.4820467" lon="-7.665165"><ele>635.0</ele><time>2026-04-14T11:40:26.874Z</time></trkpt><trkpt lat="42.4821683" lon="-7.6652717"><ele>636.0</ele><time>2026-04-14T11:40:27.873Z</time></trkpt><trkpt lat="42.4823033" lon="-7.66538"><ele>637.0</ele><time>2026-04-14T11:40:28.874Z</time></trkpt><trkpt lat="42.4824517" lon="-7.66549"><ele>638.0</ele><time>2026-04-14T11:40:29.874Z</time></trkpt><trkpt lat="42.4826" lon="-7.6656033"><ele>638.0</ele><time>2026-04-14T11:40:30.874Z</time></trkpt><trkpt lat="42.4827283" lon="-7.6656967"><ele>638.0</ele><time>2026-04-14T11:40:31.873Z</time></trkpt><trkpt lat="42.4828333" lon="-7.66577"><ele>638.0</ele><time>2026-04-14T11:40:32.873Z</time></trkpt><trkpt lat="42.482915" lon="-7.66582"><ele>638.0</ele><time>2026-04-14T11:40:33.873Z</time></trkpt><trkpt lat="42.4829817" lon="-7.6658483"><ele>638.0</ele><time>2026-04-14T11:40:34.873Z</time></trkpt><trkpt lat="42.4830833" lon="-7.6658067"><ele>636.75</ele><time>2026-04-14T11:40:36.874Z</time></trkpt><trkpt lat="42.4831183" lon="-7.6657233"><ele>635.5</ele><time>2026-04-14T11:40:37.874Z</time></trkpt><trkpt lat="42.48315" lon="-7.66559"><ele>634.25</ele><time>2026-04-14T11:40:38.874Z</time></trkpt><trkpt lat="42.4831883" lon="-7.6654117"><ele>633.0</ele><time>2026-04-14T11:40:39.874Z</time></trkpt><trkpt lat="42.4832483" lon="-7.6651167"><ele>633.0</ele><time>2026-04-14T11:40:40.874Z</time></trkpt><trkpt lat="42.4833217" lon="-7.6647633"><ele>633.0</ele><time>2026-04-14T11:40:41.874Z</time></trkpt><trkpt lat="42.48338" lon="-7.6644983"><ele>632.6666666666666</ele><time>2026-04-14T11:40:42.874Z</time></trkpt><trkpt lat="42.4834217" lon="-7.66423"><ele>632.3333333333333</ele><time>2026-04-14T11:40:43.874Z</time></trkpt><trkpt lat="42.4834433" lon="-7.6639433"><ele>632.0</ele><time>2026-04-14T11:40:44.873Z</time></trkpt><trkpt lat="42.4834467" lon="-7.6636567"><ele>629.6666666666666</ele><time>2026-04-14T11:40:45.873Z</time></trkpt><trkpt lat="42.4834333" lon="-7.66337"><ele>627.3333333333334</ele><time>2026-04-14T11:40:46.873Z</time></trkpt><trkpt lat="42.4834083" lon="-7.6630783"><ele>625.0</ele><time>2026-04-14T11:40:47.873Z</time></trkpt><trkpt lat="42.4833917" lon="-7.6627917"><ele>623.0</ele><time>2026-04-14T11:40:48.873Z</time></trkpt><trkpt lat="42.483375" lon="-7.66252"><ele>621.0</ele><time>2026-04-14T11:40:49.874Z</time></trkpt><trkpt lat="42.48337" lon="-7.6622633"><ele>619.0</ele><time>2026-04-14T11:40:50.873Z</time></trkpt><trkpt lat="42.4833683" lon="-7.66204"><ele>617.0</ele><time>2026-04-14T11:40:51.874Z</time></trkpt><trkpt lat="42.483365" lon="-7.661825"><ele>615.0</ele><time>2026-04-14T11:40:52.874Z</time></trkpt><trkpt lat="42.4833883" lon="-7.6616217"><ele>613.0</ele><time>2026-04-14T11:40:53.873Z</time></trkpt><trkpt lat="42.4834183" lon="-7.6614267"><ele>613.0</ele><time>2026-04-14T11:40:54.874Z</time></trkpt><trkpt lat="42.48347" lon="-7.661205"><ele>613.0</ele><time>2026-04-14T11:40:55.873Z</time></trkpt><trkpt lat="42.483545" lon="-7.660975"><ele>613.0</ele><time>2026-04-14T11:40:56.873Z</time></trkpt><trkpt lat="42.4836333" lon="-7.6607183"><ele>610.6666666666667</ele><time>2026-04-14T11:40:57.873Z</time></trkpt><trkpt lat="42.4837133" lon="-7.6604617"><ele>608.3333333333334</ele><time>2026-04-14T11:40:58.874Z</time></trkpt><trkpt lat="42.4837917" lon="-7.660215"><ele>606.0</ele><time>2026-04-14T11:40:59.874Z</time></trkpt><trkpt lat="42.4838667" lon="-7.65998"><ele>603.3333333333334</ele><time>2026-04-14T11:41:00.873Z</time></trkpt><trkpt lat="42.483935" lon="-7.6597483"><ele>600.6666666666667</ele><time>2026-04-14T11:41:01.873Z</time></trkpt><trkpt lat="42.4839933" lon="-7.65953"><ele>598.0</ele><time>2026-04-14T11:41:02.873Z</time></trkpt><trkpt lat="42.4840483" lon="-7.65929"><ele>597.0</ele><time>2026-04-14T11:41:03.873Z</time></trkpt><trkpt lat="42.48409" lon="-7.65903"><ele>596.0</ele><time>2026-04-14T11:41:04.873Z</time></trkpt><trkpt lat="42.48414" lon="-7.6587583"><ele>595.0</ele><time>2026-04-14T11:41:05.874Z</time></trkpt><trkpt lat="42.4841817" lon="-7.6584667"><ele>595.0</ele><time>2026-04-14T11:41:06.874Z</time></trkpt><trkpt lat="42.48422" lon="-7.658165"><ele>595.0</ele><time>2026-04-14T11:41:07.873Z</time></trkpt><trkpt lat="42.48426" lon="-7.6578617"><ele>595.0</ele><time>2026-04-14T11:41:08.874Z</time></trkpt><trkpt lat="42.4843083" lon="-7.65758"><ele>595.0</ele><time>2026-04-14T11:41:09.874Z</time></trkpt><trkpt lat="42.484375" lon="-7.6573267"><ele>595.0</ele><time>2026-04-14T11:41:10.873Z</time></trkpt><trkpt lat="42.4844533" lon="-7.6570767"><ele>594.0</ele><time>2026-04-14T11:41:11.873Z</time></trkpt><trkpt lat="42.4845467" lon="-7.6568433"><ele>593.0</ele><time>2026-04-14T11:41:12.873Z</time></trkpt><trkpt lat="42.4846467" lon="-7.6566033"><ele>592.0</ele><time>2026-04-14T11:41:13.873Z</time></trkpt><trkpt lat="42.4847467" lon="-7.6563383"><ele>589.6666666666667</ele><time>2026-04-14T11:41:14.874Z</time></trkpt><trkpt lat="42.48485" lon="-7.6560717"><ele>587.3333333333334</ele><time>2026-04-14T11:41:15.874Z</time></trkpt><trkpt lat="42.4849533" lon="-7.6558233"><ele>585.0</ele><time>2026-04-14T11:41:16.873Z</time></trkpt><trkpt lat="42.4850517" lon="-7.655605"><ele>585.0</ele><time>2026-04-14T11:41:17.874Z</time></trkpt><trkpt lat="42.485155" lon="-7.6554267"><ele>585.0</ele><time>2026-04-14T11:41:18.873Z</time></trkpt><trkpt lat="42.48528" lon="-7.6553"><ele>585.0</ele><time>2026-04-14T11:41:19.874Z</time></trkpt><trkpt lat="42.4854333" lon="-7.65522"><ele>581.3333333333334</ele><time>2026-04-14T11:41:20.873Z</time></trkpt><trkpt lat="42.4856167" lon="-7.6551467"><ele>577.6666666666667</ele><time>2026-04-14T11:41:21.873Z</time></trkpt><trkpt lat="42.485805" lon="-7.6550883"><ele>574.0</ele><time>2026-04-14T11:41:22.873Z</time></trkpt><trkpt lat="42.485985" lon="-7.655025"><ele>574.0</ele><time>2026-04-14T11:41:23.874Z</time></trkpt><trkpt lat="42.4861583" lon="-7.65496"><ele>574.0</ele><time>2026-04-14T11:41:24.874Z</time></trkpt><trkpt lat="42.486335" lon="-7.654895"><ele>574.0</ele><time>2026-04-14T11:41:25.874Z</time></trkpt><trkpt lat="42.486505" lon="-7.654835"><ele>570.5</ele><time>2026-04-14T11:41:26.873Z</time></trkpt><trkpt lat="42.4866483" lon="-7.6547717"><ele>567.0</ele><time>2026-04-14T11:41:27.874Z</time></trkpt><trkpt lat="42.4867783" lon="-7.654715"><ele>563.5</ele><time>2026-04-14T11:41:28.874Z</time></trkpt><trkpt lat="42.4868867" lon="-7.6546617"><ele>560.0</ele><time>2026-04-14T11:41:29.873Z</time></trkpt><trkpt lat="42.4869833" lon="-7.65462"><ele>560.0</ele><time>2026-04-14T11:41:30.873Z</time></trkpt><trkpt lat="42.48706" lon="-7.6546033"><ele>560.0</ele><time>2026-04-14T11:41:31.873Z</time></trkpt><trkpt lat="42.4871717" lon="-7.6546367"><ele>560.0</ele><time>2026-04-14T11:41:33.874Z</time></trkpt><trkpt lat="42.4872217" lon="-7.6547883"><ele>560.0</ele><time>2026-04-14T11:41:35.873Z</time></trkpt><trkpt lat="42.4872117" lon="-7.6549"><ele>560.0</ele><time>2026-04-14T11:41:36.873Z</time></trkpt><trkpt lat="42.4871683" lon="-7.6550617"><ele>558.6666666666666</ele><time>2026-04-14T11:41:37.874Z</time></trkpt><trkpt lat="42.4871033" lon="-7.6552683"><ele>557.3333333333334</ele><time>2026-04-14T11:41:38.873Z</time></trkpt><trkpt lat="42.4870283" lon="-7.6554733"><ele>556.0</ele><time>2026-04-14T11:41:39.873Z</time></trkpt><trkpt lat="42.4869683" lon="-7.6556733"><ele>556.0</ele><time>2026-04-14T11:41:40.874Z</time></trkpt><trkpt lat="42.4869033" lon="-7.6558717"><ele>556.0</ele><time>2026-04-14T11:41:41.873Z</time></trkpt><trkpt lat="42.486845" lon="-7.6560567"><ele>556.0</ele><time>2026-04-14T11:41:42.873Z</time></trkpt><trkpt lat="42.4867883" lon="-7.6562167"><ele>556.0</ele><time>2026-04-14T11:41:43.873Z</time></trkpt><trkpt lat="42.4867183" lon="-7.6563867"><ele>554.6666666666667</ele><time>2026-04-14T11:41:44.874Z</time></trkpt><trkpt lat="42.4866333" lon="-7.6565633"><ele>553.3333333333334</ele><time>2026-04-14T11:41:45.873Z</time></trkpt><trkpt lat="42.486545" lon="-7.6567417"><ele>552.0</ele><time>2026-04-14T11:41:46.873Z</time></trkpt><trkpt lat="42.4864467" lon="-7.6569383"><ele>552.6666666666666</ele><time>2026-04-14T11:41:47.874Z</time></trkpt><trkpt lat="42.48635" lon="-7.657145"><ele>553.3333333333333</ele><time>2026-04-14T11:41:48.874Z</time></trkpt><trkpt lat="42.48625" lon="-7.6573417"><ele>554.0</ele><time>2026-04-14T11:41:49.873Z</time></trkpt><trkpt lat="42.486135" lon="-7.6575417"><ele>556.75</ele><time>2026-04-14T11:41:50.873Z</time></trkpt><trkpt lat="42.4860433" lon="-7.6577167"><ele>559.5</ele><time>2026-04-14T11:41:51.874Z</time></trkpt><trkpt lat="42.4859633" lon="-7.6578917"><ele>562.25</ele><time>2026-04-14T11:41:52.874Z</time></trkpt><trkpt lat="42.4859" lon="-7.6580283"><ele>565.0</ele><time>2026-04-14T11:41:53.873Z</time></trkpt><trkpt lat="42.4858717" lon="-7.65811"><ele>565.0</ele><time>2026-04-14T11:41:54.873Z</time></trkpt><trkpt lat="42.4859383" lon="-7.65826"><ele>565.0</ele><time>2026-04-14T11:41:56.874Z</time></trkpt><trkpt lat="42.4860083" lon="-7.65833"><ele>565.0</ele><time>2026-04-14T11:41:57.874Z</time></trkpt><trkpt lat="42.486075" lon="-7.6583917"><ele>565.0</ele><time>2026-04-14T11:41:58.873Z</time></trkpt><trkpt lat="42.4861333" lon="-7.658425"><ele>565.0</ele><time>2026-04-14T11:41:59.874Z</time></trkpt><trkpt lat="42.4862033" lon="-7.6584267"><ele>565.0</ele><time>2026-04-14T11:42:01.874Z</time></trkpt><trkpt lat="42.4862883" lon="-7.65818"><ele>565.25</ele><time>2026-04-14T11:42:03.874Z</time></trkpt><trkpt lat="42.486355" lon="-7.6580667"><ele>565.5</ele><time>2026-04-14T11:42:04.873Z</time></trkpt><trkpt lat="42.4864483" lon="-7.6579583"><ele>565.75</ele><time>2026-04-14T11:42:05.874Z</time></trkpt><trkpt lat="42.486625" lon="-7.657815"><ele>566.0</ele><time>2026-04-14T11:42:06.873Z</time></trkpt><trkpt lat="42.4868117" lon="-7.6577267"><ele>562.0</ele><time>2026-04-14T11:42:07.873Z</time></trkpt><trkpt lat="42.487025" lon="-7.6576017"><ele>558.0</ele><time>2026-04-14T11:42:08.874Z</time></trkpt><trkpt lat="42.4872083" lon="-7.6575483"><ele>554.0</ele><time>2026-04-14T11:42:09.873Z</time></trkpt><trkpt lat="42.4874033" lon="-7.6575167"><ele>554.0</ele><time>2026-04-14T11:42:10.873Z</time></trkpt><trkpt lat="42.4876067" lon="-7.6575"><ele>554.0</ele><time>2026-04-14T11:42:11.873Z</time></trkpt><trkpt lat="42.4877933" lon="-7.6574867"><ele>554.0</ele><time>2026-04-14T11:42:12.874Z</time></trkpt><trkpt lat="42.48796" lon="-7.6574767"><ele>553.2</ele><time>2026-04-14T11:42:13.873Z</time></trkpt><trkpt lat="42.4880817" lon="-7.6574833"><ele>552.4</ele><time>2026-04-14T11:42:14.874Z</time></trkpt><trkpt lat="42.4881667" lon="-7.6575217"><ele>551.6</ele><time>2026-04-14T11:42:15.874Z</time></trkpt><trkpt lat="42.48823" lon="-7.6575833"><ele>550.8</ele><time>2026-04-14T11:42:16.874Z</time></trkpt><trkpt lat="42.4882633" lon="-7.6576917"><ele>550.0</ele><time>2026-04-14T11:42:17.874Z</time></trkpt><trkpt lat="42.4882817" lon="-7.6578167"><ele>549.3333333333334</ele><time>2026-04-14T11:42:18.874Z</time></trkpt><trkpt lat="42.4882767" lon="-7.6579883"><ele>548.6666666666666</ele><time>2026-04-14T11:42:19.873Z</time></trkpt><trkpt lat="42.4882583" lon="-7.6581983"><ele>548.0</ele><time>2026-04-14T11:42:20.873Z</time></trkpt><trkpt lat="42.4881733" lon="-7.6585033"><ele>547.0</ele><time>2026-04-14T11:42:21.873Z</time></trkpt><trkpt lat="42.4881033" lon="-7.65881"><ele>546.0</ele><time>2026-04-14T11:42:22.873Z</time></trkpt><trkpt lat="42.488065" lon="-7.6590883"><ele>545.0</ele><time>2026-04-14T11:42:23.874Z</time></trkpt><trkpt lat="42.4880417" lon="-7.6593467"><ele>544.6666666666666</ele><time>2026-04-14T11:42:24.874Z</time></trkpt><trkpt lat="42.488025" lon="-7.659605"><ele>544.3333333333334</ele><time>2026-04-14T11:42:25.874Z</time></trkpt><trkpt lat="42.4880117" lon="-7.6598583"><ele>544.0</ele><time>2026-04-14T11:42:26.874Z</time></trkpt><trkpt lat="42.488005" lon="-7.660085"><ele>545.0</ele><time>2026-04-14T11:42:27.874Z</time></trkpt><trkpt lat="42.48803" lon="-7.6603167"><ele>546.0</ele><time>2026-04-14T11:42:28.874Z</time></trkpt><trkpt lat="42.48808" lon="-7.6605417"><ele>547.0</ele><time>2026-04-14T11:42:29.874Z</time></trkpt><trkpt lat="42.4881283" lon="-7.6607017"><ele>547.0</ele><time>2026-04-14T11:42:30.873Z</time></trkpt><trkpt lat="42.48816" lon="-7.6607867"><ele>547.0</ele><time>2026-04-14T11:42:31.874Z</time></trkpt><trkpt lat="42.4881633" lon="-7.6608883"><ele>547.0</ele><time>2026-04-14T11:42:32.873Z</time></trkpt><trkpt lat="42.48815" lon="-7.6610217"><ele>547.0</ele><time>2026-04-14T11:42:33.873Z</time></trkpt><trkpt lat="42.48814" lon="-7.6611633"><ele>547.0</ele><time>2026-04-14T11:42:34.874Z</time></trkpt><trkpt lat="42.4881533" lon="-7.6612967"><ele>547.0</ele><time>2026-04-14T11:42:35.874Z</time></trkpt><trkpt lat="42.4882" lon="-7.6614317"><ele>548.4</ele><time>2026-04-14T11:42:36.873Z</time></trkpt><trkpt lat="42.488255" lon="-7.661545"><ele>549.8000000000001</ele><time>2026-04-14T11:42:37.874Z</time></trkpt><trkpt lat="42.4883417" lon="-7.6616217"><ele>551.2</ele><time>2026-04-14T11:42:39.873Z</time></trkpt><trkpt lat="42.48843" lon="-7.6616267"><ele>552.6</ele><time>2026-04-14T11:42:41.873Z</time></trkpt><trkpt lat="42.488495" lon="-7.6617433"><ele>554.0</ele><time>2026-04-14T11:42:43.874Z</time></trkpt><trkpt lat="42.48851" lon="-7.6618417"><ele>556.0</ele><time>2026-04-14T11:42:44.874Z</time></trkpt><trkpt lat="42.48851" lon="-7.6619867"><ele>558.0</ele><time>2026-04-14T11:42:45.874Z</time></trkpt><trkpt lat="42.488495" lon="-7.6621717"><ele>560.0</ele><time>2026-04-14T11:42:46.873Z</time></trkpt><trkpt lat="42.4884467" lon="-7.662375"><ele>562.0</ele><time>2026-04-14T11:42:47.873Z</time></trkpt><trkpt lat="42.4883933" lon="-7.66257"><ele>562.0</ele><time>2026-04-14T11:42:48.873Z</time></trkpt><trkpt lat="42.4883517" lon="-7.662735"><ele>562.0</ele><time>2026-04-14T11:42:49.874Z</time></trkpt><trkpt lat="42.4883117" lon="-7.6629383"><ele>562.0</ele><time>2026-04-14T11:42:50.873Z</time></trkpt><trkpt lat="42.4882667" lon="-7.663155"><ele>564.0</ele><time>2026-04-14T11:42:51.874Z</time></trkpt><trkpt lat="42.4882117" lon="-7.6633967"><ele>566.0</ele><time>2026-04-14T11:42:52.873Z</time></trkpt><trkpt lat="42.4881467" lon="-7.6636383"><ele>568.0</ele><time>2026-04-14T11:42:53.874Z</time></trkpt><trkpt lat="42.488085" lon="-7.663835"><ele>570.5</ele><time>2026-04-14T11:42:54.873Z</time></trkpt><trkpt lat="42.4880067" lon="-7.663995"><ele>573.0</ele><time>2026-04-14T11:42:55.873Z</time></trkpt><trkpt lat="42.4879283" lon="-7.66414"><ele>575.5</ele><time>2026-04-14T11:42:56.873Z</time></trkpt><trkpt lat="42.487855" lon="-7.6642833"><ele>578.0</ele><time>2026-04-14T11:42:57.873Z</time></trkpt><trkpt lat="42.4877833" lon="-7.6644033"><ele>580.0</ele><time>2026-04-14T11:42:58.873Z</time></trkpt><trkpt lat="42.48772" lon="-7.6644917"><ele>582.0</ele><time>2026-04-14T11:42:59.873Z</time></trkpt><trkpt lat="42.48767" lon="-7.66457"><ele>584.0</ele><time>2026-04-14T11:43:00.874Z</time></trkpt><trkpt lat="42.487615" lon="-7.664655"><ele>586.0</ele><time>2026-04-14T11:43:01.873Z</time></trkpt><trkpt lat="42.4875467" lon="-7.6647583"><ele>588.0</ele><time>2026-04-14T11:43:02.873Z</time></trkpt><trkpt lat="42.48747" lon="-7.6648583"><ele>588.0</ele><time>2026-04-14T11:43:03.874Z</time></trkpt><trkpt lat="42.4873817" lon="-7.664965"><ele>588.0</ele><time>2026-04-14T11:43:04.873Z</time></trkpt><trkpt lat="42.4872617" lon="-7.6650633"><ele>588.0</ele><time>2026-04-14T11:43:05.874Z</time></trkpt><trkpt lat="42.4871283" lon="-7.6651433"><ele>588.0</ele><time>2026-04-14T11:43:06.874Z</time></trkpt><trkpt lat="42.4869867" lon="-7.6652117"><ele>589.4</ele><time>2026-04-14T11:43:07.873Z</time></trkpt><trkpt lat="42.4868583" lon="-7.6652667"><ele>590.8</ele><time>2026-04-14T11:43:08.873Z</time></trkpt><trkpt lat="42.48675" lon="-7.6653233"><ele>592.2</ele><time>2026-04-14T11:43:09.874Z</time></trkpt><trkpt lat="42.4866867" lon="-7.665385"><ele>593.6</ele><time>2026-04-14T11:43:10.873Z</time></trkpt><trkpt lat="42.48664" lon="-7.6654883"><ele>595.0</ele><time>2026-04-14T11:43:12.873Z</time></trkpt><trkpt lat="42.48663" lon="-7.6656517"><ele>596.0</ele><time>2026-04-14T11:43:14.874Z</time></trkpt><trkpt lat="42.4866067" lon="-7.6657483"><ele>597.0</ele><time>2026-04-14T11:43:15.873Z</time></trkpt><trkpt lat="42.4865783" lon="-7.6658367"><ele>598.0</ele><time>2026-04-14T11:43:16.873Z</time></trkpt><trkpt lat="42.4865467" lon="-7.6659233"><ele>599.0</ele><time>2026-04-14T11:43:17.873Z</time></trkpt><trkpt lat="42.4865117" lon="-7.6660083"><ele>600.0</ele><time>2026-04-14T11:43:18.873Z</time></trkpt><trkpt lat="42.48648" lon="-7.6661033"><ele>601.0</ele><time>2026-04-14T11:43:19.874Z</time></trkpt><trkpt lat="42.4864483" lon="-7.6662033"><ele>602.0</ele><time>2026-04-14T11:43:20.873Z</time></trkpt><trkpt lat="42.4864183" lon="-7.66631"><ele>604.3333333333333</ele><time>2026-04-14T11:43:21.873Z</time></trkpt><trkpt lat="42.4863867" lon="-7.6664267"><ele>606.6666666666666</ele><time>2026-04-14T11:43:22.873Z</time></trkpt><trkpt lat="42.4863617" lon="-7.666535"><ele>609.0</ele><time>2026-04-14T11:43:23.873Z</time></trkpt><trkpt lat="42.4863367" lon="-7.666615"><ele>611.3333333333334</ele><time>2026-04-14T11:43:24.874Z</time></trkpt><trkpt lat="42.4863" lon="-7.6667633"><ele>613.6666666666667</ele><time>2026-04-14T11:43:26.873Z</time></trkpt><trkpt lat="42.4862817" lon="-7.6668483"><ele>616.0</ele><time>2026-04-14T11:43:27.873Z</time></trkpt><trkpt lat="42.4862533" lon="-7.6669333"><ele>618.6666666666667</ele><time>2026-04-14T11:43:28.874Z</time></trkpt><trkpt lat="42.4862183" lon="-7.6670083"><ele>621.3333333333334</ele><time>2026-04-14T11:43:29.873Z</time></trkpt><trkpt lat="42.4861867" lon="-7.6670833"><ele>624.0</ele><time>2026-04-14T11:43:30.873Z</time></trkpt><trkpt lat="42.48615" lon="-7.6671567"><ele>626.6666666666666</ele><time>2026-04-14T11:43:31.873Z</time></trkpt><trkpt lat="42.4860933" lon="-7.6673017"><ele>629.3333333333333</ele><time>2026-04-14T11:43:33.873Z</time></trkpt><trkpt lat="42.4860733" lon="-7.667385"><ele>632.0</ele><time>2026-04-14T11:43:34.874Z</time></trkpt><trkpt lat="42.4860583" lon="-7.66748"><ele>632.0</ele><time>2026-04-14T11:43:35.873Z</time></trkpt><trkpt lat="42.4860467" lon="-7.667575"><ele>632.0</ele><time>2026-04-14T11:43:36.873Z</time></trkpt><trkpt lat="42.48602" lon="-7.6676533"><ele>632.0</ele><time>2026-04-14T11:43:37.873Z</time></trkpt><trkpt lat="42.4859417" lon="-7.6677367"><ele>632.0</ele><time>2026-04-14T11:43:39.873Z</time></trkpt><trkpt lat="42.4858933" lon="-7.6677933"><ele>632.0</ele><time>2026-04-14T11:43:41.874Z</time></trkpt><trkpt lat="42.4858933" lon="-7.66788"><ele>632.0</ele><time>2026-04-14T11:43:43.873Z</time></trkpt><trkpt lat="42.4858983" lon="-7.668015"><ele>633.8333333333333</ele><time>2026-04-14T11:43:45.874Z</time></trkpt><trkpt lat="42.4858817" lon="-7.66814"><ele>635.6666666666666</ele><time>2026-04-14T11:43:47.873Z</time></trkpt><trkpt lat="42.4858567" lon="-7.6682333"><ele>637.5</ele><time>2026-04-14T11:43:49.873Z</time></trkpt><trkpt lat="42.4858217" lon="-7.6683767"><ele>639.3333333333334</ele><time>2026-04-14T11:43:51.874Z</time></trkpt><trkpt lat="42.485795" lon="-7.66847"><ele>641.1666666666667</ele><time>2026-04-14T11:43:52.874Z</time></trkpt><trkpt lat="42.4857633" lon="-7.6685833"><ele>643.0</ele><time>2026-04-14T11:43:53.873Z</time></trkpt><trkpt lat="42.485725" lon="-7.6687533"><ele>646.3333333333334</ele><time>2026-04-14T11:43:54.874Z</time></trkpt><trkpt lat="42.4856817" lon="-7.6689167"><ele>649.6666666666666</ele><time>2026-04-14T11:43:55.874Z</time></trkpt><trkpt lat="42.4856233" lon="-7.6691283"><ele>653.0</ele><time>2026-04-14T11:43:56.874Z</time></trkpt><trkpt lat="42.4855667" lon="-7.6693567"><ele>654.0</ele><time>2026-04-14T11:43:57.874Z</time></trkpt><trkpt lat="42.48551" lon="-7.6695483"><ele>655.0</ele><time>2026-04-14T11:43:58.873Z</time></trkpt><trkpt lat="42.4854633" lon="-7.6696983"><ele>656.0</ele><time>2026-04-14T11:43:59.873Z</time></trkpt><trkpt lat="42.4854267" lon="-7.6697983"><ele>657.0</ele><time>2026-04-14T11:44:00.874Z</time></trkpt><trkpt lat="42.4853517" lon="-7.6698433"><ele>658.0</ele><time>2026-04-14T11:44:15.873Z</time></trkpt><trkpt lat="42.485295" lon="-7.66999"><ele>659.75</ele><time>2026-04-14T11:44:17.873Z</time></trkpt><trkpt lat="42.4852517" lon="-7.6701233"><ele>661.5</ele><time>2026-04-14T11:44:18.874Z</time></trkpt><trkpt lat="42.4851933" lon="-7.6702933"><ele>663.25</ele><time>2026-04-14T11:44:19.873Z</time></trkpt><trkpt lat="42.485135" lon="-7.6704883"><ele>665.0</ele><time>2026-04-14T11:44:20.873Z</time></trkpt><trkpt lat="42.4850867" lon="-7.6706683"><ele>666.5</ele><time>2026-04-14T11:44:21.873Z</time></trkpt><trkpt lat="42.4850383" lon="-7.6708383"><ele>668.0</ele><time>2026-04-14T11:44:22.873Z</time></trkpt><trkpt lat="42.4849783" lon="-7.6710217"><ele>669.5</ele><time>2026-04-14T11:44:23.874Z</time></trkpt><trkpt lat="42.4849267" lon="-7.67121"><ele>671.0</ele><time>2026-04-14T11:44:24.874Z</time></trkpt><trkpt lat="42.4848683" lon="-7.6713983"><ele>672.1999999999999</ele><time>2026-04-14T11:44:25.873Z</time></trkpt><trkpt lat="42.4848083" lon="-7.6715683"><ele>673.4</ele><time>2026-04-14T11:44:26.873Z</time></trkpt><trkpt lat="42.4847567" lon="-7.6717183"><ele>674.6</ele><time>2026-04-14T11:44:27.874Z</time></trkpt><trkpt lat="42.4847067" lon="-7.6718183"><ele>675.8</ele><time>2026-04-14T11:44:28.873Z</time></trkpt><trkpt lat="42.4846483" lon="-7.6719117"><ele>677.0</ele><time>2026-04-14T11:44:29.873Z</time></trkpt><trkpt lat="42.4845867" lon="-7.6720067"><ele>677.0</ele><time>2026-04-14T11:44:30.873Z</time></trkpt><trkpt lat="42.4845183" lon="-7.6721167"><ele>677.0</ele><time>2026-04-14T11:44:31.874Z</time></trkpt><trkpt lat="42.4844667" lon="-7.672235"><ele>677.0</ele><time>2026-04-14T11:44:32.873Z</time></trkpt><trkpt lat="42.4844283" lon="-7.6723267"><ele>677.0</ele><time>2026-04-14T11:44:33.873Z</time></trkpt><trkpt lat="42.4844067" lon="-7.67241"><ele>677.0</ele><time>2026-04-14T11:44:34.874Z</time></trkpt><trkpt lat="42.4844133" lon="-7.6724967"><ele>677.0</ele><time>2026-04-14T11:44:35.874Z</time></trkpt><trkpt lat="42.4844467" lon="-7.6725833"><ele>677.0</ele><time>2026-04-14T11:44:36.873Z</time></trkpt><trkpt lat="42.4845033" lon="-7.6726983"><ele>677.0</ele><time>2026-04-14T11:44:37.874Z</time></trkpt><trkpt lat="42.4845817" lon="-7.6728317"><ele>677.0</ele><time>2026-04-14T11:44:38.873Z</time></trkpt><trkpt lat="42.4846867" lon="-7.6729917"><ele>677.0</ele><time>2026-04-14T11:44:39.874Z</time></trkpt><trkpt lat="42.4848133" lon="-7.6731617"><ele>674.6666666666666</ele><time>2026-04-14T11:44:40.874Z</time></trkpt><trkpt lat="42.4849167" lon="-7.673325"><ele>672.3333333333334</ele><time>2026-04-14T11:44:41.873Z</time></trkpt><trkpt lat="42.4850167" lon="-7.6734783"><ele>670.0</ele><time>2026-04-14T11:44:42.873Z</time></trkpt><trkpt lat="42.4851233" lon="-7.6736333"><ele>667.6666666666667</ele><time>2026-04-14T11:44:43.874Z</time></trkpt><trkpt lat="42.4852317" lon="-7.6737967"><ele>665.3333333333334</ele><time>2026-04-14T11:44:44.874Z</time></trkpt><trkpt lat="42.485335" lon="-7.673955"><ele>663.0</ele><time>2026-04-14T11:44:45.874Z</time></trkpt><trkpt lat="42.485425" lon="-7.6741117"><ele>661.5999999999999</ele><time>2026-04-14T11:44:46.873Z</time></trkpt><trkpt lat="42.4855083" lon="-7.6742467"><ele>660.1999999999999</ele><time>2026-04-14T11:44:47.873Z</time></trkpt><trkpt lat="42.48558" lon="-7.6743583"><ele>658.8</ele><time>2026-04-14T11:44:48.873Z</time></trkpt><trkpt lat="42.485635" lon="-7.67444"><ele>657.4</ele><time>2026-04-14T11:44:49.873Z</time></trkpt><trkpt lat="42.4857117" lon="-7.6745083"><ele>656.0</ele><time>2026-04-14T11:44:51.873Z</time></trkpt><trkpt lat="42.4857967" lon="-7.6745083"><ele>656.0</ele><time>2026-04-14T11:44:53.873Z</time></trkpt><trkpt lat="42.4858567" lon="-7.6744633"><ele>656.0</ele><time>2026-04-14T11:44:54.874Z</time></trkpt><trkpt lat="42.4859333" lon="-7.6744067"><ele>656.0</ele><time>2026-04-14T11:44:55.873Z</time></trkpt><trkpt lat="42.4860267" lon="-7.6743267"><ele>656.0</ele><time>2026-04-14T11:44:56.873Z</time></trkpt><trkpt lat="42.4861583" lon="-7.6742217"><ele>656.0</ele><time>2026-04-14T11:44:57.874Z</time></trkpt><trkpt lat="42.4863333" lon="-7.674095"><ele>652.6666666666666</ele><time>2026-04-14T11:44:58.874Z</time></trkpt><trkpt lat="42.4864933" lon="-7.673975"><ele>649.3333333333334</ele><time>2026-04-14T11:44:59.874Z</time></trkpt><trkpt lat="42.48663" lon="-7.6738617"><ele>646.0</ele><time>2026-04-14T11:45:00.874Z</time></trkpt><trkpt lat="42.486765" lon="-7.6737533"><ele>646.0</ele><time>2026-04-14T11:45:01.874Z</time></trkpt><trkpt lat="42.4868733" lon="-7.6736533"><ele>646.0</ele><time>2026-04-14T11:45:02.874Z</time></trkpt><trkpt lat="42.48698" lon="-7.6735533"><ele>646.0</ele><time>2026-04-14T11:45:03.874Z</time></trkpt><trkpt lat="42.4870933" lon="-7.67344"><ele>646.0</ele><time>2026-04-14T11:45:04.873Z</time></trkpt><trkpt lat="42.4872267" lon="-7.67332"><ele>644.3333333333334</ele><time>2026-04-14T11:45:05.873Z</time></trkpt><trkpt lat="42.4873567" lon="-7.6732017"><ele>642.6666666666666</ele><time>2026-04-14T11:45:06.874Z</time></trkpt><trkpt lat="42.487495" lon="-7.67306"><ele>641.0</ele><time>2026-04-14T11:45:07.874Z</time></trkpt><trkpt lat="42.4876317" lon="-7.6729067"><ele>642.3333333333333</ele><time>2026-04-14T11:45:08.874Z</time></trkpt><trkpt lat="42.4877917" lon="-7.6727533"><ele>643.6666666666666</ele><time>2026-04-14T11:45:09.873Z</time></trkpt><trkpt lat="42.4879417" lon="-7.672575"><ele>645.0</ele><time>2026-04-14T11:45:10.874Z</time></trkpt><trkpt lat="42.488055" lon="-7.6723917"><ele>640.5</ele><time>2026-04-14T11:45:11.873Z</time></trkpt><trkpt lat="42.488145" lon="-7.6722567"><ele>636.0</ele><time>2026-04-14T11:45:12.873Z</time></trkpt><trkpt lat="42.4882133" lon="-7.6721333"><ele>631.5</ele><time>2026-04-14T11:45:13.873Z</time></trkpt><trkpt lat="42.48826" lon="-7.6720117"><ele>627.0</ele><time>2026-04-14T11:45:14.873Z</time></trkpt><trkpt lat="42.4882967" lon="-7.67188"><ele>625.75</ele><time>2026-04-14T11:45:15.873Z</time></trkpt><trkpt lat="42.488345" lon="-7.6717267"><ele>624.5</ele><time>2026-04-14T11:45:16.873Z</time></trkpt><trkpt lat="42.4884133" lon="-7.6715717"><ele>623.25</ele><time>2026-04-14T11:45:17.874Z</time></trkpt><trkpt lat="42.4885083" lon="-7.6714117"><ele>622.0</ele><time>2026-04-14T11:45:18.874Z</time></trkpt><trkpt lat="42.48864" lon="-7.6712283"><ele>618.3333333333334</ele><time>2026-04-14T11:45:19.873Z</time></trkpt><trkpt lat="42.4887767" lon="-7.6710367"><ele>614.6666666666666</ele><time>2026-04-14T11:45:20.874Z</time></trkpt><trkpt lat="42.4889083" lon="-7.670855"><ele>611.0</ele><time>2026-04-14T11:45:21.873Z</time></trkpt><trkpt lat="42.4890283" lon="-7.670685"><ele>611.0</ele><time>2026-04-14T11:45:22.873Z</time></trkpt><trkpt lat="42.4891367" lon="-7.6705567"><ele>611.0</ele><time>2026-04-14T11:45:23.873Z</time></trkpt><trkpt lat="42.4892417" lon="-7.6704167"><ele>611.0</ele><time>2026-04-14T11:45:24.874Z</time></trkpt><trkpt lat="42.48936" lon="-7.6702717"><ele>611.75</ele><time>2026-04-14T11:45:25.874Z</time></trkpt><trkpt lat="42.4894617" lon="-7.6701267"><ele>612.5</ele><time>2026-04-14T11:45:26.875Z</time></trkpt><trkpt lat="42.4895617" lon="-7.6699933"><ele>613.25</ele><time>2026-04-14T11:45:27.875Z</time></trkpt><trkpt lat="42.4896617" lon="-7.6698617"><ele>614.0</ele><time>2026-04-14T11:45:28.875Z</time></trkpt><trkpt lat="42.4897817" lon="-7.6697333"><ele>611.0</ele><time>2026-04-14T11:45:29.874Z</time></trkpt><trkpt lat="42.4899033" lon="-7.669615"><ele>608.0</ele><time>2026-04-14T11:45:30.875Z</time></trkpt><trkpt lat="42.490045" lon="-7.669475"><ele>605.0</ele><time>2026-04-14T11:45:31.875Z</time></trkpt><trkpt lat="42.490185" lon="-7.6693017"><ele>605.0</ele><time>2026-04-14T11:45:32.875Z</time></trkpt><trkpt lat="42.49032" lon="-7.6691133"><ele>605.0</ele><time>2026-04-14T11:45:33.875Z</time></trkpt><trkpt lat="42.490435" lon="-7.66891"><ele>605.0</ele><time>2026-04-14T11:45:34.874Z</time></trkpt><trkpt lat="42.490535" lon="-7.6687017"><ele>601.6666666666666</ele><time>2026-04-14T11:45:35.874Z</time></trkpt><trkpt lat="42.4906367" lon="-7.6684933"><ele>598.3333333333334</ele><time>2026-04-14T11:45:36.874Z</time></trkpt><trkpt lat="42.4907367" lon="-7.6682983"><ele>595.0</ele><time>2026-04-14T11:45:37.874Z</time></trkpt><trkpt lat="42.4908233" lon="-7.6681483"><ele>595.0</ele><time>2026-04-14T11:45:38.874Z</time></trkpt><trkpt lat="42.490895" lon="-7.668015"><ele>595.0</ele><time>2026-04-14T11:45:39.875Z</time></trkpt><trkpt lat="42.490955" lon="-7.667915"><ele>595.0</ele><time>2026-04-14T11:45:40.875Z</time></trkpt><trkpt lat="42.4909933" lon="-7.6678467"><ele>595.0</ele><time>2026-04-14T11:45:41.874Z</time></trkpt><trkpt lat="42.4910617" lon="-7.6678233"><ele>595.0</ele><time>2026-04-14T11:45:46.875Z</time></trkpt><trkpt lat="42.4910817" lon="-7.6677367"><ele>595.0</ele><time>2026-04-14T11:45:48.874Z</time></trkpt><trkpt lat="42.49115" lon="-7.6675467"><ele>594.0</ele><time>2026-04-14T11:45:50.875Z</time></trkpt><trkpt lat="42.4912267" lon="-7.6674"><ele>593.0</ele><time>2026-04-14T11:45:51.874Z</time></trkpt><trkpt lat="42.4913117" lon="-7.6672217"><ele>592.0</ele><time>2026-04-14T11:45:52.875Z</time></trkpt><trkpt lat="42.4914067" lon="-7.6670233"><ele>588.3333333333334</ele><time>2026-04-14T11:45:53.875Z</time></trkpt><trkpt lat="42.4915133" lon="-7.666805"><ele>584.6666666666666</ele><time>2026-04-14T11:45:54.874Z</time></trkpt><trkpt lat="42.4916117" lon="-7.6666133"><ele>581.0</ele><time>2026-04-14T11:45:55.875Z</time></trkpt><trkpt lat="42.4917067" lon="-7.6664517"><ele>581.0</ele><time>2026-04-14T11:45:56.874Z</time></trkpt><trkpt lat="42.49178" lon="-7.6663367"><ele>581.0</ele><time>2026-04-14T11:45:57.875Z</time></trkpt><trkpt lat="42.4918317" lon="-7.6662633"><ele>581.0</ele><time>2026-04-14T11:45:58.874Z</time></trkpt><trkpt lat="42.4918417" lon="-7.66644"><ele>581.0</ele><time>2026-04-14T11:46:02.874Z</time></trkpt><trkpt lat="42.491795" lon="-7.6665867"><ele>581.0</ele><time>2026-04-14T11:46:03.875Z</time></trkpt><trkpt lat="42.49175" lon="-7.66676"><ele>579.0</ele><time>2026-04-14T11:46:04.874Z</time></trkpt><trkpt lat="42.491715" lon="-7.6669517"><ele>577.0</ele><time>2026-04-14T11:46:05.875Z</time></trkpt><trkpt lat="42.491705" lon="-7.667165"><ele>575.0</ele><time>2026-04-14T11:46:06.874Z</time></trkpt><trkpt lat="42.4917133" lon="-7.66739"><ele>575.0</ele><time>2026-04-14T11:46:07.875Z</time></trkpt><trkpt lat="42.4917367" lon="-7.6676217"><ele>575.0</ele><time>2026-04-14T11:46:08.874Z</time></trkpt><trkpt lat="42.4917517" lon="-7.6678567"><ele>575.0</ele><time>2026-04-14T11:46:09.874Z</time></trkpt><trkpt lat="42.49177" lon="-7.6680933"><ele>574.25</ele><time>2026-04-14T11:46:10.875Z</time></trkpt><trkpt lat="42.4917933" lon="-7.668295"><ele>573.5</ele><time>2026-04-14T11:46:11.874Z</time></trkpt><trkpt lat="42.4918317" lon="-7.6684783"><ele>572.75</ele><time>2026-04-14T11:46:12.875Z</time></trkpt><trkpt lat="42.4918667" lon="-7.6686283"><ele>572.0</ele><time>2026-04-14T11:46:13.874Z</time></trkpt><trkpt lat="42.4918833" lon="-7.6687117"><ele>572.0</ele><time>2026-04-14T11:46:14.874Z</time></trkpt><trkpt lat="42.49193" lon="-7.6687867"><ele>572.0</ele><time>2026-04-14T11:46:16.874Z</time></trkpt><trkpt lat="42.4919733" lon="-7.668715"><ele>572.0</ele><time>2026-04-14T11:46:18.875Z</time></trkpt><trkpt lat="42.4920383" lon="-7.668535"><ele>572.0</ele><time>2026-04-14T11:46:19.874Z</time></trkpt><trkpt lat="42.4921183" lon="-7.6683883"><ele>572.0</ele><time>2026-04-14T11:46:20.875Z</time></trkpt><trkpt lat="42.492205" lon="-7.6682433"><ele>569.75</ele><time>2026-04-14T11:46:21.875Z</time></trkpt><trkpt lat="42.4923017" lon="-7.6681283"><ele>567.5</ele><time>2026-04-14T11:46:22.875Z</time></trkpt><trkpt lat="42.4924217" lon="-7.6680367"><ele>565.25</ele><time>2026-04-14T11:46:23.874Z</time></trkpt><trkpt lat="42.49256" lon="-7.6679433"><ele>563.0</ele><time>2026-04-14T11:46:24.875Z</time></trkpt><trkpt lat="42.4927117" lon="-7.667855"><ele>563.0</ele><time>2026-04-14T11:46:25.875Z</time></trkpt><trkpt lat="42.49287" lon="-7.6677867"><ele>563.0</ele><time>2026-04-14T11:46:26.875Z</time></trkpt><trkpt lat="42.4930533" lon="-7.6677267"><ele>563.0</ele><time>2026-04-14T11:46:27.875Z</time></trkpt><trkpt lat="42.49323" lon="-7.6676967"><ele>558.3333333333333</ele><time>2026-04-14T11:46:28.874Z</time></trkpt><trkpt lat="42.4933967" lon="-7.6676783"><ele>553.6666666666666</ele><time>2026-04-14T11:46:29.875Z</time></trkpt><trkpt lat="42.493555" lon="-7.66763"><ele>549.0</ele><time>2026-04-14T11:46:30.875Z</time></trkpt><trkpt lat="42.4936833" lon="-7.6675583"><ele>547.6666666666666</ele><time>2026-04-14T11:46:31.874Z</time></trkpt><trkpt lat="42.4937967" lon="-7.6674367"><ele>546.3333333333333</ele><time>2026-04-14T11:46:32.874Z</time></trkpt><trkpt lat="42.493915" lon="-7.6672983"><ele>545.0</ele><time>2026-04-14T11:46:33.874Z</time></trkpt><trkpt lat="42.49404" lon="-7.66714"><ele>545.0</ele><time>2026-04-14T11:46:34.874Z</time></trkpt><trkpt lat="42.494175" lon="-7.6669667"><ele>545.0</ele><time>2026-04-14T11:46:35.874Z</time></trkpt><trkpt lat="42.4943183" lon="-7.6668017"><ele>545.0</ele><time>2026-04-14T11:46:36.874Z</time></trkpt><trkpt lat="42.4944733" lon="-7.6666517"><ele>541.0</ele><time>2026-04-14T11:46:37.875Z</time></trkpt><trkpt lat="42.4946283" lon="-7.66651"><ele>537.0</ele><time>2026-04-14T11:46:38.874Z</time></trkpt><trkpt lat="42.4947917" lon="-7.6663967"><ele>533.0</ele><time>2026-04-14T11:46:39.875Z</time></trkpt><trkpt lat="42.4949833" lon="-7.6663117"><ele>533.0</ele><time>2026-04-14T11:46:40.875Z</time></trkpt><trkpt lat="42.4951683" lon="-7.666245"><ele>533.0</ele><time>2026-04-14T11:46:41.874Z</time></trkpt><trkpt lat="42.49534" lon="-7.6661883"><ele>533.0</ele><time>2026-04-14T11:46:42.874Z</time></trkpt><trkpt lat="42.495515" lon="-7.666145"><ele>529.3333333333333</ele><time>2026-04-14T11:46:43.874Z</time></trkpt><trkpt lat="42.4957083" lon="-7.6660867"><ele>525.6666666666666</ele><time>2026-04-14T11:46:44.875Z</time></trkpt><trkpt lat="42.4959" lon="-7.6660067"><ele>522.0</ele><time>2026-04-14T11:46:45.874Z</time></trkpt><trkpt lat="42.49608" lon="-7.66591"><ele>522.0</ele><time>2026-04-14T11:46:46.874Z</time></trkpt><trkpt lat="42.4962267" lon="-7.6658417"><ele>522.0</ele><time>2026-04-14T11:46:47.874Z</time></trkpt><trkpt lat="42.4963583" lon="-7.66578"><ele>522.0</ele><time>2026-04-14T11:46:48.875Z</time></trkpt><trkpt lat="42.49646" lon="-7.6657117"><ele>522.0</ele><time>2026-04-14T11:46:49.875Z</time></trkpt><trkpt lat="42.4965433" lon="-7.6656117"><ele>522.0</ele><time>2026-04-14T11:46:50.875Z</time></trkpt><trkpt lat="42.4966167" lon="-7.66547"><ele>522.0</ele><time>2026-04-14T11:46:51.874Z</time></trkpt><trkpt lat="42.4966867" lon="-7.66531"><ele>522.0</ele><time>2026-04-14T11:46:52.875Z</time></trkpt><trkpt lat="42.49675" lon="-7.6651783"><ele>522.0</ele><time>2026-04-14T11:46:53.875Z</time></trkpt><trkpt lat="42.496815" lon="-7.6650933"><ele>520.8333333333334</ele><time>2026-04-14T11:46:54.874Z</time></trkpt><trkpt lat="42.4968817" lon="-7.6650567"><ele>519.6666666666666</ele><time>2026-04-14T11:46:55.875Z</time></trkpt><trkpt lat="42.4969633" lon="-7.6650533"><ele>518.5</ele><time>2026-04-14T11:46:56.874Z</time></trkpt><trkpt lat="42.497045" lon="-7.6650617"><ele>517.3333333333333</ele><time>2026-04-14T11:46:57.875Z</time></trkpt><trkpt lat="42.4971417" lon="-7.6650567"><ele>516.1666666666666</ele><time>2026-04-14T11:46:58.875Z</time></trkpt><trkpt lat="42.4972417" lon="-7.6650367"><ele>515.0</ele><time>2026-04-14T11:46:59.875Z</time></trkpt><trkpt lat="42.497345" lon="-7.665015"><ele>514.8</ele><time>2026-04-14T11:47:00.874Z</time></trkpt><trkpt lat="42.497445" lon="-7.6649883"><ele>514.6</ele><time>2026-04-14T11:47:01.874Z</time></trkpt><trkpt lat="42.4975617" lon="-7.6649"><ele>514.4</ele><time>2026-04-14T11:47:02.874Z</time></trkpt><trkpt lat="42.4976417" lon="-7.6648033"><ele>514.2</ele><time>2026-04-14T11:47:03.875Z</time></trkpt><trkpt lat="42.4977167" lon="-7.6647083"><ele>514.0</ele><time>2026-04-14T11:47:04.875Z</time></trkpt><trkpt lat="42.4977817" lon="-7.664625"><ele>514.0</ele><time>2026-04-14T11:47:05.875Z</time></trkpt><trkpt lat="42.4978417" lon="-7.6645517"><ele>514.0</ele><time>2026-04-14T11:47:06.875Z</time></trkpt><trkpt lat="42.4978983" lon="-7.6644767"><ele>514.0</ele><time>2026-04-14T11:47:07.875Z</time></trkpt><trkpt lat="42.4979467" lon="-7.6643983"><ele>514.0</ele><time>2026-04-14T11:47:08.874Z</time></trkpt><trkpt lat="42.49799" lon="-7.664315"><ele>514.0</ele><time>2026-04-14T11:47:09.874Z</time></trkpt><trkpt lat="42.4980283" lon="-7.6642333"><ele>514.0</ele><time>2026-04-14T11:47:10.874Z</time></trkpt><trkpt lat="42.4980767" lon="-7.6641483"><ele>512.6666666666667</ele><time>2026-04-14T11:47:11.875Z</time></trkpt><trkpt lat="42.4981317" lon="-7.664065"><ele>511.33333333333337</ele><time>2026-04-14T11:47:12.875Z</time></trkpt><trkpt lat="42.4981883" lon="-7.66398"><ele>510.0</ele><time>2026-04-14T11:47:13.874Z</time></trkpt><trkpt lat="42.498245" lon="-7.6638917"><ele>508.66666666666663</ele><time>2026-04-14T11:47:14.874Z</time></trkpt><trkpt lat="42.4982933" lon="-7.663795"><ele>507.3333333333333</ele><time>2026-04-14T11:47:15.875Z</time></trkpt><trkpt lat="42.4983417" lon="-7.6636967"><ele>506.0</ele><time>2026-04-14T11:47:16.875Z</time></trkpt><trkpt lat="42.49839" lon="-7.66361"><ele>504.99999999999994</ele><time>2026-04-14T11:47:17.875Z</time></trkpt><trkpt lat="42.4984367" lon="-7.66353"><ele>504.0</ele><time>2026-04-14T11:47:18.874Z</time></trkpt><trkpt lat="42.4984783" lon="-7.66346"><ele>503.0</ele><time>2026-04-14T11:47:19.874Z</time></trkpt><trkpt lat="42.4985383" lon="-7.663345"><ele>502.0</ele><time>2026-04-14T11:47:21.874Z</time></trkpt><trkpt lat="42.498625" lon="-7.6632517"><ele>500.99999999999994</ele><time>2026-04-14T11:47:23.874Z</time></trkpt><trkpt lat="42.498685" lon="-7.6632083"><ele>500.0</ele><time>2026-04-14T11:47:24.874Z</time></trkpt><trkpt lat="42.498755" lon="-7.66315"><ele>499.8</ele><time>2026-04-14T11:47:25.875Z</time></trkpt><trkpt lat="42.498835" lon="-7.6630917"><ele>499.6</ele><time>2026-04-14T11:47:26.874Z</time></trkpt><trkpt lat="42.4989267" lon="-7.663025"><ele>499.4</ele><time>2026-04-14T11:47:27.874Z</time></trkpt><trkpt lat="42.4990283" lon="-7.6629667"><ele>499.2</ele><time>2026-04-14T11:47:28.875Z</time></trkpt><trkpt lat="42.4991333" lon="-7.66293"><ele>499.0</ele><time>2026-04-14T11:47:29.875Z</time></trkpt><trkpt lat="42.4992467" lon="-7.6629117"><ele>499.0</ele><time>2026-04-14T11:47:30.875Z</time></trkpt><trkpt lat="42.4993617" lon="-7.6629283"><ele>499.0</ele><time>2026-04-14T11:47:31.874Z</time></trkpt><trkpt lat="42.499465" lon="-7.662965"><ele>499.0</ele><time>2026-04-14T11:47:32.874Z</time></trkpt><trkpt lat="42.4995533" lon="-7.663025"><ele>499.0</ele><time>2026-04-14T11:47:33.875Z</time></trkpt><trkpt lat="42.499625" lon="-7.663115"><ele>499.0</ele><time>2026-04-14T11:47:34.874Z</time></trkpt><trkpt lat="42.4996967" lon="-7.6632283"><ele>498.4</ele><time>2026-04-14T11:47:35.874Z</time></trkpt><trkpt lat="42.4997667" lon="-7.663335"><ele>497.79999999999995</ele><time>2026-04-14T11:47:36.875Z</time></trkpt><trkpt lat="42.4998333" lon="-7.6634133"><ele>497.20000000000005</ele><time>2026-04-14T11:47:37.875Z</time></trkpt><trkpt lat="42.4998967" lon="-7.66348"><ele>496.6</ele><time>2026-04-14T11:47:38.874Z</time></trkpt><trkpt lat="42.499955" lon="-7.66353"><ele>496.0</ele><time>2026-04-14T11:47:39.875Z</time></trkpt><trkpt lat="42.5000783" lon="-7.66354"><ele>496.0</ele><time>2026-04-14T11:47:41.874Z</time></trkpt><trkpt lat="42.5001517" lon="-7.6634217"><ele>496.0</ele><time>2026-04-14T11:47:42.874Z</time></trkpt><trkpt lat="42.500225" lon="-7.66335"><ele>496.0</ele><time>2026-04-14T11:47:43.874Z</time></trkpt><trkpt lat="42.5003417" lon="-7.6631783"><ele>496.0</ele><time>2026-04-14T11:47:44.875Z</time></trkpt><trkpt lat="42.500465" lon="-7.66297"><ele>497.0</ele><time>2026-04-14T11:47:45.874Z</time></trkpt><trkpt lat="42.50059" lon="-7.6628167"><ele>498.0</ele><time>2026-04-14T11:47:46.874Z</time></trkpt><trkpt lat="42.5007217" lon="-7.6626317"><ele>499.0</ele><time>2026-04-14T11:47:47.874Z</time></trkpt><trkpt lat="42.50083" lon="-7.6624667"><ele>497.0</ele><time>2026-04-14T11:47:48.874Z</time></trkpt><trkpt lat="42.5008917" lon="-7.6622683"><ele>495.0</ele><time>2026-04-14T11:47:49.874Z</time></trkpt><trkpt lat="42.5009483" lon="-7.6621067"><ele>493.0</ele><time>2026-04-14T11:47:50.875Z</time></trkpt><trkpt lat="42.5010133" lon="-7.66199"><ele>491.0</ele><time>2026-04-14T11:47:51.874Z</time></trkpt><trkpt lat="42.5010717" lon="-7.661885"><ele>489.99999999999994</ele><time>2026-04-14T11:47:52.874Z</time></trkpt><trkpt lat="42.50113" lon="-7.6618017"><ele>489.0</ele><time>2026-04-14T11:47:53.874Z</time></trkpt><trkpt lat="42.5011933" lon="-7.6617233"><ele>488.0</ele><time>2026-04-14T11:47:54.874Z</time></trkpt><trkpt lat="42.5012617" lon="-7.661645"><ele>487.0</ele><time>2026-04-14T11:47:55.875Z</time></trkpt><trkpt lat="42.5013317" lon="-7.661565"><ele>485.99999999999994</ele><time>2026-04-14T11:47:56.875Z</time></trkpt><trkpt lat="42.5014033" lon="-7.66148"><ele>485.0</ele><time>2026-04-14T11:47:57.874Z</time></trkpt><trkpt lat="42.5014817" lon="-7.6613983"><ele>484.6</ele><time>2026-04-14T11:47:58.874Z</time></trkpt><trkpt lat="42.5015533" lon="-7.6613217"><ele>484.2</ele><time>2026-04-14T11:47:59.874Z</time></trkpt><trkpt lat="42.50162" lon="-7.66124"><ele>483.79999999999995</ele><time>2026-04-14T11:48:00.874Z</time></trkpt><trkpt lat="42.50169" lon="-7.66117"><ele>483.4</ele><time>2026-04-14T11:48:01.874Z</time></trkpt><trkpt lat="42.5017733" lon="-7.6610917"><ele>483.0</ele><time>2026-04-14T11:48:02.874Z</time></trkpt><trkpt lat="42.5018717" lon="-7.6610117"><ele>482.33333333333337</ele><time>2026-04-14T11:48:03.875Z</time></trkpt><trkpt lat="42.50199" lon="-7.6609317"><ele>481.6666666666667</ele><time>2026-04-14T11:48:04.874Z</time></trkpt><trkpt lat="42.5021267" lon="-7.6608367"><ele>481.0</ele><time>2026-04-14T11:48:05.874Z</time></trkpt><trkpt lat="42.5022883" lon="-7.66073"><ele>480.33333333333337</ele><time>2026-04-14T11:48:06.875Z</time></trkpt><trkpt lat="42.50246" lon="-7.6606033"><ele>479.66666666666663</ele><time>2026-04-14T11:48:07.874Z</time></trkpt><trkpt lat="42.5026167" lon="-7.6604867"><ele>479.0</ele><time>2026-04-14T11:48:08.875Z</time></trkpt><trkpt lat="42.5027517" lon="-7.6603767"><ele>478.66666666666663</ele><time>2026-04-14T11:48:09.875Z</time></trkpt><trkpt lat="42.50288" lon="-7.6602633"><ele>478.33333333333337</ele><time>2026-04-14T11:48:10.874Z</time></trkpt><trkpt lat="42.503015" lon="-7.6601533"><ele>478.0</ele><time>2026-04-14T11:48:11.875Z</time></trkpt><trkpt lat="42.50314" lon="-7.6600467"><ele>477.0</ele><time>2026-04-14T11:48:12.875Z</time></trkpt><trkpt lat="42.5032633" lon="-7.6599217"><ele>476.0</ele><time>2026-04-14T11:48:13.874Z</time></trkpt><trkpt lat="42.50338" lon="-7.659775"><ele>475.0</ele><time>2026-04-14T11:48:14.874Z</time></trkpt><trkpt lat="42.5035017" lon="-7.65962"><ele>475.0</ele><time>2026-04-14T11:48:15.874Z</time></trkpt><trkpt lat="42.503615" lon="-7.659455"><ele>475.0</ele><time>2026-04-14T11:48:16.875Z</time></trkpt><trkpt lat="42.5037333" lon="-7.6592933"><ele>475.0</ele><time>2026-04-14T11:48:17.875Z</time></trkpt><trkpt lat="42.5038383" lon="-7.659155"><ele>473.5</ele><time>2026-04-14T11:48:18.874Z</time></trkpt><trkpt lat="42.5039283" lon="-7.6590183"><ele>472.0</ele><time>2026-04-14T11:48:19.874Z</time></trkpt><trkpt lat="42.5040067" lon="-7.6588767"><ele>470.5</ele><time>2026-04-14T11:48:20.874Z</time></trkpt><trkpt lat="42.5040633" lon="-7.6587283"><ele>469.0</ele><time>2026-04-14T11:48:21.875Z</time></trkpt><trkpt lat="42.5041017" lon="-7.6585883"><ele>468.4</ele><time>2026-04-14T11:48:22.874Z</time></trkpt><trkpt lat="42.504125" lon="-7.6584417"><ele>467.79999999999995</ele><time>2026-04-14T11:48:23.875Z</time></trkpt><trkpt lat="42.5041383" lon="-7.65832"><ele>467.20000000000005</ele><time>2026-04-14T11:48:24.875Z</time></trkpt><trkpt lat="42.5041633" lon="-7.6582133"><ele>466.6</ele><time>2026-04-14T11:48:25.874Z</time></trkpt><trkpt lat="42.5042133" lon="-7.6580933"><ele>466.0</ele><time>2026-04-14T11:48:26.875Z</time></trkpt><trkpt lat="42.5042683" lon="-7.6579667"><ele>466.0</ele><time>2026-04-14T11:48:27.874Z</time></trkpt><trkpt lat="42.50432" lon="-7.6578133"><ele>466.0</ele><time>2026-04-14T11:48:28.875Z</time></trkpt><trkpt lat="42.5043683" lon="-7.6576367"><ele>466.0</ele><time>2026-04-14T11:48:29.875Z</time></trkpt><trkpt lat="42.5044317" lon="-7.6574367"><ele>466.0</ele><time>2026-04-14T11:48:30.874Z</time></trkpt><trkpt lat="42.5045017" lon="-7.6572383"><ele>464.0</ele><time>2026-04-14T11:48:31.874Z</time></trkpt><trkpt lat="42.5045833" lon="-7.6570417"><ele>462.0</ele><time>2026-04-14T11:48:32.875Z</time></trkpt><trkpt lat="42.5046783" lon="-7.6568433"><ele>460.0</ele><time>2026-04-14T11:48:33.875Z</time></trkpt><trkpt lat="42.5047883" lon="-7.6566467"><ele>460.0</ele><time>2026-04-14T11:48:34.875Z</time></trkpt><trkpt lat="42.5049017" lon="-7.65646"><ele>460.0</ele><time>2026-04-14T11:48:35.874Z</time></trkpt><trkpt lat="42.5050183" lon="-7.6562867"><ele>460.0</ele><time>2026-04-14T11:48:36.874Z</time></trkpt><trkpt lat="42.5051267" lon="-7.65613"><ele>460.0</ele><time>2026-04-14T11:48:37.874Z</time></trkpt><trkpt lat="42.5052133" lon="-7.6559933"><ele>460.0</ele><time>2026-04-14T11:48:38.875Z</time></trkpt><trkpt lat="42.505295" lon="-7.6558517"><ele>460.0</ele><time>2026-04-14T11:48:39.875Z</time></trkpt><trkpt lat="42.50538" lon="-7.6556883"><ele>460.0</ele><time>2026-04-14T11:48:40.874Z</time></trkpt><trkpt lat="42.505465" lon="-7.6555117"><ele>459.0</ele><time>2026-04-14T11:48:41.874Z</time></trkpt><trkpt lat="42.5055533" lon="-7.6553417"><ele>458.0</ele><time>2026-04-14T11:48:42.875Z</time></trkpt><trkpt lat="42.5056267" lon="-7.6551883"><ele>457.0</ele><time>2026-04-14T11:48:43.875Z</time></trkpt><trkpt lat="42.5057117" lon="-7.6550217"><ele>456.0</ele><time>2026-04-14T11:48:44.875Z</time></trkpt><trkpt lat="42.50578" lon="-7.6548733"><ele>456.0</ele><time>2026-04-14T11:48:45.875Z</time></trkpt><trkpt lat="42.505845" lon="-7.6547167"><ele>456.0</ele><time>2026-04-14T11:48:46.874Z</time></trkpt><trkpt lat="42.5059067" lon="-7.6545733"><ele>456.0</ele><time>2026-04-14T11:48:47.874Z</time></trkpt><trkpt lat="42.5059833" lon="-7.6544167"><ele>456.0</ele><time>2026-04-14T11:48:48.874Z</time></trkpt><trkpt lat="42.50605" lon="-7.6542733"><ele>455.4</ele><time>2026-04-14T11:48:49.874Z</time></trkpt><trkpt lat="42.5061" lon="-7.6541283"><ele>454.8</ele><time>2026-04-14T11:48:50.874Z</time></trkpt><trkpt lat="42.506155" lon="-7.6539883"><ele>454.19999999999993</ele><time>2026-04-14T11:48:51.875Z</time></trkpt><trkpt lat="42.5062067" lon="-7.6538567"><ele>453.59999999999997</ele><time>2026-04-14T11:48:52.875Z</time></trkpt><trkpt lat="42.5062583" lon="-7.6537333"><ele>453.0</ele><time>2026-04-14T11:48:53.875Z</time></trkpt><trkpt lat="42.506305" lon="-7.6536217"><ele>453.0</ele><time>2026-04-14T11:48:54.875Z</time></trkpt><trkpt lat="42.5063667" lon="-7.653495"><ele>453.0</ele><time>2026-04-14T11:48:55.875Z</time></trkpt><trkpt lat="42.5064383" lon="-7.65335"><ele>453.0</ele><time>2026-04-14T11:48:56.875Z</time></trkpt><trkpt lat="42.5065117" lon="-7.6531867"><ele>453.0</ele><time>2026-04-14T11:48:57.875Z</time></trkpt><trkpt lat="42.5065767" lon="-7.6530183"><ele>453.0</ele><time>2026-04-14T11:48:58.875Z</time></trkpt><trkpt lat="42.50664" lon="-7.652855"><ele>453.0</ele><time>2026-04-14T11:48:59.875Z</time></trkpt><trkpt lat="42.5066817" lon="-7.6526867"><ele>453.0</ele><time>2026-04-14T11:49:00.875Z</time></trkpt><trkpt lat="42.5067317" lon="-7.6525167"><ele>453.0</ele><time>2026-04-14T11:49:01.874Z</time></trkpt><trkpt lat="42.5067767" lon="-7.6523517"><ele>451.75</ele><time>2026-04-14T11:49:02.874Z</time></trkpt><trkpt lat="42.5068383" lon="-7.6521867"><ele>450.5</ele><time>2026-04-14T11:49:03.874Z</time></trkpt><trkpt lat="42.5069117" lon="-7.6520217"><ele>449.25</ele><time>2026-04-14T11:49:04.874Z</time></trkpt><trkpt lat="42.5069917" lon="-7.6518467"><ele>448.0</ele><time>2026-04-14T11:49:05.874Z</time></trkpt><trkpt lat="42.5070767" lon="-7.6516567"><ele>443.6666666666667</ele><time>2026-04-14T11:49:06.874Z</time></trkpt><trkpt lat="42.5071467" lon="-7.65145"><ele>439.33333333333337</ele><time>2026-04-14T11:49:07.874Z</time></trkpt><trkpt lat="42.50721" lon="-7.6512217"><ele>435.0</ele><time>2026-04-14T11:49:08.874Z</time></trkpt><trkpt lat="42.5072667" lon="-7.65101"><ele>434.25</ele><time>2026-04-14T11:49:09.874Z</time></trkpt><trkpt lat="42.507325" lon="-7.6508117"><ele>433.5</ele><time>2026-04-14T11:49:10.874Z</time></trkpt><trkpt lat="42.5073817" lon="-7.6506417"><ele>432.75</ele><time>2026-04-14T11:49:11.874Z</time></trkpt><trkpt lat="42.5074367" lon="-7.6504733"><ele>432.0</ele><time>2026-04-14T11:49:12.874Z</time></trkpt><trkpt lat="42.50749" lon="-7.65031"><ele>431.0</ele><time>2026-04-14T11:49:13.874Z</time></trkpt><trkpt lat="42.5075417" lon="-7.65015"><ele>430.0</ele><time>2026-04-14T11:49:14.874Z</time></trkpt><trkpt lat="42.5076017" lon="-7.6499933"><ele>429.0</ele><time>2026-04-14T11:49:15.874Z</time></trkpt><trkpt lat="42.5076717" lon="-7.6498383"><ele>428.0</ele><time>2026-04-14T11:49:16.875Z</time></trkpt><trkpt lat="42.5077467" lon="-7.64967"><ele>428.0</ele><time>2026-04-14T11:49:17.874Z</time></trkpt><trkpt lat="42.5078133" lon="-7.6494983"><ele>428.0</ele><time>2026-04-14T11:49:18.875Z</time></trkpt><trkpt lat="42.507855" lon="-7.6493383"><ele>428.0</ele><time>2026-04-14T11:49:19.875Z</time></trkpt><trkpt lat="42.5078733" lon="-7.6491983"><ele>428.0</ele><time>2026-04-14T11:49:20.874Z</time></trkpt><trkpt lat="42.507865" lon="-7.6490767"><ele>427.79999999999995</ele><time>2026-04-14T11:49:21.874Z</time></trkpt><trkpt lat="42.5078317" lon="-7.648945"><ele>427.59999999999997</ele><time>2026-04-14T11:49:22.874Z</time></trkpt><trkpt lat="42.5077933" lon="-7.6488067"><ele>427.40000000000003</ele><time>2026-04-14T11:49:23.874Z</time></trkpt><trkpt lat="42.5077617" lon="-7.6486717"><ele>427.20000000000005</ele><time>2026-04-14T11:49:24.875Z</time></trkpt><trkpt lat="42.5077383" lon="-7.6485517"><ele>427.0</ele><time>2026-04-14T11:49:25.875Z</time></trkpt><trkpt lat="42.5077267" lon="-7.64845"><ele>427.0</ele><time>2026-04-14T11:49:26.874Z</time></trkpt><trkpt lat="42.5077167" lon="-7.648305"><ele>427.00000000000006</ele><time>2026-04-14T11:49:28.875Z</time></trkpt><trkpt lat="42.5076683" lon="-7.64816"><ele>427.00000000000006</ele><time>2026-04-14T11:49:30.875Z</time></trkpt><trkpt lat="42.5076317" lon="-7.6480783"><ele>427.0</ele><time>2026-04-14T11:49:31.874Z</time></trkpt><trkpt lat="42.5076083" lon="-7.6479917"><ele>427.0</ele><time>2026-04-14T11:49:32.875Z</time></trkpt><trkpt lat="42.5075617" lon="-7.64783"><ele>427.0</ele><time>2026-04-14T11:49:34.874Z</time></trkpt><trkpt lat="42.5075333" lon="-7.647735"><ele>427.00000000000006</ele><time>2026-04-14T11:49:35.874Z</time></trkpt><trkpt lat="42.5074783" lon="-7.64758"><ele>427.00000000000006</ele><time>2026-04-14T11:49:37.875Z</time></trkpt><trkpt lat="42.5074433" lon="-7.6475017"><ele>427.0</ele><time>2026-04-14T11:49:38.875Z</time></trkpt><trkpt lat="42.5074117" lon="-7.6474217"><ele>427.0</ele><time>2026-04-14T11:49:39.875Z</time></trkpt><trkpt lat="42.5073533" lon="-7.6472783"><ele>427.0</ele><time>2026-04-14T11:49:41.874Z</time></trkpt><trkpt lat="42.5073267" lon="-7.6471417"><ele>427.00000000000006</ele><time>2026-04-14T11:49:43.875Z</time></trkpt><trkpt lat="42.50733" lon="-7.647015"><ele>427.00000000000006</ele><time>2026-04-14T11:49:45.874Z</time></trkpt><trkpt lat="42.5073767" lon="-7.646865"><ele>427.0</ele><time>2026-04-14T11:49:47.874Z</time></trkpt><trkpt lat="42.507425" lon="-7.6467933"><ele>427.0</ele><time>2026-04-14T11:49:48.874Z</time></trkpt><trkpt lat="42.5074767" lon="-7.6467283"><ele>427.8</ele><time>2026-04-14T11:49:49.874Z</time></trkpt><trkpt lat="42.507525" lon="-7.6466633"><ele>428.6</ele><time>2026-04-14T11:49:50.874Z</time></trkpt><trkpt lat="42.5075917" lon="-7.6465683"><ele>429.40000000000003</ele><time>2026-04-14T11:49:52.875Z</time></trkpt><trkpt lat="42.507665" lon="-7.6465217"><ele>430.20000000000005</ele><time>2026-04-14T11:49:57.874Z</time></trkpt><trkpt lat="42.507775" lon="-7.6464833"><ele>431.0</ele><time>2026-04-14T11:49:59.875Z</time></trkpt><trkpt lat="42.507875" lon="-7.6464333"><ele>430.66666666666663</ele><time>2026-04-14T11:50:01.875Z</time></trkpt><trkpt lat="42.5079433" lon="-7.6463617"><ele>430.3333333333333</ele><time>2026-04-14T11:50:03.875Z</time></trkpt><trkpt lat="42.507975" lon="-7.6461867"><ele>430.0</ele><time>2026-04-14T11:50:05.875Z</time></trkpt><trkpt lat="42.5079983" lon="-7.646075"><ele>429.66666666666663</ele><time>2026-04-14T11:50:06.874Z</time></trkpt><trkpt lat="42.5080167" lon="-7.64598"><ele>429.3333333333333</ele><time>2026-04-14T11:50:07.875Z</time></trkpt><trkpt lat="42.50803" lon="-7.6458917"><ele>429.0</ele><time>2026-04-14T11:50:08.875Z</time></trkpt><trkpt lat="42.5080417" lon="-7.6458067"><ele>429.0</ele><time>2026-04-14T11:50:09.875Z</time></trkpt><trkpt lat="42.5080617" lon="-7.64572"><ele>429.0</ele><time>2026-04-14T11:50:10.874Z</time></trkpt><trkpt lat="42.508085" lon="-7.6456367"><ele>429.0</ele><time>2026-04-14T11:50:11.874Z</time></trkpt><trkpt lat="42.5081117" lon="-7.6455467"><ele>429.0</ele><time>2026-04-14T11:50:12.874Z</time></trkpt><trkpt lat="42.5081367" lon="-7.64545"><ele>429.0</ele><time>2026-04-14T11:50:13.874Z</time></trkpt><trkpt lat="42.508165" lon="-7.6453483"><ele>429.0</ele><time>2026-04-14T11:50:14.874Z</time></trkpt><trkpt lat="42.5081983" lon="-7.6452483"><ele>429.0</ele><time>2026-04-14T11:50:15.875Z</time></trkpt><trkpt lat="42.508245" lon="-7.6451717"><ele>429.5</ele><time>2026-04-14T11:50:16.875Z</time></trkpt><trkpt lat="42.5082767" lon="-7.6450167"><ele>430.0</ele><time>2026-04-14T11:50:18.874Z</time></trkpt><trkpt lat="42.5083033" lon="-7.6448483"><ele>430.5</ele><time>2026-04-14T11:50:20.875Z</time></trkpt><trkpt lat="42.5083267" lon="-7.6447667"><ele>431.0</ele><time>2026-04-14T11:50:21.874Z</time></trkpt><trkpt lat="42.50835" lon="-7.6446867"><ele>431.5</ele><time>2026-04-14T11:50:22.874Z</time></trkpt><trkpt lat="42.5083767" lon="-7.644605"><ele>432.0</ele><time>2026-04-14T11:50:23.875Z</time></trkpt><trkpt lat="42.5084017" lon="-7.644515"><ele>433.40000000000003</ele><time>2026-04-14T11:50:24.875Z</time></trkpt><trkpt lat="42.50843" lon="-7.6444217"><ele>434.80000000000007</ele><time>2026-04-14T11:50:25.875Z</time></trkpt><trkpt lat="42.5084517" lon="-7.6443383"><ele>436.2</ele><time>2026-04-14T11:50:26.874Z</time></trkpt><trkpt lat="42.508495" lon="-7.64419"><ele>437.6</ele><time>2026-04-14T11:50:28.875Z</time></trkpt><trkpt lat="42.50854" lon="-7.6440517"><ele>439.0</ele><time>2026-04-14T11:50:30.874Z</time></trkpt><trkpt lat="42.5085833" lon="-7.643885"><ele>439.00000000000006</ele><time>2026-04-14T11:50:32.875Z</time></trkpt><trkpt lat="42.50861" lon="-7.6437933"><ele>439.0</ele><time>2026-04-14T11:50:33.874Z</time></trkpt><trkpt lat="42.5086267" lon="-7.6437067"><ele>439.0</ele><time>2026-04-14T11:50:34.874Z</time></trkpt><trkpt lat="42.5086433" lon="-7.6436133"><ele>439.0</ele><time>2026-04-14T11:50:35.874Z</time></trkpt><trkpt lat="42.50867" lon="-7.6434917"><ele>439.00000000000006</ele><time>2026-04-14T11:50:36.874Z</time></trkpt><trkpt lat="42.5086883" lon="-7.6433983"><ele>439.0</ele><time>2026-04-14T11:50:37.875Z</time></trkpt><trkpt lat="42.5087183" lon="-7.6432917"><ele>438.83333333333337</ele><time>2026-04-14T11:50:38.875Z</time></trkpt><trkpt lat="42.5087367" lon="-7.6431933"><ele>438.6666666666667</ele><time>2026-04-14T11:50:39.874Z</time></trkpt><trkpt lat="42.5087567" lon="-7.6431017"><ele>438.5</ele><time>2026-04-14T11:50:40.874Z</time></trkpt><trkpt lat="42.5087717" lon="-7.6429983"><ele>438.33333333333337</ele><time>2026-04-14T11:50:41.875Z</time></trkpt><trkpt lat="42.50879" lon="-7.6428933"><ele>438.1666666666667</ele><time>2026-04-14T11:50:42.874Z</time></trkpt><trkpt lat="42.508795" lon="-7.6427883"><ele>438.0</ele><time>2026-04-14T11:50:43.874Z</time></trkpt><trkpt lat="42.5088" lon="-7.6426833"><ele>436.1666666666667</ele><time>2026-04-14T11:50:44.875Z</time></trkpt><trkpt lat="42.508805" lon="-7.6425733"><ele>434.33333333333337</ele><time>2026-04-14T11:50:45.874Z</time></trkpt><trkpt lat="42.508815" lon="-7.642465"><ele>432.5</ele><time>2026-04-14T11:50:46.874Z</time></trkpt><trkpt lat="42.50883" lon="-7.6423567"><ele>430.6666666666667</ele><time>2026-04-14T11:50:47.875Z</time></trkpt><trkpt lat="42.5088317" lon="-7.6422517"><ele>428.83333333333337</ele><time>2026-04-14T11:50:48.875Z</time></trkpt><trkpt lat="42.5088233" lon="-7.642145"><ele>427.0</ele><time>2026-04-14T11:50:49.875Z</time></trkpt><trkpt lat="42.50879" lon="-7.6420317"><ele>427.8</ele><time>2026-04-14T11:50:50.874Z</time></trkpt><trkpt lat="42.5087367" lon="-7.6419017"><ele>428.6</ele><time>2026-04-14T11:50:51.874Z</time></trkpt><trkpt lat="42.5086783" lon="-7.6417917"><ele>429.40000000000003</ele><time>2026-04-14T11:50:52.874Z</time></trkpt><trkpt lat="42.508625" lon="-7.641695"><ele>430.20000000000005</ele><time>2026-04-14T11:50:53.875Z</time></trkpt><trkpt lat="42.5085667" lon="-7.6415967"><ele>431.0</ele><time>2026-04-14T11:50:54.874Z</time></trkpt><trkpt lat="42.5085067" lon="-7.6415033"><ele>431.0</ele><time>2026-04-14T11:50:55.875Z</time></trkpt><trkpt lat="42.50844" lon="-7.64142"><ele>431.0</ele><time>2026-04-14T11:50:56.875Z</time></trkpt><trkpt lat="42.5083767" lon="-7.64133"><ele>431.0</ele><time>2026-04-14T11:50:57.875Z</time></trkpt><trkpt lat="42.50831" lon="-7.6412433"><ele>431.0</ele><time>2026-04-14T11:50:58.874Z</time></trkpt><trkpt lat="42.5082367" lon="-7.6411583"><ele>431.0</ele><time>2026-04-14T11:50:59.875Z</time></trkpt><trkpt lat="42.508165" lon="-7.6410667"><ele>430.6</ele><time>2026-04-14T11:51:00.874Z</time></trkpt><trkpt lat="42.50809" lon="-7.64097"><ele>430.20000000000005</ele><time>2026-04-14T11:51:01.874Z</time></trkpt><trkpt lat="42.5080133" lon="-7.640875"><ele>429.79999999999995</ele><time>2026-04-14T11:51:02.875Z</time></trkpt><trkpt lat="42.5079467" lon="-7.6407933"><ele>429.4</ele><time>2026-04-14T11:51:03.874Z</time></trkpt><trkpt lat="42.5078833" lon="-7.6407083"><ele>429.0</ele><time>2026-04-14T11:51:04.875Z</time></trkpt><trkpt lat="42.5078133" lon="-7.64063"><ele>429.0</ele><time>2026-04-14T11:51:05.875Z</time></trkpt><trkpt lat="42.5077417" lon="-7.64055"><ele>429.0</ele><time>2026-04-14T11:51:06.874Z</time></trkpt><trkpt lat="42.5076683" lon="-7.6404683"><ele>429.0</ele><time>2026-04-14T11:51:07.874Z</time></trkpt><trkpt lat="42.5076033" lon="-7.6403767"><ele>429.0</ele><time>2026-04-14T11:51:08.874Z</time></trkpt><trkpt lat="42.5075283" lon="-7.6402883"><ele>429.0</ele><time>2026-04-14T11:51:09.874Z</time></trkpt><trkpt lat="42.5074517" lon="-7.6401967"><ele>428.79999999999995</ele><time>2026-04-14T11:51:10.875Z</time></trkpt><trkpt lat="42.5073733" lon="-7.6401033"><ele>428.59999999999997</ele><time>2026-04-14T11:51:11.874Z</time></trkpt><trkpt lat="42.5072983" lon="-7.6400083"><ele>428.4</ele><time>2026-04-14T11:51:12.875Z</time></trkpt><trkpt lat="42.50722" lon="-7.6399"><ele>428.2</ele><time>2026-04-14T11:51:13.875Z</time></trkpt><trkpt lat="42.5071383" lon="-7.6398"><ele>428.0</ele><time>2026-04-14T11:51:14.875Z</time></trkpt><trkpt lat="42.5070583" lon="-7.6397017"><ele>427.79999999999995</ele><time>2026-04-14T11:51:15.875Z</time></trkpt><trkpt lat="42.50698" lon="-7.6395983"><ele>427.59999999999997</ele><time>2026-04-14T11:51:16.874Z</time></trkpt><trkpt lat="42.5068983" lon="-7.6394867"><ele>427.40000000000003</ele><time>2026-04-14T11:51:17.874Z</time></trkpt><trkpt lat="42.5068167" lon="-7.63938"><ele>427.20000000000005</ele><time>2026-04-14T11:51:18.874Z</time></trkpt><trkpt lat="42.5067383" lon="-7.639275"><ele>427.0</ele><time>2026-04-14T11:51:19.875Z</time></trkpt><trkpt lat="42.5066667" lon="-7.63916"><ele>428.0</ele><time>2026-04-14T11:51:20.874Z</time></trkpt><trkpt lat="42.5066033" lon="-7.6390333"><ele>429.0</ele><time>2026-04-14T11:51:21.875Z</time></trkpt><trkpt lat="42.5065483" lon="-7.6388917"><ele>430.0</ele><time>2026-04-14T11:51:22.875Z</time></trkpt><trkpt lat="42.506505" lon="-7.63874"><ele>431.0</ele><time>2026-04-14T11:51:23.874Z</time></trkpt><trkpt lat="42.50647" lon="-7.6385933"><ele>432.25</ele><time>2026-04-14T11:51:24.874Z</time></trkpt><trkpt lat="42.5064317" lon="-7.6384533"><ele>433.5</ele><time>2026-04-14T11:51:25.875Z</time></trkpt><trkpt lat="42.5063933" lon="-7.6383117"><ele>434.75</ele><time>2026-04-14T11:51:26.875Z</time></trkpt><trkpt lat="42.5063567" lon="-7.6381633"><ele>436.0</ele><time>2026-04-14T11:51:27.875Z</time></trkpt><trkpt lat="42.5063167" lon="-7.638015"><ele>436.0</ele><time>2026-04-14T11:51:28.874Z</time></trkpt><trkpt lat="42.5062817" lon="-7.6378667"><ele>436.0</ele><time>2026-04-14T11:51:29.874Z</time></trkpt><trkpt lat="42.50625" lon="-7.63772"><ele>436.0</ele><time>2026-04-14T11:51:30.875Z</time></trkpt><trkpt lat="42.506215" lon="-7.6375767"><ele>436.0</ele><time>2026-04-14T11:51:31.874Z</time></trkpt><trkpt lat="42.5061817" lon="-7.6374333"><ele>436.0</ele><time>2026-04-14T11:51:32.874Z</time></trkpt><trkpt lat="42.5061433" lon="-7.6372833"><ele>436.0</ele><time>2026-04-14T11:51:33.874Z</time></trkpt><trkpt lat="42.5061133" lon="-7.637135"><ele>436.0</ele><time>2026-04-14T11:51:34.875Z</time></trkpt><trkpt lat="42.5060767" lon="-7.6369783"><ele>436.0</ele><time>2026-04-14T11:51:35.874Z</time></trkpt><trkpt lat="42.5060417" lon="-7.6368183"><ele>435.25</ele><time>2026-04-14T11:51:36.874Z</time></trkpt><trkpt lat="42.50601" lon="-7.6366517"><ele>434.5</ele><time>2026-04-14T11:51:37.874Z</time></trkpt><trkpt lat="42.5059717" lon="-7.6365"><ele>433.75</ele><time>2026-04-14T11:51:38.874Z</time></trkpt><trkpt lat="42.5059333" lon="-7.636355"><ele>433.0</ele><time>2026-04-14T11:51:39.875Z</time></trkpt><trkpt lat="42.5058983" lon="-7.6362033"><ele>432.25</ele><time>2026-04-14T11:51:40.874Z</time></trkpt><trkpt lat="42.50586" lon="-7.6360533"><ele>431.5</ele><time>2026-04-14T11:51:41.875Z</time></trkpt><trkpt lat="42.50582" lon="-7.6359033"><ele>430.75</ele><time>2026-04-14T11:51:42.875Z</time></trkpt><trkpt lat="42.505785" lon="-7.6357467"><ele>430.0</ele><time>2026-04-14T11:51:43.874Z</time></trkpt><trkpt lat="42.505745" lon="-7.6355867"><ele>430.0</ele><time>2026-04-14T11:51:44.874Z</time></trkpt><trkpt lat="42.5057067" lon="-7.6354233"><ele>430.0</ele><time>2026-04-14T11:51:45.874Z</time></trkpt><trkpt lat="42.5056733" lon="-7.6352567"><ele>430.0</ele><time>2026-04-14T11:51:46.875Z</time></trkpt><trkpt lat="42.5056317" lon="-7.6350967"><ele>430.0</ele><time>2026-04-14T11:51:47.874Z</time></trkpt><trkpt lat="42.50559" lon="-7.6349333"><ele>428.5</ele><time>2026-04-14T11:51:48.874Z</time></trkpt><trkpt lat="42.5055433" lon="-7.6347717"><ele>427.0</ele><time>2026-04-14T11:51:49.874Z</time></trkpt><trkpt lat="42.505495" lon="-7.634605"><ele>425.5</ele><time>2026-04-14T11:51:50.875Z</time></trkpt><trkpt lat="42.50545" lon="-7.634435"><ele>424.0</ele><time>2026-04-14T11:51:51.874Z</time></trkpt><trkpt lat="42.5054067" lon="-7.6342667"><ele>423.25</ele><time>2026-04-14T11:51:52.875Z</time></trkpt><trkpt lat="42.5053733" lon="-7.6341017"><ele>422.5</ele><time>2026-04-14T11:51:53.875Z</time></trkpt><trkpt lat="42.505335" lon="-7.6339317"><ele>421.75</ele><time>2026-04-14T11:51:54.874Z</time></trkpt><trkpt lat="42.505295" lon="-7.6337633"><ele>421.0</ele><time>2026-04-14T11:51:55.874Z</time></trkpt><trkpt lat="42.5052567" lon="-7.6335967"><ele>420.4</ele><time>2026-04-14T11:51:56.875Z</time></trkpt><trkpt lat="42.5052183" lon="-7.6334317"><ele>419.8</ele><time>2026-04-14T11:51:57.875Z</time></trkpt><trkpt lat="42.5051783" lon="-7.6332817"><ele>419.2</ele><time>2026-04-14T11:51:58.875Z</time></trkpt><trkpt lat="42.50514" lon="-7.6331433"><ele>418.59999999999997</ele><time>2026-04-14T11:51:59.874Z</time></trkpt><trkpt lat="42.5051117" lon="-7.63302"><ele>418.0</ele><time>2026-04-14T11:52:00.874Z</time></trkpt><trkpt lat="42.5050883" lon="-7.6329017"><ele>417.1666666666667</ele><time>2026-04-14T11:52:01.874Z</time></trkpt><trkpt lat="42.5050633" lon="-7.63279"><ele>416.33333333333337</ele><time>2026-04-14T11:52:02.874Z</time></trkpt><trkpt lat="42.5050383" lon="-7.6326883"><ele>415.5</ele><time>2026-04-14T11:52:03.875Z</time></trkpt><trkpt lat="42.504995" lon="-7.6325883"><ele>414.66666666666663</ele><time>2026-04-14T11:52:04.875Z</time></trkpt><trkpt lat="42.50494" lon="-7.6325067"><ele>413.8333333333333</ele><time>2026-04-14T11:52:05.875Z</time></trkpt><trkpt lat="42.5048717" lon="-7.632465"><ele>413.0</ele><time>2026-04-14T11:52:06.875Z</time></trkpt><trkpt lat="42.5047833" lon="-7.6323767"><ele>413.0</ele><time>2026-04-14T11:52:08.876Z</time></trkpt><trkpt lat="42.5047633" lon="-7.6322667"><ele>413.0</ele><time>2026-04-14T11:52:10.876Z</time></trkpt><trkpt lat="42.5048117" lon="-7.63217"><ele>413.0</ele><time>2026-04-14T11:52:12.875Z</time></trkpt><trkpt lat="42.5048517" lon="-7.632015"><ele>413.0</ele><time>2026-04-14T11:52:14.876Z</time></trkpt><trkpt lat="42.50486" lon="-7.6318917"><ele>413.0</ele><time>2026-04-14T11:52:15.875Z</time></trkpt><trkpt lat="42.5048633" lon="-7.6317433"><ele>412.75</ele><time>2026-04-14T11:52:16.875Z</time></trkpt><trkpt lat="42.5048767" lon="-7.6315883"><ele>412.5</ele><time>2026-04-14T11:52:17.875Z</time></trkpt><trkpt lat="42.50489" lon="-7.6314283"><ele>412.25</ele><time>2026-04-14T11:52:18.875Z</time></trkpt><trkpt lat="42.5049" lon="-7.631275"><ele>412.0</ele><time>2026-04-14T11:52:19.875Z</time></trkpt><trkpt lat="42.5049133" lon="-7.6311333"><ele>412.0</ele><time>2026-04-14T11:52:20.876Z</time></trkpt><trkpt lat="42.5049267" lon="-7.631"><ele>412.0</ele><time>2026-04-14T11:52:21.876Z</time></trkpt><trkpt lat="42.5049383" lon="-7.630865"><ele>412.0</ele><time>2026-04-14T11:52:22.875Z</time></trkpt><trkpt lat="42.5049483" lon="-7.63073"><ele>412.0</ele><time>2026-04-14T11:52:23.876Z</time></trkpt><trkpt lat="42.5049533" lon="-7.6306"><ele>412.0</ele><time>2026-04-14T11:52:24.875Z</time></trkpt><trkpt lat="42.5049583" lon="-7.6304683"><ele>412.0</ele><time>2026-04-14T11:52:25.876Z</time></trkpt><trkpt lat="42.50496" lon="-7.6303333"><ele>412.0</ele><time>2026-04-14T11:52:26.875Z</time></trkpt><trkpt lat="42.5049583" lon="-7.6301983"><ele>412.0</ele><time>2026-04-14T11:52:27.875Z</time></trkpt><trkpt lat="42.5049517" lon="-7.6300683"><ele>412.0</ele><time>2026-04-14T11:52:28.875Z</time></trkpt><trkpt lat="42.504945" lon="-7.62994"><ele>412.0</ele><time>2026-04-14T11:52:29.876Z</time></trkpt><trkpt lat="42.5049417" lon="-7.6298183"><ele>412.0</ele><time>2026-04-14T11:52:30.875Z</time></trkpt><trkpt lat="42.5049383" lon="-7.629695"><ele>412.0</ele><time>2026-04-14T11:52:31.876Z</time></trkpt><trkpt lat="42.504935" lon="-7.62957"><ele>412.0</ele><time>2026-04-14T11:52:32.875Z</time></trkpt><trkpt lat="42.50493" lon="-7.6294483"><ele>412.0</ele><time>2026-04-14T11:52:33.876Z</time></trkpt><trkpt lat="42.5049217" lon="-7.62933"><ele>412.0</ele><time>2026-04-14T11:52:34.876Z</time></trkpt><trkpt lat="42.5049083" lon="-7.6292017"><ele>411.8</ele><time>2026-04-14T11:52:35.876Z</time></trkpt><trkpt lat="42.5048967" lon="-7.6290633"><ele>411.6</ele><time>2026-04-14T11:52:36.876Z</time></trkpt><trkpt lat="42.5048817" lon="-7.6289333"><ele>411.40000000000003</ele><time>2026-04-14T11:52:37.876Z</time></trkpt><trkpt lat="42.5048617" lon="-7.6287967"><ele>411.20000000000005</ele><time>2026-04-14T11:52:38.876Z</time></trkpt><trkpt lat="42.504845" lon="-7.6286567"><ele>411.0</ele><time>2026-04-14T11:52:39.876Z</time></trkpt><trkpt lat="42.50484" lon="-7.62853"><ele>410.3333333333333</ele><time>2026-04-14T11:52:40.876Z</time></trkpt><trkpt lat="42.5048383" lon="-7.6284017"><ele>409.66666666666663</ele><time>2026-04-14T11:52:41.876Z</time></trkpt><trkpt lat="42.5048483" lon="-7.6282783"><ele>409.0</ele><time>2026-04-14T11:52:42.875Z</time></trkpt><trkpt lat="42.50486" lon="-7.628155"><ele>408.3333333333333</ele><time>2026-04-14T11:52:43.875Z</time></trkpt><trkpt lat="42.5048733" lon="-7.6280517"><ele>407.66666666666663</ele><time>2026-04-14T11:52:44.876Z</time></trkpt><trkpt lat="42.5048917" lon="-7.6279683"><ele>407.0</ele><time>2026-04-14T11:52:45.876Z</time></trkpt><trkpt lat="42.5049067" lon="-7.62784"><ele>406.3333333333333</ele><time>2026-04-14T11:52:47.876Z</time></trkpt><trkpt lat="42.5049067" lon="-7.62775"><ele>405.66666666666663</ele><time>2026-04-14T11:52:50.875Z</time></trkpt><trkpt lat="42.50497" lon="-7.6276567"><ele>405.0</ele><time>2026-04-14T12:01:12.876Z</time></trkpt><trkpt lat="42.50498" lon="-7.6275283"><ele>404.33333333333337</ele><time>2026-04-14T12:24:03.881Z</time></trkpt><trkpt lat="42.5050017" lon="-7.62741"><ele>403.6666666666667</ele><time>2026-04-14T12:24:05.88Z</time></trkpt><trkpt lat="42.5050183" lon="-7.6273133"><ele>403.0</ele><time>2026-04-14T12:24:06.88Z</time></trkpt><trkpt lat="42.5050383" lon="-7.627215"><ele>403.0</ele><time>2026-04-14T12:24:07.881Z</time></trkpt><trkpt lat="42.5050567" lon="-7.6271283"><ele>403.0</ele><time>2026-04-14T12:24:08.88Z</time></trkpt><trkpt lat="42.505075" lon="-7.62704"><ele>403.0</ele><time>2026-04-14T12:24:09.88Z</time></trkpt><trkpt lat="42.5050917" lon="-7.6269417"><ele>403.0</ele><time>2026-04-14T12:24:10.88Z</time></trkpt><trkpt lat="42.5051133" lon="-7.626855"><ele>403.0</ele><time>2026-04-14T12:24:11.881Z</time></trkpt><trkpt lat="42.5051317" lon="-7.6267683"><ele>403.0</ele><time>2026-04-14T12:24:12.88Z</time></trkpt><trkpt lat="42.5051517" lon="-7.6266817"><ele>403.0</ele><time>2026-04-14T12:24:13.881Z</time></trkpt><trkpt lat="42.50517" lon="-7.6265933"><ele>402.0</ele><time>2026-04-14T12:24:14.88Z</time></trkpt><trkpt lat="42.5051867" lon="-7.626505"><ele>401.0</ele><time>2026-04-14T12:24:15.881Z</time></trkpt><trkpt lat="42.5052033" lon="-7.6264183"><ele>400.0</ele><time>2026-04-14T12:24:16.881Z</time></trkpt><trkpt lat="42.5052267" lon="-7.6263383"><ele>399.0</ele><time>2026-04-14T12:24:17.881Z</time></trkpt><trkpt lat="42.505255" lon="-7.626255"><ele>398.0</ele><time>2026-04-14T12:24:18.88Z</time></trkpt><trkpt lat="42.5052917" lon="-7.6261767"><ele>397.0</ele><time>2026-04-14T12:24:19.881Z</time></trkpt><trkpt lat="42.50533" lon="-7.6261033"><ele>396.0</ele><time>2026-04-14T12:24:20.881Z</time></trkpt><trkpt lat="42.5054017" lon="-7.6259717"><ele>395.20000000000005</ele><time>2026-04-14T12:24:22.88Z</time></trkpt><trkpt lat="42.50544" lon="-7.6259033"><ele>394.40000000000003</ele><time>2026-04-14T12:24:23.88Z</time></trkpt><trkpt lat="42.505515" lon="-7.625775"><ele>393.6</ele><time>2026-04-14T12:24:25.88Z</time></trkpt><trkpt lat="42.5055983" lon="-7.625665"><ele>392.8</ele><time>2026-04-14T12:24:27.881Z</time></trkpt><trkpt lat="42.505685" lon="-7.6255567"><ele>392.0</ele><time>2026-04-14T12:24:29.88Z</time></trkpt><trkpt lat="42.5057317" lon="-7.625495"><ele>392.0</ele><time>2026-04-14T12:24:30.88Z</time></trkpt><trkpt lat="42.50578" lon="-7.6254283"><ele>392.0</ele><time>2026-04-14T12:24:31.88Z</time></trkpt><trkpt lat="42.5058283" lon="-7.62536"><ele>392.0</ele><time>2026-04-14T12:24:32.881Z</time></trkpt><trkpt lat="42.5058733" lon="-7.6252917"><ele>392.0</ele><time>2026-04-14T12:24:33.88Z</time></trkpt><trkpt lat="42.505915" lon="-7.6252233"><ele>392.0</ele><time>2026-04-14T12:24:34.88Z</time></trkpt><trkpt lat="42.5059583" lon="-7.62516"><ele>392.0</ele><time>2026-04-14T12:24:35.88Z</time></trkpt><trkpt lat="42.506" lon="-7.6250867"><ele>392.0</ele><time>2026-04-14T12:24:36.88Z</time></trkpt><trkpt lat="42.50604" lon="-7.6250167"><ele>391.2857142857143</ele><time>2026-04-14T12:24:37.881Z</time></trkpt><trkpt lat="42.5060817" lon="-7.62495"><ele>390.57142857142856</ele><time>2026-04-14T12:24:38.881Z</time></trkpt><trkpt lat="42.506125" lon="-7.62488"><ele>389.8571428571429</ele><time>2026-04-14T12:24:39.88Z</time></trkpt><trkpt lat="42.5061683" lon="-7.6248117"><ele>389.1428571428571</ele><time>2026-04-14T12:24:40.88Z</time></trkpt><trkpt lat="42.506215" lon="-7.6247433"><ele>388.42857142857144</ele><time>2026-04-14T12:24:41.88Z</time></trkpt><trkpt lat="42.5062633" lon="-7.62468"><ele>387.7142857142857</ele><time>2026-04-14T12:24:42.88Z</time></trkpt><trkpt lat="42.5063033" lon="-7.62461"><ele>387.0</ele><time>2026-04-14T12:24:43.88Z</time></trkpt><trkpt lat="42.5063467" lon="-7.6245333"><ele>386.3333333333333</ele><time>2026-04-14T12:24:44.88Z</time></trkpt><trkpt lat="42.5063883" lon="-7.6244617"><ele>385.6666666666667</ele><time>2026-04-14T12:24:45.88Z</time></trkpt><trkpt lat="42.50643" lon="-7.6243917"><ele>385.0</ele><time>2026-04-14T12:24:46.88Z</time></trkpt><trkpt lat="42.50647" lon="-7.6243233"><ele>384.33333333333337</ele><time>2026-04-14T12:24:47.88Z</time></trkpt><trkpt lat="42.5065333" lon="-7.62418"><ele>383.6666666666667</ele><time>2026-04-14T12:24:49.88Z</time></trkpt><trkpt lat="42.50657" lon="-7.6241067"><ele>383.0</ele><time>2026-04-14T12:24:50.88Z</time></trkpt><trkpt lat="42.506605" lon="-7.624025"><ele>383.0</ele><time>2026-04-14T12:24:51.88Z</time></trkpt><trkpt lat="42.506635" lon="-7.623935"><ele>383.0</ele><time>2026-04-14T12:24:52.88Z</time></trkpt><trkpt lat="42.5066483" lon="-7.62383"><ele>383.0</ele><time>2026-04-14T12:24:53.881Z</time></trkpt><trkpt lat="42.5066567" lon="-7.62373"><ele>383.0</ele><time>2026-04-14T12:24:54.88Z</time></trkpt><trkpt lat="42.5066467" lon="-7.6236167"><ele>383.0</ele><time>2026-04-14T12:24:55.88Z</time></trkpt><trkpt lat="42.5066333" lon="-7.6235"><ele>383.0</ele><time>2026-04-14T12:24:56.88Z</time></trkpt><trkpt lat="42.5066083" lon="-7.6233833"><ele>381.83333333333337</ele><time>2026-04-14T12:24:57.881Z</time></trkpt><trkpt lat="42.506575" lon="-7.6232783"><ele>380.6666666666667</ele><time>2026-04-14T12:24:58.881Z</time></trkpt><trkpt lat="42.50654" lon="-7.6231767"><ele>379.5</ele><time>2026-04-14T12:24:59.881Z</time></trkpt><trkpt lat="42.5064967" lon="-7.6230783"><ele>378.3333333333333</ele><time>2026-04-14T12:25:00.881Z</time></trkpt><trkpt lat="42.5064567" lon="-7.6229817"><ele>377.16666666666663</ele><time>2026-04-14T12:25:01.881Z</time></trkpt><trkpt lat="42.5064167" lon="-7.6228833"><ele>376.0</ele><time>2026-04-14T12:25:02.88Z</time></trkpt><trkpt lat="42.5063767" lon="-7.6227883"><ele>375.0</ele><time>2026-04-14T12:25:03.88Z</time></trkpt><trkpt lat="42.5063433" lon="-7.6226967"><ele>374.0</ele><time>2026-04-14T12:25:04.88Z</time></trkpt><trkpt lat="42.5063283" lon="-7.6226117"><ele>373.0</ele><time>2026-04-14T12:25:05.88Z</time></trkpt><trkpt lat="42.5063183" lon="-7.622525"><ele>372.0</ele><time>2026-04-14T12:25:06.88Z</time></trkpt><trkpt lat="42.5063133" lon="-7.6223767"><ele>371.0</ele><time>2026-04-14T12:25:08.88Z</time></trkpt><trkpt lat="42.5063483" lon="-7.622215"><ele>370.0</ele><time>2026-04-14T12:25:10.88Z</time></trkpt><trkpt lat="42.5063817" lon="-7.6221233"><ele>370.0</ele><time>2026-04-14T12:25:11.881Z</time></trkpt><trkpt lat="42.5064267" lon="-7.6220367"><ele>370.0</ele><time>2026-04-14T12:25:12.88Z</time></trkpt><trkpt lat="42.506475" lon="-7.6219517"><ele>370.0</ele><time>2026-04-14T12:25:13.88Z</time></trkpt><trkpt lat="42.506525" lon="-7.6218667"><ele>370.0</ele><time>2026-04-14T12:25:14.88Z</time></trkpt><trkpt lat="42.5065783" lon="-7.621785"><ele>370.0</ele><time>2026-04-14T12:25:15.88Z</time></trkpt><trkpt lat="42.5066333" lon="-7.6217067"><ele>370.0</ele><time>2026-04-14T12:25:16.881Z</time></trkpt><trkpt lat="42.5066917" lon="-7.6216067"><ele>369.6</ele><time>2026-04-14T12:25:17.88Z</time></trkpt><trkpt lat="42.5067483" lon="-7.621505"><ele>369.2</ele><time>2026-04-14T12:25:18.881Z</time></trkpt><trkpt lat="42.5068067" lon="-7.6214"><ele>368.79999999999995</ele><time>2026-04-14T12:25:19.881Z</time></trkpt><trkpt lat="42.5068617" lon="-7.6212983"><ele>368.4</ele><time>2026-04-14T12:25:20.88Z</time></trkpt><trkpt lat="42.50691" lon="-7.6212"><ele>368.0</ele><time>2026-04-14T12:25:21.881Z</time></trkpt><trkpt lat="42.5069533" lon="-7.6211033"><ele>368.0</ele><time>2026-04-14T12:25:22.88Z</time></trkpt><trkpt lat="42.5069883" lon="-7.6210083"><ele>368.0</ele><time>2026-04-14T12:25:23.881Z</time></trkpt><trkpt lat="42.507" lon="-7.6209183"><ele>368.0</ele><time>2026-04-14T12:25:24.881Z</time></trkpt><trkpt lat="42.5069567" lon="-7.6207683"><ele>368.0</ele><time>2026-04-14T12:25:26.88Z</time></trkpt><trkpt lat="42.506905" lon="-7.6207183"><ele>368.0</ele><time>2026-04-14T12:25:27.88Z</time></trkpt><trkpt lat="42.50684" lon="-7.620665"><ele>368.0</ele><time>2026-04-14T12:25:28.88Z</time></trkpt><trkpt lat="42.5067567" lon="-7.6206033"><ele>368.0</ele><time>2026-04-14T12:25:29.88Z</time></trkpt><trkpt lat="42.5066683" lon="-7.6205333"><ele>368.0</ele><time>2026-04-14T12:25:30.881Z</time></trkpt><trkpt lat="42.5065767" lon="-7.6204533"><ele>368.0</ele><time>2026-04-14T12:25:31.881Z</time></trkpt><trkpt lat="42.5064817" lon="-7.620365"><ele>368.0</ele><time>2026-04-14T12:25:32.88Z</time></trkpt><trkpt lat="42.5063917" lon="-7.6202833"><ele>368.0</ele><time>2026-04-14T12:25:33.88Z</time></trkpt><trkpt lat="42.506305" lon="-7.62022"><ele>368.0</ele><time>2026-04-14T12:25:34.881Z</time></trkpt><trkpt lat="42.50622" lon="-7.62018"><ele>368.0</ele><time>2026-04-14T12:25:35.881Z</time></trkpt><trkpt lat="42.5061433" lon="-7.6201667"><ele>368.0</ele><time>2026-04-14T12:25:36.88Z</time></trkpt><trkpt lat="42.5060633" lon="-7.6201783"><ele>368.0</ele><time>2026-04-14T12:25:37.88Z</time></trkpt><trkpt lat="42.50598" lon="-7.620205"><ele>368.0</ele><time>2026-04-14T12:25:38.881Z</time></trkpt><trkpt lat="42.5058983" lon="-7.6202267"><ele>368.0</ele><time>2026-04-14T12:25:39.88Z</time></trkpt><trkpt lat="42.5058083" lon="-7.6202533"><ele>368.0</ele><time>2026-04-14T12:25:40.88Z</time></trkpt><trkpt lat="42.5057233" lon="-7.6202717"><ele>368.0</ele><time>2026-04-14T12:25:41.881Z</time></trkpt><trkpt lat="42.50562" lon="-7.6202933"><ele>368.0</ele><time>2026-04-14T12:25:42.881Z</time></trkpt><trkpt lat="42.5055283" lon="-7.6203117"><ele>368.0</ele><time>2026-04-14T12:25:43.88Z</time></trkpt><trkpt lat="42.5054383" lon="-7.6203433"><ele>368.0</ele><time>2026-04-14T12:25:44.88Z</time></trkpt><trkpt lat="42.50534" lon="-7.6203567"><ele>367.33333333333337</ele><time>2026-04-14T12:25:45.881Z</time></trkpt><trkpt lat="42.5052483" lon="-7.620365"><ele>366.6666666666667</ele><time>2026-04-14T12:25:46.88Z</time></trkpt><trkpt lat="42.5051633" lon="-7.6203533"><ele>366.0</ele><time>2026-04-14T12:25:47.881Z</time></trkpt><trkpt lat="42.5050883" lon="-7.6203233"><ele>365.3333333333333</ele><time>2026-04-14T12:25:48.88Z</time></trkpt><trkpt lat="42.505025" lon="-7.6202783"><ele>364.66666666666663</ele><time>2026-04-14T12:25:49.88Z</time></trkpt><trkpt lat="42.50496" lon="-7.6202217"><ele>364.0</ele><time>2026-04-14T12:25:50.881Z</time></trkpt><trkpt lat="42.5049067" lon="-7.6201333"><ele>364.0</ele><time>2026-04-14T12:25:51.88Z</time></trkpt><trkpt lat="42.50486" lon="-7.62002"><ele>364.0</ele><time>2026-04-14T12:25:52.881Z</time></trkpt><trkpt lat="42.5048333" lon="-7.6199"><ele>364.0</ele><time>2026-04-14T12:25:53.88Z</time></trkpt><trkpt lat="42.5048333" lon="-7.6197617"><ele>364.0</ele><time>2026-04-14T12:25:54.881Z</time></trkpt><trkpt lat="42.504845" lon="-7.619615"><ele>364.0</ele><time>2026-04-14T12:25:55.881Z</time></trkpt><trkpt lat="42.504855" lon="-7.61947"><ele>364.4</ele><time>2026-04-14T12:25:56.881Z</time></trkpt><trkpt lat="42.5048417" lon="-7.6193433"><ele>364.79999999999995</ele><time>2026-04-14T12:25:57.88Z</time></trkpt><trkpt lat="42.504825" lon="-7.61921"><ele>365.20000000000005</ele><time>2026-04-14T12:25:58.88Z</time></trkpt><trkpt lat="42.504785" lon="-7.619095"><ele>365.6</ele><time>2026-04-14T12:25:59.881Z</time></trkpt><trkpt lat="42.5047233" lon="-7.6189817"><ele>366.0</ele><time>2026-04-14T12:26:00.88Z</time></trkpt><trkpt lat="42.5046583" lon="-7.61887"><ele>366.0</ele><time>2026-04-14T12:26:01.881Z</time></trkpt><trkpt lat="42.5045867" lon="-7.61876"><ele>366.0</ele><time>2026-04-14T12:26:02.88Z</time></trkpt><trkpt lat="42.5045183" lon="-7.618645"><ele>366.0</ele><time>2026-04-14T12:26:03.88Z</time></trkpt><trkpt lat="42.5044567" lon="-7.6185117"><ele>366.0</ele><time>2026-04-14T12:26:04.88Z</time></trkpt><trkpt lat="42.5044033" lon="-7.6183817"><ele>366.0</ele><time>2026-04-14T12:26:05.881Z</time></trkpt><trkpt lat="42.5043583" lon="-7.61825"><ele>365.20000000000005</ele><time>2026-04-14T12:26:06.881Z</time></trkpt><trkpt lat="42.5043133" lon="-7.6181183"><ele>364.40000000000003</ele><time>2026-04-14T12:26:07.881Z</time></trkpt><trkpt lat="42.504275" lon="-7.6179967"><ele>363.6</ele><time>2026-04-14T12:26:08.881Z</time></trkpt><trkpt lat="42.5042333" lon="-7.61788"><ele>362.8</ele><time>2026-04-14T12:26:09.881Z</time></trkpt><trkpt lat="42.5041967" lon="-7.6177583"><ele>362.0</ele><time>2026-04-14T12:26:10.88Z</time></trkpt><trkpt lat="42.5041683" lon="-7.6176317"><ele>361.20000000000005</ele><time>2026-04-14T12:26:11.881Z</time></trkpt><trkpt lat="42.5041283" lon="-7.6175133"><ele>360.4</ele><time>2026-04-14T12:26:12.88Z</time></trkpt><trkpt lat="42.5040767" lon="-7.617415"><ele>359.6</ele><time>2026-04-14T12:26:13.881Z</time></trkpt><trkpt lat="42.504015" lon="-7.61733"><ele>358.79999999999995</ele><time>2026-04-14T12:26:14.881Z</time></trkpt><trkpt lat="42.50394" lon="-7.6172583"><ele>358.0</ele><time>2026-04-14T12:26:15.88Z</time></trkpt><trkpt lat="42.50385" lon="-7.617185"><ele>358.0</ele><time>2026-04-14T12:26:16.88Z</time></trkpt><trkpt lat="42.50376" lon="-7.6171233"><ele>358.0</ele><time>2026-04-14T12:26:17.88Z</time></trkpt><trkpt lat="42.5036667" lon="-7.6170633"><ele>358.0</ele><time>2026-04-14T12:26:18.881Z</time></trkpt><trkpt lat="42.50357" lon="-7.6169867"><ele>358.0</ele><time>2026-04-14T12:26:19.88Z</time></trkpt><trkpt lat="42.5034717" lon="-7.61691"><ele>358.0</ele><time>2026-04-14T12:26:20.88Z</time></trkpt><trkpt lat="42.5033733" lon="-7.61684"><ele>356.79999999999995</ele><time>2026-04-14T12:26:21.881Z</time></trkpt><trkpt lat="42.50328" lon="-7.6167633"><ele>355.6</ele><time>2026-04-14T12:26:22.881Z</time></trkpt><trkpt lat="42.5031833" lon="-7.6166883"><ele>354.4</ele><time>2026-04-14T12:26:23.88Z</time></trkpt><trkpt lat="42.5030933" lon="-7.6166117"><ele>353.20000000000005</ele><time>2026-04-14T12:26:24.881Z</time></trkpt><trkpt lat="42.5030083" lon="-7.6165467"><ele>352.0</ele><time>2026-04-14T12:26:25.881Z</time></trkpt><trkpt lat="42.5029333" lon="-7.6164767"><ele>352.8</ele><time>2026-04-14T12:26:26.88Z</time></trkpt><trkpt lat="42.5028533" lon="-7.6164067"><ele>353.6</ele><time>2026-04-14T12:26:27.88Z</time></trkpt><trkpt lat="42.5027633" lon="-7.61635"><ele>354.40000000000003</ele><time>2026-04-14T12:26:28.88Z</time></trkpt><trkpt lat="42.5026717" lon="-7.6163067"><ele>355.20000000000005</ele><time>2026-04-14T12:26:29.881Z</time></trkpt><trkpt lat="42.5025817" lon="-7.6162817"><ele>356.0</ele><time>2026-04-14T12:26:30.88Z</time></trkpt><trkpt lat="42.5024867" lon="-7.6162617"><ele>356.0</ele><time>2026-04-14T12:26:31.881Z</time></trkpt><trkpt lat="42.5023917" lon="-7.6162567"><ele>356.0</ele><time>2026-04-14T12:26:32.881Z</time></trkpt><trkpt lat="42.502305" lon="-7.6162567"><ele>356.0</ele><time>2026-04-14T12:26:33.88Z</time></trkpt><trkpt lat="42.5022233" lon="-7.6162533"><ele>356.0</ele><time>2026-04-14T12:26:34.881Z</time></trkpt><trkpt lat="42.5021383" lon="-7.6162567"><ele>356.0</ele><time>2026-04-14T12:26:35.88Z</time></trkpt><trkpt lat="42.5020467" lon="-7.61624"><ele>356.0</ele><time>2026-04-14T12:26:36.881Z</time></trkpt><trkpt lat="42.5019617" lon="-7.6162017"><ele>354.6</ele><time>2026-04-14T12:26:37.88Z</time></trkpt><trkpt lat="42.5018817" lon="-7.6161467"><ele>353.20000000000005</ele><time>2026-04-14T12:26:38.88Z</time></trkpt><trkpt lat="42.501835" lon="-7.61605"><ele>351.79999999999995</ele><time>2026-04-14T12:26:39.881Z</time></trkpt><trkpt lat="42.5018017" lon="-7.61591"><ele>350.4</ele><time>2026-04-14T12:26:40.88Z</time></trkpt><trkpt lat="42.5017917" lon="-7.615775"><ele>349.0</ele><time>2026-04-14T12:26:41.88Z</time></trkpt><trkpt lat="42.501775" lon="-7.615635"><ele>349.0</ele><time>2026-04-14T12:26:42.88Z</time></trkpt><trkpt lat="42.5017533" lon="-7.6154867"><ele>349.0</ele><time>2026-04-14T12:26:43.881Z</time></trkpt><trkpt lat="42.50173" lon="-7.6153317"><ele>349.0</ele><time>2026-04-14T12:26:44.88Z</time></trkpt><trkpt lat="42.5017133" lon="-7.6151717"><ele>349.0</ele><time>2026-04-14T12:26:45.88Z</time></trkpt><trkpt lat="42.501695" lon="-7.615015"><ele>348.0</ele><time>2026-04-14T12:26:46.88Z</time></trkpt><trkpt lat="42.50168" lon="-7.6148567"><ele>347.0</ele><time>2026-04-14T12:26:47.881Z</time></trkpt><trkpt lat="42.5016617" lon="-7.6147017"><ele>346.0</ele><time>2026-04-14T12:26:48.88Z</time></trkpt><trkpt lat="42.5016417" lon="-7.6145433"><ele>345.0</ele><time>2026-04-14T12:26:49.881Z</time></trkpt><trkpt lat="42.50163" lon="-7.61439"><ele>344.2</ele><time>2026-04-14T12:26:50.88Z</time></trkpt><trkpt lat="42.50161" lon="-7.6142367"><ele>343.4</ele><time>2026-04-14T12:26:51.88Z</time></trkpt><trkpt lat="42.5015917" lon="-7.6140867"><ele>342.6</ele><time>2026-04-14T12:26:52.88Z</time></trkpt><trkpt lat="42.5015667" lon="-7.6139433"><ele>341.8</ele><time>2026-04-14T12:26:53.881Z</time></trkpt><trkpt lat="42.5015367" lon="-7.6138083"><ele>341.0</ele><time>2026-04-14T12:26:54.88Z</time></trkpt><trkpt lat="42.5015083" lon="-7.613675"><ele>341.25</ele><time>2026-04-14T12:26:55.88Z</time></trkpt><trkpt lat="42.501465" lon="-7.6135383"><ele>341.5</ele><time>2026-04-14T12:26:56.88Z</time></trkpt><trkpt lat="42.5014233" lon="-7.6133983"><ele>341.75</ele><time>2026-04-14T12:26:57.881Z</time></trkpt><trkpt lat="42.501375" lon="-7.6132533"><ele>342.0</ele><time>2026-04-14T12:26:58.881Z</time></trkpt><trkpt lat="42.5013183" lon="-7.6131183"><ele>342.0</ele><time>2026-04-14T12:26:59.88Z</time></trkpt><trkpt lat="42.5012633" lon="-7.6129933"><ele>342.0</ele><time>2026-04-14T12:27:00.881Z</time></trkpt><trkpt lat="42.5012083" lon="-7.6128767"><ele>342.0</ele><time>2026-04-14T12:27:01.881Z</time></trkpt><trkpt lat="42.50115" lon="-7.6127683"><ele>342.0</ele><time>2026-04-14T12:27:02.88Z</time></trkpt><trkpt lat="42.5010783" lon="-7.6126617"><ele>342.0</ele><time>2026-04-14T12:27:03.88Z</time></trkpt><trkpt lat="42.501" lon="-7.612555"><ele>341.0</ele><time>2026-04-14T12:27:04.88Z</time></trkpt><trkpt lat="42.5009183" lon="-7.6124483"><ele>340.0</ele><time>2026-04-14T12:27:05.88Z</time></trkpt><trkpt lat="42.5008383" lon="-7.6123433"><ele>339.0</ele><time>2026-04-14T12:27:06.881Z</time></trkpt><trkpt lat="42.5007583" lon="-7.6122333"><ele>338.0</ele><time>2026-04-14T12:27:07.88Z</time></trkpt><trkpt lat="42.50068" lon="-7.6121283"><ele>337.0</ele><time>2026-04-14T12:27:08.88Z</time></trkpt><trkpt lat="42.5006033" lon="-7.6120317"><ele>337.0</ele><time>2026-04-14T12:27:09.881Z</time></trkpt><trkpt lat="42.5005267" lon="-7.6119267"><ele>337.0</ele><time>2026-04-14T12:27:10.88Z</time></trkpt><trkpt lat="42.5004433" lon="-7.6118183"><ele>337.0</ele><time>2026-04-14T12:27:11.88Z</time></trkpt><trkpt lat="42.5003617" lon="-7.6117033"><ele>337.0</ele><time>2026-04-14T12:27:12.881Z</time></trkpt><trkpt lat="42.5002817" lon="-7.6115933"><ele>336.5</ele><time>2026-04-14T12:27:13.881Z</time></trkpt><trkpt lat="42.5002" lon="-7.6114817"><ele>336.0</ele><time>2026-04-14T12:27:14.88Z</time></trkpt><trkpt lat="42.5001183" lon="-7.6113717"><ele>335.5</ele><time>2026-04-14T12:27:15.88Z</time></trkpt><trkpt lat="42.50004" lon="-7.6112617"><ele>335.0</ele><time>2026-04-14T12:27:16.88Z</time></trkpt><trkpt lat="42.4999617" lon="-7.61115"><ele>335.0</ele><time>2026-04-14T12:27:17.881Z</time></trkpt><trkpt lat="42.4998817" lon="-7.6110283"><ele>335.0</ele><time>2026-04-14T12:27:18.881Z</time></trkpt><trkpt lat="42.4998017" lon="-7.610915"><ele>335.0</ele><time>2026-04-14T12:27:19.881Z</time></trkpt><trkpt lat="42.49972" lon="-7.6108017"><ele>335.0</ele><time>2026-04-14T12:27:20.881Z</time></trkpt><trkpt lat="42.4996383" lon="-7.6106883"><ele>335.0</ele><time>2026-04-14T12:27:21.881Z</time></trkpt><trkpt lat="42.4995533" lon="-7.6105883"><ele>335.0</ele><time>2026-04-14T12:27:22.881Z</time></trkpt><trkpt lat="42.499475" lon="-7.6104767"><ele>335.0</ele><time>2026-04-14T12:27:23.881Z</time></trkpt><trkpt lat="42.49939" lon="-7.6103617"><ele>335.0</ele><time>2026-04-14T12:27:24.881Z</time></trkpt><trkpt lat="42.4993117" lon="-7.6102433"><ele>335.4</ele><time>2026-04-14T12:27:25.881Z</time></trkpt><trkpt lat="42.499235" lon="-7.6101267"><ele>335.8</ele><time>2026-04-14T12:27:26.88Z</time></trkpt><trkpt lat="42.49916" lon="-7.610015"><ele>336.20000000000005</ele><time>2026-04-14T12:27:27.881Z</time></trkpt><trkpt lat="42.4990783" lon="-7.609915"><ele>336.6</ele><time>2026-04-14T12:27:28.881Z</time></trkpt><trkpt lat="42.4989933" lon="-7.6098267"><ele>337.0</ele><time>2026-04-14T12:27:29.88Z</time></trkpt><trkpt lat="42.4989067" lon="-7.6097617"><ele>337.0</ele><time>2026-04-14T12:27:30.88Z</time></trkpt><trkpt lat="42.4988183" lon="-7.609735"><ele>337.0</ele><time>2026-04-14T12:27:31.88Z</time></trkpt><trkpt lat="42.4987183" lon="-7.60974"><ele>337.0</ele><time>2026-04-14T12:27:32.881Z</time></trkpt><trkpt lat="42.4986283" lon="-7.6097767"><ele>337.0</ele><time>2026-04-14T12:27:33.881Z</time></trkpt><trkpt lat="42.4985317" lon="-7.6098283"><ele>337.0</ele><time>2026-04-14T12:27:34.88Z</time></trkpt><trkpt lat="42.4984333" lon="-7.6098967"><ele>338.0</ele><time>2026-04-14T12:27:35.88Z</time></trkpt><trkpt lat="42.4983333" lon="-7.6099717"><ele>339.0</ele><time>2026-04-14T12:27:36.88Z</time></trkpt><trkpt lat="42.4982317" lon="-7.610035"><ele>340.0</ele><time>2026-04-14T12:27:37.88Z</time></trkpt><trkpt lat="42.4981317" lon="-7.610095"><ele>341.0</ele><time>2026-04-14T12:27:38.881Z</time></trkpt><trkpt lat="42.49803" lon="-7.610135"><ele>342.0</ele><time>2026-04-14T12:27:39.88Z</time></trkpt><trkpt lat="42.4979217" lon="-7.610155"><ele>343.40000000000003</ele><time>2026-04-14T12:27:40.881Z</time></trkpt><trkpt lat="42.4978133" lon="-7.6101433"><ele>344.8</ele><time>2026-04-14T12:27:41.88Z</time></trkpt><trkpt lat="42.49771" lon="-7.6101217"><ele>346.2</ele><time>2026-04-14T12:27:42.88Z</time></trkpt><trkpt lat="42.497605" lon="-7.6100967"><ele>347.6</ele><time>2026-04-14T12:27:43.88Z</time></trkpt><trkpt lat="42.4975017" lon="-7.6100633"><ele>349.0</ele><time>2026-04-14T12:27:44.881Z</time></trkpt><trkpt lat="42.497395" lon="-7.61003"><ele>349.0</ele><time>2026-04-14T12:27:45.881Z</time></trkpt><trkpt lat="42.4972917" lon="-7.6100117"><ele>349.0</ele><time>2026-04-14T12:27:46.881Z</time></trkpt><trkpt lat="42.49719" lon="-7.6099933"><ele>349.0</ele><time>2026-04-14T12:27:47.88Z</time></trkpt><trkpt lat="42.497075" lon="-7.60998"><ele>349.0</ele><time>2026-04-14T12:27:48.88Z</time></trkpt><trkpt lat="42.4969617" lon="-7.6099583"><ele>349.0</ele><time>2026-04-14T12:27:49.881Z</time></trkpt><trkpt lat="42.4968433" lon="-7.6099283"><ele>349.75</ele><time>2026-04-14T12:27:50.881Z</time></trkpt><trkpt lat="42.496725" lon="-7.60989"><ele>350.5</ele><time>2026-04-14T12:27:51.881Z</time></trkpt><trkpt lat="42.4966067" lon="-7.609825"><ele>351.25</ele><time>2026-04-14T12:27:52.881Z</time></trkpt><trkpt lat="42.4964983" lon="-7.609745"><ele>352.0</ele><time>2026-04-14T12:27:53.881Z</time></trkpt><trkpt lat="42.4964" lon="-7.6096583"><ele>352.0</ele><time>2026-04-14T12:27:54.881Z</time></trkpt><trkpt lat="42.49631" lon="-7.6095617"><ele>352.0</ele><time>2026-04-14T12:27:55.881Z</time></trkpt><trkpt lat="42.496235" lon="-7.6094633"><ele>352.0</ele><time>2026-04-14T12:27:56.881Z</time></trkpt><trkpt lat="42.4961717" lon="-7.60935"><ele>352.0</ele><time>2026-04-14T12:27:57.88Z</time></trkpt><trkpt lat="42.4961133" lon="-7.60923"><ele>352.0</ele><time>2026-04-14T12:27:58.88Z</time></trkpt><trkpt lat="42.4960567" lon="-7.609095"><ele>354.0</ele><time>2026-04-14T12:27:59.881Z</time></trkpt><trkpt lat="42.4960083" lon="-7.6089567"><ele>356.0</ele><time>2026-04-14T12:28:00.88Z</time></trkpt><trkpt lat="42.4959533" lon="-7.60883"><ele>358.0</ele><time>2026-04-14T12:28:01.88Z</time></trkpt><trkpt lat="42.4958933" lon="-7.60871"><ele>360.0</ele><time>2026-04-14T12:28:02.881Z</time></trkpt><trkpt lat="42.4958083" lon="-7.6085833"><ele>360.2</ele><time>2026-04-14T12:28:03.881Z</time></trkpt><trkpt lat="42.4957267" lon="-7.608475"><ele>360.4</ele><time>2026-04-14T12:28:04.881Z</time></trkpt><trkpt lat="42.4956467" lon="-7.6083967"><ele>360.6</ele><time>2026-04-14T12:28:05.88Z</time></trkpt><trkpt lat="42.4955567" lon="-7.608335"><ele>360.8</ele><time>2026-04-14T12:28:06.881Z</time></trkpt><trkpt lat="42.4954567" lon="-7.6082917"><ele>361.0</ele><time>2026-04-14T12:28:07.881Z</time></trkpt><trkpt lat="42.4953533" lon="-7.608265"><ele>360.0</ele><time>2026-04-14T12:28:08.88Z</time></trkpt><trkpt lat="42.4952467" lon="-7.6082517"><ele>359.0</ele><time>2026-04-14T12:28:09.881Z</time></trkpt><trkpt lat="42.495145" lon="-7.6082583"><ele>358.0</ele><time>2026-04-14T12:28:10.881Z</time></trkpt><trkpt lat="42.495035" lon="-7.60829"><ele>357.0</ele><time>2026-04-14T12:28:11.88Z</time></trkpt><trkpt lat="42.49493" lon="-7.60833"><ele>356.0</ele><time>2026-04-14T12:28:12.881Z</time></trkpt><trkpt lat="42.49482" lon="-7.6083633"><ele>356.0</ele><time>2026-04-14T12:28:13.88Z</time></trkpt><trkpt lat="42.4947083" lon="-7.6083817"><ele>356.0</ele><time>2026-04-14T12:28:14.88Z</time></trkpt><trkpt lat="42.4945933" lon="-7.6083933"><ele>356.0</ele><time>2026-04-14T12:28:15.881Z</time></trkpt><trkpt lat="42.4944833" lon="-7.6083983"><ele>356.0</ele><time>2026-04-14T12:28:16.881Z</time></trkpt><trkpt lat="42.4943717" lon="-7.6083967"><ele>356.0</ele><time>2026-04-14T12:28:17.881Z</time></trkpt><trkpt lat="42.4942633" lon="-7.6083867"><ele>355.6</ele><time>2026-04-14T12:28:18.88Z</time></trkpt><trkpt lat="42.4941533" lon="-7.6083683"><ele>355.20000000000005</ele><time>2026-04-14T12:28:19.88Z</time></trkpt><trkpt lat="42.4940517" lon="-7.6083533"><ele>354.79999999999995</ele><time>2026-04-14T12:28:20.88Z</time></trkpt><trkpt lat="42.4939483" lon="-7.6083467"><ele>354.4</ele><time>2026-04-14T12:28:21.881Z</time></trkpt><trkpt lat="42.4938483" lon="-7.60834"><ele>354.0</ele><time>2026-04-14T12:28:22.881Z</time></trkpt><trkpt lat="42.49375" lon="-7.60834"><ele>352.79999999999995</ele><time>2026-04-14T12:28:23.88Z</time></trkpt><trkpt lat="42.4936483" lon="-7.6083317"><ele>351.59999999999997</ele><time>2026-04-14T12:28:24.881Z</time></trkpt><trkpt lat="42.4935483" lon="-7.6083083"><ele>350.4</ele><time>2026-04-14T12:28:25.88Z</time></trkpt><trkpt lat="42.4934433" lon="-7.60827"><ele>349.2</ele><time>2026-04-14T12:28:26.88Z</time></trkpt><trkpt lat="42.4933433" lon="-7.60822"><ele>348.0</ele><time>2026-04-14T12:28:27.88Z</time></trkpt><trkpt lat="42.4932483" lon="-7.6081683"><ele>348.0</ele><time>2026-04-14T12:28:28.88Z</time></trkpt><trkpt lat="42.49315" lon="-7.6081233"><ele>348.0</ele><time>2026-04-14T12:28:29.881Z</time></trkpt><trkpt lat="42.4930533" lon="-7.6080817"><ele>348.0</ele><time>2026-04-14T12:28:30.88Z</time></trkpt><trkpt lat="42.492945" lon="-7.60804"><ele>348.0</ele><time>2026-04-14T12:28:31.88Z</time></trkpt><trkpt lat="42.49284" lon="-7.6080133"><ele>348.0</ele><time>2026-04-14T12:28:32.88Z</time></trkpt><trkpt lat="42.4927367" lon="-7.6079917"><ele>346.79999999999995</ele><time>2026-04-14T12:28:33.881Z</time></trkpt><trkpt lat="42.4926383" lon="-7.6079917"><ele>345.6</ele><time>2026-04-14T12:28:34.881Z</time></trkpt><trkpt lat="42.4925367" lon="-7.6079983"><ele>344.4</ele><time>2026-04-14T12:28:35.881Z</time></trkpt><trkpt lat="42.4924317" lon="-7.6080083"><ele>343.20000000000005</ele><time>2026-04-14T12:28:36.88Z</time></trkpt><trkpt lat="42.4923283" lon="-7.6080083"><ele>342.0</ele><time>2026-04-14T12:28:37.88Z</time></trkpt><trkpt lat="42.49223" lon="-7.6080083"><ele>342.0</ele><time>2026-04-14T12:28:38.881Z</time></trkpt><trkpt lat="42.49214" lon="-7.6079867"><ele>342.0</ele><time>2026-04-14T12:28:39.88Z</time></trkpt><trkpt lat="42.4920417" lon="-7.6079417"><ele>342.0</ele><time>2026-04-14T12:28:40.881Z</time></trkpt><trkpt lat="42.491945" lon="-7.60788"><ele>342.0</ele><time>2026-04-14T12:28:41.88Z</time></trkpt><trkpt lat="42.4918383" lon="-7.60781"><ele>342.0</ele><time>2026-04-14T12:28:42.881Z</time></trkpt><trkpt lat="42.4917383" lon="-7.6077517"><ele>338.5</ele><time>2026-04-14T12:28:43.88Z</time></trkpt><trkpt lat="42.49163" lon="-7.607695"><ele>335.0</ele><time>2026-04-14T12:28:44.88Z</time></trkpt><trkpt lat="42.4915233" lon="-7.6076417"><ele>331.5</ele><time>2026-04-14T12:28:45.881Z</time></trkpt><trkpt lat="42.4914217" lon="-7.60757"><ele>328.0</ele><time>2026-04-14T12:28:46.88Z</time></trkpt><trkpt lat="42.4913333" lon="-7.6074867"><ele>326.75</ele><time>2026-04-14T12:28:47.881Z</time></trkpt><trkpt lat="42.4912333" lon="-7.6073917"><ele>325.5</ele><time>2026-04-14T12:28:48.881Z</time></trkpt><trkpt lat="42.4911383" lon="-7.6072967"><ele>324.25</ele><time>2026-04-14T12:28:49.88Z</time></trkpt><trkpt lat="42.49104" lon="-7.607205"><ele>323.0</ele><time>2026-04-14T12:28:50.88Z</time></trkpt><trkpt lat="42.4909433" lon="-7.6071133"><ele>323.0</ele><time>2026-04-14T12:28:51.881Z</time></trkpt><trkpt lat="42.4908517" lon="-7.6070233"><ele>323.0</ele><time>2026-04-14T12:28:52.88Z</time></trkpt><trkpt lat="42.4907633" lon="-7.606925"><ele>323.0</ele><time>2026-04-14T12:28:53.881Z</time></trkpt><trkpt lat="42.490675" lon="-7.6068283"><ele>323.0</ele><time>2026-04-14T12:28:54.881Z</time></trkpt><trkpt lat="42.49059" lon="-7.6067367"><ele>323.0</ele><time>2026-04-14T12:28:55.881Z</time></trkpt><trkpt lat="42.4904983" lon="-7.606635"><ele>321.79999999999995</ele><time>2026-04-14T12:28:56.88Z</time></trkpt><trkpt lat="42.4904133" lon="-7.6065383"><ele>320.59999999999997</ele><time>2026-04-14T12:28:57.881Z</time></trkpt><trkpt lat="42.4903233" lon="-7.6064467"><ele>319.4</ele><time>2026-04-14T12:28:58.881Z</time></trkpt><trkpt lat="42.4902333" lon="-7.6063633"><ele>318.2</ele><time>2026-04-14T12:28:59.88Z</time></trkpt><trkpt lat="42.4901417" lon="-7.6062717"><ele>317.0</ele><time>2026-04-14T12:29:00.881Z</time></trkpt><trkpt lat="42.4900517" lon="-7.6061817"><ele>316.8</ele><time>2026-04-14T12:29:01.881Z</time></trkpt><trkpt lat="42.4899533" lon="-7.606105"><ele>316.6</ele><time>2026-04-14T12:29:02.88Z</time></trkpt><trkpt lat="42.4898567" lon="-7.6060417"><ele>316.40000000000003</ele><time>2026-04-14T12:29:03.88Z</time></trkpt><trkpt lat="42.4897533" lon="-7.6059917"><ele>316.2</ele><time>2026-04-14T12:29:04.88Z</time></trkpt><trkpt lat="42.4896467" lon="-7.605935"><ele>316.0</ele><time>2026-04-14T12:29:05.88Z</time></trkpt><trkpt lat="42.48953" lon="-7.6058683"><ele>315.75</ele><time>2026-04-14T12:29:06.88Z</time></trkpt><trkpt lat="42.4894033" lon="-7.6057933"><ele>315.5</ele><time>2026-04-14T12:29:07.881Z</time></trkpt><trkpt lat="42.4892717" lon="-7.605725"><ele>315.25</ele><time>2026-04-14T12:29:08.881Z</time></trkpt><trkpt lat="42.489145" lon="-7.60565"><ele>315.0</ele><time>2026-04-14T12:29:09.88Z</time></trkpt><trkpt lat="42.4890183" lon="-7.6055767"><ele>315.0</ele><time>2026-04-14T12:29:10.881Z</time></trkpt><trkpt lat="42.4889033" lon="-7.605505"><ele>315.0</ele><time>2026-04-14T12:29:11.881Z</time></trkpt><trkpt lat="42.48879" lon="-7.6054317"><ele>315.0</ele><time>2026-04-14T12:29:12.88Z</time></trkpt><trkpt lat="42.488675" lon="-7.6053517"><ele>315.0</ele><time>2026-04-14T12:29:13.88Z</time></trkpt><trkpt lat="42.488565" lon="-7.6052933"><ele>313.5</ele><time>2026-04-14T12:29:14.881Z</time></trkpt><trkpt lat="42.4884617" lon="-7.6052233"><ele>312.0</ele><time>2026-04-14T12:29:15.88Z</time></trkpt><trkpt lat="42.4883483" lon="-7.6051267"><ele>310.5</ele><time>2026-04-14T12:29:16.881Z</time></trkpt><trkpt lat="42.4882467" lon="-7.6050167"><ele>309.0</ele><time>2026-04-14T12:29:17.881Z</time></trkpt><trkpt lat="42.4881467" lon="-7.6049117"><ele>309.0</ele><time>2026-04-14T12:29:18.88Z</time></trkpt><trkpt lat="42.4880467" lon="-7.604805"><ele>309.0</ele><time>2026-04-14T12:29:19.881Z</time></trkpt><trkpt lat="42.4879483" lon="-7.604705"><ele>309.0</ele><time>2026-04-14T12:29:20.881Z</time></trkpt><trkpt lat="42.4878533" lon="-7.604595"><ele>309.0</ele><time>2026-04-14T12:29:21.88Z</time></trkpt><trkpt lat="42.4877583" lon="-7.604475"><ele>308.0</ele><time>2026-04-14T12:29:22.88Z</time></trkpt><trkpt lat="42.487665" lon="-7.6043467"><ele>307.0</ele><time>2026-04-14T12:29:23.88Z</time></trkpt><trkpt lat="42.4875783" lon="-7.604215"><ele>306.0</ele><time>2026-04-14T12:29:24.881Z</time></trkpt><trkpt lat="42.487495" lon="-7.6040833"><ele>305.0</ele><time>2026-04-14T12:29:25.88Z</time></trkpt><trkpt lat="42.487405" lon="-7.6039517"><ele>305.0</ele><time>2026-04-14T12:29:26.88Z</time></trkpt><trkpt lat="42.4873283" lon="-7.6038217"><ele>305.0</ele><time>2026-04-14T12:29:27.881Z</time></trkpt><trkpt lat="42.4872583" lon="-7.60369"><ele>305.0</ele><time>2026-04-14T12:29:28.881Z</time></trkpt><trkpt lat="42.487195" lon="-7.603555"><ele>305.0</ele><time>2026-04-14T12:29:29.881Z</time></trkpt><trkpt lat="42.4871417" lon="-7.6034067"><ele>304.75</ele><time>2026-04-14T12:29:30.881Z</time></trkpt><trkpt lat="42.4870933" lon="-7.60325"><ele>304.5</ele><time>2026-04-14T12:29:31.881Z</time></trkpt><trkpt lat="42.4870583" lon="-7.6030967"><ele>304.25</ele><time>2026-04-14T12:29:32.88Z</time></trkpt><trkpt lat="42.48702" lon="-7.6029317"><ele>304.0</ele><time>2026-04-14T12:29:33.881Z</time></trkpt><trkpt lat="42.4869867" lon="-7.602765"><ele>304.0</ele><time>2026-04-14T12:29:34.88Z</time></trkpt><trkpt lat="42.48695" lon="-7.6026033"><ele>304.0</ele><time>2026-04-14T12:29:35.881Z</time></trkpt><trkpt lat="42.486915" lon="-7.6024383"><ele>304.0</ele><time>2026-04-14T12:29:36.881Z</time></trkpt><trkpt lat="42.48687" lon="-7.6022617"><ele>304.0</ele><time>2026-04-14T12:29:37.88Z</time></trkpt><trkpt lat="42.4868217" lon="-7.6020967"><ele>304.75</ele><time>2026-04-14T12:29:38.881Z</time></trkpt><trkpt lat="42.4867717" lon="-7.6019467"><ele>305.5</ele><time>2026-04-14T12:29:39.88Z</time></trkpt><trkpt lat="42.4867067" lon="-7.6017967"><ele>306.25</ele><time>2026-04-14T12:29:40.881Z</time></trkpt><trkpt lat="42.4866433" lon="-7.60166"><ele>307.0</ele><time>2026-04-14T12:29:41.881Z</time></trkpt><trkpt lat="42.48658" lon="-7.6015083"><ele>307.0</ele><time>2026-04-14T12:29:42.88Z</time></trkpt><trkpt lat="42.4865217" lon="-7.601355"><ele>307.0</ele><time>2026-04-14T12:29:43.881Z</time></trkpt><trkpt lat="42.4864767" lon="-7.6012017"><ele>307.0</ele><time>2026-04-14T12:29:44.881Z</time></trkpt><trkpt lat="42.4864433" lon="-7.601035"><ele>307.0</ele><time>2026-04-14T12:29:45.88Z</time></trkpt><trkpt lat="42.4864183" lon="-7.6008633"><ele>308.0</ele><time>2026-04-14T12:29:46.88Z</time></trkpt><trkpt lat="42.48639" lon="-7.6006833"><ele>309.0</ele><time>2026-04-14T12:29:47.881Z</time></trkpt><trkpt lat="42.486365" lon="-7.6005133"><ele>310.0</ele><time>2026-04-14T12:29:48.88Z</time></trkpt><trkpt lat="42.48633" lon="-7.6003533"><ele>311.0</ele><time>2026-04-14T12:29:49.88Z</time></trkpt><trkpt lat="42.4863" lon="-7.6001883"><ele>311.5</ele><time>2026-04-14T12:29:50.88Z</time></trkpt><trkpt lat="42.4862717" lon="-7.6000233"><ele>312.0</ele><time>2026-04-14T12:29:51.88Z</time></trkpt><trkpt lat="42.4862367" lon="-7.59986"><ele>312.5</ele><time>2026-04-14T12:29:52.881Z</time></trkpt><trkpt lat="42.486205" lon="-7.599695"><ele>313.0</ele><time>2026-04-14T12:29:53.88Z</time></trkpt><trkpt lat="42.4861817" lon="-7.59952"><ele>312.5</ele><time>2026-04-14T12:29:54.88Z</time></trkpt><trkpt lat="42.486165" lon="-7.599345"><ele>312.0</ele><time>2026-04-14T12:29:55.881Z</time></trkpt><trkpt lat="42.486165" lon="-7.5991683"><ele>311.5</ele><time>2026-04-14T12:29:56.881Z</time></trkpt><trkpt lat="42.4861767" lon="-7.5989967"><ele>311.0</ele><time>2026-04-14T12:29:57.881Z</time></trkpt><trkpt lat="42.486205" lon="-7.5988217"><ele>311.0</ele><time>2026-04-14T12:29:58.88Z</time></trkpt><trkpt lat="42.4862583" lon="-7.5986417"><ele>311.0</ele><time>2026-04-14T12:29:59.88Z</time></trkpt><trkpt lat="42.48631" lon="-7.59846"><ele>311.0</ele><time>2026-04-14T12:30:00.881Z</time></trkpt><trkpt lat="42.4863583" lon="-7.5982833"><ele>311.0</ele><time>2026-04-14T12:30:01.88Z</time></trkpt><trkpt lat="42.4864" lon="-7.598115"><ele>312.0</ele><time>2026-04-14T12:30:02.88Z</time></trkpt><trkpt lat="42.4864433" lon="-7.5979483"><ele>313.0</ele><time>2026-04-14T12:30:03.88Z</time></trkpt><trkpt lat="42.4864817" lon="-7.5977883"><ele>314.0</ele><time>2026-04-14T12:30:04.88Z</time></trkpt><trkpt lat="42.486525" lon="-7.5976183"><ele>315.0</ele><time>2026-04-14T12:30:05.88Z</time></trkpt><trkpt lat="42.48657" lon="-7.5974517"><ele>315.0</ele><time>2026-04-14T12:30:06.88Z</time></trkpt><trkpt lat="42.4866133" lon="-7.5972733"><ele>315.0</ele><time>2026-04-14T12:30:07.881Z</time></trkpt><trkpt lat="42.4866517" lon="-7.5971017"><ele>315.0</ele><time>2026-04-14T12:30:08.881Z</time></trkpt><trkpt lat="42.4866883" lon="-7.5969267"><ele>315.0</ele><time>2026-04-14T12:30:09.88Z</time></trkpt><trkpt lat="42.4867367" lon="-7.5967467"><ele>314.0</ele><time>2026-04-14T12:30:10.881Z</time></trkpt><trkpt lat="42.48679" lon="-7.5965717"><ele>313.0</ele><time>2026-04-14T12:30:11.88Z</time></trkpt><trkpt lat="42.486865" lon="-7.5964117"><ele>312.0</ele><time>2026-04-14T12:30:12.881Z</time></trkpt><trkpt lat="42.4869533" lon="-7.5962633"><ele>311.0</ele><time>2026-04-14T12:30:13.881Z</time></trkpt><trkpt lat="42.4870383" lon="-7.59614"><ele>310.8</ele><time>2026-04-14T12:30:14.881Z</time></trkpt><trkpt lat="42.4871217" lon="-7.5960317"><ele>310.6</ele><time>2026-04-14T12:30:15.88Z</time></trkpt><trkpt lat="42.4871917" lon="-7.5959167"><ele>310.4</ele><time>2026-04-14T12:30:16.881Z</time></trkpt><trkpt lat="42.4872233" lon="-7.595795"><ele>310.2</ele><time>2026-04-14T12:30:17.881Z</time></trkpt><trkpt lat="42.4872267" lon="-7.5956767"><ele>310.0</ele><time>2026-04-14T12:30:18.88Z</time></trkpt><trkpt lat="42.4871933" lon="-7.595585"><ele>310.0</ele><time>2026-04-14T12:30:19.88Z</time></trkpt><trkpt lat="42.4871383" lon="-7.5955"><ele>310.0</ele><time>2026-04-14T12:30:20.881Z</time></trkpt><trkpt lat="42.487055" lon="-7.5954233"><ele>310.0</ele><time>2026-04-14T12:30:21.88Z</time></trkpt><trkpt lat="42.4869483" lon="-7.5953333"><ele>310.0</ele><time>2026-04-14T12:30:22.88Z</time></trkpt><trkpt lat="42.4868333" lon="-7.5952333"><ele>310.0</ele><time>2026-04-14T12:30:23.881Z</time></trkpt><trkpt lat="42.4867283" lon="-7.5951667"><ele>308.25</ele><time>2026-04-14T12:30:24.88Z</time></trkpt><trkpt lat="42.4866167" lon="-7.595135"><ele>306.5</ele><time>2026-04-14T12:30:25.88Z</time></trkpt><trkpt lat="42.4864917" lon="-7.5950983"><ele>304.75</ele><time>2026-04-14T12:30:26.88Z</time></trkpt><trkpt lat="42.486365" lon="-7.5950433"><ele>303.0</ele><time>2026-04-14T12:30:27.88Z</time></trkpt><trkpt lat="42.4862433" lon="-7.59496"><ele>302.5</ele><time>2026-04-14T12:30:28.881Z</time></trkpt><trkpt lat="42.4861217" lon="-7.5948717"><ele>302.0</ele><time>2026-04-14T12:30:29.88Z</time></trkpt><trkpt lat="42.486" lon="-7.5947717"><ele>301.5</ele><time>2026-04-14T12:30:30.881Z</time></trkpt><trkpt lat="42.4858983" lon="-7.5946617"><ele>301.0</ele><time>2026-04-14T12:30:31.88Z</time></trkpt><trkpt lat="42.4858133" lon="-7.59455"><ele>300.25</ele><time>2026-04-14T12:30:32.88Z</time></trkpt><trkpt lat="42.4857317" lon="-7.5944283"><ele>299.5</ele><time>2026-04-14T12:30:33.881Z</time></trkpt><trkpt lat="42.4856583" lon="-7.5943117"><ele>298.75</ele><time>2026-04-14T12:30:34.881Z</time></trkpt><trkpt lat="42.4855867" lon="-7.5942"><ele>298.0</ele><time>2026-04-14T12:30:35.881Z</time></trkpt><trkpt lat="42.4855167" lon="-7.5940867"><ele>298.0</ele><time>2026-04-14T12:30:36.88Z</time></trkpt><trkpt lat="42.4854533" lon="-7.5939717"><ele>298.0</ele><time>2026-04-14T12:30:37.88Z</time></trkpt><trkpt lat="42.4853883" lon="-7.5938667"><ele>298.0</ele><time>2026-04-14T12:30:38.881Z</time></trkpt><trkpt lat="42.4853067" lon="-7.5937833"><ele>298.0</ele><time>2026-04-14T12:30:39.88Z</time></trkpt><trkpt lat="42.4852117" lon="-7.5937317"><ele>298.0</ele><time>2026-04-14T12:30:40.88Z</time></trkpt><trkpt lat="42.4851067" lon="-7.5937167"><ele>297.0</ele><time>2026-04-14T12:30:41.88Z</time></trkpt><trkpt lat="42.4849933" lon="-7.593725"><ele>296.0</ele><time>2026-04-14T12:30:42.881Z</time></trkpt><trkpt lat="42.48487" lon="-7.5937483"><ele>295.0</ele><time>2026-04-14T12:30:43.881Z</time></trkpt><trkpt lat="42.48475" lon="-7.5937867"><ele>294.0</ele><time>2026-04-14T12:30:44.881Z</time></trkpt><trkpt lat="42.4846383" lon="-7.5938217"><ele>291.5</ele><time>2026-04-14T12:30:45.881Z</time></trkpt><trkpt lat="42.4845267" lon="-7.5938617"><ele>289.0</ele><time>2026-04-14T12:30:46.881Z</time></trkpt><trkpt lat="42.4844083" lon="-7.59391"><ele>286.5</ele><time>2026-04-14T12:30:47.88Z</time></trkpt><trkpt lat="42.4843033" lon="-7.5939717"><ele>284.0</ele><time>2026-04-14T12:30:48.88Z</time></trkpt><trkpt lat="42.4841967" lon="-7.594045"><ele>284.0</ele><time>2026-04-14T12:30:49.88Z</time></trkpt><trkpt lat="42.484085" lon="-7.5941283"><ele>284.0</ele><time>2026-04-14T12:30:50.881Z</time></trkpt><trkpt lat="42.4839733" lon="-7.594215"><ele>284.0</ele><time>2026-04-14T12:30:51.881Z</time></trkpt><trkpt lat="42.4838667" lon="-7.5942917"><ele>284.0</ele><time>2026-04-14T12:30:52.88Z</time></trkpt><trkpt lat="42.483755" lon="-7.5943683"><ele>283.0</ele><time>2026-04-14T12:30:53.882Z</time></trkpt><trkpt lat="42.4836517" lon="-7.5944383"><ele>282.0</ele><time>2026-04-14T12:30:54.881Z</time></trkpt><trkpt lat="42.4835483" lon="-7.5945167"><ele>281.0</ele><time>2026-04-14T12:30:55.882Z</time></trkpt><trkpt lat="42.4834567" lon="-7.5945983"><ele>280.0</ele><time>2026-04-14T12:30:56.882Z</time></trkpt><trkpt lat="42.4833633" lon="-7.5946817"><ele>280.0</ele><time>2026-04-14T12:30:57.882Z</time></trkpt><trkpt lat="42.4832783" lon="-7.594765"><ele>280.0</ele><time>2026-04-14T12:30:58.881Z</time></trkpt><trkpt lat="42.4831867" lon="-7.594825"><ele>280.0</ele><time>2026-04-14T12:30:59.882Z</time></trkpt><trkpt lat="42.48309" lon="-7.5948767"><ele>280.0</ele><time>2026-04-14T12:31:00.882Z</time></trkpt><trkpt lat="42.4829967" lon="-7.5949333"><ele>280.0</ele><time>2026-04-14T12:31:01.882Z</time></trkpt><trkpt lat="42.48292" lon="-7.5949983"><ele>278.66666666666663</ele><time>2026-04-14T12:31:02.881Z</time></trkpt><trkpt lat="42.4828383" lon="-7.5950433"><ele>277.3333333333333</ele><time>2026-04-14T12:31:03.881Z</time></trkpt><trkpt lat="42.4827667" lon="-7.59507"><ele>276.0</ele><time>2026-04-14T12:31:04.882Z</time></trkpt><trkpt lat="42.48269" lon="-7.5950483"><ele>274.6666666666667</ele><time>2026-04-14T12:31:05.882Z</time></trkpt><trkpt lat="42.4826233" lon="-7.5949867"><ele>273.33333333333337</ele><time>2026-04-14T12:31:06.881Z</time></trkpt><trkpt lat="42.4825533" lon="-7.5948817"><ele>272.0</ele><time>2026-04-14T12:31:07.881Z</time></trkpt><trkpt lat="42.482445" lon="-7.5947417"><ele>272.0</ele><time>2026-04-14T12:31:08.882Z</time></trkpt><trkpt lat="42.48234" lon="-7.5945867"><ele>272.0</ele><time>2026-04-14T12:31:09.881Z</time></trkpt><trkpt lat="42.4822567" lon="-7.594455"><ele>272.0</ele><time>2026-04-14T12:31:10.881Z</time></trkpt><trkpt lat="42.4822033" lon="-7.594345"><ele>272.0</ele><time>2026-04-14T12:31:11.881Z</time></trkpt><trkpt lat="42.4821483" lon="-7.5942567"><ele>272.33333333333337</ele><time>2026-04-14T12:31:12.882Z</time></trkpt><trkpt lat="42.4820967" lon="-7.5941967"><ele>272.6666666666667</ele><time>2026-04-14T12:31:13.882Z</time></trkpt><trkpt lat="42.4820033" lon="-7.59416"><ele>273.0</ele><time>2026-04-14T12:31:15.881Z</time></trkpt><trkpt lat="42.4819333" lon="-7.5941533"><ele>273.3333333333333</ele><time>2026-04-14T12:31:17.882Z</time></trkpt><trkpt lat="42.4818667" lon="-7.5941017"><ele>273.66666666666663</ele><time>2026-04-14T12:31:20.881Z</time></trkpt><trkpt lat="42.4818383" lon="-7.594025"><ele>274.0</ele><time>2026-04-14T12:31:26.881Z</time></trkpt><trkpt lat="42.48173" lon="-7.5939583"><ele>274.0</ele><time>2026-04-14T12:31:28.882Z</time></trkpt><trkpt lat="42.4816517" lon="-7.5939083"><ele>274.0</ele><time>2026-04-14T12:31:29.881Z</time></trkpt><trkpt lat="42.4815617" lon="-7.5938483"><ele>274.0</ele><time>2026-04-14T12:31:30.882Z</time></trkpt><trkpt lat="42.4814717" lon="-7.593805"><ele>274.0</ele><time>2026-04-14T12:31:31.882Z</time></trkpt><trkpt lat="42.4813767" lon="-7.59378"><ele>274.0</ele><time>2026-04-14T12:31:32.882Z</time></trkpt><trkpt lat="42.4812767" lon="-7.5937833"><ele>274.0</ele><time>2026-04-14T12:31:33.882Z</time></trkpt><trkpt lat="42.4811783" lon="-7.5938233"><ele>274.0</ele><time>2026-04-14T12:31:34.882Z</time></trkpt><trkpt lat="42.4810783" lon="-7.5938767"><ele>274.0</ele><time>2026-04-14T12:31:35.881Z</time></trkpt><trkpt lat="42.480975" lon="-7.5939283"><ele>274.0</ele><time>2026-04-14T12:31:36.881Z</time></trkpt><trkpt lat="42.480875" lon="-7.5939667"><ele>274.0</ele><time>2026-04-14T12:31:37.881Z</time></trkpt><trkpt lat="42.4807733" lon="-7.594"><ele>274.0</ele><time>2026-04-14T12:31:38.882Z</time></trkpt><trkpt lat="42.480665" lon="-7.5940267"><ele>274.0</ele><time>2026-04-14T12:31:39.882Z</time></trkpt><trkpt lat="42.4805517" lon="-7.5940533"><ele>274.0</ele><time>2026-04-14T12:31:40.881Z</time></trkpt><trkpt lat="42.48043" lon="-7.5940767"><ele>274.0</ele><time>2026-04-14T12:31:41.882Z</time></trkpt><trkpt lat="42.4803067" lon="-7.59411"><ele>273.75</ele><time>2026-04-14T12:31:42.882Z</time></trkpt><trkpt lat="42.4801783" lon="-7.5941433"><ele>273.5</ele><time>2026-04-14T12:31:43.882Z</time></trkpt><trkpt lat="42.480045" lon="-7.594165"><ele>273.25</ele><time>2026-04-14T12:31:44.882Z</time></trkpt><trkpt lat="42.4799017" lon="-7.5941683"><ele>273.0</ele><time>2026-04-14T12:31:45.882Z</time></trkpt><trkpt lat="42.4797483" lon="-7.594175"><ele>273.75</ele><time>2026-04-14T12:31:46.882Z</time></trkpt><trkpt lat="42.4795983" lon="-7.5941833"><ele>274.5</ele><time>2026-04-14T12:31:47.882Z</time></trkpt><trkpt lat="42.4794483" lon="-7.5941983"><ele>275.25</ele><time>2026-04-14T12:31:48.881Z</time></trkpt><trkpt lat="42.4793067" lon="-7.5942217"><ele>276.0</ele><time>2026-04-14T12:31:49.881Z</time></trkpt><trkpt lat="42.479165" lon="-7.59424"><ele>276.0</ele><time>2026-04-14T12:31:50.881Z</time></trkpt><trkpt lat="42.4790283" lon="-7.5942533"><ele>276.0</ele><time>2026-04-14T12:31:51.881Z</time></trkpt><trkpt lat="42.4789033" lon="-7.5942617"><ele>276.0</ele><time>2026-04-14T12:31:52.882Z</time></trkpt><trkpt lat="42.478785" lon="-7.5942717"><ele>276.0</ele><time>2026-04-14T12:31:53.881Z</time></trkpt><trkpt lat="42.4786683" lon="-7.5942683"><ele>276.0</ele><time>2026-04-14T12:31:54.881Z</time></trkpt><trkpt lat="42.4785483" lon="-7.5942367"><ele>276.0</ele><time>2026-04-14T12:31:55.882Z</time></trkpt><trkpt lat="42.4784283" lon="-7.59417"><ele>276.0</ele><time>2026-04-14T12:31:56.882Z</time></trkpt><trkpt lat="42.478305" lon="-7.5940767"><ele>276.0</ele><time>2026-04-14T12:31:57.881Z</time></trkpt><trkpt lat="42.4781817" lon="-7.5939817"><ele>276.0</ele><time>2026-04-14T12:31:58.882Z</time></trkpt><trkpt lat="42.4780517" lon="-7.5938883"><ele>276.0</ele><time>2026-04-14T12:31:59.882Z</time></trkpt><trkpt lat="42.4779183" lon="-7.5938283"><ele>276.0</ele><time>2026-04-14T12:32:00.881Z</time></trkpt><trkpt lat="42.4777683" lon="-7.5937783"><ele>276.0</ele><time>2026-04-14T12:32:01.882Z</time></trkpt><trkpt lat="42.4776083" lon="-7.5937167"><ele>277.6666666666667</ele><time>2026-04-14T12:32:02.882Z</time></trkpt><trkpt lat="42.47745" lon="-7.593635"><ele>279.33333333333337</ele><time>2026-04-14T12:32:03.882Z</time></trkpt><trkpt lat="42.4773067" lon="-7.5935333"><ele>281.0</ele><time>2026-04-14T12:32:04.881Z</time></trkpt><trkpt lat="42.4771733" lon="-7.5934133"><ele>282.0</ele><time>2026-04-14T12:32:05.882Z</time></trkpt><trkpt lat="42.47705" lon="-7.5932767"><ele>283.0</ele><time>2026-04-14T12:32:06.882Z</time></trkpt><trkpt lat="42.47693" lon="-7.59315"><ele>284.0</ele><time>2026-04-14T12:32:07.881Z</time></trkpt><trkpt lat="42.4768067" lon="-7.5930567"><ele>284.0</ele><time>2026-04-14T12:32:08.881Z</time></trkpt><trkpt lat="42.4766667" lon="-7.5929767"><ele>284.0</ele><time>2026-04-14T12:32:09.882Z</time></trkpt><trkpt lat="42.4765117" lon="-7.5929167"><ele>284.0</ele><time>2026-04-14T12:32:10.881Z</time></trkpt><trkpt lat="42.4763483" lon="-7.5928667"><ele>286.33333333333337</ele><time>2026-04-14T12:32:11.881Z</time></trkpt><trkpt lat="42.4761817" lon="-7.5928167"><ele>288.6666666666667</ele><time>2026-04-14T12:32:12.882Z</time></trkpt><trkpt lat="42.4760267" lon="-7.5927633"><ele>291.0</ele><time>2026-04-14T12:32:13.882Z</time></trkpt><trkpt lat="42.47587" lon="-7.5926833"><ele>291.0</ele><time>2026-04-14T12:32:14.882Z</time></trkpt><trkpt lat="42.47571" lon="-7.5925767"><ele>291.0</ele><time>2026-04-14T12:32:15.882Z</time></trkpt><trkpt lat="42.4755583" lon="-7.5924567"><ele>291.0</ele><time>2026-04-14T12:32:16.882Z</time></trkpt><trkpt lat="42.4754017" lon="-7.5923267"><ele>293.0</ele><time>2026-04-14T12:32:17.881Z</time></trkpt><trkpt lat="42.47526" lon="-7.5922033"><ele>295.0</ele><time>2026-04-14T12:32:18.881Z</time></trkpt><trkpt lat="42.475115" lon="-7.5920633"><ele>297.0</ele><time>2026-04-14T12:32:19.881Z</time></trkpt><trkpt lat="42.4749883" lon="-7.5919233"><ele>298.0</ele><time>2026-04-14T12:32:20.882Z</time></trkpt><trkpt lat="42.47486" lon="-7.591825"><ele>299.0</ele><time>2026-04-14T12:32:21.881Z</time></trkpt><trkpt lat="42.4747167" lon="-7.5917533"><ele>300.0</ele><time>2026-04-14T12:32:22.882Z</time></trkpt><trkpt lat="42.4745633" lon="-7.591705"><ele>301.3333333333333</ele><time>2026-04-14T12:32:23.881Z</time></trkpt><trkpt lat="42.4744117" lon="-7.5916417"><ele>302.66666666666663</ele><time>2026-04-14T12:32:24.881Z</time></trkpt><trkpt lat="42.4742633" lon="-7.5915683"><ele>304.0</ele><time>2026-04-14T12:32:25.881Z</time></trkpt><trkpt lat="42.4741217" lon="-7.5915083"><ele>304.0</ele><time>2026-04-14T12:32:26.882Z</time></trkpt><trkpt lat="42.4739667" lon="-7.5914467"><ele>304.0</ele><time>2026-04-14T12:32:27.882Z</time></trkpt><trkpt lat="42.4738233" lon="-7.591395"><ele>304.0</ele><time>2026-04-14T12:32:28.881Z</time></trkpt><trkpt lat="42.4736967" lon="-7.5913533"><ele>304.0</ele><time>2026-04-14T12:32:29.882Z</time></trkpt><trkpt lat="42.473585" lon="-7.5913117"><ele>305.25</ele><time>2026-04-14T12:32:30.881Z</time></trkpt><trkpt lat="42.4734833" lon="-7.5912617"><ele>306.5</ele><time>2026-04-14T12:32:31.882Z</time></trkpt><trkpt lat="42.4733717" lon="-7.5912017"><ele>307.75</ele><time>2026-04-14T12:32:32.881Z</time></trkpt><trkpt lat="42.4732783" lon="-7.59112"><ele>309.0</ele><time>2026-04-14T12:32:33.881Z</time></trkpt><trkpt lat="42.4731833" lon="-7.5910217"><ele>309.0</ele><time>2026-04-14T12:32:34.881Z</time></trkpt><trkpt lat="42.4730867" lon="-7.590925"><ele>309.0</ele><time>2026-04-14T12:32:35.882Z</time></trkpt><trkpt lat="42.4729867" lon="-7.590845"><ele>309.0</ele><time>2026-04-14T12:32:36.882Z</time></trkpt><trkpt lat="42.4728633" lon="-7.5907883"><ele>309.0</ele><time>2026-04-14T12:32:37.881Z</time></trkpt><trkpt lat="42.4727333" lon="-7.590765"><ele>309.3333333333333</ele><time>2026-04-14T12:32:38.881Z</time></trkpt><trkpt lat="42.4725833" lon="-7.5907367"><ele>309.66666666666663</ele><time>2026-04-14T12:32:39.882Z</time></trkpt><trkpt lat="42.472435" lon="-7.5907017"><ele>310.0</ele><time>2026-04-14T12:32:40.881Z</time></trkpt><trkpt lat="42.4722733" lon="-7.5906567"><ele>310.0</ele><time>2026-04-14T12:32:41.882Z</time></trkpt><trkpt lat="42.4721167" lon="-7.5906"><ele>310.0</ele><time>2026-04-14T12:32:42.881Z</time></trkpt><trkpt lat="42.471935" lon="-7.5905067"><ele>310.0</ele><time>2026-04-14T12:32:43.882Z</time></trkpt><trkpt lat="42.4717567" lon="-7.5904217"><ele>311.0</ele><time>2026-04-14T12:32:44.881Z</time></trkpt><trkpt lat="42.4715717" lon="-7.5903317"><ele>312.0</ele><time>2026-04-14T12:32:45.882Z</time></trkpt><trkpt lat="42.47139" lon="-7.5902483"><ele>313.0</ele><time>2026-04-14T12:32:46.881Z</time></trkpt><trkpt lat="42.4712083" lon="-7.5901617"><ele>313.3333333333333</ele><time>2026-04-14T12:32:47.881Z</time></trkpt><trkpt lat="42.47103" lon="-7.590075"><ele>313.6666666666667</ele><time>2026-04-14T12:32:48.882Z</time></trkpt><trkpt lat="42.4708433" lon="-7.5899883"><ele>314.0</ele><time>2026-04-14T12:32:49.881Z</time></trkpt><trkpt lat="42.470655" lon="-7.5899067"><ele>314.0</ele><time>2026-04-14T12:32:50.881Z</time></trkpt><trkpt lat="42.4704783" lon="-7.589835"><ele>314.0</ele><time>2026-04-14T12:32:51.881Z</time></trkpt><trkpt lat="42.4703" lon="-7.5897683"><ele>314.0</ele><time>2026-04-14T12:32:52.882Z</time></trkpt><trkpt lat="42.4701167" lon="-7.5896983"><ele>313.6666666666667</ele><time>2026-04-14T12:32:53.882Z</time></trkpt><trkpt lat="42.46993" lon="-7.5896267"><ele>313.3333333333333</ele><time>2026-04-14T12:32:54.882Z</time></trkpt><trkpt lat="42.4697517" lon="-7.5895733"><ele>313.0</ele><time>2026-04-14T12:32:55.881Z</time></trkpt><trkpt lat="42.4695767" lon="-7.5895417"><ele>314.3333333333333</ele><time>2026-04-14T12:32:56.882Z</time></trkpt><trkpt lat="42.4694067" lon="-7.589505"><ele>315.6666666666667</ele><time>2026-04-14T12:32:57.882Z</time></trkpt><trkpt lat="42.469255" lon="-7.58947"><ele>317.0</ele><time>2026-04-14T12:32:58.882Z</time></trkpt><trkpt lat="42.4691017" lon="-7.5894033"><ele>317.0</ele><time>2026-04-14T12:32:59.882Z</time></trkpt><trkpt lat="42.46895" lon="-7.5893167"><ele>317.0</ele><time>2026-04-14T12:33:00.881Z</time></trkpt><trkpt lat="42.468805" lon="-7.5892267"><ele>317.0</ele><time>2026-04-14T12:33:01.882Z</time></trkpt><trkpt lat="42.46867" lon="-7.5891533"><ele>317.5</ele><time>2026-04-14T12:33:02.882Z</time></trkpt><trkpt lat="42.4685267" lon="-7.5891133"><ele>318.0</ele><time>2026-04-14T12:33:03.881Z</time></trkpt><trkpt lat="42.4683883" lon="-7.589105"><ele>318.5</ele><time>2026-04-14T12:33:04.881Z</time></trkpt><trkpt lat="42.4682333" lon="-7.5890783"><ele>319.0</ele><time>2026-04-14T12:33:05.882Z</time></trkpt><trkpt lat="42.46809" lon="-7.589"><ele>319.0</ele><time>2026-04-14T12:33:06.881Z</time></trkpt><trkpt lat="42.4679617" lon="-7.588875"><ele>319.0</ele><time>2026-04-14T12:33:07.882Z</time></trkpt><trkpt lat="42.4678367" lon="-7.5887383"><ele>319.0</ele><time>2026-04-14T12:33:08.882Z</time></trkpt><trkpt lat="42.46771" lon="-7.5886033"><ele>322.3333333333333</ele><time>2026-04-14T12:33:09.882Z</time></trkpt><trkpt lat="42.4675583" lon="-7.5884867"><ele>325.6666666666667</ele><time>2026-04-14T12:33:10.881Z</time></trkpt><trkpt lat="42.4674233" lon="-7.58836"><ele>329.0</ele><time>2026-04-14T12:33:11.882Z</time></trkpt><trkpt lat="42.4672967" lon="-7.5881967"><ele>329.0</ele><time>2026-04-14T12:33:12.881Z</time></trkpt><trkpt lat="42.4671883" lon="-7.5880083"><ele>329.0</ele><time>2026-04-14T12:33:13.881Z</time></trkpt><trkpt lat="42.4670967" lon="-7.5878183"><ele>329.0</ele><time>2026-04-14T12:33:14.882Z</time></trkpt><trkpt lat="42.4669917" lon="-7.5876383"><ele>332.25</ele><time>2026-04-14T12:33:15.882Z</time></trkpt><trkpt lat="42.46688" lon="-7.5874967"><ele>335.5</ele><time>2026-04-14T12:33:16.881Z</time></trkpt><trkpt lat="42.4667633" lon="-7.5873917"><ele>338.75</ele><time>2026-04-14T12:33:17.881Z</time></trkpt><trkpt lat="42.4666517" lon="-7.58732"><ele>342.0</ele><time>2026-04-14T12:33:18.881Z</time></trkpt><trkpt lat="42.4665283" lon="-7.5872683"><ele>342.0</ele><time>2026-04-14T12:33:19.881Z</time></trkpt><trkpt lat="42.4664133" lon="-7.5872"><ele>342.0</ele><time>2026-04-14T12:33:20.882Z</time></trkpt><trkpt lat="42.4663083" lon="-7.5871067"><ele>342.0</ele><time>2026-04-14T12:33:21.882Z</time></trkpt><trkpt lat="42.466245" lon="-7.58705"><ele>342.0</ele><time>2026-04-14T12:33:22.881Z</time></trkpt><trkpt lat="42.4661883" lon="-7.58694"><ele>342.0</ele><time>2026-04-14T12:33:24.881Z</time></trkpt><trkpt lat="42.4662133" lon="-7.5868183"><ele>343.0</ele><time>2026-04-14T12:33:26.882Z</time></trkpt><trkpt lat="42.4662683" lon="-7.58676"><ele>344.0</ele><time>2026-04-14T12:33:27.881Z</time></trkpt><trkpt lat="42.4663483" lon="-7.5866867"><ele>345.0</ele><time>2026-04-14T12:33:28.882Z</time></trkpt><trkpt lat="42.4664533" lon="-7.586585"><ele>346.0</ele><time>2026-04-14T12:33:29.882Z</time></trkpt><trkpt lat="42.4665267" lon="-7.5864633"><ele>347.0</ele><time>2026-04-14T12:33:30.881Z</time></trkpt><trkpt lat="42.4665683" lon="-7.5863283"><ele>347.0</ele><time>2026-04-14T12:33:31.881Z</time></trkpt><trkpt lat="42.466585" lon="-7.5861883"><ele>347.0</ele><time>2026-04-14T12:33:32.881Z</time></trkpt><trkpt lat="42.4665883" lon="-7.586035"><ele>347.0</ele><time>2026-04-14T12:33:33.881Z</time></trkpt><trkpt lat="42.466595" lon="-7.5858817"><ele>347.0</ele><time>2026-04-14T12:33:34.882Z</time></trkpt><trkpt lat="42.46659" lon="-7.5857517"><ele>347.0</ele><time>2026-04-14T12:33:35.882Z</time></trkpt><trkpt lat="42.466575" lon="-7.5856633"><ele>347.8</ele><time>2026-04-14T12:33:36.882Z</time></trkpt><trkpt lat="42.4665" lon="-7.5855867"><ele>348.6</ele><time>2026-04-14T12:33:38.881Z</time></trkpt><trkpt lat="42.4664267" lon="-7.58561"><ele>349.40000000000003</ele><time>2026-04-14T12:33:39.881Z</time></trkpt><trkpt lat="42.4663367" lon="-7.5856733"><ele>350.20000000000005</ele><time>2026-04-14T12:33:40.881Z</time></trkpt><trkpt lat="42.4662233" lon="-7.5857583"><ele>351.0</ele><time>2026-04-14T12:33:41.882Z</time></trkpt><trkpt lat="42.4660833" lon="-7.58586"><ele>357.0</ele><time>2026-04-14T12:33:42.881Z</time></trkpt><trkpt lat="42.46593" lon="-7.5859633"><ele>363.0</ele><time>2026-04-14T12:33:43.881Z</time></trkpt><trkpt lat="42.4657617" lon="-7.5860683"><ele>369.0</ele><time>2026-04-14T12:33:44.881Z</time></trkpt><trkpt lat="42.4656" lon="-7.58614"><ele>369.0</ele><time>2026-04-14T12:33:45.882Z</time></trkpt><trkpt lat="42.46545" lon="-7.5861733"><ele>369.0</ele><time>2026-04-14T12:33:46.882Z</time></trkpt><trkpt lat="42.46531" lon="-7.5861883"><ele>369.0</ele><time>2026-04-14T12:33:47.882Z</time></trkpt><trkpt lat="42.4651767" lon="-7.5861983"><ele>369.0</ele><time>2026-04-14T12:33:48.881Z</time></trkpt><trkpt lat="42.4650383" lon="-7.5862083"><ele>370.3333333333333</ele><time>2026-04-14T12:33:49.881Z</time></trkpt><trkpt lat="42.46489" lon="-7.586215"><ele>371.66666666666663</ele><time>2026-04-14T12:33:50.882Z</time></trkpt><trkpt lat="42.4647317" lon="-7.5862233"><ele>373.0</ele><time>2026-04-14T12:33:51.882Z</time></trkpt><trkpt lat="42.4645667" lon="-7.586235"><ele>375.0</ele><time>2026-04-14T12:33:52.881Z</time></trkpt><trkpt lat="42.464415" lon="-7.5862533"><ele>377.0</ele><time>2026-04-14T12:33:53.881Z</time></trkpt><trkpt lat="42.4642733" lon="-7.586275"><ele>379.0</ele><time>2026-04-14T12:33:54.882Z</time></trkpt><trkpt lat="42.464175" lon="-7.58632"><ele>381.0</ele><time>2026-04-14T12:33:55.881Z</time></trkpt><trkpt lat="42.4641117" lon="-7.58637"><ele>381.0</ele><time>2026-04-14T12:33:56.881Z</time></trkpt><trkpt lat="42.4640833" lon="-7.5864483"><ele>381.0</ele><time>2026-04-14T12:33:57.882Z</time></trkpt><trkpt lat="42.46406" lon="-7.5865517"><ele>381.0</ele><time>2026-04-14T12:33:58.881Z</time></trkpt><trkpt lat="42.4640283" lon="-7.58668"><ele>381.0</ele><time>2026-04-14T12:33:59.882Z</time></trkpt><trkpt lat="42.463995" lon="-7.5868083"><ele>381.0</ele><time>2026-04-14T12:34:00.881Z</time></trkpt><trkpt lat="42.4639283" lon="-7.5869217"><ele>380.25</ele><time>2026-04-14T12:34:01.881Z</time></trkpt><trkpt lat="42.4638433" lon="-7.587035"><ele>379.5</ele><time>2026-04-14T12:34:02.881Z</time></trkpt><trkpt lat="42.4637617" lon="-7.5871733"><ele>378.75</ele><time>2026-04-14T12:34:03.881Z</time></trkpt><trkpt lat="42.4636667" lon="-7.587325"><ele>378.0</ele><time>2026-04-14T12:34:04.882Z</time></trkpt><trkpt lat="42.463555" lon="-7.5874833"><ele>379.6666666666667</ele><time>2026-04-14T12:34:05.882Z</time></trkpt><trkpt lat="42.4634283" lon="-7.5876533"><ele>381.33333333333337</ele><time>2026-04-14T12:34:06.882Z</time></trkpt><trkpt lat="42.4633033" lon="-7.587835"><ele>383.0</ele><time>2026-04-14T12:34:07.881Z</time></trkpt><trkpt lat="42.4631767" lon="-7.5880083"><ele>383.0</ele><time>2026-04-14T12:34:08.882Z</time></trkpt><trkpt lat="42.46304" lon="-7.58814"><ele>383.0</ele><time>2026-04-14T12:34:09.881Z</time></trkpt><trkpt lat="42.4629083" lon="-7.58826"><ele>383.0</ele><time>2026-04-14T12:34:10.882Z</time></trkpt><trkpt lat="42.4627633" lon="-7.5883533"><ele>384.25</ele><time>2026-04-14T12:34:11.882Z</time></trkpt><trkpt lat="42.4626233" lon="-7.5884383"><ele>385.5</ele><time>2026-04-14T12:34:12.881Z</time></trkpt><trkpt lat="42.4625017" lon="-7.588515"><ele>386.75</ele><time>2026-04-14T12:34:13.881Z</time></trkpt><trkpt lat="42.4624117" lon="-7.5885883"><ele>388.0</ele><time>2026-04-14T12:34:14.882Z</time></trkpt><trkpt lat="42.4623517" lon="-7.588665"><ele>386.5</ele><time>2026-04-14T12:34:15.882Z</time></trkpt><trkpt lat="42.4623133" lon="-7.5887683"><ele>385.0</ele><time>2026-04-14T12:34:16.881Z</time></trkpt><trkpt lat="42.4623" lon="-7.5888933"><ele>383.5</ele><time>2026-04-14T12:34:17.881Z</time></trkpt><trkpt lat="42.4622967" lon="-7.5890633"><ele>382.0</ele><time>2026-04-14T12:34:18.881Z</time></trkpt><trkpt lat="42.462295" lon="-7.5892633"><ele>381.3333333333333</ele><time>2026-04-14T12:34:19.881Z</time></trkpt><trkpt lat="42.4622983" lon="-7.5895233"><ele>380.6666666666667</ele><time>2026-04-14T12:34:20.881Z</time></trkpt><trkpt lat="42.462305" lon="-7.5898217"><ele>380.0</ele><time>2026-04-14T12:34:21.882Z</time></trkpt><trkpt lat="42.46233" lon="-7.5901183"><ele>379.6666666666667</ele><time>2026-04-14T12:34:22.881Z</time></trkpt><trkpt lat="42.4623667" lon="-7.5904017"><ele>379.3333333333333</ele><time>2026-04-14T12:34:23.881Z</time></trkpt><trkpt lat="42.4624233" lon="-7.5906733"><ele>379.0</ele><time>2026-04-14T12:34:24.882Z</time></trkpt><trkpt lat="42.4625117" lon="-7.5909217"><ele>379.0</ele><time>2026-04-14T12:34:25.881Z</time></trkpt><trkpt lat="42.4626083" lon="-7.5911667"><ele>379.0</ele><time>2026-04-14T12:34:26.882Z</time></trkpt><trkpt lat="42.46269" lon="-7.5914183"><ele>379.0</ele><time>2026-04-14T12:34:27.882Z</time></trkpt><trkpt lat="42.4627367" lon="-7.5916767"><ele>379.0</ele><time>2026-04-14T12:34:28.881Z</time></trkpt><trkpt lat="42.4627633" lon="-7.5919233"><ele>379.0</ele><time>2026-04-14T12:34:29.881Z</time></trkpt><trkpt lat="42.462775" lon="-7.5922117"><ele>379.0</ele><time>2026-04-14T12:34:30.882Z</time></trkpt><trkpt lat="42.462735" lon="-7.59253"><ele>371.0</ele><time>2026-04-14T12:34:31.881Z</time></trkpt><trkpt lat="42.4626533" lon="-7.592865"><ele>363.0</ele><time>2026-04-14T12:34:32.881Z</time></trkpt><trkpt lat="42.4625717" lon="-7.593215"><ele>363.0</ele><time>2026-04-14T12:34:33.882Z</time></trkpt><trkpt lat="42.4624917" lon="-7.5935633"><ele>363.0</ele><time>2026-04-14T12:34:34.882Z</time></trkpt><trkpt lat="42.4624133" lon="-7.5938883"><ele>359.5</ele><time>2026-04-14T12:34:35.881Z</time></trkpt><trkpt lat="42.4623383" lon="-7.5941933"><ele>356.0</ele><time>2026-04-14T12:34:36.882Z</time></trkpt><trkpt lat="42.4622733" lon="-7.59448"><ele>357.33333333333337</ele><time>2026-04-14T12:34:37.881Z</time></trkpt><trkpt lat="42.4622017" lon="-7.5947517"><ele>358.6666666666667</ele><time>2026-04-14T12:34:38.881Z</time></trkpt><trkpt lat="42.462135" lon="-7.59504"><ele>360.0</ele><time>2026-04-14T12:34:39.881Z</time></trkpt><trkpt lat="42.4620667" lon="-7.5952967"><ele>358.0</ele><time>2026-04-14T12:34:40.881Z</time></trkpt><trkpt lat="42.462" lon="-7.5955283"><ele>356.0</ele><time>2026-04-14T12:34:41.881Z</time></trkpt><trkpt lat="42.4618967" lon="-7.5956983"><ele>354.0</ele><time>2026-04-14T12:34:42.881Z</time></trkpt><trkpt lat="42.46176" lon="-7.5958383"><ele>354.0</ele><time>2026-04-14T12:34:43.881Z</time></trkpt><trkpt lat="42.4616067" lon="-7.5959333"><ele>354.0</ele><time>2026-04-14T12:34:44.881Z</time></trkpt><trkpt lat="42.4614383" lon="-7.59599"><ele>354.0</ele><time>2026-04-14T12:34:45.881Z</time></trkpt><trkpt lat="42.4612533" lon="-7.59603"><ele>353.6666666666667</ele><time>2026-04-14T12:34:46.882Z</time></trkpt><trkpt lat="42.46107" lon="-7.5960917"><ele>353.33333333333337</ele><time>2026-04-14T12:34:47.881Z</time></trkpt><trkpt lat="42.4608983" lon="-7.5961833"><ele>353.0</ele><time>2026-04-14T12:34:48.882Z</time></trkpt><trkpt lat="42.460755" lon="-7.59631"><ele>353.0</ele><time>2026-04-14T12:34:49.882Z</time></trkpt><trkpt lat="42.460615" lon="-7.5964767"><ele>353.0</ele><time>2026-04-14T12:34:50.881Z</time></trkpt><trkpt lat="42.4604917" lon="-7.5966783"><ele>353.0</ele><time>2026-04-14T12:34:51.882Z</time></trkpt><trkpt lat="42.4603683" lon="-7.5968933"><ele>353.0</ele><time>2026-04-14T12:34:52.882Z</time></trkpt><trkpt lat="42.4602417" lon="-7.5971083"><ele>353.0</ele><time>2026-04-14T12:34:53.881Z</time></trkpt><trkpt lat="42.4601117" lon="-7.5973167"><ele>353.0</ele><time>2026-04-14T12:34:54.882Z</time></trkpt><trkpt lat="42.4599783" lon="-7.5975133"><ele>353.0</ele><time>2026-04-14T12:34:55.881Z</time></trkpt><trkpt lat="42.4598267" lon="-7.597715"><ele>353.0</ele><time>2026-04-14T12:34:56.882Z</time></trkpt><trkpt lat="42.459655" lon="-7.5978983"><ele>353.0</ele><time>2026-04-14T12:34:57.882Z</time></trkpt><trkpt lat="42.45949" lon="-7.59806"><ele>353.6666666666667</ele><time>2026-04-14T12:34:58.881Z</time></trkpt><trkpt lat="42.4593217" lon="-7.598205"><ele>354.3333333333333</ele><time>2026-04-14T12:34:59.881Z</time></trkpt><trkpt lat="42.4591333" lon="-7.5983233"><ele>355.0</ele><time>2026-04-14T12:35:00.882Z</time></trkpt><trkpt lat="42.45896" lon="-7.5984433"><ele>355.0</ele><time>2026-04-14T12:35:01.881Z</time></trkpt><trkpt lat="42.458795" lon="-7.59858"><ele>355.0</ele><time>2026-04-14T12:35:02.881Z</time></trkpt><trkpt lat="42.45865" lon="-7.598755"><ele>355.0</ele><time>2026-04-14T12:35:03.881Z</time></trkpt><trkpt lat="42.4585167" lon="-7.5989483"><ele>355.0</ele><time>2026-04-14T12:35:04.881Z</time></trkpt><trkpt lat="42.4583817" lon="-7.5991567"><ele>355.0</ele><time>2026-04-14T12:35:05.882Z</time></trkpt><trkpt lat="42.4582667" lon="-7.5993767"><ele>355.0</ele><time>2026-04-14T12:35:06.882Z</time></trkpt><trkpt lat="42.4581517" lon="-7.5996083"><ele>355.0</ele><time>2026-04-14T12:35:07.882Z</time></trkpt><trkpt lat="42.4580617" lon="-7.599865"><ele>355.0</ele><time>2026-04-14T12:35:08.881Z</time></trkpt><trkpt lat="42.4579817" lon="-7.6001267"><ele>355.0</ele><time>2026-04-14T12:35:09.881Z</time></trkpt><trkpt lat="42.4579217" lon="-7.600385"><ele>361.0</ele><time>2026-04-14T12:35:10.882Z</time></trkpt><trkpt lat="42.4578767" lon="-7.6006517"><ele>367.0</ele><time>2026-04-14T12:35:11.882Z</time></trkpt><trkpt lat="42.4578517" lon="-7.6009367"><ele>373.0</ele><time>2026-04-14T12:35:12.881Z</time></trkpt><trkpt lat="42.4578483" lon="-7.6011983"><ele>374.66666666666663</ele><time>2026-04-14T12:35:13.881Z</time></trkpt><trkpt lat="42.4578833" lon="-7.6014733"><ele>376.3333333333333</ele><time>2026-04-14T12:35:14.882Z</time></trkpt><trkpt lat="42.4579433" lon="-7.6017567"><ele>378.0</ele><time>2026-04-14T12:35:15.882Z</time></trkpt><trkpt lat="42.4580183" lon="-7.602035"><ele>374.0</ele><time>2026-04-14T12:35:16.882Z</time></trkpt><trkpt lat="42.4581017" lon="-7.6023117"><ele>370.0</ele><time>2026-04-14T12:35:17.881Z</time></trkpt><trkpt lat="42.45818" lon="-7.60259"><ele>366.0</ele><time>2026-04-14T12:35:18.881Z</time></trkpt><trkpt lat="42.4582567" lon="-7.6028733"><ele>366.0</ele><time>2026-04-14T12:35:19.881Z</time></trkpt><trkpt lat="42.458335" lon="-7.6031483"><ele>366.0</ele><time>2026-04-14T12:35:20.881Z</time></trkpt><trkpt lat="42.4584017" lon="-7.6034333"><ele>366.0</ele><time>2026-04-14T12:35:21.881Z</time></trkpt><trkpt lat="42.4584667" lon="-7.603705"><ele>367.0</ele><time>2026-04-14T12:35:22.881Z</time></trkpt><trkpt lat="42.4585067" lon="-7.603975"><ele>368.0</ele><time>2026-04-14T12:35:23.881Z</time></trkpt><trkpt lat="42.4585167" lon="-7.60424"><ele>369.0</ele><time>2026-04-14T12:35:24.881Z</time></trkpt><trkpt lat="42.4585" lon="-7.60449"><ele>368.3333333333333</ele><time>2026-04-14T12:35:25.882Z</time></trkpt><trkpt lat="42.4584617" lon="-7.6047433"><ele>367.66666666666663</ele><time>2026-04-14T12:35:26.882Z</time></trkpt><trkpt lat="42.4583767" lon="-7.604995"><ele>367.0</ele><time>2026-04-14T12:35:27.881Z</time></trkpt><trkpt lat="42.45829" lon="-7.6052467"><ele>366.0</ele><time>2026-04-14T12:35:28.881Z</time></trkpt><trkpt lat="42.4581933" lon="-7.6055033"><ele>365.0</ele><time>2026-04-14T12:35:29.881Z</time></trkpt><trkpt lat="42.4581017" lon="-7.6057767"><ele>364.0</ele><time>2026-04-14T12:35:30.882Z</time></trkpt><trkpt lat="42.4580117" lon="-7.6060517"><ele>366.66666666666663</ele><time>2026-04-14T12:35:31.882Z</time></trkpt><trkpt lat="42.4579233" lon="-7.6063383"><ele>369.3333333333333</ele><time>2026-04-14T12:35:32.882Z</time></trkpt><trkpt lat="42.4578233" lon="-7.6066"><ele>372.0</ele><time>2026-04-14T12:35:33.882Z</time></trkpt><trkpt lat="42.4577183" lon="-7.6068667"><ele>368.6666666666667</ele><time>2026-04-14T12:35:34.882Z</time></trkpt><trkpt lat="42.4575933" lon="-7.6071183"><ele>365.33333333333337</ele><time>2026-04-14T12:35:35.881Z</time></trkpt><trkpt lat="42.45744" lon="-7.60734"><ele>362.0</ele><time>2026-04-14T12:35:36.882Z</time></trkpt><trkpt lat="42.4572733" lon="-7.6075417"><ele>363.5</ele><time>2026-04-14T12:35:37.881Z</time></trkpt><trkpt lat="42.4570883" lon="-7.60774"><ele>365.0</ele><time>2026-04-14T12:35:38.881Z</time></trkpt><trkpt lat="42.4568883" lon="-7.6079083"><ele>359.5</ele><time>2026-04-14T12:35:39.882Z</time></trkpt><trkpt lat="42.45667" lon="-7.6080567"><ele>354.0</ele><time>2026-04-14T12:35:40.881Z</time></trkpt><trkpt lat="42.4564583" lon="-7.6081967"><ele>355.0</ele><time>2026-04-14T12:35:41.882Z</time></trkpt><trkpt lat="42.4562583" lon="-7.6083367"><ele>356.0</ele><time>2026-04-14T12:35:42.881Z</time></trkpt><trkpt lat="42.4560817" lon="-7.6085017"><ele>357.0</ele><time>2026-04-14T12:35:43.882Z</time></trkpt><trkpt lat="42.4559233" lon="-7.608705"><ele>354.0</ele><time>2026-04-14T12:35:44.881Z</time></trkpt><trkpt lat="42.4557717" lon="-7.60895"><ele>351.0</ele><time>2026-04-14T12:35:45.881Z</time></trkpt><trkpt lat="42.4556517" lon="-7.6092183"><ele>351.0</ele><time>2026-04-14T12:35:46.881Z</time></trkpt><trkpt lat="42.4555467" lon="-7.6094917"><ele>351.0</ele><time>2026-04-14T12:35:47.881Z</time></trkpt><trkpt lat="42.4554483" lon="-7.6097767"><ele>351.5</ele><time>2026-04-14T12:35:48.882Z</time></trkpt><trkpt lat="42.4553467" lon="-7.610065"><ele>352.0</ele><time>2026-04-14T12:35:49.881Z</time></trkpt><trkpt lat="42.4552483" lon="-7.610345"><ele>352.0</ele><time>2026-04-14T12:35:50.882Z</time></trkpt><trkpt lat="42.4551517" lon="-7.6106183"><ele>352.0</ele><time>2026-04-14T12:35:51.882Z</time></trkpt><trkpt lat="42.4550633" lon="-7.6108867"><ele>352.0</ele><time>2026-04-14T12:35:52.882Z</time></trkpt><trkpt lat="42.4549667" lon="-7.611145"><ele>353.0</ele><time>2026-04-14T12:35:53.882Z</time></trkpt><trkpt lat="42.4548617" lon="-7.6113983"><ele>354.0</ele><time>2026-04-14T12:35:54.881Z</time></trkpt><trkpt lat="42.4547183" lon="-7.6116283"><ele>355.0</ele><time>2026-04-14T12:35:55.881Z</time></trkpt><trkpt lat="42.4545583" lon="-7.611815"><ele>356.0</ele><time>2026-04-14T12:35:56.881Z</time></trkpt><trkpt lat="42.4543733" lon="-7.6119933"><ele>357.0</ele><time>2026-04-14T12:35:57.882Z</time></trkpt><trkpt lat="42.4541867" lon="-7.612135"><ele>358.0</ele><time>2026-04-14T12:35:58.881Z</time></trkpt><trkpt lat="42.454005" lon="-7.6122767"><ele>358.0</ele><time>2026-04-14T12:35:59.882Z</time></trkpt><trkpt lat="42.4538467" lon="-7.612445"><ele>358.0</ele><time>2026-04-14T12:36:00.881Z</time></trkpt><trkpt lat="42.4537067" lon="-7.6126367"><ele>358.0</ele><time>2026-04-14T12:36:01.881Z</time></trkpt><trkpt lat="42.4535833" lon="-7.61286"><ele>359.3333333333333</ele><time>2026-04-14T12:36:02.882Z</time></trkpt><trkpt lat="42.45347" lon="-7.6130983"><ele>360.6666666666667</ele><time>2026-04-14T12:36:03.881Z</time></trkpt><trkpt lat="42.4533533" lon="-7.6133383"><ele>362.0</ele><time>2026-04-14T12:36:04.881Z</time></trkpt><trkpt lat="42.4532317" lon="-7.61358"><ele>362.33333333333337</ele><time>2026-04-14T12:36:05.881Z</time></trkpt><trkpt lat="42.4531133" lon="-7.6138217"><ele>362.6666666666667</ele><time>2026-04-14T12:36:06.882Z</time></trkpt><trkpt lat="42.4529967" lon="-7.6140633"><ele>363.0</ele><time>2026-04-14T12:36:07.881Z</time></trkpt><trkpt lat="42.45287" lon="-7.614295"><ele>363.6666666666667</ele><time>2026-04-14T12:36:08.882Z</time></trkpt><trkpt lat="42.45275" lon="-7.614515"><ele>364.33333333333337</ele><time>2026-04-14T12:36:09.882Z</time></trkpt><trkpt lat="42.4526517" lon="-7.614725"><ele>365.0</ele><time>2026-04-14T12:36:10.881Z</time></trkpt><trkpt lat="42.45258" lon="-7.61491"><ele>365.0</ele><time>2026-04-14T12:36:11.881Z</time></trkpt><trkpt lat="42.4525017" lon="-7.6150667"><ele>365.0</ele><time>2026-04-14T12:36:12.882Z</time></trkpt><trkpt lat="42.45242" lon="-7.6152083"><ele>365.0</ele><time>2026-04-14T12:36:13.881Z</time></trkpt><trkpt lat="42.4523483" lon="-7.61533"><ele>365.0</ele><time>2026-04-14T12:36:14.881Z</time></trkpt><trkpt lat="42.452275" lon="-7.6154217"><ele>365.0</ele><time>2026-04-14T12:36:15.881Z</time></trkpt><trkpt lat="42.4521967" lon="-7.6155017"><ele>365.0</ele><time>2026-04-14T12:36:16.881Z</time></trkpt><trkpt lat="42.452105" lon="-7.61556"><ele>365.0</ele><time>2026-04-14T12:36:17.881Z</time></trkpt><trkpt lat="42.4519833" lon="-7.6155883"><ele>365.0</ele><time>2026-04-14T12:36:18.882Z</time></trkpt><trkpt lat="42.4518433" lon="-7.6155917"><ele>364.6666666666667</ele><time>2026-04-14T12:36:19.882Z</time></trkpt><trkpt lat="42.45168" lon="-7.615595"><ele>364.3333333333333</ele><time>2026-04-14T12:36:20.881Z</time></trkpt><trkpt lat="42.45149" lon="-7.61561"><ele>364.0</ele><time>2026-04-14T12:36:21.882Z</time></trkpt><trkpt lat="42.4513" lon="-7.61566"><ele>364.3333333333333</ele><time>2026-04-14T12:36:22.881Z</time></trkpt><trkpt lat="42.4511033" lon="-7.6157367"><ele>364.6666666666667</ele><time>2026-04-14T12:36:23.882Z</time></trkpt><trkpt lat="42.450885" lon="-7.6158167"><ele>365.0</ele><time>2026-04-14T12:36:24.882Z</time></trkpt><trkpt lat="42.450675" lon="-7.6159083"><ele>365.0</ele><time>2026-04-14T12:36:25.882Z</time></trkpt><trkpt lat="42.4504617" lon="-7.6160033"><ele>365.0</ele><time>2026-04-14T12:36:26.882Z</time></trkpt><trkpt lat="42.4502467" lon="-7.6161083"><ele>363.33333333333337</ele><time>2026-04-14T12:36:27.882Z</time></trkpt><trkpt lat="42.4500383" lon="-7.6162033"><ele>361.6666666666667</ele><time>2026-04-14T12:36:28.881Z</time></trkpt><trkpt lat="42.4498367" lon="-7.6162883"><ele>360.0</ele><time>2026-04-14T12:36:29.881Z</time></trkpt><trkpt lat="42.449635" lon="-7.6163767"><ele>360.6666666666667</ele><time>2026-04-14T12:36:30.882Z</time></trkpt><trkpt lat="42.4494433" lon="-7.6164633"><ele>361.33333333333337</ele><time>2026-04-14T12:36:31.881Z</time></trkpt><trkpt lat="42.4492617" lon="-7.61654"><ele>362.0</ele><time>2026-04-14T12:36:32.882Z</time></trkpt><trkpt lat="42.44907" lon="-7.61662"><ele>362.0</ele><time>2026-04-14T12:36:33.881Z</time></trkpt><trkpt lat="42.4488817" lon="-7.6167033"><ele>362.0</ele><time>2026-04-14T12:36:34.881Z</time></trkpt><trkpt lat="42.4487067" lon="-7.6167767"><ele>362.0</ele><time>2026-04-14T12:36:35.881Z</time></trkpt><trkpt lat="42.4485633" lon="-7.6168433"><ele>362.33333333333337</ele><time>2026-04-14T12:36:36.882Z</time></trkpt><trkpt lat="42.44842" lon="-7.6168967"><ele>362.6666666666667</ele><time>2026-04-14T12:36:37.882Z</time></trkpt><trkpt lat="42.4482733" lon="-7.6169283"><ele>363.0</ele><time>2026-04-14T12:36:38.882Z</time></trkpt><trkpt lat="42.4481133" lon="-7.6169217"><ele>361.6666666666667</ele><time>2026-04-14T12:36:39.882Z</time></trkpt><trkpt lat="42.4479517" lon="-7.6168917"><ele>360.33333333333337</ele><time>2026-04-14T12:36:40.882Z</time></trkpt><trkpt lat="42.44779" lon="-7.61684"><ele>359.0</ele><time>2026-04-14T12:36:41.881Z</time></trkpt><trkpt lat="42.44763" lon="-7.6167767"><ele>359.0</ele><time>2026-04-14T12:36:42.882Z</time></trkpt><trkpt lat="42.44747" lon="-7.6166983"><ele>359.0</ele><time>2026-04-14T12:36:43.882Z</time></trkpt><trkpt lat="42.4473317" lon="-7.616615"><ele>359.0</ele><time>2026-04-14T12:36:44.881Z</time></trkpt><trkpt lat="42.4472067" lon="-7.6165233"><ele>358.75</ele><time>2026-04-14T12:36:45.881Z</time></trkpt><trkpt lat="42.4470967" lon="-7.61648"><ele>358.5</ele><time>2026-04-14T12:36:46.882Z</time></trkpt><trkpt lat="42.4469917" lon="-7.6164817"><ele>358.25</ele><time>2026-04-14T12:36:47.881Z</time></trkpt><trkpt lat="42.4468733" lon="-7.6165517"><ele>358.0</ele><time>2026-04-14T12:36:48.882Z</time></trkpt><trkpt lat="42.4467583" lon="-7.6166383"><ele>358.0</ele><time>2026-04-14T12:36:49.882Z</time></trkpt><trkpt lat="42.446615" lon="-7.6166867"><ele>358.0</ele><time>2026-04-14T12:36:50.881Z</time></trkpt><trkpt lat="42.446455" lon="-7.61669"><ele>358.0</ele><time>2026-04-14T12:36:51.881Z</time></trkpt><trkpt lat="42.446295" lon="-7.6166767"><ele>359.25</ele><time>2026-04-14T12:36:52.881Z</time></trkpt><trkpt lat="42.4461533" lon="-7.6166733"><ele>360.5</ele><time>2026-04-14T12:36:53.881Z</time></trkpt><trkpt lat="42.4460333" lon="-7.616705"><ele>361.75</ele><time>2026-04-14T12:36:54.881Z</time></trkpt><trkpt lat="42.44593" lon="-7.616785"><ele>363.0</ele><time>2026-04-14T12:36:55.882Z</time></trkpt><trkpt lat="42.4458417" lon="-7.6169033"><ele>363.6666666666667</ele><time>2026-04-14T12:36:56.882Z</time></trkpt><trkpt lat="42.4457517" lon="-7.61706"><ele>364.33333333333337</ele><time>2026-04-14T12:36:57.881Z</time></trkpt><trkpt lat="42.4456567" lon="-7.617215"><ele>365.0</ele><time>2026-04-14T12:36:58.881Z</time></trkpt><trkpt lat="42.44555" lon="-7.617375"><ele>366.6666666666667</ele><time>2026-04-14T12:36:59.881Z</time></trkpt><trkpt lat="42.44546" lon="-7.61753"><ele>368.3333333333333</ele><time>2026-04-14T12:37:00.881Z</time></trkpt><trkpt lat="42.4453867" lon="-7.6176983"><ele>370.0</ele><time>2026-04-14T12:37:01.881Z</time></trkpt><trkpt lat="42.4453367" lon="-7.6179117"><ele>370.0</ele><time>2026-04-14T12:37:02.882Z</time></trkpt><trkpt lat="42.4452917" lon="-7.6181417"><ele>370.0</ele><time>2026-04-14T12:37:03.882Z</time></trkpt><trkpt lat="42.4452467" lon="-7.6183833"><ele>370.0</ele><time>2026-04-14T12:37:04.882Z</time></trkpt><trkpt lat="42.4452067" lon="-7.61863"><ele>370.66666666666663</ele><time>2026-04-14T12:37:05.882Z</time></trkpt><trkpt lat="42.4451633" lon="-7.6188933"><ele>371.3333333333333</ele><time>2026-04-14T12:37:06.881Z</time></trkpt><trkpt lat="42.4451133" lon="-7.61917"><ele>372.0</ele><time>2026-04-14T12:37:07.881Z</time></trkpt><trkpt lat="42.4450633" lon="-7.6194383"><ele>374.0</ele><time>2026-04-14T12:37:08.882Z</time></trkpt><trkpt lat="42.44502" lon="-7.6196883"><ele>376.0</ele><time>2026-04-14T12:37:09.881Z</time></trkpt><trkpt lat="42.444975" lon="-7.619905"><ele>378.0</ele><time>2026-04-14T12:37:10.881Z</time></trkpt><trkpt lat="42.4449217" lon="-7.6201033"><ele>378.0</ele><time>2026-04-14T12:37:11.881Z</time></trkpt><trkpt lat="42.44484" lon="-7.6202867"><ele>378.0</ele><time>2026-04-14T12:37:12.881Z</time></trkpt><trkpt lat="42.4447367" lon="-7.62046"><ele>378.0</ele><time>2026-04-14T12:37:13.882Z</time></trkpt><trkpt lat="42.444605" lon="-7.6206217"><ele>381.33333333333337</ele><time>2026-04-14T12:37:14.882Z</time></trkpt><trkpt lat="42.4444567" lon="-7.62077"><ele>384.6666666666667</ele><time>2026-04-14T12:37:15.882Z</time></trkpt><trkpt lat="42.4443017" lon="-7.6209067"><ele>388.0</ele><time>2026-04-14T12:37:16.881Z</time></trkpt><trkpt lat="42.44414" lon="-7.6210533"><ele>388.33333333333337</ele><time>2026-04-14T12:37:17.881Z</time></trkpt><trkpt lat="42.44397" lon="-7.6212017"><ele>388.66666666666663</ele><time>2026-04-14T12:37:18.882Z</time></trkpt><trkpt lat="42.4438" lon="-7.621355"><ele>389.0</ele><time>2026-04-14T12:37:19.882Z</time></trkpt><trkpt lat="42.44363" lon="-7.62149"><ele>390.3333333333333</ele><time>2026-04-14T12:37:20.882Z</time></trkpt><trkpt lat="42.4434383" lon="-7.6216"><ele>391.66666666666663</ele><time>2026-04-14T12:37:21.882Z</time></trkpt><trkpt lat="42.44324" lon="-7.6217067"><ele>393.0</ele><time>2026-04-14T12:37:22.882Z</time></trkpt><trkpt lat="42.4430433" lon="-7.6218217"><ele>393.33333333333337</ele><time>2026-04-14T12:37:23.881Z</time></trkpt><trkpt lat="42.4428567" lon="-7.6219667"><ele>393.6666666666667</ele><time>2026-04-14T12:37:24.882Z</time></trkpt><trkpt lat="42.44267" lon="-7.6221267"><ele>394.0</ele><time>2026-04-14T12:37:25.882Z</time></trkpt><trkpt lat="42.4424867" lon="-7.6222917"><ele>394.6666666666667</ele><time>2026-04-14T12:37:26.882Z</time></trkpt><trkpt lat="42.4423067" lon="-7.6224583"><ele>395.33333333333337</ele><time>2026-04-14T12:37:27.881Z</time></trkpt><trkpt lat="42.4421217" lon="-7.622605"><ele>396.0</ele><time>2026-04-14T12:37:28.881Z</time></trkpt><trkpt lat="42.441935" lon="-7.6227333"><ele>397.0</ele><time>2026-04-14T12:37:29.881Z</time></trkpt><trkpt lat="42.441755" lon="-7.62282"><ele>398.0</ele><time>2026-04-14T12:37:30.881Z</time></trkpt><trkpt lat="42.4415683" lon="-7.622885"><ele>399.0</ele><time>2026-04-14T12:37:31.881Z</time></trkpt><trkpt lat="42.4413617" lon="-7.62291"><ele>399.0</ele><time>2026-04-14T12:37:32.882Z</time></trkpt><trkpt lat="42.4411467" lon="-7.6229233"><ele>399.0</ele><time>2026-04-14T12:37:33.882Z</time></trkpt><trkpt lat="42.44093" lon="-7.6229367"><ele>399.0</ele><time>2026-04-14T12:37:34.881Z</time></trkpt><trkpt lat="42.4407117" lon="-7.6229683"><ele>399.0</ele><time>2026-04-14T12:37:35.881Z</time></trkpt><trkpt lat="42.440495" lon="-7.6229917"><ele>399.0</ele><time>2026-04-14T12:37:36.882Z</time></trkpt><trkpt lat="42.4402867" lon="-7.62301"><ele>399.0</ele><time>2026-04-14T12:37:37.881Z</time></trkpt><trkpt lat="42.4400967" lon="-7.623035"><ele>399.33333333333337</ele><time>2026-04-14T12:37:38.882Z</time></trkpt><trkpt lat="42.4399267" lon="-7.6230367"><ele>399.6666666666667</ele><time>2026-04-14T12:37:39.882Z</time></trkpt><trkpt lat="42.439765" lon="-7.623005"><ele>400.0</ele><time>2026-04-14T12:37:40.881Z</time></trkpt><trkpt lat="42.439595" lon="-7.622935"><ele>401.0</ele><time>2026-04-14T12:37:41.882Z</time></trkpt><trkpt lat="42.4394383" lon="-7.6228283"><ele>402.0</ele><time>2026-04-14T12:37:42.882Z</time></trkpt><trkpt lat="42.4392833" lon="-7.6227283"><ele>403.0</ele><time>2026-04-14T12:37:43.881Z</time></trkpt><trkpt lat="42.4391167" lon="-7.6226517"><ele>403.6666666666667</ele><time>2026-04-14T12:37:44.881Z</time></trkpt><trkpt lat="42.4389333" lon="-7.6226167"><ele>404.33333333333337</ele><time>2026-04-14T12:37:45.881Z</time></trkpt><trkpt lat="42.4387433" lon="-7.622615"><ele>405.0</ele><time>2026-04-14T12:37:46.881Z</time></trkpt><trkpt lat="42.4385417" lon="-7.622625"><ele>406.33333333333337</ele><time>2026-04-14T12:37:47.882Z</time></trkpt><trkpt lat="42.43833" lon="-7.62262"><ele>407.6666666666667</ele><time>2026-04-14T12:37:48.881Z</time></trkpt><trkpt lat="42.4381233" lon="-7.62262"><ele>409.0</ele><time>2026-04-14T12:37:49.882Z</time></trkpt><trkpt lat="42.4379383" lon="-7.62263"><ele>411.0</ele><time>2026-04-14T12:37:50.881Z</time></trkpt><trkpt lat="42.437765" lon="-7.6226617"><ele>413.0</ele><time>2026-04-14T12:37:51.881Z</time></trkpt><trkpt lat="42.4376" lon="-7.622735"><ele>415.0</ele><time>2026-04-14T12:37:52.881Z</time></trkpt><trkpt lat="42.437455" lon="-7.62284"><ele>415.0</ele><time>2026-04-14T12:37:53.882Z</time></trkpt><trkpt lat="42.4373083" lon="-7.6229617"><ele>415.0</ele><time>2026-04-14T12:37:54.881Z</time></trkpt><trkpt lat="42.4371617" lon="-7.6230983"><ele>415.0</ele><time>2026-04-14T12:37:55.882Z</time></trkpt><trkpt lat="42.4370267" lon="-7.6232467"><ele>415.6666666666667</ele><time>2026-04-14T12:37:56.882Z</time></trkpt><trkpt lat="42.4368933" lon="-7.6234133"><ele>416.33333333333337</ele><time>2026-04-14T12:37:57.881Z</time></trkpt><trkpt lat="42.4367683" lon="-7.62356"><ele>417.0</ele><time>2026-04-14T12:37:58.881Z</time></trkpt><trkpt lat="42.4366283" lon="-7.623685"><ele>417.0</ele><time>2026-04-14T12:37:59.882Z</time></trkpt><trkpt lat="42.4364833" lon="-7.6237833"><ele>417.0</ele><time>2026-04-14T12:38:00.882Z</time></trkpt><trkpt lat="42.4363117" lon="-7.6238533"><ele>417.0</ele><time>2026-04-14T12:38:01.882Z</time></trkpt><trkpt lat="42.4361383" lon="-7.6239317"><ele>418.0</ele><time>2026-04-14T12:38:02.882Z</time></trkpt><trkpt lat="42.4359883" lon="-7.6240417"><ele>419.0</ele><time>2026-04-14T12:38:03.882Z</time></trkpt><trkpt lat="42.4358383" lon="-7.6241417"><ele>420.0</ele><time>2026-04-14T12:38:04.882Z</time></trkpt><trkpt lat="42.4356567" lon="-7.6242067"><ele>420.0</ele><time>2026-04-14T12:38:05.881Z</time></trkpt><trkpt lat="42.4354717" lon="-7.6242517"><ele>420.0</ele><time>2026-04-14T12:38:06.881Z</time></trkpt><trkpt lat="42.4352767" lon="-7.6242883"><ele>420.0</ele><time>2026-04-14T12:38:07.881Z</time></trkpt><trkpt lat="42.43508" lon="-7.6243317"><ele>421.0</ele><time>2026-04-14T12:38:08.881Z</time></trkpt><trkpt lat="42.43489" lon="-7.6243767"><ele>422.0</ele><time>2026-04-14T12:38:09.881Z</time></trkpt><trkpt lat="42.4346983" lon="-7.6244267"><ele>423.0</ele><time>2026-04-14T12:38:10.882Z</time></trkpt><trkpt lat="42.4344983" lon="-7.6244833"><ele>423.0</ele><time>2026-04-14T12:38:11.881Z</time></trkpt><trkpt lat="42.4342933" lon="-7.6245533"><ele>423.0</ele><time>2026-04-14T12:38:12.882Z</time></trkpt><trkpt lat="42.4340833" lon="-7.62462"><ele>423.0</ele><time>2026-04-14T12:38:13.882Z</time></trkpt><trkpt lat="42.4338717" lon="-7.624685"><ele>423.66666666666663</ele><time>2026-04-14T12:38:14.883Z</time></trkpt><trkpt lat="42.4336633" lon="-7.62475"><ele>424.3333333333333</ele><time>2026-04-14T12:38:15.883Z</time></trkpt><trkpt lat="42.43348" lon="-7.624825"><ele>425.0</ele><time>2026-04-14T12:38:16.883Z</time></trkpt><trkpt lat="42.4333167" lon="-7.62489"><ele>425.0</ele><time>2026-04-14T12:38:17.882Z</time></trkpt><trkpt lat="42.43318" lon="-7.6249833"><ele>425.0</ele><time>2026-04-14T12:38:18.882Z</time></trkpt><trkpt lat="42.433045" lon="-7.6251017"><ele>425.0</ele><time>2026-04-14T12:38:19.883Z</time></trkpt><trkpt lat="42.4329017" lon="-7.625245"><ele>424.3333333333333</ele><time>2026-04-14T12:38:20.882Z</time></trkpt><trkpt lat="42.4327583" lon="-7.6253983"><ele>423.66666666666663</ele><time>2026-04-14T12:38:21.882Z</time></trkpt><trkpt lat="42.4326033" lon="-7.6255617"><ele>423.0</ele><time>2026-04-14T12:38:22.882Z</time></trkpt><trkpt lat="42.4324417" lon="-7.6257217"><ele>423.0</ele><time>2026-04-14T12:38:23.882Z</time></trkpt><trkpt lat="42.43229" lon="-7.6258867"><ele>423.0</ele><time>2026-04-14T12:38:24.883Z</time></trkpt><trkpt lat="42.4321583" lon="-7.6260333"><ele>423.0</ele><time>2026-04-14T12:38:25.882Z</time></trkpt><trkpt lat="42.4320467" lon="-7.626175"><ele>424.0</ele><time>2026-04-14T12:38:26.883Z</time></trkpt><trkpt lat="42.43193" lon="-7.6263"><ele>425.0</ele><time>2026-04-14T12:38:27.883Z</time></trkpt><trkpt lat="42.4318333" lon="-7.6264267"><ele>426.0</ele><time>2026-04-14T12:38:28.882Z</time></trkpt><trkpt lat="42.431745" lon="-7.6265267"><ele>427.0</ele><time>2026-04-14T12:38:29.883Z</time></trkpt><trkpt lat="42.4316767" lon="-7.6266333"><ele>427.0</ele><time>2026-04-14T12:38:30.882Z</time></trkpt><trkpt lat="42.4316217" lon="-7.6267617"><ele>427.0</ele><time>2026-04-14T12:38:31.882Z</time></trkpt><trkpt lat="42.431575" lon="-7.6269033"><ele>427.0</ele><time>2026-04-14T12:38:32.882Z</time></trkpt><trkpt lat="42.43154" lon="-7.62707"><ele>427.0</ele><time>2026-04-14T12:38:33.882Z</time></trkpt><trkpt lat="42.431495" lon="-7.6272667"><ele>425.6666666666667</ele><time>2026-04-14T12:38:34.882Z</time></trkpt><trkpt lat="42.4314567" lon="-7.6274867"><ele>424.33333333333337</ele><time>2026-04-14T12:38:35.882Z</time></trkpt><trkpt lat="42.4314533" lon="-7.6277267"><ele>423.0</ele><time>2026-04-14T12:38:36.882Z</time></trkpt><trkpt lat="42.4314717" lon="-7.6279667"><ele>422.66666666666663</ele><time>2026-04-14T12:38:37.882Z</time></trkpt><trkpt lat="42.4315067" lon="-7.6282083"><ele>422.3333333333333</ele><time>2026-04-14T12:38:38.883Z</time></trkpt><trkpt lat="42.431575" lon="-7.6284517"><ele>422.0</ele><time>2026-04-14T12:38:39.883Z</time></trkpt><trkpt lat="42.43167" lon="-7.62869"><ele>422.66666666666663</ele><time>2026-04-14T12:38:40.882Z</time></trkpt><trkpt lat="42.4317933" lon="-7.62891"><ele>423.33333333333337</ele><time>2026-04-14T12:38:41.882Z</time></trkpt><trkpt lat="42.4319267" lon="-7.62911"><ele>424.0</ele><time>2026-04-14T12:38:42.882Z</time></trkpt><trkpt lat="42.4320617" lon="-7.6293283"><ele>423.6666666666667</ele><time>2026-04-14T12:38:43.882Z</time></trkpt><trkpt lat="42.432175" lon="-7.629565"><ele>423.33333333333337</ele><time>2026-04-14T12:38:44.883Z</time></trkpt><trkpt lat="42.43227" lon="-7.629825"><ele>423.0</ele><time>2026-04-14T12:38:45.882Z</time></trkpt><trkpt lat="42.4323533" lon="-7.63009"><ele>424.0</ele><time>2026-04-14T12:38:46.882Z</time></trkpt><trkpt lat="42.4324233" lon="-7.6303967"><ele>425.0</ele><time>2026-04-14T12:38:47.883Z</time></trkpt><trkpt lat="42.4324967" lon="-7.6307183"><ele>425.0</ele><time>2026-04-14T12:38:48.883Z</time></trkpt><trkpt lat="42.4325617" lon="-7.63104"><ele>425.0</ele><time>2026-04-14T12:38:49.882Z</time></trkpt><trkpt lat="42.4326233" lon="-7.6313483"><ele>425.0</ele><time>2026-04-14T12:38:50.882Z</time></trkpt><trkpt lat="42.43268" lon="-7.6316367"><ele>425.0</ele><time>2026-04-14T12:38:51.882Z</time></trkpt><trkpt lat="42.4327367" lon="-7.6319167"><ele>425.0</ele><time>2026-04-14T12:38:52.882Z</time></trkpt><trkpt lat="42.432785" lon="-7.6321833"><ele>425.0</ele><time>2026-04-14T12:38:53.882Z</time></trkpt><trkpt lat="42.4328333" lon="-7.6324433"><ele>425.0</ele><time>2026-04-14T12:38:54.883Z</time></trkpt><trkpt lat="42.4328667" lon="-7.6326917"><ele>425.0</ele><time>2026-04-14T12:38:55.883Z</time></trkpt><trkpt lat="42.4328833" lon="-7.6329183"><ele>423.75</ele><time>2026-04-14T12:38:56.882Z</time></trkpt><trkpt lat="42.4328817" lon="-7.63312"><ele>422.5</ele><time>2026-04-14T12:38:57.883Z</time></trkpt><trkpt lat="42.4328633" lon="-7.6333"><ele>421.25</ele><time>2026-04-14T12:38:58.883Z</time></trkpt><trkpt lat="42.432845" lon="-7.63344"><ele>420.0</ele><time>2026-04-14T12:38:59.882Z</time></trkpt><trkpt lat="42.432795" lon="-7.633575"><ele>418.0</ele><time>2026-04-14T12:39:00.882Z</time></trkpt><trkpt lat="42.4327383" lon="-7.6337183"><ele>416.0</ele><time>2026-04-14T12:39:01.882Z</time></trkpt><trkpt lat="42.432715" lon="-7.6338717"><ele>414.0</ele><time>2026-04-14T12:39:02.882Z</time></trkpt><trkpt lat="42.4327233" lon="-7.6340733"><ele>412.0</ele><time>2026-04-14T12:39:03.883Z</time></trkpt><trkpt lat="42.43275" lon="-7.634285"><ele>413.6666666666667</ele><time>2026-04-14T12:39:04.882Z</time></trkpt><trkpt lat="42.432775" lon="-7.63453"><ele>415.33333333333337</ele><time>2026-04-14T12:39:05.883Z</time></trkpt><trkpt lat="42.4328" lon="-7.634795"><ele>417.0</ele><time>2026-04-14T12:39:06.883Z</time></trkpt><trkpt lat="42.4328233" lon="-7.6350683"><ele>419.33333333333337</ele><time>2026-04-14T12:39:07.882Z</time></trkpt><trkpt lat="42.4328383" lon="-7.6353467"><ele>421.6666666666667</ele><time>2026-04-14T12:39:08.883Z</time></trkpt><trkpt lat="42.432825" lon="-7.6356183"><ele>424.0</ele><time>2026-04-14T12:39:09.883Z</time></trkpt><trkpt lat="42.4327933" lon="-7.6358867"><ele>424.0</ele><time>2026-04-14T12:39:10.883Z</time></trkpt><trkpt lat="42.43277" lon="-7.6360867"><ele>424.0</ele><time>2026-04-14T12:39:11.882Z</time></trkpt><trkpt lat="42.43276" lon="-7.636205"><ele>424.0</ele><time>2026-04-14T12:39:12.883Z</time></trkpt><trkpt lat="42.4327567" lon="-7.6363217"><ele>424.0</ele><time>2026-04-14T12:39:14.882Z</time></trkpt><trkpt lat="42.4326567" lon="-7.6364083"><ele>424.0</ele><time>2026-04-14T12:39:16.883Z</time></trkpt><trkpt lat="42.4325467" lon="-7.6364267"><ele>424.79999999999995</ele><time>2026-04-14T12:39:17.882Z</time></trkpt><trkpt lat="42.4324083" lon="-7.6364433"><ele>425.59999999999997</ele><time>2026-04-14T12:39:18.883Z</time></trkpt><trkpt lat="42.4322983" lon="-7.63648"><ele>426.4</ele><time>2026-04-14T12:39:19.882Z</time></trkpt><trkpt lat="42.4322433" lon="-7.6365583"><ele>427.2</ele><time>2026-04-14T12:39:20.882Z</time></trkpt><trkpt lat="42.432225" lon="-7.636665"><ele>428.0</ele><time>2026-04-14T12:39:21.882Z</time></trkpt><trkpt lat="42.4322283" lon="-7.6367933"><ele>428.0</ele><time>2026-04-14T12:39:22.882Z</time></trkpt><trkpt lat="42.4322517" lon="-7.6369683"><ele>428.0</ele><time>2026-04-14T12:39:23.882Z</time></trkpt><trkpt lat="42.432285" lon="-7.637145"><ele>428.0</ele><time>2026-04-14T12:39:24.883Z</time></trkpt><trkpt lat="42.4323483" lon="-7.6373167"><ele>428.0</ele><time>2026-04-14T12:39:25.883Z</time></trkpt><trkpt lat="42.4324383" lon="-7.63749"><ele>429.66666666666663</ele><time>2026-04-14T12:39:26.883Z</time></trkpt><trkpt lat="42.432545" lon="-7.6376667"><ele>431.33333333333337</ele><time>2026-04-14T12:39:27.883Z</time></trkpt><trkpt lat="42.43266" lon="-7.6378433"><ele>433.0</ele><time>2026-04-14T12:39:28.882Z</time></trkpt><trkpt lat="42.432785" lon="-7.6379983"><ele>432.5</ele><time>2026-04-14T12:39:29.883Z</time></trkpt><trkpt lat="42.4329017" lon="-7.63811"><ele>432.0</ele><time>2026-04-14T12:39:30.882Z</time></trkpt><trkpt lat="42.4330167" lon="-7.63819"><ele>431.5</ele><time>2026-04-14T12:39:31.883Z</time></trkpt><trkpt lat="42.4331167" lon="-7.63827"><ele>431.0</ele><time>2026-04-14T12:39:32.882Z</time></trkpt><trkpt lat="42.43319" lon="-7.6383983"><ele>431.0</ele><time>2026-04-14T12:39:33.882Z</time></trkpt><trkpt lat="42.43326" lon="-7.6385583"><ele>431.0</ele><time>2026-04-14T12:39:34.882Z</time></trkpt><trkpt lat="42.4333233" lon="-7.638745"><ele>431.0</ele><time>2026-04-14T12:39:35.883Z</time></trkpt><trkpt lat="42.4333933" lon="-7.63896"><ele>432.66666666666663</ele><time>2026-04-14T12:39:36.883Z</time></trkpt><trkpt lat="42.4334583" lon="-7.6392017"><ele>434.33333333333337</ele><time>2026-04-14T12:39:37.882Z</time></trkpt><trkpt lat="42.4335217" lon="-7.6394517"><ele>436.0</ele><time>2026-04-14T12:39:38.883Z</time></trkpt><trkpt lat="42.4335767" lon="-7.639675"><ele>435.6666666666667</ele><time>2026-04-14T12:39:39.882Z</time></trkpt><trkpt lat="42.43366" lon="-7.6398717"><ele>435.33333333333337</ele><time>2026-04-14T12:39:40.883Z</time></trkpt><trkpt lat="42.4337583" lon="-7.6400417"><ele>435.0</ele><time>2026-04-14T12:39:41.882Z</time></trkpt><trkpt lat="42.43387" lon="-7.64018"><ele>436.0</ele><time>2026-04-14T12:39:42.883Z</time></trkpt><trkpt lat="42.4339683" lon="-7.640335"><ele>437.0</ele><time>2026-04-14T12:39:43.882Z</time></trkpt><trkpt lat="42.4340467" lon="-7.6404917"><ele>438.0</ele><time>2026-04-14T12:39:44.882Z</time></trkpt><trkpt lat="42.4340967" lon="-7.6406867"><ele>439.0</ele><time>2026-04-14T12:39:45.882Z</time></trkpt><trkpt lat="42.4341417" lon="-7.6409033"><ele>438.0</ele><time>2026-04-14T12:39:46.882Z</time></trkpt><trkpt lat="42.4341733" lon="-7.64114"><ele>437.0</ele><time>2026-04-14T12:39:47.882Z</time></trkpt><trkpt lat="42.4341983" lon="-7.6413867"><ele>436.0</ele><time>2026-04-14T12:39:48.882Z</time></trkpt><trkpt lat="42.43421" lon="-7.6416433"><ele>436.0</ele><time>2026-04-14T12:39:49.882Z</time></trkpt><trkpt lat="42.43419" lon="-7.6419167"><ele>436.0</ele><time>2026-04-14T12:39:50.883Z</time></trkpt><trkpt lat="42.4341617" lon="-7.6421517"><ele>436.0</ele><time>2026-04-14T12:39:51.882Z</time></trkpt><trkpt lat="42.4341183" lon="-7.6423733"><ele>433.6666666666667</ele><time>2026-04-14T12:39:52.883Z</time></trkpt><trkpt lat="42.4340567" lon="-7.642575"><ele>431.33333333333337</ele><time>2026-04-14T12:39:53.882Z</time></trkpt><trkpt lat="42.43398" lon="-7.6427717"><ele>429.0</ele><time>2026-04-14T12:39:54.882Z</time></trkpt><trkpt lat="42.4338933" lon="-7.6429433"><ele>429.0</ele><time>2026-04-14T12:39:55.882Z</time></trkpt><trkpt lat="42.4337833" lon="-7.6431117"><ele>429.0</ele><time>2026-04-14T12:39:56.882Z</time></trkpt><trkpt lat="42.4336417" lon="-7.6432583"><ele>429.0</ele><time>2026-04-14T12:39:57.883Z</time></trkpt><trkpt lat="42.4334817" lon="-7.6433983"><ele>429.0</ele><time>2026-04-14T12:39:58.882Z</time></trkpt><trkpt lat="42.4333467" lon="-7.6435283"><ele>429.0</ele><time>2026-04-14T12:39:59.882Z</time></trkpt><trkpt lat="42.4332267" lon="-7.6436683"><ele>429.0</ele><time>2026-04-14T12:40:00.883Z</time></trkpt><trkpt lat="42.4331283" lon="-7.643845"><ele>428.0</ele><time>2026-04-14T12:40:01.882Z</time></trkpt><trkpt lat="42.4330433" lon="-7.6440517"><ele>427.0</ele><time>2026-04-14T12:40:02.882Z</time></trkpt><trkpt lat="42.4329533" lon="-7.6442783"><ele>426.0</ele><time>2026-04-14T12:40:03.882Z</time></trkpt><trkpt lat="42.4328633" lon="-7.644515"><ele>429.66666666666663</ele><time>2026-04-14T12:40:04.882Z</time></trkpt><trkpt lat="42.4327617" lon="-7.64474"><ele>433.3333333333333</ele><time>2026-04-14T12:40:05.882Z</time></trkpt><trkpt lat="42.4326283" lon="-7.6449517"><ele>437.0</ele><time>2026-04-14T12:40:06.883Z</time></trkpt><trkpt lat="42.4324783" lon="-7.64516"><ele>439.0</ele><time>2026-04-14T12:40:07.883Z</time></trkpt><trkpt lat="42.4323317" lon="-7.6453333"><ele>441.0</ele><time>2026-04-14T12:40:08.883Z</time></trkpt><trkpt lat="42.432195" lon="-7.6454733"><ele>443.0</ele><time>2026-04-14T12:40:09.882Z</time></trkpt><trkpt lat="42.4320667" lon="-7.6456067"><ele>443.2</ele><time>2026-04-14T12:40:10.882Z</time></trkpt><trkpt lat="42.4319567" lon="-7.6457367"><ele>443.4</ele><time>2026-04-14T12:40:11.883Z</time></trkpt><trkpt lat="42.43186" lon="-7.6458417"><ele>443.59999999999997</ele><time>2026-04-14T12:40:12.882Z</time></trkpt><trkpt lat="42.4317883" lon="-7.6459067"><ele>443.79999999999995</ele><time>2026-04-14T12:40:13.882Z</time></trkpt><trkpt lat="42.4317233" lon="-7.6459583"><ele>444.0</ele><time>2026-04-14T12:40:14.883Z</time></trkpt><trkpt lat="42.4316567" lon="-7.6460217"><ele>444.0</ele><time>2026-04-14T12:40:15.882Z</time></trkpt><trkpt lat="42.431595" lon="-7.6460833"><ele>444.0</ele><time>2026-04-14T12:40:16.883Z</time></trkpt><trkpt lat="42.431545" lon="-7.64614"><ele>444.0</ele><time>2026-04-14T12:40:17.882Z</time></trkpt><trkpt lat="42.43148" lon="-7.6462133"><ele>444.0</ele><time>2026-04-14T12:40:18.882Z</time></trkpt><trkpt lat="42.4314267" lon="-7.6462967"><ele>444.0</ele><time>2026-04-14T12:40:19.882Z</time></trkpt><trkpt lat="42.431365" lon="-7.6464033"><ele>444.0</ele><time>2026-04-14T12:40:20.883Z</time></trkpt><trkpt lat="42.431265" lon="-7.646515"><ele>444.75</ele><time>2026-04-14T12:40:21.882Z</time></trkpt><trkpt lat="42.43115" lon="-7.6466067"><ele>445.5</ele><time>2026-04-14T12:40:22.883Z</time></trkpt><trkpt lat="42.4310383" lon="-7.6466683"><ele>446.25</ele><time>2026-04-14T12:40:23.882Z</time></trkpt><trkpt lat="42.4309117" lon="-7.6466833"><ele>447.0</ele><time>2026-04-14T12:40:24.882Z</time></trkpt><trkpt lat="42.4307683" lon="-7.646655"><ele>447.0</ele><time>2026-04-14T12:40:25.882Z</time></trkpt><trkpt lat="42.4306183" lon="-7.6466067"><ele>447.0</ele><time>2026-04-14T12:40:26.882Z</time></trkpt><trkpt lat="42.4304767" lon="-7.6465767"><ele>447.0</ele><time>2026-04-14T12:40:27.882Z</time></trkpt><trkpt lat="42.4303217" lon="-7.64655"><ele>447.66666666666663</ele><time>2026-04-14T12:40:28.883Z</time></trkpt><trkpt lat="42.4301617" lon="-7.6465333"><ele>448.3333333333333</ele><time>2026-04-14T12:40:29.883Z</time></trkpt><trkpt lat="42.4299983" lon="-7.6465233"><ele>449.0</ele><time>2026-04-14T12:40:30.882Z</time></trkpt><trkpt lat="42.4298267" lon="-7.646535"><ele>449.0</ele><time>2026-04-14T12:40:31.882Z</time></trkpt><trkpt lat="42.429655" lon="-7.64656"><ele>449.0</ele><time>2026-04-14T12:40:32.882Z</time></trkpt><trkpt lat="42.429485" lon="-7.6465867"><ele>449.0</ele><time>2026-04-14T12:40:33.882Z</time></trkpt><trkpt lat="42.4293017" lon="-7.6466283"><ele>450.0</ele><time>2026-04-14T12:40:34.882Z</time></trkpt><trkpt lat="42.4291117" lon="-7.6466817"><ele>451.0</ele><time>2026-04-14T12:40:35.883Z</time></trkpt><trkpt lat="42.4289067" lon="-7.6467383"><ele>452.0</ele><time>2026-04-14T12:40:36.883Z</time></trkpt><trkpt lat="42.4286867" lon="-7.646815"><ele>454.0</ele><time>2026-04-14T12:40:37.882Z</time></trkpt><trkpt lat="42.4284733" lon="-7.6468983"><ele>456.0</ele><time>2026-04-14T12:40:38.882Z</time></trkpt><trkpt lat="42.4282767" lon="-7.6469683"><ele>458.0</ele><time>2026-04-14T12:40:39.883Z</time></trkpt><trkpt lat="42.4280883" lon="-7.647015"><ele>463.0</ele><time>2026-04-14T12:40:40.882Z</time></trkpt><trkpt lat="42.4279217" lon="-7.6470617"><ele>468.0</ele><time>2026-04-14T12:40:41.882Z</time></trkpt><trkpt lat="42.4277483" lon="-7.6471133"><ele>473.0</ele><time>2026-04-14T12:40:42.882Z</time></trkpt><trkpt lat="42.42758" lon="-7.6471717"><ele>473.0</ele><time>2026-04-14T12:40:43.882Z</time></trkpt><trkpt lat="42.4274067" lon="-7.64724"><ele>473.0</ele><time>2026-04-14T12:40:44.883Z</time></trkpt><trkpt lat="42.4272517" lon="-7.6473233"><ele>473.0</ele><time>2026-04-14T12:40:45.882Z</time></trkpt><trkpt lat="42.427095" lon="-7.647415"><ele>473.66666666666663</ele><time>2026-04-14T12:40:46.883Z</time></trkpt><trkpt lat="42.42693" lon="-7.647515"><ele>474.33333333333337</ele><time>2026-04-14T12:40:47.883Z</time></trkpt><trkpt lat="42.4267533" lon="-7.6476"><ele>475.0</ele><time>2026-04-14T12:40:48.882Z</time></trkpt><trkpt lat="42.4265617" lon="-7.6476667"><ele>475.0</ele><time>2026-04-14T12:40:49.883Z</time></trkpt><trkpt lat="42.426375" lon="-7.6477117"><ele>475.0</ele><time>2026-04-14T12:40:50.883Z</time></trkpt><trkpt lat="42.4262" lon="-7.6477117"><ele>475.0</ele><time>2026-04-14T12:40:51.882Z</time></trkpt><trkpt lat="42.426045" lon="-7.6476867"><ele>477.2</ele><time>2026-04-14T12:40:52.883Z</time></trkpt><trkpt lat="42.4259183" lon="-7.6476483"><ele>479.4</ele><time>2026-04-14T12:40:53.882Z</time></trkpt><trkpt lat="42.425815" lon="-7.6475983"><ele>481.6</ele><time>2026-04-14T12:40:54.883Z</time></trkpt><trkpt lat="42.42574" lon="-7.6475067"><ele>483.8</ele><time>2026-04-14T12:40:55.883Z</time></trkpt><trkpt lat="42.4257067" lon="-7.6474017"><ele>486.0</ele><time>2026-04-14T12:40:56.883Z</time></trkpt><trkpt lat="42.42566" lon="-7.6472767"><ele>486.0</ele><time>2026-04-14T12:40:57.882Z</time></trkpt><trkpt lat="42.4255983" lon="-7.647155"><ele>486.0</ele><time>2026-04-14T12:40:58.882Z</time></trkpt><trkpt lat="42.42554" lon="-7.6470333"><ele>486.0</ele><time>2026-04-14T12:40:59.883Z</time></trkpt><trkpt lat="42.4255117" lon="-7.6469133"><ele>486.0</ele><time>2026-04-14T12:41:00.882Z</time></trkpt><trkpt lat="42.4255" lon="-7.6467767"><ele>486.0</ele><time>2026-04-14T12:41:01.882Z</time></trkpt><trkpt lat="42.4254983" lon="-7.6466167"><ele>485.75</ele><time>2026-04-14T12:41:02.882Z</time></trkpt><trkpt lat="42.4254917" lon="-7.646455"><ele>485.5</ele><time>2026-04-14T12:41:03.883Z</time></trkpt><trkpt lat="42.425505" lon="-7.6463"><ele>485.25</ele><time>2026-04-14T12:41:04.882Z</time></trkpt><trkpt lat="42.42553" lon="-7.64615"><ele>485.0</ele><time>2026-04-14T12:41:05.883Z</time></trkpt><trkpt lat="42.42559" lon="-7.6460033"><ele>488.0</ele><time>2026-04-14T12:41:06.882Z</time></trkpt><trkpt lat="42.42569" lon="-7.6458517"><ele>491.0</ele><time>2026-04-14T12:41:07.882Z</time></trkpt><trkpt lat="42.4258333" lon="-7.64569"><ele>494.0</ele><time>2026-04-14T12:41:08.883Z</time></trkpt><trkpt lat="42.4259883" lon="-7.64552"><ele>494.0</ele><time>2026-04-14T12:41:09.882Z</time></trkpt><trkpt lat="42.426115" lon="-7.64533"><ele>494.0</ele><time>2026-04-14T12:41:10.882Z</time></trkpt><trkpt lat="42.4262117" lon="-7.6451267"><ele>494.0</ele><time>2026-04-14T12:41:11.882Z</time></trkpt><trkpt lat="42.4262917" lon="-7.64493"><ele>494.0</ele><time>2026-04-14T12:41:12.882Z</time></trkpt><trkpt lat="42.4263517" lon="-7.6447633"><ele>494.0</ele><time>2026-04-14T12:41:13.883Z</time></trkpt><trkpt lat="42.4263967" lon="-7.6446317"><ele>494.0</ele><time>2026-04-14T12:41:14.882Z</time></trkpt><trkpt lat="42.42641" lon="-7.6445283"><ele>494.0</ele><time>2026-04-14T12:41:15.883Z</time></trkpt><trkpt lat="42.4263783" lon="-7.6444017"><ele>494.0</ele><time>2026-04-14T12:41:17.883Z</time></trkpt><trkpt lat="42.4263117" lon="-7.64436"><ele>498.0</ele><time>2026-04-14T12:41:18.882Z</time></trkpt><trkpt lat="42.4262317" lon="-7.6443"><ele>502.0</ele><time>2026-04-14T12:41:19.883Z</time></trkpt><trkpt lat="42.426135" lon="-7.6442083"><ele>506.0</ele><time>2026-04-14T12:41:20.882Z</time></trkpt><trkpt lat="42.4260367" lon="-7.64408"><ele>510.0</ele><time>2026-04-14T12:41:21.883Z</time></trkpt><trkpt lat="42.42593" lon="-7.6439633"><ele>510.0</ele><time>2026-04-14T12:41:22.882Z</time></trkpt><trkpt lat="42.4258133" lon="-7.6438767"><ele>510.0</ele><time>2026-04-14T12:41:23.882Z</time></trkpt><trkpt lat="42.42567" lon="-7.643815"><ele>510.0</ele><time>2026-04-14T12:41:24.882Z</time></trkpt><trkpt lat="42.425505" lon="-7.6437667"><ele>513.2</ele><time>2026-04-14T12:41:25.882Z</time></trkpt><trkpt lat="42.4253817" lon="-7.6437367"><ele>516.4</ele><time>2026-04-14T12:41:26.883Z</time></trkpt><trkpt lat="42.4252883" lon="-7.6437183"><ele>519.6</ele><time>2026-04-14T12:41:27.882Z</time></trkpt><trkpt lat="42.4252217" lon="-7.643715"><ele>522.8</ele><time>2026-04-14T12:41:28.882Z</time></trkpt><trkpt lat="42.4251717" lon="-7.6437733"><ele>526.0</ele><time>2026-04-14T12:41:32.882Z</time></trkpt><trkpt lat="42.4252533" lon="-7.6438933"><ele>526.0</ele><time>2026-04-14T12:41:34.882Z</time></trkpt><trkpt lat="42.4253317" lon="-7.6440067"><ele>526.0</ele><time>2026-04-14T12:41:35.882Z</time></trkpt><trkpt lat="42.4254083" lon="-7.6441617"><ele>526.0</ele><time>2026-04-14T12:41:36.883Z</time></trkpt><trkpt lat="42.4254517" lon="-7.6443317"><ele>526.0</ele><time>2026-04-14T12:41:37.883Z</time></trkpt><trkpt lat="42.42545" lon="-7.6445117"><ele>526.0</ele><time>2026-04-14T12:41:38.882Z</time></trkpt><trkpt lat="42.4253917" lon="-7.6447067"><ele>526.0</ele><time>2026-04-14T12:41:39.882Z</time></trkpt><trkpt lat="42.4253" lon="-7.6449267"><ele>526.0</ele><time>2026-04-14T12:41:40.883Z</time></trkpt><trkpt lat="42.4251817" lon="-7.6451417"><ele>521.0</ele><time>2026-04-14T12:41:41.882Z</time></trkpt><trkpt lat="42.42504" lon="-7.6453667"><ele>516.0</ele><time>2026-04-14T12:41:42.883Z</time></trkpt><trkpt lat="42.424895" lon="-7.6456083"><ele>511.0</ele><time>2026-04-14T12:41:43.883Z</time></trkpt><trkpt lat="42.42474" lon="-7.64582"><ele>514.0</ele><time>2026-04-14T12:41:44.883Z</time></trkpt><trkpt lat="42.42458" lon="-7.646"><ele>517.0</ele><time>2026-04-14T12:41:45.883Z</time></trkpt><trkpt lat="42.424415" lon="-7.6461583"><ele>520.0</ele><time>2026-04-14T12:41:46.883Z</time></trkpt><trkpt lat="42.42424" lon="-7.64628"><ele>520.0</ele><time>2026-04-14T12:41:47.882Z</time></trkpt><trkpt lat="42.4240367" lon="-7.646365"><ele>520.0</ele><time>2026-04-14T12:41:48.882Z</time></trkpt><trkpt lat="42.4238433" lon="-7.6464283"><ele>520.0</ele><time>2026-04-14T12:41:49.883Z</time></trkpt><trkpt lat="42.42365" lon="-7.6464767"><ele>521.6666666666667</ele><time>2026-04-14T12:41:50.882Z</time></trkpt><trkpt lat="42.42347" lon="-7.6465333"><ele>523.3333333333334</ele><time>2026-04-14T12:41:51.882Z</time></trkpt><trkpt lat="42.423285" lon="-7.6465883"><ele>525.0</ele><time>2026-04-14T12:41:52.882Z</time></trkpt><trkpt lat="42.42312" lon="-7.6466383"><ele>525.0</ele><time>2026-04-14T12:41:53.883Z</time></trkpt><trkpt lat="42.4229967" lon="-7.64668"><ele>525.0</ele><time>2026-04-14T12:41:54.882Z</time></trkpt><trkpt lat="42.422895" lon="-7.6466967"><ele>525.0</ele><time>2026-04-14T12:41:55.882Z</time></trkpt><trkpt lat="42.42282" lon="-7.646685"><ele>525.0</ele><time>2026-04-14T12:41:56.882Z</time></trkpt><trkpt lat="42.42274" lon="-7.6466733"><ele>525.0</ele><time>2026-04-14T12:41:57.883Z</time></trkpt><trkpt lat="42.422645" lon="-7.64664"><ele>524.75</ele><time>2026-04-14T12:41:58.882Z</time></trkpt><trkpt lat="42.4225433" lon="-7.6465617"><ele>524.5</ele><time>2026-04-14T12:41:59.883Z</time></trkpt><trkpt lat="42.42242" lon="-7.6464617"><ele>524.25</ele><time>2026-04-14T12:42:00.883Z</time></trkpt><trkpt lat="42.4223017" lon="-7.6463333"><ele>524.0</ele><time>2026-04-14T12:42:01.882Z</time></trkpt><trkpt lat="42.4221867" lon="-7.6461867"><ele>521.6666666666666</ele><time>2026-04-14T12:42:02.882Z</time></trkpt><trkpt lat="42.422065" lon="-7.6460533"><ele>519.3333333333334</ele><time>2026-04-14T12:42:03.883Z</time></trkpt><trkpt lat="42.4219233" lon="-7.6459483"><ele>517.0</ele><time>2026-04-14T12:42:04.883Z</time></trkpt><trkpt lat="42.4217533" lon="-7.6458633"><ele>517.0</ele><time>2026-04-14T12:42:05.882Z</time></trkpt><trkpt lat="42.421565" lon="-7.6457933"><ele>517.0</ele><time>2026-04-14T12:42:06.883Z</time></trkpt><trkpt lat="42.42137" lon="-7.6457233"><ele>517.0</ele><time>2026-04-14T12:42:07.883Z</time></trkpt><trkpt lat="42.4211633" lon="-7.6456667"><ele>516.6666666666667</ele><time>2026-04-14T12:42:08.883Z</time></trkpt><trkpt lat="42.4209667" lon="-7.6455933"><ele>516.3333333333334</ele><time>2026-04-14T12:42:09.882Z</time></trkpt><trkpt lat="42.4207967" lon="-7.6455283"><ele>516.0</ele><time>2026-04-14T12:42:10.883Z</time></trkpt><trkpt lat="42.4206583" lon="-7.645455"><ele>516.0</ele><time>2026-04-14T12:42:11.882Z</time></trkpt><trkpt lat="42.42056" lon="-7.645375"><ele>516.0</ele><time>2026-04-14T12:42:12.882Z</time></trkpt><trkpt lat="42.420495" lon="-7.6452667"><ele>516.0</ele><time>2026-04-14T12:42:13.882Z</time></trkpt><trkpt lat="42.4204483" lon="-7.6451367"><ele>516.0</ele><time>2026-04-14T12:42:14.882Z</time></trkpt><trkpt lat="42.4204567" lon="-7.6449767"><ele>516.0</ele><time>2026-04-14T12:42:15.882Z</time></trkpt><trkpt lat="42.4205033" lon="-7.6447667"><ele>513.6666666666666</ele><time>2026-04-14T12:42:16.882Z</time></trkpt><trkpt lat="42.4205633" lon="-7.6445267"><ele>511.3333333333333</ele><time>2026-04-14T12:42:17.883Z</time></trkpt><trkpt lat="42.4206283" lon="-7.6442817"><ele>509.0</ele><time>2026-04-14T12:42:18.882Z</time></trkpt><trkpt lat="42.4206867" lon="-7.6440583"><ele>507.66666666666663</ele><time>2026-04-14T12:42:19.882Z</time></trkpt><trkpt lat="42.420745" lon="-7.6438383"><ele>506.33333333333337</ele><time>2026-04-14T12:42:20.882Z</time></trkpt><trkpt lat="42.420805" lon="-7.6436067"><ele>505.0</ele><time>2026-04-14T12:42:21.882Z</time></trkpt><trkpt lat="42.4208433" lon="-7.6433717"><ele>504.6666666666667</ele><time>2026-04-14T12:42:22.883Z</time></trkpt><trkpt lat="42.42086" lon="-7.6431467"><ele>504.33333333333337</ele><time>2026-04-14T12:42:23.882Z</time></trkpt><trkpt lat="42.4208733" lon="-7.6429283"><ele>504.0</ele><time>2026-04-14T12:42:24.882Z</time></trkpt><trkpt lat="42.4208733" lon="-7.64273"><ele>502.79999999999995</ele><time>2026-04-14T12:42:25.883Z</time></trkpt><trkpt lat="42.420885" lon="-7.6425533"><ele>501.59999999999997</ele><time>2026-04-14T12:42:26.883Z</time></trkpt><trkpt lat="42.4208967" lon="-7.6424267"><ele>500.4</ele><time>2026-04-14T12:42:27.883Z</time></trkpt><trkpt lat="42.4208917" lon="-7.6423233"><ele>499.2</ele><time>2026-04-14T12:42:28.883Z</time></trkpt><trkpt lat="42.4208833" lon="-7.6422283"><ele>498.0</ele><time>2026-04-14T12:42:30.883Z</time></trkpt><trkpt lat="42.4209033" lon="-7.6423767"><ele>498.0</ele><time>2026-04-14T12:42:36.882Z</time></trkpt><trkpt lat="42.4208883" lon="-7.642495"><ele>498.0</ele><time>2026-04-14T12:42:37.883Z</time></trkpt><trkpt lat="42.4208633" lon="-7.642695"><ele>498.0</ele><time>2026-04-14T12:42:38.882Z</time></trkpt><trkpt lat="42.420845" lon="-7.642995"><ele>501.0</ele><time>2026-04-14T12:42:39.883Z</time></trkpt><trkpt lat="42.4208217" lon="-7.6434"><ele>504.0</ele><time>2026-04-14T12:42:40.883Z</time></trkpt><trkpt lat="42.4207767" lon="-7.6437767"><ele>504.5</ele><time>2026-04-14T12:42:41.882Z</time></trkpt><trkpt lat="42.42072" lon="-7.644115"><ele>505.0</ele><time>2026-04-14T12:42:42.883Z</time></trkpt><trkpt lat="42.4206617" lon="-7.644435"><ele>506.33333333333337</ele><time>2026-04-14T12:42:43.882Z</time></trkpt><trkpt lat="42.4206067" lon="-7.6446933"><ele>507.66666666666663</ele><time>2026-04-14T12:42:44.882Z</time></trkpt><trkpt lat="42.4205633" lon="-7.6449"><ele>509.0</ele><time>2026-04-14T12:42:45.883Z</time></trkpt><trkpt lat="42.420535" lon="-7.6450433"><ele>509.0</ele><time>2026-04-14T12:42:46.882Z</time></trkpt><trkpt lat="42.4205083" lon="-7.645135"><ele>509.0</ele><time>2026-04-14T12:42:47.883Z</time></trkpt><trkpt lat="42.4204517" lon="-7.6452583"><ele>509.0</ele><time>2026-04-14T12:42:49.882Z</time></trkpt><trkpt lat="42.4203733" lon="-7.6452183"><ele>509.0</ele><time>2026-04-14T12:42:52.883Z</time></trkpt><trkpt lat="42.4203167" lon="-7.6450933"><ele>509.0</ele><time>2026-04-14T12:42:54.882Z</time></trkpt><trkpt lat="42.4202667" lon="-7.6450033"><ele>509.75</ele><time>2026-04-14T12:42:55.883Z</time></trkpt><trkpt lat="42.4202067" lon="-7.644875"><ele>510.5</ele><time>2026-04-14T12:42:56.882Z</time></trkpt><trkpt lat="42.420155" lon="-7.64474"><ele>511.25</ele><time>2026-04-14T12:42:57.883Z</time></trkpt><trkpt lat="42.42011" lon="-7.6445733"><ele>512.0</ele><time>2026-04-14T12:42:58.882Z</time></trkpt><trkpt lat="42.420075" lon="-7.64438"><ele>505.0</ele><time>2026-04-14T12:42:59.883Z</time></trkpt><trkpt lat="42.42005" lon="-7.6440767"><ele>498.0</ele><time>2026-04-14T12:43:00.882Z</time></trkpt><trkpt lat="42.4200317" lon="-7.643735"><ele>495.5</ele><time>2026-04-14T12:43:01.882Z</time></trkpt><trkpt lat="42.420025" lon="-7.643445"><ele>493.0</ele><time>2026-04-14T12:43:02.883Z</time></trkpt><trkpt lat="42.4200217" lon="-7.6431167"><ele>493.0</ele><time>2026-04-14T12:43:03.883Z</time></trkpt><trkpt lat="42.4200133" lon="-7.6428117"><ele>493.0</ele><time>2026-04-14T12:43:04.882Z</time></trkpt><trkpt lat="42.4200117" lon="-7.6425167"><ele>493.0</ele><time>2026-04-14T12:43:05.883Z</time></trkpt><trkpt lat="42.4200167" lon="-7.6422483"><ele>492.0</ele><time>2026-04-14T12:43:06.883Z</time></trkpt><trkpt lat="42.4200317" lon="-7.6419967"><ele>491.0</ele><time>2026-04-14T12:43:07.883Z</time></trkpt><trkpt lat="42.4200567" lon="-7.6417733"><ele>490.0</ele><time>2026-04-14T12:43:08.882Z</time></trkpt><trkpt lat="42.4200783" lon="-7.6415583"><ele>489.33333333333337</ele><time>2026-04-14T12:43:09.882Z</time></trkpt><trkpt lat="42.4201067" lon="-7.6413533"><ele>488.66666666666663</ele><time>2026-04-14T12:43:10.883Z</time></trkpt><trkpt lat="42.42012" lon="-7.6411383"><ele>488.0</ele><time>2026-04-14T12:43:11.882Z</time></trkpt><trkpt lat="42.42014" lon="-7.6409133"><ele>488.0</ele><time>2026-04-14T12:43:12.883Z</time></trkpt><trkpt lat="42.42015" lon="-7.6406733"><ele>488.0</ele><time>2026-04-14T12:43:13.883Z</time></trkpt><trkpt lat="42.42018" lon="-7.6404483"><ele>488.0</ele><time>2026-04-14T12:43:14.882Z</time></trkpt><trkpt lat="42.4202117" lon="-7.6402067"><ele>488.0</ele><time>2026-04-14T12:43:15.883Z</time></trkpt><trkpt lat="42.4202267" lon="-7.6399617"><ele>488.0</ele><time>2026-04-14T12:43:16.882Z</time></trkpt><trkpt lat="42.4202383" lon="-7.6396983"><ele>488.0</ele><time>2026-04-14T12:43:17.882Z</time></trkpt><trkpt lat="42.4202583" lon="-7.639435"><ele>488.66666666666663</ele><time>2026-04-14T12:43:18.883Z</time></trkpt><trkpt lat="42.42028" lon="-7.6391817"><ele>489.33333333333337</ele><time>2026-04-14T12:43:19.882Z</time></trkpt><trkpt lat="42.4202983" lon="-7.6389417"><ele>490.0</ele><time>2026-04-14T12:43:20.882Z</time></trkpt><trkpt lat="42.4203367" lon="-7.6386883"><ele>489.6666666666667</ele><time>2026-04-14T12:43:21.883Z</time></trkpt><trkpt lat="42.4203967" lon="-7.63843"><ele>489.33333333333337</ele><time>2026-04-14T12:43:22.883Z</time></trkpt><trkpt lat="42.4204533" lon="-7.63817"><ele>489.0</ele><time>2026-04-14T12:43:23.883Z</time></trkpt><trkpt lat="42.4204933" lon="-7.6379117"><ele>482.66666666666663</ele><time>2026-04-14T12:43:24.883Z</time></trkpt><trkpt lat="42.420545" lon="-7.637625"><ele>476.3333333333333</ele><time>2026-04-14T12:43:25.883Z</time></trkpt><trkpt lat="42.4206117" lon="-7.6373283"><ele>470.0</ele><time>2026-04-14T12:43:26.882Z</time></trkpt><trkpt lat="42.420675" lon="-7.637035"><ele>469.3333333333333</ele><time>2026-04-14T12:43:27.882Z</time></trkpt><trkpt lat="42.4207483" lon="-7.6367467"><ele>468.66666666666663</ele><time>2026-04-14T12:43:28.882Z</time></trkpt><trkpt lat="42.420795" lon="-7.6364767"><ele>468.0</ele><time>2026-04-14T12:43:29.882Z</time></trkpt><trkpt lat="42.420825" lon="-7.636265"><ele>466.4</ele><time>2026-04-14T12:43:30.883Z</time></trkpt><trkpt lat="42.4208433" lon="-7.6360867"><ele>464.79999999999995</ele><time>2026-04-14T12:43:31.882Z</time></trkpt><trkpt lat="42.4208217" lon="-7.6359517"><ele>463.2</ele><time>2026-04-14T12:43:32.882Z</time></trkpt><trkpt lat="42.42079" lon="-7.6358333"><ele>461.6</ele><time>2026-04-14T12:43:33.882Z</time></trkpt><trkpt lat="42.4207383" lon="-7.63573"><ele>460.0</ele><time>2026-04-14T12:43:34.882Z</time></trkpt><trkpt lat="42.4206933" lon="-7.635625"><ele>460.0</ele><time>2026-04-14T12:43:35.882Z</time></trkpt><trkpt lat="42.4206317" lon="-7.6355183"><ele>460.0</ele><time>2026-04-14T12:43:36.882Z</time></trkpt><trkpt lat="42.4205633" lon="-7.635395"><ele>460.0</ele><time>2026-04-14T12:43:37.883Z</time></trkpt><trkpt lat="42.4204683" lon="-7.6352767"><ele>460.0</ele><time>2026-04-14T12:43:38.882Z</time></trkpt><trkpt lat="42.4203417" lon="-7.6351633"><ele>460.6666666666667</ele><time>2026-04-14T12:43:39.882Z</time></trkpt><trkpt lat="42.4202033" lon="-7.6350367"><ele>461.33333333333337</ele><time>2026-04-14T12:43:40.883Z</time></trkpt><trkpt lat="42.4200467" lon="-7.6348667"><ele>462.0</ele><time>2026-04-14T12:43:41.882Z</time></trkpt><trkpt lat="42.4198917" lon="-7.6347083"><ele>462.0</ele><time>2026-04-14T12:43:42.882Z</time></trkpt><trkpt lat="42.4197283" lon="-7.63457"><ele>462.0</ele><time>2026-04-14T12:43:43.882Z</time></trkpt><trkpt lat="42.419595" lon="-7.6344617"><ele>462.0</ele><time>2026-04-14T12:43:44.882Z</time></trkpt><trkpt lat="42.4194833" lon="-7.63437"><ele>462.6</ele><time>2026-04-14T12:43:45.882Z</time></trkpt><trkpt lat="42.4193833" lon="-7.63429"><ele>463.20000000000005</ele><time>2026-04-14T12:43:46.882Z</time></trkpt><trkpt lat="42.4192783" lon="-7.6342417"><ele>463.8</ele><time>2026-04-14T12:43:47.883Z</time></trkpt><trkpt lat="42.41917" lon="-7.63421"><ele>464.4</ele><time>2026-04-14T12:43:48.882Z</time></trkpt><trkpt lat="42.4190633" lon="-7.6341717"><ele>465.0</ele><time>2026-04-14T12:43:49.883Z</time></trkpt><trkpt lat="42.4189917" lon="-7.6341433"><ele>465.0</ele><time>2026-04-14T12:43:50.882Z</time></trkpt><trkpt lat="42.4189283" lon="-7.634105"><ele>465.0</ele><time>2026-04-14T12:43:51.882Z</time></trkpt><trkpt lat="42.418865" lon="-7.6340617"><ele>465.0</ele><time>2026-04-14T12:43:52.882Z</time></trkpt><trkpt lat="42.41881" lon="-7.6339367"><ele>465.0</ele><time>2026-04-14T12:43:54.882Z</time></trkpt><trkpt lat="42.4188" lon="-7.6337717"><ele>465.0</ele><time>2026-04-14T12:43:56.883Z</time></trkpt><trkpt lat="42.4188183" lon="-7.63367"><ele>465.0</ele><time>2026-04-14T12:43:57.883Z</time></trkpt><trkpt lat="42.41892" lon="-7.63349"><ele>462.0</ele><time>2026-04-14T12:43:59.882Z</time></trkpt><trkpt lat="42.4190033" lon="-7.6333267"><ele>459.0</ele><time>2026-04-14T12:44:00.883Z</time></trkpt><trkpt lat="42.419075" lon="-7.6332117"><ele>456.0</ele><time>2026-04-14T12:44:01.883Z</time></trkpt><trkpt lat="42.4192033" lon="-7.6330567"><ele>453.0</ele><time>2026-04-14T12:44:02.883Z</time></trkpt><trkpt lat="42.4193817" lon="-7.632925"><ele>453.0</ele><time>2026-04-14T12:44:03.882Z</time></trkpt><trkpt lat="42.4195133" lon="-7.6328067"><ele>453.0</ele><time>2026-04-14T12:44:04.883Z</time></trkpt><trkpt lat="42.4196983" lon="-7.63259"><ele>453.0</ele><time>2026-04-14T12:44:05.883Z</time></trkpt><trkpt lat="42.4198533" lon="-7.6324333"><ele>450.5</ele><time>2026-04-14T12:44:06.883Z</time></trkpt><trkpt lat="42.4199517" lon="-7.6323167"><ele>448.0</ele><time>2026-04-14T12:44:07.882Z</time></trkpt><trkpt lat="42.4200383" lon="-7.6322033"><ele>445.5</ele><time>2026-04-14T12:44:08.882Z</time></trkpt><trkpt lat="42.4201117" lon="-7.632075"><ele>443.0</ele><time>2026-04-14T12:44:09.882Z</time></trkpt><trkpt lat="42.4202133" lon="-7.6319267"><ele>441.25</ele><time>2026-04-14T12:44:10.882Z</time></trkpt><trkpt lat="42.420305" lon="-7.6317767"><ele>439.5</ele><time>2026-04-14T12:44:11.883Z</time></trkpt><trkpt lat="42.420385" lon="-7.6316267"><ele>437.75</ele><time>2026-04-14T12:44:12.883Z</time></trkpt><trkpt lat="42.420455" lon="-7.6314833"><ele>436.0</ele><time>2026-04-14T12:44:13.882Z</time></trkpt><trkpt lat="42.4205133" lon="-7.6313267"><ele>436.0</ele><time>2026-04-14T12:44:14.882Z</time></trkpt><trkpt lat="42.4205583" lon="-7.6311583"><ele>436.0</ele><time>2026-04-14T12:44:15.882Z</time></trkpt><trkpt lat="42.420585" lon="-7.6309983"><ele>436.0</ele><time>2026-04-14T12:44:16.883Z</time></trkpt><trkpt lat="42.4206117" lon="-7.6308417"><ele>436.0</ele><time>2026-04-14T12:44:17.883Z</time></trkpt><trkpt lat="42.4206417" lon="-7.6306983"><ele>433.75</ele><time>2026-04-14T12:44:18.883Z</time></trkpt><trkpt lat="42.4207083" lon="-7.6305483"><ele>431.5</ele><time>2026-04-14T12:44:19.882Z</time></trkpt><trkpt lat="42.4207867" lon="-7.6303967"><ele>429.25</ele><time>2026-04-14T12:44:20.882Z</time></trkpt><trkpt lat="42.4208567" lon="-7.6302333"><ele>427.0</ele><time>2026-04-14T12:44:21.883Z</time></trkpt><trkpt lat="42.420925" lon="-7.6300517"><ele>423.0</ele><time>2026-04-14T12:44:22.882Z</time></trkpt><trkpt lat="42.4209883" lon="-7.6298617"><ele>419.0</ele><time>2026-04-14T12:44:23.882Z</time></trkpt><trkpt lat="42.4210517" lon="-7.6296617"><ele>415.0</ele><time>2026-04-14T12:44:24.882Z</time></trkpt><trkpt lat="42.4211083" lon="-7.629455"><ele>412.33333333333337</ele><time>2026-04-14T12:44:25.882Z</time></trkpt><trkpt lat="42.42117" lon="-7.629245"><ele>409.66666666666663</ele><time>2026-04-14T12:44:26.883Z</time></trkpt><trkpt lat="42.4212583" lon="-7.6290383"><ele>407.0</ele><time>2026-04-14T12:44:27.882Z</time></trkpt><trkpt lat="42.4213633" lon="-7.6288283"><ele>410.66666666666663</ele><time>2026-04-14T12:44:28.882Z</time></trkpt><trkpt lat="42.4214517" lon="-7.6286367"><ele>414.33333333333337</ele><time>2026-04-14T12:44:29.882Z</time></trkpt><trkpt lat="42.4215367" lon="-7.6284517"><ele>418.0</ele><time>2026-04-14T12:44:30.882Z</time></trkpt><trkpt lat="42.4216033" lon="-7.6282733"><ele>418.0</ele><time>2026-04-14T12:44:31.883Z</time></trkpt><trkpt lat="42.421655" lon="-7.6280933"><ele>418.0</ele><time>2026-04-14T12:44:32.882Z</time></trkpt><trkpt lat="42.4217067" lon="-7.6279267"><ele>418.0</ele><time>2026-04-14T12:44:33.882Z</time></trkpt><trkpt lat="42.421765" lon="-7.6277933"><ele>418.0</ele><time>2026-04-14T12:44:34.882Z</time></trkpt><trkpt lat="42.4218367" lon="-7.6276967"><ele>415.79999999999995</ele><time>2026-04-14T12:44:35.882Z</time></trkpt><trkpt lat="42.4219217" lon="-7.6276217"><ele>413.6</ele><time>2026-04-14T12:44:36.883Z</time></trkpt><trkpt lat="42.4220183" lon="-7.6275583"><ele>411.4</ele><time>2026-04-14T12:44:37.883Z</time></trkpt><trkpt lat="42.4221217" lon="-7.627505"><ele>409.20000000000005</ele><time>2026-04-14T12:44:38.883Z</time></trkpt><trkpt lat="42.4222383" lon="-7.6274617"><ele>407.0</ele><time>2026-04-14T12:44:39.882Z</time></trkpt><trkpt lat="42.42237" lon="-7.6274217"><ele>413.0</ele><time>2026-04-14T12:44:40.883Z</time></trkpt><trkpt lat="42.4224917" lon="-7.6273683"><ele>419.0</ele><time>2026-04-14T12:44:41.883Z</time></trkpt><trkpt lat="42.4225967" lon="-7.62729"><ele>425.0</ele><time>2026-04-14T12:44:42.883Z</time></trkpt><trkpt lat="42.4226933" lon="-7.627195"><ele>431.0</ele><time>2026-04-14T12:44:43.883Z</time></trkpt><trkpt lat="42.422805" lon="-7.6271067"><ele>431.0</ele><time>2026-04-14T12:44:44.882Z</time></trkpt><trkpt lat="42.42292" lon="-7.6270317"><ele>431.0</ele><time>2026-04-14T12:44:45.883Z</time></trkpt><trkpt lat="42.423035" lon="-7.626975"><ele>431.0</ele><time>2026-04-14T12:44:46.882Z</time></trkpt><trkpt lat="42.4231533" lon="-7.6269517"><ele>431.0</ele><time>2026-04-14T12:44:47.883Z</time></trkpt><trkpt lat="42.423265" lon="-7.6269583"><ele>434.0</ele><time>2026-04-14T12:44:48.883Z</time></trkpt><trkpt lat="42.4233967" lon="-7.6269783"><ele>437.0</ele><time>2026-04-14T12:44:49.882Z</time></trkpt><trkpt lat="42.423525" lon="-7.626995"><ele>440.0</ele><time>2026-04-14T12:44:50.882Z</time></trkpt><trkpt lat="42.4236417" lon="-7.6270017"><ele>443.0</ele><time>2026-04-14T12:44:51.883Z</time></trkpt><trkpt lat="42.42377" lon="-7.6269833"><ele>438.5</ele><time>2026-04-14T12:44:52.882Z</time></trkpt><trkpt lat="42.4239" lon="-7.6269383"><ele>434.0</ele><time>2026-04-14T12:44:53.883Z</time></trkpt><trkpt lat="42.4240367" lon="-7.626875"><ele>429.5</ele><time>2026-04-14T12:44:54.883Z</time></trkpt><trkpt lat="42.4241733" lon="-7.626805"><ele>425.0</ele><time>2026-04-14T12:44:55.882Z</time></trkpt><trkpt lat="42.424315" lon="-7.62673"><ele>425.0</ele><time>2026-04-14T12:44:56.883Z</time></trkpt><trkpt lat="42.4244583" lon="-7.6266517"><ele>425.0</ele><time>2026-04-14T12:44:57.883Z</time></trkpt><trkpt lat="42.4246017" lon="-7.6265717"><ele>425.0</ele><time>2026-04-14T12:44:58.882Z</time></trkpt><trkpt lat="42.4247467" lon="-7.6264833"><ele>427.66666666666663</ele><time>2026-04-14T12:44:59.882Z</time></trkpt><trkpt lat="42.4248983" lon="-7.6263983"><ele>430.33333333333337</ele><time>2026-04-14T12:45:00.882Z</time></trkpt><trkpt lat="42.4250517" lon="-7.6263167"><ele>433.0</ele><time>2026-04-14T12:45:01.882Z</time></trkpt><trkpt lat="42.42519" lon="-7.6262283"><ele>431.59999999999997</ele><time>2026-04-14T12:45:02.882Z</time></trkpt><trkpt lat="42.4252933" lon="-7.6261333"><ele>430.19999999999993</ele><time>2026-04-14T12:45:03.882Z</time></trkpt><trkpt lat="42.42537" lon="-7.6260367"><ele>428.8</ele><time>2026-04-14T12:45:04.883Z</time></trkpt><trkpt lat="42.425405" lon="-7.6259317"><ele>427.4</ele><time>2026-04-14T12:45:05.883Z</time></trkpt><trkpt lat="42.4254033" lon="-7.625795"><ele>426.0</ele><time>2026-04-14T12:45:06.883Z</time></trkpt><trkpt lat="42.4254267" lon="-7.6256533"><ele>426.0</ele><time>2026-04-14T12:45:07.883Z</time></trkpt><trkpt lat="42.42545" lon="-7.6255017"><ele>426.0</ele><time>2026-04-14T12:45:08.882Z</time></trkpt><trkpt lat="42.4254683" lon="-7.62536"><ele>426.0</ele><time>2026-04-14T12:45:09.883Z</time></trkpt><trkpt lat="42.4254733" lon="-7.6252267"><ele>426.0</ele><time>2026-04-14T12:45:10.882Z</time></trkpt><trkpt lat="42.4254583" lon="-7.6251133"><ele>426.0</ele><time>2026-04-14T12:45:11.883Z</time></trkpt><trkpt lat="42.4254417" lon="-7.6250117"><ele>425.0</ele><time>2026-04-14T12:45:12.883Z</time></trkpt><trkpt lat="42.4254267" lon="-7.6249133"><ele>424.0</ele><time>2026-04-14T12:45:13.882Z</time></trkpt><trkpt lat="42.4254283" lon="-7.6247683"><ele>423.0</ele><time>2026-04-14T12:45:15.882Z</time></trkpt><trkpt lat="42.4254067" lon="-7.6246767"><ele>422.0</ele><time>2026-04-14T12:45:17.883Z</time></trkpt><trkpt lat="42.42534" lon="-7.6245783"><ele>421.0</ele><time>2026-04-14T12:45:19.882Z</time></trkpt><trkpt lat="42.4253133" lon="-7.6244967"><ele>420.0</ele><time>2026-04-14T12:45:20.882Z</time></trkpt><trkpt lat="42.425305" lon="-7.6243983"><ele>419.6666666666667</ele><time>2026-04-14T12:45:21.882Z</time></trkpt><trkpt lat="42.4253167" lon="-7.6242883"><ele>419.33333333333337</ele><time>2026-04-14T12:45:22.882Z</time></trkpt><trkpt lat="42.425335" lon="-7.6241967"><ele>419.0</ele><time>2026-04-14T12:45:23.882Z</time></trkpt><trkpt lat="42.42537" lon="-7.6240933"><ele>418.6666666666667</ele><time>2026-04-14T12:45:24.882Z</time></trkpt><trkpt lat="42.4253933" lon="-7.6239667"><ele>418.33333333333337</ele><time>2026-04-14T12:45:25.883Z</time></trkpt><trkpt lat="42.4254033" lon="-7.6238483"><ele>418.0</ele><time>2026-04-14T12:45:26.883Z</time></trkpt><trkpt lat="42.4254033" lon="-7.6237017"><ele>418.4</ele><time>2026-04-14T12:45:27.882Z</time></trkpt><trkpt lat="42.4253933" lon="-7.62355"><ele>418.79999999999995</ele><time>2026-04-14T12:45:28.882Z</time></trkpt><trkpt lat="42.4253733" lon="-7.6234067"><ele>419.2</ele><time>2026-04-14T12:45:29.883Z</time></trkpt><trkpt lat="42.4253517" lon="-7.6232783"><ele>419.6</ele><time>2026-04-14T12:45:30.883Z</time></trkpt><trkpt lat="42.425335" lon="-7.6231633"><ele>420.0</ele><time>2026-04-14T12:45:31.883Z</time></trkpt><trkpt lat="42.4252767" lon="-7.623045"><ele>420.0</ele><time>2026-04-14T12:45:33.883Z</time></trkpt><trkpt lat="42.4251767" lon="-7.6230867"><ele>420.0</ele><time>2026-04-14T12:45:35.883Z</time></trkpt><trkpt lat="42.4251217" lon="-7.6231333"><ele>420.0</ele><time>2026-04-14T12:45:36.883Z</time></trkpt><trkpt lat="42.4250533" lon="-7.6231633"><ele>420.0</ele><time>2026-04-14T12:45:37.883Z</time></trkpt><trkpt lat="42.4249917" lon="-7.62319"><ele>420.0</ele><time>2026-04-14T12:45:38.883Z</time></trkpt><trkpt lat="42.4249133" lon="-7.623225"><ele>420.0</ele><time>2026-04-14T12:45:39.883Z</time></trkpt><trkpt lat="42.4248233" lon="-7.6232783"><ele>420.0</ele><time>2026-04-14T12:45:40.884Z</time></trkpt><trkpt lat="42.424725" lon="-7.6233533"><ele>420.0</ele><time>2026-04-14T12:45:41.883Z</time></trkpt><trkpt lat="42.4246033" lon="-7.6234533"><ele>420.0</ele><time>2026-04-14T12:45:42.883Z</time></trkpt><trkpt lat="42.4244533" lon="-7.6235683"><ele>420.0</ele><time>2026-04-14T12:45:43.884Z</time></trkpt><trkpt lat="42.4243067" lon="-7.6236683"><ele>421.0</ele><time>2026-04-14T12:45:44.884Z</time></trkpt><trkpt lat="42.4241517" lon="-7.62377"><ele>422.0</ele><time>2026-04-14T12:45:45.883Z</time></trkpt><trkpt lat="42.4239817" lon="-7.623875"><ele>423.0</ele><time>2026-04-14T12:45:46.883Z</time></trkpt><trkpt lat="42.42382" lon="-7.6239783"><ele>427.66666666666663</ele><time>2026-04-14T12:45:47.884Z</time></trkpt><trkpt lat="42.4236583" lon="-7.624095"><ele>432.3333333333333</ele><time>2026-04-14T12:45:48.884Z</time></trkpt><trkpt lat="42.4234917" lon="-7.62422"><ele>437.0</ele><time>2026-04-14T12:45:49.884Z</time></trkpt><trkpt lat="42.4233283" lon="-7.624355"><ele>437.0</ele><time>2026-04-14T12:45:50.883Z</time></trkpt><trkpt lat="42.42319" lon="-7.6244767"><ele>437.0</ele><time>2026-04-14T12:45:51.884Z</time></trkpt><trkpt lat="42.4230533" lon="-7.6245717"><ele>437.0</ele><time>2026-04-14T12:45:52.883Z</time></trkpt><trkpt lat="42.422945" lon="-7.6246267"><ele>437.0</ele><time>2026-04-14T12:45:53.884Z</time></trkpt><trkpt lat="42.4228333" lon="-7.624645"><ele>436.5</ele><time>2026-04-14T12:45:54.883Z</time></trkpt><trkpt lat="42.422725" lon="-7.6246217"><ele>436.0</ele><time>2026-04-14T12:45:55.884Z</time></trkpt><trkpt lat="42.422595" lon="-7.62456"><ele>435.5</ele><time>2026-04-14T12:45:56.884Z</time></trkpt><trkpt lat="42.42246" lon="-7.6244883"><ele>435.0</ele><time>2026-04-14T12:45:57.884Z</time></trkpt><trkpt lat="42.4223083" lon="-7.6243983"><ele>440.33333333333337</ele><time>2026-04-14T12:45:58.884Z</time></trkpt><trkpt lat="42.4221467" lon="-7.624325"><ele>445.6666666666667</ele><time>2026-04-14T12:45:59.884Z</time></trkpt><trkpt lat="42.42196" lon="-7.62427"><ele>451.0</ele><time>2026-04-14T12:46:00.884Z</time></trkpt><trkpt lat="42.4217583" lon="-7.624195"><ele>451.0</ele><time>2026-04-14T12:46:01.884Z</time></trkpt><trkpt lat="42.4215633" lon="-7.6241183"><ele>451.0</ele><time>2026-04-14T12:46:02.883Z</time></trkpt><trkpt lat="42.421355" lon="-7.624045"><ele>451.0</ele><time>2026-04-14T12:46:03.883Z</time></trkpt><trkpt lat="42.4211583" lon="-7.62398"><ele>453.33333333333337</ele><time>2026-04-14T12:46:04.884Z</time></trkpt><trkpt lat="42.4209583" lon="-7.6239683"><ele>455.66666666666663</ele><time>2026-04-14T12:46:05.884Z</time></trkpt><trkpt lat="42.4207717" lon="-7.6239683"><ele>458.0</ele><time>2026-04-14T12:46:06.884Z</time></trkpt><trkpt lat="42.4206" lon="-7.624005"><ele>458.66666666666663</ele><time>2026-04-14T12:46:07.884Z</time></trkpt><trkpt lat="42.42043" lon="-7.6240717"><ele>459.33333333333337</ele><time>2026-04-14T12:46:08.884Z</time></trkpt><trkpt lat="42.42025" lon="-7.6241467"><ele>460.0</ele><time>2026-04-14T12:46:09.884Z</time></trkpt><trkpt lat="42.4200417" lon="-7.624215"><ele>460.0</ele><time>2026-04-14T12:46:10.883Z</time></trkpt><trkpt lat="42.4198333" lon="-7.624295"><ele>460.0</ele><time>2026-04-14T12:46:11.884Z</time></trkpt><trkpt lat="42.41963" lon="-7.6243667"><ele>460.0</ele><time>2026-04-14T12:46:12.883Z</time></trkpt><trkpt lat="42.41944" lon="-7.6244183"><ele>462.0</ele><time>2026-04-14T12:46:13.884Z</time></trkpt><trkpt lat="42.4192767" lon="-7.6244533"><ele>464.0</ele><time>2026-04-14T12:46:14.883Z</time></trkpt><trkpt lat="42.4191417" lon="-7.6244733"><ele>466.0</ele><time>2026-04-14T12:46:15.883Z</time></trkpt><trkpt lat="42.4190383" lon="-7.6244783"><ele>468.0</ele><time>2026-04-14T12:46:16.883Z</time></trkpt><trkpt lat="42.4189483" lon="-7.6244567"><ele>468.0</ele><time>2026-04-14T12:46:17.883Z</time></trkpt><trkpt lat="42.4188717" lon="-7.6244033"><ele>467.99999999999994</ele><time>2026-04-14T12:46:18.883Z</time></trkpt><trkpt lat="42.4188167" lon="-7.6242983"><ele>467.99999999999994</ele><time>2026-04-14T12:46:19.883Z</time></trkpt><trkpt lat="42.4187667" lon="-7.624165"><ele>468.0</ele><time>2026-04-14T12:46:20.883Z</time></trkpt><trkpt lat="42.4186967" lon="-7.624015"><ele>468.0</ele><time>2026-04-14T12:46:21.883Z</time></trkpt><trkpt lat="42.4186233" lon="-7.6238633"><ele>469.66666666666663</ele><time>2026-04-14T12:46:22.883Z</time></trkpt><trkpt lat="42.4185183" lon="-7.62369"><ele>471.3333333333333</ele><time>2026-04-14T12:46:23.884Z</time></trkpt><trkpt lat="42.4184217" lon="-7.6235067"><ele>473.0</ele><time>2026-04-14T12:46:24.883Z</time></trkpt><trkpt lat="42.4183333" lon="-7.6232933"><ele>474.25</ele><time>2026-04-14T12:46:25.883Z</time></trkpt><trkpt lat="42.418275" lon="-7.6230983"><ele>475.5</ele><time>2026-04-14T12:46:26.883Z</time></trkpt><trkpt lat="42.418215" lon="-7.6229333"><ele>476.75</ele><time>2026-04-14T12:46:27.884Z</time></trkpt><trkpt lat="42.418145" lon="-7.6228217"><ele>478.0</ele><time>2026-04-14T12:46:28.883Z</time></trkpt><trkpt lat="42.418055" lon="-7.6227617"><ele>479.75</ele><time>2026-04-14T12:46:29.883Z</time></trkpt><trkpt lat="42.4179417" lon="-7.6227433"><ele>481.5</ele><time>2026-04-14T12:46:30.884Z</time></trkpt><trkpt lat="42.417805" lon="-7.6227667"><ele>483.25</ele><time>2026-04-14T12:46:31.884Z</time></trkpt><trkpt lat="42.4176483" lon="-7.6228117"><ele>485.0</ele><time>2026-04-14T12:46:32.883Z</time></trkpt><trkpt lat="42.4174717" lon="-7.62285"><ele>485.0</ele><time>2026-04-14T12:46:33.883Z</time></trkpt><trkpt lat="42.417295" lon="-7.622865"><ele>485.0</ele><time>2026-04-14T12:46:34.883Z</time></trkpt><trkpt lat="42.4171067" lon="-7.622835"><ele>485.0</ele><time>2026-04-14T12:46:35.884Z</time></trkpt><trkpt lat="42.4169167" lon="-7.622795"><ele>490.0</ele><time>2026-04-14T12:46:36.883Z</time></trkpt><trkpt lat="42.4167333" lon="-7.6227617"><ele>495.0</ele><time>2026-04-14T12:46:37.883Z</time></trkpt><trkpt lat="42.416545" lon="-7.6227367"><ele>500.0</ele><time>2026-04-14T12:46:38.883Z</time></trkpt><trkpt lat="42.416365" lon="-7.6227"><ele>502.0</ele><time>2026-04-14T12:46:39.884Z</time></trkpt><trkpt lat="42.4161917" lon="-7.6226317"><ele>504.0</ele><time>2026-04-14T12:46:40.884Z</time></trkpt><trkpt lat="42.4160417" lon="-7.6225317"><ele>506.0</ele><time>2026-04-14T12:46:41.884Z</time></trkpt><trkpt lat="42.4158833" lon="-7.6224517"><ele>506.0</ele><time>2026-04-14T12:46:42.883Z</time></trkpt><trkpt lat="42.4157133" lon="-7.622405"><ele>506.0</ele><time>2026-04-14T12:46:43.884Z</time></trkpt><trkpt lat="42.4155633" lon="-7.6223983"><ele>506.0</ele><time>2026-04-14T12:46:44.883Z</time></trkpt><trkpt lat="42.41543" lon="-7.62241"><ele>507.0</ele><time>2026-04-14T12:46:45.884Z</time></trkpt><trkpt lat="42.415305" lon="-7.62246"><ele>508.0</ele><time>2026-04-14T12:46:46.884Z</time></trkpt><trkpt lat="42.4151733" lon="-7.62253"><ele>509.0</ele><time>2026-04-14T12:46:47.884Z</time></trkpt><trkpt lat="42.4150383" lon="-7.6226183"><ele>510.0</ele><time>2026-04-14T12:46:48.883Z</time></trkpt><trkpt lat="42.414895" lon="-7.6227"><ele>510.0</ele><time>2026-04-14T12:46:49.883Z</time></trkpt><trkpt lat="42.4147433" lon="-7.622755"><ele>510.0</ele><time>2026-04-14T12:46:50.883Z</time></trkpt><trkpt lat="42.41458" lon="-7.6227833"><ele>510.0</ele><time>2026-04-14T12:46:51.884Z</time></trkpt><trkpt lat="42.4144317" lon="-7.6227867"><ele>512.0</ele><time>2026-04-14T12:46:52.884Z</time></trkpt><trkpt lat="42.4143" lon="-7.6227583"><ele>514.0</ele><time>2026-04-14T12:46:53.883Z</time></trkpt><trkpt lat="42.4141817" lon="-7.6226883"><ele>516.0</ele><time>2026-04-14T12:46:54.884Z</time></trkpt><trkpt lat="42.41406" lon="-7.6225817"><ele>518.0</ele><time>2026-04-14T12:46:55.883Z</time></trkpt><trkpt lat="42.4139467" lon="-7.62244"><ele>518.0</ele><time>2026-04-14T12:46:56.884Z</time></trkpt><trkpt lat="42.4138433" lon="-7.6222683"><ele>518.0</ele><time>2026-04-14T12:46:57.884Z</time></trkpt><trkpt lat="42.4137517" lon="-7.62206"><ele>518.0</ele><time>2026-04-14T12:46:58.883Z</time></trkpt><trkpt lat="42.41369" lon="-7.6218267"><ele>524.0</ele><time>2026-04-14T12:46:59.883Z</time></trkpt><trkpt lat="42.4136417" lon="-7.6215817"><ele>530.0</ele><time>2026-04-14T12:47:00.884Z</time></trkpt><trkpt lat="42.4136183" lon="-7.6213067"><ele>536.0</ele><time>2026-04-14T12:47:01.883Z</time></trkpt><trkpt lat="42.4136067" lon="-7.6210167"><ele>536.0</ele><time>2026-04-14T12:47:02.883Z</time></trkpt><trkpt lat="42.4135783" lon="-7.62071"><ele>536.0</ele><time>2026-04-14T12:47:03.883Z</time></trkpt><trkpt lat="42.41355" lon="-7.6204033"><ele>534.0</ele><time>2026-04-14T12:47:04.883Z</time></trkpt><trkpt lat="42.4135067" lon="-7.6200917"><ele>532.0</ele><time>2026-04-14T12:47:05.883Z</time></trkpt><trkpt lat="42.4134467" lon="-7.61981"><ele>532.0</ele><time>2026-04-14T12:47:06.883Z</time></trkpt><trkpt lat="42.4133833" lon="-7.6195617"><ele>532.0</ele><time>2026-04-14T12:47:07.883Z</time></trkpt><trkpt lat="42.413305" lon="-7.61933"><ele>532.0</ele><time>2026-04-14T12:47:08.883Z</time></trkpt><trkpt lat="42.413215" lon="-7.61912"><ele>530.3333333333334</ele><time>2026-04-14T12:47:09.884Z</time></trkpt><trkpt lat="42.4131117" lon="-7.6189317"><ele>528.6666666666666</ele><time>2026-04-14T12:47:10.883Z</time></trkpt><trkpt lat="42.4130217" lon="-7.618745"><ele>527.0</ele><time>2026-04-14T12:47:11.884Z</time></trkpt><trkpt lat="42.412965" lon="-7.6185217"><ele>530.3333333333333</ele><time>2026-04-14T12:47:12.884Z</time></trkpt><trkpt lat="42.41292" lon="-7.6182583"><ele>533.6666666666666</ele><time>2026-04-14T12:47:13.884Z</time></trkpt><trkpt lat="42.4128517" lon="-7.6179933"><ele>537.0</ele><time>2026-04-14T12:47:14.883Z</time></trkpt><trkpt lat="42.4127867" lon="-7.617735"><ele>537.0</ele><time>2026-04-14T12:47:15.883Z</time></trkpt><trkpt lat="42.4127183" lon="-7.6174783"><ele>537.0</ele><time>2026-04-14T12:47:16.884Z</time></trkpt><trkpt lat="42.412635" lon="-7.6172217"><ele>537.0</ele><time>2026-04-14T12:47:17.884Z</time></trkpt><trkpt lat="42.4125467" lon="-7.6169633"><ele>534.6666666666666</ele><time>2026-04-14T12:47:18.883Z</time></trkpt><trkpt lat="42.41245" lon="-7.616715"><ele>532.3333333333333</ele><time>2026-04-14T12:47:19.883Z</time></trkpt><trkpt lat="42.4123433" lon="-7.6164833"><ele>530.0</ele><time>2026-04-14T12:47:20.883Z</time></trkpt><trkpt lat="42.4122333" lon="-7.6162817"><ele>534.3333333333333</ele><time>2026-04-14T12:47:21.883Z</time></trkpt><trkpt lat="42.4120967" lon="-7.6160717"><ele>538.6666666666666</ele><time>2026-04-14T12:47:22.884Z</time></trkpt><trkpt lat="42.4119567" lon="-7.6158917"><ele>543.0</ele><time>2026-04-14T12:47:23.884Z</time></trkpt><trkpt lat="42.41182" lon="-7.615745"><ele>543.0</ele><time>2026-04-14T12:47:24.883Z</time></trkpt><trkpt lat="42.4116767" lon="-7.6156017"><ele>543.0</ele><time>2026-04-14T12:47:25.884Z</time></trkpt><trkpt lat="42.4115317" lon="-7.6154633"><ele>543.0</ele><time>2026-04-14T12:47:26.883Z</time></trkpt><trkpt lat="42.4113917" lon="-7.6153283"><ele>544.0</ele><time>2026-04-14T12:47:27.884Z</time></trkpt><trkpt lat="42.41126" lon="-7.6152117"><ele>545.0</ele><time>2026-04-14T12:47:28.884Z</time></trkpt><trkpt lat="42.4111233" lon="-7.6151167"><ele>546.0</ele><time>2026-04-14T12:47:29.883Z</time></trkpt><trkpt lat="42.4109883" lon="-7.6150467"><ele>546.0</ele><time>2026-04-14T12:47:30.884Z</time></trkpt><trkpt lat="42.41085" lon="-7.6150017"><ele>546.0</ele><time>2026-04-14T12:47:31.884Z</time></trkpt><trkpt lat="42.4106917" lon="-7.6149683"><ele>546.0</ele><time>2026-04-14T12:47:32.883Z</time></trkpt><trkpt lat="42.4105267" lon="-7.6149517"><ele>549.0</ele><time>2026-04-14T12:47:33.883Z</time></trkpt><trkpt lat="42.4103583" lon="-7.61495"><ele>552.0</ele><time>2026-04-14T12:47:34.883Z</time></trkpt><trkpt lat="42.41019" lon="-7.6149583"><ele>555.0</ele><time>2026-04-14T12:47:35.883Z</time></trkpt><trkpt lat="42.4100267" lon="-7.6149367"><ele>555.0</ele><time>2026-04-14T12:47:36.883Z</time></trkpt><trkpt lat="42.40986" lon="-7.6148817"><ele>555.0</ele><time>2026-04-14T12:47:37.884Z</time></trkpt><trkpt lat="42.4096933" lon="-7.6148033"><ele>555.0</ele><time>2026-04-14T12:47:38.883Z</time></trkpt><trkpt lat="42.4095167" lon="-7.6147217"><ele>555.3333333333334</ele><time>2026-04-14T12:47:39.884Z</time></trkpt><trkpt lat="42.4093417" lon="-7.6146333"><ele>555.6666666666667</ele><time>2026-04-14T12:47:40.884Z</time></trkpt><trkpt lat="42.4091883" lon="-7.6145433"><ele>556.0</ele><time>2026-04-14T12:47:41.883Z</time></trkpt><trkpt lat="42.409075" lon="-7.6144583"><ele>556.0</ele><time>2026-04-14T12:47:42.884Z</time></trkpt><trkpt lat="42.40901" lon="-7.6143983"><ele>556.0</ele><time>2026-04-14T12:47:43.883Z</time></trkpt><trkpt lat="42.4089367" lon="-7.614365"><ele>556.0</ele><time>2026-04-14T12:47:45.883Z</time></trkpt><trkpt lat="42.40891" lon="-7.614475"><ele>556.0</ele><time>2026-04-14T12:47:48.884Z</time></trkpt><trkpt lat="42.40894" lon="-7.61455"><ele>556.0</ele><time>2026-04-14T12:47:49.884Z</time></trkpt><trkpt lat="42.40899" lon="-7.6146633"><ele>556.0</ele><time>2026-04-14T12:47:50.884Z</time></trkpt><trkpt lat="42.4090617" lon="-7.6148317"><ele>559.0</ele><time>2026-04-14T12:47:51.883Z</time></trkpt><trkpt lat="42.409145" lon="-7.615015"><ele>562.0</ele><time>2026-04-14T12:47:52.883Z</time></trkpt><trkpt lat="42.4092383" lon="-7.6151783"><ele>565.0</ele><time>2026-04-14T12:47:53.884Z</time></trkpt><trkpt lat="42.4093417" lon="-7.6153167"><ele>566.75</ele><time>2026-04-14T12:47:54.884Z</time></trkpt><trkpt lat="42.4094433" lon="-7.6154333"><ele>568.5</ele><time>2026-04-14T12:47:55.883Z</time></trkpt><trkpt lat="42.409555" lon="-7.6155383"><ele>570.25</ele><time>2026-04-14T12:47:56.884Z</time></trkpt><trkpt lat="42.4096567" lon="-7.61565"><ele>572.0</ele><time>2026-04-14T12:47:57.884Z</time></trkpt><trkpt lat="42.4097533" lon="-7.6157717"><ele>572.0</ele><time>2026-04-14T12:47:58.884Z</time></trkpt><trkpt lat="42.4098317" lon="-7.6159133"><ele>572.0</ele><time>2026-04-14T12:47:59.883Z</time></trkpt><trkpt lat="42.4098917" lon="-7.6160533"><ele>572.0</ele><time>2026-04-14T12:48:00.883Z</time></trkpt><trkpt lat="42.4099583" lon="-7.6161917"><ele>572.0</ele><time>2026-04-14T12:48:01.883Z</time></trkpt><trkpt lat="42.410025" lon="-7.6163267"><ele>575.0</ele><time>2026-04-14T12:48:02.883Z</time></trkpt><trkpt lat="42.4101017" lon="-7.6164383"><ele>578.0</ele><time>2026-04-14T12:48:03.883Z</time></trkpt><trkpt lat="42.4101783" lon="-7.6165517"><ele>581.0</ele><time>2026-04-14T12:48:04.884Z</time></trkpt><trkpt lat="42.41026" lon="-7.6166633"><ele>584.0</ele><time>2026-04-14T12:48:05.883Z</time></trkpt><trkpt lat="42.4103367" lon="-7.6167717"><ele>584.0</ele><time>2026-04-14T12:48:06.884Z</time></trkpt><trkpt lat="42.410385" lon="-7.6168967"><ele>584.0</ele><time>2026-04-14T12:48:07.884Z</time></trkpt><trkpt lat="42.4104033" lon="-7.6170317"><ele>584.0</ele><time>2026-04-14T12:48:08.883Z</time></trkpt><trkpt lat="42.4103933" lon="-7.6171717"><ele>584.0</ele><time>2026-04-14T12:48:09.884Z</time></trkpt><trkpt lat="42.4103683" lon="-7.6173033"><ele>584.0</ele><time>2026-04-14T12:48:10.883Z</time></trkpt><trkpt lat="42.410315" lon="-7.61742"><ele>584.0</ele><time>2026-04-14T12:48:11.884Z</time></trkpt><trkpt lat="42.4102417" lon="-7.6175083"><ele>584.0</ele><time>2026-04-14T12:48:12.884Z</time></trkpt><trkpt lat="42.4101483" lon="-7.6175583"><ele>584.0</ele><time>2026-04-14T12:48:13.883Z</time></trkpt><trkpt lat="42.4100517" lon="-7.617595"><ele>584.0</ele><time>2026-04-14T12:48:14.884Z</time></trkpt><trkpt lat="42.4099417" lon="-7.617605"><ele>584.0</ele><time>2026-04-14T12:48:15.883Z</time></trkpt><trkpt lat="42.4098317" lon="-7.6175867"><ele>584.0</ele><time>2026-04-14T12:48:16.884Z</time></trkpt><trkpt lat="42.4097183" lon="-7.6175417"><ele>584.0</ele><time>2026-04-14T12:48:17.883Z</time></trkpt><trkpt lat="42.409595" lon="-7.6174717"><ele>584.0</ele><time>2026-04-14T12:48:18.883Z</time></trkpt><trkpt lat="42.4094633" lon="-7.6173917"><ele>584.0</ele><time>2026-04-14T12:48:19.884Z</time></trkpt><trkpt lat="42.409315" lon="-7.6173033"><ele>585.6666666666666</ele><time>2026-04-14T12:48:20.884Z</time></trkpt><trkpt lat="42.4091517" lon="-7.6172217"><ele>587.3333333333334</ele><time>2026-04-14T12:48:21.883Z</time></trkpt><trkpt lat="42.4089883" lon="-7.61718"><ele>589.0</ele><time>2026-04-14T12:48:22.884Z</time></trkpt><trkpt lat="42.4088217" lon="-7.61715"><ele>590.0</ele><time>2026-04-14T12:48:23.883Z</time></trkpt><trkpt lat="42.4086733" lon="-7.61714"><ele>591.0</ele><time>2026-04-14T12:48:24.883Z</time></trkpt><trkpt lat="42.4085383" lon="-7.6171267"><ele>592.0</ele><time>2026-04-14T12:48:25.883Z</time></trkpt><trkpt lat="42.40841" lon="-7.6170917"><ele>593.0</ele><time>2026-04-14T12:48:26.884Z</time></trkpt><trkpt lat="42.4082883" lon="-7.617025"><ele>592.3333333333333</ele><time>2026-04-14T12:48:27.883Z</time></trkpt><trkpt lat="42.4081683" lon="-7.616915"><ele>591.6666666666666</ele><time>2026-04-14T12:48:28.883Z</time></trkpt><trkpt lat="42.408045" lon="-7.6167817"><ele>591.0</ele><time>2026-04-14T12:48:29.883Z</time></trkpt><trkpt lat="42.407925" lon="-7.61663"><ele>594.0</ele><time>2026-04-14T12:48:30.884Z</time></trkpt><trkpt lat="42.4078117" lon="-7.6164767"><ele>597.0</ele><time>2026-04-14T12:48:31.884Z</time></trkpt><trkpt lat="42.4077" lon="-7.6163233"><ele>600.0</ele><time>2026-04-14T12:48:32.883Z</time></trkpt><trkpt lat="42.4075917" lon="-7.6161667"><ele>599.0</ele><time>2026-04-14T12:48:33.884Z</time></trkpt><trkpt lat="42.4074767" lon="-7.61601"><ele>598.0</ele><time>2026-04-14T12:48:34.884Z</time></trkpt><trkpt lat="42.407375" lon="-7.6158833"><ele>597.0</ele><time>2026-04-14T12:48:35.883Z</time></trkpt><trkpt lat="42.4072633" lon="-7.6157433"><ele>597.0</ele><time>2026-04-14T12:48:36.884Z</time></trkpt><trkpt lat="42.4071617" lon="-7.6156017"><ele>597.0</ele><time>2026-04-14T12:48:37.884Z</time></trkpt><trkpt lat="42.4070717" lon="-7.6154383"><ele>597.0</ele><time>2026-04-14T12:48:38.883Z</time></trkpt><trkpt lat="42.4070017" lon="-7.6152683"><ele>597.0</ele><time>2026-04-14T12:48:39.883Z</time></trkpt><trkpt lat="42.406945" lon="-7.6150833"><ele>599.0</ele><time>2026-04-14T12:48:40.883Z</time></trkpt><trkpt lat="42.40691" lon="-7.61489"><ele>601.0</ele><time>2026-04-14T12:48:41.884Z</time></trkpt><trkpt lat="42.4068717" lon="-7.6147017"><ele>603.0</ele><time>2026-04-14T12:48:42.884Z</time></trkpt><trkpt lat="42.40683" lon="-7.61451"><ele>605.0</ele><time>2026-04-14T12:48:43.883Z</time></trkpt><trkpt lat="42.406765" lon="-7.6143267"><ele>605.0</ele><time>2026-04-14T12:48:44.884Z</time></trkpt><trkpt lat="42.406685" lon="-7.6141483"><ele>605.0</ele><time>2026-04-14T12:48:45.883Z</time></trkpt><trkpt lat="42.4066017" lon="-7.6139783"><ele>605.0</ele><time>2026-04-14T12:48:46.884Z</time></trkpt><trkpt lat="42.4065233" lon="-7.613835"><ele>605.0</ele><time>2026-04-14T12:48:47.884Z</time></trkpt><trkpt lat="42.4064467" lon="-7.613725"><ele>604.0</ele><time>2026-04-14T12:48:48.884Z</time></trkpt><trkpt lat="42.406345" lon="-7.6136233"><ele>603.0</ele><time>2026-04-14T12:48:49.883Z</time></trkpt><trkpt lat="42.4062483" lon="-7.6135183"><ele>602.0</ele><time>2026-04-14T12:48:50.884Z</time></trkpt><trkpt lat="42.4061683" lon="-7.6134083"><ele>601.0</ele><time>2026-04-14T12:48:51.883Z</time></trkpt><trkpt lat="42.406115" lon="-7.6132933"><ele>604.75</ele><time>2026-04-14T12:48:52.884Z</time></trkpt><trkpt lat="42.406095" lon="-7.613165"><ele>608.5</ele><time>2026-04-14T12:48:53.884Z</time></trkpt><trkpt lat="42.4060933" lon="-7.6129783"><ele>612.25</ele><time>2026-04-14T12:48:54.883Z</time></trkpt><trkpt lat="42.4061017" lon="-7.612755"><ele>616.0</ele><time>2026-04-14T12:48:55.883Z</time></trkpt><trkpt lat="42.4061233" lon="-7.6125433"><ele>616.0</ele><time>2026-04-14T12:48:56.884Z</time></trkpt><trkpt lat="42.4061417" lon="-7.6123417"><ele>616.0</ele><time>2026-04-14T12:48:57.883Z</time></trkpt><trkpt lat="42.4061667" lon="-7.6121317"><ele>616.0</ele><time>2026-04-14T12:48:58.884Z</time></trkpt><trkpt lat="42.4061917" lon="-7.6119317"><ele>616.4</ele><time>2026-04-14T12:48:59.883Z</time></trkpt><trkpt lat="42.4062083" lon="-7.6117583"><ele>616.8</ele><time>2026-04-14T12:49:00.883Z</time></trkpt><trkpt lat="42.4062067" lon="-7.6116167"><ele>617.1999999999999</ele><time>2026-04-14T12:49:01.883Z</time></trkpt><trkpt lat="42.4061883" lon="-7.6115067"><ele>617.6</ele><time>2026-04-14T12:49:02.883Z</time></trkpt><trkpt lat="42.4061433" lon="-7.611425"><ele>618.0</ele><time>2026-04-14T12:49:03.883Z</time></trkpt><trkpt lat="42.4060933" lon="-7.6113667"><ele>618.0</ele><time>2026-04-14T12:49:04.884Z</time></trkpt><trkpt lat="42.406025" lon="-7.6113367"><ele>618.0</ele><time>2026-04-14T12:49:05.883Z</time></trkpt><trkpt lat="42.405945" lon="-7.611335"><ele>618.0</ele><time>2026-04-14T12:49:06.883Z</time></trkpt><trkpt lat="42.4058517" lon="-7.61138"><ele>618.0</ele><time>2026-04-14T12:49:07.883Z</time></trkpt><trkpt lat="42.4057417" lon="-7.6114667"><ele>618.0</ele><time>2026-04-14T12:49:08.884Z</time></trkpt><trkpt lat="42.4056333" lon="-7.611595"><ele>618.0</ele><time>2026-04-14T12:49:09.884Z</time></trkpt><trkpt lat="42.4055433" lon="-7.6117467"><ele>618.0</ele><time>2026-04-14T12:49:10.884Z</time></trkpt><trkpt lat="42.40545" lon="-7.6118867"><ele>618.0</ele><time>2026-04-14T12:49:11.883Z</time></trkpt><trkpt lat="42.405345" lon="-7.61208"><ele>620.5</ele><time>2026-04-14T12:49:12.884Z</time></trkpt><trkpt lat="42.4052517" lon="-7.6122417"><ele>623.0</ele><time>2026-04-14T12:49:13.883Z</time></trkpt><trkpt lat="42.40516" lon="-7.61238"><ele>625.5</ele><time>2026-04-14T12:49:14.884Z</time></trkpt><trkpt lat="42.4050683" lon="-7.6125133"><ele>628.0</ele><time>2026-04-14T12:49:15.883Z</time></trkpt><trkpt lat="42.4049733" lon="-7.6126417"><ele>628.0</ele><time>2026-04-14T12:49:16.884Z</time></trkpt><trkpt lat="42.4048833" lon="-7.612765"><ele>628.0</ele><time>2026-04-14T12:49:17.884Z</time></trkpt><trkpt lat="42.4048133" lon="-7.612905"><ele>628.0</ele><time>2026-04-14T12:49:18.883Z</time></trkpt><trkpt lat="42.404795" lon="-7.61305"><ele>628.0</ele><time>2026-04-14T12:49:19.884Z</time></trkpt><trkpt lat="42.4048117" lon="-7.6131883"><ele>628.75</ele><time>2026-04-14T12:49:20.884Z</time></trkpt><trkpt lat="42.40483" lon="-7.6133383"><ele>629.5</ele><time>2026-04-14T12:49:21.884Z</time></trkpt><trkpt lat="42.4048917" lon="-7.61351"><ele>630.25</ele><time>2026-04-14T12:49:22.884Z</time></trkpt><trkpt lat="42.4049833" lon="-7.6136967"><ele>631.0</ele><time>2026-04-14T12:49:23.883Z</time></trkpt><trkpt lat="42.4050683" lon="-7.61388"><ele>634.3333333333334</ele><time>2026-04-14T12:49:24.884Z</time></trkpt><trkpt lat="42.4051583" lon="-7.614065"><ele>637.6666666666666</ele><time>2026-04-14T12:49:25.883Z</time></trkpt><trkpt lat="42.4052283" lon="-7.614265"><ele>641.0</ele><time>2026-04-14T12:49:26.884Z</time></trkpt><trkpt lat="42.4052767" lon="-7.614455"><ele>642.5</ele><time>2026-04-14T12:49:27.883Z</time></trkpt><trkpt lat="42.4053" lon="-7.61465"><ele>644.0</ele><time>2026-04-14T12:49:28.884Z</time></trkpt><trkpt lat="42.4053067" lon="-7.6148433"><ele>645.5</ele><time>2026-04-14T12:49:29.884Z</time></trkpt><trkpt lat="42.4053067" lon="-7.615025"><ele>647.0</ele><time>2026-04-14T12:49:30.884Z</time></trkpt><trkpt lat="42.4053" lon="-7.6152083"><ele>647.25</ele><time>2026-04-14T12:49:31.884Z</time></trkpt><trkpt lat="42.40529" lon="-7.6154017"><ele>647.5</ele><time>2026-04-14T12:49:32.883Z</time></trkpt><trkpt lat="42.4052717" lon="-7.6155883"><ele>647.75</ele><time>2026-04-14T12:49:33.883Z</time></trkpt><trkpt lat="42.4052517" lon="-7.615785"><ele>648.0</ele><time>2026-04-14T12:49:34.883Z</time></trkpt><trkpt lat="42.405235" lon="-7.6159783"><ele>648.0</ele><time>2026-04-14T12:49:35.883Z</time></trkpt><trkpt lat="42.4052217" lon="-7.6161733"><ele>648.0</ele><time>2026-04-14T12:49:36.883Z</time></trkpt><trkpt lat="42.4052183" lon="-7.6163617"><ele>648.0</ele><time>2026-04-14T12:49:37.883Z</time></trkpt><trkpt lat="42.4052133" lon="-7.6165433"><ele>648.0</ele><time>2026-04-14T12:49:38.883Z</time></trkpt><trkpt lat="42.4052067" lon="-7.6167483"><ele>648.0</ele><time>2026-04-14T12:49:39.884Z</time></trkpt><trkpt lat="42.4051933" lon="-7.616935"><ele>648.0</ele><time>2026-04-14T12:49:40.884Z</time></trkpt><trkpt lat="42.4051683" lon="-7.6171017"><ele>648.0</ele><time>2026-04-14T12:49:41.883Z</time></trkpt><trkpt lat="42.4051317" lon="-7.6172417"><ele>648.0</ele><time>2026-04-14T12:49:42.884Z</time></trkpt><trkpt lat="42.4050783" lon="-7.61736"><ele>647.25</ele><time>2026-04-14T12:49:43.884Z</time></trkpt><trkpt lat="42.404995" lon="-7.6174483"><ele>646.5</ele><time>2026-04-14T12:49:44.884Z</time></trkpt><trkpt lat="42.40488" lon="-7.617505"><ele>645.75</ele><time>2026-04-14T12:49:45.883Z</time></trkpt><trkpt lat="42.404755" lon="-7.61754"><ele>645.0</ele><time>2026-04-14T12:49:46.883Z</time></trkpt><trkpt lat="42.40463" lon="-7.61756"><ele>647.25</ele><time>2026-04-14T12:49:47.883Z</time></trkpt><trkpt lat="42.4045033" lon="-7.61755"><ele>649.5</ele><time>2026-04-14T12:49:48.883Z</time></trkpt><trkpt lat="42.40439" lon="-7.6175167"><ele>651.75</ele><time>2026-04-14T12:49:49.883Z</time></trkpt><trkpt lat="42.4042883" lon="-7.617455"><ele>654.0</ele><time>2026-04-14T12:49:50.883Z</time></trkpt><trkpt lat="42.40419" lon="-7.6173717"><ele>654.0</ele><time>2026-04-14T12:49:51.883Z</time></trkpt><trkpt lat="42.4041017" lon="-7.6172667"><ele>654.0</ele><time>2026-04-14T12:49:52.884Z</time></trkpt><trkpt lat="42.4040233" lon="-7.6171317"><ele>654.0</ele><time>2026-04-14T12:49:53.884Z</time></trkpt><trkpt lat="42.4039483" lon="-7.6169567"><ele>654.0</ele><time>2026-04-14T12:49:54.883Z</time></trkpt><trkpt lat="42.4038717" lon="-7.6167883"><ele>656.25</ele><time>2026-04-14T12:49:55.884Z</time></trkpt><trkpt lat="42.4037983" lon="-7.6166233"><ele>658.5</ele><time>2026-04-14T12:49:56.884Z</time></trkpt><trkpt lat="42.403705" lon="-7.6164633"><ele>660.75</ele><time>2026-04-14T12:49:57.884Z</time></trkpt><trkpt lat="42.4036217" lon="-7.6163117"><ele>663.0</ele><time>2026-04-14T12:49:58.883Z</time></trkpt><trkpt lat="42.40353" lon="-7.61616"><ele>663.0</ele><time>2026-04-14T12:49:59.883Z</time></trkpt><trkpt lat="42.40343" lon="-7.6160033"><ele>663.0</ele><time>2026-04-14T12:50:00.883Z</time></trkpt><trkpt lat="42.40333" lon="-7.6158467"><ele>663.0</ele><time>2026-04-14T12:50:01.883Z</time></trkpt><trkpt lat="42.4032283" lon="-7.6157033"><ele>663.0</ele><time>2026-04-14T12:50:02.883Z</time></trkpt><trkpt lat="42.4031333" lon="-7.6155733"><ele>663.0</ele><time>2026-04-14T12:50:03.884Z</time></trkpt><trkpt lat="42.403045" lon="-7.6154667"><ele>663.0</ele><time>2026-04-14T12:50:04.884Z</time></trkpt><trkpt lat="42.4029467" lon="-7.6153517"><ele>663.0</ele><time>2026-04-14T12:50:05.883Z</time></trkpt><trkpt lat="42.4028383" lon="-7.6152533"><ele>665.75</ele><time>2026-04-14T12:50:06.884Z</time></trkpt><trkpt lat="42.4027017" lon="-7.61517"><ele>668.5</ele><time>2026-04-14T12:50:07.883Z</time></trkpt><trkpt lat="42.40256" lon="-7.6151083"><ele>671.25</ele><time>2026-04-14T12:50:08.884Z</time></trkpt><trkpt lat="42.4024133" lon="-7.6150683"><ele>674.0</ele><time>2026-04-14T12:50:09.883Z</time></trkpt><trkpt lat="42.40226" lon="-7.61505"><ele>674.0</ele><time>2026-04-14T12:50:10.884Z</time></trkpt><trkpt lat="42.4021067" lon="-7.6150433"><ele>674.0</ele><time>2026-04-14T12:50:11.884Z</time></trkpt><trkpt lat="42.40196" lon="-7.61504"><ele>674.0</ele><time>2026-04-14T12:50:12.884Z</time></trkpt><trkpt lat="42.4018033" lon="-7.6150433"><ele>674.0</ele><time>2026-04-14T12:50:13.884Z</time></trkpt><trkpt lat="42.4016567" lon="-7.615035"><ele>674.0</ele><time>2026-04-14T12:50:14.883Z</time></trkpt><trkpt lat="42.4015233" lon="-7.615035"><ele>674.0</ele><time>2026-04-14T12:50:15.884Z</time></trkpt><trkpt lat="42.401395" lon="-7.6150367"><ele>674.0</ele><time>2026-04-14T12:50:16.884Z</time></trkpt><trkpt lat="42.4012717" lon="-7.6150317"><ele>673.5</ele><time>2026-04-14T12:50:17.884Z</time></trkpt><trkpt lat="42.401135" lon="-7.6150233"><ele>673.0</ele><time>2026-04-14T12:50:18.883Z</time></trkpt><trkpt lat="42.401" lon="-7.6150267"><ele>672.5</ele><time>2026-04-14T12:50:19.883Z</time></trkpt><trkpt lat="42.4008617" lon="-7.6150383"><ele>672.0</ele><time>2026-04-14T12:50:20.884Z</time></trkpt><trkpt lat="42.4007283" lon="-7.6150633"><ele>672.0</ele><time>2026-04-14T12:50:21.883Z</time></trkpt><trkpt lat="42.4005917" lon="-7.6151"><ele>672.0</ele><time>2026-04-14T12:50:22.884Z</time></trkpt><trkpt lat="42.4004633" lon="-7.61515"><ele>672.0</ele><time>2026-04-14T12:50:23.883Z</time></trkpt><trkpt lat="42.400335" lon="-7.6152117"><ele>672.0</ele><time>2026-04-14T12:50:24.883Z</time></trkpt><trkpt lat="42.4002267" lon="-7.6152667"><ele>670.5</ele><time>2026-04-14T12:50:25.884Z</time></trkpt><trkpt lat="42.4001183" lon="-7.61527"><ele>669.0</ele><time>2026-04-14T12:50:26.884Z</time></trkpt><trkpt lat="42.4000117" lon="-7.6152367"><ele>667.5</ele><time>2026-04-14T12:50:27.883Z</time></trkpt><trkpt lat="42.3999117" lon="-7.615165"><ele>666.0</ele><time>2026-04-14T12:50:28.884Z</time></trkpt><trkpt lat="42.3998083" lon="-7.6150517"><ele>666.0</ele><time>2026-04-14T12:50:29.883Z</time></trkpt><trkpt lat="42.3997133" lon="-7.6149133"><ele>666.0</ele><time>2026-04-14T12:50:30.883Z</time></trkpt><trkpt lat="42.39962" lon="-7.6147783"><ele>666.0</ele><time>2026-04-14T12:50:31.883Z</time></trkpt><trkpt lat="42.3995333" lon="-7.6146533"><ele>666.0</ele><time>2026-04-14T12:50:32.884Z</time></trkpt><trkpt lat="42.3994333" lon="-7.61454"><ele>667.75</ele><time>2026-04-14T12:50:33.884Z</time></trkpt><trkpt lat="42.39932" lon="-7.6144433"><ele>669.5</ele><time>2026-04-14T12:50:34.884Z</time></trkpt><trkpt lat="42.3991967" lon="-7.6143583"><ele>671.25</ele><time>2026-04-14T12:50:35.883Z</time></trkpt><trkpt lat="42.3990833" lon="-7.6142867"><ele>673.0</ele><time>2026-04-14T12:50:36.884Z</time></trkpt><trkpt lat="42.39896" lon="-7.614205"><ele>673.0</ele><time>2026-04-14T12:50:37.884Z</time></trkpt><trkpt lat="42.39884" lon="-7.6141417"><ele>673.0</ele><time>2026-04-14T12:50:38.884Z</time></trkpt><trkpt lat="42.3987217" lon="-7.6140917"><ele>673.0</ele><time>2026-04-14T12:50:39.884Z</time></trkpt><trkpt lat="42.398605" lon="-7.6140683"><ele>673.0</ele><time>2026-04-14T12:50:40.883Z</time></trkpt><trkpt lat="42.3985" lon="-7.6140817"><ele>674.0</ele><time>2026-04-14T12:50:41.884Z</time></trkpt><trkpt lat="42.3983933" lon="-7.6141167"><ele>675.0</ele><time>2026-04-14T12:50:42.883Z</time></trkpt><trkpt lat="42.398285" lon="-7.614195"><ele>676.0</ele><time>2026-04-14T12:50:43.883Z</time></trkpt><trkpt lat="42.3981817" lon="-7.6143"><ele>677.0</ele><time>2026-04-14T12:50:44.884Z</time></trkpt><trkpt lat="42.398095" lon="-7.6144217"><ele>676.0</ele><time>2026-04-14T12:50:45.883Z</time></trkpt><trkpt lat="42.398015" lon="-7.6145533"><ele>675.0</ele><time>2026-04-14T12:50:46.884Z</time></trkpt><trkpt lat="42.3979333" lon="-7.614695"><ele>674.0</ele><time>2026-04-14T12:50:47.883Z</time></trkpt><trkpt lat="42.397855" lon="-7.61482"><ele>673.0</ele><time>2026-04-14T12:50:48.883Z</time></trkpt><trkpt lat="42.3977733" lon="-7.6149183"><ele>673.0</ele><time>2026-04-14T12:50:49.884Z</time></trkpt><trkpt lat="42.3976783" lon="-7.614975"><ele>673.0</ele><time>2026-04-14T12:50:50.884Z</time></trkpt><trkpt lat="42.3975717" lon="-7.6149967"><ele>673.0</ele><time>2026-04-14T12:50:51.883Z</time></trkpt><trkpt lat="42.397455" lon="-7.6149783"><ele>673.0</ele><time>2026-04-14T12:50:52.883Z</time></trkpt><trkpt lat="42.3973267" lon="-7.6149317"><ele>673.0</ele><time>2026-04-14T12:50:53.884Z</time></trkpt><trkpt lat="42.3971883" lon="-7.6148667"><ele>673.0</ele><time>2026-04-14T12:50:54.884Z</time></trkpt><trkpt lat="42.3970483" lon="-7.6147883"><ele>673.0</ele><time>2026-04-14T12:50:55.884Z</time></trkpt><trkpt lat="42.39691" lon="-7.6147183"><ele>673.0</ele><time>2026-04-14T12:50:56.883Z</time></trkpt><trkpt lat="42.3967667" lon="-7.6146583"><ele>673.0</ele><time>2026-04-14T12:50:57.883Z</time></trkpt><trkpt lat="42.3966283" lon="-7.614605"><ele>673.0</ele><time>2026-04-14T12:50:58.883Z</time></trkpt><trkpt lat="42.3964833" lon="-7.61457"><ele>673.0</ele><time>2026-04-14T12:50:59.883Z</time></trkpt><trkpt lat="42.3963517" lon="-7.6145333"><ele>673.0</ele><time>2026-04-14T12:51:00.883Z</time></trkpt><trkpt lat="42.39622" lon="-7.614495"><ele>676.75</ele><time>2026-04-14T12:51:01.884Z</time></trkpt><trkpt lat="42.3960783" lon="-7.614465"><ele>680.5</ele><time>2026-04-14T12:51:02.883Z</time></trkpt><trkpt lat="42.39595" lon="-7.6144367"><ele>684.25</ele><time>2026-04-14T12:51:03.884Z</time></trkpt><trkpt lat="42.39582" lon="-7.6144033"><ele>688.0</ele><time>2026-04-14T12:51:04.883Z</time></trkpt><trkpt lat="42.3956817" lon="-7.6143733"><ele>688.0</ele><time>2026-04-14T12:51:05.884Z</time></trkpt><trkpt lat="42.3955383" lon="-7.61435"><ele>688.0</ele><time>2026-04-14T12:51:06.883Z</time></trkpt><trkpt lat="42.395395" lon="-7.6143117"><ele>688.0</ele><time>2026-04-14T12:51:07.883Z</time></trkpt><trkpt lat="42.3952667" lon="-7.6142717"><ele>688.0</ele><time>2026-04-14T12:51:08.883Z</time></trkpt><trkpt lat="42.395165" lon="-7.6142167"><ele>688.5999999999999</ele><time>2026-04-14T12:51:09.883Z</time></trkpt><trkpt lat="42.3950617" lon="-7.614155"><ele>689.1999999999999</ele><time>2026-04-14T12:51:10.884Z</time></trkpt><trkpt lat="42.394965" lon="-7.614095"><ele>689.8</ele><time>2026-04-14T12:51:11.884Z</time></trkpt><trkpt lat="42.39488" lon="-7.6140233"><ele>690.4</ele><time>2026-04-14T12:51:12.883Z</time></trkpt><trkpt lat="42.3948033" lon="-7.613955"><ele>691.0</ele><time>2026-04-14T12:51:13.883Z</time></trkpt><trkpt lat="42.394735" lon="-7.61387"><ele>690.1666666666667</ele><time>2026-04-14T12:51:14.884Z</time></trkpt><trkpt lat="42.394665" lon="-7.6138"><ele>689.3333333333334</ele><time>2026-04-14T12:51:15.883Z</time></trkpt><trkpt lat="42.39459" lon="-7.6137367"><ele>688.5</ele><time>2026-04-14T12:51:16.883Z</time></trkpt><trkpt lat="42.39451" lon="-7.6136917"><ele>687.6666666666666</ele><time>2026-04-14T12:51:17.884Z</time></trkpt><trkpt lat="42.3944217" lon="-7.6136667"><ele>686.8333333333333</ele><time>2026-04-14T12:51:18.884Z</time></trkpt><trkpt lat="42.39434" lon="-7.6136617"><ele>686.0</ele><time>2026-04-14T12:51:19.883Z</time></trkpt><trkpt lat="42.3942533" lon="-7.613675"><ele>686.0</ele><time>2026-04-14T12:51:20.884Z</time></trkpt><trkpt lat="42.3941667" lon="-7.6136983"><ele>686.0</ele><time>2026-04-14T12:51:21.883Z</time></trkpt><trkpt lat="42.3940683" lon="-7.61374"><ele>686.0</ele><time>2026-04-14T12:51:22.884Z</time></trkpt><trkpt lat="42.3939733" lon="-7.6137783"><ele>686.0</ele><time>2026-04-14T12:51:23.884Z</time></trkpt><trkpt lat="42.3938767" lon="-7.6138417"><ele>686.0</ele><time>2026-04-14T12:51:24.883Z</time></trkpt><trkpt lat="42.393795" lon="-7.6139033"><ele>685.3333333333333</ele><time>2026-04-14T12:51:25.883Z</time></trkpt><trkpt lat="42.393715" lon="-7.6139633"><ele>684.6666666666666</ele><time>2026-04-14T12:51:26.884Z</time></trkpt><trkpt lat="42.393625" lon="-7.6140367"><ele>684.0</ele><time>2026-04-14T12:51:27.883Z</time></trkpt><trkpt lat="42.3935467" lon="-7.6140883"><ele>683.3333333333334</ele><time>2026-04-14T12:51:28.884Z</time></trkpt><trkpt lat="42.3934783" lon="-7.6141183"><ele>682.6666666666667</ele><time>2026-04-14T12:51:29.884Z</time></trkpt><trkpt lat="42.3934" lon="-7.614135"><ele>682.0</ele><time>2026-04-14T12:51:30.883Z</time></trkpt><trkpt lat="42.3933333" lon="-7.6141117"><ele>682.0</ele><time>2026-04-14T12:51:31.884Z</time></trkpt><trkpt lat="42.3932683" lon="-7.6139517"><ele>682.0</ele><time>2026-04-14T12:51:33.883Z</time></trkpt><trkpt lat="42.3932467" lon="-7.6138117"><ele>682.0</ele><time>2026-04-14T12:51:34.884Z</time></trkpt><trkpt lat="42.3932333" lon="-7.61366"><ele>682.0</ele><time>2026-04-14T12:51:35.883Z</time></trkpt><trkpt lat="42.393215" lon="-7.6135033"><ele>684.2</ele><time>2026-04-14T12:51:36.883Z</time></trkpt><trkpt lat="42.3931867" lon="-7.61337"><ele>686.4000000000001</ele><time>2026-04-14T12:51:37.883Z</time></trkpt><trkpt lat="42.3931617" lon="-7.61325"><ele>688.5999999999999</ele><time>2026-04-14T12:51:38.883Z</time></trkpt><trkpt lat="42.39313" lon="-7.6131233"><ele>690.8</ele><time>2026-04-14T12:51:39.883Z</time></trkpt><trkpt lat="42.393105" lon="-7.6129883"><ele>693.0</ele><time>2026-04-14T12:51:40.884Z</time></trkpt><trkpt lat="42.39308" lon="-7.61286"><ele>694.8</ele><time>2026-04-14T12:51:41.884Z</time></trkpt><trkpt lat="42.39305" lon="-7.6127283"><ele>696.5999999999999</ele><time>2026-04-14T12:51:42.884Z</time></trkpt><trkpt lat="42.393025" lon="-7.6125983"><ele>698.4000000000001</ele><time>2026-04-14T12:51:43.883Z</time></trkpt><trkpt lat="42.3929967" lon="-7.6124717"><ele>700.2</ele><time>2026-04-14T12:51:44.883Z</time></trkpt><trkpt lat="42.392975" lon="-7.6123383"><ele>702.0</ele><time>2026-04-14T12:51:45.884Z</time></trkpt><trkpt lat="42.3929683" lon="-7.61221"><ele>703.6</ele><time>2026-04-14T12:51:46.883Z</time></trkpt><trkpt lat="42.392965" lon="-7.6121"><ele>705.2</ele><time>2026-04-14T12:51:47.884Z</time></trkpt><trkpt lat="42.3929583" lon="-7.6120067"><ele>706.8</ele><time>2026-04-14T12:51:48.884Z</time></trkpt><trkpt lat="42.3929433" lon="-7.61192"><ele>708.4</ele><time>2026-04-14T12:51:49.884Z</time></trkpt><trkpt lat="42.3929" lon="-7.6117717"><ele>710.0</ele><time>2026-04-14T12:51:51.884Z</time></trkpt><trkpt lat="42.39283" lon="-7.61162"><ele>709.4</ele><time>2026-04-14T12:51:53.883Z</time></trkpt><trkpt lat="42.3927983" lon="-7.6115283"><ele>708.8</ele><time>2026-04-14T12:51:54.883Z</time></trkpt><trkpt lat="42.3927883" lon="-7.6114183"><ele>708.2</ele><time>2026-04-14T12:51:55.883Z</time></trkpt><trkpt lat="42.3927983" lon="-7.6112817"><ele>707.6</ele><time>2026-04-14T12:51:56.883Z</time></trkpt><trkpt lat="42.3928417" lon="-7.6111083"><ele>707.0</ele><time>2026-04-14T12:51:57.884Z</time></trkpt><trkpt lat="42.392895" lon="-7.610935"><ele>707.0</ele><time>2026-04-14T12:51:58.883Z</time></trkpt><trkpt lat="42.3929783" lon="-7.610765"><ele>707.0</ele><time>2026-04-14T12:51:59.884Z</time></trkpt><trkpt lat="42.3930633" lon="-7.6106267"><ele>707.0</ele><time>2026-04-14T12:52:00.884Z</time></trkpt><trkpt lat="42.393125" lon="-7.6105017"><ele>707.0</ele><time>2026-04-14T12:52:01.883Z</time></trkpt><trkpt lat="42.39319" lon="-7.61035"><ele>714.25</ele><time>2026-04-14T12:52:02.883Z</time></trkpt><trkpt lat="42.3932667" lon="-7.61019"><ele>721.5</ele><time>2026-04-14T12:52:03.883Z</time></trkpt><trkpt lat="42.3933517" lon="-7.6100417"><ele>728.75</ele><time>2026-04-14T12:52:04.884Z</time></trkpt><trkpt lat="42.3934483" lon="-7.6099167"><ele>736.0</ele><time>2026-04-14T12:52:05.883Z</time></trkpt><trkpt lat="42.3935483" lon="-7.6097983"><ele>736.0</ele><time>2026-04-14T12:52:06.884Z</time></trkpt><trkpt lat="42.3936333" lon="-7.6096817"><ele>736.0</ele><time>2026-04-14T12:52:07.884Z</time></trkpt><trkpt lat="42.39369" lon="-7.6095667"><ele>736.0</ele><time>2026-04-14T12:52:08.883Z</time></trkpt><trkpt lat="42.3937451" lon="-7.6094672"><ele>736.0</ele><time>2026-04-14T12:52:09.884Z</time></trkpt><trkpt lat="42.3937815" lon="-7.6093642"><ele>736.0</ele><time>2026-04-14T12:52:10.884Z</time></trkpt><trkpt lat="42.3938152" lon="-7.6092545"><ele>738.4</ele><time>2026-04-14T12:52:11.884Z</time></trkpt><trkpt lat="42.3938473" lon="-7.6091366"><ele>740.8</ele><time>2026-04-14T12:52:12.884Z</time></trkpt><trkpt lat="42.3938761" lon="-7.6090296"><ele>743.1999999999999</ele><time>2026-04-14T12:52:13.884Z</time></trkpt><trkpt lat="42.3939141" lon="-7.6089245"><ele>745.5999999999999</ele><time>2026-04-14T12:52:15.883Z</time></trkpt><trkpt lat="42.3939986" lon="-7.6088593"><ele>748.0</ele><time>2026-04-14T12:52:19.883Z</time></trkpt><trkpt lat="42.3940956" lon="-7.6087534"><ele>746.8333333333334</ele><time>2026-04-14T12:52:21.883Z</time></trkpt><trkpt lat="42.3941504" lon="-7.6086132"><ele>745.6666666666667</ele><time>2026-04-14T12:52:23.883Z</time></trkpt><trkpt lat="42.3941797" lon="-7.6085274"><ele>744.5</ele><time>2026-04-14T12:52:24.884Z</time></trkpt><trkpt lat="42.3942191" lon="-7.60844"><ele>743.3333333333334</ele><time>2026-04-14T12:52:25.884Z</time></trkpt><trkpt lat="42.3942658" lon="-7.6083631"><ele>742.1666666666666</ele><time>2026-04-14T12:52:26.884Z</time></trkpt><trkpt lat="42.3943177" lon="-7.6082944"><ele>741.0</ele><time>2026-04-14T12:52:27.884Z</time></trkpt><trkpt lat="42.3943743" lon="-7.6082301"><ele>741.0</ele><time>2026-04-14T12:52:28.883Z</time></trkpt><trkpt lat="42.3944421" lon="-7.6081707"><ele>741.0</ele><time>2026-04-14T12:52:29.884Z</time></trkpt><trkpt lat="42.3945223" lon="-7.6081185"><ele>741.0</ele><time>2026-04-14T12:52:30.884Z</time></trkpt><trkpt lat="42.3946098" lon="-7.6080775"><ele>741.0</ele><time>2026-04-14T12:52:31.884Z</time></trkpt><trkpt lat="42.3947003" lon="-7.6080351"><ele>741.0</ele><time>2026-04-14T12:52:32.883Z</time></trkpt><trkpt lat="42.394792" lon="-7.60799"><ele>742.0</ele><time>2026-04-14T12:52:33.883Z</time></trkpt><trkpt lat="42.3948925" lon="-7.6079446"><ele>743.0</ele><time>2026-04-14T12:52:34.884Z</time></trkpt><trkpt lat="42.3950069" lon="-7.6079015"><ele>744.0</ele><time>2026-04-14T12:52:35.883Z</time></trkpt><trkpt lat="42.39513" lon="-7.6078766"><ele>745.0</ele><time>2026-04-14T12:52:36.883Z</time></trkpt><trkpt lat="42.3952466" lon="-7.6078593"><ele>745.0</ele><time>2026-04-14T12:52:37.883Z</time></trkpt><trkpt lat="42.395351" lon="-7.6078424"><ele>745.0</ele><time>2026-04-14T12:52:38.884Z</time></trkpt><trkpt lat="42.3954408" lon="-7.6078193"><ele>745.0</ele><time>2026-04-14T12:52:39.884Z</time></trkpt><trkpt lat="42.3955132" lon="-7.6077815"><ele>745.0</ele><time>2026-04-14T12:52:40.884Z</time></trkpt><trkpt lat="42.3955745" lon="-7.6077169"><ele>745.0</ele><time>2026-04-14T12:52:41.884Z</time></trkpt><trkpt lat="42.3956133" lon="-7.6076067"><ele>745.0</ele><time>2026-04-14T12:52:42.884Z</time></trkpt><trkpt lat="42.3956433" lon="-7.6074967"><ele>744.0</ele><time>2026-04-14T12:52:43.883Z</time></trkpt><trkpt lat="42.3956483" lon="-7.6073783"><ele>743.0</ele><time>2026-04-14T12:52:44.883Z</time></trkpt><trkpt lat="42.3956467" lon="-7.6072333"><ele>742.0</ele><time>2026-04-14T12:52:45.884Z</time></trkpt><trkpt lat="42.39564" lon="-7.6070867"><ele>741.0</ele><time>2026-04-14T12:52:46.884Z</time></trkpt><trkpt lat="42.395625" lon="-7.60695"><ele>740.0</ele><time>2026-04-14T12:52:47.884Z</time></trkpt><trkpt lat="42.39563" lon="-7.6068283"><ele>737.3333333333333</ele><time>2026-04-14T12:52:48.884Z</time></trkpt><trkpt lat="42.3956517" lon="-7.6067183"><ele>734.6666666666666</ele><time>2026-04-14T12:52:49.884Z</time></trkpt><trkpt lat="42.395685" lon="-7.6066183"><ele>732.0</ele><time>2026-04-14T12:52:50.883Z</time></trkpt><trkpt lat="42.3957317" lon="-7.60653"><ele>729.3333333333334</ele><time>2026-04-14T12:52:51.884Z</time></trkpt><trkpt lat="42.3958017" lon="-7.6064533"><ele>726.6666666666667</ele><time>2026-04-14T12:52:52.885Z</time></trkpt><trkpt lat="42.39589" lon="-7.6063733"><ele>724.0</ele><time>2026-04-14T12:52:53.885Z</time></trkpt><trkpt lat="42.3960183" lon="-7.606315"><ele>724.0</ele><time>2026-04-14T12:52:54.884Z</time></trkpt><trkpt lat="42.3961433" lon="-7.6062533"><ele>724.0</ele><time>2026-04-14T12:52:55.885Z</time></trkpt><trkpt lat="42.3962517" lon="-7.606195"><ele>724.0</ele><time>2026-04-14T12:52:56.884Z</time></trkpt><trkpt lat="42.3963483" lon="-7.6061217"><ele>724.0</ele><time>2026-04-14T12:52:57.884Z</time></trkpt><trkpt lat="42.396425" lon="-7.6060283"><ele>723.5</ele><time>2026-04-14T12:52:58.885Z</time></trkpt><trkpt lat="42.3965" lon="-7.6059133"><ele>723.0</ele><time>2026-04-14T12:52:59.885Z</time></trkpt><trkpt lat="42.3965867" lon="-7.6057933"><ele>722.5</ele><time>2026-04-14T12:53:00.885Z</time></trkpt><trkpt lat="42.3966867" lon="-7.6056967"><ele>722.0</ele><time>2026-04-14T12:53:01.884Z</time></trkpt><trkpt lat="42.3967783" lon="-7.6056133"><ele>722.0</ele><time>2026-04-14T12:53:02.885Z</time></trkpt><trkpt lat="42.3968667" lon="-7.6055617"><ele>722.0</ele><time>2026-04-14T12:53:03.885Z</time></trkpt><trkpt lat="42.3969517" lon="-7.605515"><ele>722.0</ele><time>2026-04-14T12:53:04.884Z</time></trkpt><trkpt lat="42.39704" lon="-7.6054683"><ele>722.0</ele><time>2026-04-14T12:53:05.885Z</time></trkpt><trkpt lat="42.3971367" lon="-7.605405"><ele>722.0</ele><time>2026-04-14T12:53:06.884Z</time></trkpt><trkpt lat="42.397245" lon="-7.605335"><ele>717.5</ele><time>2026-04-14T12:53:07.884Z</time></trkpt><trkpt lat="42.3973533" lon="-7.6052717"><ele>713.0</ele><time>2026-04-14T12:53:08.884Z</time></trkpt><trkpt lat="42.3974633" lon="-7.605205"><ele>708.5</ele><time>2026-04-14T12:53:09.885Z</time></trkpt><trkpt lat="42.3975833" lon="-7.6051383"><ele>704.0</ele><time>2026-04-14T12:53:10.884Z</time></trkpt><trkpt lat="42.3977033" lon="-7.60506"><ele>704.0</ele><time>2026-04-14T12:53:11.885Z</time></trkpt><trkpt lat="42.3978117" lon="-7.604995"><ele>704.0</ele><time>2026-04-14T12:53:12.884Z</time></trkpt><trkpt lat="42.397915" lon="-7.6049333"><ele>704.0</ele><time>2026-04-14T12:53:13.884Z</time></trkpt><trkpt lat="42.3980167" lon="-7.6048767"><ele>704.0</ele><time>2026-04-14T12:53:14.884Z</time></trkpt><trkpt lat="42.3981267" lon="-7.6048267"><ele>705.75</ele><time>2026-04-14T12:53:15.884Z</time></trkpt><trkpt lat="42.3982333" lon="-7.6047717"><ele>707.5</ele><time>2026-04-14T12:53:16.884Z</time></trkpt><trkpt lat="42.39835" lon="-7.604715"><ele>709.25</ele><time>2026-04-14T12:53:17.885Z</time></trkpt><trkpt lat="42.3984617" lon="-7.6046667"><ele>711.0</ele><time>2026-04-14T12:53:18.885Z</time></trkpt><trkpt lat="42.3985933" lon="-7.60462"><ele>711.0</ele><time>2026-04-14T12:53:19.885Z</time></trkpt><trkpt lat="42.3987317" lon="-7.6045733"><ele>711.0</ele><time>2026-04-14T12:53:20.884Z</time></trkpt><trkpt lat="42.3988433" lon="-7.6045183"><ele>711.0</ele><time>2026-04-14T12:53:21.884Z</time></trkpt><trkpt lat="42.398945" lon="-7.60446"><ele>711.0</ele><time>2026-04-14T12:53:22.884Z</time></trkpt><trkpt lat="42.39906" lon="-7.60438"><ele>707.25</ele><time>2026-04-14T12:53:23.884Z</time></trkpt><trkpt lat="42.3991733" lon="-7.6042917"><ele>703.5</ele><time>2026-04-14T12:53:24.884Z</time></trkpt><trkpt lat="42.3992817" lon="-7.6041967"><ele>699.75</ele><time>2026-04-14T12:53:25.885Z</time></trkpt><trkpt lat="42.39937" lon="-7.6041033"><ele>696.0</ele><time>2026-04-14T12:53:26.884Z</time></trkpt><trkpt lat="42.3994417" lon="-7.6040233"><ele>696.0</ele><time>2026-04-14T12:53:27.885Z</time></trkpt><trkpt lat="42.3995167" lon="-7.6039433"><ele>696.0</ele><time>2026-04-14T12:53:28.884Z</time></trkpt><trkpt lat="42.3995917" lon="-7.6038717"><ele>696.0</ele><time>2026-04-14T12:53:29.884Z</time></trkpt><trkpt lat="42.3996733" lon="-7.60381"><ele>696.0</ele><time>2026-04-14T12:53:30.885Z</time></trkpt><trkpt lat="42.3997533" lon="-7.603735"><ele>696.0</ele><time>2026-04-14T12:53:31.884Z</time></trkpt><trkpt lat="42.3998317" lon="-7.603655"><ele>695.75</ele><time>2026-04-14T12:53:32.884Z</time></trkpt><trkpt lat="42.399925" lon="-7.6035483"><ele>695.5</ele><time>2026-04-14T12:53:33.884Z</time></trkpt><trkpt lat="42.400015" lon="-7.6034467"><ele>695.25</ele><time>2026-04-14T12:53:34.884Z</time></trkpt><trkpt lat="42.4000967" lon="-7.6033467"><ele>695.0</ele><time>2026-04-14T12:53:35.885Z</time></trkpt><trkpt lat="42.4001767" lon="-7.6032567"><ele>695.0</ele><time>2026-04-14T12:53:36.885Z</time></trkpt><trkpt lat="42.40025" lon="-7.6031733"><ele>695.0</ele><time>2026-04-14T12:53:37.885Z</time></trkpt><trkpt lat="42.4003267" lon="-7.603085"><ele>695.0</ele><time>2026-04-14T12:53:38.884Z</time></trkpt><trkpt lat="42.4004017" lon="-7.60298"><ele>695.0</ele><time>2026-04-14T12:53:39.885Z</time></trkpt><trkpt lat="42.400475" lon="-7.6028667"><ele>695.0</ele><time>2026-04-14T12:53:40.884Z</time></trkpt><trkpt lat="42.40055" lon="-7.602745"><ele>694.4</ele><time>2026-04-14T12:53:41.885Z</time></trkpt><trkpt lat="42.4006167" lon="-7.6026217"><ele>693.8</ele><time>2026-04-14T12:53:42.885Z</time></trkpt><trkpt lat="42.4006617" lon="-7.6025"><ele>693.2</ele><time>2026-04-14T12:53:43.884Z</time></trkpt><trkpt lat="42.400705" lon="-7.6023717"><ele>692.6</ele><time>2026-04-14T12:53:44.885Z</time></trkpt><trkpt lat="42.400755" lon="-7.6022483"><ele>692.0</ele><time>2026-04-14T12:53:45.885Z</time></trkpt><trkpt lat="42.4008183" lon="-7.60212"><ele>692.0</ele><time>2026-04-14T12:53:46.884Z</time></trkpt><trkpt lat="42.4008783" lon="-7.602"><ele>692.0</ele><time>2026-04-14T12:53:47.884Z</time></trkpt><trkpt lat="42.4009267" lon="-7.601885"><ele>692.0</ele><time>2026-04-14T12:53:48.885Z</time></trkpt><trkpt lat="42.4009783" lon="-7.6017767"><ele>692.0</ele><time>2026-04-14T12:53:49.884Z</time></trkpt><trkpt lat="42.4010217" lon="-7.6016783"><ele>692.0</ele><time>2026-04-14T12:53:50.885Z</time></trkpt><trkpt lat="42.40106" lon="-7.601575"><ele>687.8</ele><time>2026-04-14T12:53:51.884Z</time></trkpt><trkpt lat="42.4011" lon="-7.60147"><ele>683.6</ele><time>2026-04-14T12:53:52.884Z</time></trkpt><trkpt lat="42.4011367" lon="-7.6013633"><ele>679.4</ele><time>2026-04-14T12:53:53.884Z</time></trkpt><trkpt lat="42.4011767" lon="-7.601265"><ele>675.1999999999999</ele><time>2026-04-14T12:53:54.885Z</time></trkpt><trkpt lat="42.4012167" lon="-7.601145"><ele>671.0</ele><time>2026-04-14T12:53:55.885Z</time></trkpt><trkpt lat="42.4012683" lon="-7.6010233"><ele>670.8</ele><time>2026-04-14T12:53:56.885Z</time></trkpt><trkpt lat="42.4013267" lon="-7.60092"><ele>670.5999999999999</ele><time>2026-04-14T12:53:57.884Z</time></trkpt><trkpt lat="42.40139" lon="-7.6008233"><ele>670.4</ele><time>2026-04-14T12:53:58.885Z</time></trkpt><trkpt lat="42.401455" lon="-7.6007317"><ele>670.2</ele><time>2026-04-14T12:53:59.884Z</time></trkpt><trkpt lat="42.4015167" lon="-7.6006317"><ele>670.0</ele><time>2026-04-14T12:54:00.885Z</time></trkpt><trkpt lat="42.4015683" lon="-7.60054"><ele>670.0</ele><time>2026-04-14T12:54:01.884Z</time></trkpt><trkpt lat="42.4016167" lon="-7.6004517"><ele>670.0</ele><time>2026-04-14T12:54:02.884Z</time></trkpt><trkpt lat="42.4016683" lon="-7.600365"><ele>670.0</ele><time>2026-04-14T12:54:03.885Z</time></trkpt><trkpt lat="42.4017283" lon="-7.6002933"><ele>670.0</ele><time>2026-04-14T12:54:04.884Z</time></trkpt><trkpt lat="42.40179" lon="-7.6002367"><ele>670.0</ele><time>2026-04-14T12:54:05.884Z</time></trkpt><trkpt lat="42.4018633" lon="-7.600185"><ele>670.0</ele><time>2026-04-14T12:54:06.885Z</time></trkpt><trkpt lat="42.401945" lon="-7.6001333"><ele>669.8</ele><time>2026-04-14T12:54:07.884Z</time></trkpt><trkpt lat="42.40203" lon="-7.6000667"><ele>669.6</ele><time>2026-04-14T12:54:08.885Z</time></trkpt><trkpt lat="42.4021167" lon="-7.5999817"><ele>669.4000000000001</ele><time>2026-04-14T12:54:09.885Z</time></trkpt><trkpt lat="42.4021917" lon="-7.5998783"><ele>669.2</ele><time>2026-04-14T12:54:10.884Z</time></trkpt><trkpt lat="42.4022733" lon="-7.5997617"><ele>669.0</ele><time>2026-04-14T12:54:11.884Z</time></trkpt><trkpt lat="42.4023367" lon="-7.599665"><ele>669.0</ele><time>2026-04-14T12:54:12.885Z</time></trkpt><trkpt lat="42.4023917" lon="-7.599565"><ele>669.0</ele><time>2026-04-14T12:54:13.885Z</time></trkpt><trkpt lat="42.4024433" lon="-7.5994617"><ele>669.0</ele><time>2026-04-14T12:54:14.885Z</time></trkpt><trkpt lat="42.40248" lon="-7.5993617"><ele>669.0</ele><time>2026-04-14T12:54:15.885Z</time></trkpt><trkpt lat="42.4025167" lon="-7.5992417"><ele>669.0</ele><time>2026-04-14T12:54:16.884Z</time></trkpt><trkpt lat="42.40257" lon="-7.5991117"><ele>666.4000000000001</ele><time>2026-04-14T12:54:17.884Z</time></trkpt><trkpt lat="42.4026317" lon="-7.5989783"><ele>663.8</ele><time>2026-04-14T12:54:18.884Z</time></trkpt><trkpt lat="42.4027067" lon="-7.59887"><ele>661.2</ele><time>2026-04-14T12:54:19.884Z</time></trkpt><trkpt lat="42.402785" lon="-7.598785"><ele>658.5999999999999</ele><time>2026-04-14T12:54:20.884Z</time></trkpt><trkpt lat="42.4028767" lon="-7.5987033"><ele>656.0</ele><time>2026-04-14T12:54:21.884Z</time></trkpt><trkpt lat="42.4029683" lon="-7.59862"><ele>656.4</ele><time>2026-04-14T12:54:22.884Z</time></trkpt><trkpt lat="42.4030583" lon="-7.598535"><ele>656.8</ele><time>2026-04-14T12:54:23.885Z</time></trkpt><trkpt lat="42.4031433" lon="-7.5984617"><ele>657.1999999999999</ele><time>2026-04-14T12:54:24.884Z</time></trkpt><trkpt lat="42.4032217" lon="-7.598395"><ele>657.5999999999999</ele><time>2026-04-14T12:54:25.885Z</time></trkpt><trkpt lat="42.4032933" lon="-7.5983217"><ele>658.0</ele><time>2026-04-14T12:54:26.884Z</time></trkpt><trkpt lat="42.4033617" lon="-7.5982433"><ele>658.0</ele><time>2026-04-14T12:54:27.884Z</time></trkpt><trkpt lat="42.403425" lon="-7.598155"><ele>658.0</ele><time>2026-04-14T12:54:28.885Z</time></trkpt><trkpt lat="42.4034833" lon="-7.5980317"><ele>658.0</ele><time>2026-04-14T12:54:29.885Z</time></trkpt><trkpt lat="42.4035317" lon="-7.5979183"><ele>658.0</ele><time>2026-04-14T12:54:30.884Z</time></trkpt><trkpt lat="42.4035683" lon="-7.5978167"><ele>658.0</ele><time>2026-04-14T12:54:31.884Z</time></trkpt><trkpt lat="42.4036033" lon="-7.5977133"><ele>656.5999999999999</ele><time>2026-04-14T12:54:32.885Z</time></trkpt><trkpt lat="42.40364" lon="-7.5976233"><ele>655.1999999999999</ele><time>2026-04-14T12:54:33.884Z</time></trkpt><trkpt lat="42.4036767" lon="-7.5975467"><ele>653.8</ele><time>2026-04-14T12:54:34.884Z</time></trkpt><trkpt lat="42.403755" lon="-7.5974483"><ele>652.4</ele><time>2026-04-14T12:54:36.884Z</time></trkpt><trkpt lat="42.40386" lon="-7.5974033"><ele>651.0</ele><time>2026-04-14T12:54:38.884Z</time></trkpt><trkpt lat="42.4039683" lon="-7.5973283"><ele>651.0</ele><time>2026-04-14T12:54:40.885Z</time></trkpt><trkpt lat="42.404" lon="-7.59725"><ele>651.0</ele><time>2026-04-14T12:54:41.885Z</time></trkpt><trkpt lat="42.4040267" lon="-7.59715"><ele>651.0</ele><time>2026-04-14T12:54:42.884Z</time></trkpt><trkpt lat="42.40404" lon="-7.597025"><ele>651.0</ele><time>2026-04-14T12:54:43.885Z</time></trkpt><trkpt lat="42.4040467" lon="-7.59687"><ele>651.0</ele><time>2026-04-14T12:54:44.885Z</time></trkpt><trkpt lat="42.4040517" lon="-7.5967067"><ele>651.5</ele><time>2026-04-14T12:54:45.885Z</time></trkpt><trkpt lat="42.404035" lon="-7.5965483"><ele>652.0</ele><time>2026-04-14T12:54:46.884Z</time></trkpt><trkpt lat="42.4040267" lon="-7.59642"><ele>652.5</ele><time>2026-04-14T12:54:47.884Z</time></trkpt><trkpt lat="42.4040283" lon="-7.596325"><ele>653.0</ele><time>2026-04-14T12:54:48.885Z</time></trkpt><trkpt lat="42.4040467" lon="-7.5962367"><ele>653.5</ele><time>2026-04-14T12:54:49.885Z</time></trkpt><trkpt lat="42.4040767" lon="-7.5961467"><ele>654.0</ele><time>2026-04-14T12:54:50.884Z</time></trkpt><trkpt lat="42.4041133" lon="-7.5960533"><ele>654.0</ele><time>2026-04-14T12:54:51.885Z</time></trkpt><trkpt lat="42.40415" lon="-7.59596"><ele>654.0</ele><time>2026-04-14T12:54:52.885Z</time></trkpt><trkpt lat="42.404185" lon="-7.5958633"><ele>654.0</ele><time>2026-04-14T12:54:53.885Z</time></trkpt><trkpt lat="42.40421" lon="-7.5957817"><ele>654.0</ele><time>2026-04-14T12:54:54.884Z</time></trkpt><trkpt lat="42.4042683" lon="-7.5956533"><ele>654.0</ele><time>2026-04-14T12:54:56.884Z</time></trkpt><trkpt lat="42.4043017" lon="-7.5955717"><ele>654.0</ele><time>2026-04-14T12:54:57.885Z</time></trkpt><trkpt lat="42.4043383" lon="-7.5954617"><ele>654.0</ele><time>2026-04-14T12:54:58.884Z</time></trkpt><trkpt lat="42.4043967" lon="-7.5953467"><ele>654.0</ele><time>2026-04-14T12:54:59.885Z</time></trkpt><trkpt lat="42.40445" lon="-7.5952533"><ele>654.0</ele><time>2026-04-14T12:55:00.885Z</time></trkpt><trkpt lat="42.404505" lon="-7.5951717"><ele>654.0</ele><time>2026-04-14T12:55:01.885Z</time></trkpt><trkpt lat="42.4045533" lon="-7.59509"><ele>654.0</ele><time>2026-04-14T12:55:02.885Z</time></trkpt><trkpt lat="42.4046" lon="-7.5950033"><ele>654.0</ele><time>2026-04-14T12:55:03.885Z</time></trkpt><trkpt lat="42.40464" lon="-7.594925"><ele>655.6</ele><time>2026-04-14T12:55:04.884Z</time></trkpt><trkpt lat="42.4046917" lon="-7.59477"><ele>657.2</ele><time>2026-04-14T12:55:06.884Z</time></trkpt><trkpt lat="42.4047033" lon="-7.5946733"><ele>658.8000000000001</ele><time>2026-04-14T12:55:07.884Z</time></trkpt><trkpt lat="42.4046933" lon="-7.5945633"><ele>660.4000000000001</ele><time>2026-04-14T12:55:08.885Z</time></trkpt><trkpt lat="42.4046767" lon="-7.5944433"><ele>662.0</ele><time>2026-04-14T12:55:09.884Z</time></trkpt><trkpt lat="42.4046533" lon="-7.5943283"><ele>657.8333333333333</ele><time>2026-04-14T12:55:10.885Z</time></trkpt><trkpt lat="42.40463" lon="-7.5942233"><ele>653.6666666666666</ele><time>2026-04-14T12:55:11.884Z</time></trkpt><trkpt lat="42.4046083" lon="-7.5941233"><ele>649.5</ele><time>2026-04-14T12:55:12.885Z</time></trkpt><trkpt lat="42.40459" lon="-7.594015"><ele>645.3333333333334</ele><time>2026-04-14T12:55:13.884Z</time></trkpt><trkpt lat="42.40457" lon="-7.593905"><ele>641.1666666666667</ele><time>2026-04-14T12:55:14.884Z</time></trkpt><trkpt lat="42.40455" lon="-7.59379"><ele>637.0</ele><time>2026-04-14T12:55:15.884Z</time></trkpt><trkpt lat="42.4045217" lon="-7.5936617"><ele>636.6</ele><time>2026-04-14T12:55:16.885Z</time></trkpt><trkpt lat="42.4044883" lon="-7.5935167"><ele>636.2</ele><time>2026-04-14T12:55:17.885Z</time></trkpt><trkpt lat="42.404455" lon="-7.59336"><ele>635.8</ele><time>2026-04-14T12:55:18.885Z</time></trkpt><trkpt lat="42.4044317" lon="-7.593215"><ele>635.4</ele><time>2026-04-14T12:55:19.885Z</time></trkpt><trkpt lat="42.40442" lon="-7.59308"><ele>635.0</ele><time>2026-04-14T12:55:20.884Z</time></trkpt><trkpt lat="42.4044217" lon="-7.592935"><ele>633.0</ele><time>2026-04-14T12:55:21.885Z</time></trkpt><trkpt lat="42.4044167" lon="-7.5927767"><ele>631.0</ele><time>2026-04-14T12:55:22.885Z</time></trkpt><trkpt lat="42.40441" lon="-7.5926233"><ele>629.0</ele><time>2026-04-14T12:55:23.884Z</time></trkpt><trkpt lat="42.4044117" lon="-7.5924783"><ele>627.0</ele><time>2026-04-14T12:55:24.884Z</time></trkpt><trkpt lat="42.4044183" lon="-7.5923467"><ele>625.0</ele><time>2026-04-14T12:55:25.884Z</time></trkpt><trkpt lat="42.404415" lon="-7.5922217"><ele>625.0</ele><time>2026-04-14T12:55:26.884Z</time></trkpt><trkpt lat="42.4044217" lon="-7.59209"><ele>625.0</ele><time>2026-04-14T12:55:27.884Z</time></trkpt><trkpt lat="42.404435" lon="-7.5919567"><ele>625.0</ele><time>2026-04-14T12:55:28.884Z</time></trkpt><trkpt lat="42.40446" lon="-7.59182"><ele>625.0</ele><time>2026-04-14T12:55:29.884Z</time></trkpt><trkpt lat="42.4044767" lon="-7.5916983"><ele>625.0</ele><time>2026-04-14T12:55:30.885Z</time></trkpt><trkpt lat="42.404495" lon="-7.5915817"><ele>623.2</ele><time>2026-04-14T12:55:31.885Z</time></trkpt><trkpt lat="42.4045083" lon="-7.5914617"><ele>621.4</ele><time>2026-04-14T12:55:32.884Z</time></trkpt><trkpt lat="42.4045267" lon="-7.5913467"><ele>619.6</ele><time>2026-04-14T12:55:33.884Z</time></trkpt><trkpt lat="42.40455" lon="-7.591225"><ele>617.8</ele><time>2026-04-14T12:55:34.884Z</time></trkpt><trkpt lat="42.404565" lon="-7.5910967"><ele>616.0</ele><time>2026-04-14T12:55:35.884Z</time></trkpt><trkpt lat="42.4045717" lon="-7.590975"><ele>614.2</ele><time>2026-04-14T12:55:36.884Z</time></trkpt><trkpt lat="42.4045833" lon="-7.59085"><ele>612.4000000000001</ele><time>2026-04-14T12:55:37.885Z</time></trkpt><trkpt lat="42.404595" lon="-7.5907183"><ele>610.6</ele><time>2026-04-14T12:55:38.885Z</time></trkpt><trkpt lat="42.404615" lon="-7.590595"><ele>608.8000000000001</ele><time>2026-04-14T12:55:39.885Z</time></trkpt><trkpt lat="42.4046233" lon="-7.5904817"><ele>607.0</ele><time>2026-04-14T12:55:40.884Z</time></trkpt><trkpt lat="42.40464" lon="-7.5903717"><ele>609.8000000000001</ele><time>2026-04-14T12:55:41.885Z</time></trkpt><trkpt lat="42.4046633" lon="-7.5902583"><ele>612.6</ele><time>2026-04-14T12:55:42.884Z</time></trkpt><trkpt lat="42.404695" lon="-7.5901483"><ele>615.4000000000001</ele><time>2026-04-14T12:55:43.884Z</time></trkpt><trkpt lat="42.404725" lon="-7.5900233"><ele>618.2</ele><time>2026-04-14T12:55:44.884Z</time></trkpt><trkpt lat="42.4047583" lon="-7.5898817"><ele>621.0</ele><time>2026-04-14T12:55:45.885Z</time></trkpt><trkpt lat="42.404785" lon="-7.589735"><ele>621.0</ele><time>2026-04-14T12:55:46.884Z</time></trkpt><trkpt lat="42.4048" lon="-7.5896033"><ele>621.0</ele><time>2026-04-14T12:55:47.884Z</time></trkpt><trkpt lat="42.404805" lon="-7.589485"><ele>621.0</ele><time>2026-04-14T12:55:48.884Z</time></trkpt><trkpt lat="42.4048083" lon="-7.589375"><ele>621.0</ele><time>2026-04-14T12:55:49.884Z</time></trkpt><trkpt lat="42.4048217" lon="-7.5892533"><ele>621.0</ele><time>2026-04-14T12:55:50.885Z</time></trkpt><trkpt lat="42.4048417" lon="-7.5891267"><ele>619.4</ele><time>2026-04-14T12:55:51.885Z</time></trkpt><trkpt lat="42.404875" lon="-7.589005"><ele>617.8</ele><time>2026-04-14T12:55:52.885Z</time></trkpt><trkpt lat="42.4049233" lon="-7.5888867"><ele>616.1999999999999</ele><time>2026-04-14T12:55:53.885Z</time></trkpt><trkpt lat="42.4049833" lon="-7.588775"><ele>614.6</ele><time>2026-04-14T12:55:54.885Z</time></trkpt><trkpt lat="42.405045" lon="-7.58868"><ele>613.0</ele><time>2026-04-14T12:55:55.884Z</time></trkpt><trkpt lat="42.4051067" lon="-7.5885967"><ele>609.0</ele><time>2026-04-14T12:55:56.884Z</time></trkpt><trkpt lat="42.4051683" lon="-7.5885067"><ele>605.0</ele><time>2026-04-14T12:55:57.885Z</time></trkpt><trkpt lat="42.4052383" lon="-7.5884033"><ele>601.0</ele><time>2026-04-14T12:55:58.884Z</time></trkpt><trkpt lat="42.4053133" lon="-7.5882783"><ele>597.0</ele><time>2026-04-14T12:55:59.884Z</time></trkpt><trkpt lat="42.4053783" lon="-7.5881567"><ele>593.0</ele><time>2026-04-14T12:56:00.884Z</time></trkpt><trkpt lat="42.4054417" lon="-7.588025"><ele>593.0</ele><time>2026-04-14T12:56:01.885Z</time></trkpt><trkpt lat="42.4055067" lon="-7.5878983"><ele>593.0</ele><time>2026-04-14T12:56:02.884Z</time></trkpt><trkpt lat="42.40556" lon="-7.58779"><ele>593.0</ele><time>2026-04-14T12:56:03.885Z</time></trkpt><trkpt lat="42.4056083" lon="-7.5876683"><ele>593.0</ele><time>2026-04-14T12:56:04.884Z</time></trkpt><trkpt lat="42.405665" lon="-7.58757"><ele>593.0</ele><time>2026-04-14T12:56:05.884Z</time></trkpt><trkpt lat="42.4057267" lon="-7.587465"><ele>593.0</ele><time>2026-04-14T12:56:06.885Z</time></trkpt><trkpt lat="42.405785" lon="-7.5873467"><ele>593.0</ele><time>2026-04-14T12:56:07.884Z</time></trkpt><trkpt lat="42.405855" lon="-7.5872167"><ele>593.0</ele><time>2026-04-14T12:56:08.884Z</time></trkpt><trkpt lat="42.4059167" lon="-7.587095"><ele>593.0</ele><time>2026-04-14T12:56:09.884Z</time></trkpt><trkpt lat="42.40597" lon="-7.5869683"><ele>593.0</ele><time>2026-04-14T12:56:10.884Z</time></trkpt><trkpt lat="42.4060167" lon="-7.5868283"><ele>590.6</ele><time>2026-04-14T12:56:11.884Z</time></trkpt><trkpt lat="42.40606" lon="-7.5866867"><ele>588.1999999999999</ele><time>2026-04-14T12:56:12.885Z</time></trkpt><trkpt lat="42.4061017" lon="-7.58655"><ele>585.8</ele><time>2026-04-14T12:56:13.884Z</time></trkpt><trkpt lat="42.4061467" lon="-7.5864167"><ele>583.4</ele><time>2026-04-14T12:56:14.885Z</time></trkpt><trkpt lat="42.406195" lon="-7.5862767"><ele>581.0</ele><time>2026-04-14T12:56:15.885Z</time></trkpt><trkpt lat="42.4062567" lon="-7.58615"><ele>581.75</ele><time>2026-04-14T12:56:16.884Z</time></trkpt><trkpt lat="42.40633" lon="-7.586015"><ele>582.5</ele><time>2026-04-14T12:56:17.885Z</time></trkpt><trkpt lat="42.4064017" lon="-7.5858683"><ele>583.25</ele><time>2026-04-14T12:56:18.885Z</time></trkpt><trkpt lat="42.4064683" lon="-7.5857317"><ele>584.0</ele><time>2026-04-14T12:56:19.885Z</time></trkpt><trkpt lat="42.4065367" lon="-7.585605"><ele>584.0</ele><time>2026-04-14T12:56:20.884Z</time></trkpt><trkpt lat="42.4066033" lon="-7.58549"><ele>584.0</ele><time>2026-04-14T12:56:21.885Z</time></trkpt><trkpt lat="42.4066667" lon="-7.5853667"><ele>584.0</ele><time>2026-04-14T12:56:22.885Z</time></trkpt><trkpt lat="42.4067183" lon="-7.5852417"><ele>584.0</ele><time>2026-04-14T12:56:23.885Z</time></trkpt><trkpt lat="42.4067617" lon="-7.5851183"><ele>584.0</ele><time>2026-04-14T12:56:24.884Z</time></trkpt><trkpt lat="42.4068133" lon="-7.584975"><ele>580.75</ele><time>2026-04-14T12:56:25.885Z</time></trkpt><trkpt lat="42.4068583" lon="-7.5848433"><ele>577.5</ele><time>2026-04-14T12:56:26.884Z</time></trkpt><trkpt lat="42.4069067" lon="-7.5847033"><ele>574.25</ele><time>2026-04-14T12:56:27.885Z</time></trkpt><trkpt lat="42.4069683" lon="-7.5845567"><ele>571.0</ele><time>2026-04-14T12:56:28.884Z</time></trkpt><trkpt lat="42.4070333" lon="-7.5844283"><ele>571.0</ele><time>2026-04-14T12:56:29.884Z</time></trkpt><trkpt lat="42.4070917" lon="-7.5843"><ele>571.0</ele><time>2026-04-14T12:56:30.885Z</time></trkpt><trkpt lat="42.4071383" lon="-7.584155"><ele>571.0</ele><time>2026-04-14T12:56:31.885Z</time></trkpt><trkpt lat="42.4071683" lon="-7.5840267"><ele>571.0</ele><time>2026-04-14T12:56:32.884Z</time></trkpt><trkpt lat="42.407195" lon="-7.58392"><ele>571.0</ele><time>2026-04-14T12:56:33.884Z</time></trkpt><trkpt lat="42.4072083" lon="-7.5838167"><ele>571.0</ele><time>2026-04-14T12:56:34.884Z</time></trkpt><trkpt lat="42.407235" lon="-7.5837217"><ele>571.0</ele><time>2026-04-14T12:56:35.885Z</time></trkpt><trkpt lat="42.4072783" lon="-7.5836467"><ele>571.0</ele><time>2026-04-14T12:56:36.884Z</time></trkpt><trkpt lat="42.40735" lon="-7.58358"><ele>571.0</ele><time>2026-04-14T12:56:37.884Z</time></trkpt><trkpt lat="42.4074317" lon="-7.5835133"><ele>571.0</ele><time>2026-04-14T12:56:38.885Z</time></trkpt><trkpt lat="42.40752" lon="-7.5834167"><ele>571.0</ele><time>2026-04-14T12:56:39.884Z</time></trkpt><trkpt lat="42.4076167" lon="-7.5833267"><ele>570.8</ele><time>2026-04-14T12:56:40.885Z</time></trkpt><trkpt lat="42.40771" lon="-7.5832367"><ele>570.6</ele><time>2026-04-14T12:56:41.884Z</time></trkpt><trkpt lat="42.4077867" lon="-7.5831667"><ele>570.4</ele><time>2026-04-14T12:56:42.884Z</time></trkpt><trkpt lat="42.40785" lon="-7.5831283"><ele>570.2</ele><time>2026-04-14T12:56:43.885Z</time></trkpt><trkpt lat="42.4079383" lon="-7.5831317"><ele>570.0</ele><time>2026-04-14T12:56:45.884Z</time></trkpt><trkpt lat="42.4080617" lon="-7.58316"><ele>570.0</ele><time>2026-04-14T12:56:47.885Z</time></trkpt><trkpt lat="42.4081433" lon="-7.583155"><ele>570.0</ele><time>2026-04-14T12:56:48.885Z</time></trkpt><trkpt lat="42.4082367" lon="-7.5831367"><ele>570.0</ele><time>2026-04-14T12:56:49.884Z</time></trkpt><trkpt lat="42.4083367" lon="-7.5831083"><ele>570.0</ele><time>2026-04-14T12:56:50.885Z</time></trkpt><trkpt lat="42.40844" lon="-7.583085"><ele>570.0</ele><time>2026-04-14T12:56:51.885Z</time></trkpt><trkpt lat="42.4085217" lon="-7.5830417"><ele>570.0</ele><time>2026-04-14T12:56:52.884Z</time></trkpt><trkpt lat="42.4086083" lon="-7.58298"><ele>570.0</ele><time>2026-04-14T12:56:53.884Z</time></trkpt><trkpt lat="42.408695" lon="-7.58289"><ele>570.0</ele><time>2026-04-14T12:56:54.885Z</time></trkpt><trkpt lat="42.40879" lon="-7.58278"><ele>570.0</ele><time>2026-04-14T12:56:55.885Z</time></trkpt><trkpt lat="42.4088983" lon="-7.5826633"><ele>571.25</ele><time>2026-04-14T12:56:56.885Z</time></trkpt><trkpt lat="42.40902" lon="-7.582535"><ele>572.5</ele><time>2026-04-14T12:56:57.885Z</time></trkpt><trkpt lat="42.409135" lon="-7.5824233"><ele>573.75</ele><time>2026-04-14T12:56:58.884Z</time></trkpt><trkpt lat="42.4092217" lon="-7.582345"><ele>575.0</ele><time>2026-04-14T12:56:59.884Z</time></trkpt><trkpt lat="42.4093083" lon="-7.582325"><ele>575.0</ele><time>2026-04-14T12:57:00.884Z</time></trkpt><trkpt lat="42.4093883" lon="-7.58232"><ele>575.0</ele><time>2026-04-14T12:57:01.884Z</time></trkpt><trkpt lat="42.40947" lon="-7.5823"><ele>575.0</ele><time>2026-04-14T12:57:02.884Z</time></trkpt><trkpt lat="42.4095683" lon="-7.5822533"><ele>575.0</ele><time>2026-04-14T12:57:03.884Z</time></trkpt><trkpt lat="42.40967" lon="-7.58219"><ele>575.0</ele><time>2026-04-14T12:57:04.885Z</time></trkpt><trkpt lat="42.4097933" lon="-7.5820783"><ele>573.3333333333333</ele><time>2026-04-14T12:57:05.885Z</time></trkpt><trkpt lat="42.4099367" lon="-7.58196"><ele>571.6666666666666</ele><time>2026-04-14T12:57:06.884Z</time></trkpt><trkpt lat="42.4100817" lon="-7.5818283"><ele>570.0</ele><time>2026-04-14T12:57:07.884Z</time></trkpt><trkpt lat="42.4102167" lon="-7.58168"><ele>570.0</ele><time>2026-04-14T12:57:08.884Z</time></trkpt><trkpt lat="42.4103567" lon="-7.5815133"><ele>570.0</ele><time>2026-04-14T12:57:09.884Z</time></trkpt><trkpt lat="42.4104867" lon="-7.5813417"><ele>570.0</ele><time>2026-04-14T12:57:10.884Z</time></trkpt><trkpt lat="42.4106233" lon="-7.5811717"><ele>571.0</ele><time>2026-04-14T12:57:11.885Z</time></trkpt><trkpt lat="42.410755" lon="-7.581025"><ele>572.0</ele><time>2026-04-14T12:57:12.884Z</time></trkpt><trkpt lat="42.4108683" lon="-7.58089"><ele>573.0</ele><time>2026-04-14T12:57:13.885Z</time></trkpt><trkpt lat="42.41098" lon="-7.5807683"><ele>573.0</ele><time>2026-04-14T12:57:14.885Z</time></trkpt><trkpt lat="42.41109" lon="-7.580675"><ele>573.0</ele><time>2026-04-14T12:57:15.884Z</time></trkpt><trkpt lat="42.4112033" lon="-7.5806183"><ele>573.0</ele><time>2026-04-14T12:57:16.885Z</time></trkpt><trkpt lat="42.4113067" lon="-7.580595"><ele>573.0</ele><time>2026-04-14T12:57:17.884Z</time></trkpt><trkpt lat="42.411415" lon="-7.5806017"><ele>574.5</ele><time>2026-04-14T12:57:18.885Z</time></trkpt><trkpt lat="42.4115367" lon="-7.5806367"><ele>576.0</ele><time>2026-04-14T12:57:19.885Z</time></trkpt><trkpt lat="42.4116567" lon="-7.5806467"><ele>577.5</ele><time>2026-04-14T12:57:20.884Z</time></trkpt><trkpt lat="42.4117967" lon="-7.580615"><ele>579.0</ele><time>2026-04-14T12:57:21.884Z</time></trkpt><trkpt lat="42.41194" lon="-7.5805667"><ele>579.0</ele><time>2026-04-14T12:57:22.885Z</time></trkpt><trkpt lat="42.412085" lon="-7.5804883"><ele>579.0</ele><time>2026-04-14T12:57:23.885Z</time></trkpt><trkpt lat="42.41222" lon="-7.5804067"><ele>579.0</ele><time>2026-04-14T12:57:24.885Z</time></trkpt><trkpt lat="42.4123383" lon="-7.5803617"><ele>579.0</ele><time>2026-04-14T12:57:25.885Z</time></trkpt><trkpt lat="42.4124533" lon="-7.58037"><ele>578.5</ele><time>2026-04-14T12:57:26.884Z</time></trkpt><trkpt lat="42.4125617" lon="-7.5804067"><ele>578.0</ele><time>2026-04-14T12:57:27.885Z</time></trkpt><trkpt lat="42.4126683" lon="-7.580455"><ele>577.5</ele><time>2026-04-14T12:57:28.884Z</time></trkpt><trkpt lat="42.4127867" lon="-7.5804883"><ele>577.0</ele><time>2026-04-14T12:57:29.884Z</time></trkpt><trkpt lat="42.412905" lon="-7.58051"><ele>574.4</ele><time>2026-04-14T12:57:30.885Z</time></trkpt><trkpt lat="42.4130117" lon="-7.5805083"><ele>571.8000000000001</ele><time>2026-04-14T12:57:31.884Z</time></trkpt><trkpt lat="42.41311" lon="-7.5805133"><ele>569.2</ele><time>2026-04-14T12:57:32.885Z</time></trkpt><trkpt lat="42.4132033" lon="-7.5805417"><ele>566.6</ele><time>2026-04-14T12:57:33.884Z</time></trkpt><trkpt lat="42.4133067" lon="-7.580575"><ele>564.0</ele><time>2026-04-14T12:57:34.885Z</time></trkpt><trkpt lat="42.413405" lon="-7.5805967"><ele>564.0</ele><time>2026-04-14T12:57:35.884Z</time></trkpt><trkpt lat="42.41353" lon="-7.5805917"><ele>564.0</ele><time>2026-04-14T12:57:36.885Z</time></trkpt><trkpt lat="42.4136683" lon="-7.5805833"><ele>564.0</ele><time>2026-04-14T12:57:37.884Z</time></trkpt><trkpt lat="42.4138317" lon="-7.5805733"><ele>564.0</ele><time>2026-04-14T12:57:38.884Z</time></trkpt><trkpt lat="42.4140017" lon="-7.58056"><ele>562.0</ele><time>2026-04-14T12:57:39.884Z</time></trkpt><trkpt lat="42.4141733" lon="-7.5805317"><ele>560.0</ele><time>2026-04-14T12:57:40.885Z</time></trkpt><trkpt lat="42.4143317" lon="-7.5804933"><ele>558.0</ele><time>2026-04-14T12:57:41.885Z</time></trkpt><trkpt lat="42.414485" lon="-7.5804733"><ele>558.0</ele><time>2026-04-14T12:57:42.884Z</time></trkpt><trkpt lat="42.4146483" lon="-7.5804467"><ele>558.0</ele><time>2026-04-14T12:57:43.884Z</time></trkpt><trkpt lat="42.4147967" lon="-7.58041"><ele>558.0</ele><time>2026-04-14T12:57:44.884Z</time></trkpt><trkpt lat="42.414935" lon="-7.5803633"><ele>558.25</ele><time>2026-04-14T12:57:45.884Z</time></trkpt><trkpt lat="42.41507" lon="-7.5803133"><ele>558.5</ele><time>2026-04-14T12:57:46.884Z</time></trkpt><trkpt lat="42.4152" lon="-7.5802633"><ele>558.75</ele><time>2026-04-14T12:57:47.884Z</time></trkpt><trkpt lat="42.415315" lon="-7.5802033"><ele>559.0</ele><time>2026-04-14T12:57:48.885Z</time></trkpt><trkpt lat="42.4154017" lon="-7.5801467"><ele>559.0</ele><time>2026-04-14T12:57:49.885Z</time></trkpt><trkpt lat="42.4154767" lon="-7.5801117"><ele>559.0</ele><time>2026-04-14T12:57:50.884Z</time></trkpt><trkpt lat="42.4155367" lon="-7.58006"><ele>559.0</ele><time>2026-04-14T12:57:51.885Z</time></trkpt><trkpt lat="42.4155983" lon="-7.5799833"><ele>559.0</ele><time>2026-04-14T12:57:52.885Z</time></trkpt><trkpt lat="42.4156767" lon="-7.579905"><ele>559.0</ele><time>2026-04-14T12:57:53.884Z</time></trkpt><trkpt lat="42.4157517" lon="-7.5797883"><ele>559.0</ele><time>2026-04-14T12:57:54.885Z</time></trkpt><trkpt lat="42.4158233" lon="-7.579685"><ele>559.0</ele><time>2026-04-14T12:57:55.885Z</time></trkpt><trkpt lat="42.4158967" lon="-7.5796"><ele>559.0</ele><time>2026-04-14T12:57:56.885Z</time></trkpt><trkpt lat="42.4159817" lon="-7.5795367"><ele>559.0</ele><time>2026-04-14T12:57:57.884Z</time></trkpt><trkpt lat="42.4160683" lon="-7.5794633"><ele>559.0</ele><time>2026-04-14T12:57:58.884Z</time></trkpt><trkpt lat="42.4161533" lon="-7.5793783"><ele>559.0</ele><time>2026-04-14T12:57:59.884Z</time></trkpt><trkpt lat="42.4162333" lon="-7.57929"><ele>559.0</ele><time>2026-04-14T12:58:00.885Z</time></trkpt><trkpt lat="42.4163133" lon="-7.579195"><ele>559.0</ele><time>2026-04-14T12:58:01.884Z</time></trkpt><trkpt lat="42.41639" lon="-7.57909"><ele>559.0</ele><time>2026-04-14T12:58:02.884Z</time></trkpt><trkpt lat="42.416475" lon="-7.5789867"><ele>559.0</ele><time>2026-04-14T12:58:03.885Z</time></trkpt><trkpt lat="42.41656" lon="-7.5789017"><ele>559.0</ele><time>2026-04-14T12:58:04.885Z</time></trkpt><trkpt lat="42.4166483" lon="-7.578835"><ele>558.6</ele><time>2026-04-14T12:58:05.884Z</time></trkpt><trkpt lat="42.4167333" lon="-7.5787917"><ele>558.2</ele><time>2026-04-14T12:58:06.885Z</time></trkpt><trkpt lat="42.4168383" lon="-7.5787767"><ele>557.8000000000001</ele><time>2026-04-14T12:58:07.885Z</time></trkpt><trkpt lat="42.4169433" lon="-7.5787833"><ele>557.4</ele><time>2026-04-14T12:58:08.885Z</time></trkpt><trkpt lat="42.4170533" lon="-7.5788083"><ele>557.0</ele><time>2026-04-14T12:58:09.885Z</time></trkpt><trkpt lat="42.4171733" lon="-7.5788633"><ele>554.25</ele><time>2026-04-14T12:58:10.885Z</time></trkpt><trkpt lat="42.417285" lon="-7.578935"><ele>551.5</ele><time>2026-04-14T12:58:11.885Z</time></trkpt><trkpt lat="42.4173917" lon="-7.5790183"><ele>548.75</ele><time>2026-04-14T12:58:12.884Z</time></trkpt><trkpt lat="42.4175067" lon="-7.5790867"><ele>546.0</ele><time>2026-04-14T12:58:13.884Z</time></trkpt><trkpt lat="42.417615" lon="-7.5791417"><ele>546.0</ele><time>2026-04-14T12:58:14.885Z</time></trkpt><trkpt lat="42.4177283" lon="-7.5791667"><ele>546.0</ele><time>2026-04-14T12:58:15.885Z</time></trkpt><trkpt lat="42.4178383" lon="-7.5791833"><ele>546.0</ele><time>2026-04-14T12:58:16.885Z</time></trkpt><trkpt lat="42.417945" lon="-7.579195"><ele>546.0</ele><time>2026-04-14T12:58:17.884Z</time></trkpt><trkpt lat="42.4180333" lon="-7.5792033"><ele>546.0</ele><time>2026-04-14T12:58:18.884Z</time></trkpt><trkpt lat="42.4181133" lon="-7.5792117"><ele>544.3333333333334</ele><time>2026-04-14T12:58:19.884Z</time></trkpt><trkpt lat="42.418195" lon="-7.5792233"><ele>542.6666666666666</ele><time>2026-04-14T12:58:20.884Z</time></trkpt><trkpt lat="42.418265" lon="-7.5792167"><ele>541.0</ele><time>2026-04-14T12:58:21.885Z</time></trkpt><trkpt lat="42.4183333" lon="-7.5792067"><ele>539.3333333333333</ele><time>2026-04-14T12:58:22.884Z</time></trkpt><trkpt lat="42.4184667" lon="-7.5791683"><ele>537.6666666666666</ele><time>2026-04-14T12:58:24.885Z</time></trkpt><trkpt lat="42.41855" lon="-7.579145"><ele>536.0</ele><time>2026-04-14T12:58:25.884Z</time></trkpt><trkpt lat="42.4186483" lon="-7.579125"><ele>536.0</ele><time>2026-04-14T12:58:26.884Z</time></trkpt><trkpt lat="42.4187517" lon="-7.5791117"><ele>536.0</ele><time>2026-04-14T12:58:27.884Z</time></trkpt><trkpt lat="42.4188567" lon="-7.5791083"><ele>536.0</ele><time>2026-04-14T12:58:28.885Z</time></trkpt><trkpt lat="42.41896" lon="-7.5790983"><ele>536.0</ele><time>2026-04-14T12:58:29.884Z</time></trkpt><trkpt lat="42.419055" lon="-7.5790833"><ele>536.0</ele><time>2026-04-14T12:58:30.884Z</time></trkpt><trkpt lat="42.41914" lon="-7.5790683"><ele>534.4</ele><time>2026-04-14T12:58:31.884Z</time></trkpt><trkpt lat="42.4192183" lon="-7.5790567"><ele>532.8</ele><time>2026-04-14T12:58:32.884Z</time></trkpt><trkpt lat="42.4192783" lon="-7.5789783"><ele>531.1999999999999</ele><time>2026-04-14T12:58:34.885Z</time></trkpt><trkpt lat="42.4192417" lon="-7.578835"><ele>529.6</ele><time>2026-04-14T12:58:36.884Z</time></trkpt><trkpt lat="42.4191917" lon="-7.5787483"><ele>528.0</ele><time>2026-04-14T12:58:37.884Z</time></trkpt><trkpt lat="42.4191367" lon="-7.57864"><ele>527.6</ele><time>2026-04-14T12:58:38.884Z</time></trkpt><trkpt lat="42.4190783" lon="-7.578525"><ele>527.1999999999999</ele><time>2026-04-14T12:58:39.884Z</time></trkpt><trkpt lat="42.4190183" lon="-7.578415"><ele>526.8</ele><time>2026-04-14T12:58:40.884Z</time></trkpt><trkpt lat="42.4189667" lon="-7.57832"><ele>526.4</ele><time>2026-04-14T12:58:41.884Z</time></trkpt><trkpt lat="42.418915" lon="-7.57823"><ele>526.0</ele><time>2026-04-14T12:58:42.884Z</time></trkpt><trkpt lat="42.4188633" lon="-7.578155"><ele>526.8333333333334</ele><time>2026-04-14T12:58:43.884Z</time></trkpt><trkpt lat="42.4188067" lon="-7.578095"><ele>527.6666666666667</ele><time>2026-04-14T12:58:44.885Z</time></trkpt><trkpt lat="42.418735" lon="-7.5780417"><ele>528.5</ele><time>2026-04-14T12:58:45.885Z</time></trkpt><trkpt lat="42.4186633" lon="-7.5779833"><ele>529.3333333333334</ele><time>2026-04-14T12:58:46.885Z</time></trkpt><trkpt lat="42.4185967" lon="-7.5779167"><ele>530.1666666666666</ele><time>2026-04-14T12:58:47.885Z</time></trkpt><trkpt lat="42.4185333" lon="-7.577845"><ele>531.0</ele><time>2026-04-14T12:58:48.884Z</time></trkpt><trkpt lat="42.4184733" lon="-7.5777667"><ele>531.0</ele><time>2026-04-14T12:58:49.885Z</time></trkpt><trkpt lat="42.4184133" lon="-7.577675"><ele>531.0</ele><time>2026-04-14T12:58:50.885Z</time></trkpt><trkpt lat="42.4183583" lon="-7.5775733"><ele>531.0</ele><time>2026-04-14T12:58:51.884Z</time></trkpt><trkpt lat="42.418305" lon="-7.5774667"><ele>531.0</ele><time>2026-04-14T12:58:52.884Z</time></trkpt><trkpt lat="42.4182567" lon="-7.5773667"><ele>531.0</ele><time>2026-04-14T12:58:53.884Z</time></trkpt><trkpt lat="42.4182017" lon="-7.57726"><ele>531.0</ele><time>2026-04-14T12:58:54.885Z</time></trkpt><trkpt lat="42.418145" lon="-7.5771533"><ele>531.0</ele><time>2026-04-14T12:58:55.885Z</time></trkpt><trkpt lat="42.41809" lon="-7.5770517"><ele>531.0</ele><time>2026-04-14T12:58:56.884Z</time></trkpt><trkpt lat="42.4180383" lon="-7.5769533"><ele>531.0</ele><time>2026-04-14T12:58:57.885Z</time></trkpt><trkpt lat="42.4179883" lon="-7.5768567"><ele>531.0</ele><time>2026-04-14T12:58:58.884Z</time></trkpt><trkpt lat="42.4179467" lon="-7.576755"><ele>530.5</ele><time>2026-04-14T12:58:59.884Z</time></trkpt><trkpt lat="42.417905" lon="-7.5766583"><ele>530.0</ele><time>2026-04-14T12:59:00.885Z</time></trkpt><trkpt lat="42.4178717" lon="-7.57656"><ele>529.5</ele><time>2026-04-14T12:59:01.885Z</time></trkpt><trkpt lat="42.41784" lon="-7.5764617"><ele>529.0</ele><time>2026-04-14T12:59:02.885Z</time></trkpt><trkpt lat="42.417805" lon="-7.5763617"><ele>528.5</ele><time>2026-04-14T12:59:03.885Z</time></trkpt><trkpt lat="42.4177633" lon="-7.5762533"><ele>528.0</ele><time>2026-04-14T12:59:04.884Z</time></trkpt><trkpt lat="42.4177133" lon="-7.5761383"><ele>526.4</ele><time>2026-04-14T12:59:05.885Z</time></trkpt><trkpt lat="42.4176567" lon="-7.5760233"><ele>524.8</ele><time>2026-04-14T12:59:06.884Z</time></trkpt><trkpt lat="42.4176017" lon="-7.5759183"><ele>523.2</ele><time>2026-04-14T12:59:07.885Z</time></trkpt><trkpt lat="42.4175517" lon="-7.575815"><ele>521.6</ele><time>2026-04-14T12:59:08.884Z</time></trkpt><trkpt lat="42.4175033" lon="-7.575715"><ele>520.0</ele><time>2026-04-14T12:59:09.884Z</time></trkpt><trkpt lat="42.417455" lon="-7.5755967"><ele>520.0</ele><time>2026-04-14T12:59:10.885Z</time></trkpt><trkpt lat="42.4174217" lon="-7.575485"><ele>520.0</ele><time>2026-04-14T12:59:11.885Z</time></trkpt><trkpt lat="42.4174" lon="-7.57537"><ele>520.0</ele><time>2026-04-14T12:59:12.885Z</time></trkpt><trkpt lat="42.4173833" lon="-7.5752483"><ele>520.0</ele><time>2026-04-14T12:59:13.884Z</time></trkpt><trkpt lat="42.4173817" lon="-7.5750983"><ele>520.0</ele><time>2026-04-14T12:59:14.884Z</time></trkpt><trkpt lat="42.41738" lon="-7.5749567"><ele>518.5</ele><time>2026-04-14T12:59:15.884Z</time></trkpt><trkpt lat="42.417375" lon="-7.574835"><ele>517.0</ele><time>2026-04-14T12:59:16.884Z</time></trkpt><trkpt lat="42.4173783" lon="-7.574725"><ele>515.5</ele><time>2026-04-14T12:59:17.885Z</time></trkpt><trkpt lat="42.4173933" lon="-7.5746183"><ele>514.0</ele><time>2026-04-14T12:59:18.884Z</time></trkpt><trkpt lat="42.4174033" lon="-7.5745233"><ele>512.5</ele><time>2026-04-14T12:59:19.884Z</time></trkpt><trkpt lat="42.4174" lon="-7.5744317"><ele>511.0</ele><time>2026-04-14T12:59:20.885Z</time></trkpt><trkpt lat="42.4173983" lon="-7.57434"><ele>509.57142857142856</ele><time>2026-04-14T12:59:21.885Z</time></trkpt><trkpt lat="42.4174033" lon="-7.574245"><ele>508.1428571428571</ele><time>2026-04-14T12:59:22.885Z</time></trkpt><trkpt lat="42.4174117" lon="-7.5741417"><ele>506.7142857142857</ele><time>2026-04-14T12:59:23.885Z</time></trkpt><trkpt lat="42.4174133" lon="-7.57404"><ele>505.2857142857143</ele><time>2026-04-14T12:59:24.885Z</time></trkpt><trkpt lat="42.4174033" lon="-7.5739483"><ele>503.85714285714283</ele><time>2026-04-14T12:59:25.884Z</time></trkpt><trkpt lat="42.417375" lon="-7.5738583"><ele>502.42857142857144</ele><time>2026-04-14T12:59:26.885Z</time></trkpt><trkpt lat="42.4173483" lon="-7.57378"><ele>501.0</ele><time>2026-04-14T12:59:27.885Z</time></trkpt><trkpt lat="42.4173467" lon="-7.57363"><ele>499.20000000000005</ele><time>2026-04-14T12:59:29.884Z</time></trkpt><trkpt lat="42.4173967" lon="-7.57355"><ele>497.40000000000003</ele><time>2026-04-14T12:59:30.885Z</time></trkpt><trkpt lat="42.41747" lon="-7.5734783"><ele>495.6</ele><time>2026-04-14T12:59:31.884Z</time></trkpt><trkpt lat="42.4175533" lon="-7.573415"><ele>493.8</ele><time>2026-04-14T12:59:32.885Z</time></trkpt><trkpt lat="42.4176483" lon="-7.573355"><ele>492.0</ele><time>2026-04-14T12:59:33.885Z</time></trkpt><trkpt lat="42.4177367" lon="-7.5732917"><ele>492.0</ele><time>2026-04-14T12:59:34.885Z</time></trkpt><trkpt lat="42.4178167" lon="-7.5732317"><ele>492.0</ele><time>2026-04-14T12:59:35.884Z</time></trkpt><trkpt lat="42.4178967" lon="-7.573165"><ele>492.0</ele><time>2026-04-14T12:59:36.884Z</time></trkpt><trkpt lat="42.41795" lon="-7.5730717"><ele>492.0</ele><time>2026-04-14T12:59:37.884Z</time></trkpt><trkpt lat="42.4179867" lon="-7.5729867"><ele>492.0</ele><time>2026-04-14T12:59:38.884Z</time></trkpt><trkpt lat="42.4180067" lon="-7.5729"><ele>492.0</ele><time>2026-04-14T12:59:40.884Z</time></trkpt><trkpt lat="42.41792" lon="-7.5728317"><ele>490.6666666666667</ele><time>2026-04-14T12:59:42.884Z</time></trkpt><trkpt lat="42.4178683" lon="-7.5727517"><ele>489.33333333333337</ele><time>2026-04-14T12:59:43.884Z</time></trkpt><trkpt lat="42.4178183" lon="-7.5726567"><ele>488.0</ele><time>2026-04-14T12:59:44.885Z</time></trkpt><trkpt lat="42.4177583" lon="-7.5725483"><ele>486.6666666666667</ele><time>2026-04-14T12:59:45.884Z</time></trkpt><trkpt lat="42.4177017" lon="-7.5724483"><ele>485.33333333333337</ele><time>2026-04-14T12:59:46.884Z</time></trkpt><trkpt lat="42.4176417" lon="-7.5723583"><ele>484.0</ele><time>2026-04-14T12:59:47.885Z</time></trkpt><trkpt lat="42.4175683" lon="-7.572275"><ele>484.00000000000006</ele><time>2026-04-14T12:59:48.884Z</time></trkpt><trkpt lat="42.4174883" lon="-7.5722117"><ele>484.0</ele><time>2026-04-14T12:59:49.884Z</time></trkpt><trkpt lat="42.41741" lon="-7.572155"><ele>484.0</ele><time>2026-04-14T12:59:50.884Z</time></trkpt><trkpt lat="42.4173483" lon="-7.5721033"><ele>484.0</ele><time>2026-04-14T12:59:51.885Z</time></trkpt><trkpt lat="42.41732" lon="-7.5719667"><ele>484.00000000000006</ele><time>2026-04-14T12:59:53.884Z</time></trkpt><trkpt lat="42.4173467" lon="-7.5718617"><ele>484.0</ele><time>2026-04-14T12:59:54.885Z</time></trkpt><trkpt lat="42.417385" lon="-7.5717317"><ele>482.0</ele><time>2026-04-14T12:59:55.884Z</time></trkpt><trkpt lat="42.4174017" lon="-7.5715717"><ele>480.0</ele><time>2026-04-14T12:59:56.884Z</time></trkpt><trkpt lat="42.4173917" lon="-7.5713783"><ele>478.0</ele><time>2026-04-14T12:59:57.884Z</time></trkpt><trkpt lat="42.4173617" lon="-7.5711683"><ele>476.0</ele><time>2026-04-14T12:59:58.884Z</time></trkpt><trkpt lat="42.4173383" lon="-7.57094"><ele>475.66666666666663</ele><time>2026-04-14T12:59:59.885Z</time></trkpt><trkpt lat="42.41733" lon="-7.5706917"><ele>475.33333333333337</ele><time>2026-04-14T13:00:00.884Z</time></trkpt><trkpt lat="42.41734" lon="-7.570415"><ele>475.0</ele><time>2026-04-14T13:00:01.884Z</time></trkpt><trkpt lat="42.4173467" lon="-7.5701917"><ele>475.8</ele><time>2026-04-14T13:00:02.884Z</time></trkpt><trkpt lat="42.41735" lon="-7.5700467"><ele>476.6</ele><time>2026-04-14T13:00:03.884Z</time></trkpt><trkpt lat="42.4173317" lon="-7.5699517"><ele>477.4</ele><time>2026-04-14T13:00:04.885Z</time></trkpt><trkpt lat="42.4172217" lon="-7.56985"><ele>478.2</ele><time>2026-04-14T13:00:06.886Z</time></trkpt><trkpt lat="42.4171433" lon="-7.5697667"><ele>479.0</ele><time>2026-04-14T13:00:07.886Z</time></trkpt><trkpt lat="42.4170733" lon="-7.5696367"><ele>480.66666666666663</ele><time>2026-04-14T13:00:08.886Z</time></trkpt><trkpt lat="42.4169833" lon="-7.5694967"><ele>482.33333333333337</ele><time>2026-04-14T13:00:09.885Z</time></trkpt><trkpt lat="42.4168583" lon="-7.569375"><ele>484.0</ele><time>2026-04-14T13:00:10.886Z</time></trkpt><trkpt lat="42.4167117" lon="-7.5692533"><ele>484.0</ele><time>2026-04-14T13:00:11.885Z</time></trkpt><trkpt lat="42.416555" lon="-7.5691117"><ele>484.0</ele><time>2026-04-14T13:00:12.885Z</time></trkpt><trkpt lat="42.4164083" lon="-7.5689833"><ele>484.0</ele><time>2026-04-14T13:00:13.885Z</time></trkpt><trkpt lat="42.4162817" lon="-7.5688717"><ele>483.4</ele><time>2026-04-14T13:00:14.886Z</time></trkpt><trkpt lat="42.4161717" lon="-7.5687817"><ele>482.79999999999995</ele><time>2026-04-14T13:00:15.885Z</time></trkpt><trkpt lat="42.4160583" lon="-7.56872"><ele>482.20000000000005</ele><time>2026-04-14T13:00:16.885Z</time></trkpt><trkpt lat="42.41597" lon="-7.5686533"><ele>481.6</ele><time>2026-04-14T13:00:17.886Z</time></trkpt><trkpt lat="42.4159033" lon="-7.5685633"><ele>481.0</ele><time>2026-04-14T13:00:18.885Z</time></trkpt><trkpt lat="42.4158583" lon="-7.5684633"><ele>481.00000000000006</ele><time>2026-04-14T13:00:19.886Z</time></trkpt><trkpt lat="42.41583" lon="-7.5683617"><ele>481.0</ele><time>2026-04-14T13:00:20.885Z</time></trkpt><trkpt lat="42.4158" lon="-7.568265"><ele>481.0</ele><time>2026-04-14T13:00:21.885Z</time></trkpt><trkpt lat="42.4157533" lon="-7.5681967"><ele>481.0</ele><time>2026-04-14T13:00:22.886Z</time></trkpt><trkpt lat="42.4156783" lon="-7.5681417"><ele>481.00000000000006</ele><time>2026-04-14T13:00:23.885Z</time></trkpt><trkpt lat="42.41559" lon="-7.56809"><ele>481.0</ele><time>2026-04-14T13:00:24.885Z</time></trkpt><trkpt lat="42.4155" lon="-7.568035"><ele>480.6666666666667</ele><time>2026-04-14T13:00:25.885Z</time></trkpt><trkpt lat="42.4154133" lon="-7.5679917"><ele>480.33333333333337</ele><time>2026-04-14T13:00:26.886Z</time></trkpt><trkpt lat="42.415335" lon="-7.5679583"><ele>480.0</ele><time>2026-04-14T13:00:27.886Z</time></trkpt><trkpt lat="42.4152617" lon="-7.56794"><ele>479.66666666666663</ele><time>2026-04-14T13:00:28.885Z</time></trkpt><trkpt lat="42.4151883" lon="-7.56794"><ele>479.3333333333333</ele><time>2026-04-14T13:00:29.885Z</time></trkpt><trkpt lat="42.41512" lon="-7.5679717"><ele>479.0</ele><time>2026-04-14T13:00:30.885Z</time></trkpt><trkpt lat="42.4150517" lon="-7.5680217"><ele>478.99999999999994</ele><time>2026-04-14T13:00:31.886Z</time></trkpt><trkpt lat="42.4149867" lon="-7.5680833"><ele>479.0</ele><time>2026-04-14T13:00:32.885Z</time></trkpt><trkpt lat="42.4149233" lon="-7.5681333"><ele>479.0</ele><time>2026-04-14T13:00:33.886Z</time></trkpt><trkpt lat="42.414865" lon="-7.568185"><ele>479.0</ele><time>2026-04-14T13:00:34.885Z</time></trkpt><trkpt lat="42.4148" lon="-7.5682233"><ele>478.99999999999994</ele><time>2026-04-14T13:00:35.886Z</time></trkpt><trkpt lat="42.41474" lon="-7.5682517"><ele>479.0</ele><time>2026-04-14T13:00:36.885Z</time></trkpt><trkpt lat="42.414605" lon="-7.568265"><ele>478.8333333333333</ele><time>2026-04-14T13:00:38.885Z</time></trkpt><trkpt lat="42.4145233" lon="-7.5682583"><ele>478.66666666666663</ele><time>2026-04-14T13:00:39.885Z</time></trkpt><trkpt lat="42.4144533" lon="-7.5682333"><ele>478.5</ele><time>2026-04-14T13:00:40.886Z</time></trkpt><trkpt lat="42.4143483" lon="-7.5681383"><ele>478.33333333333337</ele><time>2026-04-14T13:00:42.886Z</time></trkpt><trkpt lat="42.4142967" lon="-7.5680783"><ele>478.1666666666667</ele><time>2026-04-14T13:00:43.885Z</time></trkpt><trkpt lat="42.41423" lon="-7.5680383"><ele>478.0</ele><time>2026-04-14T13:00:44.886Z</time></trkpt><trkpt lat="42.4141583" lon="-7.5679967"><ele>478.00000000000006</ele><time>2026-04-14T13:00:45.885Z</time></trkpt><trkpt lat="42.4140767" lon="-7.5679567"><ele>478.0</ele><time>2026-04-14T13:00:46.885Z</time></trkpt><trkpt lat="42.4139983" lon="-7.5679217"><ele>478.0</ele><time>2026-04-14T13:00:47.886Z</time></trkpt><trkpt lat="42.413925" lon="-7.5678967"><ele>478.0</ele><time>2026-04-14T13:00:48.886Z</time></trkpt><trkpt lat="42.413855" lon="-7.56788"><ele>478.00000000000006</ele><time>2026-04-14T13:00:49.885Z</time></trkpt><trkpt lat="42.41376" lon="-7.567845"><ele>478.0</ele><time>2026-04-14T13:00:51.885Z</time></trkpt><trkpt lat="42.4137017" lon="-7.5677433"><ele>480.0</ele><time>2026-04-14T13:00:53.885Z</time></trkpt><trkpt lat="42.41371" lon="-7.567565"><ele>481.99999999999994</ele><time>2026-04-14T13:00:55.885Z</time></trkpt><trkpt lat="42.4137283" lon="-7.567465"><ele>483.99999999999994</ele><time>2026-04-14T13:00:56.885Z</time></trkpt><trkpt lat="42.4137367" lon="-7.5673583"><ele>486.0</ele><time>2026-04-14T13:00:57.886Z</time></trkpt><trkpt lat="42.4137367" lon="-7.567245"><ele>488.0</ele><time>2026-04-14T13:00:58.885Z</time></trkpt><trkpt lat="42.4137317" lon="-7.5671333"><ele>487.99999999999994</ele><time>2026-04-14T13:00:59.886Z</time></trkpt><trkpt lat="42.413745" lon="-7.5670333"><ele>488.0</ele><time>2026-04-14T13:01:00.886Z</time></trkpt><trkpt lat="42.4137717" lon="-7.56695"><ele>487.99999999999994</ele><time>2026-04-14T13:01:01.886Z</time></trkpt><trkpt lat="42.41381" lon="-7.5668817"><ele>487.99999999999994</ele><time>2026-04-14T13:01:02.885Z</time></trkpt><trkpt lat="42.4138567" lon="-7.56682"><ele>488.0</ele><time>2026-04-14T13:01:03.886Z</time></trkpt><trkpt lat="42.4139067" lon="-7.5667567"><ele>487.99999999999994</ele><time>2026-04-14T13:01:04.886Z</time></trkpt><trkpt lat="42.413965" lon="-7.5666917"><ele>487.99999999999994</ele><time>2026-04-14T13:01:05.885Z</time></trkpt><trkpt lat="42.4140283" lon="-7.5666267"><ele>487.99999999999994</ele><time>2026-04-14T13:01:06.886Z</time></trkpt><trkpt lat="42.4140867" lon="-7.5665567"><ele>488.0</ele><time>2026-04-14T13:01:07.886Z</time></trkpt><trkpt lat="42.4141367" lon="-7.5664783"><ele>488.0</ele><time>2026-04-14T13:01:08.886Z</time></trkpt><trkpt lat="42.4141833" lon="-7.566395"><ele>488.0</ele><time>2026-04-14T13:01:09.886Z</time></trkpt><trkpt lat="42.4142083" lon="-7.5663017"><ele>487.99999999999994</ele><time>2026-04-14T13:01:10.885Z</time></trkpt><trkpt lat="42.4142233" lon="-7.566205"><ele>488.0</ele><time>2026-04-14T13:01:11.886Z</time></trkpt><trkpt lat="42.4142317" lon="-7.5661083"><ele>488.8571428571428</ele><time>2026-04-14T13:01:12.885Z</time></trkpt><trkpt lat="42.4142383" lon="-7.5660117"><ele>489.71428571428567</ele><time>2026-04-14T13:01:13.885Z</time></trkpt><trkpt lat="42.414255" lon="-7.5659183"><ele>490.57142857142856</ele><time>2026-04-14T13:01:14.885Z</time></trkpt><trkpt lat="42.4142683" lon="-7.5658183"><ele>491.4285714285714</ele><time>2026-04-14T13:01:15.885Z</time></trkpt><trkpt lat="42.4142817" lon="-7.5657167"><ele>492.2857142857142</ele><time>2026-04-14T13:01:16.886Z</time></trkpt><trkpt lat="42.41429" lon="-7.565615"><ele>493.14285714285717</ele><time>2026-04-14T13:01:17.885Z</time></trkpt><trkpt lat="42.4142833" lon="-7.5655117"><ele>494.0</ele><time>2026-04-14T13:01:18.885Z</time></trkpt><trkpt lat="42.41427" lon="-7.5653983"><ele>495.2</ele><time>2026-04-14T13:01:19.885Z</time></trkpt><trkpt lat="42.4142483" lon="-7.5652717"><ele>496.4</ele><time>2026-04-14T13:01:20.886Z</time></trkpt><trkpt lat="42.4142183" lon="-7.5651483"><ele>497.6</ele><time>2026-04-14T13:01:21.885Z</time></trkpt><trkpt lat="42.4141783" lon="-7.5650217"><ele>498.8</ele><time>2026-04-14T13:01:22.885Z</time></trkpt><trkpt lat="42.4141333" lon="-7.5648933"><ele>500.0</ele><time>2026-04-14T13:01:23.885Z</time></trkpt><trkpt lat="42.4140883" lon="-7.5647567"><ele>500.0</ele><time>2026-04-14T13:01:24.885Z</time></trkpt><trkpt lat="42.414045" lon="-7.56462"><ele>500.0</ele><time>2026-04-14T13:01:25.886Z</time></trkpt><trkpt lat="42.414" lon="-7.5644717"><ele>500.0</ele><time>2026-04-14T13:01:26.885Z</time></trkpt><trkpt lat="42.413955" lon="-7.5643233"><ele>500.0</ele><time>2026-04-14T13:01:27.885Z</time></trkpt><trkpt lat="42.4139067" lon="-7.5641817"><ele>500.6</ele><time>2026-04-14T13:01:28.886Z</time></trkpt><trkpt lat="42.41385" lon="-7.5640567"><ele>501.2</ele><time>2026-04-14T13:01:29.886Z</time></trkpt><trkpt lat="42.4137883" lon="-7.563955"><ele>501.79999999999995</ele><time>2026-04-14T13:01:30.886Z</time></trkpt><trkpt lat="42.4137133" lon="-7.5638633"><ele>502.4</ele><time>2026-04-14T13:01:31.885Z</time></trkpt><trkpt lat="42.4136283" lon="-7.5637883"><ele>503.0</ele><time>2026-04-14T13:01:32.885Z</time></trkpt><trkpt lat="42.413535" lon="-7.5637233"><ele>504.0</ele><time>2026-04-14T13:01:33.886Z</time></trkpt><trkpt lat="42.4134417" lon="-7.56366"><ele>504.99999999999994</ele><time>2026-04-14T13:01:34.885Z</time></trkpt><trkpt lat="42.4133467" lon="-7.5636167"><ele>505.99999999999994</ele><time>2026-04-14T13:01:35.885Z</time></trkpt><trkpt lat="42.4132467" lon="-7.5635833"><ele>507.0</ele><time>2026-04-14T13:01:36.885Z</time></trkpt><trkpt lat="42.4131383" lon="-7.5635317"><ele>508.0</ele><time>2026-04-14T13:01:37.885Z</time></trkpt><trkpt lat="42.413035" lon="-7.5634667"><ele>508.79999999999995</ele><time>2026-04-14T13:01:38.885Z</time></trkpt><trkpt lat="42.4129567" lon="-7.5633917"><ele>509.59999999999997</ele><time>2026-04-14T13:01:39.885Z</time></trkpt><trkpt lat="42.412885" lon="-7.5633183"><ele>510.40000000000003</ele><time>2026-04-14T13:01:40.886Z</time></trkpt><trkpt lat="42.412825" lon="-7.5632467"><ele>511.20000000000005</ele><time>2026-04-14T13:01:41.885Z</time></trkpt><trkpt lat="42.4127617" lon="-7.5631283"><ele>512.0</ele><time>2026-04-14T13:01:43.885Z</time></trkpt><trkpt lat="42.4128083" lon="-7.562985"><ele>512.0</ele><time>2026-04-14T13:01:45.885Z</time></trkpt><trkpt lat="42.4128783" lon="-7.56288"><ele>512.0</ele><time>2026-04-14T13:01:46.885Z</time></trkpt><trkpt lat="42.4129617" lon="-7.5627633"><ele>512.0</ele><time>2026-04-14T13:01:47.885Z</time></trkpt><trkpt lat="42.4130317" lon="-7.5626417"><ele>512.0</ele><time>2026-04-14T13:01:48.886Z</time></trkpt><trkpt lat="42.4130983" lon="-7.5625017"><ele>511.0</ele><time>2026-04-14T13:01:49.886Z</time></trkpt><trkpt lat="42.4131567" lon="-7.5623567"><ele>510.0</ele><time>2026-04-14T13:01:50.885Z</time></trkpt><trkpt lat="42.4132133" lon="-7.56221"><ele>509.0</ele><time>2026-04-14T13:01:51.885Z</time></trkpt><trkpt lat="42.4132683" lon="-7.5620683"><ele>508.0</ele><time>2026-04-14T13:01:52.885Z</time></trkpt><trkpt lat="42.41333" lon="-7.5619383"><ele>507.79999999999995</ele><time>2026-04-14T13:01:53.885Z</time></trkpt><trkpt lat="42.4133933" lon="-7.56181"><ele>507.59999999999997</ele><time>2026-04-14T13:01:54.886Z</time></trkpt><trkpt lat="42.4134533" lon="-7.56169"><ele>507.40000000000003</ele><time>2026-04-14T13:01:55.885Z</time></trkpt><trkpt lat="42.4135067" lon="-7.5615683"><ele>507.20000000000005</ele><time>2026-04-14T13:01:56.886Z</time></trkpt><trkpt lat="42.4135467" lon="-7.5614417"><ele>507.0</ele><time>2026-04-14T13:01:57.885Z</time></trkpt><trkpt lat="42.4135767" lon="-7.5613033"><ele>507.0</ele><time>2026-04-14T13:01:58.885Z</time></trkpt><trkpt lat="42.41359" lon="-7.561155"><ele>507.00000000000006</ele><time>2026-04-14T13:01:59.885Z</time></trkpt><trkpt lat="42.413595" lon="-7.5610083"><ele>507.00000000000006</ele><time>2026-04-14T13:02:00.885Z</time></trkpt><trkpt lat="42.413595" lon="-7.5608767"><ele>507.0</ele><time>2026-04-14T13:02:01.885Z</time></trkpt><trkpt lat="42.41361" lon="-7.56075"><ele>507.0</ele><time>2026-04-14T13:02:02.885Z</time></trkpt><trkpt lat="42.41366" lon="-7.5606417"><ele>507.0</ele><time>2026-04-14T13:02:03.885Z</time></trkpt><trkpt lat="42.413735" lon="-7.5605533"><ele>507.00000000000006</ele><time>2026-04-14T13:02:04.886Z</time></trkpt><trkpt lat="42.4138317" lon="-7.5604717"><ele>507.00000000000006</ele><time>2026-04-14T13:02:05.885Z</time></trkpt><trkpt lat="42.4139267" lon="-7.5603833"><ele>507.0</ele><time>2026-04-14T13:02:06.885Z</time></trkpt><trkpt lat="42.41402" lon="-7.5602967"><ele>507.0</ele><time>2026-04-14T13:02:07.885Z</time></trkpt><trkpt lat="42.4141183" lon="-7.5602133"><ele>506.0</ele><time>2026-04-14T13:02:08.886Z</time></trkpt><trkpt lat="42.4142183" lon="-7.56014"><ele>505.00000000000006</ele><time>2026-04-14T13:02:09.885Z</time></trkpt><trkpt lat="42.4143083" lon="-7.5600583"><ele>504.00000000000006</ele><time>2026-04-14T13:02:10.886Z</time></trkpt><trkpt lat="42.4144017" lon="-7.5599783"><ele>503.0</ele><time>2026-04-14T13:02:11.885Z</time></trkpt><trkpt lat="42.4144917" lon="-7.5599033"><ele>502.0</ele><time>2026-04-14T13:02:12.885Z</time></trkpt><trkpt lat="42.414585" lon="-7.5598217"><ele>501.40000000000003</ele><time>2026-04-14T13:02:13.886Z</time></trkpt><trkpt lat="42.414675" lon="-7.559745"><ele>500.80000000000007</ele><time>2026-04-14T13:02:14.886Z</time></trkpt><trkpt lat="42.4147633" lon="-7.559675"><ele>500.2</ele><time>2026-04-14T13:02:15.885Z</time></trkpt><trkpt lat="42.4148417" lon="-7.5596133"><ele>499.6</ele><time>2026-04-14T13:02:16.885Z</time></trkpt><trkpt lat="42.414905" lon="-7.5595517"><ele>499.0</ele><time>2026-04-14T13:02:17.886Z</time></trkpt><trkpt lat="42.4149233" lon="-7.5593983"><ele>499.0</ele><time>2026-04-14T13:02:19.885Z</time></trkpt><trkpt lat="42.4148817" lon="-7.5593083"><ele>499.0</ele><time>2026-04-14T13:02:20.885Z</time></trkpt><trkpt lat="42.4148033" lon="-7.5592117"><ele>499.0</ele><time>2026-04-14T13:02:21.885Z</time></trkpt><trkpt lat="42.4147133" lon="-7.55909"><ele>499.0</ele><time>2026-04-14T13:02:22.885Z</time></trkpt><trkpt lat="42.4146183" lon="-7.558965"><ele>499.0</ele><time>2026-04-14T13:02:23.886Z</time></trkpt><trkpt lat="42.4145333" lon="-7.5588367"><ele>500.5</ele><time>2026-04-14T13:02:24.886Z</time></trkpt><trkpt lat="42.4144567" lon="-7.558715"><ele>502.0</ele><time>2026-04-14T13:02:25.886Z</time></trkpt><trkpt lat="42.4143783" lon="-7.5585983"><ele>503.5</ele><time>2026-04-14T13:02:26.886Z</time></trkpt><trkpt lat="42.4143133" lon="-7.558485"><ele>505.0</ele><time>2026-04-14T13:02:27.886Z</time></trkpt><trkpt lat="42.4142433" lon="-7.5583667"><ele>505.25</ele><time>2026-04-14T13:02:28.885Z</time></trkpt><trkpt lat="42.41417" lon="-7.5582467"><ele>505.5</ele><time>2026-04-14T13:02:29.885Z</time></trkpt><trkpt lat="42.414095" lon="-7.5581267"><ele>505.75</ele><time>2026-04-14T13:02:30.885Z</time></trkpt><trkpt lat="42.41402" lon="-7.5580033"><ele>506.0</ele><time>2026-04-14T13:02:31.886Z</time></trkpt><trkpt lat="42.4139433" lon="-7.557875"><ele>507.0</ele><time>2026-04-14T13:02:32.885Z</time></trkpt><trkpt lat="42.4138633" lon="-7.5577467"><ele>508.0</ele><time>2026-04-14T13:02:33.885Z</time></trkpt><trkpt lat="42.41379" lon="-7.5576217"><ele>509.0</ele><time>2026-04-14T13:02:34.885Z</time></trkpt><trkpt lat="42.4137133" lon="-7.5574967"><ele>510.0</ele><time>2026-04-14T13:02:35.885Z</time></trkpt><trkpt lat="42.41364" lon="-7.5573717"><ele>510.0</ele><time>2026-04-14T13:02:36.886Z</time></trkpt><trkpt lat="42.4135683" lon="-7.5572483"><ele>510.0</ele><time>2026-04-14T13:02:37.886Z</time></trkpt><trkpt lat="42.4134983" lon="-7.5571317"><ele>510.0</ele><time>2026-04-14T13:02:38.885Z</time></trkpt><trkpt lat="42.4134267" lon="-7.5570133"><ele>510.0</ele><time>2026-04-14T13:02:39.885Z</time></trkpt><trkpt lat="42.4133583" lon="-7.556895"><ele>510.0</ele><time>2026-04-14T13:02:40.886Z</time></trkpt><trkpt lat="42.413285" lon="-7.5567783"><ele>510.0</ele><time>2026-04-14T13:02:41.885Z</time></trkpt><trkpt lat="42.41321" lon="-7.5566567"><ele>510.0</ele><time>2026-04-14T13:02:42.885Z</time></trkpt><trkpt lat="42.4131333" lon="-7.5565367"><ele>510.0</ele><time>2026-04-14T13:02:43.886Z</time></trkpt><trkpt lat="42.41306" lon="-7.5564167"><ele>510.0</ele><time>2026-04-14T13:02:44.886Z</time></trkpt><trkpt lat="42.4129867" lon="-7.5562967"><ele>510.0</ele><time>2026-04-14T13:02:45.885Z</time></trkpt><trkpt lat="42.4129083" lon="-7.556175"><ele>510.0</ele><time>2026-04-14T13:02:46.885Z</time></trkpt><trkpt lat="42.4128267" lon="-7.5560583"><ele>510.0</ele><time>2026-04-14T13:02:47.885Z</time></trkpt><trkpt lat="42.4127467" lon="-7.5559417"><ele>510.0</ele><time>2026-04-14T13:02:48.886Z</time></trkpt><trkpt lat="42.4126667" lon="-7.5558333"><ele>510.0</ele><time>2026-04-14T13:02:49.885Z</time></trkpt><trkpt lat="42.4125867" lon="-7.5557283"><ele>510.0</ele><time>2026-04-14T13:02:50.886Z</time></trkpt><trkpt lat="42.4125067" lon="-7.5556267"><ele>510.0</ele><time>2026-04-14T13:02:51.886Z</time></trkpt><trkpt lat="42.4124233" lon="-7.5555267"><ele>510.0</ele><time>2026-04-14T13:02:52.886Z</time></trkpt><trkpt lat="42.4123383" lon="-7.555425"><ele>510.25</ele><time>2026-04-14T13:02:53.885Z</time></trkpt><trkpt lat="42.4122583" lon="-7.5553117"><ele>510.5</ele><time>2026-04-14T13:02:54.885Z</time></trkpt><trkpt lat="42.41218" lon="-7.5552067"><ele>510.75</ele><time>2026-04-14T13:02:55.886Z</time></trkpt><trkpt lat="42.4120983" lon="-7.5551067"><ele>511.0</ele><time>2026-04-14T13:02:56.886Z</time></trkpt><trkpt lat="42.41201" lon="-7.5550067"><ele>509.0</ele><time>2026-04-14T13:02:57.885Z</time></trkpt><trkpt lat="42.4119233" lon="-7.5549033"><ele>507.0</ele><time>2026-04-14T13:02:58.885Z</time></trkpt><trkpt lat="42.4118367" lon="-7.554805"><ele>505.0</ele><time>2026-04-14T13:02:59.886Z</time></trkpt><trkpt lat="42.4117517" lon="-7.5547083"><ele>503.0</ele><time>2026-04-14T13:03:00.885Z</time></trkpt><trkpt lat="42.4116683" lon="-7.5546033"><ele>503.4</ele><time>2026-04-14T13:03:01.885Z</time></trkpt><trkpt lat="42.4115833" lon="-7.5545033"><ele>503.79999999999995</ele><time>2026-04-14T13:03:02.885Z</time></trkpt><trkpt lat="42.4115017" lon="-7.5544033"><ele>504.2</ele><time>2026-04-14T13:03:03.886Z</time></trkpt><trkpt lat="42.4114233" lon="-7.55431"><ele>504.6</ele><time>2026-04-14T13:03:04.886Z</time></trkpt><trkpt lat="42.41134" lon="-7.5542167"><ele>505.0</ele><time>2026-04-14T13:03:05.886Z</time></trkpt><trkpt lat="42.41126" lon="-7.554125"><ele>505.0</ele><time>2026-04-14T13:03:06.885Z</time></trkpt><trkpt lat="42.4111783" lon="-7.554025"><ele>505.0</ele><time>2026-04-14T13:03:07.885Z</time></trkpt><trkpt lat="42.4110933" lon="-7.55392"><ele>505.0</ele><time>2026-04-14T13:03:08.885Z</time></trkpt><trkpt lat="42.4110117" lon="-7.5538083"><ele>505.0</ele><time>2026-04-14T13:03:09.885Z</time></trkpt><trkpt lat="42.4109317" lon="-7.55369"><ele>505.2</ele><time>2026-04-14T13:03:10.886Z</time></trkpt><trkpt lat="42.4108583" lon="-7.5535667"><ele>505.4</ele><time>2026-04-14T13:03:11.885Z</time></trkpt><trkpt lat="42.41079" lon="-7.5534483"><ele>505.6</ele><time>2026-04-14T13:03:12.885Z</time></trkpt><trkpt lat="42.4107267" lon="-7.5533333"><ele>505.8</ele><time>2026-04-14T13:03:13.886Z</time></trkpt><trkpt lat="42.41067" lon="-7.5532083"><ele>506.0</ele><time>2026-04-14T13:03:14.885Z</time></trkpt><trkpt lat="42.4106233" lon="-7.5530867"><ele>506.0</ele><time>2026-04-14T13:03:15.885Z</time></trkpt><trkpt lat="42.4105733" lon="-7.5529633"><ele>506.0</ele><time>2026-04-14T13:03:16.885Z</time></trkpt><trkpt lat="42.4105233" lon="-7.5528317"><ele>506.0</ele><time>2026-04-14T13:03:17.886Z</time></trkpt><trkpt lat="42.4104683" lon="-7.55269"><ele>506.0</ele><time>2026-04-14T13:03:18.886Z</time></trkpt><trkpt lat="42.4104167" lon="-7.55255"><ele>506.0</ele><time>2026-04-14T13:03:19.886Z</time></trkpt><trkpt lat="42.4103683" lon="-7.552415"><ele>507.0</ele><time>2026-04-14T13:03:20.886Z</time></trkpt><trkpt lat="42.4103217" lon="-7.55228"><ele>508.0</ele><time>2026-04-14T13:03:21.885Z</time></trkpt><trkpt lat="42.4102733" lon="-7.5521467"><ele>509.0</ele><time>2026-04-14T13:03:22.885Z</time></trkpt><trkpt lat="42.410225" lon="-7.5520217"><ele>510.0</ele><time>2026-04-14T13:03:23.886Z</time></trkpt><trkpt lat="42.4101733" lon="-7.5518917"><ele>511.0</ele><time>2026-04-14T13:03:24.885Z</time></trkpt><trkpt lat="42.41011" lon="-7.551765"><ele>511.0</ele><time>2026-04-14T13:03:25.885Z</time></trkpt><trkpt lat="42.4100467" lon="-7.5516417"><ele>511.0</ele><time>2026-04-14T13:03:26.886Z</time></trkpt><trkpt lat="42.4099783" lon="-7.5515217"><ele>511.0</ele><time>2026-04-14T13:03:27.886Z</time></trkpt><trkpt lat="42.4099067" lon="-7.5513967"><ele>511.0</ele><time>2026-04-14T13:03:28.886Z</time></trkpt><trkpt lat="42.4098283" lon="-7.551285"><ele>511.4</ele><time>2026-04-14T13:03:29.885Z</time></trkpt><trkpt lat="42.4097533" lon="-7.5511783"><ele>511.8</ele><time>2026-04-14T13:03:30.885Z</time></trkpt><trkpt lat="42.4096767" lon="-7.5510683"><ele>512.1999999999999</ele><time>2026-04-14T13:03:31.885Z</time></trkpt><trkpt lat="42.4095983" lon="-7.5509567"><ele>512.6</ele><time>2026-04-14T13:03:32.885Z</time></trkpt><trkpt lat="42.4095233" lon="-7.5508467"><ele>513.0</ele><time>2026-04-14T13:03:33.885Z</time></trkpt><trkpt lat="42.40945" lon="-7.55074"><ele>514.0</ele><time>2026-04-14T13:03:34.886Z</time></trkpt><trkpt lat="42.4093717" lon="-7.5506267"><ele>515.0</ele><time>2026-04-14T13:03:35.886Z</time></trkpt><trkpt lat="42.4093017" lon="-7.5504967"><ele>516.0</ele><time>2026-04-14T13:03:36.885Z</time></trkpt><trkpt lat="42.4092383" lon="-7.5503667"><ele>517.0</ele><time>2026-04-14T13:03:37.886Z</time></trkpt><trkpt lat="42.409175" lon="-7.5502367"><ele>517.25</ele><time>2026-04-14T13:03:38.886Z</time></trkpt><trkpt lat="42.409125" lon="-7.5501033"><ele>517.5</ele><time>2026-04-14T13:03:39.886Z</time></trkpt><trkpt lat="42.4090683" lon="-7.5499617"><ele>517.75</ele><time>2026-04-14T13:03:40.885Z</time></trkpt><trkpt lat="42.4090167" lon="-7.5498283"><ele>518.0</ele><time>2026-04-14T13:03:41.886Z</time></trkpt><trkpt lat="42.4089667" lon="-7.5496867"><ele>518.0</ele><time>2026-04-14T13:03:42.885Z</time></trkpt><trkpt lat="42.4089333" lon="-7.549545"><ele>518.0</ele><time>2026-04-14T13:03:43.885Z</time></trkpt><trkpt lat="42.4088983" lon="-7.5493967"><ele>518.0</ele><time>2026-04-14T13:03:44.885Z</time></trkpt><trkpt lat="42.408875" lon="-7.5492483"><ele>518.0</ele><time>2026-04-14T13:03:45.885Z</time></trkpt><trkpt lat="42.408845" lon="-7.5491067"><ele>518.0</ele><time>2026-04-14T13:03:46.886Z</time></trkpt><trkpt lat="42.4088167" lon="-7.54897"><ele>518.6</ele><time>2026-04-14T13:03:47.886Z</time></trkpt><trkpt lat="42.4087867" lon="-7.54883"><ele>519.1999999999999</ele><time>2026-04-14T13:03:48.885Z</time></trkpt><trkpt lat="42.4087567" lon="-7.548685"><ele>519.8</ele><time>2026-04-14T13:03:49.885Z</time></trkpt><trkpt lat="42.4087217" lon="-7.5485367"><ele>520.4</ele><time>2026-04-14T13:03:50.886Z</time></trkpt><trkpt lat="42.4087" lon="-7.5483917"><ele>521.0</ele><time>2026-04-14T13:03:51.886Z</time></trkpt><trkpt lat="42.40867" lon="-7.54824"><ele>521.0</ele><time>2026-04-14T13:03:52.885Z</time></trkpt><trkpt lat="42.4086483" lon="-7.5480817"><ele>521.0</ele><time>2026-04-14T13:03:53.886Z</time></trkpt><trkpt lat="42.4086233" lon="-7.547935"><ele>521.0</ele><time>2026-04-14T13:03:54.885Z</time></trkpt><trkpt lat="42.408595" lon="-7.5477867"><ele>521.0</ele><time>2026-04-14T13:03:55.886Z</time></trkpt><trkpt lat="42.4085683" lon="-7.5476383"><ele>521.0</ele><time>2026-04-14T13:03:56.886Z</time></trkpt><trkpt lat="42.408535" lon="-7.547495"><ele>521.0</ele><time>2026-04-14T13:03:57.885Z</time></trkpt><trkpt lat="42.4085017" lon="-7.5473567"><ele>521.0</ele><time>2026-04-14T13:03:58.886Z</time></trkpt><trkpt lat="42.4084717" lon="-7.54721"><ele>521.0</ele><time>2026-04-14T13:03:59.886Z</time></trkpt><trkpt lat="42.4084433" lon="-7.5470617"><ele>521.0</ele><time>2026-04-14T13:04:00.885Z</time></trkpt><trkpt lat="42.4084183" lon="-7.5469117"><ele>521.5</ele><time>2026-04-14T13:04:01.885Z</time></trkpt><trkpt lat="42.408395" lon="-7.5467683"><ele>522.0</ele><time>2026-04-14T13:04:02.885Z</time></trkpt><trkpt lat="42.4083683" lon="-7.5466167"><ele>522.5</ele><time>2026-04-14T13:04:03.886Z</time></trkpt><trkpt lat="42.4083383" lon="-7.5464617"><ele>523.0</ele><time>2026-04-14T13:04:04.886Z</time></trkpt><trkpt lat="42.4083067" lon="-7.5463067"><ele>523.5</ele><time>2026-04-14T13:04:05.885Z</time></trkpt><trkpt lat="42.40828" lon="-7.5461533"><ele>524.0</ele><time>2026-04-14T13:04:06.886Z</time></trkpt><trkpt lat="42.4082583" lon="-7.5459933"><ele>524.5</ele><time>2026-04-14T13:04:07.885Z</time></trkpt><trkpt lat="42.4082283" lon="-7.545845"><ele>525.0</ele><time>2026-04-14T13:04:08.886Z</time></trkpt><trkpt lat="42.4082" lon="-7.5456933"><ele>525.0</ele><time>2026-04-14T13:04:09.885Z</time></trkpt><trkpt lat="42.4081683" lon="-7.5455433"><ele>525.0</ele><time>2026-04-14T13:04:10.886Z</time></trkpt><trkpt lat="42.4081367" lon="-7.545405"><ele>525.0</ele><time>2026-04-14T13:04:11.886Z</time></trkpt><trkpt lat="42.4081117" lon="-7.5452567"><ele>525.0</ele><time>2026-04-14T13:04:12.886Z</time></trkpt><trkpt lat="42.40809" lon="-7.5451083"><ele>525.0</ele><time>2026-04-14T13:04:13.886Z</time></trkpt><trkpt lat="42.4080633" lon="-7.5449633"><ele>525.4</ele><time>2026-04-14T13:04:14.885Z</time></trkpt><trkpt lat="42.4080333" lon="-7.5448217"><ele>525.8</ele><time>2026-04-14T13:04:15.885Z</time></trkpt><trkpt lat="42.408" lon="-7.5446767"><ele>526.2</ele><time>2026-04-14T13:04:16.886Z</time></trkpt><trkpt lat="42.4079733" lon="-7.5445333"><ele>526.6</ele><time>2026-04-14T13:04:17.885Z</time></trkpt><trkpt lat="42.4079483" lon="-7.544385"><ele>527.0</ele><time>2026-04-14T13:04:18.885Z</time></trkpt><trkpt lat="42.4079233" lon="-7.544235"><ele>527.5</ele><time>2026-04-14T13:04:19.885Z</time></trkpt><trkpt lat="42.4078967" lon="-7.544085"><ele>528.0</ele><time>2026-04-14T13:04:20.886Z</time></trkpt><trkpt lat="42.407865" lon="-7.543935"><ele>528.5</ele><time>2026-04-14T13:04:21.885Z</time></trkpt><trkpt lat="42.40784" lon="-7.5437867"><ele>529.0</ele><time>2026-04-14T13:04:22.886Z</time></trkpt><trkpt lat="42.4078117" lon="-7.5436433"><ele>529.2</ele><time>2026-04-14T13:04:23.885Z</time></trkpt><trkpt lat="42.4077783" lon="-7.5435"><ele>529.4</ele><time>2026-04-14T13:04:24.886Z</time></trkpt><trkpt lat="42.40774" lon="-7.5433617"><ele>529.6</ele><time>2026-04-14T13:04:25.885Z</time></trkpt><trkpt lat="42.4077083" lon="-7.5432367"><ele>529.8</ele><time>2026-04-14T13:04:26.885Z</time></trkpt><trkpt lat="42.4076967" lon="-7.5430967"><ele>530.0</ele><time>2026-04-14T13:04:27.885Z</time></trkpt><trkpt lat="42.4077033" lon="-7.54295"><ele>529.75</ele><time>2026-04-14T13:04:28.885Z</time></trkpt><trkpt lat="42.407735" lon="-7.5428083"><ele>529.5</ele><time>2026-04-14T13:04:29.885Z</time></trkpt><trkpt lat="42.407765" lon="-7.54266"><ele>529.25</ele><time>2026-04-14T13:04:30.886Z</time></trkpt><trkpt lat="42.4077833" lon="-7.54251"><ele>529.0</ele><time>2026-04-14T13:04:31.886Z</time></trkpt><trkpt lat="42.4078033" lon="-7.5423517"><ele>529.0</ele><time>2026-04-14T13:04:32.885Z</time></trkpt><trkpt lat="42.407815" lon="-7.54219"><ele>529.0</ele><time>2026-04-14T13:04:33.886Z</time></trkpt><trkpt lat="42.4078317" lon="-7.5420233"><ele>529.0</ele><time>2026-04-14T13:04:34.886Z</time></trkpt><trkpt lat="42.4078483" lon="-7.5418667"><ele>529.0</ele><time>2026-04-14T13:04:35.885Z</time></trkpt><trkpt lat="42.40786" lon="-7.5416967"><ele>529.0</ele><time>2026-04-14T13:04:36.885Z</time></trkpt><trkpt lat="42.4078783" lon="-7.5415267"><ele>529.0</ele><time>2026-04-14T13:04:37.886Z</time></trkpt><trkpt lat="42.4078933" lon="-7.5413617"><ele>529.0</ele><time>2026-04-14T13:04:38.886Z</time></trkpt><trkpt lat="42.4079167" lon="-7.5412083"><ele>529.0</ele><time>2026-04-14T13:04:39.885Z</time></trkpt><trkpt lat="42.4079333" lon="-7.5410483"><ele>529.0</ele><time>2026-04-14T13:04:40.885Z</time></trkpt><trkpt lat="42.4079417" lon="-7.540895"><ele>529.0</ele><time>2026-04-14T13:04:41.885Z</time></trkpt><trkpt lat="42.407935" lon="-7.5407417"><ele>529.0</ele><time>2026-04-14T13:04:42.886Z</time></trkpt><trkpt lat="42.4079233" lon="-7.5405883"><ele>529.0</ele><time>2026-04-14T13:04:43.886Z</time></trkpt><trkpt lat="42.4079117" lon="-7.540435"><ele>528.25</ele><time>2026-04-14T13:04:44.886Z</time></trkpt><trkpt lat="42.4079" lon="-7.5402833"><ele>527.5</ele><time>2026-04-14T13:04:45.886Z</time></trkpt><trkpt lat="42.4078783" lon="-7.54013"><ele>526.75</ele><time>2026-04-14T13:04:46.886Z</time></trkpt><trkpt lat="42.4078633" lon="-7.539965"><ele>526.0</ele><time>2026-04-14T13:04:47.885Z</time></trkpt><trkpt lat="42.4078467" lon="-7.539805"><ele>526.0</ele><time>2026-04-14T13:04:48.885Z</time></trkpt><trkpt lat="42.4078267" lon="-7.5396533"><ele>526.0</ele><time>2026-04-14T13:04:49.885Z</time></trkpt><trkpt lat="42.4078033" lon="-7.5394967"><ele>526.0</ele><time>2026-04-14T13:04:50.885Z</time></trkpt><trkpt lat="42.4077733" lon="-7.53934"><ele>526.0</ele><time>2026-04-14T13:04:51.886Z</time></trkpt><trkpt lat="42.407745" lon="-7.53918"><ele>526.5</ele><time>2026-04-14T13:04:52.885Z</time></trkpt><trkpt lat="42.407705" lon="-7.539025"><ele>527.0</ele><time>2026-04-14T13:04:53.885Z</time></trkpt><trkpt lat="42.4076567" lon="-7.5388817"><ele>527.5</ele><time>2026-04-14T13:04:54.886Z</time></trkpt><trkpt lat="42.4076067" lon="-7.5387333"><ele>528.0</ele><time>2026-04-14T13:04:55.886Z</time></trkpt><trkpt lat="42.4075633" lon="-7.5385883"><ele>528.5</ele><time>2026-04-14T13:04:56.885Z</time></trkpt><trkpt lat="42.407515" lon="-7.5384417"><ele>529.0</ele><time>2026-04-14T13:04:57.886Z</time></trkpt><trkpt lat="42.4074717" lon="-7.53829"><ele>529.5</ele><time>2026-04-14T13:04:58.886Z</time></trkpt><trkpt lat="42.40743" lon="-7.5381383"><ele>530.0</ele><time>2026-04-14T13:04:59.885Z</time></trkpt><trkpt lat="42.4073883" lon="-7.5379833"><ele>530.25</ele><time>2026-04-14T13:05:00.886Z</time></trkpt><trkpt lat="42.4073417" lon="-7.53784"><ele>530.5</ele><time>2026-04-14T13:05:01.885Z</time></trkpt><trkpt lat="42.407295" lon="-7.5377017"><ele>530.75</ele><time>2026-04-14T13:05:02.886Z</time></trkpt><trkpt lat="42.4072483" lon="-7.5375633"><ele>531.0</ele><time>2026-04-14T13:05:03.886Z</time></trkpt><trkpt lat="42.4072017" lon="-7.5374183"><ele>531.0</ele><time>2026-04-14T13:05:04.886Z</time></trkpt><trkpt lat="42.4071633" lon="-7.5372817"><ele>531.0</ele><time>2026-04-14T13:05:05.885Z</time></trkpt><trkpt lat="42.4071217" lon="-7.5371383"><ele>531.0</ele><time>2026-04-14T13:05:06.885Z</time></trkpt><trkpt lat="42.4070833" lon="-7.5370033"><ele>531.0</ele><time>2026-04-14T13:05:07.885Z</time></trkpt><trkpt lat="42.4070533" lon="-7.53686"><ele>531.0</ele><time>2026-04-14T13:05:08.885Z</time></trkpt><trkpt lat="42.4070367" lon="-7.5367133"><ele>532.8</ele><time>2026-04-14T13:05:09.886Z</time></trkpt><trkpt lat="42.4070267" lon="-7.53657"><ele>534.6</ele><time>2026-04-14T13:05:10.886Z</time></trkpt><trkpt lat="42.40704" lon="-7.5364233"><ele>536.4</ele><time>2026-04-14T13:05:11.885Z</time></trkpt><trkpt lat="42.4070483" lon="-7.5362683"><ele>538.2</ele><time>2026-04-14T13:05:12.885Z</time></trkpt><trkpt lat="42.40706" lon="-7.53611"><ele>540.0</ele><time>2026-04-14T13:05:13.885Z</time></trkpt><trkpt lat="42.4070717" lon="-7.53595"><ele>540.0</ele><time>2026-04-14T13:05:14.885Z</time></trkpt><trkpt lat="42.4070733" lon="-7.5358117"><ele>540.0</ele><time>2026-04-14T13:05:15.885Z</time></trkpt><trkpt lat="42.4070783" lon="-7.5356683"><ele>540.0</ele><time>2026-04-14T13:05:16.886Z</time></trkpt><trkpt lat="42.4070883" lon="-7.535515"><ele>540.0</ele><time>2026-04-14T13:05:17.886Z</time></trkpt><trkpt lat="42.40712" lon="-7.53537"><ele>540.0</ele><time>2026-04-14T13:05:18.886Z</time></trkpt><trkpt lat="42.4071567" lon="-7.535225"><ele>537.25</ele><time>2026-04-14T13:05:19.885Z</time></trkpt><trkpt lat="42.4071967" lon="-7.53508"><ele>534.5</ele><time>2026-04-14T13:05:20.886Z</time></trkpt><trkpt lat="42.4072383" lon="-7.53493"><ele>531.75</ele><time>2026-04-14T13:05:21.886Z</time></trkpt><trkpt lat="42.407275" lon="-7.534785"><ele>529.0</ele><time>2026-04-14T13:05:22.885Z</time></trkpt><trkpt lat="42.4073133" lon="-7.5346533"><ele>529.2</ele><time>2026-04-14T13:05:23.885Z</time></trkpt><trkpt lat="42.4073567" lon="-7.53452"><ele>529.4</ele><time>2026-04-14T13:05:24.886Z</time></trkpt><trkpt lat="42.4073967" lon="-7.53438"><ele>529.6</ele><time>2026-04-14T13:05:25.886Z</time></trkpt><trkpt lat="42.4074283" lon="-7.5342317"><ele>529.8</ele><time>2026-04-14T13:05:26.885Z</time></trkpt><trkpt lat="42.40745" lon="-7.534085"><ele>530.0</ele><time>2026-04-14T13:05:27.886Z</time></trkpt><trkpt lat="42.4074617" lon="-7.5339333"><ele>530.0</ele><time>2026-04-14T13:05:28.886Z</time></trkpt><trkpt lat="42.4074683" lon="-7.5337883"><ele>530.0</ele><time>2026-04-14T13:05:29.885Z</time></trkpt><trkpt lat="42.407475" lon="-7.5336417"><ele>530.0</ele><time>2026-04-14T13:05:30.885Z</time></trkpt><trkpt lat="42.4074817" lon="-7.5334917"><ele>530.0</ele><time>2026-04-14T13:05:31.885Z</time></trkpt><trkpt lat="42.40749" lon="-7.53334"><ele>530.0</ele><time>2026-04-14T13:05:32.886Z</time></trkpt><trkpt lat="42.4074933" lon="-7.5331883"><ele>530.2</ele><time>2026-04-14T13:05:33.885Z</time></trkpt><trkpt lat="42.407495" lon="-7.5330383"><ele>530.4</ele><time>2026-04-14T13:05:34.886Z</time></trkpt><trkpt lat="42.4074983" lon="-7.5328883"><ele>530.6</ele><time>2026-04-14T13:05:35.885Z</time></trkpt><trkpt lat="42.4075" lon="-7.53274"><ele>530.8</ele><time>2026-04-14T13:05:36.886Z</time></trkpt><trkpt lat="42.4074967" lon="-7.5325917"><ele>531.0</ele><time>2026-04-14T13:05:37.885Z</time></trkpt><trkpt lat="42.4074933" lon="-7.5324483"><ele>531.0</ele><time>2026-04-14T13:05:38.886Z</time></trkpt><trkpt lat="42.407495" lon="-7.5323067"><ele>531.0</ele><time>2026-04-14T13:05:39.886Z</time></trkpt><trkpt lat="42.4074883" lon="-7.5321617"><ele>531.0</ele><time>2026-04-14T13:05:40.885Z</time></trkpt><trkpt lat="42.4074733" lon="-7.5320133"><ele>531.0</ele><time>2026-04-14T13:05:41.885Z</time></trkpt><trkpt lat="42.4074583" lon="-7.531865"><ele>531.0</ele><time>2026-04-14T13:05:42.886Z</time></trkpt><trkpt lat="42.4074433" lon="-7.5317267"><ele>531.2</ele><time>2026-04-14T13:05:43.886Z</time></trkpt><trkpt lat="42.4074267" lon="-7.5315833"><ele>531.4000000000001</ele><time>2026-04-14T13:05:44.886Z</time></trkpt><trkpt lat="42.407405" lon="-7.5314467"><ele>531.6</ele><time>2026-04-14T13:05:45.885Z</time></trkpt><trkpt lat="42.4074" lon="-7.5313033"><ele>531.8000000000001</ele><time>2026-04-14T13:05:46.885Z</time></trkpt><trkpt lat="42.407405" lon="-7.5311533"><ele>532.0</ele><time>2026-04-14T13:05:47.886Z</time></trkpt><trkpt lat="42.407415" lon="-7.5310017"><ele>532.25</ele><time>2026-04-14T13:05:48.886Z</time></trkpt><trkpt lat="42.4074217" lon="-7.53085"><ele>532.5</ele><time>2026-04-14T13:05:49.885Z</time></trkpt><trkpt lat="42.4074167" lon="-7.5307"><ele>532.75</ele><time>2026-04-14T13:05:50.886Z</time></trkpt><trkpt lat="42.407395" lon="-7.5305433"><ele>533.0</ele><time>2026-04-14T13:05:51.886Z</time></trkpt><trkpt lat="42.4073733" lon="-7.5303967"><ele>532.6</ele><time>2026-04-14T13:05:52.885Z</time></trkpt><trkpt lat="42.4073567" lon="-7.530245"><ele>532.1999999999999</ele><time>2026-04-14T13:05:53.885Z</time></trkpt><trkpt lat="42.4073433" lon="-7.5300933"><ele>531.8</ele><time>2026-04-14T13:05:54.886Z</time></trkpt><trkpt lat="42.4073433" lon="-7.5299433"><ele>531.4</ele><time>2026-04-14T13:05:55.885Z</time></trkpt><trkpt lat="42.407335" lon="-7.5297917"><ele>531.0</ele><time>2026-04-14T13:05:56.885Z</time></trkpt><trkpt lat="42.4073217" lon="-7.52965"><ele>530.5</ele><time>2026-04-14T13:05:57.885Z</time></trkpt><trkpt lat="42.4073067" lon="-7.5295"><ele>530.0</ele><time>2026-04-14T13:05:58.885Z</time></trkpt><trkpt lat="42.4072883" lon="-7.5293483"><ele>529.5</ele><time>2026-04-14T13:05:59.886Z</time></trkpt><trkpt lat="42.4072817" lon="-7.5291933"><ele>529.0</ele><time>2026-04-14T13:06:00.885Z</time></trkpt><trkpt lat="42.407275" lon="-7.529045"><ele>529.0</ele><time>2026-04-14T13:06:01.886Z</time></trkpt><trkpt lat="42.4072617" lon="-7.5288933"><ele>529.0</ele><time>2026-04-14T13:06:02.885Z</time></trkpt><trkpt lat="42.4072583" lon="-7.52874"><ele>529.0</ele><time>2026-04-14T13:06:03.886Z</time></trkpt><trkpt lat="42.4072683" lon="-7.5285883"><ele>529.0</ele><time>2026-04-14T13:06:04.886Z</time></trkpt><trkpt lat="42.4072783" lon="-7.5284317"><ele>528.25</ele><time>2026-04-14T13:06:05.885Z</time></trkpt><trkpt lat="42.4072833" lon="-7.5282717"><ele>527.5</ele><time>2026-04-14T13:06:06.885Z</time></trkpt><trkpt lat="42.4073017" lon="-7.5281083"><ele>526.75</ele><time>2026-04-14T13:06:07.885Z</time></trkpt><trkpt lat="42.407315" lon="-7.5279417"><ele>526.0</ele><time>2026-04-14T13:06:08.886Z</time></trkpt><trkpt lat="42.40732" lon="-7.5277683"><ele>525.8</ele><time>2026-04-14T13:06:09.885Z</time></trkpt><trkpt lat="42.4073233" lon="-7.5276117"><ele>525.6</ele><time>2026-04-14T13:06:10.886Z</time></trkpt><trkpt lat="42.4073317" lon="-7.5274567"><ele>525.4</ele><time>2026-04-14T13:06:11.885Z</time></trkpt><trkpt lat="42.4073367" lon="-7.5273067"><ele>525.2</ele><time>2026-04-14T13:06:12.886Z</time></trkpt><trkpt lat="42.40734" lon="-7.5271617"><ele>525.0</ele><time>2026-04-14T13:06:13.886Z</time></trkpt><trkpt lat="42.4073467" lon="-7.5270233"><ele>525.6</ele><time>2026-04-14T13:06:14.886Z</time></trkpt><trkpt lat="42.4073533" lon="-7.52688"><ele>526.2</ele><time>2026-04-14T13:06:15.885Z</time></trkpt><trkpt lat="42.4073633" lon="-7.5267333"><ele>526.8</ele><time>2026-04-14T13:06:16.885Z</time></trkpt><trkpt lat="42.40737" lon="-7.5265917"><ele>527.4</ele><time>2026-04-14T13:06:17.885Z</time></trkpt><trkpt lat="42.4073817" lon="-7.5264517"><ele>528.0</ele><time>2026-04-14T13:06:18.886Z</time></trkpt><trkpt lat="42.4073983" lon="-7.526315"><ele>529.1999999999999</ele><time>2026-04-14T13:06:19.885Z</time></trkpt><trkpt lat="42.407415" lon="-7.5261717"><ele>530.4</ele><time>2026-04-14T13:06:20.886Z</time></trkpt><trkpt lat="42.40743" lon="-7.5260283"><ele>531.5999999999999</ele><time>2026-04-14T13:06:21.886Z</time></trkpt><trkpt lat="42.4074367" lon="-7.5258883"><ele>532.8</ele><time>2026-04-14T13:06:22.886Z</time></trkpt><trkpt lat="42.4074283" lon="-7.5257583"><ele>534.0</ele><time>2026-04-14T13:06:23.886Z</time></trkpt><trkpt lat="42.40741" lon="-7.5256283"><ele>534.0</ele><time>2026-04-14T13:06:24.886Z</time></trkpt><trkpt lat="42.4073783" lon="-7.52549"><ele>534.0</ele><time>2026-04-14T13:06:25.885Z</time></trkpt><trkpt lat="42.4073367" lon="-7.5253533"><ele>534.0</ele><time>2026-04-14T13:06:26.885Z</time></trkpt><trkpt lat="42.4072717" lon="-7.52522"><ele>534.0</ele><time>2026-04-14T13:06:27.886Z</time></trkpt><trkpt lat="42.407205" lon="-7.5250867"><ele>535.4</ele><time>2026-04-14T13:06:28.885Z</time></trkpt><trkpt lat="42.407145" lon="-7.524945"><ele>536.8</ele><time>2026-04-14T13:06:29.885Z</time></trkpt><trkpt lat="42.407085" lon="-7.52481"><ele>538.2</ele><time>2026-04-14T13:06:30.885Z</time></trkpt><trkpt lat="42.4070367" lon="-7.524685"><ele>539.6</ele><time>2026-04-14T13:06:31.885Z</time></trkpt><trkpt lat="42.40699" lon="-7.524555"><ele>541.0</ele><time>2026-04-14T13:06:32.885Z</time></trkpt><trkpt lat="42.4069433" lon="-7.5244233"><ele>541.0</ele><time>2026-04-14T13:06:33.886Z</time></trkpt><trkpt lat="42.4068867" lon="-7.5242883"><ele>541.0</ele><time>2026-04-14T13:06:34.885Z</time></trkpt><trkpt lat="42.40683" lon="-7.5241583"><ele>541.0</ele><time>2026-04-14T13:06:35.885Z</time></trkpt><trkpt lat="42.4067717" lon="-7.5240267"><ele>541.0</ele><time>2026-04-14T13:06:36.885Z</time></trkpt><trkpt lat="42.4067183" lon="-7.52389"><ele>541.0</ele><time>2026-04-14T13:06:37.885Z</time></trkpt><trkpt lat="42.406675" lon="-7.5237533"><ele>541.0</ele><time>2026-04-14T13:06:38.885Z</time></trkpt><trkpt lat="42.4066267" lon="-7.523625"><ele>541.0</ele><time>2026-04-14T13:06:39.886Z</time></trkpt><trkpt lat="42.406575" lon="-7.5235017"><ele>541.0</ele><time>2026-04-14T13:06:40.885Z</time></trkpt><trkpt lat="42.4065233" lon="-7.52337"><ele>541.0</ele><time>2026-04-14T13:06:41.885Z</time></trkpt><trkpt lat="42.4064733" lon="-7.5232367"><ele>540.25</ele><time>2026-04-14T13:06:42.885Z</time></trkpt><trkpt lat="42.4064217" lon="-7.5231017"><ele>539.5</ele><time>2026-04-14T13:06:43.885Z</time></trkpt><trkpt lat="42.4063717" lon="-7.522965"><ele>538.75</ele><time>2026-04-14T13:06:44.886Z</time></trkpt><trkpt lat="42.4063133" lon="-7.52283"><ele>538.0</ele><time>2026-04-14T13:06:45.886Z</time></trkpt><trkpt lat="42.40626" lon="-7.522695"><ele>537.8</ele><time>2026-04-14T13:06:46.885Z</time></trkpt><trkpt lat="42.4062067" lon="-7.52256"><ele>537.5999999999999</ele><time>2026-04-14T13:06:47.886Z</time></trkpt><trkpt lat="42.406155" lon="-7.5224333"><ele>537.4000000000001</ele><time>2026-04-14T13:06:48.885Z</time></trkpt><trkpt lat="42.4061017" lon="-7.5222967"><ele>537.2</ele><time>2026-04-14T13:06:49.886Z</time></trkpt><trkpt lat="42.4060567" lon="-7.5221617"><ele>537.0</ele><time>2026-04-14T13:06:50.886Z</time></trkpt><trkpt lat="42.4060033" lon="-7.5220317"><ele>536.0</ele><time>2026-04-14T13:06:51.886Z</time></trkpt><trkpt lat="42.4059567" lon="-7.5218967"><ele>535.0</ele><time>2026-04-14T13:06:52.886Z</time></trkpt><trkpt lat="42.4059083" lon="-7.5217567"><ele>534.0</ele><time>2026-04-14T13:06:53.885Z</time></trkpt><trkpt lat="42.4058583" lon="-7.5216183"><ele>533.0</ele><time>2026-04-14T13:06:54.885Z</time></trkpt><trkpt lat="42.4058133" lon="-7.5214783"><ele>533.0</ele><time>2026-04-14T13:06:55.885Z</time></trkpt><trkpt lat="42.4057783" lon="-7.5213433"><ele>533.0</ele><time>2026-04-14T13:06:56.885Z</time></trkpt><trkpt lat="42.4057483" lon="-7.5211983"><ele>533.0</ele><time>2026-04-14T13:06:57.885Z</time></trkpt><trkpt lat="42.4057167" lon="-7.52106"><ele>533.0</ele><time>2026-04-14T13:06:58.886Z</time></trkpt><trkpt lat="42.405685" lon="-7.5209167"><ele>533.0</ele><time>2026-04-14T13:06:59.885Z</time></trkpt><trkpt lat="42.4056567" lon="-7.5207817"><ele>533.1999999999999</ele><time>2026-04-14T13:07:00.885Z</time></trkpt><trkpt lat="42.4056283" lon="-7.5206383"><ele>533.4</ele><time>2026-04-14T13:07:01.885Z</time></trkpt><trkpt lat="42.4055933" lon="-7.5205067"><ele>533.5999999999999</ele><time>2026-04-14T13:07:02.886Z</time></trkpt><trkpt lat="42.4055617" lon="-7.5203683"><ele>533.8</ele><time>2026-04-14T13:07:03.885Z</time></trkpt><trkpt lat="42.4055283" lon="-7.5202333"><ele>534.0</ele><time>2026-04-14T13:07:04.886Z</time></trkpt><trkpt lat="42.4054817" lon="-7.5201017"><ele>535.0</ele><time>2026-04-14T13:07:05.885Z</time></trkpt><trkpt lat="42.4054117" lon="-7.5199733"><ele>536.0</ele><time>2026-04-14T13:07:06.885Z</time></trkpt><trkpt lat="42.4053367" lon="-7.5198483"><ele>537.0</ele><time>2026-04-14T13:07:07.886Z</time></trkpt><trkpt lat="42.40526" lon="-7.5197283"><ele>538.0</ele><time>2026-04-14T13:07:08.885Z</time></trkpt><trkpt lat="42.4051867" lon="-7.519615"><ele>536.8</ele><time>2026-04-14T13:07:09.885Z</time></trkpt><trkpt lat="42.4051133" lon="-7.5195083"><ele>535.5999999999999</ele><time>2026-04-14T13:07:10.886Z</time></trkpt><trkpt lat="42.4050333" lon="-7.5194"><ele>534.4000000000001</ele><time>2026-04-14T13:07:11.886Z</time></trkpt><trkpt lat="42.4049583" lon="-7.519295"><ele>533.2</ele><time>2026-04-14T13:07:12.886Z</time></trkpt><trkpt lat="42.4048717" lon="-7.5191983"><ele>532.0</ele><time>2026-04-14T13:07:13.885Z</time></trkpt><trkpt lat="42.4047767" lon="-7.51911"><ele>532.0</ele><time>2026-04-14T13:07:14.886Z</time></trkpt><trkpt lat="42.4046767" lon="-7.519035"><ele>532.0</ele><time>2026-04-14T13:07:15.885Z</time></trkpt><trkpt lat="42.4045717" lon="-7.518965"><ele>532.0</ele><time>2026-04-14T13:07:16.885Z</time></trkpt><trkpt lat="42.4044717" lon="-7.5189017"><ele>532.0</ele><time>2026-04-14T13:07:17.886Z</time></trkpt><trkpt lat="42.4043817" lon="-7.518825"><ele>532.0</ele><time>2026-04-14T13:07:18.885Z</time></trkpt><trkpt lat="42.4042933" lon="-7.5187283"><ele>532.0</ele><time>2026-04-14T13:07:19.885Z</time></trkpt><trkpt lat="42.4042183" lon="-7.5186167"><ele>532.0</ele><time>2026-04-14T13:07:20.886Z</time></trkpt><trkpt lat="42.404145" lon="-7.5185033"><ele>532.0</ele><time>2026-04-14T13:07:21.885Z</time></trkpt><trkpt lat="42.40408" lon="-7.5183917"><ele>532.0</ele><time>2026-04-14T13:07:22.886Z</time></trkpt><trkpt lat="42.4040167" lon="-7.5182617"><ele>532.0</ele><time>2026-04-14T13:07:23.886Z</time></trkpt><trkpt lat="42.4039833" lon="-7.518125"><ele>532.0</ele><time>2026-04-14T13:07:24.886Z</time></trkpt><trkpt lat="42.4039767" lon="-7.51798"><ele>532.0</ele><time>2026-04-14T13:07:25.886Z</time></trkpt><trkpt lat="42.404005" lon="-7.5178383"><ele>532.0</ele><time>2026-04-14T13:07:26.885Z</time></trkpt><trkpt lat="42.4040433" lon="-7.5176983"><ele>532.0</ele><time>2026-04-14T13:07:27.886Z</time></trkpt><trkpt lat="42.404075" lon="-7.517555"><ele>532.0</ele><time>2026-04-14T13:07:28.885Z</time></trkpt><trkpt lat="42.4041183" lon="-7.5174283"><ele>533.2</ele><time>2026-04-14T13:07:29.886Z</time></trkpt><trkpt lat="42.4041633" lon="-7.51729"><ele>534.4000000000001</ele><time>2026-04-14T13:07:30.885Z</time></trkpt><trkpt lat="42.4042033" lon="-7.5171533"><ele>535.5999999999999</ele><time>2026-04-14T13:07:31.887Z</time></trkpt><trkpt lat="42.4042517" lon="-7.5170217"><ele>536.8</ele><time>2026-04-14T13:07:32.886Z</time></trkpt><trkpt lat="42.4043017" lon="-7.516895"><ele>538.0</ele><time>2026-04-14T13:07:33.886Z</time></trkpt><trkpt lat="42.40436" lon="-7.5167783"><ele>540.0</ele><time>2026-04-14T13:07:34.886Z</time></trkpt><trkpt lat="42.4044183" lon="-7.51665"><ele>542.0</ele><time>2026-04-14T13:07:35.886Z</time></trkpt><trkpt lat="42.40447" lon="-7.5165167"><ele>544.0</ele><time>2026-04-14T13:07:36.886Z</time></trkpt><trkpt lat="42.4045167" lon="-7.5163783"><ele>546.0</ele><time>2026-04-14T13:07:37.887Z</time></trkpt><trkpt lat="42.404555" lon="-7.5162317"><ele>547.25</ele><time>2026-04-14T13:07:38.886Z</time></trkpt><trkpt lat="42.404585" lon="-7.51609"><ele>548.5</ele><time>2026-04-14T13:07:39.886Z</time></trkpt><trkpt lat="42.40461" lon="-7.5159367"><ele>549.75</ele><time>2026-04-14T13:07:40.886Z</time></trkpt><trkpt lat="42.4046267" lon="-7.51578"><ele>551.0</ele><time>2026-04-14T13:07:41.887Z</time></trkpt><trkpt lat="42.4046383" lon="-7.5156217"><ele>551.0</ele><time>2026-04-14T13:07:42.887Z</time></trkpt><trkpt lat="42.404645" lon="-7.515465"><ele>551.0</ele><time>2026-04-14T13:07:43.887Z</time></trkpt><trkpt lat="42.404655" lon="-7.5153183"><ele>551.0</ele><time>2026-04-14T13:07:44.887Z</time></trkpt><trkpt lat="42.404655" lon="-7.515175"><ele>551.0</ele><time>2026-04-14T13:07:45.886Z</time></trkpt><trkpt lat="42.40465" lon="-7.515035"><ele>551.0</ele><time>2026-04-14T13:07:46.886Z</time></trkpt><trkpt lat="42.4046467" lon="-7.5149133"><ele>552.0</ele><time>2026-04-14T13:07:47.887Z</time></trkpt><trkpt lat="42.404635" lon="-7.5148117"><ele>553.0</ele><time>2026-04-14T13:07:48.886Z</time></trkpt><trkpt lat="42.4046117" lon="-7.5147283"><ele>554.0</ele><time>2026-04-14T13:07:49.886Z</time></trkpt><trkpt lat="42.40454" lon="-7.5146383"><ele>555.0</ele><time>2026-04-14T13:07:51.886Z</time></trkpt><trkpt lat="42.4044467" lon="-7.5146617"><ele>556.0</ele><time>2026-04-14T13:08:06.886Z</time></trkpt><trkpt lat="42.40436" lon="-7.5146967"><ele>557.0</ele><time>2026-04-14T13:08:08.886Z</time></trkpt><trkpt lat="42.4042533" lon="-7.5147317"><ele>557.0</ele><time>2026-04-14T13:08:10.887Z</time></trkpt><trkpt lat="42.4041917" lon="-7.514765"><ele>557.0</ele><time>2026-04-14T13:08:11.886Z</time></trkpt><trkpt lat="42.4041167" lon="-7.51481"><ele>557.0</ele><time>2026-04-14T13:08:12.886Z</time></trkpt><trkpt lat="42.4040383" lon="-7.5148517"><ele>557.0</ele><time>2026-04-14T13:08:13.887Z</time></trkpt><trkpt lat="42.4039483" lon="-7.514885"><ele>557.0</ele><time>2026-04-14T13:08:14.886Z</time></trkpt><trkpt lat="42.4038617" lon="-7.51492"><ele>557.0</ele><time>2026-04-14T13:08:15.887Z</time></trkpt><trkpt lat="42.4037767" lon="-7.5149617"><ele>558.4</ele><time>2026-04-14T13:08:16.887Z</time></trkpt><trkpt lat="42.4036867" lon="-7.515"><ele>559.8000000000001</ele><time>2026-04-14T13:08:17.886Z</time></trkpt><trkpt lat="42.4035867" lon="-7.5150417"><ele>561.2</ele><time>2026-04-14T13:08:18.886Z</time></trkpt><trkpt lat="42.4034917" lon="-7.5150817"><ele>562.6</ele><time>2026-04-14T13:08:19.886Z</time></trkpt><trkpt lat="42.40339" lon="-7.5151167"><ele>564.0</ele><time>2026-04-14T13:08:20.886Z</time></trkpt><trkpt lat="42.4032833" lon="-7.5151583"><ele>564.0</ele><time>2026-04-14T13:08:21.886Z</time></trkpt><trkpt lat="42.4031683" lon="-7.5151967"><ele>564.0</ele><time>2026-04-14T13:08:22.886Z</time></trkpt><trkpt lat="42.40306" lon="-7.515235"><ele>564.0</ele><time>2026-04-14T13:08:23.886Z</time></trkpt><trkpt lat="42.40296" lon="-7.5152433"><ele>564.0</ele><time>2026-04-14T13:08:24.886Z</time></trkpt><trkpt lat="42.4028567" lon="-7.5152483"><ele>564.0</ele><time>2026-04-14T13:08:25.887Z</time></trkpt><trkpt lat="42.40275" lon="-7.515235"><ele>564.2</ele><time>2026-04-14T13:08:26.886Z</time></trkpt><trkpt lat="42.402645" lon="-7.5152117"><ele>564.4</ele><time>2026-04-14T13:08:27.887Z</time></trkpt><trkpt lat="42.4025483" lon="-7.51518"><ele>564.6</ele><time>2026-04-14T13:08:28.886Z</time></trkpt><trkpt lat="42.4024617" lon="-7.5151467"><ele>564.8</ele><time>2026-04-14T13:08:29.886Z</time></trkpt><trkpt lat="42.4023833" lon="-7.5151167"><ele>565.0</ele><time>2026-04-14T13:08:30.887Z</time></trkpt><trkpt lat="42.4023067" lon="-7.5150833"><ele>565.0</ele><time>2026-04-14T13:08:31.887Z</time></trkpt><trkpt lat="42.40224" lon="-7.5150283"><ele>565.0</ele><time>2026-04-14T13:08:32.887Z</time></trkpt><trkpt lat="42.4021733" lon="-7.51494"><ele>565.0</ele><time>2026-04-14T13:08:33.887Z</time></trkpt><trkpt lat="42.402115" lon="-7.5148383"><ele>565.0</ele><time>2026-04-14T13:08:34.886Z</time></trkpt><trkpt lat="42.4020483" lon="-7.514725"><ele>565.0</ele><time>2026-04-14T13:08:35.887Z</time></trkpt><trkpt lat="42.4019867" lon="-7.5145933"><ele>564.75</ele><time>2026-04-14T13:08:36.887Z</time></trkpt><trkpt lat="42.4019217" lon="-7.5144533"><ele>564.5</ele><time>2026-04-14T13:08:37.886Z</time></trkpt><trkpt lat="42.4018667" lon="-7.5143133"><ele>564.25</ele><time>2026-04-14T13:08:38.886Z</time></trkpt><trkpt lat="42.4018117" lon="-7.51418"><ele>564.0</ele><time>2026-04-14T13:08:39.887Z</time></trkpt><trkpt lat="42.4017633" lon="-7.5140417"><ele>564.0</ele><time>2026-04-14T13:08:40.887Z</time></trkpt><trkpt lat="42.40172" lon="-7.5139067"><ele>564.0</ele><time>2026-04-14T13:08:41.887Z</time></trkpt><trkpt lat="42.401675" lon="-7.5137683"><ele>564.0</ele><time>2026-04-14T13:08:42.886Z</time></trkpt><trkpt lat="42.4016267" lon="-7.513625"><ele>564.0</ele><time>2026-04-14T13:08:43.886Z</time></trkpt><trkpt lat="42.4015783" lon="-7.5134917"><ele>564.0</ele><time>2026-04-14T13:08:44.886Z</time></trkpt><trkpt lat="42.401525" lon="-7.5133517"><ele>564.4</ele><time>2026-04-14T13:08:45.886Z</time></trkpt><trkpt lat="42.40147" lon="-7.5132333"><ele>564.8</ele><time>2026-04-14T13:08:46.887Z</time></trkpt><trkpt lat="42.4014083" lon="-7.5131033"><ele>565.2</ele><time>2026-04-14T13:08:47.886Z</time></trkpt><trkpt lat="42.40135" lon="-7.51298"><ele>565.6</ele><time>2026-04-14T13:08:48.886Z</time></trkpt><trkpt lat="42.4012867" lon="-7.5128583"><ele>566.0</ele><time>2026-04-14T13:08:49.887Z</time></trkpt><trkpt lat="42.4012233" lon="-7.5127433"><ele>566.0</ele><time>2026-04-14T13:08:50.886Z</time></trkpt><trkpt lat="42.4011583" lon="-7.51263"><ele>566.0</ele><time>2026-04-14T13:08:51.887Z</time></trkpt><trkpt lat="42.4010983" lon="-7.5125033"><ele>566.0</ele><time>2026-04-14T13:08:52.886Z</time></trkpt><trkpt lat="42.4010417" lon="-7.51239"><ele>566.0</ele><time>2026-04-14T13:08:53.887Z</time></trkpt><trkpt lat="42.40098" lon="-7.512275"><ele>566.0</ele><time>2026-04-14T13:08:54.886Z</time></trkpt><trkpt lat="42.40091" lon="-7.51217"><ele>568.0</ele><time>2026-04-14T13:08:55.886Z</time></trkpt><trkpt lat="42.4008417" lon="-7.5120667"><ele>570.0</ele><time>2026-04-14T13:08:56.887Z</time></trkpt><trkpt lat="42.4007767" lon="-7.5119633"><ele>572.0</ele><time>2026-04-14T13:08:57.886Z</time></trkpt><trkpt lat="42.4007033" lon="-7.511865"><ele>574.0</ele><time>2026-04-14T13:08:58.886Z</time></trkpt><trkpt lat="42.4006233" lon="-7.5117667"><ele>576.0</ele><time>2026-04-14T13:08:59.886Z</time></trkpt><trkpt lat="42.40055" lon="-7.5116617"><ele>576.6</ele><time>2026-04-14T13:09:00.887Z</time></trkpt><trkpt lat="42.4004733" lon="-7.51155"><ele>577.2</ele><time>2026-04-14T13:09:01.886Z</time></trkpt><trkpt lat="42.4004083" lon="-7.5114483"><ele>577.8</ele><time>2026-04-14T13:09:02.887Z</time></trkpt><trkpt lat="42.4003433" lon="-7.511335"><ele>578.4</ele><time>2026-04-14T13:09:03.886Z</time></trkpt><trkpt lat="42.4002767" lon="-7.5112117"><ele>579.0</ele><time>2026-04-14T13:09:04.887Z</time></trkpt><trkpt lat="42.4002067" lon="-7.5110933"><ele>579.0</ele><time>2026-04-14T13:09:05.886Z</time></trkpt><trkpt lat="42.40013" lon="-7.5109717"><ele>579.0</ele><time>2026-04-14T13:09:06.887Z</time></trkpt><trkpt lat="42.4000467" lon="-7.5108567"><ele>579.0</ele><time>2026-04-14T13:09:07.887Z</time></trkpt><trkpt lat="42.3999733" lon="-7.51074"><ele>579.0</ele><time>2026-04-14T13:09:08.886Z</time></trkpt><trkpt lat="42.3998933" lon="-7.510625"><ele>579.0</ele><time>2026-04-14T13:09:09.887Z</time></trkpt><trkpt lat="42.3998233" lon="-7.51051"><ele>579.0</ele><time>2026-04-14T13:09:10.886Z</time></trkpt><trkpt lat="42.39976" lon="-7.510385"><ele>579.0</ele><time>2026-04-14T13:09:11.886Z</time></trkpt><trkpt lat="42.39971" lon="-7.5102583"><ele>579.0</ele><time>2026-04-14T13:09:12.887Z</time></trkpt><trkpt lat="42.3996733" lon="-7.5101167"><ele>579.0</ele><time>2026-04-14T13:09:13.887Z</time></trkpt><trkpt lat="42.3996483" lon="-7.509985"><ele>578.4</ele><time>2026-04-14T13:09:14.887Z</time></trkpt><trkpt lat="42.3996317" lon="-7.509845"><ele>577.8</ele><time>2026-04-14T13:09:15.887Z</time></trkpt><trkpt lat="42.3996117" lon="-7.5096967"><ele>577.2</ele><time>2026-04-14T13:09:16.886Z</time></trkpt><trkpt lat="42.3995817" lon="-7.5095533"><ele>576.6</ele><time>2026-04-14T13:09:17.886Z</time></trkpt><trkpt lat="42.399545" lon="-7.50941"><ele>576.0</ele><time>2026-04-14T13:09:18.887Z</time></trkpt><trkpt lat="42.3994983" lon="-7.5092783"><ele>576.0</ele><time>2026-04-14T13:09:19.887Z</time></trkpt><trkpt lat="42.3994333" lon="-7.5091483"><ele>576.0</ele><time>2026-04-14T13:09:20.886Z</time></trkpt><trkpt lat="42.3993583" lon="-7.5090317"><ele>576.0</ele><time>2026-04-14T13:09:21.887Z</time></trkpt><trkpt lat="42.3992733" lon="-7.5089267"><ele>576.0</ele><time>2026-04-14T13:09:22.886Z</time></trkpt><trkpt lat="42.3991983" lon="-7.5088283"><ele>576.4</ele><time>2026-04-14T13:09:23.886Z</time></trkpt><trkpt lat="42.3991133" lon="-7.5087283"><ele>576.8</ele><time>2026-04-14T13:09:24.887Z</time></trkpt><trkpt lat="42.3990333" lon="-7.5086333"><ele>577.1999999999999</ele><time>2026-04-14T13:09:25.887Z</time></trkpt><trkpt lat="42.3989467" lon="-7.5085433"><ele>577.6</ele><time>2026-04-14T13:09:26.887Z</time></trkpt><trkpt lat="42.3988533" lon="-7.508465"><ele>578.0</ele><time>2026-04-14T13:09:27.886Z</time></trkpt><trkpt lat="42.398755" lon="-7.5083867"><ele>578.0</ele><time>2026-04-14T13:09:28.886Z</time></trkpt><trkpt lat="42.39865" lon="-7.50831"><ele>578.0</ele><time>2026-04-14T13:09:29.887Z</time></trkpt><trkpt lat="42.3985417" lon="-7.5082317"><ele>578.0</ele><time>2026-04-14T13:09:30.886Z</time></trkpt><trkpt lat="42.3984383" lon="-7.50816"><ele>578.0</ele><time>2026-04-14T13:09:31.887Z</time></trkpt><trkpt lat="42.3983433" lon="-7.5080867"><ele>578.0</ele><time>2026-04-14T13:09:32.886Z</time></trkpt><trkpt lat="42.398245" lon="-7.5080083"><ele>578.0</ele><time>2026-04-14T13:09:33.887Z</time></trkpt><trkpt lat="42.39815" lon="-7.50792"><ele>578.0</ele><time>2026-04-14T13:09:34.887Z</time></trkpt><trkpt lat="42.3980567" lon="-7.5078317"><ele>578.0</ele><time>2026-04-14T13:09:35.886Z</time></trkpt><trkpt lat="42.3979767" lon="-7.507735"><ele>578.1999999999999</ele><time>2026-04-14T13:09:36.887Z</time></trkpt><trkpt lat="42.3979167" lon="-7.50762"><ele>578.4</ele><time>2026-04-14T13:09:37.887Z</time></trkpt><trkpt lat="42.3978883" lon="-7.50749"><ele>578.5999999999999</ele><time>2026-04-14T13:09:38.887Z</time></trkpt><trkpt lat="42.39787" lon="-7.507345"><ele>578.8</ele><time>2026-04-14T13:09:39.887Z</time></trkpt><trkpt lat="42.3978533" lon="-7.5071933"><ele>579.0</ele><time>2026-04-14T13:09:40.887Z</time></trkpt><trkpt lat="42.3978367" lon="-7.5070383"><ele>579.0</ele><time>2026-04-14T13:09:41.886Z</time></trkpt><trkpt lat="42.39782" lon="-7.5068933"><ele>579.0</ele><time>2026-04-14T13:09:42.886Z</time></trkpt><trkpt lat="42.3977967" lon="-7.506735"><ele>579.0</ele><time>2026-04-14T13:09:43.886Z</time></trkpt><trkpt lat="42.3977683" lon="-7.5065817"><ele>579.0</ele><time>2026-04-14T13:09:44.886Z</time></trkpt><trkpt lat="42.39773" lon="-7.50643"><ele>579.0</ele><time>2026-04-14T13:09:45.886Z</time></trkpt><trkpt lat="42.3976867" lon="-7.506295"><ele>579.0</ele><time>2026-04-14T13:09:46.886Z</time></trkpt><trkpt lat="42.3976317" lon="-7.5061717"><ele>579.0</ele><time>2026-04-14T13:09:47.887Z</time></trkpt><trkpt lat="42.3975783" lon="-7.50605"><ele>579.0</ele><time>2026-04-14T13:09:48.886Z</time></trkpt><trkpt lat="42.3975283" lon="-7.5059167"><ele>579.0</ele><time>2026-04-14T13:09:49.886Z</time></trkpt><trkpt lat="42.3974833" lon="-7.505775"><ele>579.1666666666666</ele><time>2026-04-14T13:09:50.887Z</time></trkpt><trkpt lat="42.397455" lon="-7.5056333"><ele>579.3333333333334</ele><time>2026-04-14T13:09:51.887Z</time></trkpt><trkpt lat="42.3974483" lon="-7.5055267"><ele>579.5</ele><time>2026-04-14T13:09:52.887Z</time></trkpt><trkpt lat="42.397455" lon="-7.5054333"><ele>579.6666666666667</ele><time>2026-04-14T13:09:53.886Z</time></trkpt><trkpt lat="42.39748" lon="-7.5053283"><ele>579.8333333333334</ele><time>2026-04-14T13:09:54.887Z</time></trkpt><trkpt lat="42.3975283" lon="-7.5052067"><ele>580.0</ele><time>2026-04-14T13:09:55.887Z</time></trkpt><trkpt lat="42.39758" lon="-7.5050783"><ele>578.5</ele><time>2026-04-14T13:09:56.886Z</time></trkpt><trkpt lat="42.39764" lon="-7.5049433"><ele>577.0</ele><time>2026-04-14T13:09:57.886Z</time></trkpt><trkpt lat="42.3976917" lon="-7.5048017"><ele>575.5</ele><time>2026-04-14T13:09:58.886Z</time></trkpt><trkpt lat="42.3977467" lon="-7.50466"><ele>574.0</ele><time>2026-04-14T13:09:59.887Z</time></trkpt><trkpt lat="42.3978" lon="-7.5045283"><ele>573.0</ele><time>2026-04-14T13:10:00.886Z</time></trkpt><trkpt lat="42.3978633" lon="-7.5043883"><ele>572.0</ele><time>2026-04-14T13:10:01.887Z</time></trkpt><trkpt lat="42.39792" lon="-7.5042417"><ele>571.0</ele><time>2026-04-14T13:10:02.886Z</time></trkpt><trkpt lat="42.3979667" lon="-7.5041"><ele>570.0</ele><time>2026-04-14T13:10:03.887Z</time></trkpt><trkpt lat="42.3980083" lon="-7.503965"><ele>572.6</ele><time>2026-04-14T13:10:04.886Z</time></trkpt><trkpt lat="42.3980467" lon="-7.5038283"><ele>575.2</ele><time>2026-04-14T13:10:05.887Z</time></trkpt><trkpt lat="42.398085" lon="-7.503695"><ele>577.8</ele><time>2026-04-14T13:10:06.887Z</time></trkpt><trkpt lat="42.3981217" lon="-7.5035467"><ele>580.4</ele><time>2026-04-14T13:10:07.887Z</time></trkpt><trkpt lat="42.3981617" lon="-7.5034033"><ele>583.0</ele><time>2026-04-14T13:10:08.886Z</time></trkpt><trkpt lat="42.3982" lon="-7.5032567"><ele>583.0</ele><time>2026-04-14T13:10:09.886Z</time></trkpt><trkpt lat="42.3982383" lon="-7.50311"><ele>583.0</ele><time>2026-04-14T13:10:10.887Z</time></trkpt><trkpt lat="42.3982817" lon="-7.502965"><ele>583.0</ele><time>2026-04-14T13:10:11.886Z</time></trkpt><trkpt lat="42.3983183" lon="-7.50281"><ele>583.0</ele><time>2026-04-14T13:10:12.886Z</time></trkpt><trkpt lat="42.39836" lon="-7.502655"><ele>581.5</ele><time>2026-04-14T13:10:13.887Z</time></trkpt><trkpt lat="42.3984017" lon="-7.5024983"><ele>580.0</ele><time>2026-04-14T13:10:14.886Z</time></trkpt><trkpt lat="42.398435" lon="-7.5023383"><ele>578.5</ele><time>2026-04-14T13:10:15.886Z</time></trkpt><trkpt lat="42.3984733" lon="-7.5021683"><ele>577.0</ele><time>2026-04-14T13:10:16.887Z</time></trkpt><trkpt lat="42.3984917" lon="-7.502005"><ele>575.25</ele><time>2026-04-14T13:10:17.887Z</time></trkpt><trkpt lat="42.3984967" lon="-7.5018467"><ele>573.5</ele><time>2026-04-14T13:10:18.886Z</time></trkpt><trkpt lat="42.398485" lon="-7.5016967"><ele>571.75</ele><time>2026-04-14T13:10:19.886Z</time></trkpt><trkpt lat="42.39846" lon="-7.5015433"><ele>570.0</ele><time>2026-04-14T13:10:20.887Z</time></trkpt><trkpt lat="42.3984333" lon="-7.5013833"><ele>569.5</ele><time>2026-04-14T13:10:21.886Z</time></trkpt><trkpt lat="42.39841" lon="-7.5012317"><ele>569.0</ele><time>2026-04-14T13:10:22.887Z</time></trkpt><trkpt lat="42.3983967" lon="-7.50107"><ele>568.5</ele><time>2026-04-14T13:10:23.886Z</time></trkpt><trkpt lat="42.3983917" lon="-7.5009083"><ele>568.0</ele><time>2026-04-14T13:10:24.886Z</time></trkpt><trkpt lat="42.398385" lon="-7.5007517"><ele>568.0</ele><time>2026-04-14T13:10:25.886Z</time></trkpt><trkpt lat="42.398375" lon="-7.5006"><ele>568.0</ele><time>2026-04-14T13:10:26.887Z</time></trkpt><trkpt lat="42.3983567" lon="-7.5004317"><ele>568.0</ele><time>2026-04-14T13:10:27.887Z</time></trkpt><trkpt lat="42.398345" lon="-7.5002783"><ele>568.0</ele><time>2026-04-14T13:10:28.886Z</time></trkpt><trkpt lat="42.398335" lon="-7.500135"><ele>568.8</ele><time>2026-04-14T13:10:29.886Z</time></trkpt><trkpt lat="42.3983267" lon="-7.4999883"><ele>569.5999999999999</ele><time>2026-04-14T13:10:30.887Z</time></trkpt><trkpt lat="42.3983183" lon="-7.4998583"><ele>570.4000000000001</ele><time>2026-04-14T13:10:31.886Z</time></trkpt><trkpt lat="42.3983" lon="-7.4997233"><ele>571.2</ele><time>2026-04-14T13:10:32.887Z</time></trkpt><trkpt lat="42.398275" lon="-7.4995733"><ele>572.0</ele><time>2026-04-14T13:10:33.886Z</time></trkpt><trkpt lat="42.398245" lon="-7.499425"><ele>573.0</ele><time>2026-04-14T13:10:34.887Z</time></trkpt><trkpt lat="42.3982133" lon="-7.4992783"><ele>574.0</ele><time>2026-04-14T13:10:35.886Z</time></trkpt><trkpt lat="42.3981817" lon="-7.499145"><ele>575.0</ele><time>2026-04-14T13:10:36.886Z</time></trkpt><trkpt lat="42.39816" lon="-7.49901"><ele>576.0</ele><time>2026-04-14T13:10:37.886Z</time></trkpt><trkpt lat="42.3981383" lon="-7.49886"><ele>577.0</ele><time>2026-04-14T13:10:38.886Z</time></trkpt><trkpt lat="42.3981233" lon="-7.4987067"><ele>577.6</ele><time>2026-04-14T13:10:39.887Z</time></trkpt><trkpt lat="42.3981083" lon="-7.4985617"><ele>578.2</ele><time>2026-04-14T13:10:40.887Z</time></trkpt><trkpt lat="42.398105" lon="-7.4984083"><ele>578.8</ele><time>2026-04-14T13:10:41.886Z</time></trkpt><trkpt lat="42.39812" lon="-7.498265"><ele>579.4</ele><time>2026-04-14T13:10:42.886Z</time></trkpt><trkpt lat="42.3981383" lon="-7.4981083"><ele>580.0</ele><time>2026-04-14T13:10:43.887Z</time></trkpt><trkpt lat="42.3981683" lon="-7.4979583"><ele>576.25</ele><time>2026-04-14T13:10:44.886Z</time></trkpt><trkpt lat="42.3982017" lon="-7.4978117"><ele>572.5</ele><time>2026-04-14T13:10:45.886Z</time></trkpt><trkpt lat="42.3982367" lon="-7.4976583"><ele>568.75</ele><time>2026-04-14T13:10:46.887Z</time></trkpt><trkpt lat="42.3982633" lon="-7.4975117"><ele>565.0</ele><time>2026-04-14T13:10:47.886Z</time></trkpt><trkpt lat="42.3982833" lon="-7.49736"><ele>565.0</ele><time>2026-04-14T13:10:48.886Z</time></trkpt><trkpt lat="42.398285" lon="-7.4972133"><ele>565.0</ele><time>2026-04-14T13:10:49.886Z</time></trkpt><trkpt lat="42.3982683" lon="-7.4970583"><ele>565.0</ele><time>2026-04-14T13:10:50.886Z</time></trkpt><trkpt lat="42.39825" lon="-7.496915"><ele>565.0</ele><time>2026-04-14T13:10:51.886Z</time></trkpt><trkpt lat="42.3982183" lon="-7.4967783"><ele>565.0</ele><time>2026-04-14T13:10:52.887Z</time></trkpt><trkpt lat="42.39817" lon="-7.4966367"><ele>564.25</ele><time>2026-04-14T13:10:53.886Z</time></trkpt><trkpt lat="42.3981167" lon="-7.4964983"><ele>563.5</ele><time>2026-04-14T13:10:54.887Z</time></trkpt><trkpt lat="42.3980633" lon="-7.4963617"><ele>562.75</ele><time>2026-04-14T13:10:55.887Z</time></trkpt><trkpt lat="42.39801" lon="-7.49622"><ele>562.0</ele><time>2026-04-14T13:10:56.886Z</time></trkpt><trkpt lat="42.3979667" lon="-7.4960867"><ele>561.6</ele><time>2026-04-14T13:10:57.886Z</time></trkpt><trkpt lat="42.3979417" lon="-7.4959633"><ele>561.2</ele><time>2026-04-14T13:10:58.887Z</time></trkpt><trkpt lat="42.3979383" lon="-7.495835"><ele>560.8</ele><time>2026-04-14T13:10:59.887Z</time></trkpt><trkpt lat="42.397965" lon="-7.495705"><ele>560.4</ele><time>2026-04-14T13:11:00.886Z</time></trkpt><trkpt lat="42.3980267" lon="-7.4955717"><ele>560.0</ele><time>2026-04-14T13:11:01.886Z</time></trkpt><trkpt lat="42.3981033" lon="-7.49544"><ele>555.75</ele><time>2026-04-14T13:11:02.886Z</time></trkpt><trkpt lat="42.3981817" lon="-7.4953183"><ele>551.5</ele><time>2026-04-14T13:11:03.887Z</time></trkpt><trkpt lat="42.3982583" lon="-7.495205"><ele>547.25</ele><time>2026-04-14T13:11:04.887Z</time></trkpt><trkpt lat="42.39834" lon="-7.4950883"><ele>543.0</ele><time>2026-04-14T13:11:05.886Z</time></trkpt><trkpt lat="42.3984167" lon="-7.494955"><ele>543.0</ele><time>2026-04-14T13:11:06.886Z</time></trkpt><trkpt lat="42.3984733" lon="-7.49481"><ele>543.0</ele><time>2026-04-14T13:11:07.886Z</time></trkpt><trkpt lat="42.3985233" lon="-7.4946583"><ele>543.0</ele><time>2026-04-14T13:11:08.887Z</time></trkpt><trkpt lat="42.398565" lon="-7.4945167"><ele>543.0</ele><time>2026-04-14T13:11:09.886Z</time></trkpt><trkpt lat="42.3986067" lon="-7.494375"><ele>538.1999999999999</ele><time>2026-04-14T13:11:10.886Z</time></trkpt><trkpt lat="42.3986333" lon="-7.4942317"><ele>533.4</ele><time>2026-04-14T13:11:11.886Z</time></trkpt><trkpt lat="42.3986567" lon="-7.494095"><ele>528.5999999999999</ele><time>2026-04-14T13:11:12.886Z</time></trkpt><trkpt lat="42.3986867" lon="-7.4939533"><ele>523.8</ele><time>2026-04-14T13:11:13.886Z</time></trkpt><trkpt lat="42.3987233" lon="-7.493825"><ele>519.0</ele><time>2026-04-14T13:11:14.887Z</time></trkpt><trkpt lat="42.3987733" lon="-7.49371"><ele>523.5</ele><time>2026-04-14T13:11:15.887Z</time></trkpt><trkpt lat="42.39886" lon="-7.493615"><ele>528.0</ele><time>2026-04-14T13:11:16.887Z</time></trkpt><trkpt lat="42.39896" lon="-7.4935217"><ele>532.5</ele><time>2026-04-14T13:11:17.887Z</time></trkpt><trkpt lat="42.3990583" lon="-7.493425"><ele>537.0</ele><time>2026-04-14T13:11:18.887Z</time></trkpt><trkpt lat="42.399135" lon="-7.4933067"><ele>537.0</ele><time>2026-04-14T13:11:19.887Z</time></trkpt><trkpt lat="42.3992017" lon="-7.49317"><ele>537.0</ele><time>2026-04-14T13:11:20.886Z</time></trkpt><trkpt lat="42.3992483" lon="-7.4930283"><ele>537.0</ele><time>2026-04-14T13:11:21.887Z</time></trkpt><trkpt lat="42.399275" lon="-7.4928767"><ele>537.0</ele><time>2026-04-14T13:11:22.886Z</time></trkpt><trkpt lat="42.39928" lon="-7.4926933"><ele>533.25</ele><time>2026-04-14T13:11:23.887Z</time></trkpt><trkpt lat="42.3992717" lon="-7.49248"><ele>529.5</ele><time>2026-04-14T13:11:24.886Z</time></trkpt><trkpt lat="42.39924" lon="-7.4922683"><ele>525.75</ele><time>2026-04-14T13:11:25.887Z</time></trkpt><trkpt lat="42.3992317" lon="-7.492105"><ele>522.0</ele><time>2026-04-14T13:11:26.886Z</time></trkpt><trkpt lat="42.399235" lon="-7.4919933"><ele>520.8333333333334</ele><time>2026-04-14T13:11:27.887Z</time></trkpt><trkpt lat="42.3992667" lon="-7.49191"><ele>519.6666666666666</ele><time>2026-04-14T13:11:28.886Z</time></trkpt><trkpt lat="42.3993267" lon="-7.4918433"><ele>518.5</ele><time>2026-04-14T13:11:29.887Z</time></trkpt><trkpt lat="42.3994017" lon="-7.4918167"><ele>517.3333333333333</ele><time>2026-04-14T13:11:30.887Z</time></trkpt><trkpt lat="42.3994767" lon="-7.4918217"><ele>516.1666666666666</ele><time>2026-04-14T13:11:31.886Z</time></trkpt><trkpt lat="42.3995633" lon="-7.4918767"><ele>515.0</ele><time>2026-04-14T13:11:32.886Z</time></trkpt><trkpt lat="42.3996567" lon="-7.4919633"><ele>518.75</ele><time>2026-04-14T13:11:33.886Z</time></trkpt><trkpt lat="42.3997633" lon="-7.492035"><ele>522.5</ele><time>2026-04-14T13:11:34.886Z</time></trkpt><trkpt lat="42.399895" lon="-7.4920933"><ele>526.25</ele><time>2026-04-14T13:11:35.887Z</time></trkpt><trkpt lat="42.4000367" lon="-7.4921483"><ele>530.0</ele><time>2026-04-14T13:11:36.886Z</time></trkpt><trkpt lat="42.4001467" lon="-7.492205"><ele>537.3333333333333</ele><time>2026-04-14T13:11:37.886Z</time></trkpt><trkpt lat="42.4002817" lon="-7.4923033"><ele>544.6666666666666</ele><time>2026-04-14T13:11:38.886Z</time></trkpt><trkpt lat="42.4004267" lon="-7.4923883"><ele>552.0</ele><time>2026-04-14T13:11:39.887Z</time></trkpt><trkpt lat="42.4005783" lon="-7.4924767"><ele>555.6666666666666</ele><time>2026-04-14T13:11:40.886Z</time></trkpt><trkpt lat="42.40072" lon="-7.4925583"><ele>559.3333333333333</ele><time>2026-04-14T13:11:41.886Z</time></trkpt><trkpt lat="42.40086" lon="-7.4926383"><ele>563.0</ele><time>2026-04-14T13:11:42.886Z</time></trkpt><trkpt lat="42.4010033" lon="-7.4926717"><ele>563.0</ele><time>2026-04-14T13:11:43.886Z</time></trkpt><trkpt lat="42.401145" lon="-7.49272"><ele>563.0</ele><time>2026-04-14T13:11:44.886Z</time></trkpt><trkpt lat="42.4012867" lon="-7.492765"><ele>563.0</ele><time>2026-04-14T13:11:45.886Z</time></trkpt><trkpt lat="42.40142" lon="-7.4927883"><ele>563.0</ele><time>2026-04-14T13:11:46.886Z</time></trkpt><trkpt lat="42.401555" lon="-7.4927817"><ele>566.0</ele><time>2026-04-14T13:11:47.887Z</time></trkpt><trkpt lat="42.40168" lon="-7.492725"><ele>569.0</ele><time>2026-04-14T13:11:48.886Z</time></trkpt><trkpt lat="42.4017767" lon="-7.49262"><ele>572.0</ele><time>2026-04-14T13:11:49.887Z</time></trkpt><trkpt lat="42.4018667" lon="-7.4925083"><ele>575.0</ele><time>2026-04-14T13:11:50.886Z</time></trkpt><trkpt lat="42.4019483" lon="-7.4924217"><ele>575.0</ele><time>2026-04-14T13:11:51.887Z</time></trkpt><trkpt lat="42.4020267" lon="-7.4923467"><ele>575.0</ele><time>2026-04-14T13:11:52.886Z</time></trkpt><trkpt lat="42.4020683" lon="-7.4922567"><ele>575.0</ele><time>2026-04-14T13:11:53.886Z</time></trkpt><trkpt lat="42.4020983" lon="-7.4921317"><ele>575.0</ele><time>2026-04-14T13:11:54.886Z</time></trkpt><trkpt lat="42.4021233" lon="-7.4919717"><ele>575.0</ele><time>2026-04-14T13:11:55.886Z</time></trkpt><trkpt lat="42.4021567" lon="-7.49183"><ele>578.6</ele><time>2026-04-14T13:11:56.887Z</time></trkpt><trkpt lat="42.402205" lon="-7.4917383"><ele>582.2</ele><time>2026-04-14T13:11:57.887Z</time></trkpt><trkpt lat="42.4022833" lon="-7.491725"><ele>585.8</ele><time>2026-04-14T13:11:59.886Z</time></trkpt><trkpt lat="42.4023667" lon="-7.491855"><ele>589.4</ele><time>2026-04-14T13:12:01.887Z</time></trkpt><trkpt lat="42.40242" lon="-7.4919483"><ele>593.0</ele><time>2026-04-14T13:12:02.887Z</time></trkpt><trkpt lat="42.4024783" lon="-7.4920433"><ele>592.8</ele><time>2026-04-14T13:12:03.887Z</time></trkpt><trkpt lat="42.4025417" lon="-7.4921733"><ele>592.5999999999999</ele><time>2026-04-14T13:12:04.886Z</time></trkpt><trkpt lat="42.4026083" lon="-7.4922933"><ele>592.4000000000001</ele><time>2026-04-14T13:12:05.886Z</time></trkpt><trkpt lat="42.4026733" lon="-7.4924017"><ele>592.2</ele><time>2026-04-14T13:12:06.886Z</time></trkpt><trkpt lat="42.4027367" lon="-7.4925067"><ele>592.0</ele><time>2026-04-14T13:12:07.886Z</time></trkpt><trkpt lat="42.402785" lon="-7.4925633"><ele>592.0</ele><time>2026-04-14T13:12:08.886Z</time></trkpt><trkpt lat="42.4028" lon="-7.4924583"><ele>592.0</ele><time>2026-04-14T13:12:12.887Z</time></trkpt><trkpt lat="42.4027783" lon="-7.49234"><ele>592.0</ele><time>2026-04-14T13:12:13.887Z</time></trkpt><trkpt lat="42.4027833" lon="-7.4921767"><ele>592.0</ele><time>2026-04-14T13:12:14.886Z</time></trkpt><trkpt lat="42.402795" lon="-7.49196"><ele>592.3333333333334</ele><time>2026-04-14T13:12:15.886Z</time></trkpt><trkpt lat="42.4028217" lon="-7.4917"><ele>592.6666666666666</ele><time>2026-04-14T13:12:16.887Z</time></trkpt><trkpt lat="42.4028483" lon="-7.4914283"><ele>593.0</ele><time>2026-04-14T13:12:17.887Z</time></trkpt><trkpt lat="42.402875" lon="-7.4911767"><ele>592.0</ele><time>2026-04-14T13:12:18.886Z</time></trkpt><trkpt lat="42.4029133" lon="-7.4909317"><ele>591.0</ele><time>2026-04-14T13:12:19.886Z</time></trkpt><trkpt lat="42.4029683" lon="-7.4906917"><ele>590.0</ele><time>2026-04-14T13:12:20.887Z</time></trkpt><trkpt lat="42.40303" lon="-7.4904683"><ele>596.5</ele><time>2026-04-14T13:12:21.886Z</time></trkpt><trkpt lat="42.4030917" lon="-7.490285"><ele>603.0</ele><time>2026-04-14T13:12:22.886Z</time></trkpt><trkpt lat="42.40317" lon="-7.4901317"><ele>609.5</ele><time>2026-04-14T13:12:23.887Z</time></trkpt><trkpt lat="42.403275" lon="-7.4899967"><ele>616.0</ele><time>2026-04-14T13:12:24.886Z</time></trkpt><trkpt lat="42.4034" lon="-7.4898717"><ele>616.0</ele><time>2026-04-14T13:12:25.886Z</time></trkpt><trkpt lat="42.403545" lon="-7.4897317"><ele>616.0</ele><time>2026-04-14T13:12:26.886Z</time></trkpt><trkpt lat="42.4036733" lon="-7.4895833"><ele>616.0</ele><time>2026-04-14T13:12:27.887Z</time></trkpt><trkpt lat="42.403785" lon="-7.4894367"><ele>617.0</ele><time>2026-04-14T13:12:28.887Z</time></trkpt><trkpt lat="42.4038833" lon="-7.4893133"><ele>618.0</ele><time>2026-04-14T13:12:29.887Z</time></trkpt><trkpt lat="42.4039883" lon="-7.4892133"><ele>619.0</ele><time>2026-04-14T13:12:30.886Z</time></trkpt><trkpt lat="42.4040817" lon="-7.4891167"><ele>620.0</ele><time>2026-04-14T13:12:31.887Z</time></trkpt><trkpt lat="42.40416" lon="-7.4890083"><ele>620.0</ele><time>2026-04-14T13:12:32.886Z</time></trkpt><trkpt lat="42.40422" lon="-7.4888933"><ele>620.0</ele><time>2026-04-14T13:12:33.887Z</time></trkpt><trkpt lat="42.4042517" lon="-7.48877"><ele>620.0</ele><time>2026-04-14T13:12:34.886Z</time></trkpt><trkpt lat="42.404265" lon="-7.4886183"><ele>620.0</ele><time>2026-04-14T13:12:35.887Z</time></trkpt><trkpt lat="42.4042483" lon="-7.4884333"><ele>617.0</ele><time>2026-04-14T13:12:36.886Z</time></trkpt><trkpt lat="42.4042367" lon="-7.4882317"><ele>614.0</ele><time>2026-04-14T13:12:37.886Z</time></trkpt><trkpt lat="42.4042383" lon="-7.48801"><ele>611.0</ele><time>2026-04-14T13:12:38.886Z</time></trkpt><trkpt lat="42.4042317" lon="-7.48779"><ele>609.5</ele><time>2026-04-14T13:12:39.887Z</time></trkpt><trkpt lat="42.4042167" lon="-7.487585"><ele>608.0</ele><time>2026-04-14T13:12:40.887Z</time></trkpt><trkpt lat="42.4041867" lon="-7.4873867"><ele>606.5</ele><time>2026-04-14T13:12:41.887Z</time></trkpt><trkpt lat="42.4041433" lon="-7.4871967"><ele>605.0</ele><time>2026-04-14T13:12:42.886Z</time></trkpt><trkpt lat="42.4041117" lon="-7.4869883"><ele>601.5</ele><time>2026-04-14T13:12:43.886Z</time></trkpt><trkpt lat="42.404105" lon="-7.4867867"><ele>598.0</ele><time>2026-04-14T13:12:44.886Z</time></trkpt><trkpt lat="42.4041217" lon="-7.4866"><ele>594.5</ele><time>2026-04-14T13:12:45.887Z</time></trkpt><trkpt lat="42.404145" lon="-7.4864333"><ele>591.0</ele><time>2026-04-14T13:12:46.886Z</time></trkpt><trkpt lat="42.4041533" lon="-7.4863133"><ele>587.4</ele><time>2026-04-14T13:12:47.886Z</time></trkpt><trkpt lat="42.40414" lon="-7.486225"><ele>583.8</ele><time>2026-04-14T13:12:48.886Z</time></trkpt><trkpt lat="42.4040917" lon="-7.4860933"><ele>580.1999999999999</ele><time>2026-04-14T13:12:50.887Z</time></trkpt><trkpt lat="42.4040817" lon="-7.4859917"><ele>576.6</ele><time>2026-04-14T13:12:51.887Z</time></trkpt><trkpt lat="42.4041033" lon="-7.485845"><ele>573.0</ele><time>2026-04-14T13:12:52.887Z</time></trkpt><trkpt lat="42.404145" lon="-7.4856483"><ele>567.3333333333334</ele><time>2026-04-14T13:12:53.886Z</time></trkpt><trkpt lat="42.4042017" lon="-7.4854033"><ele>561.6666666666667</ele><time>2026-04-14T13:12:54.887Z</time></trkpt><trkpt lat="42.4042417" lon="-7.4851483"><ele>556.0</ele><time>2026-04-14T13:12:55.887Z</time></trkpt><trkpt lat="42.404285" lon="-7.4849083"><ele>556.0</ele><time>2026-04-14T13:12:56.887Z</time></trkpt><trkpt lat="42.4043333" lon="-7.4846883"><ele>556.0</ele><time>2026-04-14T13:12:57.886Z</time></trkpt><trkpt lat="42.4043883" lon="-7.484485"><ele>556.0</ele><time>2026-04-14T13:12:58.886Z</time></trkpt><trkpt lat="42.4044433" lon="-7.4842833"><ele>552.0</ele><time>2026-04-14T13:12:59.886Z</time></trkpt><trkpt lat="42.4044767" lon="-7.4840783"><ele>548.0</ele><time>2026-04-14T13:13:00.887Z</time></trkpt><trkpt lat="42.4045" lon="-7.483885"><ele>544.0</ele><time>2026-04-14T13:13:01.887Z</time></trkpt><trkpt lat="42.404525" lon="-7.4836867"><ele>540.0</ele><time>2026-04-14T13:13:02.886Z</time></trkpt><trkpt lat="42.4045533" lon="-7.483525"><ele>537.5</ele><time>2026-04-14T13:13:03.887Z</time></trkpt><trkpt lat="42.4045883" lon="-7.4833767"><ele>535.0</ele><time>2026-04-14T13:13:04.887Z</time></trkpt><trkpt lat="42.404655" lon="-7.483255"><ele>532.5</ele><time>2026-04-14T13:13:05.886Z</time></trkpt><trkpt lat="42.404745" lon="-7.4831383"><ele>530.0</ele><time>2026-04-14T13:13:06.886Z</time></trkpt><trkpt lat="42.404855" lon="-7.4830517"><ele>530.0</ele><time>2026-04-14T13:13:07.886Z</time></trkpt><trkpt lat="42.4049767" lon="-7.482955"><ele>530.0</ele><time>2026-04-14T13:13:08.886Z</time></trkpt><trkpt lat="42.4050933" lon="-7.482825"><ele>530.0</ele><time>2026-04-14T13:13:09.886Z</time></trkpt><trkpt lat="42.4051933" lon="-7.4826783"><ele>530.0</ele><time>2026-04-14T13:13:10.886Z</time></trkpt><trkpt lat="42.4052683" lon="-7.4825533"><ele>530.75</ele><time>2026-04-14T13:13:11.887Z</time></trkpt><trkpt lat="42.4053133" lon="-7.4824183"><ele>531.5</ele><time>2026-04-14T13:13:12.887Z</time></trkpt><trkpt lat="42.4053367" lon="-7.4822667"><ele>532.25</ele><time>2026-04-14T13:13:13.887Z</time></trkpt><trkpt lat="42.4053233" lon="-7.48211"><ele>533.0</ele><time>2026-04-14T13:13:14.887Z</time></trkpt><trkpt lat="42.405285" lon="-7.4819433"><ele>529.75</ele><time>2026-04-14T13:13:15.886Z</time></trkpt><trkpt lat="42.4052333" lon="-7.4817533"><ele>526.5</ele><time>2026-04-14T13:13:16.886Z</time></trkpt><trkpt lat="42.4051633" lon="-7.481575"><ele>523.25</ele><time>2026-04-14T13:13:17.886Z</time></trkpt><trkpt lat="42.4050967" lon="-7.481435"><ele>520.0</ele><time>2026-04-14T13:13:18.886Z</time></trkpt><trkpt lat="42.4050483" lon="-7.4813233"><ele>520.0</ele><time>2026-04-14T13:13:19.886Z</time></trkpt><trkpt lat="42.4050117" lon="-7.4812517"><ele>520.0</ele><time>2026-04-14T13:13:20.887Z</time></trkpt><trkpt lat="42.405075" lon="-7.4813017"><ele>520.0</ele><time>2026-04-14T13:13:24.886Z</time></trkpt><trkpt lat="42.405135" lon="-7.48139"><ele>520.0</ele><time>2026-04-14T13:13:25.886Z</time></trkpt><trkpt lat="42.405205" lon="-7.481505"><ele>520.0</ele><time>2026-04-14T13:13:26.886Z</time></trkpt><trkpt lat="42.405285" lon="-7.4816483"><ele>520.0</ele><time>2026-04-14T13:13:27.886Z</time></trkpt><trkpt lat="42.4053917" lon="-7.4818317"><ele>520.0</ele><time>2026-04-14T13:13:28.887Z</time></trkpt><trkpt lat="42.4055" lon="-7.48201"><ele>520.0</ele><time>2026-04-14T13:13:29.886Z</time></trkpt><trkpt lat="42.405605" lon="-7.482195"><ele>516.75</ele><time>2026-04-14T13:13:30.886Z</time></trkpt><trkpt lat="42.4056717" lon="-7.482375"><ele>513.5</ele><time>2026-04-14T13:13:31.887Z</time></trkpt><trkpt lat="42.4057217" lon="-7.48255"><ele>510.25</ele><time>2026-04-14T13:13:32.886Z</time></trkpt><trkpt lat="42.405745" lon="-7.4827033"><ele>507.0</ele><time>2026-04-14T13:13:33.886Z</time></trkpt><trkpt lat="42.40573" lon="-7.4828433"><ele>506.0</ele><time>2026-04-14T13:13:34.887Z</time></trkpt><trkpt lat="42.4056933" lon="-7.4829933"><ele>505.0</ele><time>2026-04-14T13:13:35.887Z</time></trkpt><trkpt lat="42.4056233" lon="-7.4831633"><ele>504.0</ele><time>2026-04-14T13:13:36.887Z</time></trkpt><trkpt lat="42.40555" lon="-7.48335"><ele>503.0</ele><time>2026-04-14T13:13:37.886Z</time></trkpt><trkpt lat="42.4054767" lon="-7.4835333"><ele>503.75</ele><time>2026-04-14T13:13:38.887Z</time></trkpt><trkpt lat="42.40543" lon="-7.483695"><ele>504.5</ele><time>2026-04-14T13:13:39.887Z</time></trkpt><trkpt lat="42.4054333" lon="-7.4838583"><ele>505.25</ele><time>2026-04-14T13:13:40.886Z</time></trkpt><trkpt lat="42.4054633" lon="-7.48403"><ele>506.0</ele><time>2026-04-14T13:13:41.887Z</time></trkpt><trkpt lat="42.4055267" lon="-7.4842267"><ele>506.0</ele><time>2026-04-14T13:13:42.887Z</time></trkpt><trkpt lat="42.4055983" lon="-7.4844183"><ele>506.0</ele><time>2026-04-14T13:13:43.886Z</time></trkpt><trkpt lat="42.4056733" lon="-7.484565"><ele>506.0</ele><time>2026-04-14T13:13:44.887Z</time></trkpt><trkpt lat="42.4057217" lon="-7.4846583"><ele>506.0</ele><time>2026-04-14T13:13:45.887Z</time></trkpt><trkpt lat="42.4057633" lon="-7.4847317"><ele>506.0</ele><time>2026-04-14T13:13:46.886Z</time></trkpt><trkpt lat="42.40585" lon="-7.4847233"><ele>506.0</ele><time>2026-04-14T13:13:48.886Z</time></trkpt><trkpt lat="42.405925" lon="-7.4846533"><ele>506.0</ele><time>2026-04-14T13:13:49.886Z</time></trkpt><trkpt lat="42.4060533" lon="-7.484575"><ele>506.0</ele><time>2026-04-14T13:13:50.887Z</time></trkpt><trkpt lat="42.40622" lon="-7.4844883"><ele>506.0</ele><time>2026-04-14T13:13:51.887Z</time></trkpt><trkpt lat="42.4064217" lon="-7.4844133"><ele>503.66666666666663</ele><time>2026-04-14T13:13:52.887Z</time></trkpt><trkpt lat="42.4066117" lon="-7.48436"><ele>501.33333333333337</ele><time>2026-04-14T13:13:53.887Z</time></trkpt><trkpt lat="42.4067617" lon="-7.4843383"><ele>499.0</ele><time>2026-04-14T13:13:54.886Z</time></trkpt><trkpt lat="42.4068983" lon="-7.4843583"><ele>499.0</ele><time>2026-04-14T13:13:55.886Z</time></trkpt><trkpt lat="42.4070417" lon="-7.4844183"><ele>499.0</ele><time>2026-04-14T13:13:56.886Z</time></trkpt><trkpt lat="42.4072033" lon="-7.4845183"><ele>499.0</ele><time>2026-04-14T13:13:57.886Z</time></trkpt><trkpt lat="42.4073767" lon="-7.48465"><ele>502.33333333333337</ele><time>2026-04-14T13:13:58.886Z</time></trkpt><trkpt lat="42.40752" lon="-7.48477"><ele>505.66666666666663</ele><time>2026-04-14T13:13:59.886Z</time></trkpt><trkpt lat="42.40765" lon="-7.4848917"><ele>509.0</ele><time>2026-04-14T13:14:00.887Z</time></trkpt><trkpt lat="42.40775" lon="-7.4849983"><ele>508.99999999999994</ele><time>2026-04-14T13:14:01.886Z</time></trkpt><trkpt lat="42.4078317" lon="-7.485085"><ele>509.0</ele><time>2026-04-14T13:14:02.887Z</time></trkpt><trkpt lat="42.4079083" lon="-7.4851417"><ele>509.0</ele><time>2026-04-14T13:14:03.886Z</time></trkpt><trkpt lat="42.4079733" lon="-7.4851533"><ele>509.0</ele><time>2026-04-14T13:14:04.887Z</time></trkpt><trkpt lat="42.4080417" lon="-7.485125"><ele>508.99999999999994</ele><time>2026-04-14T13:14:05.887Z</time></trkpt><trkpt lat="42.4081317" lon="-7.4850867"><ele>509.0</ele><time>2026-04-14T13:14:06.886Z</time></trkpt><trkpt lat="42.40824" lon="-7.4850617"><ele>505.25</ele><time>2026-04-14T13:14:07.886Z</time></trkpt><trkpt lat="42.40836" lon="-7.4850717"><ele>501.5</ele><time>2026-04-14T13:14:08.887Z</time></trkpt><trkpt lat="42.4084867" lon="-7.48511"><ele>497.75</ele><time>2026-04-14T13:14:09.886Z</time></trkpt><trkpt lat="42.40862" lon="-7.4851833"><ele>494.0</ele><time>2026-04-14T13:14:10.887Z</time></trkpt><trkpt lat="42.4087467" lon="-7.4852833"><ele>494.66666666666663</ele><time>2026-04-14T13:14:11.887Z</time></trkpt><trkpt lat="42.40889" lon="-7.4853967"><ele>495.33333333333337</ele><time>2026-04-14T13:14:12.886Z</time></trkpt><trkpt lat="42.4090317" lon="-7.4855083"><ele>496.0</ele><time>2026-04-14T13:14:13.886Z</time></trkpt><trkpt lat="42.409155" lon="-7.4856083"><ele>496.0</ele><time>2026-04-14T13:14:14.886Z</time></trkpt><trkpt lat="42.4092733" lon="-7.4856933"><ele>496.0</ele><time>2026-04-14T13:14:15.886Z</time></trkpt><trkpt lat="42.409385" lon="-7.485785"><ele>496.0</ele><time>2026-04-14T13:14:16.887Z</time></trkpt><trkpt lat="42.40949" lon="-7.4858983"><ele>496.0</ele><time>2026-04-14T13:14:17.886Z</time></trkpt><trkpt lat="42.40959" lon="-7.4860433"><ele>490.0</ele><time>2026-04-14T13:14:18.887Z</time></trkpt><trkpt lat="42.4096683" lon="-7.486215"><ele>484.0</ele><time>2026-04-14T13:14:19.887Z</time></trkpt><trkpt lat="42.4097333" lon="-7.4863967"><ele>478.0</ele><time>2026-04-14T13:14:20.886Z</time></trkpt><trkpt lat="42.40977" lon="-7.4866033"><ele>478.0</ele><time>2026-04-14T13:14:21.887Z</time></trkpt><trkpt lat="42.4097817" lon="-7.4868083"><ele>478.0</ele><time>2026-04-14T13:14:22.886Z</time></trkpt><trkpt lat="42.4098133" lon="-7.4869983"><ele>478.0</ele><time>2026-04-14T13:14:23.886Z</time></trkpt><trkpt lat="42.4098567" lon="-7.4871733"><ele>478.0</ele><time>2026-04-14T13:14:24.887Z</time></trkpt><trkpt lat="42.4099367" lon="-7.4873333"><ele>482.6666666666667</ele><time>2026-04-14T13:14:25.886Z</time></trkpt><trkpt lat="42.4100617" lon="-7.4874783"><ele>487.33333333333337</ele><time>2026-04-14T13:14:26.887Z</time></trkpt><trkpt lat="42.4101867" lon="-7.4876117"><ele>492.0</ele><time>2026-04-14T13:14:27.886Z</time></trkpt><trkpt lat="42.4103583" lon="-7.4877033"><ele>490.0</ele><time>2026-04-14T13:14:28.886Z</time></trkpt><trkpt lat="42.4104983" lon="-7.487805"><ele>488.0</ele><time>2026-04-14T13:14:29.887Z</time></trkpt><trkpt lat="42.4106117" lon="-7.487925"><ele>486.0</ele><time>2026-04-14T13:14:30.886Z</time></trkpt><trkpt lat="42.4106983" lon="-7.48806"><ele>484.0</ele><time>2026-04-14T13:14:31.887Z</time></trkpt><trkpt lat="42.4107583" lon="-7.4881983"><ele>484.0</ele><time>2026-04-14T13:14:32.887Z</time></trkpt><trkpt lat="42.410795" lon="-7.4883533"><ele>484.0</ele><time>2026-04-14T13:14:33.886Z</time></trkpt><trkpt lat="42.4108" lon="-7.4885083"><ele>484.0</ele><time>2026-04-14T13:14:34.887Z</time></trkpt><trkpt lat="42.4107717" lon="-7.4886633"><ele>484.0</ele><time>2026-04-14T13:14:35.886Z</time></trkpt><trkpt lat="42.41071" lon="-7.488815"><ele>486.25</ele><time>2026-04-14T13:14:36.886Z</time></trkpt><trkpt lat="42.4106383" lon="-7.4889433"><ele>488.5</ele><time>2026-04-14T13:14:37.886Z</time></trkpt><trkpt lat="42.4105233" lon="-7.48907"><ele>490.75</ele><time>2026-04-14T13:14:38.886Z</time></trkpt><trkpt lat="42.4104133" lon="-7.4891917"><ele>493.0</ele><time>2026-04-14T13:14:39.886Z</time></trkpt><trkpt lat="42.4103367" lon="-7.4893083"><ele>495.79999999999995</ele><time>2026-04-14T13:14:40.887Z</time></trkpt><trkpt lat="42.41029" lon="-7.4894167"><ele>498.59999999999997</ele><time>2026-04-14T13:14:41.886Z</time></trkpt><trkpt lat="42.4103" lon="-7.4895083"><ele>501.40000000000003</ele><time>2026-04-14T13:14:42.887Z</time></trkpt><trkpt lat="42.4104067" lon="-7.4895817"><ele>504.20000000000005</ele><time>2026-04-14T13:14:44.887Z</time></trkpt><trkpt lat="42.4105167" lon="-7.4896283"><ele>507.0</ele><time>2026-04-14T13:14:45.886Z</time></trkpt><trkpt lat="42.41062" lon="-7.489715"><ele>507.0</ele><time>2026-04-14T13:14:46.886Z</time></trkpt><trkpt lat="42.4107017" lon="-7.4898233"><ele>507.0</ele><time>2026-04-14T13:14:47.886Z</time></trkpt><trkpt lat="42.4107733" lon="-7.4900167"><ele>507.0</ele><time>2026-04-14T13:14:48.887Z</time></trkpt><trkpt lat="42.4108217" lon="-7.4902333"><ele>507.0</ele><time>2026-04-14T13:14:49.886Z</time></trkpt><trkpt lat="42.4108483" lon="-7.4904433"><ele>508.0</ele><time>2026-04-14T13:14:50.887Z</time></trkpt><trkpt lat="42.410845" lon="-7.49063"><ele>509.0</ele><time>2026-04-14T13:14:51.886Z</time></trkpt><trkpt lat="42.410805" lon="-7.4907833"><ele>510.0</ele><time>2026-04-14T13:14:52.886Z</time></trkpt><trkpt lat="42.410715" lon="-7.4909017"><ele>511.0</ele><time>2026-04-14T13:14:53.887Z</time></trkpt><trkpt lat="42.410585" lon="-7.4910067"><ele>516.6666666666667</ele><time>2026-04-14T13:14:54.886Z</time></trkpt><trkpt lat="42.4104383" lon="-7.491125"><ele>522.3333333333334</ele><time>2026-04-14T13:14:55.886Z</time></trkpt><trkpt lat="42.4103" lon="-7.4912733"><ele>528.0</ele><time>2026-04-14T13:14:56.887Z</time></trkpt><trkpt lat="42.410195" lon="-7.4914583"><ele>528.0</ele><time>2026-04-14T13:14:57.887Z</time></trkpt><trkpt lat="42.4101283" lon="-7.4916533"><ele>528.0</ele><time>2026-04-14T13:14:58.887Z</time></trkpt><trkpt lat="42.4100983" lon="-7.491835"><ele>528.0</ele><time>2026-04-14T13:14:59.887Z</time></trkpt><trkpt lat="42.410105" lon="-7.4920217"><ele>528.0</ele><time>2026-04-14T13:15:00.887Z</time></trkpt><trkpt lat="42.410105" lon="-7.49222"><ele>528.0</ele><time>2026-04-14T13:15:01.886Z</time></trkpt><trkpt lat="42.4100933" lon="-7.492435"><ele>528.0</ele><time>2026-04-14T13:15:02.887Z</time></trkpt><trkpt lat="42.4100667" lon="-7.4926617"><ele>528.0</ele><time>2026-04-14T13:15:03.887Z</time></trkpt><trkpt lat="42.410035" lon="-7.4929183"><ele>529.6666666666666</ele><time>2026-04-14T13:15:04.886Z</time></trkpt><trkpt lat="42.41" lon="-7.493175"><ele>531.3333333333333</ele><time>2026-04-14T13:15:05.886Z</time></trkpt><trkpt lat="42.4099733" lon="-7.493405"><ele>533.0</ele><time>2026-04-14T13:15:06.886Z</time></trkpt><trkpt lat="42.409955" lon="-7.4936067"><ele>534.0</ele><time>2026-04-14T13:15:07.886Z</time></trkpt><trkpt lat="42.4099667" lon="-7.4937633"><ele>535.0</ele><time>2026-04-14T13:15:08.886Z</time></trkpt><trkpt lat="42.4100033" lon="-7.493905"><ele>536.0</ele><time>2026-04-14T13:15:09.886Z</time></trkpt><trkpt lat="42.41008" lon="-7.4940383"><ele>537.0</ele><time>2026-04-14T13:15:10.886Z</time></trkpt><trkpt lat="42.410165" lon="-7.49416"><ele>537.0</ele><time>2026-04-14T13:15:11.886Z</time></trkpt><trkpt lat="42.410235" lon="-7.4943033"><ele>537.0</ele><time>2026-04-14T13:15:12.887Z</time></trkpt><trkpt lat="42.4102917" lon="-7.49446"><ele>537.0</ele><time>2026-04-14T13:15:13.887Z</time></trkpt><trkpt lat="42.4103483" lon="-7.494625"><ele>537.0</ele><time>2026-04-14T13:15:14.888Z</time></trkpt><trkpt lat="42.4104167" lon="-7.494755"><ele>536.25</ele><time>2026-04-14T13:15:15.888Z</time></trkpt><trkpt lat="42.4105033" lon="-7.4948317"><ele>535.5</ele><time>2026-04-14T13:15:16.887Z</time></trkpt><trkpt lat="42.41059" lon="-7.4948583"><ele>534.75</ele><time>2026-04-14T13:15:17.887Z</time></trkpt><trkpt lat="42.4107033" lon="-7.4948217"><ele>534.0</ele><time>2026-04-14T13:15:18.888Z</time></trkpt><trkpt lat="42.4108567" lon="-7.494755"><ele>534.0</ele><time>2026-04-14T13:15:19.888Z</time></trkpt><trkpt lat="42.4109967" lon="-7.4947367"><ele>534.0</ele><time>2026-04-14T13:15:20.887Z</time></trkpt><trkpt lat="42.411115" lon="-7.494745"><ele>534.0</ele><time>2026-04-14T13:15:21.887Z</time></trkpt><trkpt lat="42.4111967" lon="-7.49479"><ele>534.0</ele><time>2026-04-14T13:15:22.888Z</time></trkpt><trkpt lat="42.4112533" lon="-7.4948783"><ele>534.0</ele><time>2026-04-14T13:15:23.887Z</time></trkpt><trkpt lat="42.4113033" lon="-7.4950217"><ele>529.6666666666666</ele><time>2026-04-14T13:15:24.887Z</time></trkpt><trkpt lat="42.4113483" lon="-7.4951967"><ele>525.3333333333333</ele><time>2026-04-14T13:15:25.888Z</time></trkpt><trkpt lat="42.4113867" lon="-7.4954133"><ele>521.0</ele><time>2026-04-14T13:15:26.888Z</time></trkpt><trkpt lat="42.4114283" lon="-7.495675"><ele>521.0</ele><time>2026-04-14T13:15:27.888Z</time></trkpt><trkpt lat="42.41147" lon="-7.4959567"><ele>521.0</ele><time>2026-04-14T13:15:28.887Z</time></trkpt><trkpt lat="42.411525" lon="-7.496235"><ele>521.0</ele><time>2026-04-14T13:15:29.887Z</time></trkpt><trkpt lat="42.411595" lon="-7.4964817"><ele>525.6666666666666</ele><time>2026-04-14T13:15:30.887Z</time></trkpt><trkpt lat="42.4116817" lon="-7.496705"><ele>530.3333333333334</ele><time>2026-04-14T13:15:31.887Z</time></trkpt><trkpt lat="42.4117883" lon="-7.496925"><ele>535.0</ele><time>2026-04-14T13:15:32.888Z</time></trkpt><trkpt lat="42.411915" lon="-7.497135"><ele>534.3333333333334</ele><time>2026-04-14T13:15:33.887Z</time></trkpt><trkpt lat="42.41204" lon="-7.4973233"><ele>533.6666666666666</ele><time>2026-04-14T13:15:34.887Z</time></trkpt><trkpt lat="42.4121783" lon="-7.4974967"><ele>533.0</ele><time>2026-04-14T13:15:35.887Z</time></trkpt><trkpt lat="42.4123217" lon="-7.4976717"><ele>533.0</ele><time>2026-04-14T13:15:36.888Z</time></trkpt><trkpt lat="42.4124783" lon="-7.4978483"><ele>533.0</ele><time>2026-04-14T13:15:37.887Z</time></trkpt><trkpt lat="42.4126167" lon="-7.4979983"><ele>533.0</ele><time>2026-04-14T13:15:38.887Z</time></trkpt><trkpt lat="42.4127567" lon="-7.498145"><ele>537.3333333333333</ele><time>2026-04-14T13:15:39.887Z</time></trkpt><trkpt lat="42.4129167" lon="-7.49826"><ele>541.6666666666666</ele><time>2026-04-14T13:15:40.887Z</time></trkpt><trkpt lat="42.413075" lon="-7.4983533"><ele>546.0</ele><time>2026-04-14T13:15:41.888Z</time></trkpt><trkpt lat="42.4132183" lon="-7.4984417"><ele>546.0</ele><time>2026-04-14T13:15:42.888Z</time></trkpt><trkpt lat="42.4133717" lon="-7.4985367"><ele>546.0</ele><time>2026-04-14T13:15:43.887Z</time></trkpt><trkpt lat="42.4135183" lon="-7.4986433"><ele>546.0</ele><time>2026-04-14T13:15:44.888Z</time></trkpt><trkpt lat="42.413675" lon="-7.498745"><ele>548.0</ele><time>2026-04-14T13:15:45.888Z</time></trkpt><trkpt lat="42.4138283" lon="-7.49884"><ele>550.0</ele><time>2026-04-14T13:15:46.888Z</time></trkpt><trkpt lat="42.4139567" lon="-7.4989317"><ele>552.0</ele><time>2026-04-14T13:15:47.888Z</time></trkpt><trkpt lat="42.41408" lon="-7.4990433"><ele>552.0</ele><time>2026-04-14T13:15:48.888Z</time></trkpt><trkpt lat="42.4141717" lon="-7.4991783"><ele>552.0</ele><time>2026-04-14T13:15:49.888Z</time></trkpt><trkpt lat="42.4142667" lon="-7.499325"><ele>552.0</ele><time>2026-04-14T13:15:50.887Z</time></trkpt><trkpt lat="42.414365" lon="-7.49946"><ele>552.0</ele><time>2026-04-14T13:15:51.887Z</time></trkpt><trkpt lat="42.41447" lon="-7.4995933"><ele>552.75</ele><time>2026-04-14T13:15:52.888Z</time></trkpt><trkpt lat="42.4145583" lon="-7.4997317"><ele>553.5</ele><time>2026-04-14T13:15:53.887Z</time></trkpt><trkpt lat="42.41465" lon="-7.4998933"><ele>554.25</ele><time>2026-04-14T13:15:54.888Z</time></trkpt><trkpt lat="42.414745" lon="-7.50003"><ele>555.0</ele><time>2026-04-14T13:15:55.887Z</time></trkpt><trkpt lat="42.414825" lon="-7.5001367"><ele>555.0</ele><time>2026-04-14T13:15:56.887Z</time></trkpt><trkpt lat="42.4148867" lon="-7.5002517"><ele>555.0</ele><time>2026-04-14T13:15:57.887Z</time></trkpt><trkpt lat="42.41491" lon="-7.5003683"><ele>555.0</ele><time>2026-04-14T13:15:58.888Z</time></trkpt><trkpt lat="42.4149183" lon="-7.500465"><ele>555.0</ele><time>2026-04-14T13:15:59.887Z</time></trkpt><trkpt lat="42.4149583" lon="-7.5005367"><ele>555.0</ele><time>2026-04-14T13:16:00.887Z</time></trkpt><trkpt lat="42.4150217" lon="-7.5005917"><ele>555.0</ele><time>2026-04-14T13:16:01.888Z</time></trkpt><trkpt lat="42.4150833" lon="-7.5006483"><ele>555.2</ele><time>2026-04-14T13:16:02.888Z</time></trkpt><trkpt lat="42.4150917" lon="-7.5007517"><ele>555.4</ele><time>2026-04-14T13:16:04.887Z</time></trkpt><trkpt lat="42.4150067" lon="-7.50088"><ele>555.6</ele><time>2026-04-14T13:16:06.887Z</time></trkpt><trkpt lat="42.414965" lon="-7.5009867"><ele>555.8</ele><time>2026-04-14T13:16:07.888Z</time></trkpt><trkpt lat="42.4149367" lon="-7.5011133"><ele>556.0</ele><time>2026-04-14T13:16:08.887Z</time></trkpt><trkpt lat="42.414915" lon="-7.501245"><ele>555.8333333333334</ele><time>2026-04-14T13:16:09.888Z</time></trkpt><trkpt lat="42.414895" lon="-7.5013667"><ele>555.6666666666667</ele><time>2026-04-14T13:16:10.888Z</time></trkpt><trkpt lat="42.41488" lon="-7.5014767"><ele>555.5</ele><time>2026-04-14T13:16:11.887Z</time></trkpt><trkpt lat="42.4148683" lon="-7.501585"><ele>555.3333333333334</ele><time>2026-04-14T13:16:12.887Z</time></trkpt><trkpt lat="42.4148683" lon="-7.501685"><ele>555.1666666666666</ele><time>2026-04-14T13:16:13.888Z</time></trkpt><trkpt lat="42.4148883" lon="-7.5017783"><ele>555.0</ele><time>2026-04-14T13:16:14.888Z</time></trkpt><trkpt lat="42.4149317" lon="-7.5018617"><ele>555.0</ele><time>2026-04-14T13:16:15.887Z</time></trkpt><trkpt lat="42.4149817" lon="-7.501945"><ele>555.0</ele><time>2026-04-14T13:16:16.888Z</time></trkpt><trkpt lat="42.4150483" lon="-7.5020133"><ele>555.0</ele><time>2026-04-14T13:16:17.887Z</time></trkpt><trkpt lat="42.41512" lon="-7.5020767"><ele>555.0</ele><time>2026-04-14T13:16:18.888Z</time></trkpt><trkpt lat="42.415195" lon="-7.5021333"><ele>555.0</ele><time>2026-04-14T13:16:19.888Z</time></trkpt><trkpt lat="42.4152733" lon="-7.5021767"><ele>555.0</ele><time>2026-04-14T13:16:20.887Z</time></trkpt><trkpt lat="42.41536" lon="-7.5022067"><ele>554.3333333333334</ele><time>2026-04-14T13:16:21.888Z</time></trkpt><trkpt lat="42.4154483" lon="-7.502235"><ele>553.6666666666666</ele><time>2026-04-14T13:16:22.887Z</time></trkpt><trkpt lat="42.4155317" lon="-7.5022683"><ele>553.0</ele><time>2026-04-14T13:16:23.887Z</time></trkpt><trkpt lat="42.415615" lon="-7.5023017"><ele>552.3333333333333</ele><time>2026-04-14T13:16:24.887Z</time></trkpt><trkpt lat="42.4156967" lon="-7.5023267"><ele>551.6666666666666</ele><time>2026-04-14T13:16:25.887Z</time></trkpt><trkpt lat="42.41578" lon="-7.502355"><ele>551.0</ele><time>2026-04-14T13:16:26.888Z</time></trkpt><trkpt lat="42.41586" lon="-7.5023883"><ele>551.0</ele><time>2026-04-14T13:16:27.887Z</time></trkpt><trkpt lat="42.415925" lon="-7.502435"><ele>551.0</ele><time>2026-04-14T13:16:28.887Z</time></trkpt><trkpt lat="42.4159817" lon="-7.5024917"><ele>551.0</ele><time>2026-04-14T13:16:29.887Z</time></trkpt><trkpt lat="42.416065" lon="-7.5025967"><ele>551.0</ele><time>2026-04-14T13:16:31.887Z</time></trkpt><trkpt lat="42.4161217" lon="-7.5026567"><ele>551.0</ele><time>2026-04-14T13:16:33.888Z</time></trkpt><trkpt lat="42.416195" lon="-7.5026267"><ele>551.0</ele><time>2026-04-14T13:16:36.887Z</time></trkpt><trkpt lat="42.416245" lon="-7.50253"><ele>548.8</ele><time>2026-04-14T13:16:38.887Z</time></trkpt><trkpt lat="42.4163333" lon="-7.50239"><ele>546.6</ele><time>2026-04-14T13:16:40.888Z</time></trkpt><trkpt lat="42.4163933" lon="-7.5023383"><ele>544.4</ele><time>2026-04-14T13:16:41.887Z</time></trkpt><trkpt lat="42.416465" lon="-7.502285"><ele>542.2</ele><time>2026-04-14T13:16:42.887Z</time></trkpt><trkpt lat="42.4165433" lon="-7.5022283"><ele>540.0</ele><time>2026-04-14T13:16:43.888Z</time></trkpt><trkpt lat="42.41663" lon="-7.5021783"><ele>540.0</ele><time>2026-04-14T13:16:44.888Z</time></trkpt><trkpt lat="42.4167167" lon="-7.5021333"><ele>540.0</ele><time>2026-04-14T13:16:45.888Z</time></trkpt><trkpt lat="42.4167983" lon="-7.502115"><ele>540.0</ele><time>2026-04-14T13:16:46.887Z</time></trkpt><trkpt lat="42.41688" lon="-7.5021217"><ele>540.0</ele><time>2026-04-14T13:16:47.888Z</time></trkpt><trkpt lat="42.416965" lon="-7.5021533"><ele>540.0</ele><time>2026-04-14T13:16:48.888Z</time></trkpt><trkpt lat="42.417035" lon="-7.5022033"><ele>540.0</ele><time>2026-04-14T13:16:49.887Z</time></trkpt><trkpt lat="42.4170933" lon="-7.5022733"><ele>540.0</ele><time>2026-04-14T13:16:50.888Z</time></trkpt><trkpt lat="42.4171517" lon="-7.50236"><ele>540.0</ele><time>2026-04-14T13:16:51.888Z</time></trkpt><trkpt lat="42.41721" lon="-7.50246"><ele>540.0</ele><time>2026-04-14T13:16:52.887Z</time></trkpt><trkpt lat="42.4172717" lon="-7.5025567"><ele>540.0</ele><time>2026-04-14T13:16:53.888Z</time></trkpt><trkpt lat="42.4173417" lon="-7.50265"><ele>540.0</ele><time>2026-04-14T13:16:54.887Z</time></trkpt><trkpt lat="42.4174217" lon="-7.502735"><ele>539.8333333333334</ele><time>2026-04-14T13:16:55.887Z</time></trkpt><trkpt lat="42.4174967" lon="-7.5028233"><ele>539.6666666666666</ele><time>2026-04-14T13:16:56.887Z</time></trkpt><trkpt lat="42.4175717" lon="-7.502895"><ele>539.5</ele><time>2026-04-14T13:16:57.887Z</time></trkpt><trkpt lat="42.4176467" lon="-7.5029417"><ele>539.3333333333333</ele><time>2026-04-14T13:16:58.888Z</time></trkpt><trkpt lat="42.417725" lon="-7.502965"><ele>539.1666666666666</ele><time>2026-04-14T13:16:59.888Z</time></trkpt><trkpt lat="42.4178083" lon="-7.502955"><ele>539.0</ele><time>2026-04-14T13:17:00.888Z</time></trkpt><trkpt lat="42.4178933" lon="-7.5029267"><ele>538.2</ele><time>2026-04-14T13:17:01.888Z</time></trkpt><trkpt lat="42.417975" lon="-7.50287"><ele>537.4</ele><time>2026-04-14T13:17:02.887Z</time></trkpt><trkpt lat="42.41806" lon="-7.502805"><ele>536.6</ele><time>2026-04-14T13:17:03.888Z</time></trkpt><trkpt lat="42.4181417" lon="-7.5027417"><ele>535.8</ele><time>2026-04-14T13:17:04.888Z</time></trkpt><trkpt lat="42.4182183" lon="-7.5026833"><ele>535.0</ele><time>2026-04-14T13:17:05.887Z</time></trkpt><trkpt lat="42.4183017" lon="-7.50262"><ele>535.0</ele><time>2026-04-14T13:17:06.887Z</time></trkpt><trkpt lat="42.4183833" lon="-7.5025683"><ele>535.0</ele><time>2026-04-14T13:17:07.887Z</time></trkpt><trkpt lat="42.4184733" lon="-7.5025167"><ele>535.0</ele><time>2026-04-14T13:17:08.887Z</time></trkpt><trkpt lat="42.418555" lon="-7.5024367"><ele>535.0</ele><time>2026-04-14T13:17:09.888Z</time></trkpt><trkpt lat="42.4186017" lon="-7.502325"><ele>535.0</ele><time>2026-04-14T13:17:10.888Z</time></trkpt><trkpt lat="42.418625" lon="-7.502185"><ele>534.0</ele><time>2026-04-14T13:17:11.888Z</time></trkpt><trkpt lat="42.418645" lon="-7.5020367"><ele>533.0</ele><time>2026-04-14T13:17:12.887Z</time></trkpt><trkpt lat="42.4186717" lon="-7.501885"><ele>532.0</ele><time>2026-04-14T13:17:13.888Z</time></trkpt><trkpt lat="42.4187133" lon="-7.50174"><ele>531.0</ele><time>2026-04-14T13:17:14.887Z</time></trkpt><trkpt lat="42.4187483" lon="-7.5015833"><ele>531.0</ele><time>2026-04-14T13:17:15.887Z</time></trkpt><trkpt lat="42.4187567" lon="-7.5014267"><ele>531.0</ele><time>2026-04-14T13:17:16.888Z</time></trkpt><trkpt lat="42.4187633" lon="-7.5012733"><ele>531.0</ele><time>2026-04-14T13:17:17.887Z</time></trkpt><trkpt lat="42.418765" lon="-7.501115"><ele>531.0</ele><time>2026-04-14T13:17:18.887Z</time></trkpt><trkpt lat="42.418775" lon="-7.50096"><ele>530.25</ele><time>2026-04-14T13:17:19.887Z</time></trkpt><trkpt lat="42.4187967" lon="-7.5008067"><ele>529.5</ele><time>2026-04-14T13:17:20.887Z</time></trkpt><trkpt lat="42.418835" lon="-7.50066"><ele>528.75</ele><time>2026-04-14T13:17:21.888Z</time></trkpt><trkpt lat="42.4188917" lon="-7.5005217"><ele>528.0</ele><time>2026-04-14T13:17:22.887Z</time></trkpt><trkpt lat="42.4189567" lon="-7.500395"><ele>526.75</ele><time>2026-04-14T13:17:23.888Z</time></trkpt><trkpt lat="42.41902" lon="-7.5002567"><ele>525.5</ele><time>2026-04-14T13:17:24.888Z</time></trkpt><trkpt lat="42.4190917" lon="-7.5001217"><ele>524.25</ele><time>2026-04-14T13:17:25.887Z</time></trkpt><trkpt lat="42.4191583" lon="-7.4999933"><ele>523.0</ele><time>2026-04-14T13:17:26.888Z</time></trkpt><trkpt lat="42.4192217" lon="-7.4998633"><ele>523.0</ele><time>2026-04-14T13:17:27.887Z</time></trkpt><trkpt lat="42.4192833" lon="-7.4997233"><ele>523.0</ele><time>2026-04-14T13:17:28.887Z</time></trkpt><trkpt lat="42.41935" lon="-7.4995783"><ele>523.0</ele><time>2026-04-14T13:17:29.888Z</time></trkpt><trkpt lat="42.419415" lon="-7.4994333"><ele>523.0</ele><time>2026-04-14T13:17:30.887Z</time></trkpt><trkpt lat="42.4194717" lon="-7.4992967"><ele>522.0</ele><time>2026-04-14T13:17:31.887Z</time></trkpt><trkpt lat="42.4195267" lon="-7.4991567"><ele>521.0</ele><time>2026-04-14T13:17:32.888Z</time></trkpt><trkpt lat="42.4195833" lon="-7.49903"><ele>520.0</ele><time>2026-04-14T13:17:33.887Z</time></trkpt><trkpt lat="42.419645" lon="-7.4988967"><ele>519.0</ele><time>2026-04-14T13:17:34.887Z</time></trkpt><trkpt lat="42.4197133" lon="-7.4987617"><ele>518.5</ele><time>2026-04-14T13:17:35.888Z</time></trkpt><trkpt lat="42.4197783" lon="-7.49864"><ele>518.0</ele><time>2026-04-14T13:17:36.888Z</time></trkpt><trkpt lat="42.4198383" lon="-7.4985217"><ele>517.5</ele><time>2026-04-14T13:17:37.887Z</time></trkpt><trkpt lat="42.4199033" lon="-7.49839"><ele>517.0</ele><time>2026-04-14T13:17:38.888Z</time></trkpt><trkpt lat="42.419955" lon="-7.4982483"><ele>517.0</ele><time>2026-04-14T13:17:39.887Z</time></trkpt><trkpt lat="42.419985" lon="-7.4980883"><ele>517.0</ele><time>2026-04-14T13:17:40.888Z</time></trkpt><trkpt lat="42.420005" lon="-7.4979283"><ele>517.0</ele><time>2026-04-14T13:17:41.887Z</time></trkpt><trkpt lat="42.4200117" lon="-7.4977683"><ele>517.0</ele><time>2026-04-14T13:17:42.888Z</time></trkpt><trkpt lat="42.4200083" lon="-7.4975983"><ele>517.0</ele><time>2026-04-14T13:17:43.888Z</time></trkpt><trkpt lat="42.4199967" lon="-7.4974333"><ele>517.0</ele><time>2026-04-14T13:17:44.887Z</time></trkpt><trkpt lat="42.419975" lon="-7.497265"><ele>517.0</ele><time>2026-04-14T13:17:45.887Z</time></trkpt><trkpt lat="42.4199583" lon="-7.497105"><ele>517.0</ele><time>2026-04-14T13:17:46.888Z</time></trkpt><trkpt lat="42.419945" lon="-7.4969433"><ele>517.0</ele><time>2026-04-14T13:17:47.888Z</time></trkpt><trkpt lat="42.4199333" lon="-7.49678"><ele>517.0</ele><time>2026-04-14T13:17:48.887Z</time></trkpt><trkpt lat="42.4199317" lon="-7.4966183"><ele>517.0</ele><time>2026-04-14T13:17:49.888Z</time></trkpt><trkpt lat="42.419925" lon="-7.4964467"><ele>517.0</ele><time>2026-04-14T13:17:50.888Z</time></trkpt><trkpt lat="42.41992" lon="-7.4962817"><ele>517.25</ele><time>2026-04-14T13:17:51.887Z</time></trkpt><trkpt lat="42.4199133" lon="-7.4961167"><ele>517.5</ele><time>2026-04-14T13:17:52.887Z</time></trkpt><trkpt lat="42.4199167" lon="-7.4959633"><ele>517.75</ele><time>2026-04-14T13:17:53.887Z</time></trkpt><trkpt lat="42.4199183" lon="-7.4958017"><ele>518.0</ele><time>2026-04-14T13:17:54.887Z</time></trkpt><trkpt lat="42.4199233" lon="-7.4956517"><ele>518.0</ele><time>2026-04-14T13:17:55.888Z</time></trkpt><trkpt lat="42.419935" lon="-7.495495"><ele>518.0</ele><time>2026-04-14T13:17:56.887Z</time></trkpt><trkpt lat="42.4199583" lon="-7.4953383"><ele>518.0</ele><time>2026-04-14T13:17:57.888Z</time></trkpt><trkpt lat="42.41999" lon="-7.4951783"><ele>518.0</ele><time>2026-04-14T13:17:58.887Z</time></trkpt><trkpt lat="42.42002" lon="-7.4950167"><ele>518.75</ele><time>2026-04-14T13:17:59.887Z</time></trkpt><trkpt lat="42.4200467" lon="-7.4948667"><ele>519.5</ele><time>2026-04-14T13:18:00.888Z</time></trkpt><trkpt lat="42.4200667" lon="-7.49471"><ele>520.25</ele><time>2026-04-14T13:18:01.888Z</time></trkpt><trkpt lat="42.420095" lon="-7.4945567"><ele>521.0</ele><time>2026-04-14T13:18:02.887Z</time></trkpt><trkpt lat="42.42012" lon="-7.4943933"><ele>521.25</ele><time>2026-04-14T13:18:03.888Z</time></trkpt><trkpt lat="42.4201417" lon="-7.4942317"><ele>521.5</ele><time>2026-04-14T13:18:04.888Z</time></trkpt><trkpt lat="42.4201683" lon="-7.4940783"><ele>521.75</ele><time>2026-04-14T13:18:05.887Z</time></trkpt><trkpt lat="42.420195" lon="-7.4939283"><ele>522.0</ele><time>2026-04-14T13:18:06.888Z</time></trkpt><trkpt lat="42.420225" lon="-7.49378"><ele>522.5</ele><time>2026-04-14T13:18:07.888Z</time></trkpt><trkpt lat="42.4202517" lon="-7.4936217"><ele>523.0</ele><time>2026-04-14T13:18:08.887Z</time></trkpt><trkpt lat="42.4202833" lon="-7.49347"><ele>523.5</ele><time>2026-04-14T13:18:09.888Z</time></trkpt><trkpt lat="42.4203117" lon="-7.4933033"><ele>524.0</ele><time>2026-04-14T13:18:10.888Z</time></trkpt><trkpt lat="42.4203367" lon="-7.493145"><ele>524.0</ele><time>2026-04-14T13:18:11.888Z</time></trkpt><trkpt lat="42.4203517" lon="-7.492985"><ele>524.0</ele><time>2026-04-14T13:18:12.888Z</time></trkpt><trkpt lat="42.4203517" lon="-7.4928317"><ele>524.0</ele><time>2026-04-14T13:18:13.888Z</time></trkpt><trkpt lat="42.4203183" lon="-7.4926817"><ele>524.0</ele><time>2026-04-14T13:18:14.887Z</time></trkpt><trkpt lat="42.4202683" lon="-7.4925467"><ele>524.5</ele><time>2026-04-14T13:18:15.887Z</time></trkpt><trkpt lat="42.4202033" lon="-7.49242"><ele>525.0</ele><time>2026-04-14T13:18:16.887Z</time></trkpt><trkpt lat="42.420135" lon="-7.4922983"><ele>525.5</ele><time>2026-04-14T13:18:17.887Z</time></trkpt><trkpt lat="42.4200717" lon="-7.4921733"><ele>526.0</ele><time>2026-04-14T13:18:18.888Z</time></trkpt><trkpt lat="42.42001" lon="-7.4920483"><ele>527.25</ele><time>2026-04-14T13:18:19.888Z</time></trkpt><trkpt lat="42.419945" lon="-7.49193"><ele>528.5</ele><time>2026-04-14T13:18:20.887Z</time></trkpt><trkpt lat="42.4198817" lon="-7.4918"><ele>529.75</ele><time>2026-04-14T13:18:21.887Z</time></trkpt><trkpt lat="42.4198167" lon="-7.4916667"><ele>531.0</ele><time>2026-04-14T13:18:22.887Z</time></trkpt><trkpt lat="42.4197483" lon="-7.4915333"><ele>531.0</ele><time>2026-04-14T13:18:23.888Z</time></trkpt><trkpt lat="42.419685" lon="-7.491405"><ele>531.0</ele><time>2026-04-14T13:18:24.888Z</time></trkpt><trkpt lat="42.4196117" lon="-7.491275"><ele>531.0</ele><time>2026-04-14T13:18:25.887Z</time></trkpt><trkpt lat="42.4195467" lon="-7.4911467"><ele>531.0</ele><time>2026-04-14T13:18:26.887Z</time></trkpt><trkpt lat="42.4194733" lon="-7.4910183"><ele>531.0</ele><time>2026-04-14T13:18:27.887Z</time></trkpt><trkpt lat="42.4194033" lon="-7.4909"><ele>531.0</ele><time>2026-04-14T13:18:28.888Z</time></trkpt><trkpt lat="42.4193267" lon="-7.4907867"><ele>531.0</ele><time>2026-04-14T13:18:29.887Z</time></trkpt><trkpt lat="42.419255" lon="-7.4906683"><ele>531.0</ele><time>2026-04-14T13:18:30.888Z</time></trkpt><trkpt lat="42.4191817" lon="-7.4905483"><ele>531.0</ele><time>2026-04-14T13:18:31.887Z</time></trkpt><trkpt lat="42.4191217" lon="-7.4904333"><ele>531.0</ele><time>2026-04-14T13:18:32.888Z</time></trkpt><trkpt lat="42.419075" lon="-7.490325"><ele>531.0</ele><time>2026-04-14T13:18:33.887Z</time></trkpt><trkpt lat="42.41905" lon="-7.4902367"><ele>531.0</ele><time>2026-04-14T13:18:34.887Z</time></trkpt><trkpt lat="42.4190617" lon="-7.4901483"><ele>531.0</ele><time>2026-04-14T13:18:36.888Z</time></trkpt><trkpt lat="42.419155" lon="-7.4901167"><ele>531.0</ele><time>2026-04-14T13:18:38.887Z</time></trkpt><trkpt lat="42.41922" lon="-7.4900917"><ele>531.6</ele><time>2026-04-14T13:18:39.887Z</time></trkpt><trkpt lat="42.4192917" lon="-7.4900517"><ele>532.2</ele><time>2026-04-14T13:18:40.887Z</time></trkpt><trkpt lat="42.4193733" lon="-7.490015"><ele>532.8</ele><time>2026-04-14T13:18:41.888Z</time></trkpt><trkpt lat="42.4194583" lon="-7.48997"><ele>533.4</ele><time>2026-04-14T13:18:42.888Z</time></trkpt><trkpt lat="42.419555" lon="-7.48992"><ele>534.0</ele><time>2026-04-14T13:18:43.887Z</time></trkpt><trkpt lat="42.4196667" lon="-7.489875"><ele>534.25</ele><time>2026-04-14T13:18:44.887Z</time></trkpt><trkpt lat="42.4197933" lon="-7.489835"><ele>534.5</ele><time>2026-04-14T13:18:45.888Z</time></trkpt><trkpt lat="42.4199217" lon="-7.4898167"><ele>534.75</ele><time>2026-04-14T13:18:46.888Z</time></trkpt><trkpt lat="42.420045" lon="-7.4897967"><ele>535.0</ele><time>2026-04-14T13:18:47.888Z</time></trkpt><trkpt lat="42.420175" lon="-7.48976"><ele>535.0</ele><time>2026-04-14T13:18:48.888Z</time></trkpt><trkpt lat="42.420305" lon="-7.4897267"><ele>535.0</ele><time>2026-04-14T13:18:49.887Z</time></trkpt><trkpt lat="42.4204233" lon="-7.48973"><ele>535.0</ele><time>2026-04-14T13:18:50.887Z</time></trkpt><trkpt lat="42.4205183" lon="-7.4897633"><ele>535.0</ele><time>2026-04-14T13:18:51.887Z</time></trkpt><trkpt lat="42.4206017" lon="-7.4898233"><ele>535.0</ele><time>2026-04-14T13:18:52.887Z</time></trkpt><trkpt lat="42.4206883" lon="-7.489895"><ele>535.8</ele><time>2026-04-14T13:18:53.887Z</time></trkpt><trkpt lat="42.4207733" lon="-7.4899783"><ele>536.6</ele><time>2026-04-14T13:18:54.887Z</time></trkpt><trkpt lat="42.42086" lon="-7.4900367"><ele>537.4</ele><time>2026-04-14T13:18:55.887Z</time></trkpt><trkpt lat="42.4209517" lon="-7.49008"><ele>538.2</ele><time>2026-04-14T13:18:56.888Z</time></trkpt><trkpt lat="42.42106" lon="-7.4901167"><ele>539.0</ele><time>2026-04-14T13:18:57.888Z</time></trkpt><trkpt lat="42.421175" lon="-7.4901567"><ele>539.0</ele><time>2026-04-14T13:18:58.887Z</time></trkpt><trkpt lat="42.4213133" lon="-7.4901967"><ele>539.0</ele><time>2026-04-14T13:18:59.888Z</time></trkpt><trkpt lat="42.4214583" lon="-7.490215"><ele>539.0</ele><time>2026-04-14T13:19:00.887Z</time></trkpt><trkpt lat="42.42158" lon="-7.4902267"><ele>539.0</ele><time>2026-04-14T13:19:01.887Z</time></trkpt><trkpt lat="42.4216717" lon="-7.4902283"><ele>539.6</ele><time>2026-04-14T13:19:02.887Z</time></trkpt><trkpt lat="42.4217517" lon="-7.4902283"><ele>540.2</ele><time>2026-04-14T13:19:03.887Z</time></trkpt><trkpt lat="42.4218417" lon="-7.4902333"><ele>540.8000000000001</ele><time>2026-04-14T13:19:05.887Z</time></trkpt><trkpt lat="42.4219417" lon="-7.4902917"><ele>541.4</ele><time>2026-04-14T13:19:07.888Z</time></trkpt><trkpt lat="42.4220283" lon="-7.4903183"><ele>542.0</ele><time>2026-04-14T13:19:08.887Z</time></trkpt><trkpt lat="42.4221267" lon="-7.4903333"><ele>543.3333333333333</ele><time>2026-04-14T13:19:09.888Z</time></trkpt><trkpt lat="42.4222683" lon="-7.4903417"><ele>544.6666666666666</ele><time>2026-04-14T13:19:10.887Z</time></trkpt><trkpt lat="42.422445" lon="-7.49034"><ele>546.0</ele><time>2026-04-14T13:19:11.887Z</time></trkpt><trkpt lat="42.4226433" lon="-7.49036"><ele>546.0</ele><time>2026-04-14T13:19:12.888Z</time></trkpt><trkpt lat="42.4228467" lon="-7.490395"><ele>546.0</ele><time>2026-04-14T13:19:13.887Z</time></trkpt><trkpt lat="42.4230633" lon="-7.4904367"><ele>546.0</ele><time>2026-04-14T13:19:14.888Z</time></trkpt><trkpt lat="42.4232617" lon="-7.490475"><ele>547.3333333333334</ele><time>2026-04-14T13:19:15.888Z</time></trkpt><trkpt lat="42.4234517" lon="-7.490505"><ele>548.6666666666667</ele><time>2026-04-14T13:19:16.888Z</time></trkpt><trkpt lat="42.4236283" lon="-7.49055"><ele>550.0</ele><time>2026-04-14T13:19:17.888Z</time></trkpt><trkpt lat="42.423765" lon="-7.4906"><ele>550.75</ele><time>2026-04-14T13:19:18.887Z</time></trkpt><trkpt lat="42.4238883" lon="-7.490675"><ele>551.5</ele><time>2026-04-14T13:19:19.888Z</time></trkpt><trkpt lat="42.4240033" lon="-7.4907617"><ele>552.25</ele><time>2026-04-14T13:19:20.887Z</time></trkpt><trkpt lat="42.4241317" lon="-7.4908617"><ele>553.0</ele><time>2026-04-14T13:19:21.887Z</time></trkpt><trkpt lat="42.4242667" lon="-7.49097"><ele>553.0</ele><time>2026-04-14T13:19:22.887Z</time></trkpt><trkpt lat="42.4244033" lon="-7.4910933"><ele>553.0</ele><time>2026-04-14T13:19:23.887Z</time></trkpt><trkpt lat="42.4245433" lon="-7.4912083"><ele>553.0</ele><time>2026-04-14T13:19:24.887Z</time></trkpt><trkpt lat="42.4246867" lon="-7.4913267"><ele>553.3333333333334</ele><time>2026-04-14T13:19:25.887Z</time></trkpt><trkpt lat="42.424835" lon="-7.491445"><ele>553.6666666666666</ele><time>2026-04-14T13:19:26.888Z</time></trkpt><trkpt lat="42.424995" lon="-7.491545"><ele>554.0</ele><time>2026-04-14T13:19:27.888Z</time></trkpt><trkpt lat="42.42515" lon="-7.491645"><ele>554.0</ele><time>2026-04-14T13:19:28.887Z</time></trkpt><trkpt lat="42.4252867" lon="-7.4917533"><ele>554.0</ele><time>2026-04-14T13:19:29.887Z</time></trkpt><trkpt lat="42.42543" lon="-7.49188"><ele>554.0</ele><time>2026-04-14T13:19:30.888Z</time></trkpt><trkpt lat="42.42558" lon="-7.4919933"><ele>555.0</ele><time>2026-04-14T13:19:31.887Z</time></trkpt><trkpt lat="42.425745" lon="-7.492105"><ele>556.0</ele><time>2026-04-14T13:19:32.887Z</time></trkpt><trkpt lat="42.4259033" lon="-7.4922217"><ele>557.0</ele><time>2026-04-14T13:19:33.887Z</time></trkpt><trkpt lat="42.4260433" lon="-7.4923433"><ele>557.0</ele><time>2026-04-14T13:19:34.887Z</time></trkpt><trkpt lat="42.4261767" lon="-7.4924383"><ele>557.0</ele><time>2026-04-14T13:19:35.887Z</time></trkpt><trkpt lat="42.42633" lon="-7.4924967"><ele>557.0</ele><time>2026-04-14T13:19:36.887Z</time></trkpt><trkpt lat="42.4264833" lon="-7.492525"><ele>558.0</ele><time>2026-04-14T13:19:37.888Z</time></trkpt><trkpt lat="42.426635" lon="-7.4925233"><ele>559.0</ele><time>2026-04-14T13:19:38.887Z</time></trkpt><trkpt lat="42.4267867" lon="-7.49251"><ele>560.0</ele><time>2026-04-14T13:19:39.887Z</time></trkpt><trkpt lat="42.426925" lon="-7.4924883"><ele>561.0</ele><time>2026-04-14T13:19:40.888Z</time></trkpt><trkpt lat="42.42706" lon="-7.49246"><ele>561.5</ele><time>2026-04-14T13:19:41.887Z</time></trkpt><trkpt lat="42.4271983" lon="-7.4924383"><ele>562.0</ele><time>2026-04-14T13:19:42.887Z</time></trkpt><trkpt lat="42.4273383" lon="-7.492425"><ele>562.5</ele><time>2026-04-14T13:19:43.887Z</time></trkpt><trkpt lat="42.42749" lon="-7.4924167"><ele>563.0</ele><time>2026-04-14T13:19:44.888Z</time></trkpt><trkpt lat="42.4276533" lon="-7.492395"><ele>563.0</ele><time>2026-04-14T13:19:45.887Z</time></trkpt><trkpt lat="42.427815" lon="-7.4923683"><ele>563.0</ele><time>2026-04-14T13:19:46.888Z</time></trkpt><trkpt lat="42.4279817" lon="-7.4923367"><ele>563.0</ele><time>2026-04-14T13:19:47.888Z</time></trkpt><trkpt lat="42.4281583" lon="-7.4923067"><ele>563.6666666666666</ele><time>2026-04-14T13:19:48.887Z</time></trkpt><trkpt lat="42.4283267" lon="-7.4922817"><ele>564.3333333333334</ele><time>2026-04-14T13:19:49.887Z</time></trkpt><trkpt lat="42.4284917" lon="-7.4922367"><ele>565.0</ele><time>2026-04-14T13:19:50.888Z</time></trkpt><trkpt lat="42.4286567" lon="-7.4921967"><ele>565.0</ele><time>2026-04-14T13:19:51.887Z</time></trkpt><trkpt lat="42.4288067" lon="-7.49215"><ele>565.0</ele><time>2026-04-14T13:19:52.888Z</time></trkpt><trkpt lat="42.4289567" lon="-7.4920983"><ele>565.0</ele><time>2026-04-14T13:19:53.888Z</time></trkpt><trkpt lat="42.429095" lon="-7.4920383"><ele>566.25</ele><time>2026-04-14T13:19:54.887Z</time></trkpt><trkpt lat="42.4292267" lon="-7.49198"><ele>567.5</ele><time>2026-04-14T13:19:55.887Z</time></trkpt><trkpt lat="42.4293467" lon="-7.4919283"><ele>568.75</ele><time>2026-04-14T13:19:56.888Z</time></trkpt><trkpt lat="42.4294583" lon="-7.4918767"><ele>570.0</ele><time>2026-04-14T13:19:57.887Z</time></trkpt><trkpt lat="42.4295583" lon="-7.4918233"><ele>570.3333333333334</ele><time>2026-04-14T13:19:58.887Z</time></trkpt><trkpt lat="42.4296517" lon="-7.4917667"><ele>570.6666666666666</ele><time>2026-04-14T13:19:59.887Z</time></trkpt><trkpt lat="42.4297317" lon="-7.4917117"><ele>571.0</ele><time>2026-04-14T13:20:00.887Z</time></trkpt><trkpt lat="42.4297883" lon="-7.4916583"><ele>571.3333333333333</ele><time>2026-04-14T13:20:01.887Z</time></trkpt><trkpt lat="42.429825" lon="-7.4915833"><ele>571.6666666666666</ele><time>2026-04-14T13:20:02.887Z</time></trkpt><trkpt lat="42.4298517" lon="-7.4914867"><ele>572.0</ele><time>2026-04-14T13:20:03.888Z</time></trkpt><trkpt lat="42.4298717" lon="-7.491365"><ele>572.6</ele><time>2026-04-14T13:20:04.888Z</time></trkpt><trkpt lat="42.4299" lon="-7.491235"><ele>573.2</ele><time>2026-04-14T13:20:05.888Z</time></trkpt><trkpt lat="42.42993" lon="-7.4910917"><ele>573.8</ele><time>2026-04-14T13:20:06.887Z</time></trkpt><trkpt lat="42.4299683" lon="-7.49095"><ele>574.4</ele><time>2026-04-14T13:20:07.888Z</time></trkpt><trkpt lat="42.4300033" lon="-7.4908017"><ele>575.0</ele><time>2026-04-14T13:20:08.887Z</time></trkpt><trkpt lat="42.4300383" lon="-7.4906517"><ele>575.0</ele><time>2026-04-14T13:20:09.888Z</time></trkpt><trkpt lat="42.43008" lon="-7.4905133"><ele>575.0</ele><time>2026-04-14T13:20:10.888Z</time></trkpt><trkpt lat="42.4301267" lon="-7.4903717"><ele>575.0</ele><time>2026-04-14T13:20:11.887Z</time></trkpt><trkpt lat="42.4301717" lon="-7.490235"><ele>575.0</ele><time>2026-04-14T13:20:12.887Z</time></trkpt><trkpt lat="42.430225" lon="-7.4900967"><ele>574.75</ele><time>2026-04-14T13:20:13.887Z</time></trkpt><trkpt lat="42.43028" lon="-7.489955"><ele>574.5</ele><time>2026-04-14T13:20:14.888Z</time></trkpt><trkpt lat="42.430335" lon="-7.4898217"><ele>574.25</ele><time>2026-04-14T13:20:15.887Z</time></trkpt><trkpt lat="42.4304" lon="-7.4896883"><ele>574.0</ele><time>2026-04-14T13:20:16.888Z</time></trkpt><trkpt lat="42.4304683" lon="-7.4895583"><ele>575.25</ele><time>2026-04-14T13:20:17.888Z</time></trkpt><trkpt lat="42.430535" lon="-7.4894267"><ele>576.5</ele><time>2026-04-14T13:20:18.888Z</time></trkpt><trkpt lat="42.4306083" lon="-7.4892917"><ele>577.75</ele><time>2026-04-14T13:20:19.887Z</time></trkpt><trkpt lat="42.4306683" lon="-7.4891567"><ele>579.0</ele><time>2026-04-14T13:20:20.887Z</time></trkpt><trkpt lat="42.4307317" lon="-7.4890333"><ele>579.0</ele><time>2026-04-14T13:20:21.887Z</time></trkpt><trkpt lat="42.4307933" lon="-7.4889033"><ele>579.0</ele><time>2026-04-14T13:20:22.887Z</time></trkpt><trkpt lat="42.4308517" lon="-7.48877"><ele>579.0</ele><time>2026-04-14T13:20:23.888Z</time></trkpt><trkpt lat="42.4309017" lon="-7.4886433"><ele>579.0</ele><time>2026-04-14T13:20:24.887Z</time></trkpt><trkpt lat="42.4309467" lon="-7.4885133"><ele>579.0</ele><time>2026-04-14T13:20:25.888Z</time></trkpt><trkpt lat="42.4309883" lon="-7.4883883"><ele>579.4</ele><time>2026-04-14T13:20:26.888Z</time></trkpt><trkpt lat="42.4310233" lon="-7.4882583"><ele>579.8</ele><time>2026-04-14T13:20:27.888Z</time></trkpt><trkpt lat="42.4310533" lon="-7.488115"><ele>580.2</ele><time>2026-04-14T13:20:28.888Z</time></trkpt><trkpt lat="42.4310883" lon="-7.48797"><ele>580.6</ele><time>2026-04-14T13:20:29.887Z</time></trkpt><trkpt lat="42.431115" lon="-7.48782"><ele>581.0</ele><time>2026-04-14T13:20:30.887Z</time></trkpt><trkpt lat="42.431145" lon="-7.48767"><ele>581.2</ele><time>2026-04-14T13:20:31.887Z</time></trkpt><trkpt lat="42.4311667" lon="-7.4875183"><ele>581.4000000000001</ele><time>2026-04-14T13:20:32.887Z</time></trkpt><trkpt lat="42.4311783" lon="-7.487365"><ele>581.6</ele><time>2026-04-14T13:20:33.887Z</time></trkpt><trkpt lat="42.431185" lon="-7.4872183"><ele>581.8000000000001</ele><time>2026-04-14T13:20:34.887Z</time></trkpt><trkpt lat="42.4311967" lon="-7.4870717"><ele>582.0</ele><time>2026-04-14T13:20:35.888Z</time></trkpt><trkpt lat="42.431215" lon="-7.4869133"><ele>582.6</ele><time>2026-04-14T13:20:36.887Z</time></trkpt><trkpt lat="42.43123" lon="-7.4867617"><ele>583.2</ele><time>2026-04-14T13:20:37.887Z</time></trkpt><trkpt lat="42.4312433" lon="-7.486615"><ele>583.8</ele><time>2026-04-14T13:20:38.887Z</time></trkpt><trkpt lat="42.4312633" lon="-7.48647"><ele>584.4</ele><time>2026-04-14T13:20:39.888Z</time></trkpt><trkpt lat="42.4312667" lon="-7.4863133"><ele>585.0</ele><time>2026-04-14T13:20:40.887Z</time></trkpt><trkpt lat="42.4312817" lon="-7.4861633"><ele>585.6</ele><time>2026-04-14T13:20:41.888Z</time></trkpt><trkpt lat="42.43129" lon="-7.4860117"><ele>586.2</ele><time>2026-04-14T13:20:42.888Z</time></trkpt><trkpt lat="42.4312983" lon="-7.4858633"><ele>586.8</ele><time>2026-04-14T13:20:43.887Z</time></trkpt><trkpt lat="42.4313067" lon="-7.4857133"><ele>587.4</ele><time>2026-04-14T13:20:44.888Z</time></trkpt><trkpt lat="42.431315" lon="-7.485565"><ele>588.0</ele><time>2026-04-14T13:20:45.888Z</time></trkpt><trkpt lat="42.431325" lon="-7.4854117"><ele>588.8</ele><time>2026-04-14T13:20:46.887Z</time></trkpt><trkpt lat="42.431325" lon="-7.4852517"><ele>589.5999999999999</ele><time>2026-04-14T13:20:47.888Z</time></trkpt><trkpt lat="42.4313167" lon="-7.4851033"><ele>590.4000000000001</ele><time>2026-04-14T13:20:48.887Z</time></trkpt><trkpt lat="42.431315" lon="-7.48496"><ele>591.2</ele><time>2026-04-14T13:20:49.887Z</time></trkpt><trkpt lat="42.4313033" lon="-7.4848083"><ele>592.0</ele><time>2026-04-14T13:20:50.888Z</time></trkpt><trkpt lat="42.4312983" lon="-7.484665"><ele>592.4</ele><time>2026-04-14T13:20:51.887Z</time></trkpt><trkpt lat="42.4313067" lon="-7.4845117"><ele>592.8000000000001</ele><time>2026-04-14T13:20:52.888Z</time></trkpt><trkpt lat="42.4313083" lon="-7.4843733"><ele>593.2</ele><time>2026-04-14T13:20:53.888Z</time></trkpt><trkpt lat="42.4313117" lon="-7.4842217"><ele>593.6</ele><time>2026-04-14T13:20:54.887Z</time></trkpt><trkpt lat="42.4313117" lon="-7.4840833"><ele>594.0</ele><time>2026-04-14T13:20:55.887Z</time></trkpt><trkpt lat="42.431315" lon="-7.4839317"><ele>594.0</ele><time>2026-04-14T13:20:56.887Z</time></trkpt><trkpt lat="42.4313117" lon="-7.4837733"><ele>594.0</ele><time>2026-04-14T13:20:57.888Z</time></trkpt><trkpt lat="42.43129" lon="-7.483615"><ele>594.0</ele><time>2026-04-14T13:20:58.888Z</time></trkpt><trkpt lat="42.4312633" lon="-7.48346"><ele>594.0</ele><time>2026-04-14T13:20:59.888Z</time></trkpt><trkpt lat="42.43123" lon="-7.4833233"><ele>595.2</ele><time>2026-04-14T13:21:00.888Z</time></trkpt><trkpt lat="42.4311933" lon="-7.483195"><ele>596.4</ele><time>2026-04-14T13:21:01.888Z</time></trkpt><trkpt lat="42.4311483" lon="-7.4830683"><ele>597.6</ele><time>2026-04-14T13:21:02.887Z</time></trkpt><trkpt lat="42.4310983" lon="-7.4829467"><ele>598.8</ele><time>2026-04-14T13:21:03.887Z</time></trkpt><trkpt lat="42.43103" lon="-7.48285"><ele>600.0</ele><time>2026-04-14T13:21:04.887Z</time></trkpt><trkpt lat="42.43095" lon="-7.48278"><ele>600.2</ele><time>2026-04-14T13:21:05.888Z</time></trkpt><trkpt lat="42.4308517" lon="-7.4827183"><ele>600.4</ele><time>2026-04-14T13:21:06.887Z</time></trkpt><trkpt lat="42.4307533" lon="-7.4826817"><ele>600.6</ele><time>2026-04-14T13:21:07.887Z</time></trkpt><trkpt lat="42.4306533" lon="-7.4826417"><ele>600.8</ele><time>2026-04-14T13:21:08.888Z</time></trkpt><trkpt lat="42.4305533" lon="-7.4826017"><ele>601.0</ele><time>2026-04-14T13:21:09.887Z</time></trkpt><trkpt lat="42.4304517" lon="-7.4825567"><ele>601.8</ele><time>2026-04-14T13:21:10.887Z</time></trkpt><trkpt lat="42.4303633" lon="-7.482505"><ele>602.6</ele><time>2026-04-14T13:21:11.887Z</time></trkpt><trkpt lat="42.43028" lon="-7.4824383"><ele>603.4</ele><time>2026-04-14T13:21:12.887Z</time></trkpt><trkpt lat="42.430195" lon="-7.482355"><ele>604.2</ele><time>2026-04-14T13:21:13.888Z</time></trkpt><trkpt lat="42.4301067" lon="-7.4822583"><ele>605.0</ele><time>2026-04-14T13:21:14.888Z</time></trkpt><trkpt lat="42.4300333" lon="-7.482145"><ele>605.4</ele><time>2026-04-14T13:21:15.888Z</time></trkpt><trkpt lat="42.4299717" lon="-7.4820233"><ele>605.8</ele><time>2026-04-14T13:21:16.887Z</time></trkpt><trkpt lat="42.429925" lon="-7.4818983"><ele>606.2</ele><time>2026-04-14T13:21:17.888Z</time></trkpt><trkpt lat="42.4299" lon="-7.481775"><ele>606.6</ele><time>2026-04-14T13:21:18.888Z</time></trkpt><trkpt lat="42.4298967" lon="-7.481655"><ele>607.0</ele><time>2026-04-14T13:21:19.888Z</time></trkpt><trkpt lat="42.42989" lon="-7.4815367"><ele>607.0</ele><time>2026-04-14T13:21:20.888Z</time></trkpt><trkpt lat="42.4298767" lon="-7.4814467"><ele>607.0</ele><time>2026-04-14T13:21:21.888Z</time></trkpt><trkpt lat="42.4298333" lon="-7.48137"><ele>607.0</ele><time>2026-04-14T13:21:23.888Z</time></trkpt><trkpt lat="42.4297583" lon="-7.4814533"><ele>607.0</ele><time>2026-04-14T13:21:25.888Z</time></trkpt><trkpt lat="42.4297017" lon="-7.4815583"><ele>607.0</ele><time>2026-04-14T13:21:26.888Z</time></trkpt><trkpt lat="42.4296267" lon="-7.4816417"><ele>607.0</ele><time>2026-04-14T13:21:27.888Z</time></trkpt><trkpt lat="42.4295367" lon="-7.48168"><ele>608.2</ele><time>2026-04-14T13:21:28.888Z</time></trkpt><trkpt lat="42.42944" lon="-7.48169"><ele>609.4000000000001</ele><time>2026-04-14T13:21:29.887Z</time></trkpt><trkpt lat="42.429335" lon="-7.4816567"><ele>610.5999999999999</ele><time>2026-04-14T13:21:30.887Z</time></trkpt><trkpt lat="42.4292317" lon="-7.4815983"><ele>611.8</ele><time>2026-04-14T13:21:31.887Z</time></trkpt><trkpt lat="42.4291217" lon="-7.4815283"><ele>613.0</ele><time>2026-04-14T13:21:32.887Z</time></trkpt><trkpt lat="42.4290117" lon="-7.4814533"><ele>613.0</ele><time>2026-04-14T13:21:33.888Z</time></trkpt><trkpt lat="42.4289067" lon="-7.4813733"><ele>613.0</ele><time>2026-04-14T13:21:34.888Z</time></trkpt><trkpt lat="42.4287917" lon="-7.4812817"><ele>613.0</ele><time>2026-04-14T13:21:35.887Z</time></trkpt><trkpt lat="42.4286867" lon="-7.4812033"><ele>613.0</ele><time>2026-04-14T13:21:36.887Z</time></trkpt><trkpt lat="42.4285867" lon="-7.48112"><ele>614.25</ele><time>2026-04-14T13:21:37.888Z</time></trkpt><trkpt lat="42.42848" lon="-7.4810367"><ele>615.5</ele><time>2026-04-14T13:21:38.888Z</time></trkpt><trkpt lat="42.42837" lon="-7.4809583"><ele>616.75</ele><time>2026-04-14T13:21:39.887Z</time></trkpt><trkpt lat="42.4282717" lon="-7.4808833"><ele>618.0</ele><time>2026-04-14T13:21:40.887Z</time></trkpt><trkpt lat="42.4281667" lon="-7.4808"><ele>618.0</ele><time>2026-04-14T13:21:41.887Z</time></trkpt><trkpt lat="42.4280667" lon="-7.48073"><ele>618.0</ele><time>2026-04-14T13:21:42.888Z</time></trkpt><trkpt lat="42.4279617" lon="-7.4806567"><ele>618.0</ele><time>2026-04-14T13:21:43.888Z</time></trkpt><trkpt lat="42.4278567" lon="-7.480585"><ele>618.0</ele><time>2026-04-14T13:21:44.888Z</time></trkpt><trkpt lat="42.42776" lon="-7.4805217"><ele>617.8</ele><time>2026-04-14T13:21:45.888Z</time></trkpt><trkpt lat="42.4276683" lon="-7.480465"><ele>617.5999999999999</ele><time>2026-04-14T13:21:46.888Z</time></trkpt><trkpt lat="42.42759" lon="-7.4804117"><ele>617.4000000000001</ele><time>2026-04-14T13:21:47.887Z</time></trkpt><trkpt lat="42.4275183" lon="-7.4803483"><ele>617.2</ele><time>2026-04-14T13:21:48.888Z</time></trkpt><trkpt lat="42.4274533" lon="-7.4802667"><ele>617.0</ele><time>2026-04-14T13:21:49.887Z</time></trkpt><trkpt lat="42.427405" lon="-7.4801683"><ele>617.0</ele><time>2026-04-14T13:21:50.887Z</time></trkpt><trkpt lat="42.4273567" lon="-7.4800583"><ele>617.0</ele><time>2026-04-14T13:21:51.887Z</time></trkpt><trkpt lat="42.427295" lon="-7.4799433"><ele>617.0</ele><time>2026-04-14T13:21:52.887Z</time></trkpt><trkpt lat="42.4272317" lon="-7.4798283"><ele>617.0</ele><time>2026-04-14T13:21:53.888Z</time></trkpt><trkpt lat="42.4271633" lon="-7.479705"><ele>617.0</ele><time>2026-04-14T13:21:54.888Z</time></trkpt><trkpt lat="42.427095" lon="-7.4795667"><ele>616.5</ele><time>2026-04-14T13:21:55.887Z</time></trkpt><trkpt lat="42.4270267" lon="-7.4794183"><ele>616.0</ele><time>2026-04-14T13:21:56.887Z</time></trkpt><trkpt lat="42.4269683" lon="-7.479265"><ele>615.5</ele><time>2026-04-14T13:21:57.887Z</time></trkpt><trkpt lat="42.426915" lon="-7.4791133"><ele>615.0</ele><time>2026-04-14T13:21:58.887Z</time></trkpt><trkpt lat="42.426865" lon="-7.4789767"><ele>615.0</ele><time>2026-04-14T13:21:59.888Z</time></trkpt><trkpt lat="42.4268017" lon="-7.47884"><ele>615.0</ele><time>2026-04-14T13:22:00.887Z</time></trkpt><trkpt lat="42.4267367" lon="-7.4787117"><ele>615.0</ele><time>2026-04-14T13:22:01.887Z</time></trkpt><trkpt lat="42.4266683" lon="-7.4785817"><ele>615.0</ele><time>2026-04-14T13:22:02.888Z</time></trkpt><trkpt lat="42.4266017" lon="-7.47846"><ele>616.0</ele><time>2026-04-14T13:22:03.888Z</time></trkpt><trkpt lat="42.42654" lon="-7.478325"><ele>617.0</ele><time>2026-04-14T13:22:04.887Z</time></trkpt><trkpt lat="42.4264933" lon="-7.4781833"><ele>618.0</ele><time>2026-04-14T13:22:05.887Z</time></trkpt><trkpt lat="42.4264583" lon="-7.478035"><ele>619.0</ele><time>2026-04-14T13:22:06.888Z</time></trkpt><trkpt lat="42.4264433" lon="-7.47787"><ele>620.25</ele><time>2026-04-14T13:22:07.888Z</time></trkpt><trkpt lat="42.4264317" lon="-7.4776983"><ele>621.5</ele><time>2026-04-14T13:22:08.887Z</time></trkpt><trkpt lat="42.4264083" lon="-7.4775383"><ele>622.75</ele><time>2026-04-14T13:22:09.887Z</time></trkpt><trkpt lat="42.42638" lon="-7.4773733"><ele>624.0</ele><time>2026-04-14T13:22:10.887Z</time></trkpt><trkpt lat="42.4263383" lon="-7.4772067"><ele>623.2</ele><time>2026-04-14T13:22:11.887Z</time></trkpt><trkpt lat="42.4262917" lon="-7.4770533"><ele>622.4</ele><time>2026-04-14T13:22:12.887Z</time></trkpt><trkpt lat="42.4262533" lon="-7.4769117"><ele>621.6</ele><time>2026-04-14T13:22:13.888Z</time></trkpt><trkpt lat="42.4262217" lon="-7.4767833"><ele>620.8</ele><time>2026-04-14T13:22:14.887Z</time></trkpt><trkpt lat="42.426185" lon="-7.4766617"><ele>620.0</ele><time>2026-04-14T13:22:15.888Z</time></trkpt><trkpt lat="42.4261533" lon="-7.47654"><ele>620.0</ele><time>2026-04-14T13:22:16.887Z</time></trkpt><trkpt lat="42.4261183" lon="-7.47641"><ele>620.0</ele><time>2026-04-14T13:22:17.887Z</time></trkpt><trkpt lat="42.4260733" lon="-7.476275"><ele>620.0</ele><time>2026-04-14T13:22:18.887Z</time></trkpt><trkpt lat="42.426025" lon="-7.4761367"><ele>620.0</ele><time>2026-04-14T13:22:19.887Z</time></trkpt><trkpt lat="42.4259767" lon="-7.47601"><ele>620.0</ele><time>2026-04-14T13:22:20.888Z</time></trkpt><trkpt lat="42.42592" lon="-7.4759033"><ele>620.8333333333333</ele><time>2026-04-14T13:22:21.888Z</time></trkpt><trkpt lat="42.4258583" lon="-7.4758167"><ele>621.6666666666666</ele><time>2026-04-14T13:22:22.888Z</time></trkpt><trkpt lat="42.4257917" lon="-7.4757383"><ele>622.5</ele><time>2026-04-14T13:22:23.888Z</time></trkpt><trkpt lat="42.425725" lon="-7.4756567"><ele>623.3333333333334</ele><time>2026-04-14T13:22:24.888Z</time></trkpt><trkpt lat="42.4256533" lon="-7.4755783"><ele>624.1666666666667</ele><time>2026-04-14T13:22:25.887Z</time></trkpt><trkpt lat="42.4255817" lon="-7.4755083"><ele>625.0</ele><time>2026-04-14T13:22:26.888Z</time></trkpt><trkpt lat="42.425515" lon="-7.4754383"><ele>624.2</ele><time>2026-04-14T13:22:27.887Z</time></trkpt><trkpt lat="42.42545" lon="-7.47536"><ele>623.4</ele><time>2026-04-14T13:22:28.887Z</time></trkpt><trkpt lat="42.425395" lon="-7.47527"><ele>622.6</ele><time>2026-04-14T13:22:29.887Z</time></trkpt><trkpt lat="42.42536" lon="-7.4751683"><ele>621.8</ele><time>2026-04-14T13:22:30.887Z</time></trkpt><trkpt lat="42.4253367" lon="-7.4750467"><ele>621.0</ele><time>2026-04-14T13:22:31.888Z</time></trkpt><trkpt lat="42.4253417" lon="-7.4748983"><ele>621.0</ele><time>2026-04-14T13:22:32.888Z</time></trkpt><trkpt lat="42.4253583" lon="-7.4747333"><ele>621.0</ele><time>2026-04-14T13:22:33.888Z</time></trkpt><trkpt lat="42.42539" lon="-7.4745467"><ele>621.0</ele><time>2026-04-14T13:22:34.888Z</time></trkpt><trkpt lat="42.425435" lon="-7.474325"><ele>621.0</ele><time>2026-04-14T13:22:35.888Z</time></trkpt><trkpt lat="42.4254883" lon="-7.474095"><ele>625.3333333333334</ele><time>2026-04-14T13:22:36.888Z</time></trkpt><trkpt lat="42.42555" lon="-7.4738583"><ele>629.6666666666667</ele><time>2026-04-14T13:22:37.888Z</time></trkpt><trkpt lat="42.4255983" lon="-7.473615"><ele>634.0</ele><time>2026-04-14T13:22:38.887Z</time></trkpt><trkpt lat="42.4256383" lon="-7.4733417"><ele>635.3333333333334</ele><time>2026-04-14T13:22:39.887Z</time></trkpt><trkpt lat="42.425685" lon="-7.4730733"><ele>636.6666666666666</ele><time>2026-04-14T13:22:40.887Z</time></trkpt><trkpt lat="42.4257183" lon="-7.4728333"><ele>638.0</ele><time>2026-04-14T13:22:41.888Z</time></trkpt><trkpt lat="42.4257733" lon="-7.4726183"><ele>639.3333333333333</ele><time>2026-04-14T13:22:42.888Z</time></trkpt><trkpt lat="42.4258467" lon="-7.4724"><ele>640.6666666666666</ele><time>2026-04-14T13:22:43.888Z</time></trkpt><trkpt lat="42.4259133" lon="-7.47219"><ele>642.0</ele><time>2026-04-14T13:22:44.887Z</time></trkpt><trkpt lat="42.4260033" lon="-7.4719783"><ele>642.75</ele><time>2026-04-14T13:22:45.887Z</time></trkpt><trkpt lat="42.4260883" lon="-7.4717883"><ele>643.5</ele><time>2026-04-14T13:22:46.887Z</time></trkpt><trkpt lat="42.426165" lon="-7.47161"><ele>644.25</ele><time>2026-04-14T13:22:47.887Z</time></trkpt><trkpt lat="42.4262283" lon="-7.4714633"><ele>645.0</ele><time>2026-04-14T13:22:48.888Z</time></trkpt><trkpt lat="42.4262583" lon="-7.4713567"><ele>646.0</ele><time>2026-04-14T13:22:49.888Z</time></trkpt><trkpt lat="42.4261933" lon="-7.4712083"><ele>647.0</ele><time>2026-04-14T13:22:51.889Z</time></trkpt><trkpt lat="42.4261267" lon="-7.4711267"><ele>648.0</ele><time>2026-04-14T13:22:52.888Z</time></trkpt><trkpt lat="42.4260183" lon="-7.4710017"><ele>649.0</ele><time>2026-04-14T13:22:53.888Z</time></trkpt><trkpt lat="42.4258917" lon="-7.470855"><ele>649.0</ele><time>2026-04-14T13:22:54.888Z</time></trkpt><trkpt lat="42.4257733" lon="-7.47069"><ele>649.0</ele><time>2026-04-14T13:22:55.888Z</time></trkpt><trkpt lat="42.4256767" lon="-7.4705217"><ele>649.0</ele><time>2026-04-14T13:22:56.888Z</time></trkpt><trkpt lat="42.4255783" lon="-7.470365"><ele>647.0</ele><time>2026-04-14T13:22:57.888Z</time></trkpt><trkpt lat="42.42546" lon="-7.4702183"><ele>645.0</ele><time>2026-04-14T13:22:58.888Z</time></trkpt><trkpt lat="42.4253467" lon="-7.4700767"><ele>643.0</ele><time>2026-04-14T13:22:59.888Z</time></trkpt><trkpt lat="42.4252333" lon="-7.4699167"><ele>643.0</ele><time>2026-04-14T13:23:00.888Z</time></trkpt><trkpt lat="42.4251133" lon="-7.46974"><ele>643.0</ele><time>2026-04-14T13:23:01.889Z</time></trkpt><trkpt lat="42.424985" lon="-7.469575"><ele>643.0</ele><time>2026-04-14T13:23:02.889Z</time></trkpt><trkpt lat="42.4248533" lon="-7.4694083"><ele>642.5</ele><time>2026-04-14T13:23:03.888Z</time></trkpt><trkpt lat="42.42473" lon="-7.46926"><ele>642.0</ele><time>2026-04-14T13:23:04.889Z</time></trkpt><trkpt lat="42.4246233" lon="-7.469135"><ele>641.5</ele><time>2026-04-14T13:23:05.889Z</time></trkpt><trkpt lat="42.424545" lon="-7.469015"><ele>641.0</ele><time>2026-04-14T13:23:06.889Z</time></trkpt><trkpt lat="42.4244917" lon="-7.468875"><ele>643.5</ele><time>2026-04-14T13:23:07.889Z</time></trkpt><trkpt lat="42.42444" lon="-7.4687133"><ele>646.0</ele><time>2026-04-14T13:23:08.889Z</time></trkpt><trkpt lat="42.4243717" lon="-7.4685433"><ele>648.5</ele><time>2026-04-14T13:23:09.889Z</time></trkpt><trkpt lat="42.4243083" lon="-7.4683733"><ele>651.0</ele><time>2026-04-14T13:23:10.888Z</time></trkpt><trkpt lat="42.4242417" lon="-7.468175"><ele>651.0</ele><time>2026-04-14T13:23:11.888Z</time></trkpt><trkpt lat="42.4241783" lon="-7.4679683"><ele>651.0</ele><time>2026-04-14T13:23:12.888Z</time></trkpt><trkpt lat="42.4241067" lon="-7.4677817"><ele>651.0</ele><time>2026-04-14T13:23:13.889Z</time></trkpt><trkpt lat="42.4240517" lon="-7.4676017"><ele>654.0</ele><time>2026-04-14T13:23:14.888Z</time></trkpt><trkpt lat="42.42401" lon="-7.4674083"><ele>657.0</ele><time>2026-04-14T13:23:15.889Z</time></trkpt><trkpt lat="42.423985" lon="-7.4672117"><ele>660.0</ele><time>2026-04-14T13:23:16.889Z</time></trkpt><trkpt lat="42.4239633" lon="-7.4669917"><ele>662.0</ele><time>2026-04-14T13:23:17.889Z</time></trkpt><trkpt lat="42.4239367" lon="-7.4667817"><ele>664.0</ele><time>2026-04-14T13:23:18.889Z</time></trkpt><trkpt lat="42.4239017" lon="-7.4665417"><ele>666.0</ele><time>2026-04-14T13:23:19.889Z</time></trkpt><trkpt lat="42.4238617" lon="-7.4663017"><ele>664.6666666666666</ele><time>2026-04-14T13:23:20.889Z</time></trkpt><trkpt lat="42.42381" lon="-7.4660583"><ele>663.3333333333333</ele><time>2026-04-14T13:23:21.889Z</time></trkpt><trkpt lat="42.42373" lon="-7.4658083"><ele>662.0</ele><time>2026-04-14T13:23:22.889Z</time></trkpt><trkpt lat="42.4236483" lon="-7.4655383"><ele>664.3333333333333</ele><time>2026-04-14T13:23:23.889Z</time></trkpt><trkpt lat="42.42356" lon="-7.4653167"><ele>666.6666666666666</ele><time>2026-04-14T13:23:24.888Z</time></trkpt><trkpt lat="42.4234517" lon="-7.465125"><ele>669.0</ele><time>2026-04-14T13:23:25.888Z</time></trkpt><trkpt lat="42.423345" lon="-7.46494"><ele>669.0</ele><time>2026-04-14T13:23:26.889Z</time></trkpt><trkpt lat="42.42323" lon="-7.46477"><ele>669.0</ele><time>2026-04-14T13:23:27.889Z</time></trkpt><trkpt lat="42.42311" lon="-7.464615"><ele>669.0</ele><time>2026-04-14T13:23:28.889Z</time></trkpt><trkpt lat="42.4229817" lon="-7.46448"><ele>667.0</ele><time>2026-04-14T13:23:29.889Z</time></trkpt><trkpt lat="42.4228517" lon="-7.4643367"><ele>665.0</ele><time>2026-04-14T13:23:30.888Z</time></trkpt><trkpt lat="42.4227217" lon="-7.4641767"><ele>663.0</ele><time>2026-04-14T13:23:31.888Z</time></trkpt><trkpt lat="42.4225933" lon="-7.463995"><ele>663.0</ele><time>2026-04-14T13:23:32.889Z</time></trkpt><trkpt lat="42.4224767" lon="-7.4638133"><ele>663.0</ele><time>2026-04-14T13:23:33.888Z</time></trkpt><trkpt lat="42.4223817" lon="-7.4636283"><ele>663.0</ele><time>2026-04-14T13:23:34.888Z</time></trkpt><trkpt lat="42.4223067" lon="-7.4634567"><ele>663.0</ele><time>2026-04-14T13:23:35.888Z</time></trkpt><trkpt lat="42.4222483" lon="-7.4632767"><ele>663.0</ele><time>2026-04-14T13:23:36.889Z</time></trkpt><trkpt lat="42.42218" lon="-7.4630883"><ele>663.0</ele><time>2026-04-14T13:23:37.888Z</time></trkpt><trkpt lat="42.4221333" lon="-7.462875"><ele>663.0</ele><time>2026-04-14T13:23:38.888Z</time></trkpt><trkpt lat="42.4221033" lon="-7.4626667"><ele>663.0</ele><time>2026-04-14T13:23:39.888Z</time></trkpt><trkpt lat="42.4220667" lon="-7.4624533"><ele>663.0</ele><time>2026-04-14T13:23:40.889Z</time></trkpt><trkpt lat="42.4220283" lon="-7.46224"><ele>665.6666666666666</ele><time>2026-04-14T13:23:41.889Z</time></trkpt><trkpt lat="42.4219767" lon="-7.4620383"><ele>668.3333333333333</ele><time>2026-04-14T13:23:42.888Z</time></trkpt><trkpt lat="42.4219183" lon="-7.4618433"><ele>671.0</ele><time>2026-04-14T13:23:43.888Z</time></trkpt><trkpt lat="42.4218583" lon="-7.4616567"><ele>671.0</ele><time>2026-04-14T13:23:44.888Z</time></trkpt><trkpt lat="42.4218067" lon="-7.461465"><ele>671.0</ele><time>2026-04-14T13:23:45.889Z</time></trkpt><trkpt lat="42.4217633" lon="-7.4612667"><ele>671.0</ele><time>2026-04-14T13:23:46.889Z</time></trkpt><trkpt lat="42.42173" lon="-7.4610767"><ele>671.0</ele><time>2026-04-14T13:23:47.888Z</time></trkpt><trkpt lat="42.4216883" lon="-7.4608783"><ele>674.0</ele><time>2026-04-14T13:23:48.889Z</time></trkpt><trkpt lat="42.42167" lon="-7.4606617"><ele>677.0</ele><time>2026-04-14T13:23:49.888Z</time></trkpt><trkpt lat="42.42165" lon="-7.4604517"><ele>680.0</ele><time>2026-04-14T13:23:50.888Z</time></trkpt><trkpt lat="42.4216383" lon="-7.460245"><ele>681.25</ele><time>2026-04-14T13:23:51.888Z</time></trkpt><trkpt lat="42.4216233" lon="-7.4600517"><ele>682.5</ele><time>2026-04-14T13:23:52.889Z</time></trkpt><trkpt lat="42.4215917" lon="-7.4598617"><ele>683.75</ele><time>2026-04-14T13:23:53.888Z</time></trkpt><trkpt lat="42.42157" lon="-7.4597117"><ele>685.0</ele><time>2026-04-14T13:23:54.889Z</time></trkpt><trkpt lat="42.4215717" lon="-7.4595917"><ele>685.0</ele><time>2026-04-14T13:23:55.889Z</time></trkpt><trkpt lat="42.4215817" lon="-7.459505"><ele>685.0</ele><time>2026-04-14T13:23:56.889Z</time></trkpt><trkpt lat="42.421655" lon="-7.4595"><ele>685.0</ele><time>2026-04-14T13:23:58.888Z</time></trkpt><trkpt lat="42.4217083" lon="-7.459555"><ele>685.0</ele><time>2026-04-14T13:23:59.888Z</time></trkpt><trkpt lat="42.4217617" lon="-7.4596517"><ele>685.0</ele><time>2026-04-14T13:24:00.889Z</time></trkpt><trkpt lat="42.4218233" lon="-7.459775"><ele>685.0</ele><time>2026-04-14T13:24:01.888Z</time></trkpt><trkpt lat="42.42189" lon="-7.459895"><ele>685.25</ele><time>2026-04-14T13:24:02.888Z</time></trkpt><trkpt lat="42.4219783" lon="-7.4600233"><ele>685.5</ele><time>2026-04-14T13:24:03.888Z</time></trkpt><trkpt lat="42.4220767" lon="-7.4601567"><ele>685.75</ele><time>2026-04-14T13:24:04.888Z</time></trkpt><trkpt lat="42.4221783" lon="-7.4602967"><ele>686.0</ele><time>2026-04-14T13:24:05.889Z</time></trkpt><trkpt lat="42.422285" lon="-7.460435"><ele>687.6666666666666</ele><time>2026-04-14T13:24:06.889Z</time></trkpt><trkpt lat="42.4224083" lon="-7.460555"><ele>689.3333333333334</ele><time>2026-04-14T13:24:07.889Z</time></trkpt><trkpt lat="42.4225383" lon="-7.4606817"><ele>691.0</ele><time>2026-04-14T13:24:08.889Z</time></trkpt><trkpt lat="42.4226717" lon="-7.46079"><ele>691.0</ele><time>2026-04-14T13:24:09.888Z</time></trkpt><trkpt lat="42.4228267" lon="-7.4609033"><ele>691.0</ele><time>2026-04-14T13:24:10.889Z</time></trkpt><trkpt lat="42.42299" lon="-7.4610333"><ele>691.0</ele><time>2026-04-14T13:24:11.889Z</time></trkpt><trkpt lat="42.4231517" lon="-7.4611617"><ele>694.3333333333334</ele><time>2026-04-14T13:24:12.888Z</time></trkpt><trkpt lat="42.42331" lon="-7.4612917"><ele>697.6666666666666</ele><time>2026-04-14T13:24:13.889Z</time></trkpt><trkpt lat="42.4234667" lon="-7.4614433"><ele>701.0</ele><time>2026-04-14T13:24:14.888Z</time></trkpt><trkpt lat="42.4236217" lon="-7.461605"><ele>701.0</ele><time>2026-04-14T13:24:15.888Z</time></trkpt><trkpt lat="42.4237783" lon="-7.461775"><ele>701.0</ele><time>2026-04-14T13:24:16.888Z</time></trkpt><trkpt lat="42.4239383" lon="-7.4619417"><ele>701.0</ele><time>2026-04-14T13:24:17.889Z</time></trkpt><trkpt lat="42.42409" lon="-7.4620817"><ele>703.0</ele><time>2026-04-14T13:24:18.889Z</time></trkpt><trkpt lat="42.424235" lon="-7.46223"><ele>705.0</ele><time>2026-04-14T13:24:19.888Z</time></trkpt><trkpt lat="42.42436" lon="-7.4623717"><ele>707.0</ele><time>2026-04-14T13:24:20.888Z</time></trkpt><trkpt lat="42.42448" lon="-7.462525"><ele>707.0</ele><time>2026-04-14T13:24:21.889Z</time></trkpt><trkpt lat="42.424605" lon="-7.4626983"><ele>707.0</ele><time>2026-04-14T13:24:22.888Z</time></trkpt><trkpt lat="42.4247017" lon="-7.4628267"><ele>707.0</ele><time>2026-04-14T13:24:23.888Z</time></trkpt><trkpt lat="42.424795" lon="-7.4629417"><ele>707.0</ele><time>2026-04-14T13:24:24.889Z</time></trkpt><trkpt lat="42.4249083" lon="-7.4630533"><ele>707.6666666666666</ele><time>2026-04-14T13:24:25.888Z</time></trkpt><trkpt lat="42.425035" lon="-7.4631917"><ele>708.3333333333334</ele><time>2026-04-14T13:24:26.889Z</time></trkpt><trkpt lat="42.425165" lon="-7.4633417"><ele>709.0</ele><time>2026-04-14T13:24:27.888Z</time></trkpt><trkpt lat="42.4252983" lon="-7.4635233"><ele>709.0</ele><time>2026-04-14T13:24:28.889Z</time></trkpt><trkpt lat="42.4254233" lon="-7.463725"><ele>709.0</ele><time>2026-04-14T13:24:29.888Z</time></trkpt><trkpt lat="42.4255417" lon="-7.4639283"><ele>709.0</ele><time>2026-04-14T13:24:30.888Z</time></trkpt><trkpt lat="42.4256617" lon="-7.4641233"><ele>709.0</ele><time>2026-04-14T13:24:31.888Z</time></trkpt><trkpt lat="42.425785" lon="-7.4643167"><ele>709.0</ele><time>2026-04-14T13:24:32.888Z</time></trkpt><trkpt lat="42.4258917" lon="-7.4645017"><ele>709.0</ele><time>2026-04-14T13:24:33.889Z</time></trkpt><trkpt lat="42.4259867" lon="-7.4646817"><ele>707.3333333333334</ele><time>2026-04-14T13:24:34.888Z</time></trkpt><trkpt lat="42.4260667" lon="-7.4648717"><ele>705.6666666666666</ele><time>2026-04-14T13:24:35.888Z</time></trkpt><trkpt lat="42.42616" lon="-7.46504"><ele>704.0</ele><time>2026-04-14T13:24:36.888Z</time></trkpt><trkpt lat="42.4262767" lon="-7.4651983"><ele>703.3333333333333</ele><time>2026-04-14T13:24:37.889Z</time></trkpt><trkpt lat="42.4264183" lon="-7.46535"><ele>702.6666666666666</ele><time>2026-04-14T13:24:38.888Z</time></trkpt><trkpt lat="42.42657" lon="-7.4654983"><ele>702.0</ele><time>2026-04-14T13:24:39.888Z</time></trkpt><trkpt lat="42.426735" lon="-7.4656567"><ele>702.0</ele><time>2026-04-14T13:24:40.888Z</time></trkpt><trkpt lat="42.4269083" lon="-7.465815"><ele>702.0</ele><time>2026-04-14T13:24:41.888Z</time></trkpt><trkpt lat="42.4270717" lon="-7.4659717"><ele>702.0</ele><time>2026-04-14T13:24:42.889Z</time></trkpt><trkpt lat="42.4272417" lon="-7.4661233"><ele>701.0</ele><time>2026-04-14T13:24:43.888Z</time></trkpt><trkpt lat="42.42739" lon="-7.466275"><ele>700.0</ele><time>2026-04-14T13:24:44.889Z</time></trkpt><trkpt lat="42.4275283" lon="-7.46641"><ele>699.0</ele><time>2026-04-14T13:24:45.888Z</time></trkpt><trkpt lat="42.42765" lon="-7.4665433"><ele>698.4000000000001</ele><time>2026-04-14T13:24:46.889Z</time></trkpt><trkpt lat="42.4277517" lon="-7.4666383"><ele>697.8</ele><time>2026-04-14T13:24:47.888Z</time></trkpt><trkpt lat="42.4278383" lon="-7.4667067"><ele>697.2</ele><time>2026-04-14T13:24:48.889Z</time></trkpt><trkpt lat="42.427915" lon="-7.4667317"><ele>696.5999999999999</ele><time>2026-04-14T13:24:49.889Z</time></trkpt><trkpt lat="42.428005" lon="-7.466735"><ele>696.0</ele><time>2026-04-14T13:24:50.889Z</time></trkpt><trkpt lat="42.4280883" lon="-7.4667117"><ele>696.0</ele><time>2026-04-14T13:24:51.888Z</time></trkpt><trkpt lat="42.4281583" lon="-7.4666833"><ele>696.0</ele><time>2026-04-14T13:24:52.888Z</time></trkpt><trkpt lat="42.4282483" lon="-7.4666433"><ele>696.0</ele><time>2026-04-14T13:24:54.888Z</time></trkpt><trkpt lat="42.4282933" lon="-7.4665633"><ele>696.0</ele><time>2026-04-14T13:24:57.889Z</time></trkpt><trkpt lat="42.4282233" lon="-7.4665067"><ele>696.0</ele><time>2026-04-14T13:24:59.888Z</time></trkpt><trkpt lat="42.4281233" lon="-7.466485"><ele>696.0</ele><time>2026-04-14T13:25:01.889Z</time></trkpt><trkpt lat="42.4280817" lon="-7.4664167"><ele>696.0</ele><time>2026-04-14T13:25:03.888Z</time></trkpt><trkpt lat="42.4280533" lon="-7.4662733"><ele>696.0</ele><time>2026-04-14T13:25:05.888Z</time></trkpt><trkpt lat="42.428055" lon="-7.4661183"><ele>696.0</ele><time>2026-04-14T13:25:07.888Z</time></trkpt><trkpt lat="42.428045" lon="-7.46602"><ele>696.0</ele><time>2026-04-14T13:25:09.888Z</time></trkpt><trkpt lat="42.42807" lon="-7.4660983"><ele>696.0</ele><time>2026-04-14T13:25:13.888Z</time></trkpt><trkpt lat="42.4280617" lon="-7.4661833"><ele>696.0</ele><time>2026-04-14T13:25:14.889Z</time></trkpt><trkpt lat="42.42805" lon="-7.4662933"><ele>696.0</ele><time>2026-04-14T13:25:15.889Z</time></trkpt><trkpt lat="42.4280517" lon="-7.4664183"><ele>696.0</ele><time>2026-04-14T13:25:16.889Z</time></trkpt><trkpt lat="42.4280717" lon="-7.4665217"><ele>696.0</ele><time>2026-04-14T13:25:17.889Z</time></trkpt><trkpt lat="42.4281083" lon="-7.46661"><ele>696.0</ele><time>2026-04-14T13:25:18.889Z</time></trkpt><trkpt lat="42.4281733" lon="-7.46666"><ele>696.0</ele><time>2026-04-14T13:25:19.889Z</time></trkpt><trkpt lat="42.4282567" lon="-7.4666867"><ele>696.0</ele><time>2026-04-14T13:25:20.889Z</time></trkpt><trkpt lat="42.4283433" lon="-7.4667267"><ele>696.0</ele><time>2026-04-14T13:25:21.889Z</time></trkpt><trkpt lat="42.4284217" lon="-7.466795"><ele>696.0</ele><time>2026-04-14T13:25:22.889Z</time></trkpt><trkpt lat="42.4284867" lon="-7.4669083"><ele>696.0</ele><time>2026-04-14T13:25:23.888Z</time></trkpt><trkpt lat="42.428545" lon="-7.467045"><ele>696.0</ele><time>2026-04-14T13:25:24.889Z</time></trkpt><trkpt lat="42.428615" lon="-7.46719"><ele>696.0</ele><time>2026-04-14T13:25:25.889Z</time></trkpt><trkpt lat="42.4286917" lon="-7.467315"><ele>696.25</ele><time>2026-04-14T13:25:26.888Z</time></trkpt><trkpt lat="42.4287833" lon="-7.46742"><ele>696.5</ele><time>2026-04-14T13:25:27.888Z</time></trkpt><trkpt lat="42.4288817" lon="-7.4675283"><ele>696.75</ele><time>2026-04-14T13:25:28.889Z</time></trkpt><trkpt lat="42.428995" lon="-7.4676483"><ele>697.0</ele><time>2026-04-14T13:25:29.888Z</time></trkpt><trkpt lat="42.4291267" lon="-7.4677983"><ele>698.3333333333334</ele><time>2026-04-14T13:25:30.888Z</time></trkpt><trkpt lat="42.4292733" lon="-7.467955"><ele>699.6666666666666</ele><time>2026-04-14T13:25:31.889Z</time></trkpt><trkpt lat="42.42942" lon="-7.4681133"><ele>701.0</ele><time>2026-04-14T13:25:32.889Z</time></trkpt><trkpt lat="42.4295733" lon="-7.468275"><ele>703.0</ele><time>2026-04-14T13:25:33.889Z</time></trkpt><trkpt lat="42.42973" lon="-7.468435"><ele>705.0</ele><time>2026-04-14T13:25:34.888Z</time></trkpt><trkpt lat="42.4298817" lon="-7.4685983"><ele>707.0</ele><time>2026-04-14T13:25:35.889Z</time></trkpt><trkpt lat="42.430035" lon="-7.468775"><ele>708.3333333333333</ele><time>2026-04-14T13:25:36.889Z</time></trkpt><trkpt lat="42.4301833" lon="-7.4689567"><ele>709.6666666666666</ele><time>2026-04-14T13:25:37.888Z</time></trkpt><trkpt lat="42.4303333" lon="-7.4691333"><ele>711.0</ele><time>2026-04-14T13:25:38.888Z</time></trkpt><trkpt lat="42.430485" lon="-7.4692983"><ele>711.0</ele><time>2026-04-14T13:25:39.888Z</time></trkpt><trkpt lat="42.4306367" lon="-7.469465"><ele>711.0</ele><time>2026-04-14T13:25:40.889Z</time></trkpt><trkpt lat="42.4307817" lon="-7.4696167"><ele>711.0</ele><time>2026-04-14T13:25:41.889Z</time></trkpt><trkpt lat="42.4309183" lon="-7.46976"><ele>711.0</ele><time>2026-04-14T13:25:42.888Z</time></trkpt><trkpt lat="42.43106" lon="-7.469905"><ele>711.0</ele><time>2026-04-14T13:25:43.888Z</time></trkpt><trkpt lat="42.4311983" lon="-7.4700533"><ele>711.0</ele><time>2026-04-14T13:25:44.889Z</time></trkpt><trkpt lat="42.4313317" lon="-7.4702067"><ele>711.3333333333334</ele><time>2026-04-14T13:25:45.888Z</time></trkpt><trkpt lat="42.4314683" lon="-7.4703617"><ele>711.6666666666667</ele><time>2026-04-14T13:25:46.889Z</time></trkpt><trkpt lat="42.4316067" lon="-7.470505"><ele>712.0</ele><time>2026-04-14T13:25:47.889Z</time></trkpt><trkpt lat="42.4317483" lon="-7.470655"><ele>710.3333333333334</ele><time>2026-04-14T13:25:48.889Z</time></trkpt><trkpt lat="42.4319" lon="-7.4708083"><ele>708.6666666666666</ele><time>2026-04-14T13:25:49.889Z</time></trkpt><trkpt lat="42.4320533" lon="-7.47096"><ele>707.0</ele><time>2026-04-14T13:25:50.888Z</time></trkpt><trkpt lat="42.4322067" lon="-7.4711167"><ele>704.3333333333333</ele><time>2026-04-14T13:25:51.889Z</time></trkpt><trkpt lat="42.43235" lon="-7.4712783"><ele>701.6666666666666</ele><time>2026-04-14T13:25:52.889Z</time></trkpt><trkpt lat="42.43249" lon="-7.4714483"><ele>699.0</ele><time>2026-04-14T13:25:53.889Z</time></trkpt><trkpt lat="42.4326217" lon="-7.471625"><ele>699.0</ele><time>2026-04-14T13:25:54.889Z</time></trkpt><trkpt lat="42.43274" lon="-7.4717817"><ele>699.0</ele><time>2026-04-14T13:25:55.889Z</time></trkpt><trkpt lat="42.432835" lon="-7.4719067"><ele>699.0</ele><time>2026-04-14T13:25:56.888Z</time></trkpt><trkpt lat="42.4329367" lon="-7.4720083"><ele>699.0</ele><time>2026-04-14T13:25:57.888Z</time></trkpt><trkpt lat="42.433035" lon="-7.4720967"><ele>697.25</ele><time>2026-04-14T13:25:58.889Z</time></trkpt><trkpt lat="42.43313" lon="-7.4721967"><ele>695.5</ele><time>2026-04-14T13:25:59.889Z</time></trkpt><trkpt lat="42.4332283" lon="-7.472305"><ele>693.75</ele><time>2026-04-14T13:26:00.888Z</time></trkpt><trkpt lat="42.43331" lon="-7.4724017"><ele>692.0</ele><time>2026-04-14T13:26:01.889Z</time></trkpt><trkpt lat="42.43339" lon="-7.472495"><ele>692.0</ele><time>2026-04-14T13:26:02.888Z</time></trkpt><trkpt lat="42.433465" lon="-7.4726017"><ele>692.0</ele><time>2026-04-14T13:26:03.889Z</time></trkpt><trkpt lat="42.4335417" lon="-7.47273"><ele>692.0</ele><time>2026-04-14T13:26:04.889Z</time></trkpt><trkpt lat="42.4336017" lon="-7.4728617"><ele>692.0</ele><time>2026-04-14T13:26:05.889Z</time></trkpt><trkpt lat="42.4336767" lon="-7.4730033"><ele>688.5</ele><time>2026-04-14T13:26:06.889Z</time></trkpt><trkpt lat="42.4337567" lon="-7.4731433"><ele>685.0</ele><time>2026-04-14T13:26:07.889Z</time></trkpt><trkpt lat="42.433845" lon="-7.47327"><ele>681.5</ele><time>2026-04-14T13:26:08.889Z</time></trkpt><trkpt lat="42.4339383" lon="-7.473405"><ele>678.0</ele><time>2026-04-14T13:26:09.889Z</time></trkpt><trkpt lat="42.434035" lon="-7.4735417"><ele>676.5</ele><time>2026-04-14T13:26:10.889Z</time></trkpt><trkpt lat="42.43414" lon="-7.4736883"><ele>675.0</ele><time>2026-04-14T13:26:11.889Z</time></trkpt><trkpt lat="42.4342467" lon="-7.47384"><ele>673.5</ele><time>2026-04-14T13:26:12.889Z</time></trkpt><trkpt lat="42.4343383" lon="-7.47399"><ele>672.0</ele><time>2026-04-14T13:26:13.889Z</time></trkpt><trkpt lat="42.434425" lon="-7.4741233"><ele>668.75</ele><time>2026-04-14T13:26:14.889Z</time></trkpt><trkpt lat="42.4345217" lon="-7.47424"><ele>665.5</ele><time>2026-04-14T13:26:15.889Z</time></trkpt><trkpt lat="42.43464" lon="-7.474345"><ele>662.25</ele><time>2026-04-14T13:26:16.888Z</time></trkpt><trkpt lat="42.4347517" lon="-7.4744283"><ele>659.0</ele><time>2026-04-14T13:26:17.889Z</time></trkpt><trkpt lat="42.4348617" lon="-7.4745117"><ele>655.5</ele><time>2026-04-14T13:26:18.889Z</time></trkpt><trkpt lat="42.4349633" lon="-7.4746267"><ele>652.0</ele><time>2026-04-14T13:26:19.888Z</time></trkpt><trkpt lat="42.4350433" lon="-7.4747533"><ele>648.5</ele><time>2026-04-14T13:26:20.888Z</time></trkpt><trkpt lat="42.435135" lon="-7.4748983"><ele>645.0</ele><time>2026-04-14T13:26:21.889Z</time></trkpt><trkpt lat="42.435225" lon="-7.4750617"><ele>645.0</ele><time>2026-04-14T13:26:22.889Z</time></trkpt><trkpt lat="42.4353183" lon="-7.4752483"><ele>645.0</ele><time>2026-04-14T13:26:23.889Z</time></trkpt><trkpt lat="42.4354017" lon="-7.4754233"><ele>645.0</ele><time>2026-04-14T13:26:24.888Z</time></trkpt><trkpt lat="42.4355" lon="-7.4755917"><ele>643.75</ele><time>2026-04-14T13:26:25.888Z</time></trkpt><trkpt lat="42.4356033" lon="-7.475745"><ele>642.5</ele><time>2026-04-14T13:26:26.889Z</time></trkpt><trkpt lat="42.4356867" lon="-7.4758883"><ele>641.25</ele><time>2026-04-14T13:26:27.888Z</time></trkpt><trkpt lat="42.4357667" lon="-7.4760333"><ele>640.0</ele><time>2026-04-14T13:26:28.888Z</time></trkpt><trkpt lat="42.435855" lon="-7.4761617"><ele>638.25</ele><time>2026-04-14T13:26:29.888Z</time></trkpt><trkpt lat="42.4359567" lon="-7.4762767"><ele>636.5</ele><time>2026-04-14T13:26:30.889Z</time></trkpt><trkpt lat="42.4360867" lon="-7.476375"><ele>634.75</ele><time>2026-04-14T13:26:31.888Z</time></trkpt><trkpt lat="42.4362083" lon="-7.4764767"><ele>633.0</ele><time>2026-04-14T13:26:32.889Z</time></trkpt><trkpt lat="42.43634" lon="-7.4765783"><ele>632.75</ele><time>2026-04-14T13:26:33.889Z</time></trkpt><trkpt lat="42.436465" lon="-7.4766833"><ele>632.5</ele><time>2026-04-14T13:26:34.889Z</time></trkpt><trkpt lat="42.4365867" lon="-7.47681"><ele>632.25</ele><time>2026-04-14T13:26:35.888Z</time></trkpt><trkpt lat="42.4366917" lon="-7.476925"><ele>632.0</ele><time>2026-04-14T13:26:36.888Z</time></trkpt><trkpt lat="42.436775" lon="-7.4770333"><ele>630.2</ele><time>2026-04-14T13:26:37.888Z</time></trkpt><trkpt lat="42.4368467" lon="-7.47711"><ele>628.4000000000001</ele><time>2026-04-14T13:26:38.888Z</time></trkpt><trkpt lat="42.4369217" lon="-7.4771667"><ele>626.5999999999999</ele><time>2026-04-14T13:26:39.888Z</time></trkpt><trkpt lat="42.4370033" lon="-7.4771967"><ele>624.8</ele><time>2026-04-14T13:26:40.888Z</time></trkpt><trkpt lat="42.4371133" lon="-7.4772067"><ele>623.0</ele><time>2026-04-14T13:26:41.888Z</time></trkpt><trkpt lat="42.4372433" lon="-7.4771817"><ele>623.3333333333333</ele><time>2026-04-14T13:26:42.888Z</time></trkpt><trkpt lat="42.437385" lon="-7.4771383"><ele>623.6666666666666</ele><time>2026-04-14T13:26:43.888Z</time></trkpt><trkpt lat="42.4375167" lon="-7.477045"><ele>624.0</ele><time>2026-04-14T13:26:44.889Z</time></trkpt><trkpt lat="42.4376633" lon="-7.4769367"><ele>624.0</ele><time>2026-04-14T13:26:45.888Z</time></trkpt><trkpt lat="42.4378283" lon="-7.4768217"><ele>624.0</ele><time>2026-04-14T13:26:46.889Z</time></trkpt><trkpt lat="42.438" lon="-7.4767067"><ele>624.0</ele><time>2026-04-14T13:26:47.888Z</time></trkpt><trkpt lat="42.4381683" lon="-7.4766233"><ele>621.0</ele><time>2026-04-14T13:26:48.889Z</time></trkpt><trkpt lat="42.4383183" lon="-7.4765367"><ele>618.0</ele><time>2026-04-14T13:26:49.888Z</time></trkpt><trkpt lat="42.4384533" lon="-7.476455"><ele>615.0</ele><time>2026-04-14T13:26:50.889Z</time></trkpt><trkpt lat="42.4385383" lon="-7.4763933"><ele>612.0</ele><time>2026-04-14T13:26:51.888Z</time></trkpt><trkpt lat="42.438605" lon="-7.47635"><ele>612.0</ele><time>2026-04-14T13:26:52.889Z</time></trkpt><trkpt lat="42.43867" lon="-7.4763583"><ele>612.0</ele><time>2026-04-14T13:26:54.888Z</time></trkpt><trkpt lat="42.438635" lon="-7.4764983"><ele>612.0</ele><time>2026-04-14T13:26:57.889Z</time></trkpt><trkpt lat="42.4385833" lon="-7.4765833"><ele>612.0</ele><time>2026-04-14T13:26:58.888Z</time></trkpt><trkpt lat="42.4385233" lon="-7.47669"><ele>612.0</ele><time>2026-04-14T13:26:59.889Z</time></trkpt><trkpt lat="42.4384467" lon="-7.476815"><ele>612.0</ele><time>2026-04-14T13:27:00.889Z</time></trkpt><trkpt lat="42.4383633" lon="-7.47696"><ele>612.0</ele><time>2026-04-14T13:27:01.888Z</time></trkpt><trkpt lat="42.438285" lon="-7.47709"><ele>612.0</ele><time>2026-04-14T13:27:02.888Z</time></trkpt><trkpt lat="42.43821" lon="-7.4772067"><ele>612.0</ele><time>2026-04-14T13:27:03.889Z</time></trkpt><trkpt lat="42.438135" lon="-7.4773133"><ele>612.0</ele><time>2026-04-14T13:27:04.889Z</time></trkpt><trkpt lat="42.438065" lon="-7.47743"><ele>612.0</ele><time>2026-04-14T13:27:05.889Z</time></trkpt><trkpt lat="42.4380117" lon="-7.4775617"><ele>612.0</ele><time>2026-04-14T13:27:06.889Z</time></trkpt><trkpt lat="42.4379667" lon="-7.477695"><ele>612.0</ele><time>2026-04-14T13:27:07.889Z</time></trkpt><trkpt lat="42.4379283" lon="-7.4778383"><ele>612.0</ele><time>2026-04-14T13:27:08.888Z</time></trkpt><trkpt lat="42.4378867" lon="-7.4779767"><ele>610.6</ele><time>2026-04-14T13:27:09.889Z</time></trkpt><trkpt lat="42.437835" lon="-7.47811"><ele>609.2</ele><time>2026-04-14T13:27:10.888Z</time></trkpt><trkpt lat="42.4377783" lon="-7.4782417"><ele>607.8</ele><time>2026-04-14T13:27:11.889Z</time></trkpt><trkpt lat="42.43772" lon="-7.4783717"><ele>606.4</ele><time>2026-04-14T13:27:12.888Z</time></trkpt><trkpt lat="42.4376633" lon="-7.478505"><ele>605.0</ele><time>2026-04-14T13:27:13.888Z</time></trkpt><trkpt lat="42.4376067" lon="-7.478635"><ele>605.0</ele><time>2026-04-14T13:27:14.888Z</time></trkpt><trkpt lat="42.4375333" lon="-7.478755"><ele>605.0</ele><time>2026-04-14T13:27:15.888Z</time></trkpt><trkpt lat="42.4374583" lon="-7.4788667"><ele>605.0</ele><time>2026-04-14T13:27:16.889Z</time></trkpt><trkpt lat="42.4373833" lon="-7.4789733"><ele>605.0</ele><time>2026-04-14T13:27:17.888Z</time></trkpt><trkpt lat="42.4373017" lon="-7.4790683"><ele>605.0</ele><time>2026-04-14T13:27:18.888Z</time></trkpt><trkpt lat="42.437225" lon="-7.4791633"><ele>604.4</ele><time>2026-04-14T13:27:19.888Z</time></trkpt><trkpt lat="42.4371433" lon="-7.4792533"><ele>603.8</ele><time>2026-04-14T13:27:20.888Z</time></trkpt><trkpt lat="42.4370567" lon="-7.4793467"><ele>603.2</ele><time>2026-04-14T13:27:21.888Z</time></trkpt><trkpt lat="42.4369683" lon="-7.4794383"><ele>602.6</ele><time>2026-04-14T13:27:22.889Z</time></trkpt><trkpt lat="42.43689" lon="-7.479525"><ele>602.0</ele><time>2026-04-14T13:27:23.889Z</time></trkpt><trkpt lat="42.4368067" lon="-7.4796"><ele>600.4</ele><time>2026-04-14T13:27:24.888Z</time></trkpt><trkpt lat="42.436725" lon="-7.4796833"><ele>598.8000000000001</ele><time>2026-04-14T13:27:25.888Z</time></trkpt><trkpt lat="42.4366467" lon="-7.4797617"><ele>597.2</ele><time>2026-04-14T13:27:26.888Z</time></trkpt><trkpt lat="42.4365633" lon="-7.47985"><ele>595.6</ele><time>2026-04-14T13:27:27.889Z</time></trkpt><trkpt lat="42.4364883" lon="-7.4799367"><ele>594.0</ele><time>2026-04-14T13:27:28.888Z</time></trkpt><trkpt lat="42.436415" lon="-7.4800083"><ele>594.0</ele><time>2026-04-14T13:27:29.888Z</time></trkpt><trkpt lat="42.4363517" lon="-7.4800983"><ele>594.0</ele><time>2026-04-14T13:27:30.889Z</time></trkpt><trkpt lat="42.4362783" lon="-7.4801867"><ele>594.0</ele><time>2026-04-14T13:27:31.888Z</time></trkpt><trkpt lat="42.436205" lon="-7.4802667"><ele>594.0</ele><time>2026-04-14T13:27:32.888Z</time></trkpt><trkpt lat="42.4361317" lon="-7.4803267"><ele>594.0</ele><time>2026-04-14T13:27:33.888Z</time></trkpt><trkpt lat="42.43607" lon="-7.48038"><ele>594.0</ele><time>2026-04-14T13:27:34.889Z</time></trkpt><trkpt lat="42.4359967" lon="-7.48049"><ele>592.8</ele><time>2026-04-14T13:27:36.888Z</time></trkpt><trkpt lat="42.4360283" lon="-7.4805917"><ele>591.5999999999999</ele><time>2026-04-14T13:27:39.889Z</time></trkpt><trkpt lat="42.4360933" lon="-7.4806017"><ele>590.4</ele><time>2026-04-14T13:27:40.888Z</time></trkpt><trkpt lat="42.4361867" lon="-7.4806017"><ele>589.1999999999999</ele><time>2026-04-14T13:27:41.888Z</time></trkpt><trkpt lat="42.4363183" lon="-7.480605"><ele>588.0</ele><time>2026-04-14T13:27:42.889Z</time></trkpt><trkpt lat="42.436475" lon="-7.4806167"><ele>587.75</ele><time>2026-04-14T13:27:43.889Z</time></trkpt><trkpt lat="42.436625" lon="-7.4806283"><ele>587.5</ele><time>2026-04-14T13:27:44.889Z</time></trkpt><trkpt lat="42.43677" lon="-7.4806417"><ele>587.25</ele><time>2026-04-14T13:27:45.888Z</time></trkpt><trkpt lat="42.4368833" lon="-7.4806517"><ele>587.0</ele><time>2026-04-14T13:27:46.888Z</time></trkpt><trkpt lat="42.4369883" lon="-7.4806533"><ele>587.0</ele><time>2026-04-14T13:27:47.888Z</time></trkpt><trkpt lat="42.43709" lon="-7.4806567"><ele>587.0</ele><time>2026-04-14T13:27:48.888Z</time></trkpt><trkpt lat="42.4371833" lon="-7.48067"><ele>587.0</ele><time>2026-04-14T13:27:49.888Z</time></trkpt><trkpt lat="42.4372667" lon="-7.4806967"><ele>587.0</ele><time>2026-04-14T13:27:50.889Z</time></trkpt><trkpt lat="42.437335" lon="-7.4807467"><ele>587.0</ele><time>2026-04-14T13:27:51.889Z</time></trkpt><trkpt lat="42.4373883" lon="-7.480825"><ele>587.0</ele><time>2026-04-14T13:27:52.888Z</time></trkpt><trkpt lat="42.4374367" lon="-7.480935"><ele>587.0</ele><time>2026-04-14T13:27:53.888Z</time></trkpt><trkpt lat="42.4374767" lon="-7.4810767"><ele>587.0</ele><time>2026-04-14T13:27:54.888Z</time></trkpt><trkpt lat="42.437515" lon="-7.48123"><ele>587.0</ele><time>2026-04-14T13:27:55.889Z</time></trkpt><trkpt lat="42.4375533" lon="-7.4813833"><ele>587.0</ele><time>2026-04-14T13:27:56.889Z</time></trkpt><trkpt lat="42.43759" lon="-7.48154"><ele>585.5</ele><time>2026-04-14T13:27:57.888Z</time></trkpt><trkpt lat="42.4376217" lon="-7.4816983"><ele>584.0</ele><time>2026-04-14T13:27:58.888Z</time></trkpt><trkpt lat="42.43765" lon="-7.4818583"><ele>582.5</ele><time>2026-04-14T13:27:59.889Z</time></trkpt><trkpt lat="42.4376683" lon="-7.48203"><ele>581.0</ele><time>2026-04-14T13:28:00.889Z</time></trkpt><trkpt lat="42.4377083" lon="-7.4821883"><ele>579.5</ele><time>2026-04-14T13:28:01.889Z</time></trkpt><trkpt lat="42.43776" lon="-7.48234"><ele>578.0</ele><time>2026-04-14T13:28:02.889Z</time></trkpt><trkpt lat="42.4378183" lon="-7.4824833"><ele>576.5</ele><time>2026-04-14T13:28:03.888Z</time></trkpt><trkpt lat="42.4378817" lon="-7.4826233"><ele>575.0</ele><time>2026-04-14T13:28:04.888Z</time></trkpt><trkpt lat="42.4379417" lon="-7.4827617"><ele>575.5</ele><time>2026-04-14T13:28:05.889Z</time></trkpt><trkpt lat="42.4379983" lon="-7.4828983"><ele>576.0</ele><time>2026-04-14T13:28:06.889Z</time></trkpt><trkpt lat="42.438045" lon="-7.4830383"><ele>576.5</ele><time>2026-04-14T13:28:07.888Z</time></trkpt><trkpt lat="42.4380833" lon="-7.4831817"><ele>577.0</ele><time>2026-04-14T13:28:08.888Z</time></trkpt><trkpt lat="42.4381183" lon="-7.4833333"><ele>575.75</ele><time>2026-04-14T13:28:09.889Z</time></trkpt><trkpt lat="42.4381417" lon="-7.4834933"><ele>574.5</ele><time>2026-04-14T13:28:10.888Z</time></trkpt><trkpt lat="42.4381517" lon="-7.4836517"><ele>573.25</ele><time>2026-04-14T13:28:11.888Z</time></trkpt><trkpt lat="42.4381533" lon="-7.4838117"><ele>572.0</ele><time>2026-04-14T13:28:12.888Z</time></trkpt><trkpt lat="42.43815" lon="-7.4839767"><ele>571.75</ele><time>2026-04-14T13:28:13.888Z</time></trkpt><trkpt lat="42.438145" lon="-7.4841317"><ele>571.5</ele><time>2026-04-14T13:28:14.888Z</time></trkpt><trkpt lat="42.438145" lon="-7.4842933"><ele>571.25</ele><time>2026-04-14T13:28:15.888Z</time></trkpt><trkpt lat="42.4381467" lon="-7.484455"><ele>571.0</ele><time>2026-04-14T13:28:16.888Z</time></trkpt><trkpt lat="42.4381467" lon="-7.4846067"><ele>570.4</ele><time>2026-04-14T13:28:17.888Z</time></trkpt><trkpt lat="42.4381483" lon="-7.484765"><ele>569.8</ele><time>2026-04-14T13:28:18.889Z</time></trkpt><trkpt lat="42.43814" lon="-7.4849133"><ele>569.1999999999999</ele><time>2026-04-14T13:28:19.888Z</time></trkpt><trkpt lat="42.438145" lon="-7.485065"><ele>568.6</ele><time>2026-04-14T13:28:20.889Z</time></trkpt><trkpt lat="42.43815" lon="-7.4852133"><ele>568.0</ele><time>2026-04-14T13:28:21.889Z</time></trkpt><trkpt lat="42.438155" lon="-7.4853617"><ele>567.6</ele><time>2026-04-14T13:28:22.889Z</time></trkpt><trkpt lat="42.43816" lon="-7.4855083"><ele>567.1999999999999</ele><time>2026-04-14T13:28:23.889Z</time></trkpt><trkpt lat="42.43817" lon="-7.485655"><ele>566.8</ele><time>2026-04-14T13:28:24.888Z</time></trkpt><trkpt lat="42.4381733" lon="-7.48579"><ele>566.4</ele><time>2026-04-14T13:28:25.889Z</time></trkpt><trkpt lat="42.4381583" lon="-7.4859317"><ele>566.0</ele><time>2026-04-14T13:28:26.889Z</time></trkpt><trkpt lat="42.43813" lon="-7.48608"><ele>566.0</ele><time>2026-04-14T13:28:27.888Z</time></trkpt><trkpt lat="42.4380917" lon="-7.4862317"><ele>566.0</ele><time>2026-04-14T13:28:28.889Z</time></trkpt><trkpt lat="42.43806" lon="-7.4863817"><ele>566.0</ele><time>2026-04-14T13:28:29.888Z</time></trkpt><trkpt lat="42.4380367" lon="-7.486535"><ele>566.0</ele><time>2026-04-14T13:28:30.888Z</time></trkpt><trkpt lat="42.4380133" lon="-7.48668"><ele>564.8</ele><time>2026-04-14T13:28:31.889Z</time></trkpt><trkpt lat="42.4379917" lon="-7.486825"><ele>563.6</ele><time>2026-04-14T13:28:32.888Z</time></trkpt><trkpt lat="42.43798" lon="-7.4869733"><ele>562.4</ele><time>2026-04-14T13:28:33.888Z</time></trkpt><trkpt lat="42.4379783" lon="-7.4871133"><ele>561.2</ele><time>2026-04-14T13:28:34.888Z</time></trkpt><trkpt lat="42.4379917" lon="-7.4872517"><ele>560.0</ele><time>2026-04-14T13:28:35.889Z</time></trkpt><trkpt lat="42.4380067" lon="-7.48739"><ele>559.0</ele><time>2026-04-14T13:28:36.889Z</time></trkpt><trkpt lat="42.43802" lon="-7.4875383"><ele>558.0</ele><time>2026-04-14T13:28:37.888Z</time></trkpt><trkpt lat="42.4380233" lon="-7.4876883"><ele>557.0</ele><time>2026-04-14T13:28:38.888Z</time></trkpt><trkpt lat="42.43803" lon="-7.4878433"><ele>556.0</ele><time>2026-04-14T13:28:39.889Z</time></trkpt><trkpt lat="42.4380283" lon="-7.4879867"><ele>555.0</ele><time>2026-04-14T13:28:40.888Z</time></trkpt><trkpt lat="42.4380217" lon="-7.4881233"><ele>554.8</ele><time>2026-04-14T13:28:41.889Z</time></trkpt><trkpt lat="42.438035" lon="-7.48825"><ele>554.6</ele><time>2026-04-14T13:28:42.889Z</time></trkpt><trkpt lat="42.438065" lon="-7.4883817"><ele>554.4</ele><time>2026-04-14T13:28:43.888Z</time></trkpt><trkpt lat="42.4381067" lon="-7.4885183"><ele>554.2</ele><time>2026-04-14T13:28:44.888Z</time></trkpt><trkpt lat="42.4381633" lon="-7.4886467"><ele>554.0</ele><time>2026-04-14T13:28:45.888Z</time></trkpt><trkpt lat="42.4382217" lon="-7.4887867"><ele>553.75</ele><time>2026-04-14T13:28:46.889Z</time></trkpt><trkpt lat="42.43828" lon="-7.4889367"><ele>553.5</ele><time>2026-04-14T13:28:47.889Z</time></trkpt><trkpt lat="42.438335" lon="-7.4890917"><ele>553.25</ele><time>2026-04-14T13:28:48.889Z</time></trkpt><trkpt lat="42.4383783" lon="-7.4892417"><ele>553.0</ele><time>2026-04-14T13:28:49.889Z</time></trkpt><trkpt lat="42.4383983" lon="-7.4893783"><ele>553.0</ele><time>2026-04-14T13:28:50.889Z</time></trkpt><trkpt lat="42.43839" lon="-7.4895133"><ele>553.0</ele><time>2026-04-14T13:28:51.888Z</time></trkpt><trkpt lat="42.4383467" lon="-7.4896367"><ele>553.0</ele><time>2026-04-14T13:28:52.889Z</time></trkpt><trkpt lat="42.4382833" lon="-7.4897683"><ele>553.0</ele><time>2026-04-14T13:28:53.889Z</time></trkpt><trkpt lat="42.43822" lon="-7.48991"><ele>553.0</ele><time>2026-04-14T13:28:54.889Z</time></trkpt><trkpt lat="42.4381533" lon="-7.4900567"><ele>554.5</ele><time>2026-04-14T13:28:55.888Z</time></trkpt><trkpt lat="42.4380917" lon="-7.4901967"><ele>556.0</ele><time>2026-04-14T13:28:56.889Z</time></trkpt><trkpt lat="42.4380483" lon="-7.4903433"><ele>557.5</ele><time>2026-04-14T13:28:57.888Z</time></trkpt><trkpt lat="42.4380117" lon="-7.4904833"><ele>559.0</ele><time>2026-04-14T13:28:58.889Z</time></trkpt><trkpt lat="42.437985" lon="-7.490635"><ele>557.5</ele><time>2026-04-14T13:28:59.888Z</time></trkpt><trkpt lat="42.4379733" lon="-7.4907933"><ele>556.0</ele><time>2026-04-14T13:29:00.888Z</time></trkpt><trkpt lat="42.437965" lon="-7.4909533"><ele>554.5</ele><time>2026-04-14T13:29:01.888Z</time></trkpt><trkpt lat="42.43796" lon="-7.4911083"><ele>553.0</ele><time>2026-04-14T13:29:02.888Z</time></trkpt><trkpt lat="42.4379667" lon="-7.4912717"><ele>557.75</ele><time>2026-04-14T13:29:03.888Z</time></trkpt><trkpt lat="42.437975" lon="-7.4914383"><ele>562.5</ele><time>2026-04-14T13:29:04.889Z</time></trkpt><trkpt lat="42.4379867" lon="-7.49161"><ele>567.25</ele><time>2026-04-14T13:29:05.889Z</time></trkpt><trkpt lat="42.4379883" lon="-7.4917783"><ele>572.0</ele><time>2026-04-14T13:29:06.888Z</time></trkpt><trkpt lat="42.4379867" lon="-7.49195"><ele>572.5</ele><time>2026-04-14T13:29:07.889Z</time></trkpt><trkpt lat="42.4379917" lon="-7.49209"><ele>573.0</ele><time>2026-04-14T13:29:08.888Z</time></trkpt><trkpt lat="42.4380167" lon="-7.4922383"><ele>573.5</ele><time>2026-04-14T13:29:09.888Z</time></trkpt><trkpt lat="42.4380533" lon="-7.4923883"><ele>574.0</ele><time>2026-04-14T13:29:10.888Z</time></trkpt><trkpt lat="42.4380917" lon="-7.4925433"><ele>574.0</ele><time>2026-04-14T13:29:11.889Z</time></trkpt><trkpt lat="42.4381217" lon="-7.4927067"><ele>574.0</ele><time>2026-04-14T13:29:12.889Z</time></trkpt><trkpt lat="42.4381417" lon="-7.4928733"><ele>574.0</ele><time>2026-04-14T13:29:13.889Z</time></trkpt><trkpt lat="42.4381667" lon="-7.4930333"><ele>574.0</ele><time>2026-04-14T13:29:14.888Z</time></trkpt><trkpt lat="42.438195" lon="-7.4931933"><ele>573.0</ele><time>2026-04-14T13:29:15.889Z</time></trkpt><trkpt lat="42.4382367" lon="-7.493345"><ele>572.0</ele><time>2026-04-14T13:29:16.889Z</time></trkpt><trkpt lat="42.4382917" lon="-7.4934983"><ele>571.0</ele><time>2026-04-14T13:29:17.889Z</time></trkpt><trkpt lat="42.4383483" lon="-7.4936367"><ele>570.0</ele><time>2026-04-14T13:29:18.888Z</time></trkpt><trkpt lat="42.4384083" lon="-7.4937817"><ele>568.75</ele><time>2026-04-14T13:29:19.888Z</time></trkpt><trkpt lat="42.4384783" lon="-7.4939367"><ele>567.5</ele><time>2026-04-14T13:29:20.889Z</time></trkpt><trkpt lat="42.4385367" lon="-7.4940883"><ele>566.25</ele><time>2026-04-14T13:29:21.889Z</time></trkpt><trkpt lat="42.43861" lon="-7.4942283"><ele>565.0</ele><time>2026-04-14T13:29:22.888Z</time></trkpt><trkpt lat="42.4386867" lon="-7.494355"><ele>565.0</ele><time>2026-04-14T13:29:23.889Z</time></trkpt><trkpt lat="42.4387717" lon="-7.4944817"><ele>565.0</ele><time>2026-04-14T13:29:24.888Z</time></trkpt><trkpt lat="42.4388567" lon="-7.4945967"><ele>565.0</ele><time>2026-04-14T13:29:25.889Z</time></trkpt><trkpt lat="42.4389417" lon="-7.49472"><ele>565.0</ele><time>2026-04-14T13:29:26.888Z</time></trkpt><trkpt lat="42.4390317" lon="-7.49485"><ele>566.75</ele><time>2026-04-14T13:29:27.888Z</time></trkpt><trkpt lat="42.4390983" lon="-7.4950033"><ele>568.5</ele><time>2026-04-14T13:29:28.888Z</time></trkpt><trkpt lat="42.43915" lon="-7.495165"><ele>570.25</ele><time>2026-04-14T13:29:29.888Z</time></trkpt><trkpt lat="42.4391817" lon="-7.49531"><ele>572.0</ele><time>2026-04-14T13:29:30.888Z</time></trkpt><trkpt lat="42.439225" lon="-7.495455"><ele>572.0</ele><time>2026-04-14T13:29:31.888Z</time></trkpt><trkpt lat="42.4392767" lon="-7.4955967"><ele>572.0</ele><time>2026-04-14T13:29:32.889Z</time></trkpt><trkpt lat="42.4393367" lon="-7.4957367"><ele>572.0</ele><time>2026-04-14T13:29:33.888Z</time></trkpt><trkpt lat="42.4393933" lon="-7.495865"><ele>572.0</ele><time>2026-04-14T13:29:34.888Z</time></trkpt><trkpt lat="42.4394517" lon="-7.496"><ele>572.0</ele><time>2026-04-14T13:29:35.888Z</time></trkpt><trkpt lat="42.4395167" lon="-7.49613"><ele>572.0</ele><time>2026-04-14T13:29:36.888Z</time></trkpt><trkpt lat="42.439595" lon="-7.4962383"><ele>572.0</ele><time>2026-04-14T13:29:37.888Z</time></trkpt><trkpt lat="42.43968" lon="-7.49634"><ele>572.0</ele><time>2026-04-14T13:29:38.889Z</time></trkpt><trkpt lat="42.43978" lon="-7.4964333"><ele>573.0</ele><time>2026-04-14T13:29:39.888Z</time></trkpt><trkpt lat="42.439875" lon="-7.4965033"><ele>574.0</ele><time>2026-04-14T13:29:40.889Z</time></trkpt><trkpt lat="42.4399783" lon="-7.496575"><ele>575.0</ele><time>2026-04-14T13:29:41.888Z</time></trkpt><trkpt lat="42.4400933" lon="-7.4966533"><ele>576.0</ele><time>2026-04-14T13:29:42.888Z</time></trkpt><trkpt lat="42.4402067" lon="-7.49672"><ele>576.0</ele><time>2026-04-14T13:29:43.889Z</time></trkpt><trkpt lat="42.440325" lon="-7.4968"><ele>576.0</ele><time>2026-04-14T13:29:44.888Z</time></trkpt><trkpt lat="42.4404383" lon="-7.4968633"><ele>576.0</ele><time>2026-04-14T13:29:45.889Z</time></trkpt><trkpt lat="42.44053" lon="-7.49692"><ele>576.0</ele><time>2026-04-14T13:29:46.888Z</time></trkpt><trkpt lat="42.440595" lon="-7.496975"><ele>576.0</ele><time>2026-04-14T13:29:47.889Z</time></trkpt><trkpt lat="42.4406317" lon="-7.497055"><ele>574.75</ele><time>2026-04-14T13:29:49.888Z</time></trkpt><trkpt lat="42.4405533" lon="-7.49712"><ele>573.5</ele><time>2026-04-14T13:29:51.888Z</time></trkpt><trkpt lat="42.440475" lon="-7.4971583"><ele>572.25</ele><time>2026-04-14T13:29:52.889Z</time></trkpt><trkpt lat="42.4403667" lon="-7.4972183"><ele>571.0</ele><time>2026-04-14T13:29:53.889Z</time></trkpt><trkpt lat="42.44022" lon="-7.4973267"><ele>570.3333333333334</ele><time>2026-04-14T13:29:54.888Z</time></trkpt><trkpt lat="42.4400717" lon="-7.4974833"><ele>569.6666666666666</ele><time>2026-04-14T13:29:55.888Z</time></trkpt><trkpt lat="42.4399233" lon="-7.4976383"><ele>569.0</ele><time>2026-04-14T13:29:56.889Z</time></trkpt><trkpt lat="42.4397733" lon="-7.4977683"><ele>567.3333333333333</ele><time>2026-04-14T13:29:57.888Z</time></trkpt><trkpt lat="42.4396317" lon="-7.49789"><ele>565.6666666666666</ele><time>2026-04-14T13:29:58.888Z</time></trkpt><trkpt lat="42.43947" lon="-7.497975"><ele>564.0</ele><time>2026-04-14T13:29:59.889Z</time></trkpt><trkpt lat="42.4393033" lon="-7.4980617"><ele>563.3333333333334</ele><time>2026-04-14T13:30:00.889Z</time></trkpt><trkpt lat="42.439135" lon="-7.4981233"><ele>562.6666666666667</ele><time>2026-04-14T13:30:01.889Z</time></trkpt><trkpt lat="42.4389783" lon="-7.4981583"><ele>562.0</ele><time>2026-04-14T13:30:02.889Z</time></trkpt><trkpt lat="42.4388233" lon="-7.4981667"><ele>560.6666666666667</ele><time>2026-04-14T13:30:03.888Z</time></trkpt><trkpt lat="42.4386567" lon="-7.49813"><ele>559.3333333333334</ele><time>2026-04-14T13:30:04.889Z</time></trkpt><trkpt lat="42.43849" lon="-7.49804"><ele>558.0</ele><time>2026-04-14T13:30:05.889Z</time></trkpt><trkpt lat="42.4383217" lon="-7.4979283"><ele>558.0</ele><time>2026-04-14T13:30:06.888Z</time></trkpt><trkpt lat="42.4381567" lon="-7.49778"><ele>558.0</ele><time>2026-04-14T13:30:07.889Z</time></trkpt><trkpt lat="42.4380183" lon="-7.4976217"><ele>558.0</ele><time>2026-04-14T13:30:08.889Z</time></trkpt><trkpt lat="42.4378733" lon="-7.4974817"><ele>555.3333333333334</ele><time>2026-04-14T13:30:09.888Z</time></trkpt><trkpt lat="42.4377233" lon="-7.4973317"><ele>552.6666666666667</ele><time>2026-04-14T13:30:10.888Z</time></trkpt><trkpt lat="42.437585" lon="-7.497205"><ele>550.0</ele><time>2026-04-14T13:30:11.889Z</time></trkpt><trkpt lat="42.4374667" lon="-7.497105"><ele>550.0</ele><time>2026-04-14T13:30:12.889Z</time></trkpt><trkpt lat="42.4373817" lon="-7.4970283"><ele>550.0</ele><time>2026-04-14T13:30:13.889Z</time></trkpt><trkpt lat="42.4372867" lon="-7.4969633"><ele>550.0</ele><time>2026-04-14T13:30:15.889Z</time></trkpt><trkpt lat="42.4372217" lon="-7.4970317"><ele>550.0</ele><time>2026-04-14T13:30:17.889Z</time></trkpt><trkpt lat="42.43721" lon="-7.497235"><ele>550.0</ele><time>2026-04-14T13:30:19.888Z</time></trkpt><trkpt lat="42.437215" lon="-7.49743"><ele>550.0</ele><time>2026-04-14T13:30:20.888Z</time></trkpt><trkpt lat="42.437235" lon="-7.497675"><ele>550.0</ele><time>2026-04-14T13:30:21.888Z</time></trkpt><trkpt lat="42.437245" lon="-7.4979133"><ele>550.0</ele><time>2026-04-14T13:30:22.889Z</time></trkpt><trkpt lat="42.4372583" lon="-7.49816"><ele>549.75</ele><time>2026-04-14T13:30:23.889Z</time></trkpt><trkpt lat="42.4372617" lon="-7.49839"><ele>549.5</ele><time>2026-04-14T13:30:24.888Z</time></trkpt><trkpt lat="42.43725" lon="-7.4985883"><ele>549.25</ele><time>2026-04-14T13:30:25.888Z</time></trkpt><trkpt lat="42.43726" lon="-7.4987517"><ele>549.0</ele><time>2026-04-14T13:30:26.889Z</time></trkpt><trkpt lat="42.4372867" lon="-7.4988667"><ele>548.75</ele><time>2026-04-14T13:30:27.888Z</time></trkpt><trkpt lat="42.4373383" lon="-7.4989733"><ele>548.5</ele><time>2026-04-14T13:30:28.889Z</time></trkpt><trkpt lat="42.4374117" lon="-7.4990767"><ele>548.25</ele><time>2026-04-14T13:30:29.888Z</time></trkpt><trkpt lat="42.437495" lon="-7.49919"><ele>548.0</ele><time>2026-04-14T13:30:30.889Z</time></trkpt><trkpt lat="42.4375933" lon="-7.499355"><ele>548.0</ele><time>2026-04-14T13:30:31.889Z</time></trkpt><trkpt lat="42.4377083" lon="-7.49955"><ele>548.0</ele><time>2026-04-14T13:30:32.888Z</time></trkpt><trkpt lat="42.4378267" lon="-7.499755"><ele>548.0</ele><time>2026-04-14T13:30:33.888Z</time></trkpt><trkpt lat="42.4379583" lon="-7.4999717"><ele>551.3333333333333</ele><time>2026-04-14T13:30:34.889Z</time></trkpt><trkpt lat="42.438095" lon="-7.5001917"><ele>554.6666666666666</ele><time>2026-04-14T13:30:35.888Z</time></trkpt><trkpt lat="42.4382133" lon="-7.5003783"><ele>558.0</ele><time>2026-04-14T13:30:36.889Z</time></trkpt><trkpt lat="42.4383133" lon="-7.500515"><ele>558.0</ele><time>2026-04-14T13:30:37.888Z</time></trkpt><trkpt lat="42.4384033" lon="-7.50065"><ele>558.0</ele><time>2026-04-14T13:30:38.888Z</time></trkpt><trkpt lat="42.4385067" lon="-7.500795"><ele>558.0</ele><time>2026-04-14T13:30:39.889Z</time></trkpt><trkpt lat="42.4386133" lon="-7.500955"><ele>558.0</ele><time>2026-04-14T13:30:40.888Z</time></trkpt><trkpt lat="42.438715" lon="-7.50113"><ele>556.0</ele><time>2026-04-14T13:30:41.889Z</time></trkpt><trkpt lat="42.4388217" lon="-7.5013"><ele>554.0</ele><time>2026-04-14T13:30:42.889Z</time></trkpt><trkpt lat="42.438945" lon="-7.50147"><ele>552.0</ele><time>2026-04-14T13:30:43.889Z</time></trkpt><trkpt lat="42.4390733" lon="-7.5016383"><ele>552.0</ele><time>2026-04-14T13:30:44.89Z</time></trkpt><trkpt lat="42.4391967" lon="-7.5017983"><ele>552.0</ele><time>2026-04-14T13:30:45.89Z</time></trkpt><trkpt lat="42.4393133" lon="-7.5019517"><ele>552.0</ele><time>2026-04-14T13:30:46.889Z</time></trkpt><trkpt lat="42.4394" lon="-7.502075"><ele>550.4</ele><time>2026-04-14T13:30:47.89Z</time></trkpt><trkpt lat="42.4394433" lon="-7.5021617"><ele>548.8000000000001</ele><time>2026-04-14T13:30:48.89Z</time></trkpt><trkpt lat="42.4395" lon="-7.5022733"><ele>547.2</ele><time>2026-04-14T13:31:00.89Z</time></trkpt><trkpt lat="42.4395417" lon="-7.5023533"><ele>545.6</ele><time>2026-04-14T13:31:01.889Z</time></trkpt><trkpt lat="42.4396067" lon="-7.502445"><ele>544.0</ele><time>2026-04-14T13:31:02.889Z</time></trkpt><trkpt lat="42.4397033" lon="-7.5025317"><ele>543.3333333333334</ele><time>2026-04-14T13:31:03.89Z</time></trkpt><trkpt lat="42.439845" lon="-7.5026083"><ele>542.6666666666666</ele><time>2026-04-14T13:31:04.89Z</time></trkpt><trkpt lat="42.439985" lon="-7.5027"><ele>542.0</ele><time>2026-04-14T13:31:05.89Z</time></trkpt><trkpt lat="42.440135" lon="-7.50281"><ele>540.0</ele><time>2026-04-14T13:31:06.889Z</time></trkpt><trkpt lat="42.44029" lon="-7.502935"><ele>538.0</ele><time>2026-04-14T13:31:07.889Z</time></trkpt><trkpt lat="42.4404183" lon="-7.5030517"><ele>536.0</ele><time>2026-04-14T13:31:08.89Z</time></trkpt><trkpt lat="42.4405167" lon="-7.5032"><ele>536.0</ele><time>2026-04-14T13:31:09.89Z</time></trkpt><trkpt lat="42.440595" lon="-7.5033683"><ele>536.0</ele><time>2026-04-14T13:31:10.889Z</time></trkpt><trkpt lat="42.4406583" lon="-7.503535"><ele>536.0</ele><time>2026-04-14T13:31:11.889Z</time></trkpt><trkpt lat="42.440705" lon="-7.5036617"><ele>536.0</ele><time>2026-04-14T13:31:12.889Z</time></trkpt><trkpt lat="42.4407733" lon="-7.5037717"><ele>536.0</ele><time>2026-04-14T13:31:14.89Z</time></trkpt><trkpt lat="42.4408533" lon="-7.50373"><ele>536.0</ele><time>2026-04-14T13:31:16.889Z</time></trkpt><trkpt lat="42.4409167" lon="-7.5036767"><ele>536.0</ele><time>2026-04-14T13:31:17.89Z</time></trkpt><trkpt lat="42.441" lon="-7.50365"><ele>536.0</ele><time>2026-04-14T13:31:18.89Z</time></trkpt><trkpt lat="42.4410833" lon="-7.503665"><ele>536.0</ele><time>2026-04-14T13:31:19.889Z</time></trkpt><trkpt lat="42.4411783" lon="-7.5037267"><ele>536.0</ele><time>2026-04-14T13:31:20.889Z</time></trkpt><trkpt lat="42.4412917" lon="-7.503835"><ele>533.0</ele><time>2026-04-14T13:31:21.89Z</time></trkpt><trkpt lat="42.441425" lon="-7.5039633"><ele>530.0</ele><time>2026-04-14T13:31:22.889Z</time></trkpt><trkpt lat="42.4415583" lon="-7.5040967"><ele>527.0</ele><time>2026-04-14T13:31:23.89Z</time></trkpt><trkpt lat="42.4416817" lon="-7.5042267"><ele>527.0</ele><time>2026-04-14T13:31:24.89Z</time></trkpt><trkpt lat="42.441805" lon="-7.5043517"><ele>527.0</ele><time>2026-04-14T13:31:25.89Z</time></trkpt><trkpt lat="42.44191" lon="-7.504465"><ele>527.0</ele><time>2026-04-14T13:31:26.889Z</time></trkpt><trkpt lat="42.4420183" lon="-7.5045783"><ele>527.0</ele><time>2026-04-14T13:31:27.889Z</time></trkpt><trkpt lat="42.4421317" lon="-7.5046917"><ele>523.6666666666666</ele><time>2026-04-14T13:31:28.89Z</time></trkpt><trkpt lat="42.44228" lon="-7.5048133"><ele>520.3333333333334</ele><time>2026-04-14T13:31:29.889Z</time></trkpt><trkpt lat="42.4424417" lon="-7.5049433"><ele>517.0</ele><time>2026-04-14T13:31:30.889Z</time></trkpt><trkpt lat="42.4426083" lon="-7.5050867"><ele>517.0</ele><time>2026-04-14T13:31:31.889Z</time></trkpt><trkpt lat="42.442755" lon="-7.5052217"><ele>517.0</ele><time>2026-04-14T13:31:32.889Z</time></trkpt><trkpt lat="42.4428817" lon="-7.5053367"><ele>517.0</ele><time>2026-04-14T13:31:33.89Z</time></trkpt><trkpt lat="42.4430067" lon="-7.50544"><ele>514.4</ele><time>2026-04-14T13:31:34.889Z</time></trkpt><trkpt lat="42.44313" lon="-7.505535"><ele>511.80000000000007</ele><time>2026-04-14T13:31:35.89Z</time></trkpt><trkpt lat="42.4432317" lon="-7.50562"><ele>509.2</ele><time>2026-04-14T13:31:36.889Z</time></trkpt><trkpt lat="42.44332" lon="-7.505695"><ele>506.6</ele><time>2026-04-14T13:31:37.889Z</time></trkpt><trkpt lat="42.4433817" lon="-7.5057417"><ele>504.0</ele><time>2026-04-14T13:31:38.889Z</time></trkpt><trkpt lat="42.44347" lon="-7.5057583"><ele>504.0</ele><time>2026-04-14T13:31:40.889Z</time></trkpt><trkpt lat="42.4435133" lon="-7.505675"><ele>504.0</ele><time>2026-04-14T13:31:43.889Z</time></trkpt><trkpt lat="42.443625" lon="-7.5056367"><ele>504.0</ele><time>2026-04-14T13:31:45.89Z</time></trkpt><trkpt lat="42.4437" lon="-7.5056533"><ele>504.0</ele><time>2026-04-14T13:31:46.889Z</time></trkpt><trkpt lat="42.4438" lon="-7.5057267"><ele>504.0</ele><time>2026-04-14T13:31:47.89Z</time></trkpt><trkpt lat="42.4439017" lon="-7.505835"><ele>505.75</ele><time>2026-04-14T13:31:48.889Z</time></trkpt><trkpt lat="42.4439717" lon="-7.505975"><ele>507.5</ele><time>2026-04-14T13:31:49.889Z</time></trkpt><trkpt lat="42.4440417" lon="-7.5061267"><ele>509.25</ele><time>2026-04-14T13:31:50.889Z</time></trkpt><trkpt lat="42.444125" lon="-7.5062733"><ele>511.0</ele><time>2026-04-14T13:31:51.889Z</time></trkpt><trkpt lat="42.44421" lon="-7.5064283"><ele>511.0</ele><time>2026-04-14T13:31:52.889Z</time></trkpt><trkpt lat="42.4443" lon="-7.50659"><ele>511.0</ele><time>2026-04-14T13:31:53.89Z</time></trkpt><trkpt lat="42.4443933" lon="-7.50675"><ele>511.0</ele><time>2026-04-14T13:31:54.889Z</time></trkpt><trkpt lat="42.444485" lon="-7.5068983"><ele>511.0</ele><time>2026-04-14T13:31:55.89Z</time></trkpt><trkpt lat="42.4445667" lon="-7.5070067"><ele>512.8</ele><time>2026-04-14T13:31:56.889Z</time></trkpt><trkpt lat="42.444645" lon="-7.5070633"><ele>514.6</ele><time>2026-04-14T13:31:57.889Z</time></trkpt><trkpt lat="42.4447267" lon="-7.5070717"><ele>516.4</ele><time>2026-04-14T13:31:58.89Z</time></trkpt><trkpt lat="42.4448033" lon="-7.50706"><ele>518.2</ele><time>2026-04-14T13:31:59.889Z</time></trkpt><trkpt lat="42.44489" lon="-7.5070683"><ele>520.0</ele><time>2026-04-14T13:32:01.889Z</time></trkpt><trkpt lat="42.4448733" lon="-7.5072717"><ele>520.0</ele><time>2026-04-14T13:32:03.889Z</time></trkpt><trkpt lat="42.4448517" lon="-7.507435"><ele>520.0</ele><time>2026-04-14T13:32:04.889Z</time></trkpt><trkpt lat="42.44479" lon="-7.5076417"><ele>520.0</ele><time>2026-04-14T13:32:05.89Z</time></trkpt><trkpt lat="42.4447267" lon="-7.50783"><ele>520.0</ele><time>2026-04-14T13:32:06.889Z</time></trkpt><trkpt lat="42.4446633" lon="-7.5080117"><ele>516.3333333333334</ele><time>2026-04-14T13:32:07.889Z</time></trkpt><trkpt lat="42.4445967" lon="-7.508195"><ele>512.6666666666666</ele><time>2026-04-14T13:32:08.89Z</time></trkpt><trkpt lat="42.4445217" lon="-7.5083917"><ele>509.0</ele><time>2026-04-14T13:32:09.889Z</time></trkpt><trkpt lat="42.4444383" lon="-7.5086033"><ele>508.0</ele><time>2026-04-14T13:32:10.889Z</time></trkpt><trkpt lat="42.4443533" lon="-7.5088367"><ele>507.0</ele><time>2026-04-14T13:32:11.89Z</time></trkpt><trkpt lat="42.4442733" lon="-7.5090733"><ele>506.0</ele><time>2026-04-14T13:32:12.889Z</time></trkpt><trkpt lat="42.4442" lon="-7.509315"><ele>506.0</ele><time>2026-04-14T13:32:13.889Z</time></trkpt><trkpt lat="42.4441367" lon="-7.5095683"><ele>506.0</ele><time>2026-04-14T13:32:14.889Z</time></trkpt><trkpt lat="42.4440667" lon="-7.5098167"><ele>506.0</ele><time>2026-04-14T13:32:15.89Z</time></trkpt><trkpt lat="42.4440083" lon="-7.51005"><ele>504.75</ele><time>2026-04-14T13:32:16.889Z</time></trkpt><trkpt lat="42.4439567" lon="-7.51025"><ele>503.5</ele><time>2026-04-14T13:32:17.89Z</time></trkpt><trkpt lat="42.4439133" lon="-7.5104367"><ele>502.25</ele><time>2026-04-14T13:32:18.889Z</time></trkpt><trkpt lat="42.4439067" lon="-7.5106267"><ele>501.0</ele><time>2026-04-14T13:32:19.89Z</time></trkpt><trkpt lat="42.4439417" lon="-7.5108167"><ele>501.0</ele><time>2026-04-14T13:32:20.89Z</time></trkpt><trkpt lat="42.44401" lon="-7.510995"><ele>501.0</ele><time>2026-04-14T13:32:21.89Z</time></trkpt><trkpt lat="42.444115" lon="-7.5111467"><ele>501.0</ele><time>2026-04-14T13:32:22.89Z</time></trkpt><trkpt lat="42.4442333" lon="-7.511295"><ele>501.0</ele><time>2026-04-14T13:32:23.889Z</time></trkpt><trkpt lat="42.4443683" lon="-7.5114517"><ele>501.0</ele><time>2026-04-14T13:32:24.889Z</time></trkpt><trkpt lat="42.4445" lon="-7.5116183"><ele>501.0</ele><time>2026-04-14T13:32:25.89Z</time></trkpt><trkpt lat="42.44463" lon="-7.511785"><ele>499.66666666666663</ele><time>2026-04-14T13:32:26.889Z</time></trkpt><trkpt lat="42.44475" lon="-7.51196"><ele>498.3333333333333</ele><time>2026-04-14T13:32:27.89Z</time></trkpt><trkpt lat="42.4448483" lon="-7.5121617"><ele>497.0</ele><time>2026-04-14T13:32:28.89Z</time></trkpt><trkpt lat="42.4449333" lon="-7.5123883"><ele>497.0</ele><time>2026-04-14T13:32:29.889Z</time></trkpt><trkpt lat="42.44501" lon="-7.512625"><ele>497.0</ele><time>2026-04-14T13:32:30.889Z</time></trkpt><trkpt lat="42.4450983" lon="-7.5128583"><ele>497.0</ele><time>2026-04-14T13:32:31.889Z</time></trkpt><trkpt lat="42.4452" lon="-7.5130883"><ele>496.3333333333333</ele><time>2026-04-14T13:32:32.889Z</time></trkpt><trkpt lat="42.4453133" lon="-7.5133017"><ele>495.66666666666663</ele><time>2026-04-14T13:32:33.889Z</time></trkpt><trkpt lat="42.4454183" lon="-7.5135033"><ele>495.0</ele><time>2026-04-14T13:32:34.89Z</time></trkpt><trkpt lat="42.4455233" lon="-7.51371"><ele>491.33333333333337</ele><time>2026-04-14T13:32:35.889Z</time></trkpt><trkpt lat="42.4456417" lon="-7.513925"><ele>487.6666666666667</ele><time>2026-04-14T13:32:36.889Z</time></trkpt><trkpt lat="42.4457517" lon="-7.51413"><ele>484.0</ele><time>2026-04-14T13:32:37.89Z</time></trkpt><trkpt lat="42.4458667" lon="-7.5143333"><ele>484.0</ele><time>2026-04-14T13:32:38.89Z</time></trkpt><trkpt lat="42.4459817" lon="-7.51452"><ele>484.0</ele><time>2026-04-14T13:32:39.89Z</time></trkpt><trkpt lat="42.4460883" lon="-7.5146883"><ele>484.0</ele><time>2026-04-14T13:32:40.889Z</time></trkpt><trkpt lat="42.44622" lon="-7.5148367"><ele>482.0</ele><time>2026-04-14T13:32:41.89Z</time></trkpt><trkpt lat="42.446375" lon="-7.514985"><ele>480.0</ele><time>2026-04-14T13:32:42.889Z</time></trkpt><trkpt lat="42.4465233" lon="-7.5151483"><ele>478.0</ele><time>2026-04-14T13:32:43.89Z</time></trkpt><trkpt lat="42.446665" lon="-7.5153283"><ele>476.6666666666667</ele><time>2026-04-14T13:32:44.89Z</time></trkpt><trkpt lat="42.4468183" lon="-7.5155233"><ele>475.33333333333337</ele><time>2026-04-14T13:32:45.89Z</time></trkpt><trkpt lat="42.4469717" lon="-7.515725"><ele>474.0</ele><time>2026-04-14T13:32:46.89Z</time></trkpt><trkpt lat="42.4471233" lon="-7.51592"><ele>473.33333333333337</ele><time>2026-04-14T13:32:47.889Z</time></trkpt><trkpt lat="42.4472833" lon="-7.51611"><ele>472.6666666666667</ele><time>2026-04-14T13:32:48.889Z</time></trkpt><trkpt lat="42.447435" lon="-7.5163067"><ele>472.0</ele><time>2026-04-14T13:32:49.89Z</time></trkpt><trkpt lat="42.4475883" lon="-7.5165067"><ele>471.33333333333337</ele><time>2026-04-14T13:32:50.889Z</time></trkpt><trkpt lat="42.447725" lon="-7.51669"><ele>470.66666666666663</ele><time>2026-04-14T13:32:51.889Z</time></trkpt><trkpt lat="42.4478683" lon="-7.5168633"><ele>470.0</ele><time>2026-04-14T13:32:52.889Z</time></trkpt><trkpt lat="42.4480117" lon="-7.517015"><ele>468.3333333333333</ele><time>2026-04-14T13:32:53.89Z</time></trkpt><trkpt lat="42.4481517" lon="-7.5171467"><ele>466.66666666666663</ele><time>2026-04-14T13:32:54.889Z</time></trkpt><trkpt lat="42.4483033" lon="-7.5172467"><ele>465.0</ele><time>2026-04-14T13:32:55.89Z</time></trkpt><trkpt lat="42.4484567" lon="-7.5173383"><ele>465.0</ele><time>2026-04-14T13:32:56.889Z</time></trkpt><trkpt lat="42.4485867" lon="-7.5174333"><ele>465.0</ele><time>2026-04-14T13:32:57.89Z</time></trkpt><trkpt lat="42.4487017" lon="-7.51755"><ele>465.0</ele><time>2026-04-14T13:32:58.889Z</time></trkpt><trkpt lat="42.4487933" lon="-7.5177017"><ele>465.0</ele><time>2026-04-14T13:32:59.889Z</time></trkpt><trkpt lat="42.448875" lon="-7.5178817"><ele>463.66666666666663</ele><time>2026-04-14T13:33:00.889Z</time></trkpt><trkpt lat="42.4489767" lon="-7.5180483"><ele>462.3333333333333</ele><time>2026-04-14T13:33:01.89Z</time></trkpt><trkpt lat="42.4490933" lon="-7.518205"><ele>461.0</ele><time>2026-04-14T13:33:02.89Z</time></trkpt><trkpt lat="42.4492233" lon="-7.5183683"><ele>461.0</ele><time>2026-04-14T13:33:03.89Z</time></trkpt><trkpt lat="42.4493433" lon="-7.518535"><ele>461.0</ele><time>2026-04-14T13:33:04.89Z</time></trkpt><trkpt lat="42.4494417" lon="-7.5186783"><ele>461.0</ele><time>2026-04-14T13:33:05.89Z</time></trkpt><trkpt lat="42.4495167" lon="-7.5187883"><ele>461.0</ele><time>2026-04-14T13:33:06.89Z</time></trkpt><trkpt lat="42.4495833" lon="-7.518875"><ele>460.8333333333333</ele><time>2026-04-14T13:33:07.889Z</time></trkpt><trkpt lat="42.449665" lon="-7.518915"><ele>460.66666666666663</ele><time>2026-04-14T13:33:08.889Z</time></trkpt><trkpt lat="42.4497517" lon="-7.518955"><ele>460.5</ele><time>2026-04-14T13:33:09.89Z</time></trkpt><trkpt lat="42.4498217" lon="-7.5189917"><ele>460.33333333333337</ele><time>2026-04-14T13:33:10.889Z</time></trkpt><trkpt lat="42.4498833" lon="-7.5189683"><ele>460.1666666666667</ele><time>2026-04-14T13:33:12.89Z</time></trkpt><trkpt lat="42.4498433" lon="-7.5188617"><ele>460.0</ele><time>2026-04-14T13:33:14.889Z</time></trkpt><trkpt lat="42.4498167" lon="-7.5187683"><ele>460.0</ele><time>2026-04-14T13:33:15.89Z</time></trkpt><trkpt lat="42.4497733" lon="-7.51867"><ele>460.0</ele><time>2026-04-14T13:33:16.889Z</time></trkpt><trkpt lat="42.4497267" lon="-7.51855"><ele>460.0</ele><time>2026-04-14T13:33:17.89Z</time></trkpt><trkpt lat="42.4496633" lon="-7.5184233"><ele>460.0</ele><time>2026-04-14T13:33:18.89Z</time></trkpt><trkpt lat="42.449605" lon="-7.5182783"><ele>460.0</ele><time>2026-04-14T13:33:19.889Z</time></trkpt><trkpt lat="42.449545" lon="-7.51812"><ele>460.25</ele><time>2026-04-14T13:33:20.889Z</time></trkpt><trkpt lat="42.4494833" lon="-7.5179483"><ele>460.5</ele><time>2026-04-14T13:33:21.89Z</time></trkpt><trkpt lat="42.4494183" lon="-7.51779"><ele>460.75</ele><time>2026-04-14T13:33:22.889Z</time></trkpt><trkpt lat="42.449365" lon="-7.5176217"><ele>461.0</ele><time>2026-04-14T13:33:23.889Z</time></trkpt><trkpt lat="42.4493283" lon="-7.51746"><ele>461.0</ele><time>2026-04-14T13:33:24.889Z</time></trkpt><trkpt lat="42.4493117" lon="-7.51729"><ele>461.0</ele><time>2026-04-14T13:33:25.889Z</time></trkpt><trkpt lat="42.4493067" lon="-7.517105"><ele>461.0</ele><time>2026-04-14T13:33:26.89Z</time></trkpt><trkpt lat="42.4493067" lon="-7.5169233"><ele>461.0</ele><time>2026-04-14T13:33:27.89Z</time></trkpt><trkpt lat="42.4493117" lon="-7.516755"><ele>460.25</ele><time>2026-04-14T13:33:28.889Z</time></trkpt><trkpt lat="42.4493167" lon="-7.516565"><ele>459.5</ele><time>2026-04-14T13:33:29.89Z</time></trkpt><trkpt lat="42.4493" lon="-7.516375"><ele>458.75</ele><time>2026-04-14T13:33:30.89Z</time></trkpt><trkpt lat="42.44927" lon="-7.5161817"><ele>458.0</ele><time>2026-04-14T13:33:31.889Z</time></trkpt><trkpt lat="42.449225" lon="-7.5160033"><ele>457.0</ele><time>2026-04-14T13:33:32.89Z</time></trkpt><trkpt lat="42.4491683" lon="-7.51583"><ele>456.0</ele><time>2026-04-14T13:33:33.89Z</time></trkpt><trkpt lat="42.4491017" lon="-7.5156467"><ele>455.0</ele><time>2026-04-14T13:33:34.889Z</time></trkpt><trkpt lat="42.4490517" lon="-7.5154617"><ele>454.0</ele><time>2026-04-14T13:33:35.889Z</time></trkpt><trkpt lat="42.44901" lon="-7.5152867"><ele>453.75</ele><time>2026-04-14T13:33:36.889Z</time></trkpt><trkpt lat="42.4489717" lon="-7.5151367"><ele>453.5</ele><time>2026-04-14T13:33:37.889Z</time></trkpt><trkpt lat="42.448925" lon="-7.5149967"><ele>453.25</ele><time>2026-04-14T13:33:38.89Z</time></trkpt><trkpt lat="42.44887" lon="-7.5148667"><ele>453.0</ele><time>2026-04-14T13:33:39.89Z</time></trkpt><trkpt lat="42.4488083" lon="-7.5147333"><ele>453.79999999999995</ele><time>2026-04-14T13:33:40.89Z</time></trkpt><trkpt lat="42.448735" lon="-7.5145983"><ele>454.59999999999997</ele><time>2026-04-14T13:33:41.889Z</time></trkpt><trkpt lat="42.4486767" lon="-7.5144867"><ele>455.40000000000003</ele><time>2026-04-14T13:33:42.889Z</time></trkpt><trkpt lat="42.448645" lon="-7.51437"><ele>456.20000000000005</ele><time>2026-04-14T13:33:44.889Z</time></trkpt><trkpt lat="42.448755" lon="-7.51429"><ele>457.0</ele><time>2026-04-14T13:33:47.89Z</time></trkpt><trkpt lat="42.4488733" lon="-7.5142533"><ele>457.0</ele><time>2026-04-14T13:33:48.889Z</time></trkpt><trkpt lat="42.449055" lon="-7.514205"><ele>457.0</ele><time>2026-04-14T13:33:49.889Z</time></trkpt><trkpt lat="42.449225" lon="-7.5141567"><ele>457.0</ele><time>2026-04-14T13:33:50.89Z</time></trkpt><trkpt lat="42.4493967" lon="-7.5141067"><ele>457.0</ele><time>2026-04-14T13:33:51.89Z</time></trkpt><trkpt lat="42.4495383" lon="-7.5140533"><ele>457.0</ele><time>2026-04-14T13:33:52.889Z</time></trkpt><trkpt lat="42.449655" lon="-7.5139733"><ele>457.0</ele><time>2026-04-14T13:33:53.89Z</time></trkpt><trkpt lat="42.4497667" lon="-7.5138717"><ele>457.0</ele><time>2026-04-14T13:33:54.889Z</time></trkpt><trkpt lat="42.4498767" lon="-7.51375"><ele>460.6666666666667</ele><time>2026-04-14T13:33:55.89Z</time></trkpt><trkpt lat="42.449995" lon="-7.5136283"><ele>464.33333333333337</ele><time>2026-04-14T13:33:56.889Z</time></trkpt><trkpt lat="42.4501133" lon="-7.5135033"><ele>468.0</ele><time>2026-04-14T13:33:57.889Z</time></trkpt><trkpt lat="42.4502367" lon="-7.5133767"><ele>468.0</ele><time>2026-04-14T13:33:58.89Z</time></trkpt><trkpt lat="42.4503533" lon="-7.5132567"><ele>468.0</ele><time>2026-04-14T13:33:59.889Z</time></trkpt><trkpt lat="42.450455" lon="-7.51315"><ele>468.0</ele><time>2026-04-14T13:34:00.889Z</time></trkpt><trkpt lat="42.4505533" lon="-7.51306"><ele>468.0</ele><time>2026-04-14T13:34:01.89Z</time></trkpt><trkpt lat="42.4506283" lon="-7.51299"><ele>467.59999999999997</ele><time>2026-04-14T13:34:02.89Z</time></trkpt><trkpt lat="42.4506817" lon="-7.51293"><ele>467.19999999999993</ele><time>2026-04-14T13:34:03.89Z</time></trkpt><trkpt lat="42.4507767" lon="-7.512905"><ele>466.8</ele><time>2026-04-14T13:34:05.889Z</time></trkpt><trkpt lat="42.4508483" lon="-7.512935"><ele>466.4</ele><time>2026-04-14T13:34:06.889Z</time></trkpt><trkpt lat="42.4509467" lon="-7.51299"><ele>466.0</ele><time>2026-04-14T13:34:07.89Z</time></trkpt><trkpt lat="42.451065" lon="-7.5130517"><ele>466.0</ele><time>2026-04-14T13:34:08.889Z</time></trkpt><trkpt lat="42.4512217" lon="-7.5131417"><ele>466.0</ele><time>2026-04-14T13:34:09.889Z</time></trkpt><trkpt lat="42.4513967" lon="-7.513245"><ele>466.0</ele><time>2026-04-14T13:34:10.89Z</time></trkpt><trkpt lat="42.4515933" lon="-7.5133517"><ele>465.33333333333337</ele><time>2026-04-14T13:34:11.89Z</time></trkpt><trkpt lat="42.451785" lon="-7.5134717"><ele>464.66666666666663</ele><time>2026-04-14T13:34:12.889Z</time></trkpt><trkpt lat="42.45197" lon="-7.5135867"><ele>464.0</ele><time>2026-04-14T13:34:13.889Z</time></trkpt><trkpt lat="42.4521467" lon="-7.5136983"><ele>463.3333333333333</ele><time>2026-04-14T13:34:14.89Z</time></trkpt><trkpt lat="42.452305" lon="-7.5138117"><ele>462.66666666666663</ele><time>2026-04-14T13:34:15.889Z</time></trkpt><trkpt lat="42.4524583" lon="-7.513945"><ele>462.0</ele><time>2026-04-14T13:34:16.889Z</time></trkpt><trkpt lat="42.452585" lon="-7.5140533"><ele>462.0</ele><time>2026-04-14T13:34:17.889Z</time></trkpt><trkpt lat="42.452705" lon="-7.5141483"><ele>462.0</ele><time>2026-04-14T13:34:18.889Z</time></trkpt><trkpt lat="42.4528317" lon="-7.5142717"><ele>462.0</ele><time>2026-04-14T13:34:19.889Z</time></trkpt><trkpt lat="42.452975" lon="-7.5144"><ele>455.33333333333337</ele><time>2026-04-14T13:34:20.89Z</time></trkpt><trkpt lat="42.4531167" lon="-7.5145333"><ele>448.6666666666667</ele><time>2026-04-14T13:34:21.889Z</time></trkpt><trkpt lat="42.4532567" lon="-7.51465"><ele>442.0</ele><time>2026-04-14T13:34:22.889Z</time></trkpt><trkpt lat="42.45338" lon="-7.5147467"><ele>442.0</ele><time>2026-04-14T13:34:23.889Z</time></trkpt><trkpt lat="42.4534767" lon="-7.514845"><ele>442.00000000000006</ele><time>2026-04-14T13:34:24.89Z</time></trkpt><trkpt lat="42.4535467" lon="-7.5149317"><ele>442.00000000000006</ele><time>2026-04-14T13:34:25.89Z</time></trkpt><trkpt lat="42.45359" lon="-7.515025"><ele>442.0</ele><time>2026-04-14T13:34:26.889Z</time></trkpt><trkpt lat="42.45362" lon="-7.515145"><ele>442.0</ele><time>2026-04-14T13:34:27.89Z</time></trkpt><trkpt lat="42.4536417" lon="-7.5153"><ele>439.20000000000005</ele><time>2026-04-14T13:34:28.889Z</time></trkpt><trkpt lat="42.4536533" lon="-7.5154567"><ele>436.40000000000003</ele><time>2026-04-14T13:34:29.89Z</time></trkpt><trkpt lat="42.4536483" lon="-7.515595"><ele>433.59999999999997</ele><time>2026-04-14T13:34:30.89Z</time></trkpt><trkpt lat="42.45365" lon="-7.515725"><ele>430.79999999999995</ele><time>2026-04-14T13:34:31.89Z</time></trkpt><trkpt lat="42.4536483" lon="-7.515845"><ele>428.0</ele><time>2026-04-14T13:34:32.89Z</time></trkpt><trkpt lat="42.4536667" lon="-7.5159633"><ele>427.99999999999994</ele><time>2026-04-14T13:34:33.889Z</time></trkpt><trkpt lat="42.4536983" lon="-7.5160733"><ele>428.0</ele><time>2026-04-14T13:34:34.889Z</time></trkpt><trkpt lat="42.4537283" lon="-7.5161633"><ele>428.0</ele><time>2026-04-14T13:34:35.889Z</time></trkpt><trkpt lat="42.4537517" lon="-7.51625"><ele>428.0</ele><time>2026-04-14T13:34:36.889Z</time></trkpt><trkpt lat="42.453755" lon="-7.51635"><ele>427.99999999999994</ele><time>2026-04-14T13:34:38.89Z</time></trkpt><trkpt lat="42.453695" lon="-7.5164033"><ele>428.0</ele><time>2026-04-14T13:34:40.89Z</time></trkpt><trkpt lat="42.4536083" lon="-7.5165067"><ele>426.4</ele><time>2026-04-14T13:34:42.889Z</time></trkpt><trkpt lat="42.45356" lon="-7.5165883"><ele>424.79999999999995</ele><time>2026-04-14T13:34:44.889Z</time></trkpt><trkpt lat="42.4535917" lon="-7.5166983"><ele>423.2</ele><time>2026-04-14T13:34:46.89Z</time></trkpt><trkpt lat="42.4536533" lon="-7.516795"><ele>421.6</ele><time>2026-04-14T13:34:47.889Z</time></trkpt><trkpt lat="42.4537267" lon="-7.5169"><ele>420.0</ele><time>2026-04-14T13:34:48.889Z</time></trkpt><trkpt lat="42.45381" lon="-7.5170033"><ele>418.4</ele><time>2026-04-14T13:34:49.89Z</time></trkpt><trkpt lat="42.4538983" lon="-7.5170967"><ele>416.8</ele><time>2026-04-14T13:34:50.89Z</time></trkpt><trkpt lat="42.4539883" lon="-7.5171667"><ele>415.20000000000005</ele><time>2026-04-14T13:34:51.889Z</time></trkpt><trkpt lat="42.4540717" lon="-7.5172083"><ele>413.6</ele><time>2026-04-14T13:34:52.889Z</time></trkpt><trkpt lat="42.4541633" lon="-7.5172167"><ele>412.0</ele><time>2026-04-14T13:34:53.889Z</time></trkpt><trkpt lat="42.4542483" lon="-7.5171767"><ele>412.0</ele><time>2026-04-14T13:34:54.89Z</time></trkpt><trkpt lat="42.454325" lon="-7.5170783"><ele>412.0</ele><time>2026-04-14T13:34:55.89Z</time></trkpt><trkpt lat="42.4543867" lon="-7.5169583"><ele>412.0</ele><time>2026-04-14T13:34:56.89Z</time></trkpt><trkpt lat="42.4544117" lon="-7.51682"><ele>412.0</ele><time>2026-04-14T13:34:57.889Z</time></trkpt><trkpt lat="42.4544267" lon="-7.516695"><ele>412.0</ele><time>2026-04-14T13:34:58.889Z</time></trkpt><trkpt lat="42.4544533" lon="-7.5165983"><ele>412.20000000000005</ele><time>2026-04-14T13:34:59.89Z</time></trkpt><trkpt lat="42.4544933" lon="-7.5165067"><ele>412.4</ele><time>2026-04-14T13:35:00.89Z</time></trkpt><trkpt lat="42.4545533" lon="-7.51643"><ele>412.6</ele><time>2026-04-14T13:35:01.889Z</time></trkpt><trkpt lat="42.4546333" lon="-7.5163533"><ele>412.79999999999995</ele><time>2026-04-14T13:35:02.889Z</time></trkpt><trkpt lat="42.4547483" lon="-7.5162817"><ele>413.0</ele><time>2026-04-14T13:35:03.889Z</time></trkpt><trkpt lat="42.45489" lon="-7.516205"><ele>416.5</ele><time>2026-04-14T13:35:04.89Z</time></trkpt><trkpt lat="42.4550233" lon="-7.5161133"><ele>420.0</ele><time>2026-04-14T13:35:05.889Z</time></trkpt><trkpt lat="42.455135" lon="-7.5160367"><ele>423.5</ele><time>2026-04-14T13:35:06.89Z</time></trkpt><trkpt lat="42.45523" lon="-7.5159967"><ele>427.0</ele><time>2026-04-14T13:35:07.889Z</time></trkpt><trkpt lat="42.4553133" lon="-7.51598"><ele>427.0</ele><time>2026-04-14T13:35:08.89Z</time></trkpt><trkpt lat="42.4553967" lon="-7.51599"><ele>427.0</ele><time>2026-04-14T13:35:09.89Z</time></trkpt><trkpt lat="42.4554833" lon="-7.516065"><ele>427.0</ele><time>2026-04-14T13:35:10.889Z</time></trkpt><trkpt lat="42.4556033" lon="-7.51616"><ele>427.0</ele><time>2026-04-14T13:35:11.889Z</time></trkpt><trkpt lat="42.4557233" lon="-7.5162283"><ele>431.5</ele><time>2026-04-14T13:35:12.89Z</time></trkpt><trkpt lat="42.455835" lon="-7.516255"><ele>436.0</ele><time>2026-04-14T13:35:13.889Z</time></trkpt><trkpt lat="42.45594" lon="-7.516255"><ele>440.5</ele><time>2026-04-14T13:35:14.889Z</time></trkpt><trkpt lat="42.4560533" lon="-7.5162533"><ele>445.0</ele><time>2026-04-14T13:35:15.889Z</time></trkpt><trkpt lat="42.4561817" lon="-7.5162633"><ele>445.0</ele><time>2026-04-14T13:35:16.889Z</time></trkpt><trkpt lat="42.456285" lon="-7.5162567"><ele>445.0</ele><time>2026-04-14T13:35:17.889Z</time></trkpt><trkpt lat="42.4564117" lon="-7.5162483"><ele>445.0</ele><time>2026-04-14T13:35:18.889Z</time></trkpt><trkpt lat="42.4565333" lon="-7.5162383"><ele>445.0</ele><time>2026-04-14T13:35:19.89Z</time></trkpt><trkpt lat="42.4566767" lon="-7.5162233"><ele>448.6666666666667</ele><time>2026-04-14T13:35:20.889Z</time></trkpt><trkpt lat="42.4568217" lon="-7.5162017"><ele>452.33333333333337</ele><time>2026-04-14T13:35:21.89Z</time></trkpt><trkpt lat="42.4569867" lon="-7.5161917"><ele>456.0</ele><time>2026-04-14T13:35:22.89Z</time></trkpt><trkpt lat="42.4571633" lon="-7.5161983"><ele>459.0</ele><time>2026-04-14T13:35:23.889Z</time></trkpt><trkpt lat="42.4573433" lon="-7.516195"><ele>462.0</ele><time>2026-04-14T13:35:24.89Z</time></trkpt><trkpt lat="42.45753" lon="-7.5161717"><ele>465.0</ele><time>2026-04-14T13:35:25.89Z</time></trkpt><trkpt lat="42.4577233" lon="-7.51615"><ele>465.0</ele><time>2026-04-14T13:35:26.889Z</time></trkpt><trkpt lat="42.45792" lon="-7.5161133"><ele>465.0</ele><time>2026-04-14T13:35:27.889Z</time></trkpt><trkpt lat="42.4581033" lon="-7.51608"><ele>465.0</ele><time>2026-04-14T13:35:28.889Z</time></trkpt><trkpt lat="42.4582833" lon="-7.516045"><ele>468.66666666666663</ele><time>2026-04-14T13:35:29.89Z</time></trkpt><trkpt lat="42.4584567" lon="-7.5160267"><ele>472.3333333333333</ele><time>2026-04-14T13:35:30.889Z</time></trkpt><trkpt lat="42.4586167" lon="-7.516025"><ele>476.0</ele><time>2026-04-14T13:35:31.889Z</time></trkpt><trkpt lat="42.4587983" lon="-7.5160567"><ele>476.66666666666663</ele><time>2026-04-14T13:35:32.89Z</time></trkpt><trkpt lat="42.4589867" lon="-7.516105"><ele>477.33333333333337</ele><time>2026-04-14T13:35:33.889Z</time></trkpt><trkpt lat="42.45918" lon="-7.5161667"><ele>478.0</ele><time>2026-04-14T13:35:34.889Z</time></trkpt><trkpt lat="42.4593617" lon="-7.5162083"><ele>478.0</ele><time>2026-04-14T13:35:35.89Z</time></trkpt><trkpt lat="42.4595583" lon="-7.5162217"><ele>478.0</ele><time>2026-04-14T13:35:36.89Z</time></trkpt><trkpt lat="42.45976" lon="-7.5162233"><ele>478.0</ele><time>2026-04-14T13:35:37.889Z</time></trkpt><trkpt lat="42.4599583" lon="-7.5162117"><ele>479.33333333333337</ele><time>2026-04-14T13:35:38.89Z</time></trkpt><trkpt lat="42.46016" lon="-7.516205"><ele>480.66666666666663</ele><time>2026-04-14T13:35:39.889Z</time></trkpt><trkpt lat="42.46035" lon="-7.5161967"><ele>482.0</ele><time>2026-04-14T13:35:40.889Z</time></trkpt><trkpt lat="42.4605217" lon="-7.5162133"><ele>483.3333333333333</ele><time>2026-04-14T13:35:41.889Z</time></trkpt><trkpt lat="42.4606833" lon="-7.5162467"><ele>484.66666666666663</ele><time>2026-04-14T13:35:42.89Z</time></trkpt><trkpt lat="42.4608467" lon="-7.5162983"><ele>486.0</ele><time>2026-04-14T13:35:43.89Z</time></trkpt><trkpt lat="42.4609683" lon="-7.51633"><ele>486.0</ele><time>2026-04-14T13:35:44.89Z</time></trkpt><trkpt lat="42.4610633" lon="-7.5163517"><ele>486.0</ele><time>2026-04-14T13:35:45.89Z</time></trkpt><trkpt lat="42.4611267" lon="-7.5164317"><ele>486.0</ele><time>2026-04-14T13:35:47.889Z</time></trkpt><trkpt lat="42.4610633" lon="-7.5165767"><ele>486.0</ele><time>2026-04-14T13:35:49.889Z</time></trkpt><trkpt lat="42.46099" lon="-7.5166933"><ele>486.0</ele><time>2026-04-14T13:35:50.89Z</time></trkpt><trkpt lat="42.4608983" lon="-7.5168383"><ele>486.0</ele><time>2026-04-14T13:35:51.889Z</time></trkpt><trkpt lat="42.4608233" lon="-7.5169933"><ele>486.0</ele><time>2026-04-14T13:35:52.89Z</time></trkpt><trkpt lat="42.4607733" lon="-7.5171367"><ele>486.0</ele><time>2026-04-14T13:35:53.889Z</time></trkpt><trkpt lat="42.4607783" lon="-7.5172517"><ele>486.0</ele><time>2026-04-14T13:35:54.889Z</time></trkpt><trkpt lat="42.4608167" lon="-7.51734"><ele>486.0</ele><time>2026-04-14T13:35:55.89Z</time></trkpt><trkpt lat="42.460895" lon="-7.51742"><ele>485.6</ele><time>2026-04-14T13:35:56.889Z</time></trkpt><trkpt lat="42.4609783" lon="-7.5175033"><ele>485.20000000000005</ele><time>2026-04-14T13:35:57.889Z</time></trkpt><trkpt lat="42.461055" lon="-7.5175933"><ele>484.79999999999995</ele><time>2026-04-14T13:35:58.89Z</time></trkpt><trkpt lat="42.4611167" lon="-7.5176983"><ele>484.4</ele><time>2026-04-14T13:35:59.889Z</time></trkpt><trkpt lat="42.46115" lon="-7.5178283"><ele>484.0</ele><time>2026-04-14T13:36:00.889Z</time></trkpt><trkpt lat="42.461195" lon="-7.5179567"><ele>483.0</ele><time>2026-04-14T13:36:01.89Z</time></trkpt><trkpt lat="42.461255" lon="-7.518065"><ele>482.0</ele><time>2026-04-14T13:36:02.889Z</time></trkpt><trkpt lat="42.461345" lon="-7.51815"><ele>481.0</ele><time>2026-04-14T13:36:03.89Z</time></trkpt><trkpt lat="42.4614817" lon="-7.51824"><ele>480.0</ele><time>2026-04-14T13:36:04.89Z</time></trkpt><trkpt lat="42.46163" lon="-7.5183167"><ele>480.0</ele><time>2026-04-14T13:36:05.89Z</time></trkpt><trkpt lat="42.4617733" lon="-7.5183517"><ele>480.0</ele><time>2026-04-14T13:36:06.89Z</time></trkpt><trkpt lat="42.4619217" lon="-7.5183717"><ele>480.0</ele><time>2026-04-14T13:36:07.89Z</time></trkpt><trkpt lat="42.4620483" lon="-7.5184017"><ele>480.0</ele><time>2026-04-14T13:36:08.889Z</time></trkpt><trkpt lat="42.462145" lon="-7.51848"><ele>483.0</ele><time>2026-04-14T13:36:09.889Z</time></trkpt><trkpt lat="42.462225" lon="-7.5186017"><ele>486.0</ele><time>2026-04-14T13:36:10.89Z</time></trkpt><trkpt lat="42.4622817" lon="-7.5187483"><ele>489.0</ele><time>2026-04-14T13:36:11.889Z</time></trkpt><trkpt lat="42.46236" lon="-7.51891"><ele>492.0</ele><time>2026-04-14T13:36:12.89Z</time></trkpt><trkpt lat="42.4624617" lon="-7.51904"><ele>493.5</ele><time>2026-04-14T13:36:13.889Z</time></trkpt><trkpt lat="42.4625583" lon="-7.519135"><ele>495.0</ele><time>2026-04-14T13:36:14.889Z</time></trkpt><trkpt lat="42.4626617" lon="-7.5191733"><ele>496.5</ele><time>2026-04-14T13:36:15.89Z</time></trkpt><trkpt lat="42.4627817" lon="-7.5191917"><ele>498.0</ele><time>2026-04-14T13:36:16.89Z</time></trkpt><trkpt lat="42.462915" lon="-7.5192283"><ele>496.75</ele><time>2026-04-14T13:36:17.89Z</time></trkpt><trkpt lat="42.463035" lon="-7.5192883"><ele>495.5</ele><time>2026-04-14T13:36:18.889Z</time></trkpt><trkpt lat="42.4631683" lon="-7.5193717"><ele>494.25</ele><time>2026-04-14T13:36:19.889Z</time></trkpt><trkpt lat="42.4633017" lon="-7.5194717"><ele>493.0</ele><time>2026-04-14T13:36:20.89Z</time></trkpt><trkpt lat="42.463445" lon="-7.5196017"><ele>492.0</ele><time>2026-04-14T13:36:21.889Z</time></trkpt><trkpt lat="42.4635633" lon="-7.5196933"><ele>491.0</ele><time>2026-04-14T13:36:22.889Z</time></trkpt><trkpt lat="42.4637017" lon="-7.5197767"><ele>490.0</ele><time>2026-04-14T13:36:23.89Z</time></trkpt><trkpt lat="42.4638283" lon="-7.5198517"><ele>489.0</ele><time>2026-04-14T13:36:24.889Z</time></trkpt><trkpt lat="42.463955" lon="-7.519915"><ele>485.25</ele><time>2026-04-14T13:36:25.89Z</time></trkpt><trkpt lat="42.4640817" lon="-7.519985"><ele>481.5</ele><time>2026-04-14T13:36:26.89Z</time></trkpt><trkpt lat="42.4641983" lon="-7.52004"><ele>477.75</ele><time>2026-04-14T13:36:27.889Z</time></trkpt><trkpt lat="42.4643117" lon="-7.5200767"><ele>474.0</ele><time>2026-04-14T13:36:28.889Z</time></trkpt><trkpt lat="42.4644317" lon="-7.52008"><ele>474.0</ele><time>2026-04-14T13:36:29.889Z</time></trkpt><trkpt lat="42.46457" lon="-7.5200633"><ele>474.0</ele><time>2026-04-14T13:36:30.889Z</time></trkpt><trkpt lat="42.4647033" lon="-7.5200467"><ele>474.0</ele><time>2026-04-14T13:36:31.889Z</time></trkpt><trkpt lat="42.4648033" lon="-7.5200583"><ele>474.0</ele><time>2026-04-14T13:36:32.889Z</time></trkpt><trkpt lat="42.4648667" lon="-7.520115"><ele>474.0</ele><time>2026-04-14T13:36:33.889Z</time></trkpt><trkpt lat="42.46488" lon="-7.5202667"><ele>474.6</ele><time>2026-04-14T13:36:35.89Z</time></trkpt><trkpt lat="42.4648483" lon="-7.5203867"><ele>475.2</ele><time>2026-04-14T13:36:36.889Z</time></trkpt><trkpt lat="42.4648217" lon="-7.5205183"><ele>475.80000000000007</ele><time>2026-04-14T13:36:37.889Z</time></trkpt><trkpt lat="42.4648117" lon="-7.5206417"><ele>476.40000000000003</ele><time>2026-04-14T13:36:38.889Z</time></trkpt><trkpt lat="42.4648133" lon="-7.5207383"><ele>477.0</ele><time>2026-04-14T13:36:39.89Z</time></trkpt><trkpt lat="42.464895" lon="-7.5208383"><ele>477.0</ele><time>2026-04-14T13:36:41.889Z</time></trkpt><trkpt lat="42.4649817" lon="-7.5208233"><ele>477.0</ele><time>2026-04-14T13:36:42.889Z</time></trkpt><trkpt lat="42.4650817" lon="-7.5207683"><ele>477.0</ele><time>2026-04-14T13:36:43.889Z</time></trkpt><trkpt lat="42.4652167" lon="-7.5207017"><ele>477.0</ele><time>2026-04-14T13:36:44.889Z</time></trkpt><trkpt lat="42.465355" lon="-7.5206517"><ele>480.5</ele><time>2026-04-14T13:36:45.889Z</time></trkpt><trkpt lat="42.4654917" lon="-7.520625"><ele>484.0</ele><time>2026-04-14T13:36:46.89Z</time></trkpt><trkpt lat="42.465625" lon="-7.52063"><ele>487.5</ele><time>2026-04-14T13:36:47.889Z</time></trkpt><trkpt lat="42.4657283" lon="-7.52067"><ele>491.0</ele><time>2026-04-14T13:36:48.889Z</time></trkpt><trkpt lat="42.465805" lon="-7.52073"><ele>491.0</ele><time>2026-04-14T13:36:49.889Z</time></trkpt><trkpt lat="42.4658567" lon="-7.5208017"><ele>491.0</ele><time>2026-04-14T13:36:50.889Z</time></trkpt><trkpt lat="42.465885" lon="-7.5209033"><ele>491.0</ele><time>2026-04-14T13:36:51.889Z</time></trkpt><trkpt lat="42.4659117" lon="-7.5210317"><ele>491.0</ele><time>2026-04-14T13:36:52.889Z</time></trkpt><trkpt lat="42.4659433" lon="-7.5211783"><ele>491.0</ele><time>2026-04-14T13:36:53.889Z</time></trkpt><trkpt lat="42.46598" lon="-7.5213467"><ele>493.66666666666663</ele><time>2026-04-14T13:36:54.89Z</time></trkpt><trkpt lat="42.4660283" lon="-7.5215267"><ele>496.33333333333337</ele><time>2026-04-14T13:36:55.89Z</time></trkpt><trkpt lat="42.46608" lon="-7.5217217"><ele>499.0</ele><time>2026-04-14T13:36:56.889Z</time></trkpt><trkpt lat="42.4661483" lon="-7.5219333"><ele>499.6666666666667</ele><time>2026-04-14T13:36:57.89Z</time></trkpt><trkpt lat="42.46621" lon="-7.5221417"><ele>500.33333333333337</ele><time>2026-04-14T13:36:58.89Z</time></trkpt><trkpt lat="42.4662483" lon="-7.5223433"><ele>501.0</ele><time>2026-04-14T13:36:59.889Z</time></trkpt><trkpt lat="42.46627" lon="-7.5225467"><ele>501.0</ele><time>2026-04-14T13:37:00.889Z</time></trkpt><trkpt lat="42.4662717" lon="-7.5227683"><ele>501.0</ele><time>2026-04-14T13:37:01.89Z</time></trkpt><trkpt lat="42.466275" lon="-7.52299"><ele>501.0</ele><time>2026-04-14T13:37:02.89Z</time></trkpt><trkpt lat="42.4662833" lon="-7.5231917"><ele>501.75</ele><time>2026-04-14T13:37:03.889Z</time></trkpt><trkpt lat="42.4662733" lon="-7.5233833"><ele>502.5</ele><time>2026-04-14T13:37:04.889Z</time></trkpt><trkpt lat="42.4662633" lon="-7.5235483"><ele>503.25</ele><time>2026-04-14T13:37:05.889Z</time></trkpt><trkpt lat="42.4662467" lon="-7.5236917"><ele>504.0</ele><time>2026-04-14T13:37:06.889Z</time></trkpt><trkpt lat="42.4662333" lon="-7.5238083"><ele>504.0</ele><time>2026-04-14T13:37:07.889Z</time></trkpt><trkpt lat="42.4662283" lon="-7.5239083"><ele>504.0</ele><time>2026-04-14T13:37:08.89Z</time></trkpt><trkpt lat="42.46625" lon="-7.523995"><ele>504.0</ele><time>2026-04-14T13:37:10.89Z</time></trkpt><trkpt lat="42.46634" lon="-7.5239583"><ele>504.0</ele><time>2026-04-14T13:37:12.89Z</time></trkpt><trkpt lat="42.466405" lon="-7.5238833"><ele>504.0</ele><time>2026-04-14T13:37:13.89Z</time></trkpt><trkpt lat="42.4664917" lon="-7.5237733"><ele>504.0</ele><time>2026-04-14T13:37:14.89Z</time></trkpt><trkpt lat="42.46658" lon="-7.523685"><ele>505.0</ele><time>2026-04-14T13:37:15.89Z</time></trkpt><trkpt lat="42.46667" lon="-7.5236383"><ele>506.0</ele><time>2026-04-14T13:37:16.89Z</time></trkpt><trkpt lat="42.4667833" lon="-7.52362"><ele>507.0</ele><time>2026-04-14T13:37:17.89Z</time></trkpt><trkpt lat="42.4669283" lon="-7.5236117"><ele>508.0</ele><time>2026-04-14T13:37:18.89Z</time></trkpt><trkpt lat="42.4670817" lon="-7.5236067"><ele>501.6666666666667</ele><time>2026-04-14T13:37:19.889Z</time></trkpt><trkpt lat="42.4672533" lon="-7.523615"><ele>495.33333333333337</ele><time>2026-04-14T13:37:20.89Z</time></trkpt><trkpt lat="42.4674433" lon="-7.52362"><ele>489.0</ele><time>2026-04-14T13:37:21.889Z</time></trkpt><trkpt lat="42.4676383" lon="-7.5236283"><ele>489.0</ele><time>2026-04-14T13:37:22.889Z</time></trkpt><trkpt lat="42.4678367" lon="-7.523645"><ele>489.0</ele><time>2026-04-14T13:37:23.89Z</time></trkpt><trkpt lat="42.4680383" lon="-7.5236567"><ele>489.0</ele><time>2026-04-14T13:37:24.89Z</time></trkpt><trkpt lat="42.4682417" lon="-7.52368"><ele>482.66666666666663</ele><time>2026-04-14T13:37:25.889Z</time></trkpt><trkpt lat="42.4684267" lon="-7.5236817"><ele>476.3333333333333</ele><time>2026-04-14T13:37:26.889Z</time></trkpt><trkpt lat="42.468595" lon="-7.5236867"><ele>470.0</ele><time>2026-04-14T13:37:27.89Z</time></trkpt><trkpt lat="42.4687433" lon="-7.5236967"><ele>469.16666666666663</ele><time>2026-04-14T13:37:28.889Z</time></trkpt><trkpt lat="42.4688433" lon="-7.5236967"><ele>468.3333333333333</ele><time>2026-04-14T13:37:29.89Z</time></trkpt><trkpt lat="42.46891" lon="-7.5237183"><ele>467.5</ele><time>2026-04-14T13:37:30.889Z</time></trkpt><trkpt lat="42.4689883" lon="-7.5238083"><ele>466.66666666666663</ele><time>2026-04-14T13:37:32.889Z</time></trkpt><trkpt lat="42.46901" lon="-7.523895"><ele>465.8333333333333</ele><time>2026-04-14T13:37:33.89Z</time></trkpt><trkpt lat="42.4690383" lon="-7.5240117"><ele>465.0</ele><time>2026-04-14T13:37:34.889Z</time></trkpt><trkpt lat="42.46907" lon="-7.5241433"><ele>465.0</ele><time>2026-04-14T13:37:35.889Z</time></trkpt><trkpt lat="42.4691117" lon="-7.5243083"><ele>465.0</ele><time>2026-04-14T13:37:36.89Z</time></trkpt><trkpt lat="42.46915" lon="-7.52449"><ele>465.0</ele><time>2026-04-14T13:37:37.889Z</time></trkpt><trkpt lat="42.469175" lon="-7.5246733"><ele>465.0</ele><time>2026-04-14T13:37:38.89Z</time></trkpt><trkpt lat="42.4691767" lon="-7.5248633"><ele>462.75</ele><time>2026-04-14T13:37:39.889Z</time></trkpt><trkpt lat="42.4691567" lon="-7.5250483"><ele>460.5</ele><time>2026-04-14T13:37:40.89Z</time></trkpt><trkpt lat="42.4691217" lon="-7.5252367"><ele>458.25</ele><time>2026-04-14T13:37:41.89Z</time></trkpt><trkpt lat="42.4690633" lon="-7.5254367"><ele>456.0</ele><time>2026-04-14T13:37:42.889Z</time></trkpt><trkpt lat="42.4690017" lon="-7.5256583"><ele>452.66666666666663</ele><time>2026-04-14T13:37:43.889Z</time></trkpt><trkpt lat="42.46893" lon="-7.5258733"><ele>449.3333333333333</ele><time>2026-04-14T13:37:44.889Z</time></trkpt><trkpt lat="42.46884" lon="-7.5260817"><ele>446.0</ele><time>2026-04-14T13:37:45.889Z</time></trkpt><trkpt lat="42.4687533" lon="-7.52628"><ele>443.66666666666663</ele><time>2026-04-14T13:37:46.889Z</time></trkpt><trkpt lat="42.4686533" lon="-7.5264633"><ele>441.33333333333337</ele><time>2026-04-14T13:37:47.889Z</time></trkpt><trkpt lat="42.4685617" lon="-7.52663"><ele>439.0</ele><time>2026-04-14T13:37:48.89Z</time></trkpt><trkpt lat="42.468465" lon="-7.5267767"><ele>439.0</ele><time>2026-04-14T13:37:49.889Z</time></trkpt><trkpt lat="42.4683517" lon="-7.52692"><ele>439.0</ele><time>2026-04-14T13:37:50.889Z</time></trkpt><trkpt lat="42.46824" lon="-7.5270517"><ele>439.0</ele><time>2026-04-14T13:37:51.89Z</time></trkpt><trkpt lat="42.468125" lon="-7.5271833"><ele>437.33333333333337</ele><time>2026-04-14T13:37:52.889Z</time></trkpt><trkpt lat="42.4680167" lon="-7.5273317"><ele>435.66666666666663</ele><time>2026-04-14T13:37:53.89Z</time></trkpt><trkpt lat="42.46792" lon="-7.527495"><ele>434.0</ele><time>2026-04-14T13:37:54.889Z</time></trkpt><trkpt lat="42.4678417" lon="-7.527685"><ele>434.0</ele><time>2026-04-14T13:37:55.889Z</time></trkpt><trkpt lat="42.467765" lon="-7.5278767"><ele>434.0</ele><time>2026-04-14T13:37:56.889Z</time></trkpt><trkpt lat="42.4676733" lon="-7.5280733"><ele>434.0</ele><time>2026-04-14T13:37:57.89Z</time></trkpt><trkpt lat="42.46758" lon="-7.5282383"><ele>432.4</ele><time>2026-04-14T13:37:58.89Z</time></trkpt><trkpt lat="42.4675" lon="-7.5283783"><ele>430.79999999999995</ele><time>2026-04-14T13:37:59.889Z</time></trkpt><trkpt lat="42.467445" lon="-7.5285017"><ele>429.20000000000005</ele><time>2026-04-14T13:38:00.889Z</time></trkpt><trkpt lat="42.4674117" lon="-7.5285983"><ele>427.6</ele><time>2026-04-14T13:38:01.889Z</time></trkpt><trkpt lat="42.46739" lon="-7.5287017"><ele>426.0</ele><time>2026-04-14T13:38:03.889Z</time></trkpt><trkpt lat="42.4674833" lon="-7.5286783"><ele>426.0</ele><time>2026-04-14T13:38:06.89Z</time></trkpt><trkpt lat="42.4675583" lon="-7.5286283"><ele>426.0</ele><time>2026-04-14T13:38:07.89Z</time></trkpt><trkpt lat="42.4677033" lon="-7.5285283"><ele>426.0</ele><time>2026-04-14T13:38:08.89Z</time></trkpt><trkpt lat="42.46787" lon="-7.5284083"><ele>426.0</ele><time>2026-04-14T13:38:09.89Z</time></trkpt><trkpt lat="42.468075" lon="-7.5283033"><ele>423.0</ele><time>2026-04-14T13:38:10.889Z</time></trkpt><trkpt lat="42.4682967" lon="-7.528255"><ele>420.0</ele><time>2026-04-14T13:38:11.889Z</time></trkpt><trkpt lat="42.4685117" lon="-7.528265"><ele>417.0</ele><time>2026-04-14T13:38:12.889Z</time></trkpt><trkpt lat="42.46871" lon="-7.5282767"><ele>414.0</ele><time>2026-04-14T13:38:13.89Z</time></trkpt><trkpt lat="42.4689167" lon="-7.5282867"><ele>411.0</ele><time>2026-04-14T13:38:14.89Z</time></trkpt><trkpt lat="42.46912" lon="-7.528295"><ele>408.0</ele><time>2026-04-14T13:38:15.89Z</time></trkpt><trkpt lat="42.4693033" lon="-7.5283"><ele>408.0</ele><time>2026-04-14T13:38:16.89Z</time></trkpt><trkpt lat="42.4694567" lon="-7.528305"><ele>408.0</ele><time>2026-04-14T13:38:17.89Z</time></trkpt><trkpt lat="42.46958" lon="-7.5283233"><ele>408.0</ele><time>2026-04-14T13:38:18.89Z</time></trkpt><trkpt lat="42.469675" lon="-7.5283783"><ele>408.0</ele><time>2026-04-14T13:38:19.89Z</time></trkpt><trkpt lat="42.46976" lon="-7.528465"><ele>408.25</ele><time>2026-04-14T13:38:20.889Z</time></trkpt><trkpt lat="42.46986" lon="-7.5285533"><ele>408.5</ele><time>2026-04-14T13:38:21.889Z</time></trkpt><trkpt lat="42.4699833" lon="-7.5286317"><ele>408.75</ele><time>2026-04-14T13:38:22.889Z</time></trkpt><trkpt lat="42.4701283" lon="-7.5287167"><ele>409.0</ele><time>2026-04-14T13:38:23.889Z</time></trkpt><trkpt lat="42.4703033" lon="-7.5288"><ele>406.6666666666667</ele><time>2026-04-14T13:38:24.889Z</time></trkpt><trkpt lat="42.4704667" lon="-7.5288667"><ele>404.33333333333337</ele><time>2026-04-14T13:38:25.89Z</time></trkpt><trkpt lat="42.470645" lon="-7.52892"><ele>402.0</ele><time>2026-04-14T13:38:26.89Z</time></trkpt><trkpt lat="42.4708183" lon="-7.5289483"><ele>402.0</ele><time>2026-04-14T13:38:27.889Z</time></trkpt><trkpt lat="42.4709583" lon="-7.5289533"><ele>402.0</ele><time>2026-04-14T13:38:28.89Z</time></trkpt><trkpt lat="42.4711317" lon="-7.5289733"><ele>402.0</ele><time>2026-04-14T13:38:29.889Z</time></trkpt><trkpt lat="42.4713117" lon="-7.5290167"><ele>403.33333333333337</ele><time>2026-04-14T13:38:30.89Z</time></trkpt><trkpt lat="42.4714983" lon="-7.529085"><ele>404.6666666666667</ele><time>2026-04-14T13:38:31.89Z</time></trkpt><trkpt lat="42.4716783" lon="-7.5291433"><ele>406.0</ele><time>2026-04-14T13:38:32.89Z</time></trkpt><trkpt lat="42.4718267" lon="-7.5292017"><ele>406.00000000000006</ele><time>2026-04-14T13:38:33.89Z</time></trkpt><trkpt lat="42.4719083" lon="-7.52925"><ele>406.0</ele><time>2026-04-14T13:38:34.889Z</time></trkpt><trkpt lat="42.4719667" lon="-7.5292967"><ele>406.0</ele><time>2026-04-14T13:38:35.89Z</time></trkpt><trkpt lat="42.4720367" lon="-7.5293517"><ele>406.0</ele><time>2026-04-14T13:38:37.889Z</time></trkpt><trkpt lat="42.471955" lon="-7.529315"><ele>406.00000000000006</ele><time>2026-04-14T13:38:43.89Z</time></trkpt><trkpt lat="42.4719267" lon="-7.5292083"><ele>406.0</ele><time>2026-04-14T13:38:46.89Z</time></trkpt><trkpt lat="42.472055" lon="-7.5291217"><ele>404.33333333333337</ele><time>2026-04-14T13:38:48.89Z</time></trkpt><trkpt lat="42.4721617" lon="-7.5290583"><ele>402.66666666666663</ele><time>2026-04-14T13:38:49.891Z</time></trkpt><trkpt lat="42.4724017" lon="-7.5289733"><ele>401.0</ele><time>2026-04-14T13:38:50.891Z</time></trkpt><trkpt lat="42.472615" lon="-7.52889"><ele>401.0</ele><time>2026-04-14T13:38:51.89Z</time></trkpt><trkpt lat="42.4728217" lon="-7.52883"><ele>401.0</ele><time>2026-04-14T13:38:52.891Z</time></trkpt><trkpt lat="42.4729867" lon="-7.52877"><ele>401.0</ele><time>2026-04-14T13:38:53.89Z</time></trkpt><trkpt lat="42.4731583" lon="-7.5287133"><ele>398.66666666666663</ele><time>2026-04-14T13:38:54.89Z</time></trkpt><trkpt lat="42.473335" lon="-7.5286883"><ele>396.33333333333337</ele><time>2026-04-14T13:38:55.89Z</time></trkpt><trkpt lat="42.4735267" lon="-7.5287"><ele>394.0</ele><time>2026-04-14T13:38:56.891Z</time></trkpt><trkpt lat="42.47369" lon="-7.5287333"><ele>391.6666666666667</ele><time>2026-04-14T13:38:57.89Z</time></trkpt><trkpt lat="42.4738433" lon="-7.5287783"><ele>389.33333333333337</ele><time>2026-04-14T13:38:58.89Z</time></trkpt><trkpt lat="42.473995" lon="-7.528815"><ele>387.0</ele><time>2026-04-14T13:38:59.89Z</time></trkpt><trkpt lat="42.4741333" lon="-7.5288517"><ele>387.0</ele><time>2026-04-14T13:39:00.891Z</time></trkpt><trkpt lat="42.47426" lon="-7.52889"><ele>387.0</ele><time>2026-04-14T13:39:01.891Z</time></trkpt><trkpt lat="42.47438" lon="-7.5289433"><ele>387.0</ele><time>2026-04-14T13:39:02.89Z</time></trkpt><trkpt lat="42.4745083" lon="-7.5290117"><ele>387.0</ele><time>2026-04-14T13:39:03.891Z</time></trkpt><trkpt lat="42.4746317" lon="-7.5290933"><ele>382.6666666666667</ele><time>2026-04-14T13:39:04.891Z</time></trkpt><trkpt lat="42.4747633" lon="-7.5292033"><ele>378.33333333333337</ele><time>2026-04-14T13:39:05.891Z</time></trkpt><trkpt lat="42.4748983" lon="-7.5293417"><ele>374.0</ele><time>2026-04-14T13:39:06.89Z</time></trkpt><trkpt lat="42.4750383" lon="-7.5294767"><ele>374.33333333333337</ele><time>2026-04-14T13:39:07.89Z</time></trkpt><trkpt lat="42.4751917" lon="-7.5296017"><ele>374.6666666666667</ele><time>2026-04-14T13:39:08.89Z</time></trkpt><trkpt lat="42.47535" lon="-7.5297167"><ele>375.0</ele><time>2026-04-14T13:39:09.891Z</time></trkpt><trkpt lat="42.475485" lon="-7.5298217"><ele>372.0</ele><time>2026-04-14T13:39:10.89Z</time></trkpt><trkpt lat="42.4756117" lon="-7.5299433"><ele>369.0</ele><time>2026-04-14T13:39:11.89Z</time></trkpt><trkpt lat="42.4757333" lon="-7.5300917"><ele>366.0</ele><time>2026-04-14T13:39:12.89Z</time></trkpt><trkpt lat="42.47585" lon="-7.5302333"><ele>366.0</ele><time>2026-04-14T13:39:13.89Z</time></trkpt><trkpt lat="42.4759817" lon="-7.5303617"><ele>366.0</ele><time>2026-04-14T13:39:14.891Z</time></trkpt><trkpt lat="42.4761467" lon="-7.53048"><ele>366.0</ele><time>2026-04-14T13:39:15.89Z</time></trkpt><trkpt lat="42.47632" lon="-7.53057"><ele>362.6666666666667</ele><time>2026-04-14T13:39:16.89Z</time></trkpt><trkpt lat="42.4764933" lon="-7.5306433"><ele>359.33333333333337</ele><time>2026-04-14T13:39:17.89Z</time></trkpt><trkpt lat="42.4766583" lon="-7.5307017"><ele>356.0</ele><time>2026-04-14T13:39:18.89Z</time></trkpt><trkpt lat="42.4768" lon="-7.5307633"><ele>356.0</ele><time>2026-04-14T13:39:19.89Z</time></trkpt><trkpt lat="42.4769333" lon="-7.53083"><ele>356.0</ele><time>2026-04-14T13:39:20.891Z</time></trkpt><trkpt lat="42.4770467" lon="-7.5308917"><ele>356.0</ele><time>2026-04-14T13:39:21.89Z</time></trkpt><trkpt lat="42.4771433" lon="-7.5309583"><ele>356.0</ele><time>2026-04-14T13:39:22.89Z</time></trkpt><trkpt lat="42.4772017" lon="-7.5310083"><ele>356.0</ele><time>2026-04-14T13:39:23.891Z</time></trkpt><trkpt lat="42.477265" lon="-7.5310017"><ele>356.0</ele><time>2026-04-14T13:39:25.89Z</time></trkpt><trkpt lat="42.4772483" lon="-7.5308967"><ele>356.0</ele><time>2026-04-14T13:39:27.89Z</time></trkpt><trkpt lat="42.4772283" lon="-7.5308117"><ele>356.0</ele><time>2026-04-14T13:39:28.891Z</time></trkpt><trkpt lat="42.477205" lon="-7.5307133"><ele>356.0</ele><time>2026-04-14T13:39:29.891Z</time></trkpt><trkpt lat="42.4771567" lon="-7.530615"><ele>356.0</ele><time>2026-04-14T13:39:30.89Z</time></trkpt><trkpt lat="42.4770867" lon="-7.5305233"><ele>356.0</ele><time>2026-04-14T13:39:31.89Z</time></trkpt><trkpt lat="42.4770117" lon="-7.53044"><ele>357.0</ele><time>2026-04-14T13:39:32.89Z</time></trkpt><trkpt lat="42.476955" lon="-7.5303517"><ele>358.0</ele><time>2026-04-14T13:39:33.891Z</time></trkpt><trkpt lat="42.476925" lon="-7.5302517"><ele>359.0</ele><time>2026-04-14T13:39:34.891Z</time></trkpt><trkpt lat="42.4769" lon="-7.5301367"><ele>360.0</ele><time>2026-04-14T13:39:35.89Z</time></trkpt><trkpt lat="42.4768967" lon="-7.529995"><ele>361.0</ele><time>2026-04-14T13:39:36.891Z</time></trkpt><trkpt lat="42.4769033" lon="-7.5298517"><ele>361.0</ele><time>2026-04-14T13:39:37.891Z</time></trkpt><trkpt lat="42.4769133" lon="-7.5297183"><ele>361.0</ele><time>2026-04-14T13:39:38.891Z</time></trkpt><trkpt lat="42.4769117" lon="-7.5295633"><ele>361.0</ele><time>2026-04-14T13:39:39.89Z</time></trkpt><trkpt lat="42.4769117" lon="-7.5294033"><ele>361.0</ele><time>2026-04-14T13:39:40.891Z</time></trkpt><trkpt lat="42.4768983" lon="-7.52923"><ele>361.0</ele><time>2026-04-14T13:39:41.891Z</time></trkpt><trkpt lat="42.476875" lon="-7.5290733"><ele>361.0</ele><time>2026-04-14T13:39:42.89Z</time></trkpt><trkpt lat="42.4768317" lon="-7.528915"><ele>361.0</ele><time>2026-04-14T13:39:43.891Z</time></trkpt><trkpt lat="42.4767783" lon="-7.52873"><ele>361.0</ele><time>2026-04-14T13:39:44.89Z</time></trkpt><trkpt lat="42.4767283" lon="-7.5285417"><ele>361.0</ele><time>2026-04-14T13:39:45.89Z</time></trkpt><trkpt lat="42.47668" lon="-7.5283767"><ele>361.0</ele><time>2026-04-14T13:39:46.891Z</time></trkpt><trkpt lat="42.47662" lon="-7.5282267"><ele>361.0</ele><time>2026-04-14T13:39:47.891Z</time></trkpt><trkpt lat="42.4765517" lon="-7.5280833"><ele>361.0</ele><time>2026-04-14T13:39:48.891Z</time></trkpt><trkpt lat="42.476475" lon="-7.5279483"><ele>361.6</ele><time>2026-04-14T13:39:49.89Z</time></trkpt><trkpt lat="42.47639" lon="-7.5278267"><ele>362.20000000000005</ele><time>2026-04-14T13:39:50.891Z</time></trkpt><trkpt lat="42.4763083" lon="-7.5277167"><ele>362.79999999999995</ele><time>2026-04-14T13:39:51.89Z</time></trkpt><trkpt lat="42.476225" lon="-7.527625"><ele>363.4</ele><time>2026-04-14T13:39:52.89Z</time></trkpt><trkpt lat="42.4761517" lon="-7.5275517"><ele>364.0</ele><time>2026-04-14T13:39:53.89Z</time></trkpt><trkpt lat="42.4761033" lon="-7.5274783"><ele>364.0</ele><time>2026-04-14T13:39:54.891Z</time></trkpt><trkpt lat="42.4760683" lon="-7.5273817"><ele>364.0</ele><time>2026-04-14T13:39:55.89Z</time></trkpt><trkpt lat="42.476065" lon="-7.52726"><ele>364.0</ele><time>2026-04-14T13:39:56.89Z</time></trkpt><trkpt lat="42.4761117" lon="-7.5271267"><ele>364.0</ele><time>2026-04-14T13:39:57.891Z</time></trkpt><trkpt lat="42.4761617" lon="-7.5269933"><ele>364.0</ele><time>2026-04-14T13:39:58.89Z</time></trkpt><trkpt lat="42.4762083" lon="-7.5269017"><ele>364.4</ele><time>2026-04-14T13:39:59.89Z</time></trkpt><trkpt lat="42.4761067" lon="-7.5268783"><ele>364.79999999999995</ele><time>2026-04-14T13:40:04.891Z</time></trkpt><trkpt lat="42.476015" lon="-7.52692"><ele>365.20000000000005</ele><time>2026-04-14T13:40:05.891Z</time></trkpt><trkpt lat="42.4759133" lon="-7.5269567"><ele>365.6</ele><time>2026-04-14T13:40:06.891Z</time></trkpt><trkpt lat="42.4758" lon="-7.52698"><ele>366.0</ele><time>2026-04-14T13:40:07.891Z</time></trkpt><trkpt lat="42.475685" lon="-7.526995"><ele>366.0</ele><time>2026-04-14T13:40:08.89Z</time></trkpt><trkpt lat="42.4755767" lon="-7.5269783"><ele>366.0</ele><time>2026-04-14T13:40:09.89Z</time></trkpt><trkpt lat="42.4754667" lon="-7.5269533"><ele>366.0</ele><time>2026-04-14T13:40:10.89Z</time></trkpt><trkpt lat="42.4753583" lon="-7.5269133"><ele>366.0</ele><time>2026-04-14T13:40:11.89Z</time></trkpt><trkpt lat="42.4752567" lon="-7.5268717"><ele>366.0</ele><time>2026-04-14T13:40:12.891Z</time></trkpt><trkpt lat="42.4751467" lon="-7.52682"><ele>367.0</ele><time>2026-04-14T13:40:13.89Z</time></trkpt><trkpt lat="42.4750317" lon="-7.5267617"><ele>368.0</ele><time>2026-04-14T13:40:14.89Z</time></trkpt><trkpt lat="42.4749133" lon="-7.52669"><ele>369.0</ele><time>2026-04-14T13:40:15.89Z</time></trkpt><trkpt lat="42.474795" lon="-7.526595"><ele>370.0</ele><time>2026-04-14T13:40:16.89Z</time></trkpt><trkpt lat="42.4746933" lon="-7.5264967"><ele>371.4</ele><time>2026-04-14T13:40:17.891Z</time></trkpt><trkpt lat="42.4745917" lon="-7.526405"><ele>372.8</ele><time>2026-04-14T13:40:18.89Z</time></trkpt><trkpt lat="42.474495" lon="-7.5263383"><ele>374.20000000000005</ele><time>2026-04-14T13:40:19.891Z</time></trkpt><trkpt lat="42.4744033" lon="-7.52629"><ele>375.6</ele><time>2026-04-14T13:40:20.891Z</time></trkpt><trkpt lat="42.47432" lon="-7.5262383"><ele>377.0</ele><time>2026-04-14T13:40:21.891Z</time></trkpt><trkpt lat="42.4742433" lon="-7.5261717"><ele>378.0</ele><time>2026-04-14T13:40:22.89Z</time></trkpt><trkpt lat="42.4741967" lon="-7.5260833"><ele>379.0</ele><time>2026-04-14T13:40:23.89Z</time></trkpt><trkpt lat="42.4741783" lon="-7.5259733"><ele>380.0</ele><time>2026-04-14T13:40:24.89Z</time></trkpt><trkpt lat="42.4741667" lon="-7.5258483"><ele>381.0</ele><time>2026-04-14T13:40:25.89Z</time></trkpt><trkpt lat="42.47417" lon="-7.5257083"><ele>382.0</ele><time>2026-04-14T13:40:26.89Z</time></trkpt><trkpt lat="42.474165" lon="-7.5255767"><ele>382.0</ele><time>2026-04-14T13:40:27.891Z</time></trkpt><trkpt lat="42.4741433" lon="-7.5254517"><ele>382.0</ele><time>2026-04-14T13:40:28.89Z</time></trkpt><trkpt lat="42.474105" lon="-7.5253183"><ele>382.0</ele><time>2026-04-14T13:40:29.89Z</time></trkpt><trkpt lat="42.4740533" lon="-7.5252083"><ele>382.0</ele><time>2026-04-14T13:40:30.891Z</time></trkpt><trkpt lat="42.4739833" lon="-7.5250867"><ele>382.0</ele><time>2026-04-14T13:40:31.89Z</time></trkpt><trkpt lat="42.473915" lon="-7.5249933"><ele>383.75</ele><time>2026-04-14T13:40:32.891Z</time></trkpt><trkpt lat="42.4738383" lon="-7.5249117"><ele>385.5</ele><time>2026-04-14T13:40:33.89Z</time></trkpt><trkpt lat="42.47375" lon="-7.5248183"><ele>387.25</ele><time>2026-04-14T13:40:34.89Z</time></trkpt><trkpt lat="42.473655" lon="-7.5246983"><ele>389.0</ele><time>2026-04-14T13:40:35.891Z</time></trkpt><trkpt lat="42.473555" lon="-7.52456"><ele>392.66666666666663</ele><time>2026-04-14T13:40:36.891Z</time></trkpt><trkpt lat="42.473455" lon="-7.524415"><ele>396.33333333333337</ele><time>2026-04-14T13:40:37.891Z</time></trkpt><trkpt lat="42.473345" lon="-7.5242517"><ele>400.0</ele><time>2026-04-14T13:40:38.891Z</time></trkpt><trkpt lat="42.4732167" lon="-7.5240983"><ele>400.0</ele><time>2026-04-14T13:40:39.89Z</time></trkpt><trkpt lat="42.4730933" lon="-7.523945"><ele>400.0</ele><time>2026-04-14T13:40:40.891Z</time></trkpt><trkpt lat="42.4729717" lon="-7.5238083"><ele>400.0</ele><time>2026-04-14T13:40:41.89Z</time></trkpt><trkpt lat="42.4728483" lon="-7.5236917"><ele>403.0</ele><time>2026-04-14T13:40:42.891Z</time></trkpt><trkpt lat="42.4727267" lon="-7.5235667"><ele>406.0</ele><time>2026-04-14T13:40:43.891Z</time></trkpt><trkpt lat="42.4726067" lon="-7.5234383"><ele>409.0</ele><time>2026-04-14T13:40:44.89Z</time></trkpt><trkpt lat="42.4724767" lon="-7.5233117"><ele>409.0</ele><time>2026-04-14T13:40:45.89Z</time></trkpt><trkpt lat="42.4723533" lon="-7.5231967"><ele>409.0</ele><time>2026-04-14T13:40:46.891Z</time></trkpt><trkpt lat="42.4722483" lon="-7.52309"><ele>409.0</ele><time>2026-04-14T13:40:47.89Z</time></trkpt><trkpt lat="42.4721667" lon="-7.5229983"><ele>409.0</ele><time>2026-04-14T13:40:48.891Z</time></trkpt><trkpt lat="42.4721083" lon="-7.52293"><ele>410.79999999999995</ele><time>2026-04-14T13:40:49.891Z</time></trkpt><trkpt lat="42.4720583" lon="-7.5228633"><ele>412.59999999999997</ele><time>2026-04-14T13:40:50.89Z</time></trkpt><trkpt lat="42.472015" lon="-7.5227617"><ele>414.4</ele><time>2026-04-14T13:40:51.89Z</time></trkpt><trkpt lat="42.4719717" lon="-7.5226317"><ele>416.2</ele><time>2026-04-14T13:40:52.89Z</time></trkpt><trkpt lat="42.471915" lon="-7.5225033"><ele>418.0</ele><time>2026-04-14T13:40:53.891Z</time></trkpt><trkpt lat="42.4718467" lon="-7.5224"><ele>418.0</ele><time>2026-04-14T13:40:54.891Z</time></trkpt><trkpt lat="42.4717567" lon="-7.5223083"><ele>418.0</ele><time>2026-04-14T13:40:55.89Z</time></trkpt><trkpt lat="42.47165" lon="-7.5222117"><ele>418.0</ele><time>2026-04-14T13:40:56.89Z</time></trkpt><trkpt lat="42.47154" lon="-7.5220967"><ele>418.0</ele><time>2026-04-14T13:40:57.89Z</time></trkpt><trkpt lat="42.4714133" lon="-7.52198"><ele>417.0</ele><time>2026-04-14T13:40:58.89Z</time></trkpt><trkpt lat="42.471295" lon="-7.5218883"><ele>416.0</ele><time>2026-04-14T13:40:59.891Z</time></trkpt><trkpt lat="42.471185" lon="-7.5218367"><ele>415.0</ele><time>2026-04-14T13:41:00.89Z</time></trkpt><trkpt lat="42.4710617" lon="-7.5218183"><ele>414.0</ele><time>2026-04-14T13:41:01.89Z</time></trkpt><trkpt lat="42.4709217" lon="-7.521815"><ele>416.5</ele><time>2026-04-14T13:41:02.891Z</time></trkpt><trkpt lat="42.4707767" lon="-7.521815"><ele>419.0</ele><time>2026-04-14T13:41:03.89Z</time></trkpt><trkpt lat="42.4706483" lon="-7.52182"><ele>421.5</ele><time>2026-04-14T13:41:04.891Z</time></trkpt><trkpt lat="42.4705117" lon="-7.52184"><ele>424.0</ele><time>2026-04-14T13:41:05.89Z</time></trkpt><trkpt lat="42.4703683" lon="-7.5218867"><ele>425.5</ele><time>2026-04-14T13:41:06.891Z</time></trkpt><trkpt lat="42.4702167" lon="-7.5219017"><ele>427.0</ele><time>2026-04-14T13:41:07.891Z</time></trkpt><trkpt lat="42.470065" lon="-7.521915"><ele>428.5</ele><time>2026-04-14T13:41:08.891Z</time></trkpt><trkpt lat="42.4699283" lon="-7.5219533"><ele>430.0</ele><time>2026-04-14T13:41:09.89Z</time></trkpt><trkpt lat="42.4698" lon="-7.5220083"><ele>430.0</ele><time>2026-04-14T13:41:10.891Z</time></trkpt><trkpt lat="42.4696817" lon="-7.5220467"><ele>430.0</ele><time>2026-04-14T13:41:11.89Z</time></trkpt><trkpt lat="42.4695533" lon="-7.5220567"><ele>430.0</ele><time>2026-04-14T13:41:12.891Z</time></trkpt><trkpt lat="42.469425" lon="-7.522045"><ele>430.0</ele><time>2026-04-14T13:41:13.891Z</time></trkpt><trkpt lat="42.46931" lon="-7.522015"><ele>432.0</ele><time>2026-04-14T13:41:14.89Z</time></trkpt><trkpt lat="42.4692183" lon="-7.5219783"><ele>434.0</ele><time>2026-04-14T13:41:15.89Z</time></trkpt><trkpt lat="42.4691517" lon="-7.5219217"><ele>436.0</ele><time>2026-04-14T13:41:16.891Z</time></trkpt><trkpt lat="42.4690833" lon="-7.52186"><ele>438.0</ele><time>2026-04-14T13:41:17.891Z</time></trkpt><trkpt lat="42.4690267" lon="-7.5217683"><ele>440.0</ele><time>2026-04-14T13:41:18.89Z</time></trkpt><trkpt lat="42.4689717" lon="-7.5216417"><ele>440.0</ele><time>2026-04-14T13:41:19.89Z</time></trkpt><trkpt lat="42.46891" lon="-7.5214883"><ele>440.0</ele><time>2026-04-14T13:41:20.891Z</time></trkpt><trkpt lat="42.4688533" lon="-7.5213617"><ele>440.0</ele><time>2026-04-14T13:41:21.891Z</time></trkpt><trkpt lat="42.468785" lon="-7.521265"><ele>440.0</ele><time>2026-04-14T13:41:22.891Z</time></trkpt><trkpt lat="42.468695" lon="-7.52119"><ele>440.0</ele><time>2026-04-14T13:41:23.89Z</time></trkpt><trkpt lat="42.4685883" lon="-7.5211183"><ele>442.5</ele><time>2026-04-14T13:41:24.89Z</time></trkpt><trkpt lat="42.4684683" lon="-7.52107"><ele>445.0</ele><time>2026-04-14T13:41:25.89Z</time></trkpt><trkpt lat="42.4683333" lon="-7.5210133"><ele>447.5</ele><time>2026-04-14T13:41:26.89Z</time></trkpt><trkpt lat="42.4681883" lon="-7.5209383"><ele>450.0</ele><time>2026-04-14T13:41:27.89Z</time></trkpt><trkpt lat="42.4680533" lon="-7.5208417"><ele>453.6</ele><time>2026-04-14T13:41:28.891Z</time></trkpt><trkpt lat="42.4679333" lon="-7.5207467"><ele>457.2</ele><time>2026-04-14T13:41:29.891Z</time></trkpt><trkpt lat="42.4678367" lon="-7.52066"><ele>460.79999999999995</ele><time>2026-04-14T13:41:30.89Z</time></trkpt><trkpt lat="42.4677917" lon="-7.5205933"><ele>464.4</ele><time>2026-04-14T13:41:31.891Z</time></trkpt><trkpt lat="42.467775" lon="-7.52046"><ele>468.0</ele><time>2026-04-14T13:41:33.89Z</time></trkpt><trkpt lat="42.4678117" lon="-7.5203817"><ele>468.25</ele><time>2026-04-14T13:41:34.891Z</time></trkpt><trkpt lat="42.4678783" lon="-7.5202767"><ele>468.5</ele><time>2026-04-14T13:41:35.89Z</time></trkpt><trkpt lat="42.4679433" lon="-7.520125"><ele>468.75</ele><time>2026-04-14T13:41:36.891Z</time></trkpt><trkpt lat="42.46801" lon="-7.5199533"><ele>469.0</ele><time>2026-04-14T13:41:37.89Z</time></trkpt><trkpt lat="42.46807" lon="-7.5197933"><ele>467.5</ele><time>2026-04-14T13:41:38.89Z</time></trkpt><trkpt lat="42.4681167" lon="-7.5196333"><ele>466.0</ele><time>2026-04-14T13:41:39.891Z</time></trkpt><trkpt lat="42.4681517" lon="-7.5194567"><ele>464.5</ele><time>2026-04-14T13:41:40.891Z</time></trkpt><trkpt lat="42.4681917" lon="-7.5192533"><ele>463.0</ele><time>2026-04-14T13:41:41.891Z</time></trkpt><trkpt lat="42.4682217" lon="-7.5190483"><ele>463.0</ele><time>2026-04-14T13:41:42.891Z</time></trkpt><trkpt lat="42.4682583" lon="-7.5188633"><ele>462.99999999999994</ele><time>2026-04-14T13:41:43.891Z</time></trkpt><trkpt lat="42.4683033" lon="-7.518705"><ele>462.99999999999994</ele><time>2026-04-14T13:41:44.89Z</time></trkpt><trkpt lat="42.4683117" lon="-7.5186"><ele>463.0</ele><time>2026-04-14T13:41:45.891Z</time></trkpt><trkpt lat="42.46828" lon="-7.5185"><ele>463.0</ele><time>2026-04-14T13:41:46.89Z</time></trkpt><trkpt lat="42.468225" lon="-7.5184017"><ele>464.0</ele><time>2026-04-14T13:41:47.89Z</time></trkpt><trkpt lat="42.4681583" lon="-7.5182817"><ele>465.0</ele><time>2026-04-14T13:41:48.891Z</time></trkpt><trkpt lat="42.4680867" lon="-7.5181383"><ele>466.0</ele><time>2026-04-14T13:41:49.89Z</time></trkpt><trkpt lat="42.4679983" lon="-7.51798"><ele>467.0</ele><time>2026-04-14T13:41:50.89Z</time></trkpt><trkpt lat="42.4679033" lon="-7.517795"><ele>473.0</ele><time>2026-04-14T13:41:51.891Z</time></trkpt><trkpt lat="42.4677983" lon="-7.51758"><ele>479.0</ele><time>2026-04-14T13:41:52.89Z</time></trkpt><trkpt lat="42.4676967" lon="-7.51733"><ele>485.0</ele><time>2026-04-14T13:41:53.891Z</time></trkpt><trkpt lat="42.4676133" lon="-7.51707"><ele>482.3333333333333</ele><time>2026-04-14T13:41:54.89Z</time></trkpt><trkpt lat="42.4675433" lon="-7.5168267"><ele>479.66666666666663</ele><time>2026-04-14T13:41:55.891Z</time></trkpt><trkpt lat="42.4674633" lon="-7.5166067"><ele>477.0</ele><time>2026-04-14T13:41:56.891Z</time></trkpt><trkpt lat="42.4673683" lon="-7.5164133"><ele>477.0</ele><time>2026-04-14T13:41:57.891Z</time></trkpt><trkpt lat="42.4672683" lon="-7.5162633"><ele>477.0</ele><time>2026-04-14T13:41:58.89Z</time></trkpt><trkpt lat="42.4671617" lon="-7.5161467"><ele>477.0</ele><time>2026-04-14T13:41:59.89Z</time></trkpt><trkpt lat="42.46704" lon="-7.516045"><ele>477.0</ele><time>2026-04-14T13:42:00.89Z</time></trkpt><trkpt lat="42.46693" lon="-7.51594"><ele>478.75</ele><time>2026-04-14T13:42:01.891Z</time></trkpt><trkpt lat="42.4668333" lon="-7.5157983"><ele>480.5</ele><time>2026-04-14T13:42:02.89Z</time></trkpt><trkpt lat="42.4667317" lon="-7.5156533"><ele>482.25</ele><time>2026-04-14T13:42:03.89Z</time></trkpt><trkpt lat="42.4666217" lon="-7.5155233"><ele>484.0</ele><time>2026-04-14T13:42:04.89Z</time></trkpt><trkpt lat="42.4665267" lon="-7.5153983"><ele>484.2</ele><time>2026-04-14T13:42:05.89Z</time></trkpt><trkpt lat="42.4664667" lon="-7.5152767"><ele>484.4</ele><time>2026-04-14T13:42:06.89Z</time></trkpt><trkpt lat="42.46644" lon="-7.5151383"><ele>484.6</ele><time>2026-04-14T13:42:07.89Z</time></trkpt><trkpt lat="42.4664583" lon="-7.515"><ele>484.8</ele><time>2026-04-14T13:42:08.89Z</time></trkpt><trkpt lat="42.466495" lon="-7.5148783"><ele>485.0</ele><time>2026-04-14T13:42:09.89Z</time></trkpt><trkpt lat="42.4665617" lon="-7.51478"><ele>484.99999999999994</ele><time>2026-04-14T13:42:10.891Z</time></trkpt><trkpt lat="42.4666383" lon="-7.5147067"><ele>485.0</ele><time>2026-04-14T13:42:11.891Z</time></trkpt><trkpt lat="42.4667117" lon="-7.5146533"><ele>485.0</ele><time>2026-04-14T13:42:12.89Z</time></trkpt><trkpt lat="42.4667617" lon="-7.5145883"><ele>485.0</ele><time>2026-04-14T13:42:13.891Z</time></trkpt><trkpt lat="42.466795" lon="-7.514495"><ele>484.99999999999994</ele><time>2026-04-14T13:42:14.891Z</time></trkpt><trkpt lat="42.4668183" lon="-7.514375"><ele>485.0</ele><time>2026-04-14T13:42:15.891Z</time></trkpt><trkpt lat="42.4668267" lon="-7.5142367"><ele>486.8</ele><time>2026-04-14T13:42:16.89Z</time></trkpt><trkpt lat="42.4668367" lon="-7.5140867"><ele>488.6</ele><time>2026-04-14T13:42:17.89Z</time></trkpt><trkpt lat="42.4668517" lon="-7.513945"><ele>490.4</ele><time>2026-04-14T13:42:18.891Z</time></trkpt><trkpt lat="42.4668667" lon="-7.5138267"><ele>492.2</ele><time>2026-04-14T13:42:19.891Z</time></trkpt><trkpt lat="42.466885" lon="-7.513745"><ele>494.0</ele><time>2026-04-14T13:42:20.891Z</time></trkpt><trkpt lat="42.4669067" lon="-7.5135983"><ele>495.0</ele><time>2026-04-14T13:42:22.891Z</time></trkpt><trkpt lat="42.46691" lon="-7.5134817"><ele>496.0</ele><time>2026-04-14T13:42:24.89Z</time></trkpt><trkpt lat="42.4668883" lon="-7.5133733"><ele>497.0</ele><time>2026-04-14T13:42:26.891Z</time></trkpt><trkpt lat="42.4668733" lon="-7.5132383"><ele>498.0</ele><time>2026-04-14T13:42:28.89Z</time></trkpt><trkpt lat="42.466845" lon="-7.5131067"><ele>499.0</ele><time>2026-04-14T13:42:30.891Z</time></trkpt><trkpt lat="42.4668033" lon="-7.5129883"><ele>499.83333333333337</ele><time>2026-04-14T13:42:32.89Z</time></trkpt><trkpt lat="42.4667767" lon="-7.5128633"><ele>500.6666666666667</ele><time>2026-04-14T13:42:34.89Z</time></trkpt><trkpt lat="42.4667583" lon="-7.5127383"><ele>501.5</ele><time>2026-04-14T13:42:36.89Z</time></trkpt><trkpt lat="42.466755" lon="-7.512625"><ele>502.33333333333337</ele><time>2026-04-14T13:42:38.891Z</time></trkpt><trkpt lat="42.4667383" lon="-7.5124967"><ele>503.1666666666667</ele><time>2026-04-14T13:42:40.891Z</time></trkpt><trkpt lat="42.46672" lon="-7.512395"><ele>504.0</ele><time>2026-04-14T13:42:42.89Z</time></trkpt><trkpt lat="42.466695" lon="-7.51228"><ele>504.0</ele><time>2026-04-14T13:42:44.891Z</time></trkpt><trkpt lat="42.4666867" lon="-7.5121817"><ele>504.0</ele><time>2026-04-14T13:42:46.89Z</time></trkpt><trkpt lat="42.46675" lon="-7.512125"><ele>504.0</ele><time>2026-04-14T13:42:49.891Z</time></trkpt><trkpt lat="42.4668133" lon="-7.512065"><ele>504.0</ele><time>2026-04-14T13:42:51.89Z</time></trkpt><trkpt lat="42.466805" lon="-7.5119333"><ele>504.0</ele><time>2026-04-14T13:42:53.891Z</time></trkpt><trkpt lat="42.46679" lon="-7.5117967"><ele>504.0</ele><time>2026-04-14T13:42:55.891Z</time></trkpt><trkpt lat="42.4667967" lon="-7.511655"><ele>504.79999999999995</ele><time>2026-04-14T13:42:57.891Z</time></trkpt><trkpt lat="42.4667567" lon="-7.5115433"><ele>505.59999999999997</ele><time>2026-04-14T13:42:59.891Z</time></trkpt><trkpt lat="42.4667017" lon="-7.511445"><ele>506.4</ele><time>2026-04-14T13:43:01.89Z</time></trkpt><trkpt lat="42.4666867" lon="-7.5113317"><ele>507.2</ele><time>2026-04-14T13:43:03.89Z</time></trkpt><trkpt lat="42.4667033" lon="-7.5112183"><ele>508.0</ele><time>2026-04-14T13:43:05.89Z</time></trkpt><trkpt lat="42.4667683" lon="-7.5111"><ele>509.2</ele><time>2026-04-14T13:43:07.89Z</time></trkpt><trkpt lat="42.4667917" lon="-7.5109567"><ele>510.4</ele><time>2026-04-14T13:43:09.891Z</time></trkpt><trkpt lat="42.4668083" lon="-7.5108633"><ele>511.59999999999997</ele><time>2026-04-14T13:43:10.891Z</time></trkpt><trkpt lat="42.466855" lon="-7.510765"><ele>512.8</ele><time>2026-04-14T13:43:11.891Z</time></trkpt><trkpt lat="42.4669117" lon="-7.51065"><ele>514.0</ele><time>2026-04-14T13:43:12.891Z</time></trkpt><trkpt lat="42.4669767" lon="-7.510525"><ele>515.0</ele><time>2026-04-14T13:43:13.891Z</time></trkpt><trkpt lat="42.4670433" lon="-7.5103917"><ele>516.0</ele><time>2026-04-14T13:43:14.89Z</time></trkpt><trkpt lat="42.4671033" lon="-7.5102567"><ele>517.0</ele><time>2026-04-14T13:43:15.891Z</time></trkpt><trkpt lat="42.4671583" lon="-7.5101283"><ele>518.0</ele><time>2026-04-14T13:43:16.891Z</time></trkpt><trkpt lat="42.4671983" lon="-7.51"><ele>519.0</ele><time>2026-04-14T13:43:17.89Z</time></trkpt><trkpt lat="42.4672333" lon="-7.5098667"><ele>517.4</ele><time>2026-04-14T13:43:18.891Z</time></trkpt><trkpt lat="42.4672583" lon="-7.5097317"><ele>515.8</ele><time>2026-04-14T13:43:19.89Z</time></trkpt><trkpt lat="42.4672933" lon="-7.509605"><ele>514.2</ele><time>2026-04-14T13:43:20.89Z</time></trkpt><trkpt lat="42.46734" lon="-7.5094867"><ele>512.6</ele><time>2026-04-14T13:43:21.89Z</time></trkpt><trkpt lat="42.467395" lon="-7.509375"><ele>511.0</ele><time>2026-04-14T13:43:22.89Z</time></trkpt><trkpt lat="42.467455" lon="-7.50929"><ele>511.0</ele><time>2026-04-14T13:43:23.891Z</time></trkpt><trkpt lat="42.4675317" lon="-7.509225"><ele>511.0</ele><time>2026-04-14T13:43:24.891Z</time></trkpt><trkpt lat="42.46762" lon="-7.5091883"><ele>511.0</ele><time>2026-04-14T13:43:25.891Z</time></trkpt><trkpt lat="42.4677167" lon="-7.5091633"><ele>511.0</ele><time>2026-04-14T13:43:26.891Z</time></trkpt><trkpt lat="42.467825" lon="-7.5091533"><ele>511.0</ele><time>2026-04-14T13:43:27.89Z</time></trkpt><trkpt lat="42.467925" lon="-7.5091383"><ele>510.0</ele><time>2026-04-14T13:43:28.89Z</time></trkpt><trkpt lat="42.468025" lon="-7.5091167"><ele>509.0</ele><time>2026-04-14T13:43:29.89Z</time></trkpt><trkpt lat="42.4681367" lon="-7.50908"><ele>508.0</ele><time>2026-04-14T13:43:30.89Z</time></trkpt><trkpt lat="42.4682417" lon="-7.5090433"><ele>507.0</ele><time>2026-04-14T13:43:31.891Z</time></trkpt><trkpt lat="42.468345" lon="-7.5090017"><ele>506.0</ele><time>2026-04-14T13:43:32.89Z</time></trkpt><trkpt lat="42.468455" lon="-7.5089583"><ele>506.0</ele><time>2026-04-14T13:43:33.89Z</time></trkpt><trkpt lat="42.4685633" lon="-7.5089117"><ele>506.0</ele><time>2026-04-14T13:43:34.89Z</time></trkpt><trkpt lat="42.46867" lon="-7.5088667"><ele>506.0</ele><time>2026-04-14T13:43:35.89Z</time></trkpt><trkpt lat="42.46878" lon="-7.5088233"><ele>506.0</ele><time>2026-04-14T13:43:36.89Z</time></trkpt><trkpt lat="42.46889" lon="-7.5087883"><ele>505.4</ele><time>2026-04-14T13:43:37.891Z</time></trkpt><trkpt lat="42.4690017" lon="-7.5087617"><ele>504.8</ele><time>2026-04-14T13:43:38.891Z</time></trkpt><trkpt lat="42.46911" lon="-7.508745"><ele>504.19999999999993</ele><time>2026-04-14T13:43:39.891Z</time></trkpt><trkpt lat="42.4692217" lon="-7.5087267"><ele>503.59999999999997</ele><time>2026-04-14T13:43:40.891Z</time></trkpt><trkpt lat="42.4693317" lon="-7.508715"><ele>503.0</ele><time>2026-04-14T13:43:41.891Z</time></trkpt><trkpt lat="42.4694317" lon="-7.5086967"><ele>504.79999999999995</ele><time>2026-04-14T13:43:42.89Z</time></trkpt><trkpt lat="42.4695383" lon="-7.508675"><ele>506.59999999999997</ele><time>2026-04-14T13:43:43.89Z</time></trkpt><trkpt lat="42.46965" lon="-7.50865"><ele>508.40000000000003</ele><time>2026-04-14T13:43:44.891Z</time></trkpt><trkpt lat="42.4697567" lon="-7.508625"><ele>510.20000000000005</ele><time>2026-04-14T13:43:45.89Z</time></trkpt><trkpt lat="42.469855" lon="-7.5085917"><ele>512.0</ele><time>2026-04-14T13:43:46.89Z</time></trkpt><trkpt lat="42.4699617" lon="-7.5085433"><ele>512.0</ele><time>2026-04-14T13:43:47.891Z</time></trkpt><trkpt lat="42.4700567" lon="-7.50846"><ele>512.0</ele><time>2026-04-14T13:43:48.891Z</time></trkpt><trkpt lat="42.4701383" lon="-7.5083533"><ele>512.0</ele><time>2026-04-14T13:43:49.89Z</time></trkpt><trkpt lat="42.4702" lon="-7.5082417"><ele>512.0</ele><time>2026-04-14T13:43:50.891Z</time></trkpt><trkpt lat="42.4702583" lon="-7.50813"><ele>512.0</ele><time>2026-04-14T13:43:51.89Z</time></trkpt><trkpt lat="42.470305" lon="-7.508015"><ele>511.6</ele><time>2026-04-14T13:43:52.891Z</time></trkpt><trkpt lat="42.4703417" lon="-7.5078983"><ele>511.20000000000005</ele><time>2026-04-14T13:43:53.89Z</time></trkpt><trkpt lat="42.4703867" lon="-7.5077833"><ele>510.8</ele><time>2026-04-14T13:43:54.89Z</time></trkpt><trkpt lat="42.470435" lon="-7.507655"><ele>510.4</ele><time>2026-04-14T13:43:55.89Z</time></trkpt><trkpt lat="42.470485" lon="-7.50753"><ele>510.0</ele><time>2026-04-14T13:43:56.89Z</time></trkpt><trkpt lat="42.4705467" lon="-7.50742"><ele>510.0</ele><time>2026-04-14T13:43:57.89Z</time></trkpt><trkpt lat="42.4706117" lon="-7.507325"><ele>510.0</ele><time>2026-04-14T13:43:58.891Z</time></trkpt><trkpt lat="42.4706683" lon="-7.507225"><ele>510.0</ele><time>2026-04-14T13:43:59.891Z</time></trkpt><trkpt lat="42.4707267" lon="-7.5071433"><ele>510.0</ele><time>2026-04-14T13:44:00.89Z</time></trkpt><trkpt lat="42.470785" lon="-7.507095"><ele>510.0</ele><time>2026-04-14T13:44:01.89Z</time></trkpt><trkpt lat="42.4708917" lon="-7.5070333"><ele>510.0</ele><time>2026-04-14T13:44:03.891Z</time></trkpt><trkpt lat="42.4709883" lon="-7.5070883"><ele>510.0</ele><time>2026-04-14T13:44:05.891Z</time></trkpt><trkpt lat="42.471065" lon="-7.507165"><ele>510.0</ele><time>2026-04-14T13:44:06.891Z</time></trkpt><trkpt lat="42.4711483" lon="-7.5072667"><ele>510.0</ele><time>2026-04-14T13:44:07.891Z</time></trkpt><trkpt lat="42.4712433" lon="-7.5073383"><ele>510.0</ele><time>2026-04-14T13:44:08.89Z</time></trkpt><trkpt lat="42.4713333" lon="-7.5073967"><ele>510.0</ele><time>2026-04-14T13:44:09.891Z</time></trkpt><trkpt lat="42.47143" lon="-7.5074617"><ele>510.0</ele><time>2026-04-14T13:44:10.89Z</time></trkpt><trkpt lat="42.4715233" lon="-7.507555"><ele>510.0</ele><time>2026-04-14T13:44:11.89Z</time></trkpt><trkpt lat="42.4715883" lon="-7.5076783"><ele>510.0</ele><time>2026-04-14T13:44:12.89Z</time></trkpt><trkpt lat="42.4716433" lon="-7.5077767"><ele>510.0</ele><time>2026-04-14T13:44:13.89Z</time></trkpt><trkpt lat="42.4716967" lon="-7.5078917"><ele>506.8</ele><time>2026-04-14T13:44:14.891Z</time></trkpt><trkpt lat="42.4717583" lon="-7.5080017"><ele>503.6</ele><time>2026-04-14T13:44:15.89Z</time></trkpt><trkpt lat="42.4718233" lon="-7.5081067"><ele>500.4</ele><time>2026-04-14T13:44:16.89Z</time></trkpt><trkpt lat="42.4718983" lon="-7.5082017"><ele>497.2</ele><time>2026-04-14T13:44:17.891Z</time></trkpt><trkpt lat="42.4719733" lon="-7.508295"><ele>494.0</ele><time>2026-04-14T13:44:18.891Z</time></trkpt><trkpt lat="42.472055" lon="-7.50838"><ele>493.4</ele><time>2026-04-14T13:44:19.89Z</time></trkpt><trkpt lat="42.47213" lon="-7.5084633"><ele>492.79999999999995</ele><time>2026-04-14T13:44:20.891Z</time></trkpt><trkpt lat="42.4722083" lon="-7.5085417"><ele>492.20000000000005</ele><time>2026-04-14T13:44:21.89Z</time></trkpt><trkpt lat="42.4722883" lon="-7.5086167"><ele>491.6</ele><time>2026-04-14T13:44:22.89Z</time></trkpt><trkpt lat="42.47237" lon="-7.5086883"><ele>491.0</ele><time>2026-04-14T13:44:23.89Z</time></trkpt><trkpt lat="42.4724483" lon="-7.5087567"><ele>490.99999999999994</ele><time>2026-04-14T13:44:24.891Z</time></trkpt><trkpt lat="42.4725217" lon="-7.5088217"><ele>491.0</ele><time>2026-04-14T13:44:25.89Z</time></trkpt><trkpt lat="42.4725917" lon="-7.5088783"><ele>491.0</ele><time>2026-04-14T13:44:26.89Z</time></trkpt><trkpt lat="42.4726633" lon="-7.50893"><ele>491.0</ele><time>2026-04-14T13:44:27.891Z</time></trkpt><trkpt lat="42.472735" lon="-7.5089867"><ele>490.99999999999994</ele><time>2026-04-14T13:44:28.891Z</time></trkpt><trkpt lat="42.47282" lon="-7.50905"><ele>491.0</ele><time>2026-04-14T13:44:29.89Z</time></trkpt><trkpt lat="42.4729083" lon="-7.5091183"><ele>492.4</ele><time>2026-04-14T13:44:30.89Z</time></trkpt><trkpt lat="42.4729967" lon="-7.50919"><ele>493.8</ele><time>2026-04-14T13:44:31.89Z</time></trkpt><trkpt lat="42.4730883" lon="-7.5092567"><ele>495.19999999999993</ele><time>2026-04-14T13:44:32.89Z</time></trkpt><trkpt lat="42.4731833" lon="-7.509325"><ele>496.59999999999997</ele><time>2026-04-14T13:44:33.891Z</time></trkpt><trkpt lat="42.4732767" lon="-7.5093917"><ele>498.0</ele><time>2026-04-14T13:44:34.891Z</time></trkpt><trkpt lat="42.4733733" lon="-7.5094517"><ele>498.0</ele><time>2026-04-14T13:44:35.89Z</time></trkpt><trkpt lat="42.473475" lon="-7.5095067"><ele>497.99999999999994</ele><time>2026-04-14T13:44:36.89Z</time></trkpt><trkpt lat="42.473585" lon="-7.50956"><ele>497.99999999999994</ele><time>2026-04-14T13:44:37.89Z</time></trkpt><trkpt lat="42.47369" lon="-7.5095883"><ele>498.0</ele><time>2026-04-14T13:44:38.89Z</time></trkpt><trkpt lat="42.4737967" lon="-7.5096183"><ele>498.0</ele><time>2026-04-14T13:44:39.891Z</time></trkpt><trkpt lat="42.4738983" lon="-7.509635"><ele>494.4</ele><time>2026-04-14T13:44:40.89Z</time></trkpt><trkpt lat="42.474" lon="-7.5096533"><ele>490.79999999999995</ele><time>2026-04-14T13:44:41.891Z</time></trkpt><trkpt lat="42.4741033" lon="-7.5096667"><ele>487.2</ele><time>2026-04-14T13:44:42.891Z</time></trkpt><trkpt lat="42.4742033" lon="-7.5096733"><ele>483.6</ele><time>2026-04-14T13:44:43.89Z</time></trkpt><trkpt lat="42.474295" lon="-7.50968"><ele>480.0</ele><time>2026-04-14T13:44:44.89Z</time></trkpt><trkpt lat="42.4744017" lon="-7.50968"><ele>480.0</ele><time>2026-04-14T13:44:45.891Z</time></trkpt><trkpt lat="42.4745217" lon="-7.5096717"><ele>480.0</ele><time>2026-04-14T13:44:46.891Z</time></trkpt><trkpt lat="42.47462" lon="-7.509665"><ele>480.0</ele><time>2026-04-14T13:44:47.891Z</time></trkpt><trkpt lat="42.4747183" lon="-7.5096533"><ele>480.0</ele><time>2026-04-14T13:44:48.89Z</time></trkpt><trkpt lat="42.4748217" lon="-7.5096383"><ele>480.0</ele><time>2026-04-14T13:44:49.891Z</time></trkpt><trkpt lat="42.4749217" lon="-7.5096217"><ele>479.5</ele><time>2026-04-14T13:44:50.89Z</time></trkpt><trkpt lat="42.475015" lon="-7.5096067"><ele>479.0</ele><time>2026-04-14T13:44:51.89Z</time></trkpt><trkpt lat="42.4751067" lon="-7.5095917"><ele>478.5</ele><time>2026-04-14T13:44:52.89Z</time></trkpt><trkpt lat="42.4751883" lon="-7.50958"><ele>478.0</ele><time>2026-04-14T13:44:53.891Z</time></trkpt><trkpt lat="42.4752533" lon="-7.50958"><ele>477.5</ele><time>2026-04-14T13:44:54.89Z</time></trkpt><trkpt lat="42.4753367" lon="-7.5096017"><ele>477.0</ele><time>2026-04-14T13:44:56.891Z</time></trkpt><trkpt lat="42.4752533" lon="-7.5095583"><ele>480.0</ele><time>2026-04-14T13:45:00.891Z</time></trkpt><trkpt lat="42.4751517" lon="-7.5095433"><ele>483.0</ele><time>2026-04-14T13:45:01.891Z</time></trkpt><trkpt lat="42.4750417" lon="-7.5095083"><ele>486.0</ele><time>2026-04-14T13:45:02.89Z</time></trkpt><trkpt lat="42.4749317" lon="-7.5094633"><ele>489.0</ele><time>2026-04-14T13:45:03.89Z</time></trkpt><trkpt lat="42.474815" lon="-7.5093917"><ele>489.0</ele><time>2026-04-14T13:45:04.891Z</time></trkpt><trkpt lat="42.4747017" lon="-7.5092917"><ele>489.0</ele><time>2026-04-14T13:45:05.89Z</time></trkpt><trkpt lat="42.4745833" lon="-7.5091733"><ele>489.0</ele><time>2026-04-14T13:45:06.89Z</time></trkpt><trkpt lat="42.474465" lon="-7.50905"><ele>489.0</ele><time>2026-04-14T13:45:07.89Z</time></trkpt><trkpt lat="42.4743583" lon="-7.5089367"><ele>490.4</ele><time>2026-04-14T13:45:08.89Z</time></trkpt><trkpt lat="42.4742617" lon="-7.5088317"><ele>491.79999999999995</ele><time>2026-04-14T13:45:09.891Z</time></trkpt><trkpt lat="42.4741833" lon="-7.5087283"><ele>493.20000000000005</ele><time>2026-04-14T13:45:10.891Z</time></trkpt><trkpt lat="42.474105" lon="-7.50864"><ele>494.6</ele><time>2026-04-14T13:45:11.89Z</time></trkpt><trkpt lat="42.4740167" lon="-7.5085733"><ele>496.0</ele><time>2026-04-14T13:45:12.891Z</time></trkpt><trkpt lat="42.4739317" lon="-7.5085067"><ele>500.25</ele><time>2026-04-14T13:45:13.891Z</time></trkpt><trkpt lat="42.4738483" lon="-7.5084417"><ele>504.5</ele><time>2026-04-14T13:45:14.89Z</time></trkpt><trkpt lat="42.4737483" lon="-7.5083617"><ele>508.75</ele><time>2026-04-14T13:45:15.89Z</time></trkpt><trkpt lat="42.473645" lon="-7.50827"><ele>513.0</ele><time>2026-04-14T13:45:16.89Z</time></trkpt><trkpt lat="42.4735367" lon="-7.5081717"><ele>514.0</ele><time>2026-04-14T13:45:17.891Z</time></trkpt><trkpt lat="42.4734233" lon="-7.5080533"><ele>515.0</ele><time>2026-04-14T13:45:18.89Z</time></trkpt><trkpt lat="42.4733033" lon="-7.507915"><ele>516.0</ele><time>2026-04-14T13:45:19.89Z</time></trkpt><trkpt lat="42.4731683" lon="-7.507765"><ele>518.75</ele><time>2026-04-14T13:45:20.891Z</time></trkpt><trkpt lat="42.473075" lon="-7.5076233"><ele>521.5</ele><time>2026-04-14T13:45:21.89Z</time></trkpt><trkpt lat="42.47297" lon="-7.507495"><ele>524.25</ele><time>2026-04-14T13:45:22.891Z</time></trkpt><trkpt lat="42.472865" lon="-7.5073783"><ele>527.0</ele><time>2026-04-14T13:45:23.891Z</time></trkpt><trkpt lat="42.472805" lon="-7.507265"><ele>527.0</ele><time>2026-04-14T13:45:24.89Z</time></trkpt><trkpt lat="42.4727467" lon="-7.5071267"><ele>527.0</ele><time>2026-04-14T13:45:25.89Z</time></trkpt><trkpt lat="42.4726683" lon="-7.506995"><ele>527.0</ele><time>2026-04-14T13:45:26.89Z</time></trkpt><trkpt lat="42.4726017" lon="-7.5068383"><ele>527.0</ele><time>2026-04-14T13:45:27.891Z</time></trkpt><trkpt lat="42.472535" lon="-7.50665"><ele>532.0</ele><time>2026-04-14T13:45:28.891Z</time></trkpt><trkpt lat="42.472495" lon="-7.5064533"><ele>537.0</ele><time>2026-04-14T13:45:29.89Z</time></trkpt><trkpt lat="42.4724483" lon="-7.5062617"><ele>542.0</ele><time>2026-04-14T13:45:30.89Z</time></trkpt><trkpt lat="42.4724183" lon="-7.506075"><ele>547.0</ele><time>2026-04-14T13:45:31.891Z</time></trkpt><trkpt lat="42.4723867" lon="-7.5058717"><ele>552.3333333333334</ele><time>2026-04-14T13:45:32.89Z</time></trkpt><trkpt lat="42.4723667" lon="-7.5056467"><ele>557.6666666666666</ele><time>2026-04-14T13:45:33.89Z</time></trkpt><trkpt lat="42.4723483" lon="-7.5054067"><ele>563.0</ele><time>2026-04-14T13:45:34.89Z</time></trkpt><trkpt lat="42.4723317" lon="-7.5051817"><ele>566.75</ele><time>2026-04-14T13:45:35.89Z</time></trkpt><trkpt lat="42.4723017" lon="-7.5049717"><ele>570.5</ele><time>2026-04-14T13:45:36.89Z</time></trkpt><trkpt lat="42.4722667" lon="-7.50481"><ele>574.25</ele><time>2026-04-14T13:45:37.891Z</time></trkpt><trkpt lat="42.4722317" lon="-7.5046817"><ele>578.0</ele><time>2026-04-14T13:45:38.89Z</time></trkpt><trkpt lat="42.4722167" lon="-7.50459"><ele>578.0</ele><time>2026-04-14T13:45:39.891Z</time></trkpt><trkpt lat="42.4723133" lon="-7.5047"><ele>578.0</ele><time>2026-04-14T13:45:43.89Z</time></trkpt><trkpt lat="42.4723767" lon="-7.5048067"><ele>578.0</ele><time>2026-04-14T13:45:44.891Z</time></trkpt><trkpt lat="42.4724883" lon="-7.504945"><ele>578.0</ele><time>2026-04-14T13:45:45.89Z</time></trkpt><trkpt lat="42.4726383" lon="-7.5051317"><ele>578.0</ele><time>2026-04-14T13:45:46.89Z</time></trkpt><trkpt lat="42.4728083" lon="-7.5052933"><ele>578.0</ele><time>2026-04-14T13:45:47.891Z</time></trkpt><trkpt lat="42.472985" lon="-7.5054267"><ele>578.0</ele><time>2026-04-14T13:45:48.89Z</time></trkpt><trkpt lat="42.4731633" lon="-7.5055433"><ele>576.3333333333333</ele><time>2026-04-14T13:45:49.89Z</time></trkpt><trkpt lat="42.4733317" lon="-7.5056333"><ele>574.6666666666666</ele><time>2026-04-14T13:45:50.891Z</time></trkpt><trkpt lat="42.4734917" lon="-7.5057183"><ele>573.0</ele><time>2026-04-14T13:45:51.89Z</time></trkpt><trkpt lat="42.4736633" lon="-7.5057467"><ele>571.6666666666666</ele><time>2026-04-14T13:45:52.891Z</time></trkpt><trkpt lat="42.4738217" lon="-7.5057517"><ele>570.3333333333333</ele><time>2026-04-14T13:45:53.891Z</time></trkpt><trkpt lat="42.4739783" lon="-7.5057417"><ele>569.0</ele><time>2026-04-14T13:45:54.89Z</time></trkpt><trkpt lat="42.47414" lon="-7.5057067"><ele>569.0</ele><time>2026-04-14T13:45:55.891Z</time></trkpt><trkpt lat="42.474295" lon="-7.505655"><ele>569.0</ele><time>2026-04-14T13:45:56.891Z</time></trkpt><trkpt lat="42.4744617" lon="-7.5055933"><ele>569.0</ele><time>2026-04-14T13:45:57.891Z</time></trkpt><trkpt lat="42.47462" lon="-7.5055233"><ele>566.3333333333333</ele><time>2026-04-14T13:45:58.89Z</time></trkpt><trkpt lat="42.4747667" lon="-7.505455"><ele>563.6666666666666</ele><time>2026-04-14T13:45:59.891Z</time></trkpt><trkpt lat="42.474905" lon="-7.5053683"><ele>561.0</ele><time>2026-04-14T13:46:00.89Z</time></trkpt><trkpt lat="42.4750433" lon="-7.5052833"><ele>561.5</ele><time>2026-04-14T13:46:01.891Z</time></trkpt><trkpt lat="42.4751683" lon="-7.5051967"><ele>562.0</ele><time>2026-04-14T13:46:02.891Z</time></trkpt><trkpt lat="42.4752933" lon="-7.5051083"><ele>562.5</ele><time>2026-04-14T13:46:03.89Z</time></trkpt><trkpt lat="42.4754017" lon="-7.5050317"><ele>563.0</ele><time>2026-04-14T13:46:04.891Z</time></trkpt><trkpt lat="42.4754817" lon="-7.5049683"><ele>563.0</ele><time>2026-04-14T13:46:05.89Z</time></trkpt><trkpt lat="42.4755317" lon="-7.5049083"><ele>563.0</ele><time>2026-04-14T13:46:07.89Z</time></trkpt><trkpt lat="42.4754683" lon="-7.504855"><ele>563.0</ele><time>2026-04-14T13:46:10.891Z</time></trkpt><trkpt lat="42.475405" lon="-7.5048467"><ele>563.0</ele><time>2026-04-14T13:46:11.891Z</time></trkpt><trkpt lat="42.4753417" lon="-7.5048217"><ele>563.0</ele><time>2026-04-14T13:46:12.891Z</time></trkpt><trkpt lat="42.4752733" lon="-7.504785"><ele>563.0</ele><time>2026-04-14T13:46:13.891Z</time></trkpt><trkpt lat="42.475185" lon="-7.5047483"><ele>563.0</ele><time>2026-04-14T13:46:14.89Z</time></trkpt><trkpt lat="42.47507" lon="-7.504715"><ele>567.0</ele><time>2026-04-14T13:46:15.891Z</time></trkpt><trkpt lat="42.4749333" lon="-7.504685"><ele>571.0</ele><time>2026-04-14T13:46:16.89Z</time></trkpt><trkpt lat="42.4747883" lon="-7.504655"><ele>575.0</ele><time>2026-04-14T13:46:17.89Z</time></trkpt><trkpt lat="42.4746417" lon="-7.50462"><ele>579.0</ele><time>2026-04-14T13:46:18.89Z</time></trkpt><trkpt lat="42.4744917" lon="-7.5045733"><ele>587.0</ele><time>2026-04-14T13:46:19.891Z</time></trkpt><trkpt lat="42.474355" lon="-7.5045283"><ele>595.0</ele><time>2026-04-14T13:46:20.89Z</time></trkpt><trkpt lat="42.4742033" lon="-7.50446"><ele>603.0</ele><time>2026-04-14T13:46:21.891Z</time></trkpt><trkpt lat="42.4740467" lon="-7.5043933"><ele>603.0</ele><time>2026-04-14T13:46:22.89Z</time></trkpt><trkpt lat="42.4738867" lon="-7.5043433"><ele>603.0</ele><time>2026-04-14T13:46:23.89Z</time></trkpt><trkpt lat="42.4737317" lon="-7.5043"><ele>603.0</ele><time>2026-04-14T13:46:24.89Z</time></trkpt><trkpt lat="42.4735883" lon="-7.5042567"><ele>603.0</ele><time>2026-04-14T13:46:25.89Z</time></trkpt><trkpt lat="42.4734367" lon="-7.5042017"><ele>603.0</ele><time>2026-04-14T13:46:26.891Z</time></trkpt><trkpt lat="42.4732917" lon="-7.5041467"><ele>603.0</ele><time>2026-04-14T13:46:27.891Z</time></trkpt><trkpt lat="42.473145" lon="-7.5040817"><ele>603.0</ele><time>2026-04-14T13:46:28.89Z</time></trkpt><trkpt lat="42.47299" lon="-7.5040083"><ele>603.0</ele><time>2026-04-14T13:46:29.891Z</time></trkpt><trkpt lat="42.4728333" lon="-7.5039283"><ele>603.0</ele><time>2026-04-14T13:46:30.891Z</time></trkpt><trkpt lat="42.472665" lon="-7.5038333"><ele>605.6666666666666</ele><time>2026-04-14T13:46:31.89Z</time></trkpt><trkpt lat="42.4724883" lon="-7.50373"><ele>608.3333333333333</ele><time>2026-04-14T13:46:32.89Z</time></trkpt><trkpt lat="42.4723" lon="-7.5036217"><ele>611.0</ele><time>2026-04-14T13:46:33.891Z</time></trkpt><trkpt lat="42.472115" lon="-7.5035283"><ele>608.3333333333333</ele><time>2026-04-14T13:46:34.891Z</time></trkpt><trkpt lat="42.471925" lon="-7.5034233"><ele>605.6666666666666</ele><time>2026-04-14T13:46:35.892Z</time></trkpt><trkpt lat="42.4717267" lon="-7.5033217"><ele>603.0</ele><time>2026-04-14T13:46:36.891Z</time></trkpt><trkpt lat="42.4715267" lon="-7.5032333"><ele>603.0</ele><time>2026-04-14T13:46:37.892Z</time></trkpt><trkpt lat="42.47134" lon="-7.5031383"><ele>603.0</ele><time>2026-04-14T13:46:38.891Z</time></trkpt><trkpt lat="42.4711583" lon="-7.5030533"><ele>603.0</ele><time>2026-04-14T13:46:39.891Z</time></trkpt><trkpt lat="42.47097" lon="-7.5029617"><ele>606.0</ele><time>2026-04-14T13:46:40.891Z</time></trkpt><trkpt lat="42.470785" lon="-7.5028733"><ele>609.0</ele><time>2026-04-14T13:46:41.892Z</time></trkpt><trkpt lat="42.4706117" lon="-7.50279"><ele>612.0</ele><time>2026-04-14T13:46:42.892Z</time></trkpt><trkpt lat="42.4704683" lon="-7.5027183"><ele>613.0</ele><time>2026-04-14T13:46:43.891Z</time></trkpt><trkpt lat="42.47034" lon="-7.5026583"><ele>614.0</ele><time>2026-04-14T13:46:44.892Z</time></trkpt><trkpt lat="42.4702183" lon="-7.5026167"><ele>615.0</ele><time>2026-04-14T13:46:45.891Z</time></trkpt><trkpt lat="42.47012" lon="-7.50258"><ele>616.0</ele><time>2026-04-14T13:46:46.891Z</time></trkpt><trkpt lat="42.4700567" lon="-7.502545"><ele>617.0</ele><time>2026-04-14T13:46:47.891Z</time></trkpt><trkpt lat="42.4700083" lon="-7.5024883"><ele>617.0</ele><time>2026-04-14T13:46:49.892Z</time></trkpt><trkpt lat="42.4701183" lon="-7.5024333"><ele>617.0</ele><time>2026-04-14T13:46:54.891Z</time></trkpt><trkpt lat="42.470195" lon="-7.5023967"><ele>617.0</ele><time>2026-04-14T13:46:55.891Z</time></trkpt><trkpt lat="42.4702933" lon="-7.5023583"><ele>617.0</ele><time>2026-04-14T13:46:56.891Z</time></trkpt><trkpt lat="42.47039" lon="-7.50232"><ele>617.0</ele><time>2026-04-14T13:46:57.892Z</time></trkpt><trkpt lat="42.4704983" lon="-7.5022867"><ele>617.5</ele><time>2026-04-14T13:46:58.891Z</time></trkpt><trkpt lat="42.4706017" lon="-7.5022567"><ele>618.0</ele><time>2026-04-14T13:46:59.891Z</time></trkpt><trkpt lat="42.4706833" lon="-7.5022283"><ele>618.5</ele><time>2026-04-14T13:47:00.892Z</time></trkpt><trkpt lat="42.47075" lon="-7.5022117"><ele>619.0</ele><time>2026-04-14T13:47:01.891Z</time></trkpt><trkpt lat="42.4708117" lon="-7.5021933"><ele>619.5</ele><time>2026-04-14T13:47:02.891Z</time></trkpt><trkpt lat="42.4709033" lon="-7.50212"><ele>620.0</ele><time>2026-04-14T13:47:04.892Z</time></trkpt><trkpt lat="42.4709167" lon="-7.50199"><ele>620.0</ele><time>2026-04-14T13:47:06.891Z</time></trkpt><trkpt lat="42.47084" lon="-7.501865"><ele>620.0</ele><time>2026-04-14T13:47:08.892Z</time></trkpt><trkpt lat="42.470775" lon="-7.5018067"><ele>620.0</ele><time>2026-04-14T13:47:09.891Z</time></trkpt><trkpt lat="42.470695" lon="-7.5017383"><ele>620.0</ele><time>2026-04-14T13:47:10.892Z</time></trkpt><trkpt lat="42.4706167" lon="-7.5016483"><ele>620.0</ele><time>2026-04-14T13:47:11.892Z</time></trkpt><trkpt lat="42.470535" lon="-7.50155"><ele>620.0</ele><time>2026-04-14T13:47:12.891Z</time></trkpt><trkpt lat="42.4704533" lon="-7.5014517"><ele>620.0</ele><time>2026-04-14T13:47:13.891Z</time></trkpt><trkpt lat="42.4703783" lon="-7.5013517"><ele>620.0</ele><time>2026-04-14T13:47:14.891Z</time></trkpt><trkpt lat="42.4703133" lon="-7.5012583"><ele>620.0</ele><time>2026-04-14T13:47:15.892Z</time></trkpt><trkpt lat="42.4702583" lon="-7.5011633"><ele>620.0</ele><time>2026-04-14T13:47:16.891Z</time></trkpt><trkpt lat="42.4702217" lon="-7.50106"><ele>620.6</ele><time>2026-04-14T13:47:17.891Z</time></trkpt><trkpt lat="42.4702017" lon="-7.500945"><ele>621.2</ele><time>2026-04-14T13:47:18.891Z</time></trkpt><trkpt lat="42.4702017" lon="-7.5008183"><ele>621.8</ele><time>2026-04-14T13:47:19.892Z</time></trkpt><trkpt lat="42.4702267" lon="-7.5006817"><ele>622.4</ele><time>2026-04-14T13:47:20.891Z</time></trkpt><trkpt lat="42.470265" lon="-7.5005417"><ele>623.0</ele><time>2026-04-14T13:47:21.892Z</time></trkpt><trkpt lat="42.4703183" lon="-7.5003967"><ele>623.1999999999999</ele><time>2026-04-14T13:47:22.891Z</time></trkpt><trkpt lat="42.4703717" lon="-7.50026"><ele>623.4</ele><time>2026-04-14T13:47:23.892Z</time></trkpt><trkpt lat="42.4704267" lon="-7.5001183"><ele>623.5999999999999</ele><time>2026-04-14T13:47:24.892Z</time></trkpt><trkpt lat="42.4704683" lon="-7.4999833"><ele>623.8</ele><time>2026-04-14T13:47:25.891Z</time></trkpt><trkpt lat="42.470505" lon="-7.4998617"><ele>624.0</ele><time>2026-04-14T13:47:26.891Z</time></trkpt><trkpt lat="42.4705483" lon="-7.499725"><ele>620.0</ele><time>2026-04-14T13:47:27.891Z</time></trkpt><trkpt lat="42.4705883" lon="-7.4995833"><ele>616.0</ele><time>2026-04-14T13:47:28.892Z</time></trkpt><trkpt lat="42.4706183" lon="-7.4994433"><ele>612.0</ele><time>2026-04-14T13:47:29.892Z</time></trkpt><trkpt lat="42.47065" lon="-7.4993067"><ele>608.0</ele><time>2026-04-14T13:47:30.891Z</time></trkpt><trkpt lat="42.47068" lon="-7.499175"><ele>604.0</ele><time>2026-04-14T13:47:31.891Z</time></trkpt><trkpt lat="42.4707167" lon="-7.49905"><ele>604.0</ele><time>2026-04-14T13:47:32.891Z</time></trkpt><trkpt lat="42.47075" lon="-7.4989267"><ele>604.0</ele><time>2026-04-14T13:47:33.891Z</time></trkpt><trkpt lat="42.4707783" lon="-7.4987833"><ele>604.0</ele><time>2026-04-14T13:47:34.891Z</time></trkpt><trkpt lat="42.4708083" lon="-7.4986383"><ele>604.0</ele><time>2026-04-14T13:47:35.891Z</time></trkpt><trkpt lat="42.47084" lon="-7.4984983"><ele>604.0</ele><time>2026-04-14T13:47:36.891Z</time></trkpt><trkpt lat="42.47087" lon="-7.49836"><ele>604.2</ele><time>2026-04-14T13:47:37.892Z</time></trkpt><trkpt lat="42.4708967" lon="-7.4982167"><ele>604.4</ele><time>2026-04-14T13:47:38.892Z</time></trkpt><trkpt lat="42.470925" lon="-7.49807"><ele>604.6</ele><time>2026-04-14T13:47:39.891Z</time></trkpt><trkpt lat="42.4709533" lon="-7.4979283"><ele>604.8</ele><time>2026-04-14T13:47:40.891Z</time></trkpt><trkpt lat="42.47098" lon="-7.4977967"><ele>605.0</ele><time>2026-04-14T13:47:41.891Z</time></trkpt><trkpt lat="42.470995" lon="-7.4976567"><ele>604.4</ele><time>2026-04-14T13:47:42.891Z</time></trkpt><trkpt lat="42.4710167" lon="-7.497505"><ele>603.8</ele><time>2026-04-14T13:47:43.891Z</time></trkpt><trkpt lat="42.4710367" lon="-7.4973667"><ele>603.2</ele><time>2026-04-14T13:47:44.892Z</time></trkpt><trkpt lat="42.471045" lon="-7.4972183"><ele>602.6</ele><time>2026-04-14T13:47:45.892Z</time></trkpt><trkpt lat="42.4710483" lon="-7.497075"><ele>602.0</ele><time>2026-04-14T13:47:46.891Z</time></trkpt><trkpt lat="42.471045" lon="-7.4969333"><ele>601.0</ele><time>2026-04-14T13:47:47.892Z</time></trkpt><trkpt lat="42.471035" lon="-7.4967883"><ele>600.0</ele><time>2026-04-14T13:47:48.892Z</time></trkpt><trkpt lat="42.471015" lon="-7.49664"><ele>599.0</ele><time>2026-04-14T13:47:49.891Z</time></trkpt><trkpt lat="42.47099" lon="-7.4964967"><ele>598.0</ele><time>2026-04-14T13:47:50.891Z</time></trkpt><trkpt lat="42.47096" lon="-7.4963517"><ele>597.0</ele><time>2026-04-14T13:47:51.891Z</time></trkpt><trkpt lat="42.4709267" lon="-7.4962117"><ele>595.6</ele><time>2026-04-14T13:47:52.891Z</time></trkpt><trkpt lat="42.470885" lon="-7.4960683"><ele>594.2</ele><time>2026-04-14T13:47:53.891Z</time></trkpt><trkpt lat="42.4708467" lon="-7.49593"><ele>592.8</ele><time>2026-04-14T13:47:54.891Z</time></trkpt><trkpt lat="42.4708067" lon="-7.4957967"><ele>591.4</ele><time>2026-04-14T13:47:55.891Z</time></trkpt><trkpt lat="42.47077" lon="-7.4956683"><ele>590.0</ele><time>2026-04-14T13:47:56.891Z</time></trkpt><trkpt lat="42.4707333" lon="-7.4955417"><ele>588.4</ele><time>2026-04-14T13:47:57.892Z</time></trkpt><trkpt lat="42.470705" lon="-7.4954117"><ele>586.8</ele><time>2026-04-14T13:47:58.892Z</time></trkpt><trkpt lat="42.4706833" lon="-7.4952783"><ele>585.2</ele><time>2026-04-14T13:47:59.891Z</time></trkpt><trkpt lat="42.4706783" lon="-7.49514"><ele>583.6</ele><time>2026-04-14T13:48:00.891Z</time></trkpt><trkpt lat="42.4707033" lon="-7.495"><ele>582.0</ele><time>2026-04-14T13:48:01.891Z</time></trkpt><trkpt lat="42.47076" lon="-7.4948683"><ele>582.0</ele><time>2026-04-14T13:48:02.891Z</time></trkpt><trkpt lat="42.4708283" lon="-7.494745"><ele>582.0</ele><time>2026-04-14T13:48:03.891Z</time></trkpt><trkpt lat="42.4709117" lon="-7.4946233"><ele>582.0</ele><time>2026-04-14T13:48:04.891Z</time></trkpt><trkpt lat="42.471" lon="-7.4944983"><ele>582.0</ele><time>2026-04-14T13:48:05.891Z</time></trkpt><trkpt lat="42.4710933" lon="-7.4943733"><ele>581.5</ele><time>2026-04-14T13:48:06.891Z</time></trkpt><trkpt lat="42.4711833" lon="-7.49425"><ele>581.0</ele><time>2026-04-14T13:48:07.891Z</time></trkpt><trkpt lat="42.4712717" lon="-7.494125"><ele>580.5</ele><time>2026-04-14T13:48:08.892Z</time></trkpt><trkpt lat="42.4713633" lon="-7.4940017"><ele>580.0</ele><time>2026-04-14T13:48:09.891Z</time></trkpt><trkpt lat="42.471455" lon="-7.4938767"><ele>577.5</ele><time>2026-04-14T13:48:10.891Z</time></trkpt><trkpt lat="42.471545" lon="-7.493755"><ele>575.0</ele><time>2026-04-14T13:48:11.892Z</time></trkpt><trkpt lat="42.4716333" lon="-7.49363"><ele>572.5</ele><time>2026-04-14T13:48:12.892Z</time></trkpt><trkpt lat="42.4717117" lon="-7.4935083"><ele>570.0</ele><time>2026-04-14T13:48:13.891Z</time></trkpt><trkpt lat="42.4717867" lon="-7.4933867"><ele>570.0</ele><time>2026-04-14T13:48:14.891Z</time></trkpt><trkpt lat="42.4718583" lon="-7.4932717"><ele>570.0</ele><time>2026-04-14T13:48:15.891Z</time></trkpt><trkpt lat="42.471935" lon="-7.493165"><ele>570.0</ele><time>2026-04-14T13:48:16.891Z</time></trkpt><trkpt lat="42.4720083" lon="-7.4930517"><ele>570.0</ele><time>2026-04-14T13:48:17.892Z</time></trkpt><trkpt lat="42.4720583" lon="-7.4929217"><ele>570.0</ele><time>2026-04-14T13:48:18.892Z</time></trkpt><trkpt lat="42.47209" lon="-7.4927633"><ele>566.25</ele><time>2026-04-14T13:48:19.892Z</time></trkpt><trkpt lat="42.472115" lon="-7.4925983"><ele>562.5</ele><time>2026-04-14T13:48:20.892Z</time></trkpt><trkpt lat="42.4721317" lon="-7.4924433"><ele>558.75</ele><time>2026-04-14T13:48:21.892Z</time></trkpt><trkpt lat="42.4721483" lon="-7.4922867"><ele>555.0</ele><time>2026-04-14T13:48:22.891Z</time></trkpt><trkpt lat="42.47216" lon="-7.4921267"><ele>552.25</ele><time>2026-04-14T13:48:23.892Z</time></trkpt><trkpt lat="42.4721783" lon="-7.4919717"><ele>549.5</ele><time>2026-04-14T13:48:24.891Z</time></trkpt><trkpt lat="42.472195" lon="-7.4918267"><ele>546.75</ele><time>2026-04-14T13:48:25.892Z</time></trkpt><trkpt lat="42.4722067" lon="-7.4916783"><ele>544.0</ele><time>2026-04-14T13:48:26.891Z</time></trkpt><trkpt lat="42.4722167" lon="-7.49152"><ele>544.0</ele><time>2026-04-14T13:48:27.892Z</time></trkpt><trkpt lat="42.47222" lon="-7.4913617"><ele>544.0</ele><time>2026-04-14T13:48:28.892Z</time></trkpt><trkpt lat="42.47222" lon="-7.4912017"><ele>544.0</ele><time>2026-04-14T13:48:29.891Z</time></trkpt><trkpt lat="42.4722067" lon="-7.4910483"><ele>544.0</ele><time>2026-04-14T13:48:30.892Z</time></trkpt><trkpt lat="42.4721933" lon="-7.4908983"><ele>543.75</ele><time>2026-04-14T13:48:31.892Z</time></trkpt><trkpt lat="42.4721833" lon="-7.490745"><ele>543.5</ele><time>2026-04-14T13:48:32.891Z</time></trkpt><trkpt lat="42.47216" lon="-7.4905867"><ele>543.25</ele><time>2026-04-14T13:48:33.892Z</time></trkpt><trkpt lat="42.4721267" lon="-7.4904267"><ele>543.0</ele><time>2026-04-14T13:48:34.892Z</time></trkpt><trkpt lat="42.4720883" lon="-7.490265"><ele>543.0</ele><time>2026-04-14T13:48:35.892Z</time></trkpt><trkpt lat="42.4720483" lon="-7.4901033"><ele>543.0</ele><time>2026-04-14T13:48:36.891Z</time></trkpt><trkpt lat="42.4720033" lon="-7.4899467"><ele>543.0</ele><time>2026-04-14T13:48:37.892Z</time></trkpt><trkpt lat="42.4719583" lon="-7.4897883"><ele>543.0</ele><time>2026-04-14T13:48:38.891Z</time></trkpt><trkpt lat="42.4719167" lon="-7.489635"><ele>540.5</ele><time>2026-04-14T13:48:39.891Z</time></trkpt><trkpt lat="42.4718717" lon="-7.4894883"><ele>538.0</ele><time>2026-04-14T13:48:40.891Z</time></trkpt><trkpt lat="42.4718267" lon="-7.4893233"><ele>535.5</ele><time>2026-04-14T13:48:41.891Z</time></trkpt><trkpt lat="42.471785" lon="-7.4891683"><ele>533.0</ele><time>2026-04-14T13:48:42.891Z</time></trkpt><trkpt lat="42.4717383" lon="-7.48902"><ele>533.0</ele><time>2026-04-14T13:48:43.892Z</time></trkpt><trkpt lat="42.4716867" lon="-7.4888833"><ele>533.0</ele><time>2026-04-14T13:48:44.891Z</time></trkpt><trkpt lat="42.4716083" lon="-7.4887517"><ele>533.0</ele><time>2026-04-14T13:48:45.892Z</time></trkpt><trkpt lat="42.4715167" lon="-7.4886383"><ele>533.0</ele><time>2026-04-14T13:48:46.892Z</time></trkpt><trkpt lat="42.471435" lon="-7.4885467"><ele>531.1666666666666</ele><time>2026-04-14T13:48:47.891Z</time></trkpt><trkpt lat="42.47137" lon="-7.4884867"><ele>529.3333333333333</ele><time>2026-04-14T13:48:48.891Z</time></trkpt><trkpt lat="42.4713567" lon="-7.488395"><ele>527.5</ele><time>2026-04-14T13:48:53.892Z</time></trkpt><trkpt lat="42.471355" lon="-7.4882917"><ele>525.6666666666666</ele><time>2026-04-14T13:48:55.891Z</time></trkpt><trkpt lat="42.471325" lon="-7.4882083"><ele>523.8333333333334</ele><time>2026-04-14T13:48:56.891Z</time></trkpt><trkpt lat="42.471275" lon="-7.488095"><ele>522.0</ele><time>2026-04-14T13:48:57.892Z</time></trkpt><trkpt lat="42.4712033" lon="-7.4879567"><ele>519.8000000000001</ele><time>2026-04-14T13:48:58.891Z</time></trkpt><trkpt lat="42.4711167" lon="-7.4878167"><ele>517.6</ele><time>2026-04-14T13:48:59.891Z</time></trkpt><trkpt lat="42.4710333" lon="-7.4877017"><ele>515.4000000000001</ele><time>2026-04-14T13:49:00.891Z</time></trkpt><trkpt lat="42.47097" lon="-7.4876183"><ele>513.2</ele><time>2026-04-14T13:49:01.891Z</time></trkpt><trkpt lat="42.4709233" lon="-7.4875583"><ele>511.0</ele><time>2026-04-14T13:49:02.891Z</time></trkpt><trkpt lat="42.470905" lon="-7.487465"><ele>511.0</ele><time>2026-04-14T13:49:04.892Z</time></trkpt><trkpt lat="42.47096" lon="-7.4873767"><ele>511.0</ele><time>2026-04-14T13:49:06.892Z</time></trkpt><trkpt lat="42.4710183" lon="-7.4873183"><ele>511.0</ele><time>2026-04-14T13:49:07.891Z</time></trkpt><trkpt lat="42.4711067" lon="-7.4872417"><ele>511.0</ele><time>2026-04-14T13:49:08.891Z</time></trkpt><trkpt lat="42.47122" lon="-7.487145"><ele>511.0</ele><time>2026-04-14T13:49:09.891Z</time></trkpt><trkpt lat="42.471345" lon="-7.4870617"><ele>507.20000000000005</ele><time>2026-04-14T13:49:10.891Z</time></trkpt><trkpt lat="42.4714617" lon="-7.4869933"><ele>503.40000000000003</ele><time>2026-04-14T13:49:11.891Z</time></trkpt><trkpt lat="42.4715633" lon="-7.486965"><ele>499.6</ele><time>2026-04-14T13:49:12.891Z</time></trkpt><trkpt lat="42.471655" lon="-7.4869617"><ele>495.8</ele><time>2026-04-14T13:49:13.891Z</time></trkpt><trkpt lat="42.4717433" lon="-7.4869917"><ele>492.0</ele><time>2026-04-14T13:49:14.892Z</time></trkpt><trkpt lat="42.4718533" lon="-7.487065"><ele>492.66666666666663</ele><time>2026-04-14T13:49:15.891Z</time></trkpt><trkpt lat="42.4719867" lon="-7.487175"><ele>493.3333333333333</ele><time>2026-04-14T13:49:16.891Z</time></trkpt><trkpt lat="42.4721317" lon="-7.487305"><ele>494.0</ele><time>2026-04-14T13:49:17.891Z</time></trkpt><trkpt lat="42.4722867" lon="-7.487435"><ele>494.0</ele><time>2026-04-14T13:49:18.891Z</time></trkpt><trkpt lat="42.472435" lon="-7.48756"><ele>494.0</ele><time>2026-04-14T13:49:19.891Z</time></trkpt><trkpt lat="42.4725967" lon="-7.487665"><ele>494.0</ele><time>2026-04-14T13:49:20.891Z</time></trkpt><trkpt lat="42.4727467" lon="-7.4877567"><ele>494.0</ele><time>2026-04-14T13:49:21.892Z</time></trkpt><trkpt lat="42.4728933" lon="-7.4878483"><ele>494.0</ele><time>2026-04-14T13:49:22.891Z</time></trkpt><trkpt lat="42.4730367" lon="-7.4879633"><ele>494.0</ele><time>2026-04-14T13:49:23.892Z</time></trkpt><trkpt lat="42.4731633" lon="-7.48808"><ele>492.6</ele><time>2026-04-14T13:49:24.892Z</time></trkpt><trkpt lat="42.4732617" lon="-7.488195"><ele>491.2</ele><time>2026-04-14T13:49:25.891Z</time></trkpt><trkpt lat="42.4733317" lon="-7.4882967"><ele>489.80000000000007</ele><time>2026-04-14T13:49:26.892Z</time></trkpt><trkpt lat="42.47339" lon="-7.4883483"><ele>488.40000000000003</ele><time>2026-04-14T13:49:27.891Z</time></trkpt><trkpt lat="42.4733167" lon="-7.488375"><ele>487.0</ele><time>2026-04-14T13:49:32.892Z</time></trkpt><trkpt lat="42.4732033" lon="-7.4884367"><ele>487.0</ele><time>2026-04-14T13:49:34.891Z</time></trkpt><trkpt lat="42.4731283" lon="-7.48851"><ele>487.00000000000006</ele><time>2026-04-14T13:49:35.891Z</time></trkpt><trkpt lat="42.4730533" lon="-7.4886083"><ele>487.00000000000006</ele><time>2026-04-14T13:49:36.891Z</time></trkpt><trkpt lat="42.47298" lon="-7.4887333"><ele>487.0</ele><time>2026-04-14T13:49:37.891Z</time></trkpt><trkpt lat="42.4729367" lon="-7.4888783"><ele>487.0</ele><time>2026-04-14T13:49:38.892Z</time></trkpt><trkpt lat="42.4729317" lon="-7.4890183"><ele>488.1666666666667</ele><time>2026-04-14T13:49:39.892Z</time></trkpt><trkpt lat="42.472935" lon="-7.4891367"><ele>489.33333333333337</ele><time>2026-04-14T13:49:40.891Z</time></trkpt><trkpt lat="42.472955" lon="-7.4892433"><ele>490.5</ele><time>2026-04-14T13:49:41.892Z</time></trkpt><trkpt lat="42.47299" lon="-7.489345"><ele>491.66666666666663</ele><time>2026-04-14T13:49:42.891Z</time></trkpt><trkpt lat="42.47305" lon="-7.4894167"><ele>492.8333333333333</ele><time>2026-04-14T13:49:43.891Z</time></trkpt><trkpt lat="42.4731383" lon="-7.4894667"><ele>494.0</ele><time>2026-04-14T13:49:44.891Z</time></trkpt><trkpt lat="42.47326" lon="-7.4894917"><ele>494.0</ele><time>2026-04-14T13:49:45.891Z</time></trkpt><trkpt lat="42.4734183" lon="-7.4895083"><ele>494.0</ele><time>2026-04-14T13:49:46.891Z</time></trkpt><trkpt lat="42.4735767" lon="-7.489545"><ele>494.0</ele><time>2026-04-14T13:49:47.891Z</time></trkpt><trkpt lat="42.4737383" lon="-7.4895817"><ele>492.0</ele><time>2026-04-14T13:49:48.891Z</time></trkpt><trkpt lat="42.473885" lon="-7.4896167"><ele>490.0</ele><time>2026-04-14T13:49:49.891Z</time></trkpt><trkpt lat="42.4740367" lon="-7.4896583"><ele>488.0</ele><time>2026-04-14T13:49:50.891Z</time></trkpt><trkpt lat="42.4741567" lon="-7.489695"><ele>486.0</ele><time>2026-04-14T13:49:51.892Z</time></trkpt><trkpt lat="42.4742467" lon="-7.48973"><ele>486.0</ele><time>2026-04-14T13:49:52.891Z</time></trkpt><trkpt lat="42.4742367" lon="-7.4898467"><ele>486.0</ele><time>2026-04-14T13:49:56.891Z</time></trkpt><trkpt lat="42.4741967" lon="-7.4899233"><ele>486.0</ele><time>2026-04-14T13:49:57.892Z</time></trkpt><trkpt lat="42.47415" lon="-7.4900233"><ele>486.0</ele><time>2026-04-14T13:49:58.891Z</time></trkpt><trkpt lat="42.4741" lon="-7.4901467"><ele>486.0</ele><time>2026-04-14T13:49:59.891Z</time></trkpt><trkpt lat="42.474035" lon="-7.490285"><ele>486.0</ele><time>2026-04-14T13:50:00.892Z</time></trkpt><trkpt lat="42.473975" lon="-7.4904117"><ele>486.0</ele><time>2026-04-14T13:50:01.892Z</time></trkpt><trkpt lat="42.473935" lon="-7.49053"><ele>486.0</ele><time>2026-04-14T13:50:02.892Z</time></trkpt><trkpt lat="42.4739067" lon="-7.4906283"><ele>486.0</ele><time>2026-04-14T13:50:03.892Z</time></trkpt><trkpt lat="42.47391" lon="-7.4907483"><ele>486.0</ele><time>2026-04-14T13:50:05.892Z</time></trkpt><trkpt lat="42.4740067" lon="-7.49075"><ele>489.75</ele><time>2026-04-14T13:50:07.891Z</time></trkpt><trkpt lat="42.4741017" lon="-7.4907133"><ele>493.5</ele><time>2026-04-14T13:50:08.891Z</time></trkpt><trkpt lat="42.474225" lon="-7.4906517"><ele>497.25</ele><time>2026-04-14T13:50:09.892Z</time></trkpt><trkpt lat="42.474345" lon="-7.4906033"><ele>501.0</ele><time>2026-04-14T13:50:10.891Z</time></trkpt><trkpt lat="42.4744367" lon="-7.4905133"><ele>501.0</ele><time>2026-04-14T13:50:11.891Z</time></trkpt><trkpt lat="42.4745117" lon="-7.4904283"><ele>501.0</ele><time>2026-04-14T13:50:12.891Z</time></trkpt><trkpt lat="42.4745667" lon="-7.4903483"><ele>501.0</ele><time>2026-04-14T13:50:13.892Z</time></trkpt><trkpt lat="42.4746117" lon="-7.4902833"><ele>501.0</ele><time>2026-04-14T13:50:14.891Z</time></trkpt><trkpt lat="42.47468" lon="-7.4902617"><ele>501.0</ele><time>2026-04-14T13:50:17.891Z</time></trkpt><trkpt lat="42.4747733" lon="-7.490335"><ele>501.0</ele><time>2026-04-14T13:50:19.891Z</time></trkpt><trkpt lat="42.4748333" lon="-7.49037"><ele>499.0</ele><time>2026-04-14T13:50:20.892Z</time></trkpt><trkpt lat="42.4748983" lon="-7.4904067"><ele>497.0</ele><time>2026-04-14T13:50:21.892Z</time></trkpt><trkpt lat="42.4749633" lon="-7.4904567"><ele>495.0</ele><time>2026-04-14T13:50:22.891Z</time></trkpt><trkpt lat="42.475025" lon="-7.490515"><ele>493.0</ele><time>2026-04-14T13:50:23.892Z</time></trkpt><trkpt lat="42.47508" lon="-7.490585"><ele>491.0</ele><time>2026-04-14T13:50:24.892Z</time></trkpt><trkpt lat="42.4751317" lon="-7.490655"><ele>489.0</ele><time>2026-04-14T13:50:25.892Z</time></trkpt><trkpt lat="42.4751817" lon="-7.4907367"><ele>487.0</ele><time>2026-04-14T13:50:26.891Z</time></trkpt><trkpt lat="42.4752333" lon="-7.4908167"><ele>487.0</ele><time>2026-04-14T13:50:27.891Z</time></trkpt><trkpt lat="42.47529" lon="-7.4909033"><ele>487.0</ele><time>2026-04-14T13:50:28.891Z</time></trkpt><trkpt lat="42.4753683" lon="-7.4910067"><ele>487.0</ele><time>2026-04-14T13:50:29.892Z</time></trkpt><trkpt lat="42.4754833" lon="-7.49115"><ele>487.0</ele><time>2026-04-14T13:50:30.892Z</time></trkpt><trkpt lat="42.4756" lon="-7.4913167"><ele>482.0</ele><time>2026-04-14T13:50:31.892Z</time></trkpt><trkpt lat="42.4757133" lon="-7.4915017"><ele>477.0</ele><time>2026-04-14T13:50:32.892Z</time></trkpt><trkpt lat="42.475825" lon="-7.491715"><ele>472.0</ele><time>2026-04-14T13:50:33.892Z</time></trkpt><trkpt lat="42.4759267" lon="-7.4919333"><ele>475.25</ele><time>2026-04-14T13:50:34.891Z</time></trkpt><trkpt lat="42.476015" lon="-7.4921167"><ele>478.5</ele><time>2026-04-14T13:50:35.892Z</time></trkpt><trkpt lat="42.4761083" lon="-7.4922467"><ele>481.75</ele><time>2026-04-14T13:50:36.892Z</time></trkpt><trkpt lat="42.47621" lon="-7.4923633"><ele>485.0</ele><time>2026-04-14T13:50:37.891Z</time></trkpt><trkpt lat="42.4762867" lon="-7.4925017"><ele>480.66666666666663</ele><time>2026-04-14T13:50:38.892Z</time></trkpt><trkpt lat="42.4763283" lon="-7.4926233"><ele>476.3333333333333</ele><time>2026-04-14T13:50:39.891Z</time></trkpt><trkpt lat="42.4763417" lon="-7.4927283"><ele>472.0</ele><time>2026-04-14T13:50:40.892Z</time></trkpt><trkpt lat="42.4763333" lon="-7.4929"><ele>467.66666666666663</ele><time>2026-04-14T13:50:42.892Z</time></trkpt><trkpt lat="42.4763183" lon="-7.4929833"><ele>463.3333333333333</ele><time>2026-04-14T13:50:43.892Z</time></trkpt><trkpt lat="42.4763" lon="-7.4930883"><ele>459.0</ele><time>2026-04-14T13:50:44.892Z</time></trkpt><trkpt lat="42.4763" lon="-7.49321"><ele>459.0</ele><time>2026-04-14T13:50:45.892Z</time></trkpt><trkpt lat="42.4763233" lon="-7.49333"><ele>459.0</ele><time>2026-04-14T13:50:46.892Z</time></trkpt><trkpt lat="42.4763583" lon="-7.4934233"><ele>459.0</ele><time>2026-04-14T13:50:47.891Z</time></trkpt><trkpt lat="42.47641" lon="-7.4934883"><ele>459.0</ele><time>2026-04-14T13:50:48.891Z</time></trkpt><trkpt lat="42.4764967" lon="-7.4935183"><ele>459.0</ele><time>2026-04-14T13:50:50.891Z</time></trkpt><trkpt lat="42.47656" lon="-7.4934717"><ele>459.0</ele><time>2026-04-14T13:50:51.892Z</time></trkpt><trkpt lat="42.4766317" lon="-7.493395"><ele>459.0</ele><time>2026-04-14T13:50:52.891Z</time></trkpt><trkpt lat="42.476705" lon="-7.4933417"><ele>459.0</ele><time>2026-04-14T13:50:53.891Z</time></trkpt><trkpt lat="42.4767683" lon="-7.493285"><ele>459.0</ele><time>2026-04-14T13:50:54.892Z</time></trkpt><trkpt lat="42.4768417" lon="-7.493205"><ele>459.0</ele><time>2026-04-14T13:50:56.891Z</time></trkpt><trkpt lat="42.4768117" lon="-7.493055"><ele>459.0</ele><time>2026-04-14T13:50:58.891Z</time></trkpt><trkpt lat="42.4767717" lon="-7.4929467"><ele>458.75</ele><time>2026-04-14T13:50:59.891Z</time></trkpt><trkpt lat="42.47672" lon="-7.4928133"><ele>458.5</ele><time>2026-04-14T13:51:00.891Z</time></trkpt><trkpt lat="42.476655" lon="-7.4926767"><ele>458.25</ele><time>2026-04-14T13:51:01.891Z</time></trkpt><trkpt lat="42.476595" lon="-7.4925417"><ele>458.0</ele><time>2026-04-14T13:51:02.892Z</time></trkpt><trkpt lat="42.4765233" lon="-7.4924117"><ele>458.0</ele><time>2026-04-14T13:51:03.892Z</time></trkpt><trkpt lat="42.476445" lon="-7.4922833"><ele>458.0</ele><time>2026-04-14T13:51:04.892Z</time></trkpt><trkpt lat="42.476375" lon="-7.492165"><ele>458.0</ele><time>2026-04-14T13:51:05.892Z</time></trkpt><trkpt lat="42.4763083" lon="-7.4920433"><ele>458.0</ele><time>2026-04-14T13:51:06.891Z</time></trkpt><trkpt lat="42.4762383" lon="-7.4919217"><ele>460.79999999999995</ele><time>2026-04-14T13:51:07.892Z</time></trkpt><trkpt lat="42.4761683" lon="-7.4918117"><ele>463.59999999999997</ele><time>2026-04-14T13:51:08.892Z</time></trkpt><trkpt lat="42.4760967" lon="-7.49169"><ele>466.40000000000003</ele><time>2026-04-14T13:51:09.892Z</time></trkpt><trkpt lat="42.4760367" lon="-7.4915767"><ele>469.20000000000005</ele><time>2026-04-14T13:51:10.891Z</time></trkpt><trkpt lat="42.4759733" lon="-7.491455"><ele>472.0</ele><time>2026-04-14T13:51:11.891Z</time></trkpt><trkpt lat="42.4759117" lon="-7.4913333"><ele>469.75</ele><time>2026-04-14T13:51:12.891Z</time></trkpt><trkpt lat="42.4758483" lon="-7.4912083"><ele>467.5</ele><time>2026-04-14T13:51:13.892Z</time></trkpt><trkpt lat="42.47579" lon="-7.4910817"><ele>465.25</ele><time>2026-04-14T13:51:14.891Z</time></trkpt><trkpt lat="42.4757217" lon="-7.4909583"><ele>463.0</ele><time>2026-04-14T13:51:15.892Z</time></trkpt><trkpt lat="42.4756483" lon="-7.4908367"><ele>463.0</ele><time>2026-04-14T13:51:16.891Z</time></trkpt><trkpt lat="42.4755783" lon="-7.4907283"><ele>462.99999999999994</ele><time>2026-04-14T13:51:17.891Z</time></trkpt><trkpt lat="42.4755133" lon="-7.4906167"><ele>462.99999999999994</ele><time>2026-04-14T13:51:18.891Z</time></trkpt><trkpt lat="42.4754317" lon="-7.49051"><ele>463.0</ele><time>2026-04-14T13:51:19.891Z</time></trkpt><trkpt lat="42.47535" lon="-7.4904067"><ele>463.0</ele><time>2026-04-14T13:51:20.892Z</time></trkpt><trkpt lat="42.475275" lon="-7.4902933"><ele>464.59999999999997</ele><time>2026-04-14T13:51:21.892Z</time></trkpt><trkpt lat="42.4752117" lon="-7.4901717"><ele>466.19999999999993</ele><time>2026-04-14T13:51:22.891Z</time></trkpt><trkpt lat="42.4751733" lon="-7.49003"><ele>467.8</ele><time>2026-04-14T13:51:23.891Z</time></trkpt><trkpt lat="42.4751467" lon="-7.4898817"><ele>469.4</ele><time>2026-04-14T13:51:24.891Z</time></trkpt><trkpt lat="42.4751083" lon="-7.4897367"><ele>471.0</ele><time>2026-04-14T13:51:25.892Z</time></trkpt><trkpt lat="42.4750683" lon="-7.489605"><ele>470.0</ele><time>2026-04-14T13:51:26.891Z</time></trkpt><trkpt lat="42.47501" lon="-7.4894833"><ele>469.0</ele><time>2026-04-14T13:51:27.891Z</time></trkpt><trkpt lat="42.47494" lon="-7.489365"><ele>468.0</ele><time>2026-04-14T13:51:28.891Z</time></trkpt><trkpt lat="42.4748683" lon="-7.489255"><ele>467.0</ele><time>2026-04-14T13:51:29.891Z</time></trkpt><trkpt lat="42.4747867" lon="-7.4891517"><ele>466.0</ele><time>2026-04-14T13:51:30.892Z</time></trkpt><trkpt lat="42.4747083" lon="-7.4890483"><ele>466.0</ele><time>2026-04-14T13:51:31.891Z</time></trkpt><trkpt lat="42.4746367" lon="-7.4889433"><ele>466.0</ele><time>2026-04-14T13:51:32.892Z</time></trkpt><trkpt lat="42.474555" lon="-7.4888383"><ele>466.0</ele><time>2026-04-14T13:51:33.892Z</time></trkpt><trkpt lat="42.4744667" lon="-7.4887333"><ele>466.0</ele><time>2026-04-14T13:51:34.891Z</time></trkpt><trkpt lat="42.4743833" lon="-7.488625"><ele>468.25</ele><time>2026-04-14T13:51:35.892Z</time></trkpt><trkpt lat="42.4742867" lon="-7.4885233"><ele>470.5</ele><time>2026-04-14T13:51:36.891Z</time></trkpt><trkpt lat="42.4742" lon="-7.4884283"><ele>472.75</ele><time>2026-04-14T13:51:37.891Z</time></trkpt><trkpt lat="42.4741083" lon="-7.48833"><ele>475.0</ele><time>2026-04-14T13:51:38.892Z</time></trkpt><trkpt lat="42.4740183" lon="-7.488225"><ele>475.0</ele><time>2026-04-14T13:51:39.892Z</time></trkpt><trkpt lat="42.4739317" lon="-7.4881217"><ele>475.0</ele><time>2026-04-14T13:51:40.891Z</time></trkpt><trkpt lat="42.4738467" lon="-7.4880167"><ele>475.0</ele><time>2026-04-14T13:51:41.891Z</time></trkpt><trkpt lat="42.473765" lon="-7.4879183"><ele>475.0</ele><time>2026-04-14T13:51:42.892Z</time></trkpt><trkpt lat="42.4736817" lon="-7.4878133"><ele>475.6</ele><time>2026-04-14T13:51:43.892Z</time></trkpt><trkpt lat="42.4736017" lon="-7.4877033"><ele>476.2</ele><time>2026-04-14T13:51:44.891Z</time></trkpt><trkpt lat="42.4735217" lon="-7.4875983"><ele>476.79999999999995</ele><time>2026-04-14T13:51:45.891Z</time></trkpt><trkpt lat="42.4734367" lon="-7.487505"><ele>477.4</ele><time>2026-04-14T13:51:46.892Z</time></trkpt><trkpt lat="42.47334" lon="-7.4874217"><ele>478.0</ele><time>2026-04-14T13:51:47.891Z</time></trkpt><trkpt lat="42.4732417" lon="-7.48735"><ele>478.0</ele><time>2026-04-14T13:51:48.891Z</time></trkpt><trkpt lat="42.4731383" lon="-7.48729"><ele>478.0</ele><time>2026-04-14T13:51:49.891Z</time></trkpt><trkpt lat="42.47303" lon="-7.4872383"><ele>478.0</ele><time>2026-04-14T13:51:50.891Z</time></trkpt><trkpt lat="42.4729217" lon="-7.487185"><ele>478.0</ele><time>2026-04-14T13:51:51.891Z</time></trkpt><trkpt lat="42.4728167" lon="-7.48713"><ele>478.75</ele><time>2026-04-14T13:51:52.892Z</time></trkpt><trkpt lat="42.47271" lon="-7.4870817"><ele>479.5</ele><time>2026-04-14T13:51:53.891Z</time></trkpt><trkpt lat="42.4726" lon="-7.48703"><ele>480.25</ele><time>2026-04-14T13:51:54.891Z</time></trkpt><trkpt lat="42.4724983" lon="-7.486965"><ele>481.0</ele><time>2026-04-14T13:51:55.892Z</time></trkpt><trkpt lat="42.4723967" lon="-7.486885"><ele>481.0</ele><time>2026-04-14T13:51:56.891Z</time></trkpt><trkpt lat="42.4722983" lon="-7.4868083"><ele>481.0</ele><time>2026-04-14T13:51:57.891Z</time></trkpt><trkpt lat="42.472195" lon="-7.4867267"><ele>481.0</ele><time>2026-04-14T13:51:58.892Z</time></trkpt><trkpt lat="42.4720933" lon="-7.486655"><ele>481.0</ele><time>2026-04-14T13:51:59.891Z</time></trkpt><trkpt lat="42.47198" lon="-7.4865767"><ele>483.75</ele><time>2026-04-14T13:52:00.892Z</time></trkpt><trkpt lat="42.4718617" lon="-7.4865"><ele>486.5</ele><time>2026-04-14T13:52:01.892Z</time></trkpt><trkpt lat="42.4717467" lon="-7.48643"><ele>489.25</ele><time>2026-04-14T13:52:02.892Z</time></trkpt><trkpt lat="42.471625" lon="-7.4863783"><ele>492.0</ele><time>2026-04-14T13:52:03.892Z</time></trkpt><trkpt lat="42.471505" lon="-7.4863483"><ele>492.0</ele><time>2026-04-14T13:52:04.891Z</time></trkpt><trkpt lat="42.4713833" lon="-7.48634"><ele>492.0</ele><time>2026-04-14T13:52:05.891Z</time></trkpt><trkpt lat="42.4712617" lon="-7.48633"><ele>492.0</ele><time>2026-04-14T13:52:06.891Z</time></trkpt><trkpt lat="42.4711383" lon="-7.486335"><ele>492.0</ele><time>2026-04-14T13:52:07.891Z</time></trkpt><trkpt lat="42.4710183" lon="-7.48634"><ele>493.5</ele><time>2026-04-14T13:52:08.891Z</time></trkpt><trkpt lat="42.47089" lon="-7.4863417"><ele>495.0</ele><time>2026-04-14T13:52:09.891Z</time></trkpt><trkpt lat="42.4707633" lon="-7.48635"><ele>496.5</ele><time>2026-04-14T13:52:10.892Z</time></trkpt><trkpt lat="42.4706383" lon="-7.486365"><ele>498.0</ele><time>2026-04-14T13:52:11.891Z</time></trkpt><trkpt lat="42.4705283" lon="-7.4864033"><ele>497.75</ele><time>2026-04-14T13:52:12.891Z</time></trkpt><trkpt lat="42.47042" lon="-7.486455"><ele>497.5</ele><time>2026-04-14T13:52:13.891Z</time></trkpt><trkpt lat="42.4703233" lon="-7.48655"><ele>497.25</ele><time>2026-04-14T13:52:14.891Z</time></trkpt><trkpt lat="42.4702467" lon="-7.48667"><ele>497.0</ele><time>2026-04-14T13:52:15.891Z</time></trkpt><trkpt lat="42.47019" lon="-7.4868217"><ele>497.0</ele><time>2026-04-14T13:52:16.892Z</time></trkpt><trkpt lat="42.4701517" lon="-7.4869767"><ele>497.0</ele><time>2026-04-14T13:52:17.892Z</time></trkpt><trkpt lat="42.47012" lon="-7.4871333"><ele>497.0</ele><time>2026-04-14T13:52:18.892Z</time></trkpt><trkpt lat="42.4700767" lon="-7.4872783"><ele>497.0</ele><time>2026-04-14T13:52:19.891Z</time></trkpt><trkpt lat="42.4700233" lon="-7.4874117"><ele>498.40000000000003</ele><time>2026-04-14T13:52:20.891Z</time></trkpt><trkpt lat="42.46994" lon="-7.4875067"><ele>499.80000000000007</ele><time>2026-04-14T13:52:21.891Z</time></trkpt><trkpt lat="42.4698467" lon="-7.4875517"><ele>501.2</ele><time>2026-04-14T13:52:22.891Z</time></trkpt><trkpt lat="42.4697517" lon="-7.48754"><ele>502.6</ele><time>2026-04-14T13:52:23.891Z</time></trkpt><trkpt lat="42.4696383" lon="-7.4875033"><ele>504.0</ele><time>2026-04-14T13:52:24.892Z</time></trkpt><trkpt lat="42.4695217" lon="-7.487425"><ele>505.75</ele><time>2026-04-14T13:52:25.891Z</time></trkpt><trkpt lat="42.46941" lon="-7.4873583"><ele>507.5</ele><time>2026-04-14T13:52:26.891Z</time></trkpt><trkpt lat="42.4692933" lon="-7.4873083"><ele>509.25</ele><time>2026-04-14T13:52:27.891Z</time></trkpt><trkpt lat="42.4691783" lon="-7.4872933"><ele>511.0</ele><time>2026-04-14T13:52:28.891Z</time></trkpt><trkpt lat="42.46906" lon="-7.4873017"><ele>511.0</ele><time>2026-04-14T13:52:29.891Z</time></trkpt><trkpt lat="42.4689433" lon="-7.4873317"><ele>511.0</ele><time>2026-04-14T13:52:30.891Z</time></trkpt><trkpt lat="42.468835" lon="-7.4873767"><ele>511.0</ele><time>2026-04-14T13:52:31.891Z</time></trkpt><trkpt lat="42.4687317" lon="-7.487425"><ele>511.0</ele><time>2026-04-14T13:52:32.892Z</time></trkpt><trkpt lat="42.468625" lon="-7.4874683"><ele>512.75</ele><time>2026-04-14T13:52:33.891Z</time></trkpt><trkpt lat="42.4685117" lon="-7.4875067"><ele>514.5</ele><time>2026-04-14T13:52:34.891Z</time></trkpt><trkpt lat="42.468405" lon="-7.4875483"><ele>516.25</ele><time>2026-04-14T13:52:35.891Z</time></trkpt><trkpt lat="42.4682983" lon="-7.4875883"><ele>518.0</ele><time>2026-04-14T13:52:36.891Z</time></trkpt><trkpt lat="42.468185" lon="-7.4876033"><ele>518.0</ele><time>2026-04-14T13:52:37.891Z</time></trkpt><trkpt lat="42.46808" lon="-7.4875767"><ele>518.0</ele><time>2026-04-14T13:52:38.891Z</time></trkpt><trkpt lat="42.46798" lon="-7.4875033"><ele>518.0</ele><time>2026-04-14T13:52:39.892Z</time></trkpt><trkpt lat="42.4679083" lon="-7.48739"><ele>518.0</ele><time>2026-04-14T13:52:40.892Z</time></trkpt><trkpt lat="42.4678633" lon="-7.4872533"><ele>518.0</ele><time>2026-04-14T13:52:41.892Z</time></trkpt><trkpt lat="42.467845" lon="-7.4870967"><ele>521.0</ele><time>2026-04-14T13:52:42.891Z</time></trkpt><trkpt lat="42.4678333" lon="-7.486935"><ele>524.0</ele><time>2026-04-14T13:52:43.891Z</time></trkpt><trkpt lat="42.467805" lon="-7.4867767"><ele>527.0</ele><time>2026-04-14T13:52:44.891Z</time></trkpt><trkpt lat="42.4677517" lon="-7.4866367"><ele>530.0</ele><time>2026-04-14T13:52:45.891Z</time></trkpt><trkpt lat="42.4676833" lon="-7.4864967"><ele>530.0</ele><time>2026-04-14T13:52:46.891Z</time></trkpt><trkpt lat="42.4676017" lon="-7.4863833"><ele>530.0</ele><time>2026-04-14T13:52:47.892Z</time></trkpt><trkpt lat="42.4675117" lon="-7.4862683"><ele>530.0</ele><time>2026-04-14T13:52:48.892Z</time></trkpt><trkpt lat="42.4674183" lon="-7.486155"><ele>530.0</ele><time>2026-04-14T13:52:49.891Z</time></trkpt><trkpt lat="42.4673283" lon="-7.4860367"><ele>531.0</ele><time>2026-04-14T13:52:50.891Z</time></trkpt><trkpt lat="42.4672467" lon="-7.4859283"><ele>532.0</ele><time>2026-04-14T13:52:51.892Z</time></trkpt><trkpt lat="42.467145" lon="-7.4858483"><ele>533.0</ele><time>2026-04-14T13:52:52.892Z</time></trkpt><trkpt lat="42.467045" lon="-7.48578"><ele>534.0</ele><time>2026-04-14T13:52:53.891Z</time></trkpt><trkpt lat="42.4669367" lon="-7.4857533"><ele>534.0</ele><time>2026-04-14T13:52:54.892Z</time></trkpt><trkpt lat="42.46682" lon="-7.48576"><ele>534.0</ele><time>2026-04-14T13:52:55.892Z</time></trkpt><trkpt lat="42.4667083" lon="-7.4857817"><ele>534.0</ele><time>2026-04-14T13:52:56.892Z</time></trkpt><trkpt lat="42.4665983" lon="-7.4857817"><ele>534.0</ele><time>2026-04-14T13:52:57.892Z</time></trkpt><trkpt lat="42.4664817" lon="-7.48575"><ele>534.0</ele><time>2026-04-14T13:52:58.891Z</time></trkpt><trkpt lat="42.4663767" lon="-7.4856983"><ele>534.0</ele><time>2026-04-14T13:52:59.892Z</time></trkpt><trkpt lat="42.4663017" lon="-7.48563"><ele>534.0</ele><time>2026-04-14T13:53:00.891Z</time></trkpt><trkpt lat="42.4662433" lon="-7.4855333"><ele>534.0</ele><time>2026-04-14T13:53:02.891Z</time></trkpt><trkpt lat="42.466265" lon="-7.4854333"><ele>534.0</ele><time>2026-04-14T13:53:05.892Z</time></trkpt><trkpt lat="42.466195" lon="-7.4853033"><ele>535.0</ele><time>2026-04-14T13:53:07.892Z</time></trkpt><trkpt lat="42.4661283" lon="-7.485215"><ele>536.0</ele><time>2026-04-14T13:53:08.892Z</time></trkpt><trkpt lat="42.4660467" lon="-7.4851117"><ele>537.0</ele><time>2026-04-14T13:53:09.891Z</time></trkpt><trkpt lat="42.46597" lon="-7.4849967"><ele>538.0</ele><time>2026-04-14T13:53:10.891Z</time></trkpt><trkpt lat="42.4659233" lon="-7.48485"><ele>539.0</ele><time>2026-04-14T13:53:11.891Z</time></trkpt><trkpt lat="42.465895" lon="-7.48469"><ele>538.2</ele><time>2026-04-14T13:53:12.892Z</time></trkpt><trkpt lat="42.465885" lon="-7.4845267"><ele>537.4</ele><time>2026-04-14T13:53:13.891Z</time></trkpt><trkpt lat="42.46588" lon="-7.484365"><ele>536.6</ele><time>2026-04-14T13:53:14.891Z</time></trkpt><trkpt lat="42.4658767" lon="-7.4842267"><ele>535.8</ele><time>2026-04-14T13:53:15.891Z</time></trkpt><trkpt lat="42.4659" lon="-7.4841033"><ele>535.0</ele><time>2026-04-14T13:53:16.891Z</time></trkpt><trkpt lat="42.465935" lon="-7.484"><ele>535.0</ele><time>2026-04-14T13:53:17.892Z</time></trkpt><trkpt lat="42.46598" lon="-7.48391"><ele>535.0</ele><time>2026-04-14T13:53:18.891Z</time></trkpt><trkpt lat="42.466035" lon="-7.4838383"><ele>535.0</ele><time>2026-04-14T13:53:19.891Z</time></trkpt><trkpt lat="42.4661167" lon="-7.48382"><ele>535.0</ele><time>2026-04-14T13:53:20.892Z</time></trkpt><trkpt lat="42.4661983" lon="-7.4838167"><ele>535.0</ele><time>2026-04-14T13:53:21.891Z</time></trkpt><trkpt lat="42.46628" lon="-7.4838267"><ele>535.0</ele><time>2026-04-14T13:53:22.892Z</time></trkpt><trkpt lat="42.466375" lon="-7.4839183"><ele>535.2</ele><time>2026-04-14T13:53:23.892Z</time></trkpt><trkpt lat="42.4664733" lon="-7.4839467"><ele>535.4</ele><time>2026-04-14T13:53:24.892Z</time></trkpt><trkpt lat="42.46657" lon="-7.4839483"><ele>535.6</ele><time>2026-04-14T13:53:25.892Z</time></trkpt><trkpt lat="42.466655" lon="-7.4839017"><ele>535.8</ele><time>2026-04-14T13:53:26.892Z</time></trkpt><trkpt lat="42.46672" lon="-7.4838183"><ele>536.0</ele><time>2026-04-14T13:53:27.891Z</time></trkpt><trkpt lat="42.4667883" lon="-7.4837017"><ele>536.0</ele><time>2026-04-14T13:53:28.891Z</time></trkpt><trkpt lat="42.4668683" lon="-7.483545"><ele>536.0</ele><time>2026-04-14T13:53:29.891Z</time></trkpt><trkpt lat="42.4669383" lon="-7.483355"><ele>536.0</ele><time>2026-04-14T13:53:30.892Z</time></trkpt><trkpt lat="42.4670067" lon="-7.4831867"><ele>536.0</ele><time>2026-04-14T13:53:31.891Z</time></trkpt><trkpt lat="42.46705" lon="-7.48302"><ele>536.0</ele><time>2026-04-14T13:53:32.892Z</time></trkpt><trkpt lat="42.4670933" lon="-7.4828617"><ele>536.0</ele><time>2026-04-14T13:53:33.891Z</time></trkpt><trkpt lat="42.4671433" lon="-7.4827067"><ele>536.0</ele><time>2026-04-14T13:53:34.892Z</time></trkpt><trkpt lat="42.46719" lon="-7.4825517"><ele>536.0</ele><time>2026-04-14T13:53:35.891Z</time></trkpt><trkpt lat="42.46724" lon="-7.4824"><ele>536.0</ele><time>2026-04-14T13:53:36.892Z</time></trkpt><trkpt lat="42.4672783" lon="-7.4822517"><ele>536.0</ele><time>2026-04-14T13:53:37.892Z</time></trkpt><trkpt lat="42.467325" lon="-7.4820917"><ele>536.0</ele><time>2026-04-14T13:53:38.892Z</time></trkpt><trkpt lat="42.467365" lon="-7.481945"><ele>536.0</ele><time>2026-04-14T13:53:39.892Z</time></trkpt><trkpt lat="42.467405" lon="-7.4818033"><ele>537.5</ele><time>2026-04-14T13:53:40.891Z</time></trkpt><trkpt lat="42.4674483" lon="-7.48166"><ele>539.0</ele><time>2026-04-14T13:53:41.892Z</time></trkpt><trkpt lat="42.467485" lon="-7.4815083"><ele>540.5</ele><time>2026-04-14T13:53:42.892Z</time></trkpt><trkpt lat="42.4675233" lon="-7.4813533"><ele>542.0</ele><time>2026-04-14T13:53:43.891Z</time></trkpt><trkpt lat="42.4675683" lon="-7.4812033"><ele>543.0</ele><time>2026-04-14T13:53:44.891Z</time></trkpt><trkpt lat="42.4676167" lon="-7.4810533"><ele>544.0</ele><time>2026-04-14T13:53:45.892Z</time></trkpt><trkpt lat="42.4676533" lon="-7.4809"><ele>545.0</ele><time>2026-04-14T13:53:46.892Z</time></trkpt><trkpt lat="42.4676833" lon="-7.4807433"><ele>546.0</ele><time>2026-04-14T13:53:47.891Z</time></trkpt><trkpt lat="42.4676983" lon="-7.4805917"><ele>546.0</ele><time>2026-04-14T13:53:48.891Z</time></trkpt><trkpt lat="42.467715" lon="-7.4804433"><ele>546.0</ele><time>2026-04-14T13:53:49.892Z</time></trkpt><trkpt lat="42.4677267" lon="-7.48031"><ele>546.0</ele><time>2026-04-14T13:53:50.891Z</time></trkpt><trkpt lat="42.4677433" lon="-7.480175"><ele>546.0</ele><time>2026-04-14T13:53:51.891Z</time></trkpt><trkpt lat="42.4677767" lon="-7.4800367"><ele>546.0</ele><time>2026-04-14T13:53:52.891Z</time></trkpt><trkpt lat="42.4678233" lon="-7.4799117"><ele>546.25</ele><time>2026-04-14T13:53:53.892Z</time></trkpt><trkpt lat="42.4678833" lon="-7.4797767"><ele>546.5</ele><time>2026-04-14T13:53:54.891Z</time></trkpt><trkpt lat="42.4679517" lon="-7.479645"><ele>546.75</ele><time>2026-04-14T13:53:55.891Z</time></trkpt><trkpt lat="42.4680183" lon="-7.47951"><ele>547.0</ele><time>2026-04-14T13:53:56.892Z</time></trkpt><trkpt lat="42.4680667" lon="-7.4793633"><ele>546.5</ele><time>2026-04-14T13:53:57.891Z</time></trkpt><trkpt lat="42.4681117" lon="-7.47921"><ele>546.0</ele><time>2026-04-14T13:53:58.891Z</time></trkpt><trkpt lat="42.4681383" lon="-7.4790567"><ele>545.5</ele><time>2026-04-14T13:53:59.891Z</time></trkpt><trkpt lat="42.4681467" lon="-7.4789"><ele>545.0</ele><time>2026-04-14T13:54:00.892Z</time></trkpt><trkpt lat="42.468155" lon="-7.478735"><ele>544.8</ele><time>2026-04-14T13:54:01.891Z</time></trkpt><trkpt lat="42.468145" lon="-7.4785767"><ele>544.6</ele><time>2026-04-14T13:54:02.891Z</time></trkpt><trkpt lat="42.468145" lon="-7.478425"><ele>544.4</ele><time>2026-04-14T13:54:03.892Z</time></trkpt><trkpt lat="42.4681333" lon="-7.4782733"><ele>544.2</ele><time>2026-04-14T13:54:04.891Z</time></trkpt><trkpt lat="42.4681267" lon="-7.47814"><ele>544.0</ele><time>2026-04-14T13:54:05.891Z</time></trkpt><trkpt lat="42.4681283" lon="-7.4780067"><ele>543.6</ele><time>2026-04-14T13:54:06.891Z</time></trkpt><trkpt lat="42.4681333" lon="-7.4778583"><ele>543.2</ele><time>2026-04-14T13:54:07.891Z</time></trkpt><trkpt lat="42.4681333" lon="-7.4777167"><ele>542.8000000000001</ele><time>2026-04-14T13:54:08.891Z</time></trkpt><trkpt lat="42.4681417" lon="-7.47756"><ele>542.4</ele><time>2026-04-14T13:54:09.892Z</time></trkpt><trkpt lat="42.4681583" lon="-7.4774217"><ele>542.0</ele><time>2026-04-14T13:54:10.892Z</time></trkpt><trkpt lat="42.4681933" lon="-7.477305"><ele>542.0</ele><time>2026-04-14T13:54:11.891Z</time></trkpt><trkpt lat="42.4682567" lon="-7.4772033"><ele>542.0</ele><time>2026-04-14T13:54:12.891Z</time></trkpt><trkpt lat="42.4683417" lon="-7.4771317"><ele>542.0</ele><time>2026-04-14T13:54:13.891Z</time></trkpt><trkpt lat="42.4684333" lon="-7.4770917"><ele>542.0</ele><time>2026-04-14T13:54:14.891Z</time></trkpt><trkpt lat="42.4685333" lon="-7.477055"><ele>542.0</ele><time>2026-04-14T13:54:15.892Z</time></trkpt><trkpt lat="42.4686383" lon="-7.4769983"><ele>542.4</ele><time>2026-04-14T13:54:16.891Z</time></trkpt><trkpt lat="42.46874" lon="-7.4769267"><ele>542.8000000000001</ele><time>2026-04-14T13:54:17.891Z</time></trkpt><trkpt lat="42.4688267" lon="-7.4768483"><ele>543.2</ele><time>2026-04-14T13:54:18.892Z</time></trkpt><trkpt lat="42.4689017" lon="-7.4767767"><ele>543.6</ele><time>2026-04-14T13:54:19.891Z</time></trkpt><trkpt lat="42.4689933" lon="-7.476715"><ele>544.0</ele><time>2026-04-14T13:54:20.891Z</time></trkpt><trkpt lat="42.46909" lon="-7.4766567"><ele>544.0</ele><time>2026-04-14T13:54:21.891Z</time></trkpt><trkpt lat="42.4691833" lon="-7.4765983"><ele>544.0</ele><time>2026-04-14T13:54:22.892Z</time></trkpt><trkpt lat="42.4692833" lon="-7.476535"><ele>544.0</ele><time>2026-04-14T13:54:23.892Z</time></trkpt><trkpt lat="42.4693733" lon="-7.4764617"><ele>544.0</ele><time>2026-04-14T13:54:24.892Z</time></trkpt><trkpt lat="42.46945" lon="-7.47636"><ele>544.0</ele><time>2026-04-14T13:54:25.891Z</time></trkpt><trkpt lat="42.4695133" lon="-7.4762367"><ele>544.0</ele><time>2026-04-14T13:54:26.891Z</time></trkpt><trkpt lat="42.46957" lon="-7.47611"><ele>544.0</ele><time>2026-04-14T13:54:27.892Z</time></trkpt><trkpt lat="42.4696367" lon="-7.4759633"><ele>544.0</ele><time>2026-04-14T13:54:28.891Z</time></trkpt><trkpt lat="42.4696983" lon="-7.47581"><ele>544.0</ele><time>2026-04-14T13:54:29.892Z</time></trkpt><trkpt lat="42.46976" lon="-7.4756583"><ele>541.25</ele><time>2026-04-14T13:54:30.892Z</time></trkpt><trkpt lat="42.4698267" lon="-7.4755183"><ele>538.5</ele><time>2026-04-14T13:54:31.893Z</time></trkpt><trkpt lat="42.469895" lon="-7.475385"><ele>535.75</ele><time>2026-04-14T13:54:32.893Z</time></trkpt><trkpt lat="42.4699683" lon="-7.47527"><ele>533.0</ele><time>2026-04-14T13:54:33.893Z</time></trkpt><trkpt lat="42.4700417" lon="-7.4751517"><ele>533.0</ele><time>2026-04-14T13:54:34.892Z</time></trkpt><trkpt lat="42.4701117" lon="-7.4750433"><ele>533.0</ele><time>2026-04-14T13:54:35.893Z</time></trkpt><trkpt lat="42.4701917" lon="-7.4749417"><ele>533.0</ele><time>2026-04-14T13:54:36.893Z</time></trkpt><trkpt lat="42.4702633" lon="-7.4748517"><ele>533.0</ele><time>2026-04-14T13:54:37.892Z</time></trkpt><trkpt lat="42.4703283" lon="-7.474765"><ele>533.0</ele><time>2026-04-14T13:54:38.893Z</time></trkpt><trkpt lat="42.47038" lon="-7.47467"><ele>532.8</ele><time>2026-04-14T13:54:39.892Z</time></trkpt><trkpt lat="42.4703617" lon="-7.474565"><ele>532.5999999999999</ele><time>2026-04-14T13:54:40.893Z</time></trkpt><trkpt lat="42.470345" lon="-7.474435"><ele>532.4000000000001</ele><time>2026-04-14T13:54:41.892Z</time></trkpt><trkpt lat="42.4703083" lon="-7.474295"><ele>532.2</ele><time>2026-04-14T13:54:42.893Z</time></trkpt><trkpt lat="42.4702517" lon="-7.4741583"><ele>532.0</ele><time>2026-04-14T13:54:43.892Z</time></trkpt><trkpt lat="42.4701883" lon="-7.4740183"><ele>532.0</ele><time>2026-04-14T13:54:44.892Z</time></trkpt><trkpt lat="42.4701167" lon="-7.47388"><ele>532.0</ele><time>2026-04-14T13:54:45.893Z</time></trkpt><trkpt lat="42.470035" lon="-7.473745"><ele>532.0</ele><time>2026-04-14T13:54:46.892Z</time></trkpt><trkpt lat="42.46996" lon="-7.4736217"><ele>532.0</ele><time>2026-04-14T13:54:47.893Z</time></trkpt><trkpt lat="42.469895" lon="-7.4734933"><ele>531.2</ele><time>2026-04-14T13:54:48.892Z</time></trkpt><trkpt lat="42.4698433" lon="-7.473365"><ele>530.4000000000001</ele><time>2026-04-14T13:54:49.892Z</time></trkpt><trkpt lat="42.4697967" lon="-7.473235"><ele>529.5999999999999</ele><time>2026-04-14T13:54:50.892Z</time></trkpt><trkpt lat="42.4697467" lon="-7.4730967"><ele>528.8</ele><time>2026-04-14T13:54:51.893Z</time></trkpt><trkpt lat="42.4697033" lon="-7.4729617"><ele>528.0</ele><time>2026-04-14T13:54:52.893Z</time></trkpt><trkpt lat="42.4696617" lon="-7.4728383"><ele>527.8</ele><time>2026-04-14T13:54:53.893Z</time></trkpt><trkpt lat="42.4696167" lon="-7.4727083"><ele>527.5999999999999</ele><time>2026-04-14T13:54:54.893Z</time></trkpt><trkpt lat="42.4695567" lon="-7.4725817"><ele>527.4000000000001</ele><time>2026-04-14T13:54:55.893Z</time></trkpt><trkpt lat="42.4695033" lon="-7.4724617"><ele>527.2</ele><time>2026-04-14T13:54:56.892Z</time></trkpt><trkpt lat="42.46945" lon="-7.4723317"><ele>527.0</ele><time>2026-04-14T13:54:57.892Z</time></trkpt><trkpt lat="42.469395" lon="-7.4721917"><ele>527.6</ele><time>2026-04-14T13:54:58.892Z</time></trkpt><trkpt lat="42.469345" lon="-7.4720517"><ele>528.2</ele><time>2026-04-14T13:54:59.892Z</time></trkpt><trkpt lat="42.4693017" lon="-7.4719133"><ele>528.8</ele><time>2026-04-14T13:55:00.893Z</time></trkpt><trkpt lat="42.4692533" lon="-7.4717983"><ele>529.4</ele><time>2026-04-14T13:55:01.892Z</time></trkpt><trkpt lat="42.4692017" lon="-7.4716683"><ele>530.0</ele><time>2026-04-14T13:55:02.892Z</time></trkpt><trkpt lat="42.4691483" lon="-7.4715417"><ele>530.0</ele><time>2026-04-14T13:55:03.892Z</time></trkpt><trkpt lat="42.4691" lon="-7.47142"><ele>530.0</ele><time>2026-04-14T13:55:04.893Z</time></trkpt><trkpt lat="42.4690583" lon="-7.4712833"><ele>530.0</ele><time>2026-04-14T13:55:05.892Z</time></trkpt><trkpt lat="42.46902" lon="-7.4711417"><ele>530.0</ele><time>2026-04-14T13:55:06.893Z</time></trkpt><trkpt lat="42.469" lon="-7.4709933"><ele>530.0</ele><time>2026-04-14T13:55:07.892Z</time></trkpt><trkpt lat="42.46899" lon="-7.4708517"><ele>529.2</ele><time>2026-04-14T13:55:08.893Z</time></trkpt><trkpt lat="42.46899" lon="-7.4707067"><ele>528.4</ele><time>2026-04-14T13:55:09.893Z</time></trkpt><trkpt lat="42.4690017" lon="-7.4705733"><ele>527.6</ele><time>2026-04-14T13:55:10.892Z</time></trkpt><trkpt lat="42.4690283" lon="-7.4704417"><ele>526.8</ele><time>2026-04-14T13:55:11.893Z</time></trkpt><trkpt lat="42.469065" lon="-7.4703133"><ele>526.0</ele><time>2026-04-14T13:55:12.893Z</time></trkpt><trkpt lat="42.46911" lon="-7.4701933"><ele>525.4</ele><time>2026-04-14T13:55:13.892Z</time></trkpt><trkpt lat="42.4691733" lon="-7.4700917"><ele>524.8</ele><time>2026-04-14T13:55:14.893Z</time></trkpt><trkpt lat="42.46923" lon="-7.4699867"><ele>524.1999999999999</ele><time>2026-04-14T13:55:15.892Z</time></trkpt><trkpt lat="42.4692733" lon="-7.46987"><ele>523.6</ele><time>2026-04-14T13:55:16.892Z</time></trkpt><trkpt lat="42.46931" lon="-7.4697467"><ele>523.0</ele><time>2026-04-14T13:55:17.893Z</time></trkpt><trkpt lat="42.4693283" lon="-7.469605"><ele>523.0</ele><time>2026-04-14T13:55:18.892Z</time></trkpt><trkpt lat="42.4693383" lon="-7.46946"><ele>523.0</ele><time>2026-04-14T13:55:19.892Z</time></trkpt><trkpt lat="42.4693533" lon="-7.469295"><ele>523.0</ele><time>2026-04-14T13:55:20.892Z</time></trkpt><trkpt lat="42.4693967" lon="-7.4691617"><ele>523.0</ele><time>2026-04-14T13:55:21.893Z</time></trkpt><trkpt lat="42.4694583" lon="-7.4690217"><ele>523.0</ele><time>2026-04-14T13:55:22.892Z</time></trkpt><trkpt lat="42.469535" lon="-7.4689067"><ele>523.0</ele><time>2026-04-14T13:55:23.892Z</time></trkpt><trkpt lat="42.4696267" lon="-7.4688033"><ele>523.0</ele><time>2026-04-14T13:55:24.892Z</time></trkpt><trkpt lat="42.469725" lon="-7.4687367"><ele>523.0</ele><time>2026-04-14T13:55:25.893Z</time></trkpt><trkpt lat="42.4698183" lon="-7.4686617"><ele>523.6</ele><time>2026-04-14T13:55:26.892Z</time></trkpt><trkpt lat="42.4699167" lon="-7.4685933"><ele>524.1999999999999</ele><time>2026-04-14T13:55:27.892Z</time></trkpt><trkpt lat="42.4700217" lon="-7.46852"><ele>524.8</ele><time>2026-04-14T13:55:28.892Z</time></trkpt><trkpt lat="42.4701283" lon="-7.4684417"><ele>525.4</ele><time>2026-04-14T13:55:29.892Z</time></trkpt><trkpt lat="42.4702133" lon="-7.4683783"><ele>526.0</ele><time>2026-04-14T13:55:30.892Z</time></trkpt><trkpt lat="42.470305" lon="-7.4682817"><ele>526.0</ele><time>2026-04-14T13:55:31.893Z</time></trkpt><trkpt lat="42.4703867" lon="-7.46818"><ele>526.0</ele><time>2026-04-14T13:55:32.892Z</time></trkpt><trkpt lat="42.47047" lon="-7.4680733"><ele>526.0</ele><time>2026-04-14T13:55:33.892Z</time></trkpt><trkpt lat="42.47054" lon="-7.4679533"><ele>526.0</ele><time>2026-04-14T13:55:34.893Z</time></trkpt><trkpt lat="42.4706033" lon="-7.4678267"><ele>526.4</ele><time>2026-04-14T13:55:35.893Z</time></trkpt><trkpt lat="42.470655" lon="-7.467715"><ele>526.8</ele><time>2026-04-14T13:55:36.892Z</time></trkpt><trkpt lat="42.470725" lon="-7.4676033"><ele>527.1999999999999</ele><time>2026-04-14T13:55:37.893Z</time></trkpt><trkpt lat="42.4707967" lon="-7.46751"><ele>527.6</ele><time>2026-04-14T13:55:38.892Z</time></trkpt><trkpt lat="42.470885" lon="-7.4674267"><ele>528.0</ele><time>2026-04-14T13:55:39.893Z</time></trkpt><trkpt lat="42.4709767" lon="-7.4673667"><ele>528.0</ele><time>2026-04-14T13:55:40.892Z</time></trkpt><trkpt lat="42.471075" lon="-7.46733"><ele>528.0</ele><time>2026-04-14T13:55:41.893Z</time></trkpt><trkpt lat="42.471195" lon="-7.4673"><ele>528.0</ele><time>2026-04-14T13:55:42.892Z</time></trkpt><trkpt lat="42.4713133" lon="-7.4672983"><ele>528.0</ele><time>2026-04-14T13:55:43.892Z</time></trkpt><trkpt lat="42.47143" lon="-7.467305"><ele>527.8</ele><time>2026-04-14T13:55:44.892Z</time></trkpt><trkpt lat="42.47155" lon="-7.4673017"><ele>527.5999999999999</ele><time>2026-04-14T13:55:45.892Z</time></trkpt><trkpt lat="42.4716617" lon="-7.4673217"><ele>527.4000000000001</ele><time>2026-04-14T13:55:46.893Z</time></trkpt><trkpt lat="42.4717633" lon="-7.46734"><ele>527.2</ele><time>2026-04-14T13:55:47.892Z</time></trkpt><trkpt lat="42.471865" lon="-7.4673317"><ele>527.0</ele><time>2026-04-14T13:55:48.892Z</time></trkpt><trkpt lat="42.471945" lon="-7.4672917"><ele>527.0</ele><time>2026-04-14T13:55:49.892Z</time></trkpt><trkpt lat="42.472015" lon="-7.4672083"><ele>527.0</ele><time>2026-04-14T13:55:50.892Z</time></trkpt><trkpt lat="42.4720617" lon="-7.46709"><ele>527.0</ele><time>2026-04-14T13:55:51.892Z</time></trkpt><trkpt lat="42.4720967" lon="-7.466955"><ele>527.0</ele><time>2026-04-14T13:55:52.892Z</time></trkpt><trkpt lat="42.4721333" lon="-7.466815"><ele>527.0</ele><time>2026-04-14T13:55:53.892Z</time></trkpt><trkpt lat="42.4721833" lon="-7.466675"><ele>527.5</ele><time>2026-04-14T13:55:54.893Z</time></trkpt><trkpt lat="42.472235" lon="-7.466525"><ele>528.0</ele><time>2026-04-14T13:55:55.892Z</time></trkpt><trkpt lat="42.4722867" lon="-7.4663783"><ele>528.5</ele><time>2026-04-14T13:55:56.893Z</time></trkpt><trkpt lat="42.4723367" lon="-7.4662317"><ele>529.0</ele><time>2026-04-14T13:55:57.893Z</time></trkpt><trkpt lat="42.472385" lon="-7.46608"><ele>529.0</ele><time>2026-04-14T13:55:58.892Z</time></trkpt><trkpt lat="42.472435" lon="-7.465945"><ele>529.0</ele><time>2026-04-14T13:55:59.892Z</time></trkpt><trkpt lat="42.47248" lon="-7.4658183"><ele>529.0</ele><time>2026-04-14T13:56:00.893Z</time></trkpt><trkpt lat="42.472525" lon="-7.4656867"><ele>529.0</ele><time>2026-04-14T13:56:01.892Z</time></trkpt><trkpt lat="42.4725767" lon="-7.4655583"><ele>529.0</ele><time>2026-04-14T13:56:02.892Z</time></trkpt><trkpt lat="42.4726183" lon="-7.4654317"><ele>529.0</ele><time>2026-04-14T13:56:03.893Z</time></trkpt><trkpt lat="42.4726617" lon="-7.4652967"><ele>529.0</ele><time>2026-04-14T13:56:04.893Z</time></trkpt><trkpt lat="42.472705" lon="-7.465165"><ele>529.0</ele><time>2026-04-14T13:56:05.892Z</time></trkpt><trkpt lat="42.4727517" lon="-7.4650317"><ele>529.0</ele><time>2026-04-14T13:56:06.892Z</time></trkpt><trkpt lat="42.4727917" lon="-7.4649033"><ele>529.0</ele><time>2026-04-14T13:56:07.892Z</time></trkpt><trkpt lat="42.4728267" lon="-7.4647783"><ele>529.0</ele><time>2026-04-14T13:56:08.893Z</time></trkpt><trkpt lat="42.4728683" lon="-7.4646533"><ele>529.0</ele><time>2026-04-14T13:56:09.893Z</time></trkpt><trkpt lat="42.4729033" lon="-7.46453"><ele>529.0</ele><time>2026-04-14T13:56:10.893Z</time></trkpt><trkpt lat="42.4729367" lon="-7.4644083"><ele>529.0</ele><time>2026-04-14T13:56:11.893Z</time></trkpt><trkpt lat="42.4729817" lon="-7.464295"><ele>529.0</ele><time>2026-04-14T13:56:12.893Z</time></trkpt><trkpt lat="42.4730517" lon="-7.464195"><ele>528.0</ele><time>2026-04-14T13:56:13.892Z</time></trkpt><trkpt lat="42.4731317" lon="-7.464125"><ele>527.0</ele><time>2026-04-14T13:56:14.892Z</time></trkpt><trkpt lat="42.4732183" lon="-7.4640783"><ele>526.0</ele><time>2026-04-14T13:56:15.893Z</time></trkpt><trkpt lat="42.4733183" lon="-7.4640517"><ele>525.0</ele><time>2026-04-14T13:56:16.892Z</time></trkpt><trkpt lat="42.4734183" lon="-7.464025"><ele>524.0</ele><time>2026-04-14T13:56:17.893Z</time></trkpt><trkpt lat="42.4735167" lon="-7.4639967"><ele>524.0</ele><time>2026-04-14T13:56:18.892Z</time></trkpt><trkpt lat="42.473615" lon="-7.4639733"><ele>524.0</ele><time>2026-04-14T13:56:19.893Z</time></trkpt><trkpt lat="42.47369" lon="-7.4639367"><ele>524.0</ele><time>2026-04-14T13:56:20.892Z</time></trkpt><trkpt lat="42.4737683" lon="-7.4638383"><ele>524.0</ele><time>2026-04-14T13:56:22.892Z</time></trkpt><trkpt lat="42.4737283" lon="-7.4637167"><ele>524.0</ele><time>2026-04-14T13:56:24.892Z</time></trkpt><trkpt lat="42.4736717" lon="-7.4636283"><ele>523.4</ele><time>2026-04-14T13:56:25.892Z</time></trkpt><trkpt lat="42.4736233" lon="-7.4635183"><ele>522.8</ele><time>2026-04-14T13:56:26.892Z</time></trkpt><trkpt lat="42.47361" lon="-7.46339"><ele>522.2</ele><time>2026-04-14T13:56:27.893Z</time></trkpt><trkpt lat="42.4736267" lon="-7.4632617"><ele>521.6</ele><time>2026-04-14T13:56:28.893Z</time></trkpt><trkpt lat="42.4736533" lon="-7.46313"><ele>521.0</ele><time>2026-04-14T13:56:29.893Z</time></trkpt><trkpt lat="42.4736867" lon="-7.462995"><ele>521.2</ele><time>2026-04-14T13:56:30.893Z</time></trkpt><trkpt lat="42.4737217" lon="-7.4628583"><ele>521.4000000000001</ele><time>2026-04-14T13:56:31.893Z</time></trkpt><trkpt lat="42.4737633" lon="-7.46272"><ele>521.6</ele><time>2026-04-14T13:56:32.893Z</time></trkpt><trkpt lat="42.4738033" lon="-7.4625833"><ele>521.8000000000001</ele><time>2026-04-14T13:56:33.892Z</time></trkpt><trkpt lat="42.473835" lon="-7.4624467"><ele>522.0</ele><time>2026-04-14T13:56:34.893Z</time></trkpt><trkpt lat="42.47387" lon="-7.462315"><ele>522.0</ele><time>2026-04-14T13:56:35.892Z</time></trkpt><trkpt lat="42.473905" lon="-7.4621767"><ele>522.0</ele><time>2026-04-14T13:56:36.892Z</time></trkpt><trkpt lat="42.4739433" lon="-7.46204"><ele>522.0</ele><time>2026-04-14T13:56:37.892Z</time></trkpt><trkpt lat="42.4739717" lon="-7.461905"><ele>522.0</ele><time>2026-04-14T13:56:38.892Z</time></trkpt><trkpt lat="42.4740033" lon="-7.4617683"><ele>522.0</ele><time>2026-04-14T13:56:39.892Z</time></trkpt><trkpt lat="42.4740383" lon="-7.4616383"><ele>522.6</ele><time>2026-04-14T13:56:40.893Z</time></trkpt><trkpt lat="42.4740767" lon="-7.4615033"><ele>523.2</ele><time>2026-04-14T13:56:41.892Z</time></trkpt><trkpt lat="42.47411" lon="-7.4613683"><ele>523.8</ele><time>2026-04-14T13:56:42.892Z</time></trkpt><trkpt lat="42.4741433" lon="-7.4612333"><ele>524.4</ele><time>2026-04-14T13:56:43.892Z</time></trkpt><trkpt lat="42.474175" lon="-7.461095"><ele>525.0</ele><time>2026-04-14T13:56:44.893Z</time></trkpt><trkpt lat="42.4742067" lon="-7.4609583"><ele>525.6</ele><time>2026-04-14T13:56:45.893Z</time></trkpt><trkpt lat="42.4742417" lon="-7.460825"><ele>526.2</ele><time>2026-04-14T13:56:46.893Z</time></trkpt><trkpt lat="42.474265" lon="-7.4606883"><ele>526.8</ele><time>2026-04-14T13:56:47.893Z</time></trkpt><trkpt lat="42.4742883" lon="-7.460545"><ele>527.4</ele><time>2026-04-14T13:56:48.893Z</time></trkpt><trkpt lat="42.474315" lon="-7.460405"><ele>528.0</ele><time>2026-04-14T13:56:49.892Z</time></trkpt><trkpt lat="42.47434" lon="-7.460265"><ele>528.0</ele><time>2026-04-14T13:56:50.892Z</time></trkpt><trkpt lat="42.4743667" lon="-7.4601233"><ele>528.0</ele><time>2026-04-14T13:56:51.892Z</time></trkpt><trkpt lat="42.47439" lon="-7.45998"><ele>528.0</ele><time>2026-04-14T13:56:52.893Z</time></trkpt><trkpt lat="42.4744067" lon="-7.4598417"><ele>528.0</ele><time>2026-04-14T13:56:53.892Z</time></trkpt><trkpt lat="42.4744267" lon="-7.4597"><ele>528.0</ele><time>2026-04-14T13:56:54.892Z</time></trkpt><trkpt lat="42.4744483" lon="-7.459555"><ele>528.0</ele><time>2026-04-14T13:56:55.893Z</time></trkpt><trkpt lat="42.4744633" lon="-7.459405"><ele>528.0</ele><time>2026-04-14T13:56:56.893Z</time></trkpt><trkpt lat="42.474465" lon="-7.45926"><ele>528.0</ele><time>2026-04-14T13:56:57.892Z</time></trkpt><trkpt lat="42.474455" lon="-7.45912"><ele>528.0</ele><time>2026-04-14T13:56:58.893Z</time></trkpt><trkpt lat="42.4744533" lon="-7.4589767"><ele>528.0</ele><time>2026-04-14T13:56:59.893Z</time></trkpt><trkpt lat="42.4744533" lon="-7.4588233"><ele>528.25</ele><time>2026-04-14T13:57:00.893Z</time></trkpt><trkpt lat="42.4744567" lon="-7.4586617"><ele>528.5</ele><time>2026-04-14T13:57:01.893Z</time></trkpt><trkpt lat="42.47446" lon="-7.4584983"><ele>528.75</ele><time>2026-04-14T13:57:02.892Z</time></trkpt><trkpt lat="42.47446" lon="-7.4583333"><ele>529.0</ele><time>2026-04-14T13:57:03.893Z</time></trkpt><trkpt lat="42.4744567" lon="-7.45818"><ele>529.0</ele><time>2026-04-14T13:57:04.893Z</time></trkpt><trkpt lat="42.47446" lon="-7.4580317"><ele>529.0</ele><time>2026-04-14T13:57:05.892Z</time></trkpt><trkpt lat="42.4744633" lon="-7.4578883"><ele>529.0</ele><time>2026-04-14T13:57:06.892Z</time></trkpt><trkpt lat="42.4744717" lon="-7.45774"><ele>529.0</ele><time>2026-04-14T13:57:07.892Z</time></trkpt><trkpt lat="42.4744783" lon="-7.4576033"><ele>529.0</ele><time>2026-04-14T13:57:08.892Z</time></trkpt><trkpt lat="42.4744833" lon="-7.4574617"><ele>528.8</ele><time>2026-04-14T13:57:09.892Z</time></trkpt><trkpt lat="42.4744883" lon="-7.4573167"><ele>528.5999999999999</ele><time>2026-04-14T13:57:10.892Z</time></trkpt><trkpt lat="42.4744967" lon="-7.4571683"><ele>528.4</ele><time>2026-04-14T13:57:11.892Z</time></trkpt><trkpt lat="42.4745067" lon="-7.4570133"><ele>528.1999999999999</ele><time>2026-04-14T13:57:12.893Z</time></trkpt><trkpt lat="42.47452" lon="-7.45687"><ele>528.0</ele><time>2026-04-14T13:57:13.892Z</time></trkpt><trkpt lat="42.4745417" lon="-7.4567267"><ele>526.5</ele><time>2026-04-14T13:57:14.892Z</time></trkpt><trkpt lat="42.4745733" lon="-7.4565767"><ele>525.0</ele><time>2026-04-14T13:57:15.892Z</time></trkpt><trkpt lat="42.47461" lon="-7.4564333"><ele>523.5</ele><time>2026-04-14T13:57:16.892Z</time></trkpt><trkpt lat="42.47465" lon="-7.4562917"><ele>522.0</ele><time>2026-04-14T13:57:17.892Z</time></trkpt><trkpt lat="42.4746883" lon="-7.45615"><ele>521.8000000000001</ele><time>2026-04-14T13:57:18.892Z</time></trkpt><trkpt lat="42.474725" lon="-7.4560083"><ele>521.6</ele><time>2026-04-14T13:57:19.892Z</time></trkpt><trkpt lat="42.4747467" lon="-7.45586"><ele>521.4000000000001</ele><time>2026-04-14T13:57:20.893Z</time></trkpt><trkpt lat="42.474755" lon="-7.4557133"><ele>521.2</ele><time>2026-04-14T13:57:21.893Z</time></trkpt><trkpt lat="42.4747567" lon="-7.4555717"><ele>521.0</ele><time>2026-04-14T13:57:22.892Z</time></trkpt><trkpt lat="42.4747567" lon="-7.45543"><ele>522.0</ele><time>2026-04-14T13:57:23.893Z</time></trkpt><trkpt lat="42.4747583" lon="-7.455285"><ele>523.0</ele><time>2026-04-14T13:57:24.893Z</time></trkpt><trkpt lat="42.474765" lon="-7.4551383"><ele>524.0</ele><time>2026-04-14T13:57:25.892Z</time></trkpt><trkpt lat="42.4747783" lon="-7.4549917"><ele>525.0</ele><time>2026-04-14T13:57:26.892Z</time></trkpt><trkpt lat="42.4748017" lon="-7.4548467"><ele>526.0</ele><time>2026-04-14T13:57:27.893Z</time></trkpt><trkpt lat="42.4748283" lon="-7.4547"><ele>527.25</ele><time>2026-04-14T13:57:28.892Z</time></trkpt><trkpt lat="42.4748633" lon="-7.4545483"><ele>528.5</ele><time>2026-04-14T13:57:29.893Z</time></trkpt><trkpt lat="42.4749" lon="-7.454395"><ele>529.75</ele><time>2026-04-14T13:57:30.893Z</time></trkpt><trkpt lat="42.4749417" lon="-7.4542483"><ele>531.0</ele><time>2026-04-14T13:57:31.893Z</time></trkpt><trkpt lat="42.4749833" lon="-7.4541117"><ele>531.0</ele><time>2026-04-14T13:57:32.892Z</time></trkpt><trkpt lat="42.4750267" lon="-7.45398"><ele>531.0</ele><time>2026-04-14T13:57:33.893Z</time></trkpt><trkpt lat="42.4750683" lon="-7.4538467"><ele>531.0</ele><time>2026-04-14T13:57:34.892Z</time></trkpt><trkpt lat="42.4751117" lon="-7.4537183"><ele>531.0</ele><time>2026-04-14T13:57:35.892Z</time></trkpt><trkpt lat="42.475165" lon="-7.4536183"><ele>531.0</ele><time>2026-04-14T13:57:36.892Z</time></trkpt><trkpt lat="42.4752233" lon="-7.4535333"><ele>531.1666666666666</ele><time>2026-04-14T13:57:37.892Z</time></trkpt><trkpt lat="42.4752767" lon="-7.4534517"><ele>531.3333333333334</ele><time>2026-04-14T13:57:38.892Z</time></trkpt><trkpt lat="42.47531" lon="-7.4533533"><ele>531.5</ele><time>2026-04-14T13:57:39.893Z</time></trkpt><trkpt lat="42.4753267" lon="-7.4532417"><ele>531.6666666666667</ele><time>2026-04-14T13:57:40.892Z</time></trkpt><trkpt lat="42.4753117" lon="-7.4531217"><ele>531.8333333333334</ele><time>2026-04-14T13:57:41.892Z</time></trkpt><trkpt lat="42.4752617" lon="-7.45302"><ele>532.0</ele><time>2026-04-14T13:57:42.893Z</time></trkpt><trkpt lat="42.4751933" lon="-7.45292"><ele>533.5</ele><time>2026-04-14T13:57:43.892Z</time></trkpt><trkpt lat="42.475115" lon="-7.4528217"><ele>535.0</ele><time>2026-04-14T13:57:44.893Z</time></trkpt><trkpt lat="42.4750317" lon="-7.4527117"><ele>536.5</ele><time>2026-04-14T13:57:45.893Z</time></trkpt><trkpt lat="42.474955" lon="-7.45259"><ele>538.0</ele><time>2026-04-14T13:57:46.893Z</time></trkpt><trkpt lat="42.474895" lon="-7.45246"><ele>538.0</ele><time>2026-04-14T13:57:47.892Z</time></trkpt><trkpt lat="42.4748517" lon="-7.4523183"><ele>538.0</ele><time>2026-04-14T13:57:48.893Z</time></trkpt><trkpt lat="42.4748217" lon="-7.4521767"><ele>538.0</ele><time>2026-04-14T13:57:49.893Z</time></trkpt><trkpt lat="42.4748017" lon="-7.4520333"><ele>538.0</ele><time>2026-04-14T13:57:50.892Z</time></trkpt><trkpt lat="42.4747883" lon="-7.4518833"><ele>538.0</ele><time>2026-04-14T13:57:51.893Z</time></trkpt><trkpt lat="42.4747867" lon="-7.4517367"><ele>538.8</ele><time>2026-04-14T13:57:52.892Z</time></trkpt><trkpt lat="42.474795" lon="-7.4515917"><ele>539.5999999999999</ele><time>2026-04-14T13:57:53.892Z</time></trkpt><trkpt lat="42.4748083" lon="-7.45144"><ele>540.4000000000001</ele><time>2026-04-14T13:57:54.892Z</time></trkpt><trkpt lat="42.4748283" lon="-7.4512817"><ele>541.2</ele><time>2026-04-14T13:57:55.892Z</time></trkpt><trkpt lat="42.4748533" lon="-7.4511367"><ele>542.0</ele><time>2026-04-14T13:57:56.893Z</time></trkpt><trkpt lat="42.4748817" lon="-7.450985"><ele>542.4</ele><time>2026-04-14T13:57:57.892Z</time></trkpt><trkpt lat="42.474905" lon="-7.4508367"><ele>542.8000000000001</ele><time>2026-04-14T13:57:58.892Z</time></trkpt><trkpt lat="42.47492" lon="-7.450685"><ele>543.2</ele><time>2026-04-14T13:57:59.892Z</time></trkpt><trkpt lat="42.47493" lon="-7.4505367"><ele>543.6</ele><time>2026-04-14T13:58:00.893Z</time></trkpt><trkpt lat="42.4749417" lon="-7.4503817"><ele>544.0</ele><time>2026-04-14T13:58:01.892Z</time></trkpt><trkpt lat="42.474945" lon="-7.450225"><ele>545.0</ele><time>2026-04-14T13:58:02.893Z</time></trkpt><trkpt lat="42.4749367" lon="-7.4500717"><ele>546.0</ele><time>2026-04-14T13:58:03.893Z</time></trkpt><trkpt lat="42.47492" lon="-7.4499333"><ele>547.0</ele><time>2026-04-14T13:58:04.892Z</time></trkpt><trkpt lat="42.474905" lon="-7.44979"><ele>548.0</ele><time>2026-04-14T13:58:05.892Z</time></trkpt><trkpt lat="42.4748917" lon="-7.4496533"><ele>549.0</ele><time>2026-04-14T13:58:06.892Z</time></trkpt><trkpt lat="42.4748683" lon="-7.4495217"><ele>549.6</ele><time>2026-04-14T13:58:07.892Z</time></trkpt><trkpt lat="42.4748167" lon="-7.4493917"><ele>550.2</ele><time>2026-04-14T13:58:08.892Z</time></trkpt><trkpt lat="42.4747617" lon="-7.4492683"><ele>550.8000000000001</ele><time>2026-04-14T13:58:09.892Z</time></trkpt><trkpt lat="42.474715" lon="-7.4491333"><ele>551.4</ele><time>2026-04-14T13:58:10.892Z</time></trkpt><trkpt lat="42.4746733" lon="-7.448995"><ele>552.0</ele><time>2026-04-14T13:58:11.892Z</time></trkpt><trkpt lat="42.474635" lon="-7.4488583"><ele>551.0</ele><time>2026-04-14T13:58:12.893Z</time></trkpt><trkpt lat="42.4745933" lon="-7.448725"><ele>550.0</ele><time>2026-04-14T13:58:13.892Z</time></trkpt><trkpt lat="42.4745467" lon="-7.4485933"><ele>549.0</ele><time>2026-04-14T13:58:14.892Z</time></trkpt><trkpt lat="42.4744983" lon="-7.4484633"><ele>548.0</ele><time>2026-04-14T13:58:15.892Z</time></trkpt><trkpt lat="42.4744483" lon="-7.4483433"><ele>547.0</ele><time>2026-04-14T13:58:16.893Z</time></trkpt><trkpt lat="42.4743983" lon="-7.448225"><ele>547.0</ele><time>2026-04-14T13:58:17.893Z</time></trkpt><trkpt lat="42.4743567" lon="-7.4481"><ele>547.0</ele><time>2026-04-14T13:58:18.892Z</time></trkpt><trkpt lat="42.4743167" lon="-7.4479767"><ele>547.0</ele><time>2026-04-14T13:58:19.892Z</time></trkpt><trkpt lat="42.474275" lon="-7.4478567"><ele>547.0</ele><time>2026-04-14T13:58:20.893Z</time></trkpt><trkpt lat="42.47423" lon="-7.4477317"><ele>547.0</ele><time>2026-04-14T13:58:21.893Z</time></trkpt><trkpt lat="42.4741883" lon="-7.4476067"><ele>547.6</ele><time>2026-04-14T13:58:22.892Z</time></trkpt><trkpt lat="42.4741467" lon="-7.4474833"><ele>548.2</ele><time>2026-04-14T13:58:23.892Z</time></trkpt><trkpt lat="42.4740967" lon="-7.447365"><ele>548.8</ele><time>2026-04-14T13:58:24.893Z</time></trkpt><trkpt lat="42.47403" lon="-7.4472333"><ele>549.4</ele><time>2026-04-14T13:58:25.893Z</time></trkpt><trkpt lat="42.4739833" lon="-7.4470933"><ele>550.0</ele><time>2026-04-14T13:58:26.892Z</time></trkpt><trkpt lat="42.4739267" lon="-7.446945"><ele>551.0</ele><time>2026-04-14T13:58:27.893Z</time></trkpt><trkpt lat="42.47387" lon="-7.4468"><ele>552.0</ele><time>2026-04-14T13:58:28.892Z</time></trkpt><trkpt lat="42.4738133" lon="-7.4466617"><ele>553.0</ele><time>2026-04-14T13:58:29.892Z</time></trkpt><trkpt lat="42.47377" lon="-7.44652"><ele>554.0</ele><time>2026-04-14T13:58:30.892Z</time></trkpt><trkpt lat="42.4737183" lon="-7.4463867"><ele>553.0</ele><time>2026-04-14T13:58:31.892Z</time></trkpt><trkpt lat="42.4736567" lon="-7.4462483"><ele>552.0</ele><time>2026-04-14T13:58:32.893Z</time></trkpt><trkpt lat="42.4735967" lon="-7.4461117"><ele>551.0</ele><time>2026-04-14T13:58:33.892Z</time></trkpt><trkpt lat="42.473535" lon="-7.44598"><ele>550.0</ele><time>2026-04-14T13:58:34.893Z</time></trkpt><trkpt lat="42.4734683" lon="-7.44585"><ele>550.0</ele><time>2026-04-14T13:58:35.892Z</time></trkpt><trkpt lat="42.4733933" lon="-7.4457333"><ele>550.0</ele><time>2026-04-14T13:58:36.892Z</time></trkpt><trkpt lat="42.4733117" lon="-7.4456183"><ele>550.0</ele><time>2026-04-14T13:58:37.892Z</time></trkpt><trkpt lat="42.4732333" lon="-7.44549"><ele>550.0</ele><time>2026-04-14T13:58:38.893Z</time></trkpt><trkpt lat="42.4731483" lon="-7.4453883"><ele>549.25</ele><time>2026-04-14T13:58:39.892Z</time></trkpt><trkpt lat="42.4730783" lon="-7.4452667"><ele>548.5</ele><time>2026-04-14T13:58:40.892Z</time></trkpt><trkpt lat="42.4730067" lon="-7.4451483"><ele>547.75</ele><time>2026-04-14T13:58:41.892Z</time></trkpt><trkpt lat="42.4729367" lon="-7.44503"><ele>547.0</ele><time>2026-04-14T13:58:42.893Z</time></trkpt><trkpt lat="42.4728667" lon="-7.4449117"><ele>547.0</ele><time>2026-04-14T13:58:43.892Z</time></trkpt><trkpt lat="42.4728" lon="-7.44479"><ele>547.0</ele><time>2026-04-14T13:58:44.893Z</time></trkpt><trkpt lat="42.4727317" lon="-7.4446717"><ele>547.0</ele><time>2026-04-14T13:58:45.893Z</time></trkpt><trkpt lat="42.4726617" lon="-7.444555"><ele>547.0</ele><time>2026-04-14T13:58:46.893Z</time></trkpt><trkpt lat="42.4725883" lon="-7.44444"><ele>547.0</ele><time>2026-04-14T13:58:47.892Z</time></trkpt><trkpt lat="42.4725083" lon="-7.444325"><ele>549.25</ele><time>2026-04-14T13:58:48.892Z</time></trkpt><trkpt lat="42.472435" lon="-7.444215"><ele>551.5</ele><time>2026-04-14T13:58:49.893Z</time></trkpt><trkpt lat="42.472365" lon="-7.444095"><ele>553.75</ele><time>2026-04-14T13:58:50.893Z</time></trkpt><trkpt lat="42.4722933" lon="-7.4439783"><ele>556.0</ele><time>2026-04-14T13:58:51.892Z</time></trkpt><trkpt lat="42.4722167" lon="-7.4438533"><ele>555.0</ele><time>2026-04-14T13:58:52.893Z</time></trkpt><trkpt lat="42.4721383" lon="-7.4437367"><ele>554.0</ele><time>2026-04-14T13:58:53.892Z</time></trkpt><trkpt lat="42.4720617" lon="-7.44362"><ele>553.0</ele><time>2026-04-14T13:58:54.893Z</time></trkpt><trkpt lat="42.4719983" lon="-7.4434883"><ele>552.0</ele><time>2026-04-14T13:58:55.892Z</time></trkpt><trkpt lat="42.471935" lon="-7.4433483"><ele>552.0</ele><time>2026-04-14T13:58:56.892Z</time></trkpt><trkpt lat="42.4718767" lon="-7.44321"><ele>552.0</ele><time>2026-04-14T13:58:57.893Z</time></trkpt><trkpt lat="42.47182" lon="-7.4430667"><ele>552.0</ele><time>2026-04-14T13:58:58.892Z</time></trkpt><trkpt lat="42.47177" lon="-7.4429233"><ele>552.0</ele><time>2026-04-14T13:58:59.893Z</time></trkpt><trkpt lat="42.4717333" lon="-7.4427767"><ele>553.2</ele><time>2026-04-14T13:59:00.893Z</time></trkpt><trkpt lat="42.4717" lon="-7.4426233"><ele>554.4000000000001</ele><time>2026-04-14T13:59:01.892Z</time></trkpt><trkpt lat="42.4716783" lon="-7.4424783"><ele>555.5999999999999</ele><time>2026-04-14T13:59:02.892Z</time></trkpt><trkpt lat="42.4716583" lon="-7.4423333"><ele>556.8</ele><time>2026-04-14T13:59:03.893Z</time></trkpt><trkpt lat="42.47163" lon="-7.4421883"><ele>558.0</ele><time>2026-04-14T13:59:04.893Z</time></trkpt><trkpt lat="42.4715883" lon="-7.442045"><ele>558.25</ele><time>2026-04-14T13:59:05.892Z</time></trkpt><trkpt lat="42.4715417" lon="-7.4419083"><ele>558.5</ele><time>2026-04-14T13:59:06.893Z</time></trkpt><trkpt lat="42.4714833" lon="-7.4417733"><ele>558.75</ele><time>2026-04-14T13:59:07.892Z</time></trkpt><trkpt lat="42.471415" lon="-7.4416517"><ele>559.0</ele><time>2026-04-14T13:59:08.893Z</time></trkpt><trkpt lat="42.4713367" lon="-7.4415383"><ele>558.75</ele><time>2026-04-14T13:59:09.892Z</time></trkpt><trkpt lat="42.4712483" lon="-7.44143"><ele>558.5</ele><time>2026-04-14T13:59:10.893Z</time></trkpt><trkpt lat="42.4711583" lon="-7.4413267"><ele>558.25</ele><time>2026-04-14T13:59:11.892Z</time></trkpt><trkpt lat="42.471055" lon="-7.4412367"><ele>558.0</ele><time>2026-04-14T13:59:12.892Z</time></trkpt><trkpt lat="42.47095" lon="-7.44115"><ele>558.0</ele><time>2026-04-14T13:59:13.892Z</time></trkpt><trkpt lat="42.47084" lon="-7.4410717"><ele>558.0</ele><time>2026-04-14T13:59:14.893Z</time></trkpt><trkpt lat="42.470735" lon="-7.4409983"><ele>558.0</ele><time>2026-04-14T13:59:15.892Z</time></trkpt><trkpt lat="42.4706317" lon="-7.44093"><ele>558.0</ele><time>2026-04-14T13:59:16.892Z</time></trkpt><trkpt lat="42.470525" lon="-7.4408567"><ele>558.0</ele><time>2026-04-14T13:59:17.892Z</time></trkpt><trkpt lat="42.4704167" lon="-7.4407833"><ele>558.0</ele><time>2026-04-14T13:59:18.893Z</time></trkpt><trkpt lat="42.470315" lon="-7.440715"><ele>558.0</ele><time>2026-04-14T13:59:19.892Z</time></trkpt><trkpt lat="42.47021" lon="-7.4406417"><ele>558.0</ele><time>2026-04-14T13:59:20.892Z</time></trkpt><trkpt lat="42.47011" lon="-7.440575"><ele>558.0</ele><time>2026-04-14T13:59:21.893Z</time></trkpt><trkpt lat="42.4700067" lon="-7.4405"><ele>558.0</ele><time>2026-04-14T13:59:22.893Z</time></trkpt><trkpt lat="42.46991" lon="-7.4404267"><ele>558.0</ele><time>2026-04-14T13:59:23.893Z</time></trkpt><trkpt lat="42.4698217" lon="-7.44034"><ele>558.0</ele><time>2026-04-14T13:59:24.892Z</time></trkpt><trkpt lat="42.4697367" lon="-7.440245"><ele>558.0</ele><time>2026-04-14T13:59:25.893Z</time></trkpt><trkpt lat="42.4696533" lon="-7.4401383"><ele>558.75</ele><time>2026-04-14T13:59:26.893Z</time></trkpt><trkpt lat="42.469575" lon="-7.4400267"><ele>559.5</ele><time>2026-04-14T13:59:27.892Z</time></trkpt><trkpt lat="42.469505" lon="-7.4399033"><ele>560.25</ele><time>2026-04-14T13:59:28.893Z</time></trkpt><trkpt lat="42.4694417" lon="-7.439775"><ele>561.0</ele><time>2026-04-14T13:59:29.892Z</time></trkpt><trkpt lat="42.4693883" lon="-7.4396383"><ele>563.0</ele><time>2026-04-14T13:59:30.892Z</time></trkpt><trkpt lat="42.4693417" lon="-7.4394917"><ele>565.0</ele><time>2026-04-14T13:59:31.893Z</time></trkpt><trkpt lat="42.4692983" lon="-7.4393483"><ele>567.0</ele><time>2026-04-14T13:59:32.892Z</time></trkpt><trkpt lat="42.4692667" lon="-7.4391983"><ele>569.0</ele><time>2026-04-14T13:59:33.892Z</time></trkpt><trkpt lat="42.4692283" lon="-7.43905"><ele>569.0</ele><time>2026-04-14T13:59:34.893Z</time></trkpt><trkpt lat="42.4691867" lon="-7.438905"><ele>569.0</ele><time>2026-04-14T13:59:35.892Z</time></trkpt><trkpt lat="42.4691483" lon="-7.4387617"><ele>569.0</ele><time>2026-04-14T13:59:36.893Z</time></trkpt><trkpt lat="42.4691" lon="-7.4386183"><ele>569.0</ele><time>2026-04-14T13:59:37.892Z</time></trkpt><trkpt lat="42.4690517" lon="-7.4384917"><ele>569.0</ele><time>2026-04-14T13:59:38.893Z</time></trkpt><trkpt lat="42.4690017" lon="-7.4383717"><ele>570.2</ele><time>2026-04-14T13:59:39.892Z</time></trkpt><trkpt lat="42.4689517" lon="-7.4382467"><ele>571.4</ele><time>2026-04-14T13:59:40.892Z</time></trkpt><trkpt lat="42.4689017" lon="-7.4381217"><ele>572.6</ele><time>2026-04-14T13:59:41.892Z</time></trkpt><trkpt lat="42.4688533" lon="-7.43799"><ele>573.8</ele><time>2026-04-14T13:59:42.893Z</time></trkpt><trkpt lat="42.468795" lon="-7.4378533"><ele>575.0</ele><time>2026-04-14T13:59:43.892Z</time></trkpt><trkpt lat="42.4687233" lon="-7.4377183"><ele>575.0</ele><time>2026-04-14T13:59:44.892Z</time></trkpt><trkpt lat="42.4686533" lon="-7.4375933"><ele>575.0</ele><time>2026-04-14T13:59:45.892Z</time></trkpt><trkpt lat="42.4685983" lon="-7.437465"><ele>575.0</ele><time>2026-04-14T13:59:46.892Z</time></trkpt><trkpt lat="42.4685433" lon="-7.43733"><ele>575.0</ele><time>2026-04-14T13:59:47.892Z</time></trkpt><trkpt lat="42.468485" lon="-7.4371983"><ele>576.8</ele><time>2026-04-14T13:59:48.892Z</time></trkpt><trkpt lat="42.4684283" lon="-7.43707"><ele>578.6</ele><time>2026-04-14T13:59:49.892Z</time></trkpt><trkpt lat="42.468375" lon="-7.4369533"><ele>580.4</ele><time>2026-04-14T13:59:50.893Z</time></trkpt><trkpt lat="42.468325" lon="-7.43684"><ele>582.2</ele><time>2026-04-14T13:59:51.892Z</time></trkpt><trkpt lat="42.4682783" lon="-7.4367217"><ele>584.0</ele><time>2026-04-14T13:59:52.893Z</time></trkpt><trkpt lat="42.46824" lon="-7.4365967"><ele>584.0</ele><time>2026-04-14T13:59:53.892Z</time></trkpt><trkpt lat="42.46821" lon="-7.436455"><ele>584.0</ele><time>2026-04-14T13:59:54.893Z</time></trkpt><trkpt lat="42.46819" lon="-7.43631"><ele>584.0</ele><time>2026-04-14T13:59:55.892Z</time></trkpt><trkpt lat="42.4681817" lon="-7.4361633"><ele>584.0</ele><time>2026-04-14T13:59:56.892Z</time></trkpt><trkpt lat="42.4681833" lon="-7.4360217"><ele>584.0</ele><time>2026-04-14T13:59:57.892Z</time></trkpt><trkpt lat="42.4681833" lon="-7.4358883"><ele>584.0</ele><time>2026-04-14T13:59:58.893Z</time></trkpt><trkpt lat="42.4681917" lon="-7.4357683"><ele>584.0</ele><time>2026-04-14T13:59:59.893Z</time></trkpt><trkpt lat="42.4682117" lon="-7.435665"><ele>584.0</ele><time>2026-04-14T14:00:00.892Z</time></trkpt><trkpt lat="42.4682467" lon="-7.4355567"><ele>584.0</ele><time>2026-04-14T14:00:01.892Z</time></trkpt><trkpt lat="42.4682767" lon="-7.435445"><ele>584.0</ele><time>2026-04-14T14:00:02.893Z</time></trkpt><trkpt lat="42.468295" lon="-7.4353317"><ele>584.0</ele><time>2026-04-14T14:00:03.893Z</time></trkpt><trkpt lat="42.468305" lon="-7.4352133"><ele>582.4</ele><time>2026-04-14T14:00:04.893Z</time></trkpt><trkpt lat="42.468305" lon="-7.4350883"><ele>580.8</ele><time>2026-04-14T14:00:05.893Z</time></trkpt><trkpt lat="42.468305" lon="-7.4349617"><ele>579.2</ele><time>2026-04-14T14:00:06.892Z</time></trkpt><trkpt lat="42.4682983" lon="-7.4348333"><ele>577.6</ele><time>2026-04-14T14:00:07.892Z</time></trkpt><trkpt lat="42.4683033" lon="-7.434715"><ele>576.0</ele><time>2026-04-14T14:00:08.892Z</time></trkpt><trkpt lat="42.4683" lon="-7.4345867"><ele>574.5</ele><time>2026-04-14T14:00:09.893Z</time></trkpt><trkpt lat="42.4683017" lon="-7.4344733"><ele>573.0</ele><time>2026-04-14T14:00:10.892Z</time></trkpt><trkpt lat="42.468305" lon="-7.4343717"><ele>571.5</ele><time>2026-04-14T14:00:11.892Z</time></trkpt><trkpt lat="42.4683117" lon="-7.434275"><ele>570.0</ele><time>2026-04-14T14:00:12.892Z</time></trkpt><trkpt lat="42.4683217" lon="-7.4341867"><ele>568.5</ele><time>2026-04-14T14:00:13.893Z</time></trkpt><trkpt lat="42.4683467" lon="-7.4340283"><ele>567.0</ele><time>2026-04-14T14:00:15.893Z</time></trkpt><trkpt lat="42.4683667" lon="-7.433885"><ele>566.2</ele><time>2026-04-14T14:00:17.893Z</time></trkpt><trkpt lat="42.4683833" lon="-7.433745"><ele>565.4000000000001</ele><time>2026-04-14T14:00:19.892Z</time></trkpt><trkpt lat="42.4683983" lon="-7.4336117"><ele>564.5999999999999</ele><time>2026-04-14T14:00:21.893Z</time></trkpt><trkpt lat="42.468425" lon="-7.433475"><ele>563.8</ele><time>2026-04-14T14:00:23.893Z</time></trkpt><trkpt lat="42.4684433" lon="-7.4333317"><ele>563.0</ele><time>2026-04-14T14:00:25.892Z</time></trkpt><trkpt lat="42.4684717" lon="-7.4332017"><ele>563.0</ele><time>2026-04-14T14:00:27.892Z</time></trkpt><trkpt lat="42.4685017" lon="-7.4330583"><ele>563.0</ele><time>2026-04-14T14:00:29.893Z</time></trkpt><trkpt lat="42.4685233" lon="-7.4329217"><ele>563.0</ele><time>2026-04-14T14:00:31.893Z</time></trkpt><trkpt lat="42.468555" lon="-7.4328033"><ele>563.0</ele><time>2026-04-14T14:00:33.893Z</time></trkpt><trkpt lat="42.4686167" lon="-7.4327"><ele>563.0</ele><time>2026-04-14T14:00:35.893Z</time></trkpt><trkpt lat="42.4686917" lon="-7.4326467"><ele>562.6</ele><time>2026-04-14T14:00:37.893Z</time></trkpt><trkpt lat="42.468755" lon="-7.4325767"><ele>562.1999999999999</ele><time>2026-04-14T14:00:39.892Z</time></trkpt><trkpt lat="42.4688467" lon="-7.4325667"><ele>561.8</ele><time>2026-04-14T14:00:42.892Z</time></trkpt><trkpt lat="42.468935" lon="-7.432615"><ele>561.4</ele><time>2026-04-14T14:00:44.892Z</time></trkpt><trkpt lat="42.4690233" lon="-7.4326833"><ele>561.0</ele><time>2026-04-14T14:00:46.892Z</time></trkpt><trkpt lat="42.4691083" lon="-7.432705"><ele>560.5</ele><time>2026-04-14T14:00:48.893Z</time></trkpt><trkpt lat="42.4692033" lon="-7.4327133"><ele>560.0</ele><time>2026-04-14T14:00:50.892Z</time></trkpt><trkpt lat="42.4692983" lon="-7.4327617"><ele>559.5</ele><time>2026-04-14T14:00:52.893Z</time></trkpt><trkpt lat="42.46937" lon="-7.4328"><ele>559.0</ele><time>2026-04-14T14:00:54.892Z</time></trkpt><trkpt lat="42.4694633" lon="-7.4328317"><ele>558.5</ele><time>2026-04-14T14:00:56.892Z</time></trkpt><trkpt lat="42.4695333" lon="-7.432865"><ele>558.0</ele><time>2026-04-14T14:00:58.892Z</time></trkpt><trkpt lat="42.469625" lon="-7.43291"><ele>557.1999999999999</ele><time>2026-04-14T14:01:00.893Z</time></trkpt><trkpt lat="42.46973" lon="-7.4329267"><ele>556.4</ele><time>2026-04-14T14:01:02.893Z</time></trkpt><trkpt lat="42.469815" lon="-7.43293"><ele>555.5999999999999</ele><time>2026-04-14T14:01:04.893Z</time></trkpt><trkpt lat="42.4699" lon="-7.432955"><ele>554.8</ele><time>2026-04-14T14:01:06.893Z</time></trkpt><trkpt lat="42.4700017" lon="-7.4329967"><ele>554.0</ele><time>2026-04-14T14:01:08.893Z</time></trkpt><trkpt lat="42.470115" lon="-7.43303"><ele>555.5</ele><time>2026-04-14T14:01:10.892Z</time></trkpt><trkpt lat="42.47018" lon="-7.4330583"><ele>557.0</ele><time>2026-04-14T14:01:11.892Z</time></trkpt><trkpt lat="42.470245" lon="-7.4330817"><ele>558.5</ele><time>2026-04-14T14:01:12.893Z</time></trkpt><trkpt lat="42.4703167" lon="-7.4331217"><ele>560.0</ele><time>2026-04-14T14:01:13.892Z</time></trkpt><trkpt lat="42.4703983" lon="-7.43316"><ele>561.5</ele><time>2026-04-14T14:01:14.893Z</time></trkpt><trkpt lat="42.4704817" lon="-7.4331967"><ele>563.0</ele><time>2026-04-14T14:01:15.892Z</time></trkpt><trkpt lat="42.4705667" lon="-7.4332383"><ele>563.0</ele><time>2026-04-14T14:01:16.892Z</time></trkpt><trkpt lat="42.4706467" lon="-7.4332883"><ele>563.0</ele><time>2026-04-14T14:01:17.893Z</time></trkpt><trkpt lat="42.4707233" lon="-7.4333367"><ele>563.0</ele><time>2026-04-14T14:01:18.893Z</time></trkpt><trkpt lat="42.4708067" lon="-7.433375"><ele>563.0</ele><time>2026-04-14T14:01:19.893Z</time></trkpt><trkpt lat="42.4708817" lon="-7.4334017"><ele>563.0</ele><time>2026-04-14T14:01:20.893Z</time></trkpt><trkpt lat="42.4709633" lon="-7.4334017"><ele>563.0</ele><time>2026-04-14T14:01:21.892Z</time></trkpt><trkpt lat="42.4710533" lon="-7.4333917"><ele>563.0</ele><time>2026-04-14T14:01:22.892Z</time></trkpt><trkpt lat="42.4711617" lon="-7.43337"><ele>563.0</ele><time>2026-04-14T14:01:23.892Z</time></trkpt><trkpt lat="42.4712717" lon="-7.4333583"><ele>563.0</ele><time>2026-04-14T14:01:24.893Z</time></trkpt><trkpt lat="42.4713783" lon="-7.433355"><ele>563.0</ele><time>2026-04-14T14:01:25.893Z</time></trkpt><trkpt lat="42.4714783" lon="-7.433375"><ele>563.0</ele><time>2026-04-14T14:01:26.892Z</time></trkpt><trkpt lat="42.4715783" lon="-7.433415"><ele>561.8</ele><time>2026-04-14T14:01:27.892Z</time></trkpt><trkpt lat="42.471675" lon="-7.4334717"><ele>560.5999999999999</ele><time>2026-04-14T14:01:28.892Z</time></trkpt><trkpt lat="42.47177" lon="-7.4335267"><ele>559.4000000000001</ele><time>2026-04-14T14:01:29.892Z</time></trkpt><trkpt lat="42.4718667" lon="-7.4335817"><ele>558.2</ele><time>2026-04-14T14:01:30.893Z</time></trkpt><trkpt lat="42.4719667" lon="-7.4336367"><ele>557.0</ele><time>2026-04-14T14:01:31.893Z</time></trkpt><trkpt lat="42.4720683" lon="-7.4337"><ele>556.8000000000001</ele><time>2026-04-14T14:01:32.892Z</time></trkpt><trkpt lat="42.472165" lon="-7.4337583"><ele>556.6</ele><time>2026-04-14T14:01:33.893Z</time></trkpt><trkpt lat="42.47226" lon="-7.4338217"><ele>556.4000000000001</ele><time>2026-04-14T14:01:34.893Z</time></trkpt><trkpt lat="42.4723633" lon="-7.43388"><ele>556.2</ele><time>2026-04-14T14:01:35.892Z</time></trkpt><trkpt lat="42.4724733" lon="-7.4339383"><ele>556.0</ele><time>2026-04-14T14:01:36.893Z</time></trkpt><trkpt lat="42.4725817" lon="-7.43399"><ele>556.0</ele><time>2026-04-14T14:01:37.893Z</time></trkpt><trkpt lat="42.4726783" lon="-7.4340317"><ele>556.0</ele><time>2026-04-14T14:01:38.893Z</time></trkpt><trkpt lat="42.4727733" lon="-7.434085"><ele>556.0</ele><time>2026-04-14T14:01:39.893Z</time></trkpt><trkpt lat="42.47287" lon="-7.4341417"><ele>556.0</ele><time>2026-04-14T14:01:40.892Z</time></trkpt><trkpt lat="42.47297" lon="-7.43419"><ele>556.0</ele><time>2026-04-14T14:01:41.892Z</time></trkpt><trkpt lat="42.4730683" lon="-7.4342267"><ele>554.4</ele><time>2026-04-14T14:01:42.892Z</time></trkpt><trkpt lat="42.473165" lon="-7.4342417"><ele>552.8</ele><time>2026-04-14T14:01:43.892Z</time></trkpt><trkpt lat="42.4732567" lon="-7.4342317"><ele>551.1999999999999</ele><time>2026-04-14T14:01:44.892Z</time></trkpt><trkpt lat="42.47335" lon="-7.4341967"><ele>549.6</ele><time>2026-04-14T14:01:45.892Z</time></trkpt><trkpt lat="42.473445" lon="-7.43416"><ele>548.0</ele><time>2026-04-14T14:01:46.892Z</time></trkpt><trkpt lat="42.4735417" lon="-7.43413"><ele>548.0</ele><time>2026-04-14T14:01:47.892Z</time></trkpt><trkpt lat="42.47364" lon="-7.4341233"><ele>548.0</ele><time>2026-04-14T14:01:48.893Z</time></trkpt><trkpt lat="42.4737433" lon="-7.4341367"><ele>548.0</ele><time>2026-04-14T14:01:49.892Z</time></trkpt><trkpt lat="42.4738517" lon="-7.4341617"><ele>548.0</ele><time>2026-04-14T14:01:50.892Z</time></trkpt><trkpt lat="42.4739683" lon="-7.4341917"><ele>548.0</ele><time>2026-04-14T14:01:51.893Z</time></trkpt><trkpt lat="42.4740767" lon="-7.434245"><ele>546.0</ele><time>2026-04-14T14:01:52.893Z</time></trkpt><trkpt lat="42.4741767" lon="-7.4342967"><ele>544.0</ele><time>2026-04-14T14:01:53.892Z</time></trkpt><trkpt lat="42.4742767" lon="-7.434365"><ele>542.0</ele><time>2026-04-14T14:01:54.892Z</time></trkpt><trkpt lat="42.4743767" lon="-7.434435"><ele>540.0</ele><time>2026-04-14T14:01:55.893Z</time></trkpt><trkpt lat="42.4744717" lon="-7.4344983"><ele>538.0</ele><time>2026-04-14T14:01:56.893Z</time></trkpt><trkpt lat="42.474565" lon="-7.434555"><ele>536.8</ele><time>2026-04-14T14:01:57.892Z</time></trkpt><trkpt lat="42.4746683" lon="-7.4346033"><ele>535.5999999999999</ele><time>2026-04-14T14:01:58.893Z</time></trkpt><trkpt lat="42.4747683" lon="-7.4346517"><ele>534.4000000000001</ele><time>2026-04-14T14:01:59.893Z</time></trkpt><trkpt lat="42.474865" lon="-7.4347083"><ele>533.2</ele><time>2026-04-14T14:02:00.893Z</time></trkpt><trkpt lat="42.4749583" lon="-7.43477"><ele>532.0</ele><time>2026-04-14T14:02:01.893Z</time></trkpt><trkpt lat="42.4750417" lon="-7.434845"><ele>532.0</ele><time>2026-04-14T14:02:02.892Z</time></trkpt><trkpt lat="42.47513" lon="-7.43494"><ele>532.0</ele><time>2026-04-14T14:02:03.893Z</time></trkpt><trkpt lat="42.4752183" lon="-7.4350283"><ele>532.0</ele><time>2026-04-14T14:02:04.893Z</time></trkpt><trkpt lat="42.4753033" lon="-7.4351233"><ele>532.0</ele><time>2026-04-14T14:02:05.892Z</time></trkpt><trkpt lat="42.4753833" lon="-7.4352183"><ele>532.0</ele><time>2026-04-14T14:02:06.893Z</time></trkpt><trkpt lat="42.4754533" lon="-7.4353283"><ele>530.8000000000001</ele><time>2026-04-14T14:02:07.892Z</time></trkpt><trkpt lat="42.4755233" lon="-7.4354267"><ele>529.6</ele><time>2026-04-14T14:02:08.893Z</time></trkpt><trkpt lat="42.4755967" lon="-7.4355167"><ele>528.4000000000001</ele><time>2026-04-14T14:02:09.893Z</time></trkpt><trkpt lat="42.4756883" lon="-7.4355683"><ele>527.2</ele><time>2026-04-14T14:02:10.893Z</time></trkpt><trkpt lat="42.4757867" lon="-7.4355933"><ele>526.0</ele><time>2026-04-14T14:02:11.892Z</time></trkpt><trkpt lat="42.475895" lon="-7.4355867"><ele>526.0</ele><time>2026-04-14T14:02:12.893Z</time></trkpt><trkpt lat="42.4760033" lon="-7.4355867"><ele>526.0</ele><time>2026-04-14T14:02:13.893Z</time></trkpt><trkpt lat="42.476115" lon="-7.4355633"><ele>526.0</ele><time>2026-04-14T14:02:14.893Z</time></trkpt><trkpt lat="42.4762217" lon="-7.4355617"><ele>526.0</ele><time>2026-04-14T14:02:15.893Z</time></trkpt><trkpt lat="42.4763317" lon="-7.4355833"><ele>526.0</ele><time>2026-04-14T14:02:16.892Z</time></trkpt><trkpt lat="42.4764383" lon="-7.4356"><ele>526.4</ele><time>2026-04-14T14:02:17.892Z</time></trkpt><trkpt lat="42.4765533" lon="-7.4356133"><ele>526.8</ele><time>2026-04-14T14:02:18.893Z</time></trkpt><trkpt lat="42.476665" lon="-7.4356233"><ele>527.1999999999999</ele><time>2026-04-14T14:02:19.893Z</time></trkpt><trkpt lat="42.47677" lon="-7.4356267"><ele>527.6</ele><time>2026-04-14T14:02:20.893Z</time></trkpt><trkpt lat="42.4768733" lon="-7.4356333"><ele>528.0</ele><time>2026-04-14T14:02:21.893Z</time></trkpt><trkpt lat="42.4769767" lon="-7.43562"><ele>528.0</ele><time>2026-04-14T14:02:22.893Z</time></trkpt><trkpt lat="42.4770833" lon="-7.4356033"><ele>528.0</ele><time>2026-04-14T14:02:23.892Z</time></trkpt><trkpt lat="42.47719" lon="-7.43558"><ele>528.0</ele><time>2026-04-14T14:02:24.892Z</time></trkpt><trkpt lat="42.4773" lon="-7.4355683"><ele>528.0</ele><time>2026-04-14T14:02:25.893Z</time></trkpt><trkpt lat="42.477405" lon="-7.4355617"><ele>528.0</ele><time>2026-04-14T14:02:26.893Z</time></trkpt><trkpt lat="42.477505" lon="-7.4355483"><ele>527.1999999999999</ele><time>2026-04-14T14:02:27.892Z</time></trkpt><trkpt lat="42.477605" lon="-7.435535"><ele>526.4</ele><time>2026-04-14T14:02:28.892Z</time></trkpt><trkpt lat="42.4777033" lon="-7.435525"><ele>525.5999999999999</ele><time>2026-04-14T14:02:29.892Z</time></trkpt><trkpt lat="42.4778083" lon="-7.435535"><ele>524.8</ele><time>2026-04-14T14:02:30.892Z</time></trkpt><trkpt lat="42.4779117" lon="-7.4355567"><ele>524.0</ele><time>2026-04-14T14:02:31.893Z</time></trkpt><trkpt lat="42.4780083" lon="-7.4355967"><ele>523.0</ele><time>2026-04-14T14:02:32.892Z</time></trkpt><trkpt lat="42.478115" lon="-7.43565"><ele>522.0</ele><time>2026-04-14T14:02:33.892Z</time></trkpt><trkpt lat="42.4782133" lon="-7.4357067"><ele>521.0</ele><time>2026-04-14T14:02:34.893Z</time></trkpt><trkpt lat="42.4783117" lon="-7.43575"><ele>520.0</ele><time>2026-04-14T14:02:35.892Z</time></trkpt><trkpt lat="42.47841" lon="-7.43579"><ele>519.0</ele><time>2026-04-14T14:02:36.893Z</time></trkpt><trkpt lat="42.4785067" lon="-7.4358233"><ele>519.0</ele><time>2026-04-14T14:02:37.892Z</time></trkpt><trkpt lat="42.4786033" lon="-7.43585"><ele>519.0</ele><time>2026-04-14T14:02:38.893Z</time></trkpt><trkpt lat="42.4787017" lon="-7.4358633"><ele>519.0</ele><time>2026-04-14T14:02:39.892Z</time></trkpt><trkpt lat="42.4788" lon="-7.4358783"><ele>519.0</ele><time>2026-04-14T14:02:40.892Z</time></trkpt><trkpt lat="42.4788983" lon="-7.43589"><ele>519.0</ele><time>2026-04-14T14:02:41.892Z</time></trkpt><trkpt lat="42.4789967" lon="-7.4359033"><ele>517.8</ele><time>2026-04-14T14:02:42.893Z</time></trkpt><trkpt lat="42.4790867" lon="-7.43592"><ele>516.5999999999999</ele><time>2026-04-14T14:02:43.893Z</time></trkpt><trkpt lat="42.4791867" lon="-7.4359383"><ele>515.4</ele><time>2026-04-14T14:02:44.894Z</time></trkpt><trkpt lat="42.4792867" lon="-7.4359617"><ele>514.1999999999999</ele><time>2026-04-14T14:02:45.894Z</time></trkpt><trkpt lat="42.479385" lon="-7.4359867"><ele>513.0</ele><time>2026-04-14T14:02:46.893Z</time></trkpt><trkpt lat="42.47948" lon="-7.4360117"><ele>513.0</ele><time>2026-04-14T14:02:47.893Z</time></trkpt><trkpt lat="42.4795733" lon="-7.4360483"><ele>513.0</ele><time>2026-04-14T14:02:48.894Z</time></trkpt><trkpt lat="42.4796583" lon="-7.4360967"><ele>513.0</ele><time>2026-04-14T14:02:49.894Z</time></trkpt><trkpt lat="42.4797417" lon="-7.436155"><ele>513.0</ele><time>2026-04-14T14:02:50.893Z</time></trkpt><trkpt lat="42.4798133" lon="-7.4362367"><ele>513.0</ele><time>2026-04-14T14:02:51.894Z</time></trkpt><trkpt lat="42.4799" lon="-7.43633"><ele>511.4</ele><time>2026-04-14T14:02:52.894Z</time></trkpt><trkpt lat="42.4799833" lon="-7.43642"><ele>509.79999999999995</ele><time>2026-04-14T14:02:53.893Z</time></trkpt><trkpt lat="42.4800683" lon="-7.4365083"><ele>508.2</ele><time>2026-04-14T14:02:54.893Z</time></trkpt><trkpt lat="42.48017" lon="-7.4365667"><ele>506.6</ele><time>2026-04-14T14:02:55.893Z</time></trkpt><trkpt lat="42.4802767" lon="-7.43659"><ele>505.0</ele><time>2026-04-14T14:02:56.894Z</time></trkpt><trkpt lat="42.4803833" lon="-7.4365933"><ele>503.4</ele><time>2026-04-14T14:02:57.893Z</time></trkpt><trkpt lat="42.4804767" lon="-7.4366"><ele>501.8</ele><time>2026-04-14T14:02:58.894Z</time></trkpt><trkpt lat="42.4805783" lon="-7.43662"><ele>500.20000000000005</ele><time>2026-04-14T14:02:59.893Z</time></trkpt><trkpt lat="42.4806833" lon="-7.43664"><ele>498.6</ele><time>2026-04-14T14:03:00.893Z</time></trkpt><trkpt lat="42.4807817" lon="-7.436655"><ele>497.0</ele><time>2026-04-14T14:03:01.893Z</time></trkpt><trkpt lat="42.4808733" lon="-7.436665"><ele>496.99999999999994</ele><time>2026-04-14T14:03:02.893Z</time></trkpt><trkpt lat="42.4809533" lon="-7.4366533"><ele>497.0</ele><time>2026-04-14T14:03:03.893Z</time></trkpt><trkpt lat="42.4810267" lon="-7.4366133"><ele>497.0</ele><time>2026-04-14T14:03:04.894Z</time></trkpt><trkpt lat="42.4810983" lon="-7.43657"><ele>497.0</ele><time>2026-04-14T14:03:05.894Z</time></trkpt><trkpt lat="42.481175" lon="-7.4365467"><ele>496.99999999999994</ele><time>2026-04-14T14:03:06.894Z</time></trkpt><trkpt lat="42.481255" lon="-7.4365417"><ele>497.0</ele><time>2026-04-14T14:03:07.894Z</time></trkpt><trkpt lat="42.481345" lon="-7.4365517"><ele>495.0</ele><time>2026-04-14T14:03:08.893Z</time></trkpt><trkpt lat="42.48144" lon="-7.4365583"><ele>493.00000000000006</ele><time>2026-04-14T14:03:09.893Z</time></trkpt><trkpt lat="42.4815467" lon="-7.436565"><ele>491.00000000000006</ele><time>2026-04-14T14:03:10.893Z</time></trkpt><trkpt lat="42.4816567" lon="-7.4365667"><ele>489.0</ele><time>2026-04-14T14:03:11.893Z</time></trkpt><trkpt lat="42.4817583" lon="-7.43657"><ele>487.0</ele><time>2026-04-14T14:03:12.893Z</time></trkpt><trkpt lat="42.4818617" lon="-7.4365833"><ele>487.0</ele><time>2026-04-14T14:03:13.893Z</time></trkpt><trkpt lat="42.4819683" lon="-7.43658"><ele>487.00000000000006</ele><time>2026-04-14T14:03:14.894Z</time></trkpt><trkpt lat="42.4820717" lon="-7.4365567"><ele>487.00000000000006</ele><time>2026-04-14T14:03:15.894Z</time></trkpt><trkpt lat="42.4821733" lon="-7.4365283"><ele>487.0</ele><time>2026-04-14T14:03:16.893Z</time></trkpt><trkpt lat="42.482275" lon="-7.436505"><ele>487.0</ele><time>2026-04-14T14:03:17.893Z</time></trkpt><trkpt lat="42.48237" lon="-7.4364783"><ele>487.20000000000005</ele><time>2026-04-14T14:03:18.893Z</time></trkpt><trkpt lat="42.482465" lon="-7.4364583"><ele>487.40000000000003</ele><time>2026-04-14T14:03:19.893Z</time></trkpt><trkpt lat="42.4825667" lon="-7.4364283"><ele>487.59999999999997</ele><time>2026-04-14T14:03:20.894Z</time></trkpt><trkpt lat="42.4826667" lon="-7.4364067"><ele>487.79999999999995</ele><time>2026-04-14T14:03:21.894Z</time></trkpt><trkpt lat="42.48276" lon="-7.4363917"><ele>488.0</ele><time>2026-04-14T14:03:22.893Z</time></trkpt><trkpt lat="42.4828617" lon="-7.4363767"><ele>487.0</ele><time>2026-04-14T14:03:23.894Z</time></trkpt><trkpt lat="42.48296" lon="-7.4363667"><ele>485.99999999999994</ele><time>2026-04-14T14:03:24.893Z</time></trkpt><trkpt lat="42.4830533" lon="-7.4363783"><ele>484.99999999999994</ele><time>2026-04-14T14:03:25.894Z</time></trkpt><trkpt lat="42.4831467" lon="-7.4363967"><ele>484.0</ele><time>2026-04-14T14:03:26.893Z</time></trkpt><trkpt lat="42.4832267" lon="-7.4364017"><ele>483.0</ele><time>2026-04-14T14:03:27.893Z</time></trkpt><trkpt lat="42.48331" lon="-7.4363883"><ele>483.0</ele><time>2026-04-14T14:03:28.893Z</time></trkpt><trkpt lat="42.4833917" lon="-7.436375"><ele>483.0</ele><time>2026-04-14T14:03:29.893Z</time></trkpt><trkpt lat="42.4834783" lon="-7.4363683"><ele>483.0</ele><time>2026-04-14T14:03:30.894Z</time></trkpt><trkpt lat="42.4835767" lon="-7.4363583"><ele>483.0</ele><time>2026-04-14T14:03:31.893Z</time></trkpt><trkpt lat="42.4836683" lon="-7.4363367"><ele>483.0</ele><time>2026-04-14T14:03:32.893Z</time></trkpt><trkpt lat="42.48375" lon="-7.4363233"><ele>483.0</ele><time>2026-04-14T14:03:33.894Z</time></trkpt><trkpt lat="42.4838283" lon="-7.4363"><ele>479.2</ele><time>2026-04-14T14:03:34.894Z</time></trkpt><trkpt lat="42.4839083" lon="-7.43628"><ele>475.4</ele><time>2026-04-14T14:03:35.893Z</time></trkpt><trkpt lat="42.4839867" lon="-7.436245"><ele>471.59999999999997</ele><time>2026-04-14T14:03:36.893Z</time></trkpt><trkpt lat="42.4840767" lon="-7.4362133"><ele>467.79999999999995</ele><time>2026-04-14T14:03:37.894Z</time></trkpt><trkpt lat="42.4841733" lon="-7.436185"><ele>464.0</ele><time>2026-04-14T14:03:38.893Z</time></trkpt><trkpt lat="42.4842683" lon="-7.4361617"><ele>464.0</ele><time>2026-04-14T14:03:39.893Z</time></trkpt><trkpt lat="42.48437" lon="-7.4361367"><ele>464.0</ele><time>2026-04-14T14:03:40.893Z</time></trkpt><trkpt lat="42.48447" lon="-7.4361317"><ele>464.0</ele><time>2026-04-14T14:03:41.893Z</time></trkpt><trkpt lat="42.484575" lon="-7.436145"><ele>464.0</ele><time>2026-04-14T14:03:42.894Z</time></trkpt><trkpt lat="42.4846717" lon="-7.436165"><ele>464.0</ele><time>2026-04-14T14:03:43.893Z</time></trkpt><trkpt lat="42.4847667" lon="-7.4361783"><ele>463.66666666666663</ele><time>2026-04-14T14:03:44.894Z</time></trkpt><trkpt lat="42.4848583" lon="-7.43619"><ele>463.3333333333333</ele><time>2026-04-14T14:03:45.893Z</time></trkpt><trkpt lat="42.4849417" lon="-7.4362"><ele>463.0</ele><time>2026-04-14T14:03:46.893Z</time></trkpt><trkpt lat="42.48502" lon="-7.4362233"><ele>462.66666666666663</ele><time>2026-04-14T14:03:47.894Z</time></trkpt><trkpt lat="42.4850983" lon="-7.436235"><ele>462.3333333333333</ele><time>2026-04-14T14:03:48.894Z</time></trkpt><trkpt lat="42.4851733" lon="-7.4362533"><ele>462.0</ele><time>2026-04-14T14:03:49.894Z</time></trkpt><trkpt lat="42.4852483" lon="-7.4362833"><ele>462.5</ele><time>2026-04-14T14:03:50.894Z</time></trkpt><trkpt lat="42.4853233" lon="-7.4363267"><ele>463.0</ele><time>2026-04-14T14:03:51.893Z</time></trkpt><trkpt lat="42.4853967" lon="-7.4363683"><ele>463.5</ele><time>2026-04-14T14:03:52.893Z</time></trkpt><trkpt lat="42.4855017" lon="-7.4363667"><ele>464.0</ele><time>2026-04-14T14:03:54.894Z</time></trkpt><trkpt lat="42.4855433" lon="-7.4362617"><ele>464.5</ele><time>2026-04-14T14:03:56.893Z</time></trkpt><trkpt lat="42.48556" lon="-7.43617"><ele>465.0</ele><time>2026-04-14T14:03:57.893Z</time></trkpt><trkpt lat="42.48558" lon="-7.4360617"><ele>465.0</ele><time>2026-04-14T14:03:58.893Z</time></trkpt><trkpt lat="42.4856033" lon="-7.4359333"><ele>465.0</ele><time>2026-04-14T14:03:59.894Z</time></trkpt><trkpt lat="42.4856283" lon="-7.435785"><ele>465.0</ele><time>2026-04-14T14:04:00.894Z</time></trkpt><trkpt lat="42.4856467" lon="-7.4356533"><ele>465.0</ele><time>2026-04-14T14:04:01.894Z</time></trkpt><trkpt lat="42.48566" lon="-7.435545"><ele>465.0</ele><time>2026-04-14T14:04:02.894Z</time></trkpt><trkpt lat="42.4856667" lon="-7.4354433"><ele>465.0</ele><time>2026-04-14T14:04:03.893Z</time></trkpt><trkpt lat="42.4856783" lon="-7.435335"><ele>465.0</ele><time>2026-04-14T14:04:04.894Z</time></trkpt><trkpt lat="42.4856967" lon="-7.4352267"><ele>465.0</ele><time>2026-04-14T14:04:05.894Z</time></trkpt><trkpt lat="42.4857317" lon="-7.4351167"><ele>465.0</ele><time>2026-04-14T14:04:06.894Z</time></trkpt><trkpt lat="42.4857783" lon="-7.435015"><ele>465.0</ele><time>2026-04-14T14:04:07.894Z</time></trkpt><trkpt lat="42.4858333" lon="-7.4349117"><ele>465.0</ele><time>2026-04-14T14:04:08.893Z</time></trkpt><trkpt lat="42.4858883" lon="-7.4348033"><ele>465.0</ele><time>2026-04-14T14:04:09.894Z</time></trkpt><trkpt lat="42.4859317" lon="-7.434695"><ele>465.0</ele><time>2026-04-14T14:04:10.893Z</time></trkpt><trkpt lat="42.485965" lon="-7.4345733"><ele>465.0</ele><time>2026-04-14T14:04:11.894Z</time></trkpt><trkpt lat="42.4859867" lon="-7.4344567"><ele>465.0</ele><time>2026-04-14T14:04:12.893Z</time></trkpt><trkpt lat="42.4859967" lon="-7.4343467"><ele>465.0</ele><time>2026-04-14T14:04:13.894Z</time></trkpt><trkpt lat="42.486015" lon="-7.4342483"><ele>465.0</ele><time>2026-04-14T14:04:14.893Z</time></trkpt><trkpt lat="42.4860383" lon="-7.43414"><ele>464.8333333333333</ele><time>2026-04-14T14:04:15.893Z</time></trkpt><trkpt lat="42.4860667" lon="-7.4340267"><ele>464.66666666666663</ele><time>2026-04-14T14:04:16.894Z</time></trkpt><trkpt lat="42.4860967" lon="-7.4339117"><ele>464.5</ele><time>2026-04-14T14:04:17.894Z</time></trkpt><trkpt lat="42.4861067" lon="-7.4337833"><ele>464.3333333333333</ele><time>2026-04-14T14:04:18.893Z</time></trkpt><trkpt lat="42.4861167" lon="-7.433665"><ele>464.16666666666663</ele><time>2026-04-14T14:04:19.893Z</time></trkpt><trkpt lat="42.486125" lon="-7.43356"><ele>464.0</ele><time>2026-04-14T14:04:20.893Z</time></trkpt><trkpt lat="42.4861617" lon="-7.43348"><ele>464.3333333333333</ele><time>2026-04-14T14:04:21.893Z</time></trkpt><trkpt lat="42.4862083" lon="-7.4334117"><ele>464.66666666666663</ele><time>2026-04-14T14:04:22.893Z</time></trkpt><trkpt lat="42.4862733" lon="-7.4333467"><ele>465.0</ele><time>2026-04-14T14:04:23.893Z</time></trkpt><trkpt lat="42.48635" lon="-7.4333067"><ele>465.33333333333337</ele><time>2026-04-14T14:04:24.894Z</time></trkpt><trkpt lat="42.4864417" lon="-7.43329"><ele>465.6666666666667</ele><time>2026-04-14T14:04:25.893Z</time></trkpt><trkpt lat="42.4865533" lon="-7.433285"><ele>466.0</ele><time>2026-04-14T14:04:26.893Z</time></trkpt><trkpt lat="42.48665" lon="-7.4332783"><ele>466.6</ele><time>2026-04-14T14:04:27.894Z</time></trkpt><trkpt lat="42.4867533" lon="-7.4332667"><ele>467.20000000000005</ele><time>2026-04-14T14:04:28.893Z</time></trkpt><trkpt lat="42.4868467" lon="-7.4332617"><ele>467.79999999999995</ele><time>2026-04-14T14:04:29.893Z</time></trkpt><trkpt lat="42.4869417" lon="-7.433255"><ele>468.4</ele><time>2026-04-14T14:04:30.893Z</time></trkpt><trkpt lat="42.4870367" lon="-7.4332583"><ele>469.0</ele><time>2026-04-14T14:04:31.893Z</time></trkpt><trkpt lat="42.48713" lon="-7.43327"><ele>471.0</ele><time>2026-04-14T14:04:32.894Z</time></trkpt><trkpt lat="42.4872267" lon="-7.4332933"><ele>473.0</ele><time>2026-04-14T14:04:33.894Z</time></trkpt><trkpt lat="42.4873183" lon="-7.43332"><ele>475.0</ele><time>2026-04-14T14:04:34.893Z</time></trkpt><trkpt lat="42.4874067" lon="-7.4333567"><ele>477.0</ele><time>2026-04-14T14:04:35.894Z</time></trkpt><trkpt lat="42.4875" lon="-7.4333933"><ele>479.0</ele><time>2026-04-14T14:04:36.894Z</time></trkpt><trkpt lat="42.4875967" lon="-7.4334317"><ele>479.0</ele><time>2026-04-14T14:04:37.893Z</time></trkpt><trkpt lat="42.48769" lon="-7.4334717"><ele>479.0</ele><time>2026-04-14T14:04:38.894Z</time></trkpt><trkpt lat="42.4877817" lon="-7.43352"><ele>479.0</ele><time>2026-04-14T14:04:39.893Z</time></trkpt><trkpt lat="42.4878667" lon="-7.4335717"><ele>479.0</ele><time>2026-04-14T14:04:40.893Z</time></trkpt><trkpt lat="42.487935" lon="-7.4336283"><ele>479.0</ele><time>2026-04-14T14:04:41.893Z</time></trkpt><trkpt lat="42.4857317" lon="-7.4351167"><ele>476.2</ele><time>2026-04-14T14:04:06.894Z</time></trkpt><trkpt lat="42.4857783" lon="-7.435015"><ele>473.4</ele><time>2026-04-14T14:04:07.894Z</time></trkpt><trkpt lat="42.4858333" lon="-7.4349117"><ele>470.6</ele><time>2026-04-14T14:04:08.893Z</time></trkpt><trkpt lat="42.4858883" lon="-7.4348033"><ele>467.8</ele><time>2026-04-14T14:04:09.894Z</time></trkpt><trkpt lat="42.4859317" lon="-7.434695"><ele>465.0</ele><time>2026-04-14T14:04:10.893Z</time></trkpt><trkpt lat="42.485965" lon="-7.4345733"><ele>464.8333333333333</ele><time>2026-04-14T14:04:11.894Z</time></trkpt><trkpt lat="42.4859867" lon="-7.4344567"><ele>464.66666666666663</ele><time>2026-04-14T14:04:12.893Z</time></trkpt><trkpt lat="42.4859967" lon="-7.4343467"><ele>464.5</ele><time>2026-04-14T14:04:13.894Z</time></trkpt><trkpt lat="42.486015" lon="-7.4342483"><ele>464.3333333333333</ele><time>2026-04-14T14:04:14.893Z</time></trkpt><trkpt lat="42.4860383" lon="-7.43414"><ele>464.16666666666663</ele><time>2026-04-14T14:04:15.893Z</time></trkpt><trkpt lat="42.4860667" lon="-7.4340267"><ele>464.0</ele><time>2026-04-14T14:04:16.894Z</time></trkpt><trkpt lat="42.4860967" lon="-7.4339117"><ele>464.3333333333333</ele><time>2026-04-14T14:04:17.894Z</time></trkpt><trkpt lat="42.4861067" lon="-7.4337833"><ele>464.66666666666663</ele><time>2026-04-14T14:04:18.893Z</time></trkpt><trkpt lat="42.4861167" lon="-7.433665"><ele>465.0</ele><time>2026-04-14T14:04:19.893Z</time></trkpt><trkpt lat="42.486125" lon="-7.43356"><ele>465.33333333333337</ele><time>2026-04-14T14:04:20.893Z</time></trkpt><trkpt lat="42.4861617" lon="-7.43348"><ele>465.6666666666667</ele><time>2026-04-14T14:04:21.893Z</time></trkpt><trkpt lat="42.4862083" lon="-7.4334117"><ele>466.0</ele><time>2026-04-14T14:04:22.893Z</time></trkpt><trkpt lat="42.4862733" lon="-7.4333467"><ele>466.6</ele><time>2026-04-14T14:04:23.893Z</time></trkpt><trkpt lat="42.48635" lon="-7.4333067"><ele>467.20000000000005</ele><time>2026-04-14T14:04:24.894Z</time></trkpt><trkpt lat="42.4864417" lon="-7.43329"><ele>467.79999999999995</ele><time>2026-04-14T14:04:25.893Z</time></trkpt><trkpt lat="42.4865533" lon="-7.433285"><ele>468.4</ele><time>2026-04-14T14:04:26.893Z</time></trkpt><trkpt lat="42.48665" lon="-7.4332783"><ele>469.0</ele><time>2026-04-14T14:04:27.894Z</time></trkpt><trkpt lat="42.4867533" lon="-7.4332667"><ele>469.0</ele><time>2026-04-14T14:04:28.893Z</time></trkpt><trkpt lat="42.4868467" lon="-7.4332617"><ele>469.0</ele><time>2026-04-14T14:04:29.893Z</time></trkpt><trkpt lat="42.4869417" lon="-7.433255"><ele>469.0</ele><time>2026-04-14T14:04:30.893Z</time></trkpt><trkpt lat="42.4870367" lon="-7.4332583"><ele>469.0</ele><time>2026-04-14T14:04:31.893Z</time></trkpt><trkpt lat="42.48713" lon="-7.43327"><ele>469.0</ele><time>2026-04-14T14:04:32.894Z</time></trkpt><trkpt lat="42.4872267" lon="-7.4332933"><ele>471.0</ele><time>2026-04-14T14:04:33.894Z</time></trkpt><trkpt lat="42.4873183" lon="-7.43332"><ele>473.0</ele><time>2026-04-14T14:04:34.893Z</time></trkpt><trkpt lat="42.4874067" lon="-7.4333567"><ele>475.0</ele><time>2026-04-14T14:04:35.894Z</time></trkpt><trkpt lat="42.4875" lon="-7.4333933"><ele>477.0</ele><time>2026-04-14T14:04:36.894Z</time></trkpt><trkpt lat="42.4875967" lon="-7.4334317"><ele>479.0</ele><time>2026-04-14T14:04:37.893Z</time></trkpt><trkpt lat="42.48769" lon="-7.4334717"><ele>478.99999999999994</ele><time>2026-04-14T14:04:38.894Z</time></trkpt><trkpt lat="42.4877817" lon="-7.43352"><ele>479.0</ele><time>2026-04-14T14:04:39.893Z</time></trkpt><trkpt lat="42.4878667" lon="-7.4335717"><ele>479.0</ele><time>2026-04-14T14:04:40.893Z</time></trkpt><trkpt lat="42.487935" lon="-7.4336283"><ele>479.0</ele><time>2026-04-14T14:04:41.893Z</time></trkpt><trkpt lat="42.488025" lon="-7.433665"><ele>478.99999999999994</ele><time>2026-04-14T14:04:43.893Z</time></trkpt><trkpt lat="42.488065" lon="-7.4335783"><ele>479.0</ele><time>2026-04-14T14:04:46.893Z</time></trkpt><trkpt lat="42.488015" lon="-7.4333883"><ele>480.2</ele><time>2026-04-14T14:04:48.894Z</time></trkpt><trkpt lat="42.4879833" lon="-7.43326"><ele>481.4</ele><time>2026-04-14T14:04:49.893Z</time></trkpt><trkpt lat="42.4879583" lon="-7.4331133"><ele>482.6</ele><time>2026-04-14T14:04:50.894Z</time></trkpt><trkpt lat="42.4879417" lon="-7.43296"><ele>483.8</ele><time>2026-04-14T14:04:51.893Z</time></trkpt><trkpt lat="42.48793" lon="-7.4328117"><ele>485.0</ele><time>2026-04-14T14:04:52.893Z</time></trkpt><trkpt lat="42.48793" lon="-7.4326567"><ele>486.6</ele><time>2026-04-14T14:04:53.894Z</time></trkpt><trkpt lat="42.487935" lon="-7.4325"><ele>488.2</ele><time>2026-04-14T14:04:54.893Z</time></trkpt><trkpt lat="42.4879467" lon="-7.432345"><ele>489.79999999999995</ele><time>2026-04-14T14:04:55.893Z</time></trkpt><trkpt lat="42.4879667" lon="-7.4322"><ele>491.4</ele><time>2026-04-14T14:04:56.894Z</time></trkpt><trkpt lat="42.487995" lon="-7.43206"><ele>493.0</ele><time>2026-04-14T14:04:57.894Z</time></trkpt><trkpt lat="42.4880233" lon="-7.4319167"><ele>494.2</ele><time>2026-04-14T14:04:58.893Z</time></trkpt><trkpt lat="42.488045" lon="-7.43178"><ele>495.4</ele><time>2026-04-14T14:04:59.893Z</time></trkpt><trkpt lat="42.4880633" lon="-7.43164"><ele>496.59999999999997</ele><time>2026-04-14T14:05:00.894Z</time></trkpt><trkpt lat="42.4880833" lon="-7.43149"><ele>497.79999999999995</ele><time>2026-04-14T14:05:01.893Z</time></trkpt><trkpt lat="42.4881033" lon="-7.4313417"><ele>499.0</ele><time>2026-04-14T14:05:02.894Z</time></trkpt><trkpt lat="42.488125" lon="-7.4312"><ele>499.4</ele><time>2026-04-14T14:05:03.893Z</time></trkpt><trkpt lat="42.4881417" lon="-7.43106"><ele>499.79999999999995</ele><time>2026-04-14T14:05:04.894Z</time></trkpt><trkpt lat="42.4881567" lon="-7.4309267"><ele>500.20000000000005</ele><time>2026-04-14T14:05:05.894Z</time></trkpt><trkpt lat="42.4881733" lon="-7.4307883"><ele>500.6</ele><time>2026-04-14T14:05:06.894Z</time></trkpt><trkpt lat="42.4881867" lon="-7.430645"><ele>501.0</ele><time>2026-04-14T14:05:07.894Z</time></trkpt><trkpt lat="42.488205" lon="-7.430505"><ele>500.0</ele><time>2026-04-14T14:05:08.893Z</time></trkpt><trkpt lat="42.48822" lon="-7.4303667"><ele>499.0</ele><time>2026-04-14T14:05:09.893Z</time></trkpt><trkpt lat="42.4882417" lon="-7.4302433"><ele>498.0</ele><time>2026-04-14T14:05:10.893Z</time></trkpt><trkpt lat="42.488285" lon="-7.4301233"><ele>497.0</ele><time>2026-04-14T14:05:11.894Z</time></trkpt><trkpt lat="42.48835" lon="-7.4300167"><ele>496.0</ele><time>2026-04-14T14:05:12.893Z</time></trkpt><trkpt lat="42.4884333" lon="-7.4299117"><ele>496.0</ele><time>2026-04-14T14:05:13.894Z</time></trkpt><trkpt lat="42.4885317" lon="-7.4298133"><ele>496.0</ele><time>2026-04-14T14:05:14.894Z</time></trkpt><trkpt lat="42.4886233" lon="-7.4297183"><ele>496.0</ele><time>2026-04-14T14:05:15.893Z</time></trkpt><trkpt lat="42.4887117" lon="-7.4296233"><ele>496.0</ele><time>2026-04-14T14:05:16.893Z</time></trkpt><trkpt lat="42.4887883" lon="-7.4295167"><ele>494.25</ele><time>2026-04-14T14:05:17.893Z</time></trkpt><trkpt lat="42.4888583" lon="-7.4294"><ele>492.5</ele><time>2026-04-14T14:05:18.894Z</time></trkpt><trkpt lat="42.4889283" lon="-7.4292717"><ele>490.75</ele><time>2026-04-14T14:05:19.893Z</time></trkpt><trkpt lat="42.4889983" lon="-7.429145"><ele>489.0</ele><time>2026-04-14T14:05:20.894Z</time></trkpt><trkpt lat="42.4890683" lon="-7.4290267"><ele>489.0</ele><time>2026-04-14T14:05:21.893Z</time></trkpt><trkpt lat="42.4891417" lon="-7.42891"><ele>489.0</ele><time>2026-04-14T14:05:22.894Z</time></trkpt><trkpt lat="42.4892183" lon="-7.4288033"><ele>489.0</ele><time>2026-04-14T14:05:23.894Z</time></trkpt><trkpt lat="42.489295" lon="-7.4286933"><ele>489.0</ele><time>2026-04-14T14:05:24.893Z</time></trkpt><trkpt lat="42.4893683" lon="-7.42859"><ele>489.0</ele><time>2026-04-14T14:05:25.893Z</time></trkpt><trkpt lat="42.4894417" lon="-7.428485"><ele>488.0</ele><time>2026-04-14T14:05:26.894Z</time></trkpt><trkpt lat="42.4895083" lon="-7.42837"><ele>487.0</ele><time>2026-04-14T14:05:27.894Z</time></trkpt><trkpt lat="42.4895633" lon="-7.4282567"><ele>486.0</ele><time>2026-04-14T14:05:28.893Z</time></trkpt><trkpt lat="42.489615" lon="-7.42815"><ele>485.0</ele><time>2026-04-14T14:05:29.894Z</time></trkpt><trkpt lat="42.4896767" lon="-7.42805"><ele>484.0</ele><time>2026-04-14T14:05:30.894Z</time></trkpt><trkpt lat="42.4897517" lon="-7.4279533"><ele>484.0</ele><time>2026-04-14T14:05:31.894Z</time></trkpt><trkpt lat="42.48983" lon="-7.4278633"><ele>484.0</ele><time>2026-04-14T14:05:32.894Z</time></trkpt><trkpt lat="42.4899017" lon="-7.4277667"><ele>484.0</ele><time>2026-04-14T14:05:33.893Z</time></trkpt><trkpt lat="42.4899767" lon="-7.4276817"><ele>484.0</ele><time>2026-04-14T14:05:34.894Z</time></trkpt><trkpt lat="42.4900517" lon="-7.42762"><ele>484.0</ele><time>2026-04-14T14:05:35.893Z</time></trkpt><trkpt lat="42.490135" lon="-7.4275867"><ele>484.0</ele><time>2026-04-14T14:05:36.894Z</time></trkpt><trkpt lat="42.4902083" lon="-7.4275617"><ele>484.0</ele><time>2026-04-14T14:05:37.893Z</time></trkpt><trkpt lat="42.4902967" lon="-7.4275233"><ele>484.0</ele><time>2026-04-14T14:05:38.894Z</time></trkpt><trkpt lat="42.4903833" lon="-7.4274617"><ele>484.0</ele><time>2026-04-14T14:05:39.893Z</time></trkpt><trkpt lat="42.4904533" lon="-7.4273733"><ele>484.0</ele><time>2026-04-14T14:05:40.893Z</time></trkpt><trkpt lat="42.4905167" lon="-7.427275"><ele>487.5</ele><time>2026-04-14T14:05:41.894Z</time></trkpt><trkpt lat="42.490575" lon="-7.4271383"><ele>491.0</ele><time>2026-04-14T14:05:42.893Z</time></trkpt><trkpt lat="42.4906267" lon="-7.426985"><ele>494.5</ele><time>2026-04-14T14:05:43.893Z</time></trkpt><trkpt lat="42.49067" lon="-7.4268267"><ele>498.0</ele><time>2026-04-14T14:05:44.893Z</time></trkpt><trkpt lat="42.4907083" lon="-7.4266583"><ele>498.0</ele><time>2026-04-14T14:05:45.893Z</time></trkpt><trkpt lat="42.490745" lon="-7.4265017"><ele>497.99999999999994</ele><time>2026-04-14T14:05:46.893Z</time></trkpt><trkpt lat="42.4907867" lon="-7.4263567"><ele>497.99999999999994</ele><time>2026-04-14T14:05:47.893Z</time></trkpt><trkpt lat="42.490835" lon="-7.4262183"><ele>498.0</ele><time>2026-04-14T14:05:48.894Z</time></trkpt><trkpt lat="42.49088" lon="-7.42611"><ele>498.0</ele><time>2026-04-14T14:05:49.894Z</time></trkpt><trkpt lat="42.4909267" lon="-7.42601"><ele>498.5</ele><time>2026-04-14T14:05:50.894Z</time></trkpt><trkpt lat="42.4909717" lon="-7.4259067"><ele>499.0</ele><time>2026-04-14T14:05:51.893Z</time></trkpt><trkpt lat="42.4910083" lon="-7.4258033"><ele>499.5</ele><time>2026-04-14T14:05:52.894Z</time></trkpt><trkpt lat="42.4910333" lon="-7.4257033"><ele>500.0</ele><time>2026-04-14T14:05:53.894Z</time></trkpt><trkpt lat="42.4910467" lon="-7.4256117"><ele>500.5</ele><time>2026-04-14T14:05:54.893Z</time></trkpt><trkpt lat="42.4910167" lon="-7.4254983"><ele>501.0</ele><time>2026-04-14T14:05:56.893Z</time></trkpt><trkpt lat="42.4909383" lon="-7.4254833"><ele>501.0</ele><time>2026-04-14T14:05:58.894Z</time></trkpt><trkpt lat="42.4908717" lon="-7.42552"><ele>501.0</ele><time>2026-04-14T14:05:59.894Z</time></trkpt><trkpt lat="42.490795" lon="-7.4255817"><ele>501.0</ele><time>2026-04-14T14:06:00.893Z</time></trkpt><trkpt lat="42.4907283" lon="-7.4256333"><ele>501.0</ele><time>2026-04-14T14:06:01.893Z</time></trkpt><trkpt lat="42.4906583" lon="-7.4256817"><ele>501.0</ele><time>2026-04-14T14:06:02.893Z</time></trkpt><trkpt lat="42.490575" lon="-7.4257367"><ele>501.0</ele><time>2026-04-14T14:06:03.894Z</time></trkpt><trkpt lat="42.4904867" lon="-7.4257883"><ele>502.0</ele><time>2026-04-14T14:06:04.893Z</time></trkpt><trkpt lat="42.4903817" lon="-7.425835"><ele>503.0</ele><time>2026-04-14T14:06:05.894Z</time></trkpt><trkpt lat="42.4902683" lon="-7.4258883"><ele>504.0</ele><time>2026-04-14T14:06:06.894Z</time></trkpt><trkpt lat="42.4901583" lon="-7.4259383"><ele>505.0</ele><time>2026-04-14T14:06:07.893Z</time></trkpt><trkpt lat="42.49007" lon="-7.42597"><ele>506.0</ele><time>2026-04-14T14:06:08.893Z</time></trkpt><trkpt lat="42.49" lon="-7.4259833"><ele>506.0</ele><time>2026-04-14T14:06:09.893Z</time></trkpt><trkpt lat="42.489905" lon="-7.425925"><ele>506.0</ele><time>2026-04-14T14:06:11.893Z</time></trkpt><trkpt lat="42.4898067" lon="-7.42583"><ele>506.0</ele><time>2026-04-14T14:06:13.893Z</time></trkpt><trkpt lat="42.4897333" lon="-7.4257683"><ele>506.0</ele><time>2026-04-14T14:06:15.894Z</time></trkpt><trkpt lat="42.48965" lon="-7.425725"><ele>506.0</ele><time>2026-04-14T14:06:17.893Z</time></trkpt><trkpt lat="42.4895767" lon="-7.4256917"><ele>506.0</ele><time>2026-04-14T14:06:19.894Z</time></trkpt><trkpt lat="42.4895633" lon="-7.4255683"><ele>506.0</ele><time>2026-04-14T14:06:29.894Z</time></trkpt><trkpt lat="42.48962" lon="-7.425485"><ele>506.0</ele><time>2026-04-14T14:06:31.893Z</time></trkpt><trkpt lat="42.4897" lon="-7.42539"><ele>506.0</ele><time>2026-04-14T14:06:33.893Z</time></trkpt><trkpt lat="42.489755" lon="-7.425275"><ele>506.0</ele><time>2026-04-14T14:06:35.894Z</time></trkpt><trkpt lat="42.489805" lon="-7.4252017"><ele>508.8</ele><time>2026-04-14T14:06:37.893Z</time></trkpt><trkpt lat="42.489855" lon="-7.4251417"><ele>511.6</ele><time>2026-04-14T14:06:43.893Z</time></trkpt><trkpt lat="42.489865" lon="-7.4250067"><ele>514.4</ele><time>2026-04-14T14:06:45.893Z</time></trkpt><trkpt lat="42.4898367" lon="-7.4248567"><ele>517.2</ele><time>2026-04-14T14:06:47.893Z</time></trkpt><trkpt lat="42.4898167" lon="-7.4247167"><ele>520.0</ele><time>2026-04-14T14:06:49.893Z</time></trkpt><trkpt lat="42.4898217" lon="-7.4245883"><ele>521.8</ele><time>2026-04-14T14:06:51.894Z</time></trkpt><trkpt lat="42.4898333" lon="-7.424445"><ele>523.6</ele><time>2026-04-14T14:06:53.893Z</time></trkpt><trkpt lat="42.4898367" lon="-7.42427"><ele>525.4</ele><time>2026-04-14T14:06:55.893Z</time></trkpt><trkpt lat="42.489835" lon="-7.4241733"><ele>527.2</ele><time>2026-04-14T14:06:56.893Z</time></trkpt><trkpt lat="42.4898483" lon="-7.4240367"><ele>529.0</ele><time>2026-04-14T14:06:58.893Z</time></trkpt><trkpt lat="42.4898283" lon="-7.4238983"><ele>529.5714285714286</ele><time>2026-04-14T14:07:25.894Z</time></trkpt><trkpt lat="42.4898233" lon="-7.4238033"><ele>530.1428571428571</ele><time>2026-04-14T14:07:26.893Z</time></trkpt><trkpt lat="42.4898183" lon="-7.4237133"><ele>530.7142857142857</ele><time>2026-04-14T14:07:27.894Z</time></trkpt><trkpt lat="42.4898033" lon="-7.4236217"><ele>531.2857142857142</ele><time>2026-04-14T14:07:28.894Z</time></trkpt><trkpt lat="42.4897867" lon="-7.4235233"><ele>531.8571428571428</ele><time>2026-04-14T14:07:29.893Z</time></trkpt><trkpt lat="42.4897667" lon="-7.423425"><ele>532.4285714285714</ele><time>2026-04-14T14:07:30.894Z</time></trkpt><trkpt lat="42.48975" lon="-7.4233267"><ele>533.0</ele><time>2026-04-14T14:07:31.893Z</time></trkpt><trkpt lat="42.48973" lon="-7.4232233"><ele>533.0</ele><time>2026-04-14T14:07:32.894Z</time></trkpt><trkpt lat="42.4897167" lon="-7.4231217"><ele>533.0</ele><time>2026-04-14T14:07:33.894Z</time></trkpt><trkpt lat="42.4897083" lon="-7.423015"><ele>533.0</ele><time>2026-04-14T14:07:34.893Z</time></trkpt><trkpt lat="42.4897" lon="-7.422905"><ele>533.0</ele><time>2026-04-14T14:07:35.893Z</time></trkpt><trkpt lat="42.4896883" lon="-7.42279"><ele>533.0</ele><time>2026-04-14T14:07:36.894Z</time></trkpt><trkpt lat="42.48968" lon="-7.4226833"><ele>533.0</ele><time>2026-04-14T14:07:37.894Z</time></trkpt><trkpt lat="42.48967" lon="-7.422575"><ele>534.5</ele><time>2026-04-14T14:07:38.893Z</time></trkpt><trkpt lat="42.48967" lon="-7.4224567"><ele>536.0</ele><time>2026-04-14T14:07:39.893Z</time></trkpt><trkpt lat="42.4896783" lon="-7.4223217"><ele>537.5</ele><time>2026-04-14T14:07:40.894Z</time></trkpt><trkpt lat="42.4896933" lon="-7.4222117"><ele>539.0</ele><time>2026-04-14T14:07:41.894Z</time></trkpt><trkpt lat="42.489725" lon="-7.4220983"><ele>540.5</ele><time>2026-04-14T14:07:42.894Z</time></trkpt><trkpt lat="42.4897667" lon="-7.4219917"><ele>542.0</ele><time>2026-04-14T14:07:43.893Z</time></trkpt><trkpt lat="42.4898083" lon="-7.4218917"><ele>544.1666666666666</ele><time>2026-04-14T14:07:44.894Z</time></trkpt><trkpt lat="42.4898517" lon="-7.4217917"><ele>546.3333333333333</ele><time>2026-04-14T14:07:45.894Z</time></trkpt><trkpt lat="42.4898883" lon="-7.421685"><ele>548.5</ele><time>2026-04-14T14:07:46.894Z</time></trkpt><trkpt lat="42.48992" lon="-7.421595"><ele>550.6666666666666</ele><time>2026-04-14T14:07:47.894Z</time></trkpt><trkpt lat="42.48995" lon="-7.4215117"><ele>552.8333333333334</ele><time>2026-04-14T14:07:48.894Z</time></trkpt><trkpt lat="42.489975" lon="-7.4214317"><ele>555.0</ele><time>2026-04-14T14:07:49.894Z</time></trkpt><trkpt lat="42.49006" lon="-7.4213333"><ele>555.0</ele><time>2026-04-14T14:07:51.893Z</time></trkpt><trkpt lat="42.4901567" lon="-7.4213133"><ele>555.0</ele><time>2026-04-14T14:07:53.894Z</time></trkpt><trkpt lat="42.4902283" lon="-7.4213167"><ele>555.0</ele><time>2026-04-14T14:07:54.894Z</time></trkpt><trkpt lat="42.4902933" lon="-7.4213033"><ele>555.0</ele><time>2026-04-14T14:07:55.894Z</time></trkpt><trkpt lat="42.4903617" lon="-7.4213167"><ele>555.0</ele><time>2026-04-14T14:07:56.894Z</time></trkpt><trkpt lat="42.4904317" lon="-7.42135"><ele>555.0</ele><time>2026-04-14T14:07:57.894Z</time></trkpt><trkpt lat="42.4905117" lon="-7.42141"><ele>554.6666666666666</ele><time>2026-04-14T14:07:58.894Z</time></trkpt><trkpt lat="42.4906033" lon="-7.42148"><ele>554.3333333333334</ele><time>2026-04-14T14:07:59.894Z</time></trkpt><trkpt lat="42.4906867" lon="-7.4215517"><ele>554.0</ele><time>2026-04-14T14:08:00.894Z</time></trkpt><trkpt lat="42.4907633" lon="-7.421615"><ele>553.6666666666667</ele><time>2026-04-14T14:08:01.894Z</time></trkpt><trkpt lat="42.4908317" lon="-7.42166"><ele>553.3333333333334</ele><time>2026-04-14T14:08:02.893Z</time></trkpt><trkpt lat="42.4908883" lon="-7.4217017"><ele>553.0</ele><time>2026-04-14T14:08:03.894Z</time></trkpt><trkpt lat="42.4908267" lon="-7.4216183"><ele>553.0</ele><time>2026-04-14T14:08:08.894Z</time></trkpt><trkpt lat="42.4907583" lon="-7.42154"><ele>553.0</ele><time>2026-04-14T14:08:09.894Z</time></trkpt><trkpt lat="42.4906917" lon="-7.4214317"><ele>553.0</ele><time>2026-04-14T14:08:10.894Z</time></trkpt><trkpt lat="42.49063" lon="-7.42132"><ele>553.0</ele><time>2026-04-14T14:08:11.893Z</time></trkpt><trkpt lat="42.4905667" lon="-7.42122"><ele>553.0</ele><time>2026-04-14T14:08:12.893Z</time></trkpt><trkpt lat="42.4905" lon="-7.4211083"><ele>555.8</ele><time>2026-04-14T14:08:13.893Z</time></trkpt><trkpt lat="42.4904333" lon="-7.4210017"><ele>558.5999999999999</ele><time>2026-04-14T14:08:14.893Z</time></trkpt><trkpt lat="42.4903683" lon="-7.420905"><ele>561.4000000000001</ele><time>2026-04-14T14:08:15.893Z</time></trkpt><trkpt lat="42.4902933" lon="-7.4207917"><ele>564.2</ele><time>2026-04-14T14:08:16.894Z</time></trkpt><trkpt lat="42.4902183" lon="-7.4206867"><ele>567.0</ele><time>2026-04-14T14:08:17.893Z</time></trkpt><trkpt lat="42.4901533" lon="-7.42059"><ele>567.0</ele><time>2026-04-14T14:08:18.893Z</time></trkpt><trkpt lat="42.4900867" lon="-7.4205133"><ele>567.0</ele><time>2026-04-14T14:08:19.894Z</time></trkpt><trkpt lat="42.4900183" lon="-7.4204567"><ele>567.0</ele><time>2026-04-14T14:08:20.893Z</time></trkpt><trkpt lat="42.4899333" lon="-7.4204417"><ele>567.0</ele><time>2026-04-14T14:08:21.893Z</time></trkpt><trkpt lat="42.4898483" lon="-7.42046"><ele>567.0</ele><time>2026-04-14T14:08:22.893Z</time></trkpt><trkpt lat="42.48976" lon="-7.4205133"><ele>567.0</ele><time>2026-04-14T14:08:23.894Z</time></trkpt><trkpt lat="42.4896717" lon="-7.4205817"><ele>570.2</ele><time>2026-04-14T14:08:24.893Z</time></trkpt><trkpt lat="42.4895917" lon="-7.420655"><ele>573.4000000000001</ele><time>2026-04-14T14:08:25.894Z</time></trkpt><trkpt lat="42.489515" lon="-7.4207367"><ele>576.5999999999999</ele><time>2026-04-14T14:08:26.893Z</time></trkpt><trkpt lat="42.4894417" lon="-7.4208233"><ele>579.8</ele><time>2026-04-14T14:08:27.894Z</time></trkpt><trkpt lat="42.48937" lon="-7.420915"><ele>583.0</ele><time>2026-04-14T14:08:28.894Z</time></trkpt><trkpt lat="42.4893033" lon="-7.4210133"><ele>583.0</ele><time>2026-04-14T14:08:29.893Z</time></trkpt><trkpt lat="42.48924" lon="-7.4211233"><ele>583.0</ele><time>2026-04-14T14:08:30.893Z</time></trkpt><trkpt lat="42.4891767" lon="-7.4212333"><ele>583.0</ele><time>2026-04-14T14:08:31.894Z</time></trkpt><trkpt lat="42.48911" lon="-7.42134"><ele>583.0</ele><time>2026-04-14T14:08:32.894Z</time></trkpt><trkpt lat="42.4907633" lon="-7.421615"><ele>578.0</ele><time>2026-04-14T14:08:01.894Z</time></trkpt><trkpt lat="42.4908317" lon="-7.42166"><ele>573.0</ele><time>2026-04-14T14:08:02.893Z</time></trkpt><trkpt lat="42.4908883" lon="-7.4217017"><ele>568.0</ele><time>2026-04-14T14:08:03.894Z</time></trkpt><trkpt lat="42.4908267" lon="-7.4216183"><ele>563.0</ele><time>2026-04-14T14:08:08.894Z</time></trkpt><trkpt lat="42.4907583" lon="-7.42154"><ele>558.0</ele><time>2026-04-14T14:08:09.894Z</time></trkpt><trkpt lat="42.4906917" lon="-7.4214317"><ele>553.0</ele><time>2026-04-14T14:08:10.894Z</time></trkpt><trkpt lat="42.49063" lon="-7.42132"><ele>555.8</ele><time>2026-04-14T14:08:11.893Z</time></trkpt><trkpt lat="42.4905667" lon="-7.42122"><ele>558.5999999999999</ele><time>2026-04-14T14:08:12.893Z</time></trkpt><trkpt lat="42.4905" lon="-7.4211083"><ele>561.4000000000001</ele><time>2026-04-14T14:08:13.893Z</time></trkpt><trkpt lat="42.4904333" lon="-7.4210017"><ele>564.2</ele><time>2026-04-14T14:08:14.893Z</time></trkpt><trkpt lat="42.4903683" lon="-7.420905"><ele>567.0</ele><time>2026-04-14T14:08:15.893Z</time></trkpt><trkpt lat="42.4902933" lon="-7.4207917"><ele>567.0</ele><time>2026-04-14T14:08:16.894Z</time></trkpt><trkpt lat="42.4902183" lon="-7.4206867"><ele>567.0</ele><time>2026-04-14T14:08:17.893Z</time></trkpt><trkpt lat="42.4901533" lon="-7.42059"><ele>567.0</ele><time>2026-04-14T14:08:18.893Z</time></trkpt><trkpt lat="42.4900867" lon="-7.4205133"><ele>567.0</ele><time>2026-04-14T14:08:19.894Z</time></trkpt><trkpt lat="42.4900183" lon="-7.4204567"><ele>567.0</ele><time>2026-04-14T14:08:20.893Z</time></trkpt><trkpt lat="42.4899333" lon="-7.4204417"><ele>567.0</ele><time>2026-04-14T14:08:21.893Z</time></trkpt><trkpt lat="42.4898483" lon="-7.42046"><ele>567.0</ele><time>2026-04-14T14:08:22.893Z</time></trkpt><trkpt lat="42.48976" lon="-7.4205133"><ele>567.0</ele><time>2026-04-14T14:08:23.894Z</time></trkpt><trkpt lat="42.4896717" lon="-7.4205817"><ele>567.0</ele><time>2026-04-14T14:08:24.893Z</time></trkpt><trkpt lat="42.4895917" lon="-7.420655"><ele>567.0</ele><time>2026-04-14T14:08:25.894Z</time></trkpt><trkpt lat="42.489515" lon="-7.4207367"><ele>570.2</ele><time>2026-04-14T14:08:26.893Z</time></trkpt><trkpt lat="42.4894417" lon="-7.4208233"><ele>573.4000000000001</ele><time>2026-04-14T14:08:27.894Z</time></trkpt><trkpt lat="42.48937" lon="-7.420915"><ele>576.5999999999999</ele><time>2026-04-14T14:08:28.894Z</time></trkpt><trkpt lat="42.4893033" lon="-7.4210133"><ele>579.8</ele><time>2026-04-14T14:08:29.893Z</time></trkpt><trkpt lat="42.48924" lon="-7.4211233"><ele>583.0</ele><time>2026-04-14T14:08:30.893Z</time></trkpt><trkpt lat="42.4891767" lon="-7.4212333"><ele>580.8</ele><time>2026-04-14T14:08:31.894Z</time></trkpt><trkpt lat="42.48911" lon="-7.42134"><ele>578.5999999999999</ele><time>2026-04-14T14:08:32.894Z</time></trkpt><trkpt lat="42.4890467" lon="-7.4214533"><ele>576.4000000000001</ele><time>2026-04-14T14:08:33.893Z</time></trkpt><trkpt lat="42.48899" lon="-7.421565"><ele>574.2</ele><time>2026-04-14T14:08:34.893Z</time></trkpt><trkpt lat="42.4889267" lon="-7.4216833"><ele>572.0</ele><time>2026-04-14T14:08:35.893Z</time></trkpt><trkpt lat="42.4888667" lon="-7.421795"><ele>572.0</ele><time>2026-04-14T14:08:36.894Z</time></trkpt><trkpt lat="42.488795" lon="-7.421905"><ele>572.0</ele><time>2026-04-14T14:08:37.893Z</time></trkpt><trkpt lat="42.488715" lon="-7.4220133"><ele>572.0</ele><time>2026-04-14T14:08:38.894Z</time></trkpt><trkpt lat="42.48863" lon="-7.4221167"><ele>572.0</ele><time>2026-04-14T14:08:39.893Z</time></trkpt><trkpt lat="42.4885467" lon="-7.4222133"><ele>572.0</ele><time>2026-04-14T14:08:40.894Z</time></trkpt><trkpt lat="42.4884583" lon="-7.4222917"><ele>571.8000000000001</ele><time>2026-04-14T14:08:41.894Z</time></trkpt><trkpt lat="42.4883717" lon="-7.4223417"><ele>571.6</ele><time>2026-04-14T14:08:42.893Z</time></trkpt><trkpt lat="42.488275" lon="-7.4223883"><ele>571.4000000000001</ele><time>2026-04-14T14:08:43.893Z</time></trkpt><trkpt lat="42.48817" lon="-7.4224217"><ele>571.2</ele><time>2026-04-14T14:08:44.893Z</time></trkpt><trkpt lat="42.488075" lon="-7.4224367"><ele>571.0</ele><time>2026-04-14T14:08:45.893Z</time></trkpt><trkpt lat="42.4880067" lon="-7.42242"><ele>571.0</ele><time>2026-04-14T14:08:46.893Z</time></trkpt><trkpt lat="42.4879433" lon="-7.42238"><ele>571.0</ele><time>2026-04-14T14:08:47.893Z</time></trkpt><trkpt lat="42.4879217" lon="-7.4222467"><ele>571.0</ele><time>2026-04-14T14:08:49.894Z</time></trkpt><trkpt lat="42.4879683" lon="-7.4221717"><ele>571.0</ele><time>2026-04-14T14:08:50.894Z</time></trkpt><trkpt lat="42.48803" lon="-7.4221183"><ele>571.0</ele><time>2026-04-14T14:08:51.893Z</time></trkpt><trkpt lat="42.4881167" lon="-7.422085"><ele>571.0</ele><time>2026-04-14T14:08:52.893Z</time></trkpt><trkpt lat="42.488225" lon="-7.4220483"><ele>574.6</ele><time>2026-04-14T14:08:53.893Z</time></trkpt><trkpt lat="42.488335" lon="-7.4220067"><ele>578.2</ele><time>2026-04-14T14:08:54.894Z</time></trkpt><trkpt lat="42.4884267" lon="-7.42194"><ele>581.8</ele><time>2026-04-14T14:08:55.894Z</time></trkpt><trkpt lat="42.4885033" lon="-7.421835"><ele>585.4</ele><time>2026-04-14T14:08:56.893Z</time></trkpt><trkpt lat="42.4885533" lon="-7.4217117"><ele>589.0</ele><time>2026-04-14T14:08:57.893Z</time></trkpt><trkpt lat="42.488605" lon="-7.4215717"><ele>589.0</ele><time>2026-04-14T14:08:58.894Z</time></trkpt><trkpt lat="42.48865" lon="-7.42143"><ele>589.0</ele><time>2026-04-14T14:08:59.893Z</time></trkpt><trkpt lat="42.4886883" lon="-7.4212933"><ele>589.0</ele><time>2026-04-14T14:09:00.893Z</time></trkpt><trkpt lat="42.4887317" lon="-7.4211633"><ele>589.0</ele><time>2026-04-14T14:09:01.893Z</time></trkpt><trkpt lat="42.4887617" lon="-7.4210367"><ele>589.0</ele><time>2026-04-14T14:09:02.893Z</time></trkpt><trkpt lat="42.488785" lon="-7.42091"><ele>589.8</ele><time>2026-04-14T14:09:03.893Z</time></trkpt><trkpt lat="42.4887917" lon="-7.4207833"><ele>590.5999999999999</ele><time>2026-04-14T14:09:04.893Z</time></trkpt><trkpt lat="42.4888033" lon="-7.4206467"><ele>591.4</ele><time>2026-04-14T14:09:05.894Z</time></trkpt><trkpt lat="42.4888083" lon="-7.4205117"><ele>592.1999999999999</ele><time>2026-04-14T14:09:06.893Z</time></trkpt><trkpt lat="42.4888083" lon="-7.4203883"><ele>593.0</ele><time>2026-04-14T14:09:07.893Z</time></trkpt><trkpt lat="42.4888117" lon="-7.4202517"><ele>593.0</ele><time>2026-04-14T14:09:08.893Z</time></trkpt><trkpt lat="42.488805" lon="-7.4201017"><ele>593.0</ele><time>2026-04-14T14:09:09.893Z</time></trkpt><trkpt lat="42.48879" lon="-7.4199517"><ele>593.0</ele><time>2026-04-14T14:09:10.894Z</time></trkpt><trkpt lat="42.48878" lon="-7.4198017"><ele>593.0</ele><time>2026-04-14T14:09:11.894Z</time></trkpt><trkpt lat="42.4887783" lon="-7.419655"><ele>593.0</ele><time>2026-04-14T14:09:12.893Z</time></trkpt><trkpt lat="42.4887983" lon="-7.4195217"><ele>595.0</ele><time>2026-04-14T14:09:13.893Z</time></trkpt><trkpt lat="42.48885" lon="-7.4194017"><ele>597.0</ele><time>2026-04-14T14:09:14.893Z</time></trkpt><trkpt lat="42.4889233" lon="-7.4192717"><ele>599.0</ele><time>2026-04-14T14:09:15.894Z</time></trkpt><trkpt lat="42.4889967" lon="-7.4191367"><ele>601.0</ele><time>2026-04-14T14:09:16.893Z</time></trkpt><trkpt lat="42.4890483" lon="-7.4189867"><ele>601.0</ele><time>2026-04-14T14:09:17.894Z</time></trkpt><trkpt lat="42.489095" lon="-7.4188217"><ele>601.0</ele><time>2026-04-14T14:09:18.893Z</time></trkpt><trkpt lat="42.4891333" lon="-7.41864"><ele>601.0</ele><time>2026-04-14T14:09:19.893Z</time></trkpt><trkpt lat="42.4891717" lon="-7.4184767"><ele>601.0</ele><time>2026-04-14T14:09:20.893Z</time></trkpt><trkpt lat="42.48921" lon="-7.4183217"><ele>603.5</ele><time>2026-04-14T14:09:21.893Z</time></trkpt><trkpt lat="42.4892433" lon="-7.4181583"><ele>606.0</ele><time>2026-04-14T14:09:22.893Z</time></trkpt><trkpt lat="42.4892783" lon="-7.418"><ele>608.5</ele><time>2026-04-14T14:09:23.893Z</time></trkpt><trkpt lat="42.489325" lon="-7.41785"><ele>611.0</ele><time>2026-04-14T14:09:24.894Z</time></trkpt><trkpt lat="42.4893867" lon="-7.4177383"><ele>612.25</ele><time>2026-04-14T14:09:25.893Z</time></trkpt><trkpt lat="42.4894717" lon="-7.4176483"><ele>613.5</ele><time>2026-04-14T14:09:26.894Z</time></trkpt><trkpt lat="42.4895683" lon="-7.4175867"><ele>614.75</ele><time>2026-04-14T14:09:27.894Z</time></trkpt><trkpt lat="42.4896783" lon="-7.41752"><ele>616.0</ele><time>2026-04-14T14:09:28.894Z</time></trkpt><trkpt lat="42.4897883" lon="-7.4174533"><ele>616.0</ele><time>2026-04-14T14:09:29.893Z</time></trkpt><trkpt lat="42.4899" lon="-7.4173933"><ele>616.0</ele><time>2026-04-14T14:09:30.893Z</time></trkpt><trkpt lat="42.490005" lon="-7.4173283"><ele>616.0</ele><time>2026-04-14T14:09:31.894Z</time></trkpt><trkpt lat="42.49011" lon="-7.4172617"><ele>616.0</ele><time>2026-04-14T14:09:32.894Z</time></trkpt><trkpt lat="42.4902183" lon="-7.417215"><ele>616.0</ele><time>2026-04-14T14:09:33.894Z</time></trkpt><trkpt lat="42.4903183" lon="-7.4172117"><ele>616.0</ele><time>2026-04-14T14:09:34.893Z</time></trkpt><trkpt lat="42.490415" lon="-7.4172367"><ele>616.0</ele><time>2026-04-14T14:09:35.893Z</time></trkpt><trkpt lat="42.49051" lon="-7.4172717"><ele>616.0</ele><time>2026-04-14T14:09:36.893Z</time></trkpt><trkpt lat="42.4906083" lon="-7.4173"><ele>616.0</ele><time>2026-04-14T14:09:37.893Z</time></trkpt><trkpt lat="42.49071" lon="-7.4173283"><ele>617.0</ele><time>2026-04-14T14:09:38.893Z</time></trkpt><trkpt lat="42.4908133" lon="-7.4173533"><ele>618.0</ele><time>2026-04-14T14:09:39.893Z</time></trkpt><trkpt lat="42.490915" lon="-7.41737"><ele>619.0</ele><time>2026-04-14T14:09:40.893Z</time></trkpt><trkpt lat="42.4910117" lon="-7.41738"><ele>620.0</ele><time>2026-04-14T14:09:41.893Z</time></trkpt><trkpt lat="42.49112" lon="-7.4173833"><ele>621.0</ele><time>2026-04-14T14:09:42.893Z</time></trkpt><trkpt lat="42.4912317" lon="-7.4173833"><ele>620.75</ele><time>2026-04-14T14:09:43.893Z</time></trkpt><trkpt lat="42.4913433" lon="-7.4173733"><ele>620.5</ele><time>2026-04-14T14:09:44.893Z</time></trkpt><trkpt lat="42.4914567" lon="-7.4173433"><ele>620.25</ele><time>2026-04-14T14:09:45.893Z</time></trkpt><trkpt lat="42.49156" lon="-7.4172883"><ele>620.0</ele><time>2026-04-14T14:09:46.894Z</time></trkpt><trkpt lat="42.4916617" lon="-7.4172217"><ele>624.0</ele><time>2026-04-14T14:09:47.894Z</time></trkpt><trkpt lat="42.491755" lon="-7.4171417"><ele>628.0</ele><time>2026-04-14T14:09:48.893Z</time></trkpt><trkpt lat="42.4918483" lon="-7.4170417"><ele>632.0</ele><time>2026-04-14T14:09:49.894Z</time></trkpt><trkpt lat="42.4919317" lon="-7.41694"><ele>636.0</ele><time>2026-04-14T14:09:50.893Z</time></trkpt><trkpt lat="42.4920083" lon="-7.41683"><ele>636.0</ele><time>2026-04-14T14:09:51.893Z</time></trkpt><trkpt lat="42.4920767" lon="-7.4167033"><ele>636.0</ele><time>2026-04-14T14:09:52.893Z</time></trkpt><trkpt lat="42.49213" lon="-7.4165683"><ele>636.0</ele><time>2026-04-14T14:09:53.894Z</time></trkpt><trkpt lat="42.4921667" lon="-7.4164267"><ele>636.0</ele><time>2026-04-14T14:09:54.894Z</time></trkpt><trkpt lat="42.4922167" lon="-7.416285"><ele>636.5</ele><time>2026-04-14T14:09:55.893Z</time></trkpt><trkpt lat="42.4922883" lon="-7.4161583"><ele>637.0</ele><time>2026-04-14T14:09:56.893Z</time></trkpt><trkpt lat="42.49237" lon="-7.41606"><ele>637.5</ele><time>2026-04-14T14:09:57.893Z</time></trkpt><trkpt lat="42.4924667" lon="-7.41597"><ele>638.0</ele><time>2026-04-14T14:09:58.894Z</time></trkpt><trkpt lat="42.4925683" lon="-7.41589"><ele>638.0</ele><time>2026-04-14T14:09:59.894Z</time></trkpt><trkpt lat="42.4926733" lon="-7.41581"><ele>638.0</ele><time>2026-04-14T14:10:00.894Z</time></trkpt><trkpt lat="42.4927783" lon="-7.415705"><ele>638.0</ele><time>2026-04-14T14:10:01.894Z</time></trkpt><trkpt lat="42.4928633" lon="-7.4156017"><ele>638.0</ele><time>2026-04-14T14:10:02.894Z</time></trkpt><trkpt lat="42.4929183" lon="-7.415485"><ele>637.4</ele><time>2026-04-14T14:10:03.893Z</time></trkpt><trkpt lat="42.4929567" lon="-7.4153467"><ele>636.8</ele><time>2026-04-14T14:10:04.893Z</time></trkpt><trkpt lat="42.4929617" lon="-7.4152"><ele>636.2</ele><time>2026-04-14T14:10:05.893Z</time></trkpt><trkpt lat="42.4929517" lon="-7.415045"><ele>635.6</ele><time>2026-04-14T14:10:06.893Z</time></trkpt><trkpt lat="42.4929317" lon="-7.4148883"><ele>635.0</ele><time>2026-04-14T14:10:07.894Z</time></trkpt><trkpt lat="42.4929067" lon="-7.4147317"><ele>638.75</ele><time>2026-04-14T14:10:08.893Z</time></trkpt><trkpt lat="42.492875" lon="-7.4145717"><ele>642.5</ele><time>2026-04-14T14:10:09.894Z</time></trkpt><trkpt lat="42.4928467" lon="-7.4144067"><ele>646.25</ele><time>2026-04-14T14:10:10.893Z</time></trkpt><trkpt lat="42.492805" lon="-7.4142383"><ele>650.0</ele><time>2026-04-14T14:10:11.894Z</time></trkpt><trkpt lat="42.492775" lon="-7.41407"><ele>650.0</ele><time>2026-04-14T14:10:12.893Z</time></trkpt><trkpt lat="42.49275" lon="-7.4139083"><ele>650.0</ele><time>2026-04-14T14:10:13.894Z</time></trkpt><trkpt lat="42.49272" lon="-7.413745"><ele>650.0</ele><time>2026-04-14T14:10:14.893Z</time></trkpt><trkpt lat="42.49269" lon="-7.4135783"><ele>650.0</ele><time>2026-04-14T14:10:15.893Z</time></trkpt><trkpt lat="42.4926667" lon="-7.41342"><ele>650.5</ele><time>2026-04-14T14:10:16.893Z</time></trkpt><trkpt lat="42.4926417" lon="-7.4132583"><ele>651.0</ele><time>2026-04-14T14:10:17.894Z</time></trkpt><trkpt lat="42.4926267" lon="-7.413105"><ele>651.5</ele><time>2026-04-14T14:10:18.893Z</time></trkpt><trkpt lat="42.4926017" lon="-7.4129583"><ele>652.0</ele><time>2026-04-14T14:10:19.894Z</time></trkpt><trkpt lat="42.492575" lon="-7.4128"><ele>653.0</ele><time>2026-04-14T14:10:20.893Z</time></trkpt><trkpt lat="42.4925517" lon="-7.4126417"><ele>654.0</ele><time>2026-04-14T14:10:21.893Z</time></trkpt><trkpt lat="42.4925233" lon="-7.412485"><ele>655.0</ele><time>2026-04-14T14:10:22.893Z</time></trkpt><trkpt lat="42.49249" lon="-7.4123233"><ele>656.0</ele><time>2026-04-14T14:10:23.893Z</time></trkpt><trkpt lat="42.4924417" lon="-7.4121733"><ele>656.25</ele><time>2026-04-14T14:10:24.893Z</time></trkpt><trkpt lat="42.4923833" lon="-7.4120383"><ele>656.5</ele><time>2026-04-14T14:10:25.893Z</time></trkpt><trkpt lat="42.4923133" lon="-7.4119133"><ele>656.75</ele><time>2026-04-14T14:10:26.894Z</time></trkpt><trkpt lat="42.4922383" lon="-7.411785"><ele>657.0</ele><time>2026-04-14T14:10:27.893Z</time></trkpt><trkpt lat="42.4921583" lon="-7.411655"><ele>657.5</ele><time>2026-04-14T14:10:28.894Z</time></trkpt><trkpt lat="42.4920867" lon="-7.411525"><ele>658.0</ele><time>2026-04-14T14:10:29.893Z</time></trkpt><trkpt lat="42.49202" lon="-7.4113867"><ele>658.5</ele><time>2026-04-14T14:10:30.894Z</time></trkpt><trkpt lat="42.491945" lon="-7.4112467"><ele>659.0</ele><time>2026-04-14T14:10:31.894Z</time></trkpt><trkpt lat="42.4918717" lon="-7.411115"><ele>638.0</ele><time>2026-04-14T14:10:32.893Z</time></trkpt><trkpt lat="42.4927783" lon="-7.415705"><ele>638.0</ele><time>2026-04-14T14:10:01.894Z</time></trkpt><trkpt lat="42.4928633" lon="-7.4156017"><ele>638.0</ele><time>2026-04-14T14:10:02.894Z</time></trkpt><trkpt lat="42.4929183" lon="-7.415485"><ele>638.0</ele><time>2026-04-14T14:10:03.893Z</time></trkpt><trkpt lat="42.4929567" lon="-7.4153467"><ele>638.0</ele><time>2026-04-14T14:10:04.893Z</time></trkpt><trkpt lat="42.4929617" lon="-7.4152"><ele>638.0</ele><time>2026-04-14T14:10:05.893Z</time></trkpt><trkpt lat="42.4929517" lon="-7.415045"><ele>637.25</ele><time>2026-04-14T14:10:06.893Z</time></trkpt><trkpt lat="42.4929317" lon="-7.4148883"><ele>636.5</ele><time>2026-04-14T14:10:07.894Z</time></trkpt><trkpt lat="42.4929067" lon="-7.4147317"><ele>635.75</ele><time>2026-04-14T14:10:08.893Z</time></trkpt><trkpt lat="42.492875" lon="-7.4145717"><ele>635.0</ele><time>2026-04-14T14:10:09.894Z</time></trkpt><trkpt lat="42.4928467" lon="-7.4144067"><ele>638.75</ele><time>2026-04-14T14:10:10.893Z</time></trkpt><trkpt lat="42.492805" lon="-7.4142383"><ele>642.5</ele><time>2026-04-14T14:10:11.894Z</time></trkpt><trkpt lat="42.492775" lon="-7.41407"><ele>646.25</ele><time>2026-04-14T14:10:12.893Z</time></trkpt><trkpt lat="42.49275" lon="-7.4139083"><ele>650.0</ele><time>2026-04-14T14:10:13.894Z</time></trkpt><trkpt lat="42.49272" lon="-7.413745"><ele>650.5</ele><time>2026-04-14T14:10:14.893Z</time></trkpt><trkpt lat="42.49269" lon="-7.4135783"><ele>651.0</ele><time>2026-04-14T14:10:15.893Z</time></trkpt><trkpt lat="42.4926667" lon="-7.41342"><ele>651.5</ele><time>2026-04-14T14:10:16.893Z</time></trkpt><trkpt lat="42.4926417" lon="-7.4132583"><ele>652.0</ele><time>2026-04-14T14:10:17.894Z</time></trkpt><trkpt lat="42.4926267" lon="-7.413105"><ele>653.0</ele><time>2026-04-14T14:10:18.893Z</time></trkpt><trkpt lat="42.4926017" lon="-7.4129583"><ele>654.0</ele><time>2026-04-14T14:10:19.894Z</time></trkpt><trkpt lat="42.492575" lon="-7.4128"><ele>655.0</ele><time>2026-04-14T14:10:20.893Z</time></trkpt><trkpt lat="42.4925517" lon="-7.4126417"><ele>656.0</ele><time>2026-04-14T14:10:21.893Z</time></trkpt><trkpt lat="42.4925233" lon="-7.412485"><ele>656.0</ele><time>2026-04-14T14:10:22.893Z</time></trkpt><trkpt lat="42.49249" lon="-7.4123233"><ele>656.0</ele><time>2026-04-14T14:10:23.893Z</time></trkpt><trkpt lat="42.4924417" lon="-7.4121733"><ele>656.0</ele><time>2026-04-14T14:10:24.893Z</time></trkpt><trkpt lat="42.4923833" lon="-7.4120383"><ele>656.0</ele><time>2026-04-14T14:10:25.893Z</time></trkpt><trkpt lat="42.4923133" lon="-7.4119133"><ele>656.25</ele><time>2026-04-14T14:10:26.894Z</time></trkpt><trkpt lat="42.4922383" lon="-7.411785"><ele>656.5</ele><time>2026-04-14T14:10:27.893Z</time></trkpt><trkpt lat="42.4921583" lon="-7.411655"><ele>656.75</ele><time>2026-04-14T14:10:28.894Z</time></trkpt><trkpt lat="42.4920867" lon="-7.411525"><ele>657.0</ele><time>2026-04-14T14:10:29.893Z</time></trkpt><trkpt lat="42.49202" lon="-7.4113867"><ele>657.5</ele><time>2026-04-14T14:10:30.894Z</time></trkpt><trkpt lat="42.491945" lon="-7.4112467"><ele>658.0</ele><time>2026-04-14T14:10:31.894Z</time></trkpt><trkpt lat="42.4918717" lon="-7.411115"><ele>658.5</ele><time>2026-04-14T14:10:32.893Z</time></trkpt><trkpt lat="42.4918" lon="-7.41099"><ele>659.0</ele><time>2026-04-14T14:10:33.893Z</time></trkpt><trkpt lat="42.4917283" lon="-7.41086"><ele>659.0</ele><time>2026-04-14T14:10:34.893Z</time></trkpt><trkpt lat="42.491645" lon="-7.4107233"><ele>659.0</ele><time>2026-04-14T14:10:35.893Z</time></trkpt><trkpt lat="42.491575" lon="-7.4105917"><ele>659.0</ele><time>2026-04-14T14:10:36.893Z</time></trkpt><trkpt lat="42.4915067" lon="-7.4104583"><ele>659.0</ele><time>2026-04-14T14:10:37.893Z</time></trkpt><trkpt lat="42.491435" lon="-7.41033"><ele>659.0</ele><time>2026-04-14T14:10:38.894Z</time></trkpt><trkpt lat="42.4913533" lon="-7.4102083"><ele>659.0</ele><time>2026-04-14T14:10:39.893Z</time></trkpt><trkpt lat="42.4912817" lon="-7.4100833"><ele>659.0</ele><time>2026-04-14T14:10:40.894Z</time></trkpt><trkpt lat="42.4912167" lon="-7.4099517"><ele>659.0</ele><time>2026-04-14T14:10:41.893Z</time></trkpt><trkpt lat="42.4911433" lon="-7.40983"><ele>659.0</ele><time>2026-04-14T14:10:42.894Z</time></trkpt><trkpt lat="42.4910617" lon="-7.409725"><ele>659.0</ele><time>2026-04-14T14:10:43.893Z</time></trkpt><trkpt lat="42.4909717" lon="-7.4096417"><ele>659.0</ele><time>2026-04-14T14:10:44.894Z</time></trkpt><trkpt lat="42.4908783" lon="-7.4095767"><ele>659.0</ele><time>2026-04-14T14:10:45.893Z</time></trkpt><trkpt lat="42.4907817" lon="-7.40953"><ele>659.0</ele><time>2026-04-14T14:10:46.894Z</time></trkpt><trkpt lat="42.490675" lon="-7.4095067"><ele>660.0</ele><time>2026-04-14T14:10:47.893Z</time></trkpt><trkpt lat="42.4905633" lon="-7.40949"><ele>661.0</ele><time>2026-04-14T14:10:48.894Z</time></trkpt><trkpt lat="42.490455" lon="-7.40948"><ele>662.0</ele><time>2026-04-14T14:10:49.893Z</time></trkpt><trkpt lat="42.4903033" lon="-7.4094617"><ele>663.0</ele><time>2026-04-14T14:10:50.893Z</time></trkpt><trkpt lat="42.490185" lon="-7.40942"><ele>663.0</ele><time>2026-04-14T14:10:51.894Z</time></trkpt><trkpt lat="42.4900733" lon="-7.40936"><ele>663.0</ele><time>2026-04-14T14:10:52.893Z</time></trkpt><trkpt lat="42.4899667" lon="-7.4092983"><ele>663.0</ele><time>2026-04-14T14:10:53.893Z</time></trkpt><trkpt lat="42.489855" lon="-7.40924"><ele>663.0</ele><time>2026-04-14T14:10:54.893Z</time></trkpt><trkpt lat="42.489755" lon="-7.409175"><ele>663.0</ele><time>2026-04-14T14:10:55.893Z</time></trkpt><trkpt lat="42.4896433" lon="-7.4091067"><ele>663.0</ele><time>2026-04-14T14:10:56.894Z</time></trkpt><trkpt lat="42.4895317" lon="-7.4090467"><ele>663.0</ele><time>2026-04-14T14:10:57.894Z</time></trkpt><trkpt lat="42.4894317" lon="-7.4089817"><ele>663.0</ele><time>2026-04-14T14:10:58.893Z</time></trkpt><trkpt lat="42.4893233" lon="-7.40891"><ele>661.5</ele><time>2026-04-14T14:10:59.894Z</time></trkpt><trkpt lat="42.48923" lon="-7.4088333"><ele>660.0</ele><time>2026-04-14T14:11:00.893Z</time></trkpt><trkpt lat="42.48914" lon="-7.40875"><ele>658.5</ele><time>2026-04-14T14:11:01.893Z</time></trkpt><trkpt lat="42.4890317" lon="-7.408675"><ele>657.0</ele><time>2026-04-14T14:11:02.893Z</time></trkpt><trkpt lat="42.4889233" lon="-7.4086083"><ele>657.75</ele><time>2026-04-14T14:11:03.894Z</time></trkpt><trkpt lat="42.488825" lon="-7.4085483"><ele>658.5</ele><time>2026-04-14T14:11:04.893Z</time></trkpt><trkpt lat="42.4887217" lon="-7.4084817"><ele>659.25</ele><time>2026-04-14T14:11:05.894Z</time></trkpt><trkpt lat="42.4886017" lon="-7.408405"><ele>660.0</ele><time>2026-04-14T14:11:06.893Z</time></trkpt><trkpt lat="42.4885" lon="-7.4083383"><ele>660.0</ele><time>2026-04-14T14:11:07.893Z</time></trkpt><trkpt lat="42.4883933" lon="-7.408265"><ele>660.0</ele><time>2026-04-14T14:11:08.894Z</time></trkpt><trkpt lat="42.4882783" lon="-7.4081883"><ele>660.0</ele><time>2026-04-14T14:11:09.894Z</time></trkpt><trkpt lat="42.488165" lon="-7.4081083"><ele>660.0</ele><time>2026-04-14T14:11:10.893Z</time></trkpt><trkpt lat="42.4880533" lon="-7.4080433"><ele>659.25</ele><time>2026-04-14T14:11:11.894Z</time></trkpt><trkpt lat="42.4879433" lon="-7.4079783"><ele>658.5</ele><time>2026-04-14T14:11:12.893Z</time></trkpt><trkpt lat="42.4878383" lon="-7.40791"><ele>657.75</ele><time>2026-04-14T14:11:13.894Z</time></trkpt><trkpt lat="42.48774" lon="-7.407845"><ele>657.0</ele><time>2026-04-14T14:11:14.894Z</time></trkpt><trkpt lat="42.4876367" lon="-7.407785"><ele>657.0</ele><time>2026-04-14T14:11:15.893Z</time></trkpt><trkpt lat="42.4875367" lon="-7.40772"><ele>657.0</ele><time>2026-04-14T14:11:16.893Z</time></trkpt><trkpt lat="42.48744" lon="-7.4076533"><ele>657.0</ele><time>2026-04-14T14:11:17.893Z</time></trkpt><trkpt lat="42.4873517" lon="-7.407575"><ele>657.0</ele><time>2026-04-14T14:11:18.893Z</time></trkpt><trkpt lat="42.48728" lon="-7.4074867"><ele>657.0</ele><time>2026-04-14T14:11:19.894Z</time></trkpt><trkpt lat="42.4872233" lon="-7.4074033"><ele>657.0</ele><time>2026-04-14T14:11:20.894Z</time></trkpt><trkpt lat="42.4872" lon="-7.4072783"><ele>657.0</ele><time>2026-04-14T14:11:21.894Z</time></trkpt><trkpt lat="42.4871967" lon="-7.40714"><ele>657.0</ele><time>2026-04-14T14:11:22.893Z</time></trkpt><trkpt lat="42.4871983" lon="-7.4069883"><ele>657.0</ele><time>2026-04-14T14:11:23.893Z</time></trkpt><trkpt lat="42.4871983" lon="-7.4068533"><ele>657.0</ele><time>2026-04-14T14:11:24.893Z</time></trkpt><trkpt lat="42.4871933" lon="-7.4067083"><ele>657.6</ele><time>2026-04-14T14:11:25.894Z</time></trkpt><trkpt lat="42.4871783" lon="-7.4065667"><ele>658.2</ele><time>2026-04-14T14:11:26.893Z</time></trkpt><trkpt lat="42.4871683" lon="-7.4064367"><ele>658.8</ele><time>2026-04-14T14:11:27.894Z</time></trkpt><trkpt lat="42.4871667" lon="-7.4063067"><ele>659.4</ele><time>2026-04-14T14:11:28.893Z</time></trkpt><trkpt lat="42.487165" lon="-7.4061817"><ele>660.0</ele><time>2026-04-14T14:11:29.893Z</time></trkpt><trkpt lat="42.48716" lon="-7.4060517"><ele>660.0</ele><time>2026-04-14T14:11:30.894Z</time></trkpt><trkpt lat="42.4871583" lon="-7.4059083"><ele>660.0</ele><time>2026-04-14T14:11:31.894Z</time></trkpt><trkpt lat="42.4871683" lon="-7.4057617"><ele>660.0</ele><time>2026-04-14T14:11:32.893Z</time></trkpt><trkpt lat="42.4871933" lon="-7.4056183"><ele>660.0</ele><time>2026-04-14T14:11:33.893Z</time></trkpt><trkpt lat="42.4872283" lon="-7.4054817"><ele>660.0</ele><time>2026-04-14T14:11:34.894Z</time></trkpt><trkpt lat="42.48727" lon="-7.405345"><ele>658.25</ele><time>2026-04-14T14:11:35.894Z</time></trkpt><trkpt lat="42.4873183" lon="-7.4052083"><ele>656.5</ele><time>2026-04-14T14:11:36.894Z</time></trkpt><trkpt lat="42.4873767" lon="-7.4050667"><ele>654.75</ele><time>2026-04-14T14:11:37.893Z</time></trkpt><trkpt lat="42.4874333" lon="-7.4049317"><ele>653.0</ele><time>2026-04-14T14:11:38.894Z</time></trkpt><trkpt lat="42.48749" lon="-7.404795"><ele>653.0</ele><time>2026-04-14T14:11:39.894Z</time></trkpt><trkpt lat="42.487545" lon="-7.40467"><ele>653.0</ele><time>2026-04-14T14:11:40.893Z</time></trkpt><trkpt lat="42.4875983" lon="-7.4045517"><ele>653.0</ele><time>2026-04-14T14:11:41.893Z</time></trkpt><trkpt lat="42.4876533" lon="-7.4044367"><ele>653.0</ele><time>2026-04-14T14:11:42.893Z</time></trkpt><trkpt lat="42.4876967" lon="-7.4043283"><ele>653.0</ele><time>2026-04-14T14:11:43.894Z</time></trkpt><trkpt lat="42.4877283" lon="-7.4042233"><ele>653.0</ele><time>2026-04-14T14:11:44.893Z</time></trkpt><trkpt lat="42.48776" lon="-7.40413"><ele>653.0</ele><time>2026-04-14T14:11:45.893Z</time></trkpt><trkpt lat="42.48778" lon="-7.40403"><ele>653.0</ele><time>2026-04-14T14:11:46.894Z</time></trkpt><trkpt lat="42.4877983" lon="-7.403925"><ele>653.0</ele><time>2026-04-14T14:11:47.893Z</time></trkpt><trkpt lat="42.487725" lon="-7.4037917"><ele>653.0</ele><time>2026-04-14T14:11:49.894Z</time></trkpt><trkpt lat="42.4876417" lon="-7.4037383"><ele>653.0</ele><time>2026-04-14T14:11:50.894Z</time></trkpt><trkpt lat="42.4875617" lon="-7.403655"><ele>653.0</ele><time>2026-04-14T14:11:51.893Z</time></trkpt><trkpt lat="42.4875" lon="-7.4035533"><ele>653.0</ele><time>2026-04-14T14:11:52.894Z</time></trkpt><trkpt lat="42.4874767" lon="-7.403445"><ele>653.0</ele><time>2026-04-14T14:11:53.894Z</time></trkpt><trkpt lat="42.48749" lon="-7.4033283"><ele>653.0</ele><time>2026-04-14T14:11:54.893Z</time></trkpt><trkpt lat="42.4875317" lon="-7.403185"><ele>653.0</ele><time>2026-04-14T14:11:55.893Z</time></trkpt><trkpt lat="42.4875933" lon="-7.4030367"><ele>655.5</ele><time>2026-04-14T14:11:56.893Z</time></trkpt><trkpt lat="42.48766" lon="-7.4028783"><ele>658.0</ele><time>2026-04-14T14:11:57.893Z</time></trkpt><trkpt lat="42.4877217" lon="-7.402705"><ele>660.5</ele><time>2026-04-14T14:11:58.893Z</time></trkpt><trkpt lat="42.4877633" lon="-7.402545"><ele>663.0</ele><time>2026-04-14T14:11:59.893Z</time></trkpt><trkpt lat="42.487775" lon="-7.4023883"><ele>660.0</ele><time>2026-04-14T14:12:00.895Z</time></trkpt><trkpt lat="42.487165" lon="-7.4061817"><ele>660.0</ele><time>2026-04-14T14:11:29.893Z</time></trkpt><trkpt lat="42.48716" lon="-7.4060517"><ele>660.0</ele><time>2026-04-14T14:11:30.894Z</time></trkpt><trkpt lat="42.4871583" lon="-7.4059083"><ele>660.0</ele><time>2026-04-14T14:11:31.894Z</time></trkpt><trkpt lat="42.4871683" lon="-7.4057617"><ele>660.0</ele><time>2026-04-14T14:11:32.893Z</time></trkpt><trkpt lat="42.4871933" lon="-7.4056183"><ele>660.0</ele><time>2026-04-14T14:11:33.893Z</time></trkpt><trkpt lat="42.4872283" lon="-7.4054817"><ele>658.25</ele><time>2026-04-14T14:11:34.894Z</time></trkpt><trkpt lat="42.48727" lon="-7.405345"><ele>656.5</ele><time>2026-04-14T14:11:35.894Z</time></trkpt><trkpt lat="42.4873183" lon="-7.4052083"><ele>654.75</ele><time>2026-04-14T14:11:36.894Z</time></trkpt><trkpt lat="42.4873767" lon="-7.4050667"><ele>653.0</ele><time>2026-04-14T14:11:37.893Z</time></trkpt><trkpt lat="42.4874333" lon="-7.4049317"><ele>653.0</ele><time>2026-04-14T14:11:38.894Z</time></trkpt><trkpt lat="42.48749" lon="-7.404795"><ele>653.0</ele><time>2026-04-14T14:11:39.894Z</time></trkpt><trkpt lat="42.487545" lon="-7.40467"><ele>653.0</ele><time>2026-04-14T14:11:40.893Z</time></trkpt><trkpt lat="42.4875983" lon="-7.4045517"><ele>653.0</ele><time>2026-04-14T14:11:41.893Z</time></trkpt><trkpt lat="42.4876533" lon="-7.4044367"><ele>653.0</ele><time>2026-04-14T14:11:42.893Z</time></trkpt><trkpt lat="42.4876967" lon="-7.4043283"><ele>653.0</ele><time>2026-04-14T14:11:43.894Z</time></trkpt><trkpt lat="42.4877283" lon="-7.4042233"><ele>653.0</ele><time>2026-04-14T14:11:44.893Z</time></trkpt><trkpt lat="42.48776" lon="-7.40413"><ele>653.0</ele><time>2026-04-14T14:11:45.893Z</time></trkpt><trkpt lat="42.48778" lon="-7.40403"><ele>653.0</ele><time>2026-04-14T14:11:46.894Z</time></trkpt><trkpt lat="42.4877983" lon="-7.403925"><ele>653.0</ele><time>2026-04-14T14:11:47.893Z</time></trkpt><trkpt lat="42.487725" lon="-7.4037917"><ele>653.0</ele><time>2026-04-14T14:11:49.894Z</time></trkpt><trkpt lat="42.4876417" lon="-7.4037383"><ele>653.0</ele><time>2026-04-14T14:11:50.894Z</time></trkpt><trkpt lat="42.4875617" lon="-7.403655"><ele>653.0</ele><time>2026-04-14T14:11:51.893Z</time></trkpt><trkpt lat="42.4875" lon="-7.4035533"><ele>653.0</ele><time>2026-04-14T14:11:52.894Z</time></trkpt><trkpt lat="42.4874767" lon="-7.403445"><ele>653.0</ele><time>2026-04-14T14:11:53.894Z</time></trkpt><trkpt lat="42.48749" lon="-7.4033283"><ele>653.0</ele><time>2026-04-14T14:11:54.893Z</time></trkpt><trkpt lat="42.4875317" lon="-7.403185"><ele>653.0</ele><time>2026-04-14T14:11:55.893Z</time></trkpt><trkpt lat="42.4875933" lon="-7.4030367"><ele>653.0</ele><time>2026-04-14T14:11:56.893Z</time></trkpt><trkpt lat="42.48766" lon="-7.4028783"><ele>653.0</ele><time>2026-04-14T14:11:57.893Z</time></trkpt><trkpt lat="42.4877217" lon="-7.402705"><ele>653.0</ele><time>2026-04-14T14:11:58.893Z</time></trkpt><trkpt lat="42.4877633" lon="-7.402545"><ele>655.5</ele><time>2026-04-14T14:11:59.893Z</time></trkpt><trkpt lat="42.487775" lon="-7.4023883"><ele>658.0</ele><time>2026-04-14T14:12:00.895Z</time></trkpt><trkpt lat="42.4877333" lon="-7.402255"><ele>660.5</ele><time>2026-04-14T14:12:01.895Z</time></trkpt><trkpt lat="42.4876567" lon="-7.4021183"><ele>663.0</ele><time>2026-04-14T14:12:02.894Z</time></trkpt><trkpt lat="42.48757" lon="-7.4019667"><ele>665.0</ele><time>2026-04-14T14:12:03.894Z</time></trkpt><trkpt lat="42.487485" lon="-7.4018267"><ele>667.0</ele><time>2026-04-14T14:12:04.894Z</time></trkpt><trkpt lat="42.4873867" lon="-7.4016967"><ele>669.0</ele><time>2026-04-14T14:12:05.894Z</time></trkpt><trkpt lat="42.4873117" lon="-7.401565"><ele>671.0</ele><time>2026-04-14T14:12:06.894Z</time></trkpt><trkpt lat="42.487235" lon="-7.4014283"><ele>672.0</ele><time>2026-04-14T14:12:07.894Z</time></trkpt><trkpt lat="42.4871533" lon="-7.4012917"><ele>673.0</ele><time>2026-04-14T14:12:08.894Z</time></trkpt><trkpt lat="42.4870567" lon="-7.4011417"><ele>674.0</ele><time>2026-04-14T14:12:09.894Z</time></trkpt><trkpt lat="42.4869508" lon="-7.4009706"><ele>675.0</ele><time>2026-04-14T14:12:10.895Z</time></trkpt><trkpt lat="42.4868366" lon="-7.4007793"><ele>680.3333333333334</ele><time>2026-04-14T14:12:11.894Z</time></trkpt><trkpt lat="42.4867161" lon="-7.4005675"><ele>685.6666666666667</ele><time>2026-04-14T14:12:12.895Z</time></trkpt><trkpt lat="42.4865827" lon="-7.400339"><ele>691.0</ele><time>2026-04-14T14:12:13.894Z</time></trkpt><trkpt lat="42.4864521" lon="-7.4000942"><ele>691.0</ele><time>2026-04-14T14:12:14.895Z</time></trkpt><trkpt lat="42.4863262" lon="-7.3998492"><ele>691.0</ele><time>2026-04-14T14:12:15.894Z</time></trkpt><trkpt lat="42.4862104" lon="-7.399604"><ele>691.0</ele><time>2026-04-14T14:12:16.894Z</time></trkpt><trkpt lat="42.4860976" lon="-7.3993621"><ele>697.0</ele><time>2026-04-14T14:12:17.895Z</time></trkpt><trkpt lat="42.4859758" lon="-7.3991134"><ele>703.0</ele><time>2026-04-14T14:12:18.894Z</time></trkpt><trkpt lat="42.4858419" lon="-7.3988505"><ele>700.5</ele><time>2026-04-14T14:12:19.895Z</time></trkpt><trkpt lat="42.4856955" lon="-7.398584"><ele>698.0</ele><time>2026-04-14T14:12:20.894Z</time></trkpt><trkpt lat="42.4855491" lon="-7.3983156"><ele>701.5</ele><time>2026-04-14T14:12:21.895Z</time></trkpt><trkpt lat="42.4854153" lon="-7.3980585"><ele>705.0</ele><time>2026-04-14T14:12:22.894Z</time></trkpt><trkpt lat="42.4852845" lon="-7.39782"><ele>705.0</ele><time>2026-04-14T14:12:23.895Z</time></trkpt><trkpt lat="42.4851505" lon="-7.3975825"><ele>705.0</ele><time>2026-04-14T14:12:24.894Z</time></trkpt><trkpt lat="42.4850145" lon="-7.3973558"><ele>705.0</ele><time>2026-04-14T14:12:25.894Z</time></trkpt><trkpt lat="42.4848721" lon="-7.3971293"><ele>703.0</ele><time>2026-04-14T14:12:26.894Z</time></trkpt><trkpt lat="42.4847251" lon="-7.3968991"><ele>701.0</ele><time>2026-04-14T14:12:27.894Z</time></trkpt><trkpt lat="42.4845736" lon="-7.3966773"><ele>699.0</ele><time>2026-04-14T14:12:28.894Z</time></trkpt><trkpt lat="42.484421" lon="-7.3964504"><ele>700.6666666666666</ele><time>2026-04-14T14:12:29.894Z</time></trkpt><trkpt lat="42.4842708" lon="-7.3962257"><ele>702.3333333333333</ele><time>2026-04-14T14:12:30.895Z</time></trkpt><trkpt lat="42.4841349" lon="-7.3960229"><ele>704.0</ele><time>2026-04-14T14:12:31.895Z</time></trkpt><trkpt lat="42.4840161" lon="-7.3958347"><ele>704.0</ele><time>2026-04-14T14:12:32.895Z</time></trkpt><trkpt lat="42.4839198" lon="-7.395658"><ele>704.0</ele><time>2026-04-14T14:12:33.895Z</time></trkpt><trkpt lat="42.4838378" lon="-7.3955038"><ele>704.0</ele><time>2026-04-14T14:12:34.895Z</time></trkpt><trkpt lat="42.4837677" lon="-7.3953756"><ele>704.0</ele><time>2026-04-14T14:12:35.895Z</time></trkpt><trkpt lat="42.4837193" lon="-7.3952675"><ele>703.4000000000001</ele><time>2026-04-14T14:12:36.894Z</time></trkpt><trkpt lat="42.4836983" lon="-7.395184"><ele>702.8</ele><time>2026-04-14T14:12:37.894Z</time></trkpt><trkpt lat="42.4837385" lon="-7.3950313"><ele>702.2</ele><time>2026-04-14T14:12:39.895Z</time></trkpt><trkpt lat="42.4838139" lon="-7.3949681"><ele>701.5999999999999</ele><time>2026-04-14T14:12:40.894Z</time></trkpt><trkpt lat="42.48391" lon="-7.3949123"><ele>701.0</ele><time>2026-04-14T14:12:41.894Z</time></trkpt><trkpt lat="42.4839875" lon="-7.3948528"><ele>700.0</ele><time>2026-04-14T14:12:42.895Z</time></trkpt><trkpt lat="42.4840322" lon="-7.3947824"><ele>699.0</ele><time>2026-04-14T14:12:43.894Z</time></trkpt><trkpt lat="42.4840614" lon="-7.3946806"><ele>698.0</ele><time>2026-04-14T14:12:44.894Z</time></trkpt><trkpt lat="42.4840638" lon="-7.3945589"><ele>697.0</ele><time>2026-04-14T14:12:45.895Z</time></trkpt><trkpt lat="42.4840192" lon="-7.3944113"><ele>696.0</ele><time>2026-04-14T14:12:46.894Z</time></trkpt><trkpt lat="42.4839964" lon="-7.3942487"><ele>695.0</ele><time>2026-04-14T14:12:47.895Z</time></trkpt><trkpt lat="42.4839893" lon="-7.3940737"><ele>694.0</ele><time>2026-04-14T14:12:48.895Z</time></trkpt><trkpt lat="42.4839991" lon="-7.3938811"><ele>693.0</ele><time>2026-04-14T14:12:49.895Z</time></trkpt><trkpt lat="42.484016" lon="-7.3936772"><ele>692.0</ele><time>2026-04-14T14:12:50.894Z</time></trkpt><trkpt lat="42.484032" lon="-7.3934638"><ele>692.0</ele><time>2026-04-14T14:12:51.894Z</time></trkpt><trkpt lat="42.4840382" lon="-7.3932512"><ele>692.0</ele><time>2026-04-14T14:12:52.895Z</time></trkpt><trkpt lat="42.4840333" lon="-7.3930383"><ele>692.0</ele><time>2026-04-14T14:12:53.894Z</time></trkpt><trkpt lat="42.4840084" lon="-7.3928096"><ele>693.3333333333333</ele><time>2026-04-14T14:12:54.895Z</time></trkpt><trkpt lat="42.4839746" lon="-7.3925539"><ele>694.6666666666666</ele><time>2026-04-14T14:12:55.894Z</time></trkpt><trkpt lat="42.4839502" lon="-7.3922988"><ele>696.0</ele><time>2026-04-14T14:12:56.894Z</time></trkpt><trkpt lat="42.4839509" lon="-7.3920613"><ele>696.3333333333334</ele><time>2026-04-14T14:12:57.894Z</time></trkpt><trkpt lat="42.4839667" lon="-7.391846"><ele>696.6666666666667</ele><time>2026-04-14T14:12:58.895Z</time></trkpt><trkpt lat="42.4839817" lon="-7.391637"><ele>697.0</ele><time>2026-04-14T14:12:59.894Z</time></trkpt><trkpt lat="42.4839852" lon="-7.3914263"><ele>696.3333333333334</ele><time>2026-04-14T14:13:00.894Z</time></trkpt><trkpt lat="42.4839776" lon="-7.39121"><ele>695.6666666666666</ele><time>2026-04-14T14:13:01.894Z</time></trkpt><trkpt lat="42.4839613" lon="-7.3909742"><ele>695.0</ele><time>2026-04-14T14:13:02.895Z</time></trkpt><trkpt lat="42.4839342" lon="-7.390725"><ele>694.6666666666666</ele><time>2026-04-14T14:13:03.895Z</time></trkpt><trkpt lat="42.4838985" lon="-7.390486"><ele>694.3333333333334</ele><time>2026-04-14T14:13:04.894Z</time></trkpt><trkpt lat="42.4838725" lon="-7.3902612"><ele>694.0</ele><time>2026-04-14T14:13:05.894Z</time></trkpt><trkpt lat="42.4838634" lon="-7.3900354"><ele>694.0</ele><time>2026-04-14T14:13:06.894Z</time></trkpt><trkpt lat="42.4838829" lon="-7.389805"><ele>694.0</ele><time>2026-04-14T14:13:07.895Z</time></trkpt><trkpt lat="42.4839238" lon="-7.3895741"><ele>694.0</ele><time>2026-04-14T14:13:08.894Z</time></trkpt><trkpt lat="42.4839644" lon="-7.3893538"><ele>693.3333333333334</ele><time>2026-04-14T14:13:09.895Z</time></trkpt><trkpt lat="42.483993" lon="-7.3891391"><ele>692.6666666666666</ele><time>2026-04-14T14:13:10.895Z</time></trkpt><trkpt lat="42.4840009" lon="-7.388931"><ele>692.0</ele><time>2026-04-14T14:13:11.894Z</time></trkpt><trkpt lat="42.4839753" lon="-7.3887295"><ele>691.6666666666666</ele><time>2026-04-14T14:13:12.894Z</time></trkpt><trkpt lat="42.4839102" lon="-7.3885476"><ele>691.3333333333334</ele><time>2026-04-14T14:13:13.894Z</time></trkpt><trkpt lat="42.4838291" lon="-7.3883644"><ele>691.0</ele><time>2026-04-14T14:13:14.894Z</time></trkpt><trkpt lat="42.4837361" lon="-7.3881801"><ele>696.3333333333334</ele><time>2026-04-14T14:13:15.895Z</time></trkpt><trkpt lat="42.4836343" lon="-7.3879899"><ele>701.6666666666666</ele><time>2026-04-14T14:13:16.895Z</time></trkpt><trkpt lat="42.4835303" lon="-7.387794"><ele>707.0</ele><time>2026-04-14T14:13:17.894Z</time></trkpt><trkpt lat="42.483421" lon="-7.3875801"><ele>707.0</ele><time>2026-04-14T14:13:18.895Z</time></trkpt><trkpt lat="42.4833072" lon="-7.3873532"><ele>707.0</ele><time>2026-04-14T14:13:19.894Z</time></trkpt><trkpt lat="42.4831915" lon="-7.3871168"><ele>707.0</ele><time>2026-04-14T14:13:20.894Z</time></trkpt><trkpt lat="42.4830676" lon="-7.3868761"><ele>705.6666666666666</ele><time>2026-04-14T14:13:21.895Z</time></trkpt><trkpt lat="42.4829417" lon="-7.3866265"><ele>704.3333333333334</ele><time>2026-04-14T14:13:22.894Z</time></trkpt><trkpt lat="42.482832" lon="-7.3863684"><ele>703.0</ele><time>2026-04-14T14:13:23.894Z</time></trkpt><trkpt lat="42.4827579" lon="-7.3860995"><ele>707.3333333333334</ele><time>2026-04-14T14:13:24.894Z</time></trkpt><trkpt lat="42.4827096" lon="-7.3858321"><ele>711.6666666666666</ele><time>2026-04-14T14:13:25.895Z</time></trkpt><trkpt lat="42.4826825" lon="-7.3855685"><ele>716.0</ele><time>2026-04-14T14:13:26.894Z</time></trkpt><trkpt lat="42.4826658" lon="-7.385325"><ele>716.75</ele><time>2026-04-14T14:13:27.894Z</time></trkpt><trkpt lat="42.4826546" lon="-7.3851139"><ele>717.5</ele><time>2026-04-14T14:13:28.894Z</time></trkpt><trkpt lat="42.4826474" lon="-7.3849384"><ele>718.25</ele><time>2026-04-14T14:13:29.895Z</time></trkpt><trkpt lat="42.4826521" lon="-7.3847978"><ele>719.0</ele><time>2026-04-14T14:13:30.895Z</time></trkpt><trkpt lat="42.4826627" lon="-7.384699"><ele>719.75</ele><time>2026-04-14T14:13:31.894Z</time></trkpt><trkpt lat="42.4827156" lon="-7.3845924"><ele>720.5</ele><time>2026-04-14T14:13:33.895Z</time></trkpt><trkpt lat="42.4828699" lon="-7.3845878"><ele>721.25</ele><time>2026-04-14T14:13:35.894Z</time></trkpt><trkpt lat="42.4829965" lon="-7.3845805"><ele>722.0</ele><time>2026-04-14T14:13:36.894Z</time></trkpt><trkpt lat="42.4831591" lon="-7.3845337"><ele>723.0</ele><time>2026-04-14T14:13:37.895Z</time></trkpt><trkpt lat="42.4833368" lon="-7.3844502"><ele>724.0</ele><time>2026-04-14T14:13:38.895Z</time></trkpt><trkpt lat="42.4835215" lon="-7.3843508"><ele>725.0</ele><time>2026-04-14T14:13:39.894Z</time></trkpt><trkpt lat="42.4837144" lon="-7.3842464"><ele>727.3333333333333</ele><time>2026-04-14T14:13:40.894Z</time></trkpt><trkpt lat="42.4839114" lon="-7.3841506"><ele>729.6666666666666</ele><time>2026-04-14T14:13:41.894Z</time></trkpt><trkpt lat="42.4841006" lon="-7.3840784"><ele>732.0</ele><time>2026-04-14T14:13:42.895Z</time></trkpt><trkpt lat="42.4842762" lon="-7.3840231"><ele>732.0</ele><time>2026-04-14T14:13:43.895Z</time></trkpt><trkpt lat="42.4844262" lon="-7.3839589"><ele>732.0</ele><time>2026-04-14T14:13:44.894Z</time></trkpt><trkpt lat="42.4845505" lon="-7.383873"><ele>732.0</ele><time>2026-04-14T14:13:45.895Z</time></trkpt><trkpt lat="42.4846526" lon="-7.3837545"><ele>732.0</ele><time>2026-04-14T14:13:46.894Z</time></trkpt><trkpt lat="42.4847478" lon="-7.3835889"><ele>734.3333333333334</ele><time>2026-04-14T14:13:47.895Z</time></trkpt><trkpt lat="42.4848423" lon="-7.3833894"><ele>736.6666666666667</ele><time>2026-04-14T14:13:48.895Z</time></trkpt><trkpt lat="42.4849404" lon="-7.3831859"><ele>739.0</ele><time>2026-04-14T14:13:49.895Z</time></trkpt><trkpt lat="42.4850286" lon="-7.3829939"><ele>740.0</ele><time>2026-04-14T14:13:50.894Z</time></trkpt><trkpt lat="42.485104" lon="-7.3827947"><ele>741.0</ele><time>2026-04-14T14:13:51.894Z</time></trkpt><trkpt lat="42.4851708" lon="-7.3825833"><ele>742.0</ele><time>2026-04-14T14:13:52.895Z</time></trkpt><trkpt lat="42.4852416" lon="-7.3823678"><ele>743.3333333333334</ele><time>2026-04-14T14:13:53.894Z</time></trkpt><trkpt lat="42.4853132" lon="-7.382144"><ele>744.6666666666666</ele><time>2026-04-14T14:13:54.894Z</time></trkpt><trkpt lat="42.4853852" lon="-7.381903"><ele>746.0</ele><time>2026-04-14T14:13:55.895Z</time></trkpt><trkpt lat="42.485463" lon="-7.3816516"><ele>746.0</ele><time>2026-04-14T14:13:56.895Z</time></trkpt><trkpt lat="42.485556" lon="-7.3813862"><ele>746.0</ele><time>2026-04-14T14:13:57.895Z</time></trkpt><trkpt lat="42.4856484" lon="-7.381116"><ele>746.0</ele><time>2026-04-14T14:13:58.895Z</time></trkpt><trkpt lat="42.4857506" lon="-7.3808434"><ele>747.5</ele><time>2026-04-14T14:13:59.894Z</time></trkpt><trkpt lat="42.4858651" lon="-7.3805746"><ele>749.0</ele><time>2026-04-14T14:14:00.895Z</time></trkpt><trkpt lat="42.4859962" lon="-7.3803018"><ele>750.0</ele><time>2026-04-14T14:14:01.894Z</time></trkpt><trkpt lat="42.4861418" lon="-7.3800298"><ele>751.0</ele><time>2026-04-14T14:14:02.894Z</time></trkpt><trkpt lat="42.4862835" lon="-7.3797798"><ele>751.0</ele><time>2026-04-14T14:14:03.894Z</time></trkpt><trkpt lat="42.4864137" lon="-7.379551"><ele>751.0</ele><time>2026-04-14T14:14:04.895Z</time></trkpt><trkpt lat="42.4865286" lon="-7.3793609"><ele>751.0</ele><time>2026-04-14T14:14:05.894Z</time></trkpt><trkpt lat="42.4866272" lon="-7.3792153"><ele>719.0</ele><time>2026-04-14T14:14:06.894Z</time></trkpt><trkpt lat="42.4826521" lon="-7.3847978"><ele>719.0</ele><time>2026-04-14T14:13:30.895Z</time></trkpt><trkpt lat="42.4826627" lon="-7.384699"><ele>719.0</ele><time>2026-04-14T14:13:31.894Z</time></trkpt><trkpt lat="42.4827156" lon="-7.3845924"><ele>719.0</ele><time>2026-04-14T14:13:33.895Z</time></trkpt><trkpt lat="42.4828699" lon="-7.3845878"><ele>719.0</ele><time>2026-04-14T14:13:35.894Z</time></trkpt><trkpt lat="42.4829965" lon="-7.3845805"><ele>719.0</ele><time>2026-04-14T14:13:36.894Z</time></trkpt><trkpt lat="42.4831591" lon="-7.3845337"><ele>721.0</ele><time>2026-04-14T14:13:37.895Z</time></trkpt><trkpt lat="42.4833368" lon="-7.3844502"><ele>723.0</ele><time>2026-04-14T14:13:38.895Z</time></trkpt><trkpt lat="42.4835215" lon="-7.3843508"><ele>725.0</ele><time>2026-04-14T14:13:39.894Z</time></trkpt><trkpt lat="42.4837144" lon="-7.3842464"><ele>727.3333333333333</ele><time>2026-04-14T14:13:40.894Z</time></trkpt><trkpt lat="42.4839114" lon="-7.3841506"><ele>729.6666666666666</ele><time>2026-04-14T14:13:41.894Z</time></trkpt><trkpt lat="42.4841006" lon="-7.3840784"><ele>732.0</ele><time>2026-04-14T14:13:42.895Z</time></trkpt><trkpt lat="42.4842762" lon="-7.3840231"><ele>732.0</ele><time>2026-04-14T14:13:43.895Z</time></trkpt><trkpt lat="42.4844262" lon="-7.3839589"><ele>732.0</ele><time>2026-04-14T14:13:44.894Z</time></trkpt><trkpt lat="42.4845505" lon="-7.383873"><ele>732.0</ele><time>2026-04-14T14:13:45.895Z</time></trkpt><trkpt lat="42.4846526" lon="-7.3837545"><ele>732.0</ele><time>2026-04-14T14:13:46.894Z</time></trkpt><trkpt lat="42.4847478" lon="-7.3835889"><ele>734.3333333333334</ele><time>2026-04-14T14:13:47.895Z</time></trkpt><trkpt lat="42.4848423" lon="-7.3833894"><ele>736.6666666666667</ele><time>2026-04-14T14:13:48.895Z</time></trkpt><trkpt lat="42.4849404" lon="-7.3831859"><ele>739.0</ele><time>2026-04-14T14:13:49.895Z</time></trkpt><trkpt lat="42.4850286" lon="-7.3829939"><ele>740.0</ele><time>2026-04-14T14:13:50.894Z</time></trkpt><trkpt lat="42.485104" lon="-7.3827947"><ele>741.0</ele><time>2026-04-14T14:13:51.894Z</time></trkpt><trkpt lat="42.4851708" lon="-7.3825833"><ele>742.0</ele><time>2026-04-14T14:13:52.895Z</time></trkpt><trkpt lat="42.4852416" lon="-7.3823678"><ele>743.3333333333334</ele><time>2026-04-14T14:13:53.894Z</time></trkpt><trkpt lat="42.4853132" lon="-7.382144"><ele>744.6666666666666</ele><time>2026-04-14T14:13:54.894Z</time></trkpt><trkpt lat="42.4853852" lon="-7.381903"><ele>746.0</ele><time>2026-04-14T14:13:55.895Z</time></trkpt><trkpt lat="42.485463" lon="-7.3816516"><ele>746.0</ele><time>2026-04-14T14:13:56.895Z</time></trkpt><trkpt lat="42.485556" lon="-7.3813862"><ele>746.0</ele><time>2026-04-14T14:13:57.895Z</time></trkpt><trkpt lat="42.4856484" lon="-7.381116"><ele>746.0</ele><time>2026-04-14T14:13:58.895Z</time></trkpt><trkpt lat="42.4857506" lon="-7.3808434"><ele>747.5</ele><time>2026-04-14T14:13:59.894Z</time></trkpt><trkpt lat="42.4858651" lon="-7.3805746"><ele>749.0</ele><time>2026-04-14T14:14:00.895Z</time></trkpt><trkpt lat="42.4859962" lon="-7.3803018"><ele>750.0</ele><time>2026-04-14T14:14:01.894Z</time></trkpt><trkpt lat="42.4861418" lon="-7.3800298"><ele>751.0</ele><time>2026-04-14T14:14:02.894Z</time></trkpt><trkpt lat="42.4862835" lon="-7.3797798"><ele>751.0</ele><time>2026-04-14T14:14:03.894Z</time></trkpt><trkpt lat="42.4864137" lon="-7.379551"><ele>751.0</ele><time>2026-04-14T14:14:04.895Z</time></trkpt><trkpt lat="42.4865286" lon="-7.3793609"><ele>751.0</ele><time>2026-04-14T14:14:05.894Z</time></trkpt><trkpt lat="42.4866272" lon="-7.3792153"><ele>751.0</ele><time>2026-04-14T14:14:06.894Z</time></trkpt><trkpt lat="42.4867302" lon="-7.3791092"><ele>751.0</ele><time>2026-04-14T14:14:07.894Z</time></trkpt><trkpt lat="42.4868566" lon="-7.3790094"><ele>751.0</ele><time>2026-04-14T14:14:08.894Z</time></trkpt><trkpt lat="42.4869999" lon="-7.3789053"><ele>751.0</ele><time>2026-04-14T14:14:09.894Z</time></trkpt><trkpt lat="42.4871573" lon="-7.3787838"><ele>751.3333333333334</ele><time>2026-04-14T14:14:10.895Z</time></trkpt><trkpt lat="42.487314" lon="-7.3786537"><ele>751.6666666666666</ele><time>2026-04-14T14:14:11.895Z</time></trkpt><trkpt lat="42.4874527" lon="-7.3785101"><ele>752.0</ele><time>2026-04-14T14:14:12.895Z</time></trkpt><trkpt lat="42.4875651" lon="-7.3783668"><ele>752.0</ele><time>2026-04-14T14:14:13.894Z</time></trkpt><trkpt lat="42.4876498" lon="-7.3782162"><ele>752.0</ele><time>2026-04-14T14:14:14.894Z</time></trkpt><trkpt lat="42.4876777" lon="-7.3780463"><ele>752.0</ele><time>2026-04-14T14:14:15.894Z</time></trkpt><trkpt lat="42.4877113" lon="-7.3778709"><ele>752.0</ele><time>2026-04-14T14:14:16.894Z</time></trkpt><trkpt lat="42.4877738" lon="-7.3777157"><ele>754.0</ele><time>2026-04-14T14:14:17.895Z</time></trkpt><trkpt lat="42.4878566" lon="-7.3776109"><ele>756.0</ele><time>2026-04-14T14:14:18.895Z</time></trkpt><trkpt lat="42.4879554" lon="-7.377562"><ele>758.0</ele><time>2026-04-14T14:14:19.894Z</time></trkpt><trkpt lat="42.4880853" lon="-7.3775475"><ele>760.0</ele><time>2026-04-14T14:14:20.895Z</time></trkpt><trkpt lat="42.4882531" lon="-7.3775431"><ele>760.0</ele><time>2026-04-14T14:14:21.894Z</time></trkpt><trkpt lat="42.4884444" lon="-7.3775284"><ele>760.0</ele><time>2026-04-14T14:14:22.894Z</time></trkpt><trkpt lat="42.4886522" lon="-7.3775141"><ele>760.0</ele><time>2026-04-14T14:14:23.895Z</time></trkpt><trkpt lat="42.4888809" lon="-7.3775057"><ele>762.5</ele><time>2026-04-14T14:14:24.894Z</time></trkpt><trkpt lat="42.4891182" lon="-7.3775023"><ele>765.0</ele><time>2026-04-14T14:14:25.894Z</time></trkpt><trkpt lat="42.4893458" lon="-7.377495"><ele>765.0</ele><time>2026-04-14T14:14:26.894Z</time></trkpt><trkpt lat="42.4895728" lon="-7.377497"><ele>765.0</ele><time>2026-04-14T14:14:27.895Z</time></trkpt><trkpt lat="42.4897753" lon="-7.3775439"><ele>765.0</ele><time>2026-04-14T14:14:28.895Z</time></trkpt><trkpt lat="42.4899754" lon="-7.3776145"><ele>767.3333333333333</ele><time>2026-04-14T14:14:29.894Z</time></trkpt><trkpt lat="42.490183" lon="-7.3776835"><ele>769.6666666666666</ele><time>2026-04-14T14:14:30.894Z</time></trkpt><trkpt lat="42.4903895" lon="-7.377746"><ele>772.0</ele><time>2026-04-14T14:14:31.895Z</time></trkpt><trkpt lat="42.4905953" lon="-7.3778075"><ele>772.6666666666666</ele><time>2026-04-14T14:14:32.895Z</time></trkpt><trkpt lat="42.4907941" lon="-7.3778705"><ele>773.3333333333333</ele><time>2026-04-14T14:14:33.894Z</time></trkpt><trkpt lat="42.4909689" lon="-7.3779081"><ele>774.0</ele><time>2026-04-14T14:14:34.895Z</time></trkpt><trkpt lat="42.4911383" lon="-7.3779118"><ele>774.6666666666667</ele><time>2026-04-14T14:14:35.895Z</time></trkpt><trkpt lat="42.4912901" lon="-7.3778649"><ele>775.3333333333334</ele><time>2026-04-14T14:14:36.895Z</time></trkpt><trkpt lat="42.4914397" lon="-7.3778061"><ele>776.0</ele><time>2026-04-14T14:14:37.894Z</time></trkpt><trkpt lat="42.4915903" lon="-7.377745"><ele>776.0</ele><time>2026-04-14T14:14:38.894Z</time></trkpt><trkpt lat="42.4917349" lon="-7.3776984"><ele>776.0</ele><time>2026-04-14T14:14:39.895Z</time></trkpt><trkpt lat="42.4918735" lon="-7.377681"><ele>776.0</ele><time>2026-04-14T14:14:40.894Z</time></trkpt><trkpt lat="42.4920119" lon="-7.377703"><ele>776.0</ele><time>2026-04-14T14:14:41.895Z</time></trkpt><trkpt lat="42.4921439" lon="-7.3777563"><ele>775.0</ele><time>2026-04-14T14:14:42.894Z</time></trkpt><trkpt lat="42.4922801" lon="-7.3778452"><ele>774.0</ele><time>2026-04-14T14:14:43.894Z</time></trkpt><trkpt lat="42.4924276" lon="-7.3779571"><ele>773.0</ele><time>2026-04-14T14:14:44.894Z</time></trkpt><trkpt lat="42.4925921" lon="-7.3780622"><ele>770.6666666666667</ele><time>2026-04-14T14:14:45.894Z</time></trkpt><trkpt lat="42.4927746" lon="-7.3781454"><ele>768.3333333333334</ele><time>2026-04-14T14:14:46.894Z</time></trkpt><trkpt lat="42.4929753" lon="-7.3782019"><ele>766.0</ele><time>2026-04-14T14:14:47.894Z</time></trkpt><trkpt lat="42.4931856" lon="-7.3782254"><ele>765.0</ele><time>2026-04-14T14:14:48.894Z</time></trkpt><trkpt lat="42.4933852" lon="-7.3782177"><ele>764.0</ele><time>2026-04-14T14:14:49.894Z</time></trkpt><trkpt lat="42.4935769" lon="-7.3781877"><ele>763.0</ele><time>2026-04-14T14:14:50.895Z</time></trkpt><trkpt lat="42.4937432" lon="-7.3781441"><ele>761.25</ele><time>2026-04-14T14:14:51.894Z</time></trkpt><trkpt lat="42.4938849" lon="-7.3780758"><ele>759.5</ele><time>2026-04-14T14:14:52.895Z</time></trkpt><trkpt lat="42.4940064" lon="-7.3779913"><ele>757.75</ele><time>2026-04-14T14:14:53.895Z</time></trkpt><trkpt lat="42.4940913" lon="-7.3779014"><ele>756.0</ele><time>2026-04-14T14:14:54.895Z</time></trkpt><trkpt lat="42.4941472" lon="-7.377813"><ele>755.1999999999999</ele><time>2026-04-14T14:14:55.895Z</time></trkpt><trkpt lat="42.4941781" lon="-7.3777219"><ele>754.4</ele><time>2026-04-14T14:14:56.894Z</time></trkpt><trkpt lat="42.4941925" lon="-7.3776091"><ele>753.6</ele><time>2026-04-14T14:14:57.895Z</time></trkpt><trkpt lat="42.4941875" lon="-7.3774644"><ele>752.8</ele><time>2026-04-14T14:14:58.895Z</time></trkpt><trkpt lat="42.4941739" lon="-7.3772914"><ele>752.0</ele><time>2026-04-14T14:14:59.895Z</time></trkpt><trkpt lat="42.4941695" lon="-7.3771087"><ele>751.25</ele><time>2026-04-14T14:15:00.895Z</time></trkpt><trkpt lat="42.4941749" lon="-7.3769205"><ele>750.5</ele><time>2026-04-14T14:15:01.895Z</time></trkpt><trkpt lat="42.4942052" lon="-7.3767436"><ele>749.75</ele><time>2026-04-14T14:15:02.895Z</time></trkpt><trkpt lat="42.4942436" lon="-7.3765802"><ele>749.0</ele><time>2026-04-14T14:15:03.894Z</time></trkpt><trkpt lat="42.4942667" lon="-7.3764244"><ele>747.2</ele><time>2026-04-14T14:15:04.894Z</time></trkpt><trkpt lat="42.4942675" lon="-7.3762783"><ele>745.4000000000001</ele><time>2026-04-14T14:15:05.894Z</time></trkpt><trkpt lat="42.4942384" lon="-7.3761431"><ele>743.6</ele><time>2026-04-14T14:15:06.894Z</time></trkpt><trkpt lat="42.494208" lon="-7.3760281"><ele>741.8</ele><time>2026-04-14T14:15:07.894Z</time></trkpt><trkpt lat="42.4941979" lon="-7.3759335"><ele>740.0</ele><time>2026-04-14T14:15:08.895Z</time></trkpt><trkpt lat="42.4942345" lon="-7.3758342"><ele>740.0</ele><time>2026-04-14T14:15:10.895Z</time></trkpt><trkpt lat="42.4943728" lon="-7.3758782"><ele>740.0</ele><time>2026-04-14T14:15:12.895Z</time></trkpt><trkpt lat="42.4944803" lon="-7.3759509"><ele>740.0</ele><time>2026-04-14T14:15:13.895Z</time></trkpt><trkpt lat="42.4945961" lon="-7.3760476"><ele>740.0</ele><time>2026-04-14T14:15:14.894Z</time></trkpt><trkpt lat="42.4947423" lon="-7.3761692"><ele>738.6666666666666</ele><time>2026-04-14T14:15:15.895Z</time></trkpt><trkpt lat="42.4949286" lon="-7.3762933"><ele>737.3333333333334</ele><time>2026-04-14T14:15:16.894Z</time></trkpt><trkpt lat="42.4951169" lon="-7.3763986"><ele>736.0</ele><time>2026-04-14T14:15:17.895Z</time></trkpt><trkpt lat="42.4953124" lon="-7.3764761"><ele>733.0</ele><time>2026-04-14T14:15:18.894Z</time></trkpt><trkpt lat="42.4955262" lon="-7.3765265"><ele>730.0</ele><time>2026-04-14T14:15:19.895Z</time></trkpt><trkpt lat="42.4957529" lon="-7.3765516"><ele>727.0</ele><time>2026-04-14T14:15:20.894Z</time></trkpt><trkpt lat="42.4959826" lon="-7.3765806"><ele>727.0</ele><time>2026-04-14T14:15:21.894Z</time></trkpt><trkpt lat="42.4962182" lon="-7.3766151"><ele>727.0</ele><time>2026-04-14T14:15:22.895Z</time></trkpt><trkpt lat="42.4964643" lon="-7.376655"><ele>724.0</ele><time>2026-04-14T14:15:23.894Z</time></trkpt><trkpt lat="42.4967185" lon="-7.3766967"><ele>721.0</ele><time>2026-04-14T14:15:24.895Z</time></trkpt><trkpt lat="42.4969659" lon="-7.3767464"><ele>718.0</ele><time>2026-04-14T14:15:25.894Z</time></trkpt><trkpt lat="42.4972068" lon="-7.3767896"><ele>715.0</ele><time>2026-04-14T14:15:26.895Z</time></trkpt><trkpt lat="42.4974366" lon="-7.3768247"><ele>715.0</ele><time>2026-04-14T14:15:27.894Z</time></trkpt><trkpt lat="42.4976648" lon="-7.3768582"><ele>715.0</ele><time>2026-04-14T14:15:28.894Z</time></trkpt><trkpt lat="42.497887" lon="-7.3768918"><ele>712.3333333333334</ele><time>2026-04-14T14:15:29.894Z</time></trkpt><trkpt lat="42.4981048" lon="-7.376938"><ele>709.6666666666666</ele><time>2026-04-14T14:15:30.894Z</time></trkpt><trkpt lat="42.4983312" lon="-7.3769808"><ele>707.0</ele><time>2026-04-14T14:15:31.894Z</time></trkpt><trkpt lat="42.498574" lon="-7.3770269"><ele>702.5</ele><time>2026-04-14T14:15:32.894Z</time></trkpt><trkpt lat="42.4988273" lon="-7.377088"><ele>698.0</ele><time>2026-04-14T14:15:33.894Z</time></trkpt><trkpt lat="42.4990925" lon="-7.3771379"><ele>749.0</ele><time>2026-04-14T14:15:34.894Z</time></trkpt><trkpt lat="42.4942436" lon="-7.3765802"><ele>749.0</ele><time>2026-04-14T14:15:03.894Z</time></trkpt><trkpt lat="42.4942667" lon="-7.3764244"><ele>749.0</ele><time>2026-04-14T14:15:04.894Z</time></trkpt><trkpt lat="42.4942675" lon="-7.3762783"><ele>749.0</ele><time>2026-04-14T14:15:05.894Z</time></trkpt><trkpt lat="42.4942384" lon="-7.3761431"><ele>749.0</ele><time>2026-04-14T14:15:06.894Z</time></trkpt><trkpt lat="42.494208" lon="-7.3760281"><ele>749.0</ele><time>2026-04-14T14:15:07.894Z</time></trkpt><trkpt lat="42.4941979" lon="-7.3759335"><ele>746.75</ele><time>2026-04-14T14:15:08.895Z</time></trkpt><trkpt lat="42.4942345" lon="-7.3758342"><ele>744.5</ele><time>2026-04-14T14:15:10.895Z</time></trkpt><trkpt lat="42.4943728" lon="-7.3758782"><ele>742.25</ele><time>2026-04-14T14:15:12.895Z</time></trkpt><trkpt lat="42.4944803" lon="-7.3759509"><ele>740.0</ele><time>2026-04-14T14:15:13.895Z</time></trkpt><trkpt lat="42.4945961" lon="-7.3760476"><ele>738.6666666666666</ele><time>2026-04-14T14:15:14.894Z</time></trkpt><trkpt lat="42.4947423" lon="-7.3761692"><ele>737.3333333333334</ele><time>2026-04-14T14:15:15.895Z</time></trkpt><trkpt lat="42.4949286" lon="-7.3762933"><ele>736.0</ele><time>2026-04-14T14:15:16.894Z</time></trkpt><trkpt lat="42.4951169" lon="-7.3763986"><ele>736.0</ele><time>2026-04-14T14:15:17.895Z</time></trkpt><trkpt lat="42.4953124" lon="-7.3764761"><ele>736.0</ele><time>2026-04-14T14:15:18.894Z</time></trkpt><trkpt lat="42.4955262" lon="-7.3765265"><ele>736.0</ele><time>2026-04-14T14:15:19.895Z</time></trkpt><trkpt lat="42.4957529" lon="-7.3765516"><ele>731.5</ele><time>2026-04-14T14:15:20.894Z</time></trkpt><trkpt lat="42.4959826" lon="-7.3765806"><ele>727.0</ele><time>2026-04-14T14:15:21.894Z</time></trkpt><trkpt lat="42.4962182" lon="-7.3766151"><ele>724.0</ele><time>2026-04-14T14:15:22.895Z</time></trkpt><trkpt lat="42.4964643" lon="-7.376655"><ele>721.0</ele><time>2026-04-14T14:15:23.894Z</time></trkpt><trkpt lat="42.4967185" lon="-7.3766967"><ele>721.0</ele><time>2026-04-14T14:15:24.895Z</time></trkpt><trkpt lat="42.4969659" lon="-7.3767464"><ele>721.0</ele><time>2026-04-14T14:15:25.894Z</time></trkpt><trkpt lat="42.4972068" lon="-7.3767896"><ele>718.0</ele><time>2026-04-14T14:15:26.895Z</time></trkpt><trkpt lat="42.4974366" lon="-7.3768247"><ele>715.0</ele><time>2026-04-14T14:15:27.894Z</time></trkpt><trkpt lat="42.4976648" lon="-7.3768582"><ele>715.0</ele><time>2026-04-14T14:15:28.894Z</time></trkpt><trkpt lat="42.497887" lon="-7.3768918"><ele>715.0</ele><time>2026-04-14T14:15:29.894Z</time></trkpt><trkpt lat="42.4981048" lon="-7.376938"><ele>715.0</ele><time>2026-04-14T14:15:30.894Z</time></trkpt><trkpt lat="42.4983312" lon="-7.3769808"><ele>711.0</ele><time>2026-04-14T14:15:31.894Z</time></trkpt><trkpt lat="42.498574" lon="-7.3770269"><ele>707.0</ele><time>2026-04-14T14:15:32.894Z</time></trkpt><trkpt lat="42.4988273" lon="-7.377088"><ele>702.5</ele><time>2026-04-14T14:15:33.894Z</time></trkpt><trkpt lat="42.4990925" lon="-7.3771379"><ele>698.0</ele><time>2026-04-14T14:15:34.894Z</time></trkpt><trkpt lat="42.4993678" lon="-7.3771814"><ele>694.5</ele><time>2026-04-14T14:15:35.894Z</time></trkpt><trkpt lat="42.4996168" lon="-7.3772126"><ele>691.0</ele><time>2026-04-14T14:15:36.894Z</time></trkpt><trkpt lat="42.4998343" lon="-7.3772422"><ele>691.0</ele><time>2026-04-14T14:15:37.894Z</time></trkpt><trkpt lat="42.5000209" lon="-7.3772785"><ele>691.0</ele><time>2026-04-14T14:15:38.894Z</time></trkpt><trkpt lat="42.5001709" lon="-7.3773337"><ele>691.0</ele><time>2026-04-14T14:15:39.894Z</time></trkpt><trkpt lat="42.5002894" lon="-7.3774135"><ele>691.0</ele><time>2026-04-14T14:15:40.895Z</time></trkpt><trkpt lat="42.5003879" lon="-7.3775344"><ele>691.0</ele><time>2026-04-14T14:15:41.894Z</time></trkpt><trkpt lat="42.5004719" lon="-7.3776904"><ele>691.0</ele><time>2026-04-14T14:15:42.894Z</time></trkpt><trkpt lat="42.5005537" lon="-7.3778862"><ele>691.0</ele><time>2026-04-14T14:15:43.894Z</time></trkpt><trkpt lat="42.5006396" lon="-7.3781111"><ele>690.3333333333334</ele><time>2026-04-14T14:15:44.894Z</time></trkpt><trkpt lat="42.5007287" lon="-7.3783603"><ele>689.6666666666666</ele><time>2026-04-14T14:15:45.894Z</time></trkpt><trkpt lat="42.5008186" lon="-7.3786306"><ele>689.0</ele><time>2026-04-14T14:15:46.894Z</time></trkpt><trkpt lat="42.5009229" lon="-7.3789091"><ele>685.5</ele><time>2026-04-14T14:15:47.894Z</time></trkpt><trkpt lat="42.5010472" lon="-7.3791943"><ele>682.0</ele><time>2026-04-14T14:15:48.894Z</time></trkpt><trkpt lat="42.5011932" lon="-7.3794785"><ele>681.5</ele><time>2026-04-14T14:15:49.894Z</time></trkpt><trkpt lat="42.501347" lon="-7.3797593"><ele>681.0</ele><time>2026-04-14T14:15:50.895Z</time></trkpt><trkpt lat="42.501511" lon="-7.3800209"><ele>681.0</ele><time>2026-04-14T14:15:51.894Z</time></trkpt><trkpt lat="42.501683" lon="-7.3802719"><ele>681.0</ele><time>2026-04-14T14:15:52.895Z</time></trkpt><trkpt lat="42.5018503" lon="-7.3805215"><ele>680.0</ele><time>2026-04-14T14:15:53.894Z</time></trkpt><trkpt lat="42.5020006" lon="-7.3807673"><ele>679.0</ele><time>2026-04-14T14:15:54.894Z</time></trkpt><trkpt lat="42.5021379" lon="-7.3810051"><ele>679.0</ele><time>2026-04-14T14:15:55.895Z</time></trkpt><trkpt lat="42.5022692" lon="-7.3812507"><ele>679.0</ele><time>2026-04-14T14:15:56.895Z</time></trkpt><trkpt lat="42.5024059" lon="-7.3815127"><ele>672.5</ele><time>2026-04-14T14:15:57.894Z</time></trkpt><trkpt lat="42.5025454" lon="-7.3817828"><ele>666.0</ele><time>2026-04-14T14:15:58.895Z</time></trkpt><trkpt lat="42.5027103" lon="-7.3820625"><ele>665.0</ele><time>2026-04-14T14:15:59.894Z</time></trkpt><trkpt lat="42.5029006" lon="-7.3823439"><ele>664.0</ele><time>2026-04-14T14:16:00.895Z</time></trkpt><trkpt lat="42.5030971" lon="-7.382624"><ele>664.0</ele><time>2026-04-14T14:16:01.894Z</time></trkpt><trkpt lat="42.5033025" lon="-7.3828859"><ele>664.0</ele><time>2026-04-14T14:16:02.894Z</time></trkpt><trkpt lat="42.5035193" lon="-7.383122"><ele>660.5</ele><time>2026-04-14T14:16:03.895Z</time></trkpt><trkpt lat="42.503733" lon="-7.3833542"><ele>657.0</ele><time>2026-04-14T14:16:04.894Z</time></trkpt><trkpt lat="42.5039397" lon="-7.3835877"><ele>657.0</ele><time>2026-04-14T14:16:05.895Z</time></trkpt><trkpt lat="42.504134" lon="-7.3838182"><ele>657.0</ele><time>2026-04-14T14:16:06.894Z</time></trkpt><trkpt lat="42.5042983" lon="-7.3840417"><ele>656.0</ele><time>2026-04-14T14:16:07.894Z</time></trkpt><trkpt lat="42.5044467" lon="-7.38428"><ele>655.0</ele><time>2026-04-14T14:16:08.894Z</time></trkpt><trkpt lat="42.5045933" lon="-7.3845233"><ele>647.5</ele><time>2026-04-14T14:16:09.895Z</time></trkpt><trkpt lat="42.50476" lon="-7.3847683"><ele>640.0</ele><time>2026-04-14T14:16:10.894Z</time></trkpt><trkpt lat="42.5049483" lon="-7.3850217"><ele>640.0</ele><time>2026-04-14T14:16:11.895Z</time></trkpt><trkpt lat="42.50517" lon="-7.38526"><ele>640.0</ele><time>2026-04-14T14:16:12.894Z</time></trkpt><trkpt lat="42.5053883" lon="-7.3854783"><ele>635.0</ele><time>2026-04-14T14:16:13.894Z</time></trkpt><trkpt lat="42.5055917" lon="-7.38568"><ele>630.0</ele><time>2026-04-14T14:16:14.894Z</time></trkpt><trkpt lat="42.50577" lon="-7.3858567"><ele>630.0</ele><time>2026-04-14T14:16:15.894Z</time></trkpt><trkpt lat="42.5059633" lon="-7.3860083"><ele>630.0</ele><time>2026-04-14T14:16:16.894Z</time></trkpt><trkpt lat="42.5061717" lon="-7.38613"><ele>631.5</ele><time>2026-04-14T14:16:17.894Z</time></trkpt><trkpt lat="42.50639" lon="-7.3862383"><ele>633.0</ele><time>2026-04-14T14:16:18.895Z</time></trkpt><trkpt lat="42.5066317" lon="-7.3863433"><ele>625.5</ele><time>2026-04-14T14:16:19.894Z</time></trkpt><trkpt lat="42.5068783" lon="-7.38645"><ele>618.0</ele><time>2026-04-14T14:16:20.894Z</time></trkpt><trkpt lat="42.50712" lon="-7.3865533"><ele>618.0</ele><time>2026-04-14T14:16:21.894Z</time></trkpt><trkpt lat="42.5073533" lon="-7.3866633"><ele>618.0</ele><time>2026-04-14T14:16:22.894Z</time></trkpt><trkpt lat="42.5075667" lon="-7.3867767"><ele>618.0</ele><time>2026-04-14T14:16:23.894Z</time></trkpt><trkpt lat="42.5077667" lon="-7.3869017"><ele>618.0</ele><time>2026-04-14T14:16:24.894Z</time></trkpt><trkpt lat="42.5079567" lon="-7.3870533"><ele>618.0</ele><time>2026-04-14T14:16:25.894Z</time></trkpt><trkpt lat="42.5081383" lon="-7.38726"><ele>611.0</ele><time>2026-04-14T14:16:26.894Z</time></trkpt><trkpt lat="42.5083483" lon="-7.38748"><ele>604.0</ele><time>2026-04-14T14:16:27.894Z</time></trkpt><trkpt lat="42.50856" lon="-7.387735"><ele>600.0</ele><time>2026-04-14T14:16:28.895Z</time></trkpt><trkpt lat="42.5087883" lon="-7.3879917"><ele>596.0</ele><time>2026-04-14T14:16:29.894Z</time></trkpt><trkpt lat="42.50901" lon="-7.3882367"><ele>596.0</ele><time>2026-04-14T14:16:30.895Z</time></trkpt><trkpt lat="42.5092117" lon="-7.3884717"><ele>596.0</ele><time>2026-04-14T14:16:31.895Z</time></trkpt><trkpt lat="42.50939" lon="-7.3886883"><ele>592.5</ele><time>2026-04-14T14:16:32.894Z</time></trkpt><trkpt lat="42.5095483" lon="-7.3889133"><ele>589.0</ele><time>2026-04-14T14:16:33.895Z</time></trkpt><trkpt lat="42.5097067" lon="-7.3891367"><ele>589.0</ele><time>2026-04-14T14:16:34.895Z</time></trkpt><trkpt lat="42.5098517" lon="-7.3893383"><ele>589.0</ele><time>2026-04-14T14:16:35.894Z</time></trkpt><trkpt lat="42.5099983" lon="-7.3895217"><ele>589.0</ele><time>2026-04-14T14:16:36.895Z</time></trkpt><trkpt lat="42.5101533" lon="-7.3896933"><ele>585.3333333333334</ele><time>2026-04-14T14:16:37.894Z</time></trkpt><trkpt lat="42.5103267" lon="-7.3898583"><ele>581.6666666666666</ele><time>2026-04-14T14:16:38.894Z</time></trkpt><trkpt lat="42.5105067" lon="-7.390005"><ele>578.0</ele><time>2026-04-14T14:16:39.895Z</time></trkpt><trkpt lat="42.51067" lon="-7.3901317"><ele>578.0</ele><time>2026-04-14T14:16:40.894Z</time></trkpt><trkpt lat="42.5108417" lon="-7.3902383"><ele>578.0</ele><time>2026-04-14T14:16:41.894Z</time></trkpt><trkpt lat="42.51103" lon="-7.3903333"><ele>578.0</ele><time>2026-04-14T14:16:42.895Z</time></trkpt><trkpt lat="42.5112167" lon="-7.3904033"><ele>577.0</ele><time>2026-04-14T14:16:43.894Z</time></trkpt><trkpt lat="42.5114033" lon="-7.3904433"><ele>576.0</ele><time>2026-04-14T14:16:44.895Z</time></trkpt><trkpt lat="42.511605" lon="-7.390455"><ele>575.0</ele><time>2026-04-14T14:16:45.894Z</time></trkpt><trkpt lat="42.5118367" lon="-7.39046"><ele>575.0</ele><time>2026-04-14T14:16:46.895Z</time></trkpt><trkpt lat="42.5120683" lon="-7.39046"><ele>575.0</ele><time>2026-04-14T14:16:47.894Z</time></trkpt><trkpt lat="42.5122833" lon="-7.3904617"><ele>575.0</ele><time>2026-04-14T14:16:48.895Z</time></trkpt><trkpt lat="42.512485" lon="-7.3904717"><ele>572.6666666666666</ele><time>2026-04-14T14:16:49.894Z</time></trkpt><trkpt lat="42.5126733" lon="-7.3904983"><ele>570.3333333333334</ele><time>2026-04-14T14:16:50.895Z</time></trkpt><trkpt lat="42.5128483" lon="-7.3905333"><ele>568.0</ele><time>2026-04-14T14:16:51.894Z</time></trkpt><trkpt lat="42.5130333" lon="-7.3906067"><ele>562.3333333333334</ele><time>2026-04-14T14:16:52.894Z</time></trkpt><trkpt lat="42.5132383" lon="-7.3906917"><ele>556.6666666666666</ele><time>2026-04-14T14:16:53.894Z</time></trkpt><trkpt lat="42.5134417" lon="-7.3907767"><ele>551.0</ele><time>2026-04-14T14:16:54.895Z</time></trkpt><trkpt lat="42.5136483" lon="-7.3908817"><ele>549.0</ele><time>2026-04-14T14:16:55.894Z</time></trkpt><trkpt lat="42.513825" lon="-7.3909717"><ele>547.0</ele><time>2026-04-14T14:16:56.894Z</time></trkpt><trkpt lat="42.51398" lon="-7.391045"><ele>545.0</ele><time>2026-04-14T14:16:57.895Z</time></trkpt><trkpt lat="42.514105" lon="-7.39114"><ele>545.0</ele><time>2026-04-14T14:16:58.894Z</time></trkpt><trkpt lat="42.5142" lon="-7.391215"><ele>545.0</ele><time>2026-04-14T14:16:59.894Z</time></trkpt><trkpt lat="42.51427" lon="-7.3913"><ele>545.0</ele><time>2026-04-14T14:17:00.894Z</time></trkpt><trkpt lat="42.51432" lon="-7.391405"><ele>545.0</ele><time>2026-04-14T14:17:01.895Z</time></trkpt><trkpt lat="42.5143417" lon="-7.39152"><ele>545.0</ele><time>2026-04-14T14:17:02.894Z</time></trkpt><trkpt lat="42.5092117" lon="-7.3884717"><ele>562.5</ele><time>2026-04-14T14:16:31.895Z</time></trkpt><trkpt lat="42.50939" lon="-7.3886883"><ele>580.0</ele><time>2026-04-14T14:16:32.894Z</time></trkpt><trkpt lat="42.5095483" lon="-7.3889133"><ele>583.0</ele><time>2026-04-14T14:16:33.895Z</time></trkpt><trkpt lat="42.5097067" lon="-7.3891367"><ele>586.0</ele><time>2026-04-14T14:16:34.895Z</time></trkpt><trkpt lat="42.5098517" lon="-7.3893383"><ele>589.0</ele><time>2026-04-14T14:16:35.894Z</time></trkpt><trkpt lat="42.5099983" lon="-7.3895217"><ele>585.3333333333334</ele><time>2026-04-14T14:16:36.895Z</time></trkpt><trkpt lat="42.5101533" lon="-7.3896933"><ele>581.6666666666666</ele><time>2026-04-14T14:16:37.894Z</time></trkpt><trkpt lat="42.5103267" lon="-7.3898583"><ele>578.0</ele><time>2026-04-14T14:16:38.894Z</time></trkpt><trkpt lat="42.5105067" lon="-7.390005"><ele>578.0</ele><time>2026-04-14T14:16:39.895Z</time></trkpt><trkpt lat="42.51067" lon="-7.3901317"><ele>578.0</ele><time>2026-04-14T14:16:40.894Z</time></trkpt><trkpt lat="42.5108417" lon="-7.3902383"><ele>578.0</ele><time>2026-04-14T14:16:41.894Z</time></trkpt><trkpt lat="42.51103" lon="-7.3903333"><ele>578.0</ele><time>2026-04-14T14:16:42.895Z</time></trkpt><trkpt lat="42.5112167" lon="-7.3904033"><ele>578.0</ele><time>2026-04-14T14:16:43.894Z</time></trkpt><trkpt lat="42.5114033" lon="-7.3904433"><ele>578.0</ele><time>2026-04-14T14:16:44.895Z</time></trkpt><trkpt lat="42.511605" lon="-7.390455"><ele>576.5</ele><time>2026-04-14T14:16:45.894Z</time></trkpt><trkpt lat="42.5118367" lon="-7.39046"><ele>575.0</ele><time>2026-04-14T14:16:46.895Z</time></trkpt><trkpt lat="42.5120683" lon="-7.39046"><ele>572.6666666666666</ele><time>2026-04-14T14:16:47.894Z</time></trkpt><trkpt lat="42.5122833" lon="-7.3904617"><ele>570.3333333333334</ele><time>2026-04-14T14:16:48.895Z</time></trkpt><trkpt lat="42.512485" lon="-7.3904717"><ele>568.0</ele><time>2026-04-14T14:16:49.894Z</time></trkpt><trkpt lat="42.5126733" lon="-7.3904983"><ele>564.0</ele><time>2026-04-14T14:16:50.895Z</time></trkpt><trkpt lat="42.5128483" lon="-7.3905333"><ele>560.0</ele><time>2026-04-14T14:16:51.894Z</time></trkpt><trkpt lat="42.5130333" lon="-7.3906067"><ele>556.0</ele><time>2026-04-14T14:16:52.894Z</time></trkpt><trkpt lat="42.5132383" lon="-7.3906917"><ele>554.3333333333334</ele><time>2026-04-14T14:16:53.894Z</time></trkpt><trkpt lat="42.5134417" lon="-7.3907767"><ele>552.6666666666666</ele><time>2026-04-14T14:16:54.895Z</time></trkpt><trkpt lat="42.5136483" lon="-7.3908817"><ele>551.0</ele><time>2026-04-14T14:16:55.894Z</time></trkpt><trkpt lat="42.513825" lon="-7.3909717"><ele>549.5</ele><time>2026-04-14T14:16:56.894Z</time></trkpt><trkpt lat="42.51398" lon="-7.391045"><ele>548.0</ele><time>2026-04-14T14:16:57.895Z</time></trkpt><trkpt lat="42.514105" lon="-7.39114"><ele>546.5</ele><time>2026-04-14T14:16:58.894Z</time></trkpt><trkpt lat="42.5142" lon="-7.391215"><ele>545.0</ele><time>2026-04-14T14:16:59.894Z</time></trkpt><trkpt lat="42.51427" lon="-7.3913"><ele>545.2</ele><time>2026-04-14T14:17:00.894Z</time></trkpt><trkpt lat="42.51432" lon="-7.391405"><ele>545.4</ele><time>2026-04-14T14:17:01.895Z</time></trkpt><trkpt lat="42.5143417" lon="-7.39152"><ele>545.6</ele><time>2026-04-14T14:17:02.894Z</time></trkpt><trkpt lat="42.51434" lon="-7.3916717"><ele>545.8</ele><time>2026-04-14T14:17:03.894Z</time></trkpt><trkpt lat="42.5143267" lon="-7.3918483"><ele>546.0</ele><time>2026-04-14T14:17:04.895Z</time></trkpt><trkpt lat="42.5143067" lon="-7.3920483"><ele>547.6666666666666</ele><time>2026-04-14T14:17:05.894Z</time></trkpt><trkpt lat="42.5142883" lon="-7.392255"><ele>549.3333333333333</ele><time>2026-04-14T14:17:06.895Z</time></trkpt><trkpt lat="42.5142717" lon="-7.3924633"><ele>551.0</ele><time>2026-04-14T14:17:07.895Z</time></trkpt><trkpt lat="42.51426" lon="-7.3926667"><ele>551.0</ele><time>2026-04-14T14:17:08.895Z</time></trkpt><trkpt lat="42.5142567" lon="-7.3928867"><ele>551.0</ele><time>2026-04-14T14:17:09.894Z</time></trkpt><trkpt lat="42.5142567" lon="-7.39311"><ele>551.0</ele><time>2026-04-14T14:17:10.895Z</time></trkpt><trkpt lat="42.5142583" lon="-7.393325"><ele>551.3333333333333</ele><time>2026-04-14T14:17:11.894Z</time></trkpt><trkpt lat="42.5142583" lon="-7.3935467"><ele>551.6666666666666</ele><time>2026-04-14T14:17:12.895Z</time></trkpt><trkpt lat="42.5142717" lon="-7.39378"><ele>552.0</ele><time>2026-04-14T14:17:13.895Z</time></trkpt><trkpt lat="42.5142733" lon="-7.39401"><ele>553.3333333333334</ele><time>2026-04-14T14:17:14.895Z</time></trkpt><trkpt lat="42.51427" lon="-7.394235"><ele>554.6666666666667</ele><time>2026-04-14T14:17:15.895Z</time></trkpt><trkpt lat="42.5142317" lon="-7.3944317"><ele>556.0</ele><time>2026-04-14T14:17:16.894Z</time></trkpt><trkpt lat="42.5141833" lon="-7.3946133"><ele>557.3333333333334</ele><time>2026-04-14T14:17:17.895Z</time></trkpt><trkpt lat="42.5141067" lon="-7.39479"><ele>558.6666666666666</ele><time>2026-04-14T14:17:18.894Z</time></trkpt><trkpt lat="42.5140333" lon="-7.3949867"><ele>560.0</ele><time>2026-04-14T14:17:19.894Z</time></trkpt><trkpt lat="42.513975" lon="-7.3951667"><ele>560.0</ele><time>2026-04-14T14:17:20.895Z</time></trkpt><trkpt lat="42.513935" lon="-7.395285"><ele>560.0</ele><time>2026-04-14T14:17:21.894Z</time></trkpt><trkpt lat="42.5139017" lon="-7.39536"><ele>560.0</ele><time>2026-04-14T14:17:22.894Z</time></trkpt><trkpt lat="42.5139167" lon="-7.3954483"><ele>560.0</ele><time>2026-04-14T14:17:25.895Z</time></trkpt><trkpt lat="42.513995" lon="-7.3954"><ele>560.0</ele><time>2026-04-14T14:17:27.895Z</time></trkpt><trkpt lat="42.5140483" lon="-7.395325"><ele>560.0</ele><time>2026-04-14T14:17:28.895Z</time></trkpt><trkpt lat="42.5141183" lon="-7.3952217"><ele>560.0</ele><time>2026-04-14T14:17:29.895Z</time></trkpt><trkpt lat="42.5141967" lon="-7.395115"><ele>560.0</ele><time>2026-04-14T14:17:30.894Z</time></trkpt><trkpt lat="42.5142867" lon="-7.3950017"><ele>560.0</ele><time>2026-04-14T14:17:31.894Z</time></trkpt><trkpt lat="42.5143717" lon="-7.3948867"><ele>560.0</ele><time>2026-04-14T14:17:32.895Z</time></trkpt><trkpt lat="42.5144617" lon="-7.394765"><ele>559.0</ele><time>2026-04-14T14:17:33.894Z</time></trkpt><trkpt lat="42.5145467" lon="-7.3946417"><ele>558.0</ele><time>2026-04-14T14:17:34.894Z</time></trkpt><trkpt lat="42.5146317" lon="-7.39451"><ele>557.0</ele><time>2026-04-14T14:17:35.894Z</time></trkpt><trkpt lat="42.51472" lon="-7.3943733"><ele>556.0</ele><time>2026-04-14T14:17:36.895Z</time></trkpt><trkpt lat="42.51482" lon="-7.3942333"><ele>559.5</ele><time>2026-04-14T14:17:37.895Z</time></trkpt><trkpt lat="42.5149133" lon="-7.3940983"><ele>563.0</ele><time>2026-04-14T14:17:38.894Z</time></trkpt><trkpt lat="42.515005" lon="-7.3939683"><ele>566.5</ele><time>2026-04-14T14:17:39.895Z</time></trkpt><trkpt lat="42.5150967" lon="-7.3938417"><ele>570.0</ele><time>2026-04-14T14:17:40.895Z</time></trkpt><trkpt lat="42.51519" lon="-7.3937217"><ele>570.0</ele><time>2026-04-14T14:17:41.894Z</time></trkpt><trkpt lat="42.5152933" lon="-7.3935917"><ele>570.0</ele><time>2026-04-14T14:17:42.895Z</time></trkpt><trkpt lat="42.5153833" lon="-7.393465"><ele>570.0</ele><time>2026-04-14T14:17:43.894Z</time></trkpt><trkpt lat="42.515475" lon="-7.39336"><ele>570.0</ele><time>2026-04-14T14:17:44.894Z</time></trkpt><trkpt lat="42.515575" lon="-7.3932517"><ele>569.75</ele><time>2026-04-14T14:17:45.894Z</time></trkpt><trkpt lat="42.51568" lon="-7.39315"><ele>569.5</ele><time>2026-04-14T14:17:46.894Z</time></trkpt><trkpt lat="42.5157983" lon="-7.3930467"><ele>569.25</ele><time>2026-04-14T14:17:47.895Z</time></trkpt><trkpt lat="42.5159183" lon="-7.3929483"><ele>569.0</ele><time>2026-04-14T14:17:48.895Z</time></trkpt><trkpt lat="42.5160417" lon="-7.3928417"><ele>569.0</ele><time>2026-04-14T14:17:49.895Z</time></trkpt><trkpt lat="42.516155" lon="-7.3927267"><ele>569.0</ele><time>2026-04-14T14:17:50.895Z</time></trkpt><trkpt lat="42.5162767" lon="-7.3926117"><ele>569.0</ele><time>2026-04-14T14:17:51.895Z</time></trkpt><trkpt lat="42.5164033" lon="-7.392505"><ele>569.0</ele><time>2026-04-14T14:17:52.894Z</time></trkpt><trkpt lat="42.5165283" lon="-7.3924067"><ele>570.75</ele><time>2026-04-14T14:17:53.894Z</time></trkpt><trkpt lat="42.51665" lon="-7.3923183"><ele>572.5</ele><time>2026-04-14T14:17:54.894Z</time></trkpt><trkpt lat="42.51678" lon="-7.3922283"><ele>574.25</ele><time>2026-04-14T14:17:55.895Z</time></trkpt><trkpt lat="42.5168817" lon="-7.3921617"><ele>576.0</ele><time>2026-04-14T14:17:56.894Z</time></trkpt><trkpt lat="42.51695" lon="-7.39212"><ele>576.2</ele><time>2026-04-14T14:17:57.895Z</time></trkpt><trkpt lat="42.5170183" lon="-7.3921317"><ele>576.4000000000001</ele><time>2026-04-14T14:18:00.895Z</time></trkpt><trkpt lat="42.51708" lon="-7.3922183"><ele>576.6</ele><time>2026-04-14T14:18:02.895Z</time></trkpt><trkpt lat="42.5171733" lon="-7.3923367"><ele>576.8000000000001</ele><time>2026-04-14T14:18:04.894Z</time></trkpt><trkpt lat="42.5172533" lon="-7.3924"><ele>577.0</ele><time>2026-04-14T14:18:05.895Z</time></trkpt><trkpt lat="42.51736" lon="-7.3924717"><ele>577.0</ele><time>2026-04-14T14:18:06.894Z</time></trkpt><trkpt lat="42.5174983" lon="-7.392545"><ele>577.0</ele><time>2026-04-14T14:18:07.895Z</time></trkpt><trkpt lat="42.5176467" lon="-7.3926267"><ele>577.0</ele><time>2026-04-14T14:18:08.894Z</time></trkpt><trkpt lat="42.51781" lon="-7.3927267"><ele>575.6666666666667</ele><time>2026-04-14T14:18:09.894Z</time></trkpt><trkpt lat="42.5179683" lon="-7.3928283"><ele>574.3333333333334</ele><time>2026-04-14T14:18:10.894Z</time></trkpt><trkpt lat="42.5181067" lon="-7.39293"><ele>573.0</ele><time>2026-04-14T14:18:11.894Z</time></trkpt><trkpt lat="42.5182317" lon="-7.393025"><ele>577.75</ele><time>2026-04-14T14:18:12.895Z</time></trkpt><trkpt lat="42.51834" lon="-7.3931283"><ele>582.5</ele><time>2026-04-14T14:18:13.895Z</time></trkpt><trkpt lat="42.5184333" lon="-7.393245"><ele>587.25</ele><time>2026-04-14T14:18:14.895Z</time></trkpt><trkpt lat="42.51852" lon="-7.3933767"><ele>592.0</ele><time>2026-04-14T14:18:15.894Z</time></trkpt><trkpt lat="42.5185917" lon="-7.393515"><ele>592.0</ele><time>2026-04-14T14:18:16.894Z</time></trkpt><trkpt lat="42.5186567" lon="-7.3936667"><ele>592.0</ele><time>2026-04-14T14:18:17.895Z</time></trkpt><trkpt lat="42.5187233" lon="-7.39382"><ele>592.0</ele><time>2026-04-14T14:18:18.895Z</time></trkpt><trkpt lat="42.5187933" lon="-7.393985"><ele>592.0</ele><time>2026-04-14T14:18:19.894Z</time></trkpt><trkpt lat="42.5188533" lon="-7.39415"><ele>592.5</ele><time>2026-04-14T14:18:20.895Z</time></trkpt><trkpt lat="42.5189267" lon="-7.3943233"><ele>593.0</ele><time>2026-04-14T14:18:21.895Z</time></trkpt><trkpt lat="42.5189917" lon="-7.39451"><ele>593.5</ele><time>2026-04-14T14:18:22.895Z</time></trkpt><trkpt lat="42.5190467" lon="-7.3946983"><ele>594.0</ele><time>2026-04-14T14:18:23.894Z</time></trkpt><trkpt lat="42.5190733" lon="-7.3948833"><ele>597.3333333333334</ele><time>2026-04-14T14:18:24.894Z</time></trkpt><trkpt lat="42.5190767" lon="-7.3950817"><ele>600.6666666666667</ele><time>2026-04-14T14:18:25.894Z</time></trkpt><trkpt lat="42.5190717" lon="-7.39529"><ele>604.0</ele><time>2026-04-14T14:18:26.895Z</time></trkpt><trkpt lat="42.5190583" lon="-7.39551"><ele>606.6666666666667</ele><time>2026-04-14T14:18:27.895Z</time></trkpt><trkpt lat="42.519055" lon="-7.3957367"><ele>609.3333333333334</ele><time>2026-04-14T14:18:28.894Z</time></trkpt><trkpt lat="42.51906" lon="-7.3959383"><ele>612.0</ele><time>2026-04-14T14:18:29.894Z</time></trkpt><trkpt lat="42.5190767" lon="-7.3961283"><ele>559.0</ele><time>2026-04-14T14:18:30.894Z</time></trkpt><trkpt lat="42.5170183" lon="-7.3921317"><ele>562.6</ele><time>2026-04-14T14:18:00.895Z</time></trkpt><trkpt lat="42.51708" lon="-7.3922183"><ele>566.2</ele><time>2026-04-14T14:18:02.895Z</time></trkpt><trkpt lat="42.5171733" lon="-7.3923367"><ele>569.8000000000001</ele><time>2026-04-14T14:18:04.894Z</time></trkpt><trkpt lat="42.5172533" lon="-7.3924"><ele>573.4</ele><time>2026-04-14T14:18:05.895Z</time></trkpt><trkpt lat="42.51736" lon="-7.3924717"><ele>577.0</ele><time>2026-04-14T14:18:06.894Z</time></trkpt><trkpt lat="42.5174983" lon="-7.392545"><ele>577.0</ele><time>2026-04-14T14:18:07.895Z</time></trkpt><trkpt lat="42.5176467" lon="-7.3926267"><ele>577.0</ele><time>2026-04-14T14:18:08.894Z</time></trkpt><trkpt lat="42.51781" lon="-7.3927267"><ele>577.0</ele><time>2026-04-14T14:18:09.894Z</time></trkpt><trkpt lat="42.5179683" lon="-7.3928283"><ele>576.0</ele><time>2026-04-14T14:18:10.894Z</time></trkpt><trkpt lat="42.5181067" lon="-7.39293"><ele>575.0</ele><time>2026-04-14T14:18:11.894Z</time></trkpt><trkpt lat="42.5182317" lon="-7.393025"><ele>574.0</ele><time>2026-04-14T14:18:12.895Z</time></trkpt><trkpt lat="42.51834" lon="-7.3931283"><ele>573.0</ele><time>2026-04-14T14:18:13.895Z</time></trkpt><trkpt lat="42.5184333" lon="-7.393245"><ele>577.75</ele><time>2026-04-14T14:18:14.895Z</time></trkpt><trkpt lat="42.51852" lon="-7.3933767"><ele>582.5</ele><time>2026-04-14T14:18:15.894Z</time></trkpt><trkpt lat="42.5185917" lon="-7.393515"><ele>587.25</ele><time>2026-04-14T14:18:16.894Z</time></trkpt><trkpt lat="42.5186567" lon="-7.3936667"><ele>592.0</ele><time>2026-04-14T14:18:17.895Z</time></trkpt><trkpt lat="42.5187233" lon="-7.39382"><ele>592.5</ele><time>2026-04-14T14:18:18.895Z</time></trkpt><trkpt lat="42.5187933" lon="-7.393985"><ele>593.0</ele><time>2026-04-14T14:18:19.894Z</time></trkpt><trkpt lat="42.5188533" lon="-7.39415"><ele>593.5</ele><time>2026-04-14T14:18:20.895Z</time></trkpt><trkpt lat="42.5189267" lon="-7.3943233"><ele>594.0</ele><time>2026-04-14T14:18:21.895Z</time></trkpt><trkpt lat="42.5189917" lon="-7.39451"><ele>596.5</ele><time>2026-04-14T14:18:22.895Z</time></trkpt><trkpt lat="42.5190467" lon="-7.3946983"><ele>599.0</ele><time>2026-04-14T14:18:23.894Z</time></trkpt><trkpt lat="42.5190733" lon="-7.3948833"><ele>601.5</ele><time>2026-04-14T14:18:24.894Z</time></trkpt><trkpt lat="42.5190767" lon="-7.3950817"><ele>604.0</ele><time>2026-04-14T14:18:25.894Z</time></trkpt><trkpt lat="42.5190717" lon="-7.39529"><ele>606.6666666666667</ele><time>2026-04-14T14:18:26.895Z</time></trkpt><trkpt lat="42.5190583" lon="-7.39551"><ele>609.3333333333334</ele><time>2026-04-14T14:18:27.895Z</time></trkpt><trkpt lat="42.519055" lon="-7.3957367"><ele>612.0</ele><time>2026-04-14T14:18:28.894Z</time></trkpt><trkpt lat="42.51906" lon="-7.3959383"><ele>612.0</ele><time>2026-04-14T14:18:29.894Z</time></trkpt><trkpt lat="42.5190767" lon="-7.3961283"><ele>612.0</ele><time>2026-04-14T14:18:30.894Z</time></trkpt><trkpt lat="42.5190917" lon="-7.3963183"><ele>612.0</ele><time>2026-04-14T14:18:31.895Z</time></trkpt><trkpt lat="42.51912" lon="-7.3965"><ele>612.0</ele><time>2026-04-14T14:18:32.894Z</time></trkpt><trkpt lat="42.5191683" lon="-7.3966933"><ele>613.3333333333334</ele><time>2026-04-14T14:18:33.894Z</time></trkpt><trkpt lat="42.5192283" lon="-7.3969017"><ele>614.6666666666667</ele><time>2026-04-14T14:18:34.894Z</time></trkpt><trkpt lat="42.5193" lon="-7.3971"><ele>616.0</ele><time>2026-04-14T14:18:35.894Z</time></trkpt><trkpt lat="42.5193667" lon="-7.3973017"><ele>616.5</ele><time>2026-04-14T14:18:36.895Z</time></trkpt><trkpt lat="42.519425" lon="-7.3974883"><ele>617.0</ele><time>2026-04-14T14:18:37.894Z</time></trkpt><trkpt lat="42.5194867" lon="-7.3976567"><ele>617.5</ele><time>2026-04-14T14:18:38.895Z</time></trkpt><trkpt lat="42.51955" lon="-7.3978067"><ele>618.0</ele><time>2026-04-14T14:18:39.894Z</time></trkpt><trkpt lat="42.5196083" lon="-7.3979617"><ele>613.75</ele><time>2026-04-14T14:18:40.894Z</time></trkpt><trkpt lat="42.5196533" lon="-7.3980967"><ele>609.5</ele><time>2026-04-14T14:18:41.894Z</time></trkpt><trkpt lat="42.5197033" lon="-7.39823"><ele>605.25</ele><time>2026-04-14T14:18:42.894Z</time></trkpt><trkpt lat="42.5197783" lon="-7.39836"><ele>601.0</ele><time>2026-04-14T14:18:43.895Z</time></trkpt><trkpt lat="42.51988" lon="-7.3984833"><ele>601.0</ele><time>2026-04-14T14:18:44.895Z</time></trkpt><trkpt lat="42.5200083" lon="-7.3985917"><ele>601.0</ele><time>2026-04-14T14:18:45.894Z</time></trkpt><trkpt lat="42.5201567" lon="-7.398695"><ele>601.0</ele><time>2026-04-14T14:18:46.894Z</time></trkpt><trkpt lat="42.520295" lon="-7.3987983"><ele>598.0</ele><time>2026-04-14T14:18:47.895Z</time></trkpt><trkpt lat="42.52041" lon="-7.39888"><ele>595.0</ele><time>2026-04-14T14:18:48.894Z</time></trkpt><trkpt lat="42.5205067" lon="-7.3989317"><ele>592.0</ele><time>2026-04-14T14:18:49.894Z</time></trkpt><trkpt lat="42.5205817" lon="-7.3989483"><ele>589.0</ele><time>2026-04-14T14:18:50.895Z</time></trkpt><trkpt lat="42.5206783" lon="-7.398925"><ele>586.0</ele><time>2026-04-14T14:18:52.894Z</time></trkpt><trkpt lat="42.5207867" lon="-7.3989483"><ele>586.0</ele><time>2026-04-14T14:18:54.894Z</time></trkpt><trkpt lat="42.520855" lon="-7.3989883"><ele>586.0</ele><time>2026-04-14T14:18:55.895Z</time></trkpt><trkpt lat="42.520935" lon="-7.39905"><ele>586.0</ele><time>2026-04-14T14:18:56.894Z</time></trkpt><trkpt lat="42.521035" lon="-7.39916"><ele>586.0</ele><time>2026-04-14T14:18:57.894Z</time></trkpt><trkpt lat="42.5211633" lon="-7.399295"><ele>583.0</ele><time>2026-04-14T14:18:58.894Z</time></trkpt><trkpt lat="42.5212917" lon="-7.39943"><ele>580.0</ele><time>2026-04-14T14:18:59.895Z</time></trkpt><trkpt lat="42.521415" lon="-7.3995517"><ele>577.0</ele><time>2026-04-14T14:19:00.894Z</time></trkpt><trkpt lat="42.5215317" lon="-7.39967"><ele>577.0</ele><time>2026-04-14T14:19:01.895Z</time></trkpt><trkpt lat="42.521645" lon="-7.3997917"><ele>577.0</ele><time>2026-04-14T14:19:02.895Z</time></trkpt><trkpt lat="42.5217517" lon="-7.399895"><ele>577.0</ele><time>2026-04-14T14:19:03.895Z</time></trkpt><trkpt lat="42.5218483" lon="-7.4000033"><ele>577.0</ele><time>2026-04-14T14:19:04.895Z</time></trkpt><trkpt lat="42.52194" lon="-7.4001117"><ele>577.0</ele><time>2026-04-14T14:19:05.894Z</time></trkpt><trkpt lat="42.522035" lon="-7.4002233"><ele>577.0</ele><time>2026-04-14T14:19:06.894Z</time></trkpt><trkpt lat="42.5221517" lon="-7.4003217"><ele>577.0</ele><time>2026-04-14T14:19:07.894Z</time></trkpt><trkpt lat="42.522275" lon="-7.4004183"><ele>577.0</ele><time>2026-04-14T14:19:08.894Z</time></trkpt><trkpt lat="42.5224083" lon="-7.4005167"><ele>576.0</ele><time>2026-04-14T14:19:09.894Z</time></trkpt><trkpt lat="42.522535" lon="-7.40062"><ele>575.0</ele><time>2026-04-14T14:19:10.894Z</time></trkpt><trkpt lat="42.5226617" lon="-7.4007233"><ele>574.0</ele><time>2026-04-14T14:19:11.895Z</time></trkpt><trkpt lat="42.5227817" lon="-7.4008283"><ele>573.0</ele><time>2026-04-14T14:19:12.894Z</time></trkpt><trkpt lat="42.5229" lon="-7.4009483"><ele>571.6666666666666</ele><time>2026-04-14T14:19:13.894Z</time></trkpt><trkpt lat="42.523015" lon="-7.4010617"><ele>570.3333333333333</ele><time>2026-04-14T14:19:14.894Z</time></trkpt><trkpt lat="42.5231367" lon="-7.4012017"><ele>569.0</ele><time>2026-04-14T14:19:15.894Z</time></trkpt><trkpt lat="42.52326" lon="-7.40134"><ele>568.25</ele><time>2026-04-14T14:19:16.895Z</time></trkpt><trkpt lat="42.52336" lon="-7.4014733"><ele>567.5</ele><time>2026-04-14T14:19:17.895Z</time></trkpt><trkpt lat="42.52346" lon="-7.4015933"><ele>566.75</ele><time>2026-04-14T14:19:18.894Z</time></trkpt><trkpt lat="42.5235517" lon="-7.4017033"><ele>566.0</ele><time>2026-04-14T14:19:19.894Z</time></trkpt><trkpt lat="42.5236433" lon="-7.4018117"><ele>564.0</ele><time>2026-04-14T14:19:20.894Z</time></trkpt><trkpt lat="42.5237367" lon="-7.4019033"><ele>562.0</ele><time>2026-04-14T14:19:21.894Z</time></trkpt><trkpt lat="42.52382" lon="-7.40199"><ele>560.0</ele><time>2026-04-14T14:19:22.895Z</time></trkpt><trkpt lat="42.5239033" lon="-7.4020883"><ele>558.0</ele><time>2026-04-14T14:19:23.895Z</time></trkpt><trkpt lat="42.5239917" lon="-7.40219"><ele>556.0</ele><time>2026-04-14T14:19:24.894Z</time></trkpt><trkpt lat="42.5240967" lon="-7.4023183"><ele>555.6666666666667</ele><time>2026-04-14T14:19:25.894Z</time></trkpt><trkpt lat="42.5242117" lon="-7.4024533"><ele>555.3333333333334</ele><time>2026-04-14T14:19:26.894Z</time></trkpt><trkpt lat="42.52433" lon="-7.4025933"><ele>555.0</ele><time>2026-04-14T14:19:27.894Z</time></trkpt><trkpt lat="42.5244583" lon="-7.402735"><ele>552.6666666666666</ele><time>2026-04-14T14:19:28.895Z</time></trkpt><trkpt lat="42.5245967" lon="-7.4028817"><ele>550.3333333333333</ele><time>2026-04-14T14:19:29.894Z</time></trkpt><trkpt lat="42.5247267" lon="-7.4030267"><ele>548.0</ele><time>2026-04-14T14:19:30.895Z</time></trkpt><trkpt lat="42.5248617" lon="-7.4031683"><ele>548.0</ele><time>2026-04-14T14:19:31.894Z</time></trkpt><trkpt lat="42.525005" lon="-7.4033233"><ele>548.0</ele><time>2026-04-14T14:19:32.895Z</time></trkpt><trkpt lat="42.5251433" lon="-7.4034583"><ele>548.0</ele><time>2026-04-14T14:19:33.895Z</time></trkpt><trkpt lat="42.5252767" lon="-7.4035667"><ele>546.5</ele><time>2026-04-14T14:19:34.894Z</time></trkpt><trkpt lat="42.5254" lon="-7.4036783"><ele>545.0</ele><time>2026-04-14T14:19:35.895Z</time></trkpt><trkpt lat="42.5255183" lon="-7.4037783"><ele>543.5</ele><time>2026-04-14T14:19:36.895Z</time></trkpt><trkpt lat="42.5256267" lon="-7.4038683"><ele>542.0</ele><time>2026-04-14T14:19:37.895Z</time></trkpt><trkpt lat="42.525715" lon="-7.4039433"><ele>542.0</ele><time>2026-04-14T14:19:38.895Z</time></trkpt><trkpt lat="42.525785" lon="-7.403985"><ele>542.0</ele><time>2026-04-14T14:19:39.894Z</time></trkpt><trkpt lat="42.5258583" lon="-7.4039917"><ele>542.0</ele><time>2026-04-14T14:19:40.894Z</time></trkpt><trkpt lat="42.525935" lon="-7.4039783"><ele>542.0</ele><time>2026-04-14T14:19:41.894Z</time></trkpt><trkpt lat="42.5260117" lon="-7.4039467"><ele>542.0</ele><time>2026-04-14T14:19:42.894Z</time></trkpt><trkpt lat="42.5260817" lon="-7.4038867"><ele>542.0</ele><time>2026-04-14T14:19:43.894Z</time></trkpt><trkpt lat="42.5261617" lon="-7.4037983"><ele>540.5</ele><time>2026-04-14T14:19:44.894Z</time></trkpt><trkpt lat="42.5262533" lon="-7.40366"><ele>539.0</ele><time>2026-04-14T14:19:45.894Z</time></trkpt><trkpt lat="42.5263533" lon="-7.403505"><ele>537.5</ele><time>2026-04-14T14:19:46.894Z</time></trkpt><trkpt lat="42.52646" lon="-7.4033733"><ele>536.0</ele><time>2026-04-14T14:19:47.895Z</time></trkpt><trkpt lat="42.5265667" lon="-7.40325"><ele>536.0</ele><time>2026-04-14T14:19:48.894Z</time></trkpt><trkpt lat="42.5266683" lon="-7.4031383"><ele>536.0</ele><time>2026-04-14T14:19:49.894Z</time></trkpt><trkpt lat="42.526765" lon="-7.4030467"><ele>536.0</ele><time>2026-04-14T14:19:50.895Z</time></trkpt><trkpt lat="42.5268533" lon="-7.40296"><ele>536.0</ele><time>2026-04-14T14:19:51.895Z</time></trkpt><trkpt lat="42.5269367" lon="-7.4028967"><ele>536.2</ele><time>2026-04-14T14:19:52.895Z</time></trkpt><trkpt lat="42.5270167" lon="-7.402895"><ele>536.4000000000001</ele><time>2026-04-14T14:19:53.895Z</time></trkpt><trkpt lat="42.5270983" lon="-7.40291"><ele>536.6</ele><time>2026-04-14T14:19:54.895Z</time></trkpt><trkpt lat="42.5271683" lon="-7.4029633"><ele>536.8000000000001</ele><time>2026-04-14T14:19:55.895Z</time></trkpt><trkpt lat="42.5272433" lon="-7.4030467"><ele>537.0</ele><time>2026-04-14T14:19:56.894Z</time></trkpt><trkpt lat="42.52734" lon="-7.4031433"><ele>555.0</ele><time>2026-04-14T14:19:57.895Z</time></trkpt><trkpt lat="42.52433" lon="-7.4025933"><ele>555.0</ele><time>2026-04-14T14:19:27.894Z</time></trkpt><trkpt lat="42.5244583" lon="-7.402735"><ele>555.0</ele><time>2026-04-14T14:19:28.895Z</time></trkpt><trkpt lat="42.5245967" lon="-7.4028817"><ele>555.0</ele><time>2026-04-14T14:19:29.894Z</time></trkpt><trkpt lat="42.5247267" lon="-7.4030267"><ele>552.6666666666666</ele><time>2026-04-14T14:19:30.895Z</time></trkpt><trkpt lat="42.5248617" lon="-7.4031683"><ele>550.3333333333333</ele><time>2026-04-14T14:19:31.894Z</time></trkpt><trkpt lat="42.525005" lon="-7.4033233"><ele>548.0</ele><time>2026-04-14T14:19:32.895Z</time></trkpt><trkpt lat="42.5251433" lon="-7.4034583"><ele>548.0</ele><time>2026-04-14T14:19:33.895Z</time></trkpt><trkpt lat="42.5252767" lon="-7.4035667"><ele>548.0</ele><time>2026-04-14T14:19:34.894Z</time></trkpt><trkpt lat="42.5254" lon="-7.4036783"><ele>548.0</ele><time>2026-04-14T14:19:35.895Z</time></trkpt><trkpt lat="42.5255183" lon="-7.4037783"><ele>548.0</ele><time>2026-04-14T14:19:36.895Z</time></trkpt><trkpt lat="42.5256267" lon="-7.4038683"><ele>546.1666666666666</ele><time>2026-04-14T14:19:37.895Z</time></trkpt><trkpt lat="42.525715" lon="-7.4039433"><ele>544.3333333333333</ele><time>2026-04-14T14:19:38.895Z</time></trkpt><trkpt lat="42.525785" lon="-7.403985"><ele>542.5</ele><time>2026-04-14T14:19:39.894Z</time></trkpt><trkpt lat="42.5258583" lon="-7.4039917"><ele>540.6666666666666</ele><time>2026-04-14T14:19:40.894Z</time></trkpt><trkpt lat="42.525935" lon="-7.4039783"><ele>538.8333333333334</ele><time>2026-04-14T14:19:41.894Z</time></trkpt><trkpt lat="42.5260117" lon="-7.4039467"><ele>537.0</ele><time>2026-04-14T14:19:42.894Z</time></trkpt><trkpt lat="42.5260817" lon="-7.4038867"><ele>536.75</ele><time>2026-04-14T14:19:43.894Z</time></trkpt><trkpt lat="42.5261617" lon="-7.4037983"><ele>536.5</ele><time>2026-04-14T14:19:44.894Z</time></trkpt><trkpt lat="42.5262533" lon="-7.40366"><ele>536.25</ele><time>2026-04-14T14:19:45.894Z</time></trkpt><trkpt lat="42.5263533" lon="-7.403505"><ele>536.0</ele><time>2026-04-14T14:19:46.894Z</time></trkpt><trkpt lat="42.52646" lon="-7.4033733"><ele>536.0</ele><time>2026-04-14T14:19:47.895Z</time></trkpt><trkpt lat="42.5265667" lon="-7.40325"><ele>536.0</ele><time>2026-04-14T14:19:48.894Z</time></trkpt><trkpt lat="42.5266683" lon="-7.4031383"><ele>536.0</ele><time>2026-04-14T14:19:49.894Z</time></trkpt><trkpt lat="42.526765" lon="-7.4030467"><ele>536.0</ele><time>2026-04-14T14:19:50.895Z</time></trkpt><trkpt lat="42.5268533" lon="-7.40296"><ele>536.1666666666666</ele><time>2026-04-14T14:19:51.895Z</time></trkpt><trkpt lat="42.5269367" lon="-7.4028967"><ele>536.3333333333333</ele><time>2026-04-14T14:19:52.895Z</time></trkpt><trkpt lat="42.5270167" lon="-7.402895"><ele>536.5</ele><time>2026-04-14T14:19:53.895Z</time></trkpt><trkpt lat="42.5270983" lon="-7.40291"><ele>536.6666666666666</ele><time>2026-04-14T14:19:54.895Z</time></trkpt><trkpt lat="42.5271683" lon="-7.4029633"><ele>536.8333333333334</ele><time>2026-04-14T14:19:55.895Z</time></trkpt><trkpt lat="42.5272433" lon="-7.4030467"><ele>537.0</ele><time>2026-04-14T14:19:56.894Z</time></trkpt><trkpt lat="42.52734" lon="-7.4031433"><ele>535.25</ele><time>2026-04-14T14:19:57.895Z</time></trkpt><trkpt lat="42.5274567" lon="-7.4032183"><ele>533.5</ele><time>2026-04-14T14:19:58.894Z</time></trkpt><trkpt lat="42.5275717" lon="-7.4032833"><ele>531.75</ele><time>2026-04-14T14:19:59.895Z</time></trkpt><trkpt lat="42.5277233" lon="-7.40334"><ele>530.0</ele><time>2026-04-14T14:20:00.895Z</time></trkpt><trkpt lat="42.527875" lon="-7.4034017"><ele>528.75</ele><time>2026-04-14T14:20:01.895Z</time></trkpt><trkpt lat="42.5280183" lon="-7.4034717"><ele>527.5</ele><time>2026-04-14T14:20:02.894Z</time></trkpt><trkpt lat="42.5281467" lon="-7.4035533"><ele>526.25</ele><time>2026-04-14T14:20:03.894Z</time></trkpt><trkpt lat="42.5282417" lon="-7.4036333"><ele>525.0</ele><time>2026-04-14T14:20:04.895Z</time></trkpt><trkpt lat="42.5283167" lon="-7.4037217"><ele>525.0</ele><time>2026-04-14T14:20:05.895Z</time></trkpt><trkpt lat="42.528355" lon="-7.40383"><ele>525.0</ele><time>2026-04-14T14:20:06.895Z</time></trkpt><trkpt lat="42.5283433" lon="-7.40395"><ele>525.0</ele><time>2026-04-14T14:20:07.895Z</time></trkpt><trkpt lat="42.5283033" lon="-7.4040783"><ele>525.0</ele><time>2026-04-14T14:20:08.895Z</time></trkpt><trkpt lat="42.5282417" lon="-7.40421"><ele>525.0</ele><time>2026-04-14T14:20:09.894Z</time></trkpt><trkpt lat="42.528165" lon="-7.4043217"><ele>523.6</ele><time>2026-04-14T14:20:10.895Z</time></trkpt><trkpt lat="42.528085" lon="-7.404425"><ele>522.2</ele><time>2026-04-14T14:20:11.894Z</time></trkpt><trkpt lat="42.528025" lon="-7.4045217"><ele>520.8</ele><time>2026-04-14T14:20:12.895Z</time></trkpt><trkpt lat="42.5279667" lon="-7.404615"><ele>519.4</ele><time>2026-04-14T14:20:14.895Z</time></trkpt><trkpt lat="42.528025" lon="-7.4045633"><ele>518.0</ele><time>2026-04-14T14:20:19.894Z</time></trkpt><trkpt lat="42.52817" lon="-7.4044433"><ele>518.0</ele><time>2026-04-14T14:20:21.895Z</time></trkpt><trkpt lat="42.52827" lon="-7.40439"><ele>518.0</ele><time>2026-04-14T14:20:22.894Z</time></trkpt><trkpt lat="42.5283717" lon="-7.404365"><ele>518.0</ele><time>2026-04-14T14:20:23.894Z</time></trkpt><trkpt lat="42.5284933" lon="-7.404355"><ele>518.0</ele><time>2026-04-14T14:20:24.895Z</time></trkpt><trkpt lat="42.528615" lon="-7.404355"><ele>517.25</ele><time>2026-04-14T14:20:25.895Z</time></trkpt><trkpt lat="42.5287417" lon="-7.404365"><ele>516.5</ele><time>2026-04-14T14:20:26.895Z</time></trkpt><trkpt lat="42.5288533" lon="-7.4043767"><ele>515.75</ele><time>2026-04-14T14:20:27.895Z</time></trkpt><trkpt lat="42.5289633" lon="-7.4043933"><ele>515.0</ele><time>2026-04-14T14:20:28.895Z</time></trkpt><trkpt lat="42.5290733" lon="-7.4044083"><ele>515.0</ele><time>2026-04-14T14:20:29.895Z</time></trkpt><trkpt lat="42.5291783" lon="-7.4044267"><ele>515.0</ele><time>2026-04-14T14:20:30.894Z</time></trkpt><trkpt lat="42.5292867" lon="-7.4044467"><ele>515.0</ele><time>2026-04-14T14:20:31.894Z</time></trkpt><trkpt lat="42.5293867" lon="-7.4044633"><ele>515.0</ele><time>2026-04-14T14:20:32.894Z</time></trkpt><trkpt lat="42.5294817" lon="-7.40447"><ele>515.0</ele><time>2026-04-14T14:20:33.895Z</time></trkpt><trkpt lat="42.5295733" lon="-7.4044733"><ele>514.1666666666666</ele><time>2026-04-14T14:20:34.895Z</time></trkpt><trkpt lat="42.52966" lon="-7.4044783"><ele>513.3333333333333</ele><time>2026-04-14T14:20:35.895Z</time></trkpt><trkpt lat="42.529745" lon="-7.40449"><ele>512.5</ele><time>2026-04-14T14:20:36.894Z</time></trkpt><trkpt lat="42.52983" lon="-7.404505"><ele>511.66666666666663</ele><time>2026-04-14T14:20:37.894Z</time></trkpt><trkpt lat="42.5299183" lon="-7.4045183"><ele>510.8333333333333</ele><time>2026-04-14T14:20:38.895Z</time></trkpt><trkpt lat="42.5300133" lon="-7.4045367"><ele>510.0</ele><time>2026-04-14T14:20:39.894Z</time></trkpt><trkpt lat="42.53011" lon="-7.4045633"><ele>510.0</ele><time>2026-04-14T14:20:40.895Z</time></trkpt><trkpt lat="42.5302033" lon="-7.4045917"><ele>510.0</ele><time>2026-04-14T14:20:41.895Z</time></trkpt><trkpt lat="42.5302983" lon="-7.4046333"><ele>510.0</ele><time>2026-04-14T14:20:42.894Z</time></trkpt><trkpt lat="42.5303967" lon="-7.404685"><ele>510.0</ele><time>2026-04-14T14:20:43.894Z</time></trkpt><trkpt lat="42.5305017" lon="-7.4047317"><ele>510.0</ele><time>2026-04-14T14:20:44.895Z</time></trkpt><trkpt lat="42.5306017" lon="-7.40478"><ele>510.2</ele><time>2026-04-14T14:20:45.894Z</time></trkpt><trkpt lat="42.5306917" lon="-7.4048167"><ele>510.4</ele><time>2026-04-14T14:20:46.894Z</time></trkpt><trkpt lat="42.5307717" lon="-7.4048583"><ele>510.6</ele><time>2026-04-14T14:20:47.894Z</time></trkpt><trkpt lat="42.5308583" lon="-7.4048883"><ele>510.8</ele><time>2026-04-14T14:20:48.895Z</time></trkpt><trkpt lat="42.5309467" lon="-7.404925"><ele>511.0</ele><time>2026-04-14T14:20:49.894Z</time></trkpt><trkpt lat="42.5310433" lon="-7.4049617"><ele>511.0</ele><time>2026-04-14T14:20:50.894Z</time></trkpt><trkpt lat="42.53115" lon="-7.4050017"><ele>511.0</ele><time>2026-04-14T14:20:51.895Z</time></trkpt><trkpt lat="42.53126" lon="-7.40504"><ele>511.0</ele><time>2026-04-14T14:20:52.895Z</time></trkpt><trkpt lat="42.5313667" lon="-7.40507"><ele>511.0</ele><time>2026-04-14T14:20:53.894Z</time></trkpt><trkpt lat="42.53147" lon="-7.4051017"><ele>511.0</ele><time>2026-04-14T14:20:54.895Z</time></trkpt><trkpt lat="42.5315767" lon="-7.4051317"><ele>509.6</ele><time>2026-04-14T14:20:55.894Z</time></trkpt><trkpt lat="42.53168" lon="-7.4051583"><ele>508.20000000000005</ele><time>2026-04-14T14:20:56.895Z</time></trkpt><trkpt lat="42.5317867" lon="-7.4051783"><ele>506.79999999999995</ele><time>2026-04-14T14:20:57.894Z</time></trkpt><trkpt lat="42.531895" lon="-7.4051967"><ele>505.4</ele><time>2026-04-14T14:20:58.894Z</time></trkpt><trkpt lat="42.5320033" lon="-7.4052217"><ele>504.0</ele><time>2026-04-14T14:20:59.895Z</time></trkpt><trkpt lat="42.5321117" lon="-7.4052567"><ele>500.5</ele><time>2026-04-14T14:21:00.895Z</time></trkpt><trkpt lat="42.532225" lon="-7.4053033"><ele>497.0</ele><time>2026-04-14T14:21:01.895Z</time></trkpt><trkpt lat="42.53234" lon="-7.4053533"><ele>493.5</ele><time>2026-04-14T14:21:02.895Z</time></trkpt><trkpt lat="42.53246" lon="-7.4054133"><ele>490.0</ele><time>2026-04-14T14:21:03.896Z</time></trkpt><trkpt lat="42.5325767" lon="-7.4054633"><ele>489.5</ele><time>2026-04-14T14:21:04.896Z</time></trkpt><trkpt lat="42.5327017" lon="-7.4055133"><ele>489.0</ele><time>2026-04-14T14:21:05.896Z</time></trkpt><trkpt lat="42.53282" lon="-7.4055683"><ele>488.5</ele><time>2026-04-14T14:21:06.896Z</time></trkpt><trkpt lat="42.5329367" lon="-7.4056283"><ele>488.0</ele><time>2026-04-14T14:21:07.896Z</time></trkpt><trkpt lat="42.533045" lon="-7.4056883"><ele>488.0</ele><time>2026-04-14T14:21:08.896Z</time></trkpt><trkpt lat="42.53315" lon="-7.4057483"><ele>488.0</ele><time>2026-04-14T14:21:09.895Z</time></trkpt><trkpt lat="42.5332533" lon="-7.4058183"><ele>488.0</ele><time>2026-04-14T14:21:10.896Z</time></trkpt><trkpt lat="42.53336" lon="-7.4058883"><ele>488.0</ele><time>2026-04-14T14:21:11.896Z</time></trkpt><trkpt lat="42.5334683" lon="-7.40596"><ele>488.0</ele><time>2026-04-14T14:21:12.895Z</time></trkpt><trkpt lat="42.533575" lon="-7.406035"><ele>488.0</ele><time>2026-04-14T14:21:13.896Z</time></trkpt><trkpt lat="42.5336817" lon="-7.4061133"><ele>488.0</ele><time>2026-04-14T14:21:14.895Z</time></trkpt><trkpt lat="42.5337883" lon="-7.4061917"><ele>488.0</ele><time>2026-04-14T14:21:15.896Z</time></trkpt><trkpt lat="42.5338933" lon="-7.40627"><ele>487.75</ele><time>2026-04-14T14:21:16.896Z</time></trkpt><trkpt lat="42.5339967" lon="-7.4063467"><ele>487.5</ele><time>2026-04-14T14:21:17.895Z</time></trkpt><trkpt lat="42.5341" lon="-7.40643"><ele>487.25</ele><time>2026-04-14T14:21:18.895Z</time></trkpt><trkpt lat="42.5342" lon="-7.4065033"><ele>487.0</ele><time>2026-04-14T14:21:19.895Z</time></trkpt><trkpt lat="42.5342983" lon="-7.4065767"><ele>487.0</ele><time>2026-04-14T14:21:20.896Z</time></trkpt><trkpt lat="42.5343817" lon="-7.406665"><ele>487.00000000000006</ele><time>2026-04-14T14:21:21.895Z</time></trkpt><trkpt lat="42.53447" lon="-7.4067467"><ele>487.00000000000006</ele><time>2026-04-14T14:21:22.896Z</time></trkpt><trkpt lat="42.534555" lon="-7.4068283"><ele>487.0</ele><time>2026-04-14T14:21:23.895Z</time></trkpt><trkpt lat="42.5346383" lon="-7.40691"><ele>487.0</ele><time>2026-04-14T14:21:24.896Z</time></trkpt><trkpt lat="42.5347333" lon="-7.406975"><ele>486.20000000000005</ele><time>2026-04-14T14:21:25.896Z</time></trkpt><trkpt lat="42.5348333" lon="-7.4070317"><ele>485.40000000000003</ele><time>2026-04-14T14:21:26.896Z</time></trkpt><trkpt lat="42.534935" lon="-7.40709"><ele>484.59999999999997</ele><time>2026-04-14T14:21:27.896Z</time></trkpt><trkpt lat="42.53504" lon="-7.40715"><ele>483.79999999999995</ele><time>2026-04-14T14:21:28.895Z</time></trkpt><trkpt lat="42.5351483" lon="-7.4072033"><ele>483.0</ele><time>2026-04-14T14:21:29.896Z</time></trkpt><trkpt lat="42.5352683" lon="-7.4072717"><ele>483.0</ele><time>2026-04-14T14:21:30.896Z</time></trkpt><trkpt lat="42.5353783" lon="-7.4073367"><ele>483.0</ele><time>2026-04-14T14:21:31.896Z</time></trkpt><trkpt lat="42.535475" lon="-7.407405"><ele>483.0</ele><time>2026-04-14T14:21:32.896Z</time></trkpt><trkpt lat="42.5355667" lon="-7.40749"><ele>483.0</ele><time>2026-04-14T14:21:33.895Z</time></trkpt><trkpt lat="42.535655" lon="-7.4075783"><ele>479.79999999999995</ele><time>2026-04-14T14:21:34.895Z</time></trkpt><trkpt lat="42.535745" lon="-7.4076667"><ele>476.59999999999997</ele><time>2026-04-14T14:21:35.895Z</time></trkpt><trkpt lat="42.535835" lon="-7.4077583"><ele>473.40000000000003</ele><time>2026-04-14T14:21:36.895Z</time></trkpt><trkpt lat="42.53592" lon="-7.4078417"><ele>470.20000000000005</ele><time>2026-04-14T14:21:37.895Z</time></trkpt><trkpt lat="42.5360017" lon="-7.4078967"><ele>467.0</ele><time>2026-04-14T14:21:38.895Z</time></trkpt><trkpt lat="42.5360717" lon="-7.4079017"><ele>467.0</ele><time>2026-04-14T14:21:39.896Z</time></trkpt><trkpt lat="42.53616" lon="-7.407795"><ele>467.00000000000006</ele><time>2026-04-14T14:21:41.896Z</time></trkpt><trkpt lat="42.5361683" lon="-7.4076867"><ele>467.00000000000006</ele><time>2026-04-14T14:21:42.896Z</time></trkpt><trkpt lat="42.5361233" lon="-7.4075667"><ele>467.0</ele><time>2026-04-14T14:21:43.895Z</time></trkpt><trkpt lat="42.5360433" lon="-7.4074283"><ele>467.0</ele><time>2026-04-14T14:21:44.895Z</time></trkpt><trkpt lat="42.5359567" lon="-7.407275"><ele>465.0</ele><time>2026-04-14T14:21:45.896Z</time></trkpt><trkpt lat="42.5358733" lon="-7.4071317"><ele>463.0</ele><time>2026-04-14T14:21:46.895Z</time></trkpt><trkpt lat="42.5357883" lon="-7.4069783"><ele>461.0</ele><time>2026-04-14T14:21:47.896Z</time></trkpt><trkpt lat="42.53571" lon="-7.4068267"><ele>459.0</ele><time>2026-04-14T14:21:48.896Z</time></trkpt><trkpt lat="42.535635" lon="-7.406685"><ele>459.0</ele><time>2026-04-14T14:21:49.895Z</time></trkpt><trkpt lat="42.5355683" lon="-7.4065517"><ele>459.0</ele><time>2026-04-14T14:21:50.896Z</time></trkpt><trkpt lat="42.535495" lon="-7.4064183"><ele>459.0</ele><time>2026-04-14T14:21:51.896Z</time></trkpt><trkpt lat="42.5354283" lon="-7.4062883"><ele>459.0</ele><time>2026-04-14T14:21:52.896Z</time></trkpt><trkpt lat="42.5353683" lon="-7.4061683"><ele>460.5</ele><time>2026-04-14T14:21:53.896Z</time></trkpt><trkpt lat="42.53531" lon="-7.4060283"><ele>462.0</ele><time>2026-04-14T14:21:54.895Z</time></trkpt><trkpt lat="42.5352633" lon="-7.4058867"><ele>463.5</ele><time>2026-04-14T14:21:55.895Z</time></trkpt><trkpt lat="42.5352083" lon="-7.4057383"><ele>465.0</ele><time>2026-04-14T14:21:56.895Z</time></trkpt><trkpt lat="42.53515" lon="-7.4055983"><ele>461.75</ele><time>2026-04-14T14:21:57.895Z</time></trkpt><trkpt lat="42.5350967" lon="-7.4054533"><ele>458.5</ele><time>2026-04-14T14:21:58.896Z</time></trkpt><trkpt lat="42.5350433" lon="-7.405305"><ele>455.25</ele><time>2026-04-14T14:21:59.896Z</time></trkpt><trkpt lat="42.53499" lon="-7.40515"><ele>452.0</ele><time>2026-04-14T14:22:00.896Z</time></trkpt><trkpt lat="42.5349317" lon="-7.4049967"><ele>452.0</ele><time>2026-04-14T14:22:01.896Z</time></trkpt><trkpt lat="42.5348817" lon="-7.4048467"><ele>452.0</ele><time>2026-04-14T14:22:02.895Z</time></trkpt><trkpt lat="42.5348267" lon="-7.4047083"><ele>452.0</ele><time>2026-04-14T14:22:03.895Z</time></trkpt><trkpt lat="42.5347767" lon="-7.4045767"><ele>452.0</ele><time>2026-04-14T14:22:04.895Z</time></trkpt><trkpt lat="42.53473" lon="-7.404445"><ele>452.6</ele><time>2026-04-14T14:22:05.896Z</time></trkpt><trkpt lat="42.5346717" lon="-7.4043217"><ele>453.20000000000005</ele><time>2026-04-14T14:22:06.895Z</time></trkpt><trkpt lat="42.534605" lon="-7.404205"><ele>453.8</ele><time>2026-04-14T14:22:07.895Z</time></trkpt><trkpt lat="42.5345417" lon="-7.404095"><ele>454.4</ele><time>2026-04-14T14:22:08.896Z</time></trkpt><trkpt lat="42.5344783" lon="-7.40399"><ele>455.0</ele><time>2026-04-14T14:22:09.895Z</time></trkpt><trkpt lat="42.534415" lon="-7.403875"><ele>451.3333333333333</ele><time>2026-04-14T14:22:10.895Z</time></trkpt><trkpt lat="42.5343517" lon="-7.4037533"><ele>447.66666666666663</ele><time>2026-04-14T14:22:11.895Z</time></trkpt><trkpt lat="42.5342917" lon="-7.4036333"><ele>444.0</ele><time>2026-04-14T14:22:12.896Z</time></trkpt><trkpt lat="42.53616" lon="-7.407795"><ele>449.75</ele><time>2026-04-14T14:21:41.896Z</time></trkpt><trkpt lat="42.5361683" lon="-7.4076867"><ele>455.5</ele><time>2026-04-14T14:21:42.896Z</time></trkpt><trkpt lat="42.5361233" lon="-7.4075667"><ele>461.25</ele><time>2026-04-14T14:21:43.895Z</time></trkpt><trkpt lat="42.5360433" lon="-7.4074283"><ele>467.0</ele><time>2026-04-14T14:21:44.895Z</time></trkpt><trkpt lat="42.5359567" lon="-7.407275"><ele>465.0</ele><time>2026-04-14T14:21:45.896Z</time></trkpt><trkpt lat="42.5358733" lon="-7.4071317"><ele>463.0</ele><time>2026-04-14T14:21:46.895Z</time></trkpt><trkpt lat="42.5357883" lon="-7.4069783"><ele>461.0</ele><time>2026-04-14T14:21:47.896Z</time></trkpt><trkpt lat="42.53571" lon="-7.4068267"><ele>459.0</ele><time>2026-04-14T14:21:48.896Z</time></trkpt><trkpt lat="42.535635" lon="-7.406685"><ele>459.0</ele><time>2026-04-14T14:21:49.895Z</time></trkpt><trkpt lat="42.5355683" lon="-7.4065517"><ele>459.0</ele><time>2026-04-14T14:21:50.896Z</time></trkpt><trkpt lat="42.535495" lon="-7.4064183"><ele>459.0</ele><time>2026-04-14T14:21:51.896Z</time></trkpt><trkpt lat="42.5354283" lon="-7.4062883"><ele>459.0</ele><time>2026-04-14T14:21:52.896Z</time></trkpt><trkpt lat="42.5353683" lon="-7.4061683"><ele>460.5</ele><time>2026-04-14T14:21:53.896Z</time></trkpt><trkpt lat="42.53531" lon="-7.4060283"><ele>462.0</ele><time>2026-04-14T14:21:54.895Z</time></trkpt><trkpt lat="42.5352633" lon="-7.4058867"><ele>463.5</ele><time>2026-04-14T14:21:55.895Z</time></trkpt><trkpt lat="42.5352083" lon="-7.4057383"><ele>465.0</ele><time>2026-04-14T14:21:56.895Z</time></trkpt><trkpt lat="42.53515" lon="-7.4055983"><ele>461.75</ele><time>2026-04-14T14:21:57.895Z</time></trkpt><trkpt lat="42.5350967" lon="-7.4054533"><ele>458.5</ele><time>2026-04-14T14:21:58.896Z</time></trkpt><trkpt lat="42.5350433" lon="-7.405305"><ele>455.25</ele><time>2026-04-14T14:21:59.896Z</time></trkpt><trkpt lat="42.53499" lon="-7.40515"><ele>452.0</ele><time>2026-04-14T14:22:00.896Z</time></trkpt><trkpt lat="42.5349317" lon="-7.4049967"><ele>452.0</ele><time>2026-04-14T14:22:01.896Z</time></trkpt><trkpt lat="42.5348817" lon="-7.4048467"><ele>452.0</ele><time>2026-04-14T14:22:02.895Z</time></trkpt><trkpt lat="42.5348267" lon="-7.4047083"><ele>452.0</ele><time>2026-04-14T14:22:03.895Z</time></trkpt><trkpt lat="42.5347767" lon="-7.4045767"><ele>452.0</ele><time>2026-04-14T14:22:04.895Z</time></trkpt><trkpt lat="42.53473" lon="-7.404445"><ele>452.6</ele><time>2026-04-14T14:22:05.896Z</time></trkpt><trkpt lat="42.5346717" lon="-7.4043217"><ele>453.20000000000005</ele><time>2026-04-14T14:22:06.895Z</time></trkpt><trkpt lat="42.534605" lon="-7.404205"><ele>453.8</ele><time>2026-04-14T14:22:07.895Z</time></trkpt><trkpt lat="42.5345417" lon="-7.404095"><ele>454.4</ele><time>2026-04-14T14:22:08.896Z</time></trkpt><trkpt lat="42.5344783" lon="-7.40399"><ele>455.0</ele><time>2026-04-14T14:22:09.895Z</time></trkpt><trkpt lat="42.534415" lon="-7.403875"><ele>452.8</ele><time>2026-04-14T14:22:10.895Z</time></trkpt><trkpt lat="42.5343517" lon="-7.4037533"><ele>450.6</ele><time>2026-04-14T14:22:11.895Z</time></trkpt><trkpt lat="42.5342917" lon="-7.4036333"><ele>448.4</ele><time>2026-04-14T14:22:12.896Z</time></trkpt><trkpt lat="42.5342317" lon="-7.4035083"><ele>446.2</ele><time>2026-04-14T14:22:13.895Z</time></trkpt><trkpt lat="42.53417" lon="-7.4033817"><ele>444.0</ele><time>2026-04-14T14:22:14.895Z</time></trkpt><trkpt lat="42.5341117" lon="-7.40327"><ele>444.0</ele><time>2026-04-14T14:22:15.896Z</time></trkpt><trkpt lat="42.5340633" lon="-7.4031967"><ele>444.0</ele><time>2026-04-14T14:22:16.895Z</time></trkpt><trkpt lat="42.5341233" lon="-7.40327"><ele>444.0</ele><time>2026-04-14T14:22:22.895Z</time></trkpt><trkpt lat="42.53417" lon="-7.40338"><ele>444.0</ele><time>2026-04-14T14:22:24.896Z</time></trkpt><trkpt lat="42.53413" lon="-7.4032933"><ele>444.0</ele><time>2026-04-14T14:23:08.896Z</time></trkpt><trkpt lat="42.53406" lon="-7.4031467"><ele>444.0</ele><time>2026-04-14T14:23:10.895Z</time></trkpt><trkpt lat="42.5340117" lon="-7.4030433"><ele>444.0</ele><time>2026-04-14T14:23:11.896Z</time></trkpt><trkpt lat="42.533955" lon="-7.40293"><ele>444.0</ele><time>2026-04-14T14:23:12.896Z</time></trkpt><trkpt lat="42.5338967" lon="-7.402805"><ele>444.0</ele><time>2026-04-14T14:23:13.896Z</time></trkpt><trkpt lat="42.5338367" lon="-7.4026817"><ele>444.0</ele><time>2026-04-14T14:23:14.895Z</time></trkpt><trkpt lat="42.5337767" lon="-7.4025483"><ele>443.75</ele><time>2026-04-14T14:23:15.896Z</time></trkpt><trkpt lat="42.53372" lon="-7.4024083"><ele>443.5</ele><time>2026-04-14T14:23:16.895Z</time></trkpt><trkpt lat="42.53368" lon="-7.4022617"><ele>443.25</ele><time>2026-04-14T14:23:17.895Z</time></trkpt><trkpt lat="42.5336483" lon="-7.4021117"><ele>443.0</ele><time>2026-04-14T14:23:18.896Z</time></trkpt><trkpt lat="42.5336183" lon="-7.40197"><ele>441.2</ele><time>2026-04-14T14:23:19.896Z</time></trkpt><trkpt lat="42.533585" lon="-7.4018317"><ele>439.4</ele><time>2026-04-14T14:23:20.896Z</time></trkpt><trkpt lat="42.53355" lon="-7.4017"><ele>437.59999999999997</ele><time>2026-04-14T14:23:21.896Z</time></trkpt><trkpt lat="42.5335133" lon="-7.4015817"><ele>435.79999999999995</ele><time>2026-04-14T14:23:22.895Z</time></trkpt><trkpt lat="42.5334683" lon="-7.4014783"><ele>434.0</ele><time>2026-04-14T14:23:23.895Z</time></trkpt><trkpt lat="42.5334167" lon="-7.401385"><ele>433.3333333333333</ele><time>2026-04-14T14:23:24.895Z</time></trkpt><trkpt lat="42.5333717" lon="-7.4013117"><ele>432.66666666666663</ele><time>2026-04-14T14:23:25.895Z</time></trkpt><trkpt lat="42.5333417" lon="-7.40121"><ele>432.0</ele><time>2026-04-14T14:23:27.896Z</time></trkpt><trkpt lat="42.5333833" lon="-7.4011167"><ele>431.33333333333337</ele><time>2026-04-14T14:23:32.896Z</time></trkpt><trkpt lat="42.5334367" lon="-7.401005"><ele>430.6666666666667</ele><time>2026-04-14T14:23:34.895Z</time></trkpt><trkpt lat="42.53343" lon="-7.4008967"><ele>430.0</ele><time>2026-04-14T14:23:36.895Z</time></trkpt><trkpt lat="42.5333733" lon="-7.400845"><ele>430.0</ele><time>2026-04-14T14:23:37.895Z</time></trkpt><trkpt lat="42.53328" lon="-7.400795"><ele>430.0</ele><time>2026-04-14T14:23:38.895Z</time></trkpt><trkpt lat="42.5331683" lon="-7.4007533"><ele>430.0</ele><time>2026-04-14T14:23:39.896Z</time></trkpt><trkpt lat="42.5330517" lon="-7.4007067"><ele>430.0</ele><time>2026-04-14T14:23:40.896Z</time></trkpt><trkpt lat="42.5329333" lon="-7.4006567"><ele>431.75</ele><time>2026-04-14T14:23:41.895Z</time></trkpt><trkpt lat="42.5328033" lon="-7.4006183"><ele>433.5</ele><time>2026-04-14T14:23:42.895Z</time></trkpt><trkpt lat="42.5326633" lon="-7.4005917"><ele>435.25</ele><time>2026-04-14T14:23:43.896Z</time></trkpt><trkpt lat="42.5325333" lon="-7.4005683"><ele>437.0</ele><time>2026-04-14T14:23:44.895Z</time></trkpt><trkpt lat="42.5324033" lon="-7.400545"><ele>437.0</ele><time>2026-04-14T14:23:45.896Z</time></trkpt><trkpt lat="42.53227" lon="-7.4005217"><ele>437.0</ele><time>2026-04-14T14:23:46.896Z</time></trkpt><trkpt lat="42.5321433" lon="-7.400495"><ele>437.0</ele><time>2026-04-14T14:23:47.895Z</time></trkpt><trkpt lat="42.5320117" lon="-7.40047"><ele>437.0</ele><time>2026-04-14T14:23:48.896Z</time></trkpt><trkpt lat="42.531885" lon="-7.400445"><ele>437.75</ele><time>2026-04-14T14:23:49.896Z</time></trkpt><trkpt lat="42.5317517" lon="-7.4004217"><ele>438.5</ele><time>2026-04-14T14:23:50.896Z</time></trkpt><trkpt lat="42.5316183" lon="-7.400395"><ele>439.25</ele><time>2026-04-14T14:23:51.895Z</time></trkpt><trkpt lat="42.5314883" lon="-7.4003633"><ele>440.0</ele><time>2026-04-14T14:23:52.896Z</time></trkpt><trkpt lat="42.5313633" lon="-7.4003167"><ele>440.0</ele><time>2026-04-14T14:23:53.895Z</time></trkpt><trkpt lat="42.5312317" lon="-7.4002667"><ele>440.0</ele><time>2026-04-14T14:23:54.895Z</time></trkpt><trkpt lat="42.5311017" lon="-7.4002067"><ele>440.0</ele><time>2026-04-14T14:23:55.896Z</time></trkpt><trkpt lat="42.530975" lon="-7.40015"><ele>440.0</ele><time>2026-04-14T14:23:56.895Z</time></trkpt><trkpt lat="42.53085" lon="-7.4000817"><ele>441.5</ele><time>2026-04-14T14:23:57.895Z</time></trkpt><trkpt lat="42.5307267" lon="-7.4000067"><ele>443.0</ele><time>2026-04-14T14:23:58.895Z</time></trkpt><trkpt lat="42.5306083" lon="-7.3999367"><ele>444.5</ele><time>2026-04-14T14:23:59.895Z</time></trkpt><trkpt lat="42.53049" lon="-7.3998617"><ele>446.0</ele><time>2026-04-14T14:24:00.895Z</time></trkpt><trkpt lat="42.5303617" lon="-7.3997783"><ele>447.5</ele><time>2026-04-14T14:24:01.895Z</time></trkpt><trkpt lat="42.5302483" lon="-7.3997"><ele>449.0</ele><time>2026-04-14T14:24:02.896Z</time></trkpt><trkpt lat="42.5301267" lon="-7.39961"><ele>450.5</ele><time>2026-04-14T14:24:03.895Z</time></trkpt><trkpt lat="42.5300217" lon="-7.3995283"><ele>452.0</ele><time>2026-04-14T14:24:04.895Z</time></trkpt><trkpt lat="42.5298967" lon="-7.3994417"><ele>451.75</ele><time>2026-04-14T14:24:05.896Z</time></trkpt><trkpt lat="42.5297767" lon="-7.3993533"><ele>451.5</ele><time>2026-04-14T14:24:06.896Z</time></trkpt><trkpt lat="42.5296633" lon="-7.399255"><ele>451.25</ele><time>2026-04-14T14:24:07.895Z</time></trkpt><trkpt lat="42.5295517" lon="-7.3991617"><ele>451.0</ele><time>2026-04-14T14:24:08.896Z</time></trkpt><trkpt lat="42.5294417" lon="-7.3990583"><ele>451.0</ele><time>2026-04-14T14:24:09.896Z</time></trkpt><trkpt lat="42.5293417" lon="-7.3989533"><ele>451.0</ele><time>2026-04-14T14:24:10.896Z</time></trkpt><trkpt lat="42.529245" lon="-7.3988483"><ele>451.0</ele><time>2026-04-14T14:24:11.895Z</time></trkpt><trkpt lat="42.5291617" lon="-7.3987483"><ele>451.0</ele><time>2026-04-14T14:24:12.896Z</time></trkpt><trkpt lat="42.5290767" lon="-7.39864"><ele>446.5</ele><time>2026-04-14T14:24:13.895Z</time></trkpt><trkpt lat="42.5289967" lon="-7.39854"><ele>442.0</ele><time>2026-04-14T14:24:14.896Z</time></trkpt><trkpt lat="42.5328033" lon="-7.4006183"><ele>440.75</ele><time>2026-04-14T14:23:42.895Z</time></trkpt><trkpt lat="42.5326633" lon="-7.4005917"><ele>439.5</ele><time>2026-04-14T14:23:43.896Z</time></trkpt><trkpt lat="42.5325333" lon="-7.4005683"><ele>438.25</ele><time>2026-04-14T14:23:44.895Z</time></trkpt><trkpt lat="42.5324033" lon="-7.400545"><ele>437.0</ele><time>2026-04-14T14:23:45.896Z</time></trkpt><trkpt lat="42.53227" lon="-7.4005217"><ele>437.75</ele><time>2026-04-14T14:23:46.896Z</time></trkpt><trkpt lat="42.5321433" lon="-7.400495"><ele>438.5</ele><time>2026-04-14T14:23:47.895Z</time></trkpt><trkpt lat="42.5320117" lon="-7.40047"><ele>439.25</ele><time>2026-04-14T14:23:48.896Z</time></trkpt><trkpt lat="42.531885" lon="-7.400445"><ele>440.0</ele><time>2026-04-14T14:23:49.896Z</time></trkpt><trkpt lat="42.5317517" lon="-7.4004217"><ele>440.0</ele><time>2026-04-14T14:23:50.896Z</time></trkpt><trkpt lat="42.5316183" lon="-7.400395"><ele>440.0</ele><time>2026-04-14T14:23:51.895Z</time></trkpt><trkpt lat="42.5314883" lon="-7.4003633"><ele>440.0</ele><time>2026-04-14T14:23:52.896Z</time></trkpt><trkpt lat="42.5313633" lon="-7.4003167"><ele>440.0</ele><time>2026-04-14T14:23:53.895Z</time></trkpt><trkpt lat="42.5312317" lon="-7.4002667"><ele>441.5</ele><time>2026-04-14T14:23:54.895Z</time></trkpt><trkpt lat="42.5311017" lon="-7.4002067"><ele>443.0</ele><time>2026-04-14T14:23:55.896Z</time></trkpt><trkpt lat="42.530975" lon="-7.40015"><ele>444.5</ele><time>2026-04-14T14:23:56.895Z</time></trkpt><trkpt lat="42.53085" lon="-7.4000817"><ele>446.0</ele><time>2026-04-14T14:23:57.895Z</time></trkpt><trkpt lat="42.5307267" lon="-7.4000067"><ele>446.0</ele><time>2026-04-14T14:23:58.895Z</time></trkpt><trkpt lat="42.5306083" lon="-7.3999367"><ele>446.0</ele><time>2026-04-14T14:23:59.895Z</time></trkpt><trkpt lat="42.53049" lon="-7.3998617"><ele>446.0</ele><time>2026-04-14T14:24:00.895Z</time></trkpt><trkpt lat="42.5303617" lon="-7.3997783"><ele>446.0</ele><time>2026-04-14T14:24:01.895Z</time></trkpt><trkpt lat="42.5302483" lon="-7.3997"><ele>444.5</ele><time>2026-04-14T14:24:02.896Z</time></trkpt><trkpt lat="42.5301267" lon="-7.39961"><ele>443.0</ele><time>2026-04-14T14:24:03.895Z</time></trkpt><trkpt lat="42.5300217" lon="-7.3995283"><ele>441.5</ele><time>2026-04-14T14:24:04.895Z</time></trkpt><trkpt lat="42.5298967" lon="-7.3994417"><ele>440.0</ele><time>2026-04-14T14:24:05.896Z</time></trkpt><trkpt lat="42.5297767" lon="-7.3993533"><ele>440.0</ele><time>2026-04-14T14:24:06.896Z</time></trkpt><trkpt lat="42.5296633" lon="-7.399255"><ele>440.0</ele><time>2026-04-14T14:24:07.895Z</time></trkpt><trkpt lat="42.5295517" lon="-7.3991617"><ele>440.0</ele><time>2026-04-14T14:24:08.896Z</time></trkpt><trkpt lat="42.5294417" lon="-7.3990583"><ele>440.0</ele><time>2026-04-14T14:24:09.896Z</time></trkpt><trkpt lat="42.5293417" lon="-7.3989533"><ele>440.5</ele><time>2026-04-14T14:24:10.896Z</time></trkpt><trkpt lat="42.529245" lon="-7.3988483"><ele>441.0</ele><time>2026-04-14T14:24:11.895Z</time></trkpt><trkpt lat="42.5291617" lon="-7.3987483"><ele>441.5</ele><time>2026-04-14T14:24:12.896Z</time></trkpt><trkpt lat="42.5290767" lon="-7.39864"><ele>442.0</ele><time>2026-04-14T14:24:13.895Z</time></trkpt><trkpt lat="42.5289967" lon="-7.39854"><ele>442.0</ele><time>2026-04-14T14:24:14.896Z</time></trkpt><trkpt lat="42.52892" lon="-7.3984483"><ele>442.00000000000006</ele><time>2026-04-14T14:24:15.895Z</time></trkpt><trkpt lat="42.528845" lon="-7.398375"><ele>442.00000000000006</ele><time>2026-04-14T14:24:16.896Z</time></trkpt><trkpt lat="42.5287617" lon="-7.3983183"><ele>442.0</ele><time>2026-04-14T14:24:17.895Z</time></trkpt><trkpt lat="42.5286767" lon="-7.3982733"><ele>442.0</ele><time>2026-04-14T14:24:18.896Z</time></trkpt><trkpt lat="42.5285867" lon="-7.3982183"><ele>443.20000000000005</ele><time>2026-04-14T14:24:19.896Z</time></trkpt><trkpt lat="42.5285" lon="-7.398145"><ele>444.40000000000003</ele><time>2026-04-14T14:24:20.895Z</time></trkpt><trkpt lat="42.52842" lon="-7.39807"><ele>445.59999999999997</ele><time>2026-04-14T14:24:21.896Z</time></trkpt><trkpt lat="42.528335" lon="-7.398025"><ele>446.79999999999995</ele><time>2026-04-14T14:24:22.895Z</time></trkpt><trkpt lat="42.528255" lon="-7.3980117"><ele>448.0</ele><time>2026-04-14T14:24:23.896Z</time></trkpt><trkpt lat="42.528175" lon="-7.398025"><ele>448.00000000000006</ele><time>2026-04-14T14:24:24.895Z</time></trkpt><trkpt lat="42.5281" lon="-7.3980433"><ele>448.0</ele><time>2026-04-14T14:24:25.895Z</time></trkpt><trkpt lat="42.5280267" lon="-7.398045"><ele>448.0</ele><time>2026-04-14T14:24:26.895Z</time></trkpt><trkpt lat="42.52796" lon="-7.3980217"><ele>448.0</ele><time>2026-04-14T14:24:27.896Z</time></trkpt><trkpt lat="42.5278833" lon="-7.3979383"><ele>448.00000000000006</ele><time>2026-04-14T14:24:29.896Z</time></trkpt><trkpt lat="42.5278483" lon="-7.397865"><ele>448.0</ele><time>2026-04-14T14:24:32.895Z</time></trkpt><trkpt lat="42.527815" lon="-7.3977717"><ele>448.33333333333337</ele><time>2026-04-14T14:27:49.895Z</time></trkpt><trkpt lat="42.52772" lon="-7.3977283"><ele>448.6666666666667</ele><time>2026-04-14T14:27:51.896Z</time></trkpt><trkpt lat="42.5276083" lon="-7.3976817"><ele>449.0</ele><time>2026-04-14T14:27:53.895Z</time></trkpt><trkpt lat="42.5275267" lon="-7.39765"><ele>449.33333333333337</ele><time>2026-04-14T14:27:54.896Z</time></trkpt><trkpt lat="42.52746" lon="-7.39763"><ele>449.6666666666667</ele><time>2026-04-14T14:27:55.895Z</time></trkpt><trkpt lat="42.5273883" lon="-7.3976033"><ele>450.0</ele><time>2026-04-14T14:27:56.895Z</time></trkpt><trkpt lat="42.5272867" lon="-7.3975683"><ele>450.0</ele><time>2026-04-14T14:27:58.895Z</time></trkpt><trkpt lat="42.5273833" lon="-7.3976433"><ele>450.0</ele><time>2026-04-14T14:29:03.895Z</time></trkpt><trkpt lat="42.527465" lon="-7.3977083"><ele>450.0</ele><time>2026-04-14T14:29:04.896Z</time></trkpt><trkpt lat="42.5275433" lon="-7.3977767"><ele>450.0</ele><time>2026-04-14T14:29:05.897Z</time></trkpt><trkpt lat="42.52763" lon="-7.39784"><ele>450.0</ele><time>2026-04-14T14:29:06.897Z</time></trkpt><trkpt lat="42.5277167" lon="-7.3978933"><ele>450.0</ele><time>2026-04-14T14:29:07.896Z</time></trkpt><trkpt lat="42.52779" lon="-7.39795"><ele>450.0</ele><time>2026-04-14T14:29:08.897Z</time></trkpt><trkpt lat="42.5278617" lon="-7.3980083"><ele>450.0</ele><time>2026-04-14T14:29:09.896Z</time></trkpt><trkpt lat="42.52793" lon="-7.398035"><ele>450.0</ele><time>2026-04-14T14:29:10.896Z</time></trkpt><trkpt lat="42.5280383" lon="-7.3980717"><ele>450.0</ele><time>2026-04-14T14:29:12.896Z</time></trkpt><trkpt lat="42.528105" lon="-7.3980833"><ele>450.0</ele><time>2026-04-14T14:31:25.896Z</time></trkpt><trkpt lat="42.52804" lon="-7.398005"><ele>450.0</ele><time>2026-04-14T14:31:31.896Z</time></trkpt><trkpt lat="42.5279733" lon="-7.3979283"><ele>450.0</ele><time>2026-04-14T14:31:33.896Z</time></trkpt><trkpt lat="42.5279217" lon="-7.397875"><ele>450.0</ele><time>2026-04-14T14:31:35.897Z</time></trkpt><trkpt lat="42.527865" lon="-7.39776"><ele>450.0</ele><time>2026-04-14T14:32:32.896Z</time></trkpt><trkpt lat="42.52777" lon="-7.397695"><ele>450.0</ele><time>2026-04-14T14:32:34.896Z</time></trkpt><trkpt lat="42.5276667" lon="-7.397655"><ele>450.0</ele><time>2026-04-14T14:32:36.896Z</time></trkpt><trkpt lat="42.52758" lon="-7.397645"><ele>450.0</ele><time>2026-04-14T14:32:38.897Z</time></trkpt><trkpt lat="42.5274533" lon="-7.3976033"><ele>450.0</ele><time>2026-04-14T14:32:40.897Z</time></trkpt><trkpt lat="42.5273733" lon="-7.397565"><ele>450.0</ele><time>2026-04-14T14:32:41.897Z</time></trkpt><trkpt lat="42.5272833" lon="-7.39751"><ele>450.0</ele><time>2026-04-14T14:32:42.896Z</time></trkpt><trkpt lat="42.5271833" lon="-7.3974367"><ele>450.0</ele><time>2026-04-14T14:32:43.896Z</time></trkpt><trkpt lat="42.5270833" lon="-7.39736"><ele>450.0</ele><time>2026-04-14T14:32:44.897Z</time></trkpt><trkpt lat="42.5269767" lon="-7.3972733"><ele>450.0</ele><time>2026-04-14T14:32:45.897Z</time></trkpt><trkpt lat="42.5268617" lon="-7.39718"><ele>450.0</ele><time>2026-04-14T14:32:46.897Z</time></trkpt><trkpt lat="42.5267517" lon="-7.397085"><ele>451.0</ele><time>2026-04-14T14:32:47.896Z</time></trkpt><trkpt lat="42.526635" lon="-7.3969667"><ele>452.0</ele><time>2026-04-14T14:32:48.897Z</time></trkpt><trkpt lat="42.526535" lon="-7.39684"><ele>453.0</ele><time>2026-04-14T14:32:49.896Z</time></trkpt><trkpt lat="42.5264467" lon="-7.396705"><ele>454.0</ele><time>2026-04-14T14:32:50.897Z</time></trkpt><trkpt lat="42.5263483" lon="-7.3965617"><ele>454.0</ele><time>2026-04-14T14:32:51.896Z</time></trkpt><trkpt lat="42.5262717" lon="-7.3964083"><ele>454.0</ele><time>2026-04-14T14:32:52.897Z</time></trkpt><trkpt lat="42.52619" lon="-7.39626"><ele>454.0</ele><time>2026-04-14T14:32:53.897Z</time></trkpt><trkpt lat="42.5261067" lon="-7.3961033"><ele>454.0</ele><time>2026-04-14T14:32:54.897Z</time></trkpt><trkpt lat="42.52603" lon="-7.395935"><ele>454.0</ele><time>2026-04-14T14:32:55.896Z</time></trkpt><trkpt lat="42.5259517" lon="-7.3957717"><ele>454.0</ele><time>2026-04-14T14:32:56.896Z</time></trkpt><trkpt lat="42.525885" lon="-7.3956033"><ele>454.0</ele><time>2026-04-14T14:32:57.897Z</time></trkpt><trkpt lat="42.525815" lon="-7.3954317"><ele>454.0</ele><time>2026-04-14T14:32:58.897Z</time></trkpt><trkpt lat="42.5257567" lon="-7.39525"><ele>454.0</ele><time>2026-04-14T14:32:59.896Z</time></trkpt><trkpt lat="42.5256983" lon="-7.3950533"><ele>454.0</ele><time>2026-04-14T14:33:00.897Z</time></trkpt><trkpt lat="42.5256467" lon="-7.3948467"><ele>454.0</ele><time>2026-04-14T14:33:01.897Z</time></trkpt><trkpt lat="42.5255917" lon="-7.3946417"><ele>453.6666666666667</ele><time>2026-04-14T14:33:02.897Z</time></trkpt><trkpt lat="42.5255317" lon="-7.3944267"><ele>453.33333333333337</ele><time>2026-04-14T14:33:03.896Z</time></trkpt><trkpt lat="42.525475" lon="-7.3942183"><ele>453.0</ele><time>2026-04-14T14:33:04.896Z</time></trkpt><trkpt lat="42.52541" lon="-7.3940083"><ele>455.0</ele><time>2026-04-14T14:33:05.896Z</time></trkpt><trkpt lat="42.5253517" lon="-7.3938017"><ele>457.0</ele><time>2026-04-14T14:33:06.896Z</time></trkpt><trkpt lat="42.525285" lon="-7.3936117"><ele>459.0</ele><time>2026-04-14T14:33:07.896Z</time></trkpt><trkpt lat="42.52523" lon="-7.3934367"><ele>459.0</ele><time>2026-04-14T14:33:08.896Z</time></trkpt><trkpt lat="42.5251583" lon="-7.3932683"><ele>459.0</ele><time>2026-04-14T14:33:09.897Z</time></trkpt><trkpt lat="42.5250833" lon="-7.39311"><ele>459.0</ele><time>2026-04-14T14:33:10.896Z</time></trkpt><trkpt lat="42.525005" lon="-7.3929433"><ele>459.0</ele><time>2026-04-14T14:33:11.896Z</time></trkpt><trkpt lat="42.524915" lon="-7.392795"><ele>458.25</ele><time>2026-04-14T14:33:12.897Z</time></trkpt><trkpt lat="42.5248233" lon="-7.3926717"><ele>457.5</ele><time>2026-04-14T14:33:13.896Z</time></trkpt><trkpt lat="42.5247383" lon="-7.3925583"><ele>456.75</ele><time>2026-04-14T14:33:14.896Z</time></trkpt><trkpt lat="42.52466" lon="-7.3924483"><ele>456.0</ele><time>2026-04-14T14:33:15.897Z</time></trkpt><trkpt lat="42.5245783" lon="-7.3923417"><ele>458.0</ele><time>2026-04-14T14:33:16.897Z</time></trkpt><trkpt lat="42.52449" lon="-7.3922383"><ele>460.0</ele><time>2026-04-14T14:33:17.896Z</time></trkpt><trkpt lat="42.524405" lon="-7.3921283"><ele>462.0</ele><time>2026-04-14T14:33:18.897Z</time></trkpt><trkpt lat="42.5243133" lon="-7.39201"><ele>464.0</ele><time>2026-04-14T14:33:19.897Z</time></trkpt><trkpt lat="42.524225" lon="-7.3918917"><ele>464.0</ele><time>2026-04-14T14:33:20.896Z</time></trkpt><trkpt lat="42.5241283" lon="-7.39176"><ele>464.0</ele><time>2026-04-14T14:33:21.897Z</time></trkpt><trkpt lat="42.52403" lon="-7.3916267"><ele>464.0</ele><time>2026-04-14T14:33:22.896Z</time></trkpt><trkpt lat="42.52393" lon="-7.3914833"><ele>464.0</ele><time>2026-04-14T14:33:23.897Z</time></trkpt><trkpt lat="42.523825" lon="-7.3913433"><ele>464.5</ele><time>2026-04-14T14:33:24.896Z</time></trkpt><trkpt lat="42.5237317" lon="-7.391195"><ele>465.0</ele><time>2026-04-14T14:33:25.897Z</time></trkpt><trkpt lat="42.5236517" lon="-7.3910417"><ele>465.5</ele><time>2026-04-14T14:33:26.896Z</time></trkpt><trkpt lat="42.5235833" lon="-7.3908833"><ele>466.0</ele><time>2026-04-14T14:33:27.896Z</time></trkpt><trkpt lat="42.5235267" lon="-7.39073"><ele>466.0</ele><time>2026-04-14T14:33:28.897Z</time></trkpt><trkpt lat="42.523485" lon="-7.390545"><ele>466.0</ele><time>2026-04-14T14:33:29.897Z</time></trkpt><trkpt lat="42.5234517" lon="-7.39035"><ele>466.0</ele><time>2026-04-14T14:33:30.896Z</time></trkpt><trkpt lat="42.5234117" lon="-7.3901633"><ele>466.0</ele><time>2026-04-14T14:33:31.897Z</time></trkpt><trkpt lat="42.523375" lon="-7.3899833"><ele>466.25</ele><time>2026-04-14T14:33:32.897Z</time></trkpt><trkpt lat="42.5233283" lon="-7.3898233"><ele>466.5</ele><time>2026-04-14T14:33:33.897Z</time></trkpt><trkpt lat="42.5233" lon="-7.38966"><ele>466.75</ele><time>2026-04-14T14:33:34.896Z</time></trkpt><trkpt lat="42.5232867" lon="-7.389495"><ele>467.0</ele><time>2026-04-14T14:33:35.897Z</time></trkpt><trkpt lat="42.525475" lon="-7.3942183"><ele>464.3333333333333</ele><time>2026-04-14T14:33:04.896Z</time></trkpt><trkpt lat="42.52541" lon="-7.3940083"><ele>461.66666666666663</ele><time>2026-04-14T14:33:05.896Z</time></trkpt><trkpt lat="42.5253517" lon="-7.3938017"><ele>459.0</ele><time>2026-04-14T14:33:06.896Z</time></trkpt><trkpt lat="42.525285" lon="-7.3936117"><ele>459.0</ele><time>2026-04-14T14:33:07.896Z</time></trkpt><trkpt lat="42.52523" lon="-7.3934367"><ele>459.0</ele><time>2026-04-14T14:33:08.896Z</time></trkpt><trkpt lat="42.5251583" lon="-7.3932683"><ele>459.0</ele><time>2026-04-14T14:33:09.897Z</time></trkpt><trkpt lat="42.5250833" lon="-7.39311"><ele>459.0</ele><time>2026-04-14T14:33:10.896Z</time></trkpt><trkpt lat="42.525005" lon="-7.3929433"><ele>458.25</ele><time>2026-04-14T14:33:11.896Z</time></trkpt><trkpt lat="42.524915" lon="-7.392795"><ele>457.5</ele><time>2026-04-14T14:33:12.897Z</time></trkpt><trkpt lat="42.5248233" lon="-7.3926717"><ele>456.75</ele><time>2026-04-14T14:33:13.896Z</time></trkpt><trkpt lat="42.5247383" lon="-7.3925583"><ele>456.0</ele><time>2026-04-14T14:33:14.896Z</time></trkpt><trkpt lat="42.52466" lon="-7.3924483"><ele>456.0</ele><time>2026-04-14T14:33:15.897Z</time></trkpt><trkpt lat="42.5245783" lon="-7.3923417"><ele>456.0</ele><time>2026-04-14T14:33:16.897Z</time></trkpt><trkpt lat="42.52449" lon="-7.3922383"><ele>456.0</ele><time>2026-04-14T14:33:17.896Z</time></trkpt><trkpt lat="42.524405" lon="-7.3921283"><ele>456.0</ele><time>2026-04-14T14:33:18.897Z</time></trkpt><trkpt lat="42.5243133" lon="-7.39201"><ele>458.0</ele><time>2026-04-14T14:33:19.897Z</time></trkpt><trkpt lat="42.524225" lon="-7.3918917"><ele>460.0</ele><time>2026-04-14T14:33:20.896Z</time></trkpt><trkpt lat="42.5241283" lon="-7.39176"><ele>462.0</ele><time>2026-04-14T14:33:21.897Z</time></trkpt><trkpt lat="42.52403" lon="-7.3916267"><ele>464.0</ele><time>2026-04-14T14:33:22.896Z</time></trkpt><trkpt lat="42.52393" lon="-7.3914833"><ele>464.0</ele><time>2026-04-14T14:33:23.897Z</time></trkpt><trkpt lat="42.523825" lon="-7.3913433"><ele>464.0</ele><time>2026-04-14T14:33:24.896Z</time></trkpt><trkpt lat="42.5237317" lon="-7.391195"><ele>464.0</ele><time>2026-04-14T14:33:25.897Z</time></trkpt><trkpt lat="42.5236517" lon="-7.3910417"><ele>464.0</ele><time>2026-04-14T14:33:26.896Z</time></trkpt><trkpt lat="42.5235833" lon="-7.3908833"><ele>464.5</ele><time>2026-04-14T14:33:27.896Z</time></trkpt><trkpt lat="42.5235267" lon="-7.39073"><ele>465.0</ele><time>2026-04-14T14:33:28.897Z</time></trkpt><trkpt lat="42.523485" lon="-7.390545"><ele>465.5</ele><time>2026-04-14T14:33:29.897Z</time></trkpt><trkpt lat="42.5234517" lon="-7.39035"><ele>466.0</ele><time>2026-04-14T14:33:30.896Z</time></trkpt><trkpt lat="42.5234117" lon="-7.3901633"><ele>466.25</ele><time>2026-04-14T14:33:31.897Z</time></trkpt><trkpt lat="42.523375" lon="-7.3899833"><ele>466.5</ele><time>2026-04-14T14:33:32.897Z</time></trkpt><trkpt lat="42.5233283" lon="-7.3898233"><ele>466.75</ele><time>2026-04-14T14:33:33.897Z</time></trkpt><trkpt lat="42.5233" lon="-7.38966"><ele>467.0</ele><time>2026-04-14T14:33:34.896Z</time></trkpt><trkpt lat="42.5232867" lon="-7.389495"><ele>467.0</ele><time>2026-04-14T14:33:35.897Z</time></trkpt><trkpt lat="42.5232867" lon="-7.3893283"><ele>467.0</ele><time>2026-04-14T14:33:36.897Z</time></trkpt><trkpt lat="42.523285" lon="-7.3891583"><ele>467.0</ele><time>2026-04-14T14:33:37.896Z</time></trkpt><trkpt lat="42.5233" lon="-7.3889683"><ele>467.0</ele><time>2026-04-14T14:33:38.897Z</time></trkpt><trkpt lat="42.52333" lon="-7.388785"><ele>467.75</ele><time>2026-04-14T14:33:39.897Z</time></trkpt><trkpt lat="42.523365" lon="-7.3885883"><ele>468.5</ele><time>2026-04-14T14:33:40.896Z</time></trkpt><trkpt lat="42.5234133" lon="-7.3883933"><ele>469.25</ele><time>2026-04-14T14:33:41.896Z</time></trkpt><trkpt lat="42.5234683" lon="-7.38822"><ele>470.0</ele><time>2026-04-14T14:33:42.896Z</time></trkpt><trkpt lat="42.5235267" lon="-7.3880767"><ele>470.25</ele><time>2026-04-14T14:33:43.896Z</time></trkpt><trkpt lat="42.5236" lon="-7.3879533"><ele>470.5</ele><time>2026-04-14T14:33:44.896Z</time></trkpt><trkpt lat="42.5236867" lon="-7.3878283"><ele>470.75</ele><time>2026-04-14T14:33:45.897Z</time></trkpt><trkpt lat="42.5237783" lon="-7.3876983"><ele>471.0</ele><time>2026-04-14T14:33:46.896Z</time></trkpt><trkpt lat="42.5238667" lon="-7.3875433"><ele>470.0</ele><time>2026-04-14T14:33:47.897Z</time></trkpt><trkpt lat="42.5239383" lon="-7.38739"><ele>469.0</ele><time>2026-04-14T14:33:48.896Z</time></trkpt><trkpt lat="42.523995" lon="-7.387245"><ele>468.0</ele><time>2026-04-14T14:33:49.896Z</time></trkpt><trkpt lat="42.5240383" lon="-7.3870933"><ele>467.0</ele><time>2026-04-14T14:33:50.897Z</time></trkpt><trkpt lat="42.5240883" lon="-7.3869367"><ele>467.0</ele><time>2026-04-14T14:33:51.896Z</time></trkpt><trkpt lat="42.5241333" lon="-7.38679"><ele>467.0</ele><time>2026-04-14T14:33:52.896Z</time></trkpt><trkpt lat="42.524195" lon="-7.3866317"><ele>467.0</ele><time>2026-04-14T14:33:53.897Z</time></trkpt><trkpt lat="42.524255" lon="-7.3864717"><ele>467.0</ele><time>2026-04-14T14:33:54.896Z</time></trkpt><trkpt lat="42.5243083" lon="-7.3862967"><ele>468.5</ele><time>2026-04-14T14:33:55.896Z</time></trkpt><trkpt lat="42.5243533" lon="-7.3861167"><ele>470.0</ele><time>2026-04-14T14:33:56.896Z</time></trkpt><trkpt lat="42.5243867" lon="-7.3859333"><ele>471.5</ele><time>2026-04-14T14:33:57.896Z</time></trkpt><trkpt lat="42.5244183" lon="-7.3857767"><ele>473.0</ele><time>2026-04-14T14:33:58.897Z</time></trkpt><trkpt lat="42.5244633" lon="-7.3856467"><ele>473.0</ele><time>2026-04-14T14:33:59.897Z</time></trkpt><trkpt lat="42.5245167" lon="-7.38555"><ele>472.99999999999994</ele><time>2026-04-14T14:34:00.896Z</time></trkpt><trkpt lat="42.5245783" lon="-7.3854733"><ele>472.99999999999994</ele><time>2026-04-14T14:34:01.897Z</time></trkpt><trkpt lat="42.5246367" lon="-7.3853867"><ele>473.0</ele><time>2026-04-14T14:34:02.897Z</time></trkpt><trkpt lat="42.524675" lon="-7.3852967"><ele>473.0</ele><time>2026-04-14T14:34:03.896Z</time></trkpt><trkpt lat="42.5246883" lon="-7.3851217"><ele>472.4</ele><time>2026-04-14T14:34:05.897Z</time></trkpt><trkpt lat="42.5246667" lon="-7.3850117"><ele>471.79999999999995</ele><time>2026-04-14T14:34:06.896Z</time></trkpt><trkpt lat="42.5246417" lon="-7.38489"><ele>471.2</ele><time>2026-04-14T14:34:07.896Z</time></trkpt><trkpt lat="42.5246033" lon="-7.38476"><ele>470.6</ele><time>2026-04-14T14:34:08.897Z</time></trkpt><trkpt lat="42.5245533" lon="-7.3846233"><ele>470.0</ele><time>2026-04-14T14:34:09.897Z</time></trkpt><trkpt lat="42.5245167" lon="-7.38447"><ele>472.5</ele><time>2026-04-14T14:34:10.896Z</time></trkpt><trkpt lat="42.5244583" lon="-7.3843117"><ele>475.0</ele><time>2026-04-14T14:34:11.896Z</time></trkpt><trkpt lat="42.5244083" lon="-7.3841533"><ele>477.5</ele><time>2026-04-14T14:34:12.897Z</time></trkpt><trkpt lat="42.52436" lon="-7.3839883"><ele>480.0</ele><time>2026-04-14T14:34:13.896Z</time></trkpt><trkpt lat="42.524315" lon="-7.3838167"><ele>480.0</ele><time>2026-04-14T14:34:14.896Z</time></trkpt><trkpt lat="42.5242733" lon="-7.383655"><ele>480.0</ele><time>2026-04-14T14:34:15.897Z</time></trkpt><trkpt lat="42.5242467" lon="-7.3835083"><ele>480.0</ele><time>2026-04-14T14:34:16.896Z</time></trkpt><trkpt lat="42.5242383" lon="-7.3833783"><ele>480.0</ele><time>2026-04-14T14:34:17.896Z</time></trkpt><trkpt lat="42.5242617" lon="-7.3832783"><ele>480.0</ele><time>2026-04-14T14:34:18.896Z</time></trkpt><trkpt lat="42.52431" lon="-7.38319"><ele>480.0</ele><time>2026-04-14T14:34:19.897Z</time></trkpt><trkpt lat="42.5243683" lon="-7.3831217"><ele>480.0</ele><time>2026-04-14T14:34:20.897Z</time></trkpt><trkpt lat="42.524395" lon="-7.38304"><ele>480.0</ele><time>2026-04-14T14:34:21.896Z</time></trkpt><trkpt lat="42.5243683" lon="-7.3829067"><ele>480.0</ele><time>2026-04-14T14:34:23.896Z</time></trkpt><trkpt lat="42.5242717" lon="-7.382795"><ele>480.0</ele><time>2026-04-14T14:34:25.896Z</time></trkpt><trkpt lat="42.5241867" lon="-7.38274"><ele>480.8</ele><time>2026-04-14T14:34:26.896Z</time></trkpt><trkpt lat="42.52409" lon="-7.382685"><ele>481.6</ele><time>2026-04-14T14:34:27.897Z</time></trkpt><trkpt lat="42.5239967" lon="-7.3826433"><ele>482.4</ele><time>2026-04-14T14:34:28.897Z</time></trkpt><trkpt lat="42.5239317" lon="-7.382585"><ele>483.2</ele><time>2026-04-14T14:34:29.896Z</time></trkpt><trkpt lat="42.523905" lon="-7.382465"><ele>484.0</ele><time>2026-04-14T14:34:31.896Z</time></trkpt><trkpt lat="42.5240033" lon="-7.3823167"><ele>484.0</ele><time>2026-04-14T14:34:33.897Z</time></trkpt><trkpt lat="42.5240867" lon="-7.3822117"><ele>484.0</ele><time>2026-04-14T14:34:34.897Z</time></trkpt><trkpt lat="42.5241767" lon="-7.38209"><ele>484.0</ele><time>2026-04-14T14:34:35.897Z</time></trkpt><trkpt lat="42.52426" lon="-7.38195"><ele>484.0</ele><time>2026-04-14T14:34:36.897Z</time></trkpt><trkpt lat="42.5243483" lon="-7.3817983"><ele>484.33333333333337</ele><time>2026-04-14T14:34:37.897Z</time></trkpt><trkpt lat="42.5244417" lon="-7.3816417"><ele>484.66666666666663</ele><time>2026-04-14T14:34:38.896Z</time></trkpt><trkpt lat="42.5245367" lon="-7.3814767"><ele>485.0</ele><time>2026-04-14T14:34:39.896Z</time></trkpt><trkpt lat="42.52464" lon="-7.3813183"><ele>485.0</ele><time>2026-04-14T14:34:40.896Z</time></trkpt><trkpt lat="42.5247417" lon="-7.3811667"><ele>485.0</ele><time>2026-04-14T14:34:41.896Z</time></trkpt><trkpt lat="42.5248517" lon="-7.3810133"><ele>485.0</ele><time>2026-04-14T14:34:42.897Z</time></trkpt><trkpt lat="42.52495" lon="-7.38086"><ele>485.0</ele><time>2026-04-14T14:34:43.897Z</time></trkpt><trkpt lat="42.5250533" lon="-7.380705"><ele>485.0</ele><time>2026-04-14T14:34:44.897Z</time></trkpt><trkpt lat="42.5251533" lon="-7.3805517"><ele>485.0</ele><time>2026-04-14T14:34:45.896Z</time></trkpt><trkpt lat="42.525245" lon="-7.3804133"><ele>485.0</ele><time>2026-04-14T14:34:46.897Z</time></trkpt><trkpt lat="42.5253283" lon="-7.38027"><ele>484.5</ele><time>2026-04-14T14:34:47.897Z</time></trkpt><trkpt lat="42.5254067" lon="-7.3801167"><ele>484.0</ele><time>2026-04-14T14:34:48.896Z</time></trkpt><trkpt lat="42.5254717" lon="-7.3799533"><ele>483.5</ele><time>2026-04-14T14:34:49.896Z</time></trkpt><trkpt lat="42.5255317" lon="-7.37978"><ele>483.0</ele><time>2026-04-14T14:34:50.896Z</time></trkpt><trkpt lat="42.525585" lon="-7.379595"><ele>482.75</ele><time>2026-04-14T14:34:51.897Z</time></trkpt><trkpt lat="42.5256383" lon="-7.3794033"><ele>482.5</ele><time>2026-04-14T14:34:52.896Z</time></trkpt><trkpt lat="42.5256867" lon="-7.3792117"><ele>482.25</ele><time>2026-04-14T14:34:53.896Z</time></trkpt><trkpt lat="42.5257233" lon="-7.3790167"><ele>482.0</ele><time>2026-04-14T14:34:54.896Z</time></trkpt><trkpt lat="42.5257367" lon="-7.37882"><ele>480.5</ele><time>2026-04-14T14:34:55.896Z</time></trkpt><trkpt lat="42.5257367" lon="-7.378615"><ele>479.0</ele><time>2026-04-14T14:34:56.896Z</time></trkpt><trkpt lat="42.5257083" lon="-7.3784233"><ele>477.5</ele><time>2026-04-14T14:34:57.897Z</time></trkpt><trkpt lat="42.5256683" lon="-7.3782267"><ele>476.0</ele><time>2026-04-14T14:34:58.897Z</time></trkpt><trkpt lat="42.5256367" lon="-7.3780317"><ele>475.4</ele><time>2026-04-14T14:34:59.897Z</time></trkpt><trkpt lat="42.525605" lon="-7.3778567"><ele>474.8</ele><time>2026-04-14T14:35:00.897Z</time></trkpt><trkpt lat="42.5255983" lon="-7.3777033"><ele>474.19999999999993</ele><time>2026-04-14T14:35:01.897Z</time></trkpt><trkpt lat="42.525615" lon="-7.37757"><ele>473.59999999999997</ele><time>2026-04-14T14:35:02.896Z</time></trkpt><trkpt lat="42.5256467" lon="-7.3774433"><ele>473.0</ele><time>2026-04-14T14:35:03.896Z</time></trkpt><trkpt lat="42.5256667" lon="-7.3773033"><ele>473.25</ele><time>2026-04-14T14:35:04.896Z</time></trkpt><trkpt lat="42.525675" lon="-7.37715"><ele>473.5</ele><time>2026-04-14T14:35:05.897Z</time></trkpt><trkpt lat="42.5256767" lon="-7.3769833"><ele>473.75</ele><time>2026-04-14T14:35:06.897Z</time></trkpt><trkpt lat="42.5256633" lon="-7.376835"><ele>474.0</ele><time>2026-04-14T14:35:07.896Z</time></trkpt><trkpt lat="42.52563" lon="-7.3766983"><ele>474.0</ele><time>2026-04-14T14:35:08.897Z</time></trkpt><trkpt lat="42.5255833" lon="-7.3765733"><ele>474.0</ele><time>2026-04-14T14:35:09.896Z</time></trkpt><trkpt lat="42.5255417" lon="-7.3764767"><ele>474.0</ele><time>2026-04-14T14:35:10.897Z</time></trkpt><trkpt lat="42.5255033" lon="-7.37635"><ele>474.0</ele><time>2026-04-14T14:35:12.896Z</time></trkpt><trkpt lat="42.5255517" lon="-7.37628"><ele>474.0</ele><time>2026-04-14T14:35:17.897Z</time></trkpt><trkpt lat="42.5256467" lon="-7.3761883"><ele>474.1666666666667</ele><time>2026-04-14T14:35:20.896Z</time></trkpt><trkpt lat="42.5256933" lon="-7.3761283"><ele>474.33333333333337</ele><time>2026-04-14T14:35:21.896Z</time></trkpt><trkpt lat="42.525745" lon="-7.3760633"><ele>474.5</ele><time>2026-04-14T14:35:22.896Z</time></trkpt><trkpt lat="42.5257917" lon="-7.3759867"><ele>474.6666666666667</ele><time>2026-04-14T14:35:23.896Z</time></trkpt><trkpt lat="42.5258433" lon="-7.3758967"><ele>474.83333333333337</ele><time>2026-04-14T14:35:24.896Z</time></trkpt><trkpt lat="42.5259117" lon="-7.3758"><ele>475.0</ele><time>2026-04-14T14:35:25.896Z</time></trkpt><trkpt lat="42.525985" lon="-7.3756933"><ele>475.0</ele><time>2026-04-14T14:35:26.896Z</time></trkpt><trkpt lat="42.5260533" lon="-7.3755783"><ele>475.0</ele><time>2026-04-14T14:35:27.896Z</time></trkpt><trkpt lat="42.526115" lon="-7.37546"><ele>475.0</ele><time>2026-04-14T14:35:28.897Z</time></trkpt><trkpt lat="42.5261717" lon="-7.3753567"><ele>475.0</ele><time>2026-04-14T14:35:29.897Z</time></trkpt><trkpt lat="42.5262233" lon="-7.375255"><ele>475.0</ele><time>2026-04-14T14:35:30.896Z</time></trkpt><trkpt lat="42.52627" lon="-7.3751567"><ele>474.6</ele><time>2026-04-14T14:35:31.896Z</time></trkpt><trkpt lat="42.5263133" lon="-7.3750567"><ele>474.2</ele><time>2026-04-14T14:35:32.896Z</time></trkpt><trkpt lat="42.526355" lon="-7.3749583"><ele>473.79999999999995</ele><time>2026-04-14T14:35:33.896Z</time></trkpt><trkpt lat="42.52639" lon="-7.3748717"><ele>473.4</ele><time>2026-04-14T14:35:34.897Z</time></trkpt><trkpt lat="42.5264267" lon="-7.3747733"><ele>473.0</ele><time>2026-04-14T14:35:35.897Z</time></trkpt><trkpt lat="42.5256667" lon="-7.3773033"><ele>473.25</ele><time>2026-04-14T14:35:04.896Z</time></trkpt><trkpt lat="42.525675" lon="-7.37715"><ele>473.5</ele><time>2026-04-14T14:35:05.897Z</time></trkpt><trkpt lat="42.5256767" lon="-7.3769833"><ele>473.75</ele><time>2026-04-14T14:35:06.897Z</time></trkpt><trkpt lat="42.5256633" lon="-7.376835"><ele>474.0</ele><time>2026-04-14T14:35:07.896Z</time></trkpt><trkpt lat="42.52563" lon="-7.3766983"><ele>474.0</ele><time>2026-04-14T14:35:08.897Z</time></trkpt><trkpt lat="42.5255833" lon="-7.3765733"><ele>474.0</ele><time>2026-04-14T14:35:09.896Z</time></trkpt><trkpt lat="42.5255417" lon="-7.3764767"><ele>474.0</ele><time>2026-04-14T14:35:10.897Z</time></trkpt><trkpt lat="42.5255033" lon="-7.37635"><ele>474.0</ele><time>2026-04-14T14:35:12.896Z</time></trkpt><trkpt lat="42.5255517" lon="-7.37628"><ele>474.0</ele><time>2026-04-14T14:35:17.897Z</time></trkpt><trkpt lat="42.5256467" lon="-7.3761883"><ele>474.1666666666667</ele><time>2026-04-14T14:35:20.896Z</time></trkpt><trkpt lat="42.5256933" lon="-7.3761283"><ele>474.33333333333337</ele><time>2026-04-14T14:35:21.896Z</time></trkpt><trkpt lat="42.525745" lon="-7.3760633"><ele>474.5</ele><time>2026-04-14T14:35:22.896Z</time></trkpt><trkpt lat="42.5257917" lon="-7.3759867"><ele>474.6666666666667</ele><time>2026-04-14T14:35:23.896Z</time></trkpt><trkpt lat="42.5258433" lon="-7.3758967"><ele>474.83333333333337</ele><time>2026-04-14T14:35:24.896Z</time></trkpt><trkpt lat="42.5259117" lon="-7.3758"><ele>475.0</ele><time>2026-04-14T14:35:25.896Z</time></trkpt><trkpt lat="42.525985" lon="-7.3756933"><ele>475.0</ele><time>2026-04-14T14:35:26.896Z</time></trkpt><trkpt lat="42.5260533" lon="-7.3755783"><ele>475.0</ele><time>2026-04-14T14:35:27.896Z</time></trkpt><trkpt lat="42.526115" lon="-7.37546"><ele>475.0</ele><time>2026-04-14T14:35:28.897Z</time></trkpt><trkpt lat="42.5261717" lon="-7.3753567"><ele>475.0</ele><time>2026-04-14T14:35:29.897Z</time></trkpt><trkpt lat="42.5262233" lon="-7.375255"><ele>475.0</ele><time>2026-04-14T14:35:30.896Z</time></trkpt><trkpt lat="42.52627" lon="-7.3751567"><ele>475.1666666666667</ele><time>2026-04-14T14:35:31.896Z</time></trkpt><trkpt lat="42.5263133" lon="-7.3750567"><ele>475.33333333333337</ele><time>2026-04-14T14:35:32.896Z</time></trkpt><trkpt lat="42.526355" lon="-7.3749583"><ele>475.5</ele><time>2026-04-14T14:35:33.896Z</time></trkpt><trkpt lat="42.52639" lon="-7.3748717"><ele>475.66666666666663</ele><time>2026-04-14T14:35:34.897Z</time></trkpt><trkpt lat="42.5264267" lon="-7.3747733"><ele>475.8333333333333</ele><time>2026-04-14T14:35:35.897Z</time></trkpt><trkpt lat="42.5264733" lon="-7.3746667"><ele>476.0</ele><time>2026-04-14T14:35:36.896Z</time></trkpt><trkpt lat="42.526525" lon="-7.3745583"><ele>476.0</ele><time>2026-04-14T14:35:37.897Z</time></trkpt><trkpt lat="42.52658" lon="-7.3744417"><ele>476.0</ele><time>2026-04-14T14:35:38.896Z</time></trkpt><trkpt lat="42.5266333" lon="-7.3743233"><ele>476.0</ele><time>2026-04-14T14:35:39.896Z</time></trkpt><trkpt lat="42.5266917" lon="-7.37422"><ele>476.0</ele><time>2026-04-14T14:35:40.897Z</time></trkpt><trkpt lat="42.5267517" lon="-7.3741133"><ele>476.0</ele><time>2026-04-14T14:35:41.896Z</time></trkpt><trkpt lat="42.526815" lon="-7.374005"><ele>476.0</ele><time>2026-04-14T14:35:42.896Z</time></trkpt><trkpt lat="42.52688" lon="-7.3739017"><ele>476.0</ele><time>2026-04-14T14:35:43.896Z</time></trkpt><trkpt lat="42.5269417" lon="-7.3738033"><ele>476.0</ele><time>2026-04-14T14:35:44.896Z</time></trkpt><trkpt lat="42.5270117" lon="-7.37371"><ele>476.0</ele><time>2026-04-14T14:35:45.897Z</time></trkpt><trkpt lat="42.5270917" lon="-7.3736267"><ele>476.0</ele><time>2026-04-14T14:35:46.896Z</time></trkpt><trkpt lat="42.5271667" lon="-7.37355"><ele>476.16666666666663</ele><time>2026-04-14T14:35:47.897Z</time></trkpt><trkpt lat="42.5272383" lon="-7.3734883"><ele>476.3333333333333</ele><time>2026-04-14T14:35:48.897Z</time></trkpt><trkpt lat="42.52731" lon="-7.373445"><ele>476.5</ele><time>2026-04-14T14:35:49.896Z</time></trkpt><trkpt lat="42.52738" lon="-7.3734233"><ele>476.66666666666663</ele><time>2026-04-14T14:35:50.897Z</time></trkpt><trkpt lat="42.5275017" lon="-7.373415"><ele>476.8333333333333</ele><time>2026-04-14T14:35:52.896Z</time></trkpt><trkpt lat="42.52758" lon="-7.3734033"><ele>477.0</ele><time>2026-04-14T14:35:53.896Z</time></trkpt><trkpt lat="42.52766" lon="-7.373385"><ele>477.0</ele><time>2026-04-14T14:35:54.896Z</time></trkpt><trkpt lat="42.52774" lon="-7.3733683"><ele>477.0</ele><time>2026-04-14T14:35:55.896Z</time></trkpt><trkpt lat="42.5278033" lon="-7.3733533"><ele>477.0</ele><time>2026-04-14T14:35:56.896Z</time></trkpt><trkpt lat="42.5278867" lon="-7.3732983"><ele>477.0</ele><time>2026-04-14T14:35:58.897Z</time></trkpt><trkpt lat="42.52797" lon="-7.3732017"><ele>477.0</ele><time>2026-04-14T14:36:00.897Z</time></trkpt><trkpt lat="42.52802" lon="-7.3731383"><ele>477.0</ele><time>2026-04-14T14:36:01.896Z</time></trkpt><trkpt lat="42.5280683" lon="-7.3730717"><ele>477.8333333333333</ele><time>2026-04-14T14:36:02.897Z</time></trkpt><trkpt lat="42.5281217" lon="-7.3730083"><ele>478.66666666666663</ele><time>2026-04-14T14:36:03.896Z</time></trkpt><trkpt lat="42.528175" lon="-7.3729433"><ele>479.5</ele><time>2026-04-14T14:36:04.896Z</time></trkpt><trkpt lat="42.528235" lon="-7.372875"><ele>480.3333333333333</ele><time>2026-04-14T14:36:05.896Z</time></trkpt><trkpt lat="42.5282967" lon="-7.3727983"><ele>481.16666666666663</ele><time>2026-04-14T14:36:06.897Z</time></trkpt><trkpt lat="42.5283633" lon="-7.3727267"><ele>482.0</ele><time>2026-04-14T14:36:07.896Z</time></trkpt><trkpt lat="42.5284333" lon="-7.3726617"><ele>481.99999999999994</ele><time>2026-04-14T14:36:08.897Z</time></trkpt><trkpt lat="42.528495" lon="-7.3726117"><ele>482.0</ele><time>2026-04-14T14:36:09.896Z</time></trkpt><trkpt lat="42.5285617" lon="-7.3725683"><ele>482.0</ele><time>2026-04-14T14:36:10.897Z</time></trkpt><trkpt lat="42.528635" lon="-7.3725233"><ele>482.0</ele><time>2026-04-14T14:36:11.896Z</time></trkpt><trkpt lat="42.5287133" lon="-7.3724783"><ele>481.99999999999994</ele><time>2026-04-14T14:36:12.897Z</time></trkpt><trkpt lat="42.5287933" lon="-7.37244"><ele>482.0</ele><time>2026-04-14T14:36:13.896Z</time></trkpt><trkpt lat="42.5288717" lon="-7.3723967"><ele>482.49999999999994</ele><time>2026-04-14T14:36:14.896Z</time></trkpt><trkpt lat="42.5289383" lon="-7.3723483"><ele>483.0</ele><time>2026-04-14T14:36:15.896Z</time></trkpt><trkpt lat="42.529" lon="-7.3722983"><ele>483.5</ele><time>2026-04-14T14:36:16.896Z</time></trkpt><trkpt lat="42.5290567" lon="-7.3722467"><ele>484.0</ele><time>2026-04-14T14:36:17.897Z</time></trkpt><trkpt lat="42.5291167" lon="-7.3722"><ele>484.49999999999994</ele><time>2026-04-14T14:36:18.896Z</time></trkpt><trkpt lat="42.5292233" lon="-7.3720967"><ele>485.0</ele><time>2026-04-14T14:36:20.897Z</time></trkpt><trkpt lat="42.529295" lon="-7.3720533"><ele>485.0</ele><time>2026-04-14T14:36:21.896Z</time></trkpt><trkpt lat="42.5293633" lon="-7.3719833"><ele>485.0</ele><time>2026-04-14T14:36:22.897Z</time></trkpt><trkpt lat="42.5294533" lon="-7.3719083"><ele>485.0</ele><time>2026-04-14T14:36:23.896Z</time></trkpt><trkpt lat="42.5295433" lon="-7.371825"><ele>485.0</ele><time>2026-04-14T14:36:24.896Z</time></trkpt><trkpt lat="42.529635" lon="-7.3717233"><ele>485.0</ele><time>2026-04-14T14:36:25.896Z</time></trkpt><trkpt lat="42.52972" lon="-7.3716267"><ele>485.2</ele><time>2026-04-14T14:36:26.897Z</time></trkpt><trkpt lat="42.52981" lon="-7.371535"><ele>485.4</ele><time>2026-04-14T14:36:27.896Z</time></trkpt><trkpt lat="42.529895" lon="-7.37145"><ele>485.6</ele><time>2026-04-14T14:36:28.896Z</time></trkpt><trkpt lat="42.5299667" lon="-7.3713767"><ele>485.8</ele><time>2026-04-14T14:36:29.896Z</time></trkpt><trkpt lat="42.530035" lon="-7.3713117"><ele>486.0</ele><time>2026-04-14T14:36:30.896Z</time></trkpt><trkpt lat="42.5300967" lon="-7.3712617"><ele>486.1666666666667</ele><time>2026-04-14T14:36:31.897Z</time></trkpt><trkpt lat="42.5301567" lon="-7.37121"><ele>486.33333333333337</ele><time>2026-04-14T14:36:32.897Z</time></trkpt><trkpt lat="42.5302133" lon="-7.371155"><ele>486.5</ele><time>2026-04-14T14:36:33.896Z</time></trkpt><trkpt lat="42.5302683" lon="-7.3711033"><ele>486.6666666666667</ele><time>2026-04-14T14:36:34.897Z</time></trkpt><trkpt lat="42.5303667" lon="-7.371045"><ele>486.83333333333337</ele><time>2026-04-14T14:36:36.896Z</time></trkpt><trkpt lat="42.5304317" lon="-7.3710317"><ele>487.0</ele><time>2026-04-14T14:36:38.896Z</time></trkpt><trkpt lat="42.5305267" lon="-7.3710067"><ele>487.00000000000006</ele><time>2026-04-14T14:36:41.897Z</time></trkpt><trkpt lat="42.5306483" lon="-7.3709383"><ele>487.0</ele><time>2026-04-14T14:36:43.897Z</time></trkpt><trkpt lat="42.530715" lon="-7.3708933"><ele>487.0</ele><time>2026-04-14T14:36:44.896Z</time></trkpt><trkpt lat="42.5307717" lon="-7.3708533"><ele>487.0</ele><time>2026-04-14T14:36:45.896Z</time></trkpt><trkpt lat="42.5308317" lon="-7.37082"><ele>487.00000000000006</ele><time>2026-04-14T14:36:46.896Z</time></trkpt><trkpt lat="42.5309017" lon="-7.37079"><ele>487.0</ele><time>2026-04-14T14:36:47.896Z</time></trkpt><trkpt lat="42.5309833" lon="-7.37077"><ele>487.0</ele><time>2026-04-14T14:36:48.896Z</time></trkpt><trkpt lat="42.531065" lon="-7.370745"><ele>487.00000000000006</ele><time>2026-04-14T14:36:49.897Z</time></trkpt><trkpt lat="42.5311517" lon="-7.37072"><ele>487.00000000000006</ele><time>2026-04-14T14:36:50.897Z</time></trkpt><trkpt lat="42.531245" lon="-7.3706967"><ele>487.0</ele><time>2026-04-14T14:36:51.897Z</time></trkpt><trkpt lat="42.5313483" lon="-7.370675"><ele>487.0</ele><time>2026-04-14T14:36:52.896Z</time></trkpt><trkpt lat="42.53147" lon="-7.3706483"><ele>487.25</ele><time>2026-04-14T14:36:53.896Z</time></trkpt><trkpt lat="42.531605" lon="-7.3706233"><ele>487.5</ele><time>2026-04-14T14:36:54.897Z</time></trkpt><trkpt lat="42.531745" lon="-7.3705917"><ele>487.75</ele><time>2026-04-14T14:36:55.896Z</time></trkpt><trkpt lat="42.531885" lon="-7.3705517"><ele>488.0</ele><time>2026-04-14T14:36:56.896Z</time></trkpt><trkpt lat="42.5320217" lon="-7.3705117"><ele>488.79999999999995</ele><time>2026-04-14T14:36:57.896Z</time></trkpt><trkpt lat="42.5321267" lon="-7.3704783"><ele>489.59999999999997</ele><time>2026-04-14T14:36:58.896Z</time></trkpt><trkpt lat="42.53222" lon="-7.370455"><ele>490.40000000000003</ele><time>2026-04-14T14:36:59.896Z</time></trkpt><trkpt lat="42.5323167" lon="-7.370435"><ele>491.20000000000005</ele><time>2026-04-14T14:37:00.897Z</time></trkpt><trkpt lat="42.5324333" lon="-7.370395"><ele>492.0</ele><time>2026-04-14T14:37:01.897Z</time></trkpt><trkpt lat="42.53256" lon="-7.37034"><ele>492.0</ele><time>2026-04-14T14:37:02.897Z</time></trkpt><trkpt lat="42.53268" lon="-7.3702717"><ele>492.0</ele><time>2026-04-14T14:37:03.897Z</time></trkpt><trkpt lat="42.5327983" lon="-7.3702067"><ele>492.0</ele><time>2026-04-14T14:37:04.897Z</time></trkpt><trkpt lat="42.5328967" lon="-7.3701517"><ele>492.0</ele><time>2026-04-14T14:37:05.897Z</time></trkpt><trkpt lat="42.533" lon="-7.3700967"><ele>492.0</ele><time>2026-04-14T14:37:06.897Z</time></trkpt><trkpt lat="42.5331117" lon="-7.3700617"><ele>492.0</ele><time>2026-04-14T14:37:07.897Z</time></trkpt><trkpt lat="42.533245" lon="-7.3700467"><ele>492.0</ele><time>2026-04-14T14:37:08.897Z</time></trkpt><trkpt lat="42.5333867" lon="-7.3700417"><ele>492.0</ele><time>2026-04-14T14:37:09.898Z</time></trkpt><trkpt lat="42.5335183" lon="-7.3700433"><ele>492.0</ele><time>2026-04-14T14:37:10.898Z</time></trkpt><trkpt lat="42.53363" lon="-7.3700417"><ele>492.00000000000006</ele><time>2026-04-14T14:37:11.898Z</time></trkpt><trkpt lat="42.5337267" lon="-7.37002"><ele>492.00000000000006</ele><time>2026-04-14T14:37:12.897Z</time></trkpt><trkpt lat="42.5338133" lon="-7.3699933"><ele>492.0</ele><time>2026-04-14T14:37:13.897Z</time></trkpt><trkpt lat="42.5339117" lon="-7.3699417"><ele>492.0</ele><time>2026-04-14T14:37:14.898Z</time></trkpt><trkpt lat="42.5339833" lon="-7.3699"><ele>492.0</ele><time>2026-04-14T14:37:15.898Z</time></trkpt><trkpt lat="42.534065" lon="-7.3698417"><ele>492.0</ele><time>2026-04-14T14:37:17.898Z</time></trkpt><trkpt lat="42.5340433" lon="-7.3697083"><ele>492.0</ele><time>2026-04-14T14:37:26.898Z</time></trkpt><trkpt lat="42.5339967" lon="-7.3695867"><ele>492.0</ele><time>2026-04-14T14:37:27.897Z</time></trkpt><trkpt lat="42.53386" lon="-7.3693867"><ele>492.0</ele><time>2026-04-14T14:37:28.897Z</time></trkpt><trkpt lat="42.53376" lon="-7.3692017"><ele>492.0</ele><time>2026-04-14T14:37:29.898Z</time></trkpt><trkpt lat="42.5336683" lon="-7.36905"><ele>492.0</ele><time>2026-04-14T14:37:30.897Z</time></trkpt><trkpt lat="42.5335667" lon="-7.3688967"><ele>491.0</ele><time>2026-04-14T14:37:31.898Z</time></trkpt><trkpt lat="42.53346" lon="-7.3687167"><ele>490.0</ele><time>2026-04-14T14:37:32.897Z</time></trkpt><trkpt lat="42.53334" lon="-7.3685683"><ele>489.0</ele><time>2026-04-14T14:37:33.897Z</time></trkpt><trkpt lat="42.533225" lon="-7.368455"><ele>489.0</ele><time>2026-04-14T14:37:34.897Z</time></trkpt><trkpt lat="42.5331283" lon="-7.3683417"><ele>489.0</ele><time>2026-04-14T14:37:35.898Z</time></trkpt><trkpt lat="42.5330117" lon="-7.3682267"><ele>489.0</ele><time>2026-04-14T14:37:36.898Z</time></trkpt><trkpt lat="42.5329133" lon="-7.36807"><ele>489.0</ele><time>2026-04-14T14:37:37.897Z</time></trkpt><trkpt lat="42.5327883" lon="-7.3679433"><ele>488.2</ele><time>2026-04-14T14:37:38.897Z</time></trkpt><trkpt lat="42.5326833" lon="-7.3678183"><ele>487.4</ele><time>2026-04-14T14:37:39.898Z</time></trkpt><trkpt lat="42.532595" lon="-7.36772"><ele>486.6</ele><time>2026-04-14T14:37:40.898Z</time></trkpt><trkpt lat="42.5325367" lon="-7.3676417"><ele>485.8</ele><time>2026-04-14T14:37:41.898Z</time></trkpt><trkpt lat="42.5324633" lon="-7.3675517"><ele>485.0</ele><time>2026-04-14T14:37:43.898Z</time></trkpt><trkpt lat="42.5324533" lon="-7.3674517"><ele>485.0</ele><time>2026-04-14T14:37:46.897Z</time></trkpt><trkpt lat="42.5325017" lon="-7.367295"><ele>485.0</ele><time>2026-04-14T14:37:48.898Z</time></trkpt><trkpt lat="42.53255" lon="-7.3671567"><ele>485.0</ele><time>2026-04-14T14:37:49.897Z</time></trkpt><trkpt lat="42.5326067" lon="-7.3670133"><ele>485.0</ele><time>2026-04-14T14:37:50.897Z</time></trkpt><trkpt lat="42.5326617" lon="-7.3668533"><ele>484.0</ele><time>2026-04-14T14:37:51.898Z</time></trkpt><trkpt lat="42.53269" lon="-7.3666933"><ele>483.0</ele><time>2026-04-14T14:37:52.897Z</time></trkpt><trkpt lat="42.5326733" lon="-7.3665133"><ele>482.0</ele><time>2026-04-14T14:37:53.898Z</time></trkpt><trkpt lat="42.5326367" lon="-7.36629"><ele>481.0</ele><time>2026-04-14T14:37:54.898Z</time></trkpt><trkpt lat="42.5325683" lon="-7.3660617"><ele>480.25</ele><time>2026-04-14T14:37:55.898Z</time></trkpt><trkpt lat="42.5325067" lon="-7.36586"><ele>479.5</ele><time>2026-04-14T14:37:56.897Z</time></trkpt><trkpt lat="42.5324383" lon="-7.3656667"><ele>478.75</ele><time>2026-04-14T14:37:57.898Z</time></trkpt><trkpt lat="42.53239" lon="-7.36551"><ele>478.0</ele><time>2026-04-14T14:37:58.897Z</time></trkpt><trkpt lat="42.5323517" lon="-7.3654033"><ele>478.0</ele><time>2026-04-14T14:37:59.898Z</time></trkpt><trkpt lat="42.5323033" lon="-7.3653433"><ele>477.99999999999994</ele><time>2026-04-14T14:38:00.897Z</time></trkpt><trkpt lat="42.5322333" lon="-7.3653"><ele>477.99999999999994</ele><time>2026-04-14T14:38:01.898Z</time></trkpt><trkpt lat="42.5321517" lon="-7.3652417"><ele>478.0</ele><time>2026-04-14T14:38:02.898Z</time></trkpt><trkpt lat="42.5320167" lon="-7.3651717"><ele>478.0</ele><time>2026-04-14T14:38:03.897Z</time></trkpt><trkpt lat="42.531875" lon="-7.3650767"><ele>474.33333333333337</ele><time>2026-04-14T14:38:04.898Z</time></trkpt><trkpt lat="42.5317267" lon="-7.3649583"><ele>470.66666666666663</ele><time>2026-04-14T14:38:05.897Z</time></trkpt><trkpt lat="42.531575" lon="-7.3648217"><ele>467.0</ele><time>2026-04-14T14:38:06.898Z</time></trkpt><trkpt lat="42.5314267" lon="-7.3646683"><ele>467.0</ele><time>2026-04-14T14:38:07.898Z</time></trkpt><trkpt lat="42.531275" lon="-7.3645183"><ele>467.0</ele><time>2026-04-14T14:38:08.898Z</time></trkpt><trkpt lat="42.5311317" lon="-7.364375"><ele>467.0</ele><time>2026-04-14T14:38:09.897Z</time></trkpt><trkpt lat="42.5309933" lon="-7.3642517"><ele>464.75</ele><time>2026-04-14T14:38:10.898Z</time></trkpt><trkpt lat="42.530865" lon="-7.3641417"><ele>462.5</ele><time>2026-04-14T14:38:11.897Z</time></trkpt><trkpt lat="42.5307533" lon="-7.364035"><ele>460.25</ele><time>2026-04-14T14:38:12.898Z</time></trkpt><trkpt lat="42.5306867" lon="-7.363925"><ele>458.0</ele><time>2026-04-14T14:38:13.897Z</time></trkpt><trkpt lat="42.5306333" lon="-7.363805"><ele>457.0</ele><time>2026-04-14T14:38:14.898Z</time></trkpt><trkpt lat="42.53057" lon="-7.3636833"><ele>456.0</ele><time>2026-04-14T14:38:15.898Z</time></trkpt><trkpt lat="42.5304683" lon="-7.3635567"><ele>455.0</ele><time>2026-04-14T14:38:16.897Z</time></trkpt><trkpt lat="42.5303667" lon="-7.36346"><ele>454.0</ele><time>2026-04-14T14:38:17.898Z</time></trkpt><trkpt lat="42.53026" lon="-7.363365"><ele>452.25</ele><time>2026-04-14T14:38:18.897Z</time></trkpt><trkpt lat="42.53016" lon="-7.36326"><ele>450.5</ele><time>2026-04-14T14:38:19.897Z</time></trkpt><trkpt lat="42.53006" lon="-7.36315"><ele>448.75</ele><time>2026-04-14T14:38:20.897Z</time></trkpt><trkpt lat="42.529955" lon="-7.3630567"><ele>447.0</ele><time>2026-04-14T14:38:21.898Z</time></trkpt><trkpt lat="42.5298517" lon="-7.3629583"><ele>445.0</ele><time>2026-04-14T14:38:22.898Z</time></trkpt><trkpt lat="42.5297583" lon="-7.3628717"><ele>443.0</ele><time>2026-04-14T14:38:23.897Z</time></trkpt><trkpt lat="42.5296583" lon="-7.36279"><ele>441.0</ele><time>2026-04-14T14:38:24.897Z</time></trkpt><trkpt lat="42.52958" lon="-7.3626933"><ele>439.0</ele><time>2026-04-14T14:38:25.897Z</time></trkpt><trkpt lat="42.5294983" lon="-7.3625767"><ele>436.0</ele><time>2026-04-14T14:38:26.897Z</time></trkpt><trkpt lat="42.52941" lon="-7.3624417"><ele>433.0</ele><time>2026-04-14T14:38:27.898Z</time></trkpt><trkpt lat="42.5293283" lon="-7.3623083"><ele>430.0</ele><time>2026-04-14T14:38:28.897Z</time></trkpt><trkpt lat="42.529255" lon="-7.36219"><ele>427.0</ele><time>2026-04-14T14:38:29.897Z</time></trkpt><trkpt lat="42.5291933" lon="-7.3620933"><ele>425.50000000000006</ele><time>2026-04-14T14:38:30.897Z</time></trkpt><trkpt lat="42.5291467" lon="-7.3620333"><ele>424.0</ele><time>2026-04-14T14:38:31.898Z</time></trkpt><trkpt lat="42.5290867" lon="-7.3619933"><ele>422.5</ele><time>2026-04-14T14:38:32.897Z</time></trkpt><trkpt lat="42.5290117" lon="-7.36197"><ele>421.0</ele><time>2026-04-14T14:38:33.897Z</time></trkpt><trkpt lat="42.5289067" lon="-7.3619667"><ele>419.50000000000006</ele><time>2026-04-14T14:38:34.898Z</time></trkpt><trkpt lat="42.52879" lon="-7.36196"><ele>418.0</ele><time>2026-04-14T14:38:35.898Z</time></trkpt><trkpt lat="42.5286683" lon="-7.3619483"><ele>416.2</ele><time>2026-04-14T14:38:36.898Z</time></trkpt><trkpt lat="42.5285567" lon="-7.3619267"><ele>414.4</ele><time>2026-04-14T14:38:37.897Z</time></trkpt><trkpt lat="42.52846" lon="-7.3619"><ele>412.59999999999997</ele><time>2026-04-14T14:38:38.897Z</time></trkpt><trkpt lat="42.52838" lon="-7.3618683"><ele>410.79999999999995</ele><time>2026-04-14T14:38:39.898Z</time></trkpt><trkpt lat="42.5283117" lon="-7.3618117"><ele>409.0</ele><time>2026-04-14T14:38:40.898Z</time></trkpt><trkpt lat="42.5282633" lon="-7.3617317"><ele>409.0</ele><time>2026-04-14T14:38:41.898Z</time></trkpt><trkpt lat="42.5282033" lon="-7.36161"><ele>409.0</ele><time>2026-04-14T14:38:42.897Z</time></trkpt><trkpt lat="42.5281333" lon="-7.3614867"><ele>409.0</ele><time>2026-04-14T14:38:43.897Z</time></trkpt><trkpt lat="42.528045" lon="-7.3613817"><ele>409.0</ele><time>2026-04-14T14:38:44.897Z</time></trkpt><trkpt lat="42.527935" lon="-7.361275"><ele>408.75</ele><time>2026-04-14T14:38:45.897Z</time></trkpt><trkpt lat="42.5278233" lon="-7.3611633"><ele>408.5</ele><time>2026-04-14T14:38:46.897Z</time></trkpt><trkpt lat="42.5277183" lon="-7.361065"><ele>408.25</ele><time>2026-04-14T14:38:47.897Z</time></trkpt><trkpt lat="42.5276233" lon="-7.3609567"><ele>408.0</ele><time>2026-04-14T14:38:48.897Z</time></trkpt><trkpt lat="42.52753" lon="-7.3608533"><ele>408.0</ele><time>2026-04-14T14:38:49.898Z</time></trkpt><trkpt lat="42.52745" lon="-7.360745"><ele>408.0</ele><time>2026-04-14T14:38:50.898Z</time></trkpt><trkpt lat="42.5273683" lon="-7.3606183"><ele>408.0</ele><time>2026-04-14T14:38:51.897Z</time></trkpt><trkpt lat="42.5272933" lon="-7.3604667"><ele>408.0</ele><time>2026-04-14T14:38:52.898Z</time></trkpt><trkpt lat="42.5272233" lon="-7.3602933"><ele>408.33333333333337</ele><time>2026-04-14T14:38:53.898Z</time></trkpt><trkpt lat="42.5271583" lon="-7.360085"><ele>408.6666666666667</ele><time>2026-04-14T14:38:54.898Z</time></trkpt><trkpt lat="42.52709" lon="-7.359875"><ele>409.0</ele><time>2026-04-14T14:38:55.898Z</time></trkpt><trkpt lat="42.5270383" lon="-7.3596567"><ele>409.0</ele><time>2026-04-14T14:38:56.898Z</time></trkpt><trkpt lat="42.5269967" lon="-7.3594383"><ele>409.0</ele><time>2026-04-14T14:38:57.898Z</time></trkpt><trkpt lat="42.526945" lon="-7.3591883"><ele>409.0</ele><time>2026-04-14T14:38:58.898Z</time></trkpt><trkpt lat="42.5268917" lon="-7.35893"><ele>408.0</ele><time>2026-04-14T14:38:59.898Z</time></trkpt><trkpt lat="42.526855" lon="-7.358675"><ele>407.0</ele><time>2026-04-14T14:39:00.897Z</time></trkpt><trkpt lat="42.5268067" lon="-7.3584183"><ele>406.0</ele><time>2026-04-14T14:39:01.898Z</time></trkpt><trkpt lat="42.526765" lon="-7.3581767"><ele>405.75</ele><time>2026-04-14T14:39:02.898Z</time></trkpt><trkpt lat="42.5267233" lon="-7.3579717"><ele>405.5</ele><time>2026-04-14T14:39:03.897Z</time></trkpt><trkpt lat="42.52671" lon="-7.3578033"><ele>405.25</ele><time>2026-04-14T14:39:04.897Z</time></trkpt><trkpt lat="42.5267083" lon="-7.3576467"><ele>405.0</ele><time>2026-04-14T14:39:05.898Z</time></trkpt><trkpt lat="42.526745" lon="-7.3574933"><ele>405.0</ele><time>2026-04-14T14:39:06.898Z</time></trkpt><trkpt lat="42.5267933" lon="-7.35733"><ele>405.0</ele><time>2026-04-14T14:39:07.897Z</time></trkpt><trkpt lat="42.52686" lon="-7.3571533"><ele>405.0</ele><time>2026-04-14T14:39:08.898Z</time></trkpt><trkpt lat="42.52693" lon="-7.356975"><ele>405.0</ele><time>2026-04-14T14:39:09.897Z</time></trkpt><trkpt lat="42.5269967" lon="-7.35679"><ele>404.75</ele><time>2026-04-14T14:39:10.897Z</time></trkpt><trkpt lat="42.5270467" lon="-7.356615"><ele>404.5</ele><time>2026-04-14T14:39:11.897Z</time></trkpt><trkpt lat="42.5270667" lon="-7.35643"><ele>404.25</ele><time>2026-04-14T14:39:12.897Z</time></trkpt><trkpt lat="42.5270633" lon="-7.3562317"><ele>404.0</ele><time>2026-04-14T14:39:13.897Z</time></trkpt><trkpt lat="42.5270317" lon="-7.3560233"><ele>402.3333333333333</ele><time>2026-04-14T14:39:14.897Z</time></trkpt><trkpt lat="42.52701" lon="-7.35581"><ele>400.66666666666663</ele><time>2026-04-14T14:39:15.897Z</time></trkpt><trkpt lat="42.526945" lon="-7.3555933"><ele>399.0</ele><time>2026-04-14T14:39:16.897Z</time></trkpt><trkpt lat="42.526885" lon="-7.3553533"><ele>397.66666666666663</ele><time>2026-04-14T14:39:17.897Z</time></trkpt><trkpt lat="42.5268367" lon="-7.3551117"><ele>396.3333333333333</ele><time>2026-04-14T14:39:18.898Z</time></trkpt><trkpt lat="42.5268017" lon="-7.35491"><ele>395.0</ele><time>2026-04-14T14:39:19.897Z</time></trkpt><trkpt lat="42.5267833" lon="-7.3547083"><ele>394.2</ele><time>2026-04-14T14:39:20.897Z</time></trkpt><trkpt lat="42.5267667" lon="-7.35455"><ele>393.4</ele><time>2026-04-14T14:39:21.898Z</time></trkpt><trkpt lat="42.5267583" lon="-7.354445"><ele>392.6</ele><time>2026-04-14T14:39:22.897Z</time></trkpt><trkpt lat="42.5267917" lon="-7.3543517"><ele>391.8</ele><time>2026-04-14T14:39:24.897Z</time></trkpt><trkpt lat="42.5268967" lon="-7.3542783"><ele>391.0</ele><time>2026-04-14T14:39:26.897Z</time></trkpt><trkpt lat="42.5269767" lon="-7.3542333"><ele>394.8</ele><time>2026-04-14T14:39:27.898Z</time></trkpt><trkpt lat="42.5270667" lon="-7.3541783"><ele>398.6</ele><time>2026-04-14T14:39:28.897Z</time></trkpt><trkpt lat="42.527155" lon="-7.3541083"><ele>402.4</ele><time>2026-04-14T14:39:29.898Z</time></trkpt><trkpt lat="42.52724" lon="-7.3540333"><ele>406.2</ele><time>2026-04-14T14:39:30.897Z</time></trkpt><trkpt lat="42.5273217" lon="-7.3539017"><ele>410.0</ele><time>2026-04-14T14:39:31.897Z</time></trkpt><trkpt lat="42.5273683" lon="-7.353725"><ele>410.0</ele><time>2026-04-14T14:39:32.897Z</time></trkpt><trkpt lat="42.5273817" lon="-7.3535083"><ele>410.0</ele><time>2026-04-14T14:39:33.898Z</time></trkpt><trkpt lat="42.5273683" lon="-7.353275"><ele>410.0</ele><time>2026-04-14T14:39:34.898Z</time></trkpt><trkpt lat="42.5273383" lon="-7.353065"><ele>408.0</ele><time>2026-04-14T14:39:35.897Z</time></trkpt><trkpt lat="42.5273267" lon="-7.3528833"><ele>406.0</ele><time>2026-04-14T14:39:36.898Z</time></trkpt><trkpt lat="42.5273233" lon="-7.3527367"><ele>404.0</ele><time>2026-04-14T14:39:37.897Z</time></trkpt><trkpt lat="42.5273367" lon="-7.3526233"><ele>402.0</ele><time>2026-04-14T14:39:38.897Z</time></trkpt><trkpt lat="42.5273833" lon="-7.3525167"><ele>400.0</ele><time>2026-04-14T14:39:39.898Z</time></trkpt><trkpt lat="42.5274483" lon="-7.35245"><ele>400.0</ele><time>2026-04-14T14:39:40.897Z</time></trkpt><trkpt lat="42.527535" lon="-7.3523933"><ele>400.0</ele><time>2026-04-14T14:39:41.897Z</time></trkpt><trkpt lat="42.5276433" lon="-7.3523533"><ele>400.0</ele><time>2026-04-14T14:39:42.897Z</time></trkpt><trkpt lat="42.5277917" lon="-7.3523533"><ele>400.0</ele><time>2026-04-14T14:39:43.898Z</time></trkpt><trkpt lat="42.5279567" lon="-7.3523417"><ele>403.6666666666667</ele><time>2026-04-14T14:39:44.898Z</time></trkpt><trkpt lat="42.5281283" lon="-7.3523017"><ele>407.33333333333337</ele><time>2026-04-14T14:39:45.898Z</time></trkpt><trkpt lat="42.5283183" lon="-7.35222"><ele>411.0</ele><time>2026-04-14T14:39:46.897Z</time></trkpt><trkpt lat="42.5285033" lon="-7.3521133"><ele>411.0</ele><time>2026-04-14T14:39:47.897Z</time></trkpt><trkpt lat="42.5286933" lon="-7.3519983"><ele>411.0</ele><time>2026-04-14T14:39:48.897Z</time></trkpt><trkpt lat="42.5288667" lon="-7.3518933"><ele>411.0</ele><time>2026-04-14T14:39:49.897Z</time></trkpt><trkpt lat="42.52903" lon="-7.3517933"><ele>414.75</ele><time>2026-04-14T14:39:50.897Z</time></trkpt><trkpt lat="42.529185" lon="-7.35171"><ele>418.5</ele><time>2026-04-14T14:39:51.897Z</time></trkpt><trkpt lat="42.5292983" lon="-7.35164"><ele>422.25</ele><time>2026-04-14T14:39:52.898Z</time></trkpt><trkpt lat="42.529395" lon="-7.3515967"><ele>426.0</ele><time>2026-04-14T14:39:53.897Z</time></trkpt><trkpt lat="42.5294717" lon="-7.35156"><ele>431.4</ele><time>2026-04-14T14:39:54.898Z</time></trkpt><trkpt lat="42.5295667" lon="-7.3515533"><ele>436.8</ele><time>2026-04-14T14:39:55.898Z</time></trkpt><trkpt lat="42.5296583" lon="-7.3515417"><ele>442.19999999999993</ele><time>2026-04-14T14:39:56.897Z</time></trkpt><trkpt lat="42.52975" lon="-7.3515233"><ele>447.59999999999997</ele><time>2026-04-14T14:39:57.897Z</time></trkpt><trkpt lat="42.5298417" lon="-7.3515"><ele>453.0</ele><time>2026-04-14T14:39:58.897Z</time></trkpt><trkpt lat="42.52993" lon="-7.3514417"><ele>448.5</ele><time>2026-04-14T14:39:59.897Z</time></trkpt><trkpt lat="42.530015" lon="-7.3513467"><ele>444.0</ele><time>2026-04-14T14:40:00.897Z</time></trkpt><trkpt lat="42.5300933" lon="-7.3512267"><ele>439.5</ele><time>2026-04-14T14:40:01.897Z</time></trkpt><trkpt lat="42.5301733" lon="-7.3510767"><ele>435.0</ele><time>2026-04-14T14:40:02.898Z</time></trkpt><trkpt lat="42.5302483" lon="-7.350895"><ele>435.0</ele><time>2026-04-14T14:40:03.898Z</time></trkpt><trkpt lat="42.5303333" lon="-7.350695"><ele>435.0</ele><time>2026-04-14T14:40:04.897Z</time></trkpt><trkpt lat="42.5273817" lon="-7.3535083"><ele>426.66666666666663</ele><time>2026-04-14T14:39:33.898Z</time></trkpt><trkpt lat="42.5273683" lon="-7.353275"><ele>418.3333333333333</ele><time>2026-04-14T14:39:34.898Z</time></trkpt><trkpt lat="42.5273383" lon="-7.353065"><ele>410.0</ele><time>2026-04-14T14:39:35.897Z</time></trkpt><trkpt lat="42.5273267" lon="-7.3528833"><ele>408.0</ele><time>2026-04-14T14:39:36.898Z</time></trkpt><trkpt lat="42.5273233" lon="-7.3527367"><ele>406.0</ele><time>2026-04-14T14:39:37.897Z</time></trkpt><trkpt lat="42.5273367" lon="-7.3526233"><ele>404.0</ele><time>2026-04-14T14:39:38.897Z</time></trkpt><trkpt lat="42.5273833" lon="-7.3525167"><ele>402.0</ele><time>2026-04-14T14:39:39.898Z</time></trkpt><trkpt lat="42.5274483" lon="-7.35245"><ele>400.0</ele><time>2026-04-14T14:39:40.897Z</time></trkpt><trkpt lat="42.527535" lon="-7.3523933"><ele>400.0</ele><time>2026-04-14T14:39:41.897Z</time></trkpt><trkpt lat="42.5276433" lon="-7.3523533"><ele>400.0</ele><time>2026-04-14T14:39:42.897Z</time></trkpt><trkpt lat="42.5277917" lon="-7.3523533"><ele>400.0</ele><time>2026-04-14T14:39:43.898Z</time></trkpt><trkpt lat="42.5279567" lon="-7.3523417"><ele>400.0</ele><time>2026-04-14T14:39:44.898Z</time></trkpt><trkpt lat="42.5281283" lon="-7.3523017"><ele>403.6666666666667</ele><time>2026-04-14T14:39:45.898Z</time></trkpt><trkpt lat="42.5283183" lon="-7.35222"><ele>407.33333333333337</ele><time>2026-04-14T14:39:46.897Z</time></trkpt><trkpt lat="42.5285033" lon="-7.3521133"><ele>411.0</ele><time>2026-04-14T14:39:47.897Z</time></trkpt><trkpt lat="42.5286933" lon="-7.3519983"><ele>416.0</ele><time>2026-04-14T14:39:48.897Z</time></trkpt><trkpt lat="42.5288667" lon="-7.3518933"><ele>421.0</ele><time>2026-04-14T14:39:49.897Z</time></trkpt><trkpt lat="42.52903" lon="-7.3517933"><ele>426.0</ele><time>2026-04-14T14:39:50.897Z</time></trkpt><trkpt lat="42.529185" lon="-7.35171"><ele>426.0</ele><time>2026-04-14T14:39:51.897Z</time></trkpt><trkpt lat="42.5292983" lon="-7.35164"><ele>426.0</ele><time>2026-04-14T14:39:52.898Z</time></trkpt><trkpt lat="42.529395" lon="-7.3515967"><ele>426.0</ele><time>2026-04-14T14:39:53.897Z</time></trkpt><trkpt lat="42.5294717" lon="-7.35156"><ele>426.0</ele><time>2026-04-14T14:39:54.898Z</time></trkpt><trkpt lat="42.5295667" lon="-7.3515533"><ele>426.0</ele><time>2026-04-14T14:39:55.898Z</time></trkpt><trkpt lat="42.5296583" lon="-7.3515417"><ele>427.8</ele><time>2026-04-14T14:39:56.897Z</time></trkpt><trkpt lat="42.52975" lon="-7.3515233"><ele>429.6</ele><time>2026-04-14T14:39:57.897Z</time></trkpt><trkpt lat="42.5298417" lon="-7.3515"><ele>431.4</ele><time>2026-04-14T14:39:58.897Z</time></trkpt><trkpt lat="42.52993" lon="-7.3514417"><ele>433.2</ele><time>2026-04-14T14:39:59.897Z</time></trkpt><trkpt lat="42.530015" lon="-7.3513467"><ele>435.0</ele><time>2026-04-14T14:40:00.897Z</time></trkpt><trkpt lat="42.5300933" lon="-7.3512267"><ele>435.0</ele><time>2026-04-14T14:40:01.897Z</time></trkpt><trkpt lat="42.5301733" lon="-7.3510767"><ele>435.0</ele><time>2026-04-14T14:40:02.898Z</time></trkpt><trkpt lat="42.5302483" lon="-7.350895"><ele>435.0</ele><time>2026-04-14T14:40:03.898Z</time></trkpt><trkpt lat="42.5303333" lon="-7.350695"><ele>439.0</ele><time>2026-04-14T14:40:04.897Z</time></trkpt><trkpt lat="42.53041" lon="-7.3505"><ele>443.0</ele><time>2026-04-14T14:40:05.898Z</time></trkpt><trkpt lat="42.530485" lon="-7.3503217"><ele>447.0</ele><time>2026-04-14T14:40:06.898Z</time></trkpt><trkpt lat="42.5305383" lon="-7.3501683"><ele>451.0</ele><time>2026-04-14T14:40:07.897Z</time></trkpt><trkpt lat="42.5305683" lon="-7.3500617"><ele>451.0</ele><time>2026-04-14T14:40:08.897Z</time></trkpt><trkpt lat="42.530595" lon="-7.34998"><ele>451.0</ele><time>2026-04-14T14:40:09.898Z</time></trkpt><trkpt lat="42.530565" lon="-7.3498967"><ele>451.0</ele><time>2026-04-14T14:40:11.897Z</time></trkpt><trkpt lat="42.530475" lon="-7.3499333"><ele>451.0</ele><time>2026-04-14T14:40:14.898Z</time></trkpt><trkpt lat="42.53044" lon="-7.3500083"><ele>451.0</ele><time>2026-04-14T14:40:16.898Z</time></trkpt><trkpt lat="42.530255" lon="-7.350315"><ele>449.25</ele><time>2026-04-14T14:40:18.897Z</time></trkpt><trkpt lat="42.5301917" lon="-7.350385"><ele>447.5</ele><time>2026-04-14T14:40:19.897Z</time></trkpt><trkpt lat="42.5301017" lon="-7.35046"><ele>445.75</ele><time>2026-04-14T14:40:20.897Z</time></trkpt><trkpt lat="42.52992" lon="-7.350575"><ele>444.0</ele><time>2026-04-14T14:40:21.898Z</time></trkpt><trkpt lat="42.529805" lon="-7.350605"><ele>441.0</ele><time>2026-04-14T14:40:22.897Z</time></trkpt><trkpt lat="42.5296333" lon="-7.35066"><ele>438.0</ele><time>2026-04-14T14:40:23.897Z</time></trkpt><trkpt lat="42.529455" lon="-7.350715"><ele>435.0</ele><time>2026-04-14T14:40:24.897Z</time></trkpt><trkpt lat="42.5292067" lon="-7.3507783"><ele>433.0</ele><time>2026-04-14T14:40:25.897Z</time></trkpt><trkpt lat="42.528985" lon="-7.35081"><ele>431.0</ele><time>2026-04-14T14:40:26.897Z</time></trkpt><trkpt lat="42.52878" lon="-7.350825"><ele>429.0</ele><time>2026-04-14T14:40:27.898Z</time></trkpt><trkpt lat="42.52859" lon="-7.3508233"><ele>429.0</ele><time>2026-04-14T14:40:28.897Z</time></trkpt><trkpt lat="42.5283933" lon="-7.35083"><ele>429.0</ele><time>2026-04-14T14:40:29.897Z</time></trkpt><trkpt lat="42.5282" lon="-7.3508583"><ele>429.0</ele><time>2026-04-14T14:40:30.897Z</time></trkpt><trkpt lat="42.5280183" lon="-7.3508833"><ele>430.33333333333337</ele><time>2026-04-14T14:40:31.897Z</time></trkpt><trkpt lat="42.52784" lon="-7.3509"><ele>431.6666666666667</ele><time>2026-04-14T14:40:32.897Z</time></trkpt><trkpt lat="42.5276583" lon="-7.350905"><ele>433.0</ele><time>2026-04-14T14:40:33.897Z</time></trkpt><trkpt lat="42.5274717" lon="-7.350875"><ele>433.0</ele><time>2026-04-14T14:40:34.898Z</time></trkpt><trkpt lat="42.527295" lon="-7.35083"><ele>433.0</ele><time>2026-04-14T14:40:35.897Z</time></trkpt><trkpt lat="42.5271517" lon="-7.350775"><ele>433.0</ele><time>2026-04-14T14:40:36.897Z</time></trkpt><trkpt lat="42.52706" lon="-7.3507"><ele>433.0</ele><time>2026-04-14T14:40:37.898Z</time></trkpt><trkpt lat="42.5269767" lon="-7.3505867"><ele>432.0</ele><time>2026-04-14T14:40:38.897Z</time></trkpt><trkpt lat="42.5269167" lon="-7.350445"><ele>431.0</ele><time>2026-04-14T14:40:39.898Z</time></trkpt><trkpt lat="42.5268717" lon="-7.35027"><ele>430.0</ele><time>2026-04-14T14:40:40.897Z</time></trkpt><trkpt lat="42.5268367" lon="-7.3500733"><ele>429.0</ele><time>2026-04-14T14:40:41.897Z</time></trkpt><trkpt lat="42.5267983" lon="-7.349865"><ele>431.33333333333337</ele><time>2026-04-14T14:40:42.898Z</time></trkpt><trkpt lat="42.52675" lon="-7.3496467"><ele>433.6666666666667</ele><time>2026-04-14T14:40:43.898Z</time></trkpt><trkpt lat="42.526695" lon="-7.3494333"><ele>436.0</ele><time>2026-04-14T14:40:44.897Z</time></trkpt><trkpt lat="42.5266533" lon="-7.349225"><ele>436.0</ele><time>2026-04-14T14:40:45.898Z</time></trkpt><trkpt lat="42.5266417" lon="-7.3490433"><ele>436.0</ele><time>2026-04-14T14:40:46.898Z</time></trkpt><trkpt lat="42.5266583" lon="-7.3488767"><ele>436.0</ele><time>2026-04-14T14:40:47.898Z</time></trkpt><trkpt lat="42.5267017" lon="-7.3487083"><ele>436.0</ele><time>2026-04-14T14:40:48.898Z</time></trkpt><trkpt lat="42.5267533" lon="-7.3485317"><ele>436.25</ele><time>2026-04-14T14:40:49.897Z</time></trkpt><trkpt lat="42.52682" lon="-7.348365"><ele>436.5</ele><time>2026-04-14T14:40:50.897Z</time></trkpt><trkpt lat="42.526885" lon="-7.3481933"><ele>436.75</ele><time>2026-04-14T14:40:51.897Z</time></trkpt><trkpt lat="42.5269433" lon="-7.3480083"><ele>437.0</ele><time>2026-04-14T14:40:52.897Z</time></trkpt><trkpt lat="42.5270067" lon="-7.3478267"><ele>447.0</ele><time>2026-04-14T14:40:53.898Z</time></trkpt><trkpt lat="42.5270917" lon="-7.3476467"><ele>457.0</ele><time>2026-04-14T14:40:54.898Z</time></trkpt><trkpt lat="42.52718" lon="-7.3474767"><ele>467.0</ele><time>2026-04-14T14:40:55.898Z</time></trkpt><trkpt lat="42.5272683" lon="-7.3472967"><ele>465.0</ele><time>2026-04-14T14:40:56.897Z</time></trkpt><trkpt lat="42.5273567" lon="-7.347125"><ele>463.0</ele><time>2026-04-14T14:40:57.897Z</time></trkpt><trkpt lat="42.527445" lon="-7.3469733"><ele>461.0</ele><time>2026-04-14T14:40:58.898Z</time></trkpt><trkpt lat="42.5275217" lon="-7.3468417"><ele>459.0</ele><time>2026-04-14T14:40:59.897Z</time></trkpt><trkpt lat="42.5275933" lon="-7.346705"><ele>459.0</ele><time>2026-04-14T14:41:00.897Z</time></trkpt><trkpt lat="42.5276717" lon="-7.346585"><ele>459.0</ele><time>2026-04-14T14:41:01.897Z</time></trkpt><trkpt lat="42.527755" lon="-7.3464983"><ele>459.0</ele><time>2026-04-14T14:41:02.898Z</time></trkpt><trkpt lat="42.5278133" lon="-7.3464467"><ele>459.0</ele><time>2026-04-14T14:41:03.898Z</time></trkpt><trkpt lat="42.5277983" lon="-7.3465333"><ele>459.0</ele><time>2026-04-14T14:41:10.898Z</time></trkpt><trkpt lat="42.527745" lon="-7.34659"><ele>459.0</ele><time>2026-04-14T14:41:11.898Z</time></trkpt><trkpt lat="42.5268717" lon="-7.35027"><ele>451.33333333333337</ele><time>2026-04-14T14:40:40.897Z</time></trkpt><trkpt lat="42.5268367" lon="-7.3500733"><ele>443.6666666666667</ele><time>2026-04-14T14:40:41.897Z</time></trkpt><trkpt lat="42.5267983" lon="-7.349865"><ele>436.0</ele><time>2026-04-14T14:40:42.898Z</time></trkpt><trkpt lat="42.52675" lon="-7.3496467"><ele>436.0</ele><time>2026-04-14T14:40:43.898Z</time></trkpt><trkpt lat="42.526695" lon="-7.3494333"><ele>436.0</ele><time>2026-04-14T14:40:44.897Z</time></trkpt><trkpt lat="42.5266533" lon="-7.349225"><ele>436.0</ele><time>2026-04-14T14:40:45.898Z</time></trkpt><trkpt lat="42.5266417" lon="-7.3490433"><ele>436.0</ele><time>2026-04-14T14:40:46.898Z</time></trkpt><trkpt lat="42.5266583" lon="-7.3488767"><ele>436.0</ele><time>2026-04-14T14:40:47.898Z</time></trkpt><trkpt lat="42.5267017" lon="-7.3487083"><ele>436.0</ele><time>2026-04-14T14:40:48.898Z</time></trkpt><trkpt lat="42.5267533" lon="-7.3485317"><ele>436.0</ele><time>2026-04-14T14:40:49.897Z</time></trkpt><trkpt lat="42.52682" lon="-7.348365"><ele>436.25</ele><time>2026-04-14T14:40:50.897Z</time></trkpt><trkpt lat="42.526885" lon="-7.3481933"><ele>436.5</ele><time>2026-04-14T14:40:51.897Z</time></trkpt><trkpt lat="42.5269433" lon="-7.3480083"><ele>436.75</ele><time>2026-04-14T14:40:52.897Z</time></trkpt><trkpt lat="42.5270067" lon="-7.3478267"><ele>437.0</ele><time>2026-04-14T14:40:53.898Z</time></trkpt><trkpt lat="42.5270917" lon="-7.3476467"><ele>444.3333333333333</ele><time>2026-04-14T14:40:54.898Z</time></trkpt><trkpt lat="42.52718" lon="-7.3474767"><ele>451.66666666666663</ele><time>2026-04-14T14:40:55.898Z</time></trkpt><trkpt lat="42.5272683" lon="-7.3472967"><ele>459.0</ele><time>2026-04-14T14:40:56.897Z</time></trkpt><trkpt lat="42.5273567" lon="-7.347125"><ele>459.0</ele><time>2026-04-14T14:40:57.897Z</time></trkpt><trkpt lat="42.527445" lon="-7.3469733"><ele>459.0</ele><time>2026-04-14T14:40:58.898Z</time></trkpt><trkpt lat="42.5275217" lon="-7.3468417"><ele>459.0</ele><time>2026-04-14T14:40:59.897Z</time></trkpt><trkpt lat="42.5275933" lon="-7.346705"><ele>459.0</ele><time>2026-04-14T14:41:00.897Z</time></trkpt><trkpt lat="42.5276717" lon="-7.346585"><ele>459.0</ele><time>2026-04-14T14:41:01.897Z</time></trkpt><trkpt lat="42.527755" lon="-7.3464983"><ele>459.0</ele><time>2026-04-14T14:41:02.898Z</time></trkpt><trkpt lat="42.5278133" lon="-7.3464467"><ele>459.0</ele><time>2026-04-14T14:41:03.898Z</time></trkpt><trkpt lat="42.5277983" lon="-7.3465333"><ele>459.0</ele><time>2026-04-14T14:41:10.898Z</time></trkpt><trkpt lat="42.527745" lon="-7.34659"><ele>459.0</ele><time>2026-04-14T14:41:11.898Z</time></trkpt><trkpt lat="42.5276917" lon="-7.346675"><ele>459.0</ele><time>2026-04-14T14:41:12.898Z</time></trkpt><trkpt lat="42.5276483" lon="-7.3467833"><ele>459.0</ele><time>2026-04-14T14:41:13.898Z</time></trkpt><trkpt lat="42.52762" lon="-7.3469067"><ele>459.0</ele><time>2026-04-14T14:41:14.898Z</time></trkpt><trkpt lat="42.5276083" lon="-7.3470467"><ele>459.0</ele><time>2026-04-14T14:41:15.897Z</time></trkpt><trkpt lat="42.5275983" lon="-7.3471967"><ele>459.0</ele><time>2026-04-14T14:41:16.898Z</time></trkpt><trkpt lat="42.5276" lon="-7.34735"><ele>459.0</ele><time>2026-04-14T14:41:17.898Z</time></trkpt><trkpt lat="42.5276083" lon="-7.3475"><ele>460.75</ele><time>2026-04-14T14:41:18.897Z</time></trkpt><trkpt lat="42.5276283" lon="-7.3476567"><ele>462.5</ele><time>2026-04-14T14:41:19.898Z</time></trkpt><trkpt lat="42.5276533" lon="-7.3478117"><ele>464.25</ele><time>2026-04-14T14:41:20.897Z</time></trkpt><trkpt lat="42.527685" lon="-7.3479617"><ele>466.0</ele><time>2026-04-14T14:41:21.898Z</time></trkpt><trkpt lat="42.5277317" lon="-7.3481217"><ele>466.0</ele><time>2026-04-14T14:41:22.897Z</time></trkpt><trkpt lat="42.5277917" lon="-7.3482967"><ele>466.0</ele><time>2026-04-14T14:41:23.897Z</time></trkpt><trkpt lat="42.527875" lon="-7.348485"><ele>466.0</ele><time>2026-04-14T14:41:24.897Z</time></trkpt><trkpt lat="42.5279783" lon="-7.3486783"><ele>469.0</ele><time>2026-04-14T14:41:25.898Z</time></trkpt><trkpt lat="42.5280833" lon="-7.3488333"><ele>472.0</ele><time>2026-04-14T14:41:26.898Z</time></trkpt><trkpt lat="42.528185" lon="-7.34896"><ele>475.0</ele><time>2026-04-14T14:41:27.898Z</time></trkpt><trkpt lat="42.5283067" lon="-7.3490667"><ele>478.0</ele><time>2026-04-14T14:41:28.898Z</time></trkpt><trkpt lat="42.5284517" lon="-7.3491617"><ele>478.0</ele><time>2026-04-14T14:41:29.897Z</time></trkpt><trkpt lat="42.5285883" lon="-7.3492217"><ele>478.0</ele><time>2026-04-14T14:41:30.897Z</time></trkpt><trkpt lat="42.5287267" lon="-7.3492383"><ele>478.0</ele><time>2026-04-14T14:41:31.897Z</time></trkpt><trkpt lat="42.5288617" lon="-7.3492333"><ele>478.0</ele><time>2026-04-14T14:41:32.898Z</time></trkpt><trkpt lat="42.5289983" lon="-7.3491983"><ele>479.0</ele><time>2026-04-14T14:41:33.897Z</time></trkpt><trkpt lat="42.5291383" lon="-7.34915"><ele>480.0</ele><time>2026-04-14T14:41:34.897Z</time></trkpt><trkpt lat="42.5292833" lon="-7.3490883"><ele>481.0</ele><time>2026-04-14T14:41:35.898Z</time></trkpt><trkpt lat="42.529415" lon="-7.3490433"><ele>482.0</ele><time>2026-04-14T14:41:36.897Z</time></trkpt><trkpt lat="42.5295067" lon="-7.3490033"><ele>481.99999999999994</ele><time>2026-04-14T14:41:37.897Z</time></trkpt><trkpt lat="42.529565" lon="-7.34895"><ele>482.0</ele><time>2026-04-14T14:41:39.898Z</time></trkpt><trkpt lat="42.529505" lon="-7.3489"><ele>482.0</ele><time>2026-04-14T14:41:41.897Z</time></trkpt><trkpt lat="42.5294317" lon="-7.3488967"><ele>482.0</ele><time>2026-04-14T14:41:42.897Z</time></trkpt><trkpt lat="42.529345" lon="-7.348895"><ele>481.99999999999994</ele><time>2026-04-14T14:41:43.897Z</time></trkpt><trkpt lat="42.529245" lon="-7.3489"><ele>482.0</ele><time>2026-04-14T14:41:44.897Z</time></trkpt><trkpt lat="42.5291267" lon="-7.34889"><ele>485.0</ele><time>2026-04-14T14:41:45.897Z</time></trkpt><trkpt lat="42.529" lon="-7.3488517"><ele>488.0</ele><time>2026-04-14T14:41:46.898Z</time></trkpt><trkpt lat="42.52887" lon="-7.3487733"><ele>491.0</ele><time>2026-04-14T14:41:47.897Z</time></trkpt><trkpt lat="42.5287683" lon="-7.3486683"><ele>494.0</ele><time>2026-04-14T14:41:48.898Z</time></trkpt><trkpt lat="42.5286783" lon="-7.3485533"><ele>494.0</ele><time>2026-04-14T14:41:49.898Z</time></trkpt><trkpt lat="42.5286183" lon="-7.3484133"><ele>494.0</ele><time>2026-04-14T14:41:50.898Z</time></trkpt><trkpt lat="42.5285767" lon="-7.34825"><ele>494.0</ele><time>2026-04-14T14:41:51.898Z</time></trkpt><trkpt lat="42.5285583" lon="-7.3480717"><ele>494.0</ele><time>2026-04-14T14:41:52.898Z</time></trkpt><trkpt lat="42.5285633" lon="-7.3478983"><ele>494.25</ele><time>2026-04-14T14:41:53.898Z</time></trkpt><trkpt lat="42.5285717" lon="-7.3477133"><ele>494.5</ele><time>2026-04-14T14:41:54.898Z</time></trkpt><trkpt lat="42.52859" lon="-7.347535"><ele>494.75</ele><time>2026-04-14T14:41:55.897Z</time></trkpt><trkpt lat="42.5286317" lon="-7.3473533"><ele>495.0</ele><time>2026-04-14T14:41:56.898Z</time></trkpt><trkpt lat="42.52869" lon="-7.3471883"><ele>502.75</ele><time>2026-04-14T14:41:57.897Z</time></trkpt><trkpt lat="42.5287633" lon="-7.3470317"><ele>510.5</ele><time>2026-04-14T14:41:58.897Z</time></trkpt><trkpt lat="42.5288483" lon="-7.34689"><ele>518.25</ele><time>2026-04-14T14:41:59.897Z</time></trkpt><trkpt lat="42.52895" lon="-7.3467633"><ele>526.0</ele><time>2026-04-14T14:42:00.897Z</time></trkpt><trkpt lat="42.529055" lon="-7.3466567"><ele>526.0</ele><time>2026-04-14T14:42:01.897Z</time></trkpt><trkpt lat="42.529155" lon="-7.34655"><ele>526.0</ele><time>2026-04-14T14:42:02.898Z</time></trkpt><trkpt lat="42.5292667" lon="-7.346435"><ele>526.0</ele><time>2026-04-14T14:42:03.897Z</time></trkpt><trkpt lat="42.529375" lon="-7.34632"><ele>526.0</ele><time>2026-04-14T14:42:04.897Z</time></trkpt><trkpt lat="42.5294933" lon="-7.3462"><ele>529.25</ele><time>2026-04-14T14:42:05.898Z</time></trkpt><trkpt lat="42.5296183" lon="-7.3460783"><ele>532.5</ele><time>2026-04-14T14:42:06.898Z</time></trkpt><trkpt lat="42.5297417" lon="-7.3459633"><ele>535.75</ele><time>2026-04-14T14:42:07.897Z</time></trkpt><trkpt lat="42.5298383" lon="-7.3458833"><ele>539.0</ele><time>2026-04-14T14:42:08.897Z</time></trkpt><trkpt lat="42.529925" lon="-7.3458467"><ele>539.0</ele><time>2026-04-14T14:42:09.897Z</time></trkpt><trkpt lat="42.530015" lon="-7.34584"><ele>539.0</ele><time>2026-04-14T14:42:10.897Z</time></trkpt><trkpt lat="42.5301017" lon="-7.3458533"><ele>539.0</ele><time>2026-04-14T14:42:11.898Z</time></trkpt><trkpt lat="42.5301733" lon="-7.3458567"><ele>539.0</ele><time>2026-04-14T14:42:12.897Z</time></trkpt><trkpt lat="42.53026" lon="-7.3457533"><ele>539.0</ele><time>2026-04-14T14:42:14.897Z</time></trkpt><trkpt lat="42.530275" lon="-7.3456517"><ele>539.0</ele><time>2026-04-14T14:42:15.897Z</time></trkpt><trkpt lat="42.5302883" lon="-7.3455217"><ele>540.75</ele><time>2026-04-14T14:42:16.898Z</time></trkpt><trkpt lat="42.5302983" lon="-7.34536"><ele>542.5</ele><time>2026-04-14T14:42:17.897Z</time></trkpt><trkpt lat="42.53032" lon="-7.3451833"><ele>544.25</ele><time>2026-04-14T14:42:18.897Z</time></trkpt><trkpt lat="42.53033" lon="-7.3449817"><ele>546.0</ele><time>2026-04-14T14:42:19.897Z</time></trkpt><trkpt lat="42.5303517" lon="-7.3447733"><ele>549.5</ele><time>2026-04-14T14:42:20.897Z</time></trkpt><trkpt lat="42.5303967" lon="-7.3445767"><ele>553.0</ele><time>2026-04-14T14:42:21.898Z</time></trkpt><trkpt lat="42.53045" lon="-7.3443833"><ele>556.5</ele><time>2026-04-14T14:42:22.897Z</time></trkpt><trkpt lat="42.53049" lon="-7.344215"><ele>560.0</ele><time>2026-04-14T14:42:23.897Z</time></trkpt><trkpt lat="42.530525" lon="-7.34405"><ele>560.0</ele><time>2026-04-14T14:42:24.897Z</time></trkpt><trkpt lat="42.5305267" lon="-7.343885"><ele>560.0</ele><time>2026-04-14T14:42:25.897Z</time></trkpt><trkpt lat="42.5304933" lon="-7.343745"><ele>560.0</ele><time>2026-04-14T14:42:26.897Z</time></trkpt><trkpt lat="42.53046" lon="-7.343625"><ele>560.0</ele><time>2026-04-14T14:42:27.897Z</time></trkpt><trkpt lat="42.5304333" lon="-7.3435083"><ele>560.0</ele><time>2026-04-14T14:42:29.898Z</time></trkpt><trkpt lat="42.5298383" lon="-7.3458833"><ele>555.8</ele><time>2026-04-14T14:42:08.897Z</time></trkpt><trkpt lat="42.529925" lon="-7.3458467"><ele>551.6</ele><time>2026-04-14T14:42:09.897Z</time></trkpt><trkpt lat="42.530015" lon="-7.34584"><ele>547.4</ele><time>2026-04-14T14:42:10.897Z</time></trkpt><trkpt lat="42.5301017" lon="-7.3458533"><ele>543.2</ele><time>2026-04-14T14:42:11.898Z</time></trkpt><trkpt lat="42.5301733" lon="-7.3458567"><ele>539.0</ele><time>2026-04-14T14:42:12.897Z</time></trkpt><trkpt lat="42.53026" lon="-7.3457533"><ele>539.0</ele><time>2026-04-14T14:42:14.897Z</time></trkpt><trkpt lat="42.530275" lon="-7.3456517"><ele>539.0</ele><time>2026-04-14T14:42:15.897Z</time></trkpt><trkpt lat="42.5302883" lon="-7.3455217"><ele>539.0</ele><time>2026-04-14T14:42:16.898Z</time></trkpt><trkpt lat="42.5302983" lon="-7.34536"><ele>539.0</ele><time>2026-04-14T14:42:17.897Z</time></trkpt><trkpt lat="42.53032" lon="-7.3451833"><ele>539.0</ele><time>2026-04-14T14:42:18.897Z</time></trkpt><trkpt lat="42.53033" lon="-7.3449817"><ele>541.3333333333333</ele><time>2026-04-14T14:42:19.897Z</time></trkpt><trkpt lat="42.5303517" lon="-7.3447733"><ele>543.6666666666666</ele><time>2026-04-14T14:42:20.897Z</time></trkpt><trkpt lat="42.5303967" lon="-7.3445767"><ele>546.0</ele><time>2026-04-14T14:42:21.898Z</time></trkpt><trkpt lat="42.53045" lon="-7.3443833"><ele>549.5</ele><time>2026-04-14T14:42:22.897Z</time></trkpt><trkpt lat="42.53049" lon="-7.344215"><ele>553.0</ele><time>2026-04-14T14:42:23.897Z</time></trkpt><trkpt lat="42.530525" lon="-7.34405"><ele>556.5</ele><time>2026-04-14T14:42:24.897Z</time></trkpt><trkpt lat="42.5305267" lon="-7.343885"><ele>560.0</ele><time>2026-04-14T14:42:25.897Z</time></trkpt><trkpt lat="42.5304933" lon="-7.343745"><ele>560.2</ele><time>2026-04-14T14:42:26.897Z</time></trkpt><trkpt lat="42.53046" lon="-7.343625"><ele>560.4</ele><time>2026-04-14T14:42:27.897Z</time></trkpt><trkpt lat="42.5304333" lon="-7.3435083"><ele>560.6</ele><time>2026-04-14T14:42:29.898Z</time></trkpt><trkpt lat="42.5303517" lon="-7.3434183"><ele>560.8</ele><time>2026-04-14T14:42:40.897Z</time></trkpt><trkpt lat="42.5303083" lon="-7.343325"><ele>561.0</ele><time>2026-04-14T14:42:41.898Z</time></trkpt><trkpt lat="42.5302583" lon="-7.3432267"><ele>561.0</ele><time>2026-04-14T14:42:42.898Z</time></trkpt><trkpt lat="42.5302167" lon="-7.3431167"><ele>561.0</ele><time>2026-04-14T14:42:43.897Z</time></trkpt><trkpt lat="42.5301817" lon="-7.3430083"><ele>561.0</ele><time>2026-04-14T14:42:44.897Z</time></trkpt><trkpt lat="42.53014" lon="-7.342905"><ele>561.0</ele><time>2026-04-14T14:42:45.897Z</time></trkpt><trkpt lat="42.5300967" lon="-7.3428017"><ele>561.0</ele><time>2026-04-14T14:42:46.897Z</time></trkpt><trkpt lat="42.530045" lon="-7.34269"><ele>561.5</ele><time>2026-04-14T14:42:47.898Z</time></trkpt><trkpt lat="42.5299783" lon="-7.342575"><ele>562.0</ele><time>2026-04-14T14:42:48.898Z</time></trkpt><trkpt lat="42.5298917" lon="-7.3424683"><ele>562.5</ele><time>2026-04-14T14:42:49.897Z</time></trkpt><trkpt lat="42.5297983" lon="-7.3423667"><ele>563.0</ele><time>2026-04-14T14:42:50.897Z</time></trkpt><trkpt lat="42.5297083" lon="-7.3422717"><ele>563.6</ele><time>2026-04-14T14:42:51.898Z</time></trkpt><trkpt lat="42.5296267" lon="-7.3421917"><ele>564.1999999999999</ele><time>2026-04-14T14:42:52.898Z</time></trkpt><trkpt lat="42.5295483" lon="-7.34212"><ele>564.8</ele><time>2026-04-14T14:42:53.897Z</time></trkpt><trkpt lat="42.5294733" lon="-7.342035"><ele>565.4</ele><time>2026-04-14T14:42:54.897Z</time></trkpt><trkpt lat="42.5294083" lon="-7.3419283"><ele>566.0</ele><time>2026-04-14T14:42:55.898Z</time></trkpt><trkpt lat="42.5293567" lon="-7.341805"><ele>566.0</ele><time>2026-04-14T14:42:56.897Z</time></trkpt><trkpt lat="42.52932" lon="-7.3416617"><ele>566.0</ele><time>2026-04-14T14:42:57.897Z</time></trkpt><trkpt lat="42.5292883" lon="-7.3415"><ele>566.0</ele><time>2026-04-14T14:42:58.897Z</time></trkpt><trkpt lat="42.5292633" lon="-7.341315"><ele>566.0</ele><time>2026-04-14T14:42:59.897Z</time></trkpt><trkpt lat="42.5292367" lon="-7.3411017"><ele>569.6666666666666</ele><time>2026-04-14T14:43:00.897Z</time></trkpt><trkpt lat="42.5292033" lon="-7.3408817"><ele>573.3333333333334</ele><time>2026-04-14T14:43:01.898Z</time></trkpt><trkpt lat="42.5291667" lon="-7.340655"><ele>577.0</ele><time>2026-04-14T14:43:02.897Z</time></trkpt><trkpt lat="42.5291317" lon="-7.3404233"><ele>579.6666666666667</ele><time>2026-04-14T14:43:03.898Z</time></trkpt><trkpt lat="42.5290983" lon="-7.34019"><ele>582.3333333333334</ele><time>2026-04-14T14:43:04.897Z</time></trkpt><trkpt lat="42.5290717" lon="-7.3399917"><ele>585.0</ele><time>2026-04-14T14:43:05.898Z</time></trkpt><trkpt lat="42.5290433" lon="-7.3398233"><ele>587.25</ele><time>2026-04-14T14:43:06.897Z</time></trkpt><trkpt lat="42.5289983" lon="-7.33967"><ele>589.5</ele><time>2026-04-14T14:43:07.897Z</time></trkpt><trkpt lat="42.528925" lon="-7.339505"><ele>591.75</ele><time>2026-04-14T14:43:08.898Z</time></trkpt><trkpt lat="42.5288383" lon="-7.3393383"><ele>594.0</ele><time>2026-04-14T14:43:09.897Z</time></trkpt><trkpt lat="42.5287617" lon="-7.339175"><ele>593.1666666666666</ele><time>2026-04-14T14:43:10.898Z</time></trkpt><trkpt lat="42.5287017" lon="-7.3390317"><ele>592.3333333333334</ele><time>2026-04-14T14:43:11.897Z</time></trkpt><trkpt lat="42.5286667" lon="-7.3389017"><ele>591.5</ele><time>2026-04-14T14:43:12.897Z</time></trkpt><trkpt lat="42.5286583" lon="-7.3387917"><ele>590.6666666666667</ele><time>2026-04-14T14:43:13.897Z</time></trkpt><trkpt lat="42.5286717" lon="-7.3387017"><ele>589.8333333333334</ele><time>2026-04-14T14:43:14.898Z</time></trkpt><trkpt lat="42.5287083" lon="-7.3386133"><ele>589.0</ele><time>2026-04-14T14:43:15.898Z</time></trkpt><trkpt lat="42.5287633" lon="-7.3385267"><ele>592.2</ele><time>2026-04-14T14:43:16.897Z</time></trkpt><trkpt lat="42.5288383" lon="-7.338435"><ele>595.4</ele><time>2026-04-14T14:43:17.897Z</time></trkpt><trkpt lat="42.528925" lon="-7.33833"><ele>598.6</ele><time>2026-04-14T14:43:18.898Z</time></trkpt><trkpt lat="42.5290183" lon="-7.3382433"><ele>601.8</ele><time>2026-04-14T14:43:19.898Z</time></trkpt><trkpt lat="42.52913" lon="-7.3382017"><ele>605.0</ele><time>2026-04-14T14:43:20.898Z</time></trkpt><trkpt lat="42.529255" lon="-7.33817"><ele>605.0</ele><time>2026-04-14T14:43:21.897Z</time></trkpt><trkpt lat="42.5293967" lon="-7.3381567"><ele>605.0</ele><time>2026-04-14T14:43:22.898Z</time></trkpt><trkpt lat="42.529565" lon="-7.3381417"><ele>605.0</ele><time>2026-04-14T14:43:23.898Z</time></trkpt><trkpt lat="42.529735" lon="-7.3381267"><ele>604.0</ele><time>2026-04-14T14:43:24.897Z</time></trkpt><trkpt lat="42.529895" lon="-7.338115"><ele>603.0</ele><time>2026-04-14T14:43:25.897Z</time></trkpt><trkpt lat="42.5300467" lon="-7.3381217"><ele>602.0</ele><time>2026-04-14T14:43:26.897Z</time></trkpt><trkpt lat="42.5301933" lon="-7.33813"><ele>602.0</ele><time>2026-04-14T14:43:27.897Z</time></trkpt><trkpt lat="42.530355" lon="-7.338145"><ele>602.0</ele><time>2026-04-14T14:43:28.897Z</time></trkpt><trkpt lat="42.530525" lon="-7.3381467"><ele>602.0</ele><time>2026-04-14T14:43:29.897Z</time></trkpt><trkpt lat="42.5306533" lon="-7.33814"><ele>602.0</ele><time>2026-04-14T14:43:30.897Z</time></trkpt><trkpt lat="42.53074" lon="-7.338115"><ele>602.0</ele><time>2026-04-14T14:43:31.898Z</time></trkpt><trkpt lat="42.5308067" lon="-7.3380617"><ele>602.0</ele><time>2026-04-14T14:43:32.898Z</time></trkpt><trkpt lat="42.5308583" lon="-7.3379683"><ele>602.0</ele><time>2026-04-14T14:43:33.898Z</time></trkpt><trkpt lat="42.5308983" lon="-7.337835"><ele>602.0</ele><time>2026-04-14T14:43:34.897Z</time></trkpt><trkpt lat="42.5309467" lon="-7.3376433"><ele>602.0</ele><time>2026-04-14T14:43:35.897Z</time></trkpt><trkpt lat="42.5310217" lon="-7.33744"><ele>602.0</ele><time>2026-04-14T14:43:36.897Z</time></trkpt><trkpt lat="42.531115" lon="-7.3372483"><ele>602.0</ele><time>2026-04-14T14:43:37.898Z</time></trkpt><trkpt lat="42.53121" lon="-7.33704"><ele>601.6666666666666</ele><time>2026-04-14T14:43:38.897Z</time></trkpt><trkpt lat="42.5313083" lon="-7.3368"><ele>601.3333333333334</ele><time>2026-04-14T14:43:39.897Z</time></trkpt><trkpt lat="42.531405" lon="-7.33656"><ele>601.0</ele><time>2026-04-14T14:43:40.897Z</time></trkpt><trkpt lat="42.53152" lon="-7.3363467"><ele>602.0</ele><time>2026-04-14T14:43:41.897Z</time></trkpt><trkpt lat="42.5316533" lon="-7.3361583"><ele>603.0</ele><time>2026-04-14T14:43:42.897Z</time></trkpt><trkpt lat="42.5318083" lon="-7.33598"><ele>604.0</ele><time>2026-04-14T14:43:43.898Z</time></trkpt><trkpt lat="42.531985" lon="-7.3358317"><ele>603.3333333333334</ele><time>2026-04-14T14:43:44.898Z</time></trkpt><trkpt lat="42.5321383" lon="-7.33569"><ele>602.6666666666666</ele><time>2026-04-14T14:43:45.898Z</time></trkpt><trkpt lat="42.5322733" lon="-7.3355517"><ele>602.0</ele><time>2026-04-14T14:43:46.897Z</time></trkpt><trkpt lat="42.5324183" lon="-7.3354083"><ele>603.3333333333333</ele><time>2026-04-14T14:43:47.898Z</time></trkpt><trkpt lat="42.5325683" lon="-7.3352483"><ele>604.6666666666666</ele><time>2026-04-14T14:43:48.897Z</time></trkpt><trkpt lat="42.5327117" lon="-7.335075"><ele>606.0</ele><time>2026-04-14T14:43:49.897Z</time></trkpt><trkpt lat="42.5328733" lon="-7.334935"><ele>604.3333333333334</ele><time>2026-04-14T14:43:50.898Z</time></trkpt><trkpt lat="42.533025" lon="-7.334805"><ele>602.6666666666667</ele><time>2026-04-14T14:43:51.898Z</time></trkpt><trkpt lat="42.5331767" lon="-7.3346867"><ele>601.0</ele><time>2026-04-14T14:43:52.897Z</time></trkpt><trkpt lat="42.5333267" lon="-7.3345717"><ele>601.0</ele><time>2026-04-14T14:43:53.898Z</time></trkpt><trkpt lat="42.5334733" lon="-7.334445"><ele>601.0</ele><time>2026-04-14T14:43:54.897Z</time></trkpt><trkpt lat="42.5336217" lon="-7.33432"><ele>601.0</ele><time>2026-04-14T14:43:55.897Z</time></trkpt><trkpt lat="42.5337567" lon="-7.3341967"><ele>600.6666666666667</ele><time>2026-04-14T14:43:56.897Z</time></trkpt><trkpt lat="42.5339017" lon="-7.334065"><ele>600.3333333333334</ele><time>2026-04-14T14:43:57.897Z</time></trkpt><trkpt lat="42.5340583" lon="-7.3339517"><ele>600.0</ele><time>2026-04-14T14:43:58.898Z</time></trkpt><trkpt lat="42.5342217" lon="-7.3338483"><ele>600.0</ele><time>2026-04-14T14:43:59.898Z</time></trkpt><trkpt lat="42.5343833" lon="-7.3337617"><ele>600.0</ele><time>2026-04-14T14:44:00.897Z</time></trkpt><trkpt lat="42.5345517" lon="-7.3336867"><ele>600.0</ele><time>2026-04-14T14:44:01.897Z</time></trkpt><trkpt lat="42.534725" lon="-7.3335767"><ele>599.0</ele><time>2026-04-14T14:44:02.898Z</time></trkpt><trkpt lat="42.534915" lon="-7.333465"><ele>598.0</ele><time>2026-04-14T14:44:03.897Z</time></trkpt><trkpt lat="42.5350783" lon="-7.3333517"><ele>597.0</ele><time>2026-04-14T14:44:04.897Z</time></trkpt><trkpt lat="42.53525" lon="-7.3332333"><ele>597.0</ele><time>2026-04-14T14:44:05.898Z</time></trkpt><trkpt lat="42.5354133" lon="-7.33312"><ele>597.0</ele><time>2026-04-14T14:44:06.897Z</time></trkpt><trkpt lat="42.535565" lon="-7.3329933"><ele>597.0</ele><time>2026-04-14T14:44:07.897Z</time></trkpt><trkpt lat="42.5310217" lon="-7.33744"><ele>598.3333333333334</ele><time>2026-04-14T14:43:36.897Z</time></trkpt><trkpt lat="42.531115" lon="-7.3372483"><ele>599.6666666666667</ele><time>2026-04-14T14:43:37.898Z</time></trkpt><trkpt lat="42.53121" lon="-7.33704"><ele>601.0</ele><time>2026-04-14T14:43:38.897Z</time></trkpt><trkpt lat="42.5313083" lon="-7.3368"><ele>601.0</ele><time>2026-04-14T14:43:39.897Z</time></trkpt><trkpt lat="42.531405" lon="-7.33656"><ele>601.0</ele><time>2026-04-14T14:43:40.897Z</time></trkpt><trkpt lat="42.53152" lon="-7.3363467"><ele>601.0</ele><time>2026-04-14T14:43:41.897Z</time></trkpt><trkpt lat="42.5316533" lon="-7.3361583"><ele>601.3333333333334</ele><time>2026-04-14T14:43:42.897Z</time></trkpt><trkpt lat="42.5318083" lon="-7.33598"><ele>601.6666666666666</ele><time>2026-04-14T14:43:43.898Z</time></trkpt><trkpt lat="42.531985" lon="-7.3358317"><ele>602.0</ele><time>2026-04-14T14:43:44.898Z</time></trkpt><trkpt lat="42.5321383" lon="-7.33569"><ele>603.3333333333333</ele><time>2026-04-14T14:43:45.898Z</time></trkpt><trkpt lat="42.5322733" lon="-7.3355517"><ele>604.6666666666666</ele><time>2026-04-14T14:43:46.897Z</time></trkpt><trkpt lat="42.5324183" lon="-7.3354083"><ele>606.0</ele><time>2026-04-14T14:43:47.898Z</time></trkpt><trkpt lat="42.5325683" lon="-7.3352483"><ele>606.0</ele><time>2026-04-14T14:43:48.897Z</time></trkpt><trkpt lat="42.5327117" lon="-7.335075"><ele>606.0</ele><time>2026-04-14T14:43:49.897Z</time></trkpt><trkpt lat="42.5328733" lon="-7.334935"><ele>606.0</ele><time>2026-04-14T14:43:50.898Z</time></trkpt><trkpt lat="42.533025" lon="-7.334805"><ele>604.3333333333334</ele><time>2026-04-14T14:43:51.898Z</time></trkpt><trkpt lat="42.5331767" lon="-7.3346867"><ele>602.6666666666667</ele><time>2026-04-14T14:43:52.897Z</time></trkpt><trkpt lat="42.5333267" lon="-7.3345717"><ele>601.0</ele><time>2026-04-14T14:43:53.898Z</time></trkpt><trkpt lat="42.5334733" lon="-7.334445"><ele>601.0</ele><time>2026-04-14T14:43:54.897Z</time></trkpt><trkpt lat="42.5336217" lon="-7.33432"><ele>601.0</ele><time>2026-04-14T14:43:55.897Z</time></trkpt><trkpt lat="42.5337567" lon="-7.3341967"><ele>601.0</ele><time>2026-04-14T14:43:56.897Z</time></trkpt><trkpt lat="42.5339017" lon="-7.334065"><ele>600.6666666666667</ele><time>2026-04-14T14:43:57.897Z</time></trkpt><trkpt lat="42.5340583" lon="-7.3339517"><ele>600.3333333333334</ele><time>2026-04-14T14:43:58.898Z</time></trkpt><trkpt lat="42.5342217" lon="-7.3338483"><ele>600.0</ele><time>2026-04-14T14:43:59.898Z</time></trkpt><trkpt lat="42.5343833" lon="-7.3337617"><ele>600.0</ele><time>2026-04-14T14:44:00.897Z</time></trkpt><trkpt lat="42.5345517" lon="-7.3336867"><ele>600.0</ele><time>2026-04-14T14:44:01.897Z</time></trkpt><trkpt lat="42.534725" lon="-7.3335767"><ele>600.0</ele><time>2026-04-14T14:44:02.898Z</time></trkpt><trkpt lat="42.534915" lon="-7.333465"><ele>599.0</ele><time>2026-04-14T14:44:03.897Z</time></trkpt><trkpt lat="42.5350783" lon="-7.3333517"><ele>598.0</ele><time>2026-04-14T14:44:04.897Z</time></trkpt><trkpt lat="42.53525" lon="-7.3332333"><ele>597.0</ele><time>2026-04-14T14:44:05.898Z</time></trkpt><trkpt lat="42.5354133" lon="-7.33312"><ele>597.6666666666666</ele><time>2026-04-14T14:44:06.897Z</time></trkpt><trkpt lat="42.535565" lon="-7.3329933"><ele>598.3333333333333</ele><time>2026-04-14T14:44:07.897Z</time></trkpt><trkpt lat="42.5357233" lon="-7.3328667"><ele>599.0</ele><time>2026-04-14T14:44:08.898Z</time></trkpt><trkpt lat="42.535855" lon="-7.3327467"><ele>599.0</ele><time>2026-04-14T14:44:09.897Z</time></trkpt><trkpt lat="42.5359933" lon="-7.332645"><ele>599.0</ele><time>2026-04-14T14:44:10.898Z</time></trkpt><trkpt lat="42.5361233" lon="-7.3325633"><ele>599.0</ele><time>2026-04-14T14:44:11.898Z</time></trkpt><trkpt lat="42.5362533" lon="-7.3324867"><ele>599.0</ele><time>2026-04-14T14:44:12.898Z</time></trkpt><trkpt lat="42.5363917" lon="-7.332425"><ele>599.0</ele><time>2026-04-14T14:44:13.898Z</time></trkpt><trkpt lat="42.5365167" lon="-7.3323433"><ele>599.0</ele><time>2026-04-14T14:44:14.897Z</time></trkpt><trkpt lat="42.536615" lon="-7.3322783"><ele>599.0</ele><time>2026-04-14T14:44:15.898Z</time></trkpt><trkpt lat="42.53671" lon="-7.3322133"><ele>599.0</ele><time>2026-04-14T14:44:16.898Z</time></trkpt><trkpt lat="42.5367933" lon="-7.3321667"><ele>599.0</ele><time>2026-04-14T14:44:17.897Z</time></trkpt><trkpt lat="42.5368617" lon="-7.3321267"><ele>599.0</ele><time>2026-04-14T14:44:18.897Z</time></trkpt><trkpt lat="42.5368167" lon="-7.3322033"><ele>599.0</ele><time>2026-04-14T14:44:41.898Z</time></trkpt><trkpt lat="42.5366983" lon="-7.33223"><ele>599.0</ele><time>2026-04-14T14:44:43.898Z</time></trkpt><trkpt lat="42.536615" lon="-7.3322533"><ele>599.0</ele><time>2026-04-14T14:44:44.898Z</time></trkpt><trkpt lat="42.536525" lon="-7.332295"><ele>599.0</ele><time>2026-04-14T14:44:45.897Z</time></trkpt><trkpt lat="42.536425" lon="-7.3323583"><ele>599.0</ele><time>2026-04-14T14:44:46.897Z</time></trkpt><trkpt lat="42.53631" lon="-7.3324233"><ele>599.0</ele><time>2026-04-14T14:44:47.898Z</time></trkpt><trkpt lat="42.536195" lon="-7.3324883"><ele>599.0</ele><time>2026-04-14T14:44:48.897Z</time></trkpt><trkpt lat="42.5360767" lon="-7.3325517"><ele>599.0</ele><time>2026-04-14T14:44:49.897Z</time></trkpt><trkpt lat="42.53596" lon="-7.3326283"><ele>599.0</ele><time>2026-04-14T14:44:50.897Z</time></trkpt><trkpt lat="42.5358333" lon="-7.3327133"><ele>599.0</ele><time>2026-04-14T14:44:51.897Z</time></trkpt><trkpt lat="42.5357117" lon="-7.3328133"><ele>599.0</ele><time>2026-04-14T14:44:52.897Z</time></trkpt><trkpt lat="42.5355983" lon="-7.3329267"><ele>599.0</ele><time>2026-04-14T14:44:53.897Z</time></trkpt><trkpt lat="42.5354933" lon="-7.3330467"><ele>598.5</ele><time>2026-04-14T14:44:54.898Z</time></trkpt><trkpt lat="42.5353817" lon="-7.3331633"><ele>598.0</ele><time>2026-04-14T14:44:55.897Z</time></trkpt><trkpt lat="42.5352617" lon="-7.33327"><ele>597.5</ele><time>2026-04-14T14:44:56.897Z</time></trkpt><trkpt lat="42.535125" lon="-7.333355"><ele>597.0</ele><time>2026-04-14T14:44:57.897Z</time></trkpt><trkpt lat="42.53498" lon="-7.3334417"><ele>597.0</ele><time>2026-04-14T14:44:58.897Z</time></trkpt><trkpt lat="42.53481" lon="-7.33354"><ele>597.0</ele><time>2026-04-14T14:44:59.898Z</time></trkpt><trkpt lat="42.5346583" lon="-7.3336333"><ele>597.0</ele><time>2026-04-14T14:45:00.897Z</time></trkpt><trkpt lat="42.5345033" lon="-7.3337233"><ele>597.75</ele><time>2026-04-14T14:45:01.897Z</time></trkpt><trkpt lat="42.5343617" lon="-7.333805"><ele>598.5</ele><time>2026-04-14T14:45:02.897Z</time></trkpt><trkpt lat="42.534235" lon="-7.3338733"><ele>599.25</ele><time>2026-04-14T14:45:03.897Z</time></trkpt><trkpt lat="42.5341067" lon="-7.333945"><ele>600.0</ele><time>2026-04-14T14:45:04.897Z</time></trkpt><trkpt lat="42.5339633" lon="-7.3340117"><ele>600.25</ele><time>2026-04-14T14:45:05.898Z</time></trkpt><trkpt lat="42.5338317" lon="-7.3340833"><ele>600.5</ele><time>2026-04-14T14:45:06.898Z</time></trkpt><trkpt lat="42.5336983" lon="-7.33417"><ele>600.75</ele><time>2026-04-14T14:45:07.898Z</time></trkpt><trkpt lat="42.5335783" lon="-7.3342683"><ele>601.0</ele><time>2026-04-14T14:45:08.897Z</time></trkpt><trkpt lat="42.5334567" lon="-7.3343833"><ele>601.0</ele><time>2026-04-14T14:45:09.897Z</time></trkpt><trkpt lat="42.5333467" lon="-7.334505"><ele>601.0</ele><time>2026-04-14T14:45:10.898Z</time></trkpt><trkpt lat="42.5332333" lon="-7.3346183"><ele>601.0</ele><time>2026-04-14T14:45:11.898Z</time></trkpt><trkpt lat="42.5331133" lon="-7.3347183"><ele>601.0</ele><time>2026-04-14T14:45:12.897Z</time></trkpt><trkpt lat="42.5329883" lon="-7.3348167"><ele>602.25</ele><time>2026-04-14T14:45:13.898Z</time></trkpt><trkpt lat="42.5328633" lon="-7.3349217"><ele>603.5</ele><time>2026-04-14T14:45:14.897Z</time></trkpt><trkpt lat="42.5327433" lon="-7.3350367"><ele>604.75</ele><time>2026-04-14T14:45:15.897Z</time></trkpt><trkpt lat="42.5326233" lon="-7.3351617"><ele>606.0</ele><time>2026-04-14T14:45:16.897Z</time></trkpt><trkpt lat="42.5325033" lon="-7.3352817"><ele>606.0</ele><time>2026-04-14T14:45:17.898Z</time></trkpt><trkpt lat="42.532385" lon="-7.3354067"><ele>606.0</ele><time>2026-04-14T14:45:18.898Z</time></trkpt><trkpt lat="42.5322733" lon="-7.3355217"><ele>606.0</ele><time>2026-04-14T14:45:19.897Z</time></trkpt><trkpt lat="42.5321767" lon="-7.3356317"><ele>606.0</ele><time>2026-04-14T14:45:20.897Z</time></trkpt><trkpt lat="42.5320667" lon="-7.3357367"><ele>605.5</ele><time>2026-04-14T14:45:21.898Z</time></trkpt><trkpt lat="42.531965" lon="-7.3358567"><ele>605.0</ele><time>2026-04-14T14:45:22.897Z</time></trkpt><trkpt lat="42.5318383" lon="-7.335955"><ele>604.5</ele><time>2026-04-14T14:45:23.898Z</time></trkpt><trkpt lat="42.5317167" lon="-7.3360733"><ele>604.0</ele><time>2026-04-14T14:45:24.898Z</time></trkpt><trkpt lat="42.5315917" lon="-7.33621"><ele>604.0</ele><time>2026-04-14T14:45:25.898Z</time></trkpt><trkpt lat="42.5314817" lon="-7.3363667"><ele>604.0</ele><time>2026-04-14T14:45:26.897Z</time></trkpt><trkpt lat="42.5313917" lon="-7.33654"><ele>604.0</ele><time>2026-04-14T14:45:27.898Z</time></trkpt><trkpt lat="42.531305" lon="-7.3367233"><ele>603.3333333333334</ele><time>2026-04-14T14:45:28.898Z</time></trkpt><trkpt lat="42.5312283" lon="-7.3369217"><ele>602.6666666666666</ele><time>2026-04-14T14:45:29.897Z</time></trkpt><trkpt lat="42.53115" lon="-7.3371167"><ele>602.0</ele><time>2026-04-14T14:45:30.897Z</time></trkpt><trkpt lat="42.531075" lon="-7.3372983"><ele>602.0</ele><time>2026-04-14T14:45:31.898Z</time></trkpt><trkpt lat="42.5309983" lon="-7.3374633"><ele>602.0</ele><time>2026-04-14T14:45:32.898Z</time></trkpt><trkpt lat="42.53094" lon="-7.3376233"><ele>602.0</ele><time>2026-04-14T14:45:33.898Z</time></trkpt><trkpt lat="42.530885" lon="-7.337765"><ele>602.0</ele><time>2026-04-14T14:45:34.898Z</time></trkpt><trkpt lat="42.530845" lon="-7.3378983"><ele>602.0</ele><time>2026-04-14T14:45:35.897Z</time></trkpt><trkpt lat="42.5308033" lon="-7.338015"><ele>602.0</ele><time>2026-04-14T14:45:36.897Z</time></trkpt><trkpt lat="42.5341067" lon="-7.333945"><ele>601.75</ele><time>2026-04-14T14:45:04.897Z</time></trkpt><trkpt lat="42.5339633" lon="-7.3340117"><ele>601.5</ele><time>2026-04-14T14:45:05.898Z</time></trkpt><trkpt lat="42.5338317" lon="-7.3340833"><ele>601.25</ele><time>2026-04-14T14:45:06.898Z</time></trkpt><trkpt lat="42.5336983" lon="-7.33417"><ele>601.0</ele><time>2026-04-14T14:45:07.898Z</time></trkpt><trkpt lat="42.5335783" lon="-7.3342683"><ele>601.0</ele><time>2026-04-14T14:45:08.897Z</time></trkpt><trkpt lat="42.5334567" lon="-7.3343833"><ele>601.0</ele><time>2026-04-14T14:45:09.897Z</time></trkpt><trkpt lat="42.5333467" lon="-7.334505"><ele>601.0</ele><time>2026-04-14T14:45:10.898Z</time></trkpt><trkpt lat="42.5332333" lon="-7.3346183"><ele>601.0</ele><time>2026-04-14T14:45:11.898Z</time></trkpt><trkpt lat="42.5331133" lon="-7.3347183"><ele>600.5</ele><time>2026-04-14T14:45:12.897Z</time></trkpt><trkpt lat="42.5329883" lon="-7.3348167"><ele>600.0</ele><time>2026-04-14T14:45:13.898Z</time></trkpt><trkpt lat="42.5328633" lon="-7.3349217"><ele>599.5</ele><time>2026-04-14T14:45:14.897Z</time></trkpt><trkpt lat="42.5327433" lon="-7.3350367"><ele>599.0</ele><time>2026-04-14T14:45:15.897Z</time></trkpt><trkpt lat="42.5326233" lon="-7.3351617"><ele>599.75</ele><time>2026-04-14T14:45:16.897Z</time></trkpt><trkpt lat="42.5325033" lon="-7.3352817"><ele>600.5</ele><time>2026-04-14T14:45:17.898Z</time></trkpt><trkpt lat="42.532385" lon="-7.3354067"><ele>601.25</ele><time>2026-04-14T14:45:18.898Z</time></trkpt><trkpt lat="42.5322733" lon="-7.3355217"><ele>602.0</ele><time>2026-04-14T14:45:19.897Z</time></trkpt><trkpt lat="42.5321767" lon="-7.3356317"><ele>602.0</ele><time>2026-04-14T14:45:20.897Z</time></trkpt><trkpt lat="42.5320667" lon="-7.3357367"><ele>602.0</ele><time>2026-04-14T14:45:21.898Z</time></trkpt><trkpt lat="42.531965" lon="-7.3358567"><ele>602.0</ele><time>2026-04-14T14:45:22.897Z</time></trkpt><trkpt lat="42.5318383" lon="-7.335955"><ele>602.0</ele><time>2026-04-14T14:45:23.898Z</time></trkpt><trkpt lat="42.5317167" lon="-7.3360733"><ele>601.6666666666666</ele><time>2026-04-14T14:45:24.898Z</time></trkpt><trkpt lat="42.5315917" lon="-7.33621"><ele>601.3333333333334</ele><time>2026-04-14T14:45:25.898Z</time></trkpt><trkpt lat="42.5314817" lon="-7.3363667"><ele>601.0</ele><time>2026-04-14T14:45:26.897Z</time></trkpt><trkpt lat="42.5313917" lon="-7.33654"><ele>601.0</ele><time>2026-04-14T14:45:27.898Z</time></trkpt><trkpt lat="42.531305" lon="-7.3367233"><ele>601.0</ele><time>2026-04-14T14:45:28.898Z</time></trkpt><trkpt lat="42.5312283" lon="-7.3369217"><ele>601.0</ele><time>2026-04-14T14:45:29.897Z</time></trkpt><trkpt lat="42.53115" lon="-7.3371167"><ele>601.25</ele><time>2026-04-14T14:45:30.897Z</time></trkpt><trkpt lat="42.531075" lon="-7.3372983"><ele>601.5</ele><time>2026-04-14T14:45:31.898Z</time></trkpt><trkpt lat="42.5309983" lon="-7.3374633"><ele>601.75</ele><time>2026-04-14T14:45:32.898Z</time></trkpt><trkpt lat="42.53094" lon="-7.3376233"><ele>602.0</ele><time>2026-04-14T14:45:33.898Z</time></trkpt><trkpt lat="42.530885" lon="-7.337765"><ele>602.0</ele><time>2026-04-14T14:45:34.898Z</time></trkpt><trkpt lat="42.530845" lon="-7.3378983"><ele>602.0</ele><time>2026-04-14T14:45:35.897Z</time></trkpt><trkpt lat="42.5308033" lon="-7.338015"><ele>602.0</ele><time>2026-04-14T14:45:36.897Z</time></trkpt><trkpt lat="42.5307583" lon="-7.3381033"><ele>602.0</ele><time>2026-04-14T14:45:37.897Z</time></trkpt><trkpt lat="42.530705" lon="-7.338155"><ele>602.0</ele><time>2026-04-14T14:45:38.897Z</time></trkpt><trkpt lat="42.53064" lon="-7.3381817"><ele>602.0</ele><time>2026-04-14T14:45:39.898Z</time></trkpt><trkpt lat="42.5305617" lon="-7.33818"><ele>602.0</ele><time>2026-04-14T14:45:40.897Z</time></trkpt><trkpt lat="42.530465" lon="-7.3381617"><ele>602.0</ele><time>2026-04-14T14:45:41.898Z</time></trkpt><trkpt lat="42.5303467" lon="-7.3381483"><ele>602.0</ele><time>2026-04-14T14:45:42.897Z</time></trkpt><trkpt lat="42.530225" lon="-7.3381317"><ele>602.0</ele><time>2026-04-14T14:45:43.897Z</time></trkpt><trkpt lat="42.5300967" lon="-7.3381233"><ele>602.0</ele><time>2026-04-14T14:45:44.898Z</time></trkpt><trkpt lat="42.5299583" lon="-7.33811"><ele>602.0</ele><time>2026-04-14T14:45:45.898Z</time></trkpt><trkpt lat="42.5298233" lon="-7.33811"><ele>602.0</ele><time>2026-04-14T14:45:46.897Z</time></trkpt><trkpt lat="42.52968" lon="-7.338125"><ele>602.0</ele><time>2026-04-14T14:45:47.898Z</time></trkpt><trkpt lat="42.5295383" lon="-7.3381383"><ele>602.75</ele><time>2026-04-14T14:45:48.897Z</time></trkpt><trkpt lat="42.5293983" lon="-7.3381467"><ele>603.5</ele><time>2026-04-14T14:45:49.897Z</time></trkpt><trkpt lat="42.529275" lon="-7.3381533"><ele>604.25</ele><time>2026-04-14T14:45:50.898Z</time></trkpt><trkpt lat="42.5291617" lon="-7.3381867"><ele>605.0</ele><time>2026-04-14T14:45:51.897Z</time></trkpt><trkpt lat="42.5290483" lon="-7.3382283"><ele>605.0</ele><time>2026-04-14T14:45:52.897Z</time></trkpt><trkpt lat="42.528965" lon="-7.33828"><ele>605.0</ele><time>2026-04-14T14:45:53.898Z</time></trkpt><trkpt lat="42.5289" lon="-7.338345"><ele>605.0</ele><time>2026-04-14T14:45:54.897Z</time></trkpt><trkpt lat="42.5288467" lon="-7.3384367"><ele>605.0</ele><time>2026-04-14T14:45:55.898Z</time></trkpt><trkpt lat="42.5287983" lon="-7.3385367"><ele>605.0</ele><time>2026-04-14T14:45:56.897Z</time></trkpt><trkpt lat="42.528745" lon="-7.338625"><ele>605.0</ele><time>2026-04-14T14:45:57.898Z</time></trkpt><trkpt lat="42.528705" lon="-7.33871"><ele>603.8</ele><time>2026-04-14T14:45:58.899Z</time></trkpt><trkpt lat="42.5286567" lon="-7.3388567"><ele>602.6</ele><time>2026-04-14T14:46:00.899Z</time></trkpt><trkpt lat="42.5286683" lon="-7.338985"><ele>601.4</ele><time>2026-04-14T14:46:02.898Z</time></trkpt><trkpt lat="42.5287167" lon="-7.3390817"><ele>600.2</ele><time>2026-04-14T14:46:04.898Z</time></trkpt><trkpt lat="42.5288033" lon="-7.339235"><ele>599.0</ele><time>2026-04-14T14:46:06.898Z</time></trkpt><trkpt lat="42.5288633" lon="-7.3393467"><ele>598.0</ele><time>2026-04-14T14:46:07.898Z</time></trkpt><trkpt lat="42.52893" lon="-7.339465"><ele>597.0</ele><time>2026-04-14T14:46:08.898Z</time></trkpt><trkpt lat="42.5289883" lon="-7.339585"><ele>596.0</ele><time>2026-04-14T14:46:09.898Z</time></trkpt><trkpt lat="42.529035" lon="-7.339705"><ele>595.0</ele><time>2026-04-14T14:46:10.898Z</time></trkpt><trkpt lat="42.5290867" lon="-7.339815"><ele>594.0</ele><time>2026-04-14T14:46:11.899Z</time></trkpt><trkpt lat="42.52911" lon="-7.3399283"><ele>592.2</ele><time>2026-04-14T14:46:12.898Z</time></trkpt><trkpt lat="42.5291267" lon="-7.340045"><ele>590.4</ele><time>2026-04-14T14:46:13.899Z</time></trkpt><trkpt lat="42.5291367" lon="-7.3401817"><ele>588.6</ele><time>2026-04-14T14:46:14.898Z</time></trkpt><trkpt lat="42.5291533" lon="-7.3403333"><ele>586.8</ele><time>2026-04-14T14:46:15.898Z</time></trkpt><trkpt lat="42.5291833" lon="-7.3404967"><ele>585.0</ele><time>2026-04-14T14:46:16.899Z</time></trkpt><trkpt lat="42.5292133" lon="-7.3406683"><ele>583.0</ele><time>2026-04-14T14:46:17.898Z</time></trkpt><trkpt lat="42.5292383" lon="-7.340825"><ele>581.0</ele><time>2026-04-14T14:46:18.899Z</time></trkpt><trkpt lat="42.529265" lon="-7.3409767"><ele>579.0</ele><time>2026-04-14T14:46:19.898Z</time></trkpt><trkpt lat="42.5292883" lon="-7.3411367"><ele>577.0</ele><time>2026-04-14T14:46:20.898Z</time></trkpt><trkpt lat="42.5293083" lon="-7.341305"><ele>574.8000000000001</ele><time>2026-04-14T14:46:21.898Z</time></trkpt><trkpt lat="42.5293317" lon="-7.3414683"><ele>572.6</ele><time>2026-04-14T14:46:22.899Z</time></trkpt><trkpt lat="42.5293567" lon="-7.3416117"><ele>570.4000000000001</ele><time>2026-04-14T14:46:23.898Z</time></trkpt><trkpt lat="42.5293817" lon="-7.34173"><ele>568.2</ele><time>2026-04-14T14:46:24.898Z</time></trkpt><trkpt lat="42.5294017" lon="-7.3418183"><ele>566.0</ele><time>2026-04-14T14:46:25.898Z</time></trkpt><trkpt lat="42.5294333" lon="-7.3419117"><ele>566.0</ele><time>2026-04-14T14:46:26.898Z</time></trkpt><trkpt lat="42.5294817" lon="-7.34201"><ele>566.0</ele><time>2026-04-14T14:46:27.898Z</time></trkpt><trkpt lat="42.5295517" lon="-7.342105"><ele>566.0</ele><time>2026-04-14T14:46:28.899Z</time></trkpt><trkpt lat="42.5296267" lon="-7.34219"><ele>566.0</ele><time>2026-04-14T14:46:29.899Z</time></trkpt><trkpt lat="42.529715" lon="-7.3422817"><ele>566.0</ele><time>2026-04-14T14:46:30.899Z</time></trkpt><trkpt lat="42.5298183" lon="-7.3423867"><ele>565.25</ele><time>2026-04-14T14:46:31.898Z</time></trkpt><trkpt lat="42.529935" lon="-7.3425133"><ele>564.5</ele><time>2026-04-14T14:46:32.898Z</time></trkpt><trkpt lat="42.5300317" lon="-7.3426533"><ele>563.75</ele><time>2026-04-14T14:46:33.898Z</time></trkpt><trkpt lat="42.5301233" lon="-7.3427933"><ele>563.0</ele><time>2026-04-14T14:46:34.898Z</time></trkpt><trkpt lat="42.5301917" lon="-7.3429317"><ele>562.5</ele><time>2026-04-14T14:46:35.898Z</time></trkpt><trkpt lat="42.5302483" lon="-7.3430783"><ele>562.0</ele><time>2026-04-14T14:46:36.899Z</time></trkpt><trkpt lat="42.5303" lon="-7.3432167"><ele>561.5</ele><time>2026-04-14T14:46:37.898Z</time></trkpt><trkpt lat="42.530355" lon="-7.3433533"><ele>561.0</ele><time>2026-04-14T14:46:38.898Z</time></trkpt><trkpt lat="42.5304067" lon="-7.3434883"><ele>560.8</ele><time>2026-04-14T14:46:39.898Z</time></trkpt><trkpt lat="42.53046" lon="-7.3436183"><ele>560.6</ele><time>2026-04-14T14:46:40.899Z</time></trkpt><trkpt lat="42.5305117" lon="-7.3437483"><ele>560.4</ele><time>2026-04-14T14:46:41.898Z</time></trkpt><trkpt lat="42.5305433" lon="-7.34388"><ele>560.2</ele><time>2026-04-14T14:46:42.898Z</time></trkpt><trkpt lat="42.5305567" lon="-7.3440067"><ele>560.0</ele><time>2026-04-14T14:46:43.898Z</time></trkpt><trkpt lat="42.5305517" lon="-7.3441417"><ele>560.0</ele><time>2026-04-14T14:46:44.898Z</time></trkpt><trkpt lat="42.5305167" lon="-7.34428"><ele>560.0</ele><time>2026-04-14T14:46:45.898Z</time></trkpt><trkpt lat="42.5304733" lon="-7.344425"><ele>560.0</ele><time>2026-04-14T14:46:46.899Z</time></trkpt><trkpt lat="42.530425" lon="-7.3445767"><ele>560.0</ele><time>2026-04-14T14:46:47.899Z</time></trkpt><trkpt lat="42.5303833" lon="-7.3447517"><ele>556.5</ele><time>2026-04-14T14:46:48.899Z</time></trkpt><trkpt lat="42.5303483" lon="-7.3449317"><ele>553.0</ele><time>2026-04-14T14:46:49.898Z</time></trkpt><trkpt lat="42.5303283" lon="-7.34511"><ele>549.5</ele><time>2026-04-14T14:46:50.898Z</time></trkpt><trkpt lat="42.5303033" lon="-7.3452783"><ele>546.0</ele><time>2026-04-14T14:46:51.899Z</time></trkpt><trkpt lat="42.53028" lon="-7.3454367"><ele>544.8333333333334</ele><time>2026-04-14T14:46:52.899Z</time></trkpt><trkpt lat="42.5302717" lon="-7.3455817"><ele>543.6666666666666</ele><time>2026-04-14T14:46:53.898Z</time></trkpt><trkpt lat="42.5302617" lon="-7.3457017"><ele>542.5</ele><time>2026-04-14T14:46:54.898Z</time></trkpt><trkpt lat="42.5302433" lon="-7.3457883"><ele>541.3333333333333</ele><time>2026-04-14T14:46:55.899Z</time></trkpt><trkpt lat="42.5301967" lon="-7.3459133"><ele>540.1666666666666</ele><time>2026-04-14T14:46:57.898Z</time></trkpt><trkpt lat="42.5301283" lon="-7.345925"><ele>539.0</ele><time>2026-04-14T14:46:59.899Z</time></trkpt><trkpt lat="42.5300417" lon="-7.345875"><ele>539.0</ele><time>2026-04-14T14:47:01.898Z</time></trkpt><trkpt lat="42.5299217" lon="-7.3458633"><ele>539.0</ele><time>2026-04-14T14:47:03.899Z</time></trkpt><trkpt lat="42.5298583" lon="-7.3458833"><ele>539.0</ele><time>2026-04-14T14:47:04.899Z</time></trkpt><trkpt lat="42.5297883" lon="-7.34593"><ele>539.0</ele><time>2026-04-14T14:47:05.898Z</time></trkpt><trkpt lat="42.529715" lon="-7.345995"><ele>539.0</ele><time>2026-04-14T14:47:06.899Z</time></trkpt><trkpt lat="42.529635" lon="-7.3460817"><ele>535.75</ele><time>2026-04-14T14:47:07.898Z</time></trkpt><trkpt lat="42.5295433" lon="-7.3461767"><ele>532.5</ele><time>2026-04-14T14:47:08.899Z</time></trkpt><trkpt lat="42.52944" lon="-7.34628"><ele>529.25</ele><time>2026-04-14T14:47:09.899Z</time></trkpt><trkpt lat="42.5293383" lon="-7.3463883"><ele>526.0</ele><time>2026-04-14T14:47:10.898Z</time></trkpt><trkpt lat="42.5292317" lon="-7.3464917"><ele>526.0</ele><time>2026-04-14T14:47:11.899Z</time></trkpt><trkpt lat="42.52913" lon="-7.3466"><ele>526.0</ele><time>2026-04-14T14:47:12.899Z</time></trkpt><trkpt lat="42.529025" lon="-7.3467"><ele>526.0</ele><time>2026-04-14T14:47:13.898Z</time></trkpt><trkpt lat="42.5289317" lon="-7.3468033"><ele>526.0</ele><time>2026-04-14T14:47:14.899Z</time></trkpt><trkpt lat="42.5288467" lon="-7.3469117"><ele>526.0</ele><time>2026-04-14T14:47:15.898Z</time></trkpt><trkpt lat="42.5287733" lon="-7.3470383"><ele>526.0</ele><time>2026-04-14T14:47:16.898Z</time></trkpt><trkpt lat="42.5287117" lon="-7.3471717"><ele>526.0</ele><time>2026-04-14T14:47:17.899Z</time></trkpt><trkpt lat="42.5286617" lon="-7.3473067"><ele>526.0</ele><time>2026-04-14T14:47:18.898Z</time></trkpt><trkpt lat="42.52863" lon="-7.3474483"><ele>519.5</ele><time>2026-04-14T14:47:19.899Z</time></trkpt><trkpt lat="42.5286033" lon="-7.3475967"><ele>513.0</ele><time>2026-04-14T14:47:20.898Z</time></trkpt><trkpt lat="42.5285917" lon="-7.3477417"><ele>506.5</ele><time>2026-04-14T14:47:21.898Z</time></trkpt><trkpt lat="42.5285933" lon="-7.3479017"><ele>500.0</ele><time>2026-04-14T14:47:22.898Z</time></trkpt><trkpt lat="42.5285917" lon="-7.3480583"><ele>498.8</ele><time>2026-04-14T14:47:23.899Z</time></trkpt><trkpt lat="42.5285983" lon="-7.3482117"><ele>497.6</ele><time>2026-04-14T14:47:24.898Z</time></trkpt><trkpt lat="42.5286167" lon="-7.3483583"><ele>496.4</ele><time>2026-04-14T14:47:25.898Z</time></trkpt><trkpt lat="42.5286567" lon="-7.3484883"><ele>495.2</ele><time>2026-04-14T14:47:26.899Z</time></trkpt><trkpt lat="42.52871" lon="-7.348605"><ele>494.0</ele><time>2026-04-14T14:47:27.899Z</time></trkpt><trkpt lat="42.5287817" lon="-7.3487083"><ele>491.0</ele><time>2026-04-14T14:47:28.898Z</time></trkpt><trkpt lat="42.5288633" lon="-7.3487867"><ele>488.0</ele><time>2026-04-14T14:47:29.898Z</time></trkpt><trkpt lat="42.528975" lon="-7.348845"><ele>485.0</ele><time>2026-04-14T14:47:30.898Z</time></trkpt><trkpt lat="42.5290917" lon="-7.3488867"><ele>482.0</ele><time>2026-04-14T14:47:31.898Z</time></trkpt><trkpt lat="42.529225" lon="-7.3489033"><ele>482.0</ele><time>2026-04-14T14:47:32.898Z</time></trkpt><trkpt lat="42.5293417" lon="-7.3489117"><ele>482.0</ele><time>2026-04-14T14:47:33.898Z</time></trkpt><trkpt lat="42.5294333" lon="-7.3489167"><ele>482.0</ele><time>2026-04-14T14:47:34.898Z</time></trkpt><trkpt lat="42.5295383" lon="-7.3489433"><ele>482.0</ele><time>2026-04-14T14:47:36.899Z</time></trkpt><trkpt lat="42.5297883" lon="-7.34593"><ele>489.20000000000005</ele><time>2026-04-14T14:47:05.898Z</time></trkpt><trkpt lat="42.529715" lon="-7.345995"><ele>496.40000000000003</ele><time>2026-04-14T14:47:06.899Z</time></trkpt><trkpt lat="42.529635" lon="-7.3460817"><ele>503.59999999999997</ele><time>2026-04-14T14:47:07.898Z</time></trkpt><trkpt lat="42.5295433" lon="-7.3461767"><ele>510.79999999999995</ele><time>2026-04-14T14:47:08.899Z</time></trkpt><trkpt lat="42.52944" lon="-7.34628"><ele>518.0</ele><time>2026-04-14T14:47:09.899Z</time></trkpt><trkpt lat="42.5293383" lon="-7.3463883"><ele>520.0</ele><time>2026-04-14T14:47:10.898Z</time></trkpt><trkpt lat="42.5292317" lon="-7.3464917"><ele>522.0</ele><time>2026-04-14T14:47:11.899Z</time></trkpt><trkpt lat="42.52913" lon="-7.3466"><ele>524.0</ele><time>2026-04-14T14:47:12.899Z</time></trkpt><trkpt lat="42.529025" lon="-7.3467"><ele>526.0</ele><time>2026-04-14T14:47:13.898Z</time></trkpt><trkpt lat="42.5289317" lon="-7.3468033"><ele>526.0</ele><time>2026-04-14T14:47:14.899Z</time></trkpt><trkpt lat="42.5288467" lon="-7.3469117"><ele>526.0</ele><time>2026-04-14T14:47:15.898Z</time></trkpt><trkpt lat="42.5287733" lon="-7.3470383"><ele>526.0</ele><time>2026-04-14T14:47:16.898Z</time></trkpt><trkpt lat="42.5287117" lon="-7.3471717"><ele>526.0</ele><time>2026-04-14T14:47:17.899Z</time></trkpt><trkpt lat="42.5286617" lon="-7.3473067"><ele>520.8</ele><time>2026-04-14T14:47:18.898Z</time></trkpt><trkpt lat="42.52863" lon="-7.3474483"><ele>515.6</ele><time>2026-04-14T14:47:19.899Z</time></trkpt><trkpt lat="42.5286033" lon="-7.3475967"><ele>510.4</ele><time>2026-04-14T14:47:20.898Z</time></trkpt><trkpt lat="42.5285917" lon="-7.3477417"><ele>505.2</ele><time>2026-04-14T14:47:21.898Z</time></trkpt><trkpt lat="42.5285933" lon="-7.3479017"><ele>500.0</ele><time>2026-04-14T14:47:22.898Z</time></trkpt><trkpt lat="42.5285917" lon="-7.3480583"><ele>498.8</ele><time>2026-04-14T14:47:23.899Z</time></trkpt><trkpt lat="42.5285983" lon="-7.3482117"><ele>497.6</ele><time>2026-04-14T14:47:24.898Z</time></trkpt><trkpt lat="42.5286167" lon="-7.3483583"><ele>496.4</ele><time>2026-04-14T14:47:25.898Z</time></trkpt><trkpt lat="42.5286567" lon="-7.3484883"><ele>495.2</ele><time>2026-04-14T14:47:26.899Z</time></trkpt><trkpt lat="42.52871" lon="-7.348605"><ele>494.0</ele><time>2026-04-14T14:47:27.899Z</time></trkpt><trkpt lat="42.5287817" lon="-7.3487083"><ele>491.0</ele><time>2026-04-14T14:47:28.898Z</time></trkpt><trkpt lat="42.5288633" lon="-7.3487867"><ele>488.0</ele><time>2026-04-14T14:47:29.898Z</time></trkpt><trkpt lat="42.528975" lon="-7.348845"><ele>485.0</ele><time>2026-04-14T14:47:30.898Z</time></trkpt><trkpt lat="42.5290917" lon="-7.3488867"><ele>482.0</ele><time>2026-04-14T14:47:31.898Z</time></trkpt><trkpt lat="42.529225" lon="-7.3489033"><ele>482.0</ele><time>2026-04-14T14:47:32.898Z</time></trkpt><trkpt lat="42.5293417" lon="-7.3489117"><ele>482.00000000000006</ele><time>2026-04-14T14:47:33.898Z</time></trkpt><trkpt lat="42.5294333" lon="-7.3489167"><ele>482.00000000000006</ele><time>2026-04-14T14:47:34.898Z</time></trkpt><trkpt lat="42.5295383" lon="-7.3489433"><ele>482.0</ele><time>2026-04-14T14:47:36.899Z</time></trkpt><trkpt lat="42.5295317" lon="-7.34905"><ele>482.0</ele><time>2026-04-14T14:47:39.899Z</time></trkpt><trkpt lat="42.529465" lon="-7.3490783"><ele>482.0</ele><time>2026-04-14T14:47:40.898Z</time></trkpt><trkpt lat="42.5293483" lon="-7.3491033"><ele>482.0</ele><time>2026-04-14T14:47:41.899Z</time></trkpt><trkpt lat="42.529185" lon="-7.3491383"><ele>482.0</ele><time>2026-04-14T14:47:42.899Z</time></trkpt><trkpt lat="42.5290367" lon="-7.34918"><ele>482.0</ele><time>2026-04-14T14:47:43.899Z</time></trkpt><trkpt lat="42.5289033" lon="-7.34923"><ele>482.0</ele><time>2026-04-14T14:47:44.898Z</time></trkpt><trkpt lat="42.528785" lon="-7.3492517"><ele>482.0</ele><time>2026-04-14T14:47:45.898Z</time></trkpt><trkpt lat="42.5286617" lon="-7.3492433"><ele>482.0</ele><time>2026-04-14T14:47:46.898Z</time></trkpt><trkpt lat="42.528535" lon="-7.3492"><ele>482.0</ele><time>2026-04-14T14:47:47.899Z</time></trkpt><trkpt lat="42.5284067" lon="-7.3491367"><ele>481.0</ele><time>2026-04-14T14:47:48.899Z</time></trkpt><trkpt lat="42.528285" lon="-7.349055"><ele>480.0</ele><time>2026-04-14T14:47:49.899Z</time></trkpt><trkpt lat="42.52817" lon="-7.3489533"><ele>479.0</ele><time>2026-04-14T14:47:50.899Z</time></trkpt><trkpt lat="42.52807" lon="-7.3488417"><ele>478.0</ele><time>2026-04-14T14:47:51.899Z</time></trkpt><trkpt lat="42.52798" lon="-7.3487117"><ele>475.0</ele><time>2026-04-14T14:47:52.898Z</time></trkpt><trkpt lat="42.527895" lon="-7.348565"><ele>472.0</ele><time>2026-04-14T14:47:53.898Z</time></trkpt><trkpt lat="42.527825" lon="-7.3484183"><ele>469.0</ele><time>2026-04-14T14:47:54.898Z</time></trkpt><trkpt lat="42.52776" lon="-7.348255"><ele>466.0</ele><time>2026-04-14T14:47:55.899Z</time></trkpt><trkpt lat="42.5277017" lon="-7.3480967"><ele>466.25</ele><time>2026-04-14T14:47:56.899Z</time></trkpt><trkpt lat="42.5276567" lon="-7.3479317"><ele>466.5</ele><time>2026-04-14T14:47:57.899Z</time></trkpt><trkpt lat="42.5276267" lon="-7.347775"><ele>466.75</ele><time>2026-04-14T14:47:58.899Z</time></trkpt><trkpt lat="42.527605" lon="-7.34761"><ele>467.0</ele><time>2026-04-14T14:47:59.899Z</time></trkpt><trkpt lat="42.5275917" lon="-7.3474333"><ele>467.0</ele><time>2026-04-14T14:48:00.898Z</time></trkpt><trkpt lat="42.527585" lon="-7.3472583"><ele>467.0</ele><time>2026-04-14T14:48:01.898Z</time></trkpt><trkpt lat="42.5275883" lon="-7.3470867"><ele>467.0</ele><time>2026-04-14T14:48:02.898Z</time></trkpt><trkpt lat="42.52761" lon="-7.346925"><ele>467.0</ele><time>2026-04-14T14:48:03.899Z</time></trkpt><trkpt lat="42.5276367" lon="-7.3467933"><ele>465.66666666666663</ele><time>2026-04-14T14:48:04.899Z</time></trkpt><trkpt lat="42.527675" lon="-7.3466783"><ele>464.3333333333333</ele><time>2026-04-14T14:48:05.898Z</time></trkpt><trkpt lat="42.5277283" lon="-7.3465733"><ele>463.0</ele><time>2026-04-14T14:48:06.899Z</time></trkpt><trkpt lat="42.527785" lon="-7.346505"><ele>461.66666666666663</ele><time>2026-04-14T14:48:07.898Z</time></trkpt><trkpt lat="42.52784" lon="-7.3464617"><ele>460.3333333333333</ele><time>2026-04-14T14:48:08.898Z</time></trkpt><trkpt lat="42.527905" lon="-7.3464"><ele>459.0</ele><time>2026-04-14T14:48:10.899Z</time></trkpt><trkpt lat="42.5278283" lon="-7.3464467"><ele>459.0</ele><time>2026-04-14T14:48:14.899Z</time></trkpt><trkpt lat="42.5277667" lon="-7.3464783"><ele>459.0</ele><time>2026-04-14T14:48:15.899Z</time></trkpt><trkpt lat="42.5277033" lon="-7.34654"><ele>459.0</ele><time>2026-04-14T14:48:16.899Z</time></trkpt><trkpt lat="42.5276383" lon="-7.34665"><ele>459.0</ele><time>2026-04-14T14:48:17.898Z</time></trkpt><trkpt lat="42.5275617" lon="-7.3467883"><ele>459.0</ele><time>2026-04-14T14:48:18.899Z</time></trkpt><trkpt lat="42.527475" lon="-7.34695"><ele>459.0</ele><time>2026-04-14T14:48:19.898Z</time></trkpt><trkpt lat="42.5273883" lon="-7.3471117"><ele>459.0</ele><time>2026-04-14T14:48:20.898Z</time></trkpt><trkpt lat="42.5273" lon="-7.3472667"><ele>459.0</ele><time>2026-04-14T14:48:21.899Z</time></trkpt><trkpt lat="42.5272183" lon="-7.3474183"><ele>459.0</ele><time>2026-04-14T14:48:22.898Z</time></trkpt><trkpt lat="42.52714" lon="-7.3475717"><ele>461.0</ele><time>2026-04-14T14:48:23.898Z</time></trkpt><trkpt lat="42.5270633" lon="-7.3477167"><ele>463.0</ele><time>2026-04-14T14:48:24.898Z</time></trkpt><trkpt lat="42.5269967" lon="-7.347875"><ele>465.0</ele><time>2026-04-14T14:48:25.898Z</time></trkpt><trkpt lat="42.5269333" lon="-7.34805"><ele>467.0</ele><time>2026-04-14T14:48:26.898Z</time></trkpt><trkpt lat="42.52688" lon="-7.3482283"><ele>459.5</ele><time>2026-04-14T14:48:27.898Z</time></trkpt><trkpt lat="42.526825" lon="-7.3483933"><ele>452.0</ele><time>2026-04-14T14:48:28.899Z</time></trkpt><trkpt lat="42.526765" lon="-7.348555"><ele>444.5</ele><time>2026-04-14T14:48:29.898Z</time></trkpt><trkpt lat="42.526715" lon="-7.34871"><ele>437.0</ele><time>2026-04-14T14:48:30.899Z</time></trkpt><trkpt lat="42.52668" lon="-7.3488517"><ele>436.8</ele><time>2026-04-14T14:48:31.898Z</time></trkpt><trkpt lat="42.5266583" lon="-7.3489883"><ele>436.6</ele><time>2026-04-14T14:48:32.898Z</time></trkpt><trkpt lat="42.5266567" lon="-7.34913"><ele>436.40000000000003</ele><time>2026-04-14T14:48:33.899Z</time></trkpt><trkpt lat="42.5266683" lon="-7.34928"><ele>436.20000000000005</ele><time>2026-04-14T14:48:34.899Z</time></trkpt><trkpt lat="42.5266983" lon="-7.3494283"><ele>436.0</ele><time>2026-04-14T14:48:35.898Z</time></trkpt><trkpt lat="42.5267417" lon="-7.34958"><ele>434.25</ele><time>2026-04-14T14:48:36.898Z</time></trkpt><trkpt lat="42.526785" lon="-7.34974"><ele>432.5</ele><time>2026-04-14T14:48:37.899Z</time></trkpt><trkpt lat="42.5268333" lon="-7.3499117"><ele>430.75</ele><time>2026-04-14T14:48:38.899Z</time></trkpt><trkpt lat="42.5268817" lon="-7.3500783"><ele>429.0</ele><time>2026-04-14T14:48:39.898Z</time></trkpt><trkpt lat="42.5269217" lon="-7.3502467"><ele>429.0</ele><time>2026-04-14T14:48:40.898Z</time></trkpt><trkpt lat="42.5269617" lon="-7.3503983"><ele>429.0</ele><time>2026-04-14T14:48:41.898Z</time></trkpt><trkpt lat="42.5270033" lon="-7.3505317"><ele>429.0</ele><time>2026-04-14T14:48:42.898Z</time></trkpt><trkpt lat="42.5270517" lon="-7.3506467"><ele>429.0</ele><time>2026-04-14T14:48:43.898Z</time></trkpt><trkpt lat="42.5271233" lon="-7.3507483"><ele>429.0</ele><time>2026-04-14T14:48:44.898Z</time></trkpt><trkpt lat="42.52722" lon="-7.3508183"><ele>430.0</ele><time>2026-04-14T14:48:45.898Z</time></trkpt><trkpt lat="42.5273283" lon="-7.3508717"><ele>431.0</ele><time>2026-04-14T14:48:46.898Z</time></trkpt><trkpt lat="42.5274483" lon="-7.3508967"><ele>432.0</ele><time>2026-04-14T14:48:47.898Z</time></trkpt><trkpt lat="42.5275783" lon="-7.3509133"><ele>433.0</ele><time>2026-04-14T14:48:48.898Z</time></trkpt><trkpt lat="42.5277067" lon="-7.3509167"><ele>433.0</ele><time>2026-04-14T14:48:49.899Z</time></trkpt><trkpt lat="42.52784" lon="-7.350915"><ele>433.0</ele><time>2026-04-14T14:48:50.899Z</time></trkpt><trkpt lat="42.5279767" lon="-7.3509017"><ele>433.0</ele><time>2026-04-14T14:48:51.898Z</time></trkpt><trkpt lat="42.52811" lon="-7.3508833"><ele>433.0</ele><time>2026-04-14T14:48:52.898Z</time></trkpt><trkpt lat="42.528255" lon="-7.350855"><ele>432.0</ele><time>2026-04-14T14:48:53.898Z</time></trkpt><trkpt lat="42.5283933" lon="-7.3508267"><ele>431.0</ele><time>2026-04-14T14:48:54.899Z</time></trkpt><trkpt lat="42.52854" lon="-7.3508167"><ele>430.0</ele><time>2026-04-14T14:48:55.898Z</time></trkpt><trkpt lat="42.528685" lon="-7.35082"><ele>429.0</ele><time>2026-04-14T14:48:56.899Z</time></trkpt><trkpt lat="42.52882" lon="-7.3508433"><ele>427.75</ele><time>2026-04-14T14:48:57.899Z</time></trkpt><trkpt lat="42.52896" lon="-7.3508583"><ele>426.5</ele><time>2026-04-14T14:48:58.898Z</time></trkpt><trkpt lat="42.5290933" lon="-7.3508633"><ele>425.25</ele><time>2026-04-14T14:48:59.898Z</time></trkpt><trkpt lat="42.5292233" lon="-7.3508517"><ele>424.0</ele><time>2026-04-14T14:49:00.898Z</time></trkpt><trkpt lat="42.5293567" lon="-7.3508233"><ele>424.0</ele><time>2026-04-14T14:49:01.899Z</time></trkpt><trkpt lat="42.5294883" lon="-7.3507883"><ele>424.0</ele><time>2026-04-14T14:49:02.898Z</time></trkpt><trkpt lat="42.529605" lon="-7.3507683"><ele>424.0</ele><time>2026-04-14T14:49:03.899Z</time></trkpt><trkpt lat="42.52971" lon="-7.3507417"><ele>424.0</ele><time>2026-04-14T14:49:04.899Z</time></trkpt><trkpt lat="42.5297917" lon="-7.3507167"><ele>424.0</ele><time>2026-04-14T14:49:05.898Z</time></trkpt><trkpt lat="42.5298633" lon="-7.3506683"><ele>426.2</ele><time>2026-04-14T14:49:06.898Z</time></trkpt><trkpt lat="42.52993" lon="-7.3505967"><ele>428.4</ele><time>2026-04-14T14:49:07.899Z</time></trkpt><trkpt lat="42.5299817" lon="-7.350515"><ele>430.6</ele><time>2026-04-14T14:49:08.899Z</time></trkpt><trkpt lat="42.53005" lon="-7.3504267"><ele>432.8</ele><time>2026-04-14T14:49:09.899Z</time></trkpt><trkpt lat="42.5301217" lon="-7.3503317"><ele>435.0</ele><time>2026-04-14T14:49:10.898Z</time></trkpt><trkpt lat="42.53019" lon="-7.3502183"><ele>436.5</ele><time>2026-04-14T14:49:11.899Z</time></trkpt><trkpt lat="42.5302583" lon="-7.3501267"><ele>438.0</ele><time>2026-04-14T14:49:12.898Z</time></trkpt><trkpt lat="42.5303233" lon="-7.35003"><ele>439.5</ele><time>2026-04-14T14:49:13.898Z</time></trkpt><trkpt lat="42.5303817" lon="-7.3499483"><ele>441.0</ele><time>2026-04-14T14:49:14.898Z</time></trkpt><trkpt lat="42.5304267" lon="-7.3498817"><ele>442.5</ele><time>2026-04-14T14:49:15.899Z</time></trkpt><trkpt lat="42.530485" lon="-7.3498383"><ele>444.0</ele><time>2026-04-14T14:49:17.898Z</time></trkpt><trkpt lat="42.5304483" lon="-7.34997"><ele>444.0</ele><time>2026-04-14T14:49:20.898Z</time></trkpt><trkpt lat="42.5304083" lon="-7.3500633"><ele>444.0</ele><time>2026-04-14T14:49:21.899Z</time></trkpt><trkpt lat="42.530345" lon="-7.3501917"><ele>444.0</ele><time>2026-04-14T14:49:22.899Z</time></trkpt><trkpt lat="42.530265" lon="-7.35037"><ele>444.0</ele><time>2026-04-14T14:49:23.898Z</time></trkpt><trkpt lat="42.5301767" lon="-7.3505633"><ele>441.75</ele><time>2026-04-14T14:49:24.898Z</time></trkpt><trkpt lat="42.530095" lon="-7.3507383"><ele>439.5</ele><time>2026-04-14T14:49:25.898Z</time></trkpt><trkpt lat="42.5300117" lon="-7.3508967"><ele>437.25</ele><time>2026-04-14T14:49:26.898Z</time></trkpt><trkpt lat="42.5299283" lon="-7.3510533"><ele>435.0</ele><time>2026-04-14T14:49:27.899Z</time></trkpt><trkpt lat="42.5298483" lon="-7.3511917"><ele>435.0</ele><time>2026-04-14T14:49:28.898Z</time></trkpt><trkpt lat="42.5297683" lon="-7.3513083"><ele>435.0</ele><time>2026-04-14T14:49:29.899Z</time></trkpt><trkpt lat="42.5296717" lon="-7.351375"><ele>435.0</ele><time>2026-04-14T14:49:30.899Z</time></trkpt><trkpt lat="42.5295717" lon="-7.351425"><ele>435.0</ele><time>2026-04-14T14:49:31.899Z</time></trkpt><trkpt lat="42.5294567" lon="-7.3514267"><ele>435.0</ele><time>2026-04-14T14:49:32.898Z</time></trkpt><trkpt lat="42.52937" lon="-7.3514467"><ele>433.2</ele><time>2026-04-14T14:49:33.898Z</time></trkpt><trkpt lat="42.5292767" lon="-7.3514617"><ele>431.4</ele><time>2026-04-14T14:49:34.898Z</time></trkpt><trkpt lat="42.52919" lon="-7.351495"><ele>429.6</ele><time>2026-04-14T14:49:35.898Z</time></trkpt><trkpt lat="42.5291083" lon="-7.3515667"><ele>427.8</ele><time>2026-04-14T14:49:36.898Z</time></trkpt><trkpt lat="42.5290117" lon="-7.3516483"><ele>426.0</ele><time>2026-04-14T14:49:37.898Z</time></trkpt><trkpt lat="42.528905" lon="-7.3517083"><ele>426.0</ele><time>2026-04-14T14:49:38.898Z</time></trkpt><trkpt lat="42.528795" lon="-7.3517767"><ele>426.0</ele><time>2026-04-14T14:49:39.899Z</time></trkpt><trkpt lat="42.5286817" lon="-7.3518367"><ele>426.0</ele><time>2026-04-14T14:49:40.898Z</time></trkpt><trkpt lat="42.5285683" lon="-7.351905"><ele>426.0</ele><time>2026-04-14T14:49:41.898Z</time></trkpt><trkpt lat="42.52847" lon="-7.35199"><ele>424.5</ele><time>2026-04-14T14:49:42.898Z</time></trkpt><trkpt lat="42.5283683" lon="-7.3520767"><ele>423.0</ele><time>2026-04-14T14:49:43.898Z</time></trkpt><trkpt lat="42.5282733" lon="-7.3521667"><ele>421.5</ele><time>2026-04-14T14:49:44.899Z</time></trkpt><trkpt lat="42.5281767" lon="-7.3522517"><ele>420.0</ele><time>2026-04-14T14:49:45.899Z</time></trkpt><trkpt lat="42.5280767" lon="-7.35232"><ele>420.0</ele><time>2026-04-14T14:49:46.898Z</time></trkpt><trkpt lat="42.5279683" lon="-7.35237"><ele>420.0</ele><time>2026-04-14T14:49:47.898Z</time></trkpt><trkpt lat="42.5278567" lon="-7.352405"><ele>420.0</ele><time>2026-04-14T14:49:48.898Z</time></trkpt><trkpt lat="42.527745" lon="-7.3524133"><ele>420.0</ele><time>2026-04-14T14:49:49.898Z</time></trkpt><trkpt lat="42.5276383" lon="-7.352415"><ele>420.0</ele><time>2026-04-14T14:49:50.899Z</time></trkpt><trkpt lat="42.5275367" lon="-7.3524317"><ele>416.6666666666667</ele><time>2026-04-14T14:49:51.899Z</time></trkpt><trkpt lat="42.52743" lon="-7.3524717"><ele>413.33333333333337</ele><time>2026-04-14T14:49:52.899Z</time></trkpt><trkpt lat="42.5273467" lon="-7.35254"><ele>410.0</ele><time>2026-04-14T14:49:53.899Z</time></trkpt><trkpt lat="42.527285" lon="-7.3526133"><ele>406.6666666666667</ele><time>2026-04-14T14:49:54.898Z</time></trkpt><trkpt lat="42.5272417" lon="-7.3526967"><ele>403.33333333333337</ele><time>2026-04-14T14:49:55.899Z</time></trkpt><trkpt lat="42.527225" lon="-7.3528083"><ele>400.0</ele><time>2026-04-14T14:49:56.899Z</time></trkpt><trkpt lat="42.5272417" lon="-7.35293"><ele>402.5</ele><time>2026-04-14T14:49:57.898Z</time></trkpt><trkpt lat="42.527265" lon="-7.353085"><ele>405.0</ele><time>2026-04-14T14:49:58.899Z</time></trkpt><trkpt lat="42.5273017" lon="-7.35326"><ele>407.5</ele><time>2026-04-14T14:49:59.898Z</time></trkpt><trkpt lat="42.5273333" lon="-7.3534267"><ele>410.0</ele><time>2026-04-14T14:50:00.898Z</time></trkpt><trkpt lat="42.52736" lon="-7.3535817"><ele>410.0</ele><time>2026-04-14T14:50:01.898Z</time></trkpt><trkpt lat="42.5273667" lon="-7.3537233"><ele>410.0</ele><time>2026-04-14T14:50:02.899Z</time></trkpt><trkpt lat="42.5273483" lon="-7.3538567"><ele>410.0</ele><time>2026-04-14T14:50:03.899Z</time></trkpt><trkpt lat="42.5273183" lon="-7.3539683"><ele>410.0</ele><time>2026-04-14T14:50:04.899Z</time></trkpt><trkpt lat="42.5272817" lon="-7.354075"><ele>410.0</ele><time>2026-04-14T14:50:05.898Z</time></trkpt><trkpt lat="42.527235" lon="-7.3541733"><ele>411.0</ele><time>2026-04-14T14:50:06.898Z</time></trkpt><trkpt lat="42.5271867" lon="-7.354235"><ele>412.0</ele><time>2026-04-14T14:50:07.899Z</time></trkpt><trkpt lat="42.5271317" lon="-7.3542917"><ele>413.0</ele><time>2026-04-14T14:50:08.898Z</time></trkpt><trkpt lat="42.527075" lon="-7.3543483"><ele>414.0</ele><time>2026-04-14T14:50:09.899Z</time></trkpt><trkpt lat="42.527015" lon="-7.354385"><ele>415.0</ele><time>2026-04-14T14:50:10.898Z</time></trkpt><trkpt lat="42.526955" lon="-7.35442"><ele>416.0</ele><time>2026-04-14T14:50:11.898Z</time></trkpt><trkpt lat="42.526895" lon="-7.3544667"><ele>417.0</ele><time>2026-04-14T14:50:12.898Z</time></trkpt><trkpt lat="42.5268467" lon="-7.3545783"><ele>413.3333333333333</ele><time>2026-04-14T14:50:14.899Z</time></trkpt><trkpt lat="42.5268267" lon="-7.3546983"><ele>409.66666666666663</ele><time>2026-04-14T14:50:16.899Z</time></trkpt><trkpt lat="42.5268117" lon="-7.3548167"><ele>406.0</ele><time>2026-04-14T14:50:18.899Z</time></trkpt><trkpt lat="42.5268117" lon="-7.354905"><ele>402.3333333333333</ele><time>2026-04-14T14:50:19.899Z</time></trkpt><trkpt lat="42.526815" lon="-7.3550183"><ele>398.66666666666663</ele><time>2026-04-14T14:50:20.898Z</time></trkpt><trkpt lat="42.526835" lon="-7.3551483"><ele>395.0</ele><time>2026-04-14T14:50:21.898Z</time></trkpt><trkpt lat="42.5268583" lon="-7.35529"><ele>395.0</ele><time>2026-04-14T14:50:22.898Z</time></trkpt><trkpt lat="42.5268883" lon="-7.3554533"><ele>395.0</ele><time>2026-04-14T14:50:23.898Z</time></trkpt><trkpt lat="42.5269217" lon="-7.3556133"><ele>395.0</ele><time>2026-04-14T14:50:24.898Z</time></trkpt><trkpt lat="42.5269583" lon="-7.35576"><ele>395.0</ele><time>2026-04-14T14:50:25.899Z</time></trkpt><trkpt lat="42.526995" lon="-7.355885"><ele>395.8</ele><time>2026-04-14T14:50:26.898Z</time></trkpt><trkpt lat="42.527025" lon="-7.3559867"><ele>396.6</ele><time>2026-04-14T14:50:27.898Z</time></trkpt><trkpt lat="42.5270467" lon="-7.3561"><ele>397.4</ele><time>2026-04-14T14:50:28.898Z</time></trkpt><trkpt lat="42.5270567" lon="-7.3562233"><ele>398.2</ele><time>2026-04-14T14:50:29.899Z</time></trkpt><trkpt lat="42.5270617" lon="-7.3563533"><ele>399.0</ele><time>2026-04-14T14:50:30.899Z</time></trkpt><trkpt lat="42.5270617" lon="-7.3564833"><ele>400.0</ele><time>2026-04-14T14:50:31.898Z</time></trkpt><trkpt lat="42.5270683" lon="-7.356595"><ele>401.0</ele><time>2026-04-14T14:50:32.899Z</time></trkpt><trkpt lat="42.52707" lon="-7.3567067"><ele>402.0</ele><time>2026-04-14T14:50:33.899Z</time></trkpt><trkpt lat="42.5270483" lon="-7.356815"><ele>403.0</ele><time>2026-04-14T14:50:34.899Z</time></trkpt><trkpt lat="42.52701" lon="-7.35693"><ele>404.0</ele><time>2026-04-14T14:50:35.898Z</time></trkpt><trkpt lat="42.5269483" lon="-7.3570533"><ele>404.0</ele><time>2026-04-14T14:50:36.898Z</time></trkpt><trkpt lat="42.5268867" lon="-7.35718"><ele>404.0</ele><time>2026-04-14T14:50:37.899Z</time></trkpt><trkpt lat="42.5268367" lon="-7.3573017"><ele>404.0</ele><time>2026-04-14T14:50:38.898Z</time></trkpt><trkpt lat="42.52679" lon="-7.3574183"><ele>404.0</ele><time>2026-04-14T14:50:39.898Z</time></trkpt><trkpt lat="42.5267467" lon="-7.357545"><ele>404.0</ele><time>2026-04-14T14:50:40.898Z</time></trkpt><trkpt lat="42.52671" lon="-7.3576717"><ele>404.2</ele><time>2026-04-14T14:50:41.899Z</time></trkpt><trkpt lat="42.5266933" lon="-7.3577967"><ele>404.4</ele><time>2026-04-14T14:50:42.899Z</time></trkpt><trkpt lat="42.5266867" lon="-7.3579183"><ele>404.6</ele><time>2026-04-14T14:50:43.899Z</time></trkpt><trkpt lat="42.5266967" lon="-7.3580633"><ele>404.8</ele><time>2026-04-14T14:50:44.898Z</time></trkpt><trkpt lat="42.52673" lon="-7.358205"><ele>405.0</ele><time>2026-04-14T14:50:45.899Z</time></trkpt><trkpt lat="42.5267683" lon="-7.3583567"><ele>405.33333333333337</ele><time>2026-04-14T14:50:46.898Z</time></trkpt><trkpt lat="42.5268167" lon="-7.35852"><ele>405.6666666666667</ele><time>2026-04-14T14:50:47.898Z</time></trkpt><trkpt lat="42.5268683" lon="-7.35869"><ele>406.0</ele><time>2026-04-14T14:50:48.898Z</time></trkpt><trkpt lat="42.5268267" lon="-7.3546983"><ele>404.1666666666667</ele><time>2026-04-14T14:50:16.899Z</time></trkpt><trkpt lat="42.5268117" lon="-7.3548167"><ele>402.33333333333337</ele><time>2026-04-14T14:50:18.899Z</time></trkpt><trkpt lat="42.5268117" lon="-7.354905"><ele>400.5</ele><time>2026-04-14T14:50:19.899Z</time></trkpt><trkpt lat="42.526815" lon="-7.3550183"><ele>398.66666666666663</ele><time>2026-04-14T14:50:20.898Z</time></trkpt><trkpt lat="42.526835" lon="-7.3551483"><ele>396.8333333333333</ele><time>2026-04-14T14:50:21.898Z</time></trkpt><trkpt lat="42.5268583" lon="-7.35529"><ele>395.0</ele><time>2026-04-14T14:50:22.898Z</time></trkpt><trkpt lat="42.5268883" lon="-7.3554533"><ele>395.8</ele><time>2026-04-14T14:50:23.898Z</time></trkpt><trkpt lat="42.5269217" lon="-7.3556133"><ele>396.6</ele><time>2026-04-14T14:50:24.898Z</time></trkpt><trkpt lat="42.5269583" lon="-7.35576"><ele>397.4</ele><time>2026-04-14T14:50:25.899Z</time></trkpt><trkpt lat="42.526995" lon="-7.355885"><ele>398.2</ele><time>2026-04-14T14:50:26.898Z</time></trkpt><trkpt lat="42.527025" lon="-7.3559867"><ele>399.0</ele><time>2026-04-14T14:50:27.898Z</time></trkpt><trkpt lat="42.5270467" lon="-7.3561"><ele>399.0</ele><time>2026-04-14T14:50:28.898Z</time></trkpt><trkpt lat="42.5270567" lon="-7.3562233"><ele>399.0</ele><time>2026-04-14T14:50:29.899Z</time></trkpt><trkpt lat="42.5270617" lon="-7.3563533"><ele>399.0</ele><time>2026-04-14T14:50:30.899Z</time></trkpt><trkpt lat="42.5270617" lon="-7.3564833"><ele>399.0</ele><time>2026-04-14T14:50:31.898Z</time></trkpt><trkpt lat="42.5270683" lon="-7.356595"><ele>399.0</ele><time>2026-04-14T14:50:32.899Z</time></trkpt><trkpt lat="42.52707" lon="-7.3567067"><ele>399.0</ele><time>2026-04-14T14:50:33.899Z</time></trkpt><trkpt lat="42.5270483" lon="-7.356815"><ele>400.0</ele><time>2026-04-14T14:50:34.899Z</time></trkpt><trkpt lat="42.52701" lon="-7.35693"><ele>401.0</ele><time>2026-04-14T14:50:35.898Z</time></trkpt><trkpt lat="42.5269483" lon="-7.3570533"><ele>402.0</ele><time>2026-04-14T14:50:36.898Z</time></trkpt><trkpt lat="42.5268867" lon="-7.35718"><ele>403.0</ele><time>2026-04-14T14:50:37.899Z</time></trkpt><trkpt lat="42.5268367" lon="-7.3573017"><ele>404.0</ele><time>2026-04-14T14:50:38.898Z</time></trkpt><trkpt lat="42.52679" lon="-7.3574183"><ele>404.2</ele><time>2026-04-14T14:50:39.898Z</time></trkpt><trkpt lat="42.5267467" lon="-7.357545"><ele>404.4</ele><time>2026-04-14T14:50:40.898Z</time></trkpt><trkpt lat="42.52671" lon="-7.3576717"><ele>404.6</ele><time>2026-04-14T14:50:41.899Z</time></trkpt><trkpt lat="42.5266933" lon="-7.3577967"><ele>404.8</ele><time>2026-04-14T14:50:42.899Z</time></trkpt><trkpt lat="42.5266867" lon="-7.3579183"><ele>405.0</ele><time>2026-04-14T14:50:43.899Z</time></trkpt><trkpt lat="42.5266967" lon="-7.3580633"><ele>405.25</ele><time>2026-04-14T14:50:44.898Z</time></trkpt><trkpt lat="42.52673" lon="-7.358205"><ele>405.5</ele><time>2026-04-14T14:50:45.899Z</time></trkpt><trkpt lat="42.5267683" lon="-7.3583567"><ele>405.75</ele><time>2026-04-14T14:50:46.898Z</time></trkpt><trkpt lat="42.5268167" lon="-7.35852"><ele>406.0</ele><time>2026-04-14T14:50:47.898Z</time></trkpt><trkpt lat="42.5268683" lon="-7.35869"><ele>406.75</ele><time>2026-04-14T14:50:48.898Z</time></trkpt><trkpt lat="42.5269017" lon="-7.35887"><ele>407.5</ele><time>2026-04-14T14:50:49.898Z</time></trkpt><trkpt lat="42.5269233" lon="-7.359045"><ele>408.25</ele><time>2026-04-14T14:50:50.898Z</time></trkpt><trkpt lat="42.5269433" lon="-7.3592217"><ele>409.0</ele><time>2026-04-14T14:50:51.898Z</time></trkpt><trkpt lat="42.5269483" lon="-7.3593867"><ele>409.0</ele><time>2026-04-14T14:50:52.899Z</time></trkpt><trkpt lat="42.5269667" lon="-7.35954"><ele>409.0</ele><time>2026-04-14T14:50:53.899Z</time></trkpt><trkpt lat="42.5270067" lon="-7.3597"><ele>409.0</ele><time>2026-04-14T14:50:54.899Z</time></trkpt><trkpt lat="42.5270567" lon="-7.3598667"><ele>409.0</ele><time>2026-04-14T14:50:55.898Z</time></trkpt><trkpt lat="42.527115" lon="-7.3600383"><ele>408.75</ele><time>2026-04-14T14:50:56.899Z</time></trkpt><trkpt lat="42.5271783" lon="-7.360215"><ele>408.5</ele><time>2026-04-14T14:50:57.899Z</time></trkpt><trkpt lat="42.5272483" lon="-7.3603933"><ele>408.25</ele><time>2026-04-14T14:50:58.899Z</time></trkpt><trkpt lat="42.527305" lon="-7.3605317"><ele>408.0</ele><time>2026-04-14T14:50:59.898Z</time></trkpt><trkpt lat="42.52739" lon="-7.36068"><ele>408.0</ele><time>2026-04-14T14:51:00.898Z</time></trkpt><trkpt lat="42.52748" lon="-7.3607983"><ele>408.0</ele><time>2026-04-14T14:51:01.899Z</time></trkpt><trkpt lat="42.52756" lon="-7.3609117"><ele>408.0</ele><time>2026-04-14T14:51:02.898Z</time></trkpt><trkpt lat="42.5276517" lon="-7.361025"><ele>408.0</ele><time>2026-04-14T14:51:03.898Z</time></trkpt><trkpt lat="42.527755" lon="-7.3611217"><ele>408.0</ele><time>2026-04-14T14:51:04.899Z</time></trkpt><trkpt lat="42.5278517" lon="-7.3612183"><ele>408.0</ele><time>2026-04-14T14:51:05.899Z</time></trkpt><trkpt lat="42.5279433" lon="-7.3613183"><ele>408.0</ele><time>2026-04-14T14:51:06.899Z</time></trkpt><trkpt lat="42.5280167" lon="-7.3614083"><ele>408.0</ele><time>2026-04-14T14:51:07.898Z</time></trkpt><trkpt lat="42.5280783" lon="-7.361455"><ele>408.0</ele><time>2026-04-14T14:51:08.899Z</time></trkpt><trkpt lat="42.5281383" lon="-7.3614917"><ele>408.0</ele><time>2026-04-14T14:51:09.898Z</time></trkpt><trkpt lat="42.52821" lon="-7.3615283"><ele>408.0</ele><time>2026-04-14T14:51:11.899Z</time></trkpt><trkpt lat="42.5281567" lon="-7.3614"><ele>408.0</ele><time>2026-04-14T14:52:16.898Z</time></trkpt><trkpt lat="42.5281117" lon="-7.361335"><ele>408.0</ele><time>2026-04-14T14:52:17.898Z</time></trkpt><trkpt lat="42.5280333" lon="-7.3612683"><ele>408.0</ele><time>2026-04-14T14:52:18.898Z</time></trkpt><trkpt lat="42.5279567" lon="-7.3611967"><ele>408.0</ele><time>2026-04-14T14:52:19.898Z</time></trkpt><trkpt lat="42.5278233" lon="-7.3611133"><ele>408.0</ele><time>2026-04-14T14:52:20.898Z</time></trkpt><trkpt lat="42.527705" lon="-7.3610117"><ele>408.0</ele><time>2026-04-14T14:52:21.898Z</time></trkpt><trkpt lat="42.5275617" lon="-7.3608583"><ele>408.0</ele><time>2026-04-14T14:52:22.898Z</time></trkpt><trkpt lat="42.5274317" lon="-7.3606933"><ele>412.0</ele><time>2026-04-14T14:52:23.899Z</time></trkpt><trkpt lat="42.5273267" lon="-7.3605117"><ele>416.0</ele><time>2026-04-14T14:52:24.898Z</time></trkpt><trkpt lat="42.5272283" lon="-7.3602917"><ele>420.0</ele><time>2026-04-14T14:52:25.899Z</time></trkpt><trkpt lat="42.5271417" lon="-7.3600483"><ele>420.0</ele><time>2026-04-14T14:52:26.899Z</time></trkpt><trkpt lat="42.5270817" lon="-7.359815"><ele>420.0</ele><time>2026-04-14T14:52:27.899Z</time></trkpt><trkpt lat="42.5270333" lon="-7.3595783"><ele>420.0</ele><time>2026-04-14T14:52:28.898Z</time></trkpt><trkpt lat="42.5269733" lon="-7.3593217"><ele>416.33333333333337</ele><time>2026-04-14T14:52:29.898Z</time></trkpt><trkpt lat="42.52691" lon="-7.3590517"><ele>412.6666666666667</ele><time>2026-04-14T14:52:30.898Z</time></trkpt><trkpt lat="42.5268517" lon="-7.3587933"><ele>409.0</ele><time>2026-04-14T14:52:31.898Z</time></trkpt><trkpt lat="42.5268017" lon="-7.35854"><ele>408.0</ele><time>2026-04-14T14:52:32.899Z</time></trkpt><trkpt lat="42.5267633" lon="-7.358315"><ele>407.0</ele><time>2026-04-14T14:52:33.898Z</time></trkpt><trkpt lat="42.52674" lon="-7.3581083"><ele>406.0</ele><time>2026-04-14T14:52:34.898Z</time></trkpt><trkpt lat="42.5267117" lon="-7.35792"><ele>405.75</ele><time>2026-04-14T14:52:35.898Z</time></trkpt><trkpt lat="42.5267067" lon="-7.3577567"><ele>405.5</ele><time>2026-04-14T14:52:36.898Z</time></trkpt><trkpt lat="42.52674" lon="-7.357575"><ele>405.25</ele><time>2026-04-14T14:52:37.899Z</time></trkpt><trkpt lat="42.526795" lon="-7.3573933"><ele>405.0</ele><time>2026-04-14T14:52:38.898Z</time></trkpt><trkpt lat="42.5268567" lon="-7.3572033"><ele>404.75</ele><time>2026-04-14T14:52:39.898Z</time></trkpt><trkpt lat="42.5269283" lon="-7.3570167"><ele>404.5</ele><time>2026-04-14T14:52:40.899Z</time></trkpt><trkpt lat="42.52698" lon="-7.3568333"><ele>404.25</ele><time>2026-04-14T14:52:41.898Z</time></trkpt><trkpt lat="42.527015" lon="-7.3566533"><ele>404.0</ele><time>2026-04-14T14:52:42.898Z</time></trkpt><trkpt lat="42.52704" lon="-7.3564667"><ele>402.75</ele><time>2026-04-14T14:52:43.899Z</time></trkpt><trkpt lat="42.5270383" lon="-7.3562667"><ele>401.5</ele><time>2026-04-14T14:52:44.898Z</time></trkpt><trkpt lat="42.52703" lon="-7.3560667"><ele>400.25</ele><time>2026-04-14T14:52:45.898Z</time></trkpt><trkpt lat="42.52701" lon="-7.35587"><ele>399.0</ele><time>2026-04-14T14:52:46.899Z</time></trkpt><trkpt lat="42.5269717" lon="-7.355685"><ele>397.66666666666663</ele><time>2026-04-14T14:52:47.899Z</time></trkpt><trkpt lat="42.5269167" lon="-7.3554783"><ele>396.3333333333333</ele><time>2026-04-14T14:52:48.899Z</time></trkpt><trkpt lat="42.5268533" lon="-7.3552717"><ele>395.0</ele><time>2026-04-14T14:52:49.899Z</time></trkpt><trkpt lat="42.5281567" lon="-7.3614"><ele>397.6</ele><time>2026-04-14T14:52:16.898Z</time></trkpt><trkpt lat="42.5281117" lon="-7.361335"><ele>400.2</ele><time>2026-04-14T14:52:17.898Z</time></trkpt><trkpt lat="42.5280333" lon="-7.3612683"><ele>402.79999999999995</ele><time>2026-04-14T14:52:18.898Z</time></trkpt><trkpt lat="42.5279567" lon="-7.3611967"><ele>405.4</ele><time>2026-04-14T14:52:19.898Z</time></trkpt><trkpt lat="42.5278233" lon="-7.3611133"><ele>408.0</ele><time>2026-04-14T14:52:20.898Z</time></trkpt><trkpt lat="42.527705" lon="-7.3610117"><ele>408.0</ele><time>2026-04-14T14:52:21.898Z</time></trkpt><trkpt lat="42.5275617" lon="-7.3608583"><ele>408.0</ele><time>2026-04-14T14:52:22.898Z</time></trkpt><trkpt lat="42.5274317" lon="-7.3606933"><ele>408.0</ele><time>2026-04-14T14:52:23.899Z</time></trkpt><trkpt lat="42.5273267" lon="-7.3605117"><ele>412.0</ele><time>2026-04-14T14:52:24.898Z</time></trkpt><trkpt lat="42.5272283" lon="-7.3602917"><ele>416.0</ele><time>2026-04-14T14:52:25.899Z</time></trkpt><trkpt lat="42.5271417" lon="-7.3600483"><ele>420.0</ele><time>2026-04-14T14:52:26.899Z</time></trkpt><trkpt lat="42.5270817" lon="-7.359815"><ele>416.33333333333337</ele><time>2026-04-14T14:52:27.899Z</time></trkpt><trkpt lat="42.5270333" lon="-7.3595783"><ele>412.6666666666667</ele><time>2026-04-14T14:52:28.898Z</time></trkpt><trkpt lat="42.5269733" lon="-7.3593217"><ele>409.0</ele><time>2026-04-14T14:52:29.898Z</time></trkpt><trkpt lat="42.52691" lon="-7.3590517"><ele>408.0</ele><time>2026-04-14T14:52:30.898Z</time></trkpt><trkpt lat="42.5268517" lon="-7.3587933"><ele>407.0</ele><time>2026-04-14T14:52:31.898Z</time></trkpt><trkpt lat="42.5268017" lon="-7.35854"><ele>406.0</ele><time>2026-04-14T14:52:32.899Z</time></trkpt><trkpt lat="42.5267633" lon="-7.358315"><ele>406.0</ele><time>2026-04-14T14:52:33.898Z</time></trkpt><trkpt lat="42.52674" lon="-7.3581083"><ele>406.0</ele><time>2026-04-14T14:52:34.898Z</time></trkpt><trkpt lat="42.5267117" lon="-7.35792"><ele>406.0</ele><time>2026-04-14T14:52:35.898Z</time></trkpt><trkpt lat="42.5267067" lon="-7.3577567"><ele>406.0</ele><time>2026-04-14T14:52:36.898Z</time></trkpt><trkpt lat="42.52674" lon="-7.357575"><ele>405.6666666666667</ele><time>2026-04-14T14:52:37.899Z</time></trkpt><trkpt lat="42.526795" lon="-7.3573933"><ele>405.33333333333337</ele><time>2026-04-14T14:52:38.898Z</time></trkpt><trkpt lat="42.5268567" lon="-7.3572033"><ele>405.0</ele><time>2026-04-14T14:52:39.898Z</time></trkpt><trkpt lat="42.5269283" lon="-7.3570167"><ele>404.75</ele><time>2026-04-14T14:52:40.899Z</time></trkpt><trkpt lat="42.52698" lon="-7.3568333"><ele>404.5</ele><time>2026-04-14T14:52:41.898Z</time></trkpt><trkpt lat="42.527015" lon="-7.3566533"><ele>404.25</ele><time>2026-04-14T14:52:42.898Z</time></trkpt><trkpt lat="42.52704" lon="-7.3564667"><ele>404.0</ele><time>2026-04-14T14:52:43.899Z</time></trkpt><trkpt lat="42.5270383" lon="-7.3562667"><ele>402.75</ele><time>2026-04-14T14:52:44.898Z</time></trkpt><trkpt lat="42.52703" lon="-7.3560667"><ele>401.5</ele><time>2026-04-14T14:52:45.898Z</time></trkpt><trkpt lat="42.52701" lon="-7.35587"><ele>400.25</ele><time>2026-04-14T14:52:46.899Z</time></trkpt><trkpt lat="42.5269717" lon="-7.355685"><ele>399.0</ele><time>2026-04-14T14:52:47.899Z</time></trkpt><trkpt lat="42.5269167" lon="-7.3554783"><ele>397.66666666666663</ele><time>2026-04-14T14:52:48.899Z</time></trkpt><trkpt lat="42.5268533" lon="-7.3552717"><ele>396.3333333333333</ele><time>2026-04-14T14:52:49.899Z</time></trkpt><trkpt lat="42.5268017" lon="-7.3550433"><ele>395.0</ele><time>2026-04-14T14:52:50.898Z</time></trkpt><trkpt lat="42.5267667" lon="-7.35482"><ele>394.2</ele><time>2026-04-14T14:52:51.898Z</time></trkpt><trkpt lat="42.5267467" lon="-7.3546233"><ele>393.4</ele><time>2026-04-14T14:52:52.898Z</time></trkpt><trkpt lat="42.5267533" lon="-7.354505"><ele>392.6</ele><time>2026-04-14T14:52:53.899Z</time></trkpt><trkpt lat="42.526785" lon="-7.3544167"><ele>391.8</ele><time>2026-04-14T14:52:56.899Z</time></trkpt><trkpt lat="42.5268733" lon="-7.3543533"><ele>391.0</ele><time>2026-04-14T14:52:58.898Z</time></trkpt><trkpt lat="42.5269483" lon="-7.3542983"><ele>391.0</ele><time>2026-04-14T14:52:59.898Z</time></trkpt><trkpt lat="42.527035" lon="-7.3542417"><ele>391.0</ele><time>2026-04-14T14:53:00.898Z</time></trkpt><trkpt lat="42.52711" lon="-7.3541767"><ele>391.0</ele><time>2026-04-14T14:53:01.898Z</time></trkpt><trkpt lat="42.52719" lon="-7.3540867"><ele>391.0</ele><time>2026-04-14T14:53:02.898Z</time></trkpt><trkpt lat="42.5272733" lon="-7.353925"><ele>391.0</ele><time>2026-04-14T14:53:03.899Z</time></trkpt><trkpt lat="42.5273117" lon="-7.3537283"><ele>397.33333333333337</ele><time>2026-04-14T14:53:04.899Z</time></trkpt><trkpt lat="42.527325" lon="-7.3535133"><ele>403.66666666666663</ele><time>2026-04-14T14:53:05.899Z</time></trkpt><trkpt lat="42.5273067" lon="-7.3532533"><ele>410.0</ele><time>2026-04-14T14:53:06.898Z</time></trkpt><trkpt lat="42.5272933" lon="-7.3530467"><ele>407.5</ele><time>2026-04-14T14:53:07.899Z</time></trkpt><trkpt lat="42.52728" lon="-7.3528633"><ele>405.0</ele><time>2026-04-14T14:53:08.899Z</time></trkpt><trkpt lat="42.5272833" lon="-7.35271"><ele>402.5</ele><time>2026-04-14T14:53:09.898Z</time></trkpt><trkpt lat="42.5273067" lon="-7.3526017"><ele>400.0</ele><time>2026-04-14T14:53:10.898Z</time></trkpt><trkpt lat="42.5274117" lon="-7.3524867"><ele>400.0</ele><time>2026-04-14T14:53:12.898Z</time></trkpt><trkpt lat="42.5274967" lon="-7.3524483"><ele>400.0</ele><time>2026-04-14T14:53:13.899Z</time></trkpt><trkpt lat="42.527615" lon="-7.35243"><ele>400.0</ele><time>2026-04-14T14:53:14.898Z</time></trkpt><trkpt lat="42.527785" lon="-7.3524333"><ele>400.0</ele><time>2026-04-14T14:53:15.898Z</time></trkpt><trkpt lat="42.52794" lon="-7.3524033"><ele>403.6666666666667</ele><time>2026-04-14T14:53:16.898Z</time></trkpt><trkpt lat="42.5281117" lon="-7.3523467"><ele>407.33333333333337</ele><time>2026-04-14T14:53:17.899Z</time></trkpt><trkpt lat="42.52828" lon="-7.35226"><ele>411.0</ele><time>2026-04-14T14:53:18.899Z</time></trkpt><trkpt lat="42.5284633" lon="-7.3521333"><ele>411.0</ele><time>2026-04-14T14:53:19.899Z</time></trkpt><trkpt lat="42.52865" lon="-7.3520017"><ele>411.0</ele><time>2026-04-14T14:53:20.899Z</time></trkpt><trkpt lat="42.5288283" lon="-7.3518967"><ele>411.0</ele><time>2026-04-14T14:53:21.898Z</time></trkpt><trkpt lat="42.52901" lon="-7.3517983"><ele>416.0</ele><time>2026-04-14T14:53:22.899Z</time></trkpt><trkpt lat="42.5291717" lon="-7.3517"><ele>421.0</ele><time>2026-04-14T14:53:23.899Z</time></trkpt><trkpt lat="42.5293217" lon="-7.3515917"><ele>426.0</ele><time>2026-04-14T14:53:24.899Z</time></trkpt><trkpt lat="42.52944" lon="-7.351515"><ele>432.75</ele><time>2026-04-14T14:53:25.898Z</time></trkpt><trkpt lat="42.5295667" lon="-7.3514733"><ele>439.5</ele><time>2026-04-14T14:53:26.898Z</time></trkpt><trkpt lat="42.52969" lon="-7.3514617"><ele>446.25</ele><time>2026-04-14T14:53:27.898Z</time></trkpt><trkpt lat="42.5298183" lon="-7.35144"><ele>453.0</ele><time>2026-04-14T14:53:28.899Z</time></trkpt><trkpt lat="42.5299317" lon="-7.3513817"><ele>448.5</ele><time>2026-04-14T14:53:29.898Z</time></trkpt><trkpt lat="42.53003" lon="-7.3513"><ele>444.0</ele><time>2026-04-14T14:53:30.898Z</time></trkpt><trkpt lat="42.5301233" lon="-7.35119"><ele>439.5</ele><time>2026-04-14T14:53:31.899Z</time></trkpt><trkpt lat="42.530205" lon="-7.3510517"><ele>435.0</ele><time>2026-04-14T14:53:32.898Z</time></trkpt><trkpt lat="42.5302983" lon="-7.350925"><ele>435.0</ele><time>2026-04-14T14:53:33.899Z</time></trkpt><trkpt lat="42.5303817" lon="-7.350725"><ele>435.0</ele><time>2026-04-14T14:53:34.898Z</time></trkpt><trkpt lat="42.53047" lon="-7.3505533"><ele>435.0</ele><time>2026-04-14T14:53:35.899Z</time></trkpt><trkpt lat="42.5305283" lon="-7.3503917"><ele>438.2</ele><time>2026-04-14T14:53:36.898Z</time></trkpt><trkpt lat="42.5305567" lon="-7.3502417"><ele>441.4</ele><time>2026-04-14T14:53:37.898Z</time></trkpt><trkpt lat="42.53058" lon="-7.3501283"><ele>444.6</ele><time>2026-04-14T14:53:38.898Z</time></trkpt><trkpt lat="42.5305883" lon="-7.35003"><ele>447.8</ele><time>2026-04-14T14:53:39.898Z</time></trkpt><trkpt lat="42.5305333" lon="-7.349905"><ele>451.0</ele><time>2026-04-14T14:53:41.898Z</time></trkpt><trkpt lat="42.5303933" lon="-7.3500633"><ele>449.6</ele><time>2026-04-14T14:53:46.898Z</time></trkpt><trkpt lat="42.5303383" lon="-7.3501533"><ele>448.20000000000005</ele><time>2026-04-14T14:53:47.898Z</time></trkpt><trkpt lat="42.53028" lon="-7.3502417"><ele>446.79999999999995</ele><time>2026-04-14T14:53:48.899Z</time></trkpt><trkpt lat="42.53019" lon="-7.35036"><ele>445.4</ele><time>2026-04-14T14:53:49.899Z</time></trkpt><trkpt lat="42.5300883" lon="-7.3504783"><ele>444.0</ele><time>2026-04-14T14:53:50.899Z</time></trkpt><trkpt lat="42.5300367" lon="-7.3506117"><ele>441.75</ele><time>2026-04-14T14:53:51.899Z</time></trkpt><trkpt lat="42.5299183" lon="-7.35066"><ele>439.5</ele><time>2026-04-14T14:53:52.899Z</time></trkpt><trkpt lat="42.5297683" lon="-7.3506817"><ele>437.25</ele><time>2026-04-14T14:53:53.898Z</time></trkpt><trkpt lat="42.529625" lon="-7.3506933"><ele>435.0</ele><time>2026-04-14T14:53:54.899Z</time></trkpt><trkpt lat="42.5295117" lon="-7.3507083"><ele>431.33333333333337</ele><time>2026-04-14T14:53:55.898Z</time></trkpt><trkpt lat="42.5293633" lon="-7.35074"><ele>427.6666666666667</ele><time>2026-04-14T14:53:56.899Z</time></trkpt><trkpt lat="42.52922" lon="-7.3507667"><ele>424.0</ele><time>2026-04-14T14:53:57.898Z</time></trkpt><trkpt lat="42.52906" lon="-7.35079"><ele>424.0</ele><time>2026-04-14T14:53:58.898Z</time></trkpt><trkpt lat="42.5288967" lon="-7.3507967"><ele>424.0</ele><time>2026-04-14T14:53:59.899Z</time></trkpt><trkpt lat="42.5287417" lon="-7.350795"><ele>424.0</ele><time>2026-04-14T14:54:00.898Z</time></trkpt><trkpt lat="42.5285817" lon="-7.3507933"><ele>425.6666666666667</ele><time>2026-04-14T14:54:01.899Z</time></trkpt><trkpt lat="42.5284217" lon="-7.3508117"><ele>427.33333333333337</ele><time>2026-04-14T14:54:02.898Z</time></trkpt><trkpt lat="42.5282567" lon="-7.3508233"><ele>429.0</ele><time>2026-04-14T14:54:03.898Z</time></trkpt><trkpt lat="42.52809" lon="-7.3508417"><ele>429.0</ele><time>2026-04-14T14:54:04.898Z</time></trkpt><trkpt lat="42.5279567" lon="-7.3508717"><ele>429.0</ele><time>2026-04-14T14:54:05.898Z</time></trkpt><trkpt lat="42.52782" lon="-7.3508917"><ele>429.0</ele><time>2026-04-14T14:54:06.899Z</time></trkpt><trkpt lat="42.527665" lon="-7.3508983"><ele>429.0</ele><time>2026-04-14T14:54:07.899Z</time></trkpt><trkpt lat="42.5275183" lon="-7.3508983"><ele>430.0</ele><time>2026-04-14T14:54:08.898Z</time></trkpt><trkpt lat="42.5273583" lon="-7.3508833"><ele>431.0</ele><time>2026-04-14T14:54:09.898Z</time></trkpt><trkpt lat="42.52722" lon="-7.35084"><ele>432.0</ele><time>2026-04-14T14:54:10.898Z</time></trkpt><trkpt lat="42.52712" lon="-7.35078"><ele>433.0</ele><time>2026-04-14T14:54:11.898Z</time></trkpt><trkpt lat="42.5270283" lon="-7.3507033"><ele>432.0</ele><time>2026-04-14T14:54:12.898Z</time></trkpt><trkpt lat="42.5269767" lon="-7.350595"><ele>431.0</ele><time>2026-04-14T14:54:13.899Z</time></trkpt><trkpt lat="42.5269167" lon="-7.3504517"><ele>430.0</ele><time>2026-04-14T14:54:14.898Z</time></trkpt><trkpt lat="42.52687" lon="-7.3502867"><ele>429.0</ele><time>2026-04-14T14:54:15.898Z</time></trkpt><trkpt lat="42.5268283" lon="-7.3500967"><ele>429.0</ele><time>2026-04-14T14:54:16.898Z</time></trkpt><trkpt lat="42.5267867" lon="-7.3498833"><ele>429.0</ele><time>2026-04-14T14:54:17.898Z</time></trkpt><trkpt lat="42.5267383" lon="-7.3496467"><ele>429.0</ele><time>2026-04-14T14:54:18.899Z</time></trkpt><trkpt lat="42.5266833" lon="-7.34942"><ele>430.75</ele><time>2026-04-14T14:54:19.898Z</time></trkpt><trkpt lat="42.5266267" lon="-7.3492283"><ele>432.5</ele><time>2026-04-14T14:54:20.898Z</time></trkpt><trkpt lat="42.5266033" lon="-7.3490617"><ele>434.25</ele><time>2026-04-14T14:54:21.899Z</time></trkpt><trkpt lat="42.5266183" lon="-7.34891"><ele>436.0</ele><time>2026-04-14T14:54:22.898Z</time></trkpt><trkpt lat="42.5266617" lon="-7.3487483"><ele>436.33333333333337</ele><time>2026-04-14T14:54:23.899Z</time></trkpt><trkpt lat="42.52671" lon="-7.34858"><ele>436.66666666666663</ele><time>2026-04-14T14:54:24.899Z</time></trkpt><trkpt lat="42.5267917" lon="-7.348395"><ele>437.0</ele><time>2026-04-14T14:54:25.899Z</time></trkpt><trkpt lat="42.5268667" lon="-7.348205"><ele>435.5</ele><time>2026-04-14T14:54:26.899Z</time></trkpt><trkpt lat="42.5269333" lon="-7.3480117"><ele>434.0</ele><time>2026-04-14T14:54:27.899Z</time></trkpt><trkpt lat="42.5303383" lon="-7.3501533"><ele>434.25</ele><time>2026-04-14T14:53:47.898Z</time></trkpt><trkpt lat="42.53028" lon="-7.3502417"><ele>434.5</ele><time>2026-04-14T14:53:48.899Z</time></trkpt><trkpt lat="42.53019" lon="-7.35036"><ele>434.75</ele><time>2026-04-14T14:53:49.899Z</time></trkpt><trkpt lat="42.5300883" lon="-7.3504783"><ele>435.0</ele><time>2026-04-14T14:53:50.899Z</time></trkpt><trkpt lat="42.5300367" lon="-7.3506117"><ele>435.0</ele><time>2026-04-14T14:53:51.899Z</time></trkpt><trkpt lat="42.5299183" lon="-7.35066"><ele>435.0</ele><time>2026-04-14T14:53:52.899Z</time></trkpt><trkpt lat="42.5297683" lon="-7.3506817"><ele>435.0</ele><time>2026-04-14T14:53:53.898Z</time></trkpt><trkpt lat="42.529625" lon="-7.3506933"><ele>435.0</ele><time>2026-04-14T14:53:54.899Z</time></trkpt><trkpt lat="42.5295117" lon="-7.3507083"><ele>431.33333333333337</ele><time>2026-04-14T14:53:55.898Z</time></trkpt><trkpt lat="42.5293633" lon="-7.35074"><ele>427.6666666666667</ele><time>2026-04-14T14:53:56.899Z</time></trkpt><trkpt lat="42.52922" lon="-7.3507667"><ele>424.0</ele><time>2026-04-14T14:53:57.898Z</time></trkpt><trkpt lat="42.52906" lon="-7.35079"><ele>424.0</ele><time>2026-04-14T14:53:58.898Z</time></trkpt><trkpt lat="42.5288967" lon="-7.3507967"><ele>424.0</ele><time>2026-04-14T14:53:59.899Z</time></trkpt><trkpt lat="42.5287417" lon="-7.350795"><ele>424.0</ele><time>2026-04-14T14:54:00.898Z</time></trkpt><trkpt lat="42.5285817" lon="-7.3507933"><ele>425.6666666666667</ele><time>2026-04-14T14:54:01.899Z</time></trkpt><trkpt lat="42.5284217" lon="-7.3508117"><ele>427.33333333333337</ele><time>2026-04-14T14:54:02.898Z</time></trkpt><trkpt lat="42.5282567" lon="-7.3508233"><ele>429.0</ele><time>2026-04-14T14:54:03.898Z</time></trkpt><trkpt lat="42.52809" lon="-7.3508417"><ele>429.0</ele><time>2026-04-14T14:54:04.898Z</time></trkpt><trkpt lat="42.5279567" lon="-7.3508717"><ele>429.0</ele><time>2026-04-14T14:54:05.898Z</time></trkpt><trkpt lat="42.52782" lon="-7.3508917"><ele>429.0</ele><time>2026-04-14T14:54:06.899Z</time></trkpt><trkpt lat="42.527665" lon="-7.3508983"><ele>429.0</ele><time>2026-04-14T14:54:07.899Z</time></trkpt><trkpt lat="42.5275183" lon="-7.3508983"><ele>430.0</ele><time>2026-04-14T14:54:08.898Z</time></trkpt><trkpt lat="42.5273583" lon="-7.3508833"><ele>431.0</ele><time>2026-04-14T14:54:09.898Z</time></trkpt><trkpt lat="42.52722" lon="-7.35084"><ele>432.0</ele><time>2026-04-14T14:54:10.898Z</time></trkpt><trkpt lat="42.52712" lon="-7.35078"><ele>433.0</ele><time>2026-04-14T14:54:11.898Z</time></trkpt><trkpt lat="42.5270283" lon="-7.3507033"><ele>432.0</ele><time>2026-04-14T14:54:12.898Z</time></trkpt><trkpt lat="42.5269767" lon="-7.350595"><ele>431.0</ele><time>2026-04-14T14:54:13.899Z</time></trkpt><trkpt lat="42.5269167" lon="-7.3504517"><ele>430.0</ele><time>2026-04-14T14:54:14.898Z</time></trkpt><trkpt lat="42.52687" lon="-7.3502867"><ele>429.0</ele><time>2026-04-14T14:54:15.898Z</time></trkpt><trkpt lat="42.5268283" lon="-7.3500967"><ele>429.0</ele><time>2026-04-14T14:54:16.898Z</time></trkpt><trkpt lat="42.5267867" lon="-7.3498833"><ele>429.0</ele><time>2026-04-14T14:54:17.898Z</time></trkpt><trkpt lat="42.5267383" lon="-7.3496467"><ele>429.0</ele><time>2026-04-14T14:54:18.899Z</time></trkpt><trkpt lat="42.5266833" lon="-7.34942"><ele>430.75</ele><time>2026-04-14T14:54:19.898Z</time></trkpt><trkpt lat="42.5266267" lon="-7.3492283"><ele>432.5</ele><time>2026-04-14T14:54:20.898Z</time></trkpt><trkpt lat="42.5266033" lon="-7.3490617"><ele>434.25</ele><time>2026-04-14T14:54:21.899Z</time></trkpt><trkpt lat="42.5266183" lon="-7.34891"><ele>436.0</ele><time>2026-04-14T14:54:22.898Z</time></trkpt><trkpt lat="42.5266617" lon="-7.3487483"><ele>436.33333333333337</ele><time>2026-04-14T14:54:23.899Z</time></trkpt><trkpt lat="42.52671" lon="-7.34858"><ele>436.66666666666663</ele><time>2026-04-14T14:54:24.899Z</time></trkpt><trkpt lat="42.5267917" lon="-7.348395"><ele>437.0</ele><time>2026-04-14T14:54:25.899Z</time></trkpt><trkpt lat="42.5268667" lon="-7.348205"><ele>436.0</ele><time>2026-04-14T14:54:26.899Z</time></trkpt><trkpt lat="42.5269333" lon="-7.3480117"><ele>435.0</ele><time>2026-04-14T14:54:27.899Z</time></trkpt><trkpt lat="42.5269983" lon="-7.34783"><ele>434.0</ele><time>2026-04-14T14:54:28.898Z</time></trkpt><trkpt lat="42.52707" lon="-7.34766"><ele>440.25</ele><time>2026-04-14T14:54:29.898Z</time></trkpt><trkpt lat="42.5271383" lon="-7.3475033"><ele>446.5</ele><time>2026-04-14T14:54:30.899Z</time></trkpt><trkpt lat="42.5272117" lon="-7.3473617"><ele>452.75</ele><time>2026-04-14T14:54:31.899Z</time></trkpt><trkpt lat="42.5272967" lon="-7.3472167"><ele>459.0</ele><time>2026-04-14T14:54:32.899Z</time></trkpt><trkpt lat="42.527375" lon="-7.34708"><ele>459.0</ele><time>2026-04-14T14:54:33.899Z</time></trkpt><trkpt lat="42.5274583" lon="-7.3469467"><ele>459.0</ele><time>2026-04-14T14:54:34.899Z</time></trkpt><trkpt lat="42.5275383" lon="-7.346805"><ele>459.0</ele><time>2026-04-14T14:54:35.899Z</time></trkpt><trkpt lat="42.5276167" lon="-7.3466667"><ele>459.0</ele><time>2026-04-14T14:54:36.898Z</time></trkpt><trkpt lat="42.527705" lon="-7.3465433"><ele>459.0</ele><time>2026-04-14T14:54:37.899Z</time></trkpt><trkpt lat="42.5277817" lon="-7.34645"><ele>459.0</ele><time>2026-04-14T14:54:38.898Z</time></trkpt><trkpt lat="42.52788" lon="-7.3463833"><ele>459.0</ele><time>2026-04-14T14:54:40.899Z</time></trkpt><trkpt lat="42.5278083" lon="-7.3464767"><ele>459.0</ele><time>2026-04-14T14:55:05.899Z</time></trkpt><trkpt lat="42.5277317" lon="-7.3465833"><ele>459.0</ele><time>2026-04-14T14:55:07.9Z</time></trkpt><trkpt lat="42.52769" lon="-7.3466717"><ele>459.0</ele><time>2026-04-14T14:55:08.9Z</time></trkpt><trkpt lat="42.52765" lon="-7.346785"><ele>459.0</ele><time>2026-04-14T14:55:09.9Z</time></trkpt><trkpt lat="42.5276233" lon="-7.346915"><ele>459.0</ele><time>2026-04-14T14:55:10.9Z</time></trkpt><trkpt lat="42.5276133" lon="-7.34707"><ele>459.0</ele><time>2026-04-14T14:55:11.9Z</time></trkpt><trkpt lat="42.52761" lon="-7.347245"><ele>459.0</ele><time>2026-04-14T14:55:12.899Z</time></trkpt><trkpt lat="42.5276083" lon="-7.3474217"><ele>460.75</ele><time>2026-04-14T14:55:13.9Z</time></trkpt><trkpt lat="42.5276183" lon="-7.3476"><ele>462.5</ele><time>2026-04-14T14:55:14.899Z</time></trkpt><trkpt lat="42.527635" lon="-7.3477767"><ele>464.25</ele><time>2026-04-14T14:55:15.899Z</time></trkpt><trkpt lat="42.527675" lon="-7.3479633"><ele>466.0</ele><time>2026-04-14T14:55:16.9Z</time></trkpt><trkpt lat="42.5277233" lon="-7.348135"><ele>466.0</ele><time>2026-04-14T14:55:17.9Z</time></trkpt><trkpt lat="42.5277767" lon="-7.3482833"><ele>466.0</ele><time>2026-04-14T14:55:18.899Z</time></trkpt><trkpt lat="42.5278383" lon="-7.3484217"><ele>466.0</ele><time>2026-04-14T14:55:19.899Z</time></trkpt><trkpt lat="42.5279083" lon="-7.3485567"><ele>466.0</ele><time>2026-04-14T14:55:20.899Z</time></trkpt><trkpt lat="42.5279867" lon="-7.34869"><ele>469.0</ele><time>2026-04-14T14:55:21.9Z</time></trkpt><trkpt lat="42.52807" lon="-7.3488217"><ele>472.0</ele><time>2026-04-14T14:55:22.9Z</time></trkpt><trkpt lat="42.52816" lon="-7.34894"><ele>475.0</ele><time>2026-04-14T14:55:23.899Z</time></trkpt><trkpt lat="42.528265" lon="-7.3490417"><ele>478.0</ele><time>2026-04-14T14:55:24.9Z</time></trkpt><trkpt lat="42.5283833" lon="-7.3491283"><ele>478.0</ele><time>2026-04-14T14:55:25.899Z</time></trkpt><trkpt lat="42.5284967" lon="-7.3491867"><ele>478.0</ele><time>2026-04-14T14:55:26.9Z</time></trkpt><trkpt lat="42.5286067" lon="-7.34923"><ele>478.0</ele><time>2026-04-14T14:55:27.899Z</time></trkpt><trkpt lat="42.5287117" lon="-7.3492467"><ele>478.0</ele><time>2026-04-14T14:55:28.9Z</time></trkpt><trkpt lat="42.5288233" lon="-7.3492467"><ele>479.0</ele><time>2026-04-14T14:55:29.9Z</time></trkpt><trkpt lat="42.52894" lon="-7.3492217"><ele>480.0</ele><time>2026-04-14T14:55:30.899Z</time></trkpt><trkpt lat="42.5290583" lon="-7.3491817"><ele>481.0</ele><time>2026-04-14T14:55:31.899Z</time></trkpt><trkpt lat="42.5291783" lon="-7.349135"><ele>482.0</ele><time>2026-04-14T14:55:32.9Z</time></trkpt><trkpt lat="42.5293067" lon="-7.3490967"><ele>482.0</ele><time>2026-04-14T14:55:33.899Z</time></trkpt><trkpt lat="42.52941" lon="-7.34907"><ele>482.00000000000006</ele><time>2026-04-14T14:55:34.899Z</time></trkpt><trkpt lat="42.529475" lon="-7.34903"><ele>482.00000000000006</ele><time>2026-04-14T14:55:35.9Z</time></trkpt><trkpt lat="42.529515" lon="-7.3489267"><ele>482.0</ele><time>2026-04-14T14:55:37.899Z</time></trkpt><trkpt lat="42.5294067" lon="-7.3488817"><ele>482.0</ele><time>2026-04-14T14:55:39.899Z</time></trkpt><trkpt lat="42.529315" lon="-7.3488967"><ele>482.0</ele><time>2026-04-14T14:55:40.899Z</time></trkpt><trkpt lat="42.5292" lon="-7.3488967"><ele>482.0</ele><time>2026-04-14T14:55:41.899Z</time></trkpt><trkpt lat="42.52907" lon="-7.3488767"><ele>482.0</ele><time>2026-04-14T14:55:42.9Z</time></trkpt><trkpt lat="42.5289367" lon="-7.3488133"><ele>482.0</ele><time>2026-04-14T14:55:43.899Z</time></trkpt><trkpt lat="42.5288133" lon="-7.3487233"><ele>485.0</ele><time>2026-04-14T14:55:44.9Z</time></trkpt><trkpt lat="42.5287083" lon="-7.3486233"><ele>488.0</ele><time>2026-04-14T14:55:45.899Z</time></trkpt><trkpt lat="42.5286317" lon="-7.3484917"><ele>491.0</ele><time>2026-04-14T14:55:46.899Z</time></trkpt><trkpt lat="42.5285767" lon="-7.34834"><ele>494.0</ele><time>2026-04-14T14:55:47.9Z</time></trkpt><trkpt lat="42.5285517" lon="-7.3481717"><ele>495.5</ele><time>2026-04-14T14:55:48.899Z</time></trkpt><trkpt lat="42.5285517" lon="-7.34799"><ele>497.0</ele><time>2026-04-14T14:55:49.899Z</time></trkpt><trkpt lat="42.5285533" lon="-7.3478133"><ele>498.5</ele><time>2026-04-14T14:55:50.9Z</time></trkpt><trkpt lat="42.5285617" lon="-7.347655"><ele>500.0</ele><time>2026-04-14T14:55:51.899Z</time></trkpt><trkpt lat="42.5285767" lon="-7.347515"><ele>500.0</ele><time>2026-04-14T14:55:52.899Z</time></trkpt><trkpt lat="42.5286033" lon="-7.34739"><ele>500.0</ele><time>2026-04-14T14:55:53.899Z</time></trkpt><trkpt lat="42.5286417" lon="-7.3472767"><ele>500.0</ele><time>2026-04-14T14:55:54.899Z</time></trkpt><trkpt lat="42.5286933" lon="-7.3471533"><ele>500.0</ele><time>2026-04-14T14:55:55.899Z</time></trkpt><trkpt lat="42.528755" lon="-7.347025"><ele>500.0</ele><time>2026-04-14T14:55:56.9Z</time></trkpt><trkpt lat="42.5288267" lon="-7.3468967"><ele>506.5</ele><time>2026-04-14T14:55:57.9Z</time></trkpt><trkpt lat="42.528915" lon="-7.346785"><ele>513.0</ele><time>2026-04-14T14:55:58.899Z</time></trkpt><trkpt lat="42.5290283" lon="-7.3466717"><ele>519.5</ele><time>2026-04-14T14:55:59.899Z</time></trkpt><trkpt lat="42.5291383" lon="-7.3465683"><ele>526.0</ele><time>2026-04-14T14:56:00.899Z</time></trkpt><trkpt lat="42.5292517" lon="-7.3464517"><ele>524.0</ele><time>2026-04-14T14:56:01.899Z</time></trkpt><trkpt lat="42.5293667" lon="-7.3463367"><ele>522.0</ele><time>2026-04-14T14:56:02.899Z</time></trkpt><trkpt lat="42.52948" lon="-7.34622"><ele>520.0</ele><time>2026-04-14T14:56:03.899Z</time></trkpt><trkpt lat="42.5295817" lon="-7.3461183"><ele>518.0</ele><time>2026-04-14T14:56:04.9Z</time></trkpt><trkpt lat="42.5296917" lon="-7.34601"><ele>522.1999999999999</ele><time>2026-04-14T14:56:05.899Z</time></trkpt><trkpt lat="42.529795" lon="-7.345925"><ele>526.4</ele><time>2026-04-14T14:56:06.899Z</time></trkpt><trkpt lat="42.5298933" lon="-7.3458583"><ele>530.5999999999999</ele><time>2026-04-14T14:56:07.9Z</time></trkpt><trkpt lat="42.5299817" lon="-7.3458417"><ele>534.8</ele><time>2026-04-14T14:56:08.899Z</time></trkpt><trkpt lat="42.53007" lon="-7.345865"><ele>539.0</ele><time>2026-04-14T14:56:09.899Z</time></trkpt><trkpt lat="42.530145" lon="-7.3458883"><ele>539.0</ele><time>2026-04-14T14:56:10.9Z</time></trkpt><trkpt lat="42.530245" lon="-7.34586"><ele>539.0</ele><time>2026-04-14T14:56:12.899Z</time></trkpt><trkpt lat="42.5302733" lon="-7.3457383"><ele>539.0</ele><time>2026-04-14T14:56:14.899Z</time></trkpt><trkpt lat="42.5302617" lon="-7.345635"><ele>539.0</ele><time>2026-04-14T14:56:15.899Z</time></trkpt><trkpt lat="42.5302567" lon="-7.3455217"><ele>539.0</ele><time>2026-04-14T14:56:16.899Z</time></trkpt><trkpt lat="42.5302567" lon="-7.3454033"><ele>539.0</ele><time>2026-04-14T14:56:17.9Z</time></trkpt><trkpt lat="42.530275" lon="-7.345275"><ele>540.75</ele><time>2026-04-14T14:56:18.899Z</time></trkpt><trkpt lat="42.5302967" lon="-7.3451383"><ele>542.5</ele><time>2026-04-14T14:56:19.9Z</time></trkpt><trkpt lat="42.53032" lon="-7.34499"><ele>544.25</ele><time>2026-04-14T14:56:20.899Z</time></trkpt><trkpt lat="42.5303483" lon="-7.3448267"><ele>546.0</ele><time>2026-04-14T14:56:21.899Z</time></trkpt><trkpt lat="42.5303783" lon="-7.3446683"><ele>549.5</ele><time>2026-04-14T14:56:22.9Z</time></trkpt><trkpt lat="42.53042" lon="-7.34451"><ele>553.0</ele><time>2026-04-14T14:56:23.899Z</time></trkpt><trkpt lat="42.5304633" lon="-7.3443467"><ele>556.5</ele><time>2026-04-14T14:56:24.9Z</time></trkpt><trkpt lat="42.5305" lon="-7.3441917"><ele>560.0</ele><time>2026-04-14T14:56:25.9Z</time></trkpt><trkpt lat="42.5305233" lon="-7.3440483"><ele>560.0</ele><time>2026-04-14T14:56:26.899Z</time></trkpt><trkpt lat="42.5305283" lon="-7.3438983"><ele>560.0</ele><time>2026-04-14T14:56:27.9Z</time></trkpt><trkpt lat="42.5305083" lon="-7.3437533"><ele>560.0</ele><time>2026-04-14T14:56:28.9Z</time></trkpt><trkpt lat="42.53047" lon="-7.343645"><ele>560.0</ele><time>2026-04-14T14:56:29.899Z</time></trkpt><trkpt lat="42.5304417" lon="-7.34356"><ele>560.0</ele><time>2026-04-14T14:56:30.9Z</time></trkpt><trkpt lat="42.5303767" lon="-7.3434317"><ele>560.2</ele><time>2026-04-14T14:56:32.9Z</time></trkpt><trkpt lat="42.530325" lon="-7.3433467"><ele>560.4</ele><time>2026-04-14T14:56:33.9Z</time></trkpt><trkpt lat="42.530265" lon="-7.3432417"><ele>560.6</ele><time>2026-04-14T14:56:34.899Z</time></trkpt><trkpt lat="42.5302083" lon="-7.34312"><ele>560.8</ele><time>2026-04-14T14:56:35.899Z</time></trkpt><trkpt lat="42.5301583" lon="-7.342975"><ele>561.0</ele><time>2026-04-14T14:56:36.899Z</time></trkpt><trkpt lat="42.530105" lon="-7.3428233"><ele>561.6666666666666</ele><time>2026-04-14T14:56:37.899Z</time></trkpt><trkpt lat="42.53002" lon="-7.3426633"><ele>562.3333333333333</ele><time>2026-04-14T14:56:38.899Z</time></trkpt><trkpt lat="42.5299167" lon="-7.3425033"><ele>563.0</ele><time>2026-04-14T14:56:39.9Z</time></trkpt><trkpt lat="42.5298" lon="-7.3423567"><ele>563.0</ele><time>2026-04-14T14:56:40.9Z</time></trkpt><trkpt lat="42.5296867" lon="-7.34222"><ele>563.0</ele><time>2026-04-14T14:56:41.899Z</time></trkpt><trkpt lat="42.5295833" lon="-7.342115"><ele>563.0</ele><time>2026-04-14T14:56:42.9Z</time></trkpt><trkpt lat="42.5294917" lon="-7.3420167"><ele>563.0</ele><time>2026-04-14T14:56:43.9Z</time></trkpt><trkpt lat="42.5294033" lon="-7.341905"><ele>563.6</ele><time>2026-04-14T14:56:44.899Z</time></trkpt><trkpt lat="42.5293467" lon="-7.34178"><ele>564.1999999999999</ele><time>2026-04-14T14:56:45.899Z</time></trkpt><trkpt lat="42.5293133" lon="-7.34165"><ele>564.8</ele><time>2026-04-14T14:56:46.9Z</time></trkpt><trkpt lat="42.5292967" lon="-7.341505"><ele>565.4</ele><time>2026-04-14T14:56:47.899Z</time></trkpt><trkpt lat="42.5292783" lon="-7.3413483"><ele>566.0</ele><time>2026-04-14T14:56:48.899Z</time></trkpt><trkpt lat="42.5292583" lon="-7.341185"><ele>568.75</ele><time>2026-04-14T14:56:49.899Z</time></trkpt><trkpt lat="42.5292367" lon="-7.3410217"><ele>571.5</ele><time>2026-04-14T14:56:50.899Z</time></trkpt><trkpt lat="42.5292083" lon="-7.3408617"><ele>574.25</ele><time>2026-04-14T14:56:51.899Z</time></trkpt><trkpt lat="42.52918" lon="-7.3406917"><ele>577.0</ele><time>2026-04-14T14:56:52.9Z</time></trkpt><trkpt lat="42.5291467" lon="-7.3405183"><ele>579.0</ele><time>2026-04-14T14:56:53.9Z</time></trkpt><trkpt lat="42.5291183" lon="-7.3403317"><ele>581.0</ele><time>2026-04-14T14:56:54.899Z</time></trkpt><trkpt lat="42.5290817" lon="-7.3401483"><ele>583.0</ele><time>2026-04-14T14:56:55.899Z</time></trkpt><trkpt lat="42.5290467" lon="-7.3399667"><ele>585.0</ele><time>2026-04-14T14:56:56.9Z</time></trkpt><trkpt lat="42.5290167" lon="-7.3397933"><ele>588.0</ele><time>2026-04-14T14:56:57.9Z</time></trkpt><trkpt lat="42.5289683" lon="-7.3396183"><ele>591.0</ele><time>2026-04-14T14:56:58.899Z</time></trkpt><trkpt lat="42.528905" lon="-7.3394567"><ele>594.0</ele><time>2026-04-14T14:56:59.899Z</time></trkpt><trkpt lat="42.5305083" lon="-7.3437533"><ele>588.6</ele><time>2026-04-14T14:56:28.9Z</time></trkpt><trkpt lat="42.53047" lon="-7.343645"><ele>583.2</ele><time>2026-04-14T14:56:29.899Z</time></trkpt><trkpt lat="42.5304417" lon="-7.34356"><ele>577.8000000000001</ele><time>2026-04-14T14:56:30.9Z</time></trkpt><trkpt lat="42.5303767" lon="-7.3434317"><ele>572.4</ele><time>2026-04-14T14:56:32.9Z</time></trkpt><trkpt lat="42.530325" lon="-7.3433467"><ele>567.0</ele><time>2026-04-14T14:56:33.9Z</time></trkpt><trkpt lat="42.530265" lon="-7.3432417"><ele>566.0</ele><time>2026-04-14T14:56:34.899Z</time></trkpt><trkpt lat="42.5302083" lon="-7.34312"><ele>565.0</ele><time>2026-04-14T14:56:35.899Z</time></trkpt><trkpt lat="42.5301583" lon="-7.342975"><ele>564.0</ele><time>2026-04-14T14:56:36.899Z</time></trkpt><trkpt lat="42.530105" lon="-7.3428233"><ele>563.0</ele><time>2026-04-14T14:56:37.899Z</time></trkpt><trkpt lat="42.53002" lon="-7.3426633"><ele>563.0</ele><time>2026-04-14T14:56:38.899Z</time></trkpt><trkpt lat="42.5299167" lon="-7.3425033"><ele>563.0</ele><time>2026-04-14T14:56:39.9Z</time></trkpt><trkpt lat="42.5298" lon="-7.3423567"><ele>563.0</ele><time>2026-04-14T14:56:40.9Z</time></trkpt><trkpt lat="42.5296867" lon="-7.34222"><ele>563.75</ele><time>2026-04-14T14:56:41.899Z</time></trkpt><trkpt lat="42.5295833" lon="-7.342115"><ele>564.5</ele><time>2026-04-14T14:56:42.9Z</time></trkpt><trkpt lat="42.5294917" lon="-7.3420167"><ele>565.25</ele><time>2026-04-14T14:56:43.9Z</time></trkpt><trkpt lat="42.5294033" lon="-7.341905"><ele>566.0</ele><time>2026-04-14T14:56:44.899Z</time></trkpt><trkpt lat="42.5293467" lon="-7.34178"><ele>566.0</ele><time>2026-04-14T14:56:45.899Z</time></trkpt><trkpt lat="42.5293133" lon="-7.34165"><ele>566.0</ele><time>2026-04-14T14:56:46.9Z</time></trkpt><trkpt lat="42.5292967" lon="-7.341505"><ele>566.0</ele><time>2026-04-14T14:56:47.899Z</time></trkpt><trkpt lat="42.5292783" lon="-7.3413483"><ele>566.0</ele><time>2026-04-14T14:56:48.899Z</time></trkpt><trkpt lat="42.5292583" lon="-7.341185"><ele>566.0</ele><time>2026-04-14T14:56:49.899Z</time></trkpt><trkpt lat="42.5292367" lon="-7.3410217"><ele>568.75</ele><time>2026-04-14T14:56:50.899Z</time></trkpt><trkpt lat="42.5292083" lon="-7.3408617"><ele>571.5</ele><time>2026-04-14T14:56:51.899Z</time></trkpt><trkpt lat="42.52918" lon="-7.3406917"><ele>574.25</ele><time>2026-04-14T14:56:52.9Z</time></trkpt><trkpt lat="42.5291467" lon="-7.3405183"><ele>577.0</ele><time>2026-04-14T14:56:53.9Z</time></trkpt><trkpt lat="42.5291183" lon="-7.3403317"><ele>579.0</ele><time>2026-04-14T14:56:54.899Z</time></trkpt><trkpt lat="42.5290817" lon="-7.3401483"><ele>581.0</ele><time>2026-04-14T14:56:55.899Z</time></trkpt><trkpt lat="42.5290467" lon="-7.3399667"><ele>583.0</ele><time>2026-04-14T14:56:56.9Z</time></trkpt><trkpt lat="42.5290167" lon="-7.3397933"><ele>585.0</ele><time>2026-04-14T14:56:57.9Z</time></trkpt><trkpt lat="42.5289683" lon="-7.3396183"><ele>586.0</ele><time>2026-04-14T14:56:58.899Z</time></trkpt><trkpt lat="42.528905" lon="-7.3394567"><ele>587.0</ele><time>2026-04-14T14:56:59.899Z</time></trkpt><trkpt lat="42.5288283" lon="-7.339305"><ele>588.0</ele><time>2026-04-14T14:57:00.899Z</time></trkpt><trkpt lat="42.528755" lon="-7.339155"><ele>589.0</ele><time>2026-04-14T14:57:01.9Z</time></trkpt><trkpt lat="42.5286867" lon="-7.3390133"><ele>589.0</ele><time>2026-04-14T14:57:02.899Z</time></trkpt><trkpt lat="42.5286517" lon="-7.33889"><ele>589.0</ele><time>2026-04-14T14:57:03.9Z</time></trkpt><trkpt lat="42.5286567" lon="-7.3387833"><ele>589.0</ele><time>2026-04-14T14:57:04.899Z</time></trkpt><trkpt lat="42.5287067" lon="-7.3386233"><ele>589.0</ele><time>2026-04-14T14:57:06.9Z</time></trkpt><trkpt lat="42.5287683" lon="-7.3385317"><ele>589.0</ele><time>2026-04-14T14:57:07.9Z</time></trkpt><trkpt lat="42.5288367" lon="-7.3384367"><ele>593.0</ele><time>2026-04-14T14:57:08.899Z</time></trkpt><trkpt lat="42.5289167" lon="-7.33833"><ele>597.0</ele><time>2026-04-14T14:57:09.9Z</time></trkpt><trkpt lat="42.52901" lon="-7.3382483"><ele>601.0</ele><time>2026-04-14T14:57:10.9Z</time></trkpt><trkpt lat="42.5291367" lon="-7.338185"><ele>605.0</ele><time>2026-04-14T14:57:11.9Z</time></trkpt><trkpt lat="42.52928" lon="-7.3381517"><ele>605.0</ele><time>2026-04-14T14:57:12.899Z</time></trkpt><trkpt lat="42.529445" lon="-7.3381417"><ele>605.0</ele><time>2026-04-14T14:57:13.899Z</time></trkpt><trkpt lat="42.5296233" lon="-7.3381383"><ele>605.0</ele><time>2026-04-14T14:57:14.899Z</time></trkpt><trkpt lat="42.52982" lon="-7.3381233"><ele>604.0</ele><time>2026-04-14T14:57:15.9Z</time></trkpt><trkpt lat="42.5299983" lon="-7.3381083"><ele>603.0</ele><time>2026-04-14T14:57:16.9Z</time></trkpt><trkpt lat="42.53018" lon="-7.338125"><ele>602.0</ele><time>2026-04-14T14:57:17.9Z</time></trkpt><trkpt lat="42.53037" lon="-7.3381383"><ele>602.0</ele><time>2026-04-14T14:57:18.9Z</time></trkpt><trkpt lat="42.5305217" lon="-7.3381667"><ele>602.0</ele><time>2026-04-14T14:57:19.899Z</time></trkpt><trkpt lat="42.5306383" lon="-7.3381683"><ele>602.0</ele><time>2026-04-14T14:57:20.9Z</time></trkpt><trkpt lat="42.5307183" lon="-7.3381333"><ele>602.0</ele><time>2026-04-14T14:57:21.9Z</time></trkpt><trkpt lat="42.53078" lon="-7.3380633"><ele>602.0</ele><time>2026-04-14T14:57:22.9Z</time></trkpt><trkpt lat="42.5308367" lon="-7.3379417"><ele>602.0</ele><time>2026-04-14T14:57:23.9Z</time></trkpt><trkpt lat="42.5308767" lon="-7.3377833"><ele>602.0</ele><time>2026-04-14T14:57:24.899Z</time></trkpt><trkpt lat="42.53093" lon="-7.3375967"><ele>602.0</ele><time>2026-04-14T14:57:25.899Z</time></trkpt><trkpt lat="42.53102" lon="-7.33739"><ele>602.0</ele><time>2026-04-14T14:57:26.899Z</time></trkpt><trkpt lat="42.5311267" lon="-7.3371733"><ele>601.6666666666666</ele><time>2026-04-14T14:57:27.9Z</time></trkpt><trkpt lat="42.5312283" lon="-7.3369467"><ele>601.3333333333334</ele><time>2026-04-14T14:57:28.9Z</time></trkpt><trkpt lat="42.5313283" lon="-7.3367"><ele>601.0</ele><time>2026-04-14T14:57:29.9Z</time></trkpt><trkpt lat="42.5314333" lon="-7.3364617"><ele>602.0</ele><time>2026-04-14T14:57:30.9Z</time></trkpt><trkpt lat="42.5315533" lon="-7.3362567"><ele>603.0</ele><time>2026-04-14T14:57:31.9Z</time></trkpt><trkpt lat="42.5317017" lon="-7.3360667"><ele>604.0</ele><time>2026-04-14T14:57:32.899Z</time></trkpt><trkpt lat="42.5318733" lon="-7.3359017"><ele>604.0</ele><time>2026-04-14T14:57:33.899Z</time></trkpt><trkpt lat="42.5320517" lon="-7.3357433"><ele>604.0</ele><time>2026-04-14T14:57:34.899Z</time></trkpt><trkpt lat="42.5322283" lon="-7.3355717"><ele>604.0</ele><time>2026-04-14T14:57:35.899Z</time></trkpt><trkpt lat="42.5323933" lon="-7.3354133"><ele>604.6666666666667</ele><time>2026-04-14T14:57:36.899Z</time></trkpt><trkpt lat="42.532565" lon="-7.33524"><ele>605.3333333333334</ele><time>2026-04-14T14:57:37.899Z</time></trkpt><trkpt lat="42.5327517" lon="-7.3350617"><ele>606.0</ele><time>2026-04-14T14:57:38.899Z</time></trkpt><trkpt lat="42.532925" lon="-7.334895"><ele>604.3333333333334</ele><time>2026-04-14T14:57:39.899Z</time></trkpt><trkpt lat="42.5331017" lon="-7.334745"><ele>602.6666666666667</ele><time>2026-04-14T14:57:40.9Z</time></trkpt><trkpt lat="42.5332833" lon="-7.3345967"><ele>601.0</ele><time>2026-04-14T14:57:41.9Z</time></trkpt><trkpt lat="42.5334667" lon="-7.3344467"><ele>601.0</ele><time>2026-04-14T14:57:42.899Z</time></trkpt><trkpt lat="42.5336367" lon="-7.3342833"><ele>601.0</ele><time>2026-04-14T14:57:43.899Z</time></trkpt><trkpt lat="42.5337867" lon="-7.334155"><ele>601.0</ele><time>2026-04-14T14:57:44.899Z</time></trkpt><trkpt lat="42.53395" lon="-7.3340333"><ele>600.6666666666667</ele><time>2026-04-14T14:57:45.899Z</time></trkpt><trkpt lat="42.5341167" lon="-7.3339117"><ele>600.3333333333334</ele><time>2026-04-14T14:57:46.899Z</time></trkpt><trkpt lat="42.5342883" lon="-7.333805"><ele>600.0</ele><time>2026-04-14T14:57:47.9Z</time></trkpt><trkpt lat="42.534475" lon="-7.3336983"><ele>599.0</ele><time>2026-04-14T14:57:48.899Z</time></trkpt><trkpt lat="42.5346617" lon="-7.3335967"><ele>598.0</ele><time>2026-04-14T14:57:49.899Z</time></trkpt><trkpt lat="42.534845" lon="-7.333495"><ele>597.0</ele><time>2026-04-14T14:57:50.9Z</time></trkpt><trkpt lat="42.535025" lon="-7.33338"><ele>597.0</ele><time>2026-04-14T14:57:51.9Z</time></trkpt><trkpt lat="42.5352" lon="-7.33325"><ele>597.0</ele><time>2026-04-14T14:57:52.899Z</time></trkpt><trkpt lat="42.5353933" lon="-7.3331133"><ele>597.0</ele><time>2026-04-14T14:57:53.9Z</time></trkpt><trkpt lat="42.53558" lon="-7.3329617"><ele>597.6666666666666</ele><time>2026-04-14T14:57:54.9Z</time></trkpt><trkpt lat="42.5357567" lon="-7.332815"><ele>598.3333333333333</ele><time>2026-04-14T14:57:55.899Z</time></trkpt><trkpt lat="42.5359467" lon="-7.3326767"><ele>599.0</ele><time>2026-04-14T14:57:56.899Z</time></trkpt><trkpt lat="42.536145" lon="-7.33255"><ele>599.0</ele><time>2026-04-14T14:57:57.9Z</time></trkpt><trkpt lat="42.5363367" lon="-7.3324417"><ele>599.0</ele><time>2026-04-14T14:57:58.899Z</time></trkpt><trkpt lat="42.5365117" lon="-7.3323417"><ele>599.0</ele><time>2026-04-14T14:57:59.899Z</time></trkpt><trkpt lat="42.53666" lon="-7.3322517"><ele>600.25</ele><time>2026-04-14T14:58:00.899Z</time></trkpt><trkpt lat="42.536775" lon="-7.33218"><ele>601.5</ele><time>2026-04-14T14:58:01.9Z</time></trkpt><trkpt lat="42.5368417" lon="-7.3321283"><ele>602.75</ele><time>2026-04-14T14:58:02.9Z</time></trkpt><trkpt lat="42.5367133" lon="-7.332035"><ele>604.0</ele><time>2026-04-14T14:58:08.9Z</time></trkpt><trkpt lat="42.5365667" lon="-7.332025"><ele>604.0</ele><time>2026-04-14T14:58:09.9Z</time></trkpt><trkpt lat="42.536375" lon="-7.3320133"><ele>604.0</ele><time>2026-04-14T14:58:10.9Z</time></trkpt><trkpt lat="42.5361817" lon="-7.3320033"><ele>604.0</ele><time>2026-04-14T14:58:11.899Z</time></trkpt><trkpt lat="42.5359983" lon="-7.3319817"><ele>605.0</ele><time>2026-04-14T14:58:12.9Z</time></trkpt><trkpt lat="42.5358017" lon="-7.3319517"><ele>606.0</ele><time>2026-04-14T14:58:13.9Z</time></trkpt><trkpt lat="42.5355983" lon="-7.3319083"><ele>607.0</ele><time>2026-04-14T14:58:14.899Z</time></trkpt><trkpt lat="42.5353933" lon="-7.3318617"><ele>607.6666666666667</ele><time>2026-04-14T14:58:15.899Z</time></trkpt><trkpt lat="42.5351967" lon="-7.3318017"><ele>608.3333333333334</ele><time>2026-04-14T14:58:16.899Z</time></trkpt><trkpt lat="42.5350033" lon="-7.331725"><ele>609.0</ele><time>2026-04-14T14:58:17.899Z</time></trkpt><trkpt lat="42.5348" lon="-7.331655"><ele>609.0</ele><time>2026-04-14T14:58:18.9Z</time></trkpt><trkpt lat="42.5346067" lon="-7.33157"><ele>609.0</ele><time>2026-04-14T14:58:19.899Z</time></trkpt><trkpt lat="42.53441" lon="-7.3314683"><ele>609.0</ele><time>2026-04-14T14:58:20.899Z</time></trkpt><trkpt lat="42.53421" lon="-7.3313567"><ele>611.3333333333334</ele><time>2026-04-14T14:58:21.9Z</time></trkpt><trkpt lat="42.534015" lon="-7.33123"><ele>613.6666666666667</ele><time>2026-04-14T14:58:22.9Z</time></trkpt><trkpt lat="42.53382" lon="-7.331105"><ele>616.0</ele><time>2026-04-14T14:58:23.899Z</time></trkpt><trkpt lat="42.5336367" lon="-7.3309767"><ele>616.6666666666667</ele><time>2026-04-14T14:58:24.9Z</time></trkpt><trkpt lat="42.5334633" lon="-7.33085"><ele>617.3333333333334</ele><time>2026-04-14T14:58:25.899Z</time></trkpt><trkpt lat="42.5333017" lon="-7.3307117"><ele>618.0</ele><time>2026-04-14T14:58:26.9Z</time></trkpt><trkpt lat="42.533175" lon="-7.33056"><ele>599.0</ele><time>2026-04-14T14:58:27.899Z</time></trkpt><trkpt lat="42.5359467" lon="-7.3326767"><ele>599.0</ele><time>2026-04-14T14:57:56.899Z</time></trkpt><trkpt lat="42.536145" lon="-7.33255"><ele>599.0</ele><time>2026-04-14T14:57:57.9Z</time></trkpt><trkpt lat="42.5363367" lon="-7.3324417"><ele>599.0</ele><time>2026-04-14T14:57:58.899Z</time></trkpt><trkpt lat="42.5365117" lon="-7.3323417"><ele>599.0</ele><time>2026-04-14T14:57:59.899Z</time></trkpt><trkpt lat="42.53666" lon="-7.3322517"><ele>599.0</ele><time>2026-04-14T14:58:00.899Z</time></trkpt><trkpt lat="42.536775" lon="-7.33218"><ele>599.0</ele><time>2026-04-14T14:58:01.9Z</time></trkpt><trkpt lat="42.5368417" lon="-7.3321283"><ele>599.0</ele><time>2026-04-14T14:58:02.9Z</time></trkpt><trkpt lat="42.5367133" lon="-7.332035"><ele>600.6666666666666</ele><time>2026-04-14T14:58:08.9Z</time></trkpt><trkpt lat="42.5365667" lon="-7.332025"><ele>602.3333333333334</ele><time>2026-04-14T14:58:09.9Z</time></trkpt><trkpt lat="42.536375" lon="-7.3320133"><ele>604.0</ele><time>2026-04-14T14:58:10.9Z</time></trkpt><trkpt lat="42.5361817" lon="-7.3320033"><ele>605.0</ele><time>2026-04-14T14:58:11.899Z</time></trkpt><trkpt lat="42.5359983" lon="-7.3319817"><ele>606.0</ele><time>2026-04-14T14:58:12.9Z</time></trkpt><trkpt lat="42.5358017" lon="-7.3319517"><ele>607.0</ele><time>2026-04-14T14:58:13.9Z</time></trkpt><trkpt lat="42.5355983" lon="-7.3319083"><ele>607.0</ele><time>2026-04-14T14:58:14.899Z</time></trkpt><trkpt lat="42.5353933" lon="-7.3318617"><ele>607.0</ele><time>2026-04-14T14:58:15.899Z</time></trkpt><trkpt lat="42.5351967" lon="-7.3318017"><ele>607.0</ele><time>2026-04-14T14:58:16.899Z</time></trkpt><trkpt lat="42.5350033" lon="-7.331725"><ele>607.6666666666667</ele><time>2026-04-14T14:58:17.899Z</time></trkpt><trkpt lat="42.5348" lon="-7.331655"><ele>608.3333333333334</ele><time>2026-04-14T14:58:18.9Z</time></trkpt><trkpt lat="42.5346067" lon="-7.33157"><ele>609.0</ele><time>2026-04-14T14:58:19.899Z</time></trkpt><trkpt lat="42.53441" lon="-7.3314683"><ele>611.3333333333334</ele><time>2026-04-14T14:58:20.899Z</time></trkpt><trkpt lat="42.53421" lon="-7.3313567"><ele>613.6666666666667</ele><time>2026-04-14T14:58:21.9Z</time></trkpt><trkpt lat="42.534015" lon="-7.33123"><ele>616.0</ele><time>2026-04-14T14:58:22.9Z</time></trkpt><trkpt lat="42.53382" lon="-7.331105"><ele>616.6666666666667</ele><time>2026-04-14T14:58:23.899Z</time></trkpt><trkpt lat="42.5336367" lon="-7.3309767"><ele>617.3333333333334</ele><time>2026-04-14T14:58:24.9Z</time></trkpt><trkpt lat="42.5334633" lon="-7.33085"><ele>618.0</ele><time>2026-04-14T14:58:25.899Z</time></trkpt><trkpt lat="42.5333017" lon="-7.3307117"><ele>618.0</ele><time>2026-04-14T14:58:26.9Z</time></trkpt><trkpt lat="42.533175" lon="-7.33056"><ele>618.0</ele><time>2026-04-14T14:58:27.899Z</time></trkpt><trkpt lat="42.5330717" lon="-7.3304167"><ele>618.0</ele><time>2026-04-14T14:58:28.899Z</time></trkpt><trkpt lat="42.5329983" lon="-7.3302717"><ele>618.0</ele><time>2026-04-14T14:58:29.899Z</time></trkpt><trkpt lat="42.532965" lon="-7.3301383"><ele>618.75</ele><time>2026-04-14T14:58:30.9Z</time></trkpt><trkpt lat="42.532955" lon="-7.3299833"><ele>619.5</ele><time>2026-04-14T14:58:31.899Z</time></trkpt><trkpt lat="42.532955" lon="-7.3298017"><ele>620.25</ele><time>2026-04-14T14:58:32.9Z</time></trkpt><trkpt lat="42.5329883" lon="-7.3295767"><ele>621.0</ele><time>2026-04-14T14:58:33.9Z</time></trkpt><trkpt lat="42.53302" lon="-7.3293183"><ele>621.0</ele><time>2026-04-14T14:58:34.899Z</time></trkpt><trkpt lat="42.53305" lon="-7.3290433"><ele>621.0</ele><time>2026-04-14T14:58:35.9Z</time></trkpt><trkpt lat="42.533075" lon="-7.3287483"><ele>621.0</ele><time>2026-04-14T14:58:36.899Z</time></trkpt><trkpt lat="42.5330867" lon="-7.3284417"><ele>620.6666666666666</ele><time>2026-04-14T14:58:37.9Z</time></trkpt><trkpt lat="42.5331033" lon="-7.3281633"><ele>620.3333333333333</ele><time>2026-04-14T14:58:38.899Z</time></trkpt><trkpt lat="42.5331183" lon="-7.3278933"><ele>620.0</ele><time>2026-04-14T14:58:39.899Z</time></trkpt><trkpt lat="42.5331233" lon="-7.3276383"><ele>617.6666666666666</ele><time>2026-04-14T14:58:40.899Z</time></trkpt><trkpt lat="42.5331317" lon="-7.3274017"><ele>615.3333333333334</ele><time>2026-04-14T14:58:41.899Z</time></trkpt><trkpt lat="42.5331567" lon="-7.3271833"><ele>613.0</ele><time>2026-04-14T14:58:42.9Z</time></trkpt><trkpt lat="42.53319" lon="-7.32698"><ele>609.0</ele><time>2026-04-14T14:58:43.899Z</time></trkpt><trkpt lat="42.5332617" lon="-7.3267817"><ele>605.0</ele><time>2026-04-14T14:58:44.9Z</time></trkpt><trkpt lat="42.5333567" lon="-7.3265817"><ele>601.0</ele><time>2026-04-14T14:58:45.899Z</time></trkpt><trkpt lat="42.5334683" lon="-7.3263933"><ele>598.0</ele><time>2026-04-14T14:58:46.899Z</time></trkpt><trkpt lat="42.5335717" lon="-7.32622"><ele>595.0</ele><time>2026-04-14T14:58:47.899Z</time></trkpt><trkpt lat="42.5336733" lon="-7.3260917"><ele>592.0</ele><time>2026-04-14T14:58:48.9Z</time></trkpt><trkpt lat="42.533785" lon="-7.32599"><ele>589.0</ele><time>2026-04-14T14:58:49.899Z</time></trkpt><trkpt lat="42.5339133" lon="-7.325925"><ele>589.0</ele><time>2026-04-14T14:58:50.9Z</time></trkpt><trkpt lat="42.534065" lon="-7.32589"><ele>589.0</ele><time>2026-04-14T14:58:51.899Z</time></trkpt><trkpt lat="42.53423" lon="-7.325855"><ele>589.0</ele><time>2026-04-14T14:58:52.899Z</time></trkpt><trkpt lat="42.53441" lon="-7.3258117"><ele>590.6666666666667</ele><time>2026-04-14T14:58:53.899Z</time></trkpt><trkpt lat="42.5345883" lon="-7.3257417"><ele>592.3333333333334</ele><time>2026-04-14T14:58:54.899Z</time></trkpt><trkpt lat="42.53477" lon="-7.3256383"><ele>594.0</ele><time>2026-04-14T14:58:55.9Z</time></trkpt><trkpt lat="42.53497" lon="-7.3255367"><ele>591.0</ele><time>2026-04-14T14:58:56.9Z</time></trkpt><trkpt lat="42.5351733" lon="-7.325445"><ele>588.0</ele><time>2026-04-14T14:58:57.899Z</time></trkpt><trkpt lat="42.5353517" lon="-7.3253417"><ele>585.0</ele><time>2026-04-14T14:58:58.9Z</time></trkpt><trkpt lat="42.53551" lon="-7.3252483"><ele>585.0</ele><time>2026-04-14T14:58:59.899Z</time></trkpt><trkpt lat="42.5356383" lon="-7.325135"><ele>585.0</ele><time>2026-04-14T14:59:00.9Z</time></trkpt><trkpt lat="42.5357483" lon="-7.325015"><ele>585.0</ele><time>2026-04-14T14:59:01.899Z</time></trkpt><trkpt lat="42.53583" lon="-7.3249067"><ele>585.0</ele><time>2026-04-14T14:59:02.899Z</time></trkpt><trkpt lat="42.5358733" lon="-7.3248167"><ele>585.0</ele><time>2026-04-14T14:59:03.9Z</time></trkpt><trkpt lat="42.5359067" lon="-7.3247267"><ele>585.0</ele><time>2026-04-14T14:59:04.899Z</time></trkpt><trkpt lat="42.53591" lon="-7.3246333"><ele>585.0</ele><time>2026-04-14T14:59:05.9Z</time></trkpt><trkpt lat="42.5358717" lon="-7.3245383"><ele>585.0</ele><time>2026-04-14T14:59:06.899Z</time></trkpt><trkpt lat="42.5357917" lon="-7.3244317"><ele>585.0</ele><time>2026-04-14T14:59:07.9Z</time></trkpt><trkpt lat="42.5356767" lon="-7.3243017"><ele>585.0</ele><time>2026-04-14T14:59:08.9Z</time></trkpt><trkpt lat="42.5355083" lon="-7.324145"><ele>585.0</ele><time>2026-04-14T14:59:09.899Z</time></trkpt><trkpt lat="42.535335" lon="-7.323965"><ele>585.0</ele><time>2026-04-14T14:59:10.899Z</time></trkpt><trkpt lat="42.53514" lon="-7.3237683"><ele>580.5</ele><time>2026-04-14T14:59:11.9Z</time></trkpt><trkpt lat="42.5349583" lon="-7.323565"><ele>576.0</ele><time>2026-04-14T14:59:12.9Z</time></trkpt><trkpt lat="42.53478" lon="-7.3233383"><ele>576.0</ele><time>2026-04-14T14:59:13.9Z</time></trkpt><trkpt lat="42.53459" lon="-7.3231317"><ele>576.0</ele><time>2026-04-14T14:59:14.9Z</time></trkpt><trkpt lat="42.5344133" lon="-7.322925"><ele>572.0</ele><time>2026-04-14T14:59:15.899Z</time></trkpt><trkpt lat="42.5342517" lon="-7.3227317"><ele>568.0</ele><time>2026-04-14T14:59:16.899Z</time></trkpt><trkpt lat="42.534115" lon="-7.3225717"><ele>564.0</ele><time>2026-04-14T14:59:17.9Z</time></trkpt><trkpt lat="42.534005" lon="-7.3224117"><ele>564.0</ele><time>2026-04-14T14:59:18.9Z</time></trkpt><trkpt lat="42.5339383" lon="-7.322265"><ele>564.0</ele><time>2026-04-14T14:59:19.899Z</time></trkpt><trkpt lat="42.533925" lon="-7.3221267"><ele>564.0</ele><time>2026-04-14T14:59:20.9Z</time></trkpt><trkpt lat="42.5339367" lon="-7.3219917"><ele>564.0</ele><time>2026-04-14T14:59:21.9Z</time></trkpt><trkpt lat="42.5339783" lon="-7.3218633"><ele>564.0</ele><time>2026-04-14T14:59:22.9Z</time></trkpt><trkpt lat="42.53406" lon="-7.3217333"><ele>563.5</ele><time>2026-04-14T14:59:23.899Z</time></trkpt><trkpt lat="42.5341767" lon="-7.3216317"><ele>563.0</ele><time>2026-04-14T14:59:24.899Z</time></trkpt><trkpt lat="42.5342983" lon="-7.3215467"><ele>562.5</ele><time>2026-04-14T14:59:25.9Z</time></trkpt><trkpt lat="42.5344283" lon="-7.321445"><ele>562.0</ele><time>2026-04-14T14:59:26.899Z</time></trkpt><trkpt lat="42.5345617" lon="-7.32133"><ele>564.6666666666667</ele><time>2026-04-14T14:59:27.899Z</time></trkpt><trkpt lat="42.5346867" lon="-7.321205"><ele>567.3333333333334</ele><time>2026-04-14T14:59:28.9Z</time></trkpt><trkpt lat="42.5348133" lon="-7.32106"><ele>570.0</ele><time>2026-04-14T14:59:29.9Z</time></trkpt><trkpt lat="42.53493" lon="-7.320905"><ele>570.0</ele><time>2026-04-14T14:59:30.899Z</time></trkpt><trkpt lat="42.5350483" lon="-7.3207417"><ele>570.0</ele><time>2026-04-14T14:59:31.899Z</time></trkpt><trkpt lat="42.535145" lon="-7.32059"><ele>570.0</ele><time>2026-04-14T14:59:32.9Z</time></trkpt><trkpt lat="42.5352367" lon="-7.3204833"><ele>570.0</ele><time>2026-04-14T14:59:33.9Z</time></trkpt><trkpt lat="42.5353217" lon="-7.3204217"><ele>567.6</ele><time>2026-04-14T14:59:34.9Z</time></trkpt><trkpt lat="42.535395" lon="-7.320395"><ele>565.2</ele><time>2026-04-14T14:59:35.899Z</time></trkpt><trkpt lat="42.535475" lon="-7.3203983"><ele>562.8</ele><time>2026-04-14T14:59:36.899Z</time></trkpt><trkpt lat="42.5355633" lon="-7.32044"><ele>560.4</ele><time>2026-04-14T14:59:37.899Z</time></trkpt><trkpt lat="42.53567" lon="-7.3205233"><ele>558.0</ele><time>2026-04-14T14:59:38.9Z</time></trkpt><trkpt lat="42.5357867" lon="-7.3205633"><ele>558.0</ele><time>2026-04-14T14:59:39.899Z</time></trkpt><trkpt lat="42.5359133" lon="-7.32056"><ele>558.0</ele><time>2026-04-14T14:59:40.9Z</time></trkpt><trkpt lat="42.5360417" lon="-7.3205017"><ele>558.0</ele><time>2026-04-14T14:59:41.899Z</time></trkpt><trkpt lat="42.53618" lon="-7.3203967"><ele>558.0</ele><time>2026-04-14T14:59:42.9Z</time></trkpt><trkpt lat="42.5363067" lon="-7.3202167"><ele>555.0</ele><time>2026-04-14T14:59:43.9Z</time></trkpt><trkpt lat="42.536425" lon="-7.3200083"><ele>552.0</ele><time>2026-04-14T14:59:44.899Z</time></trkpt><trkpt lat="42.5365617" lon="-7.3197717"><ele>549.0</ele><time>2026-04-14T14:59:45.9Z</time></trkpt><trkpt lat="42.53671" lon="-7.3195483"><ele>549.0</ele><time>2026-04-14T14:59:46.899Z</time></trkpt><trkpt lat="42.53684" lon="-7.3193533"><ele>549.0</ele><time>2026-04-14T14:59:47.9Z</time></trkpt><trkpt lat="42.536965" lon="-7.319175"><ele>549.0</ele><time>2026-04-14T14:59:48.899Z</time></trkpt><trkpt lat="42.5370967" lon="-7.3189867"><ele>549.6666666666666</ele><time>2026-04-14T14:59:49.9Z</time></trkpt><trkpt lat="42.5372317" lon="-7.3188083"><ele>550.3333333333333</ele><time>2026-04-14T14:59:50.9Z</time></trkpt><trkpt lat="42.5373767" lon="-7.31863"><ele>551.0</ele><time>2026-04-14T14:59:51.9Z</time></trkpt><trkpt lat="42.5375083" lon="-7.3184667"><ele>551.0</ele><time>2026-04-14T14:59:52.899Z</time></trkpt><trkpt lat="42.5376267" lon="-7.3183117"><ele>551.0</ele><time>2026-04-14T14:59:53.899Z</time></trkpt><trkpt lat="42.537735" lon="-7.3181367"><ele>551.0</ele><time>2026-04-14T14:59:54.899Z</time></trkpt><trkpt lat="42.5378433" lon="-7.3179317"><ele>549.5</ele><time>2026-04-14T14:59:55.899Z</time></trkpt><trkpt lat="42.5379417" lon="-7.3177017"><ele>548.0</ele><time>2026-04-14T14:59:56.899Z</time></trkpt><trkpt lat="42.5341767" lon="-7.3216317"><ele>551.5</ele><time>2026-04-14T14:59:24.899Z</time></trkpt><trkpt lat="42.5342983" lon="-7.3215467"><ele>555.0</ele><time>2026-04-14T14:59:25.9Z</time></trkpt><trkpt lat="42.5344283" lon="-7.321445"><ele>558.5</ele><time>2026-04-14T14:59:26.899Z</time></trkpt><trkpt lat="42.5345617" lon="-7.32133"><ele>562.0</ele><time>2026-04-14T14:59:27.899Z</time></trkpt><trkpt lat="42.5346867" lon="-7.321205"><ele>564.6666666666667</ele><time>2026-04-14T14:59:28.9Z</time></trkpt><trkpt lat="42.5348133" lon="-7.32106"><ele>567.3333333333334</ele><time>2026-04-14T14:59:29.9Z</time></trkpt><trkpt lat="42.53493" lon="-7.320905"><ele>570.0</ele><time>2026-04-14T14:59:30.899Z</time></trkpt><trkpt lat="42.5350483" lon="-7.3207417"><ele>570.0</ele><time>2026-04-14T14:59:31.899Z</time></trkpt><trkpt lat="42.535145" lon="-7.32059"><ele>570.0</ele><time>2026-04-14T14:59:32.9Z</time></trkpt><trkpt lat="42.5352367" lon="-7.3204833"><ele>570.0</ele><time>2026-04-14T14:59:33.9Z</time></trkpt><trkpt lat="42.5353217" lon="-7.3204217"><ele>570.0</ele><time>2026-04-14T14:59:34.9Z</time></trkpt><trkpt lat="42.535395" lon="-7.320395"><ele>570.0</ele><time>2026-04-14T14:59:35.899Z</time></trkpt><trkpt lat="42.535475" lon="-7.3203983"><ele>567.0</ele><time>2026-04-14T14:59:36.899Z</time></trkpt><trkpt lat="42.5355633" lon="-7.32044"><ele>564.0</ele><time>2026-04-14T14:59:37.899Z</time></trkpt><trkpt lat="42.53567" lon="-7.3205233"><ele>561.0</ele><time>2026-04-14T14:59:38.9Z</time></trkpt><trkpt lat="42.5357867" lon="-7.3205633"><ele>558.0</ele><time>2026-04-14T14:59:39.899Z</time></trkpt><trkpt lat="42.5359133" lon="-7.32056"><ele>558.0</ele><time>2026-04-14T14:59:40.9Z</time></trkpt><trkpt lat="42.5360417" lon="-7.3205017"><ele>558.0</ele><time>2026-04-14T14:59:41.899Z</time></trkpt><trkpt lat="42.53618" lon="-7.3203967"><ele>558.0</ele><time>2026-04-14T14:59:42.9Z</time></trkpt><trkpt lat="42.5363067" lon="-7.3202167"><ele>555.0</ele><time>2026-04-14T14:59:43.9Z</time></trkpt><trkpt lat="42.536425" lon="-7.3200083"><ele>552.0</ele><time>2026-04-14T14:59:44.899Z</time></trkpt><trkpt lat="42.5365617" lon="-7.3197717"><ele>549.0</ele><time>2026-04-14T14:59:45.9Z</time></trkpt><trkpt lat="42.53671" lon="-7.3195483"><ele>549.0</ele><time>2026-04-14T14:59:46.899Z</time></trkpt><trkpt lat="42.53684" lon="-7.3193533"><ele>549.0</ele><time>2026-04-14T14:59:47.9Z</time></trkpt><trkpt lat="42.536965" lon="-7.319175"><ele>549.0</ele><time>2026-04-14T14:59:48.899Z</time></trkpt><trkpt lat="42.5370967" lon="-7.3189867"><ele>549.6666666666666</ele><time>2026-04-14T14:59:49.9Z</time></trkpt><trkpt lat="42.5372317" lon="-7.3188083"><ele>550.3333333333333</ele><time>2026-04-14T14:59:50.9Z</time></trkpt><trkpt lat="42.5373767" lon="-7.31863"><ele>551.0</ele><time>2026-04-14T14:59:51.9Z</time></trkpt><trkpt lat="42.5375083" lon="-7.3184667"><ele>551.0</ele><time>2026-04-14T14:59:52.899Z</time></trkpt><trkpt lat="42.5376267" lon="-7.3183117"><ele>551.0</ele><time>2026-04-14T14:59:53.899Z</time></trkpt><trkpt lat="42.537735" lon="-7.3181367"><ele>551.0</ele><time>2026-04-14T14:59:54.899Z</time></trkpt><trkpt lat="42.5378433" lon="-7.3179317"><ele>550.0</ele><time>2026-04-14T14:59:55.899Z</time></trkpt><trkpt lat="42.5379417" lon="-7.3177017"><ele>549.0</ele><time>2026-04-14T14:59:56.899Z</time></trkpt><trkpt lat="42.53803" lon="-7.3174733"><ele>548.0</ele><time>2026-04-14T14:59:57.9Z</time></trkpt><trkpt lat="42.53811" lon="-7.3172217"><ele>544.0</ele><time>2026-04-14T14:59:58.9Z</time></trkpt><trkpt lat="42.538185" lon="-7.316945"><ele>540.0</ele><time>2026-04-14T14:59:59.899Z</time></trkpt><trkpt lat="42.538245" lon="-7.316665"><ele>536.0</ele><time>2026-04-14T15:00:00.899Z</time></trkpt><trkpt lat="42.5382867" lon="-7.3164183"><ele>533.75</ele><time>2026-04-14T15:00:01.899Z</time></trkpt><trkpt lat="42.5383417" lon="-7.31619"><ele>531.5</ele><time>2026-04-14T15:00:02.899Z</time></trkpt><trkpt lat="42.538385" lon="-7.3160083"><ele>529.25</ele><time>2026-04-14T15:00:03.899Z</time></trkpt><trkpt lat="42.5384217" lon="-7.31586"><ele>527.0</ele><time>2026-04-14T15:00:04.899Z</time></trkpt><trkpt lat="42.5384433" lon="-7.3157267"><ele>527.0</ele><time>2026-04-14T15:00:05.899Z</time></trkpt><trkpt lat="42.53846" lon="-7.315595"><ele>527.0</ele><time>2026-04-14T15:00:06.899Z</time></trkpt><trkpt lat="42.5384367" lon="-7.3154817"><ele>527.0</ele><time>2026-04-14T15:00:07.9Z</time></trkpt><trkpt lat="42.5384017" lon="-7.31539"><ele>527.0</ele><time>2026-04-14T15:00:08.899Z</time></trkpt><trkpt lat="42.5383367" lon="-7.3153217"><ele>527.0</ele><time>2026-04-14T15:00:09.9Z</time></trkpt><trkpt lat="42.5382483" lon="-7.3153017"><ele>527.0</ele><time>2026-04-14T15:00:10.899Z</time></trkpt><trkpt lat="42.5381417" lon="-7.3153317"><ele>527.0</ele><time>2026-04-14T15:00:11.9Z</time></trkpt><trkpt lat="42.5380333" lon="-7.315425"><ele>527.0</ele><time>2026-04-14T15:00:12.9Z</time></trkpt><trkpt lat="42.537935" lon="-7.3155817"><ele>527.0</ele><time>2026-04-14T15:00:13.899Z</time></trkpt><trkpt lat="42.5378533" lon="-7.31579"><ele>517.3333333333333</ele><time>2026-04-14T15:00:14.9Z</time></trkpt><trkpt lat="42.5377867" lon="-7.31601"><ele>507.66666666666663</ele><time>2026-04-14T15:00:15.9Z</time></trkpt><trkpt lat="42.53772" lon="-7.3162067"><ele>498.0</ele><time>2026-04-14T15:00:16.9Z</time></trkpt><trkpt lat="42.5376433" lon="-7.316395"><ele>501.33333333333337</ele><time>2026-04-14T15:00:17.899Z</time></trkpt><trkpt lat="42.5375567" lon="-7.31657"><ele>504.6666666666667</ele><time>2026-04-14T15:00:18.899Z</time></trkpt><trkpt lat="42.537435" lon="-7.3167433"><ele>508.0</ele><time>2026-04-14T15:00:19.9Z</time></trkpt><trkpt lat="42.5373033" lon="-7.3169283"><ele>508.0</ele><time>2026-04-14T15:00:20.9Z</time></trkpt><trkpt lat="42.5371517" lon="-7.3171217"><ele>508.0</ele><time>2026-04-14T15:00:21.9Z</time></trkpt><trkpt lat="42.5369733" lon="-7.31733"><ele>508.0</ele><time>2026-04-14T15:00:22.9Z</time></trkpt><trkpt lat="42.5367683" lon="-7.3175417"><ele>500.5</ele><time>2026-04-14T15:00:23.899Z</time></trkpt><trkpt lat="42.5365567" lon="-7.3177617"><ele>493.0</ele><time>2026-04-14T15:00:24.9Z</time></trkpt><trkpt lat="42.5363733" lon="-7.3179767"><ele>486.33333333333337</ele><time>2026-04-14T15:00:25.9Z</time></trkpt><trkpt lat="42.5362083" lon="-7.318175"><ele>479.66666666666663</ele><time>2026-04-14T15:00:26.899Z</time></trkpt><trkpt lat="42.53606" lon="-7.318355"><ele>473.0</ele><time>2026-04-14T15:00:27.899Z</time></trkpt><trkpt lat="42.5359167" lon="-7.318525"><ele>473.0</ele><time>2026-04-14T15:00:28.899Z</time></trkpt><trkpt lat="42.5357833" lon="-7.3186783"><ele>473.0</ele><time>2026-04-14T15:00:29.9Z</time></trkpt><trkpt lat="42.5356467" lon="-7.3188017"><ele>473.0</ele><time>2026-04-14T15:00:30.899Z</time></trkpt><trkpt lat="42.53551" lon="-7.31892"><ele>475.0</ele><time>2026-04-14T15:00:31.899Z</time></trkpt><trkpt lat="42.535365" lon="-7.3189933"><ele>477.0</ele><time>2026-04-14T15:00:32.9Z</time></trkpt><trkpt lat="42.535225" lon="-7.3190333"><ele>479.0</ele><time>2026-04-14T15:00:33.899Z</time></trkpt><trkpt lat="42.535105" lon="-7.3190483"><ele>481.0</ele><time>2026-04-14T15:00:34.899Z</time></trkpt><trkpt lat="42.53501" lon="-7.3190533"><ele>481.00000000000006</ele><time>2026-04-14T15:00:35.899Z</time></trkpt><trkpt lat="42.5349283" lon="-7.3190467"><ele>481.0</ele><time>2026-04-14T15:00:36.9Z</time></trkpt><trkpt lat="42.5348617" lon="-7.3190283"><ele>481.0</ele><time>2026-04-14T15:00:37.9Z</time></trkpt><trkpt lat="42.5347933" lon="-7.3189583"><ele>481.0</ele><time>2026-04-14T15:00:39.899Z</time></trkpt><trkpt lat="42.53486" lon="-7.3188717"><ele>481.00000000000006</ele><time>2026-04-14T15:00:41.899Z</time></trkpt><trkpt lat="42.5349533" lon="-7.3188417"><ele>481.0</ele><time>2026-04-14T15:00:42.9Z</time></trkpt><trkpt lat="42.5350817" lon="-7.318825"><ele>479.0</ele><time>2026-04-14T15:00:43.899Z</time></trkpt><trkpt lat="42.5352267" lon="-7.318785"><ele>477.0</ele><time>2026-04-14T15:00:44.899Z</time></trkpt><trkpt lat="42.5353517" lon="-7.3187017"><ele>475.0</ele><time>2026-04-14T15:00:45.899Z</time></trkpt><trkpt lat="42.5354667" lon="-7.31859"><ele>473.0</ele><time>2026-04-14T15:00:46.899Z</time></trkpt><trkpt lat="42.5355667" lon="-7.3184567"><ele>473.0</ele><time>2026-04-14T15:00:47.899Z</time></trkpt><trkpt lat="42.5356217" lon="-7.3182967"><ele>473.0</ele><time>2026-04-14T15:00:48.9Z</time></trkpt><trkpt lat="42.5356733" lon="-7.318095"><ele>473.0</ele><time>2026-04-14T15:00:49.9Z</time></trkpt><trkpt lat="42.5357167" lon="-7.3178767"><ele>464.66666666666663</ele><time>2026-04-14T15:00:50.899Z</time></trkpt><trkpt lat="42.5357733" lon="-7.3176733"><ele>456.33333333333337</ele><time>2026-04-14T15:00:51.9Z</time></trkpt><trkpt lat="42.535855" lon="-7.3174717"><ele>448.0</ele><time>2026-04-14T15:00:52.899Z</time></trkpt><trkpt lat="42.5359633" lon="-7.3172533"><ele>455.33333333333337</ele><time>2026-04-14T15:00:53.9Z</time></trkpt><trkpt lat="42.5360933" lon="-7.3170467"><ele>462.66666666666663</ele><time>2026-04-14T15:00:54.899Z</time></trkpt><trkpt lat="42.536245" lon="-7.31684"><ele>470.0</ele><time>2026-04-14T15:00:55.899Z</time></trkpt><trkpt lat="42.536375" lon="-7.316645"><ele>470.0</ele><time>2026-04-14T15:00:56.899Z</time></trkpt><trkpt lat="42.53649" lon="-7.3164167"><ele>470.0</ele><time>2026-04-14T15:00:57.899Z</time></trkpt><trkpt lat="42.5365933" lon="-7.3161917"><ele>470.0</ele><time>2026-04-14T15:00:58.9Z</time></trkpt><trkpt lat="42.5366733" lon="-7.31597"><ele>459.66666666666663</ele><time>2026-04-14T15:00:59.9Z</time></trkpt><trkpt lat="42.5367383" lon="-7.315755"><ele>449.33333333333337</ele><time>2026-04-14T15:01:00.9Z</time></trkpt><trkpt lat="42.5367683" lon="-7.3155367"><ele>439.0</ele><time>2026-04-14T15:01:01.9Z</time></trkpt><trkpt lat="42.5367967" lon="-7.3152817"><ele>432.33333333333337</ele><time>2026-04-14T15:01:02.9Z</time></trkpt><trkpt lat="42.5368283" lon="-7.3150017"><ele>425.66666666666663</ele><time>2026-04-14T15:01:03.9Z</time></trkpt><trkpt lat="42.53687" lon="-7.3147367"><ele>419.0</ele><time>2026-04-14T15:01:04.9Z</time></trkpt><trkpt lat="42.5369067" lon="-7.3145117"><ele>421.6</ele><time>2026-04-14T15:01:05.9Z</time></trkpt><trkpt lat="42.536955" lon="-7.3143233"><ele>424.2</ele><time>2026-04-14T15:01:06.9Z</time></trkpt><trkpt lat="42.5369933" lon="-7.3141817"><ele>426.80000000000007</ele><time>2026-04-14T15:01:07.899Z</time></trkpt><trkpt lat="42.5370467" lon="-7.3140767"><ele>429.40000000000003</ele><time>2026-04-14T15:01:08.9Z</time></trkpt><trkpt lat="42.5371033" lon="-7.3140117"><ele>432.0</ele><time>2026-04-14T15:01:09.9Z</time></trkpt><trkpt lat="42.5371717" lon="-7.313975"><ele>432.0</ele><time>2026-04-14T15:01:10.899Z</time></trkpt><trkpt lat="42.5372583" lon="-7.3139733"><ele>432.0</ele><time>2026-04-14T15:01:11.899Z</time></trkpt><trkpt lat="42.537375" lon="-7.3139767"><ele>432.0</ele><time>2026-04-14T15:01:12.899Z</time></trkpt><trkpt lat="42.537525" lon="-7.3140033"><ele>432.0</ele><time>2026-04-14T15:01:13.899Z</time></trkpt><trkpt lat="42.5376817" lon="-7.314005"><ele>432.0</ele><time>2026-04-14T15:01:14.9Z</time></trkpt><trkpt lat="42.5378567" lon="-7.31393"><ele>432.0</ele><time>2026-04-14T15:01:15.9Z</time></trkpt><trkpt lat="42.5380333" lon="-7.31383"><ele>432.0</ele><time>2026-04-14T15:01:16.899Z</time></trkpt><trkpt lat="42.5382233" lon="-7.313735"><ele>422.33333333333337</ele><time>2026-04-14T15:01:17.9Z</time></trkpt><trkpt lat="42.5383883" lon="-7.313655"><ele>412.6666666666667</ele><time>2026-04-14T15:01:18.899Z</time></trkpt><trkpt lat="42.5385333" lon="-7.31357"><ele>403.0</ele><time>2026-04-14T15:01:19.899Z</time></trkpt><trkpt lat="42.5386417" lon="-7.313445"><ele>403.0</ele><time>2026-04-14T15:01:20.899Z</time></trkpt><trkpt lat="42.5387117" lon="-7.31333"><ele>403.0</ele><time>2026-04-14T15:01:21.899Z</time></trkpt><trkpt lat="42.538755" lon="-7.3131867"><ele>403.0</ele><time>2026-04-14T15:01:22.899Z</time></trkpt><trkpt lat="42.5387717" lon="-7.3130033"><ele>403.0</ele><time>2026-04-14T15:01:23.9Z</time></trkpt><trkpt lat="42.5387733" lon="-7.3127967"><ele>402.75</ele><time>2026-04-14T15:01:24.899Z</time></trkpt><trkpt lat="42.538795" lon="-7.3126083"><ele>402.5</ele><time>2026-04-14T15:01:25.899Z</time></trkpt><trkpt lat="42.5388433" lon="-7.31245"><ele>402.25</ele><time>2026-04-14T15:01:26.9Z</time></trkpt><trkpt lat="42.5389283" lon="-7.3123183"><ele>402.0</ele><time>2026-04-14T15:01:27.899Z</time></trkpt><trkpt lat="42.5390383" lon="-7.31222"><ele>402.0</ele><time>2026-04-14T15:01:28.899Z</time></trkpt><trkpt lat="42.53914" lon="-7.3121567"><ele>402.0</ele><time>2026-04-14T15:01:29.899Z</time></trkpt><trkpt lat="42.539235" lon="-7.3121367"><ele>402.0</ele><time>2026-04-14T15:01:30.9Z</time></trkpt><trkpt lat="42.5393167" lon="-7.3121367"><ele>402.0</ele><time>2026-04-14T15:01:31.899Z</time></trkpt><trkpt lat="42.53941" lon="-7.31219"><ele>402.0</ele><time>2026-04-14T15:01:32.9Z</time></trkpt><trkpt lat="42.5395067" lon="-7.3122817"><ele>393.0</ele><time>2026-04-14T15:01:33.899Z</time></trkpt><trkpt lat="42.5396117" lon="-7.3124367"><ele>384.0</ele><time>2026-04-14T15:01:34.899Z</time></trkpt><trkpt lat="42.5397317" lon="-7.3126017"><ele>375.0</ele><time>2026-04-14T15:01:35.899Z</time></trkpt><trkpt lat="42.5398683" lon="-7.3127683"><ele>375.0</ele><time>2026-04-14T15:01:36.9Z</time></trkpt><trkpt lat="42.540015" lon="-7.3129233"><ele>375.0</ele><time>2026-04-14T15:01:37.899Z</time></trkpt><trkpt lat="42.5401767" lon="-7.3130733"><ele>375.0</ele><time>2026-04-14T15:01:38.899Z</time></trkpt><trkpt lat="42.5403433" lon="-7.313225"><ele>369.5</ele><time>2026-04-14T15:01:39.899Z</time></trkpt><trkpt lat="42.540495" lon="-7.31336"><ele>364.0</ele><time>2026-04-14T15:01:40.9Z</time></trkpt><trkpt lat="42.5359633" lon="-7.3172533"><ele>380.0</ele><time>2026-04-14T15:00:53.9Z</time></trkpt><trkpt lat="42.5360933" lon="-7.3170467"><ele>396.0</ele><time>2026-04-14T15:00:54.899Z</time></trkpt><trkpt lat="42.536245" lon="-7.31684"><ele>412.0</ele><time>2026-04-14T15:00:55.899Z</time></trkpt><trkpt lat="42.536375" lon="-7.316645"><ele>421.0</ele><time>2026-04-14T15:00:56.899Z</time></trkpt><trkpt lat="42.53649" lon="-7.3164167"><ele>430.0</ele><time>2026-04-14T15:00:57.899Z</time></trkpt><trkpt lat="42.5365933" lon="-7.3161917"><ele>439.0</ele><time>2026-04-14T15:00:58.9Z</time></trkpt><trkpt lat="42.5366733" lon="-7.31597"><ele>439.0</ele><time>2026-04-14T15:00:59.9Z</time></trkpt><trkpt lat="42.5367383" lon="-7.315755"><ele>439.0</ele><time>2026-04-14T15:01:00.9Z</time></trkpt><trkpt lat="42.5367683" lon="-7.3155367"><ele>439.0</ele><time>2026-04-14T15:01:01.9Z</time></trkpt><trkpt lat="42.5367967" lon="-7.3152817"><ele>432.33333333333337</ele><time>2026-04-14T15:01:02.9Z</time></trkpt><trkpt lat="42.5368283" lon="-7.3150017"><ele>425.66666666666663</ele><time>2026-04-14T15:01:03.9Z</time></trkpt><trkpt lat="42.53687" lon="-7.3147367"><ele>419.0</ele><time>2026-04-14T15:01:04.9Z</time></trkpt><trkpt lat="42.5369067" lon="-7.3145117"><ele>421.6</ele><time>2026-04-14T15:01:05.9Z</time></trkpt><trkpt lat="42.536955" lon="-7.3143233"><ele>424.2</ele><time>2026-04-14T15:01:06.9Z</time></trkpt><trkpt lat="42.5369933" lon="-7.3141817"><ele>426.80000000000007</ele><time>2026-04-14T15:01:07.899Z</time></trkpt><trkpt lat="42.5370467" lon="-7.3140767"><ele>429.40000000000003</ele><time>2026-04-14T15:01:08.9Z</time></trkpt><trkpt lat="42.5371033" lon="-7.3140117"><ele>432.0</ele><time>2026-04-14T15:01:09.9Z</time></trkpt><trkpt lat="42.5371717" lon="-7.313975"><ele>432.0</ele><time>2026-04-14T15:01:10.899Z</time></trkpt><trkpt lat="42.5372583" lon="-7.3139733"><ele>432.0</ele><time>2026-04-14T15:01:11.899Z</time></trkpt><trkpt lat="42.537375" lon="-7.3139767"><ele>432.0</ele><time>2026-04-14T15:01:12.899Z</time></trkpt><trkpt lat="42.537525" lon="-7.3140033"><ele>432.0</ele><time>2026-04-14T15:01:13.899Z</time></trkpt><trkpt lat="42.5376817" lon="-7.314005"><ele>432.0</ele><time>2026-04-14T15:01:14.9Z</time></trkpt><trkpt lat="42.5378567" lon="-7.31393"><ele>432.0</ele><time>2026-04-14T15:01:15.9Z</time></trkpt><trkpt lat="42.5380333" lon="-7.31383"><ele>432.0</ele><time>2026-04-14T15:01:16.899Z</time></trkpt><trkpt lat="42.5382233" lon="-7.313735"><ele>422.33333333333337</ele><time>2026-04-14T15:01:17.9Z</time></trkpt><trkpt lat="42.5383883" lon="-7.313655"><ele>412.6666666666667</ele><time>2026-04-14T15:01:18.899Z</time></trkpt><trkpt lat="42.5385333" lon="-7.31357"><ele>403.0</ele><time>2026-04-14T15:01:19.899Z</time></trkpt><trkpt lat="42.5386417" lon="-7.313445"><ele>403.0</ele><time>2026-04-14T15:01:20.899Z</time></trkpt><trkpt lat="42.5387117" lon="-7.31333"><ele>403.0</ele><time>2026-04-14T15:01:21.899Z</time></trkpt><trkpt lat="42.538755" lon="-7.3131867"><ele>403.0</ele><time>2026-04-14T15:01:22.899Z</time></trkpt><trkpt lat="42.5387717" lon="-7.3130033"><ele>403.0</ele><time>2026-04-14T15:01:23.9Z</time></trkpt><trkpt lat="42.5387733" lon="-7.3127967"><ele>402.75</ele><time>2026-04-14T15:01:24.899Z</time></trkpt><trkpt lat="42.538795" lon="-7.3126083"><ele>402.5</ele><time>2026-04-14T15:01:25.899Z</time></trkpt><trkpt lat="42.5388433" lon="-7.31245"><ele>402.25</ele><time>2026-04-14T15:01:26.9Z</time></trkpt><trkpt lat="42.5389283" lon="-7.3123183"><ele>402.0</ele><time>2026-04-14T15:01:27.899Z</time></trkpt><trkpt lat="42.5390383" lon="-7.31222"><ele>402.0</ele><time>2026-04-14T15:01:28.899Z</time></trkpt><trkpt lat="42.53914" lon="-7.3121567"><ele>402.0</ele><time>2026-04-14T15:01:29.899Z</time></trkpt><trkpt lat="42.539235" lon="-7.3121367"><ele>402.0</ele><time>2026-04-14T15:01:30.9Z</time></trkpt><trkpt lat="42.5393167" lon="-7.3121367"><ele>402.0</ele><time>2026-04-14T15:01:31.899Z</time></trkpt><trkpt lat="42.53941" lon="-7.31219"><ele>402.0</ele><time>2026-04-14T15:01:32.9Z</time></trkpt><trkpt lat="42.5395067" lon="-7.3122817"><ele>393.0</ele><time>2026-04-14T15:01:33.899Z</time></trkpt><trkpt lat="42.5396117" lon="-7.3124367"><ele>384.0</ele><time>2026-04-14T15:01:34.899Z</time></trkpt><trkpt lat="42.5397317" lon="-7.3126017"><ele>375.0</ele><time>2026-04-14T15:01:35.899Z</time></trkpt><trkpt lat="42.5398683" lon="-7.3127683"><ele>375.0</ele><time>2026-04-14T15:01:36.9Z</time></trkpt><trkpt lat="42.540015" lon="-7.3129233"><ele>375.0</ele><time>2026-04-14T15:01:37.899Z</time></trkpt><trkpt lat="42.5401767" lon="-7.3130733"><ele>375.0</ele><time>2026-04-14T15:01:38.899Z</time></trkpt><trkpt lat="42.5403433" lon="-7.313225"><ele>371.3333333333333</ele><time>2026-04-14T15:01:39.899Z</time></trkpt><trkpt lat="42.540495" lon="-7.31336"><ele>367.66666666666663</ele><time>2026-04-14T15:01:40.9Z</time></trkpt><trkpt lat="42.5406233" lon="-7.313485"><ele>364.0</ele><time>2026-04-14T15:01:41.899Z</time></trkpt><trkpt lat="42.5407367" lon="-7.3136133"><ele>364.0</ele><time>2026-04-14T15:01:42.899Z</time></trkpt><trkpt lat="42.5408333" lon="-7.3137633"><ele>364.0</ele><time>2026-04-14T15:01:43.9Z</time></trkpt><trkpt lat="42.5408983" lon="-7.3139483"><ele>364.0</ele><time>2026-04-14T15:01:44.899Z</time></trkpt><trkpt lat="42.5409717" lon="-7.314185"><ele>360.3333333333333</ele><time>2026-04-14T15:01:45.9Z</time></trkpt><trkpt lat="42.5410617" lon="-7.31442"><ele>356.6666666666667</ele><time>2026-04-14T15:01:46.899Z</time></trkpt><trkpt lat="42.5411883" lon="-7.3146517"><ele>353.0</ele><time>2026-04-14T15:01:47.9Z</time></trkpt><trkpt lat="42.54133" lon="-7.3148933"><ele>353.0</ele><time>2026-04-14T15:01:48.9Z</time></trkpt><trkpt lat="42.54147" lon="-7.3151517"><ele>353.0</ele><time>2026-04-14T15:01:49.9Z</time></trkpt><trkpt lat="42.541575" lon="-7.3153817"><ele>353.0</ele><time>2026-04-14T15:01:50.899Z</time></trkpt><trkpt lat="42.5416567" lon="-7.31558"><ele>354.59999999999997</ele><time>2026-04-14T15:01:51.899Z</time></trkpt><trkpt lat="42.5417183" lon="-7.3157233"><ele>356.2</ele><time>2026-04-14T15:01:52.899Z</time></trkpt><trkpt lat="42.5417733" lon="-7.3158233"><ele>357.8</ele><time>2026-04-14T15:01:53.899Z</time></trkpt><trkpt lat="42.5418433" lon="-7.3158867"><ele>359.4</ele><time>2026-04-14T15:01:55.9Z</time></trkpt><trkpt lat="42.541875" lon="-7.3157617"><ele>361.0</ele><time>2026-04-14T15:01:57.9Z</time></trkpt><trkpt lat="42.5418333" lon="-7.3156317"><ele>359.4</ele><time>2026-04-14T15:01:58.9Z</time></trkpt><trkpt lat="42.5417817" lon="-7.31548"><ele>357.8</ele><time>2026-04-14T15:01:59.9Z</time></trkpt><trkpt lat="42.5417433" lon="-7.31533"><ele>356.2</ele><time>2026-04-14T15:02:00.9Z</time></trkpt><trkpt lat="42.5417333" lon="-7.3152117"><ele>354.59999999999997</ele><time>2026-04-14T15:02:01.899Z</time></trkpt><trkpt lat="42.5417433" lon="-7.315085"><ele>353.0</ele><time>2026-04-14T15:02:03.9Z</time></trkpt><trkpt lat="42.5417983" lon="-7.3150183"><ele>353.0</ele><time>2026-04-14T15:02:05.9Z</time></trkpt><trkpt lat="42.5418583" lon="-7.31499"><ele>353.0</ele><time>2026-04-14T15:02:07.9Z</time></trkpt><trkpt lat="42.5419717" lon="-7.3151167"><ele>353.0</ele><time>2026-04-14T15:02:08.9Z</time></trkpt><trkpt lat="42.5420733" lon="-7.31526"><ele>353.0</ele><time>2026-04-14T15:02:09.9Z</time></trkpt><trkpt lat="42.542185" lon="-7.3154683"><ele>353.75</ele><time>2026-04-14T15:02:10.899Z</time></trkpt><trkpt lat="42.5422383" lon="-7.31565"><ele>354.5</ele><time>2026-04-14T15:02:11.9Z</time></trkpt><trkpt lat="42.5422667" lon="-7.3158117"><ele>355.25</ele><time>2026-04-14T15:02:12.9Z</time></trkpt><trkpt lat="42.542285" lon="-7.315955"><ele>356.0</ele><time>2026-04-14T15:02:13.899Z</time></trkpt><trkpt lat="42.5422933" lon="-7.31607"><ele>355.99999999999994</ele><time>2026-04-14T15:02:14.899Z</time></trkpt><trkpt lat="42.5423017" lon="-7.31616"><ele>356.0</ele><time>2026-04-14T15:02:15.899Z</time></trkpt><trkpt lat="42.54231" lon="-7.3162517"><ele>356.0</ele><time>2026-04-14T15:02:16.899Z</time></trkpt><trkpt lat="42.542275" lon="-7.3163517"><ele>356.0</ele><time>2026-04-14T15:02:17.9Z</time></trkpt><trkpt lat="42.5422383" lon="-7.316435"><ele>356.0</ele><time>2026-04-14T15:02:18.9Z</time></trkpt><trkpt lat="42.54217" lon="-7.3165083"><ele>355.99999999999994</ele><time>2026-04-14T15:02:19.899Z</time></trkpt><trkpt lat="42.542125" lon="-7.3165883"><ele>356.0</ele><time>2026-04-14T15:02:20.899Z</time></trkpt><trkpt lat="42.542045" lon="-7.3167233"><ele>356.20000000000005</ele><time>2026-04-14T15:02:22.899Z</time></trkpt><trkpt lat="42.542035" lon="-7.3168233"><ele>356.40000000000003</ele><time>2026-04-14T15:02:24.9Z</time></trkpt><trkpt lat="42.5421883" lon="-7.316775"><ele>356.6</ele><time>2026-04-14T15:02:27.9Z</time></trkpt><trkpt lat="42.5422817" lon="-7.3167167"><ele>356.8</ele><time>2026-04-14T15:02:28.899Z</time></trkpt><trkpt lat="42.542375" lon="-7.316645"><ele>357.0</ele><time>2026-04-14T15:02:29.899Z</time></trkpt><trkpt lat="42.54247" lon="-7.3165717"><ele>356.75</ele><time>2026-04-14T15:02:30.899Z</time></trkpt><trkpt lat="42.5425733" lon="-7.3164583"><ele>356.5</ele><time>2026-04-14T15:02:31.899Z</time></trkpt><trkpt lat="42.5426567" lon="-7.316315"><ele>356.25</ele><time>2026-04-14T15:02:32.9Z</time></trkpt><trkpt lat="42.5427167" lon="-7.316145"><ele>356.0</ele><time>2026-04-14T15:02:33.899Z</time></trkpt><trkpt lat="42.5427717" lon="-7.315975"><ele>356.0</ele><time>2026-04-14T15:02:34.899Z</time></trkpt><trkpt lat="42.5428183" lon="-7.3158017"><ele>356.0</ele><time>2026-04-14T15:02:35.899Z</time></trkpt><trkpt lat="42.5428567" lon="-7.315635"><ele>356.0</ele><time>2026-04-14T15:02:36.9Z</time></trkpt><trkpt lat="42.542855" lon="-7.31545"><ele>356.0</ele><time>2026-04-14T15:02:37.9Z</time></trkpt><trkpt lat="42.5428183" lon="-7.3152533"><ele>357.0</ele><time>2026-04-14T15:02:38.899Z</time></trkpt><trkpt lat="42.5427833" lon="-7.3150433"><ele>358.0</ele><time>2026-04-14T15:02:39.899Z</time></trkpt><trkpt lat="42.542715" lon="-7.3147867"><ele>359.0</ele><time>2026-04-14T15:02:40.899Z</time></trkpt><trkpt lat="42.54263" lon="-7.3145267"><ele>365.33333333333337</ele><time>2026-04-14T15:02:41.9Z</time></trkpt><trkpt lat="42.542535" lon="-7.314295"><ele>371.6666666666667</ele><time>2026-04-14T15:02:42.9Z</time></trkpt><trkpt lat="42.5424033" lon="-7.3140367"><ele>378.0</ele><time>2026-04-14T15:02:43.9Z</time></trkpt><trkpt lat="42.542285" lon="-7.3138317"><ele>384.33333333333337</ele><time>2026-04-14T15:02:44.9Z</time></trkpt><trkpt lat="42.5421933" lon="-7.313635"><ele>390.6666666666667</ele><time>2026-04-14T15:02:45.9Z</time></trkpt><trkpt lat="42.5421283" lon="-7.313425"><ele>397.0</ele><time>2026-04-14T15:02:46.9Z</time></trkpt><trkpt lat="42.54206" lon="-7.3131667"><ele>385.33333333333337</ele><time>2026-04-14T15:02:47.9Z</time></trkpt><trkpt lat="42.5420217" lon="-7.3128783"><ele>373.6666666666667</ele><time>2026-04-14T15:02:48.9Z</time></trkpt><trkpt lat="42.5419817" lon="-7.3126133"><ele>362.0</ele><time>2026-04-14T15:02:49.899Z</time></trkpt><trkpt lat="42.5419483" lon="-7.3123783"><ele>366.75</ele><time>2026-04-14T15:02:50.899Z</time></trkpt><trkpt lat="42.5418983" lon="-7.3121633"><ele>371.5</ele><time>2026-04-14T15:02:51.9Z</time></trkpt><trkpt lat="42.54186" lon="-7.31199"><ele>376.25</ele><time>2026-04-14T15:02:52.899Z</time></trkpt><trkpt lat="42.5418483" lon="-7.3118317"><ele>381.0</ele><time>2026-04-14T15:02:53.899Z</time></trkpt><trkpt lat="42.5418617" lon="-7.3117017"><ele>381.0</ele><time>2026-04-14T15:02:54.899Z</time></trkpt><trkpt lat="42.541875" lon="-7.3115717"><ele>381.0</ele><time>2026-04-14T15:02:55.899Z</time></trkpt><trkpt lat="42.5418717" lon="-7.3114417"><ele>381.0</ele><time>2026-04-14T15:02:56.899Z</time></trkpt><trkpt lat="42.5418417" lon="-7.3113117"><ele>381.0</ele><time>2026-04-14T15:02:57.9Z</time></trkpt><trkpt lat="42.54178" lon="-7.3111717"><ele>381.0</ele><time>2026-04-14T15:02:58.9Z</time></trkpt><trkpt lat="42.541655" lon="-7.31104"><ele>387.66666666666663</ele><time>2026-04-14T15:02:59.899Z</time></trkpt><trkpt lat="42.54153" lon="-7.3108917"><ele>394.3333333333333</ele><time>2026-04-14T15:03:00.899Z</time></trkpt><trkpt lat="42.541375" lon="-7.31074"><ele>401.0</ele><time>2026-04-14T15:03:01.899Z</time></trkpt><trkpt lat="42.5412317" lon="-7.31058"><ele>395.66666666666663</ele><time>2026-04-14T15:03:02.899Z</time></trkpt><trkpt lat="42.5411117" lon="-7.310415"><ele>390.33333333333337</ele><time>2026-04-14T15:03:03.899Z</time></trkpt><trkpt lat="42.54101" lon="-7.3102517"><ele>385.0</ele><time>2026-04-14T15:03:04.9Z</time></trkpt><trkpt lat="42.5409233" lon="-7.3101033"><ele>385.0</ele><time>2026-04-14T15:03:05.9Z</time></trkpt><trkpt lat="42.5408817" lon="-7.3099533"><ele>385.0</ele><time>2026-04-14T15:03:06.9Z</time></trkpt><trkpt lat="42.5408517" lon="-7.309815"><ele>385.0</ele><time>2026-04-14T15:03:07.9Z</time></trkpt><trkpt lat="42.5408567" lon="-7.309685"><ele>385.0</ele><time>2026-04-14T15:03:08.899Z</time></trkpt><trkpt lat="42.54088" lon="-7.3095433"><ele>385.0</ele><time>2026-04-14T15:03:09.899Z</time></trkpt><trkpt lat="42.5409267" lon="-7.3093867"><ele>385.5</ele><time>2026-04-14T15:03:10.9Z</time></trkpt><trkpt lat="42.5409733" lon="-7.3092083"><ele>386.0</ele><time>2026-04-14T15:03:11.899Z</time></trkpt><trkpt lat="42.540985" lon="-7.3090267"><ele>386.5</ele><time>2026-04-14T15:03:12.899Z</time></trkpt><trkpt lat="42.540985" lon="-7.3088333"><ele>387.0</ele><time>2026-04-14T15:03:13.899Z</time></trkpt><trkpt lat="42.540975" lon="-7.3086583"><ele>390.20000000000005</ele><time>2026-04-14T15:03:14.9Z</time></trkpt><trkpt lat="42.540965" lon="-7.3085117"><ele>393.4</ele><time>2026-04-14T15:03:15.9Z</time></trkpt><trkpt lat="42.5409467" lon="-7.308405"><ele>396.6</ele><time>2026-04-14T15:03:16.9Z</time></trkpt><trkpt lat="42.5408833" lon="-7.3082933"><ele>399.79999999999995</ele><time>2026-04-14T15:03:18.9Z</time></trkpt><trkpt lat="42.5407367" lon="-7.3083567"><ele>403.0</ele><time>2026-04-14T15:03:20.899Z</time></trkpt><trkpt lat="42.54059" lon="-7.3084583"><ele>403.0</ele><time>2026-04-14T15:03:21.9Z</time></trkpt><trkpt lat="42.540455" lon="-7.3085383"><ele>403.0</ele><time>2026-04-14T15:03:22.899Z</time></trkpt><trkpt lat="42.54034" lon="-7.308565"><ele>403.0</ele><time>2026-04-14T15:03:23.899Z</time></trkpt><trkpt lat="42.54024" lon="-7.30853"><ele>403.0</ele><time>2026-04-14T15:03:24.899Z</time></trkpt><trkpt lat="42.5401367" lon="-7.3084417"><ele>399.0</ele><time>2026-04-14T15:03:25.899Z</time></trkpt><trkpt lat="42.5400333" lon="-7.308315"><ele>395.0</ele><time>2026-04-14T15:03:26.899Z</time></trkpt><trkpt lat="42.5399433" lon="-7.3081733"><ele>391.0</ele><time>2026-04-14T15:03:27.899Z</time></trkpt><trkpt lat="42.53985" lon="-7.3080333"><ele>387.0</ele><time>2026-04-14T15:03:28.899Z</time></trkpt><trkpt lat="42.5397467" lon="-7.3078883"><ele>385.75</ele><time>2026-04-14T15:03:29.899Z</time></trkpt><trkpt lat="42.5396367" lon="-7.3077417"><ele>384.5</ele><time>2026-04-14T15:03:30.899Z</time></trkpt><trkpt lat="42.5395483" lon="-7.307615"><ele>383.25</ele><time>2026-04-14T15:03:31.899Z</time></trkpt><trkpt lat="42.5394867" lon="-7.3074933"><ele>382.0</ele><time>2026-04-14T15:03:32.9Z</time></trkpt><trkpt lat="42.5394517" lon="-7.30737"><ele>382.0</ele><time>2026-04-14T15:03:33.899Z</time></trkpt><trkpt lat="42.5394483" lon="-7.3072467"><ele>382.0</ele><time>2026-04-14T15:03:34.9Z</time></trkpt><trkpt lat="42.53945" lon="-7.3071083"><ele>382.0</ele><time>2026-04-14T15:03:35.9Z</time></trkpt><trkpt lat="42.53946" lon="-7.3069667"><ele>382.0</ele><time>2026-04-14T15:03:36.9Z</time></trkpt><trkpt lat="42.5394867" lon="-7.3068017"><ele>382.0</ele><time>2026-04-14T15:03:37.9Z</time></trkpt><trkpt lat="42.5395183" lon="-7.3066033"><ele>388.0</ele><time>2026-04-14T15:03:38.9Z</time></trkpt><trkpt lat="42.53954" lon="-7.30639"><ele>394.0</ele><time>2026-04-14T15:03:39.899Z</time></trkpt><trkpt lat="42.5395583" lon="-7.306135"><ele>400.0</ele><time>2026-04-14T15:03:40.9Z</time></trkpt><trkpt lat="42.5395867" lon="-7.3058617"><ele>419.0</ele><time>2026-04-14T15:03:41.899Z</time></trkpt><trkpt lat="42.5396233" lon="-7.3055917"><ele>438.0</ele><time>2026-04-14T15:03:42.9Z</time></trkpt><trkpt lat="42.5396617" lon="-7.305325"><ele>457.0</ele><time>2026-04-14T15:03:43.9Z</time></trkpt><trkpt lat="42.53969" lon="-7.3050917"><ele>457.6666666666667</ele><time>2026-04-14T15:03:44.9Z</time></trkpt><trkpt lat="42.539735" lon="-7.3048883"><ele>458.33333333333337</ele><time>2026-04-14T15:03:45.9Z</time></trkpt><trkpt lat="42.539805" lon="-7.3046867"><ele>459.0</ele><time>2026-04-14T15:03:46.9Z</time></trkpt><trkpt lat="42.53989" lon="-7.30449"><ele>455.66666666666663</ele><time>2026-04-14T15:03:47.9Z</time></trkpt><trkpt lat="42.5400017" lon="-7.30429"><ele>452.3333333333333</ele><time>2026-04-14T15:03:48.899Z</time></trkpt><trkpt lat="42.54008" lon="-7.3040883"><ele>449.0</ele><time>2026-04-14T15:03:49.9Z</time></trkpt><trkpt lat="42.5401283" lon="-7.30388"><ele>448.0</ele><time>2026-04-14T15:03:50.899Z</time></trkpt><trkpt lat="42.5401617" lon="-7.3036633"><ele>447.0</ele><time>2026-04-14T15:03:51.899Z</time></trkpt><trkpt lat="42.5401867" lon="-7.3034267"><ele>446.0</ele><time>2026-04-14T15:03:52.899Z</time></trkpt><trkpt lat="42.5402117" lon="-7.3031767"><ele>449.0</ele><time>2026-04-14T15:03:53.899Z</time></trkpt><trkpt lat="42.5402483" lon="-7.30292"><ele>452.0</ele><time>2026-04-14T15:03:54.899Z</time></trkpt><trkpt lat="42.5402883" lon="-7.3026817"><ele>455.0</ele><time>2026-04-14T15:03:55.9Z</time></trkpt><trkpt lat="42.54031" lon="-7.30249"><ele>455.0</ele><time>2026-04-14T15:03:56.899Z</time></trkpt><trkpt lat="42.5403167" lon="-7.3023433"><ele>455.0</ele><time>2026-04-14T15:03:57.899Z</time></trkpt><trkpt lat="42.54029" lon="-7.3022183"><ele>455.0</ele><time>2026-04-14T15:03:58.899Z</time></trkpt><trkpt lat="42.5402383" lon="-7.3020867"><ele>455.0</ele><time>2026-04-14T15:03:59.9Z</time></trkpt><trkpt lat="42.540155" lon="-7.30196"><ele>455.0</ele><time>2026-04-14T15:04:00.899Z</time></trkpt><trkpt lat="42.5400583" lon="-7.3018067"><ele>462.0</ele><time>2026-04-14T15:04:01.9Z</time></trkpt><trkpt lat="42.53995" lon="-7.3016383"><ele>469.0</ele><time>2026-04-14T15:04:02.9Z</time></trkpt><trkpt lat="42.5398317" lon="-7.301445"><ele>476.0</ele><time>2026-04-14T15:04:03.9Z</time></trkpt><trkpt lat="42.5397233" lon="-7.301255"><ele>472.3333333333333</ele><time>2026-04-14T15:04:04.9Z</time></trkpt><trkpt lat="42.5396033" lon="-7.30106"><ele>468.66666666666663</ele><time>2026-04-14T15:04:05.899Z</time></trkpt><trkpt lat="42.5395217" lon="-7.3008767"><ele>465.0</ele><time>2026-04-14T15:04:06.9Z</time></trkpt><trkpt lat="42.5394933" lon="-7.30073"><ele>465.0</ele><time>2026-04-14T15:04:07.899Z</time></trkpt><trkpt lat="42.5394817" lon="-7.3005933"><ele>465.0</ele><time>2026-04-14T15:04:08.9Z</time></trkpt><trkpt lat="42.5394567" lon="-7.30048"><ele>465.0</ele><time>2026-04-14T15:04:09.9Z</time></trkpt><trkpt lat="42.5394017" lon="-7.30038"><ele>465.0</ele><time>2026-04-14T15:04:10.9Z</time></trkpt><trkpt lat="42.5393217" lon="-7.3003083"><ele>465.0</ele><time>2026-04-14T15:04:11.9Z</time></trkpt><trkpt lat="42.5392267" lon="-7.3002417"><ele>473.5</ele><time>2026-04-14T15:04:12.9Z</time></trkpt><trkpt lat="42.5391317" lon="-7.300165"><ele>482.0</ele><time>2026-04-14T15:04:13.9Z</time></trkpt><trkpt lat="42.539025" lon="-7.3000867"><ele>490.5</ele><time>2026-04-14T15:04:14.899Z</time></trkpt><trkpt lat="42.5389083" lon="-7.299995"><ele>499.0</ele><time>2026-04-14T15:04:15.899Z</time></trkpt><trkpt lat="42.5387883" lon="-7.2999083"><ele>503.6666666666667</ele><time>2026-04-14T15:04:16.9Z</time></trkpt><trkpt lat="42.5386617" lon="-7.29981"><ele>508.33333333333337</ele><time>2026-04-14T15:04:17.899Z</time></trkpt><trkpt lat="42.53854" lon="-7.2996883"><ele>513.0</ele><time>2026-04-14T15:04:18.901Z</time></trkpt><trkpt lat="42.5384133" lon="-7.2995433"><ele>513.0</ele><time>2026-04-14T15:04:19.9Z</time></trkpt><trkpt lat="42.5382817" lon="-7.2993717"><ele>513.0</ele><time>2026-04-14T15:04:20.901Z</time></trkpt><trkpt lat="42.5381783" lon="-7.2992267"><ele>513.0</ele><time>2026-04-14T15:04:21.901Z</time></trkpt><trkpt lat="42.5380833" lon="-7.2990867"><ele>513.0</ele><time>2026-04-14T15:04:22.901Z</time></trkpt><trkpt lat="42.5380233" lon="-7.2989283"><ele>513.0</ele><time>2026-04-14T15:04:23.901Z</time></trkpt><trkpt lat="42.5379733" lon="-7.2987517"><ele>513.0</ele><time>2026-04-14T15:04:24.901Z</time></trkpt><trkpt lat="42.5379367" lon="-7.298555"><ele>513.0</ele><time>2026-04-14T15:04:25.901Z</time></trkpt><trkpt lat="42.5379467" lon="-7.2983483"><ele>520.0</ele><time>2026-04-14T15:04:26.901Z</time></trkpt><trkpt lat="42.53796" lon="-7.2981233"><ele>527.0</ele><time>2026-04-14T15:04:27.901Z</time></trkpt><trkpt lat="42.53798" lon="-7.2978817"><ele>534.0</ele><time>2026-04-14T15:04:28.9Z</time></trkpt><trkpt lat="42.5380233" lon="-7.2976217"><ele>538.3333333333334</ele><time>2026-04-14T15:04:29.9Z</time></trkpt><trkpt lat="42.538055" lon="-7.2973433"><ele>542.6666666666667</ele><time>2026-04-14T15:04:30.901Z</time></trkpt><trkpt lat="42.538075" lon="-7.2970533"><ele>547.0</ele><time>2026-04-14T15:04:31.9Z</time></trkpt><trkpt lat="42.538075" lon="-7.2967583"><ele>549.6666666666667</ele><time>2026-04-14T15:04:32.9Z</time></trkpt><trkpt lat="42.53807" lon="-7.2964767"><ele>552.3333333333334</ele><time>2026-04-14T15:04:33.901Z</time></trkpt><trkpt lat="42.5380617" lon="-7.2962017"><ele>555.0</ele><time>2026-04-14T15:04:34.9Z</time></trkpt><trkpt lat="42.53805" lon="-7.295935"><ele>557.6666666666666</ele><time>2026-04-14T15:04:35.9Z</time></trkpt><trkpt lat="42.538045" lon="-7.2956967"><ele>560.3333333333333</ele><time>2026-04-14T15:04:36.901Z</time></trkpt><trkpt lat="42.5380383" lon="-7.2954767"><ele>563.0</ele><time>2026-04-14T15:04:37.901Z</time></trkpt><trkpt lat="42.5380283" lon="-7.2952583"><ele>563.6</ele><time>2026-04-14T15:04:38.901Z</time></trkpt><trkpt lat="42.5380233" lon="-7.2950667"><ele>564.1999999999999</ele><time>2026-04-14T15:04:39.901Z</time></trkpt><trkpt lat="42.5380217" lon="-7.2949083"><ele>564.8</ele><time>2026-04-14T15:04:40.9Z</time></trkpt><trkpt lat="42.5380067" lon="-7.2947917"><ele>565.4</ele><time>2026-04-14T15:04:41.901Z</time></trkpt><trkpt lat="42.5380233" lon="-7.2946683"><ele>566.0</ele><time>2026-04-14T15:04:43.901Z</time></trkpt><trkpt lat="42.5381117" lon="-7.2947317"><ele>566.2</ele><time>2026-04-14T15:04:46.9Z</time></trkpt><trkpt lat="42.5381567" lon="-7.2948183"><ele>566.4000000000001</ele><time>2026-04-14T15:04:47.9Z</time></trkpt><trkpt lat="42.5382083" lon="-7.29494"><ele>566.6</ele><time>2026-04-14T15:04:48.901Z</time></trkpt><trkpt lat="42.5382617" lon="-7.2950867"><ele>566.8000000000001</ele><time>2026-04-14T15:04:49.901Z</time></trkpt><trkpt lat="42.538295" lon="-7.2952217"><ele>567.0</ele><time>2026-04-14T15:04:50.9Z</time></trkpt><trkpt lat="42.5383267" lon="-7.2953217"><ele>567.0</ele><time>2026-04-14T15:04:51.901Z</time></trkpt><trkpt lat="42.5383733" lon="-7.2953817"><ele>567.0</ele><time>2026-04-14T15:04:53.9Z</time></trkpt><trkpt lat="42.5383967" lon="-7.29526"><ele>567.0</ele><time>2026-04-14T15:04:55.9Z</time></trkpt><trkpt lat="42.5383867" lon="-7.29515"><ele>567.0</ele><time>2026-04-14T15:04:56.9Z</time></trkpt><trkpt lat="42.5383783" lon="-7.2950267"><ele>567.0</ele><time>2026-04-14T15:04:57.9Z</time></trkpt><trkpt lat="42.5383533" lon="-7.29489"><ele>567.0</ele><time>2026-04-14T15:04:58.901Z</time></trkpt><trkpt lat="42.538325" lon="-7.294745"><ele>566.8000000000001</ele><time>2026-04-14T15:04:59.901Z</time></trkpt><trkpt lat="42.5382933" lon="-7.2945883"><ele>566.6</ele><time>2026-04-14T15:05:00.9Z</time></trkpt><trkpt lat="42.5382567" lon="-7.2944283"><ele>566.4000000000001</ele><time>2026-04-14T15:05:01.901Z</time></trkpt><trkpt lat="42.5382433" lon="-7.29431"><ele>566.2</ele><time>2026-04-14T15:05:02.9Z</time></trkpt><trkpt lat="42.538275" lon="-7.294165"><ele>566.0</ele><time>2026-04-14T15:05:04.901Z</time></trkpt><trkpt lat="42.5383317" lon="-7.2941133"><ele>566.0</ele><time>2026-04-14T15:05:05.901Z</time></trkpt><trkpt lat="42.5384217" lon="-7.2940617"><ele>566.0</ele><time>2026-04-14T15:05:06.9Z</time></trkpt><trkpt lat="42.53853" lon="-7.29401"><ele>566.0</ele><time>2026-04-14T15:05:07.901Z</time></trkpt><trkpt lat="42.538655" lon="-7.293975"><ele>566.0</ele><time>2026-04-14T15:05:08.901Z</time></trkpt><trkpt lat="42.5387783" lon="-7.2939533"><ele>568.0</ele><time>2026-04-14T15:05:09.901Z</time></trkpt><trkpt lat="42.5388667" lon="-7.2939217"><ele>570.0</ele><time>2026-04-14T15:05:10.901Z</time></trkpt><trkpt lat="42.5389417" lon="-7.29383"><ele>572.0</ele><time>2026-04-14T15:05:11.901Z</time></trkpt><trkpt lat="42.5390233" lon="-7.2937367"><ele>574.0</ele><time>2026-04-14T15:05:12.9Z</time></trkpt><trkpt lat="42.539115" lon="-7.2936533"><ele>576.0</ele><time>2026-04-14T15:05:13.9Z</time></trkpt><trkpt lat="42.539215" lon="-7.2935933"><ele>576.0</ele><time>2026-04-14T15:05:14.9Z</time></trkpt><trkpt lat="42.5393233" lon="-7.2935217"><ele>576.0</ele><time>2026-04-14T15:05:15.901Z</time></trkpt><trkpt lat="42.539415" lon="-7.2934233"><ele>576.0</ele><time>2026-04-14T15:05:16.901Z</time></trkpt><trkpt lat="42.5394817" lon="-7.293285"><ele>576.0</ele><time>2026-04-14T15:05:17.901Z</time></trkpt><trkpt lat="42.5395283" lon="-7.2931183"><ele>580.0</ele><time>2026-04-14T15:05:18.9Z</time></trkpt><trkpt lat="42.539585" lon="-7.292955"><ele>584.0</ele><time>2026-04-14T15:05:19.901Z</time></trkpt><trkpt lat="42.5396783" lon="-7.2927867"><ele>588.0</ele><time>2026-04-14T15:05:20.9Z</time></trkpt><trkpt lat="42.539795" lon="-7.29262"><ele>588.0</ele><time>2026-04-14T15:05:21.9Z</time></trkpt><trkpt lat="42.5399217" lon="-7.29245"><ele>588.0</ele><time>2026-04-14T15:05:22.9Z</time></trkpt><trkpt lat="42.540045" lon="-7.2922717"><ele>588.0</ele><time>2026-04-14T15:05:23.9Z</time></trkpt><trkpt lat="42.5401667" lon="-7.2920783"><ele>590.0</ele><time>2026-04-14T15:05:24.9Z</time></trkpt><trkpt lat="42.540295" lon="-7.2918783"><ele>592.0</ele><time>2026-04-14T15:05:25.9Z</time></trkpt><trkpt lat="42.5404" lon="-7.2916833"><ele>594.0</ele><time>2026-04-14T15:05:26.901Z</time></trkpt><trkpt lat="42.5404917" lon="-7.2914833"><ele>589.5</ele><time>2026-04-14T15:05:27.9Z</time></trkpt><trkpt lat="42.54057" lon="-7.2913033"><ele>585.0</ele><time>2026-04-14T15:05:28.9Z</time></trkpt><trkpt lat="42.5406583" lon="-7.29115"><ele>580.5</ele><time>2026-04-14T15:05:29.9Z</time></trkpt><trkpt lat="42.5407583" lon="-7.2910283"><ele>576.0</ele><time>2026-04-14T15:05:30.901Z</time></trkpt><trkpt lat="42.5408733" lon="-7.290915"><ele>576.0</ele><time>2026-04-14T15:05:31.901Z</time></trkpt><trkpt lat="42.54099" lon="-7.2907867"><ele>576.0</ele><time>2026-04-14T15:05:32.901Z</time></trkpt><trkpt lat="42.5410883" lon="-7.2906417"><ele>576.0</ele><time>2026-04-14T15:05:33.901Z</time></trkpt><trkpt lat="42.5412083" lon="-7.2904767"><ele>576.6666666666666</ele><time>2026-04-14T15:05:34.9Z</time></trkpt><trkpt lat="42.541325" lon="-7.2903117"><ele>577.3333333333333</ele><time>2026-04-14T15:05:35.9Z</time></trkpt><trkpt lat="42.5414317" lon="-7.2901767"><ele>578.0</ele><time>2026-04-14T15:05:36.901Z</time></trkpt><trkpt lat="42.5415433" lon="-7.2900567"><ele>578.0</ele><time>2026-04-14T15:05:37.901Z</time></trkpt><trkpt lat="42.54166" lon="-7.2899517"><ele>578.0</ele><time>2026-04-14T15:05:38.901Z</time></trkpt><trkpt lat="42.5417867" lon="-7.2898417"><ele>578.0</ele><time>2026-04-14T15:05:39.901Z</time></trkpt><trkpt lat="42.5419067" lon="-7.28972"><ele>578.0</ele><time>2026-04-14T15:05:40.901Z</time></trkpt><trkpt lat="42.5420167" lon="-7.28962"><ele>570.8</ele><time>2026-04-14T15:05:41.9Z</time></trkpt><trkpt lat="42.5421083" lon="-7.2895417"><ele>563.5999999999999</ele><time>2026-04-14T15:05:42.901Z</time></trkpt><trkpt lat="42.54219" lon="-7.28949"><ele>556.4000000000001</ele><time>2026-04-14T15:05:43.9Z</time></trkpt><trkpt lat="42.5422833" lon="-7.2894667"><ele>549.2</ele><time>2026-04-14T15:05:44.901Z</time></trkpt><trkpt lat="42.5423817" lon="-7.289475"><ele>542.0</ele><time>2026-04-14T15:05:45.9Z</time></trkpt><trkpt lat="42.5424883" lon="-7.289525"><ele>542.0</ele><time>2026-04-14T15:05:46.9Z</time></trkpt><trkpt lat="42.5426" lon="-7.2896133"><ele>542.0</ele><time>2026-04-14T15:05:47.9Z</time></trkpt><trkpt lat="42.54273" lon="-7.289695"><ele>542.0</ele><time>2026-04-14T15:05:48.9Z</time></trkpt><trkpt lat="42.5428683" lon="-7.28974"><ele>542.0</ele><time>2026-04-14T15:05:49.901Z</time></trkpt><trkpt lat="42.5430133" lon="-7.2897433"><ele>540.0</ele><time>2026-04-14T15:05:50.9Z</time></trkpt><trkpt lat="42.54315" lon="-7.2897417"><ele>538.0</ele><time>2026-04-14T15:05:51.901Z</time></trkpt><trkpt lat="42.543285" lon="-7.2897133"><ele>536.0</ele><time>2026-04-14T15:05:52.901Z</time></trkpt><trkpt lat="42.5434167" lon="-7.289685"><ele>534.0</ele><time>2026-04-14T15:05:53.9Z</time></trkpt><trkpt lat="42.5435483" lon="-7.2896717"><ele>534.0</ele><time>2026-04-14T15:05:54.9Z</time></trkpt><trkpt lat="42.54368" lon="-7.28968"><ele>534.0</ele><time>2026-04-14T15:05:55.9Z</time></trkpt><trkpt lat="42.5438067" lon="-7.2897133"><ele>534.0</ele><time>2026-04-14T15:05:56.9Z</time></trkpt><trkpt lat="42.5439417" lon="-7.28975"><ele>534.0</ele><time>2026-04-14T15:05:57.901Z</time></trkpt><trkpt lat="42.5440817" lon="-7.28979"><ele>541.0</ele><time>2026-04-14T15:05:58.901Z</time></trkpt><trkpt lat="42.5441933" lon="-7.28982"><ele>548.0</ele><time>2026-04-14T15:05:59.901Z</time></trkpt><trkpt lat="42.54429" lon="-7.28985"><ele>555.0</ele><time>2026-04-14T15:06:00.901Z</time></trkpt><trkpt lat="42.544375" lon="-7.28991"><ele>562.0</ele><time>2026-04-14T15:06:01.901Z</time></trkpt><trkpt lat="42.5444617" lon="-7.28999"><ele>569.0</ele><time>2026-04-14T15:06:02.901Z</time></trkpt><trkpt lat="42.5445317" lon="-7.2901"><ele>564.4</ele><time>2026-04-14T15:06:03.901Z</time></trkpt><trkpt lat="42.5445967" lon="-7.290225"><ele>559.8</ele><time>2026-04-14T15:06:04.901Z</time></trkpt><trkpt lat="42.5446667" lon="-7.2903567"><ele>555.2</ele><time>2026-04-14T15:06:05.901Z</time></trkpt><trkpt lat="42.5447217" lon="-7.2904617"><ele>550.6</ele><time>2026-04-14T15:06:06.901Z</time></trkpt><trkpt lat="42.5447733" lon="-7.2905167"><ele>546.0</ele><time>2026-04-14T15:06:07.9Z</time></trkpt><trkpt lat="42.544835" lon="-7.29054"><ele>546.0</ele><time>2026-04-14T15:06:08.901Z</time></trkpt><trkpt lat="42.5449183" lon="-7.29053"><ele>546.0</ele><time>2026-04-14T15:06:09.9Z</time></trkpt><trkpt lat="42.545035" lon="-7.2905017"><ele>546.0</ele><time>2026-04-14T15:06:10.9Z</time></trkpt><trkpt lat="42.5451267" lon="-7.2905017"><ele>546.0</ele><time>2026-04-14T15:06:11.901Z</time></trkpt><trkpt lat="42.5452117" lon="-7.29055"><ele>546.0</ele><time>2026-04-14T15:06:12.9Z</time></trkpt><trkpt lat="42.5453067" lon="-7.290635"><ele>552.5</ele><time>2026-04-14T15:06:13.9Z</time></trkpt><trkpt lat="42.5454167" lon="-7.2907567"><ele>559.0</ele><time>2026-04-14T15:06:14.9Z</time></trkpt><trkpt lat="42.5455533" lon="-7.29086"><ele>565.5</ele><time>2026-04-14T15:06:15.901Z</time></trkpt><trkpt lat="42.54568" lon="-7.2909533"><ele>572.0</ele><time>2026-04-14T15:06:16.901Z</time></trkpt><trkpt lat="42.5457883" lon="-7.2910517"><ele>572.0</ele><time>2026-04-14T15:06:17.901Z</time></trkpt><trkpt lat="42.545875" lon="-7.2911267"><ele>572.0</ele><time>2026-04-14T15:06:18.9Z</time></trkpt><trkpt lat="42.5459417" lon="-7.2911683"><ele>572.0</ele><time>2026-04-14T15:06:19.9Z</time></trkpt><trkpt lat="42.5460467" lon="-7.2911767"><ele>572.0</ele><time>2026-04-14T15:06:21.9Z</time></trkpt><trkpt lat="42.54613" lon="-7.2910533"><ele>572.0</ele><time>2026-04-14T15:06:23.901Z</time></trkpt><trkpt lat="42.546155" lon="-7.2909267"><ele>572.0</ele><time>2026-04-14T15:06:24.901Z</time></trkpt><trkpt lat="42.5461617" lon="-7.290775"><ele>572.0</ele><time>2026-04-14T15:06:25.9Z</time></trkpt><trkpt lat="42.5461533" lon="-7.290615"><ele>572.0</ele><time>2026-04-14T15:06:26.9Z</time></trkpt><trkpt lat="42.5461433" lon="-7.2904567"><ele>572.0</ele><time>2026-04-14T15:06:27.9Z</time></trkpt><trkpt lat="42.546145" lon="-7.2903"><ele>567.4</ele><time>2026-04-14T15:06:28.9Z</time></trkpt><trkpt lat="42.5461633" lon="-7.2901483"><ele>562.8000000000001</ele><time>2026-04-14T15:06:29.9Z</time></trkpt><trkpt lat="42.5462083" lon="-7.29"><ele>558.2</ele><time>2026-04-14T15:06:30.901Z</time></trkpt><trkpt lat="42.54626" lon="-7.28986"><ele>553.6</ele><time>2026-04-14T15:06:31.9Z</time></trkpt><trkpt lat="42.5462917" lon="-7.2897483"><ele>549.0</ele><time>2026-04-14T15:06:32.901Z</time></trkpt><trkpt lat="42.5462933" lon="-7.2896467"><ele>547.2</ele><time>2026-04-14T15:06:33.9Z</time></trkpt><trkpt lat="42.546275" lon="-7.28954"><ele>545.4</ele><time>2026-04-14T15:06:34.901Z</time></trkpt><trkpt lat="42.5462333" lon="-7.2894267"><ele>543.6</ele><time>2026-04-14T15:06:35.9Z</time></trkpt><trkpt lat="42.5461917" lon="-7.2892833"><ele>541.8</ele><time>2026-04-14T15:06:36.9Z</time></trkpt><trkpt lat="42.5461517" lon="-7.2891"><ele>540.0</ele><time>2026-04-14T15:06:37.9Z</time></trkpt><trkpt lat="42.546125" lon="-7.28893"><ele>540.6666666666666</ele><time>2026-04-14T15:06:38.9Z</time></trkpt><trkpt lat="42.5461167" lon="-7.2888017"><ele>541.3333333333334</ele><time>2026-04-14T15:06:39.9Z</time></trkpt><trkpt lat="42.5461433" lon="-7.2887033"><ele>542.0</ele><time>2026-04-14T15:06:40.901Z</time></trkpt><trkpt lat="42.5461883" lon="-7.2886183"><ele>542.6666666666667</ele><time>2026-04-14T15:06:41.9Z</time></trkpt><trkpt lat="42.5462533" lon="-7.2885517"><ele>543.3333333333334</ele><time>2026-04-14T15:06:42.9Z</time></trkpt><trkpt lat="42.5463367" lon="-7.2884567"><ele>544.0</ele><time>2026-04-14T15:06:43.901Z</time></trkpt><trkpt lat="42.5464083" lon="-7.2883267"><ele>552.0</ele><time>2026-04-14T15:06:44.901Z</time></trkpt><trkpt lat="42.5464517" lon="-7.288195"><ele>560.0</ele><time>2026-04-14T15:06:45.901Z</time></trkpt><trkpt lat="42.5464767" lon="-7.2880717"><ele>568.0</ele><time>2026-04-14T15:06:46.9Z</time></trkpt><trkpt lat="42.5464733" lon="-7.2879767"><ele>576.0</ele><time>2026-04-14T15:06:47.901Z</time></trkpt><trkpt lat="42.5464583" lon="-7.2878817"><ele>584.0</ele><time>2026-04-14T15:06:48.901Z</time></trkpt><trkpt lat="42.5464083" lon="-7.2878083"><ele>592.0</ele><time>2026-04-14T15:06:49.9Z</time></trkpt><trkpt lat="42.54634" lon="-7.28772"><ele>590.0</ele><time>2026-04-14T15:06:50.9Z</time></trkpt><trkpt lat="42.5462383" lon="-7.2875983"><ele>588.0</ele><time>2026-04-14T15:06:51.9Z</time></trkpt><trkpt lat="42.5461217" lon="-7.2874367"><ele>586.0</ele><time>2026-04-14T15:06:52.9Z</time></trkpt><trkpt lat="42.5459867" lon="-7.2872367"><ele>586.0</ele><time>2026-04-14T15:06:53.9Z</time></trkpt><trkpt lat="42.545815" lon="-7.2869917"><ele>586.0</ele><time>2026-04-14T15:06:54.901Z</time></trkpt><trkpt lat="42.5456783" lon="-7.2867567"><ele>586.0</ele><time>2026-04-14T15:06:55.9Z</time></trkpt><trkpt lat="42.545575" lon="-7.2865533"><ele>586.0</ele><time>2026-04-14T15:06:56.901Z</time></trkpt><trkpt lat="42.5455133" lon="-7.286345"><ele>586.0</ele><time>2026-04-14T15:06:57.901Z</time></trkpt><trkpt lat="42.5454733" lon="-7.286155"><ele>584.0</ele><time>2026-04-14T15:06:58.9Z</time></trkpt><trkpt lat="42.5454033" lon="-7.2859983"><ele>582.0</ele><time>2026-04-14T15:06:59.901Z</time></trkpt><trkpt lat="42.5453117" lon="-7.285855"><ele>580.0</ele><time>2026-04-14T15:07:00.901Z</time></trkpt><trkpt lat="42.54522" lon="-7.285685"><ele>578.0</ele><time>2026-04-14T15:07:01.901Z</time></trkpt><trkpt lat="42.5451283" lon="-7.28548"><ele>578.0</ele><time>2026-04-14T15:07:02.901Z</time></trkpt><trkpt lat="42.545065" lon="-7.2852583"><ele>578.0</ele><time>2026-04-14T15:07:03.9Z</time></trkpt><trkpt lat="42.5450117" lon="-7.2850517"><ele>578.0</ele><time>2026-04-14T15:07:04.9Z</time></trkpt><trkpt lat="42.5449683" lon="-7.2848617"><ele>578.5</ele><time>2026-04-14T15:07:05.9Z</time></trkpt><trkpt lat="42.54495" lon="-7.2846817"><ele>579.0</ele><time>2026-04-14T15:07:06.901Z</time></trkpt><trkpt lat="42.5449317" lon="-7.2844917"><ele>579.5</ele><time>2026-04-14T15:07:07.9Z</time></trkpt><trkpt lat="42.5449167" lon="-7.2843017"><ele>580.0</ele><time>2026-04-14T15:07:08.901Z</time></trkpt><trkpt lat="42.5449183" lon="-7.2840917"><ele>579.0</ele><time>2026-04-14T15:07:09.9Z</time></trkpt><trkpt lat="42.5449183" lon="-7.2838733"><ele>578.0</ele><time>2026-04-14T15:07:10.9Z</time></trkpt><trkpt lat="42.544905" lon="-7.283635"><ele>577.0</ele><time>2026-04-14T15:07:11.9Z</time></trkpt><trkpt lat="42.5448883" lon="-7.2834067"><ele>544.0</ele><time>2026-04-14T15:07:12.901Z</time></trkpt><trkpt lat="42.5461883" lon="-7.2886183"><ele>553.6</ele><time>2026-04-14T15:06:41.9Z</time></trkpt><trkpt lat="42.5462533" lon="-7.2885517"><ele>563.2</ele><time>2026-04-14T15:06:42.9Z</time></trkpt><trkpt lat="42.5463367" lon="-7.2884567"><ele>572.8000000000001</ele><time>2026-04-14T15:06:43.901Z</time></trkpt><trkpt lat="42.5464083" lon="-7.2883267"><ele>582.4</ele><time>2026-04-14T15:06:44.901Z</time></trkpt><trkpt lat="42.5464517" lon="-7.288195"><ele>592.0</ele><time>2026-04-14T15:06:45.901Z</time></trkpt><trkpt lat="42.5464767" lon="-7.2880717"><ele>593.6666666666667</ele><time>2026-04-14T15:06:46.9Z</time></trkpt><trkpt lat="42.5464733" lon="-7.2879767"><ele>595.3333333333334</ele><time>2026-04-14T15:06:47.901Z</time></trkpt><trkpt lat="42.5464583" lon="-7.2878817"><ele>597.0</ele><time>2026-04-14T15:06:48.901Z</time></trkpt><trkpt lat="42.5464083" lon="-7.2878083"><ele>598.6666666666666</ele><time>2026-04-14T15:06:49.9Z</time></trkpt><trkpt lat="42.54634" lon="-7.28772"><ele>600.3333333333333</ele><time>2026-04-14T15:06:50.9Z</time></trkpt><trkpt lat="42.5462383" lon="-7.2875983"><ele>602.0</ele><time>2026-04-14T15:06:51.9Z</time></trkpt><trkpt lat="42.5461217" lon="-7.2874367"><ele>596.6666666666666</ele><time>2026-04-14T15:06:52.9Z</time></trkpt><trkpt lat="42.5459867" lon="-7.2872367"><ele>591.3333333333334</ele><time>2026-04-14T15:06:53.9Z</time></trkpt><trkpt lat="42.545815" lon="-7.2869917"><ele>586.0</ele><time>2026-04-14T15:06:54.901Z</time></trkpt><trkpt lat="42.5456783" lon="-7.2867567"><ele>586.0</ele><time>2026-04-14T15:06:55.9Z</time></trkpt><trkpt lat="42.545575" lon="-7.2865533"><ele>586.0</ele><time>2026-04-14T15:06:56.901Z</time></trkpt><trkpt lat="42.5455133" lon="-7.286345"><ele>586.0</ele><time>2026-04-14T15:06:57.901Z</time></trkpt><trkpt lat="42.5454733" lon="-7.286155"><ele>584.0</ele><time>2026-04-14T15:06:58.9Z</time></trkpt><trkpt lat="42.5454033" lon="-7.2859983"><ele>582.0</ele><time>2026-04-14T15:06:59.901Z</time></trkpt><trkpt lat="42.5453117" lon="-7.285855"><ele>580.0</ele><time>2026-04-14T15:07:00.901Z</time></trkpt><trkpt lat="42.54522" lon="-7.285685"><ele>578.0</ele><time>2026-04-14T15:07:01.901Z</time></trkpt><trkpt lat="42.5451283" lon="-7.28548"><ele>578.0</ele><time>2026-04-14T15:07:02.901Z</time></trkpt><trkpt lat="42.545065" lon="-7.2852583"><ele>578.0</ele><time>2026-04-14T15:07:03.9Z</time></trkpt><trkpt lat="42.5450117" lon="-7.2850517"><ele>578.0</ele><time>2026-04-14T15:07:04.9Z</time></trkpt><trkpt lat="42.5449683" lon="-7.2848617"><ele>578.5</ele><time>2026-04-14T15:07:05.9Z</time></trkpt><trkpt lat="42.54495" lon="-7.2846817"><ele>579.0</ele><time>2026-04-14T15:07:06.901Z</time></trkpt><trkpt lat="42.5449317" lon="-7.2844917"><ele>579.5</ele><time>2026-04-14T15:07:07.9Z</time></trkpt><trkpt lat="42.5449167" lon="-7.2843017"><ele>580.0</ele><time>2026-04-14T15:07:08.901Z</time></trkpt><trkpt lat="42.5449183" lon="-7.2840917"><ele>579.0</ele><time>2026-04-14T15:07:09.9Z</time></trkpt><trkpt lat="42.5449183" lon="-7.2838733"><ele>578.0</ele><time>2026-04-14T15:07:10.9Z</time></trkpt><trkpt lat="42.544905" lon="-7.283635"><ele>577.0</ele><time>2026-04-14T15:07:11.9Z</time></trkpt><trkpt lat="42.5448883" lon="-7.2834067"><ele>577.0</ele><time>2026-04-14T15:07:12.901Z</time></trkpt><trkpt lat="42.5448633" lon="-7.2832083"><ele>577.0</ele><time>2026-04-14T15:07:13.9Z</time></trkpt><trkpt lat="42.5448567" lon="-7.2830333"><ele>577.0</ele><time>2026-04-14T15:07:14.9Z</time></trkpt><trkpt lat="42.5448783" lon="-7.2828567"><ele>577.0</ele><time>2026-04-14T15:07:15.9Z</time></trkpt><trkpt lat="42.544925" lon="-7.2826883"><ele>576.25</ele><time>2026-04-14T15:07:16.901Z</time></trkpt><trkpt lat="42.545" lon="-7.2825283"><ele>575.5</ele><time>2026-04-14T15:07:17.9Z</time></trkpt><trkpt lat="42.545095" lon="-7.2823783"><ele>574.75</ele><time>2026-04-14T15:07:18.9Z</time></trkpt><trkpt lat="42.5452133" lon="-7.2822333"><ele>574.0</ele><time>2026-04-14T15:07:19.9Z</time></trkpt><trkpt lat="42.5453233" lon="-7.2821233"><ele>571.0</ele><time>2026-04-14T15:07:20.9Z</time></trkpt><trkpt lat="42.545425" lon="-7.2820433"><ele>568.0</ele><time>2026-04-14T15:07:21.9Z</time></trkpt><trkpt lat="42.54552" lon="-7.2820117"><ele>565.0</ele><time>2026-04-14T15:07:22.9Z</time></trkpt><trkpt lat="42.5456317" lon="-7.282005"><ele>562.0</ele><time>2026-04-14T15:07:23.901Z</time></trkpt><trkpt lat="42.5457617" lon="-7.28203"><ele>562.0</ele><time>2026-04-14T15:07:24.901Z</time></trkpt><trkpt lat="42.5459117" lon="-7.282045"><ele>562.0</ele><time>2026-04-14T15:07:25.9Z</time></trkpt><trkpt lat="42.5460617" lon="-7.282035"><ele>562.0</ele><time>2026-04-14T15:07:26.9Z</time></trkpt><trkpt lat="42.5462117" lon="-7.2819933"><ele>566.0</ele><time>2026-04-14T15:07:27.9Z</time></trkpt><trkpt lat="42.5463567" lon="-7.281935"><ele>570.0</ele><time>2026-04-14T15:07:28.9Z</time></trkpt><trkpt lat="42.5465083" lon="-7.281855"><ele>574.0</ele><time>2026-04-14T15:07:29.9Z</time></trkpt><trkpt lat="42.5466433" lon="-7.2817733"><ele>574.0</ele><time>2026-04-14T15:07:30.9Z</time></trkpt><trkpt lat="42.546775" lon="-7.2816783"><ele>574.0</ele><time>2026-04-14T15:07:31.901Z</time></trkpt><trkpt lat="42.5469117" lon="-7.28156"><ele>574.0</ele><time>2026-04-14T15:07:32.9Z</time></trkpt><trkpt lat="42.547045" lon="-7.2814367"><ele>573.25</ele><time>2026-04-14T15:07:33.901Z</time></trkpt><trkpt lat="42.547175" lon="-7.2813367"><ele>572.5</ele><time>2026-04-14T15:07:34.901Z</time></trkpt><trkpt lat="42.5473033" lon="-7.2812517"><ele>571.75</ele><time>2026-04-14T15:07:35.901Z</time></trkpt><trkpt lat="42.5474267" lon="-7.2811933"><ele>571.0</ele><time>2026-04-14T15:07:36.9Z</time></trkpt><trkpt lat="42.54756" lon="-7.281175"><ele>571.0</ele><time>2026-04-14T15:07:37.9Z</time></trkpt><trkpt lat="42.547685" lon="-7.28119"><ele>571.0</ele><time>2026-04-14T15:07:38.901Z</time></trkpt><trkpt lat="42.547775" lon="-7.2811817"><ele>571.0</ele><time>2026-04-14T15:07:39.9Z</time></trkpt><trkpt lat="42.5478433" lon="-7.2811483"><ele>571.0</ele><time>2026-04-14T15:07:40.9Z</time></trkpt><trkpt lat="42.5478867" lon="-7.281085"><ele>571.0</ele><time>2026-04-14T15:07:41.901Z</time></trkpt><trkpt lat="42.547905" lon="-7.2809917"><ele>571.0</ele><time>2026-04-14T15:07:42.9Z</time></trkpt><trkpt lat="42.5479033" lon="-7.2808467"><ele>572.25</ele><time>2026-04-14T15:07:43.9Z</time></trkpt><trkpt lat="42.547915" lon="-7.2806783"><ele>573.5</ele><time>2026-04-14T15:07:44.901Z</time></trkpt><trkpt lat="42.5479567" lon="-7.2805433"><ele>574.75</ele><time>2026-04-14T15:07:45.9Z</time></trkpt><trkpt lat="42.5480467" lon="-7.28043"><ele>576.0</ele><time>2026-04-14T15:07:46.901Z</time></trkpt><trkpt lat="42.54818" lon="-7.2803217"><ele>576.0</ele><time>2026-04-14T15:07:47.9Z</time></trkpt><trkpt lat="42.5483317" lon="-7.28023"><ele>576.0</ele><time>2026-04-14T15:07:48.9Z</time></trkpt><trkpt lat="42.5484933" lon="-7.2801417"><ele>576.0</ele><time>2026-04-14T15:07:49.9Z</time></trkpt><trkpt lat="42.54865" lon="-7.2800617"><ele>582.0</ele><time>2026-04-14T15:07:50.9Z</time></trkpt><trkpt lat="42.54879" lon="-7.2799833"><ele>588.0</ele><time>2026-04-14T15:07:51.9Z</time></trkpt><trkpt lat="42.5488967" lon="-7.2799067"><ele>594.0</ele><time>2026-04-14T15:07:52.9Z</time></trkpt><trkpt lat="42.548995" lon="-7.2797983"><ele>600.0</ele><time>2026-04-14T15:07:53.9Z</time></trkpt><trkpt lat="42.5490933" lon="-7.2796767"><ele>600.0</ele><time>2026-04-14T15:07:54.9Z</time></trkpt><trkpt lat="42.5491983" lon="-7.27957"><ele>600.0</ele><time>2026-04-14T15:07:55.9Z</time></trkpt><trkpt lat="42.54926" lon="-7.27949"><ele>600.0</ele><time>2026-04-14T15:07:56.9Z</time></trkpt><trkpt lat="42.5493083" lon="-7.27942"><ele>600.0</ele><time>2026-04-14T15:07:57.9Z</time></trkpt><trkpt lat="42.5493483" lon="-7.27928"><ele>600.0</ele><time>2026-04-14T15:07:59.9Z</time></trkpt><trkpt lat="42.5493383" lon="-7.279175"><ele>600.0</ele><time>2026-04-14T15:08:01.9Z</time></trkpt><trkpt lat="42.5492483" lon="-7.2791583"><ele>600.0</ele><time>2026-04-14T15:08:03.9Z</time></trkpt><trkpt lat="42.5491633" lon="-7.2791967"><ele>600.0</ele><time>2026-04-14T15:08:04.901Z</time></trkpt><trkpt lat="42.5490617" lon="-7.2791933"><ele>600.0</ele><time>2026-04-14T15:08:05.9Z</time></trkpt><trkpt lat="42.548855" lon="-7.2792217"><ele>595.5</ele><time>2026-04-14T15:08:06.901Z</time></trkpt><trkpt lat="42.548575" lon="-7.2792383"><ele>591.0</ele><time>2026-04-14T15:08:07.9Z</time></trkpt><trkpt lat="42.548315" lon="-7.2792283"><ele>591.0</ele><time>2026-04-14T15:08:08.9Z</time></trkpt><trkpt lat="42.5480667" lon="-7.279185"><ele>591.0</ele><time>2026-04-14T15:08:09.901Z</time></trkpt><trkpt lat="42.5478167" lon="-7.2791833"><ele>588.0</ele><time>2026-04-14T15:08:10.9Z</time></trkpt><trkpt lat="42.5475983" lon="-7.2791583"><ele>585.0</ele><time>2026-04-14T15:08:11.901Z</time></trkpt><trkpt lat="42.5473833" lon="-7.2791383"><ele>582.0</ele><time>2026-04-14T15:08:12.9Z</time></trkpt><trkpt lat="42.5472033" lon="-7.2791133"><ele>580.6666666666666</ele><time>2026-04-14T15:08:13.9Z</time></trkpt><trkpt lat="42.5470183" lon="-7.2790817"><ele>579.3333333333333</ele><time>2026-04-14T15:08:14.9Z</time></trkpt><trkpt lat="42.5468333" lon="-7.2790367"><ele>578.0</ele><time>2026-04-14T15:08:15.901Z</time></trkpt><trkpt lat="42.54668" lon="-7.278985"><ele>588.0</ele><time>2026-04-14T15:08:16.901Z</time></trkpt><trkpt lat="42.5465233" lon="-7.278915"><ele>598.0</ele><time>2026-04-14T15:08:17.901Z</time></trkpt><trkpt lat="42.5463733" lon="-7.2788133"><ele>608.0</ele><time>2026-04-14T15:08:18.9Z</time></trkpt><trkpt lat="42.54623" lon="-7.2786667"><ele>602.3333333333333</ele><time>2026-04-14T15:08:19.9Z</time></trkpt><trkpt lat="42.5460917" lon="-7.2784883"><ele>596.6666666666666</ele><time>2026-04-14T15:08:20.9Z</time></trkpt><trkpt lat="42.545945" lon="-7.27832"><ele>591.0</ele><time>2026-04-14T15:08:21.9Z</time></trkpt><trkpt lat="42.54581" lon="-7.278165"><ele>592.6666666666666</ele><time>2026-04-14T15:08:22.9Z</time></trkpt><trkpt lat="42.5456617" lon="-7.27801"><ele>594.3333333333333</ele><time>2026-04-14T15:08:23.901Z</time></trkpt><trkpt lat="42.5455117" lon="-7.2778483"><ele>596.0</ele><time>2026-04-14T15:08:24.901Z</time></trkpt><trkpt lat="42.545365" lon="-7.277705"><ele>596.0</ele><time>2026-04-14T15:08:25.9Z</time></trkpt><trkpt lat="42.5451967" lon="-7.2775867"><ele>596.0</ele><time>2026-04-14T15:08:26.901Z</time></trkpt><trkpt lat="42.5450217" lon="-7.277485"><ele>596.0</ele><time>2026-04-14T15:08:27.9Z</time></trkpt><trkpt lat="42.5448433" lon="-7.2774"><ele>596.0</ele><time>2026-04-14T15:08:28.901Z</time></trkpt><trkpt lat="42.5446583" lon="-7.2773117"><ele>596.0</ele><time>2026-04-14T15:08:29.9Z</time></trkpt><trkpt lat="42.5444917" lon="-7.27722"><ele>596.0</ele><time>2026-04-14T15:08:30.9Z</time></trkpt><trkpt lat="42.5443267" lon="-7.277115"><ele>599.6666666666666</ele><time>2026-04-14T15:08:31.9Z</time></trkpt><trkpt lat="42.54416" lon="-7.2769967"><ele>603.3333333333334</ele><time>2026-04-14T15:08:32.901Z</time></trkpt><trkpt lat="42.54398" lon="-7.2768733"><ele>607.0</ele><time>2026-04-14T15:08:33.901Z</time></trkpt><trkpt lat="42.5438133" lon="-7.27675"><ele>603.75</ele><time>2026-04-14T15:08:34.901Z</time></trkpt><trkpt lat="42.5436717" lon="-7.2766217"><ele>600.5</ele><time>2026-04-14T15:08:35.901Z</time></trkpt><trkpt lat="42.5435467" lon="-7.2765067"><ele>597.25</ele><time>2026-04-14T15:08:36.901Z</time></trkpt><trkpt lat="42.54345" lon="-7.2764117"><ele>594.0</ele><time>2026-04-14T15:08:37.9Z</time></trkpt><trkpt lat="42.5433733" lon="-7.2763083"><ele>593.0</ele><time>2026-04-14T15:08:38.901Z</time></trkpt><trkpt lat="42.5433333" lon="-7.2762017"><ele>592.0</ele><time>2026-04-14T15:08:39.9Z</time></trkpt><trkpt lat="42.5433183" lon="-7.276105"><ele>591.0</ele><time>2026-04-14T15:08:40.9Z</time></trkpt><trkpt lat="42.5480667" lon="-7.279185"><ele>586.5</ele><time>2026-04-14T15:08:09.901Z</time></trkpt><trkpt lat="42.5478167" lon="-7.2791833"><ele>582.0</ele><time>2026-04-14T15:08:10.9Z</time></trkpt><trkpt lat="42.5475983" lon="-7.2791583"><ele>582.0</ele><time>2026-04-14T15:08:11.901Z</time></trkpt><trkpt lat="42.5473833" lon="-7.2791383"><ele>582.0</ele><time>2026-04-14T15:08:12.9Z</time></trkpt><trkpt lat="42.5472033" lon="-7.2791133"><ele>582.0</ele><time>2026-04-14T15:08:13.9Z</time></trkpt><trkpt lat="42.5470183" lon="-7.2790817"><ele>580.6666666666666</ele><time>2026-04-14T15:08:14.9Z</time></trkpt><trkpt lat="42.5468333" lon="-7.2790367"><ele>579.3333333333333</ele><time>2026-04-14T15:08:15.901Z</time></trkpt><trkpt lat="42.54668" lon="-7.278985"><ele>578.0</ele><time>2026-04-14T15:08:16.901Z</time></trkpt><trkpt lat="42.5465233" lon="-7.278915"><ele>582.3333333333333</ele><time>2026-04-14T15:08:17.901Z</time></trkpt><trkpt lat="42.5463733" lon="-7.2788133"><ele>586.6666666666666</ele><time>2026-04-14T15:08:18.9Z</time></trkpt><trkpt lat="42.54623" lon="-7.2786667"><ele>591.0</ele><time>2026-04-14T15:08:19.9Z</time></trkpt><trkpt lat="42.5460917" lon="-7.2784883"><ele>591.0</ele><time>2026-04-14T15:08:20.9Z</time></trkpt><trkpt lat="42.545945" lon="-7.27832"><ele>591.0</ele><time>2026-04-14T15:08:21.9Z</time></trkpt><trkpt lat="42.54581" lon="-7.278165"><ele>591.0</ele><time>2026-04-14T15:08:22.9Z</time></trkpt><trkpt lat="42.5456617" lon="-7.27801"><ele>592.6666666666666</ele><time>2026-04-14T15:08:23.901Z</time></trkpt><trkpt lat="42.5455117" lon="-7.2778483"><ele>594.3333333333333</ele><time>2026-04-14T15:08:24.901Z</time></trkpt><trkpt lat="42.545365" lon="-7.277705"><ele>596.0</ele><time>2026-04-14T15:08:25.9Z</time></trkpt><trkpt lat="42.5451967" lon="-7.2775867"><ele>596.0</ele><time>2026-04-14T15:08:26.901Z</time></trkpt><trkpt lat="42.5450217" lon="-7.277485"><ele>596.0</ele><time>2026-04-14T15:08:27.9Z</time></trkpt><trkpt lat="42.5448433" lon="-7.2774"><ele>596.0</ele><time>2026-04-14T15:08:28.901Z</time></trkpt><trkpt lat="42.5446583" lon="-7.2773117"><ele>599.6666666666666</ele><time>2026-04-14T15:08:29.9Z</time></trkpt><trkpt lat="42.5444917" lon="-7.27722"><ele>603.3333333333334</ele><time>2026-04-14T15:08:30.9Z</time></trkpt><trkpt lat="42.5443267" lon="-7.277115"><ele>607.0</ele><time>2026-04-14T15:08:31.9Z</time></trkpt><trkpt lat="42.54416" lon="-7.2769967"><ele>607.0</ele><time>2026-04-14T15:08:32.901Z</time></trkpt><trkpt lat="42.54398" lon="-7.2768733"><ele>607.0</ele><time>2026-04-14T15:08:33.901Z</time></trkpt><trkpt lat="42.5438133" lon="-7.27675"><ele>607.0</ele><time>2026-04-14T15:08:34.901Z</time></trkpt><trkpt lat="42.5436717" lon="-7.2766217"><ele>603.75</ele><time>2026-04-14T15:08:35.901Z</time></trkpt><trkpt lat="42.5435467" lon="-7.2765067"><ele>600.5</ele><time>2026-04-14T15:08:36.901Z</time></trkpt><trkpt lat="42.54345" lon="-7.2764117"><ele>597.25</ele><time>2026-04-14T15:08:37.9Z</time></trkpt><trkpt lat="42.5433733" lon="-7.2763083"><ele>594.0</ele><time>2026-04-14T15:08:38.901Z</time></trkpt><trkpt lat="42.5433333" lon="-7.2762017"><ele>593.25</ele><time>2026-04-14T15:08:39.9Z</time></trkpt><trkpt lat="42.5433183" lon="-7.276105"><ele>592.5</ele><time>2026-04-14T15:08:40.9Z</time></trkpt><trkpt lat="42.5432967" lon="-7.275935"><ele>591.75</ele><time>2026-04-14T15:08:42.901Z</time></trkpt><trkpt lat="42.543295" lon="-7.2757733"><ele>591.0</ele><time>2026-04-14T15:08:44.901Z</time></trkpt><trkpt lat="42.5433933" lon="-7.2756367"><ele>593.25</ele><time>2026-04-14T15:08:46.9Z</time></trkpt><trkpt lat="42.54349" lon="-7.2755767"><ele>595.5</ele><time>2026-04-14T15:08:47.9Z</time></trkpt><trkpt lat="42.5435983" lon="-7.2755017"><ele>597.75</ele><time>2026-04-14T15:08:48.9Z</time></trkpt><trkpt lat="42.5437133" lon="-7.2754"><ele>600.0</ele><time>2026-04-14T15:08:49.9Z</time></trkpt><trkpt lat="42.543805" lon="-7.2752883"><ele>600.0</ele><time>2026-04-14T15:08:50.9Z</time></trkpt><trkpt lat="42.543885" lon="-7.2751583"><ele>600.0</ele><time>2026-04-14T15:08:51.9Z</time></trkpt><trkpt lat="42.54396" lon="-7.27501"><ele>600.0</ele><time>2026-04-14T15:08:52.9Z</time></trkpt><trkpt lat="42.54404" lon="-7.2748783"><ele>600.0</ele><time>2026-04-14T15:08:53.901Z</time></trkpt><trkpt lat="42.5441267" lon="-7.2747633"><ele>589.25</ele><time>2026-04-14T15:08:54.901Z</time></trkpt><trkpt lat="42.544225" lon="-7.2746817"><ele>578.5</ele><time>2026-04-14T15:08:55.9Z</time></trkpt><trkpt lat="42.54433" lon="-7.2746183"><ele>567.75</ele><time>2026-04-14T15:08:56.901Z</time></trkpt><trkpt lat="42.544435" lon="-7.2745533"><ele>557.0</ele><time>2026-04-14T15:08:57.9Z</time></trkpt><trkpt lat="42.54453" lon="-7.2744567"><ele>560.8000000000001</ele><time>2026-04-14T15:08:58.901Z</time></trkpt><trkpt lat="42.5446033" lon="-7.2743417"><ele>564.6</ele><time>2026-04-14T15:08:59.9Z</time></trkpt><trkpt lat="42.5446833" lon="-7.2742317"><ele>568.4000000000001</ele><time>2026-04-14T15:09:00.901Z</time></trkpt><trkpt lat="42.54475" lon="-7.2741183"><ele>572.2</ele><time>2026-04-14T15:09:01.9Z</time></trkpt><trkpt lat="42.5448083" lon="-7.2739983"><ele>576.0</ele><time>2026-04-14T15:09:02.901Z</time></trkpt><trkpt lat="42.5448433" lon="-7.2738533"><ele>576.0</ele><time>2026-04-14T15:09:03.9Z</time></trkpt><trkpt lat="42.54488" lon="-7.2736967"><ele>576.0</ele><time>2026-04-14T15:09:04.901Z</time></trkpt><trkpt lat="42.5449117" lon="-7.27354"><ele>576.0</ele><time>2026-04-14T15:09:05.9Z</time></trkpt><trkpt lat="42.544945" lon="-7.2733867"><ele>576.0</ele><time>2026-04-14T15:09:06.9Z</time></trkpt><trkpt lat="42.54499" lon="-7.273245"><ele>576.0</ele><time>2026-04-14T15:09:07.901Z</time></trkpt><trkpt lat="42.545045" lon="-7.2731217"><ele>576.0</ele><time>2026-04-14T15:09:08.9Z</time></trkpt><trkpt lat="42.5451333" lon="-7.2730217"><ele>576.0</ele><time>2026-04-14T15:09:09.9Z</time></trkpt><trkpt lat="42.5452467" lon="-7.2729567"><ele>576.0</ele><time>2026-04-14T15:09:10.901Z</time></trkpt><trkpt lat="42.54535" lon="-7.2729"><ele>580.0</ele><time>2026-04-14T15:09:11.901Z</time></trkpt><trkpt lat="42.54545" lon="-7.2728217"><ele>584.0</ele><time>2026-04-14T15:09:12.9Z</time></trkpt><trkpt lat="42.5455317" lon="-7.27272"><ele>588.0</ele><time>2026-04-14T15:09:13.901Z</time></trkpt><trkpt lat="42.5455883" lon="-7.2725917"><ele>592.0</ele><time>2026-04-14T15:09:14.9Z</time></trkpt><trkpt lat="42.5456167" lon="-7.27245"><ele>596.0</ele><time>2026-04-14T15:09:15.901Z</time></trkpt><trkpt lat="42.54562" lon="-7.2723"><ele>590.25</ele><time>2026-04-14T15:09:16.9Z</time></trkpt><trkpt lat="42.5455983" lon="-7.272135"><ele>584.5</ele><time>2026-04-14T15:09:17.901Z</time></trkpt><trkpt lat="42.5455833" lon="-7.2719583"><ele>578.75</ele><time>2026-04-14T15:09:18.901Z</time></trkpt><trkpt lat="42.545585" lon="-7.2717983"><ele>573.0</ele><time>2026-04-14T15:09:19.901Z</time></trkpt><trkpt lat="42.5456183" lon="-7.271655"><ele>573.0</ele><time>2026-04-14T15:09:20.901Z</time></trkpt><trkpt lat="42.5456783" lon="-7.27152"><ele>573.0</ele><time>2026-04-14T15:09:21.901Z</time></trkpt><trkpt lat="42.5457567" lon="-7.2714117"><ele>573.0</ele><time>2026-04-14T15:09:22.901Z</time></trkpt><trkpt lat="42.5458617" lon="-7.2713083"><ele>573.0</ele><time>2026-04-14T15:09:23.901Z</time></trkpt><trkpt lat="42.54597" lon="-7.2712233"><ele>574.25</ele><time>2026-04-14T15:09:24.901Z</time></trkpt><trkpt lat="42.5460967" lon="-7.2711417"><ele>575.5</ele><time>2026-04-14T15:09:25.901Z</time></trkpt><trkpt lat="42.5462133" lon="-7.27109"><ele>576.75</ele><time>2026-04-14T15:09:26.9Z</time></trkpt><trkpt lat="42.5463183" lon="-7.2710533"><ele>578.0</ele><time>2026-04-14T15:09:27.901Z</time></trkpt><trkpt lat="42.5464267" lon="-7.27101"><ele>578.0</ele><time>2026-04-14T15:09:28.901Z</time></trkpt><trkpt lat="42.5465317" lon="-7.2709617"><ele>578.0</ele><time>2026-04-14T15:09:29.9Z</time></trkpt><trkpt lat="42.5466267" lon="-7.270895"><ele>578.0</ele><time>2026-04-14T15:09:30.9Z</time></trkpt><trkpt lat="42.5467067" lon="-7.2708"><ele>578.0</ele><time>2026-04-14T15:09:31.9Z</time></trkpt><trkpt lat="42.5467567" lon="-7.2706867"><ele>578.0</ele><time>2026-04-14T15:09:32.901Z</time></trkpt><trkpt lat="42.5468017" lon="-7.2705583"><ele>574.25</ele><time>2026-04-14T15:09:33.9Z</time></trkpt><trkpt lat="42.546845" lon="-7.2704117"><ele>570.5</ele><time>2026-04-14T15:09:34.901Z</time></trkpt><trkpt lat="42.54687" lon="-7.270255"><ele>566.75</ele><time>2026-04-14T15:09:35.901Z</time></trkpt><trkpt lat="42.5468767" lon="-7.2701"><ele>563.0</ele><time>2026-04-14T15:09:36.901Z</time></trkpt><trkpt lat="42.54685" lon="-7.2699533"><ele>563.0</ele><time>2026-04-14T15:09:37.9Z</time></trkpt><trkpt lat="42.5468067" lon="-7.2698183"><ele>563.0</ele><time>2026-04-14T15:09:38.901Z</time></trkpt><trkpt lat="42.5467633" lon="-7.2696817"><ele>563.0</ele><time>2026-04-14T15:09:39.901Z</time></trkpt><trkpt lat="42.5467083" lon="-7.2695417"><ele>563.0</ele><time>2026-04-14T15:09:40.9Z</time></trkpt><trkpt lat="42.5466633" lon="-7.2693883"><ele>563.0</ele><time>2026-04-14T15:09:41.901Z</time></trkpt><trkpt lat="42.5466333" lon="-7.2692283"><ele>563.0</ele><time>2026-04-14T15:09:42.9Z</time></trkpt><trkpt lat="42.5466167" lon="-7.269075"><ele>563.0</ele><time>2026-04-14T15:09:43.9Z</time></trkpt><trkpt lat="42.5466083" lon="-7.2689117"><ele>563.0</ele><time>2026-04-14T15:09:44.901Z</time></trkpt><trkpt lat="42.54659" lon="-7.2687617"><ele>563.0</ele><time>2026-04-14T15:09:45.9Z</time></trkpt><trkpt lat="42.5465783" lon="-7.2686217"><ele>563.0</ele><time>2026-04-14T15:09:46.9Z</time></trkpt><trkpt lat="42.546585" lon="-7.2684883"><ele>563.0</ele><time>2026-04-14T15:09:47.901Z</time></trkpt><trkpt lat="42.5466267" lon="-7.2683733"><ele>563.0</ele><time>2026-04-14T15:09:48.9Z</time></trkpt><trkpt lat="42.5466917" lon="-7.2682833"><ele>563.0</ele><time>2026-04-14T15:09:49.901Z</time></trkpt><trkpt lat="42.5467867" lon="-7.2681883"><ele>562.0</ele><time>2026-04-14T15:09:50.9Z</time></trkpt><trkpt lat="42.5469" lon="-7.2681033"><ele>561.0</ele><time>2026-04-14T15:09:51.901Z</time></trkpt><trkpt lat="42.547015" lon="-7.26802"><ele>560.0</ele><time>2026-04-14T15:09:52.9Z</time></trkpt><trkpt lat="42.5471267" lon="-7.2679483"><ele>559.0</ele><time>2026-04-14T15:09:53.9Z</time></trkpt><trkpt lat="42.5472383" lon="-7.2678767"><ele>559.0</ele><time>2026-04-14T15:09:54.901Z</time></trkpt><trkpt lat="42.54735" lon="-7.2678033"><ele>559.0</ele><time>2026-04-14T15:09:55.901Z</time></trkpt><trkpt lat="42.54746" lon="-7.2677467"><ele>559.0</ele><time>2026-04-14T15:09:56.901Z</time></trkpt><trkpt lat="42.5475583" lon="-7.2676717"><ele>559.0</ele><time>2026-04-14T15:09:57.9Z</time></trkpt><trkpt lat="42.547655" lon="-7.2675833"><ele>559.0</ele><time>2026-04-14T15:09:58.901Z</time></trkpt><trkpt lat="42.5477483" lon="-7.2674867"><ele>559.0</ele><time>2026-04-14T15:09:59.9Z</time></trkpt><trkpt lat="42.54784" lon="-7.2673883"><ele>559.0</ele><time>2026-04-14T15:10:00.901Z</time></trkpt><trkpt lat="42.547925" lon="-7.2672817"><ele>559.0</ele><time>2026-04-14T15:10:01.9Z</time></trkpt><trkpt lat="42.548005" lon="-7.26717"><ele>560.8</ele><time>2026-04-14T15:10:02.901Z</time></trkpt><trkpt lat="42.548075" lon="-7.2670483"><ele>562.5999999999999</ele><time>2026-04-14T15:10:03.9Z</time></trkpt><trkpt lat="42.54813" lon="-7.2669217"><ele>564.4</ele><time>2026-04-14T15:10:04.901Z</time></trkpt><trkpt lat="42.548175" lon="-7.2667933"><ele>566.1999999999999</ele><time>2026-04-14T15:10:05.9Z</time></trkpt><trkpt lat="42.548215" lon="-7.2666667"><ele>568.0</ele><time>2026-04-14T15:10:06.9Z</time></trkpt><trkpt lat="42.5482633" lon="-7.2665467"><ele>567.4</ele><time>2026-04-14T15:10:07.9Z</time></trkpt><trkpt lat="42.5482767" lon="-7.266405"><ele>566.8</ele><time>2026-04-14T15:10:08.9Z</time></trkpt><trkpt lat="42.5482617" lon="-7.266255"><ele>566.2</ele><time>2026-04-14T15:10:09.9Z</time></trkpt><trkpt lat="42.54822" lon="-7.2661333"><ele>565.6</ele><time>2026-04-14T15:10:10.9Z</time></trkpt><trkpt lat="42.5481483" lon="-7.2660167"><ele>565.0</ele><time>2026-04-14T15:10:11.901Z</time></trkpt><trkpt lat="42.5480633" lon="-7.265935"><ele>563.0</ele><time>2026-04-14T15:10:12.9Z</time></trkpt><trkpt lat="42.5468067" lon="-7.2698183"><ele>564.5</ele><time>2026-04-14T15:09:38.901Z</time></trkpt><trkpt lat="42.5467633" lon="-7.2696817"><ele>566.0</ele><time>2026-04-14T15:09:39.901Z</time></trkpt><trkpt lat="42.5467083" lon="-7.2695417"><ele>567.5</ele><time>2026-04-14T15:09:40.9Z</time></trkpt><trkpt lat="42.5466633" lon="-7.2693883"><ele>569.0</ele><time>2026-04-14T15:09:41.901Z</time></trkpt><trkpt lat="42.5466333" lon="-7.2692283"><ele>569.0</ele><time>2026-04-14T15:09:42.9Z</time></trkpt><trkpt lat="42.5466167" lon="-7.269075"><ele>569.0</ele><time>2026-04-14T15:09:43.9Z</time></trkpt><trkpt lat="42.5466083" lon="-7.2689117"><ele>569.0</ele><time>2026-04-14T15:09:44.901Z</time></trkpt><trkpt lat="42.54659" lon="-7.2687617"><ele>569.0</ele><time>2026-04-14T15:09:45.9Z</time></trkpt><trkpt lat="42.5465783" lon="-7.2686217"><ele>567.8</ele><time>2026-04-14T15:09:46.9Z</time></trkpt><trkpt lat="42.546585" lon="-7.2684883"><ele>566.5999999999999</ele><time>2026-04-14T15:09:47.901Z</time></trkpt><trkpt lat="42.5466267" lon="-7.2683733"><ele>565.4</ele><time>2026-04-14T15:09:48.9Z</time></trkpt><trkpt lat="42.5466917" lon="-7.2682833"><ele>564.1999999999999</ele><time>2026-04-14T15:09:49.901Z</time></trkpt><trkpt lat="42.5467867" lon="-7.2681883"><ele>563.0</ele><time>2026-04-14T15:09:50.9Z</time></trkpt><trkpt lat="42.5469" lon="-7.2681033"><ele>562.0</ele><time>2026-04-14T15:09:51.901Z</time></trkpt><trkpt lat="42.547015" lon="-7.26802"><ele>561.0</ele><time>2026-04-14T15:09:52.9Z</time></trkpt><trkpt lat="42.5471267" lon="-7.2679483"><ele>560.0</ele><time>2026-04-14T15:09:53.9Z</time></trkpt><trkpt lat="42.5472383" lon="-7.2678767"><ele>559.0</ele><time>2026-04-14T15:09:54.901Z</time></trkpt><trkpt lat="42.54735" lon="-7.2678033"><ele>559.0</ele><time>2026-04-14T15:09:55.901Z</time></trkpt><trkpt lat="42.54746" lon="-7.2677467"><ele>559.0</ele><time>2026-04-14T15:09:56.901Z</time></trkpt><trkpt lat="42.5475583" lon="-7.2676717"><ele>559.0</ele><time>2026-04-14T15:09:57.9Z</time></trkpt><trkpt lat="42.547655" lon="-7.2675833"><ele>559.0</ele><time>2026-04-14T15:09:58.901Z</time></trkpt><trkpt lat="42.5477483" lon="-7.2674867"><ele>559.0</ele><time>2026-04-14T15:09:59.9Z</time></trkpt><trkpt lat="42.54784" lon="-7.2673883"><ele>559.0</ele><time>2026-04-14T15:10:00.901Z</time></trkpt><trkpt lat="42.547925" lon="-7.2672817"><ele>559.0</ele><time>2026-04-14T15:10:01.9Z</time></trkpt><trkpt lat="42.548005" lon="-7.26717"><ele>559.0</ele><time>2026-04-14T15:10:02.901Z</time></trkpt><trkpt lat="42.548075" lon="-7.2670483"><ele>560.2</ele><time>2026-04-14T15:10:03.9Z</time></trkpt><trkpt lat="42.54813" lon="-7.2669217"><ele>561.4</ele><time>2026-04-14T15:10:04.901Z</time></trkpt><trkpt lat="42.548175" lon="-7.2667933"><ele>562.6</ele><time>2026-04-14T15:10:05.9Z</time></trkpt><trkpt lat="42.548215" lon="-7.2666667"><ele>563.8</ele><time>2026-04-14T15:10:06.9Z</time></trkpt><trkpt lat="42.5482633" lon="-7.2665467"><ele>565.0</ele><time>2026-04-14T15:10:07.9Z</time></trkpt><trkpt lat="42.5482767" lon="-7.266405"><ele>565.0</ele><time>2026-04-14T15:10:08.9Z</time></trkpt><trkpt lat="42.5482617" lon="-7.266255"><ele>565.0</ele><time>2026-04-14T15:10:09.9Z</time></trkpt><trkpt lat="42.54822" lon="-7.2661333"><ele>565.0</ele><time>2026-04-14T15:10:10.9Z</time></trkpt><trkpt lat="42.5481483" lon="-7.2660167"><ele>565.0</ele><time>2026-04-14T15:10:11.901Z</time></trkpt><trkpt lat="42.5480633" lon="-7.265935"><ele>565.0</ele><time>2026-04-14T15:10:12.9Z</time></trkpt><trkpt lat="42.5479667" lon="-7.2658717"><ele>560.4</ele><time>2026-04-14T15:10:13.901Z</time></trkpt><trkpt lat="42.5478733" lon="-7.2658167"><ele>555.8</ele><time>2026-04-14T15:10:14.9Z</time></trkpt><trkpt lat="42.5477983" lon="-7.2657117"><ele>551.2</ele><time>2026-04-14T15:10:15.901Z</time></trkpt><trkpt lat="42.5477317" lon="-7.2655833"><ele>546.6</ele><time>2026-04-14T15:10:16.901Z</time></trkpt><trkpt lat="42.5476583" lon="-7.2654583"><ele>542.0</ele><time>2026-04-14T15:10:17.901Z</time></trkpt><trkpt lat="42.5475767" lon="-7.26533"><ele>542.0</ele><time>2026-04-14T15:10:18.9Z</time></trkpt><trkpt lat="42.5475033" lon="-7.26521"><ele>542.0</ele><time>2026-04-14T15:10:19.901Z</time></trkpt><trkpt lat="42.5474383" lon="-7.2650917"><ele>542.0</ele><time>2026-04-14T15:10:20.901Z</time></trkpt><trkpt lat="42.5474" lon="-7.2649533"><ele>542.0</ele><time>2026-04-14T15:10:21.9Z</time></trkpt><trkpt lat="42.5473967" lon="-7.2648067"><ele>542.0</ele><time>2026-04-14T15:10:22.9Z</time></trkpt><trkpt lat="42.5473933" lon="-7.26465"><ele>544.0</ele><time>2026-04-14T15:10:23.9Z</time></trkpt><trkpt lat="42.5473833" lon="-7.2644883"><ele>546.0</ele><time>2026-04-14T15:10:24.9Z</time></trkpt><trkpt lat="42.5473617" lon="-7.2643383"><ele>548.0</ele><time>2026-04-14T15:10:25.9Z</time></trkpt><trkpt lat="42.547335" lon="-7.264195"><ele>550.0</ele><time>2026-04-14T15:10:26.9Z</time></trkpt><trkpt lat="42.5472983" lon="-7.264045"><ele>550.0</ele><time>2026-04-14T15:10:27.901Z</time></trkpt><trkpt lat="42.5472617" lon="-7.26389"><ele>550.0</ele><time>2026-04-14T15:10:28.9Z</time></trkpt><trkpt lat="42.547235" lon="-7.26373"><ele>550.0</ele><time>2026-04-14T15:10:29.901Z</time></trkpt><trkpt lat="42.547215" lon="-7.263575"><ele>550.0</ele><time>2026-04-14T15:10:30.901Z</time></trkpt><trkpt lat="42.5472017" lon="-7.2634167"><ele>550.0</ele><time>2026-04-14T15:10:31.9Z</time></trkpt><trkpt lat="42.5471883" lon="-7.2632733"><ele>550.0</ele><time>2026-04-14T15:10:32.901Z</time></trkpt><trkpt lat="42.5471983" lon="-7.2631467"><ele>550.0</ele><time>2026-04-14T15:10:33.9Z</time></trkpt><trkpt lat="42.5472383" lon="-7.2630167"><ele>550.0</ele><time>2026-04-14T15:10:34.901Z</time></trkpt><trkpt lat="42.547305" lon="-7.2628867"><ele>550.0</ele><time>2026-04-14T15:10:35.9Z</time></trkpt><trkpt lat="42.5473833" lon="-7.2627517"><ele>547.6</ele><time>2026-04-14T15:10:36.9Z</time></trkpt><trkpt lat="42.547455" lon="-7.262625"><ele>545.2</ele><time>2026-04-14T15:10:37.901Z</time></trkpt><trkpt lat="42.5475167" lon="-7.26251"><ele>542.8</ele><time>2026-04-14T15:10:38.9Z</time></trkpt><trkpt lat="42.5475833" lon="-7.2623883"><ele>540.4</ele><time>2026-04-14T15:10:39.9Z</time></trkpt><trkpt lat="42.547655" lon="-7.2622817"><ele>538.0</ele><time>2026-04-14T15:10:40.9Z</time></trkpt><trkpt lat="42.5477183" lon="-7.2621683"><ele>533.1999999999999</ele><time>2026-04-14T15:10:41.901Z</time></trkpt><trkpt lat="42.5477667" lon="-7.2620417"><ele>528.4</ele><time>2026-04-14T15:10:42.9Z</time></trkpt><trkpt lat="42.54778" lon="-7.2619117"><ele>523.5999999999999</ele><time>2026-04-14T15:10:43.9Z</time></trkpt><trkpt lat="42.5477767" lon="-7.2617717"><ele>518.8</ele><time>2026-04-14T15:10:44.9Z</time></trkpt><trkpt lat="42.547755" lon="-7.26162"><ele>514.0</ele><time>2026-04-14T15:10:45.9Z</time></trkpt><trkpt lat="42.54773" lon="-7.2614617"><ele>513.75</ele><time>2026-04-14T15:10:46.9Z</time></trkpt><trkpt lat="42.547705" lon="-7.2613183"><ele>513.5</ele><time>2026-04-14T15:10:47.9Z</time></trkpt><trkpt lat="42.5476617" lon="-7.261165"><ele>513.25</ele><time>2026-04-14T15:10:48.9Z</time></trkpt><trkpt lat="42.5476167" lon="-7.261"><ele>513.0</ele><time>2026-04-14T15:10:49.901Z</time></trkpt><trkpt lat="42.5475817" lon="-7.26084"><ele>513.0</ele><time>2026-04-14T15:10:50.9Z</time></trkpt><trkpt lat="42.54755" lon="-7.2606883"><ele>513.0</ele><time>2026-04-14T15:10:51.901Z</time></trkpt><trkpt lat="42.5475133" lon="-7.2605433"><ele>513.0</ele><time>2026-04-14T15:10:52.901Z</time></trkpt><trkpt lat="42.5474767" lon="-7.2604033"><ele>513.0</ele><time>2026-04-14T15:10:53.901Z</time></trkpt><trkpt lat="42.54744" lon="-7.2602667"><ele>513.0</ele><time>2026-04-14T15:10:54.901Z</time></trkpt><trkpt lat="42.5474283" lon="-7.2601217"><ele>512.25</ele><time>2026-04-14T15:10:55.901Z</time></trkpt><trkpt lat="42.547445" lon="-7.25997"><ele>511.5</ele><time>2026-04-14T15:10:56.901Z</time></trkpt><trkpt lat="42.5474783" lon="-7.259825"><ele>510.75</ele><time>2026-04-14T15:10:57.901Z</time></trkpt><trkpt lat="42.54753" lon="-7.2596783"><ele>510.0</ele><time>2026-04-14T15:10:58.9Z</time></trkpt><trkpt lat="42.5475783" lon="-7.25953"><ele>510.0</ele><time>2026-04-14T15:10:59.9Z</time></trkpt><trkpt lat="42.547615" lon="-7.2593783"><ele>510.0</ele><time>2026-04-14T15:11:00.901Z</time></trkpt><trkpt lat="42.5476467" lon="-7.2592217"><ele>510.0</ele><time>2026-04-14T15:11:01.901Z</time></trkpt><trkpt lat="42.547665" lon="-7.2590633"><ele>510.0</ele><time>2026-04-14T15:11:02.9Z</time></trkpt><trkpt lat="42.547675" lon="-7.2588983"><ele>506.0</ele><time>2026-04-14T15:11:03.901Z</time></trkpt><trkpt lat="42.5476783" lon="-7.2587317"><ele>502.0</ele><time>2026-04-14T15:11:04.9Z</time></trkpt><trkpt lat="42.5476767" lon="-7.2585633"><ele>498.0</ele><time>2026-04-14T15:11:05.901Z</time></trkpt><trkpt lat="42.5476783" lon="-7.2583983"><ele>494.0</ele><time>2026-04-14T15:11:06.901Z</time></trkpt><trkpt lat="42.547675" lon="-7.258225"><ele>492.75</ele><time>2026-04-14T15:11:07.901Z</time></trkpt><trkpt lat="42.5476767" lon="-7.2580633"><ele>491.5</ele><time>2026-04-14T15:11:08.9Z</time></trkpt><trkpt lat="42.5476867" lon="-7.2578833"><ele>490.25</ele><time>2026-04-14T15:11:09.9Z</time></trkpt><trkpt lat="42.5476783" lon="-7.257725"><ele>489.0</ele><time>2026-04-14T15:11:10.901Z</time></trkpt><trkpt lat="42.54768" lon="-7.257565"><ele>489.0</ele><time>2026-04-14T15:11:11.9Z</time></trkpt><trkpt lat="42.5476783" lon="-7.2574067"><ele>489.0</ele><time>2026-04-14T15:11:12.9Z</time></trkpt><trkpt lat="42.54767" lon="-7.2572467"><ele>489.0</ele><time>2026-04-14T15:11:13.901Z</time></trkpt><trkpt lat="42.5476583" lon="-7.2570917"><ele>489.0</ele><time>2026-04-14T15:11:14.901Z</time></trkpt><trkpt lat="42.5476533" lon="-7.2569467"><ele>487.25</ele><time>2026-04-14T15:11:15.901Z</time></trkpt><trkpt lat="42.5476467" lon="-7.2567883"><ele>485.5</ele><time>2026-04-14T15:11:16.901Z</time></trkpt><trkpt lat="42.5476433" lon="-7.2566217"><ele>483.75</ele><time>2026-04-14T15:11:17.901Z</time></trkpt><trkpt lat="42.5476467" lon="-7.25648"><ele>482.0</ele><time>2026-04-14T15:11:18.9Z</time></trkpt><trkpt lat="42.5476533" lon="-7.2563317"><ele>480.8</ele><time>2026-04-14T15:11:19.901Z</time></trkpt><trkpt lat="42.547675" lon="-7.256195"><ele>479.6</ele><time>2026-04-14T15:11:20.901Z</time></trkpt><trkpt lat="42.5477067" lon="-7.25605"><ele>478.40000000000003</ele><time>2026-04-14T15:11:21.901Z</time></trkpt><trkpt lat="42.5477467" lon="-7.2559083"><ele>477.20000000000005</ele><time>2026-04-14T15:11:22.901Z</time></trkpt><trkpt lat="42.5478017" lon="-7.25577"><ele>476.0</ele><time>2026-04-14T15:11:23.9Z</time></trkpt><trkpt lat="42.547865" lon="-7.2556383"><ele>478.8</ele><time>2026-04-14T15:11:24.9Z</time></trkpt><trkpt lat="42.5479367" lon="-7.2555133"><ele>481.6</ele><time>2026-04-14T15:11:25.901Z</time></trkpt><trkpt lat="42.54801" lon="-7.2553833"><ele>484.4</ele><time>2026-04-14T15:11:26.9Z</time></trkpt><trkpt lat="42.54808" lon="-7.2552617"><ele>487.2</ele><time>2026-04-14T15:11:27.901Z</time></trkpt><trkpt lat="42.5481333" lon="-7.255155"><ele>490.0</ele><time>2026-04-14T15:11:28.9Z</time></trkpt><trkpt lat="42.5481667" lon="-7.2550717"><ele>490.0</ele><time>2026-04-14T15:11:29.9Z</time></trkpt><trkpt lat="42.5480683" lon="-7.2551567"><ele>490.0</ele><time>2026-04-14T15:11:35.901Z</time></trkpt><trkpt lat="42.5479817" lon="-7.255255"><ele>490.0</ele><time>2026-04-14T15:11:36.9Z</time></trkpt><trkpt lat="42.547875" lon="-7.2553617"><ele>490.0</ele><time>2026-04-14T15:11:37.901Z</time></trkpt><trkpt lat="42.5477733" lon="-7.2554817"><ele>486.5</ele><time>2026-04-14T15:11:38.901Z</time></trkpt><trkpt lat="42.5476883" lon="-7.2555983"><ele>483.0</ele><time>2026-04-14T15:11:39.9Z</time></trkpt><trkpt lat="42.5476067" lon="-7.25572"><ele>479.5</ele><time>2026-04-14T15:11:40.901Z</time></trkpt><trkpt lat="42.5475283" lon="-7.2558533"><ele>476.0</ele><time>2026-04-14T15:11:41.901Z</time></trkpt><trkpt lat="42.547455" lon="-7.2559867"><ele>476.0</ele><time>2026-04-14T15:11:42.901Z</time></trkpt><trkpt lat="42.547385" lon="-7.2561217"><ele>476.0</ele><time>2026-04-14T15:11:43.901Z</time></trkpt><trkpt lat="42.54732" lon="-7.2562683"><ele>476.0</ele><time>2026-04-14T15:11:44.9Z</time></trkpt><trkpt lat="42.5476867" lon="-7.2578833"><ele>477.5</ele><time>2026-04-14T15:11:09.9Z</time></trkpt><trkpt lat="42.5476783" lon="-7.257725"><ele>479.0</ele><time>2026-04-14T15:11:10.901Z</time></trkpt><trkpt lat="42.54768" lon="-7.257565"><ele>480.5</ele><time>2026-04-14T15:11:11.9Z</time></trkpt><trkpt lat="42.5476783" lon="-7.2574067"><ele>482.0</ele><time>2026-04-14T15:11:12.9Z</time></trkpt><trkpt lat="42.54767" lon="-7.2572467"><ele>482.0</ele><time>2026-04-14T15:11:13.901Z</time></trkpt><trkpt lat="42.5476583" lon="-7.2570917"><ele>482.0</ele><time>2026-04-14T15:11:14.901Z</time></trkpt><trkpt lat="42.5476533" lon="-7.2569467"><ele>482.0</ele><time>2026-04-14T15:11:15.901Z</time></trkpt><trkpt lat="42.5476467" lon="-7.2567883"><ele>482.0</ele><time>2026-04-14T15:11:16.901Z</time></trkpt><trkpt lat="42.5476433" lon="-7.2566217"><ele>482.0</ele><time>2026-04-14T15:11:17.901Z</time></trkpt><trkpt lat="42.5476467" lon="-7.25648"><ele>482.00000000000006</ele><time>2026-04-14T15:11:18.9Z</time></trkpt><trkpt lat="42.5476533" lon="-7.2563317"><ele>482.00000000000006</ele><time>2026-04-14T15:11:19.901Z</time></trkpt><trkpt lat="42.547675" lon="-7.256195"><ele>482.0</ele><time>2026-04-14T15:11:20.901Z</time></trkpt><trkpt lat="42.5477067" lon="-7.25605"><ele>482.0</ele><time>2026-04-14T15:11:21.901Z</time></trkpt><trkpt lat="42.5477467" lon="-7.2559083"><ele>480.5</ele><time>2026-04-14T15:11:22.901Z</time></trkpt><trkpt lat="42.5478017" lon="-7.25577"><ele>479.0</ele><time>2026-04-14T15:11:23.9Z</time></trkpt><trkpt lat="42.547865" lon="-7.2556383"><ele>477.5</ele><time>2026-04-14T15:11:24.9Z</time></trkpt><trkpt lat="42.5479367" lon="-7.2555133"><ele>476.0</ele><time>2026-04-14T15:11:25.901Z</time></trkpt><trkpt lat="42.54801" lon="-7.2553833"><ele>478.8</ele><time>2026-04-14T15:11:26.9Z</time></trkpt><trkpt lat="42.54808" lon="-7.2552617"><ele>481.6</ele><time>2026-04-14T15:11:27.901Z</time></trkpt><trkpt lat="42.5481333" lon="-7.255155"><ele>484.4</ele><time>2026-04-14T15:11:28.9Z</time></trkpt><trkpt lat="42.5481667" lon="-7.2550717"><ele>487.2</ele><time>2026-04-14T15:11:29.9Z</time></trkpt><trkpt lat="42.5480683" lon="-7.2551567"><ele>490.0</ele><time>2026-04-14T15:11:35.901Z</time></trkpt><trkpt lat="42.5479817" lon="-7.255255"><ele>486.5</ele><time>2026-04-14T15:11:36.9Z</time></trkpt><trkpt lat="42.547875" lon="-7.2553617"><ele>483.0</ele><time>2026-04-14T15:11:37.901Z</time></trkpt><trkpt lat="42.5477733" lon="-7.2554817"><ele>479.5</ele><time>2026-04-14T15:11:38.901Z</time></trkpt><trkpt lat="42.5476883" lon="-7.2555983"><ele>476.0</ele><time>2026-04-14T15:11:39.9Z</time></trkpt><trkpt lat="42.5476067" lon="-7.25572"><ele>476.0</ele><time>2026-04-14T15:11:40.901Z</time></trkpt><trkpt lat="42.5475283" lon="-7.2558533"><ele>476.0</ele><time>2026-04-14T15:11:41.901Z</time></trkpt><trkpt lat="42.547455" lon="-7.2559867"><ele>476.0</ele><time>2026-04-14T15:11:42.901Z</time></trkpt><trkpt lat="42.547385" lon="-7.2561217"><ele>476.0</ele><time>2026-04-14T15:11:43.901Z</time></trkpt><trkpt lat="42.54732" lon="-7.2562683"><ele>476.0</ele><time>2026-04-14T15:11:44.9Z</time></trkpt><trkpt lat="42.5472533" lon="-7.25641"><ele>476.0</ele><time>2026-04-14T15:11:45.9Z</time></trkpt><trkpt lat="42.5472067" lon="-7.2565517"><ele>476.0</ele><time>2026-04-14T15:11:46.9Z</time></trkpt><trkpt lat="42.5471683" lon="-7.2566983"><ele>476.0</ele><time>2026-04-14T15:11:47.901Z</time></trkpt><trkpt lat="42.547135" lon="-7.2568533"><ele>477.20000000000005</ele><time>2026-04-14T15:11:48.9Z</time></trkpt><trkpt lat="42.5471" lon="-7.25701"><ele>478.40000000000003</ele><time>2026-04-14T15:11:49.9Z</time></trkpt><trkpt lat="42.5470633" lon="-7.2571483"><ele>479.6</ele><time>2026-04-14T15:11:50.901Z</time></trkpt><trkpt lat="42.5470317" lon="-7.257285"><ele>480.8</ele><time>2026-04-14T15:11:51.901Z</time></trkpt><trkpt lat="42.5469967" lon="-7.2573933"><ele>482.0</ele><time>2026-04-14T15:11:52.901Z</time></trkpt><trkpt lat="42.54696" lon="-7.2574767"><ele>473.25</ele><time>2026-04-14T15:11:53.9Z</time></trkpt><trkpt lat="42.54688" lon="-7.2575467"><ele>464.5</ele><time>2026-04-14T15:11:55.9Z</time></trkpt><trkpt lat="42.5467917" lon="-7.25744"><ele>455.75</ele><time>2026-04-14T15:11:57.9Z</time></trkpt><trkpt lat="42.54678" lon="-7.2573067"><ele>447.0</ele><time>2026-04-14T15:11:58.9Z</time></trkpt><trkpt lat="42.5467983" lon="-7.2571183"><ele>445.75</ele><time>2026-04-14T15:11:59.901Z</time></trkpt><trkpt lat="42.5468217" lon="-7.25692"><ele>444.5</ele><time>2026-04-14T15:12:00.901Z</time></trkpt><trkpt lat="42.54684" lon="-7.256745"><ele>443.25</ele><time>2026-04-14T15:12:01.901Z</time></trkpt><trkpt lat="42.5468433" lon="-7.2565833"><ele>442.0</ele><time>2026-04-14T15:12:02.9Z</time></trkpt><trkpt lat="42.546845" lon="-7.2564283"><ele>441.8</ele><time>2026-04-14T15:12:03.901Z</time></trkpt><trkpt lat="42.5468433" lon="-7.2562783"><ele>441.6</ele><time>2026-04-14T15:12:04.9Z</time></trkpt><trkpt lat="42.5468433" lon="-7.2561317"><ele>441.40000000000003</ele><time>2026-04-14T15:12:05.9Z</time></trkpt><trkpt lat="42.5468417" lon="-7.25599"><ele>441.20000000000005</ele><time>2026-04-14T15:12:06.901Z</time></trkpt><trkpt lat="42.54683" lon="-7.2558767"><ele>441.0</ele><time>2026-04-14T15:12:07.9Z</time></trkpt><trkpt lat="42.5468067" lon="-7.2557917"><ele>441.0</ele><time>2026-04-14T15:12:08.901Z</time></trkpt><trkpt lat="42.5467383" lon="-7.2557833"><ele>441.0</ele><time>2026-04-14T15:12:11.9Z</time></trkpt><trkpt lat="42.5466983" lon="-7.2558517"><ele>441.0</ele><time>2026-04-14T15:12:12.901Z</time></trkpt><trkpt lat="42.5466567" lon="-7.2559817"><ele>441.0</ele><time>2026-04-14T15:12:13.901Z</time></trkpt><trkpt lat="42.5466033" lon="-7.2561767"><ele>441.0</ele><time>2026-04-14T15:12:14.9Z</time></trkpt><trkpt lat="42.5465417" lon="-7.2563933"><ele>441.25</ele><time>2026-04-14T15:12:15.9Z</time></trkpt><trkpt lat="42.5464933" lon="-7.2565817"><ele>441.5</ele><time>2026-04-14T15:12:16.901Z</time></trkpt><trkpt lat="42.5464283" lon="-7.2567567"><ele>441.75</ele><time>2026-04-14T15:12:17.9Z</time></trkpt><trkpt lat="42.5463883" lon="-7.2569117"><ele>442.0</ele><time>2026-04-14T15:12:18.901Z</time></trkpt><trkpt lat="42.546355" lon="-7.2570767"><ele>442.0</ele><time>2026-04-14T15:12:19.9Z</time></trkpt><trkpt lat="42.546325" lon="-7.2572317"><ele>442.00000000000006</ele><time>2026-04-14T15:12:20.901Z</time></trkpt><trkpt lat="42.5462917" lon="-7.2573717"><ele>442.00000000000006</ele><time>2026-04-14T15:12:21.9Z</time></trkpt><trkpt lat="42.54625" lon="-7.2574783"><ele>442.0</ele><time>2026-04-14T15:12:22.901Z</time></trkpt><trkpt lat="42.5462033" lon="-7.2575567"><ele>442.0</ele><time>2026-04-14T15:12:23.901Z</time></trkpt><trkpt lat="42.5461" lon="-7.257595"><ele>432.75</ele><time>2026-04-14T15:12:25.901Z</time></trkpt><trkpt lat="42.54603" lon="-7.2574633"><ele>423.5</ele><time>2026-04-14T15:12:27.901Z</time></trkpt><trkpt lat="42.546015" lon="-7.2573233"><ele>414.25</ele><time>2026-04-14T15:12:28.901Z</time></trkpt><trkpt lat="42.5460067" lon="-7.25713"><ele>405.0</ele><time>2026-04-14T15:12:29.901Z</time></trkpt><trkpt lat="42.5459967" lon="-7.2569383"><ele>405.0</ele><time>2026-04-14T15:12:30.9Z</time></trkpt><trkpt lat="42.54597" lon="-7.2567467"><ele>405.0</ele><time>2026-04-14T15:12:31.9Z</time></trkpt><trkpt lat="42.5459117" lon="-7.2565883"><ele>405.0</ele><time>2026-04-14T15:12:32.9Z</time></trkpt><trkpt lat="42.54582" lon="-7.2564733"><ele>405.0</ele><time>2026-04-14T15:12:33.901Z</time></trkpt><trkpt lat="42.545715" lon="-7.2563717"><ele>406.75</ele><time>2026-04-14T15:12:34.9Z</time></trkpt><trkpt lat="42.545615" lon="-7.25628"><ele>408.5</ele><time>2026-04-14T15:12:35.901Z</time></trkpt><trkpt lat="42.545525" lon="-7.2561717"><ele>410.25</ele><time>2026-04-14T15:12:36.9Z</time></trkpt><trkpt lat="42.5454383" lon="-7.2560683"><ele>412.0</ele><time>2026-04-14T15:12:37.901Z</time></trkpt><trkpt lat="42.5453467" lon="-7.25596"><ele>406.5</ele><time>2026-04-14T15:12:38.901Z</time></trkpt><trkpt lat="42.545255" lon="-7.255865"><ele>401.0</ele><time>2026-04-14T15:12:39.9Z</time></trkpt><trkpt lat="42.545155" lon="-7.2557817"><ele>395.5</ele><time>2026-04-14T15:12:40.9Z</time></trkpt><trkpt lat="42.5450517" lon="-7.2557133"><ele>390.0</ele><time>2026-04-14T15:12:41.901Z</time></trkpt><trkpt lat="42.54494" lon="-7.2556717"><ele>390.0</ele><time>2026-04-14T15:12:42.9Z</time></trkpt><trkpt lat="42.54483" lon="-7.255635"><ele>390.0</ele><time>2026-04-14T15:12:43.9Z</time></trkpt><trkpt lat="42.54472" lon="-7.2556"><ele>390.0</ele><time>2026-04-14T15:12:44.9Z</time></trkpt><trkpt lat="42.54462" lon="-7.25557"><ele>390.0</ele><time>2026-04-14T15:12:45.9Z</time></trkpt><trkpt lat="42.5445217" lon="-7.25552"><ele>390.0</ele><time>2026-04-14T15:12:46.901Z</time></trkpt><trkpt lat="42.5444317" lon="-7.2554583"><ele>390.0</ele><time>2026-04-14T15:12:47.901Z</time></trkpt><trkpt lat="42.5443467" lon="-7.2553717"><ele>390.0</ele><time>2026-04-14T15:12:48.901Z</time></trkpt><trkpt lat="42.5442517" lon="-7.2552983"><ele>390.0</ele><time>2026-04-14T15:12:49.901Z</time></trkpt><trkpt lat="42.54416" lon="-7.255245"><ele>390.0</ele><time>2026-04-14T15:12:50.901Z</time></trkpt><trkpt lat="42.5440567" lon="-7.2552283"><ele>390.0</ele><time>2026-04-14T15:12:51.901Z</time></trkpt><trkpt lat="42.54395" lon="-7.255225"><ele>390.0</ele><time>2026-04-14T15:12:52.9Z</time></trkpt><trkpt lat="42.5438283" lon="-7.255215"><ele>390.0</ele><time>2026-04-14T15:12:53.901Z</time></trkpt><trkpt lat="42.54372" lon="-7.2551633"><ele>390.0</ele><time>2026-04-14T15:12:54.901Z</time></trkpt><trkpt lat="42.5436233" lon="-7.255095"><ele>390.0</ele><time>2026-04-14T15:12:55.9Z</time></trkpt><trkpt lat="42.5435433" lon="-7.2550033"><ele>387.8</ele><time>2026-04-14T15:12:56.9Z</time></trkpt><trkpt lat="42.5434867" lon="-7.2549"><ele>385.6</ele><time>2026-04-14T15:12:57.9Z</time></trkpt><trkpt lat="42.5434483" lon="-7.254775"><ele>383.4</ele><time>2026-04-14T15:12:58.9Z</time></trkpt><trkpt lat="42.54343" lon="-7.2546383"><ele>381.2</ele><time>2026-04-14T15:12:59.901Z</time></trkpt><trkpt lat="42.5434367" lon="-7.2544967"><ele>379.0</ele><time>2026-04-14T15:13:00.901Z</time></trkpt><trkpt lat="42.54344" lon="-7.2543617"><ele>378.6</ele><time>2026-04-14T15:13:01.901Z</time></trkpt><trkpt lat="42.543435" lon="-7.254245"><ele>378.2</ele><time>2026-04-14T15:13:02.9Z</time></trkpt><trkpt lat="42.5433883" lon="-7.2541117"><ele>377.8</ele><time>2026-04-14T15:13:04.901Z</time></trkpt><trkpt lat="42.5432917" lon="-7.2540767"><ele>377.40000000000003</ele><time>2026-04-14T15:13:06.901Z</time></trkpt><trkpt lat="42.54322" lon="-7.2540833"><ele>377.0</ele><time>2026-04-14T15:13:07.9Z</time></trkpt><trkpt lat="42.54308" lon="-7.2541783"><ele>377.0</ele><time>2026-04-14T15:13:09.9Z</time></trkpt><trkpt lat="42.5430117" lon="-7.2542783"><ele>377.0</ele><time>2026-04-14T15:13:10.9Z</time></trkpt><trkpt lat="42.54296" lon="-7.2543967"><ele>377.0</ele><time>2026-04-14T15:13:11.9Z</time></trkpt><trkpt lat="42.5429267" lon="-7.254505"><ele>377.0</ele><time>2026-04-14T15:13:12.9Z</time></trkpt><trkpt lat="42.5429017" lon="-7.25459"><ele>377.0</ele><time>2026-04-14T15:13:13.901Z</time></trkpt><trkpt lat="42.542885" lon="-7.2546733"><ele>377.0</ele><time>2026-04-14T15:13:14.901Z</time></trkpt><trkpt lat="42.542895" lon="-7.2547733"><ele>377.6666666666667</ele><time>2026-04-14T15:13:15.9Z</time></trkpt><trkpt lat="42.54295" lon="-7.255005"><ele>378.3333333333333</ele><time>2026-04-14T15:13:16.901Z</time></trkpt><trkpt lat="42.5430333" lon="-7.2552267"><ele>379.0</ele><time>2026-04-14T15:13:17.901Z</time></trkpt><trkpt lat="42.5431067" lon="-7.2554033"><ele>379.0</ele><time>2026-04-14T15:13:18.9Z</time></trkpt><trkpt lat="42.543185" lon="-7.25558"><ele>379.0</ele><time>2026-04-14T15:13:19.9Z</time></trkpt><trkpt lat="42.543265" lon="-7.255735"><ele>379.0</ele><time>2026-04-14T15:13:20.9Z</time></trkpt><trkpt lat="42.5433417" lon="-7.2558883"><ele>379.0</ele><time>2026-04-14T15:13:21.9Z</time></trkpt><trkpt lat="42.543425" lon="-7.2560217"><ele>378.5</ele><time>2026-04-14T15:13:22.9Z</time></trkpt><trkpt lat="42.54351" lon="-7.256155"><ele>378.0</ele><time>2026-04-14T15:13:23.901Z</time></trkpt><trkpt lat="42.5435983" lon="-7.2563"><ele>377.5</ele><time>2026-04-14T15:13:24.9Z</time></trkpt><trkpt lat="42.5436783" lon="-7.2564467"><ele>377.0</ele><time>2026-04-14T15:13:25.9Z</time></trkpt><trkpt lat="42.5437417" lon="-7.2566"><ele>377.0</ele><time>2026-04-14T15:13:26.9Z</time></trkpt><trkpt lat="42.5437917" lon="-7.2567567"><ele>377.0</ele><time>2026-04-14T15:13:27.901Z</time></trkpt><trkpt lat="42.543835" lon="-7.25692"><ele>377.0</ele><time>2026-04-14T15:13:28.901Z</time></trkpt><trkpt lat="42.5438767" lon="-7.2570783"><ele>377.0</ele><time>2026-04-14T15:13:29.9Z</time></trkpt><trkpt lat="42.54392" lon="-7.2572333"><ele>379.25</ele><time>2026-04-14T15:13:30.901Z</time></trkpt><trkpt lat="42.54397" lon="-7.25739"><ele>381.5</ele><time>2026-04-14T15:13:31.901Z</time></trkpt><trkpt lat="42.54402" lon="-7.2575417"><ele>383.75</ele><time>2026-04-14T15:13:32.9Z</time></trkpt><trkpt lat="42.5440683" lon="-7.257695"><ele>386.0</ele><time>2026-04-14T15:13:33.901Z</time></trkpt><trkpt lat="42.544105" lon="-7.2578233"><ele>386.0</ele><time>2026-04-14T15:13:34.901Z</time></trkpt><trkpt lat="42.54415" lon="-7.25798"><ele>386.0</ele><time>2026-04-14T15:13:35.901Z</time></trkpt><trkpt lat="42.544195" lon="-7.2581317"><ele>386.0</ele><time>2026-04-14T15:13:36.9Z</time></trkpt><trkpt lat="42.5442517" lon="-7.25826"><ele>386.0</ele><time>2026-04-14T15:13:37.901Z</time></trkpt><trkpt lat="42.5443133" lon="-7.2583917"><ele>384.4</ele><time>2026-04-14T15:13:38.901Z</time></trkpt><trkpt lat="42.5443667" lon="-7.2584767"><ele>382.8</ele><time>2026-04-14T15:13:39.9Z</time></trkpt><trkpt lat="42.5444217" lon="-7.2585733"><ele>381.2</ele><time>2026-04-14T15:13:40.9Z</time></trkpt><trkpt lat="42.5444817" lon="-7.25867"><ele>379.59999999999997</ele><time>2026-04-14T15:13:41.9Z</time></trkpt><trkpt lat="42.54454" lon="-7.258775"><ele>378.0</ele><time>2026-04-14T15:13:42.9Z</time></trkpt><trkpt lat="42.5446083" lon="-7.2588833"><ele>377.5</ele><time>2026-04-14T15:13:43.901Z</time></trkpt><trkpt lat="42.54469" lon="-7.2589967"><ele>377.0</ele><time>2026-04-14T15:13:44.901Z</time></trkpt><trkpt lat="42.5429017" lon="-7.25459"><ele>377.0</ele><time>2026-04-14T15:13:13.901Z</time></trkpt><trkpt lat="42.542885" lon="-7.2546733"><ele>377.0</ele><time>2026-04-14T15:13:14.901Z</time></trkpt><trkpt lat="42.542895" lon="-7.2547733"><ele>377.0</ele><time>2026-04-14T15:13:15.9Z</time></trkpt><trkpt lat="42.54295" lon="-7.255005"><ele>377.0</ele><time>2026-04-14T15:13:16.901Z</time></trkpt><trkpt lat="42.5430333" lon="-7.2552267"><ele>377.5</ele><time>2026-04-14T15:13:17.901Z</time></trkpt><trkpt lat="42.5431067" lon="-7.2554033"><ele>378.0</ele><time>2026-04-14T15:13:18.9Z</time></trkpt><trkpt lat="42.543185" lon="-7.25558"><ele>378.5</ele><time>2026-04-14T15:13:19.9Z</time></trkpt><trkpt lat="42.543265" lon="-7.255735"><ele>379.0</ele><time>2026-04-14T15:13:20.9Z</time></trkpt><trkpt lat="42.5433417" lon="-7.2558883"><ele>380.0</ele><time>2026-04-14T15:13:21.9Z</time></trkpt><trkpt lat="42.543425" lon="-7.2560217"><ele>381.0</ele><time>2026-04-14T15:13:22.9Z</time></trkpt><trkpt lat="42.54351" lon="-7.256155"><ele>382.0</ele><time>2026-04-14T15:13:23.901Z</time></trkpt><trkpt lat="42.5435983" lon="-7.2563"><ele>383.0</ele><time>2026-04-14T15:13:24.9Z</time></trkpt><trkpt lat="42.5436783" lon="-7.2564467"><ele>381.5</ele><time>2026-04-14T15:13:25.9Z</time></trkpt><trkpt lat="42.5437417" lon="-7.2566"><ele>380.0</ele><time>2026-04-14T15:13:26.9Z</time></trkpt><trkpt lat="42.5437917" lon="-7.2567567"><ele>378.5</ele><time>2026-04-14T15:13:27.901Z</time></trkpt><trkpt lat="42.543835" lon="-7.25692"><ele>377.0</ele><time>2026-04-14T15:13:28.901Z</time></trkpt><trkpt lat="42.5438767" lon="-7.2570783"><ele>377.0</ele><time>2026-04-14T15:13:29.9Z</time></trkpt><trkpt lat="42.54392" lon="-7.2572333"><ele>377.0</ele><time>2026-04-14T15:13:30.901Z</time></trkpt><trkpt lat="42.54397" lon="-7.25739"><ele>377.0</ele><time>2026-04-14T15:13:31.901Z</time></trkpt><trkpt lat="42.54402" lon="-7.2575417"><ele>377.0</ele><time>2026-04-14T15:13:32.9Z</time></trkpt><trkpt lat="42.5440683" lon="-7.257695"><ele>379.25</ele><time>2026-04-14T15:13:33.901Z</time></trkpt><trkpt lat="42.544105" lon="-7.2578233"><ele>381.5</ele><time>2026-04-14T15:13:34.901Z</time></trkpt><trkpt lat="42.54415" lon="-7.25798"><ele>383.75</ele><time>2026-04-14T15:13:35.901Z</time></trkpt><trkpt lat="42.544195" lon="-7.2581317"><ele>386.0</ele><time>2026-04-14T15:13:36.9Z</time></trkpt><trkpt lat="42.5442517" lon="-7.25826"><ele>389.4</ele><time>2026-04-14T15:13:37.901Z</time></trkpt><trkpt lat="42.5443133" lon="-7.2583917"><ele>392.8</ele><time>2026-04-14T15:13:38.901Z</time></trkpt><trkpt lat="42.5443667" lon="-7.2584767"><ele>396.2</ele><time>2026-04-14T15:13:39.9Z</time></trkpt><trkpt lat="42.5444217" lon="-7.2585733"><ele>399.59999999999997</ele><time>2026-04-14T15:13:40.9Z</time></trkpt><trkpt lat="42.5444817" lon="-7.25867"><ele>403.0</ele><time>2026-04-14T15:13:41.9Z</time></trkpt><trkpt lat="42.54454" lon="-7.258775"><ele>400.0</ele><time>2026-04-14T15:13:42.9Z</time></trkpt><trkpt lat="42.5446083" lon="-7.2588833"><ele>397.0</ele><time>2026-04-14T15:13:43.901Z</time></trkpt><trkpt lat="42.54469" lon="-7.2589967"><ele>394.0</ele><time>2026-04-14T15:13:44.901Z</time></trkpt><trkpt lat="42.5447633" lon="-7.2591167"><ele>391.0</ele><time>2026-04-14T15:13:45.9Z</time></trkpt><trkpt lat="42.5448317" lon="-7.2592517"><ele>391.0</ele><time>2026-04-14T15:13:46.9Z</time></trkpt><trkpt lat="42.544885" lon="-7.2593817"><ele>391.0</ele><time>2026-04-14T15:13:47.901Z</time></trkpt><trkpt lat="42.5449183" lon="-7.25952"><ele>391.0</ele><time>2026-04-14T15:13:48.901Z</time></trkpt><trkpt lat="42.5449317" lon="-7.2596667"><ele>391.0</ele><time>2026-04-14T15:13:49.901Z</time></trkpt><trkpt lat="42.54493" lon="-7.259815"><ele>391.0</ele><time>2026-04-14T15:13:50.9Z</time></trkpt><trkpt lat="42.5449133" lon="-7.2599783"><ele>392.5</ele><time>2026-04-14T15:13:51.9Z</time></trkpt><trkpt lat="42.54488" lon="-7.260135"><ele>394.0</ele><time>2026-04-14T15:13:52.9Z</time></trkpt><trkpt lat="42.5448483" lon="-7.2602867"><ele>395.5</ele><time>2026-04-14T15:13:53.9Z</time></trkpt><trkpt lat="42.544815" lon="-7.2604417"><ele>397.0</ele><time>2026-04-14T15:13:54.9Z</time></trkpt><trkpt lat="42.5447833" lon="-7.26058"><ele>393.5</ele><time>2026-04-14T15:13:55.9Z</time></trkpt><trkpt lat="42.544755" lon="-7.2607317"><ele>390.0</ele><time>2026-04-14T15:13:56.9Z</time></trkpt><trkpt lat="42.5447117" lon="-7.26087"><ele>386.5</ele><time>2026-04-14T15:13:57.901Z</time></trkpt><trkpt lat="42.5446533" lon="-7.2610133"><ele>383.0</ele><time>2026-04-14T15:13:58.901Z</time></trkpt><trkpt lat="42.5445883" lon="-7.261145"><ele>395.75</ele><time>2026-04-14T15:13:59.902Z</time></trkpt><trkpt lat="42.5445267" lon="-7.261275"><ele>408.5</ele><time>2026-04-14T15:14:00.901Z</time></trkpt><trkpt lat="42.5444767" lon="-7.2614233"><ele>421.25</ele><time>2026-04-14T15:14:01.902Z</time></trkpt><trkpt lat="42.54443" lon="-7.2615767"><ele>434.0</ele><time>2026-04-14T15:14:02.902Z</time></trkpt><trkpt lat="42.5443933" lon="-7.26174"><ele>434.0</ele><time>2026-04-14T15:14:03.901Z</time></trkpt><trkpt lat="42.544355" lon="-7.2619083"><ele>434.0</ele><time>2026-04-14T15:14:04.902Z</time></trkpt><trkpt lat="42.5443267" lon="-7.2620733"><ele>434.0</ele><time>2026-04-14T15:14:05.902Z</time></trkpt><trkpt lat="42.5442967" lon="-7.262245"><ele>434.0</ele><time>2026-04-14T15:14:06.901Z</time></trkpt><trkpt lat="42.54426" lon="-7.26241"><ele>430.75</ele><time>2026-04-14T15:14:07.902Z</time></trkpt><trkpt lat="42.54423" lon="-7.262575"><ele>427.5</ele><time>2026-04-14T15:14:08.902Z</time></trkpt><trkpt lat="42.5441983" lon="-7.2627367"><ele>424.25</ele><time>2026-04-14T15:14:09.902Z</time></trkpt><trkpt lat="42.5441667" lon="-7.2628983"><ele>421.0</ele><time>2026-04-14T15:14:10.901Z</time></trkpt><trkpt lat="42.5441317" lon="-7.2630517"><ele>418.75</ele><time>2026-04-14T15:14:11.902Z</time></trkpt><trkpt lat="42.5441033" lon="-7.2632067"><ele>416.5</ele><time>2026-04-14T15:14:12.902Z</time></trkpt><trkpt lat="42.5440717" lon="-7.2633633"><ele>414.25</ele><time>2026-04-14T15:14:13.901Z</time></trkpt><trkpt lat="42.5440217" lon="-7.2635317"><ele>412.0</ele><time>2026-04-14T15:14:14.901Z</time></trkpt><trkpt lat="42.5439867" lon="-7.2636883"><ele>412.0</ele><time>2026-04-14T15:14:15.902Z</time></trkpt><trkpt lat="42.5439367" lon="-7.2638483"><ele>412.0</ele><time>2026-04-14T15:14:16.902Z</time></trkpt><trkpt lat="42.5438817" lon="-7.2640083"><ele>412.0</ele><time>2026-04-14T15:14:17.901Z</time></trkpt><trkpt lat="42.54384" lon="-7.2641683"><ele>412.0</ele><time>2026-04-14T15:14:18.901Z</time></trkpt><trkpt lat="42.5437717" lon="-7.2643"><ele>416.6</ele><time>2026-04-14T15:14:19.901Z</time></trkpt><trkpt lat="42.5437033" lon="-7.2643917"><ele>421.20000000000005</ele><time>2026-04-14T15:14:20.901Z</time></trkpt><trkpt lat="42.5436133" lon="-7.264445"><ele>425.8</ele><time>2026-04-14T15:14:21.901Z</time></trkpt><trkpt lat="42.5435" lon="-7.2644683"><ele>430.4</ele><time>2026-04-14T15:14:22.901Z</time></trkpt><trkpt lat="42.5433667" lon="-7.26447"><ele>435.0</ele><time>2026-04-14T15:14:23.901Z</time></trkpt><trkpt lat="42.5432383" lon="-7.2644583"><ele>435.0</ele><time>2026-04-14T15:14:24.902Z</time></trkpt><trkpt lat="42.543115" lon="-7.264425"><ele>435.0</ele><time>2026-04-14T15:14:25.901Z</time></trkpt><trkpt lat="42.5429967" lon="-7.264385"><ele>435.0</ele><time>2026-04-14T15:14:26.901Z</time></trkpt><trkpt lat="42.5428867" lon="-7.264355"><ele>435.0</ele><time>2026-04-14T15:14:27.901Z</time></trkpt><trkpt lat="42.542775" lon="-7.26434"><ele>438.8</ele><time>2026-04-14T15:14:28.902Z</time></trkpt><trkpt lat="42.542665" lon="-7.2643233"><ele>442.6</ele><time>2026-04-14T15:14:29.901Z</time></trkpt><trkpt lat="42.54256" lon="-7.2643233"><ele>446.4</ele><time>2026-04-14T15:14:30.902Z</time></trkpt><trkpt lat="42.542445" lon="-7.26433"><ele>450.2</ele><time>2026-04-14T15:14:31.901Z</time></trkpt><trkpt lat="42.5423317" lon="-7.2643567"><ele>454.0</ele><time>2026-04-14T15:14:32.902Z</time></trkpt><trkpt lat="42.54222" lon="-7.26439"><ele>454.0</ele><time>2026-04-14T15:14:33.901Z</time></trkpt><trkpt lat="42.5421083" lon="-7.2644283"><ele>454.0</ele><time>2026-04-14T15:14:34.902Z</time></trkpt><trkpt lat="42.5419983" lon="-7.2644683"><ele>454.0</ele><time>2026-04-14T15:14:35.902Z</time></trkpt><trkpt lat="42.5418867" lon="-7.2645217"><ele>454.0</ele><time>2026-04-14T15:14:36.901Z</time></trkpt><trkpt lat="42.541775" lon="-7.2645917"><ele>452.0</ele><time>2026-04-14T15:14:37.901Z</time></trkpt><trkpt lat="42.5416633" lon="-7.2646633"><ele>450.0</ele><time>2026-04-14T15:14:38.902Z</time></trkpt><trkpt lat="42.54155" lon="-7.2647367"><ele>448.0</ele><time>2026-04-14T15:14:39.902Z</time></trkpt><trkpt lat="42.5414333" lon="-7.2648083"><ele>446.0</ele><time>2026-04-14T15:14:40.902Z</time></trkpt><trkpt lat="42.541325" lon="-7.2648733"><ele>446.0</ele><time>2026-04-14T15:14:41.901Z</time></trkpt><trkpt lat="42.5412283" lon="-7.2649367"><ele>446.0</ele><time>2026-04-14T15:14:42.901Z</time></trkpt><trkpt lat="42.5411333" lon="-7.2650083"><ele>446.0</ele><time>2026-04-14T15:14:43.901Z</time></trkpt><trkpt lat="42.541045" lon="-7.2651"><ele>446.0</ele><time>2026-04-14T15:14:44.901Z</time></trkpt><trkpt lat="42.540965" lon="-7.265195"><ele>446.0</ele><time>2026-04-14T15:14:45.902Z</time></trkpt><trkpt lat="42.5408933" lon="-7.2652983"><ele>450.4</ele><time>2026-04-14T15:14:46.902Z</time></trkpt><trkpt lat="42.5408283" lon="-7.2654"><ele>454.8</ele><time>2026-04-14T15:14:47.901Z</time></trkpt><trkpt lat="42.5407667" lon="-7.26552"><ele>459.19999999999993</ele><time>2026-04-14T15:14:48.901Z</time></trkpt><trkpt lat="42.5407067" lon="-7.265655"><ele>463.59999999999997</ele><time>2026-04-14T15:14:49.901Z</time></trkpt><trkpt lat="42.5406617" lon="-7.2658017"><ele>468.0</ele><time>2026-04-14T15:14:50.901Z</time></trkpt><trkpt lat="42.5406167" lon="-7.26595"><ele>468.0</ele><time>2026-04-14T15:14:51.901Z</time></trkpt><trkpt lat="42.5405867" lon="-7.2660933"><ele>468.0</ele><time>2026-04-14T15:14:52.901Z</time></trkpt><trkpt lat="42.5405633" lon="-7.2662533"><ele>468.0</ele><time>2026-04-14T15:14:53.902Z</time></trkpt><trkpt lat="42.5405383" lon="-7.266405"><ele>468.0</ele><time>2026-04-14T15:14:54.902Z</time></trkpt><trkpt lat="42.54051" lon="-7.2665567"><ele>466.79999999999995</ele><time>2026-04-14T15:14:55.901Z</time></trkpt><trkpt lat="42.5404733" lon="-7.2666917"><ele>465.59999999999997</ele><time>2026-04-14T15:14:56.902Z</time></trkpt><trkpt lat="42.5404133" lon="-7.266805"><ele>464.40000000000003</ele><time>2026-04-14T15:14:57.901Z</time></trkpt><trkpt lat="42.5403333" lon="-7.2668917"><ele>463.20000000000005</ele><time>2026-04-14T15:14:58.902Z</time></trkpt><trkpt lat="42.54024" lon="-7.2669133"><ele>462.0</ele><time>2026-04-14T15:14:59.901Z</time></trkpt><trkpt lat="42.5401267" lon="-7.2668983"><ele>467.75</ele><time>2026-04-14T15:15:00.901Z</time></trkpt><trkpt lat="42.540005" lon="-7.2668567"><ele>473.5</ele><time>2026-04-14T15:15:01.901Z</time></trkpt><trkpt lat="42.539875" lon="-7.2668167"><ele>479.25</ele><time>2026-04-14T15:15:02.902Z</time></trkpt><trkpt lat="42.5397367" lon="-7.2667983"><ele>485.0</ele><time>2026-04-14T15:15:03.901Z</time></trkpt><trkpt lat="42.539595" lon="-7.2667867"><ele>484.25</ele><time>2026-04-14T15:15:04.901Z</time></trkpt><trkpt lat="42.5394733" lon="-7.2667733"><ele>483.5</ele><time>2026-04-14T15:15:05.902Z</time></trkpt><trkpt lat="42.5393567" lon="-7.2667467"><ele>482.75</ele><time>2026-04-14T15:15:06.902Z</time></trkpt><trkpt lat="42.5392117" lon="-7.2666917"><ele>482.0</ele><time>2026-04-14T15:15:07.902Z</time></trkpt><trkpt lat="42.5390633" lon="-7.2665983"><ele>482.0</ele><time>2026-04-14T15:15:08.902Z</time></trkpt><trkpt lat="42.5389217" lon="-7.2665017"><ele>482.0</ele><time>2026-04-14T15:15:09.902Z</time></trkpt><trkpt lat="42.53879" lon="-7.2664183"><ele>482.0</ele><time>2026-04-14T15:15:10.902Z</time></trkpt><trkpt lat="42.5386767" lon="-7.2663867"><ele>482.0</ele><time>2026-04-14T15:15:11.902Z</time></trkpt><trkpt lat="42.53855" lon="-7.2664117"><ele>481.0</ele><time>2026-04-14T15:15:12.901Z</time></trkpt><trkpt lat="42.538425" lon="-7.2664567"><ele>480.0</ele><time>2026-04-14T15:15:13.901Z</time></trkpt><trkpt lat="42.5383" lon="-7.2664417"><ele>479.0</ele><time>2026-04-14T15:15:14.902Z</time></trkpt><trkpt lat="42.5381717" lon="-7.2663883"><ele>478.0</ele><time>2026-04-14T15:15:15.901Z</time></trkpt><trkpt lat="42.5380633" lon="-7.2662833"><ele>488.0</ele><time>2026-04-14T15:15:16.902Z</time></trkpt><trkpt lat="42.537955" lon="-7.2661483"><ele>498.0</ele><time>2026-04-14T15:15:17.901Z</time></trkpt><trkpt lat="42.5378267" lon="-7.2660117"><ele>508.0</ele><time>2026-04-14T15:15:18.902Z</time></trkpt><trkpt lat="42.5377" lon="-7.2659"><ele>508.0</ele><time>2026-04-14T15:15:19.902Z</time></trkpt><trkpt lat="42.5376067" lon="-7.26584"><ele>507.99999999999994</ele><time>2026-04-14T15:15:20.901Z</time></trkpt><trkpt lat="42.5375283" lon="-7.2658183"><ele>507.99999999999994</ele><time>2026-04-14T15:15:22.902Z</time></trkpt><trkpt lat="42.5376583" lon="-7.2657933"><ele>508.0</ele><time>2026-04-14T15:15:25.901Z</time></trkpt><trkpt lat="42.5377533" lon="-7.2658217"><ele>508.0</ele><time>2026-04-14T15:15:26.901Z</time></trkpt><trkpt lat="42.5378233" lon="-7.265835"><ele>508.0</ele><time>2026-04-14T15:15:28.901Z</time></trkpt><trkpt lat="42.5376583" lon="-7.2657933"><ele>507.99999999999994</ele><time>2026-04-14T15:15:25.901Z</time></trkpt><trkpt lat="42.5377533" lon="-7.2658217"><ele>507.99999999999994</ele><time>2026-04-14T15:15:26.901Z</time></trkpt><trkpt lat="42.5378233" lon="-7.265835"><ele>508.0</ele><time>2026-04-14T15:15:28.901Z</time></trkpt><trkpt lat="42.53791" lon="-7.26586"><ele>508.0</ele><time>2026-04-14T15:16:02.901Z</time></trkpt><trkpt lat="42.5380233" lon="-7.265895"><ele>509.0</ele><time>2026-04-14T15:16:04.902Z</time></trkpt><trkpt lat="42.5381" lon="-7.2659167"><ele>509.99999999999994</ele><time>2026-04-14T15:16:05.902Z</time></trkpt><trkpt lat="42.538185" lon="-7.26592"><ele>510.99999999999994</ele><time>2026-04-14T15:16:06.901Z</time></trkpt><trkpt lat="42.5382733" lon="-7.26591"><ele>512.0</ele><time>2026-04-14T15:16:07.901Z</time></trkpt><trkpt lat="42.5383733" lon="-7.2658917"><ele>513.0</ele><time>2026-04-14T15:16:08.901Z</time></trkpt><trkpt lat="42.53848" lon="-7.2658533"><ele>513.0</ele><time>2026-04-14T15:16:09.902Z</time></trkpt><trkpt lat="42.5385883" lon="-7.26579"><ele>513.0</ele><time>2026-04-14T15:16:10.901Z</time></trkpt><trkpt lat="42.5386917" lon="-7.2657133"><ele>513.0</ele><time>2026-04-14T15:16:11.901Z</time></trkpt><trkpt lat="42.53881" lon="-7.26564"><ele>513.0</ele><time>2026-04-14T15:16:12.902Z</time></trkpt><trkpt lat="42.5389433" lon="-7.2655867"><ele>521.0</ele><time>2026-04-14T15:16:13.902Z</time></trkpt><trkpt lat="42.539085" lon="-7.2655583"><ele>529.0</ele><time>2026-04-14T15:16:14.902Z</time></trkpt><trkpt lat="42.53923" lon="-7.26554"><ele>537.0</ele><time>2026-04-14T15:16:15.901Z</time></trkpt><trkpt lat="42.539355" lon="-7.265495"><ele>545.0</ele><time>2026-04-14T15:16:16.901Z</time></trkpt><trkpt lat="42.5394767" lon="-7.2654183"><ele>541.4</ele><time>2026-04-14T15:16:17.902Z</time></trkpt><trkpt lat="42.5395917" lon="-7.2653333"><ele>537.8</ele><time>2026-04-14T15:16:18.901Z</time></trkpt><trkpt lat="42.5396833" lon="-7.265245"><ele>534.2</ele><time>2026-04-14T15:16:19.901Z</time></trkpt><trkpt lat="42.53974" lon="-7.2651833"><ele>530.6</ele><time>2026-04-14T15:16:20.901Z</time></trkpt><trkpt lat="42.5397617" lon="-7.2650767"><ele>527.0</ele><time>2026-04-14T15:16:22.901Z</time></trkpt><trkpt lat="42.53968" lon="-7.2650683"><ele>527.0</ele><time>2026-04-14T15:16:24.902Z</time></trkpt><trkpt lat="42.5396033" lon="-7.2651017"><ele>527.0</ele><time>2026-04-14T15:16:25.902Z</time></trkpt><trkpt lat="42.5395167" lon="-7.2651333"><ele>527.0</ele><time>2026-04-14T15:16:26.901Z</time></trkpt><trkpt lat="42.5394233" lon="-7.2651583"><ele>527.0</ele><time>2026-04-14T15:16:27.901Z</time></trkpt><trkpt lat="42.5393233" lon="-7.2651583"><ele>527.0</ele><time>2026-04-14T15:16:28.902Z</time></trkpt><trkpt lat="42.5392133" lon="-7.2651467"><ele>531.5</ele><time>2026-04-14T15:16:29.901Z</time></trkpt><trkpt lat="42.5391083" lon="-7.265125"><ele>536.0</ele><time>2026-04-14T15:16:30.901Z</time></trkpt><trkpt lat="42.539" lon="-7.2651033"><ele>540.5</ele><time>2026-04-14T15:16:31.901Z</time></trkpt><trkpt lat="42.538875" lon="-7.2650817"><ele>545.0</ele><time>2026-04-14T15:16:32.901Z</time></trkpt><trkpt lat="42.5387367" lon="-7.2650733"><ele>546.25</ele><time>2026-04-14T15:16:33.901Z</time></trkpt><trkpt lat="42.5385917" lon="-7.2650683"><ele>547.5</ele><time>2026-04-14T15:16:34.901Z</time></trkpt><trkpt lat="42.5384367" lon="-7.265065"><ele>548.75</ele><time>2026-04-14T15:16:35.901Z</time></trkpt><trkpt lat="42.5382917" lon="-7.26504"><ele>550.0</ele><time>2026-04-14T15:16:36.901Z</time></trkpt><trkpt lat="42.5381767" lon="-7.2650033"><ele>550.0</ele><time>2026-04-14T15:16:37.901Z</time></trkpt><trkpt lat="42.538075" lon="-7.2649633"><ele>550.0</ele><time>2026-04-14T15:16:38.902Z</time></trkpt><trkpt lat="42.53798" lon="-7.26491"><ele>550.0</ele><time>2026-04-14T15:16:39.902Z</time></trkpt><trkpt lat="42.53789" lon="-7.2648533"><ele>550.0</ele><time>2026-04-14T15:16:40.901Z</time></trkpt><trkpt lat="42.537805" lon="-7.2648017"><ele>550.0</ele><time>2026-04-14T15:16:41.902Z</time></trkpt><trkpt lat="42.5377233" lon="-7.2647517"><ele>555.6666666666667</ele><time>2026-04-14T15:16:42.901Z</time></trkpt><trkpt lat="42.53764" lon="-7.264725"><ele>561.3333333333334</ele><time>2026-04-14T15:16:43.901Z</time></trkpt><trkpt lat="42.5375533" lon="-7.26471"><ele>567.0</ele><time>2026-04-14T15:16:44.902Z</time></trkpt><trkpt lat="42.5374617" lon="-7.2647033"><ele>572.6666666666666</ele><time>2026-04-14T15:16:45.901Z</time></trkpt><trkpt lat="42.537365" lon="-7.26471"><ele>578.3333333333333</ele><time>2026-04-14T15:16:46.901Z</time></trkpt><trkpt lat="42.53728" lon="-7.264715"><ele>584.0</ele><time>2026-04-14T15:16:47.901Z</time></trkpt><trkpt lat="42.5371933" lon="-7.264705"><ele>584.0</ele><time>2026-04-14T15:16:48.901Z</time></trkpt><trkpt lat="42.5370967" lon="-7.26468"><ele>584.0</ele><time>2026-04-14T15:16:49.901Z</time></trkpt><trkpt lat="42.5369917" lon="-7.2646417"><ele>584.0</ele><time>2026-04-14T15:16:50.901Z</time></trkpt><trkpt lat="42.53689" lon="-7.264605"><ele>584.0</ele><time>2026-04-14T15:16:51.901Z</time></trkpt><trkpt lat="42.5367967" lon="-7.2645767"><ele>584.0</ele><time>2026-04-14T15:16:52.902Z</time></trkpt><trkpt lat="42.5367017" lon="-7.26454"><ele>585.6</ele><time>2026-04-14T15:16:53.902Z</time></trkpt><trkpt lat="42.53662" lon="-7.2645033"><ele>587.2</ele><time>2026-04-14T15:16:54.901Z</time></trkpt><trkpt lat="42.5365467" lon="-7.264485"><ele>588.8000000000001</ele><time>2026-04-14T15:16:55.902Z</time></trkpt><trkpt lat="42.5364367" lon="-7.2645433"><ele>590.4</ele><time>2026-04-14T15:16:57.901Z</time></trkpt><trkpt lat="42.536405" lon="-7.2646617"><ele>592.0</ele><time>2026-04-14T15:16:58.901Z</time></trkpt><trkpt lat="42.5363733" lon="-7.2648067"><ele>592.0</ele><time>2026-04-14T15:16:59.902Z</time></trkpt><trkpt lat="42.536325" lon="-7.2649583"><ele>592.0</ele><time>2026-04-14T15:17:00.901Z</time></trkpt><trkpt lat="42.536245" lon="-7.2650833"><ele>592.0</ele><time>2026-04-14T15:17:01.901Z</time></trkpt><trkpt lat="42.5361317" lon="-7.2651667"><ele>592.0</ele><time>2026-04-14T15:17:02.901Z</time></trkpt><trkpt lat="42.5359983" lon="-7.2652383"><ele>592.0</ele><time>2026-04-14T15:17:03.902Z</time></trkpt><trkpt lat="42.5358483" lon="-7.2653283"><ele>592.0</ele><time>2026-04-14T15:17:04.902Z</time></trkpt><trkpt lat="42.5357" lon="-7.2654433"><ele>592.0</ele><time>2026-04-14T15:17:05.902Z</time></trkpt><trkpt lat="42.535555" lon="-7.2655367"><ele>592.0</ele><time>2026-04-14T15:17:06.901Z</time></trkpt><trkpt lat="42.5354067" lon="-7.2656083"><ele>592.0</ele><time>2026-04-14T15:17:07.901Z</time></trkpt><trkpt lat="42.535265" lon="-7.265665"><ele>592.0</ele><time>2026-04-14T15:17:08.901Z</time></trkpt><trkpt lat="42.5351467" lon="-7.2657067"><ele>592.0</ele><time>2026-04-14T15:17:09.902Z</time></trkpt><trkpt lat="42.535045" lon="-7.2657333"><ele>591.0</ele><time>2026-04-14T15:17:10.901Z</time></trkpt><trkpt lat="42.534945" lon="-7.2657283"><ele>590.0</ele><time>2026-04-14T15:17:11.901Z</time></trkpt><trkpt lat="42.5348533" lon="-7.26571"><ele>589.0</ele><time>2026-04-14T15:17:12.901Z</time></trkpt><trkpt lat="42.5347467" lon="-7.2656867"><ele>588.0</ele><time>2026-04-14T15:17:13.902Z</time></trkpt><trkpt lat="42.5346367" lon="-7.2656517"><ele>587.0</ele><time>2026-04-14T15:17:14.901Z</time></trkpt><trkpt lat="42.5345" lon="-7.265605"><ele>601.3333333333333</ele><time>2026-04-14T15:17:15.902Z</time></trkpt><trkpt lat="42.5343583" lon="-7.2655533"><ele>615.6666666666666</ele><time>2026-04-14T15:17:16.901Z</time></trkpt><trkpt lat="42.5342083" lon="-7.2655083"><ele>630.0</ele><time>2026-04-14T15:17:17.902Z</time></trkpt><trkpt lat="42.5340467" lon="-7.2654667"><ele>630.0</ele><time>2026-04-14T15:17:18.901Z</time></trkpt><trkpt lat="42.53388" lon="-7.2654083"><ele>630.0</ele><time>2026-04-14T15:17:19.901Z</time></trkpt><trkpt lat="42.53372" lon="-7.2653283"><ele>630.0</ele><time>2026-04-14T15:17:20.901Z</time></trkpt><trkpt lat="42.5335817" lon="-7.265245"><ele>628.25</ele><time>2026-04-14T15:17:21.901Z</time></trkpt><trkpt lat="42.53345" lon="-7.26517"><ele>626.5</ele><time>2026-04-14T15:17:22.902Z</time></trkpt><trkpt lat="42.5333433" lon="-7.2651117"><ele>624.75</ele><time>2026-04-14T15:17:23.902Z</time></trkpt><trkpt lat="42.533245" lon="-7.2650383"><ele>623.0</ele><time>2026-04-14T15:17:24.901Z</time></trkpt><trkpt lat="42.533145" lon="-7.2649567"><ele>623.0</ele><time>2026-04-14T15:17:25.901Z</time></trkpt><trkpt lat="42.5330517" lon="-7.2648783"><ele>623.0</ele><time>2026-04-14T15:17:26.901Z</time></trkpt><trkpt lat="42.5329783" lon="-7.26482"><ele>623.0</ele><time>2026-04-14T15:17:27.901Z</time></trkpt><trkpt lat="42.53292" lon="-7.2647717"><ele>623.0</ele><time>2026-04-14T15:17:28.902Z</time></trkpt><trkpt lat="42.5364367" lon="-7.2645433"><ele>616.8</ele><time>2026-04-14T15:16:57.901Z</time></trkpt><trkpt lat="42.536405" lon="-7.2646617"><ele>610.5999999999999</ele><time>2026-04-14T15:16:58.901Z</time></trkpt><trkpt lat="42.5363733" lon="-7.2648067"><ele>604.4000000000001</ele><time>2026-04-14T15:16:59.902Z</time></trkpt><trkpt lat="42.536325" lon="-7.2649583"><ele>598.2</ele><time>2026-04-14T15:17:00.901Z</time></trkpt><trkpt lat="42.536245" lon="-7.2650833"><ele>592.0</ele><time>2026-04-14T15:17:01.901Z</time></trkpt><trkpt lat="42.5361317" lon="-7.2651667"><ele>592.0</ele><time>2026-04-14T15:17:02.901Z</time></trkpt><trkpt lat="42.5359983" lon="-7.2652383"><ele>592.0</ele><time>2026-04-14T15:17:03.902Z</time></trkpt><trkpt lat="42.5358483" lon="-7.2653283"><ele>592.0</ele><time>2026-04-14T15:17:04.902Z</time></trkpt><trkpt lat="42.5357" lon="-7.2654433"><ele>592.0</ele><time>2026-04-14T15:17:05.902Z</time></trkpt><trkpt lat="42.535555" lon="-7.2655367"><ele>592.0</ele><time>2026-04-14T15:17:06.901Z</time></trkpt><trkpt lat="42.5354067" lon="-7.2656083"><ele>592.0</ele><time>2026-04-14T15:17:07.901Z</time></trkpt><trkpt lat="42.535265" lon="-7.265665"><ele>591.0</ele><time>2026-04-14T15:17:08.901Z</time></trkpt><trkpt lat="42.5351467" lon="-7.2657067"><ele>590.0</ele><time>2026-04-14T15:17:09.902Z</time></trkpt><trkpt lat="42.535045" lon="-7.2657333"><ele>589.0</ele><time>2026-04-14T15:17:10.901Z</time></trkpt><trkpt lat="42.534945" lon="-7.2657283"><ele>588.0</ele><time>2026-04-14T15:17:11.901Z</time></trkpt><trkpt lat="42.5348533" lon="-7.26571"><ele>587.0</ele><time>2026-04-14T15:17:12.901Z</time></trkpt><trkpt lat="42.5347467" lon="-7.2656867"><ele>587.0</ele><time>2026-04-14T15:17:13.902Z</time></trkpt><trkpt lat="42.5346367" lon="-7.2656517"><ele>587.0</ele><time>2026-04-14T15:17:14.901Z</time></trkpt><trkpt lat="42.5345" lon="-7.265605"><ele>587.0</ele><time>2026-04-14T15:17:15.902Z</time></trkpt><trkpt lat="42.5343583" lon="-7.2655533"><ele>587.0</ele><time>2026-04-14T15:17:16.901Z</time></trkpt><trkpt lat="42.5342083" lon="-7.2655083"><ele>599.0</ele><time>2026-04-14T15:17:17.902Z</time></trkpt><trkpt lat="42.5340467" lon="-7.2654667"><ele>611.0</ele><time>2026-04-14T15:17:18.901Z</time></trkpt><trkpt lat="42.53388" lon="-7.2654083"><ele>623.0</ele><time>2026-04-14T15:17:19.901Z</time></trkpt><trkpt lat="42.53372" lon="-7.2653283"><ele>623.0</ele><time>2026-04-14T15:17:20.901Z</time></trkpt><trkpt lat="42.5335817" lon="-7.265245"><ele>623.0</ele><time>2026-04-14T15:17:21.901Z</time></trkpt><trkpt lat="42.53345" lon="-7.26517"><ele>623.0</ele><time>2026-04-14T15:17:22.902Z</time></trkpt><trkpt lat="42.5333433" lon="-7.2651117"><ele>623.0</ele><time>2026-04-14T15:17:23.902Z</time></trkpt><trkpt lat="42.533245" lon="-7.2650383"><ele>623.0</ele><time>2026-04-14T15:17:24.901Z</time></trkpt><trkpt lat="42.533145" lon="-7.2649567"><ele>623.0</ele><time>2026-04-14T15:17:25.901Z</time></trkpt><trkpt lat="42.5330517" lon="-7.2648783"><ele>623.0</ele><time>2026-04-14T15:17:26.901Z</time></trkpt><trkpt lat="42.5329783" lon="-7.26482"><ele>623.0</ele><time>2026-04-14T15:17:27.901Z</time></trkpt><trkpt lat="42.53292" lon="-7.2647717"><ele>623.0</ele><time>2026-04-14T15:17:28.902Z</time></trkpt><trkpt lat="42.53281" lon="-7.26466"><ele>625.8</ele><time>2026-04-14T15:17:30.902Z</time></trkpt><trkpt lat="42.53274" lon="-7.26458"><ele>628.5999999999999</ele><time>2026-04-14T15:17:31.902Z</time></trkpt><trkpt lat="42.5326567" lon="-7.2644833"><ele>631.4000000000001</ele><time>2026-04-14T15:17:32.901Z</time></trkpt><trkpt lat="42.5325733" lon="-7.2643767"><ele>634.2</ele><time>2026-04-14T15:17:33.902Z</time></trkpt><trkpt lat="42.5324767" lon="-7.2642617"><ele>637.0</ele><time>2026-04-14T15:17:34.902Z</time></trkpt><trkpt lat="42.53238" lon="-7.2641467"><ele>637.0</ele><time>2026-04-14T15:17:35.901Z</time></trkpt><trkpt lat="42.5322733" lon="-7.2640317"><ele>637.0</ele><time>2026-04-14T15:17:36.901Z</time></trkpt><trkpt lat="42.5321567" lon="-7.2639217"><ele>637.0</ele><time>2026-04-14T15:17:37.902Z</time></trkpt><trkpt lat="42.53203" lon="-7.263815"><ele>637.0</ele><time>2026-04-14T15:17:38.901Z</time></trkpt><trkpt lat="42.53191" lon="-7.2636983"><ele>640.75</ele><time>2026-04-14T15:17:39.901Z</time></trkpt><trkpt lat="42.531785" lon="-7.2635867"><ele>644.5</ele><time>2026-04-14T15:17:40.902Z</time></trkpt><trkpt lat="42.531655" lon="-7.263485"><ele>648.25</ele><time>2026-04-14T15:17:41.901Z</time></trkpt><trkpt lat="42.5315217" lon="-7.263395"><ele>652.0</ele><time>2026-04-14T15:17:42.902Z</time></trkpt><trkpt lat="42.5313867" lon="-7.2633117"><ele>652.0</ele><time>2026-04-14T15:17:43.901Z</time></trkpt><trkpt lat="42.5312567" lon="-7.2632467"><ele>652.0</ele><time>2026-04-14T15:17:44.902Z</time></trkpt><trkpt lat="42.5311283" lon="-7.26318"><ele>652.0</ele><time>2026-04-14T15:17:45.902Z</time></trkpt><trkpt lat="42.53102" lon="-7.2630967"><ele>652.0</ele><time>2026-04-14T15:17:46.901Z</time></trkpt><trkpt lat="42.53091" lon="-7.262995"><ele>658.0</ele><time>2026-04-14T15:17:47.901Z</time></trkpt><trkpt lat="42.5308017" lon="-7.2628883"><ele>664.0</ele><time>2026-04-14T15:17:48.902Z</time></trkpt><trkpt lat="42.53071" lon="-7.2627717"><ele>670.0</ele><time>2026-04-14T15:17:49.901Z</time></trkpt><trkpt lat="42.530595" lon="-7.2626483"><ele>676.0</ele><time>2026-04-14T15:17:50.902Z</time></trkpt><trkpt lat="42.5304783" lon="-7.2625267"><ele>679.75</ele><time>2026-04-14T15:17:51.902Z</time></trkpt><trkpt lat="42.5303767" lon="-7.2624167"><ele>683.5</ele><time>2026-04-14T15:17:52.902Z</time></trkpt><trkpt lat="42.5302717" lon="-7.262305"><ele>687.25</ele><time>2026-04-14T15:17:53.902Z</time></trkpt><trkpt lat="42.53017" lon="-7.26221"><ele>691.0</ele><time>2026-04-14T15:17:54.902Z</time></trkpt><trkpt lat="42.5300633" lon="-7.2621217"><ele>691.0</ele><time>2026-04-14T15:17:55.901Z</time></trkpt><trkpt lat="42.5299633" lon="-7.2620383"><ele>691.0</ele><time>2026-04-14T15:17:56.901Z</time></trkpt><trkpt lat="42.5298717" lon="-7.2619467"><ele>691.0</ele><time>2026-04-14T15:17:57.901Z</time></trkpt><trkpt lat="42.5297767" lon="-7.261865"><ele>691.0</ele><time>2026-04-14T15:17:58.901Z</time></trkpt><trkpt lat="42.5296833" lon="-7.2617833"><ele>691.0</ele><time>2026-04-14T15:17:59.901Z</time></trkpt><trkpt lat="42.5295867" lon="-7.2617"><ele>691.0</ele><time>2026-04-14T15:18:00.901Z</time></trkpt><trkpt lat="42.5295017" lon="-7.26162"><ele>691.0</ele><time>2026-04-14T15:18:01.902Z</time></trkpt><trkpt lat="42.5294" lon="-7.261545"><ele>691.0</ele><time>2026-04-14T15:18:02.901Z</time></trkpt><trkpt lat="42.5293033" lon="-7.2614683"><ele>691.0</ele><time>2026-04-14T15:18:03.902Z</time></trkpt><trkpt lat="42.5292217" lon="-7.26138"><ele>691.6666666666667</ele><time>2026-04-14T15:18:04.901Z</time></trkpt><trkpt lat="42.52916" lon="-7.261325"><ele>692.3333333333334</ele><time>2026-04-14T15:18:05.902Z</time></trkpt><trkpt lat="42.5290733" lon="-7.2613267"><ele>693.0</ele><time>2026-04-14T15:18:07.902Z</time></trkpt><trkpt lat="42.528995" lon="-7.26139"><ele>693.6666666666666</ele><time>2026-04-14T15:18:09.901Z</time></trkpt><trkpt lat="42.5289367" lon="-7.2614367"><ele>694.3333333333333</ele><time>2026-04-14T15:18:10.901Z</time></trkpt><trkpt lat="42.5288383" lon="-7.261515"><ele>695.0</ele><time>2026-04-14T15:18:11.901Z</time></trkpt><trkpt lat="42.5288083" lon="-7.26167"><ele>695.0</ele><time>2026-04-14T15:18:12.901Z</time></trkpt><trkpt lat="42.5287733" lon="-7.26176"><ele>695.0</ele><time>2026-04-14T15:18:13.902Z</time></trkpt><trkpt lat="42.5287417" lon="-7.2618683"><ele>695.0</ele><time>2026-04-14T15:18:14.902Z</time></trkpt><trkpt lat="42.52876" lon="-7.261995"><ele>695.0</ele><time>2026-04-14T15:18:15.901Z</time></trkpt><trkpt lat="42.52882" lon="-7.2624867"><ele>695.0</ele><time>2026-04-14T15:18:16.902Z</time></trkpt><trkpt lat="42.5288933" lon="-7.2627417"><ele>695.0</ele><time>2026-04-14T15:18:17.901Z</time></trkpt><trkpt lat="42.52896" lon="-7.2629767"><ele>695.0</ele><time>2026-04-14T15:18:18.902Z</time></trkpt><trkpt lat="42.528965" lon="-7.2631467"><ele>694.0</ele><time>2026-04-14T15:18:19.902Z</time></trkpt><trkpt lat="42.5289483" lon="-7.26331"><ele>693.0</ele><time>2026-04-14T15:18:20.901Z</time></trkpt><trkpt lat="42.52892" lon="-7.2634383"><ele>692.0</ele><time>2026-04-14T15:18:21.901Z</time></trkpt><trkpt lat="42.5288783" lon="-7.26353"><ele>691.0</ele><time>2026-04-14T15:18:22.901Z</time></trkpt><trkpt lat="42.52882" lon="-7.263635"><ele>690.0</ele><time>2026-04-14T15:18:23.901Z</time></trkpt><trkpt lat="42.5287483" lon="-7.263715"><ele>696.4</ele><time>2026-04-14T15:18:24.901Z</time></trkpt><trkpt lat="42.5286733" lon="-7.263785"><ele>702.8</ele><time>2026-04-14T15:18:25.901Z</time></trkpt><trkpt lat="42.528605" lon="-7.2638517"><ele>709.2</ele><time>2026-04-14T15:18:26.902Z</time></trkpt><trkpt lat="42.5285283" lon="-7.26391"><ele>715.6</ele><time>2026-04-14T15:18:27.902Z</time></trkpt><trkpt lat="42.5284483" lon="-7.2639767"><ele>722.0</ele><time>2026-04-14T15:18:28.902Z</time></trkpt><trkpt lat="42.5283617" lon="-7.2640483"><ele>722.0</ele><time>2026-04-14T15:18:29.901Z</time></trkpt><trkpt lat="42.5282683" lon="-7.2641083"><ele>722.0</ele><time>2026-04-14T15:18:30.901Z</time></trkpt><trkpt lat="42.5282017" lon="-7.2641817"><ele>722.0</ele><time>2026-04-14T15:18:31.902Z</time></trkpt><trkpt lat="42.5281533" lon="-7.2642583"><ele>722.0</ele><time>2026-04-14T15:18:32.902Z</time></trkpt><trkpt lat="42.5281017" lon="-7.26437"><ele>722.0</ele><time>2026-04-14T15:18:34.902Z</time></trkpt><trkpt lat="42.52817" lon="-7.26448"><ele>722.0</ele><time>2026-04-14T15:18:36.901Z</time></trkpt><trkpt lat="42.5282683" lon="-7.2645983"><ele>722.0</ele><time>2026-04-14T15:18:37.901Z</time></trkpt><trkpt lat="42.5283633" lon="-7.264715"><ele>722.0</ele><time>2026-04-14T15:18:38.901Z</time></trkpt><trkpt lat="42.52846" lon="-7.2648267"><ele>722.0</ele><time>2026-04-14T15:18:39.902Z</time></trkpt><trkpt lat="42.528555" lon="-7.264925"><ele>725.75</ele><time>2026-04-14T15:18:40.901Z</time></trkpt><trkpt lat="42.528655" lon="-7.2650133"><ele>729.5</ele><time>2026-04-14T15:18:41.901Z</time></trkpt><trkpt lat="42.5287633" lon="-7.2650933"><ele>733.25</ele><time>2026-04-14T15:18:42.902Z</time></trkpt><trkpt lat="42.5288767" lon="-7.26517"><ele>737.0</ele><time>2026-04-14T15:18:43.902Z</time></trkpt><trkpt lat="42.5289933" lon="-7.2652467"><ele>737.6</ele><time>2026-04-14T15:18:44.901Z</time></trkpt><trkpt lat="42.5291033" lon="-7.2653217"><ele>738.2</ele><time>2026-04-14T15:18:45.901Z</time></trkpt><trkpt lat="42.5291983" lon="-7.2654"><ele>738.8</ele><time>2026-04-14T15:18:46.902Z</time></trkpt><trkpt lat="42.5292933" lon="-7.2654783"><ele>739.4</ele><time>2026-04-14T15:18:47.901Z</time></trkpt><trkpt lat="42.5293817" lon="-7.2655467"><ele>740.0</ele><time>2026-04-14T15:18:48.901Z</time></trkpt><trkpt lat="42.529465" lon="-7.2656183"><ele>740.0</ele><time>2026-04-14T15:18:49.901Z</time></trkpt><trkpt lat="42.5295567" lon="-7.26569"><ele>740.0</ele><time>2026-04-14T15:18:50.901Z</time></trkpt><trkpt lat="42.529635" lon="-7.26576"><ele>740.0</ele><time>2026-04-14T15:18:51.902Z</time></trkpt><trkpt lat="42.52969" lon="-7.2658417"><ele>740.0</ele><time>2026-04-14T15:18:52.902Z</time></trkpt><trkpt lat="42.5297267" lon="-7.2659283"><ele>740.0</ele><time>2026-04-14T15:18:53.902Z</time></trkpt><trkpt lat="42.52971" lon="-7.2660783"><ele>739.6666666666666</ele><time>2026-04-14T15:18:55.902Z</time></trkpt><trkpt lat="42.5296533" lon="-7.2661417"><ele>739.3333333333334</ele><time>2026-04-14T15:18:56.902Z</time></trkpt><trkpt lat="42.52958" lon="-7.2661933"><ele>739.0</ele><time>2026-04-14T15:18:57.901Z</time></trkpt><trkpt lat="42.528605" lon="-7.2638517"><ele>739.0</ele><time>2026-04-14T15:18:26.902Z</time></trkpt><trkpt lat="42.5285283" lon="-7.26391"><ele>739.0</ele><time>2026-04-14T15:18:27.902Z</time></trkpt><trkpt lat="42.5284483" lon="-7.2639767"><ele>739.0</ele><time>2026-04-14T15:18:28.902Z</time></trkpt><trkpt lat="42.5283617" lon="-7.2640483"><ele>739.0</ele><time>2026-04-14T15:18:29.901Z</time></trkpt><trkpt lat="42.5282683" lon="-7.2641083"><ele>739.0</ele><time>2026-04-14T15:18:30.901Z</time></trkpt><trkpt lat="42.5282017" lon="-7.2641817"><ele>735.6</ele><time>2026-04-14T15:18:31.902Z</time></trkpt><trkpt lat="42.5281533" lon="-7.2642583"><ele>732.2</ele><time>2026-04-14T15:18:32.902Z</time></trkpt><trkpt lat="42.5281017" lon="-7.26437"><ele>728.8000000000001</ele><time>2026-04-14T15:18:34.902Z</time></trkpt><trkpt lat="42.52817" lon="-7.26448"><ele>725.4000000000001</ele><time>2026-04-14T15:18:36.901Z</time></trkpt><trkpt lat="42.5282683" lon="-7.2645983"><ele>722.0</ele><time>2026-04-14T15:18:37.901Z</time></trkpt><trkpt lat="42.5283633" lon="-7.264715"><ele>725.75</ele><time>2026-04-14T15:18:38.901Z</time></trkpt><trkpt lat="42.52846" lon="-7.2648267"><ele>729.5</ele><time>2026-04-14T15:18:39.902Z</time></trkpt><trkpt lat="42.528555" lon="-7.264925"><ele>733.25</ele><time>2026-04-14T15:18:40.901Z</time></trkpt><trkpt lat="42.528655" lon="-7.2650133"><ele>737.0</ele><time>2026-04-14T15:18:41.901Z</time></trkpt><trkpt lat="42.5287633" lon="-7.2650933"><ele>728.75</ele><time>2026-04-14T15:18:42.902Z</time></trkpt><trkpt lat="42.5288767" lon="-7.26517"><ele>720.5</ele><time>2026-04-14T15:18:43.902Z</time></trkpt><trkpt lat="42.5289933" lon="-7.2652467"><ele>712.25</ele><time>2026-04-14T15:18:44.901Z</time></trkpt><trkpt lat="42.5291033" lon="-7.2653217"><ele>704.0</ele><time>2026-04-14T15:18:45.901Z</time></trkpt><trkpt lat="42.5291983" lon="-7.2654"><ele>704.0</ele><time>2026-04-14T15:18:46.902Z</time></trkpt><trkpt lat="42.5292933" lon="-7.2654783"><ele>704.0</ele><time>2026-04-14T15:18:47.901Z</time></trkpt><trkpt lat="42.5293817" lon="-7.2655467"><ele>704.0</ele><time>2026-04-14T15:18:48.901Z</time></trkpt><trkpt lat="42.529465" lon="-7.2656183"><ele>704.0</ele><time>2026-04-14T15:18:49.901Z</time></trkpt><trkpt lat="42.5295567" lon="-7.26569"><ele>704.0</ele><time>2026-04-14T15:18:50.901Z</time></trkpt><trkpt lat="42.529635" lon="-7.26576"><ele>703.5</ele><time>2026-04-14T15:18:51.902Z</time></trkpt><trkpt lat="42.52969" lon="-7.2658417"><ele>703.0</ele><time>2026-04-14T15:18:52.902Z</time></trkpt><trkpt lat="42.5297267" lon="-7.2659283"><ele>702.5</ele><time>2026-04-14T15:18:53.902Z</time></trkpt><trkpt lat="42.52971" lon="-7.2660783"><ele>702.0</ele><time>2026-04-14T15:18:55.902Z</time></trkpt><trkpt lat="42.5296533" lon="-7.2661417"><ele>701.5</ele><time>2026-04-14T15:18:56.902Z</time></trkpt><trkpt lat="42.52958" lon="-7.2661933"><ele>701.0</ele><time>2026-04-14T15:18:57.901Z</time></trkpt><trkpt lat="42.5294567" lon="-7.2662567"><ele>708.75</ele><time>2026-04-14T15:18:58.901Z</time></trkpt><trkpt lat="42.5293267" lon="-7.2663283"><ele>716.5</ele><time>2026-04-14T15:18:59.902Z</time></trkpt><trkpt lat="42.5292167" lon="-7.2664117"><ele>724.25</ele><time>2026-04-14T15:19:00.901Z</time></trkpt><trkpt lat="42.5291133" lon="-7.2664983"><ele>732.0</ele><time>2026-04-14T15:19:01.902Z</time></trkpt><trkpt lat="42.5290117" lon="-7.2665933"><ele>732.0</ele><time>2026-04-14T15:19:02.902Z</time></trkpt><trkpt lat="42.528905" lon="-7.2666967"><ele>732.0</ele><time>2026-04-14T15:19:03.901Z</time></trkpt><trkpt lat="42.52881" lon="-7.2668033"><ele>732.0</ele><time>2026-04-14T15:19:04.902Z</time></trkpt><trkpt lat="42.528715" lon="-7.2668833"><ele>732.0</ele><time>2026-04-14T15:19:05.901Z</time></trkpt><trkpt lat="42.5286083" lon="-7.2669483"><ele>738.5</ele><time>2026-04-14T15:19:06.902Z</time></trkpt><trkpt lat="42.5284967" lon="-7.2669983"><ele>745.0</ele><time>2026-04-14T15:19:07.901Z</time></trkpt><trkpt lat="42.5283767" lon="-7.267035"><ele>751.5</ele><time>2026-04-14T15:19:08.902Z</time></trkpt><trkpt lat="42.5282517" lon="-7.2670683"><ele>758.0</ele><time>2026-04-14T15:19:09.901Z</time></trkpt><trkpt lat="42.52812" lon="-7.2670933"><ele>758.0</ele><time>2026-04-14T15:19:10.901Z</time></trkpt><trkpt lat="42.5279883" lon="-7.2671083"><ele>758.0</ele><time>2026-04-14T15:19:11.902Z</time></trkpt><trkpt lat="42.5278733" lon="-7.26715"><ele>758.0</ele><time>2026-04-14T15:19:12.901Z</time></trkpt><trkpt lat="42.5277783" lon="-7.26718"><ele>758.0</ele><time>2026-04-14T15:19:13.902Z</time></trkpt><trkpt lat="42.527715" lon="-7.26724"><ele>758.0</ele><time>2026-04-14T15:19:14.901Z</time></trkpt><trkpt lat="42.52767" lon="-7.267325"><ele>760.4</ele><time>2026-04-14T15:19:15.901Z</time></trkpt><trkpt lat="42.5276317" lon="-7.2674217"><ele>762.8</ele><time>2026-04-14T15:19:16.901Z</time></trkpt><trkpt lat="42.5276" lon="-7.267555"><ele>765.2</ele><time>2026-04-14T15:19:17.902Z</time></trkpt><trkpt lat="42.5275783" lon="-7.2677033"><ele>767.6</ele><time>2026-04-14T15:19:18.901Z</time></trkpt><trkpt lat="42.5275617" lon="-7.2678483"><ele>770.0</ele><time>2026-04-14T15:19:19.901Z</time></trkpt><trkpt lat="42.5275467" lon="-7.267975"><ele>770.0</ele><time>2026-04-14T15:19:20.901Z</time></trkpt><trkpt lat="42.52753" lon="-7.2680667"><ele>770.0</ele><time>2026-04-14T15:19:21.902Z</time></trkpt><trkpt lat="42.5275417" lon="-7.2678733"><ele>770.0</ele><time>2026-04-14T15:19:26.901Z</time></trkpt><trkpt lat="42.52756" lon="-7.2677317"><ele>770.0</ele><time>2026-04-14T15:19:27.902Z</time></trkpt><trkpt lat="42.5275683" lon="-7.26756"><ele>770.0</ele><time>2026-04-14T15:19:28.901Z</time></trkpt><trkpt lat="42.5275667" lon="-7.2673783"><ele>773.0</ele><time>2026-04-14T15:19:29.901Z</time></trkpt><trkpt lat="42.52756" lon="-7.2672067"><ele>776.0</ele><time>2026-04-14T15:19:30.902Z</time></trkpt><trkpt lat="42.52756" lon="-7.26705"><ele>779.0</ele><time>2026-04-14T15:19:31.902Z</time></trkpt><trkpt lat="42.5275833" lon="-7.2669317"><ele>782.0</ele><time>2026-04-14T15:19:32.902Z</time></trkpt><trkpt lat="42.5276583" lon="-7.2668533"><ele>785.0</ele><time>2026-04-14T15:19:33.902Z</time></trkpt><trkpt lat="42.5277767" lon="-7.26679"><ele>776.0</ele><time>2026-04-14T15:19:34.902Z</time></trkpt><trkpt lat="42.5279283" lon="-7.2666933"><ele>767.0</ele><time>2026-04-14T15:19:35.902Z</time></trkpt><trkpt lat="42.5280717" lon="-7.2665817"><ele>758.0</ele><time>2026-04-14T15:19:36.901Z</time></trkpt><trkpt lat="42.528195" lon="-7.26646"><ele>760.4</ele><time>2026-04-14T15:19:37.901Z</time></trkpt><trkpt lat="42.528305" lon="-7.2663483"><ele>762.8</ele><time>2026-04-14T15:19:38.901Z</time></trkpt><trkpt lat="42.528375" lon="-7.2662433"><ele>765.2</ele><time>2026-04-14T15:19:39.902Z</time></trkpt><trkpt lat="42.5284033" lon="-7.26615"><ele>767.6</ele><time>2026-04-14T15:19:40.901Z</time></trkpt><trkpt lat="42.52842" lon="-7.266065"><ele>770.0</ele><time>2026-04-14T15:19:41.902Z</time></trkpt><trkpt lat="42.528345" lon="-7.2660133"><ele>770.0</ele><time>2026-04-14T15:19:44.902Z</time></trkpt><trkpt lat="42.5282783" lon="-7.2660617"><ele>770.0</ele><time>2026-04-14T15:19:45.902Z</time></trkpt><trkpt lat="42.5281867" lon="-7.2661133"><ele>770.0</ele><time>2026-04-14T15:19:46.901Z</time></trkpt><trkpt lat="42.5280617" lon="-7.2661883"><ele>770.0</ele><time>2026-04-14T15:19:47.902Z</time></trkpt><trkpt lat="42.52791" lon="-7.26626"><ele>780.3333333333334</ele><time>2026-04-14T15:19:48.901Z</time></trkpt><trkpt lat="42.5277683" lon="-7.2663167"><ele>790.6666666666667</ele><time>2026-04-14T15:19:49.902Z</time></trkpt><trkpt lat="42.5276167" lon="-7.26637"><ele>801.0</ele><time>2026-04-14T15:19:50.902Z</time></trkpt><trkpt lat="42.5274617" lon="-7.2664333"><ele>797.0</ele><time>2026-04-14T15:19:51.901Z</time></trkpt><trkpt lat="42.5273267" lon="-7.2665"><ele>793.0</ele><time>2026-04-14T15:19:52.902Z</time></trkpt><trkpt lat="42.5271933" lon="-7.2665733"><ele>789.0</ele><time>2026-04-14T15:19:53.902Z</time></trkpt><trkpt lat="42.5270933" lon="-7.26667"><ele>785.0</ele><time>2026-04-14T15:19:54.901Z</time></trkpt><trkpt lat="42.5270083" lon="-7.266765"><ele>791.0</ele><time>2026-04-14T15:19:55.902Z</time></trkpt><trkpt lat="42.5269467" lon="-7.2668583"><ele>797.0</ele><time>2026-04-14T15:19:56.902Z</time></trkpt><trkpt lat="42.5268983" lon="-7.2669617"><ele>803.0</ele><time>2026-04-14T15:19:57.902Z</time></trkpt><trkpt lat="42.526875" lon="-7.267085"><ele>809.0</ele><time>2026-04-14T15:19:58.901Z</time></trkpt><trkpt lat="42.526875" lon="-7.2672517"><ele>815.0</ele><time>2026-04-14T15:19:59.902Z</time></trkpt><trkpt lat="42.526875" lon="-7.2674117"><ele>815.0</ele><time>2026-04-14T15:20:00.901Z</time></trkpt><trkpt lat="42.52686" lon="-7.2675633"><ele>815.0</ele><time>2026-04-14T15:20:01.902Z</time></trkpt><trkpt lat="42.52683" lon="-7.2677"><ele>815.0</ele><time>2026-04-14T15:20:02.901Z</time></trkpt><trkpt lat="42.5267867" lon="-7.26783"><ele>815.0</ele><time>2026-04-14T15:20:03.902Z</time></trkpt><trkpt lat="42.5267333" lon="-7.26795"><ele>815.0</ele><time>2026-04-14T15:20:04.902Z</time></trkpt><trkpt lat="42.5266783" lon="-7.2680733"><ele>812.25</ele><time>2026-04-14T15:20:05.901Z</time></trkpt><trkpt lat="42.52662" lon="-7.2682"><ele>809.5</ele><time>2026-04-14T15:20:06.902Z</time></trkpt><trkpt lat="42.526565" lon="-7.26833"><ele>806.75</ele><time>2026-04-14T15:20:07.902Z</time></trkpt><trkpt lat="42.5265017" lon="-7.2684533"><ele>804.0</ele><time>2026-04-14T15:20:08.902Z</time></trkpt><trkpt lat="42.5264167" lon="-7.2685917"><ele>804.0</ele><time>2026-04-14T15:20:09.902Z</time></trkpt><trkpt lat="42.526335" lon="-7.2687083"><ele>804.0</ele><time>2026-04-14T15:20:10.901Z</time></trkpt><trkpt lat="42.5262467" lon="-7.26881"><ele>804.0</ele><time>2026-04-14T15:20:11.902Z</time></trkpt><trkpt lat="42.5261517" lon="-7.2688983"><ele>804.0</ele><time>2026-04-14T15:20:12.901Z</time></trkpt><trkpt lat="42.52606" lon="-7.269"><ele>810.4000000000001</ele><time>2026-04-14T15:20:13.902Z</time></trkpt><trkpt lat="42.525975" lon="-7.2690883"><ele>816.8</ele><time>2026-04-14T15:20:14.902Z</time></trkpt><trkpt lat="42.5258983" lon="-7.2691867"><ele>823.2</ele><time>2026-04-14T15:20:15.901Z</time></trkpt><trkpt lat="42.52585" lon="-7.2692767"><ele>829.5999999999999</ele><time>2026-04-14T15:20:16.902Z</time></trkpt><trkpt lat="42.525845" lon="-7.2694267"><ele>836.0</ele><time>2026-04-14T15:20:18.902Z</time></trkpt><trkpt lat="42.5258933" lon="-7.269495"><ele>836.0000000000001</ele><time>2026-04-14T15:20:19.902Z</time></trkpt><trkpt lat="42.5259517" lon="-7.2695817"><ele>836.0</ele><time>2026-04-14T15:20:20.901Z</time></trkpt><trkpt lat="42.5259817" lon="-7.2696717"><ele>836.0</ele><time>2026-04-14T15:20:21.901Z</time></trkpt><trkpt lat="42.5259983" lon="-7.2697867"><ele>836.0</ele><time>2026-04-14T15:20:22.902Z</time></trkpt><trkpt lat="42.5259967" lon="-7.2698917"><ele>836.0000000000001</ele><time>2026-04-14T15:20:23.902Z</time></trkpt><trkpt lat="42.5259733" lon="-7.269995"><ele>836.0</ele><time>2026-04-14T15:20:24.902Z</time></trkpt><trkpt lat="42.5259267" lon="-7.2701033"><ele>785.0</ele><time>2026-04-14T15:20:25.901Z</time></trkpt><trkpt lat="42.5270933" lon="-7.26667"><ele>791.6</ele><time>2026-04-14T15:19:54.901Z</time></trkpt><trkpt lat="42.5270083" lon="-7.266765"><ele>798.2</ele><time>2026-04-14T15:19:55.902Z</time></trkpt><trkpt lat="42.5269467" lon="-7.2668583"><ele>804.8</ele><time>2026-04-14T15:19:56.902Z</time></trkpt><trkpt lat="42.5268983" lon="-7.2669617"><ele>811.4</ele><time>2026-04-14T15:19:57.902Z</time></trkpt><trkpt lat="42.526875" lon="-7.267085"><ele>818.0</ele><time>2026-04-14T15:19:58.901Z</time></trkpt><trkpt lat="42.526875" lon="-7.2672517"><ele>817.4</ele><time>2026-04-14T15:19:59.902Z</time></trkpt><trkpt lat="42.526875" lon="-7.2674117"><ele>816.8</ele><time>2026-04-14T15:20:00.901Z</time></trkpt><trkpt lat="42.52686" lon="-7.2675633"><ele>816.2</ele><time>2026-04-14T15:20:01.902Z</time></trkpt><trkpt lat="42.52683" lon="-7.2677"><ele>815.6</ele><time>2026-04-14T15:20:02.901Z</time></trkpt><trkpt lat="42.5267867" lon="-7.26783"><ele>815.0</ele><time>2026-04-14T15:20:03.902Z</time></trkpt><trkpt lat="42.5267333" lon="-7.26795"><ele>815.0</ele><time>2026-04-14T15:20:04.902Z</time></trkpt><trkpt lat="42.5266783" lon="-7.2680733"><ele>815.0</ele><time>2026-04-14T15:20:05.901Z</time></trkpt><trkpt lat="42.52662" lon="-7.2682"><ele>815.0</ele><time>2026-04-14T15:20:06.902Z</time></trkpt><trkpt lat="42.526565" lon="-7.26833"><ele>815.0</ele><time>2026-04-14T15:20:07.902Z</time></trkpt><trkpt lat="42.5265017" lon="-7.2684533"><ele>815.0</ele><time>2026-04-14T15:20:08.902Z</time></trkpt><trkpt lat="42.5264167" lon="-7.2685917"><ele>812.25</ele><time>2026-04-14T15:20:09.902Z</time></trkpt><trkpt lat="42.526335" lon="-7.2687083"><ele>809.5</ele><time>2026-04-14T15:20:10.901Z</time></trkpt><trkpt lat="42.5262467" lon="-7.26881"><ele>806.75</ele><time>2026-04-14T15:20:11.902Z</time></trkpt><trkpt lat="42.5261517" lon="-7.2688983"><ele>804.0</ele><time>2026-04-14T15:20:12.901Z</time></trkpt><trkpt lat="42.52606" lon="-7.269"><ele>810.4000000000001</ele><time>2026-04-14T15:20:13.902Z</time></trkpt><trkpt lat="42.525975" lon="-7.2690883"><ele>816.8</ele><time>2026-04-14T15:20:14.902Z</time></trkpt><trkpt lat="42.5258983" lon="-7.2691867"><ele>823.2</ele><time>2026-04-14T15:20:15.901Z</time></trkpt><trkpt lat="42.52585" lon="-7.2692767"><ele>829.5999999999999</ele><time>2026-04-14T15:20:16.902Z</time></trkpt><trkpt lat="42.525845" lon="-7.2694267"><ele>836.0</ele><time>2026-04-14T15:20:18.902Z</time></trkpt><trkpt lat="42.5258933" lon="-7.269495"><ele>836.0000000000001</ele><time>2026-04-14T15:20:19.902Z</time></trkpt><trkpt lat="42.5259517" lon="-7.2695817"><ele>836.0</ele><time>2026-04-14T15:20:20.901Z</time></trkpt><trkpt lat="42.5259817" lon="-7.2696717"><ele>836.0</ele><time>2026-04-14T15:20:21.901Z</time></trkpt><trkpt lat="42.5259983" lon="-7.2697867"><ele>836.0</ele><time>2026-04-14T15:20:22.902Z</time></trkpt><trkpt lat="42.5259967" lon="-7.2698917"><ele>836.0000000000001</ele><time>2026-04-14T15:20:23.902Z</time></trkpt><trkpt lat="42.5259733" lon="-7.269995"><ele>836.0</ele><time>2026-04-14T15:20:24.902Z</time></trkpt><trkpt lat="42.5259267" lon="-7.2701033"><ele>836.6666666666667</ele><time>2026-04-14T15:20:25.901Z</time></trkpt><trkpt lat="42.52587" lon="-7.2702233"><ele>837.3333333333334</ele><time>2026-04-14T15:20:26.901Z</time></trkpt><trkpt lat="42.5258417" lon="-7.2703133"><ele>838.0</ele><time>2026-04-14T15:20:27.901Z</time></trkpt><trkpt lat="42.5258167" lon="-7.270395"><ele>838.6666666666667</ele><time>2026-04-14T15:20:28.901Z</time></trkpt><trkpt lat="42.5258017" lon="-7.2704833"><ele>839.3333333333334</ele><time>2026-04-14T15:20:29.902Z</time></trkpt><trkpt lat="42.5258267" lon="-7.2706017"><ele>840.0</ele><time>2026-04-14T15:20:30.902Z</time></trkpt><trkpt lat="42.525885" lon="-7.2707417"><ele>844.0</ele><time>2026-04-14T15:20:31.902Z</time></trkpt><trkpt lat="42.5260017" lon="-7.270955"><ele>848.0</ele><time>2026-04-14T15:20:32.901Z</time></trkpt><trkpt lat="42.52612" lon="-7.2711283"><ele>852.0</ele><time>2026-04-14T15:20:33.901Z</time></trkpt><trkpt lat="42.526225" lon="-7.2712917"><ele>853.3333333333333</ele><time>2026-04-14T15:20:34.901Z</time></trkpt><trkpt lat="42.5263317" lon="-7.2714617"><ele>854.6666666666666</ele><time>2026-04-14T15:20:35.902Z</time></trkpt><trkpt lat="42.526445" lon="-7.271595"><ele>856.0</ele><time>2026-04-14T15:20:36.902Z</time></trkpt><trkpt lat="42.5265717" lon="-7.27172"><ele>856.0</ele><time>2026-04-14T15:20:37.902Z</time></trkpt><trkpt lat="42.5266883" lon="-7.27185"><ele>856.0</ele><time>2026-04-14T15:20:38.901Z</time></trkpt><trkpt lat="42.5268017" lon="-7.2719983"><ele>856.0</ele><time>2026-04-14T15:20:39.902Z</time></trkpt><trkpt lat="42.5268933" lon="-7.272135"><ele>856.0</ele><time>2026-04-14T15:20:40.902Z</time></trkpt><trkpt lat="42.52696" lon="-7.2722767"><ele>856.0</ele><time>2026-04-14T15:20:41.901Z</time></trkpt><trkpt lat="42.52701" lon="-7.2723917"><ele>855.9999999999999</ele><time>2026-04-14T15:20:42.902Z</time></trkpt><trkpt lat="42.5269233" lon="-7.2723383"><ele>855.9999999999999</ele><time>2026-04-14T15:20:47.901Z</time></trkpt><trkpt lat="42.5268183" lon="-7.2722583"><ele>856.0</ele><time>2026-04-14T15:20:49.902Z</time></trkpt><trkpt lat="42.5267533" lon="-7.2722217"><ele>856.0</ele><time>2026-04-14T15:20:50.902Z</time></trkpt><trkpt lat="42.52668" lon="-7.2722167"><ele>856.0</ele><time>2026-04-14T15:20:51.901Z</time></trkpt><trkpt lat="42.5265833" lon="-7.272225"><ele>855.9999999999999</ele><time>2026-04-14T15:20:52.902Z</time></trkpt><trkpt lat="42.526495" lon="-7.27224"><ele>855.9999999999999</ele><time>2026-04-14T15:20:53.901Z</time></trkpt><trkpt lat="42.52638" lon="-7.2722833"><ele>856.0</ele><time>2026-04-14T15:20:54.902Z</time></trkpt><trkpt lat="42.526255" lon="-7.2723317"><ele>856.0</ele><time>2026-04-14T15:20:55.901Z</time></trkpt><trkpt lat="42.5261533" lon="-7.2723667"><ele>861.25</ele><time>2026-04-14T15:20:56.902Z</time></trkpt><trkpt lat="42.5260267" lon="-7.27244"><ele>866.5</ele><time>2026-04-14T15:20:57.901Z</time></trkpt><trkpt lat="42.52589" lon="-7.2725633"><ele>871.75</ele><time>2026-04-14T15:20:58.901Z</time></trkpt><trkpt lat="42.525785" lon="-7.2726233"><ele>877.0</ele><time>2026-04-14T15:20:59.902Z</time></trkpt><trkpt lat="42.52569" lon="-7.2726667"><ele>877.0</ele><time>2026-04-14T15:21:00.902Z</time></trkpt><trkpt lat="42.5256183" lon="-7.2727167"><ele>877.0</ele><time>2026-04-14T15:21:01.901Z</time></trkpt><trkpt lat="42.525555" lon="-7.27277"><ele>877.0</ele><time>2026-04-14T15:21:02.901Z</time></trkpt><trkpt lat="42.5253683" lon="-7.2728967"><ele>877.0</ele><time>2026-04-14T15:21:03.901Z</time></trkpt><trkpt lat="42.52527" lon="-7.273015"><ele>878.3333333333333</ele><time>2026-04-14T15:21:04.901Z</time></trkpt><trkpt lat="42.5252133" lon="-7.2731167"><ele>879.6666666666666</ele><time>2026-04-14T15:21:05.901Z</time></trkpt><trkpt lat="42.5251683" lon="-7.2732"><ele>881.0</ele><time>2026-04-14T15:21:06.901Z</time></trkpt><trkpt lat="42.5251167" lon="-7.2732967"><ele>882.3333333333333</ele><time>2026-04-14T15:21:07.902Z</time></trkpt><trkpt lat="42.5250683" lon="-7.2733883"><ele>883.6666666666666</ele><time>2026-04-14T15:21:08.901Z</time></trkpt><trkpt lat="42.5250117" lon="-7.27348"><ele>885.0</ele><time>2026-04-14T15:21:09.901Z</time></trkpt><trkpt lat="42.5249417" lon="-7.27358"><ele>885.0</ele><time>2026-04-14T15:21:10.901Z</time></trkpt><trkpt lat="42.5248717" lon="-7.2736767"><ele>885.0</ele><time>2026-04-14T15:21:11.902Z</time></trkpt><trkpt lat="42.5248" lon="-7.2737683"><ele>885.0</ele><time>2026-04-14T15:21:12.902Z</time></trkpt><trkpt lat="42.5247233" lon="-7.2738583"><ele>885.0</ele><time>2026-04-14T15:21:13.902Z</time></trkpt><trkpt lat="42.5246467" lon="-7.273955"><ele>885.0</ele><time>2026-04-14T15:21:14.902Z</time></trkpt><trkpt lat="42.5245733" lon="-7.274045"><ele>883.5</ele><time>2026-04-14T15:21:15.901Z</time></trkpt><trkpt lat="42.5245183" lon="-7.2741517"><ele>882.0</ele><time>2026-04-14T15:21:16.901Z</time></trkpt><trkpt lat="42.5244683" lon="-7.2742333"><ele>880.5</ele><time>2026-04-14T15:21:17.901Z</time></trkpt><trkpt lat="42.5244283" lon="-7.274315"><ele>879.0</ele><time>2026-04-14T15:21:18.901Z</time></trkpt><trkpt lat="42.5243833" lon="-7.274385"><ele>877.5</ele><time>2026-04-14T15:21:19.901Z</time></trkpt><trkpt lat="42.5243383" lon="-7.2744733"><ele>876.0</ele><time>2026-04-14T15:21:20.901Z</time></trkpt><trkpt lat="42.524295" lon="-7.274565"><ele>876.0</ele><time>2026-04-14T15:21:21.902Z</time></trkpt><trkpt lat="42.5242467" lon="-7.2746567"><ele>875.9999999999999</ele><time>2026-04-14T15:21:22.902Z</time></trkpt><trkpt lat="42.52419" lon="-7.2747417"><ele>875.9999999999999</ele><time>2026-04-14T15:21:23.901Z</time></trkpt><trkpt lat="42.5241317" lon="-7.27483"><ele>876.0</ele><time>2026-04-14T15:21:24.901Z</time></trkpt><trkpt lat="42.5240717" lon="-7.27494"><ele>876.0</ele><time>2026-04-14T15:21:25.902Z</time></trkpt><trkpt lat="42.524005" lon="-7.2750367"><ele>875.8</ele><time>2026-04-14T15:21:26.901Z</time></trkpt><trkpt lat="42.5239317" lon="-7.27513"><ele>875.5999999999999</ele><time>2026-04-14T15:21:27.901Z</time></trkpt><trkpt lat="42.5238583" lon="-7.275225"><ele>875.4</ele><time>2026-04-14T15:21:28.901Z</time></trkpt><trkpt lat="42.523785" lon="-7.2753267"><ele>875.2</ele><time>2026-04-14T15:21:29.901Z</time></trkpt><trkpt lat="42.52371" lon="-7.2754333"><ele>875.0</ele><time>2026-04-14T15:21:30.901Z</time></trkpt><trkpt lat="42.5236367" lon="-7.2755383"><ele>874.25</ele><time>2026-04-14T15:21:31.901Z</time></trkpt><trkpt lat="42.5235617" lon="-7.27564"><ele>873.5</ele><time>2026-04-14T15:21:32.902Z</time></trkpt><trkpt lat="42.52348" lon="-7.2757533"><ele>872.75</ele><time>2026-04-14T15:21:33.902Z</time></trkpt><trkpt lat="42.5233933" lon="-7.27587"><ele>872.0</ele><time>2026-04-14T15:21:34.902Z</time></trkpt><trkpt lat="42.52331" lon="-7.2759733"><ele>872.0000000000001</ele><time>2026-04-14T15:21:35.902Z</time></trkpt><trkpt lat="42.5232333" lon="-7.2760683"><ele>872.0</ele><time>2026-04-14T15:21:36.902Z</time></trkpt><trkpt lat="42.523165" lon="-7.2761567"><ele>872.0</ele><time>2026-04-14T15:21:37.902Z</time></trkpt><trkpt lat="42.5231" lon="-7.2762367"><ele>872.0</ele><time>2026-04-14T15:21:38.901Z</time></trkpt><trkpt lat="42.52304" lon="-7.2763033"><ele>872.0000000000001</ele><time>2026-04-14T15:21:39.901Z</time></trkpt><trkpt lat="42.5229867" lon="-7.27636"><ele>872.0</ele><time>2026-04-14T15:21:40.902Z</time></trkpt><trkpt lat="42.5242467" lon="-7.2746567"><ele>872.6</ele><time>2026-04-14T15:21:22.902Z</time></trkpt><trkpt lat="42.52419" lon="-7.2747417"><ele>873.2</ele><time>2026-04-14T15:21:23.901Z</time></trkpt><trkpt lat="42.5241317" lon="-7.27483"><ele>873.8</ele><time>2026-04-14T15:21:24.901Z</time></trkpt><trkpt lat="42.5240717" lon="-7.27494"><ele>874.4</ele><time>2026-04-14T15:21:25.902Z</time></trkpt><trkpt lat="42.524005" lon="-7.2750367"><ele>875.0</ele><time>2026-04-14T15:21:26.901Z</time></trkpt><trkpt lat="42.5239317" lon="-7.27513"><ele>875.0</ele><time>2026-04-14T15:21:27.901Z</time></trkpt><trkpt lat="42.5238583" lon="-7.275225"><ele>875.0</ele><time>2026-04-14T15:21:28.901Z</time></trkpt><trkpt lat="42.523785" lon="-7.2753267"><ele>875.0</ele><time>2026-04-14T15:21:29.901Z</time></trkpt><trkpt lat="42.52371" lon="-7.2754333"><ele>875.0</ele><time>2026-04-14T15:21:30.901Z</time></trkpt><trkpt lat="42.5236367" lon="-7.2755383"><ele>875.0</ele><time>2026-04-14T15:21:31.901Z</time></trkpt><trkpt lat="42.5235617" lon="-7.27564"><ele>874.25</ele><time>2026-04-14T15:21:32.902Z</time></trkpt><trkpt lat="42.52348" lon="-7.2757533"><ele>873.5</ele><time>2026-04-14T15:21:33.902Z</time></trkpt><trkpt lat="42.5233933" lon="-7.27587"><ele>872.75</ele><time>2026-04-14T15:21:34.902Z</time></trkpt><trkpt lat="42.52331" lon="-7.2759733"><ele>872.0</ele><time>2026-04-14T15:21:35.902Z</time></trkpt><trkpt lat="42.5232333" lon="-7.2760683"><ele>872.0000000000001</ele><time>2026-04-14T15:21:36.902Z</time></trkpt><trkpt lat="42.523165" lon="-7.2761567"><ele>872.0</ele><time>2026-04-14T15:21:37.902Z</time></trkpt><trkpt lat="42.5231" lon="-7.2762367"><ele>872.0</ele><time>2026-04-14T15:21:38.901Z</time></trkpt><trkpt lat="42.52304" lon="-7.2763033"><ele>872.0</ele><time>2026-04-14T15:21:39.901Z</time></trkpt><trkpt lat="42.5229867" lon="-7.27636"><ele>872.0000000000001</ele><time>2026-04-14T15:21:40.902Z</time></trkpt><trkpt lat="42.5229233" lon="-7.2764483"><ele>872.0</ele><time>2026-04-14T15:22:24.902Z</time></trkpt><trkpt lat="42.5228583" lon="-7.2764917"><ele>871.6</ele><time>2026-04-14T15:22:25.901Z</time></trkpt><trkpt lat="42.52277" lon="-7.2765483"><ele>871.2</ele><time>2026-04-14T15:22:26.902Z</time></trkpt><trkpt lat="42.522675" lon="-7.276615"><ele>870.8</ele><time>2026-04-14T15:22:27.902Z</time></trkpt><trkpt lat="42.5225867" lon="-7.2766833"><ele>870.4</ele><time>2026-04-14T15:22:28.902Z</time></trkpt><trkpt lat="42.5225017" lon="-7.276755"><ele>870.0</ele><time>2026-04-14T15:22:29.901Z</time></trkpt><trkpt lat="42.52242" lon="-7.2768367"><ele>870.0</ele><time>2026-04-14T15:22:30.901Z</time></trkpt><trkpt lat="42.5223367" lon="-7.2769183"><ele>870.0</ele><time>2026-04-14T15:22:31.901Z</time></trkpt><trkpt lat="42.5222517" lon="-7.2770217"><ele>870.0</ele><time>2026-04-14T15:22:32.901Z</time></trkpt><trkpt lat="42.52217" lon="-7.27712"><ele>870.0</ele><time>2026-04-14T15:22:33.901Z</time></trkpt><trkpt lat="42.5221017" lon="-7.27721"><ele>870.0</ele><time>2026-04-14T15:22:34.902Z</time></trkpt><trkpt lat="42.5220417" lon="-7.277295"><ele>868.6</ele><time>2026-04-14T15:22:35.901Z</time></trkpt><trkpt lat="42.5219817" lon="-7.2773983"><ele>867.2</ele><time>2026-04-14T15:22:36.901Z</time></trkpt><trkpt lat="42.52194" lon="-7.27751"><ele>865.8</ele><time>2026-04-14T15:22:37.902Z</time></trkpt><trkpt lat="42.521895" lon="-7.2776317"><ele>864.4</ele><time>2026-04-14T15:22:38.902Z</time></trkpt><trkpt lat="42.521845" lon="-7.2777617"><ele>863.0</ele><time>2026-04-14T15:22:39.902Z</time></trkpt><trkpt lat="42.5217917" lon="-7.2778883"><ele>863.0</ele><time>2026-04-14T15:22:40.902Z</time></trkpt><trkpt lat="42.5217267" lon="-7.2780017"><ele>863.0</ele><time>2026-04-14T15:22:41.901Z</time></trkpt><trkpt lat="42.5216517" lon="-7.278105"><ele>863.0</ele><time>2026-04-14T15:22:42.902Z</time></trkpt><trkpt lat="42.521565" lon="-7.278205"><ele>863.0</ele><time>2026-04-14T15:22:43.902Z</time></trkpt><trkpt lat="42.5214567" lon="-7.27831"><ele>861.6666666666667</ele><time>2026-04-14T15:22:44.901Z</time></trkpt><trkpt lat="42.5213267" lon="-7.27842"><ele>860.3333333333333</ele><time>2026-04-14T15:22:45.901Z</time></trkpt><trkpt lat="42.5211883" lon="-7.27854"><ele>859.0</ele><time>2026-04-14T15:22:46.901Z</time></trkpt><trkpt lat="42.5210417" lon="-7.278675"><ele>859.0</ele><time>2026-04-14T15:22:47.902Z</time></trkpt><trkpt lat="42.520895" lon="-7.2788317"><ele>859.0</ele><time>2026-04-14T15:22:48.901Z</time></trkpt><trkpt lat="42.520745" lon="-7.2789767"><ele>859.0</ele><time>2026-04-14T15:22:49.901Z</time></trkpt><trkpt lat="42.520595" lon="-7.27914"><ele>859.0</ele><time>2026-04-14T15:22:50.903Z</time></trkpt><trkpt lat="42.5204667" lon="-7.27932"><ele>859.0</ele><time>2026-04-14T15:22:51.903Z</time></trkpt><trkpt lat="42.5203567" lon="-7.279505"><ele>859.0</ele><time>2026-04-14T15:22:52.902Z</time></trkpt><trkpt lat="42.520255" lon="-7.2796833"><ele>859.3333333333333</ele><time>2026-04-14T15:22:53.902Z</time></trkpt><trkpt lat="42.52015" lon="-7.279845"><ele>859.6666666666667</ele><time>2026-04-14T15:22:54.903Z</time></trkpt><trkpt lat="42.520035" lon="-7.2799817"><ele>860.0</ele><time>2026-04-14T15:22:55.902Z</time></trkpt><trkpt lat="42.5199033" lon="-7.280095"><ele>860.0</ele><time>2026-04-14T15:22:56.903Z</time></trkpt><trkpt lat="42.51976" lon="-7.28019"><ele>860.0</ele><time>2026-04-14T15:22:57.903Z</time></trkpt><trkpt lat="42.519605" lon="-7.2802817"><ele>860.0</ele><time>2026-04-14T15:22:58.902Z</time></trkpt><trkpt lat="42.51944" lon="-7.280395"><ele>860.3333333333334</ele><time>2026-04-14T15:22:59.902Z</time></trkpt><trkpt lat="42.51928" lon="-7.280475"><ele>860.6666666666667</ele><time>2026-04-14T15:23:00.903Z</time></trkpt><trkpt lat="42.51912" lon="-7.2805517"><ele>861.0</ele><time>2026-04-14T15:23:01.902Z</time></trkpt><trkpt lat="42.5189483" lon="-7.2806433"><ele>859.3333333333333</ele><time>2026-04-14T15:23:02.903Z</time></trkpt><trkpt lat="42.5187867" lon="-7.2807617"><ele>857.6666666666666</ele><time>2026-04-14T15:23:03.903Z</time></trkpt><trkpt lat="42.5186317" lon="-7.2809"><ele>856.0</ele><time>2026-04-14T15:23:04.903Z</time></trkpt><trkpt lat="42.5184833" lon="-7.2810533"><ele>855.0</ele><time>2026-04-14T15:23:05.903Z</time></trkpt><trkpt lat="42.5183333" lon="-7.2812183"><ele>854.0</ele><time>2026-04-14T15:23:06.902Z</time></trkpt><trkpt lat="42.51821" lon="-7.28139"><ele>853.0</ele><time>2026-04-14T15:23:07.903Z</time></trkpt><trkpt lat="42.5180983" lon="-7.2815683"><ele>852.0</ele><time>2026-04-14T15:23:08.902Z</time></trkpt><trkpt lat="42.5180017" lon="-7.2817467"><ele>851.0</ele><time>2026-04-14T15:23:09.902Z</time></trkpt><trkpt lat="42.5179317" lon="-7.2819483"><ele>850.0</ele><time>2026-04-14T15:23:10.902Z</time></trkpt><trkpt lat="42.5178583" lon="-7.2821567"><ele>852.0</ele><time>2026-04-14T15:23:11.903Z</time></trkpt><trkpt lat="42.517785" lon="-7.282355"><ele>854.0</ele><time>2026-04-14T15:23:12.903Z</time></trkpt><trkpt lat="42.5177067" lon="-7.2825167"><ele>856.0</ele><time>2026-04-14T15:23:13.903Z</time></trkpt><trkpt lat="42.51762" lon="-7.2826583"><ele>858.0</ele><time>2026-04-14T15:23:14.902Z</time></trkpt><trkpt lat="42.5175233" lon="-7.28279"><ele>858.0</ele><time>2026-04-14T15:23:15.903Z</time></trkpt><trkpt lat="42.5174317" lon="-7.28293"><ele>858.0</ele><time>2026-04-14T15:23:16.902Z</time></trkpt><trkpt lat="42.5173217" lon="-7.283085"><ele>858.0</ele><time>2026-04-14T15:23:17.902Z</time></trkpt><trkpt lat="42.51721" lon="-7.2832367"><ele>857.6666666666667</ele><time>2026-04-14T15:23:18.902Z</time></trkpt><trkpt lat="42.5170917" lon="-7.2833917"><ele>857.3333333333334</ele><time>2026-04-14T15:23:19.902Z</time></trkpt><trkpt lat="42.516985" lon="-7.2835417"><ele>857.0</ele><time>2026-04-14T15:23:20.903Z</time></trkpt><trkpt lat="42.5168867" lon="-7.283685"><ele>857.0</ele><time>2026-04-14T15:23:21.902Z</time></trkpt><trkpt lat="42.5167933" lon="-7.2838333"><ele>857.0</ele><time>2026-04-14T15:23:22.902Z</time></trkpt><trkpt lat="42.5167067" lon="-7.2839983"><ele>857.0</ele><time>2026-04-14T15:23:23.903Z</time></trkpt><trkpt lat="42.516625" lon="-7.2841733"><ele>857.0</ele><time>2026-04-14T15:23:24.903Z</time></trkpt><trkpt lat="42.5165467" lon="-7.2843567"><ele>857.3333333333334</ele><time>2026-04-14T15:23:25.902Z</time></trkpt><trkpt lat="42.5164633" lon="-7.28456"><ele>857.6666666666667</ele><time>2026-04-14T15:23:26.903Z</time></trkpt><trkpt lat="42.5163833" lon="-7.2847583"><ele>858.0</ele><time>2026-04-14T15:23:27.903Z</time></trkpt><trkpt lat="42.5163" lon="-7.2849633"><ele>857.0</ele><time>2026-04-14T15:23:28.903Z</time></trkpt><trkpt lat="42.5162183" lon="-7.2851733"><ele>856.0</ele><time>2026-04-14T15:23:29.902Z</time></trkpt><trkpt lat="42.5161433" lon="-7.28538"><ele>855.0</ele><time>2026-04-14T15:23:30.903Z</time></trkpt><trkpt lat="42.5160767" lon="-7.2855833"><ele>856.0</ele><time>2026-04-14T15:23:31.902Z</time></trkpt><trkpt lat="42.51603" lon="-7.285775"><ele>857.0</ele><time>2026-04-14T15:23:32.902Z</time></trkpt><trkpt lat="42.5159867" lon="-7.285965"><ele>858.0</ele><time>2026-04-14T15:23:33.903Z</time></trkpt><trkpt lat="42.51596" lon="-7.28617"><ele>859.0</ele><time>2026-04-14T15:23:34.903Z</time></trkpt><trkpt lat="42.5159233" lon="-7.286355"><ele>859.0</ele><time>2026-04-14T15:23:35.903Z</time></trkpt><trkpt lat="42.5158883" lon="-7.2865333"><ele>859.0</ele><time>2026-04-14T15:23:36.902Z</time></trkpt><trkpt lat="42.51586" lon="-7.2867167"><ele>859.0</ele><time>2026-04-14T15:23:37.903Z</time></trkpt><trkpt lat="42.5158233" lon="-7.2869033"><ele>859.0</ele><time>2026-04-14T15:23:38.902Z</time></trkpt><trkpt lat="42.5157767" lon="-7.2870967"><ele>859.0</ele><time>2026-04-14T15:23:39.902Z</time></trkpt><trkpt lat="42.5157283" lon="-7.2872833"><ele>859.0</ele><time>2026-04-14T15:23:40.902Z</time></trkpt><trkpt lat="42.515665" lon="-7.2874767"><ele>859.0</ele><time>2026-04-14T15:23:41.903Z</time></trkpt><trkpt lat="42.5155967" lon="-7.28767"><ele>859.0</ele><time>2026-04-14T15:23:42.903Z</time></trkpt><trkpt lat="42.5155467" lon="-7.287865"><ele>859.0</ele><time>2026-04-14T15:23:43.903Z</time></trkpt><trkpt lat="42.5155" lon="-7.28806"><ele>859.0</ele><time>2026-04-14T15:23:44.902Z</time></trkpt><trkpt lat="42.5154683" lon="-7.2882633"><ele>858.3333333333333</ele><time>2026-04-14T15:23:45.903Z</time></trkpt><trkpt lat="42.5154417" lon="-7.2884683"><ele>857.6666666666667</ele><time>2026-04-14T15:23:46.903Z</time></trkpt><trkpt lat="42.5154117" lon="-7.2886733"><ele>857.0</ele><time>2026-04-14T15:23:47.902Z</time></trkpt><trkpt lat="42.5153767" lon="-7.2888933"><ele>857.0</ele><time>2026-04-14T15:23:48.902Z</time></trkpt><trkpt lat="42.5153417" lon="-7.2890933"><ele>857.0</ele><time>2026-04-14T15:23:49.902Z</time></trkpt><trkpt lat="42.5153083" lon="-7.2892933"><ele>857.0</ele><time>2026-04-14T15:23:50.903Z</time></trkpt><trkpt lat="42.5152783" lon="-7.2894867"><ele>857.0</ele><time>2026-04-14T15:23:51.902Z</time></trkpt><trkpt lat="42.516985" lon="-7.2835417"><ele>857.0</ele><time>2026-04-14T15:23:20.903Z</time></trkpt><trkpt lat="42.5168867" lon="-7.283685"><ele>857.0</ele><time>2026-04-14T15:23:21.902Z</time></trkpt><trkpt lat="42.5167933" lon="-7.2838333"><ele>857.0</ele><time>2026-04-14T15:23:22.902Z</time></trkpt><trkpt lat="42.5167067" lon="-7.2839983"><ele>857.0</ele><time>2026-04-14T15:23:23.903Z</time></trkpt><trkpt lat="42.516625" lon="-7.2841733"><ele>857.3333333333334</ele><time>2026-04-14T15:23:24.903Z</time></trkpt><trkpt lat="42.5165467" lon="-7.2843567"><ele>857.6666666666667</ele><time>2026-04-14T15:23:25.902Z</time></trkpt><trkpt lat="42.5164633" lon="-7.28456"><ele>858.0</ele><time>2026-04-14T15:23:26.903Z</time></trkpt><trkpt lat="42.5163833" lon="-7.2847583"><ele>857.0</ele><time>2026-04-14T15:23:27.903Z</time></trkpt><trkpt lat="42.5163" lon="-7.2849633"><ele>856.0</ele><time>2026-04-14T15:23:28.903Z</time></trkpt><trkpt lat="42.5162183" lon="-7.2851733"><ele>855.0</ele><time>2026-04-14T15:23:29.902Z</time></trkpt><trkpt lat="42.5161433" lon="-7.28538"><ele>855.0</ele><time>2026-04-14T15:23:30.903Z</time></trkpt><trkpt lat="42.5160767" lon="-7.2855833"><ele>855.0</ele><time>2026-04-14T15:23:31.902Z</time></trkpt><trkpt lat="42.51603" lon="-7.285775"><ele>855.0</ele><time>2026-04-14T15:23:32.902Z</time></trkpt><trkpt lat="42.5159867" lon="-7.285965"><ele>856.0</ele><time>2026-04-14T15:23:33.903Z</time></trkpt><trkpt lat="42.51596" lon="-7.28617"><ele>857.0</ele><time>2026-04-14T15:23:34.903Z</time></trkpt><trkpt lat="42.5159233" lon="-7.286355"><ele>858.0</ele><time>2026-04-14T15:23:35.903Z</time></trkpt><trkpt lat="42.5158883" lon="-7.2865333"><ele>859.0</ele><time>2026-04-14T15:23:36.902Z</time></trkpt><trkpt lat="42.51586" lon="-7.2867167"><ele>859.0</ele><time>2026-04-14T15:23:37.903Z</time></trkpt><trkpt lat="42.5158233" lon="-7.2869033"><ele>859.0</ele><time>2026-04-14T15:23:38.902Z</time></trkpt><trkpt lat="42.5157767" lon="-7.2870967"><ele>859.0</ele><time>2026-04-14T15:23:39.902Z</time></trkpt><trkpt lat="42.5157283" lon="-7.2872833"><ele>859.0</ele><time>2026-04-14T15:23:40.902Z</time></trkpt><trkpt lat="42.515665" lon="-7.2874767"><ele>859.0</ele><time>2026-04-14T15:23:41.903Z</time></trkpt><trkpt lat="42.5155967" lon="-7.28767"><ele>859.0</ele><time>2026-04-14T15:23:42.903Z</time></trkpt><trkpt lat="42.5155467" lon="-7.287865"><ele>859.0</ele><time>2026-04-14T15:23:43.903Z</time></trkpt><trkpt lat="42.5155" lon="-7.28806"><ele>858.3333333333333</ele><time>2026-04-14T15:23:44.902Z</time></trkpt><trkpt lat="42.5154683" lon="-7.2882633"><ele>857.6666666666667</ele><time>2026-04-14T15:23:45.903Z</time></trkpt><trkpt lat="42.5154417" lon="-7.2884683"><ele>857.0</ele><time>2026-04-14T15:23:46.903Z</time></trkpt><trkpt lat="42.5154117" lon="-7.2886733"><ele>855.3333333333334</ele><time>2026-04-14T15:23:47.902Z</time></trkpt><trkpt lat="42.5153767" lon="-7.2888933"><ele>853.6666666666667</ele><time>2026-04-14T15:23:48.902Z</time></trkpt><trkpt lat="42.5153417" lon="-7.2890933"><ele>852.0</ele><time>2026-04-14T15:23:49.902Z</time></trkpt><trkpt lat="42.5153083" lon="-7.2892933"><ele>851.5</ele><time>2026-04-14T15:23:50.903Z</time></trkpt><trkpt lat="42.5152783" lon="-7.2894867"><ele>851.0</ele><time>2026-04-14T15:23:51.902Z</time></trkpt><trkpt lat="42.5152483" lon="-7.28966"><ele>850.5</ele><time>2026-04-14T15:23:52.902Z</time></trkpt><trkpt lat="42.515215" lon="-7.2898433"><ele>850.0</ele><time>2026-04-14T15:23:53.902Z</time></trkpt><trkpt lat="42.5151783" lon="-7.2900167"><ele>848.75</ele><time>2026-04-14T15:23:54.903Z</time></trkpt><trkpt lat="42.5151467" lon="-7.2902083"><ele>847.5</ele><time>2026-04-14T15:23:55.902Z</time></trkpt><trkpt lat="42.51511" lon="-7.2904033"><ele>846.25</ele><time>2026-04-14T15:23:56.902Z</time></trkpt><trkpt lat="42.5150767" lon="-7.2906033"><ele>845.0</ele><time>2026-04-14T15:23:57.903Z</time></trkpt><trkpt lat="42.515045" lon="-7.2907983"><ele>844.0</ele><time>2026-04-14T15:23:58.903Z</time></trkpt><trkpt lat="42.5150133" lon="-7.2909983"><ele>843.0</ele><time>2026-04-14T15:23:59.902Z</time></trkpt><trkpt lat="42.5149767" lon="-7.2912083"><ele>842.0</ele><time>2026-04-14T15:24:00.902Z</time></trkpt><trkpt lat="42.51494" lon="-7.2914"><ele>841.2</ele><time>2026-04-14T15:24:01.902Z</time></trkpt><trkpt lat="42.5149133" lon="-7.2915583"><ele>840.4000000000001</ele><time>2026-04-14T15:24:02.902Z</time></trkpt><trkpt lat="42.5148883" lon="-7.2916833"><ele>839.5999999999999</ele><time>2026-04-14T15:24:03.902Z</time></trkpt><trkpt lat="42.514875" lon="-7.2918083"><ele>838.8</ele><time>2026-04-14T15:24:04.903Z</time></trkpt><trkpt lat="42.5148583" lon="-7.2919317"><ele>838.0</ele><time>2026-04-14T15:24:05.903Z</time></trkpt><trkpt lat="42.514845" lon="-7.2920633"><ele>838.0</ele><time>2026-04-14T15:24:06.902Z</time></trkpt><trkpt lat="42.51482" lon="-7.292205"><ele>838.0</ele><time>2026-04-14T15:24:07.903Z</time></trkpt><trkpt lat="42.5147933" lon="-7.292345"><ele>838.0</ele><time>2026-04-14T15:24:08.903Z</time></trkpt><trkpt lat="42.5147683" lon="-7.2925"><ele>838.0</ele><time>2026-04-14T15:24:09.903Z</time></trkpt><trkpt lat="42.5147467" lon="-7.292655"><ele>838.0</ele><time>2026-04-14T15:24:10.903Z</time></trkpt><trkpt lat="42.5147133" lon="-7.2928017"><ele>837.5999999999999</ele><time>2026-04-14T15:24:11.902Z</time></trkpt><trkpt lat="42.5146717" lon="-7.2929283"><ele>837.1999999999999</ele><time>2026-04-14T15:24:12.902Z</time></trkpt><trkpt lat="42.5146267" lon="-7.2930383"><ele>836.8</ele><time>2026-04-14T15:24:13.902Z</time></trkpt><trkpt lat="42.5145683" lon="-7.2931367"><ele>836.4</ele><time>2026-04-14T15:24:14.902Z</time></trkpt><trkpt lat="42.5145" lon="-7.2932383"><ele>836.0</ele><time>2026-04-14T15:24:15.903Z</time></trkpt><trkpt lat="42.51443" lon="-7.2933433"><ele>836.8</ele><time>2026-04-14T15:24:16.902Z</time></trkpt><trkpt lat="42.5143633" lon="-7.2934517"><ele>837.5999999999999</ele><time>2026-04-14T15:24:17.903Z</time></trkpt><trkpt lat="42.514295" lon="-7.2935617"><ele>838.4</ele><time>2026-04-14T15:24:18.903Z</time></trkpt><trkpt lat="42.5142383" lon="-7.293695"><ele>839.2</ele><time>2026-04-14T15:24:19.902Z</time></trkpt><trkpt lat="42.5141867" lon="-7.293835"><ele>840.0</ele><time>2026-04-14T15:24:20.903Z</time></trkpt><trkpt lat="42.5141367" lon="-7.2939867"><ele>840.5</ele><time>2026-04-14T15:24:21.903Z</time></trkpt><trkpt lat="42.5140817" lon="-7.2941433"><ele>841.0</ele><time>2026-04-14T15:24:22.902Z</time></trkpt><trkpt lat="42.5140333" lon="-7.2943067"><ele>841.5</ele><time>2026-04-14T15:24:23.903Z</time></trkpt><trkpt lat="42.514" lon="-7.2944733"><ele>842.0</ele><time>2026-04-14T15:24:24.902Z</time></trkpt><trkpt lat="42.513985" lon="-7.2946483"><ele>841.25</ele><time>2026-04-14T15:24:25.903Z</time></trkpt><trkpt lat="42.5139867" lon="-7.2948233"><ele>840.5</ele><time>2026-04-14T15:24:26.903Z</time></trkpt><trkpt lat="42.5139933" lon="-7.2949867"><ele>839.75</ele><time>2026-04-14T15:24:27.902Z</time></trkpt><trkpt lat="42.514" lon="-7.2951583"><ele>839.0</ele><time>2026-04-14T15:24:28.902Z</time></trkpt><trkpt lat="42.51401" lon="-7.2953383"><ele>839.0</ele><time>2026-04-14T15:24:29.902Z</time></trkpt><trkpt lat="42.51402" lon="-7.2954983"><ele>839.0</ele><time>2026-04-14T15:24:30.903Z</time></trkpt><trkpt lat="42.51405" lon="-7.29566"><ele>839.0</ele><time>2026-04-14T15:24:31.902Z</time></trkpt><trkpt lat="42.5140967" lon="-7.2958167"><ele>839.0</ele><time>2026-04-14T15:24:32.902Z</time></trkpt><trkpt lat="42.5141483" lon="-7.29598"><ele>838.5</ele><time>2026-04-14T15:24:33.903Z</time></trkpt><trkpt lat="42.5142067" lon="-7.296145"><ele>838.0</ele><time>2026-04-14T15:24:34.902Z</time></trkpt><trkpt lat="42.5142667" lon="-7.2963067"><ele>837.5</ele><time>2026-04-14T15:24:35.903Z</time></trkpt><trkpt lat="42.514325" lon="-7.296475"><ele>837.0</ele><time>2026-04-14T15:24:36.903Z</time></trkpt><trkpt lat="42.5143733" lon="-7.296625"><ele>837.0</ele><time>2026-04-14T15:24:37.902Z</time></trkpt><trkpt lat="42.5144133" lon="-7.296785"><ele>837.0</ele><time>2026-04-14T15:24:38.902Z</time></trkpt><trkpt lat="42.5144533" lon="-7.2969467"><ele>837.0</ele><time>2026-04-14T15:24:39.902Z</time></trkpt><trkpt lat="42.5144867" lon="-7.29712"><ele>837.0</ele><time>2026-04-14T15:24:40.902Z</time></trkpt><trkpt lat="42.514515" lon="-7.2972767"><ele>836.5</ele><time>2026-04-14T15:24:41.902Z</time></trkpt><trkpt lat="42.5145233" lon="-7.2974317"><ele>836.0</ele><time>2026-04-14T15:24:42.902Z</time></trkpt><trkpt lat="42.5145167" lon="-7.297595"><ele>835.5</ele><time>2026-04-14T15:24:43.903Z</time></trkpt><trkpt lat="42.5144983" lon="-7.2977583"><ele>835.0</ele><time>2026-04-14T15:24:44.903Z</time></trkpt><trkpt lat="42.51446" lon="-7.297915"><ele>835.0</ele><time>2026-04-14T15:24:45.902Z</time></trkpt><trkpt lat="42.5143933" lon="-7.2980767"><ele>835.0</ele><time>2026-04-14T15:24:46.903Z</time></trkpt><trkpt lat="42.5143133" lon="-7.2982417"><ele>835.0</ele><time>2026-04-14T15:24:47.902Z</time></trkpt><trkpt lat="42.5142333" lon="-7.298385"><ele>835.0</ele><time>2026-04-14T15:24:48.903Z</time></trkpt><trkpt lat="42.5141567" lon="-7.2985317"><ele>832.5</ele><time>2026-04-14T15:24:49.902Z</time></trkpt><trkpt lat="42.5140967" lon="-7.2986783"><ele>830.0</ele><time>2026-04-14T15:24:50.902Z</time></trkpt><trkpt lat="42.5140467" lon="-7.2988433"><ele>827.5</ele><time>2026-04-14T15:24:51.902Z</time></trkpt><trkpt lat="42.5140233" lon="-7.2990283"><ele>825.0</ele><time>2026-04-14T15:24:52.902Z</time></trkpt><trkpt lat="42.5139983" lon="-7.2992283"><ele>823.25</ele><time>2026-04-14T15:24:53.903Z</time></trkpt><trkpt lat="42.5139633" lon="-7.29943"><ele>821.5</ele><time>2026-04-14T15:24:54.902Z</time></trkpt><trkpt lat="42.5139317" lon="-7.2996133"><ele>819.75</ele><time>2026-04-14T15:24:55.902Z</time></trkpt><trkpt lat="42.5138683" lon="-7.2997883"><ele>818.0</ele><time>2026-04-14T15:24:56.903Z</time></trkpt><trkpt lat="42.5137983" lon="-7.2999517"><ele>819.25</ele><time>2026-04-14T15:24:57.902Z</time></trkpt><trkpt lat="42.5137233" lon="-7.3001233"><ele>820.5</ele><time>2026-04-14T15:24:58.903Z</time></trkpt><trkpt lat="42.5136517" lon="-7.300285"><ele>821.75</ele><time>2026-04-14T15:24:59.902Z</time></trkpt><trkpt lat="42.5135783" lon="-7.3004367"><ele>823.0</ele><time>2026-04-14T15:25:00.903Z</time></trkpt><trkpt lat="42.5134733" lon="-7.30058"><ele>819.3333333333333</ele><time>2026-04-14T15:25:01.902Z</time></trkpt><trkpt lat="42.5133467" lon="-7.3007083"><ele>815.6666666666667</ele><time>2026-04-14T15:25:02.903Z</time></trkpt><trkpt lat="42.5132" lon="-7.3008317"><ele>812.0</ele><time>2026-04-14T15:25:03.902Z</time></trkpt><trkpt lat="42.5130583" lon="-7.3009717"><ele>812.0</ele><time>2026-04-14T15:25:04.902Z</time></trkpt><trkpt lat="42.51292" lon="-7.30112"><ele>812.0</ele><time>2026-04-14T15:25:05.902Z</time></trkpt><trkpt lat="42.5127717" lon="-7.3012617"><ele>812.0</ele><time>2026-04-14T15:25:06.903Z</time></trkpt><trkpt lat="42.51263" lon="-7.3013967"><ele>809.0</ele><time>2026-04-14T15:25:07.902Z</time></trkpt><trkpt lat="42.51249" lon="-7.301505"><ele>806.0</ele><time>2026-04-14T15:25:08.902Z</time></trkpt><trkpt lat="42.51234" lon="-7.3016067"><ele>803.0</ele><time>2026-04-14T15:25:09.902Z</time></trkpt><trkpt lat="42.5121767" lon="-7.3017"><ele>803.6666666666667</ele><time>2026-04-14T15:25:10.902Z</time></trkpt><trkpt lat="42.51201" lon="-7.3017733"><ele>804.3333333333333</ele><time>2026-04-14T15:25:11.903Z</time></trkpt><trkpt lat="42.5118483" lon="-7.3018417"><ele>805.0</ele><time>2026-04-14T15:25:12.903Z</time></trkpt><trkpt lat="42.511705" lon="-7.3018967"><ele>805.0</ele><time>2026-04-14T15:25:13.903Z</time></trkpt><trkpt lat="42.511585" lon="-7.3019483"><ele>805.0</ele><time>2026-04-14T15:25:14.903Z</time></trkpt><trkpt lat="42.5114883" lon="-7.3020133"><ele>805.0</ele><time>2026-04-14T15:25:15.902Z</time></trkpt><trkpt lat="42.5114167" lon="-7.3021033"><ele>805.0</ele><time>2026-04-14T15:25:16.903Z</time></trkpt><trkpt lat="42.5113583" lon="-7.3022033"><ele>805.0</ele><time>2026-04-14T15:25:17.902Z</time></trkpt><trkpt lat="42.511305" lon="-7.302305"><ele>801.6666666666666</ele><time>2026-04-14T15:25:18.902Z</time></trkpt><trkpt lat="42.51125" lon="-7.30239"><ele>798.3333333333333</ele><time>2026-04-14T15:25:19.902Z</time></trkpt><trkpt lat="42.5111867" lon="-7.3024583"><ele>795.0</ele><time>2026-04-14T15:25:20.902Z</time></trkpt><trkpt lat="42.5142333" lon="-7.298385"><ele>800.75</ele><time>2026-04-14T15:24:48.903Z</time></trkpt><trkpt lat="42.5141567" lon="-7.2985317"><ele>806.5</ele><time>2026-04-14T15:24:49.902Z</time></trkpt><trkpt lat="42.5140967" lon="-7.2986783"><ele>812.25</ele><time>2026-04-14T15:24:50.902Z</time></trkpt><trkpt lat="42.5140467" lon="-7.2988433"><ele>818.0</ele><time>2026-04-14T15:24:51.902Z</time></trkpt><trkpt lat="42.5140233" lon="-7.2990283"><ele>818.0</ele><time>2026-04-14T15:24:52.902Z</time></trkpt><trkpt lat="42.5139983" lon="-7.2992283"><ele>818.0</ele><time>2026-04-14T15:24:53.903Z</time></trkpt><trkpt lat="42.5139633" lon="-7.29943"><ele>818.0</ele><time>2026-04-14T15:24:54.902Z</time></trkpt><trkpt lat="42.5139317" lon="-7.2996133"><ele>818.0</ele><time>2026-04-14T15:24:55.902Z</time></trkpt><trkpt lat="42.5138683" lon="-7.2997883"><ele>819.25</ele><time>2026-04-14T15:24:56.903Z</time></trkpt><trkpt lat="42.5137983" lon="-7.2999517"><ele>820.5</ele><time>2026-04-14T15:24:57.902Z</time></trkpt><trkpt lat="42.5137233" lon="-7.3001233"><ele>821.75</ele><time>2026-04-14T15:24:58.903Z</time></trkpt><trkpt lat="42.5136517" lon="-7.300285"><ele>823.0</ele><time>2026-04-14T15:24:59.902Z</time></trkpt><trkpt lat="42.5135783" lon="-7.3004367"><ele>823.0</ele><time>2026-04-14T15:25:00.903Z</time></trkpt><trkpt lat="42.5134733" lon="-7.30058"><ele>823.0</ele><time>2026-04-14T15:25:01.902Z</time></trkpt><trkpt lat="42.5133467" lon="-7.3007083"><ele>823.0</ele><time>2026-04-14T15:25:02.903Z</time></trkpt><trkpt lat="42.5132" lon="-7.3008317"><ele>821.0</ele><time>2026-04-14T15:25:03.902Z</time></trkpt><trkpt lat="42.5130583" lon="-7.3009717"><ele>819.0</ele><time>2026-04-14T15:25:04.902Z</time></trkpt><trkpt lat="42.51292" lon="-7.30112"><ele>817.0</ele><time>2026-04-14T15:25:05.902Z</time></trkpt><trkpt lat="42.5127717" lon="-7.3012617"><ele>817.0</ele><time>2026-04-14T15:25:06.903Z</time></trkpt><trkpt lat="42.51263" lon="-7.3013967"><ele>817.0</ele><time>2026-04-14T15:25:07.902Z</time></trkpt><trkpt lat="42.51249" lon="-7.301505"><ele>817.0</ele><time>2026-04-14T15:25:08.902Z</time></trkpt><trkpt lat="42.51234" lon="-7.3016067"><ele>813.0</ele><time>2026-04-14T15:25:09.902Z</time></trkpt><trkpt lat="42.5121767" lon="-7.3017"><ele>809.0</ele><time>2026-04-14T15:25:10.902Z</time></trkpt><trkpt lat="42.51201" lon="-7.3017733"><ele>805.0</ele><time>2026-04-14T15:25:11.903Z</time></trkpt><trkpt lat="42.5118483" lon="-7.3018417"><ele>805.0</ele><time>2026-04-14T15:25:12.903Z</time></trkpt><trkpt lat="42.511705" lon="-7.3018967"><ele>805.0</ele><time>2026-04-14T15:25:13.903Z</time></trkpt><trkpt lat="42.511585" lon="-7.3019483"><ele>805.0</ele><time>2026-04-14T15:25:14.903Z</time></trkpt><trkpt lat="42.5114883" lon="-7.3020133"><ele>805.0</ele><time>2026-04-14T15:25:15.902Z</time></trkpt><trkpt lat="42.5114167" lon="-7.3021033"><ele>804.9999999999999</ele><time>2026-04-14T15:25:16.903Z</time></trkpt><trkpt lat="42.5113583" lon="-7.3022033"><ele>805.0</ele><time>2026-04-14T15:25:17.902Z</time></trkpt><trkpt lat="42.511305" lon="-7.302305"><ele>805.0</ele><time>2026-04-14T15:25:18.902Z</time></trkpt><trkpt lat="42.51125" lon="-7.30239"><ele>805.0</ele><time>2026-04-14T15:25:19.902Z</time></trkpt><trkpt lat="42.5111867" lon="-7.3024583"><ele>804.9999999999999</ele><time>2026-04-14T15:25:20.902Z</time></trkpt><trkpt lat="42.5111117" lon="-7.30251"><ele>805.0</ele><time>2026-04-14T15:25:21.902Z</time></trkpt><trkpt lat="42.5110283" lon="-7.3025533"><ele>803.3333333333333</ele><time>2026-04-14T15:25:22.902Z</time></trkpt><trkpt lat="42.51094" lon="-7.3025833"><ele>801.6666666666666</ele><time>2026-04-14T15:25:23.903Z</time></trkpt><trkpt lat="42.5108517" lon="-7.3026"><ele>800.0</ele><time>2026-04-14T15:25:24.903Z</time></trkpt><trkpt lat="42.5107667" lon="-7.3026267"><ele>798.3333333333333</ele><time>2026-04-14T15:25:25.902Z</time></trkpt><trkpt lat="42.5106833" lon="-7.30264"><ele>796.6666666666666</ele><time>2026-04-14T15:25:26.902Z</time></trkpt><trkpt lat="42.5105917" lon="-7.30264"><ele>795.0</ele><time>2026-04-14T15:25:27.902Z</time></trkpt><trkpt lat="42.5105017" lon="-7.302625"><ele>795.0</ele><time>2026-04-14T15:25:28.902Z</time></trkpt><trkpt lat="42.5104233" lon="-7.302605"><ele>795.0</ele><time>2026-04-14T15:25:29.903Z</time></trkpt><trkpt lat="42.510335" lon="-7.302585"><ele>795.0</ele><time>2026-04-14T15:25:30.902Z</time></trkpt><trkpt lat="42.5102483" lon="-7.30256"><ele>795.0</ele><time>2026-04-14T15:25:31.903Z</time></trkpt><trkpt lat="42.5101683" lon="-7.302525"><ele>795.0</ele><time>2026-04-14T15:25:32.902Z</time></trkpt><trkpt lat="42.5101" lon="-7.3024983"><ele>795.0</ele><time>2026-04-14T15:25:33.903Z</time></trkpt><trkpt lat="42.5100033" lon="-7.3024517"><ele>794.8</ele><time>2026-04-14T15:25:35.902Z</time></trkpt><trkpt lat="42.5099117" lon="-7.3023683"><ele>794.6</ele><time>2026-04-14T15:25:37.903Z</time></trkpt><trkpt lat="42.5098117" lon="-7.3022567"><ele>794.4000000000001</ele><time>2026-04-14T15:25:39.903Z</time></trkpt><trkpt lat="42.5097583" lon="-7.3021917"><ele>794.2</ele><time>2026-04-14T15:25:40.902Z</time></trkpt><trkpt lat="42.5096933" lon="-7.302145"><ele>794.0</ele><time>2026-04-14T15:25:42.902Z</time></trkpt><trkpt lat="42.5096333" lon="-7.302195"><ele>793.2</ele><time>2026-04-14T15:25:44.902Z</time></trkpt><trkpt lat="42.509615" lon="-7.30237"><ele>792.4000000000001</ele><time>2026-04-14T15:25:46.902Z</time></trkpt><trkpt lat="42.50962" lon="-7.3024883"><ele>791.6</ele><time>2026-04-14T15:25:47.903Z</time></trkpt><trkpt lat="42.5096317" lon="-7.3026083"><ele>790.8</ele><time>2026-04-14T15:25:48.902Z</time></trkpt><trkpt lat="42.509645" lon="-7.30271"><ele>790.0</ele><time>2026-04-14T15:25:49.902Z</time></trkpt><trkpt lat="42.5096517" lon="-7.3028083"><ele>790.0</ele><time>2026-04-14T15:25:50.902Z</time></trkpt><trkpt lat="42.509655" lon="-7.3028983"><ele>790.0</ele><time>2026-04-14T15:25:51.902Z</time></trkpt><trkpt lat="42.5096433" lon="-7.3029883"><ele>790.0</ele><time>2026-04-14T15:25:52.902Z</time></trkpt><trkpt lat="42.5096167" lon="-7.3030733"><ele>790.0</ele><time>2026-04-14T15:25:53.902Z</time></trkpt><trkpt lat="42.5095783" lon="-7.3031567"><ele>790.0</ele><time>2026-04-14T15:25:54.902Z</time></trkpt><trkpt lat="42.5095333" lon="-7.30325"><ele>790.0</ele><time>2026-04-14T15:25:55.903Z</time></trkpt><trkpt lat="42.509485" lon="-7.3033383"><ele>790.0</ele><time>2026-04-14T15:25:56.903Z</time></trkpt><trkpt lat="42.5094283" lon="-7.303415"><ele>787.8333333333333</ele><time>2026-04-14T15:25:57.902Z</time></trkpt><trkpt lat="42.5093733" lon="-7.3034883"><ele>785.6666666666666</ele><time>2026-04-14T15:25:58.902Z</time></trkpt><trkpt lat="42.5093283" lon="-7.30356"><ele>783.5</ele><time>2026-04-14T15:25:59.903Z</time></trkpt><trkpt lat="42.509275" lon="-7.3036167"><ele>781.3333333333333</ele><time>2026-04-14T15:26:00.903Z</time></trkpt><trkpt lat="42.50919" lon="-7.3037233"><ele>779.1666666666666</ele><time>2026-04-14T15:26:02.902Z</time></trkpt><trkpt lat="42.5091383" lon="-7.3037767"><ele>777.0</ele><time>2026-04-14T15:26:03.902Z</time></trkpt><trkpt lat="42.5090567" lon="-7.3038683"><ele>776.4000000000001</ele><time>2026-04-14T15:26:05.903Z</time></trkpt><trkpt lat="42.5089817" lon="-7.3039733"><ele>775.8000000000001</ele><time>2026-04-14T15:26:07.902Z</time></trkpt><trkpt lat="42.508905" lon="-7.3040833"><ele>775.2</ele><time>2026-04-14T15:26:09.902Z</time></trkpt><trkpt lat="42.5088483" lon="-7.3041267"><ele>774.6</ele><time>2026-04-14T15:26:10.902Z</time></trkpt><trkpt lat="42.5087917" lon="-7.3041683"><ele>774.0</ele><time>2026-04-14T15:26:11.903Z</time></trkpt><trkpt lat="42.50872" lon="-7.30432"><ele>772.6</ele><time>2026-04-14T15:26:13.902Z</time></trkpt><trkpt lat="42.5087" lon="-7.3044267"><ele>771.2</ele><time>2026-04-14T15:26:14.903Z</time></trkpt><trkpt lat="42.5086883" lon="-7.30455"><ele>769.8000000000001</ele><time>2026-04-14T15:26:15.902Z</time></trkpt><trkpt lat="42.5086717" lon="-7.3046783"><ele>768.4000000000001</ele><time>2026-04-14T15:26:16.902Z</time></trkpt><trkpt lat="42.50865" lon="-7.30481"><ele>767.0</ele><time>2026-04-14T15:26:17.902Z</time></trkpt><trkpt lat="42.5086217" lon="-7.3049617"><ele>767.0</ele><time>2026-04-14T15:26:18.902Z</time></trkpt><trkpt lat="42.508595" lon="-7.3051067"><ele>767.0</ele><time>2026-04-14T15:26:19.902Z</time></trkpt><trkpt lat="42.5085733" lon="-7.3052333"><ele>767.0</ele><time>2026-04-14T15:26:20.902Z</time></trkpt><trkpt lat="42.5085567" lon="-7.3053583"><ele>767.0</ele><time>2026-04-14T15:26:21.902Z</time></trkpt><trkpt lat="42.5085483" lon="-7.30546"><ele>767.0</ele><time>2026-04-14T15:26:22.903Z</time></trkpt><trkpt lat="42.5085183" lon="-7.3055517"><ele>767.0</ele><time>2026-04-14T15:26:24.903Z</time></trkpt><trkpt lat="42.5084483" lon="-7.305595"><ele>767.0</ele><time>2026-04-14T15:26:26.903Z</time></trkpt><trkpt lat="42.5083233" lon="-7.3055767"><ele>767.0</ele><time>2026-04-14T15:26:28.902Z</time></trkpt><trkpt lat="42.5082483" lon="-7.3055717"><ele>767.0</ele><time>2026-04-14T15:26:29.903Z</time></trkpt><trkpt lat="42.50817" lon="-7.30559"><ele>767.0</ele><time>2026-04-14T15:26:30.903Z</time></trkpt><trkpt lat="42.5080817" lon="-7.3056283"><ele>767.0</ele><time>2026-04-14T15:26:31.902Z</time></trkpt><trkpt lat="42.507995" lon="-7.30568"><ele>765.2</ele><time>2026-04-14T15:26:32.903Z</time></trkpt><trkpt lat="42.5079067" lon="-7.305725"><ele>763.4000000000001</ele><time>2026-04-14T15:26:33.903Z</time></trkpt><trkpt lat="42.5078317" lon="-7.3057733"><ele>761.5999999999999</ele><time>2026-04-14T15:26:34.902Z</time></trkpt><trkpt lat="42.5077517" lon="-7.3058267"><ele>759.8</ele><time>2026-04-14T15:26:35.902Z</time></trkpt><trkpt lat="42.507665" lon="-7.305895"><ele>758.0</ele><time>2026-04-14T15:26:36.902Z</time></trkpt><trkpt lat="42.5075683" lon="-7.3059767"><ele>758.0</ele><time>2026-04-14T15:26:37.902Z</time></trkpt><trkpt lat="42.5074733" lon="-7.3060683"><ele>758.0</ele><time>2026-04-14T15:26:38.903Z</time></trkpt><trkpt lat="42.5073683" lon="-7.306165"><ele>758.0</ele><time>2026-04-14T15:26:39.902Z</time></trkpt><trkpt lat="42.507275" lon="-7.306245"><ele>758.0</ele><time>2026-04-14T15:26:40.903Z</time></trkpt><trkpt lat="42.5071867" lon="-7.3062883"><ele>758.0</ele><time>2026-04-14T15:26:41.903Z</time></trkpt><trkpt lat="42.5071167" lon="-7.3062817"><ele>755.5999999999999</ele><time>2026-04-14T15:26:42.902Z</time></trkpt><trkpt lat="42.50703" lon="-7.3061667"><ele>753.1999999999999</ele><time>2026-04-14T15:26:44.903Z</time></trkpt><trkpt lat="42.506995" lon="-7.3060517"><ele>750.8</ele><time>2026-04-14T15:26:45.902Z</time></trkpt><trkpt lat="42.50694" lon="-7.305915"><ele>748.4</ele><time>2026-04-14T15:26:46.903Z</time></trkpt><trkpt lat="42.5068783" lon="-7.30578"><ele>746.0</ele><time>2026-04-14T15:26:47.902Z</time></trkpt><trkpt lat="42.5067967" lon="-7.3056483"><ele>767.0</ele><time>2026-04-14T15:26:48.903Z</time></trkpt><trkpt lat="42.50865" lon="-7.30481"><ele>767.0</ele><time>2026-04-14T15:26:17.902Z</time></trkpt><trkpt lat="42.5086217" lon="-7.3049617"><ele>767.0</ele><time>2026-04-14T15:26:18.902Z</time></trkpt><trkpt lat="42.508595" lon="-7.3051067"><ele>767.0</ele><time>2026-04-14T15:26:19.902Z</time></trkpt><trkpt lat="42.5085733" lon="-7.3052333"><ele>767.0</ele><time>2026-04-14T15:26:20.902Z</time></trkpt><trkpt lat="42.5085567" lon="-7.3053583"><ele>767.0</ele><time>2026-04-14T15:26:21.902Z</time></trkpt><trkpt lat="42.5085483" lon="-7.30546"><ele>767.0</ele><time>2026-04-14T15:26:22.903Z</time></trkpt><trkpt lat="42.5085183" lon="-7.3055517"><ele>767.0</ele><time>2026-04-14T15:26:24.903Z</time></trkpt><trkpt lat="42.5084483" lon="-7.305595"><ele>767.0</ele><time>2026-04-14T15:26:26.903Z</time></trkpt><trkpt lat="42.5083233" lon="-7.3055767"><ele>767.0</ele><time>2026-04-14T15:26:28.902Z</time></trkpt><trkpt lat="42.5082483" lon="-7.3055717"><ele>767.0</ele><time>2026-04-14T15:26:29.903Z</time></trkpt><trkpt lat="42.50817" lon="-7.30559"><ele>767.0</ele><time>2026-04-14T15:26:30.903Z</time></trkpt><trkpt lat="42.5080817" lon="-7.3056283"><ele>766.4000000000001</ele><time>2026-04-14T15:26:31.902Z</time></trkpt><trkpt lat="42.507995" lon="-7.30568"><ele>765.8000000000001</ele><time>2026-04-14T15:26:32.903Z</time></trkpt><trkpt lat="42.5079067" lon="-7.305725"><ele>765.2</ele><time>2026-04-14T15:26:33.903Z</time></trkpt><trkpt lat="42.5078317" lon="-7.3057733"><ele>764.6</ele><time>2026-04-14T15:26:34.902Z</time></trkpt><trkpt lat="42.5077517" lon="-7.3058267"><ele>764.0</ele><time>2026-04-14T15:26:35.902Z</time></trkpt><trkpt lat="42.507665" lon="-7.305895"><ele>762.5</ele><time>2026-04-14T15:26:36.902Z</time></trkpt><trkpt lat="42.5075683" lon="-7.3059767"><ele>761.0</ele><time>2026-04-14T15:26:37.902Z</time></trkpt><trkpt lat="42.5074733" lon="-7.3060683"><ele>759.5</ele><time>2026-04-14T15:26:38.903Z</time></trkpt><trkpt lat="42.5073683" lon="-7.306165"><ele>758.0</ele><time>2026-04-14T15:26:39.902Z</time></trkpt><trkpt lat="42.507275" lon="-7.306245"><ele>758.0</ele><time>2026-04-14T15:26:40.903Z</time></trkpt><trkpt lat="42.5071867" lon="-7.3062883"><ele>758.0</ele><time>2026-04-14T15:26:41.903Z</time></trkpt><trkpt lat="42.5071167" lon="-7.3062817"><ele>758.0</ele><time>2026-04-14T15:26:42.902Z</time></trkpt><trkpt lat="42.50703" lon="-7.3061667"><ele>758.0</ele><time>2026-04-14T15:26:44.903Z</time></trkpt><trkpt lat="42.506995" lon="-7.3060517"><ele>758.0</ele><time>2026-04-14T15:26:45.902Z</time></trkpt><trkpt lat="42.50694" lon="-7.305915"><ele>755.5</ele><time>2026-04-14T15:26:46.903Z</time></trkpt><trkpt lat="42.5068783" lon="-7.30578"><ele>753.0</ele><time>2026-04-14T15:26:47.902Z</time></trkpt><trkpt lat="42.5067967" lon="-7.3056483"><ele>750.5</ele><time>2026-04-14T15:26:48.903Z</time></trkpt><trkpt lat="42.5067117" lon="-7.3055017"><ele>748.0</ele><time>2026-04-14T15:26:49.903Z</time></trkpt><trkpt lat="42.50663" lon="-7.305345"><ele>748.0</ele><time>2026-04-14T15:26:50.903Z</time></trkpt><trkpt lat="42.50657" lon="-7.305215"><ele>748.0</ele><time>2026-04-14T15:26:51.902Z</time></trkpt><trkpt lat="42.5065183" lon="-7.30511"><ele>748.0</ele><time>2026-04-14T15:26:52.902Z</time></trkpt><trkpt lat="42.5064567" lon="-7.30504"><ele>748.0</ele><time>2026-04-14T15:26:53.902Z</time></trkpt><trkpt lat="42.5063817" lon="-7.3049933"><ele>748.0</ele><time>2026-04-14T15:26:54.902Z</time></trkpt><trkpt lat="42.5062917" lon="-7.30495"><ele>745.8</ele><time>2026-04-14T15:26:55.902Z</time></trkpt><trkpt lat="42.5061967" lon="-7.3049017"><ele>743.5999999999999</ele><time>2026-04-14T15:26:56.903Z</time></trkpt><trkpt lat="42.5061017" lon="-7.304835"><ele>741.4000000000001</ele><time>2026-04-14T15:26:57.902Z</time></trkpt><trkpt lat="42.5060167" lon="-7.3047333"><ele>739.2</ele><time>2026-04-14T15:26:58.903Z</time></trkpt><trkpt lat="42.5059267" lon="-7.3046133"><ele>737.0</ele><time>2026-04-14T15:26:59.902Z</time></trkpt><trkpt lat="42.5058317" lon="-7.3044883"><ele>737.0</ele><time>2026-04-14T15:27:00.903Z</time></trkpt><trkpt lat="42.5057283" lon="-7.3043783"><ele>737.0</ele><time>2026-04-14T15:27:01.903Z</time></trkpt><trkpt lat="42.5056433" lon="-7.3042933"><ele>737.0</ele><time>2026-04-14T15:27:02.902Z</time></trkpt><trkpt lat="42.5055733" lon="-7.3042033"><ele>737.0</ele><time>2026-04-14T15:27:03.903Z</time></trkpt><trkpt lat="42.50551" lon="-7.30411"><ele>737.0</ele><time>2026-04-14T15:27:04.903Z</time></trkpt><trkpt lat="42.5054517" lon="-7.30402"><ele>737.1666666666666</ele><time>2026-04-14T15:27:05.902Z</time></trkpt><trkpt lat="42.5054" lon="-7.30393"><ele>737.3333333333333</ele><time>2026-04-14T15:27:06.903Z</time></trkpt><trkpt lat="42.5053633" lon="-7.3038533"><ele>737.5</ele><time>2026-04-14T15:27:07.903Z</time></trkpt><trkpt lat="42.505295" lon="-7.30378"><ele>737.6666666666666</ele><time>2026-04-14T15:27:09.903Z</time></trkpt><trkpt lat="42.505215" lon="-7.3038"><ele>737.8333333333334</ele><time>2026-04-14T15:27:11.902Z</time></trkpt><trkpt lat="42.5051933" lon="-7.3038933"><ele>738.0</ele><time>2026-04-14T15:27:13.903Z</time></trkpt><trkpt lat="42.5051367" lon="-7.3040683"><ele>738.0</ele><time>2026-04-14T15:27:15.902Z</time></trkpt><trkpt lat="42.5050867" lon="-7.3041983"><ele>738.0</ele><time>2026-04-14T15:27:16.902Z</time></trkpt><trkpt lat="42.5050433" lon="-7.304365"><ele>738.0</ele><time>2026-04-14T15:27:17.903Z</time></trkpt><trkpt lat="42.5050033" lon="-7.30449"><ele>738.0</ele><time>2026-04-14T15:27:18.903Z</time></trkpt><trkpt lat="42.50494" lon="-7.30464"><ele>736.8</ele><time>2026-04-14T15:27:19.903Z</time></trkpt><trkpt lat="42.5048767" lon="-7.304775"><ele>735.5999999999999</ele><time>2026-04-14T15:27:20.902Z</time></trkpt><trkpt lat="42.504825" lon="-7.3049"><ele>734.4000000000001</ele><time>2026-04-14T15:27:21.902Z</time></trkpt><trkpt lat="42.5047683" lon="-7.30501"><ele>733.2</ele><time>2026-04-14T15:27:22.902Z</time></trkpt><trkpt lat="42.504735" lon="-7.3051233"><ele>732.0</ele><time>2026-04-14T15:27:23.903Z</time></trkpt><trkpt lat="42.504705" lon="-7.3052583"><ele>732.0</ele><time>2026-04-14T15:27:24.902Z</time></trkpt><trkpt lat="42.50469" lon="-7.305385"><ele>732.0</ele><time>2026-04-14T15:27:25.903Z</time></trkpt><trkpt lat="42.5046867" lon="-7.30553"><ele>732.0</ele><time>2026-04-14T15:27:26.902Z</time></trkpt><trkpt lat="42.5046867" lon="-7.3056783"><ele>732.0</ele><time>2026-04-14T15:27:27.902Z</time></trkpt><trkpt lat="42.5046883" lon="-7.305825"><ele>732.0</ele><time>2026-04-14T15:27:28.902Z</time></trkpt><trkpt lat="42.5046933" lon="-7.30599"><ele>731.2</ele><time>2026-04-14T15:27:29.902Z</time></trkpt><trkpt lat="42.5046967" lon="-7.3061367"><ele>730.4000000000001</ele><time>2026-04-14T15:27:30.903Z</time></trkpt><trkpt lat="42.5046883" lon="-7.306285"><ele>729.5999999999999</ele><time>2026-04-14T15:27:31.902Z</time></trkpt><trkpt lat="42.5046733" lon="-7.3064417"><ele>728.8</ele><time>2026-04-14T15:27:32.903Z</time></trkpt><trkpt lat="42.50466" lon="-7.3065967"><ele>728.0</ele><time>2026-04-14T15:27:33.903Z</time></trkpt><trkpt lat="42.5046533" lon="-7.3067317"><ele>727.0</ele><time>2026-04-14T15:27:34.902Z</time></trkpt><trkpt lat="42.5046333" lon="-7.30684"><ele>726.0</ele><time>2026-04-14T15:27:35.903Z</time></trkpt><trkpt lat="42.5046217" lon="-7.3069517"><ele>725.0</ele><time>2026-04-14T15:27:36.902Z</time></trkpt><trkpt lat="42.5045867" lon="-7.30706"><ele>724.0</ele><time>2026-04-14T15:27:37.903Z</time></trkpt><trkpt lat="42.5045367" lon="-7.30717"><ele>723.0</ele><time>2026-04-14T15:27:38.903Z</time></trkpt><trkpt lat="42.5044717" lon="-7.3072683"><ele>722.0</ele><time>2026-04-14T15:27:39.902Z</time></trkpt><trkpt lat="42.50441" lon="-7.30737"><ele>724.4000000000001</ele><time>2026-04-14T15:27:40.902Z</time></trkpt><trkpt lat="42.5043333" lon="-7.3074583"><ele>726.8000000000001</ele><time>2026-04-14T15:27:41.902Z</time></trkpt><trkpt lat="42.5042483" lon="-7.30754"><ele>729.2</ele><time>2026-04-14T15:27:42.903Z</time></trkpt><trkpt lat="42.5041567" lon="-7.3076183"><ele>731.6</ele><time>2026-04-14T15:27:43.902Z</time></trkpt><trkpt lat="42.504065" lon="-7.30767"><ele>734.0</ele><time>2026-04-14T15:27:44.902Z</time></trkpt><trkpt lat="42.503975" lon="-7.3077133"><ele>734.0</ele><time>2026-04-14T15:27:45.902Z</time></trkpt><trkpt lat="42.50388" lon="-7.3077383"><ele>734.0</ele><time>2026-04-14T15:27:46.902Z</time></trkpt><trkpt lat="42.5037717" lon="-7.30775"><ele>734.0</ele><time>2026-04-14T15:27:47.902Z</time></trkpt><trkpt lat="42.5036433" lon="-7.30778"><ele>734.0</ele><time>2026-04-14T15:27:48.902Z</time></trkpt><trkpt lat="42.5035167" lon="-7.30781"><ele>738.25</ele><time>2026-04-14T15:27:49.903Z</time></trkpt><trkpt lat="42.5033867" lon="-7.3078433"><ele>742.5</ele><time>2026-04-14T15:27:50.902Z</time></trkpt><trkpt lat="42.503265" lon="-7.3078817"><ele>746.75</ele><time>2026-04-14T15:27:51.902Z</time></trkpt><trkpt lat="42.5031317" lon="-7.3079283"><ele>751.0</ele><time>2026-04-14T15:27:52.902Z</time></trkpt><trkpt lat="42.5030117" lon="-7.3079817"><ele>755.1999999999999</ele><time>2026-04-14T15:27:53.902Z</time></trkpt><trkpt lat="42.5028833" lon="-7.308045"><ele>759.4</ele><time>2026-04-14T15:27:54.902Z</time></trkpt><trkpt lat="42.502815" lon="-7.3081083"><ele>763.6</ele><time>2026-04-14T15:27:55.902Z</time></trkpt><trkpt lat="42.5027483" lon="-7.3082317"><ele>767.8</ele><time>2026-04-14T15:27:57.903Z</time></trkpt><trkpt lat="42.5027267" lon="-7.3083217"><ele>772.0</ele><time>2026-04-14T15:27:58.902Z</time></trkpt><trkpt lat="42.5027117" lon="-7.30842"><ele>772.0</ele><time>2026-04-14T15:27:59.902Z</time></trkpt><trkpt lat="42.5026983" lon="-7.3085283"><ele>772.0</ele><time>2026-04-14T15:28:00.902Z</time></trkpt><trkpt lat="42.5027717" lon="-7.308875"><ele>772.0</ele><time>2026-04-14T15:28:01.903Z</time></trkpt><trkpt lat="42.5027617" lon="-7.3090783"><ele>771.0</ele><time>2026-04-14T15:28:02.903Z</time></trkpt><trkpt lat="42.5027417" lon="-7.3092617"><ele>770.0</ele><time>2026-04-14T15:28:03.903Z</time></trkpt><trkpt lat="42.5027133" lon="-7.3094417"><ele>769.0</ele><time>2026-04-14T15:28:04.902Z</time></trkpt><trkpt lat="42.5026767" lon="-7.3096217"><ele>768.0</ele><time>2026-04-14T15:28:05.902Z</time></trkpt><trkpt lat="42.5026217" lon="-7.3097983"><ele>766.5999999999999</ele><time>2026-04-14T15:28:06.902Z</time></trkpt><trkpt lat="42.502575" lon="-7.309965"><ele>765.1999999999999</ele><time>2026-04-14T15:28:07.902Z</time></trkpt><trkpt lat="42.5025217" lon="-7.3101033"><ele>763.8</ele><time>2026-04-14T15:28:08.903Z</time></trkpt><trkpt lat="42.5024633" lon="-7.3102217"><ele>762.4</ele><time>2026-04-14T15:28:09.902Z</time></trkpt><trkpt lat="42.502395" lon="-7.31031"><ele>761.0</ele><time>2026-04-14T15:28:10.903Z</time></trkpt><trkpt lat="42.502315" lon="-7.3103667"><ele>761.0</ele><time>2026-04-14T15:28:11.902Z</time></trkpt><trkpt lat="42.50222" lon="-7.3104117"><ele>761.0</ele><time>2026-04-14T15:28:12.903Z</time></trkpt><trkpt lat="42.5020933" lon="-7.3104367"><ele>761.0</ele><time>2026-04-14T15:28:13.903Z</time></trkpt><trkpt lat="42.5019517" lon="-7.3104583"><ele>761.0</ele><time>2026-04-14T15:28:14.902Z</time></trkpt><trkpt lat="42.5018" lon="-7.3104683"><ele>763.0</ele><time>2026-04-14T15:28:15.903Z</time></trkpt><trkpt lat="42.5016483" lon="-7.3104783"><ele>765.0</ele><time>2026-04-14T15:28:16.902Z</time></trkpt><trkpt lat="42.501505" lon="-7.3104767"><ele>767.0</ele><time>2026-04-14T15:28:17.902Z</time></trkpt><trkpt lat="42.501365" lon="-7.3104733"><ele>769.0</ele><time>2026-04-14T15:28:18.902Z</time></trkpt><trkpt lat="42.5012167" lon="-7.3104583"><ele>769.0</ele><time>2026-04-14T15:28:19.902Z</time></trkpt><trkpt lat="42.501055" lon="-7.31044"><ele>769.0</ele><time>2026-04-14T15:28:20.903Z</time></trkpt><trkpt lat="42.500885" lon="-7.3104217"><ele>769.0</ele><time>2026-04-14T15:28:21.903Z</time></trkpt><trkpt lat="42.5007067" lon="-7.3104167"><ele>769.0</ele><time>2026-04-14T15:28:22.902Z</time></trkpt><trkpt lat="42.5005383" lon="-7.3104233"><ele>769.0</ele><time>2026-04-14T15:28:23.903Z</time></trkpt><trkpt lat="42.5003733" lon="-7.3104517"><ele>769.0</ele><time>2026-04-14T15:28:24.902Z</time></trkpt><trkpt lat="42.500205" lon="-7.310485"><ele>769.0</ele><time>2026-04-14T15:28:25.903Z</time></trkpt><trkpt lat="42.500055" lon="-7.3105267"><ele>769.0</ele><time>2026-04-14T15:28:26.903Z</time></trkpt><trkpt lat="42.4999" lon="-7.31057"><ele>769.0</ele><time>2026-04-14T15:28:27.902Z</time></trkpt><trkpt lat="42.49975" lon="-7.310595"><ele>766.25</ele><time>2026-04-14T15:28:28.902Z</time></trkpt><trkpt lat="42.4996033" lon="-7.31061"><ele>763.5</ele><time>2026-04-14T15:28:29.902Z</time></trkpt><trkpt lat="42.49947" lon="-7.3106383"><ele>760.75</ele><time>2026-04-14T15:28:30.902Z</time></trkpt><trkpt lat="42.49934" lon="-7.310655"><ele>758.0</ele><time>2026-04-14T15:28:31.902Z</time></trkpt><trkpt lat="42.49923" lon="-7.3106567"><ele>758.2</ele><time>2026-04-14T15:28:32.902Z</time></trkpt><trkpt lat="42.499125" lon="-7.3106217"><ele>758.4</ele><time>2026-04-14T15:28:33.902Z</time></trkpt><trkpt lat="42.4990283" lon="-7.31055"><ele>758.6</ele><time>2026-04-14T15:28:34.902Z</time></trkpt><trkpt lat="42.4989433" lon="-7.31045"><ele>758.8000000000001</ele><time>2026-04-14T15:28:35.902Z</time></trkpt><trkpt lat="42.4988633" lon="-7.3103367"><ele>759.0</ele><time>2026-04-14T15:28:36.902Z</time></trkpt><trkpt lat="42.4987967" lon="-7.310205"><ele>759.0</ele><time>2026-04-14T15:28:37.903Z</time></trkpt><trkpt lat="42.498755" lon="-7.3100167"><ele>759.0</ele><time>2026-04-14T15:28:38.902Z</time></trkpt><trkpt lat="42.49871" lon="-7.3098417"><ele>759.0</ele><time>2026-04-14T15:28:39.903Z</time></trkpt><trkpt lat="42.4986683" lon="-7.30965"><ele>759.0</ele><time>2026-04-14T15:28:40.903Z</time></trkpt><trkpt lat="42.4986233" lon="-7.309475"><ele>756.0</ele><time>2026-04-14T15:28:41.902Z</time></trkpt><trkpt lat="42.498585" lon="-7.3093267"><ele>753.0</ele><time>2026-04-14T15:28:42.902Z</time></trkpt><trkpt lat="42.498545" lon="-7.3092317"><ele>750.0</ele><time>2026-04-14T15:28:43.903Z</time></trkpt><trkpt lat="42.4984983" lon="-7.3091467"><ele>747.0</ele><time>2026-04-14T15:28:45.903Z</time></trkpt><trkpt lat="42.4984333" lon="-7.3091967"><ele>744.0</ele><time>2026-04-14T15:28:47.902Z</time></trkpt><trkpt lat="42.498325" lon="-7.3092833"><ele>769.0</ele><time>2026-04-14T15:28:49.903Z</time></trkpt><trkpt lat="42.501365" lon="-7.3104733"><ele>769.0</ele><time>2026-04-14T15:28:18.902Z</time></trkpt><trkpt lat="42.5012167" lon="-7.3104583"><ele>769.0</ele><time>2026-04-14T15:28:19.902Z</time></trkpt><trkpt lat="42.501055" lon="-7.31044"><ele>769.0</ele><time>2026-04-14T15:28:20.903Z</time></trkpt><trkpt lat="42.500885" lon="-7.3104217"><ele>769.0</ele><time>2026-04-14T15:28:21.903Z</time></trkpt><trkpt lat="42.5007067" lon="-7.3104167"><ele>769.0</ele><time>2026-04-14T15:28:22.902Z</time></trkpt><trkpt lat="42.5005383" lon="-7.3104233"><ele>769.0</ele><time>2026-04-14T15:28:23.903Z</time></trkpt><trkpt lat="42.5003733" lon="-7.3104517"><ele>769.0</ele><time>2026-04-14T15:28:24.902Z</time></trkpt><trkpt lat="42.500205" lon="-7.310485"><ele>769.0</ele><time>2026-04-14T15:28:25.903Z</time></trkpt><trkpt lat="42.500055" lon="-7.3105267"><ele>769.0</ele><time>2026-04-14T15:28:26.903Z</time></trkpt><trkpt lat="42.4999" lon="-7.31057"><ele>766.25</ele><time>2026-04-14T15:28:27.902Z</time></trkpt><trkpt lat="42.49975" lon="-7.310595"><ele>763.5</ele><time>2026-04-14T15:28:28.902Z</time></trkpt><trkpt lat="42.4996033" lon="-7.31061"><ele>760.75</ele><time>2026-04-14T15:28:29.902Z</time></trkpt><trkpt lat="42.49947" lon="-7.3106383"><ele>758.0</ele><time>2026-04-14T15:28:30.902Z</time></trkpt><trkpt lat="42.49934" lon="-7.310655"><ele>758.2</ele><time>2026-04-14T15:28:31.902Z</time></trkpt><trkpt lat="42.49923" lon="-7.3106567"><ele>758.4</ele><time>2026-04-14T15:28:32.902Z</time></trkpt><trkpt lat="42.499125" lon="-7.3106217"><ele>758.6</ele><time>2026-04-14T15:28:33.902Z</time></trkpt><trkpt lat="42.4990283" lon="-7.31055"><ele>758.8000000000001</ele><time>2026-04-14T15:28:34.902Z</time></trkpt><trkpt lat="42.4989433" lon="-7.31045"><ele>759.0</ele><time>2026-04-14T15:28:35.902Z</time></trkpt><trkpt lat="42.4988633" lon="-7.3103367"><ele>759.0</ele><time>2026-04-14T15:28:36.902Z</time></trkpt><trkpt lat="42.4987967" lon="-7.310205"><ele>759.0</ele><time>2026-04-14T15:28:37.903Z</time></trkpt><trkpt lat="42.498755" lon="-7.3100167"><ele>759.0</ele><time>2026-04-14T15:28:38.902Z</time></trkpt><trkpt lat="42.49871" lon="-7.3098417"><ele>759.0</ele><time>2026-04-14T15:28:39.903Z</time></trkpt><trkpt lat="42.4986683" lon="-7.30965"><ele>756.0</ele><time>2026-04-14T15:28:40.903Z</time></trkpt><trkpt lat="42.4986233" lon="-7.309475"><ele>753.0</ele><time>2026-04-14T15:28:41.902Z</time></trkpt><trkpt lat="42.498585" lon="-7.3093267"><ele>750.0</ele><time>2026-04-14T15:28:42.902Z</time></trkpt><trkpt lat="42.498545" lon="-7.3092317"><ele>747.0</ele><time>2026-04-14T15:28:43.903Z</time></trkpt><trkpt lat="42.4984983" lon="-7.3091467"><ele>744.0</ele><time>2026-04-14T15:28:45.903Z</time></trkpt><trkpt lat="42.4984333" lon="-7.3091967"><ele>744.0</ele><time>2026-04-14T15:28:47.902Z</time></trkpt><trkpt lat="42.498325" lon="-7.3092833"><ele>744.0</ele><time>2026-04-14T15:28:49.903Z</time></trkpt><trkpt lat="42.4982383" lon="-7.3093483"><ele>744.0</ele><time>2026-04-14T15:28:50.902Z</time></trkpt><trkpt lat="42.498135" lon="-7.309415"><ele>744.0</ele><time>2026-04-14T15:28:51.902Z</time></trkpt><trkpt lat="42.498045" lon="-7.3094867"><ele>744.0</ele><time>2026-04-14T15:28:52.902Z</time></trkpt><trkpt lat="42.4979683" lon="-7.309545"><ele>744.3333333333334</ele><time>2026-04-14T15:28:53.903Z</time></trkpt><trkpt lat="42.49789" lon="-7.3096033"><ele>744.6666666666666</ele><time>2026-04-14T15:28:54.903Z</time></trkpt><trkpt lat="42.497805" lon="-7.309665"><ele>745.0</ele><time>2026-04-14T15:28:55.902Z</time></trkpt><trkpt lat="42.4977317" lon="-7.309725"><ele>745.3333333333333</ele><time>2026-04-14T15:28:56.903Z</time></trkpt><trkpt lat="42.4976633" lon="-7.30978"><ele>745.6666666666666</ele><time>2026-04-14T15:28:57.903Z</time></trkpt><trkpt lat="42.497595" lon="-7.3098067"><ele>746.0</ele><time>2026-04-14T15:28:58.902Z</time></trkpt><trkpt lat="42.4975267" lon="-7.3098233"><ele>744.8</ele><time>2026-04-14T15:28:59.903Z</time></trkpt><trkpt lat="42.4974117" lon="-7.30986"><ele>743.5999999999999</ele><time>2026-04-14T15:29:01.902Z</time></trkpt><trkpt lat="42.4973417" lon="-7.30988"><ele>742.4</ele><time>2026-04-14T15:29:02.903Z</time></trkpt><trkpt lat="42.4972567" lon="-7.309905"><ele>741.2</ele><time>2026-04-14T15:29:03.902Z</time></trkpt><trkpt lat="42.4971667" lon="-7.3099267"><ele>740.0</ele><time>2026-04-14T15:29:04.902Z</time></trkpt><trkpt lat="42.497075" lon="-7.30995"><ele>739.6</ele><time>2026-04-14T15:29:05.902Z</time></trkpt><trkpt lat="42.4969683" lon="-7.309965"><ele>739.2</ele><time>2026-04-14T15:29:06.903Z</time></trkpt><trkpt lat="42.4968733" lon="-7.3099733"><ele>738.8</ele><time>2026-04-14T15:29:07.903Z</time></trkpt><trkpt lat="42.4967767" lon="-7.3099667"><ele>738.4</ele><time>2026-04-14T15:29:08.902Z</time></trkpt><trkpt lat="42.4966733" lon="-7.3099483"><ele>738.0</ele><time>2026-04-14T15:29:09.902Z</time></trkpt><trkpt lat="42.4965717" lon="-7.3099183"><ele>738.0</ele><time>2026-04-14T15:29:10.903Z</time></trkpt><trkpt lat="42.4964833" lon="-7.30988"><ele>738.0</ele><time>2026-04-14T15:29:11.903Z</time></trkpt><trkpt lat="42.496385" lon="-7.3098317"><ele>738.0</ele><time>2026-04-14T15:29:12.903Z</time></trkpt><trkpt lat="42.49629" lon="-7.3097933"><ele>738.0</ele><time>2026-04-14T15:29:13.902Z</time></trkpt><trkpt lat="42.4962067" lon="-7.3097633"><ele>738.0</ele><time>2026-04-14T15:29:14.903Z</time></trkpt><trkpt lat="42.496115" lon="-7.309725"><ele>738.3333333333334</ele><time>2026-04-14T15:29:15.903Z</time></trkpt><trkpt lat="42.4960167" lon="-7.3096683"><ele>738.6666666666666</ele><time>2026-04-14T15:29:16.903Z</time></trkpt><trkpt lat="42.4959467" lon="-7.3096133"><ele>739.0</ele><time>2026-04-14T15:29:17.902Z</time></trkpt><trkpt lat="42.4958733" lon="-7.3095483"><ele>739.3333333333333</ele><time>2026-04-14T15:29:19.903Z</time></trkpt><trkpt lat="42.4958067" lon="-7.3096083"><ele>739.6666666666666</ele><time>2026-04-14T15:29:21.903Z</time></trkpt><trkpt lat="42.4957633" lon="-7.309695"><ele>740.0</ele><time>2026-04-14T15:29:22.903Z</time></trkpt><trkpt lat="42.495715" lon="-7.309805"><ele>738.8</ele><time>2026-04-14T15:29:23.902Z</time></trkpt><trkpt lat="42.4956433" lon="-7.3099317"><ele>737.6</ele><time>2026-04-14T15:29:24.902Z</time></trkpt><trkpt lat="42.4955833" lon="-7.310065"><ele>736.4000000000001</ele><time>2026-04-14T15:29:25.902Z</time></trkpt><trkpt lat="42.4955333" lon="-7.3101967"><ele>735.2</ele><time>2026-04-14T15:29:26.902Z</time></trkpt><trkpt lat="42.4955133" lon="-7.31031"><ele>734.0</ele><time>2026-04-14T15:29:27.903Z</time></trkpt><trkpt lat="42.49551" lon="-7.31044"><ele>734.0</ele><time>2026-04-14T15:29:28.903Z</time></trkpt><trkpt lat="42.4955233" lon="-7.310565"><ele>734.0</ele><time>2026-04-14T15:29:29.902Z</time></trkpt><trkpt lat="42.49556" lon="-7.3107"><ele>734.0</ele><time>2026-04-14T15:29:30.903Z</time></trkpt><trkpt lat="42.495625" lon="-7.3108133"><ele>734.0</ele><time>2026-04-14T15:29:31.903Z</time></trkpt><trkpt lat="42.49569" lon="-7.3109433"><ele>734.0</ele><time>2026-04-14T15:29:32.903Z</time></trkpt><trkpt lat="42.49574" lon="-7.311085"><ele>733.4000000000001</ele><time>2026-04-14T15:29:33.903Z</time></trkpt><trkpt lat="42.495775" lon="-7.3112267"><ele>732.8</ele><time>2026-04-14T15:29:34.902Z</time></trkpt><trkpt lat="42.4958033" lon="-7.3113683"><ele>732.2</ele><time>2026-04-14T15:29:35.902Z</time></trkpt><trkpt lat="42.4958133" lon="-7.3115033"><ele>731.5999999999999</ele><time>2026-04-14T15:29:36.902Z</time></trkpt><trkpt lat="42.495815" lon="-7.3116517"><ele>731.0</ele><time>2026-04-14T15:29:37.902Z</time></trkpt><trkpt lat="42.4957933" lon="-7.3118033"><ele>729.5</ele><time>2026-04-14T15:29:38.902Z</time></trkpt><trkpt lat="42.49576" lon="-7.3119633"><ele>728.0</ele><time>2026-04-14T15:29:39.902Z</time></trkpt><trkpt lat="42.49571" lon="-7.31213"><ele>726.5</ele><time>2026-04-14T15:29:40.903Z</time></trkpt><trkpt lat="42.49566" lon="-7.3122667"><ele>725.0</ele><time>2026-04-14T15:29:41.902Z</time></trkpt><trkpt lat="42.4956033" lon="-7.3123967"><ele>723.5</ele><time>2026-04-14T15:29:42.902Z</time></trkpt><trkpt lat="42.4955383" lon="-7.3125083"><ele>722.0</ele><time>2026-04-14T15:29:43.902Z</time></trkpt><trkpt lat="42.4954467" lon="-7.31262"><ele>720.5</ele><time>2026-04-14T15:29:44.902Z</time></trkpt><trkpt lat="42.4953517" lon="-7.3127133"><ele>719.0</ele><time>2026-04-14T15:29:45.903Z</time></trkpt><trkpt lat="42.4952383" lon="-7.3128117"><ele>719.0</ele><time>2026-04-14T15:29:46.902Z</time></trkpt><trkpt lat="42.4951133" lon="-7.3129033"><ele>719.0</ele><time>2026-04-14T15:29:47.902Z</time></trkpt><trkpt lat="42.4949867" lon="-7.3129917"><ele>719.0</ele><time>2026-04-14T15:29:48.903Z</time></trkpt><trkpt lat="42.4948683" lon="-7.3130867"><ele>719.0</ele><time>2026-04-14T15:29:49.903Z</time></trkpt><trkpt lat="42.4947467" lon="-7.3131783"><ele>714.75</ele><time>2026-04-14T15:29:50.902Z</time></trkpt><trkpt lat="42.4946267" lon="-7.3132733"><ele>710.5</ele><time>2026-04-14T15:29:51.902Z</time></trkpt><trkpt lat="42.494515" lon="-7.3133683"><ele>706.25</ele><time>2026-04-14T15:29:52.903Z</time></trkpt><trkpt lat="42.49439" lon="-7.31347"><ele>702.0</ele><time>2026-04-14T15:29:53.903Z</time></trkpt><trkpt lat="42.4942683" lon="-7.3135683"><ele>702.0</ele><time>2026-04-14T15:29:54.902Z</time></trkpt><trkpt lat="42.4941383" lon="-7.3136833"><ele>702.0</ele><time>2026-04-14T15:29:55.902Z</time></trkpt><trkpt lat="42.49401" lon="-7.3137983"><ele>702.0</ele><time>2026-04-14T15:29:56.902Z</time></trkpt><trkpt lat="42.4938917" lon="-7.31391"><ele>697.5</ele><time>2026-04-14T15:29:57.902Z</time></trkpt><trkpt lat="42.4937767" lon="-7.314015"><ele>693.0</ele><time>2026-04-14T15:29:58.903Z</time></trkpt><trkpt lat="42.4936717" lon="-7.3141267"><ele>688.5</ele><time>2026-04-14T15:29:59.902Z</time></trkpt><trkpt lat="42.4935733" lon="-7.3142533"><ele>684.0</ele><time>2026-04-14T15:30:00.902Z</time></trkpt><trkpt lat="42.4934767" lon="-7.314385"><ele>684.0</ele><time>2026-04-14T15:30:01.903Z</time></trkpt><trkpt lat="42.4933783" lon="-7.3144983"><ele>684.0</ele><time>2026-04-14T15:30:02.903Z</time></trkpt><trkpt lat="42.4932867" lon="-7.3146117"><ele>684.0</ele><time>2026-04-14T15:30:03.903Z</time></trkpt><trkpt lat="42.49319" lon="-7.3147317"><ele>684.0</ele><time>2026-04-14T15:30:04.903Z</time></trkpt><trkpt lat="42.49308" lon="-7.3148533"><ele>680.75</ele><time>2026-04-14T15:30:05.902Z</time></trkpt><trkpt lat="42.4929833" lon="-7.3149783"><ele>677.5</ele><time>2026-04-14T15:30:06.902Z</time></trkpt><trkpt lat="42.4928933" lon="-7.3151083"><ele>674.25</ele><time>2026-04-14T15:30:07.902Z</time></trkpt><trkpt lat="42.492805" lon="-7.31524"><ele>671.0</ele><time>2026-04-14T15:30:08.903Z</time></trkpt><trkpt lat="42.4927233" lon="-7.3153367"><ele>671.0</ele><time>2026-04-14T15:30:09.903Z</time></trkpt><trkpt lat="42.4926533" lon="-7.3154117"><ele>671.0</ele><time>2026-04-14T15:30:10.902Z</time></trkpt><trkpt lat="42.4925783" lon="-7.3155167"><ele>671.0</ele><time>2026-04-14T15:30:12.902Z</time></trkpt><trkpt lat="42.4925" lon="-7.3156233"><ele>671.0</ele><time>2026-04-14T15:30:14.903Z</time></trkpt><trkpt lat="42.492425" lon="-7.31574"><ele>671.0</ele><time>2026-04-14T15:30:16.902Z</time></trkpt><trkpt lat="42.4924117" lon="-7.3159233"><ele>669.1999999999999</ele><time>2026-04-14T15:30:18.903Z</time></trkpt><trkpt lat="42.4924267" lon="-7.3160533"><ele>667.4</ele><time>2026-04-14T15:30:19.903Z</time></trkpt><trkpt lat="42.4924417" lon="-7.31619"><ele>665.6</ele><time>2026-04-14T15:30:20.903Z</time></trkpt><trkpt lat="42.4924467" lon="-7.3163467"><ele>663.8</ele><time>2026-04-14T15:30:21.903Z</time></trkpt><trkpt lat="42.4924367" lon="-7.3164917"><ele>662.0</ele><time>2026-04-14T15:30:22.903Z</time></trkpt><trkpt lat="42.49242" lon="-7.3166333"><ele>660.8</ele><time>2026-04-14T15:30:23.902Z</time></trkpt><trkpt lat="42.4923867" lon="-7.3167733"><ele>659.6</ele><time>2026-04-14T15:30:24.903Z</time></trkpt><trkpt lat="42.4923433" lon="-7.3169067"><ele>658.4</ele><time>2026-04-14T15:30:25.903Z</time></trkpt><trkpt lat="42.492295" lon="-7.3170367"><ele>657.1999999999999</ele><time>2026-04-14T15:30:26.903Z</time></trkpt><trkpt lat="42.49224" lon="-7.3171767"><ele>656.0</ele><time>2026-04-14T15:30:27.902Z</time></trkpt><trkpt lat="42.49218" lon="-7.3173067"><ele>655.8</ele><time>2026-04-14T15:30:28.902Z</time></trkpt><trkpt lat="42.4921117" lon="-7.31742"><ele>655.5999999999999</ele><time>2026-04-14T15:30:29.903Z</time></trkpt><trkpt lat="42.4920383" lon="-7.3175217"><ele>655.4</ele><time>2026-04-14T15:30:30.903Z</time></trkpt><trkpt lat="42.4919583" lon="-7.317615"><ele>655.2</ele><time>2026-04-14T15:30:31.903Z</time></trkpt><trkpt lat="42.491875" lon="-7.3177017"><ele>655.0</ele><time>2026-04-14T15:30:32.903Z</time></trkpt><trkpt lat="42.4917867" lon="-7.3177817"><ele>655.0</ele><time>2026-04-14T15:30:33.903Z</time></trkpt><trkpt lat="42.4916933" lon="-7.317845"><ele>655.0</ele><time>2026-04-14T15:30:34.903Z</time></trkpt><trkpt lat="42.491595" lon="-7.3178917"><ele>655.0</ele><time>2026-04-14T15:30:35.902Z</time></trkpt><trkpt lat="42.4914967" lon="-7.31793"><ele>655.0</ele><time>2026-04-14T15:30:36.903Z</time></trkpt><trkpt lat="42.49139" lon="-7.3179667"><ele>655.0</ele><time>2026-04-14T15:30:37.902Z</time></trkpt><trkpt lat="42.491275" lon="-7.3179933"><ele>652.0</ele><time>2026-04-14T15:30:38.902Z</time></trkpt><trkpt lat="42.49116" lon="-7.31802"><ele>649.0</ele><time>2026-04-14T15:30:39.902Z</time></trkpt><trkpt lat="42.49104" lon="-7.3180433"><ele>646.0</ele><time>2026-04-14T15:30:40.903Z</time></trkpt><trkpt lat="42.490925" lon="-7.3180767"><ele>643.0</ele><time>2026-04-14T15:30:41.902Z</time></trkpt><trkpt lat="42.49081" lon="-7.3181017"><ele>642.0</ele><time>2026-04-14T15:30:42.902Z</time></trkpt><trkpt lat="42.4906917" lon="-7.3181233"><ele>641.0</ele><time>2026-04-14T15:30:43.902Z</time></trkpt><trkpt lat="42.49057" lon="-7.3181517"><ele>640.0</ele><time>2026-04-14T15:30:44.902Z</time></trkpt><trkpt lat="42.4904517" lon="-7.31818"><ele>639.0</ele><time>2026-04-14T15:30:45.903Z</time></trkpt><trkpt lat="42.4903283" lon="-7.3182067"><ele>637.5</ele><time>2026-04-14T15:30:46.902Z</time></trkpt><trkpt lat="42.4902133" lon="-7.3182417"><ele>636.0</ele><time>2026-04-14T15:30:47.902Z</time></trkpt><trkpt lat="42.4901017" lon="-7.3182733"><ele>634.5</ele><time>2026-04-14T15:30:48.902Z</time></trkpt><trkpt lat="42.4899933" lon="-7.31831"><ele>633.0</ele><time>2026-04-14T15:30:49.903Z</time></trkpt><trkpt lat="42.4924117" lon="-7.3159233"><ele>637.5999999999999</ele><time>2026-04-14T15:30:18.903Z</time></trkpt><trkpt lat="42.4924267" lon="-7.3160533"><ele>642.1999999999999</ele><time>2026-04-14T15:30:19.903Z</time></trkpt><trkpt lat="42.4924417" lon="-7.31619"><ele>646.8</ele><time>2026-04-14T15:30:20.903Z</time></trkpt><trkpt lat="42.4924467" lon="-7.3163467"><ele>651.4</ele><time>2026-04-14T15:30:21.903Z</time></trkpt><trkpt lat="42.4924367" lon="-7.3164917"><ele>656.0</ele><time>2026-04-14T15:30:22.903Z</time></trkpt><trkpt lat="42.49242" lon="-7.3166333"><ele>656.0</ele><time>2026-04-14T15:30:23.902Z</time></trkpt><trkpt lat="42.4923867" lon="-7.3167733"><ele>656.0</ele><time>2026-04-14T15:30:24.903Z</time></trkpt><trkpt lat="42.4923433" lon="-7.3169067"><ele>656.0</ele><time>2026-04-14T15:30:25.903Z</time></trkpt><trkpt lat="42.492295" lon="-7.3170367"><ele>656.0</ele><time>2026-04-14T15:30:26.903Z</time></trkpt><trkpt lat="42.49224" lon="-7.3171767"><ele>656.0</ele><time>2026-04-14T15:30:27.902Z</time></trkpt><trkpt lat="42.49218" lon="-7.3173067"><ele>655.8</ele><time>2026-04-14T15:30:28.902Z</time></trkpt><trkpt lat="42.4921117" lon="-7.31742"><ele>655.5999999999999</ele><time>2026-04-14T15:30:29.903Z</time></trkpt><trkpt lat="42.4920383" lon="-7.3175217"><ele>655.4</ele><time>2026-04-14T15:30:30.903Z</time></trkpt><trkpt lat="42.4919583" lon="-7.317615"><ele>655.2</ele><time>2026-04-14T15:30:31.903Z</time></trkpt><trkpt lat="42.491875" lon="-7.3177017"><ele>655.0</ele><time>2026-04-14T15:30:32.903Z</time></trkpt><trkpt lat="42.4917867" lon="-7.3177817"><ele>655.0</ele><time>2026-04-14T15:30:33.903Z</time></trkpt><trkpt lat="42.4916933" lon="-7.317845"><ele>655.0</ele><time>2026-04-14T15:30:34.903Z</time></trkpt><trkpt lat="42.491595" lon="-7.3178917"><ele>655.0</ele><time>2026-04-14T15:30:35.902Z</time></trkpt><trkpt lat="42.4914967" lon="-7.31793"><ele>655.0</ele><time>2026-04-14T15:30:36.903Z</time></trkpt><trkpt lat="42.49139" lon="-7.3179667"><ele>655.0</ele><time>2026-04-14T15:30:37.902Z</time></trkpt><trkpt lat="42.491275" lon="-7.3179933"><ele>652.0</ele><time>2026-04-14T15:30:38.902Z</time></trkpt><trkpt lat="42.49116" lon="-7.31802"><ele>649.0</ele><time>2026-04-14T15:30:39.902Z</time></trkpt><trkpt lat="42.49104" lon="-7.3180433"><ele>646.0</ele><time>2026-04-14T15:30:40.903Z</time></trkpt><trkpt lat="42.490925" lon="-7.3180767"><ele>643.0</ele><time>2026-04-14T15:30:41.902Z</time></trkpt><trkpt lat="42.49081" lon="-7.3181017"><ele>642.0</ele><time>2026-04-14T15:30:42.902Z</time></trkpt><trkpt lat="42.4906917" lon="-7.3181233"><ele>641.0</ele><time>2026-04-14T15:30:43.902Z</time></trkpt><trkpt lat="42.49057" lon="-7.3181517"><ele>640.0</ele><time>2026-04-14T15:30:44.902Z</time></trkpt><trkpt lat="42.4904517" lon="-7.31818"><ele>639.0</ele><time>2026-04-14T15:30:45.903Z</time></trkpt><trkpt lat="42.4903283" lon="-7.3182067"><ele>637.8</ele><time>2026-04-14T15:30:46.902Z</time></trkpt><trkpt lat="42.4902133" lon="-7.3182417"><ele>636.5999999999999</ele><time>2026-04-14T15:30:47.902Z</time></trkpt><trkpt lat="42.4901017" lon="-7.3182733"><ele>635.4</ele><time>2026-04-14T15:30:48.902Z</time></trkpt><trkpt lat="42.4899933" lon="-7.31831"><ele>634.1999999999999</ele><time>2026-04-14T15:30:49.903Z</time></trkpt><trkpt lat="42.489895" lon="-7.318345"><ele>633.0</ele><time>2026-04-14T15:30:50.902Z</time></trkpt><trkpt lat="42.489795" lon="-7.3184"><ele>633.0</ele><time>2026-04-14T15:30:51.903Z</time></trkpt><trkpt lat="42.489695" lon="-7.318465"><ele>633.0</ele><time>2026-04-14T15:30:52.902Z</time></trkpt><trkpt lat="42.489605" lon="-7.31854"><ele>633.0</ele><time>2026-04-14T15:30:53.903Z</time></trkpt><trkpt lat="42.48952" lon="-7.3186367"><ele>633.0</ele><time>2026-04-14T15:30:54.903Z</time></trkpt><trkpt lat="42.4894517" lon="-7.3187433"><ele>633.0</ele><time>2026-04-14T15:30:55.903Z</time></trkpt><trkpt lat="42.4893983" lon="-7.31886"><ele>631.0</ele><time>2026-04-14T15:30:56.902Z</time></trkpt><trkpt lat="42.4893567" lon="-7.3189767"><ele>629.0</ele><time>2026-04-14T15:30:57.903Z</time></trkpt><trkpt lat="42.4893167" lon="-7.3190983"><ele>627.0</ele><time>2026-04-14T15:30:58.903Z</time></trkpt><trkpt lat="42.4892833" lon="-7.31922"><ele>625.0</ele><time>2026-04-14T15:30:59.903Z</time></trkpt><trkpt lat="42.48925" lon="-7.31934"><ele>623.0</ele><time>2026-04-14T15:31:00.902Z</time></trkpt><trkpt lat="42.48922" lon="-7.319465"><ele>623.0</ele><time>2026-04-14T15:31:01.902Z</time></trkpt><trkpt lat="42.4892" lon="-7.3195967"><ele>623.0</ele><time>2026-04-14T15:31:02.903Z</time></trkpt><trkpt lat="42.4891733" lon="-7.319745"><ele>623.0</ele><time>2026-04-14T15:31:03.902Z</time></trkpt><trkpt lat="42.4891417" lon="-7.3199067"><ele>623.0</ele><time>2026-04-14T15:31:04.902Z</time></trkpt><trkpt lat="42.489105" lon="-7.3200683"><ele>620.75</ele><time>2026-04-14T15:31:05.902Z</time></trkpt><trkpt lat="42.48907" lon="-7.3202267"><ele>618.5</ele><time>2026-04-14T15:31:06.903Z</time></trkpt><trkpt lat="42.48903" lon="-7.3203917"><ele>616.25</ele><time>2026-04-14T15:31:07.903Z</time></trkpt><trkpt lat="42.4889883" lon="-7.3205533"><ele>614.0</ele><time>2026-04-14T15:31:08.902Z</time></trkpt><trkpt lat="42.4889333" lon="-7.3207033"><ele>611.5</ele><time>2026-04-14T15:31:09.902Z</time></trkpt><trkpt lat="42.4888667" lon="-7.3208433"><ele>609.0</ele><time>2026-04-14T15:31:10.902Z</time></trkpt><trkpt lat="42.4888033" lon="-7.3209667"><ele>606.5</ele><time>2026-04-14T15:31:11.902Z</time></trkpt><trkpt lat="42.4887267" lon="-7.3210733"><ele>604.0</ele><time>2026-04-14T15:31:12.902Z</time></trkpt><trkpt lat="42.4886367" lon="-7.32117"><ele>604.0</ele><time>2026-04-14T15:31:13.902Z</time></trkpt><trkpt lat="42.4885283" lon="-7.32125"><ele>604.0</ele><time>2026-04-14T15:31:14.902Z</time></trkpt><trkpt lat="42.4884133" lon="-7.3213183"><ele>604.0</ele><time>2026-04-14T15:31:15.903Z</time></trkpt><trkpt lat="42.488295" lon="-7.3213633"><ele>604.0</ele><time>2026-04-14T15:31:16.902Z</time></trkpt><trkpt lat="42.488175" lon="-7.3214033"><ele>602.0</ele><time>2026-04-14T15:31:17.902Z</time></trkpt><trkpt lat="42.4880517" lon="-7.3214267"><ele>600.0</ele><time>2026-04-14T15:31:18.902Z</time></trkpt><trkpt lat="42.4879333" lon="-7.321435"><ele>598.0</ele><time>2026-04-14T15:31:19.902Z</time></trkpt><trkpt lat="42.4878133" lon="-7.3214283"><ele>596.0</ele><time>2026-04-14T15:31:20.902Z</time></trkpt><trkpt lat="42.4877033" lon="-7.3214033"><ele>596.0</ele><time>2026-04-14T15:31:21.902Z</time></trkpt><trkpt lat="42.4875883" lon="-7.32138"><ele>596.0</ele><time>2026-04-14T15:31:22.903Z</time></trkpt><trkpt lat="42.487485" lon="-7.3213567"><ele>596.0</ele><time>2026-04-14T15:31:23.902Z</time></trkpt><trkpt lat="42.4873817" lon="-7.3213333"><ele>596.0</ele><time>2026-04-14T15:31:24.903Z</time></trkpt><trkpt lat="42.48728" lon="-7.321305"><ele>596.0</ele><time>2026-04-14T15:31:25.903Z</time></trkpt><trkpt lat="42.48718" lon="-7.3212767"><ele>594.8333333333333</ele><time>2026-04-14T15:31:26.902Z</time></trkpt><trkpt lat="42.4870883" lon="-7.3212367"><ele>593.6666666666666</ele><time>2026-04-14T15:31:27.903Z</time></trkpt><trkpt lat="42.4870017" lon="-7.3212067"><ele>592.5</ele><time>2026-04-14T15:31:28.902Z</time></trkpt><trkpt lat="42.4869167" lon="-7.32118"><ele>591.3333333333334</ele><time>2026-04-14T15:31:29.903Z</time></trkpt><trkpt lat="42.4868367" lon="-7.3211567"><ele>590.1666666666667</ele><time>2026-04-14T15:31:30.902Z</time></trkpt><trkpt lat="42.4867633" lon="-7.321135"><ele>589.0</ele><time>2026-04-14T15:31:31.903Z</time></trkpt><trkpt lat="42.48669" lon="-7.32111"><ele>589.0</ele><time>2026-04-14T15:31:32.902Z</time></trkpt><trkpt lat="42.4866183" lon="-7.3210867"><ele>589.0</ele><time>2026-04-14T15:31:33.903Z</time></trkpt><trkpt lat="42.4865483" lon="-7.321065"><ele>589.0</ele><time>2026-04-14T15:31:34.902Z</time></trkpt><trkpt lat="42.48647" lon="-7.3210433"><ele>589.0</ele><time>2026-04-14T15:31:35.903Z</time></trkpt><trkpt lat="42.4863833" lon="-7.321025"><ele>589.0</ele><time>2026-04-14T15:31:36.903Z</time></trkpt><trkpt lat="42.4862767" lon="-7.3209933"><ele>589.0</ele><time>2026-04-14T15:31:37.903Z</time></trkpt><trkpt lat="42.486175" lon="-7.320965"><ele>588.1666666666667</ele><time>2026-04-14T15:31:38.904Z</time></trkpt><trkpt lat="42.4860817" lon="-7.3209367"><ele>587.3333333333334</ele><time>2026-04-14T15:31:39.903Z</time></trkpt><trkpt lat="42.4859983" lon="-7.32092"><ele>586.5</ele><time>2026-04-14T15:31:40.903Z</time></trkpt><trkpt lat="42.485915" lon="-7.3209067"><ele>585.6666666666666</ele><time>2026-04-14T15:31:41.903Z</time></trkpt><trkpt lat="42.4858433" lon="-7.3208767"><ele>584.8333333333333</ele><time>2026-04-14T15:31:43.904Z</time></trkpt><trkpt lat="42.4859367" lon="-7.320845"><ele>584.0</ele><time>2026-04-14T15:31:48.904Z</time></trkpt><trkpt lat="42.4860033" lon="-7.3208633"><ele>584.0</ele><time>2026-04-14T15:31:49.904Z</time></trkpt><trkpt lat="42.4860833" lon="-7.3208883"><ele>584.0</ele><time>2026-04-14T15:31:50.904Z</time></trkpt><trkpt lat="42.486175" lon="-7.3209183"><ele>584.0</ele><time>2026-04-14T15:31:51.903Z</time></trkpt><trkpt lat="42.4862667" lon="-7.3209483"><ele>584.0</ele><time>2026-04-14T15:31:52.903Z</time></trkpt><trkpt lat="42.48637" lon="-7.3209767"><ele>584.0</ele><time>2026-04-14T15:31:53.904Z</time></trkpt><trkpt lat="42.48648" lon="-7.321005"><ele>585.0</ele><time>2026-04-14T15:31:54.904Z</time></trkpt><trkpt lat="42.48659" lon="-7.3210317"><ele>586.0</ele><time>2026-04-14T15:31:55.903Z</time></trkpt><trkpt lat="42.486695" lon="-7.321065"><ele>587.0</ele><time>2026-04-14T15:31:56.903Z</time></trkpt><trkpt lat="42.486805" lon="-7.3211017"><ele>588.0</ele><time>2026-04-14T15:31:57.903Z</time></trkpt><trkpt lat="42.48691" lon="-7.3211317"><ele>589.0</ele><time>2026-04-14T15:31:58.904Z</time></trkpt><trkpt lat="42.4869967" lon="-7.32116"><ele>589.0</ele><time>2026-04-14T15:31:59.903Z</time></trkpt><trkpt lat="42.4870733" lon="-7.3211817"><ele>589.0</ele><time>2026-04-14T15:32:00.903Z</time></trkpt><trkpt lat="42.4871467" lon="-7.3211967"><ele>589.0</ele><time>2026-04-14T15:32:01.904Z</time></trkpt><trkpt lat="42.4872233" lon="-7.3212167"><ele>589.0</ele><time>2026-04-14T15:32:02.904Z</time></trkpt><trkpt lat="42.4872967" lon="-7.32123"><ele>589.0</ele><time>2026-04-14T15:32:03.903Z</time></trkpt><trkpt lat="42.4873667" lon="-7.3212383"><ele>589.0</ele><time>2026-04-14T15:32:04.904Z</time></trkpt><trkpt lat="42.48747" lon="-7.3212833"><ele>589.2</ele><time>2026-04-14T15:32:06.903Z</time></trkpt><trkpt lat="42.4874733" lon="-7.3214117"><ele>589.4</ele><time>2026-04-14T15:32:09.903Z</time></trkpt><trkpt lat="42.4873883" lon="-7.3215417"><ele>589.6</ele><time>2026-04-14T15:32:11.904Z</time></trkpt><trkpt lat="42.48734" lon="-7.3216067"><ele>589.8</ele><time>2026-04-14T15:32:12.903Z</time></trkpt><trkpt lat="42.4872817" lon="-7.3216833"><ele>590.0</ele><time>2026-04-14T15:32:13.903Z</time></trkpt><trkpt lat="42.48722" lon="-7.3217733"><ele>590.0</ele><time>2026-04-14T15:32:14.903Z</time></trkpt><trkpt lat="42.48716" lon="-7.3218833"><ele>590.0</ele><time>2026-04-14T15:32:15.903Z</time></trkpt><trkpt lat="42.4870917" lon="-7.3219917"><ele>590.0</ele><time>2026-04-14T15:32:16.904Z</time></trkpt><trkpt lat="42.4870167" lon="-7.3220983"><ele>590.0</ele><time>2026-04-14T15:32:17.903Z</time></trkpt><trkpt lat="42.4869467" lon="-7.3222133"><ele>590.0</ele><time>2026-04-14T15:32:18.903Z</time></trkpt><trkpt lat="42.4859367" lon="-7.320845"><ele>589.8333333333333</ele><time>2026-04-14T15:31:48.904Z</time></trkpt><trkpt lat="42.4860033" lon="-7.3208633"><ele>589.6666666666666</ele><time>2026-04-14T15:31:49.904Z</time></trkpt><trkpt lat="42.4860833" lon="-7.3208883"><ele>589.5</ele><time>2026-04-14T15:31:50.904Z</time></trkpt><trkpt lat="42.486175" lon="-7.3209183"><ele>589.3333333333334</ele><time>2026-04-14T15:31:51.903Z</time></trkpt><trkpt lat="42.4862667" lon="-7.3209483"><ele>589.1666666666667</ele><time>2026-04-14T15:31:52.903Z</time></trkpt><trkpt lat="42.48637" lon="-7.3209767"><ele>589.0</ele><time>2026-04-14T15:31:53.904Z</time></trkpt><trkpt lat="42.48648" lon="-7.321005"><ele>589.0</ele><time>2026-04-14T15:31:54.904Z</time></trkpt><trkpt lat="42.48659" lon="-7.3210317"><ele>589.0</ele><time>2026-04-14T15:31:55.903Z</time></trkpt><trkpt lat="42.486695" lon="-7.321065"><ele>589.0</ele><time>2026-04-14T15:31:56.903Z</time></trkpt><trkpt lat="42.486805" lon="-7.3211017"><ele>589.0</ele><time>2026-04-14T15:31:57.903Z</time></trkpt><trkpt lat="42.48691" lon="-7.3211317"><ele>589.0</ele><time>2026-04-14T15:31:58.904Z</time></trkpt><trkpt lat="42.4869967" lon="-7.32116"><ele>589.0</ele><time>2026-04-14T15:31:59.903Z</time></trkpt><trkpt lat="42.4870733" lon="-7.3211817"><ele>589.0</ele><time>2026-04-14T15:32:00.903Z</time></trkpt><trkpt lat="42.4871467" lon="-7.3211967"><ele>589.0</ele><time>2026-04-14T15:32:01.904Z</time></trkpt><trkpt lat="42.4872233" lon="-7.3212167"><ele>589.0</ele><time>2026-04-14T15:32:02.904Z</time></trkpt><trkpt lat="42.4872967" lon="-7.32123"><ele>589.0</ele><time>2026-04-14T15:32:03.903Z</time></trkpt><trkpt lat="42.4873667" lon="-7.3212383"><ele>589.0</ele><time>2026-04-14T15:32:04.904Z</time></trkpt><trkpt lat="42.48747" lon="-7.3212833"><ele>589.2</ele><time>2026-04-14T15:32:06.903Z</time></trkpt><trkpt lat="42.4874733" lon="-7.3214117"><ele>589.4</ele><time>2026-04-14T15:32:09.903Z</time></trkpt><trkpt lat="42.4873883" lon="-7.3215417"><ele>589.6</ele><time>2026-04-14T15:32:11.904Z</time></trkpt><trkpt lat="42.48734" lon="-7.3216067"><ele>589.8</ele><time>2026-04-14T15:32:12.903Z</time></trkpt><trkpt lat="42.4872817" lon="-7.3216833"><ele>590.0</ele><time>2026-04-14T15:32:13.903Z</time></trkpt><trkpt lat="42.48722" lon="-7.3217733"><ele>590.0</ele><time>2026-04-14T15:32:14.903Z</time></trkpt><trkpt lat="42.48716" lon="-7.3218833"><ele>590.0</ele><time>2026-04-14T15:32:15.903Z</time></trkpt><trkpt lat="42.4870917" lon="-7.3219917"><ele>590.0</ele><time>2026-04-14T15:32:16.904Z</time></trkpt><trkpt lat="42.4870167" lon="-7.3220983"><ele>590.0</ele><time>2026-04-14T15:32:17.903Z</time></trkpt><trkpt lat="42.4869467" lon="-7.3222133"><ele>590.0</ele><time>2026-04-14T15:32:18.903Z</time></trkpt><trkpt lat="42.4868667" lon="-7.322345"><ele>589.25</ele><time>2026-04-14T15:32:19.904Z</time></trkpt><trkpt lat="42.4867767" lon="-7.322475"><ele>588.5</ele><time>2026-04-14T15:32:20.903Z</time></trkpt><trkpt lat="42.4866917" lon="-7.3226117"><ele>587.75</ele><time>2026-04-14T15:32:21.903Z</time></trkpt><trkpt lat="42.4866033" lon="-7.3227367"><ele>587.0</ele><time>2026-04-14T15:32:22.904Z</time></trkpt><trkpt lat="42.4865167" lon="-7.3228533"><ele>587.0</ele><time>2026-04-14T15:32:23.904Z</time></trkpt><trkpt lat="42.48643" lon="-7.3229567"><ele>587.0</ele><time>2026-04-14T15:32:24.903Z</time></trkpt><trkpt lat="42.486335" lon="-7.3230367"><ele>587.0</ele><time>2026-04-14T15:32:25.903Z</time></trkpt><trkpt lat="42.4862233" lon="-7.323085"><ele>587.0</ele><time>2026-04-14T15:32:26.904Z</time></trkpt><trkpt lat="42.486105" lon="-7.3231267"><ele>585.25</ele><time>2026-04-14T15:32:27.903Z</time></trkpt><trkpt lat="42.48597" lon="-7.3231617"><ele>583.5</ele><time>2026-04-14T15:32:28.904Z</time></trkpt><trkpt lat="42.4858233" lon="-7.3232033"><ele>581.75</ele><time>2026-04-14T15:32:29.903Z</time></trkpt><trkpt lat="42.48567" lon="-7.3232483"><ele>580.0</ele><time>2026-04-14T15:32:30.904Z</time></trkpt><trkpt lat="42.4854983" lon="-7.3233"><ele>579.3333333333334</ele><time>2026-04-14T15:32:31.903Z</time></trkpt><trkpt lat="42.4853433" lon="-7.3233683"><ele>578.6666666666666</ele><time>2026-04-14T15:32:32.904Z</time></trkpt><trkpt lat="42.485175" lon="-7.323435"><ele>578.0</ele><time>2026-04-14T15:32:33.903Z</time></trkpt><trkpt lat="42.4849933" lon="-7.32349"><ele>578.0</ele><time>2026-04-14T15:32:34.904Z</time></trkpt><trkpt lat="42.48482" lon="-7.3235217"><ele>578.0</ele><time>2026-04-14T15:32:35.904Z</time></trkpt><trkpt lat="42.48465" lon="-7.323565"><ele>578.0</ele><time>2026-04-14T15:32:36.903Z</time></trkpt><trkpt lat="42.4845033" lon="-7.3236367"><ele>577.0</ele><time>2026-04-14T15:32:37.903Z</time></trkpt><trkpt lat="42.484375" lon="-7.3237417"><ele>576.0</ele><time>2026-04-14T15:32:38.904Z</time></trkpt><trkpt lat="42.4842367" lon="-7.32385"><ele>575.0</ele><time>2026-04-14T15:32:39.904Z</time></trkpt><trkpt lat="42.4840833" lon="-7.3239333"><ele>572.0</ele><time>2026-04-14T15:32:40.903Z</time></trkpt><trkpt lat="42.4839317" lon="-7.323985"><ele>569.0</ele><time>2026-04-14T15:32:41.903Z</time></trkpt><trkpt lat="42.4837817" lon="-7.32402"><ele>566.0</ele><time>2026-04-14T15:32:42.904Z</time></trkpt><trkpt lat="42.4836367" lon="-7.3240417"><ele>565.75</ele><time>2026-04-14T15:32:43.904Z</time></trkpt><trkpt lat="42.4835033" lon="-7.3240717"><ele>565.5</ele><time>2026-04-14T15:32:44.903Z</time></trkpt><trkpt lat="42.4833717" lon="-7.3241217"><ele>565.25</ele><time>2026-04-14T15:32:45.903Z</time></trkpt><trkpt lat="42.483255" lon="-7.3241983"><ele>565.0</ele><time>2026-04-14T15:32:46.904Z</time></trkpt><trkpt lat="42.4831433" lon="-7.3242817"><ele>565.0</ele><time>2026-04-14T15:32:47.903Z</time></trkpt><trkpt lat="42.4830183" lon="-7.3243733"><ele>565.0</ele><time>2026-04-14T15:32:48.903Z</time></trkpt><trkpt lat="42.48288" lon="-7.32446"><ele>565.0</ele><time>2026-04-14T15:32:49.903Z</time></trkpt><trkpt lat="42.4827233" lon="-7.3245417"><ele>563.0</ele><time>2026-04-14T15:32:50.904Z</time></trkpt><trkpt lat="42.4825533" lon="-7.3246133"><ele>561.0</ele><time>2026-04-14T15:32:51.903Z</time></trkpt><trkpt lat="42.482395" lon="-7.32468"><ele>559.0</ele><time>2026-04-14T15:32:52.903Z</time></trkpt><trkpt lat="42.4822433" lon="-7.3247567"><ele>559.0</ele><time>2026-04-14T15:32:53.903Z</time></trkpt><trkpt lat="42.4821033" lon="-7.32486"><ele>559.0</ele><time>2026-04-14T15:32:54.903Z</time></trkpt><trkpt lat="42.4819683" lon="-7.3249933"><ele>559.0</ele><time>2026-04-14T15:32:55.903Z</time></trkpt><trkpt lat="42.4818367" lon="-7.325145"><ele>558.3333333333334</ele><time>2026-04-14T15:32:56.903Z</time></trkpt><trkpt lat="42.4817183" lon="-7.3253083"><ele>557.6666666666666</ele><time>2026-04-14T15:32:57.903Z</time></trkpt><trkpt lat="42.4815967" lon="-7.3254867"><ele>557.0</ele><time>2026-04-14T15:32:58.903Z</time></trkpt><trkpt lat="42.4814917" lon="-7.3256267"><ele>558.0</ele><time>2026-04-14T15:32:59.904Z</time></trkpt><trkpt lat="42.4814" lon="-7.3257583"><ele>559.0</ele><time>2026-04-14T15:33:00.903Z</time></trkpt><trkpt lat="42.4813333" lon="-7.3258833"><ele>560.0</ele><time>2026-04-14T15:33:01.904Z</time></trkpt><trkpt lat="42.4813033" lon="-7.3259967"><ele>561.0</ele><time>2026-04-14T15:33:02.903Z</time></trkpt><trkpt lat="42.481295" lon="-7.3261117"><ele>562.0</ele><time>2026-04-14T15:33:03.904Z</time></trkpt><trkpt lat="42.4812833" lon="-7.3262433"><ele>562.2</ele><time>2026-04-14T15:33:04.903Z</time></trkpt><trkpt lat="42.4812617" lon="-7.326375"><ele>562.4000000000001</ele><time>2026-04-14T15:33:05.904Z</time></trkpt><trkpt lat="42.48122" lon="-7.3264983"><ele>562.5999999999999</ele><time>2026-04-14T15:33:06.903Z</time></trkpt><trkpt lat="42.481165" lon="-7.3266267"><ele>562.8</ele><time>2026-04-14T15:33:07.904Z</time></trkpt><trkpt lat="42.481105" lon="-7.3267633"><ele>563.0</ele><time>2026-04-14T15:33:08.904Z</time></trkpt><trkpt lat="42.4810433" lon="-7.3268817"><ele>563.0</ele><time>2026-04-14T15:33:09.904Z</time></trkpt><trkpt lat="42.4809683" lon="-7.3269783"><ele>563.0</ele><time>2026-04-14T15:33:10.904Z</time></trkpt><trkpt lat="42.4808833" lon="-7.3270467"><ele>563.0</ele><time>2026-04-14T15:33:11.903Z</time></trkpt><trkpt lat="42.48077" lon="-7.3270983"><ele>563.0</ele><time>2026-04-14T15:33:12.903Z</time></trkpt><trkpt lat="42.48065" lon="-7.3271383"><ele>563.0</ele><time>2026-04-14T15:33:13.903Z</time></trkpt><trkpt lat="42.4805267" lon="-7.3271767"><ele>562.0</ele><time>2026-04-14T15:33:14.904Z</time></trkpt><trkpt lat="42.4804033" lon="-7.32723"><ele>561.0</ele><time>2026-04-14T15:33:15.903Z</time></trkpt><trkpt lat="42.4802767" lon="-7.327285"><ele>560.0</ele><time>2026-04-14T15:33:16.904Z</time></trkpt><trkpt lat="42.48015" lon="-7.3273417"><ele>559.0</ele><time>2026-04-14T15:33:17.903Z</time></trkpt><trkpt lat="42.4800283" lon="-7.3274017"><ele>559.0</ele><time>2026-04-14T15:33:18.903Z</time></trkpt><trkpt lat="42.4798983" lon="-7.3274767"><ele>559.0</ele><time>2026-04-14T15:33:19.903Z</time></trkpt><trkpt lat="42.4797583" lon="-7.3275617"><ele>559.0</ele><time>2026-04-14T15:33:20.903Z</time></trkpt><trkpt lat="42.4796067" lon="-7.3276567"><ele>551.6666666666667</ele><time>2026-04-14T15:33:21.904Z</time></trkpt><trkpt lat="42.4794367" lon="-7.3277683"><ele>544.3333333333334</ele><time>2026-04-14T15:33:22.904Z</time></trkpt><trkpt lat="42.4792683" lon="-7.3278883"><ele>537.0</ele><time>2026-04-14T15:33:23.903Z</time></trkpt><trkpt lat="42.4790867" lon="-7.3280117"><ele>534.3333333333334</ele><time>2026-04-14T15:33:24.904Z</time></trkpt><trkpt lat="42.4789233" lon="-7.3281383"><ele>531.6666666666667</ele><time>2026-04-14T15:33:25.904Z</time></trkpt><trkpt lat="42.4787667" lon="-7.3282517"><ele>529.0</ele><time>2026-04-14T15:33:26.904Z</time></trkpt><trkpt lat="42.4786333" lon="-7.3283367"><ele>529.0</ele><time>2026-04-14T15:33:27.903Z</time></trkpt><trkpt lat="42.4785167" lon="-7.3283917"><ele>529.0</ele><time>2026-04-14T15:33:28.904Z</time></trkpt><trkpt lat="42.4783917" lon="-7.32841"><ele>529.0</ele><time>2026-04-14T15:33:29.903Z</time></trkpt><trkpt lat="42.4782683" lon="-7.328375"><ele>529.0</ele><time>2026-04-14T15:33:30.904Z</time></trkpt><trkpt lat="42.4781317" lon="-7.3283283"><ele>529.0</ele><time>2026-04-14T15:33:31.904Z</time></trkpt><trkpt lat="42.4779867" lon="-7.3283033"><ele>529.0</ele><time>2026-04-14T15:33:32.903Z</time></trkpt><trkpt lat="42.477845" lon="-7.3283217"><ele>529.0</ele><time>2026-04-14T15:33:33.904Z</time></trkpt><trkpt lat="42.4777233" lon="-7.3283633"><ele>529.0</ele><time>2026-04-14T15:33:34.904Z</time></trkpt><trkpt lat="42.4776417" lon="-7.3284083"><ele>527.3333333333334</ele><time>2026-04-14T15:33:35.903Z</time></trkpt><trkpt lat="42.4775767" lon="-7.328445"><ele>525.6666666666667</ele><time>2026-04-14T15:33:36.903Z</time></trkpt><trkpt lat="42.4775133" lon="-7.3284633"><ele>524.0</ele><time>2026-04-14T15:33:37.904Z</time></trkpt><trkpt lat="42.4774033" lon="-7.3284967"><ele>522.3333333333334</ele><time>2026-04-14T15:33:39.904Z</time></trkpt><trkpt lat="42.477345" lon="-7.3285517"><ele>520.6666666666666</ele><time>2026-04-14T15:33:40.903Z</time></trkpt><trkpt lat="42.4772883" lon="-7.328625"><ele>519.0</ele><time>2026-04-14T15:33:41.903Z</time></trkpt><trkpt lat="42.4772267" lon="-7.328705"><ele>519.0</ele><time>2026-04-14T15:33:42.903Z</time></trkpt><trkpt lat="42.4771683" lon="-7.3287767"><ele>519.0</ele><time>2026-04-14T15:33:43.903Z</time></trkpt><trkpt lat="42.4771067" lon="-7.3288317"><ele>519.0</ele><time>2026-04-14T15:33:44.904Z</time></trkpt><trkpt lat="42.477045" lon="-7.328855"><ele>519.0</ele><time>2026-04-14T15:33:45.903Z</time></trkpt><trkpt lat="42.4769233" lon="-7.3288117"><ele>519.0</ele><time>2026-04-14T15:33:47.904Z</time></trkpt><trkpt lat="42.4768667" lon="-7.3287467"><ele>519.0</ele><time>2026-04-14T15:33:48.903Z</time></trkpt><trkpt lat="42.4768133" lon="-7.32866"><ele>514.5</ele><time>2026-04-14T15:33:49.903Z</time></trkpt><trkpt lat="42.476745" lon="-7.328565"><ele>510.0</ele><time>2026-04-14T15:33:50.904Z</time></trkpt><trkpt lat="42.4766583" lon="-7.3284783"><ele>505.5</ele><time>2026-04-14T15:33:51.903Z</time></trkpt><trkpt lat="42.4765483" lon="-7.3284133"><ele>501.0</ele><time>2026-04-14T15:33:52.904Z</time></trkpt><trkpt lat="42.4804033" lon="-7.32723"><ele>515.5</ele><time>2026-04-14T15:33:15.903Z</time></trkpt><trkpt lat="42.4802767" lon="-7.327285"><ele>530.0</ele><time>2026-04-14T15:33:16.904Z</time></trkpt><trkpt lat="42.48015" lon="-7.3273417"><ele>544.5</ele><time>2026-04-14T15:33:17.903Z</time></trkpt><trkpt lat="42.4800283" lon="-7.3274017"><ele>559.0</ele><time>2026-04-14T15:33:18.903Z</time></trkpt><trkpt lat="42.4798983" lon="-7.3274767"><ele>559.0</ele><time>2026-04-14T15:33:19.903Z</time></trkpt><trkpt lat="42.4797583" lon="-7.3275617"><ele>559.0</ele><time>2026-04-14T15:33:20.903Z</time></trkpt><trkpt lat="42.4796067" lon="-7.3276567"><ele>559.0</ele><time>2026-04-14T15:33:21.904Z</time></trkpt><trkpt lat="42.4794367" lon="-7.3277683"><ele>555.0</ele><time>2026-04-14T15:33:22.904Z</time></trkpt><trkpt lat="42.4792683" lon="-7.3278883"><ele>551.0</ele><time>2026-04-14T15:33:23.903Z</time></trkpt><trkpt lat="42.4790867" lon="-7.3280117"><ele>547.0</ele><time>2026-04-14T15:33:24.904Z</time></trkpt><trkpt lat="42.4789233" lon="-7.3281383"><ele>542.5</ele><time>2026-04-14T15:33:25.904Z</time></trkpt><trkpt lat="42.4787667" lon="-7.3282517"><ele>538.0</ele><time>2026-04-14T15:33:26.904Z</time></trkpt><trkpt lat="42.4786333" lon="-7.3283367"><ele>533.5</ele><time>2026-04-14T15:33:27.903Z</time></trkpt><trkpt lat="42.4785167" lon="-7.3283917"><ele>529.0</ele><time>2026-04-14T15:33:28.904Z</time></trkpt><trkpt lat="42.4783917" lon="-7.32841"><ele>529.0</ele><time>2026-04-14T15:33:29.903Z</time></trkpt><trkpt lat="42.4782683" lon="-7.328375"><ele>529.0</ele><time>2026-04-14T15:33:30.904Z</time></trkpt><trkpt lat="42.4781317" lon="-7.3283283"><ele>529.0</ele><time>2026-04-14T15:33:31.904Z</time></trkpt><trkpt lat="42.4779867" lon="-7.3283033"><ele>529.0</ele><time>2026-04-14T15:33:32.903Z</time></trkpt><trkpt lat="42.477845" lon="-7.3283217"><ele>527.0</ele><time>2026-04-14T15:33:33.904Z</time></trkpt><trkpt lat="42.4777233" lon="-7.3283633"><ele>525.0</ele><time>2026-04-14T15:33:34.904Z</time></trkpt><trkpt lat="42.4776417" lon="-7.3284083"><ele>523.0</ele><time>2026-04-14T15:33:35.903Z</time></trkpt><trkpt lat="42.4775767" lon="-7.328445"><ele>521.0</ele><time>2026-04-14T15:33:36.903Z</time></trkpt><trkpt lat="42.4775133" lon="-7.3284633"><ele>519.0</ele><time>2026-04-14T15:33:37.904Z</time></trkpt><trkpt lat="42.4774033" lon="-7.3284967"><ele>519.0</ele><time>2026-04-14T15:33:39.904Z</time></trkpt><trkpt lat="42.477345" lon="-7.3285517"><ele>519.0</ele><time>2026-04-14T15:33:40.903Z</time></trkpt><trkpt lat="42.4772883" lon="-7.328625"><ele>519.0</ele><time>2026-04-14T15:33:41.903Z</time></trkpt><trkpt lat="42.4772267" lon="-7.328705"><ele>519.0</ele><time>2026-04-14T15:33:42.903Z</time></trkpt><trkpt lat="42.4771683" lon="-7.3287767"><ele>519.0</ele><time>2026-04-14T15:33:43.903Z</time></trkpt><trkpt lat="42.4771067" lon="-7.3288317"><ele>519.0</ele><time>2026-04-14T15:33:44.904Z</time></trkpt><trkpt lat="42.477045" lon="-7.328855"><ele>515.4</ele><time>2026-04-14T15:33:45.903Z</time></trkpt><trkpt lat="42.4769233" lon="-7.3288117"><ele>511.79999999999995</ele><time>2026-04-14T15:33:47.904Z</time></trkpt><trkpt lat="42.4768667" lon="-7.3287467"><ele>508.20000000000005</ele><time>2026-04-14T15:33:48.903Z</time></trkpt><trkpt lat="42.4768133" lon="-7.32866"><ele>504.6</ele><time>2026-04-14T15:33:49.903Z</time></trkpt><trkpt lat="42.476745" lon="-7.328565"><ele>501.0</ele><time>2026-04-14T15:33:50.904Z</time></trkpt><trkpt lat="42.4766583" lon="-7.3284783"><ele>501.0</ele><time>2026-04-14T15:33:51.903Z</time></trkpt><trkpt lat="42.4765483" lon="-7.3284133"><ele>501.0</ele><time>2026-04-14T15:33:52.904Z</time></trkpt><trkpt lat="42.4764483" lon="-7.3283617"><ele>501.0</ele><time>2026-04-14T15:33:53.903Z</time></trkpt><trkpt lat="42.4763483" lon="-7.3283267"><ele>501.0</ele><time>2026-04-14T15:33:54.903Z</time></trkpt><trkpt lat="42.4762483" lon="-7.3282917"><ele>501.0</ele><time>2026-04-14T15:33:55.904Z</time></trkpt><trkpt lat="42.4761483" lon="-7.3282517"><ele>497.5</ele><time>2026-04-14T15:33:56.903Z</time></trkpt><trkpt lat="42.4760467" lon="-7.3282333"><ele>494.0</ele><time>2026-04-14T15:33:57.904Z</time></trkpt><trkpt lat="42.4759667" lon="-7.3282417"><ele>490.5</ele><time>2026-04-14T15:33:58.903Z</time></trkpt><trkpt lat="42.4758917" lon="-7.328285"><ele>487.0</ele><time>2026-04-14T15:33:59.903Z</time></trkpt><trkpt lat="42.4758317" lon="-7.3283633"><ele>483.5</ele><time>2026-04-14T15:34:00.903Z</time></trkpt><trkpt lat="42.4757717" lon="-7.32845"><ele>480.0</ele><time>2026-04-14T15:34:01.904Z</time></trkpt><trkpt lat="42.4757167" lon="-7.328525"><ele>480.0</ele><time>2026-04-14T15:34:02.903Z</time></trkpt><trkpt lat="42.47566" lon="-7.3285683"><ele>480.0</ele><time>2026-04-14T15:34:03.903Z</time></trkpt><trkpt lat="42.4755583" lon="-7.32856"><ele>480.0</ele><time>2026-04-14T15:34:05.904Z</time></trkpt><trkpt lat="42.4755083" lon="-7.3285"><ele>480.0</ele><time>2026-04-14T15:34:06.903Z</time></trkpt><trkpt lat="42.4754433" lon="-7.32846"><ele>480.0</ele><time>2026-04-14T15:34:07.903Z</time></trkpt><trkpt lat="42.4753567" lon="-7.3284383"><ele>480.0</ele><time>2026-04-14T15:34:08.903Z</time></trkpt><trkpt lat="42.4752567" lon="-7.3284183"><ele>480.0</ele><time>2026-04-14T15:34:09.904Z</time></trkpt><trkpt lat="42.4751483" lon="-7.3284033"><ele>480.0</ele><time>2026-04-14T15:34:10.904Z</time></trkpt><trkpt lat="42.4750417" lon="-7.328385"><ele>480.0</ele><time>2026-04-14T15:34:11.903Z</time></trkpt><trkpt lat="42.474935" lon="-7.3283633"><ele>480.0</ele><time>2026-04-14T15:34:12.903Z</time></trkpt><trkpt lat="42.47482" lon="-7.3283583"><ele>480.0</ele><time>2026-04-14T15:34:13.904Z</time></trkpt><trkpt lat="42.474685" lon="-7.32836"><ele>485.33333333333337</ele><time>2026-04-14T15:34:14.903Z</time></trkpt><trkpt lat="42.4745367" lon="-7.3283617"><ele>490.6666666666667</ele><time>2026-04-14T15:34:15.904Z</time></trkpt><trkpt lat="42.4743817" lon="-7.328375"><ele>496.0</ele><time>2026-04-14T15:34:16.903Z</time></trkpt><trkpt lat="42.4742167" lon="-7.328405"><ele>496.0</ele><time>2026-04-14T15:34:17.903Z</time></trkpt><trkpt lat="42.4740533" lon="-7.3284367"><ele>496.0</ele><time>2026-04-14T15:34:18.903Z</time></trkpt><trkpt lat="42.4739217" lon="-7.328465"><ele>496.0</ele><time>2026-04-14T15:34:19.904Z</time></trkpt><trkpt lat="42.4738167" lon="-7.3285117"><ele>496.0</ele><time>2026-04-14T15:34:20.903Z</time></trkpt><trkpt lat="42.4737233" lon="-7.328585"><ele>496.0</ele><time>2026-04-14T15:34:21.904Z</time></trkpt><trkpt lat="42.4736383" lon="-7.3286783"><ele>496.0</ele><time>2026-04-14T15:34:22.904Z</time></trkpt><trkpt lat="42.4735783" lon="-7.3287833"><ele>496.0</ele><time>2026-04-14T15:34:23.904Z</time></trkpt><trkpt lat="42.4735267" lon="-7.3289133"><ele>496.0</ele><time>2026-04-14T15:34:24.904Z</time></trkpt><trkpt lat="42.4734867" lon="-7.3290767"><ele>496.0</ele><time>2026-04-14T15:34:25.904Z</time></trkpt><trkpt lat="42.4734567" lon="-7.3292783"><ele>497.0</ele><time>2026-04-14T15:34:26.903Z</time></trkpt><trkpt lat="42.47342" lon="-7.3294833"><ele>498.0</ele><time>2026-04-14T15:34:27.903Z</time></trkpt><trkpt lat="42.4733683" lon="-7.32967"><ele>499.0</ele><time>2026-04-14T15:34:28.903Z</time></trkpt><trkpt lat="42.4733167" lon="-7.3298167"><ele>500.0</ele><time>2026-04-14T15:34:29.903Z</time></trkpt><trkpt lat="42.473255" lon="-7.3299317"><ele>497.5</ele><time>2026-04-14T15:34:30.903Z</time></trkpt><trkpt lat="42.4731717" lon="-7.3300217"><ele>495.0</ele><time>2026-04-14T15:34:31.904Z</time></trkpt><trkpt lat="42.47307" lon="-7.33011"><ele>492.5</ele><time>2026-04-14T15:34:32.904Z</time></trkpt><trkpt lat="42.472955" lon="-7.3302117"><ele>490.0</ele><time>2026-04-14T15:34:33.903Z</time></trkpt><trkpt lat="42.47282" lon="-7.3303283"><ele>488.6666666666667</ele><time>2026-04-14T15:34:34.904Z</time></trkpt><trkpt lat="42.4726833" lon="-7.330455"><ele>487.33333333333337</ele><time>2026-04-14T15:34:35.903Z</time></trkpt><trkpt lat="42.4725533" lon="-7.3305783"><ele>486.0</ele><time>2026-04-14T15:34:36.903Z</time></trkpt><trkpt lat="42.4724267" lon="-7.3307133"><ele>484.33333333333337</ele><time>2026-04-14T15:34:37.904Z</time></trkpt><trkpt lat="42.472295" lon="-7.3308517"><ele>482.6666666666667</ele><time>2026-04-14T15:34:38.903Z</time></trkpt><trkpt lat="42.4721583" lon="-7.3309767"><ele>481.0</ele><time>2026-04-14T15:34:39.904Z</time></trkpt><trkpt lat="42.4720067" lon="-7.3311083"><ele>480.0</ele><time>2026-04-14T15:34:40.903Z</time></trkpt><trkpt lat="42.471855" lon="-7.3312433"><ele>479.0</ele><time>2026-04-14T15:34:41.904Z</time></trkpt><trkpt lat="42.471715" lon="-7.331355"><ele>478.0</ele><time>2026-04-14T15:34:42.903Z</time></trkpt><trkpt lat="42.47158" lon="-7.3314467"><ele>477.0</ele><time>2026-04-14T15:34:43.903Z</time></trkpt><trkpt lat="42.471445" lon="-7.3315167"><ele>475.99999999999994</ele><time>2026-04-14T15:34:44.903Z</time></trkpt><trkpt lat="42.4713117" lon="-7.331565"><ele>474.99999999999994</ele><time>2026-04-14T15:34:45.903Z</time></trkpt><trkpt lat="42.4712183" lon="-7.33158"><ele>474.0</ele><time>2026-04-14T15:34:46.903Z</time></trkpt><trkpt lat="42.4711517" lon="-7.3315833"><ele>473.0</ele><time>2026-04-14T15:34:47.904Z</time></trkpt><trkpt lat="42.4711017" lon="-7.331525"><ele>472.59999999999997</ele><time>2026-04-14T15:34:50.903Z</time></trkpt><trkpt lat="42.4710717" lon="-7.3314483"><ele>472.19999999999993</ele><time>2026-04-14T15:34:53.904Z</time></trkpt><trkpt lat="42.47095" lon="-7.3314717"><ele>471.8</ele><time>2026-04-14T15:34:55.903Z</time></trkpt><trkpt lat="42.4708567" lon="-7.3314917"><ele>471.4</ele><time>2026-04-14T15:34:56.903Z</time></trkpt><trkpt lat="42.47075" lon="-7.33149"><ele>471.0</ele><time>2026-04-14T15:34:57.904Z</time></trkpt><trkpt lat="42.4706283" lon="-7.331485"><ele>471.0</ele><time>2026-04-14T15:34:58.903Z</time></trkpt><trkpt lat="42.4704967" lon="-7.3314967"><ele>471.0</ele><time>2026-04-14T15:34:59.903Z</time></trkpt><trkpt lat="42.4703517" lon="-7.33152"><ele>471.0</ele><time>2026-04-14T15:35:00.904Z</time></trkpt><trkpt lat="42.4702133" lon="-7.3315367"><ele>471.0</ele><time>2026-04-14T15:35:01.903Z</time></trkpt><trkpt lat="42.4700933" lon="-7.3315517"><ele>471.0</ele><time>2026-04-14T15:35:02.904Z</time></trkpt><trkpt lat="42.4699783" lon="-7.33158"><ele>471.0</ele><time>2026-04-14T15:35:03.903Z</time></trkpt><trkpt lat="42.4698733" lon="-7.3315983"><ele>471.0</ele><time>2026-04-14T15:35:04.903Z</time></trkpt><trkpt lat="42.4697767" lon="-7.3316183"><ele>471.0</ele><time>2026-04-14T15:35:05.903Z</time></trkpt><trkpt lat="42.4696933" lon="-7.3316467"><ele>471.0</ele><time>2026-04-14T15:35:06.903Z</time></trkpt><trkpt lat="42.4696217" lon="-7.3316833"><ele>471.8</ele><time>2026-04-14T15:35:07.904Z</time></trkpt><trkpt lat="42.4695617" lon="-7.3317517"><ele>472.6</ele><time>2026-04-14T15:35:08.903Z</time></trkpt><trkpt lat="42.469505" lon="-7.3318533"><ele>473.4</ele><time>2026-04-14T15:35:09.904Z</time></trkpt><trkpt lat="42.46945" lon="-7.3319517"><ele>474.2</ele><time>2026-04-14T15:35:10.904Z</time></trkpt><trkpt lat="42.4693733" lon="-7.332035"><ele>475.0</ele><time>2026-04-14T15:35:11.903Z</time></trkpt><trkpt lat="42.4692817" lon="-7.3321"><ele>475.0</ele><time>2026-04-14T15:35:12.903Z</time></trkpt><trkpt lat="42.46918" lon="-7.3321267"><ele>475.0</ele><time>2026-04-14T15:35:13.903Z</time></trkpt><trkpt lat="42.469065" lon="-7.3321283"><ele>475.0</ele><time>2026-04-14T15:35:14.903Z</time></trkpt><trkpt lat="42.4689417" lon="-7.3321317"><ele>475.0</ele><time>2026-04-14T15:35:15.903Z</time></trkpt><trkpt lat="42.468805" lon="-7.33215"><ele>475.5</ele><time>2026-04-14T15:35:16.904Z</time></trkpt><trkpt lat="42.4686683" lon="-7.3321883"><ele>476.0</ele><time>2026-04-14T15:35:17.903Z</time></trkpt><trkpt lat="42.4685583" lon="-7.3322383"><ele>476.5</ele><time>2026-04-14T15:35:18.904Z</time></trkpt><trkpt lat="42.4684617" lon="-7.3323"><ele>477.0</ele><time>2026-04-14T15:35:19.903Z</time></trkpt><trkpt lat="42.468365" lon="-7.3323783"><ele>477.0</ele><time>2026-04-14T15:35:20.904Z</time></trkpt><trkpt lat="42.4682867" lon="-7.3324817"><ele>477.0</ele><time>2026-04-14T15:35:21.903Z</time></trkpt><trkpt lat="42.4682067" lon="-7.3326183"><ele>477.0</ele><time>2026-04-14T15:35:22.903Z</time></trkpt><trkpt lat="42.4681183" lon="-7.332765"><ele>477.0</ele><time>2026-04-14T15:35:23.903Z</time></trkpt><trkpt lat="42.46802" lon="-7.3329033"><ele>483.25</ele><time>2026-04-14T15:35:24.904Z</time></trkpt><trkpt lat="42.4679283" lon="-7.333045"><ele>489.5</ele><time>2026-04-14T15:35:25.903Z</time></trkpt><trkpt lat="42.4678583" lon="-7.3331867"><ele>495.75</ele><time>2026-04-14T15:35:26.904Z</time></trkpt><trkpt lat="42.4678183" lon="-7.33332"><ele>502.0</ele><time>2026-04-14T15:35:27.903Z</time></trkpt><trkpt lat="42.4678083" lon="-7.33343"><ele>502.0</ele><time>2026-04-14T15:35:28.904Z</time></trkpt><trkpt lat="42.4678383" lon="-7.3335317"><ele>502.00000000000006</ele><time>2026-04-14T15:35:29.903Z</time></trkpt><trkpt lat="42.467875" lon="-7.3336417"><ele>502.00000000000006</ele><time>2026-04-14T15:35:30.903Z</time></trkpt><trkpt lat="42.4678967" lon="-7.333785"><ele>502.0</ele><time>2026-04-14T15:35:31.903Z</time></trkpt><trkpt lat="42.4679083" lon="-7.3339583"><ele>502.0</ele><time>2026-04-14T15:35:32.903Z</time></trkpt><trkpt lat="42.4679133" lon="-7.3341533"><ele>502.33333333333337</ele><time>2026-04-14T15:35:33.904Z</time></trkpt><trkpt lat="42.4679267" lon="-7.33438"><ele>502.66666666666663</ele><time>2026-04-14T15:35:34.904Z</time></trkpt><trkpt lat="42.4679417" lon="-7.3346167"><ele>503.0</ele><time>2026-04-14T15:35:35.903Z</time></trkpt><trkpt lat="42.4679533" lon="-7.3348567"><ele>484.0</ele><time>2026-04-14T15:35:36.904Z</time></trkpt><trkpt lat="42.4679533" lon="-7.335075"><ele>465.0</ele><time>2026-04-14T15:35:37.904Z</time></trkpt><trkpt lat="42.4679567" lon="-7.33529"><ele>446.0</ele><time>2026-04-14T15:35:38.903Z</time></trkpt><trkpt lat="42.4679533" lon="-7.3355083"><ele>447.25</ele><time>2026-04-14T15:35:39.903Z</time></trkpt><trkpt lat="42.4679533" lon="-7.335725"><ele>448.5</ele><time>2026-04-14T15:35:40.904Z</time></trkpt><trkpt lat="42.4679683" lon="-7.3359017"><ele>449.75</ele><time>2026-04-14T15:35:41.903Z</time></trkpt><trkpt lat="42.4679933" lon="-7.3360583"><ele>451.0</ele><time>2026-04-14T15:35:42.904Z</time></trkpt><trkpt lat="42.46802" lon="-7.3362"><ele>451.0</ele><time>2026-04-14T15:35:43.903Z</time></trkpt><trkpt lat="42.4680533" lon="-7.336325"><ele>451.0</ele><time>2026-04-14T15:35:44.904Z</time></trkpt><trkpt lat="42.46809" lon="-7.3364517"><ele>451.0</ele><time>2026-04-14T15:35:45.903Z</time></trkpt><trkpt lat="42.4681183" lon="-7.3366017"><ele>451.0</ele><time>2026-04-14T15:35:46.903Z</time></trkpt><trkpt lat="42.468145" lon="-7.336765"><ele>451.0</ele><time>2026-04-14T15:35:47.904Z</time></trkpt><trkpt lat="42.4681717" lon="-7.3369483"><ele>453.75</ele><time>2026-04-14T15:35:48.903Z</time></trkpt><trkpt lat="42.4681933" lon="-7.3371367"><ele>456.5</ele><time>2026-04-14T15:35:49.904Z</time></trkpt><trkpt lat="42.468215" lon="-7.33734"><ele>459.25</ele><time>2026-04-14T15:35:50.903Z</time></trkpt><trkpt lat="42.4682167" lon="-7.3375517"><ele>462.0</ele><time>2026-04-14T15:35:51.903Z</time></trkpt><trkpt lat="42.46822" lon="-7.3377883"><ele>477.0</ele><time>2026-04-14T15:35:52.904Z</time></trkpt><trkpt lat="42.4682867" lon="-7.3324817"><ele>477.0</ele><time>2026-04-14T15:35:21.903Z</time></trkpt><trkpt lat="42.4682067" lon="-7.3326183"><ele>477.0</ele><time>2026-04-14T15:35:22.903Z</time></trkpt><trkpt lat="42.4681183" lon="-7.332765"><ele>477.0</ele><time>2026-04-14T15:35:23.903Z</time></trkpt><trkpt lat="42.46802" lon="-7.3329033"><ele>477.0</ele><time>2026-04-14T15:35:24.904Z</time></trkpt><trkpt lat="42.4679283" lon="-7.333045"><ele>482.0</ele><time>2026-04-14T15:35:25.903Z</time></trkpt><trkpt lat="42.4678583" lon="-7.3331867"><ele>487.00000000000006</ele><time>2026-04-14T15:35:26.904Z</time></trkpt><trkpt lat="42.4678183" lon="-7.33332"><ele>492.00000000000006</ele><time>2026-04-14T15:35:27.903Z</time></trkpt><trkpt lat="42.4678083" lon="-7.33343"><ele>497.0</ele><time>2026-04-14T15:35:28.904Z</time></trkpt><trkpt lat="42.4678383" lon="-7.3335317"><ele>502.0</ele><time>2026-04-14T15:35:29.903Z</time></trkpt><trkpt lat="42.467875" lon="-7.3336417"><ele>502.0</ele><time>2026-04-14T15:35:30.903Z</time></trkpt><trkpt lat="42.4678967" lon="-7.333785"><ele>502.0</ele><time>2026-04-14T15:35:31.903Z</time></trkpt><trkpt lat="42.4679083" lon="-7.3339583"><ele>502.0</ele><time>2026-04-14T15:35:32.903Z</time></trkpt><trkpt lat="42.4679133" lon="-7.3341533"><ele>502.0</ele><time>2026-04-14T15:35:33.904Z</time></trkpt><trkpt lat="42.4679267" lon="-7.33438"><ele>502.33333333333337</ele><time>2026-04-14T15:35:34.904Z</time></trkpt><trkpt lat="42.4679417" lon="-7.3346167"><ele>502.66666666666663</ele><time>2026-04-14T15:35:35.903Z</time></trkpt><trkpt lat="42.4679533" lon="-7.3348567"><ele>503.0</ele><time>2026-04-14T15:35:36.904Z</time></trkpt><trkpt lat="42.4679533" lon="-7.335075"><ele>485.66666666666663</ele><time>2026-04-14T15:35:37.904Z</time></trkpt><trkpt lat="42.4679567" lon="-7.33529"><ele>468.33333333333337</ele><time>2026-04-14T15:35:38.903Z</time></trkpt><trkpt lat="42.4679533" lon="-7.3355083"><ele>451.0</ele><time>2026-04-14T15:35:39.903Z</time></trkpt><trkpt lat="42.4679533" lon="-7.335725"><ele>451.0</ele><time>2026-04-14T15:35:40.904Z</time></trkpt><trkpt lat="42.4679683" lon="-7.3359017"><ele>451.0</ele><time>2026-04-14T15:35:41.903Z</time></trkpt><trkpt lat="42.4679933" lon="-7.3360583"><ele>451.0</ele><time>2026-04-14T15:35:42.904Z</time></trkpt><trkpt lat="42.46802" lon="-7.3362"><ele>451.0</ele><time>2026-04-14T15:35:43.903Z</time></trkpt><trkpt lat="42.4680533" lon="-7.336325"><ele>453.75</ele><time>2026-04-14T15:35:44.904Z</time></trkpt><trkpt lat="42.46809" lon="-7.3364517"><ele>456.5</ele><time>2026-04-14T15:35:45.903Z</time></trkpt><trkpt lat="42.4681183" lon="-7.3366017"><ele>459.25</ele><time>2026-04-14T15:35:46.903Z</time></trkpt><trkpt lat="42.468145" lon="-7.336765"><ele>462.0</ele><time>2026-04-14T15:35:47.904Z</time></trkpt><trkpt lat="42.4681717" lon="-7.3369483"><ele>462.0</ele><time>2026-04-14T15:35:48.903Z</time></trkpt><trkpt lat="42.4681933" lon="-7.3371367"><ele>462.0</ele><time>2026-04-14T15:35:49.904Z</time></trkpt><trkpt lat="42.468215" lon="-7.33734"><ele>462.0</ele><time>2026-04-14T15:35:50.903Z</time></trkpt><trkpt lat="42.4682167" lon="-7.3375517"><ele>462.0</ele><time>2026-04-14T15:35:51.903Z</time></trkpt><trkpt lat="42.46822" lon="-7.3377883"><ele>463.66666666666663</ele><time>2026-04-14T15:35:52.904Z</time></trkpt><trkpt lat="42.4682183" lon="-7.3380567"><ele>465.3333333333333</ele><time>2026-04-14T15:35:53.903Z</time></trkpt><trkpt lat="42.468225" lon="-7.33833"><ele>467.0</ele><time>2026-04-14T15:35:54.904Z</time></trkpt><trkpt lat="42.4682267" lon="-7.3385833"><ele>467.0</ele><time>2026-04-14T15:35:55.904Z</time></trkpt><trkpt lat="42.4682283" lon="-7.3388083"><ele>467.0</ele><time>2026-04-14T15:35:56.903Z</time></trkpt><trkpt lat="42.46822" lon="-7.3390083"><ele>467.0</ele><time>2026-04-14T15:35:57.903Z</time></trkpt><trkpt lat="42.468205" lon="-7.339205"><ele>465.75</ele><time>2026-04-14T15:35:58.904Z</time></trkpt><trkpt lat="42.46817" lon="-7.3394283"><ele>464.5</ele><time>2026-04-14T15:35:59.904Z</time></trkpt><trkpt lat="42.4681317" lon="-7.3396233"><ele>463.25</ele><time>2026-04-14T15:36:00.903Z</time></trkpt><trkpt lat="42.468095" lon="-7.33975"><ele>462.0</ele><time>2026-04-14T15:36:01.903Z</time></trkpt><trkpt lat="42.46804" lon="-7.33986"><ele>460.75</ele><time>2026-04-14T15:36:03.903Z</time></trkpt><trkpt lat="42.46796" lon="-7.33984"><ele>459.5</ele><time>2026-04-14T15:36:05.903Z</time></trkpt><trkpt lat="42.4678283" lon="-7.3397567"><ele>458.25</ele><time>2026-04-14T15:36:07.903Z</time></trkpt><trkpt lat="42.4677233" lon="-7.3397033"><ele>457.0</ele><time>2026-04-14T15:36:08.904Z</time></trkpt><trkpt lat="42.4675983" lon="-7.33964"><ele>460.6666666666667</ele><time>2026-04-14T15:36:09.904Z</time></trkpt><trkpt lat="42.4674533" lon="-7.3395633"><ele>464.33333333333337</ele><time>2026-04-14T15:36:10.904Z</time></trkpt><trkpt lat="42.4672733" lon="-7.3394717"><ele>468.0</ele><time>2026-04-14T15:36:11.904Z</time></trkpt><trkpt lat="42.4670717" lon="-7.3393783"><ele>468.0</ele><time>2026-04-14T15:36:12.903Z</time></trkpt><trkpt lat="42.4668783" lon="-7.3392867"><ele>468.0</ele><time>2026-04-14T15:36:13.903Z</time></trkpt><trkpt lat="42.4666917" lon="-7.3391933"><ele>468.0</ele><time>2026-04-14T15:36:14.903Z</time></trkpt><trkpt lat="42.4665083" lon="-7.339095"><ele>468.0</ele><time>2026-04-14T15:36:15.903Z</time></trkpt><trkpt lat="42.4663283" lon="-7.3390217"><ele>468.0</ele><time>2026-04-14T15:36:16.904Z</time></trkpt><trkpt lat="42.46615" lon="-7.338965"><ele>468.0</ele><time>2026-04-14T15:36:17.904Z</time></trkpt><trkpt lat="42.4659733" lon="-7.338925"><ele>470.33333333333337</ele><time>2026-04-14T15:36:18.903Z</time></trkpt><trkpt lat="42.4657933" lon="-7.33889"><ele>472.6666666666667</ele><time>2026-04-14T15:36:19.903Z</time></trkpt><trkpt lat="42.4655983" lon="-7.3388667"><ele>475.0</ele><time>2026-04-14T15:36:20.904Z</time></trkpt><trkpt lat="42.4653917" lon="-7.338835"><ele>475.0</ele><time>2026-04-14T15:36:21.903Z</time></trkpt><trkpt lat="42.4651833" lon="-7.3387867"><ele>475.0</ele><time>2026-04-14T15:36:22.903Z</time></trkpt><trkpt lat="42.46499" lon="-7.33873"><ele>475.0</ele><time>2026-04-14T15:36:23.904Z</time></trkpt><trkpt lat="42.4648233" lon="-7.3386717"><ele>475.0</ele><time>2026-04-14T15:36:24.903Z</time></trkpt><trkpt lat="42.4646683" lon="-7.3386083"><ele>475.0</ele><time>2026-04-14T15:36:25.904Z</time></trkpt><trkpt lat="42.4645283" lon="-7.3385233"><ele>475.0</ele><time>2026-04-14T15:36:26.904Z</time></trkpt><trkpt lat="42.4643683" lon="-7.338435"><ele>471.33333333333337</ele><time>2026-04-14T15:36:27.903Z</time></trkpt><trkpt lat="42.4641833" lon="-7.3383667"><ele>467.66666666666663</ele><time>2026-04-14T15:36:28.903Z</time></trkpt><trkpt lat="42.4639767" lon="-7.3383067"><ele>464.0</ele><time>2026-04-14T15:36:29.903Z</time></trkpt><trkpt lat="42.4637767" lon="-7.3382733"><ele>463.3333333333333</ele><time>2026-04-14T15:36:30.903Z</time></trkpt><trkpt lat="42.46358" lon="-7.3382617"><ele>462.66666666666663</ele><time>2026-04-14T15:36:31.903Z</time></trkpt><trkpt lat="42.4633917" lon="-7.33827"><ele>462.0</ele><time>2026-04-14T15:36:32.903Z</time></trkpt><trkpt lat="42.463225" lon="-7.3383117"><ele>462.0</ele><time>2026-04-14T15:36:33.903Z</time></trkpt><trkpt lat="42.4630567" lon="-7.3383783"><ele>462.0</ele><time>2026-04-14T15:36:34.903Z</time></trkpt><trkpt lat="42.4629017" lon="-7.3384917"><ele>462.0</ele><time>2026-04-14T15:36:35.904Z</time></trkpt><trkpt lat="42.4627633" lon="-7.338625"><ele>459.33333333333337</ele><time>2026-04-14T15:36:36.904Z</time></trkpt><trkpt lat="42.46264" lon="-7.338775"><ele>456.6666666666667</ele><time>2026-04-14T15:36:37.903Z</time></trkpt><trkpt lat="42.4625433" lon="-7.3389333"><ele>454.0</ele><time>2026-04-14T15:36:38.904Z</time></trkpt><trkpt lat="42.46246" lon="-7.3390767"><ele>454.0</ele><time>2026-04-14T15:36:39.903Z</time></trkpt><trkpt lat="42.462385" lon="-7.33919"><ele>454.0</ele><time>2026-04-14T15:36:40.903Z</time></trkpt><trkpt lat="42.4622933" lon="-7.339275"><ele>454.0</ele><time>2026-04-14T15:36:41.904Z</time></trkpt><trkpt lat="42.46218" lon="-7.3393333"><ele>454.0</ele><time>2026-04-14T15:36:42.904Z</time></trkpt><trkpt lat="42.4620433" lon="-7.3393817"><ele>457.0</ele><time>2026-04-14T15:36:43.903Z</time></trkpt><trkpt lat="42.46188" lon="-7.3394433"><ele>460.0</ele><time>2026-04-14T15:36:44.903Z</time></trkpt><trkpt lat="42.4617383" lon="-7.3395133"><ele>463.0</ele><time>2026-04-14T15:36:45.904Z</time></trkpt><trkpt lat="42.4616217" lon="-7.33958"><ele>466.0</ele><time>2026-04-14T15:36:46.904Z</time></trkpt><trkpt lat="42.461515" lon="-7.3396483"><ele>460.75</ele><time>2026-04-14T15:36:47.904Z</time></trkpt><trkpt lat="42.4614017" lon="-7.3397383"><ele>455.5</ele><time>2026-04-14T15:36:48.904Z</time></trkpt><trkpt lat="42.4612883" lon="-7.3398383"><ele>450.25</ele><time>2026-04-14T15:36:49.904Z</time></trkpt><trkpt lat="42.4611833" lon="-7.3399617"><ele>445.0</ele><time>2026-04-14T15:36:50.903Z</time></trkpt><trkpt lat="42.4610933" lon="-7.3400733"><ele>444.6666666666667</ele><time>2026-04-14T15:36:51.904Z</time></trkpt><trkpt lat="42.4610117" lon="-7.3401683"><ele>444.33333333333337</ele><time>2026-04-14T15:36:52.903Z</time></trkpt><trkpt lat="42.46094" lon="-7.34024"><ele>444.0</ele><time>2026-04-14T15:36:53.904Z</time></trkpt><trkpt lat="42.4608683" lon="-7.3402767"><ele>443.66666666666663</ele><time>2026-04-14T15:36:54.903Z</time></trkpt><trkpt lat="42.4607983" lon="-7.3402717"><ele>443.3333333333333</ele><time>2026-04-14T15:36:55.903Z</time></trkpt><trkpt lat="42.4607367" lon="-7.340225"><ele>443.0</ele><time>2026-04-14T15:36:56.904Z</time></trkpt><trkpt lat="42.4606717" lon="-7.3401383"><ele>443.0</ele><time>2026-04-14T15:36:57.904Z</time></trkpt><trkpt lat="42.4605983" lon="-7.3400167"><ele>443.0</ele><time>2026-04-14T15:36:58.903Z</time></trkpt><trkpt lat="42.46051" lon="-7.3398983"><ele>443.0</ele><time>2026-04-14T15:36:59.903Z</time></trkpt><trkpt lat="42.4604233" lon="-7.3397983"><ele>443.0</ele><time>2026-04-14T15:37:00.904Z</time></trkpt><trkpt lat="42.4603183" lon="-7.3396967"><ele>441.0</ele><time>2026-04-14T15:37:01.904Z</time></trkpt><trkpt lat="42.460195" lon="-7.3396233"><ele>439.0</ele><time>2026-04-14T15:37:02.904Z</time></trkpt><trkpt lat="42.460065" lon="-7.339575"><ele>437.0</ele><time>2026-04-14T15:37:03.903Z</time></trkpt><trkpt lat="42.4599317" lon="-7.339525"><ele>435.0</ele><time>2026-04-14T15:37:04.903Z</time></trkpt><trkpt lat="42.4597983" lon="-7.33947"><ele>435.0</ele><time>2026-04-14T15:37:05.903Z</time></trkpt><trkpt lat="42.45968" lon="-7.3394183"><ele>435.0</ele><time>2026-04-14T15:37:06.904Z</time></trkpt><trkpt lat="42.45958" lon="-7.3394017"><ele>435.0</ele><time>2026-04-14T15:37:07.904Z</time></trkpt><trkpt lat="42.4595017" lon="-7.3394333"><ele>435.0</ele><time>2026-04-14T15:37:08.904Z</time></trkpt><trkpt lat="42.4594317" lon="-7.339535"><ele>435.0</ele><time>2026-04-14T15:37:10.903Z</time></trkpt><trkpt lat="42.4594833" lon="-7.3396883"><ele>432.0</ele><time>2026-04-14T15:37:12.903Z</time></trkpt><trkpt lat="42.45955" lon="-7.3398117"><ele>429.0</ele><time>2026-04-14T15:37:13.903Z</time></trkpt><trkpt lat="42.45964" lon="-7.339985"><ele>426.0</ele><time>2026-04-14T15:37:14.903Z</time></trkpt><trkpt lat="42.4597317" lon="-7.34021"><ele>426.0</ele><time>2026-04-14T15:37:15.904Z</time></trkpt><trkpt lat="42.4597983" lon="-7.340425"><ele>426.0</ele><time>2026-04-14T15:37:16.904Z</time></trkpt><trkpt lat="42.4598383" lon="-7.3406583"><ele>426.0</ele><time>2026-04-14T15:37:17.903Z</time></trkpt><trkpt lat="42.4598583" lon="-7.340915"><ele>423.0</ele><time>2026-04-14T15:37:18.903Z</time></trkpt><trkpt lat="42.4598717" lon="-7.3411783"><ele>420.0</ele><time>2026-04-14T15:37:19.904Z</time></trkpt><trkpt lat="42.459875" lon="-7.341425"><ele>417.0</ele><time>2026-04-14T15:37:20.904Z</time></trkpt><trkpt lat="42.4598867" lon="-7.341675"><ele>414.0</ele><time>2026-04-14T15:37:21.904Z</time></trkpt><trkpt lat="42.4598917" lon="-7.3419267"><ele>411.0</ele><time>2026-04-14T15:37:22.903Z</time></trkpt><trkpt lat="42.459905" lon="-7.342175"><ele>408.0</ele><time>2026-04-14T15:37:23.904Z</time></trkpt><trkpt lat="42.45992" lon="-7.3423983"><ele>404.0</ele><time>2026-04-14T15:37:24.904Z</time></trkpt><trkpt lat="42.4599467" lon="-7.3425867"><ele>400.0</ele><time>2026-04-14T15:37:25.903Z</time></trkpt><trkpt lat="42.4599933" lon="-7.3427733"><ele>396.0</ele><time>2026-04-14T15:37:26.903Z</time></trkpt><trkpt lat="42.46006" lon="-7.3429617"><ele>392.0</ele><time>2026-04-14T15:37:27.903Z</time></trkpt><trkpt lat="42.460125" lon="-7.3431717"><ele>385.3333333333333</ele><time>2026-04-14T15:37:28.903Z</time></trkpt><trkpt lat="42.460195" lon="-7.3434"><ele>378.66666666666663</ele><time>2026-04-14T15:37:29.904Z</time></trkpt><trkpt lat="42.46028" lon="-7.3436433"><ele>372.0</ele><time>2026-04-14T15:37:30.904Z</time></trkpt><trkpt lat="42.4603667" lon="-7.3438833"><ele>371.3333333333333</ele><time>2026-04-14T15:37:31.904Z</time></trkpt><trkpt lat="42.4604483" lon="-7.3441183"><ele>370.66666666666663</ele><time>2026-04-14T15:37:32.904Z</time></trkpt><trkpt lat="42.4605233" lon="-7.34434"><ele>370.0</ele><time>2026-04-14T15:37:33.903Z</time></trkpt><trkpt lat="42.4605983" lon="-7.3445383"><ele>370.0</ele><time>2026-04-14T15:37:34.904Z</time></trkpt><trkpt lat="42.4606517" lon="-7.3446983"><ele>370.0</ele><time>2026-04-14T15:37:35.904Z</time></trkpt><trkpt lat="42.460705" lon="-7.344825"><ele>370.0</ele><time>2026-04-14T15:37:36.903Z</time></trkpt><trkpt lat="42.460745" lon="-7.3449117"><ele>370.0</ele><time>2026-04-14T15:37:37.903Z</time></trkpt><trkpt lat="42.46075" lon="-7.3449983"><ele>370.0</ele><time>2026-04-14T15:37:39.903Z</time></trkpt><trkpt lat="42.46064" lon="-7.3449817"><ele>365.2</ele><time>2026-04-14T15:37:41.903Z</time></trkpt><trkpt lat="42.4605417" lon="-7.3449183"><ele>360.4</ele><time>2026-04-14T15:37:42.904Z</time></trkpt><trkpt lat="42.4604483" lon="-7.344865"><ele>355.6</ele><time>2026-04-14T15:37:43.904Z</time></trkpt><trkpt lat="42.4603683" lon="-7.3448517"><ele>350.8</ele><time>2026-04-14T15:37:44.904Z</time></trkpt><trkpt lat="42.4603383" lon="-7.3449533"><ele>346.0</ele><time>2026-04-14T15:38:19.904Z</time></trkpt><trkpt lat="42.460365" lon="-7.3450583"><ele>346.0</ele><time>2026-04-14T15:38:21.904Z</time></trkpt><trkpt lat="42.4603833" lon="-7.3451417"><ele>346.0</ele><time>2026-04-14T15:38:22.904Z</time></trkpt><trkpt lat="42.460405" lon="-7.3452317"><ele>346.0</ele><time>2026-04-14T15:38:23.903Z</time></trkpt><trkpt lat="42.4604233" lon="-7.34533"><ele>346.0</ele><time>2026-04-14T15:38:24.903Z</time></trkpt><trkpt lat="42.4604417" lon="-7.3454333"><ele>346.0</ele><time>2026-04-14T15:38:25.903Z</time></trkpt><trkpt lat="42.4604617" lon="-7.3455433"><ele>346.0</ele><time>2026-04-14T15:38:26.903Z</time></trkpt><trkpt lat="42.4604883" lon="-7.3456517"><ele>342.16666666666663</ele><time>2026-04-14T15:38:27.904Z</time></trkpt><trkpt lat="42.460515" lon="-7.3457617"><ele>338.3333333333333</ele><time>2026-04-14T15:38:28.903Z</time></trkpt><trkpt lat="42.46053" lon="-7.3458617"><ele>334.5</ele><time>2026-04-14T15:38:29.903Z</time></trkpt><trkpt lat="42.4605317" lon="-7.3459667"><ele>330.6666666666667</ele><time>2026-04-14T15:38:30.904Z</time></trkpt><trkpt lat="42.4605233" lon="-7.3460583"><ele>326.83333333333337</ele><time>2026-04-14T15:38:31.903Z</time></trkpt><trkpt lat="42.4605067" lon="-7.3461517"><ele>323.0</ele><time>2026-04-14T15:38:32.904Z</time></trkpt><trkpt lat="42.460485" lon="-7.3462583"><ele>319.79999999999995</ele><time>2026-04-14T15:38:33.903Z</time></trkpt><trkpt lat="42.4604767" lon="-7.34639"><ele>316.59999999999997</ele><time>2026-04-14T15:38:34.903Z</time></trkpt><trkpt lat="42.4604767" lon="-7.3465183"><ele>313.4</ele><time>2026-04-14T15:38:35.903Z</time></trkpt><trkpt lat="42.460485" lon="-7.3466617"><ele>310.2</ele><time>2026-04-14T15:38:36.903Z</time></trkpt><trkpt lat="42.460495" lon="-7.3468083"><ele>307.0</ele><time>2026-04-14T15:38:37.903Z</time></trkpt><trkpt lat="42.460505" lon="-7.346955"><ele>307.0</ele><time>2026-04-14T15:38:38.904Z</time></trkpt><trkpt lat="42.4605033" lon="-7.3470883"><ele>307.0</ele><time>2026-04-14T15:38:39.903Z</time></trkpt><trkpt lat="42.4605033" lon="-7.347205"><ele>307.0</ele><time>2026-04-14T15:38:40.903Z</time></trkpt><trkpt lat="42.460495" lon="-7.34732"><ele>307.0</ele><time>2026-04-14T15:38:41.904Z</time></trkpt><trkpt lat="42.46048" lon="-7.3474333"><ele>307.0</ele><time>2026-04-14T15:38:42.904Z</time></trkpt><trkpt lat="42.46046" lon="-7.347545"><ele>307.0</ele><time>2026-04-14T15:38:43.904Z</time></trkpt><trkpt lat="42.460435" lon="-7.3476533"><ele>307.8333333333333</ele><time>2026-04-14T15:38:44.903Z</time></trkpt><trkpt lat="42.4604067" lon="-7.34777"><ele>308.66666666666663</ele><time>2026-04-14T15:38:45.903Z</time></trkpt><trkpt lat="42.4603783" lon="-7.3478883"><ele>309.5</ele><time>2026-04-14T15:38:46.903Z</time></trkpt><trkpt lat="42.4603567" lon="-7.3480083"><ele>310.3333333333333</ele><time>2026-04-14T15:38:47.904Z</time></trkpt><trkpt lat="42.4603433" lon="-7.3481267"><ele>311.1666666666667</ele><time>2026-04-14T15:38:48.904Z</time></trkpt><trkpt lat="42.4603433" lon="-7.3482383"><ele>312.0</ele><time>2026-04-14T15:38:49.903Z</time></trkpt><trkpt lat="42.46036" lon="-7.3483483"><ele>310.2857142857143</ele><time>2026-04-14T15:38:50.903Z</time></trkpt><trkpt lat="42.4603917" lon="-7.348445"><ele>308.57142857142856</ele><time>2026-04-14T15:38:51.904Z</time></trkpt><trkpt lat="42.4604283" lon="-7.3485233"><ele>306.85714285714283</ele><time>2026-04-14T15:38:52.904Z</time></trkpt><trkpt lat="42.460475" lon="-7.3486033"><ele>305.1428571428571</ele><time>2026-04-14T15:38:53.904Z</time></trkpt><trkpt lat="42.4605167" lon="-7.3486683"><ele>303.42857142857144</ele><time>2026-04-14T15:38:54.903Z</time></trkpt><trkpt lat="42.4605183" lon="-7.34878"><ele>301.71428571428567</ele><time>2026-04-14T15:38:56.903Z</time></trkpt><trkpt lat="42.460445" lon="-7.3488167"><ele>300.0</ele><time>2026-04-14T15:38:58.903Z</time></trkpt><trkpt lat="42.4603683" lon="-7.3487967"><ele>300.0</ele><time>2026-04-14T15:38:59.904Z</time></trkpt><trkpt lat="42.4602767" lon="-7.3487683"><ele>300.0</ele><time>2026-04-14T15:39:00.903Z</time></trkpt><trkpt lat="42.4601717" lon="-7.3487633"><ele>300.0</ele><time>2026-04-14T15:39:01.904Z</time></trkpt><trkpt lat="42.4600567" lon="-7.34879"><ele>300.0</ele><time>2026-04-14T15:39:02.903Z</time></trkpt><trkpt lat="42.4599433" lon="-7.3488283"><ele>300.0</ele><time>2026-04-14T15:39:03.903Z</time></trkpt><trkpt lat="42.4598283" lon="-7.348865"><ele>292.5</ele><time>2026-04-14T15:39:04.904Z</time></trkpt><trkpt lat="42.4597083" lon="-7.34889"><ele>285.0</ele><time>2026-04-14T15:39:05.904Z</time></trkpt><trkpt lat="42.459595" lon="-7.3489133"><ele>277.5</ele><time>2026-04-14T15:39:06.904Z</time></trkpt><trkpt lat="42.4594833" lon="-7.34894"><ele>270.0</ele><time>2026-04-14T15:39:07.904Z</time></trkpt><trkpt lat="42.4593683" lon="-7.3489617"><ele>269.2</ele><time>2026-04-14T15:39:08.904Z</time></trkpt><trkpt lat="42.4592683" lon="-7.34898"><ele>268.4</ele><time>2026-04-14T15:39:09.904Z</time></trkpt><trkpt lat="42.4591733" lon="-7.34899"><ele>267.6</ele><time>2026-04-14T15:39:10.903Z</time></trkpt><trkpt lat="42.4590767" lon="-7.349005"><ele>266.8</ele><time>2026-04-14T15:39:11.903Z</time></trkpt><trkpt lat="42.4589817" lon="-7.3490333"><ele>266.0</ele><time>2026-04-14T15:39:12.904Z</time></trkpt><trkpt lat="42.4588917" lon="-7.349065"><ele>266.0</ele><time>2026-04-14T15:39:13.903Z</time></trkpt><trkpt lat="42.4588167" lon="-7.3490917"><ele>266.0</ele><time>2026-04-14T15:39:14.903Z</time></trkpt><trkpt lat="42.4587417" lon="-7.3491083"><ele>266.0</ele><time>2026-04-14T15:39:15.904Z</time></trkpt><trkpt lat="42.458665" lon="-7.349145"><ele>266.0</ele><time>2026-04-14T15:39:16.903Z</time></trkpt><trkpt lat="42.458585" lon="-7.34917"><ele>266.0</ele><time>2026-04-14T15:39:17.904Z</time></trkpt><trkpt lat="42.4585117" lon="-7.349185"><ele>266.0</ele><time>2026-04-14T15:39:18.904Z</time></trkpt><trkpt lat="42.4584217" lon="-7.3492217"><ele>267.0</ele><time>2026-04-14T15:39:19.904Z</time></trkpt><trkpt lat="42.45834" lon="-7.3492717"><ele>268.0</ele><time>2026-04-14T15:39:20.904Z</time></trkpt><trkpt lat="42.4582617" lon="-7.3493333"><ele>269.0</ele><time>2026-04-14T15:39:21.904Z</time></trkpt><trkpt lat="42.4581833" lon="-7.34938"><ele>270.0</ele><time>2026-04-14T15:39:22.903Z</time></trkpt><trkpt lat="42.458115" lon="-7.3494033"><ele>271.0</ele><time>2026-04-14T15:39:23.903Z</time></trkpt><trkpt lat="42.4580417" lon="-7.3493967"><ele>272.0</ele><time>2026-04-14T15:39:24.904Z</time></trkpt><trkpt lat="42.4579783" lon="-7.34936"><ele>270.4</ele><time>2026-04-14T15:39:25.904Z</time></trkpt><trkpt lat="42.45792" lon="-7.34929"><ele>268.79999999999995</ele><time>2026-04-14T15:39:26.903Z</time></trkpt><trkpt lat="42.457875" lon="-7.349185"><ele>267.2</ele><time>2026-04-14T15:39:27.904Z</time></trkpt><trkpt lat="42.4578417" lon="-7.349045"><ele>265.59999999999997</ele><time>2026-04-14T15:39:28.903Z</time></trkpt><trkpt lat="42.4578267" lon="-7.348875"><ele>264.0</ele><time>2026-04-14T15:39:29.903Z</time></trkpt><trkpt lat="42.45781" lon="-7.34869"><ele>262.75</ele><time>2026-04-14T15:39:30.903Z</time></trkpt><trkpt lat="42.4577917" lon="-7.3485133"><ele>261.5</ele><time>2026-04-14T15:39:31.903Z</time></trkpt><trkpt lat="42.4577717" lon="-7.34835"><ele>260.25</ele><time>2026-04-14T15:39:32.904Z</time></trkpt><trkpt lat="42.457745" lon="-7.348175"><ele>259.0</ele><time>2026-04-14T15:39:33.904Z</time></trkpt><trkpt lat="42.4577333" lon="-7.34799"><ele>258.2</ele><time>2026-04-14T15:39:34.903Z</time></trkpt><trkpt lat="42.4577267" lon="-7.34782"><ele>257.4</ele><time>2026-04-14T15:39:35.904Z</time></trkpt><trkpt lat="42.4577183" lon="-7.347675"><ele>256.6</ele><time>2026-04-14T15:39:36.903Z</time></trkpt><trkpt lat="42.4577067" lon="-7.34756"><ele>255.8</ele><time>2026-04-14T15:39:37.904Z</time></trkpt><trkpt lat="42.457695" lon="-7.3474717"><ele>255.0</ele><time>2026-04-14T15:39:38.904Z</time></trkpt><trkpt lat="42.45763" lon="-7.347495"><ele>255.0</ele><time>2026-04-14T15:39:41.904Z</time></trkpt><trkpt lat="42.4576117" lon="-7.3475817"><ele>255.0</ele><time>2026-04-14T15:39:42.903Z</time></trkpt><trkpt lat="42.4575917" lon="-7.3477117"><ele>255.0</ele><time>2026-04-14T15:39:43.904Z</time></trkpt><trkpt lat="42.4575567" lon="-7.3478667"><ele>255.0</ele><time>2026-04-14T15:39:44.905Z</time></trkpt><trkpt lat="42.457495" lon="-7.348015"><ele>255.0</ele><time>2026-04-14T15:39:45.905Z</time></trkpt><trkpt lat="42.45742" lon="-7.3481467"><ele>256.0</ele><time>2026-04-14T15:39:46.905Z</time></trkpt><trkpt lat="42.4573417" lon="-7.34828"><ele>257.0</ele><time>2026-04-14T15:39:47.904Z</time></trkpt><trkpt lat="42.45727" lon="-7.3484133"><ele>258.0</ele><time>2026-04-14T15:39:48.904Z</time></trkpt><trkpt lat="42.4572017" lon="-7.348555"><ele>259.0</ele><time>2026-04-14T15:39:49.905Z</time></trkpt><trkpt lat="42.4571383" lon="-7.348695"><ele>253.5</ele><time>2026-04-14T15:39:50.904Z</time></trkpt><trkpt lat="42.457075" lon="-7.3488367"><ele>248.0</ele><time>2026-04-14T15:39:51.904Z</time></trkpt><trkpt lat="42.4570067" lon="-7.3489817"><ele>242.5</ele><time>2026-04-14T15:39:52.905Z</time></trkpt><trkpt lat="42.4569483" lon="-7.349115"><ele>237.0</ele><time>2026-04-14T15:39:53.905Z</time></trkpt><trkpt lat="42.4569183" lon="-7.3492567"><ele>237.0</ele><time>2026-04-14T15:39:54.904Z</time></trkpt><trkpt lat="42.4569033" lon="-7.34941"><ele>237.0</ele><time>2026-04-14T15:39:55.904Z</time></trkpt><trkpt lat="42.4569017" lon="-7.349575"><ele>237.0</ele><time>2026-04-14T15:39:56.904Z</time></trkpt><trkpt lat="42.45691" lon="-7.3497367"><ele>237.0</ele><time>2026-04-14T15:39:57.905Z</time></trkpt><trkpt lat="42.4569217" lon="-7.3498917"><ele>237.2</ele><time>2026-04-14T15:39:58.904Z</time></trkpt><trkpt lat="42.4569333" lon="-7.350035"><ele>237.39999999999998</ele><time>2026-04-14T15:39:59.905Z</time></trkpt><trkpt lat="42.4569483" lon="-7.35017"><ele>237.60000000000002</ele><time>2026-04-14T15:40:00.904Z</time></trkpt><trkpt lat="42.45696" lon="-7.350295"><ele>237.8</ele><time>2026-04-14T15:40:01.904Z</time></trkpt><trkpt lat="42.4569717" lon="-7.3504133"><ele>238.0</ele><time>2026-04-14T15:40:02.905Z</time></trkpt><trkpt lat="42.4569733" lon="-7.3505133"><ele>238.0</ele><time>2026-04-14T15:40:03.905Z</time></trkpt><trkpt lat="42.4569383" lon="-7.350655"><ele>238.0</ele><time>2026-04-14T15:40:05.905Z</time></trkpt><trkpt lat="42.456815" lon="-7.3506733"><ele>238.0</ele><time>2026-04-14T15:40:07.905Z</time></trkpt><trkpt lat="42.4567183" lon="-7.3506483"><ele>238.0</ele><time>2026-04-14T15:40:08.904Z</time></trkpt><trkpt lat="42.4566117" lon="-7.3506067"><ele>238.0</ele><time>2026-04-14T15:40:09.904Z</time></trkpt><trkpt lat="42.4565083" lon="-7.350565"><ele>237.99999999999997</ele><time>2026-04-14T15:40:10.904Z</time></trkpt><trkpt lat="42.4564233" lon="-7.3505233"><ele>238.0</ele><time>2026-04-14T15:40:11.904Z</time></trkpt><trkpt lat="42.4563483" lon="-7.350485"><ele>238.0</ele><time>2026-04-14T15:40:12.904Z</time></trkpt><trkpt lat="42.4562767" lon="-7.3504517"><ele>238.0</ele><time>2026-04-14T15:40:13.905Z</time></trkpt><trkpt lat="42.456215" lon="-7.3504183"><ele>237.99999999999997</ele><time>2026-04-14T15:40:14.905Z</time></trkpt><trkpt lat="42.456105" lon="-7.3503383"><ele>238.0</ele><time>2026-04-14T15:40:16.904Z</time></trkpt><trkpt lat="42.4560467" lon="-7.35029"><ele>236.16666666666666</ele><time>2026-04-14T15:40:17.905Z</time></trkpt><trkpt lat="42.4559867" lon="-7.3502483"><ele>234.33333333333331</ele><time>2026-04-14T15:40:18.904Z</time></trkpt><trkpt lat="42.4559217" lon="-7.3502017"><ele>232.5</ele><time>2026-04-14T15:40:19.904Z</time></trkpt><trkpt lat="42.45586" lon="-7.3501533"><ele>230.66666666666669</ele><time>2026-04-14T15:40:20.905Z</time></trkpt><trkpt lat="42.4558033" lon="-7.350105"><ele>228.83333333333334</ele><time>2026-04-14T15:40:21.905Z</time></trkpt><trkpt lat="42.4557183" lon="-7.3500267"><ele>227.0</ele><time>2026-04-14T15:40:23.905Z</time></trkpt><trkpt lat="42.4558183" lon="-7.3500083"><ele>227.0</ele><time>2026-04-14T15:40:28.904Z</time></trkpt><trkpt lat="42.4558867" lon="-7.350065"><ele>227.0</ele><time>2026-04-14T15:40:29.905Z</time></trkpt><trkpt lat="42.45596" lon="-7.350135"><ele>227.0</ele><time>2026-04-14T15:40:30.904Z</time></trkpt><trkpt lat="42.4560367" lon="-7.3502067"><ele>227.0</ele><time>2026-04-14T15:40:31.904Z</time></trkpt><trkpt lat="42.4561217" lon="-7.3502683"><ele>227.0</ele><time>2026-04-14T15:40:32.905Z</time></trkpt><trkpt lat="42.4562117" lon="-7.3503283"><ele>229.2</ele><time>2026-04-14T15:40:33.905Z</time></trkpt><trkpt lat="42.4563083" lon="-7.3503917"><ele>231.39999999999998</ele><time>2026-04-14T15:40:34.904Z</time></trkpt><trkpt lat="42.4564117" lon="-7.3504517"><ele>233.60000000000002</ele><time>2026-04-14T15:40:35.905Z</time></trkpt><trkpt lat="42.4565117" lon="-7.3505117"><ele>235.8</ele><time>2026-04-14T15:40:36.905Z</time></trkpt><trkpt lat="42.4566167" lon="-7.3505617"><ele>238.0</ele><time>2026-04-14T15:40:37.905Z</time></trkpt><trkpt lat="42.4567133" lon="-7.3506017"><ele>238.0</ele><time>2026-04-14T15:40:38.904Z</time></trkpt><trkpt lat="42.4568" lon="-7.3506233"><ele>238.0</ele><time>2026-04-14T15:40:39.905Z</time></trkpt><trkpt lat="42.456875" lon="-7.3506317"><ele>238.0</ele><time>2026-04-14T15:40:40.904Z</time></trkpt><trkpt lat="42.4569533" lon="-7.3505883"><ele>238.0</ele><time>2026-04-14T15:40:42.904Z</time></trkpt><trkpt lat="42.4569167" lon="-7.3504883"><ele>238.0</ele><time>2026-04-14T15:40:44.904Z</time></trkpt><trkpt lat="42.4567767" lon="-7.350415"><ele>237.99999999999997</ele><time>2026-04-14T15:40:46.904Z</time></trkpt><trkpt lat="42.4566767" lon="-7.3503767"><ele>238.0</ele><time>2026-04-14T15:40:47.905Z</time></trkpt><trkpt lat="42.4565867" lon="-7.3503467"><ele>238.0</ele><time>2026-04-14T15:40:48.905Z</time></trkpt><trkpt lat="42.4565067" lon="-7.3503133"><ele>238.0</ele><time>2026-04-14T15:40:49.905Z</time></trkpt><trkpt lat="42.4564317" lon="-7.3502883"><ele>237.99999999999997</ele><time>2026-04-14T15:40:50.904Z</time></trkpt><trkpt lat="42.4563567" lon="-7.3502817"><ele>238.0</ele><time>2026-04-14T15:40:51.904Z</time></trkpt><trkpt lat="42.4562817" lon="-7.3502967"><ele>236.0</ele><time>2026-04-14T15:40:52.904Z</time></trkpt><trkpt lat="42.45618" lon="-7.350345"><ele>234.0</ele><time>2026-04-14T15:40:54.905Z</time></trkpt><trkpt lat="42.45618" lon="-7.3505533"><ele>232.0</ele><time>2026-04-14T15:40:56.905Z</time></trkpt><trkpt lat="42.4561917" lon="-7.35069"><ele>230.0</ele><time>2026-04-14T15:40:57.904Z</time></trkpt><trkpt lat="42.4561967" lon="-7.350825"><ele>230.00000000000003</ele><time>2026-04-14T15:40:58.904Z</time></trkpt><trkpt lat="42.4561917" lon="-7.3509467"><ele>230.0</ele><time>2026-04-14T15:40:59.905Z</time></trkpt><trkpt lat="42.456185" lon="-7.3510683"><ele>230.0</ele><time>2026-04-14T15:41:00.904Z</time></trkpt><trkpt lat="42.4561817" lon="-7.3511917"><ele>230.0</ele><time>2026-04-14T15:41:01.905Z</time></trkpt><trkpt lat="42.4561867" lon="-7.3513167"><ele>230.00000000000003</ele><time>2026-04-14T15:41:02.904Z</time></trkpt><trkpt lat="42.4561983" lon="-7.3514317"><ele>230.0</ele><time>2026-04-14T15:41:03.904Z</time></trkpt><trkpt lat="42.4562233" lon="-7.3515217"><ele>230.0</ele><time>2026-04-14T15:41:04.904Z</time></trkpt><trkpt lat="42.4562617" lon="-7.3515983"><ele>230.0</ele><time>2026-04-14T15:41:05.904Z</time></trkpt><trkpt lat="42.4563733" lon="-7.3516067"><ele>230.0</ele><time>2026-04-14T15:41:07.905Z</time></trkpt><trkpt lat="42.4564367" lon="-7.35155"><ele>230.0</ele><time>2026-04-14T15:41:08.905Z</time></trkpt><trkpt lat="42.456505" lon="-7.3514567"><ele>230.0</ele><time>2026-04-14T15:41:09.905Z</time></trkpt><trkpt lat="42.4565783" lon="-7.3513483"><ele>231.6</ele><time>2026-04-14T15:41:10.904Z</time></trkpt><trkpt lat="42.4566583" lon="-7.3512467"><ele>233.2</ele><time>2026-04-14T15:41:11.904Z</time></trkpt><trkpt lat="42.45674" lon="-7.3511517"><ele>234.8</ele><time>2026-04-14T15:41:12.905Z</time></trkpt><trkpt lat="42.4568267" lon="-7.351065"><ele>236.4</ele><time>2026-04-14T15:41:13.904Z</time></trkpt><trkpt lat="42.456895" lon="-7.3509967"><ele>238.0</ele><time>2026-04-14T15:41:14.904Z</time></trkpt><trkpt lat="42.4569533" lon="-7.350935"><ele>238.0</ele><time>2026-04-14T15:41:15.904Z</time></trkpt><trkpt lat="42.4570133" lon="-7.3508317"><ele>238.0</ele><time>2026-04-14T15:41:17.904Z</time></trkpt><trkpt lat="42.4569633" lon="-7.3507517"><ele>238.0</ele><time>2026-04-14T15:41:20.904Z</time></trkpt><trkpt lat="42.4568483" lon="-7.3507033"><ele>238.0</ele><time>2026-04-14T15:41:22.905Z</time></trkpt><trkpt lat="42.4567783" lon="-7.350675"><ele>238.0</ele><time>2026-04-14T15:41:23.905Z</time></trkpt><trkpt lat="42.456685" lon="-7.3506383"><ele>238.0</ele><time>2026-04-14T15:41:24.904Z</time></trkpt><trkpt lat="42.4565883" lon="-7.350595"><ele>238.0</ele><time>2026-04-14T15:41:25.904Z</time></trkpt><trkpt lat="42.4564817" lon="-7.3505417"><ele>238.0</ele><time>2026-04-14T15:41:26.904Z</time></trkpt><trkpt lat="42.4563717" lon="-7.3504833"><ele>238.0</ele><time>2026-04-14T15:41:27.904Z</time></trkpt><trkpt lat="42.456255" lon="-7.3504233"><ele>235.25</ele><time>2026-04-14T15:41:28.905Z</time></trkpt><trkpt lat="42.4561433" lon="-7.3503583"><ele>232.5</ele><time>2026-04-14T15:41:29.905Z</time></trkpt><trkpt lat="42.45604" lon="-7.3502833"><ele>229.75</ele><time>2026-04-14T15:41:30.904Z</time></trkpt><trkpt lat="42.45593" lon="-7.3501917"><ele>227.0</ele><time>2026-04-14T15:41:31.904Z</time></trkpt><trkpt lat="42.455815" lon="-7.35009"><ele>227.0</ele><time>2026-04-14T15:41:32.905Z</time></trkpt><trkpt lat="42.4557017" lon="-7.3499717"><ele>227.0</ele><time>2026-04-14T15:41:33.904Z</time></trkpt><trkpt lat="42.4555967" lon="-7.3498467"><ele>227.0</ele><time>2026-04-14T15:41:34.904Z</time></trkpt><trkpt lat="42.4554883" lon="-7.3497083"><ele>227.0</ele><time>2026-04-14T15:41:35.905Z</time></trkpt><trkpt lat="42.455395" lon="-7.3495583"><ele>227.75</ele><time>2026-04-14T15:41:36.905Z</time></trkpt><trkpt lat="42.4553083" lon="-7.349405"><ele>228.5</ele><time>2026-04-14T15:41:37.904Z</time></trkpt><trkpt lat="42.4552267" lon="-7.3492417"><ele>229.25</ele><time>2026-04-14T15:41:38.904Z</time></trkpt><trkpt lat="42.4551467" lon="-7.3490633"><ele>230.0</ele><time>2026-04-14T15:41:39.904Z</time></trkpt><trkpt lat="42.455075" lon="-7.348885"><ele>231.33333333333334</ele><time>2026-04-14T15:41:40.905Z</time></trkpt><trkpt lat="42.4550167" lon="-7.3486933"><ele>232.66666666666669</ele><time>2026-04-14T15:41:41.905Z</time></trkpt><trkpt lat="42.4549683" lon="-7.3485033"><ele>234.0</ele><time>2026-04-14T15:41:42.904Z</time></trkpt><trkpt lat="42.4549267" lon="-7.3482983"><ele>234.0</ele><time>2026-04-14T15:41:43.905Z</time></trkpt><trkpt lat="42.454895" lon="-7.3480817"><ele>234.0</ele><time>2026-04-14T15:41:44.905Z</time></trkpt><trkpt lat="42.4548767" lon="-7.3478617"><ele>234.0</ele><time>2026-04-14T15:41:45.905Z</time></trkpt><trkpt lat="42.4548767" lon="-7.3476467"><ele>235.0</ele><time>2026-04-14T15:41:46.905Z</time></trkpt><trkpt lat="42.4548833" lon="-7.3474433"><ele>236.0</ele><time>2026-04-14T15:41:47.904Z</time></trkpt><trkpt lat="42.4548883" lon="-7.3472283"><ele>237.0</ele><time>2026-04-14T15:41:48.904Z</time></trkpt><trkpt lat="42.4549067" lon="-7.3470233"><ele>237.33333333333331</ele><time>2026-04-14T15:41:49.904Z</time></trkpt><trkpt lat="42.4549217" lon="-7.3468167"><ele>237.66666666666666</ele><time>2026-04-14T15:41:50.905Z</time></trkpt><trkpt lat="42.4549433" lon="-7.3465917"><ele>238.0</ele><time>2026-04-14T15:41:51.905Z</time></trkpt><trkpt lat="42.45497" lon="-7.3463717"><ele>240.66666666666666</ele><time>2026-04-14T15:41:52.905Z</time></trkpt><trkpt lat="42.455" lon="-7.34615"><ele>243.33333333333331</ele><time>2026-04-14T15:41:53.904Z</time></trkpt><trkpt lat="42.4550383" lon="-7.3459333"><ele>246.0</ele><time>2026-04-14T15:41:54.905Z</time></trkpt><trkpt lat="42.455085" lon="-7.3457183"><ele>252.0</ele><time>2026-04-14T15:41:55.904Z</time></trkpt><trkpt lat="42.4551283" lon="-7.3455"><ele>258.0</ele><time>2026-04-14T15:41:56.905Z</time></trkpt><trkpt lat="42.4551833" lon="-7.345285"><ele>264.0</ele><time>2026-04-14T15:41:57.905Z</time></trkpt><trkpt lat="42.4552333" lon="-7.34507"><ele>264.0</ele><time>2026-04-14T15:41:58.904Z</time></trkpt><trkpt lat="42.4552817" lon="-7.34486"><ele>264.0</ele><time>2026-04-14T15:41:59.904Z</time></trkpt><trkpt lat="42.455335" lon="-7.3446483"><ele>264.0</ele><time>2026-04-14T15:42:00.905Z</time></trkpt><trkpt lat="42.4553867" lon="-7.34444"><ele>255.66666666666669</ele><time>2026-04-14T15:42:01.904Z</time></trkpt><trkpt lat="42.4554567" lon="-7.3442267"><ele>247.33333333333334</ele><time>2026-04-14T15:42:02.905Z</time></trkpt><trkpt lat="42.4555167" lon="-7.3440083"><ele>239.0</ele><time>2026-04-14T15:42:03.905Z</time></trkpt><trkpt lat="42.4555767" lon="-7.3437967"><ele>239.0</ele><time>2026-04-14T15:42:04.905Z</time></trkpt><trkpt lat="42.4556217" lon="-7.34358"><ele>239.0</ele><time>2026-04-14T15:42:05.904Z</time></trkpt><trkpt lat="42.4556633" lon="-7.3433633"><ele>239.0</ele><time>2026-04-14T15:42:06.904Z</time></trkpt><trkpt lat="42.455695" lon="-7.3431367"><ele>240.33333333333334</ele><time>2026-04-14T15:42:07.905Z</time></trkpt><trkpt lat="42.4557217" lon="-7.3429167"><ele>241.66666666666669</ele><time>2026-04-14T15:42:08.905Z</time></trkpt><trkpt lat="42.4557367" lon="-7.3426933"><ele>243.0</ele><time>2026-04-14T15:42:09.904Z</time></trkpt><trkpt lat="42.4557533" lon="-7.3424733"><ele>243.0</ele><time>2026-04-14T15:42:10.904Z</time></trkpt><trkpt lat="42.4557667" lon="-7.3422533"><ele>243.0</ele><time>2026-04-14T15:42:11.904Z</time></trkpt><trkpt lat="42.4557617" lon="-7.342035"><ele>243.0</ele><time>2026-04-14T15:42:12.905Z</time></trkpt><trkpt lat="42.4557567" lon="-7.34182"><ele>243.66666666666669</ele><time>2026-04-14T15:42:13.904Z</time></trkpt><trkpt lat="42.4557467" lon="-7.341595"><ele>244.33333333333334</ele><time>2026-04-14T15:42:14.905Z</time></trkpt><trkpt lat="42.4557383" lon="-7.341375"><ele>245.0</ele><time>2026-04-14T15:42:15.905Z</time></trkpt><trkpt lat="42.4557283" lon="-7.3411617"><ele>245.33333333333334</ele><time>2026-04-14T15:42:16.904Z</time></trkpt><trkpt lat="42.455715" lon="-7.3409467"><ele>245.66666666666669</ele><time>2026-04-14T15:42:17.905Z</time></trkpt><trkpt lat="42.4557" lon="-7.340725"><ele>246.0</ele><time>2026-04-14T15:42:18.904Z</time></trkpt><trkpt lat="42.45568" lon="-7.3405033"><ele>245.33333333333331</ele><time>2026-04-14T15:42:19.905Z</time></trkpt><trkpt lat="42.45566" lon="-7.3402767"><ele>244.66666666666666</ele><time>2026-04-14T15:42:20.904Z</time></trkpt><trkpt lat="42.4556383" lon="-7.3400583"><ele>244.0</ele><time>2026-04-14T15:42:21.904Z</time></trkpt><trkpt lat="42.4556167" lon="-7.3398333"><ele>244.33333333333331</ele><time>2026-04-14T15:42:22.905Z</time></trkpt><trkpt lat="42.4555983" lon="-7.339615"><ele>244.66666666666669</ele><time>2026-04-14T15:42:23.905Z</time></trkpt><trkpt lat="42.4555833" lon="-7.3393983"><ele>245.0</ele><time>2026-04-14T15:42:24.905Z</time></trkpt><trkpt lat="42.4555617" lon="-7.3391683"><ele>245.0</ele><time>2026-04-14T15:42:25.904Z</time></trkpt><trkpt lat="42.45555" lon="-7.3389467"><ele>245.0</ele><time>2026-04-14T15:42:26.904Z</time></trkpt><trkpt lat="42.45554" lon="-7.3387367"><ele>245.0</ele><time>2026-04-14T15:42:27.905Z</time></trkpt><trkpt lat="42.4555383" lon="-7.3385183"><ele>243.33333333333334</ele><time>2026-04-14T15:42:28.905Z</time></trkpt><trkpt lat="42.455545" lon="-7.3383"><ele>241.66666666666669</ele><time>2026-04-14T15:42:29.904Z</time></trkpt><trkpt lat="42.4555483" lon="-7.3380767"><ele>240.0</ele><time>2026-04-14T15:42:30.904Z</time></trkpt><trkpt lat="42.45556" lon="-7.33787"><ele>239.0</ele><time>2026-04-14T15:42:31.905Z</time></trkpt><trkpt lat="42.4555717" lon="-7.3376517"><ele>238.0</ele><time>2026-04-14T15:42:32.904Z</time></trkpt><trkpt lat="42.455585" lon="-7.33744"><ele>237.0</ele><time>2026-04-14T15:42:33.905Z</time></trkpt><trkpt lat="42.45561" lon="-7.3372233"><ele>236.66666666666669</ele><time>2026-04-14T15:42:34.904Z</time></trkpt><trkpt lat="42.4556367" lon="-7.3370083"><ele>236.33333333333334</ele><time>2026-04-14T15:42:35.905Z</time></trkpt><trkpt lat="42.455675" lon="-7.3367917"><ele>236.0</ele><time>2026-04-14T15:42:36.904Z</time></trkpt><trkpt lat="42.4557167" lon="-7.3365733"><ele>240.0</ele><time>2026-04-14T15:42:37.905Z</time></trkpt><trkpt lat="42.4557617" lon="-7.336365"><ele>244.0</ele><time>2026-04-14T15:42:38.905Z</time></trkpt><trkpt lat="42.45581" lon="-7.33616"><ele>248.0</ele><time>2026-04-14T15:42:39.904Z</time></trkpt><trkpt lat="42.4558783" lon="-7.3359567"><ele>248.0</ele><time>2026-04-14T15:42:40.905Z</time></trkpt><trkpt lat="42.4559483" lon="-7.3357633"><ele>248.0</ele><time>2026-04-14T15:42:41.905Z</time></trkpt><trkpt lat="42.456015" lon="-7.33557"><ele>248.0</ele><time>2026-04-14T15:42:42.904Z</time></trkpt><trkpt lat="42.4560883" lon="-7.335375"><ele>253.66666666666669</ele><time>2026-04-14T15:42:43.905Z</time></trkpt><trkpt lat="42.4561583" lon="-7.335195"><ele>259.3333333333333</ele><time>2026-04-14T15:42:44.904Z</time></trkpt><trkpt lat="42.4562333" lon="-7.3350183"><ele>265.0</ele><time>2026-04-14T15:42:45.904Z</time></trkpt><trkpt lat="42.4563117" lon="-7.3348283"><ele>256.0</ele><time>2026-04-14T15:42:46.905Z</time></trkpt><trkpt lat="42.4564" lon="-7.3346367"><ele>247.0</ele><time>2026-04-14T15:42:47.905Z</time></trkpt><trkpt lat="42.4564867" lon="-7.334435"><ele>238.0</ele><time>2026-04-14T15:42:48.904Z</time></trkpt><trkpt lat="42.4565683" lon="-7.3342283"><ele>238.0</ele><time>2026-04-14T15:42:49.905Z</time></trkpt><trkpt lat="42.4566633" lon="-7.334025"><ele>238.0</ele><time>2026-04-14T15:42:50.905Z</time></trkpt><trkpt lat="42.4567467" lon="-7.333825"><ele>238.0</ele><time>2026-04-14T15:42:51.904Z</time></trkpt><trkpt lat="42.4568267" lon="-7.3336233"><ele>237.66666666666666</ele><time>2026-04-14T15:42:52.904Z</time></trkpt><trkpt lat="42.45691" lon="-7.3334333"><ele>237.33333333333331</ele><time>2026-04-14T15:42:53.905Z</time></trkpt><trkpt lat="42.456985" lon="-7.333235"><ele>237.0</ele><time>2026-04-14T15:42:54.904Z</time></trkpt><trkpt lat="42.4570683" lon="-7.33304"><ele>234.33333333333331</ele><time>2026-04-14T15:42:55.904Z</time></trkpt><trkpt lat="42.457145" lon="-7.3328417"><ele>231.66666666666666</ele><time>2026-04-14T15:42:56.905Z</time></trkpt><trkpt lat="42.4572233" lon="-7.3326533"><ele>229.0</ele><time>2026-04-14T15:42:57.905Z</time></trkpt><trkpt lat="42.4572967" lon="-7.3324717"><ele>229.0</ele><time>2026-04-14T15:42:58.904Z</time></trkpt><trkpt lat="42.4573783" lon="-7.3322767"><ele>229.0</ele><time>2026-04-14T15:42:59.905Z</time></trkpt><trkpt lat="42.4574483" lon="-7.3320733"><ele>229.0</ele><time>2026-04-14T15:43:00.904Z</time></trkpt><trkpt lat="42.457525" lon="-7.3318783"><ele>229.66666666666666</ele><time>2026-04-14T15:43:01.905Z</time></trkpt><trkpt lat="42.4576033" lon="-7.3316867"><ele>230.33333333333331</ele><time>2026-04-14T15:43:02.904Z</time></trkpt><trkpt lat="42.457685" lon="-7.3314883"><ele>231.0</ele><time>2026-04-14T15:43:03.905Z</time></trkpt><trkpt lat="42.4577633" lon="-7.3312933"><ele>232.0</ele><time>2026-04-14T15:43:04.905Z</time></trkpt><trkpt lat="42.457845" lon="-7.3310917"><ele>233.0</ele><time>2026-04-14T15:43:05.904Z</time></trkpt><trkpt lat="42.4579167" lon="-7.33088"><ele>234.0</ele><time>2026-04-14T15:43:06.905Z</time></trkpt><trkpt lat="42.45799" lon="-7.3306683"><ele>234.66666666666669</ele><time>2026-04-14T15:43:07.905Z</time></trkpt><trkpt lat="42.4580583" lon="-7.3304483"><ele>235.33333333333334</ele><time>2026-04-14T15:43:08.904Z</time></trkpt><trkpt lat="42.4581217" lon="-7.330225"><ele>236.0</ele><time>2026-04-14T15:43:09.904Z</time></trkpt><trkpt lat="42.4581817" lon="-7.3299917"><ele>236.0</ele><time>2026-04-14T15:43:10.905Z</time></trkpt><trkpt lat="42.4582383" lon="-7.3297483"><ele>236.0</ele><time>2026-04-14T15:43:11.905Z</time></trkpt><trkpt lat="42.458295" lon="-7.3295217"><ele>236.0</ele><time>2026-04-14T15:43:12.904Z</time></trkpt><trkpt lat="42.4583517" lon="-7.329295"><ele>236.33333333333334</ele><time>2026-04-14T15:43:13.904Z</time></trkpt><trkpt lat="42.4583917" lon="-7.3290783"><ele>236.66666666666669</ele><time>2026-04-14T15:43:14.905Z</time></trkpt><trkpt lat="42.4584383" lon="-7.3288517"><ele>237.0</ele><time>2026-04-14T15:43:15.904Z</time></trkpt><trkpt lat="42.4584833" lon="-7.3286183"><ele>240.66666666666669</ele><time>2026-04-14T15:43:16.905Z</time></trkpt><trkpt lat="42.4585267" lon="-7.3283883"><ele>244.33333333333334</ele><time>2026-04-14T15:43:17.904Z</time></trkpt><trkpt lat="42.4585667" lon="-7.328165"><ele>248.0</ele><time>2026-04-14T15:43:18.905Z</time></trkpt><trkpt lat="42.4586017" lon="-7.327935"><ele>252.33333333333334</ele><time>2026-04-14T15:43:19.905Z</time></trkpt><trkpt lat="42.4586467" lon="-7.327715"><ele>256.6666666666667</ele><time>2026-04-14T15:43:20.905Z</time></trkpt><trkpt lat="42.45869" lon="-7.327495"><ele>261.0</ele><time>2026-04-14T15:43:21.904Z</time></trkpt><trkpt lat="42.4587317" lon="-7.3272767"><ele>265.0</ele><time>2026-04-14T15:43:22.904Z</time></trkpt><trkpt lat="42.4587717" lon="-7.3270683"><ele>269.0</ele><time>2026-04-14T15:43:23.905Z</time></trkpt><trkpt lat="42.458805" lon="-7.3268483"><ele>273.0</ele><time>2026-04-14T15:43:24.904Z</time></trkpt><trkpt lat="42.45884" lon="-7.3266283"><ele>259.6666666666667</ele><time>2026-04-14T15:43:25.904Z</time></trkpt><trkpt lat="42.4588783" lon="-7.32641"><ele>246.33333333333334</ele><time>2026-04-14T15:43:26.905Z</time></trkpt><trkpt lat="42.45891" lon="-7.32619"><ele>233.0</ele><time>2026-04-14T15:43:27.905Z</time></trkpt><trkpt lat="42.458935" lon="-7.3259583"><ele>232.66666666666669</ele><time>2026-04-14T15:43:28.905Z</time></trkpt><trkpt lat="42.4589567" lon="-7.325735"><ele>232.33333333333331</ele><time>2026-04-14T15:43:29.905Z</time></trkpt><trkpt lat="42.4589833" lon="-7.3255117"><ele>232.0</ele><time>2026-04-14T15:43:30.904Z</time></trkpt><trkpt lat="42.458995" lon="-7.3252917"><ele>232.66666666666666</ele><time>2026-04-14T15:43:31.905Z</time></trkpt><trkpt lat="42.4589983" lon="-7.3250617"><ele>233.33333333333331</ele><time>2026-04-14T15:43:32.904Z</time></trkpt><trkpt lat="42.4590017" lon="-7.3248567"><ele>234.0</ele><time>2026-04-14T15:43:33.905Z</time></trkpt><trkpt lat="42.4590067" lon="-7.3246383"><ele>234.0</ele><time>2026-04-14T15:43:34.904Z</time></trkpt><trkpt lat="42.459" lon="-7.324425"><ele>234.0</ele><time>2026-04-14T15:43:35.904Z</time></trkpt><trkpt lat="42.4589917" lon="-7.3242017"><ele>234.0</ele><time>2026-04-14T15:43:36.904Z</time></trkpt><trkpt lat="42.4589717" lon="-7.3239883"><ele>233.66666666666669</ele><time>2026-04-14T15:43:37.905Z</time></trkpt><trkpt lat="42.4589683" lon="-7.32377"><ele>233.33333333333334</ele><time>2026-04-14T15:43:38.904Z</time></trkpt><trkpt lat="42.458975" lon="-7.32355"><ele>233.0</ele><time>2026-04-14T15:43:39.904Z</time></trkpt><trkpt lat="42.458975" lon="-7.3233333"><ele>233.0</ele><time>2026-04-14T15:43:40.905Z</time></trkpt><trkpt lat="42.4589933" lon="-7.323125"><ele>233.0</ele><time>2026-04-14T15:43:41.905Z</time></trkpt><trkpt lat="42.4590067" lon="-7.3229067"><ele>233.0</ele><time>2026-04-14T15:43:42.904Z</time></trkpt><trkpt lat="42.45902" lon="-7.3226967"><ele>234.33333333333334</ele><time>2026-04-14T15:43:43.904Z</time></trkpt><trkpt lat="42.45904" lon="-7.3224917"><ele>235.66666666666669</ele><time>2026-04-14T15:43:44.905Z</time></trkpt><trkpt lat="42.4590683" lon="-7.3222883"><ele>237.0</ele><time>2026-04-14T15:43:45.904Z</time></trkpt><trkpt lat="42.4591067" lon="-7.3220883"><ele>239.66666666666669</ele><time>2026-04-14T15:43:46.904Z</time></trkpt><trkpt lat="42.4591517" lon="-7.321875"><ele>242.33333333333334</ele><time>2026-04-14T15:43:47.905Z</time></trkpt><trkpt lat="42.459195" lon="-7.3216767"><ele>245.0</ele><time>2026-04-14T15:43:48.905Z</time></trkpt><trkpt lat="42.4592383" lon="-7.3214683"><ele>246.66666666666669</ele><time>2026-04-14T15:43:49.905Z</time></trkpt><trkpt lat="42.459295" lon="-7.321265"><ele>248.33333333333331</ele><time>2026-04-14T15:43:50.904Z</time></trkpt><trkpt lat="42.4593667" lon="-7.3210567"><ele>250.0</ele><time>2026-04-14T15:43:51.905Z</time></trkpt><trkpt lat="42.459445" lon="-7.32086"><ele>250.0</ele><time>2026-04-14T15:43:52.904Z</time></trkpt><trkpt lat="42.459525" lon="-7.3206683"><ele>250.0</ele><time>2026-04-14T15:43:53.904Z</time></trkpt><trkpt lat="42.459605" lon="-7.3204867"><ele>250.0</ele><time>2026-04-14T15:43:54.905Z</time></trkpt><trkpt lat="42.4596933" lon="-7.320315"><ele>248.75</ele><time>2026-04-14T15:43:55.904Z</time></trkpt><trkpt lat="42.4597817" lon="-7.3201533"><ele>247.5</ele><time>2026-04-14T15:43:56.905Z</time></trkpt><trkpt lat="42.4598683" lon="-7.3199983"><ele>246.25</ele><time>2026-04-14T15:43:57.905Z</time></trkpt><trkpt lat="42.4599617" lon="-7.3198417"><ele>245.0</ele><time>2026-04-14T15:43:58.904Z</time></trkpt><trkpt lat="42.460055" lon="-7.3196917"><ele>245.0</ele><time>2026-04-14T15:43:59.904Z</time></trkpt><trkpt lat="42.46016" lon="-7.3195533"><ele>245.0</ele><time>2026-04-14T15:44:00.904Z</time></trkpt><trkpt lat="42.4602667" lon="-7.3194233"><ele>245.0</ele><time>2026-04-14T15:44:01.905Z</time></trkpt><trkpt lat="42.46038" lon="-7.31929"><ele>245.0</ele><time>2026-04-14T15:44:02.905Z</time></trkpt><trkpt lat="42.4604883" lon="-7.3191667"><ele>244.5</ele><time>2026-04-14T15:44:03.904Z</time></trkpt><trkpt lat="42.4605967" lon="-7.31904"><ele>244.0</ele><time>2026-04-14T15:44:04.904Z</time></trkpt><trkpt lat="42.4607067" lon="-7.3189133"><ele>243.5</ele><time>2026-04-14T15:44:05.904Z</time></trkpt><trkpt lat="42.46082" lon="-7.3187817"><ele>243.0</ele><time>2026-04-14T15:44:06.904Z</time></trkpt><trkpt lat="42.4609383" lon="-7.3186567"><ele>243.0</ele><time>2026-04-14T15:44:07.904Z</time></trkpt><trkpt lat="42.4610617" lon="-7.3185283"><ele>243.0</ele><time>2026-04-14T15:44:08.904Z</time></trkpt><trkpt lat="42.4611817" lon="-7.3184083"><ele>243.0</ele><time>2026-04-14T15:44:09.904Z</time></trkpt><trkpt lat="42.461305" lon="-7.3182867"><ele>242.66666666666669</ele><time>2026-04-14T15:44:10.905Z</time></trkpt><trkpt lat="42.4614317" lon="-7.3181617"><ele>242.33333333333334</ele><time>2026-04-14T15:44:11.904Z</time></trkpt><trkpt lat="42.4615683" lon="-7.3180433"><ele>242.0</ele><time>2026-04-14T15:44:12.904Z</time></trkpt><trkpt lat="42.4617" lon="-7.3179333"><ele>243.66666666666669</ele><time>2026-04-14T15:44:13.905Z</time></trkpt><trkpt lat="42.4618317" lon="-7.3178233"><ele>245.33333333333331</ele><time>2026-04-14T15:44:14.905Z</time></trkpt><trkpt lat="42.46197" lon="-7.317715"><ele>247.0</ele><time>2026-04-14T15:44:15.904Z</time></trkpt><trkpt lat="42.4621083" lon="-7.3176167"><ele>246.66666666666666</ele><time>2026-04-14T15:44:16.905Z</time></trkpt><trkpt lat="42.46224" lon="-7.31752"><ele>246.33333333333331</ele><time>2026-04-14T15:44:17.904Z</time></trkpt><trkpt lat="42.462375" lon="-7.3174217"><ele>246.0</ele><time>2026-04-14T15:44:18.904Z</time></trkpt><trkpt lat="42.462515" lon="-7.3173167"><ele>247.66666666666669</ele><time>2026-04-14T15:44:19.904Z</time></trkpt><trkpt lat="42.4626467" lon="-7.3172117"><ele>249.33333333333334</ele><time>2026-04-14T15:44:20.905Z</time></trkpt><trkpt lat="42.4627767" lon="-7.3171033"><ele>251.0</ele><time>2026-04-14T15:44:21.904Z</time></trkpt><trkpt lat="42.4629133" lon="-7.317"><ele>247.5</ele><time>2026-04-14T15:44:22.905Z</time></trkpt><trkpt lat="42.4630367" lon="-7.3168933"><ele>244.0</ele><time>2026-04-14T15:44:23.904Z</time></trkpt><trkpt lat="42.4631583" lon="-7.31678"><ele>240.5</ele><time>2026-04-14T15:44:24.904Z</time></trkpt><trkpt lat="42.4632833" lon="-7.3166633"><ele>237.0</ele><time>2026-04-14T15:44:25.904Z</time></trkpt><trkpt lat="42.4633967" lon="-7.316535"><ele>235.0</ele><time>2026-04-14T15:44:26.905Z</time></trkpt><trkpt lat="42.4635033" lon="-7.3163933"><ele>233.0</ele><time>2026-04-14T15:44:27.905Z</time></trkpt><trkpt lat="42.463605" lon="-7.3162417"><ele>231.0</ele><time>2026-04-14T15:44:28.905Z</time></trkpt><trkpt lat="42.463705" lon="-7.3160817"><ele>228.66666666666669</ele><time>2026-04-14T15:44:29.905Z</time></trkpt><trkpt lat="42.4638" lon="-7.3159167"><ele>226.33333333333334</ele><time>2026-04-14T15:44:30.904Z</time></trkpt><trkpt lat="42.46388" lon="-7.3157517"><ele>224.0</ele><time>2026-04-14T15:44:31.905Z</time></trkpt><trkpt lat="42.4639667" lon="-7.3155783"><ele>226.33333333333334</ele><time>2026-04-14T15:44:32.905Z</time></trkpt><trkpt lat="42.4640467" lon="-7.3154"><ele>228.66666666666669</ele><time>2026-04-14T15:44:33.904Z</time></trkpt><trkpt lat="42.4641167" lon="-7.3152167"><ele>231.0</ele><time>2026-04-14T15:44:34.905Z</time></trkpt><trkpt lat="42.4641767" lon="-7.3150267"><ele>231.0</ele><time>2026-04-14T15:44:35.904Z</time></trkpt><trkpt lat="42.4642367" lon="-7.31483"><ele>231.0</ele><time>2026-04-14T15:44:36.904Z</time></trkpt><trkpt lat="42.4642867" lon="-7.3146317"><ele>231.0</ele><time>2026-04-14T15:44:37.904Z</time></trkpt><trkpt lat="42.464325" lon="-7.3144267"><ele>231.66666666666669</ele><time>2026-04-14T15:44:38.905Z</time></trkpt><trkpt lat="42.46436" lon="-7.3142183"><ele>232.33333333333334</ele><time>2026-04-14T15:44:39.905Z</time></trkpt><trkpt lat="42.4643917" lon="-7.31401"><ele>233.0</ele><time>2026-04-14T15:44:40.905Z</time></trkpt><trkpt lat="42.464415" lon="-7.313795"><ele>233.66666666666669</ele><time>2026-04-14T15:44:41.905Z</time></trkpt><trkpt lat="42.4644267" lon="-7.3135783"><ele>234.33333333333331</ele><time>2026-04-14T15:44:42.905Z</time></trkpt><trkpt lat="42.46444" lon="-7.313355"><ele>235.0</ele><time>2026-04-14T15:44:43.904Z</time></trkpt><trkpt lat="42.464445" lon="-7.31314"><ele>235.33333333333331</ele><time>2026-04-14T15:44:44.905Z</time></trkpt><trkpt lat="42.4644467" lon="-7.31292"><ele>235.66666666666669</ele><time>2026-04-14T15:44:45.904Z</time></trkpt><trkpt lat="42.4644567" lon="-7.3126983"><ele>236.0</ele><time>2026-04-14T15:44:46.905Z</time></trkpt><trkpt lat="42.4644617" lon="-7.3124817"><ele>236.0</ele><time>2026-04-14T15:44:47.904Z</time></trkpt><trkpt lat="42.464475" lon="-7.312255"><ele>236.0</ele><time>2026-04-14T15:44:48.904Z</time></trkpt><trkpt lat="42.4644883" lon="-7.312035"><ele>236.0</ele><time>2026-04-14T15:44:49.904Z</time></trkpt><trkpt lat="42.46451" lon="-7.3118167"><ele>235.66666666666669</ele><time>2026-04-14T15:44:50.904Z</time></trkpt><trkpt lat="42.4645383" lon="-7.311605"><ele>235.33333333333331</ele><time>2026-04-14T15:44:51.904Z</time></trkpt><trkpt lat="42.4645817" lon="-7.31139"><ele>235.0</ele><time>2026-04-14T15:44:52.904Z</time></trkpt><trkpt lat="42.464635" lon="-7.3111767"><ele>239.33333333333331</ele><time>2026-04-14T15:44:53.905Z</time></trkpt><trkpt lat="42.4647033" lon="-7.3109667"><ele>243.66666666666669</ele><time>2026-04-14T15:44:54.905Z</time></trkpt><trkpt lat="42.4647783" lon="-7.3107683"><ele>248.0</ele><time>2026-04-14T15:44:55.904Z</time></trkpt><trkpt lat="42.4648617" lon="-7.310575"><ele>244.66666666666669</ele><time>2026-04-14T15:44:56.905Z</time></trkpt><trkpt lat="42.4649483" lon="-7.3103917"><ele>241.33333333333331</ele><time>2026-04-14T15:44:57.905Z</time></trkpt><trkpt lat="42.465035" lon="-7.3102167"><ele>238.0</ele><time>2026-04-14T15:44:58.904Z</time></trkpt><trkpt lat="42.465135" lon="-7.3100417"><ele>238.0</ele><time>2026-04-14T15:44:59.905Z</time></trkpt><trkpt lat="42.4652383" lon="-7.30988"><ele>238.0</ele><time>2026-04-14T15:45:00.904Z</time></trkpt><trkpt lat="42.4653533" lon="-7.3097233"><ele>238.0</ele><time>2026-04-14T15:45:01.905Z</time></trkpt><trkpt lat="42.465475" lon="-7.30957"><ele>237.0</ele><time>2026-04-14T15:45:02.904Z</time></trkpt><trkpt lat="42.465595" lon="-7.3094233"><ele>236.0</ele><time>2026-04-14T15:45:03.905Z</time></trkpt><trkpt lat="42.4657233" lon="-7.3092783"><ele>235.0</ele><time>2026-04-14T15:45:04.904Z</time></trkpt><trkpt lat="42.46585" lon="-7.3091433"><ele>235.0</ele><time>2026-04-14T15:45:05.905Z</time></trkpt><trkpt lat="42.4659817" lon="-7.3090083"><ele>235.0</ele><time>2026-04-14T15:45:06.904Z</time></trkpt><trkpt lat="42.466115" lon="-7.30888"><ele>235.0</ele><time>2026-04-14T15:45:07.904Z</time></trkpt><trkpt lat="42.4662533" lon="-7.3087567"><ele>234.0</ele><time>2026-04-14T15:45:08.905Z</time></trkpt><trkpt lat="42.466395" lon="-7.3086367"><ele>233.0</ele><time>2026-04-14T15:45:09.905Z</time></trkpt><trkpt lat="42.4665317" lon="-7.308525"><ele>232.0</ele><time>2026-04-14T15:45:10.904Z</time></trkpt><trkpt lat="42.4666717" lon="-7.308415"><ele>232.0</ele><time>2026-04-14T15:45:11.904Z</time></trkpt><trkpt lat="42.4668133" lon="-7.30832"><ele>232.0</ele><time>2026-04-14T15:45:12.904Z</time></trkpt><trkpt lat="42.4669617" lon="-7.308225"><ele>232.0</ele><time>2026-04-14T15:45:13.905Z</time></trkpt><trkpt lat="42.467105" lon="-7.3081417"><ele>231.66666666666666</ele><time>2026-04-14T15:45:14.904Z</time></trkpt><trkpt lat="42.4672483" lon="-7.3080583"><ele>231.33333333333331</ele><time>2026-04-14T15:45:15.905Z</time></trkpt><trkpt lat="42.4673917" lon="-7.3079883"><ele>231.0</ele><time>2026-04-14T15:45:16.904Z</time></trkpt><trkpt lat="42.4675367" lon="-7.3079233"><ele>231.0</ele><time>2026-04-14T15:45:17.905Z</time></trkpt><trkpt lat="42.467685" lon="-7.3078667"><ele>231.0</ele><time>2026-04-14T15:45:18.905Z</time></trkpt><trkpt lat="42.467835" lon="-7.30782"><ele>231.0</ele><time>2026-04-14T15:45:19.905Z</time></trkpt><trkpt lat="42.4679867" lon="-7.3077733"><ele>232.0</ele><time>2026-04-14T15:45:20.904Z</time></trkpt><trkpt lat="42.468135" lon="-7.3077283"><ele>233.0</ele><time>2026-04-14T15:45:21.905Z</time></trkpt><trkpt lat="42.4682883" lon="-7.3076933"><ele>234.0</ele><time>2026-04-14T15:45:22.905Z</time></trkpt><trkpt lat="42.4684383" lon="-7.307665"><ele>234.0</ele><time>2026-04-14T15:45:23.905Z</time></trkpt><trkpt lat="42.4685983" lon="-7.30764"><ele>234.0</ele><time>2026-04-14T15:45:24.904Z</time></trkpt><trkpt lat="42.4687483" lon="-7.30762"><ele>234.0</ele><time>2026-04-14T15:45:25.904Z</time></trkpt><trkpt lat="42.4689067" lon="-7.3076033"><ele>233.66666666666669</ele><time>2026-04-14T15:45:26.905Z</time></trkpt><trkpt lat="42.46906" lon="-7.307595"><ele>233.33333333333334</ele><time>2026-04-14T15:45:27.904Z</time></trkpt><trkpt lat="42.469215" lon="-7.3075983"><ele>233.0</ele><time>2026-04-14T15:45:28.905Z</time></trkpt><trkpt lat="42.4693767" lon="-7.3076"><ele>233.0</ele><time>2026-04-14T15:45:29.905Z</time></trkpt><trkpt lat="42.469535" lon="-7.3076083"><ele>233.0</ele><time>2026-04-14T15:45:30.905Z</time></trkpt><trkpt lat="42.469695" lon="-7.30761"><ele>233.0</ele><time>2026-04-14T15:45:31.904Z</time></trkpt><trkpt lat="42.4698517" lon="-7.3076167"><ele>233.66666666666669</ele><time>2026-04-14T15:45:32.904Z</time></trkpt><trkpt lat="42.47001" lon="-7.3076217"><ele>234.33333333333331</ele><time>2026-04-14T15:45:33.904Z</time></trkpt><trkpt lat="42.47016" lon="-7.3076317"><ele>235.0</ele><time>2026-04-14T15:45:34.905Z</time></trkpt><trkpt lat="42.4703117" lon="-7.307635"><ele>235.5</ele><time>2026-04-14T15:45:35.905Z</time></trkpt><trkpt lat="42.4704633" lon="-7.30764"><ele>236.0</ele><time>2026-04-14T15:45:36.905Z</time></trkpt><trkpt lat="42.4706083" lon="-7.3076433"><ele>236.5</ele><time>2026-04-14T15:45:37.905Z</time></trkpt><trkpt lat="42.4707583" lon="-7.3076417"><ele>237.0</ele><time>2026-04-14T15:45:38.905Z</time></trkpt><trkpt lat="42.4709" lon="-7.30764"><ele>237.0</ele><time>2026-04-14T15:45:39.905Z</time></trkpt><trkpt lat="42.47105" lon="-7.3076217"><ele>237.0</ele><time>2026-04-14T15:45:40.904Z</time></trkpt><trkpt lat="42.4712017" lon="-7.307595"><ele>237.0</ele><time>2026-04-14T15:45:41.905Z</time></trkpt><trkpt lat="42.4713517" lon="-7.307565"><ele>240.0</ele><time>2026-04-14T15:45:42.904Z</time></trkpt><trkpt lat="42.4715017" lon="-7.3075283"><ele>243.0</ele><time>2026-04-14T15:45:43.904Z</time></trkpt><trkpt lat="42.471655" lon="-7.3074867"><ele>246.0</ele><time>2026-04-14T15:45:44.904Z</time></trkpt><trkpt lat="42.4718" lon="-7.3074433"><ele>246.0</ele><time>2026-04-14T15:45:45.905Z</time></trkpt><trkpt lat="42.4719517" lon="-7.30739"><ele>246.0</ele><time>2026-04-14T15:45:46.904Z</time></trkpt><trkpt lat="42.4721067" lon="-7.30733"><ele>246.0</ele><time>2026-04-14T15:45:47.904Z</time></trkpt><trkpt lat="42.4722583" lon="-7.3072717"><ele>244.33333333333331</ele><time>2026-04-14T15:45:48.905Z</time></trkpt><trkpt lat="42.47241" lon="-7.3072033"><ele>242.66666666666666</ele><time>2026-04-14T15:45:49.905Z</time></trkpt><trkpt lat="42.4725633" lon="-7.307135"><ele>241.0</ele><time>2026-04-14T15:45:50.904Z</time></trkpt><trkpt lat="42.4727083" lon="-7.3070517"><ele>241.0</ele><time>2026-04-14T15:45:51.904Z</time></trkpt><trkpt lat="42.4728483" lon="-7.3069633"><ele>241.0</ele><time>2026-04-14T15:45:52.905Z</time></trkpt><trkpt lat="42.47299" lon="-7.30687"><ele>241.0</ele><time>2026-04-14T15:45:53.904Z</time></trkpt><trkpt lat="42.473125" lon="-7.30677"><ele>239.0</ele><time>2026-04-14T15:45:54.905Z</time></trkpt><trkpt lat="42.4732617" lon="-7.3066767"><ele>237.0</ele><time>2026-04-14T15:45:55.905Z</time></trkpt><trkpt lat="42.4733933" lon="-7.30658"><ele>235.0</ele><time>2026-04-14T15:45:56.905Z</time></trkpt><trkpt lat="42.4735167" lon="-7.30649"><ele>233.0</ele><time>2026-04-14T15:45:57.905Z</time></trkpt><trkpt lat="42.4736383" lon="-7.3064017"><ele>233.0</ele><time>2026-04-14T15:45:58.905Z</time></trkpt><trkpt lat="42.47376" lon="-7.306305"><ele>233.0</ele><time>2026-04-14T15:45:59.905Z</time></trkpt><trkpt lat="42.473895" lon="-7.3062033"><ele>233.0</ele><time>2026-04-14T15:46:00.905Z</time></trkpt><trkpt lat="42.4740233" lon="-7.3061033"><ele>233.0</ele><time>2026-04-14T15:46:01.904Z</time></trkpt><trkpt lat="42.474155" lon="-7.3059983"><ele>232.25</ele><time>2026-04-14T15:46:02.904Z</time></trkpt><trkpt lat="42.4742783" lon="-7.305885"><ele>231.5</ele><time>2026-04-14T15:46:03.905Z</time></trkpt><trkpt lat="42.474395" lon="-7.3057533"><ele>230.75</ele><time>2026-04-14T15:46:04.905Z</time></trkpt><trkpt lat="42.474495" lon="-7.3056083"><ele>230.0</ele><time>2026-04-14T15:46:05.905Z</time></trkpt><trkpt lat="42.4745767" lon="-7.3054633"><ele>233.5</ele><time>2026-04-14T15:46:06.905Z</time></trkpt><trkpt lat="42.4746433" lon="-7.3053183"><ele>237.0</ele><time>2026-04-14T15:46:07.905Z</time></trkpt><trkpt lat="42.474695" lon="-7.3051717"><ele>240.5</ele><time>2026-04-14T15:46:08.904Z</time></trkpt><trkpt lat="42.4747517" lon="-7.30504"><ele>244.0</ele><time>2026-04-14T15:46:09.905Z</time></trkpt><trkpt lat="42.4748167" lon="-7.304915"><ele>244.0</ele><time>2026-04-14T15:46:10.905Z</time></trkpt><trkpt lat="42.4748817" lon="-7.304805"><ele>243.99999999999997</ele><time>2026-04-14T15:46:11.905Z</time></trkpt><trkpt lat="42.474925" lon="-7.3046967"><ele>243.99999999999997</ele><time>2026-04-14T15:46:12.904Z</time></trkpt><trkpt lat="42.4749367" lon="-7.3045783"><ele>244.0</ele><time>2026-04-14T15:46:13.904Z</time></trkpt><trkpt lat="42.4749233" lon="-7.30446"><ele>244.0</ele><time>2026-04-14T15:46:14.905Z</time></trkpt><trkpt lat="42.4749017" lon="-7.30434"><ele>244.0</ele><time>2026-04-14T15:46:15.905Z</time></trkpt><trkpt lat="42.474885" lon="-7.30421"><ele>243.99999999999997</ele><time>2026-04-14T15:46:16.905Z</time></trkpt><trkpt lat="42.47489" lon="-7.304065"><ele>243.99999999999997</ele><time>2026-04-14T15:46:17.904Z</time></trkpt><trkpt lat="42.4749133" lon="-7.30391"><ele>244.0</ele><time>2026-04-14T15:46:18.905Z</time></trkpt><trkpt lat="42.47495" lon="-7.3037467"><ele>244.0</ele><time>2026-04-14T15:46:19.905Z</time></trkpt><trkpt lat="42.4749817" lon="-7.3035767"><ele>244.25</ele><time>2026-04-14T15:46:20.905Z</time></trkpt><trkpt lat="42.475005" lon="-7.3034033"><ele>244.5</ele><time>2026-04-14T15:46:21.905Z</time></trkpt><trkpt lat="42.4750217" lon="-7.3032233"><ele>244.75</ele><time>2026-04-14T15:46:22.904Z</time></trkpt><trkpt lat="42.4750117" lon="-7.3030333"><ele>245.0</ele><time>2026-04-14T15:46:23.905Z</time></trkpt><trkpt lat="42.4749817" lon="-7.302835"><ele>247.0</ele><time>2026-04-14T15:46:24.905Z</time></trkpt><trkpt lat="42.4749267" lon="-7.3026367"><ele>249.0</ele><time>2026-04-14T15:46:25.904Z</time></trkpt><trkpt lat="42.4748533" lon="-7.3024417"><ele>251.0</ele><time>2026-04-14T15:46:26.904Z</time></trkpt><trkpt lat="42.4747717" lon="-7.302255"><ele>255.66666666666669</ele><time>2026-04-14T15:46:27.904Z</time></trkpt><trkpt lat="42.4746883" lon="-7.3020683"><ele>260.3333333333333</ele><time>2026-04-14T15:46:28.905Z</time></trkpt><trkpt lat="42.474605" lon="-7.301885"><ele>265.0</ele><time>2026-04-14T15:46:29.905Z</time></trkpt><trkpt lat="42.4745183" lon="-7.301685"><ele>256.3333333333333</ele><time>2026-04-14T15:46:30.904Z</time></trkpt><trkpt lat="42.47444" lon="-7.301485"><ele>247.66666666666669</ele><time>2026-04-14T15:46:31.904Z</time></trkpt><trkpt lat="42.4743717" lon="-7.3012883"><ele>239.0</ele><time>2026-04-14T15:46:32.904Z</time></trkpt><trkpt lat="42.4743017" lon="-7.3010983"><ele>239.0</ele><time>2026-04-14T15:46:33.904Z</time></trkpt><trkpt lat="42.474215" lon="-7.3009067"><ele>239.0</ele><time>2026-04-14T15:46:34.904Z</time></trkpt><trkpt lat="42.4741383" lon="-7.300715"><ele>239.0</ele><time>2026-04-14T15:46:35.905Z</time></trkpt><trkpt lat="42.4740617" lon="-7.3005083"><ele>244.66666666666669</ele><time>2026-04-14T15:46:36.904Z</time></trkpt><trkpt lat="42.4739817" lon="-7.300325"><ele>250.33333333333331</ele><time>2026-04-14T15:46:37.904Z</time></trkpt><trkpt lat="42.4738933" lon="-7.3001433"><ele>256.0</ele><time>2026-04-14T15:46:38.905Z</time></trkpt><trkpt lat="42.4738133" lon="-7.29997"><ele>253.5</ele><time>2026-04-14T15:46:39.905Z</time></trkpt><trkpt lat="42.4737367" lon="-7.2997983"><ele>251.0</ele><time>2026-04-14T15:46:40.904Z</time></trkpt><trkpt lat="42.4736667" lon="-7.29962"><ele>248.5</ele><time>2026-04-14T15:46:41.905Z</time></trkpt><trkpt lat="42.4735967" lon="-7.2994383"><ele>246.0</ele><time>2026-04-14T15:46:42.905Z</time></trkpt><trkpt lat="42.4735183" lon="-7.2992567"><ele>246.0</ele><time>2026-04-14T15:46:43.905Z</time></trkpt><trkpt lat="42.4734333" lon="-7.2990967"><ele>246.0</ele><time>2026-04-14T15:46:44.904Z</time></trkpt><trkpt lat="42.4733267" lon="-7.2989417"><ele>246.0</ele><time>2026-04-14T15:46:45.905Z</time></trkpt><trkpt lat="42.47323" lon="-7.298785"><ele>243.66666666666669</ele><time>2026-04-14T15:46:46.905Z</time></trkpt><trkpt lat="42.473115" lon="-7.29864"><ele>241.33333333333334</ele><time>2026-04-14T15:46:47.905Z</time></trkpt><trkpt lat="42.4729933" lon="-7.29852"><ele>239.0</ele><time>2026-04-14T15:46:48.904Z</time></trkpt><trkpt lat="42.47286" lon="-7.2984133"><ele>239.0</ele><time>2026-04-14T15:46:49.904Z</time></trkpt><trkpt lat="42.4727333" lon="-7.2983033"><ele>239.0</ele><time>2026-04-14T15:46:50.905Z</time></trkpt><trkpt lat="42.47261" lon="-7.2981933"><ele>239.0</ele><time>2026-04-14T15:46:51.904Z</time></trkpt><trkpt lat="42.472475" lon="-7.298085"><ele>239.33333333333334</ele><time>2026-04-14T15:46:52.905Z</time></trkpt><trkpt lat="42.4723367" lon="-7.2979783"><ele>239.66666666666669</ele><time>2026-04-14T15:46:53.905Z</time></trkpt><trkpt lat="42.4722067" lon="-7.297875"><ele>240.0</ele><time>2026-04-14T15:46:54.904Z</time></trkpt><trkpt lat="42.4720817" lon="-7.2977883"><ele>240.0</ele><time>2026-04-14T15:46:55.905Z</time></trkpt><trkpt lat="42.4719533" lon="-7.29769"><ele>240.0</ele><time>2026-04-14T15:46:56.904Z</time></trkpt><trkpt lat="42.4718283" lon="-7.2975867"><ele>240.0</ele><time>2026-04-14T15:46:57.905Z</time></trkpt><trkpt lat="42.4717" lon="-7.2974833"><ele>240.0</ele><time>2026-04-14T15:46:58.905Z</time></trkpt><trkpt lat="42.4715733" lon="-7.2973833"><ele>240.0</ele><time>2026-04-14T15:46:59.904Z</time></trkpt><trkpt lat="42.47145" lon="-7.2972783"><ele>240.0</ele><time>2026-04-14T15:47:00.904Z</time></trkpt><trkpt lat="42.471325" lon="-7.297175"><ele>240.0</ele><time>2026-04-14T15:47:01.904Z</time></trkpt><trkpt lat="42.4712067" lon="-7.29707"><ele>240.0</ele><time>2026-04-14T15:47:02.905Z</time></trkpt><trkpt lat="42.47108" lon="-7.296975"><ele>241.75</ele><time>2026-04-14T15:47:03.904Z</time></trkpt><trkpt lat="42.4709567" lon="-7.2968717"><ele>243.5</ele><time>2026-04-14T15:47:04.905Z</time></trkpt><trkpt lat="42.4708283" lon="-7.2967783"><ele>245.25</ele><time>2026-04-14T15:47:05.905Z</time></trkpt><trkpt lat="42.4707033" lon="-7.2966783"><ele>247.0</ele><time>2026-04-14T15:47:06.904Z</time></trkpt><trkpt lat="42.4705783" lon="-7.296585"><ele>247.0</ele><time>2026-04-14T15:47:07.904Z</time></trkpt><trkpt lat="42.4704533" lon="-7.2964917"><ele>247.0</ele><time>2026-04-14T15:47:08.904Z</time></trkpt><trkpt lat="42.4703317" lon="-7.2963933"><ele>247.0</ele><time>2026-04-14T15:47:09.905Z</time></trkpt><trkpt lat="42.470205" lon="-7.2962917"><ele>247.0</ele><time>2026-04-14T15:47:10.904Z</time></trkpt><trkpt lat="42.4700883" lon="-7.2961883"><ele>246.75</ele><time>2026-04-14T15:47:11.904Z</time></trkpt><trkpt lat="42.4699567" lon="-7.2960833"><ele>246.5</ele><time>2026-04-14T15:47:12.905Z</time></trkpt><trkpt lat="42.469835" lon="-7.29599"><ele>246.25</ele><time>2026-04-14T15:47:13.904Z</time></trkpt><trkpt lat="42.4697033" lon="-7.2958933"><ele>246.0</ele><time>2026-04-14T15:47:14.905Z</time></trkpt><trkpt lat="42.4695967" lon="-7.295805"><ele>246.0</ele><time>2026-04-14T15:47:15.904Z</time></trkpt><trkpt lat="42.4694917" lon="-7.2957133"><ele>246.0</ele><time>2026-04-14T15:47:16.905Z</time></trkpt><trkpt lat="42.46939" lon="-7.2956333"><ele>246.0</ele><time>2026-04-14T15:47:17.904Z</time></trkpt><trkpt lat="42.469285" lon="-7.2955517"><ele>246.0</ele><time>2026-04-14T15:47:18.905Z</time></trkpt><trkpt lat="42.469185" lon="-7.295465"><ele>248.0</ele><time>2026-04-14T15:47:19.905Z</time></trkpt><trkpt lat="42.4690783" lon="-7.2953717"><ele>250.0</ele><time>2026-04-14T15:47:20.905Z</time></trkpt><trkpt lat="42.4689783" lon="-7.2952683"><ele>252.0</ele><time>2026-04-14T15:47:21.905Z</time></trkpt><trkpt lat="42.4688917" lon="-7.2951417"><ele>254.0</ele><time>2026-04-14T15:47:22.904Z</time></trkpt><trkpt lat="42.46882" lon="-7.2949833"><ele>252.0</ele><time>2026-04-14T15:47:23.904Z</time></trkpt><trkpt lat="42.4687583" lon="-7.2948117"><ele>250.0</ele><time>2026-04-14T15:47:24.904Z</time></trkpt><trkpt lat="42.468685" lon="-7.2946333"><ele>248.0</ele><time>2026-04-14T15:47:25.905Z</time></trkpt><trkpt lat="42.4686067" lon="-7.294465"><ele>246.0</ele><time>2026-04-14T15:47:26.904Z</time></trkpt><trkpt lat="42.468525" lon="-7.294295"><ele>246.0</ele><time>2026-04-14T15:47:27.905Z</time></trkpt><trkpt lat="42.46845" lon="-7.2941333"><ele>246.0</ele><time>2026-04-14T15:47:28.904Z</time></trkpt><trkpt lat="42.4683783" lon="-7.2939733"><ele>246.0</ele><time>2026-04-14T15:47:29.905Z</time></trkpt><trkpt lat="42.468315" lon="-7.29382"><ele>246.0</ele><time>2026-04-14T15:47:30.905Z</time></trkpt><trkpt lat="42.46827" lon="-7.2936467"><ele>246.0</ele><time>2026-04-14T15:47:31.905Z</time></trkpt><trkpt lat="42.4682283" lon="-7.2934817"><ele>246.0</ele><time>2026-04-14T15:47:32.905Z</time></trkpt><trkpt lat="42.4681983" lon="-7.2933117"><ele>246.0</ele><time>2026-04-14T15:47:33.905Z</time></trkpt><trkpt lat="42.4681783" lon="-7.293125"><ele>246.0</ele><time>2026-04-14T15:47:34.906Z</time></trkpt><trkpt lat="42.4681717" lon="-7.2929283"><ele>246.0</ele><time>2026-04-14T15:47:35.906Z</time></trkpt><trkpt lat="42.46817" lon="-7.2927433"><ele>246.0</ele><time>2026-04-14T15:47:36.905Z</time></trkpt><trkpt lat="42.468165" lon="-7.2925517"><ele>246.0</ele><time>2026-04-14T15:47:37.905Z</time></trkpt><trkpt lat="42.4681683" lon="-7.2923683"><ele>246.0</ele><time>2026-04-14T15:47:38.905Z</time></trkpt><trkpt lat="42.4681817" lon="-7.2921767"><ele>245.5</ele><time>2026-04-14T15:47:39.906Z</time></trkpt><trkpt lat="42.468205" lon="-7.2919933"><ele>245.0</ele><time>2026-04-14T15:47:40.906Z</time></trkpt><trkpt lat="42.4682267" lon="-7.29181"><ele>244.5</ele><time>2026-04-14T15:47:41.906Z</time></trkpt><trkpt lat="42.468255" lon="-7.2916167"><ele>244.0</ele><time>2026-04-14T15:47:42.905Z</time></trkpt><trkpt lat="42.4683" lon="-7.291435"><ele>242.5</ele><time>2026-04-14T15:47:43.906Z</time></trkpt><trkpt lat="42.468355" lon="-7.2912683"><ele>241.0</ele><time>2026-04-14T15:47:44.905Z</time></trkpt><trkpt lat="42.4684417" lon="-7.2911017"><ele>239.5</ele><time>2026-04-14T15:47:45.905Z</time></trkpt><trkpt lat="42.4685317" lon="-7.2909417"><ele>238.0</ele><time>2026-04-14T15:47:46.906Z</time></trkpt><trkpt lat="42.4686317" lon="-7.2907783"><ele>238.0</ele><time>2026-04-14T15:47:47.905Z</time></trkpt><trkpt lat="42.4687083" lon="-7.2906267"><ele>238.0</ele><time>2026-04-14T15:47:48.905Z</time></trkpt><trkpt lat="42.4687883" lon="-7.29048"><ele>238.0</ele><time>2026-04-14T15:47:49.905Z</time></trkpt><trkpt lat="42.4688683" lon="-7.2903267"><ele>238.0</ele><time>2026-04-14T15:47:50.905Z</time></trkpt><trkpt lat="42.4689417" lon="-7.2901767"><ele>238.0</ele><time>2026-04-14T15:47:51.906Z</time></trkpt><trkpt lat="42.4690167" lon="-7.2900333"><ele>238.0</ele><time>2026-04-14T15:47:52.905Z</time></trkpt><trkpt lat="42.4690917" lon="-7.289875"><ele>238.0</ele><time>2026-04-14T15:47:53.906Z</time></trkpt><trkpt lat="42.46917" lon="-7.28971"><ele>238.0</ele><time>2026-04-14T15:47:54.905Z</time></trkpt><trkpt lat="42.4692517" lon="-7.289545"><ele>238.0</ele><time>2026-04-14T15:47:55.905Z</time></trkpt><trkpt lat="42.46933" lon="-7.2893917"><ele>238.0</ele><time>2026-04-14T15:47:56.905Z</time></trkpt><trkpt lat="42.4694117" lon="-7.2892283"><ele>238.0</ele><time>2026-04-14T15:47:57.905Z</time></trkpt><trkpt lat="42.4694917" lon="-7.2890683"><ele>238.0</ele><time>2026-04-14T15:47:58.906Z</time></trkpt><trkpt lat="42.4695717" lon="-7.2889067"><ele>241.0</ele><time>2026-04-14T15:47:59.906Z</time></trkpt><trkpt lat="42.4696533" lon="-7.2887483"><ele>244.0</ele><time>2026-04-14T15:48:00.906Z</time></trkpt><trkpt lat="42.46973" lon="-7.2885733"><ele>247.0</ele><time>2026-04-14T15:48:01.905Z</time></trkpt><trkpt lat="42.46981" lon="-7.2884133"><ele>250.0</ele><time>2026-04-14T15:48:02.906Z</time></trkpt><trkpt lat="42.4698983" lon="-7.2882433"><ele>246.66666666666666</ele><time>2026-04-14T15:48:03.905Z</time></trkpt><trkpt lat="42.4699883" lon="-7.2880683"><ele>243.33333333333331</ele><time>2026-04-14T15:48:04.906Z</time></trkpt><trkpt lat="42.470075" lon="-7.2878867"><ele>240.0</ele><time>2026-04-14T15:48:05.905Z</time></trkpt><trkpt lat="42.4701617" lon="-7.28771"><ele>240.0</ele><time>2026-04-14T15:48:06.906Z</time></trkpt><trkpt lat="42.47025" lon="-7.287545"><ele>240.0</ele><time>2026-04-14T15:48:07.905Z</time></trkpt><trkpt lat="42.4703383" lon="-7.2873967"><ele>240.0</ele><time>2026-04-14T15:48:08.905Z</time></trkpt><trkpt lat="42.4704417" lon="-7.28727"><ele>240.0</ele><time>2026-04-14T15:48:09.905Z</time></trkpt><trkpt lat="42.470555" lon="-7.287145"><ele>240.75</ele><time>2026-04-14T15:48:10.905Z</time></trkpt><trkpt lat="42.4706667" lon="-7.28704"><ele>241.5</ele><time>2026-04-14T15:48:11.905Z</time></trkpt><trkpt lat="42.4707717" lon="-7.2869217"><ele>242.25</ele><time>2026-04-14T15:48:12.906Z</time></trkpt><trkpt lat="42.4708717" lon="-7.2868"><ele>243.0</ele><time>2026-04-14T15:48:13.905Z</time></trkpt><trkpt lat="42.4709733" lon="-7.28668"><ele>243.0</ele><time>2026-04-14T15:48:14.906Z</time></trkpt><trkpt lat="42.4710617" lon="-7.2865533"><ele>243.0</ele><time>2026-04-14T15:48:15.906Z</time></trkpt><trkpt lat="42.4711517" lon="-7.2864233"><ele>243.0</ele><time>2026-04-14T15:48:16.906Z</time></trkpt><trkpt lat="42.4712333" lon="-7.28628"><ele>243.0</ele><time>2026-04-14T15:48:17.906Z</time></trkpt><trkpt lat="42.4713067" lon="-7.2861233"><ele>243.0</ele><time>2026-04-14T15:48:18.905Z</time></trkpt><trkpt lat="42.4713817" lon="-7.2859583"><ele>243.0</ele><time>2026-04-14T15:48:19.905Z</time></trkpt><trkpt lat="42.4714633" lon="-7.285795"><ele>243.0</ele><time>2026-04-14T15:48:20.906Z</time></trkpt><trkpt lat="42.4715433" lon="-7.2856383"><ele>243.0</ele><time>2026-04-14T15:48:21.906Z</time></trkpt><trkpt lat="42.47163" lon="-7.2854817"><ele>240.33333333333331</ele><time>2026-04-14T15:48:22.906Z</time></trkpt><trkpt lat="42.47172" lon="-7.2853117"><ele>237.66666666666666</ele><time>2026-04-14T15:48:23.906Z</time></trkpt><trkpt lat="42.471805" lon="-7.285135"><ele>235.0</ele><time>2026-04-14T15:48:24.905Z</time></trkpt><trkpt lat="42.47189" lon="-7.2849633"><ele>235.0</ele><time>2026-04-14T15:48:25.905Z</time></trkpt><trkpt lat="42.47198" lon="-7.284785"><ele>235.0</ele><time>2026-04-14T15:48:26.906Z</time></trkpt><trkpt lat="42.4720717" lon="-7.284605"><ele>235.0</ele><time>2026-04-14T15:48:27.906Z</time></trkpt><trkpt lat="42.4721583" lon="-7.284425"><ele>236.0</ele><time>2026-04-14T15:48:28.906Z</time></trkpt><trkpt lat="42.4722483" lon="-7.2842417"><ele>237.0</ele><time>2026-04-14T15:48:29.906Z</time></trkpt><trkpt lat="42.472305" lon="-7.28404"><ele>238.0</ele><time>2026-04-14T15:48:30.905Z</time></trkpt><trkpt lat="42.4723833" lon="-7.28385"><ele>238.0</ele><time>2026-04-14T15:48:31.905Z</time></trkpt><trkpt lat="42.472415" lon="-7.2836517"><ele>238.0</ele><time>2026-04-14T15:48:32.905Z</time></trkpt><trkpt lat="42.4724483" lon="-7.28345"><ele>238.0</ele><time>2026-04-14T15:48:33.905Z</time></trkpt><trkpt lat="42.4724767" lon="-7.2832617"><ele>238.0</ele><time>2026-04-14T15:48:34.906Z</time></trkpt><trkpt lat="42.4725133" lon="-7.28308"><ele>237.0</ele><time>2026-04-14T15:48:35.905Z</time></trkpt><trkpt lat="42.4725583" lon="-7.2828883"><ele>236.0</ele><time>2026-04-14T15:48:36.905Z</time></trkpt><trkpt lat="42.4726" lon="-7.2827067"><ele>235.0</ele><time>2026-04-14T15:48:37.906Z</time></trkpt><trkpt lat="42.4726333" lon="-7.2825217"><ele>234.0</ele><time>2026-04-14T15:48:38.905Z</time></trkpt><trkpt lat="42.4726683" lon="-7.282335"><ele>234.0</ele><time>2026-04-14T15:48:39.905Z</time></trkpt><trkpt lat="42.472715" lon="-7.2821517"><ele>234.0</ele><time>2026-04-14T15:48:40.906Z</time></trkpt><trkpt lat="42.4727583" lon="-7.2819667"><ele>234.0</ele><time>2026-04-14T15:48:41.906Z</time></trkpt><trkpt lat="42.4728" lon="-7.2817817"><ele>234.0</ele><time>2026-04-14T15:48:42.905Z</time></trkpt><trkpt lat="42.4728517" lon="-7.2815917"><ele>234.0</ele><time>2026-04-14T15:48:43.906Z</time></trkpt><trkpt lat="42.472905" lon="-7.2814067"><ele>234.0</ele><time>2026-04-14T15:48:44.906Z</time></trkpt><trkpt lat="42.4729583" lon="-7.2812183"><ele>234.0</ele><time>2026-04-14T15:48:45.905Z</time></trkpt><trkpt lat="42.4730167" lon="-7.2810383"><ele>234.0</ele><time>2026-04-14T15:48:46.906Z</time></trkpt><trkpt lat="42.4730767" lon="-7.2808583"><ele>236.5</ele><time>2026-04-14T15:48:47.905Z</time></trkpt><trkpt lat="42.4731317" lon="-7.2806733"><ele>239.0</ele><time>2026-04-14T15:48:48.906Z</time></trkpt><trkpt lat="42.4731867" lon="-7.2804867"><ele>241.5</ele><time>2026-04-14T15:48:49.906Z</time></trkpt><trkpt lat="42.4732333" lon="-7.2803"><ele>244.0</ele><time>2026-04-14T15:48:50.905Z</time></trkpt><trkpt lat="42.4732767" lon="-7.280125"><ele>244.0</ele><time>2026-04-14T15:48:51.905Z</time></trkpt><trkpt lat="42.47333" lon="-7.2799517"><ele>244.0</ele><time>2026-04-14T15:48:52.905Z</time></trkpt><trkpt lat="42.4733817" lon="-7.279775"><ele>244.0</ele><time>2026-04-14T15:48:53.905Z</time></trkpt><trkpt lat="42.47343" lon="-7.2795933"><ele>244.0</ele><time>2026-04-14T15:48:54.905Z</time></trkpt><trkpt lat="42.4734783" lon="-7.2794183"><ele>242.5</ele><time>2026-04-14T15:48:55.905Z</time></trkpt><trkpt lat="42.473535" lon="-7.2792533"><ele>241.0</ele><time>2026-04-14T15:48:56.905Z</time></trkpt><trkpt lat="42.4736067" lon="-7.2790867"><ele>239.5</ele><time>2026-04-14T15:48:57.905Z</time></trkpt><trkpt lat="42.473685" lon="-7.278935"><ele>238.0</ele><time>2026-04-14T15:48:58.905Z</time></trkpt><trkpt lat="42.4737717" lon="-7.2787733"><ele>242.5</ele><time>2026-04-14T15:48:59.905Z</time></trkpt><trkpt lat="42.47386" lon="-7.2786183"><ele>247.0</ele><time>2026-04-14T15:49:00.906Z</time></trkpt><trkpt lat="42.4739567" lon="-7.2784583"><ele>251.5</ele><time>2026-04-14T15:49:01.905Z</time></trkpt><trkpt lat="42.474055" lon="-7.2783067"><ele>256.0</ele><time>2026-04-14T15:49:02.905Z</time></trkpt><trkpt lat="42.47415" lon="-7.278155"><ele>255.0</ele><time>2026-04-14T15:49:03.906Z</time></trkpt><trkpt lat="42.4742433" lon="-7.2779933"><ele>254.0</ele><time>2026-04-14T15:49:04.906Z</time></trkpt><trkpt lat="42.4743533" lon="-7.2778283"><ele>253.0</ele><time>2026-04-14T15:49:05.906Z</time></trkpt><trkpt lat="42.4744617" lon="-7.2776617"><ele>253.0</ele><time>2026-04-14T15:49:06.905Z</time></trkpt><trkpt lat="42.4745667" lon="-7.2775133"><ele>253.0</ele><time>2026-04-14T15:49:07.905Z</time></trkpt><trkpt lat="42.4746733" lon="-7.2773817"><ele>253.0</ele><time>2026-04-14T15:49:08.905Z</time></trkpt><trkpt lat="42.4747817" lon="-7.2772517"><ele>253.0</ele><time>2026-04-14T15:49:09.905Z</time></trkpt><trkpt lat="42.4748883" lon="-7.2771217"><ele>255.25</ele><time>2026-04-14T15:49:10.905Z</time></trkpt><trkpt lat="42.4749933" lon="-7.2769833"><ele>257.5</ele><time>2026-04-14T15:49:11.905Z</time></trkpt><trkpt lat="42.4750917" lon="-7.2768583"><ele>259.75</ele><time>2026-04-14T15:49:12.905Z</time></trkpt><trkpt lat="42.4751883" lon="-7.2767033"><ele>262.0</ele><time>2026-04-14T15:49:13.906Z</time></trkpt><trkpt lat="42.4752833" lon="-7.2765433"><ele>261.5</ele><time>2026-04-14T15:49:14.905Z</time></trkpt><trkpt lat="42.475375" lon="-7.2763883"><ele>261.0</ele><time>2026-04-14T15:49:15.905Z</time></trkpt><trkpt lat="42.4754683" lon="-7.2762383"><ele>260.5</ele><time>2026-04-14T15:49:16.905Z</time></trkpt><trkpt lat="42.4755683" lon="-7.2760833"><ele>260.0</ele><time>2026-04-14T15:49:17.905Z</time></trkpt><trkpt lat="42.4756683" lon="-7.2759317"><ele>261.75</ele><time>2026-04-14T15:49:18.906Z</time></trkpt><trkpt lat="42.4757583" lon="-7.27578"><ele>263.5</ele><time>2026-04-14T15:49:19.906Z</time></trkpt><trkpt lat="42.475855" lon="-7.2756267"><ele>265.25</ele><time>2026-04-14T15:49:20.906Z</time></trkpt><trkpt lat="42.4759367" lon="-7.2754633"><ele>267.0</ele><time>2026-04-14T15:49:21.905Z</time></trkpt><trkpt lat="42.4760367" lon="-7.2753217"><ele>267.0</ele><time>2026-04-14T15:49:22.905Z</time></trkpt><trkpt lat="42.476115" lon="-7.2751267"><ele>267.0</ele><time>2026-04-14T15:49:23.906Z</time></trkpt><trkpt lat="42.4761767" lon="-7.2749317"><ele>267.0</ele><time>2026-04-14T15:49:24.906Z</time></trkpt><trkpt lat="42.476235" lon="-7.2747483"><ele>269.0</ele><time>2026-04-14T15:49:25.905Z</time></trkpt><trkpt lat="42.47628" lon="-7.2745733"><ele>271.0</ele><time>2026-04-14T15:49:26.905Z</time></trkpt><trkpt lat="42.4763117" lon="-7.2743967"><ele>273.0</ele><time>2026-04-14T15:49:27.906Z</time></trkpt><trkpt lat="42.4763367" lon="-7.2742133"><ele>275.0</ele><time>2026-04-14T15:49:28.906Z</time></trkpt><trkpt lat="42.4763533" lon="-7.2740333"><ele>274.4</ele><time>2026-04-14T15:49:29.905Z</time></trkpt><trkpt lat="42.4763517" lon="-7.273875"><ele>273.8</ele><time>2026-04-14T15:49:30.905Z</time></trkpt><trkpt lat="42.4763567" lon="-7.2737283"><ele>273.2</ele><time>2026-04-14T15:49:31.905Z</time></trkpt><trkpt lat="42.4763717" lon="-7.273585"><ele>272.6</ele><time>2026-04-14T15:49:32.906Z</time></trkpt><trkpt lat="42.4763933" lon="-7.2734583"><ele>272.0</ele><time>2026-04-14T15:49:33.905Z</time></trkpt><trkpt lat="42.4764033" lon="-7.2733383"><ele>272.0</ele><time>2026-04-14T15:49:34.906Z</time></trkpt><trkpt lat="42.4764" lon="-7.273235"><ele>272.0</ele><time>2026-04-14T15:49:35.905Z</time></trkpt><trkpt lat="42.4763833" lon="-7.2731333"><ele>272.0</ele><time>2026-04-14T15:49:36.906Z</time></trkpt><trkpt lat="42.4763483" lon="-7.2730333"><ele>272.0</ele><time>2026-04-14T15:49:37.905Z</time></trkpt><trkpt lat="42.476315" lon="-7.27293"><ele>272.0</ele><time>2026-04-14T15:49:38.905Z</time></trkpt><trkpt lat="42.4762817" lon="-7.2728183"><ele>272.0</ele><time>2026-04-14T15:49:39.905Z</time></trkpt><trkpt lat="42.476245" lon="-7.2726967"><ele>271.8</ele><time>2026-04-14T15:49:40.906Z</time></trkpt><trkpt lat="42.4762067" lon="-7.2725617"><ele>271.6</ele><time>2026-04-14T15:49:41.906Z</time></trkpt><trkpt lat="42.4761633" lon="-7.27242"><ele>271.40000000000003</ele><time>2026-04-14T15:49:42.906Z</time></trkpt><trkpt lat="42.4761267" lon="-7.2722733"><ele>271.2</ele><time>2026-04-14T15:49:43.906Z</time></trkpt><trkpt lat="42.4760917" lon="-7.2721367"><ele>271.0</ele><time>2026-04-14T15:49:44.906Z</time></trkpt><trkpt lat="42.4760567" lon="-7.2720133"><ele>270.2</ele><time>2026-04-14T15:49:45.906Z</time></trkpt><trkpt lat="42.4760183" lon="-7.2719"><ele>269.40000000000003</ele><time>2026-04-14T15:49:46.906Z</time></trkpt><trkpt lat="42.4759817" lon="-7.2717783"><ele>268.6</ele><time>2026-04-14T15:49:47.906Z</time></trkpt><trkpt lat="42.4759483" lon="-7.2716533"><ele>267.8</ele><time>2026-04-14T15:49:48.905Z</time></trkpt><trkpt lat="42.4759167" lon="-7.2715283"><ele>267.0</ele><time>2026-04-14T15:49:49.905Z</time></trkpt><trkpt lat="42.4758767" lon="-7.2714067"><ele>266.8</ele><time>2026-04-14T15:49:50.905Z</time></trkpt><trkpt lat="42.4758333" lon="-7.27128"><ele>266.6</ele><time>2026-04-14T15:49:51.906Z</time></trkpt><trkpt lat="42.4757867" lon="-7.2711583"><ele>266.40000000000003</ele><time>2026-04-14T15:49:52.906Z</time></trkpt><trkpt lat="42.4757467" lon="-7.2710267"><ele>266.2</ele><time>2026-04-14T15:49:53.905Z</time></trkpt><trkpt lat="42.4757083" lon="-7.270895"><ele>266.0</ele><time>2026-04-14T15:49:54.906Z</time></trkpt><trkpt lat="42.4756633" lon="-7.2707717"><ele>266.0</ele><time>2026-04-14T15:49:55.906Z</time></trkpt><trkpt lat="42.4756217" lon="-7.27065"><ele>266.0</ele><time>2026-04-14T15:49:56.905Z</time></trkpt><trkpt lat="42.4755867" lon="-7.270525"><ele>266.0</ele><time>2026-04-14T15:49:57.906Z</time></trkpt><trkpt lat="42.475555" lon="-7.2703917"><ele>266.0</ele><time>2026-04-14T15:49:58.905Z</time></trkpt><trkpt lat="42.4755233" lon="-7.2702517"><ele>266.0</ele><time>2026-04-14T15:49:59.906Z</time></trkpt><trkpt lat="42.4754883" lon="-7.2701033"><ele>266.2</ele><time>2026-04-14T15:50:00.906Z</time></trkpt><trkpt lat="42.475445" lon="-7.2699617"><ele>266.40000000000003</ele><time>2026-04-14T15:50:01.905Z</time></trkpt><trkpt lat="42.4754017" lon="-7.2698217"><ele>266.6</ele><time>2026-04-14T15:50:02.905Z</time></trkpt><trkpt lat="42.4753617" lon="-7.2696817"><ele>266.8</ele><time>2026-04-14T15:50:03.906Z</time></trkpt><trkpt lat="42.4753283" lon="-7.2695533"><ele>267.0</ele><time>2026-04-14T15:50:04.906Z</time></trkpt><trkpt lat="42.47529" lon="-7.2694217"><ele>266.25</ele><time>2026-04-14T15:50:05.905Z</time></trkpt><trkpt lat="42.4752467" lon="-7.2692817"><ele>265.5</ele><time>2026-04-14T15:50:06.905Z</time></trkpt><trkpt lat="42.4751983" lon="-7.2691417"><ele>264.75</ele><time>2026-04-14T15:50:07.905Z</time></trkpt><trkpt lat="42.4751533" lon="-7.2689917"><ele>264.0</ele><time>2026-04-14T15:50:08.906Z</time></trkpt><trkpt lat="42.4751067" lon="-7.2688367"><ele>264.0</ele><time>2026-04-14T15:50:09.906Z</time></trkpt><trkpt lat="42.4750583" lon="-7.26868"><ele>264.0</ele><time>2026-04-14T15:50:10.905Z</time></trkpt><trkpt lat="42.4750017" lon="-7.2685217"><ele>264.0</ele><time>2026-04-14T15:50:11.906Z</time></trkpt><trkpt lat="42.474945" lon="-7.268355"><ele>264.0</ele><time>2026-04-14T15:50:12.905Z</time></trkpt><trkpt lat="42.4749" lon="-7.2682067"><ele>264.5</ele><time>2026-04-14T15:50:13.906Z</time></trkpt><trkpt lat="42.4748483" lon="-7.2680633"><ele>265.0</ele><time>2026-04-14T15:50:14.905Z</time></trkpt><trkpt lat="42.4747933" lon="-7.26792"><ele>265.5</ele><time>2026-04-14T15:50:15.905Z</time></trkpt><trkpt lat="42.4747433" lon="-7.26778"><ele>266.0</ele><time>2026-04-14T15:50:16.906Z</time></trkpt><trkpt lat="42.4746967" lon="-7.2676283"><ele>266.0</ele><time>2026-04-14T15:50:17.905Z</time></trkpt><trkpt lat="42.4746517" lon="-7.2674733"><ele>266.0</ele><time>2026-04-14T15:50:18.905Z</time></trkpt><trkpt lat="42.4746133" lon="-7.2673167"><ele>266.0</ele><time>2026-04-14T15:50:19.906Z</time></trkpt><trkpt lat="42.4745633" lon="-7.2671533"><ele>266.0</ele><time>2026-04-14T15:50:20.906Z</time></trkpt><trkpt lat="42.4745083" lon="-7.2669733"><ele>265.0</ele><time>2026-04-14T15:50:21.905Z</time></trkpt><trkpt lat="42.4744567" lon="-7.2668033"><ele>264.0</ele><time>2026-04-14T15:50:22.905Z</time></trkpt><trkpt lat="42.4744083" lon="-7.2666383"><ele>263.0</ele><time>2026-04-14T15:50:23.906Z</time></trkpt><trkpt lat="42.4743583" lon="-7.2664767"><ele>262.0</ele><time>2026-04-14T15:50:24.905Z</time></trkpt><trkpt lat="42.4743133" lon="-7.2663083"><ele>262.0</ele><time>2026-04-14T15:50:25.905Z</time></trkpt><trkpt lat="42.474265" lon="-7.26614"><ele>262.0</ele><time>2026-04-14T15:50:26.906Z</time></trkpt><trkpt lat="42.474215" lon="-7.26598"><ele>262.0</ele><time>2026-04-14T15:50:27.906Z</time></trkpt><trkpt lat="42.47417" lon="-7.265815"><ele>262.0</ele><time>2026-04-14T15:50:28.906Z</time></trkpt><trkpt lat="42.4741183" lon="-7.2656533"><ele>262.0</ele><time>2026-04-14T15:50:29.905Z</time></trkpt><trkpt lat="42.47407" lon="-7.2655033"><ele>262.0</ele><time>2026-04-14T15:50:30.905Z</time></trkpt><trkpt lat="42.47402" lon="-7.2653533"><ele>262.0</ele><time>2026-04-14T15:50:31.906Z</time></trkpt><trkpt lat="42.4739733" lon="-7.2652083"><ele>262.0</ele><time>2026-04-14T15:50:32.905Z</time></trkpt><trkpt lat="42.4739367" lon="-7.26507"><ele>262.0</ele><time>2026-04-14T15:50:33.905Z</time></trkpt><trkpt lat="42.4738967" lon="-7.2649417"><ele>262.0</ele><time>2026-04-14T15:50:34.905Z</time></trkpt><trkpt lat="42.473855" lon="-7.2648217"><ele>262.0</ele><time>2026-04-14T15:50:35.905Z</time></trkpt><trkpt lat="42.4738183" lon="-7.2647133"><ele>262.0</ele><time>2026-04-14T15:50:36.906Z</time></trkpt><trkpt lat="42.4737883" lon="-7.2646217"><ele>262.0</ele><time>2026-04-14T15:50:37.906Z</time></trkpt><trkpt lat="42.47377" lon="-7.26454"><ele>262.0</ele><time>2026-04-14T15:50:38.905Z</time></trkpt><trkpt lat="42.47378" lon="-7.2644267"><ele>262.0</ele><time>2026-04-14T15:50:40.905Z</time></trkpt><trkpt lat="42.4738683" lon="-7.2645483"><ele>262.0</ele><time>2026-04-14T15:52:28.905Z</time></trkpt><trkpt lat="42.4739183" lon="-7.2646117"><ele>262.0</ele><time>2026-04-14T15:52:32.906Z</time></trkpt><trkpt lat="42.47394" lon="-7.2646933"><ele>262.0</ele><time>2026-04-14T16:40:29.912Z</time></trkpt><trkpt lat="42.4738883" lon="-7.26477"><ele>262.0</ele><time>2026-04-14T16:40:38.913Z</time></trkpt><trkpt lat="42.4738967" lon="-7.264895"><ele>262.0</ele><time>2026-04-14T16:40:40.913Z</time></trkpt><trkpt lat="42.4739433" lon="-7.265065"><ele>262.0</ele><time>2026-04-14T16:40:42.913Z</time></trkpt><trkpt lat="42.47397" lon="-7.2651667"><ele>262.0</ele><time>2026-04-14T16:40:43.912Z</time></trkpt><trkpt lat="42.4739983" lon="-7.2652717"><ele>262.0</ele><time>2026-04-14T16:40:44.912Z</time></trkpt><trkpt lat="42.4740283" lon="-7.265385"><ele>262.0</ele><time>2026-04-14T16:40:45.913Z</time></trkpt><trkpt lat="42.4740583" lon="-7.2654967"><ele>262.0</ele><time>2026-04-14T16:40:46.913Z</time></trkpt><trkpt lat="42.4740833" lon="-7.2656"><ele>262.0</ele><time>2026-04-14T16:40:47.913Z</time></trkpt><trkpt lat="42.4741083" lon="-7.2657"><ele>262.0</ele><time>2026-04-14T16:40:48.913Z</time></trkpt><trkpt lat="42.474135" lon="-7.265795"><ele>262.0</ele><time>2026-04-14T16:40:49.912Z</time></trkpt><trkpt lat="42.4741617" lon="-7.265895"><ele>262.0</ele><time>2026-04-14T16:40:50.913Z</time></trkpt><trkpt lat="42.4741917" lon="-7.2660033"><ele>262.0</ele><time>2026-04-14T16:40:51.912Z</time></trkpt><trkpt lat="42.474225" lon="-7.26612"><ele>262.0</ele><time>2026-04-14T16:40:52.913Z</time></trkpt><trkpt lat="42.4742583" lon="-7.2662367"><ele>262.0</ele><time>2026-04-14T16:40:53.912Z</time></trkpt><trkpt lat="42.4742867" lon="-7.2663467"><ele>262.0</ele><time>2026-04-14T16:40:54.913Z</time></trkpt><trkpt lat="42.4743133" lon="-7.2664467"><ele>262.0</ele><time>2026-04-14T16:40:55.912Z</time></trkpt><trkpt lat="42.47434" lon="-7.2665367"><ele>262.0</ele><time>2026-04-14T16:40:56.912Z</time></trkpt><trkpt lat="42.4743733" lon="-7.2666133"><ele>262.0</ele><time>2026-04-14T16:40:57.912Z</time></trkpt><trkpt lat="42.47444" lon="-7.2667117"><ele>262.0</ele><time>2026-04-14T16:40:59.912Z</time></trkpt><trkpt lat="42.474515" lon="-7.2667133"><ele>262.0</ele><time>2026-04-14T16:41:01.912Z</time></trkpt><trkpt lat="42.4746267" lon="-7.26662"><ele>263.2</ele><time>2026-04-14T16:41:03.913Z</time></trkpt><trkpt lat="42.4747" lon="-7.266565"><ele>264.4</ele><time>2026-04-14T16:41:04.913Z</time></trkpt><trkpt lat="42.4747817" lon="-7.266505"><ele>265.6</ele><time>2026-04-14T16:41:05.912Z</time></trkpt><trkpt lat="42.4748667" lon="-7.2664383"><ele>266.8</ele><time>2026-04-14T16:41:06.912Z</time></trkpt><trkpt lat="42.4749517" lon="-7.2663633"><ele>268.0</ele><time>2026-04-14T16:41:07.912Z</time></trkpt><trkpt lat="42.4750317" lon="-7.2662867"><ele>268.0</ele><time>2026-04-14T16:41:08.912Z</time></trkpt><trkpt lat="42.4751217" lon="-7.2662233"><ele>268.0</ele><time>2026-04-14T16:41:09.912Z</time></trkpt><trkpt lat="42.47522" lon="-7.26619"><ele>268.0</ele><time>2026-04-14T16:41:10.912Z</time></trkpt><trkpt lat="42.4753267" lon="-7.2661683"><ele>268.0</ele><time>2026-04-14T16:41:11.912Z</time></trkpt><trkpt lat="42.4754317" lon="-7.2661533"><ele>268.0</ele><time>2026-04-14T16:41:12.913Z</time></trkpt><trkpt lat="42.475525" lon="-7.2661217"><ele>269.2</ele><time>2026-04-14T16:41:13.913Z</time></trkpt><trkpt lat="42.4756233" lon="-7.2660933"><ele>270.4</ele><time>2026-04-14T16:41:14.912Z</time></trkpt><trkpt lat="42.4757233" lon="-7.26607"><ele>271.59999999999997</ele><time>2026-04-14T16:41:15.912Z</time></trkpt><trkpt lat="42.475825" lon="-7.2660483"><ele>272.8</ele><time>2026-04-14T16:41:16.913Z</time></trkpt><trkpt lat="42.4759233" lon="-7.2660333"><ele>274.0</ele><time>2026-04-14T16:41:17.913Z</time></trkpt><trkpt lat="42.4760183" lon="-7.2660133"><ele>274.0</ele><time>2026-04-14T16:41:18.913Z</time></trkpt><trkpt lat="42.476105" lon="-7.2659833"><ele>274.0</ele><time>2026-04-14T16:41:19.912Z</time></trkpt><trkpt lat="42.47617" lon="-7.2659583"><ele>274.0</ele><time>2026-04-14T16:41:20.912Z</time></trkpt><trkpt lat="42.47626" lon="-7.265865"><ele>274.0</ele><time>2026-04-14T16:41:22.912Z</time></trkpt><trkpt lat="42.4762967" lon="-7.2657033"><ele>274.0</ele><time>2026-04-14T16:41:24.913Z</time></trkpt><trkpt lat="42.4762933" lon="-7.265615"><ele>274.4</ele><time>2026-04-14T16:41:25.912Z</time></trkpt><trkpt lat="42.4763267" lon="-7.265485"><ele>274.79999999999995</ele><time>2026-04-14T16:41:27.912Z</time></trkpt><trkpt lat="42.4764283" lon="-7.2654033"><ele>275.20000000000005</ele><time>2026-04-14T16:41:29.912Z</time></trkpt><trkpt lat="42.4765067" lon="-7.2653583"><ele>275.6</ele><time>2026-04-14T16:41:30.912Z</time></trkpt><trkpt lat="42.4766033" lon="-7.2653017"><ele>276.0</ele><time>2026-04-14T16:41:31.913Z</time></trkpt><trkpt lat="42.476705" lon="-7.2652467"><ele>276.0</ele><time>2026-04-14T16:41:32.913Z</time></trkpt><trkpt lat="42.4768067" lon="-7.265185"><ele>276.0</ele><time>2026-04-14T16:41:33.912Z</time></trkpt><trkpt lat="42.4769017" lon="-7.2651117"><ele>276.0</ele><time>2026-04-14T16:41:34.913Z</time></trkpt><trkpt lat="42.476985" lon="-7.2650517"><ele>276.0</ele><time>2026-04-14T16:41:35.912Z</time></trkpt><trkpt lat="42.47707" lon="-7.26501"><ele>276.0</ele><time>2026-04-14T16:41:36.913Z</time></trkpt><trkpt lat="42.4771517" lon="-7.264995"><ele>277.40000000000003</ele><time>2026-04-14T16:41:37.913Z</time></trkpt><trkpt lat="42.47725" lon="-7.264995"><ele>278.8</ele><time>2026-04-14T16:41:38.912Z</time></trkpt><trkpt lat="42.4773567" lon="-7.2650067"><ele>280.20000000000005</ele><time>2026-04-14T16:41:39.912Z</time></trkpt><trkpt lat="42.477465" lon="-7.2650117"><ele>281.6</ele><time>2026-04-14T16:41:40.912Z</time></trkpt><trkpt lat="42.47756" lon="-7.2649983"><ele>283.0</ele><time>2026-04-14T16:41:41.912Z</time></trkpt><trkpt lat="42.4776483" lon="-7.2649983"><ele>283.0</ele><time>2026-04-14T16:41:42.912Z</time></trkpt><trkpt lat="42.47774" lon="-7.2649983"><ele>283.0</ele><time>2026-04-14T16:41:43.913Z</time></trkpt><trkpt lat="42.4778383" lon="-7.265005"><ele>283.0</ele><time>2026-04-14T16:41:44.913Z</time></trkpt><trkpt lat="42.4779083" lon="-7.26501"><ele>283.0</ele><time>2026-04-14T16:41:45.913Z</time></trkpt><trkpt lat="42.477985" lon="-7.2650433"><ele>283.0</ele><time>2026-04-14T16:41:46.912Z</time></trkpt><trkpt lat="42.478075" lon="-7.2650933"><ele>283.0</ele><time>2026-04-14T16:41:48.912Z</time></trkpt><trkpt lat="42.4781533" lon="-7.2650917"><ele>284.2</ele><time>2026-04-14T16:41:50.913Z</time></trkpt><trkpt lat="42.4782433" lon="-7.2649517"><ele>285.4</ele><time>2026-04-14T16:41:52.912Z</time></trkpt><trkpt lat="42.4782833" lon="-7.2648483"><ele>286.59999999999997</ele><time>2026-04-14T16:41:53.913Z</time></trkpt><trkpt lat="42.47833" lon="-7.2647367"><ele>287.8</ele><time>2026-04-14T16:41:54.912Z</time></trkpt><trkpt lat="42.4783817" lon="-7.2646133"><ele>289.0</ele><time>2026-04-14T16:41:55.913Z</time></trkpt><trkpt lat="42.478435" lon="-7.2644817"><ele>289.25</ele><time>2026-04-14T16:41:56.913Z</time></trkpt><trkpt lat="42.4784983" lon="-7.26433"><ele>289.5</ele><time>2026-04-14T16:41:57.912Z</time></trkpt><trkpt lat="42.4785683" lon="-7.2641567"><ele>289.75</ele><time>2026-04-14T16:41:58.913Z</time></trkpt><trkpt lat="42.4786383" lon="-7.2639717"><ele>290.0</ele><time>2026-04-14T16:41:59.913Z</time></trkpt><trkpt lat="42.478705" lon="-7.263805"><ele>293.0</ele><time>2026-04-14T16:42:00.912Z</time></trkpt><trkpt lat="42.478785" lon="-7.26362"><ele>296.0</ele><time>2026-04-14T16:42:01.913Z</time></trkpt><trkpt lat="42.4788617" lon="-7.26343"><ele>299.0</ele><time>2026-04-14T16:42:02.913Z</time></trkpt><trkpt lat="42.4789467" lon="-7.26325"><ele>298.33333333333337</ele><time>2026-04-14T16:42:03.912Z</time></trkpt><trkpt lat="42.4790267" lon="-7.2630683"><ele>297.6666666666667</ele><time>2026-04-14T16:42:04.912Z</time></trkpt><trkpt lat="42.4791" lon="-7.2628867"><ele>297.0</ele><time>2026-04-14T16:42:05.912Z</time></trkpt><trkpt lat="42.4791733" lon="-7.2627183"><ele>297.0</ele><time>2026-04-14T16:42:06.912Z</time></trkpt><trkpt lat="42.479235" lon="-7.2625483"><ele>297.0</ele><time>2026-04-14T16:42:07.912Z</time></trkpt><trkpt lat="42.4793067" lon="-7.262365"><ele>297.0</ele><time>2026-04-14T16:42:08.912Z</time></trkpt><trkpt lat="42.4793817" lon="-7.2621917"><ele>297.0</ele><time>2026-04-14T16:42:09.913Z</time></trkpt><trkpt lat="42.47947" lon="-7.2620217"><ele>296.25</ele><time>2026-04-14T16:42:10.912Z</time></trkpt><trkpt lat="42.47954" lon="-7.2618517"><ele>295.5</ele><time>2026-04-14T16:42:11.913Z</time></trkpt><trkpt lat="42.47961" lon="-7.2616717"><ele>294.75</ele><time>2026-04-14T16:42:12.913Z</time></trkpt><trkpt lat="42.4796817" lon="-7.2614883"><ele>294.0</ele><time>2026-04-14T16:42:13.912Z</time></trkpt><trkpt lat="42.479765" lon="-7.2613133"><ele>298.6666666666667</ele><time>2026-04-14T16:42:14.913Z</time></trkpt><trkpt lat="42.4798467" lon="-7.26114"><ele>303.33333333333337</ele><time>2026-04-14T16:42:15.913Z</time></trkpt><trkpt lat="42.4799267" lon="-7.26095"><ele>308.0</ele><time>2026-04-14T16:42:16.913Z</time></trkpt><trkpt lat="42.48001" lon="-7.260765"><ele>307.6666666666667</ele><time>2026-04-14T16:42:17.912Z</time></trkpt><trkpt lat="42.4800817" lon="-7.260575"><ele>307.3333333333333</ele><time>2026-04-14T16:42:18.912Z</time></trkpt><trkpt lat="42.480165" lon="-7.2603983"><ele>307.0</ele><time>2026-04-14T16:42:19.912Z</time></trkpt><trkpt lat="42.4802383" lon="-7.26023"><ele>307.0</ele><time>2026-04-14T16:42:20.912Z</time></trkpt><trkpt lat="42.480295" lon="-7.2601067"><ele>307.0</ele><time>2026-04-14T16:42:21.912Z</time></trkpt><trkpt lat="42.48034" lon="-7.2600133"><ele>307.0</ele><time>2026-04-14T16:42:22.912Z</time></trkpt><trkpt lat="42.4803933" lon="-7.25992"><ele>307.0</ele><time>2026-04-14T16:42:24.913Z</time></trkpt><trkpt lat="42.48043" lon="-7.259795"><ele>307.0</ele><time>2026-04-14T16:44:08.912Z</time></trkpt><trkpt lat="42.4804767" lon="-7.2597067"><ele>307.8</ele><time>2026-04-14T16:44:09.912Z</time></trkpt><trkpt lat="42.4805217" lon="-7.259615"><ele>308.6</ele><time>2026-04-14T16:44:10.913Z</time></trkpt><trkpt lat="42.4805717" lon="-7.2595133"><ele>309.40000000000003</ele><time>2026-04-14T16:44:11.912Z</time></trkpt><trkpt lat="42.4806283" lon="-7.2594"><ele>310.2</ele><time>2026-04-14T16:44:12.912Z</time></trkpt><trkpt lat="42.480685" lon="-7.2592717"><ele>311.0</ele><time>2026-04-14T16:44:13.912Z</time></trkpt><trkpt lat="42.4807417" lon="-7.2591367"><ele>311.0</ele><time>2026-04-14T16:44:14.912Z</time></trkpt><trkpt lat="42.4808083" lon="-7.258995"><ele>311.0</ele><time>2026-04-14T16:44:15.913Z</time></trkpt><trkpt lat="42.4808817" lon="-7.2588467"><ele>311.0</ele><time>2026-04-14T16:44:16.912Z</time></trkpt><trkpt lat="42.4809583" lon="-7.258695"><ele>311.0</ele><time>2026-04-14T16:44:17.913Z</time></trkpt><trkpt lat="42.48104" lon="-7.2585233"><ele>310.33333333333337</ele><time>2026-04-14T16:44:18.913Z</time></trkpt><trkpt lat="42.48115" lon="-7.2583267"><ele>309.6666666666667</ele><time>2026-04-14T16:44:19.913Z</time></trkpt><trkpt lat="42.481255" lon="-7.2581267"><ele>309.0</ele><time>2026-04-14T16:44:20.913Z</time></trkpt><trkpt lat="42.4813617" lon="-7.257925"><ele>312.6666666666667</ele><time>2026-04-14T16:44:21.913Z</time></trkpt><trkpt lat="42.4814683" lon="-7.25773"><ele>316.33333333333337</ele><time>2026-04-14T16:44:22.913Z</time></trkpt><trkpt lat="42.4815767" lon="-7.2575283"><ele>320.0</ele><time>2026-04-14T16:44:23.912Z</time></trkpt><trkpt lat="42.481685" lon="-7.2573167"><ele>319.33333333333337</ele><time>2026-04-14T16:44:24.912Z</time></trkpt><trkpt lat="42.4818033" lon="-7.2571083"><ele>318.6666666666667</ele><time>2026-04-14T16:44:25.912Z</time></trkpt><trkpt lat="42.48192" lon="-7.2568983"><ele>318.0</ele><time>2026-04-14T16:44:26.912Z</time></trkpt><trkpt lat="42.48203" lon="-7.25668"><ele>320.3333333333333</ele><time>2026-04-14T16:44:27.912Z</time></trkpt><trkpt lat="42.48214" lon="-7.2564567"><ele>322.66666666666663</ele><time>2026-04-14T16:44:28.912Z</time></trkpt><trkpt lat="42.4822433" lon="-7.2562283"><ele>325.0</ele><time>2026-04-14T16:44:29.912Z</time></trkpt><trkpt lat="42.4823417" lon="-7.2559983"><ele>325.0</ele><time>2026-04-14T16:44:30.913Z</time></trkpt><trkpt lat="42.48243" lon="-7.25576"><ele>325.0</ele><time>2026-04-14T16:44:31.912Z</time></trkpt><trkpt lat="42.4825167" lon="-7.2555233"><ele>325.0</ele><time>2026-04-14T16:44:32.912Z</time></trkpt><trkpt lat="42.4826" lon="-7.2552817"><ele>323.0</ele><time>2026-04-14T16:44:33.912Z</time></trkpt><trkpt lat="42.482695" lon="-7.25504"><ele>321.0</ele><time>2026-04-14T16:44:34.912Z</time></trkpt><trkpt lat="42.48279" lon="-7.2547967"><ele>319.0</ele><time>2026-04-14T16:44:35.913Z</time></trkpt><trkpt lat="42.4828817" lon="-7.2545433"><ele>319.3333333333333</ele><time>2026-04-14T16:44:36.913Z</time></trkpt><trkpt lat="42.4829633" lon="-7.2542833"><ele>319.6666666666667</ele><time>2026-04-14T16:44:37.913Z</time></trkpt><trkpt lat="42.4830483" lon="-7.2540233"><ele>320.0</ele><time>2026-04-14T16:44:38.913Z</time></trkpt><trkpt lat="42.48314" lon="-7.2537733"><ele>320.0</ele><time>2026-04-14T16:44:39.913Z</time></trkpt><trkpt lat="42.48322" lon="-7.2535183"><ele>320.0</ele><time>2026-04-14T16:44:40.912Z</time></trkpt><trkpt lat="42.48328" lon="-7.253265"><ele>320.0</ele><time>2026-04-14T16:44:41.912Z</time></trkpt><trkpt lat="42.4833283" lon="-7.2530183"><ele>322.0</ele><time>2026-04-14T16:44:42.913Z</time></trkpt><trkpt lat="42.4833717" lon="-7.2527533"><ele>324.0</ele><time>2026-04-14T16:44:43.912Z</time></trkpt><trkpt lat="42.4834133" lon="-7.2524967"><ele>326.0</ele><time>2026-04-14T16:44:44.912Z</time></trkpt><trkpt lat="42.48344" lon="-7.2522383"><ele>329.0</ele><time>2026-04-14T16:44:45.913Z</time></trkpt><trkpt lat="42.4834683" lon="-7.2519817"><ele>332.0</ele><time>2026-04-14T16:44:46.913Z</time></trkpt><trkpt lat="42.483495" lon="-7.2517283"><ele>335.0</ele><time>2026-04-14T16:44:47.912Z</time></trkpt><trkpt lat="42.4835167" lon="-7.25148"><ele>335.6666666666667</ele><time>2026-04-14T16:44:48.912Z</time></trkpt><trkpt lat="42.48353" lon="-7.251225"><ele>336.3333333333333</ele><time>2026-04-14T16:44:49.913Z</time></trkpt><trkpt lat="42.48353" lon="-7.250965"><ele>337.0</ele><time>2026-04-14T16:44:50.912Z</time></trkpt><trkpt lat="42.483535" lon="-7.2507083"><ele>337.66666666666663</ele><time>2026-04-14T16:44:51.913Z</time></trkpt><trkpt lat="42.483535" lon="-7.25045"><ele>338.3333333333333</ele><time>2026-04-14T16:44:52.913Z</time></trkpt><trkpt lat="42.48355" lon="-7.2501867"><ele>339.0</ele><time>2026-04-14T16:44:53.912Z</time></trkpt><trkpt lat="42.4835733" lon="-7.249925"><ele>341.6666666666667</ele><time>2026-04-14T16:44:54.913Z</time></trkpt><trkpt lat="42.4835917" lon="-7.24967"><ele>344.33333333333337</ele><time>2026-04-14T16:44:55.912Z</time></trkpt><trkpt lat="42.48358" lon="-7.24941"><ele>347.0</ele><time>2026-04-14T16:44:56.913Z</time></trkpt><trkpt lat="42.483575" lon="-7.2491567"><ele>348.6666666666667</ele><time>2026-04-14T16:44:57.912Z</time></trkpt><trkpt lat="42.4835533" lon="-7.2488983"><ele>350.3333333333333</ele><time>2026-04-14T16:44:58.912Z</time></trkpt><trkpt lat="42.4835433" lon="-7.2486483"><ele>352.0</ele><time>2026-04-14T16:44:59.912Z</time></trkpt><trkpt lat="42.4835467" lon="-7.2484"><ele>352.0</ele><time>2026-04-14T16:45:00.912Z</time></trkpt><trkpt lat="42.4836" lon="-7.2481467"><ele>352.0</ele><time>2026-04-14T16:45:01.913Z</time></trkpt><trkpt lat="42.48367" lon="-7.2479183"><ele>352.0</ele><time>2026-04-14T16:45:02.912Z</time></trkpt><trkpt lat="42.483755" lon="-7.24773"><ele>355.3333333333333</ele><time>2026-04-14T16:45:03.912Z</time></trkpt><trkpt lat="42.4838583" lon="-7.2475733"><ele>358.6666666666667</ele><time>2026-04-14T16:45:04.913Z</time></trkpt><trkpt lat="42.4839683" lon="-7.2474483"><ele>362.0</ele><time>2026-04-14T16:45:05.912Z</time></trkpt><trkpt lat="42.48411" lon="-7.2473533"><ele>361.6666666666667</ele><time>2026-04-14T16:45:06.912Z</time></trkpt><trkpt lat="42.484255" lon="-7.2472717"><ele>361.3333333333333</ele><time>2026-04-14T16:45:07.913Z</time></trkpt><trkpt lat="42.484405" lon="-7.2471967"><ele>361.0</ele><time>2026-04-14T16:45:08.912Z</time></trkpt><trkpt lat="42.4845617" lon="-7.24712"><ele>363.3333333333333</ele><time>2026-04-14T16:45:09.912Z</time></trkpt><trkpt lat="42.48473" lon="-7.24705"><ele>365.6666666666667</ele><time>2026-04-14T16:45:10.912Z</time></trkpt><trkpt lat="42.4848933" lon="-7.2469683"><ele>368.0</ele><time>2026-04-14T16:45:11.913Z</time></trkpt><trkpt lat="42.4850617" lon="-7.2468883"><ele>368.0</ele><time>2026-04-14T16:45:12.913Z</time></trkpt><trkpt lat="42.4852417" lon="-7.2468033"><ele>368.0</ele><time>2026-04-14T16:45:13.912Z</time></trkpt><trkpt lat="42.4854217" lon="-7.246725"><ele>368.0</ele><time>2026-04-14T16:45:14.912Z</time></trkpt><trkpt lat="42.4856" lon="-7.24664"><ele>371.0</ele><time>2026-04-14T16:45:15.913Z</time></trkpt><trkpt lat="42.4857733" lon="-7.2465733"><ele>374.0</ele><time>2026-04-14T16:45:16.913Z</time></trkpt><trkpt lat="42.4859583" lon="-7.24652"><ele>377.0</ele><time>2026-04-14T16:45:17.913Z</time></trkpt><trkpt lat="42.4861433" lon="-7.2464833"><ele>377.33333333333337</ele><time>2026-04-14T16:45:18.912Z</time></trkpt><trkpt lat="42.4863217" lon="-7.24645"><ele>377.6666666666667</ele><time>2026-04-14T16:45:19.913Z</time></trkpt><trkpt lat="42.4865033" lon="-7.2464133"><ele>378.0</ele><time>2026-04-14T16:45:20.912Z</time></trkpt><trkpt lat="42.4866967" lon="-7.246385"><ele>378.0</ele><time>2026-04-14T16:45:21.913Z</time></trkpt><trkpt lat="42.48688" lon="-7.246365"><ele>378.0</ele><time>2026-04-14T16:45:22.913Z</time></trkpt><trkpt lat="42.48707" lon="-7.2463417"><ele>378.0</ele><time>2026-04-14T16:45:23.913Z</time></trkpt><trkpt lat="42.4872617" lon="-7.24632"><ele>378.6666666666667</ele><time>2026-04-14T16:45:24.913Z</time></trkpt><trkpt lat="42.48745" lon="-7.2462867"><ele>379.33333333333337</ele><time>2026-04-14T16:45:25.912Z</time></trkpt><trkpt lat="42.4876417" lon="-7.24626"><ele>380.0</ele><time>2026-04-14T16:45:26.912Z</time></trkpt><trkpt lat="42.48783" lon="-7.2462317"><ele>383.0</ele><time>2026-04-14T16:45:27.912Z</time></trkpt><trkpt lat="42.488015" lon="-7.2462033"><ele>386.0</ele><time>2026-04-14T16:45:28.912Z</time></trkpt><trkpt lat="42.4882067" lon="-7.2461583"><ele>389.0</ele><time>2026-04-14T16:45:29.913Z</time></trkpt><trkpt lat="42.4883883" lon="-7.2461367"><ele>389.0</ele><time>2026-04-14T16:45:30.912Z</time></trkpt><trkpt lat="42.4885733" lon="-7.24611"><ele>389.0</ele><time>2026-04-14T16:45:31.913Z</time></trkpt><trkpt lat="42.4887567" lon="-7.2460667"><ele>389.0</ele><time>2026-04-14T16:45:32.912Z</time></trkpt><trkpt lat="42.4889417" lon="-7.246035"><ele>394.66666666666663</ele><time>2026-04-14T16:45:33.912Z</time></trkpt><trkpt lat="42.4891283" lon="-7.2460083"><ele>400.33333333333337</ele><time>2026-04-14T16:45:34.913Z</time></trkpt><trkpt lat="42.4893267" lon="-7.24599"><ele>406.0</ele><time>2026-04-14T16:45:35.912Z</time></trkpt><trkpt lat="42.4895217" lon="-7.2459933"><ele>408.0</ele><time>2026-04-14T16:45:36.913Z</time></trkpt><trkpt lat="42.489715" lon="-7.2460217"><ele>410.0</ele><time>2026-04-14T16:45:37.913Z</time></trkpt><trkpt lat="42.489915" lon="-7.2460733"><ele>412.0</ele><time>2026-04-14T16:45:38.913Z</time></trkpt><trkpt lat="42.4900983" lon="-7.2461433"><ele>412.0</ele><time>2026-04-14T16:45:39.912Z</time></trkpt><trkpt lat="42.4902683" lon="-7.24624"><ele>412.0</ele><time>2026-04-14T16:45:40.912Z</time></trkpt><trkpt lat="42.4904267" lon="-7.2463367"><ele>412.0</ele><time>2026-04-14T16:45:41.912Z</time></trkpt><trkpt lat="42.49059" lon="-7.2464583"><ele>416.0</ele><time>2026-04-14T16:45:42.912Z</time></trkpt><trkpt lat="42.49075" lon="-7.2466033"><ele>420.0</ele><time>2026-04-14T16:45:43.912Z</time></trkpt><trkpt lat="42.4909067" lon="-7.2467483"><ele>424.0</ele><time>2026-04-14T16:45:44.912Z</time></trkpt><trkpt lat="42.4910533" lon="-7.2469"><ele>424.0</ele><time>2026-04-14T16:45:45.913Z</time></trkpt><trkpt lat="42.491195" lon="-7.2470683"><ele>424.0</ele><time>2026-04-14T16:45:46.913Z</time></trkpt><trkpt lat="42.4913417" lon="-7.247225"><ele>424.0</ele><time>2026-04-14T16:45:47.912Z</time></trkpt><trkpt lat="42.4914883" lon="-7.2473833"><ele>426.0</ele><time>2026-04-14T16:45:48.912Z</time></trkpt><trkpt lat="42.491635" lon="-7.24754"><ele>428.0</ele><time>2026-04-14T16:45:49.913Z</time></trkpt><trkpt lat="42.49178" lon="-7.24768"><ele>430.0</ele><time>2026-04-14T16:45:50.912Z</time></trkpt><trkpt lat="42.4919333" lon="-7.247825"><ele>430.0</ele><time>2026-04-14T16:45:51.913Z</time></trkpt><trkpt lat="42.4920867" lon="-7.2479683"><ele>430.0</ele><time>2026-04-14T16:45:52.913Z</time></trkpt><trkpt lat="42.4922383" lon="-7.248115"><ele>430.0</ele><time>2026-04-14T16:45:53.912Z</time></trkpt><trkpt lat="42.4924" lon="-7.2482483"><ele>434.0</ele><time>2026-04-14T16:45:54.912Z</time></trkpt><trkpt lat="42.4925533" lon="-7.248335"><ele>438.0</ele><time>2026-04-14T16:45:55.912Z</time></trkpt><trkpt lat="42.4927133" lon="-7.2483717"><ele>442.0</ele><time>2026-04-14T16:45:56.912Z</time></trkpt><trkpt lat="42.4928583" lon="-7.2483717"><ele>442.25</ele><time>2026-04-14T16:45:57.912Z</time></trkpt><trkpt lat="42.4929983" lon="-7.2483267"><ele>442.5</ele><time>2026-04-14T16:45:58.913Z</time></trkpt><trkpt lat="42.4931183" lon="-7.2482367"><ele>442.75</ele><time>2026-04-14T16:45:59.913Z</time></trkpt><trkpt lat="42.4932267" lon="-7.24811"><ele>443.0</ele><time>2026-04-14T16:46:00.912Z</time></trkpt><trkpt lat="42.4933267" lon="-7.2479583"><ele>443.0</ele><time>2026-04-14T16:46:01.913Z</time></trkpt><trkpt lat="42.4934033" lon="-7.2477983"><ele>443.0</ele><time>2026-04-14T16:46:02.912Z</time></trkpt><trkpt lat="42.4934983" lon="-7.2476233"><ele>443.0</ele><time>2026-04-14T16:46:03.913Z</time></trkpt><trkpt lat="42.4935933" lon="-7.247445"><ele>439.3333333333333</ele><time>2026-04-14T16:46:04.913Z</time></trkpt><trkpt lat="42.4937117" lon="-7.247285"><ele>435.66666666666663</ele><time>2026-04-14T16:46:05.913Z</time></trkpt><trkpt lat="42.4938533" lon="-7.24716"><ele>432.0</ele><time>2026-04-14T16:46:06.913Z</time></trkpt><trkpt lat="42.494005" lon="-7.2470983"><ele>432.0</ele><time>2026-04-14T16:46:07.913Z</time></trkpt><trkpt lat="42.4941683" lon="-7.2470683"><ele>432.0</ele><time>2026-04-14T16:46:08.912Z</time></trkpt><trkpt lat="42.494325" lon="-7.2470617"><ele>432.0</ele><time>2026-04-14T16:46:09.913Z</time></trkpt><trkpt lat="42.4944867" lon="-7.2470717"><ele>437.66666666666663</ele><time>2026-04-14T16:46:10.912Z</time></trkpt><trkpt lat="42.49465" lon="-7.2470667"><ele>443.3333333333333</ele><time>2026-04-14T16:46:11.912Z</time></trkpt><trkpt lat="42.4948117" lon="-7.2470317"><ele>449.0</ele><time>2026-04-14T16:46:12.912Z</time></trkpt><trkpt lat="42.494985" lon="-7.24697"><ele>449.0</ele><time>2026-04-14T16:46:13.913Z</time></trkpt><trkpt lat="42.4951517" lon="-7.2469233"><ele>449.0</ele><time>2026-04-14T16:46:14.913Z</time></trkpt><trkpt lat="42.4953183" lon="-7.2469067"><ele>449.0</ele><time>2026-04-14T16:46:15.912Z</time></trkpt><trkpt lat="42.4954917" lon="-7.2469017"><ele>453.66666666666663</ele><time>2026-04-14T16:46:16.912Z</time></trkpt><trkpt lat="42.4956633" lon="-7.24692"><ele>458.33333333333337</ele><time>2026-04-14T16:46:17.912Z</time></trkpt><trkpt lat="42.49582" lon="-7.2469883"><ele>463.0</ele><time>2026-04-14T16:46:18.912Z</time></trkpt><trkpt lat="42.495965" lon="-7.247065"><ele>463.0</ele><time>2026-04-14T16:46:19.913Z</time></trkpt><trkpt lat="42.496105" lon="-7.24714"><ele>463.0</ele><time>2026-04-14T16:46:20.912Z</time></trkpt><trkpt lat="42.496225" lon="-7.247185"><ele>463.0</ele><time>2026-04-14T16:46:21.912Z</time></trkpt><trkpt lat="42.4963533" lon="-7.247205"><ele>463.0</ele><time>2026-04-14T16:46:22.912Z</time></trkpt><trkpt lat="42.4964717" lon="-7.247175"><ele>464.75</ele><time>2026-04-14T16:46:23.913Z</time></trkpt><trkpt lat="42.4965967" lon="-7.2470983"><ele>466.5</ele><time>2026-04-14T16:46:24.912Z</time></trkpt><trkpt lat="42.496705" lon="-7.2469983"><ele>468.25</ele><time>2026-04-14T16:46:25.913Z</time></trkpt><trkpt lat="42.4967817" lon="-7.2468617"><ele>470.0</ele><time>2026-04-14T16:46:26.913Z</time></trkpt><trkpt lat="42.4968517" lon="-7.2466983"><ele>470.0</ele><time>2026-04-14T16:46:27.912Z</time></trkpt><trkpt lat="42.496925" lon="-7.2465233"><ele>470.0</ele><time>2026-04-14T16:46:28.913Z</time></trkpt><trkpt lat="42.4970117" lon="-7.246355"><ele>470.0</ele><time>2026-04-14T16:46:29.912Z</time></trkpt><trkpt lat="42.497125" lon="-7.2462033"><ele>472.66666666666663</ele><time>2026-04-14T16:46:30.912Z</time></trkpt><trkpt lat="42.4972517" lon="-7.2460883"><ele>475.33333333333337</ele><time>2026-04-14T16:46:31.912Z</time></trkpt><trkpt lat="42.49739" lon="-7.2459733"><ele>478.0</ele><time>2026-04-14T16:46:32.912Z</time></trkpt><trkpt lat="42.4975417" lon="-7.2458583"><ele>478.0</ele><time>2026-04-14T16:46:33.912Z</time></trkpt><trkpt lat="42.4976917" lon="-7.24578"><ele>478.0</ele><time>2026-04-14T16:46:34.912Z</time></trkpt><trkpt lat="42.497845" lon="-7.2457417"><ele>478.0</ele><time>2026-04-14T16:46:35.913Z</time></trkpt><trkpt lat="42.4979983" lon="-7.24575"><ele>481.33333333333337</ele><time>2026-04-14T16:46:36.912Z</time></trkpt><trkpt lat="42.4981567" lon="-7.2457583"><ele>484.66666666666663</ele><time>2026-04-14T16:46:37.913Z</time></trkpt><trkpt lat="42.4983017" lon="-7.245815"><ele>488.0</ele><time>2026-04-14T16:46:38.913Z</time></trkpt><trkpt lat="42.4984217" lon="-7.2459133"><ele>488.0</ele><time>2026-04-14T16:46:39.913Z</time></trkpt><trkpt lat="42.4985317" lon="-7.246035"><ele>488.0</ele><time>2026-04-14T16:46:40.913Z</time></trkpt><trkpt lat="42.4986333" lon="-7.2461633"><ele>488.0</ele><time>2026-04-14T16:46:41.912Z</time></trkpt><trkpt lat="42.4987467" lon="-7.2462617"><ele>488.0</ele><time>2026-04-14T16:46:42.912Z</time></trkpt><trkpt lat="42.4988617" lon="-7.2463133"><ele>489.0</ele><time>2026-04-14T16:46:43.912Z</time></trkpt><trkpt lat="42.4989867" lon="-7.2463267"><ele>490.0</ele><time>2026-04-14T16:46:44.912Z</time></trkpt><trkpt lat="42.4991083" lon="-7.2463033"><ele>491.0</ele><time>2026-04-14T16:46:45.913Z</time></trkpt><trkpt lat="42.49922" lon="-7.24624"><ele>492.0</ele><time>2026-04-14T16:46:46.913Z</time></trkpt><trkpt lat="42.49933" lon="-7.2461417"><ele>492.0</ele><time>2026-04-14T16:46:47.912Z</time></trkpt><trkpt lat="42.49942" lon="-7.2460167"><ele>492.0</ele><time>2026-04-14T16:46:48.912Z</time></trkpt><trkpt lat="42.4994967" lon="-7.2458767"><ele>492.0</ele><time>2026-04-14T16:46:49.912Z</time></trkpt><trkpt lat="42.4995667" lon="-7.2456933"><ele>492.0</ele><time>2026-04-14T16:46:50.913Z</time></trkpt><trkpt lat="42.4996333" lon="-7.2454933"><ele>500.0</ele><time>2026-04-14T16:46:51.913Z</time></trkpt><trkpt lat="42.4997017" lon="-7.2452983"><ele>508.0</ele><time>2026-04-14T16:46:52.913Z</time></trkpt><trkpt lat="42.49976" lon="-7.2450917"><ele>516.0</ele><time>2026-04-14T16:46:53.912Z</time></trkpt><trkpt lat="42.4998167" lon="-7.2448833"><ele>510.33333333333337</ele><time>2026-04-14T16:46:54.913Z</time></trkpt><trkpt lat="42.4998767" lon="-7.2446683"><ele>504.6666666666667</ele><time>2026-04-14T16:46:55.913Z</time></trkpt><trkpt lat="42.499935" lon="-7.2444433"><ele>499.0</ele><time>2026-04-14T16:46:56.912Z</time></trkpt><trkpt lat="42.5" lon="-7.244255"><ele>499.0</ele><time>2026-04-14T16:46:57.912Z</time></trkpt><trkpt lat="42.5000967" lon="-7.2440983"><ele>499.0</ele><time>2026-04-14T16:46:58.913Z</time></trkpt><trkpt lat="42.5001983" lon="-7.2439967"><ele>499.0</ele><time>2026-04-14T16:46:59.912Z</time></trkpt><trkpt lat="42.5003217" lon="-7.2439383"><ele>499.0</ele><time>2026-04-14T16:47:00.913Z</time></trkpt><trkpt lat="42.5004533" lon="-7.24393"><ele>502.0</ele><time>2026-04-14T16:47:01.912Z</time></trkpt><trkpt lat="42.500585" lon="-7.2439417"><ele>505.0</ele><time>2026-04-14T16:47:02.912Z</time></trkpt><trkpt lat="42.500705" lon="-7.244025"><ele>508.0</ele><time>2026-04-14T16:47:03.913Z</time></trkpt><trkpt lat="42.50082" lon="-7.2441317"><ele>511.0</ele><time>2026-04-14T16:47:04.913Z</time></trkpt><trkpt lat="42.5009367" lon="-7.2442717"><ele>511.0</ele><time>2026-04-14T16:47:05.913Z</time></trkpt><trkpt lat="42.5010333" lon="-7.2444367"><ele>511.0</ele><time>2026-04-14T16:47:06.912Z</time></trkpt><trkpt lat="42.501145" lon="-7.2445933"><ele>511.0</ele><time>2026-04-14T16:47:07.912Z</time></trkpt><trkpt lat="42.5012717" lon="-7.2447333"><ele>515.5</ele><time>2026-04-14T16:47:08.913Z</time></trkpt><trkpt lat="42.5013883" lon="-7.2448633"><ele>520.0</ele><time>2026-04-14T16:47:09.913Z</time></trkpt><trkpt lat="42.5015167" lon="-7.244955"><ele>524.5</ele><time>2026-04-14T16:47:10.913Z</time></trkpt><trkpt lat="42.501655" lon="-7.2450083"><ele>529.0</ele><time>2026-04-14T16:47:11.912Z</time></trkpt><trkpt lat="42.5017817" lon="-7.24501"><ele>529.0</ele><time>2026-04-14T16:47:12.912Z</time></trkpt><trkpt lat="42.5019133" lon="-7.2449683"><ele>529.0</ele><time>2026-04-14T16:47:13.912Z</time></trkpt><trkpt lat="42.50202" lon="-7.24489"><ele>529.0</ele><time>2026-04-14T16:47:14.913Z</time></trkpt><trkpt lat="42.5021133" lon="-7.244775"><ele>529.0</ele><time>2026-04-14T16:47:15.912Z</time></trkpt><trkpt lat="42.5021867" lon="-7.2446367"><ele>528.5</ele><time>2026-04-14T16:47:16.913Z</time></trkpt><trkpt lat="42.5022483" lon="-7.244475"><ele>528.0</ele><time>2026-04-14T16:47:17.913Z</time></trkpt><trkpt lat="42.5023183" lon="-7.2443"><ele>527.5</ele><time>2026-04-14T16:47:18.912Z</time></trkpt><trkpt lat="42.5023833" lon="-7.2441317"><ele>527.0</ele><time>2026-04-14T16:47:19.913Z</time></trkpt><trkpt lat="42.5024483" lon="-7.2439617"><ele>527.0</ele><time>2026-04-14T16:47:20.913Z</time></trkpt><trkpt lat="42.5025267" lon="-7.243785"><ele>527.0</ele><time>2026-04-14T16:47:21.912Z</time></trkpt><trkpt lat="42.50261" lon="-7.24361"><ele>527.0</ele><time>2026-04-14T16:47:22.913Z</time></trkpt><trkpt lat="42.5026983" lon="-7.243445"><ele>527.0</ele><time>2026-04-14T16:47:23.912Z</time></trkpt><trkpt lat="42.5028117" lon="-7.2432967"><ele>527.0</ele><time>2026-04-14T16:47:24.912Z</time></trkpt><trkpt lat="42.5029367" lon="-7.2431933"><ele>527.0</ele><time>2026-04-14T16:47:25.913Z</time></trkpt><trkpt lat="42.5030783" lon="-7.243115"><ele>530.0</ele><time>2026-04-14T16:47:26.912Z</time></trkpt><trkpt lat="42.5032283" lon="-7.2430533"><ele>533.0</ele><time>2026-04-14T16:47:27.912Z</time></trkpt><trkpt lat="42.503375" lon="-7.2429667"><ele>536.0</ele><time>2026-04-14T16:47:28.912Z</time></trkpt><trkpt lat="42.5035133" lon="-7.24285"><ele>536.0</ele><time>2026-04-14T16:47:29.912Z</time></trkpt><trkpt lat="42.503635" lon="-7.2427033"><ele>536.0</ele><time>2026-04-14T16:47:30.912Z</time></trkpt><trkpt lat="42.503745" lon="-7.24254"><ele>536.0</ele><time>2026-04-14T16:47:31.912Z</time></trkpt><trkpt lat="42.5038433" lon="-7.24238"><ele>537.6666666666666</ele><time>2026-04-14T16:47:32.912Z</time></trkpt><trkpt lat="42.5039533" lon="-7.24223"><ele>539.3333333333334</ele><time>2026-04-14T16:47:33.913Z</time></trkpt><trkpt lat="42.5040883" lon="-7.2421283"><ele>541.0</ele><time>2026-04-14T16:47:34.912Z</time></trkpt><trkpt lat="42.5042267" lon="-7.242085"><ele>541.0</ele><time>2026-04-14T16:47:35.912Z</time></trkpt><trkpt lat="42.50439" lon="-7.2420633"><ele>541.0</ele><time>2026-04-14T16:47:36.912Z</time></trkpt><trkpt lat="42.504555" lon="-7.2420683"><ele>541.0</ele><time>2026-04-14T16:47:37.912Z</time></trkpt><trkpt lat="42.504725" lon="-7.2420583"><ele>545.3333333333334</ele><time>2026-04-14T16:47:38.912Z</time></trkpt><trkpt lat="42.5048917" lon="-7.2420383"><ele>549.6666666666666</ele><time>2026-04-14T16:47:39.913Z</time></trkpt><trkpt lat="42.505045" lon="-7.242005"><ele>554.0</ele><time>2026-04-14T16:47:40.912Z</time></trkpt><trkpt lat="42.5051733" lon="-7.2419433"><ele>554.0</ele><time>2026-04-14T16:47:41.912Z</time></trkpt><trkpt lat="42.5052883" lon="-7.24184"><ele>554.0</ele><time>2026-04-14T16:47:42.912Z</time></trkpt><trkpt lat="42.5053717" lon="-7.2416867"><ele>554.0</ele><time>2026-04-14T16:47:43.912Z</time></trkpt><trkpt lat="42.5054083" lon="-7.2415267"><ele>554.0</ele><time>2026-04-14T16:47:44.912Z</time></trkpt><trkpt lat="42.50543" lon="-7.2413417"><ele>565.6666666666666</ele><time>2026-04-14T16:47:45.913Z</time></trkpt><trkpt lat="42.50544" lon="-7.241135"><ele>577.3333333333334</ele><time>2026-04-14T16:47:46.913Z</time></trkpt><trkpt lat="42.5054417" lon="-7.2409433"><ele>589.0</ele><time>2026-04-14T16:47:47.913Z</time></trkpt><trkpt lat="42.5054367" lon="-7.24073"><ele>590.6666666666667</ele><time>2026-04-14T16:47:48.912Z</time></trkpt><trkpt lat="42.50542" lon="-7.2405167"><ele>592.3333333333334</ele><time>2026-04-14T16:47:49.913Z</time></trkpt><trkpt lat="42.5054083" lon="-7.240305"><ele>594.0</ele><time>2026-04-14T16:47:50.913Z</time></trkpt><trkpt lat="42.5053933" lon="-7.24008"><ele>583.6666666666666</ele><time>2026-04-14T16:47:51.913Z</time></trkpt><trkpt lat="42.50539" lon="-7.2398533"><ele>573.3333333333333</ele><time>2026-04-14T16:47:52.913Z</time></trkpt><trkpt lat="42.5054" lon="-7.2396333"><ele>563.0</ele><time>2026-04-14T16:47:53.912Z</time></trkpt><trkpt lat="42.5054083" lon="-7.2394083"><ele>575.0</ele><time>2026-04-14T16:47:54.913Z</time></trkpt><trkpt lat="42.5054333" lon="-7.239195"><ele>587.0</ele><time>2026-04-14T16:47:55.912Z</time></trkpt><trkpt lat="42.5054317" lon="-7.23896"><ele>599.0</ele><time>2026-04-14T16:47:56.912Z</time></trkpt><trkpt lat="42.5054433" lon="-7.2387283"><ele>599.6666666666666</ele><time>2026-04-14T16:47:57.912Z</time></trkpt><trkpt lat="42.5054617" lon="-7.2385033"><ele>600.3333333333334</ele><time>2026-04-14T16:47:58.912Z</time></trkpt><trkpt lat="42.50549" lon="-7.2382817"><ele>601.0</ele><time>2026-04-14T16:47:59.912Z</time></trkpt><trkpt lat="42.5055583" lon="-7.23806"><ele>594.3333333333334</ele><time>2026-04-14T16:48:00.912Z</time></trkpt><trkpt lat="42.505635" lon="-7.2378683"><ele>587.6666666666666</ele><time>2026-04-14T16:48:01.913Z</time></trkpt><trkpt lat="42.5057467" lon="-7.2377033"><ele>581.0</ele><time>2026-04-14T16:48:02.912Z</time></trkpt><trkpt lat="42.5058817" lon="-7.237575"><ele>581.0</ele><time>2026-04-14T16:48:03.913Z</time></trkpt><trkpt lat="42.506035" lon="-7.2374833"><ele>581.0</ele><time>2026-04-14T16:48:04.913Z</time></trkpt><trkpt lat="42.5062017" lon="-7.2374367"><ele>581.0</ele><time>2026-04-14T16:48:05.913Z</time></trkpt><trkpt lat="42.5063733" lon="-7.2374333"><ele>587.0</ele><time>2026-04-14T16:48:06.913Z</time></trkpt><trkpt lat="42.5065367" lon="-7.2374583"><ele>593.0</ele><time>2026-04-14T16:48:07.912Z</time></trkpt><trkpt lat="42.5066933" lon="-7.2375283"><ele>599.0</ele><time>2026-04-14T16:48:08.913Z</time></trkpt><trkpt lat="42.5068367" lon="-7.2376333"><ele>599.0</ele><time>2026-04-14T16:48:09.913Z</time></trkpt><trkpt lat="42.5069667" lon="-7.2377517"><ele>599.0</ele><time>2026-04-14T16:48:10.912Z</time></trkpt><trkpt lat="42.5070783" lon="-7.237905"><ele>599.0</ele><time>2026-04-14T16:48:11.912Z</time></trkpt><trkpt lat="42.5071933" lon="-7.238065"><ele>601.0</ele><time>2026-04-14T16:48:12.912Z</time></trkpt><trkpt lat="42.5072983" lon="-7.2382417"><ele>603.0</ele><time>2026-04-14T16:48:13.913Z</time></trkpt><trkpt lat="42.5074283" lon="-7.2383983"><ele>605.0</ele><time>2026-04-14T16:48:14.913Z</time></trkpt><trkpt lat="42.507565" lon="-7.2385367"><ele>605.0</ele><time>2026-04-14T16:48:15.912Z</time></trkpt><trkpt lat="42.5077167" lon="-7.2386733"><ele>605.0</ele><time>2026-04-14T16:48:16.912Z</time></trkpt><trkpt lat="42.5078867" lon="-7.2387833"><ele>605.0</ele><time>2026-04-14T16:48:17.912Z</time></trkpt><trkpt lat="42.5080517" lon="-7.23887"><ele>601.0</ele><time>2026-04-14T16:48:18.912Z</time></trkpt><trkpt lat="42.50822" lon="-7.2389367"><ele>597.0</ele><time>2026-04-14T16:48:19.912Z</time></trkpt><trkpt lat="42.5084067" lon="-7.2389683"><ele>593.0</ele><time>2026-04-14T16:48:20.912Z</time></trkpt><trkpt lat="42.50859" lon="-7.2389867"><ele>594.0</ele><time>2026-04-14T16:48:21.912Z</time></trkpt><trkpt lat="42.50878" lon="-7.23897"><ele>595.0</ele><time>2026-04-14T16:48:22.913Z</time></trkpt><trkpt lat="42.508975" lon="-7.2389433"><ele>596.0</ele><time>2026-04-14T16:48:23.912Z</time></trkpt><trkpt lat="42.5091583" lon="-7.2389083"><ele>596.0</ele><time>2026-04-14T16:48:24.912Z</time></trkpt><trkpt lat="42.509345" lon="-7.23888"><ele>596.0</ele><time>2026-04-14T16:48:25.912Z</time></trkpt><trkpt lat="42.5095367" lon="-7.2388833"><ele>596.0</ele><time>2026-04-14T16:48:26.912Z</time></trkpt><trkpt lat="42.509705" lon="-7.2389167"><ele>607.6666666666666</ele><time>2026-04-14T16:48:27.912Z</time></trkpt><trkpt lat="42.5098833" lon="-7.2389817"><ele>619.3333333333334</ele><time>2026-04-14T16:48:28.913Z</time></trkpt><trkpt lat="42.5100417" lon="-7.2390817"><ele>631.0</ele><time>2026-04-14T16:48:29.912Z</time></trkpt><trkpt lat="42.5102067" lon="-7.2391783"><ele>631.0</ele><time>2026-04-14T16:48:30.912Z</time></trkpt><trkpt lat="42.5103683" lon="-7.2392783"><ele>631.0</ele><time>2026-04-14T16:48:31.913Z</time></trkpt><trkpt lat="42.510535" lon="-7.239345"><ele>631.0</ele><time>2026-04-14T16:48:32.912Z</time></trkpt><trkpt lat="42.5107" lon="-7.2393983"><ele>629.3333333333334</ele><time>2026-04-14T16:48:33.913Z</time></trkpt><trkpt lat="42.5108633" lon="-7.2394017"><ele>627.6666666666666</ele><time>2026-04-14T16:48:34.913Z</time></trkpt><trkpt lat="42.5110283" lon="-7.23937"><ele>626.0</ele><time>2026-04-14T16:48:35.913Z</time></trkpt><trkpt lat="42.5111733" lon="-7.2392883"><ele>632.3333333333333</ele><time>2026-04-14T16:48:36.913Z</time></trkpt><trkpt lat="42.5113117" lon="-7.23917"><ele>638.6666666666666</ele><time>2026-04-14T16:48:37.913Z</time></trkpt><trkpt lat="42.5114317" lon="-7.2390233"><ele>645.0</ele><time>2026-04-14T16:48:38.912Z</time></trkpt><trkpt lat="42.5115167" lon="-7.23884"><ele>645.0</ele><time>2026-04-14T16:48:39.912Z</time></trkpt><trkpt lat="42.5115817" lon="-7.2386467"><ele>645.0</ele><time>2026-04-14T16:48:40.913Z</time></trkpt><trkpt lat="42.51164" lon="-7.2384417"><ele>645.0</ele><time>2026-04-14T16:48:41.913Z</time></trkpt><trkpt lat="42.51167" lon="-7.23822"><ele>645.0</ele><time>2026-04-14T16:48:42.913Z</time></trkpt><trkpt lat="42.5116767" lon="-7.2379917"><ele>645.0</ele><time>2026-04-14T16:48:43.914Z</time></trkpt><trkpt lat="42.5116817" lon="-7.237745"><ele>645.0</ele><time>2026-04-14T16:48:44.913Z</time></trkpt><trkpt lat="42.5116833" lon="-7.2374983"><ele>645.3333333333334</ele><time>2026-04-14T16:48:45.913Z</time></trkpt><trkpt lat="42.5116967" lon="-7.23724"><ele>645.6666666666667</ele><time>2026-04-14T16:48:46.914Z</time></trkpt><trkpt lat="42.5117" lon="-7.2369833"><ele>646.0</ele><time>2026-04-14T16:48:47.913Z</time></trkpt><trkpt lat="42.5117067" lon="-7.236725"><ele>646.0</ele><time>2026-04-14T16:48:48.914Z</time></trkpt><trkpt lat="42.5117267" lon="-7.2364817"><ele>646.0</ele><time>2026-04-14T16:48:49.913Z</time></trkpt><trkpt lat="42.5117483" lon="-7.236235"><ele>646.0</ele><time>2026-04-14T16:48:50.913Z</time></trkpt><trkpt lat="42.5117883" lon="-7.2359983"><ele>645.3333333333334</ele><time>2026-04-14T16:48:51.913Z</time></trkpt><trkpt lat="42.511835" lon="-7.23578"><ele>644.6666666666666</ele><time>2026-04-14T16:48:52.913Z</time></trkpt><trkpt lat="42.5119183" lon="-7.235585"><ele>644.0</ele><time>2026-04-14T16:48:53.914Z</time></trkpt><trkpt lat="42.5120183" lon="-7.2354133"><ele>645.5</ele><time>2026-04-14T16:48:54.913Z</time></trkpt><trkpt lat="42.5121467" lon="-7.2352933"><ele>647.0</ele><time>2026-04-14T16:48:55.913Z</time></trkpt><trkpt lat="42.512295" lon="-7.23524"><ele>648.5</ele><time>2026-04-14T16:48:56.914Z</time></trkpt><trkpt lat="42.512435" lon="-7.2352333"><ele>650.0</ele><time>2026-04-14T16:48:57.913Z</time></trkpt><trkpt lat="42.5125717" lon="-7.2352683"><ele>650.0</ele><time>2026-04-14T16:48:58.914Z</time></trkpt><trkpt lat="42.5127083" lon="-7.2353233"><ele>650.0</ele><time>2026-04-14T16:48:59.913Z</time></trkpt><trkpt lat="42.51284" lon="-7.2353817"><ele>650.0</ele><time>2026-04-14T16:49:00.914Z</time></trkpt><trkpt lat="42.512965" lon="-7.235455"><ele>650.0</ele><time>2026-04-14T16:49:01.913Z</time></trkpt><trkpt lat="42.51311" lon="-7.23552"><ele>648.3333333333333</ele><time>2026-04-14T16:49:02.914Z</time></trkpt><trkpt lat="42.513255" lon="-7.2355867"><ele>646.6666666666666</ele><time>2026-04-14T16:49:03.913Z</time></trkpt><trkpt lat="42.5134083" lon="-7.2356667"><ele>645.0</ele><time>2026-04-14T16:49:04.913Z</time></trkpt><trkpt lat="42.5135483" lon="-7.2357417"><ele>653.0</ele><time>2026-04-14T16:49:05.914Z</time></trkpt><trkpt lat="42.5136983" lon="-7.235815"><ele>661.0</ele><time>2026-04-14T16:49:06.913Z</time></trkpt><trkpt lat="42.5138467" lon="-7.2358967"><ele>669.0</ele><time>2026-04-14T16:49:07.913Z</time></trkpt><trkpt lat="42.5139983" lon="-7.23597"><ele>669.0</ele><time>2026-04-14T16:49:08.914Z</time></trkpt><trkpt lat="42.5141567" lon="-7.2360467"><ele>669.0</ele><time>2026-04-14T16:49:09.913Z</time></trkpt><trkpt lat="42.5143117" lon="-7.2361233"><ele>669.0</ele><time>2026-04-14T16:49:10.913Z</time></trkpt><trkpt lat="42.5144717" lon="-7.2361917"><ele>670.0</ele><time>2026-04-14T16:49:11.913Z</time></trkpt><trkpt lat="42.5146283" lon="-7.236265"><ele>671.0</ele><time>2026-04-14T16:49:12.913Z</time></trkpt><trkpt lat="42.5147883" lon="-7.23633"><ele>672.0</ele><time>2026-04-14T16:49:13.913Z</time></trkpt><trkpt lat="42.5149483" lon="-7.2363817"><ele>672.0</ele><time>2026-04-14T16:49:14.914Z</time></trkpt><trkpt lat="42.5151117" lon="-7.2364033"><ele>672.0</ele><time>2026-04-14T16:49:15.913Z</time></trkpt><trkpt lat="42.5152767" lon="-7.2363917"><ele>672.0</ele><time>2026-04-14T16:49:16.914Z</time></trkpt><trkpt lat="42.51543" lon="-7.2363517"><ele>678.0</ele><time>2026-04-14T16:49:17.913Z</time></trkpt><trkpt lat="42.51556" lon="-7.236275"><ele>684.0</ele><time>2026-04-14T16:49:18.913Z</time></trkpt><trkpt lat="42.5156817" lon="-7.2361483"><ele>690.0</ele><time>2026-04-14T16:49:19.913Z</time></trkpt><trkpt lat="42.51578" lon="-7.2359983"><ele>696.0</ele><time>2026-04-14T16:49:20.913Z</time></trkpt><trkpt lat="42.515865" lon="-7.2358167"><ele>697.0</ele><time>2026-04-14T16:49:21.913Z</time></trkpt><trkpt lat="42.51592" lon="-7.2356267"><ele>698.0</ele><time>2026-04-14T16:49:22.914Z</time></trkpt><trkpt lat="42.5159483" lon="-7.23542"><ele>699.0</ele><time>2026-04-14T16:49:23.913Z</time></trkpt><trkpt lat="42.51595" lon="-7.2352067"><ele>699.0</ele><time>2026-04-14T16:49:24.914Z</time></trkpt><trkpt lat="42.5159283" lon="-7.2349933"><ele>699.0</ele><time>2026-04-14T16:49:25.914Z</time></trkpt><trkpt lat="42.5158967" lon="-7.23478"><ele>699.0</ele><time>2026-04-14T16:49:26.913Z</time></trkpt><trkpt lat="42.5158483" lon="-7.2345633"><ele>702.6666666666666</ele><time>2026-04-14T16:49:27.913Z</time></trkpt><trkpt lat="42.515815" lon="-7.2343483"><ele>706.3333333333333</ele><time>2026-04-14T16:49:28.913Z</time></trkpt><trkpt lat="42.5157883" lon="-7.2341133"><ele>710.0</ele><time>2026-04-14T16:49:29.913Z</time></trkpt><trkpt lat="42.515775" lon="-7.233895"><ele>711.6666666666666</ele><time>2026-04-14T16:49:30.913Z</time></trkpt><trkpt lat="42.5157667" lon="-7.2336533"><ele>713.3333333333334</ele><time>2026-04-14T16:49:31.913Z</time></trkpt><trkpt lat="42.5157683" lon="-7.23341"><ele>715.0</ele><time>2026-04-14T16:49:32.913Z</time></trkpt><trkpt lat="42.51577" lon="-7.2331683"><ele>714.3333333333334</ele><time>2026-04-14T16:49:33.914Z</time></trkpt><trkpt lat="42.5157833" lon="-7.232935"><ele>713.6666666666666</ele><time>2026-04-14T16:49:34.914Z</time></trkpt><trkpt lat="42.5158133" lon="-7.232695"><ele>713.0</ele><time>2026-04-14T16:49:35.913Z</time></trkpt><trkpt lat="42.5158567" lon="-7.2324583"><ele>711.3333333333333</ele><time>2026-04-14T16:49:36.914Z</time></trkpt><trkpt lat="42.5159067" lon="-7.232225"><ele>709.6666666666666</ele><time>2026-04-14T16:49:37.914Z</time></trkpt><trkpt lat="42.5159733" lon="-7.2319917"><ele>708.0</ele><time>2026-04-14T16:49:38.913Z</time></trkpt><trkpt lat="42.5160383" lon="-7.2317517"><ele>708.0</ele><time>2026-04-14T16:49:39.913Z</time></trkpt><trkpt lat="42.51612" lon="-7.23151"><ele>708.0</ele><time>2026-04-14T16:49:40.913Z</time></trkpt><trkpt lat="42.516215" lon="-7.2312767"><ele>708.0</ele><time>2026-04-14T16:49:41.914Z</time></trkpt><trkpt lat="42.51632" lon="-7.2310667"><ele>707.6666666666666</ele><time>2026-04-14T16:49:42.913Z</time></trkpt><trkpt lat="42.5164483" lon="-7.2308683"><ele>707.3333333333333</ele><time>2026-04-14T16:49:43.914Z</time></trkpt><trkpt lat="42.5165833" lon="-7.2306983"><ele>707.0</ele><time>2026-04-14T16:49:44.913Z</time></trkpt><trkpt lat="42.516735" lon="-7.2305633"><ele>707.0</ele><time>2026-04-14T16:49:45.914Z</time></trkpt><trkpt lat="42.51689" lon="-7.2304717"><ele>707.0</ele><time>2026-04-14T16:49:46.913Z</time></trkpt><trkpt lat="42.5170683" lon="-7.2303867"><ele>707.0</ele><time>2026-04-14T16:49:47.914Z</time></trkpt><trkpt lat="42.517235" lon="-7.2303233"><ele>712.0</ele><time>2026-04-14T16:49:48.913Z</time></trkpt><trkpt lat="42.5174083" lon="-7.230275"><ele>717.0</ele><time>2026-04-14T16:49:49.913Z</time></trkpt><trkpt lat="42.5175717" lon="-7.2302517"><ele>722.0</ele><time>2026-04-14T16:49:50.914Z</time></trkpt><trkpt lat="42.5177483" lon="-7.2302617"><ele>721.6666666666666</ele><time>2026-04-14T16:49:51.913Z</time></trkpt><trkpt lat="42.5179167" lon="-7.2302917"><ele>721.3333333333334</ele><time>2026-04-14T16:49:52.913Z</time></trkpt><trkpt lat="42.5180817" lon="-7.23034"><ele>721.0</ele><time>2026-04-14T16:49:53.914Z</time></trkpt><trkpt lat="42.5182383" lon="-7.2304067"><ele>721.0</ele><time>2026-04-14T16:49:54.914Z</time></trkpt><trkpt lat="42.5183917" lon="-7.2304983"><ele>721.0</ele><time>2026-04-14T16:49:55.913Z</time></trkpt><trkpt lat="42.51853" lon="-7.23061"><ele>721.0</ele><time>2026-04-14T16:49:56.913Z</time></trkpt><trkpt lat="42.5186567" lon="-7.2307417"><ele>725.0</ele><time>2026-04-14T16:49:57.913Z</time></trkpt><trkpt lat="42.5187867" lon="-7.2308867"><ele>729.0</ele><time>2026-04-14T16:49:58.913Z</time></trkpt><trkpt lat="42.5189017" lon="-7.23106"><ele>733.0</ele><time>2026-04-14T16:49:59.913Z</time></trkpt><trkpt lat="42.5190083" lon="-7.2312483"><ele>733.0</ele><time>2026-04-14T16:50:00.913Z</time></trkpt><trkpt lat="42.5190967" lon="-7.2314533"><ele>733.0</ele><time>2026-04-14T16:50:01.913Z</time></trkpt><trkpt lat="42.5191883" lon="-7.2316633"><ele>733.0</ele><time>2026-04-14T16:50:02.914Z</time></trkpt><trkpt lat="42.5192933" lon="-7.2318733"><ele>732.6666666666667</ele><time>2026-04-14T16:50:03.913Z</time></trkpt><trkpt lat="42.5193983" lon="-7.23205"><ele>732.3333333333334</ele><time>2026-04-14T16:50:04.913Z</time></trkpt><trkpt lat="42.5195167" lon="-7.2321733"><ele>732.0</ele><time>2026-04-14T16:50:05.914Z</time></trkpt><trkpt lat="42.5196517" lon="-7.2322683"><ele>741.0</ele><time>2026-04-14T16:50:06.913Z</time></trkpt><trkpt lat="42.5198017" lon="-7.232325"><ele>750.0</ele><time>2026-04-14T16:50:07.913Z</time></trkpt><trkpt lat="42.5199633" lon="-7.2323367"><ele>759.0</ele><time>2026-04-14T16:50:08.914Z</time></trkpt><trkpt lat="42.5201283" lon="-7.232315"><ele>751.3333333333334</ele><time>2026-04-14T16:50:09.914Z</time></trkpt><trkpt lat="42.5203" lon="-7.2322883"><ele>743.6666666666667</ele><time>2026-04-14T16:50:10.913Z</time></trkpt><trkpt lat="42.5204833" lon="-7.2322567"><ele>736.0</ele><time>2026-04-14T16:50:11.913Z</time></trkpt><trkpt lat="42.5206667" lon="-7.23222"><ele>736.0</ele><time>2026-04-14T16:50:12.913Z</time></trkpt><trkpt lat="42.520845" lon="-7.2321633"><ele>736.0</ele><time>2026-04-14T16:50:13.913Z</time></trkpt><trkpt lat="42.52101" lon="-7.232075"><ele>736.0</ele><time>2026-04-14T16:50:14.913Z</time></trkpt><trkpt lat="42.5211733" lon="-7.2319467"><ele>733.6666666666667</ele><time>2026-04-14T16:50:15.913Z</time></trkpt><trkpt lat="42.521335" lon="-7.2317883"><ele>731.3333333333334</ele><time>2026-04-14T16:50:16.913Z</time></trkpt><trkpt lat="42.5214983" lon="-7.2316233"><ele>729.0</ele><time>2026-04-14T16:50:17.913Z</time></trkpt><trkpt lat="42.5216483" lon="-7.2314533"><ele>729.0</ele><time>2026-04-14T16:50:18.913Z</time></trkpt><trkpt lat="42.5218067" lon="-7.2312867"><ele>729.0</ele><time>2026-04-14T16:50:19.913Z</time></trkpt><trkpt lat="42.521965" lon="-7.23112"><ele>729.0</ele><time>2026-04-14T16:50:20.913Z</time></trkpt><trkpt lat="42.5221167" lon="-7.230955"><ele>741.0</ele><time>2026-04-14T16:50:21.913Z</time></trkpt><trkpt lat="42.522255" lon="-7.2308133"><ele>753.0</ele><time>2026-04-14T16:50:22.913Z</time></trkpt><trkpt lat="42.5223717" lon="-7.2306783"><ele>765.0</ele><time>2026-04-14T16:50:23.913Z</time></trkpt><trkpt lat="42.522475" lon="-7.2305317"><ele>765.0</ele><time>2026-04-14T16:50:24.914Z</time></trkpt><trkpt lat="42.5225483" lon="-7.2303617"><ele>765.0</ele><time>2026-04-14T16:50:25.913Z</time></trkpt><trkpt lat="42.5225883" lon="-7.23016"><ele>765.0</ele><time>2026-04-14T16:50:26.914Z</time></trkpt><trkpt lat="42.5226" lon="-7.229955"><ele>764.5</ele><time>2026-04-14T16:50:27.914Z</time></trkpt><trkpt lat="42.5225967" lon="-7.2297567"><ele>764.0</ele><time>2026-04-14T16:50:28.913Z</time></trkpt><trkpt lat="42.52259" lon="-7.229565"><ele>763.5</ele><time>2026-04-14T16:50:29.913Z</time></trkpt><trkpt lat="42.5225933" lon="-7.229365"><ele>763.0</ele><time>2026-04-14T16:50:30.913Z</time></trkpt><trkpt lat="42.522615" lon="-7.229165"><ele>758.6666666666667</ele><time>2026-04-14T16:50:31.914Z</time></trkpt><trkpt lat="42.5226517" lon="-7.228965"><ele>754.3333333333334</ele><time>2026-04-14T16:50:32.914Z</time></trkpt><trkpt lat="42.5227183" lon="-7.2287633"><ele>750.0</ele><time>2026-04-14T16:50:33.914Z</time></trkpt><trkpt lat="42.5228033" lon="-7.228585"><ele>762.0</ele><time>2026-04-14T16:50:34.914Z</time></trkpt><trkpt lat="42.5229" lon="-7.22843"><ele>774.0</ele><time>2026-04-14T16:50:35.914Z</time></trkpt><trkpt lat="42.5230183" lon="-7.2282917"><ele>786.0</ele><time>2026-04-14T16:50:36.914Z</time></trkpt><trkpt lat="42.52315" lon="-7.2281767"><ele>775.3333333333334</ele><time>2026-04-14T16:50:37.913Z</time></trkpt><trkpt lat="42.5232933" lon="-7.2280767"><ele>764.6666666666667</ele><time>2026-04-14T16:50:38.913Z</time></trkpt><trkpt lat="42.5234467" lon="-7.2279967"><ele>754.0</ele><time>2026-04-14T16:50:39.913Z</time></trkpt><trkpt lat="42.52361" lon="-7.2279283"><ele>760.0</ele><time>2026-04-14T16:50:40.914Z</time></trkpt><trkpt lat="42.5237783" lon="-7.2278617"><ele>766.0</ele><time>2026-04-14T16:50:41.913Z</time></trkpt><trkpt lat="42.5239483" lon="-7.2278033"><ele>772.0</ele><time>2026-04-14T16:50:42.914Z</time></trkpt><trkpt lat="42.52412" lon="-7.2277583"><ele>772.0</ele><time>2026-04-14T16:50:43.914Z</time></trkpt><trkpt lat="42.52427" lon="-7.2277"><ele>772.0</ele><time>2026-04-14T16:50:44.914Z</time></trkpt><trkpt lat="42.52441" lon="-7.227675"><ele>772.0</ele><time>2026-04-14T16:50:45.914Z</time></trkpt><trkpt lat="42.5245417" lon="-7.227685"><ele>772.0</ele><time>2026-04-14T16:50:46.913Z</time></trkpt><trkpt lat="42.5246667" lon="-7.2277217"><ele>771.25</ele><time>2026-04-14T16:50:47.914Z</time></trkpt><trkpt lat="42.5247817" lon="-7.2278117"><ele>770.5</ele><time>2026-04-14T16:50:48.914Z</time></trkpt><trkpt lat="42.52488" lon="-7.2279333"><ele>769.75</ele><time>2026-04-14T16:50:49.914Z</time></trkpt><trkpt lat="42.5249733" lon="-7.2280733"><ele>769.0</ele><time>2026-04-14T16:50:50.913Z</time></trkpt><trkpt lat="42.5250733" lon="-7.22823"><ele>775.25</ele><time>2026-04-14T16:50:51.913Z</time></trkpt><trkpt lat="42.5251833" lon="-7.22836"><ele>781.5</ele><time>2026-04-14T16:50:52.914Z</time></trkpt><trkpt lat="42.5252933" lon="-7.2284533"><ele>787.75</ele><time>2026-04-14T16:50:53.914Z</time></trkpt><trkpt lat="42.5254117" lon="-7.2285067"><ele>794.0</ele><time>2026-04-14T16:50:54.914Z</time></trkpt><trkpt lat="42.5255233" lon="-7.2285167"><ele>794.0</ele><time>2026-04-14T16:50:55.914Z</time></trkpt><trkpt lat="42.5256317" lon="-7.2284867"><ele>794.0</ele><time>2026-04-14T16:50:56.913Z</time></trkpt><trkpt lat="42.5257383" lon="-7.2284317"><ele>794.0</ele><time>2026-04-14T16:50:57.914Z</time></trkpt><trkpt lat="42.5258433" lon="-7.2283617"><ele>794.0</ele><time>2026-04-14T16:50:58.913Z</time></trkpt><trkpt lat="42.52595" lon="-7.2282883"><ele>794.0</ele><time>2026-04-14T16:50:59.914Z</time></trkpt><trkpt lat="42.5260583" lon="-7.2282067"><ele>794.0</ele><time>2026-04-14T16:51:00.913Z</time></trkpt><trkpt lat="42.52617" lon="-7.2281267"><ele>794.0</ele><time>2026-04-14T16:51:01.914Z</time></trkpt><trkpt lat="42.52628" lon="-7.2280467"><ele>794.0</ele><time>2026-04-14T16:51:02.913Z</time></trkpt><trkpt lat="42.5264" lon="-7.2279717"><ele>790.0</ele><time>2026-04-14T16:51:03.913Z</time></trkpt><trkpt lat="42.5265183" lon="-7.2279033"><ele>786.0</ele><time>2026-04-14T16:51:04.914Z</time></trkpt><trkpt lat="42.526635" lon="-7.2278283"><ele>782.0</ele><time>2026-04-14T16:51:05.913Z</time></trkpt><trkpt lat="42.52676" lon="-7.2277517"><ele>778.0</ele><time>2026-04-14T16:51:06.913Z</time></trkpt><trkpt lat="42.5268783" lon="-7.22768"><ele>778.0</ele><time>2026-04-14T16:51:07.913Z</time></trkpt><trkpt lat="42.5270067" lon="-7.2276317"><ele>778.0</ele><time>2026-04-14T16:51:08.914Z</time></trkpt><trkpt lat="42.5271367" lon="-7.2275967"><ele>778.0</ele><time>2026-04-14T16:51:09.913Z</time></trkpt><trkpt lat="42.5272783" lon="-7.227585"><ele>778.0</ele><time>2026-04-14T16:51:10.914Z</time></trkpt><trkpt lat="42.5274167" lon="-7.2276017"><ele>780.0</ele><time>2026-04-14T16:51:11.914Z</time></trkpt><trkpt lat="42.5275367" lon="-7.2276433"><ele>782.0</ele><time>2026-04-14T16:51:12.913Z</time></trkpt><trkpt lat="42.527655" lon="-7.2277117"><ele>784.0</ele><time>2026-04-14T16:51:13.914Z</time></trkpt><trkpt lat="42.5277867" lon="-7.227785"><ele>786.0</ele><time>2026-04-14T16:51:14.913Z</time></trkpt><trkpt lat="42.5279167" lon="-7.2278517"><ele>787.0</ele><time>2026-04-14T16:51:15.913Z</time></trkpt><trkpt lat="42.528055" lon="-7.2279033"><ele>788.0</ele><time>2026-04-14T16:51:16.914Z</time></trkpt><trkpt lat="42.5282017" lon="-7.2279167"><ele>789.0</ele><time>2026-04-14T16:51:17.913Z</time></trkpt><trkpt lat="42.5283517" lon="-7.22789"><ele>790.0</ele><time>2026-04-14T16:51:18.913Z</time></trkpt><trkpt lat="42.5284867" lon="-7.227805"><ele>790.0</ele><time>2026-04-14T16:51:19.914Z</time></trkpt><trkpt lat="42.5286183" lon="-7.2276967"><ele>790.0</ele><time>2026-04-14T16:51:20.914Z</time></trkpt><trkpt lat="42.5287317" lon="-7.2275717"><ele>790.0</ele><time>2026-04-14T16:51:21.913Z</time></trkpt><trkpt lat="42.5288383" lon="-7.2274317"><ele>790.0</ele><time>2026-04-14T16:51:22.913Z</time></trkpt><trkpt lat="42.52895" lon="-7.2273017"><ele>788.75</ele><time>2026-04-14T16:51:23.914Z</time></trkpt><trkpt lat="42.529065" lon="-7.227175"><ele>787.5</ele><time>2026-04-14T16:51:24.913Z</time></trkpt><trkpt lat="42.52918" lon="-7.2270567"><ele>786.25</ele><time>2026-04-14T16:51:25.913Z</time></trkpt><trkpt lat="42.52931" lon="-7.226945"><ele>785.0</ele><time>2026-04-14T16:51:26.913Z</time></trkpt><trkpt lat="42.5294433" lon="-7.2268517"><ele>786.5</ele><time>2026-04-14T16:51:27.914Z</time></trkpt><trkpt lat="42.52957" lon="-7.226775"><ele>788.0</ele><time>2026-04-14T16:51:28.913Z</time></trkpt><trkpt lat="42.5297" lon="-7.22669"><ele>789.5</ele><time>2026-04-14T16:51:29.913Z</time></trkpt><trkpt lat="42.5298283" lon="-7.22659"><ele>791.0</ele><time>2026-04-14T16:51:30.913Z</time></trkpt><trkpt lat="42.5299417" lon="-7.2264733"><ele>791.0</ele><time>2026-04-14T16:51:31.913Z</time></trkpt><trkpt lat="42.5300317" lon="-7.2263483"><ele>791.0</ele><time>2026-04-14T16:51:32.914Z</time></trkpt><trkpt lat="42.5301067" lon="-7.22623"><ele>791.0</ele><time>2026-04-14T16:51:33.913Z</time></trkpt><trkpt lat="42.5301833" lon="-7.2261183"><ele>791.0</ele><time>2026-04-14T16:51:34.914Z</time></trkpt><trkpt lat="42.530255" lon="-7.22602"><ele>791.0000000000001</ele><time>2026-04-14T16:51:35.914Z</time></trkpt><trkpt lat="42.5303117" lon="-7.22593"><ele>791.0</ele><time>2026-04-14T16:51:36.913Z</time></trkpt><trkpt lat="42.5303633" lon="-7.225845"><ele>791.0</ele><time>2026-04-14T16:51:37.914Z</time></trkpt><trkpt lat="42.5304217" lon="-7.2257667"><ele>791.0</ele><time>2026-04-14T16:51:38.913Z</time></trkpt><trkpt lat="42.5304783" lon="-7.2256933"><ele>791.0000000000001</ele><time>2026-04-14T16:51:39.914Z</time></trkpt><trkpt lat="42.5305367" lon="-7.22563"><ele>791.0</ele><time>2026-04-14T16:51:40.913Z</time></trkpt><trkpt lat="42.5305917" lon="-7.225565"><ele>792.6666666666667</ele><time>2026-04-14T16:51:41.913Z</time></trkpt><trkpt lat="42.5306533" lon="-7.22551"><ele>794.3333333333334</ele><time>2026-04-14T16:51:42.914Z</time></trkpt><trkpt lat="42.530715" lon="-7.2254533"><ele>796.0</ele><time>2026-04-14T16:51:43.913Z</time></trkpt><trkpt lat="42.53078" lon="-7.2253933"><ele>797.6666666666667</ele><time>2026-04-14T16:51:44.914Z</time></trkpt><trkpt lat="42.530845" lon="-7.2253217"><ele>799.3333333333334</ele><time>2026-04-14T16:51:45.913Z</time></trkpt><trkpt lat="42.5309167" lon="-7.2252633"><ele>801.0</ele><time>2026-04-14T16:51:46.913Z</time></trkpt><trkpt lat="42.5309883" lon="-7.2251917"><ele>801.0</ele><time>2026-04-14T16:51:47.913Z</time></trkpt><trkpt lat="42.53107" lon="-7.2251167"><ele>801.0</ele><time>2026-04-14T16:51:48.913Z</time></trkpt><trkpt lat="42.5311583" lon="-7.225035"><ele>801.0</ele><time>2026-04-14T16:51:49.913Z</time></trkpt><trkpt lat="42.5312517" lon="-7.2249517"><ele>801.0</ele><time>2026-04-14T16:51:50.914Z</time></trkpt><trkpt lat="42.5313583" lon="-7.224865"><ele>801.0</ele><time>2026-04-14T16:51:51.914Z</time></trkpt><trkpt lat="42.5314717" lon="-7.224785"><ele>800.0</ele><time>2026-04-14T16:51:52.913Z</time></trkpt><trkpt lat="42.5315883" lon="-7.2247233"><ele>799.0</ele><time>2026-04-14T16:51:53.913Z</time></trkpt><trkpt lat="42.5317167" lon="-7.224685"><ele>798.0</ele><time>2026-04-14T16:51:54.914Z</time></trkpt><trkpt lat="42.5318517" lon="-7.22467"><ele>797.0</ele><time>2026-04-14T16:51:55.914Z</time></trkpt><trkpt lat="42.5319783" lon="-7.22467"><ele>796.25</ele><time>2026-04-14T16:51:56.914Z</time></trkpt><trkpt lat="42.532095" lon="-7.2247083"><ele>795.5</ele><time>2026-04-14T16:51:57.913Z</time></trkpt><trkpt lat="42.53221" lon="-7.2247767"><ele>794.75</ele><time>2026-04-14T16:51:58.914Z</time></trkpt><trkpt lat="42.532325" lon="-7.2248733"><ele>794.0</ele><time>2026-04-14T16:51:59.914Z</time></trkpt><trkpt lat="42.5324467" lon="-7.224975"><ele>802.5</ele><time>2026-04-14T16:52:00.913Z</time></trkpt><trkpt lat="42.53257" lon="-7.2250783"><ele>811.0</ele><time>2026-04-14T16:52:01.914Z</time></trkpt><trkpt lat="42.5327" lon="-7.2251717"><ele>819.5</ele><time>2026-04-14T16:52:02.913Z</time></trkpt><trkpt lat="42.5328317" lon="-7.22526"><ele>828.0</ele><time>2026-04-14T16:52:03.914Z</time></trkpt><trkpt lat="42.5329583" lon="-7.2253533"><ele>828.0</ele><time>2026-04-14T16:52:04.914Z</time></trkpt><trkpt lat="42.53309" lon="-7.225445"><ele>828.0</ele><time>2026-04-14T16:52:05.913Z</time></trkpt><trkpt lat="42.5332083" lon="-7.225535"><ele>828.0</ele><time>2026-04-14T16:52:06.913Z</time></trkpt><trkpt lat="42.533325" lon="-7.2256233"><ele>828.0</ele><time>2026-04-14T16:52:07.913Z</time></trkpt><trkpt lat="42.533465" lon="-7.2256817"><ele>835.3333333333333</ele><time>2026-04-14T16:52:08.914Z</time></trkpt><trkpt lat="42.5336167" lon="-7.225715"><ele>842.6666666666666</ele><time>2026-04-14T16:52:09.914Z</time></trkpt><trkpt lat="42.5337767" lon="-7.2257167"><ele>850.0</ele><time>2026-04-14T16:52:10.913Z</time></trkpt><trkpt lat="42.5339267" lon="-7.2256767"><ele>848.5</ele><time>2026-04-14T16:52:11.914Z</time></trkpt><trkpt lat="42.5340667" lon="-7.2256017"><ele>847.0</ele><time>2026-04-14T16:52:12.913Z</time></trkpt><trkpt lat="42.5341783" lon="-7.2254983"><ele>845.5</ele><time>2026-04-14T16:52:13.914Z</time></trkpt><trkpt lat="42.5342683" lon="-7.2253633"><ele>844.0</ele><time>2026-04-14T16:52:14.914Z</time></trkpt><trkpt lat="42.5343383" lon="-7.2252017"><ele>844.0</ele><time>2026-04-14T16:52:15.914Z</time></trkpt><trkpt lat="42.5343733" lon="-7.2249933"><ele>844.0</ele><time>2026-04-14T16:52:16.914Z</time></trkpt><trkpt lat="42.53441" lon="-7.2247717"><ele>844.0</ele><time>2026-04-14T16:52:17.914Z</time></trkpt><trkpt lat="42.5344133" lon="-7.2245417"><ele>844.0</ele><time>2026-04-14T16:52:18.913Z</time></trkpt><trkpt lat="42.5343933" lon="-7.2243167"><ele>844.0</ele><time>2026-04-14T16:52:19.913Z</time></trkpt><trkpt lat="42.5343867" lon="-7.2241017"><ele>844.0</ele><time>2026-04-14T16:52:20.913Z</time></trkpt><trkpt lat="42.5343667" lon="-7.2238683"><ele>845.6666666666666</ele><time>2026-04-14T16:52:21.913Z</time></trkpt><trkpt lat="42.5343567" lon="-7.2236367"><ele>847.3333333333333</ele><time>2026-04-14T16:52:22.914Z</time></trkpt><trkpt lat="42.5343567" lon="-7.2234033"><ele>849.0</ele><time>2026-04-14T16:52:23.914Z</time></trkpt><trkpt lat="42.534335" lon="-7.2231717"><ele>851.0</ele><time>2026-04-14T16:52:24.914Z</time></trkpt><trkpt lat="42.53433" lon="-7.2229417"><ele>853.0</ele><time>2026-04-14T16:52:25.914Z</time></trkpt><trkpt lat="42.5343133" lon="-7.2227067"><ele>855.0</ele><time>2026-04-14T16:52:26.914Z</time></trkpt><trkpt lat="42.534305" lon="-7.22247"><ele>857.3333333333333</ele><time>2026-04-14T16:52:27.914Z</time></trkpt><trkpt lat="42.5343067" lon="-7.2222367"><ele>859.6666666666666</ele><time>2026-04-14T16:52:28.914Z</time></trkpt><trkpt lat="42.5343183" lon="-7.22199"><ele>862.0</ele><time>2026-04-14T16:52:29.914Z</time></trkpt><trkpt lat="42.5343517" lon="-7.22175"><ele>862.0</ele><time>2026-04-14T16:52:30.913Z</time></trkpt><trkpt lat="42.5343933" lon="-7.2215067"><ele>862.0</ele><time>2026-04-14T16:52:31.913Z</time></trkpt><trkpt lat="42.5344383" lon="-7.2212633"><ele>862.0</ele><time>2026-04-14T16:52:32.913Z</time></trkpt><trkpt lat="42.5345" lon="-7.22103"><ele>870.6666666666666</ele><time>2026-04-14T16:52:33.913Z</time></trkpt><trkpt lat="42.5345567" lon="-7.2207983"><ele>879.3333333333333</ele><time>2026-04-14T16:52:34.914Z</time></trkpt><trkpt lat="42.5346383" lon="-7.2205733"><ele>888.0</ele><time>2026-04-14T16:52:35.913Z</time></trkpt><trkpt lat="42.534735" lon="-7.2203683"><ele>888.0</ele><time>2026-04-14T16:52:36.914Z</time></trkpt><trkpt lat="42.534855" lon="-7.2201783"><ele>888.0</ele><time>2026-04-14T16:52:37.913Z</time></trkpt><trkpt lat="42.534975" lon="-7.2199933"><ele>888.0</ele><time>2026-04-14T16:52:38.913Z</time></trkpt><trkpt lat="42.5350983" lon="-7.2198117"><ele>894.0</ele><time>2026-04-14T16:52:39.914Z</time></trkpt><trkpt lat="42.5352267" lon="-7.21962"><ele>900.0</ele><time>2026-04-14T16:52:40.913Z</time></trkpt><trkpt lat="42.5353433" lon="-7.2194267"><ele>906.0</ele><time>2026-04-14T16:52:41.913Z</time></trkpt><trkpt lat="42.535455" lon="-7.2192317"><ele>906.0</ele><time>2026-04-14T16:52:42.914Z</time></trkpt><trkpt lat="42.5355567" lon="-7.21905"><ele>906.0</ele><time>2026-04-14T16:52:43.914Z</time></trkpt><trkpt lat="42.5356883" lon="-7.2188917"><ele>906.0</ele><time>2026-04-14T16:52:44.913Z</time></trkpt><trkpt lat="42.5358533" lon="-7.2187733"><ele>905.3333333333333</ele><time>2026-04-14T16:52:45.914Z</time></trkpt><trkpt lat="42.536025" lon="-7.21869"><ele>904.6666666666666</ele><time>2026-04-14T16:52:46.913Z</time></trkpt><trkpt lat="42.5362" lon="-7.2186067"><ele>904.0</ele><time>2026-04-14T16:52:47.913Z</time></trkpt><trkpt lat="42.5363667" lon="-7.2185183"><ele>904.0</ele><time>2026-04-14T16:52:48.913Z</time></trkpt><trkpt lat="42.5365283" lon="-7.2184333"><ele>904.0</ele><time>2026-04-14T16:52:49.913Z</time></trkpt><trkpt lat="42.5366967" lon="-7.2183417"><ele>904.0</ele><time>2026-04-14T16:52:50.913Z</time></trkpt><trkpt lat="42.5368633" lon="-7.218245"><ele>902.0</ele><time>2026-04-14T16:52:51.913Z</time></trkpt><trkpt lat="42.5370267" lon="-7.2181267"><ele>900.0</ele><time>2026-04-14T16:52:52.914Z</time></trkpt><trkpt lat="42.53718" lon="-7.2180033"><ele>898.0</ele><time>2026-04-14T16:52:53.914Z</time></trkpt><trkpt lat="42.537345" lon="-7.2178783"><ele>898.0</ele><time>2026-04-14T16:52:54.913Z</time></trkpt><trkpt lat="42.537505" lon="-7.2177517"><ele>898.0</ele><time>2026-04-14T16:52:55.913Z</time></trkpt><trkpt lat="42.5376617" lon="-7.217635"><ele>898.0</ele><time>2026-04-14T16:52:56.913Z</time></trkpt><trkpt lat="42.5378217" lon="-7.21751"><ele>898.0</ele><time>2026-04-14T16:52:57.913Z</time></trkpt><trkpt lat="42.53797" lon="-7.21738"><ele>898.0</ele><time>2026-04-14T16:52:58.913Z</time></trkpt><trkpt lat="42.5381183" lon="-7.2172533"><ele>898.0</ele><time>2026-04-14T16:52:59.914Z</time></trkpt><trkpt lat="42.5382717" lon="-7.2171367"><ele>898.0</ele><time>2026-04-14T16:53:00.914Z</time></trkpt><trkpt lat="42.53843" lon="-7.21703"><ele>898.0</ele><time>2026-04-14T16:53:01.913Z</time></trkpt><trkpt lat="42.5385983" lon="-7.2169483"><ele>898.0</ele><time>2026-04-14T16:53:02.913Z</time></trkpt><trkpt lat="42.5387767" lon="-7.2169"><ele>904.3333333333333</ele><time>2026-04-14T16:53:03.914Z</time></trkpt><trkpt lat="42.5389633" lon="-7.2168767"><ele>910.6666666666667</ele><time>2026-04-14T16:53:04.914Z</time></trkpt><trkpt lat="42.539155" lon="-7.21685"><ele>917.0</ele><time>2026-04-14T16:53:05.913Z</time></trkpt><trkpt lat="42.5393433" lon="-7.2168467"><ele>917.0</ele><time>2026-04-14T16:53:06.913Z</time></trkpt><trkpt lat="42.5395333" lon="-7.2168283"><ele>917.0</ele><time>2026-04-14T16:53:07.913Z</time></trkpt><trkpt lat="42.5397217" lon="-7.21681"><ele>917.0</ele><time>2026-04-14T16:53:08.914Z</time></trkpt><trkpt lat="42.5399067" lon="-7.216785"><ele>921.3333333333334</ele><time>2026-04-14T16:53:09.913Z</time></trkpt><trkpt lat="42.540085" lon="-7.2167567"><ele>925.6666666666667</ele><time>2026-04-14T16:53:10.913Z</time></trkpt><trkpt lat="42.5402633" lon="-7.21672"><ele>930.0</ele><time>2026-04-14T16:53:11.913Z</time></trkpt><trkpt lat="42.5404317" lon="-7.216655"><ele>930.3333333333333</ele><time>2026-04-14T16:53:12.913Z</time></trkpt><trkpt lat="42.5405917" lon="-7.2165517"><ele>930.6666666666666</ele><time>2026-04-14T16:53:13.913Z</time></trkpt><trkpt lat="42.54073" lon="-7.216425"><ele>931.0</ele><time>2026-04-14T16:53:14.913Z</time></trkpt><trkpt lat="42.5408533" lon="-7.2162767"><ele>931.0</ele><time>2026-04-14T16:53:15.914Z</time></trkpt><trkpt lat="42.540985" lon="-7.2161233"><ele>931.0</ele><time>2026-04-14T16:53:16.913Z</time></trkpt><trkpt lat="42.54112" lon="-7.215975"><ele>931.0</ele><time>2026-04-14T16:53:17.913Z</time></trkpt><trkpt lat="42.5412567" lon="-7.2158467"><ele>933.0</ele><time>2026-04-14T16:53:18.914Z</time></trkpt><trkpt lat="42.5414083" lon="-7.21574"><ele>935.0</ele><time>2026-04-14T16:53:19.914Z</time></trkpt><trkpt lat="42.5415783" lon="-7.2156617"><ele>937.0</ele><time>2026-04-14T16:53:20.914Z</time></trkpt><trkpt lat="42.5417517" lon="-7.2156167"><ele>937.0</ele><time>2026-04-14T16:53:21.913Z</time></trkpt><trkpt lat="42.5419367" lon="-7.2155933"><ele>937.0</ele><time>2026-04-14T16:53:22.913Z</time></trkpt><trkpt lat="42.5421217" lon="-7.21559"><ele>937.0</ele><time>2026-04-14T16:53:23.914Z</time></trkpt><trkpt lat="42.5423033" lon="-7.215605"><ele>943.3333333333333</ele><time>2026-04-14T16:53:24.913Z</time></trkpt><trkpt lat="42.5424883" lon="-7.2156267"><ele>949.6666666666667</ele><time>2026-04-14T16:53:25.914Z</time></trkpt><trkpt lat="42.5426733" lon="-7.2156483"><ele>956.0</ele><time>2026-04-14T16:53:26.913Z</time></trkpt><trkpt lat="42.5428517" lon="-7.2156667"><ele>961.0</ele><time>2026-04-14T16:53:27.913Z</time></trkpt><trkpt lat="42.5430317" lon="-7.21567"><ele>966.0</ele><time>2026-04-14T16:53:28.914Z</time></trkpt><trkpt lat="42.54321" lon="-7.2156633"><ele>971.0</ele><time>2026-04-14T16:53:29.913Z</time></trkpt><trkpt lat="42.543375" lon="-7.2156417"><ele>971.0</ele><time>2026-04-14T16:53:30.913Z</time></trkpt><trkpt lat="42.5435267" lon="-7.2156067"><ele>971.0</ele><time>2026-04-14T16:53:31.914Z</time></trkpt><trkpt lat="42.5436483" lon="-7.21553"><ele>971.0</ele><time>2026-04-14T16:53:32.914Z</time></trkpt><trkpt lat="42.54374" lon="-7.2153783"><ele>971.0</ele><time>2026-04-14T16:53:33.914Z</time></trkpt><trkpt lat="42.543815" lon="-7.2151933"><ele>976.6666666666667</ele><time>2026-04-14T16:53:34.914Z</time></trkpt><trkpt lat="42.5438767" lon="-7.2150117"><ele>982.3333333333333</ele><time>2026-04-14T16:53:35.914Z</time></trkpt><trkpt lat="42.5439583" lon="-7.2148133"><ele>988.0</ele><time>2026-04-14T16:53:36.914Z</time></trkpt><trkpt lat="42.5440483" lon="-7.214655"><ele>988.5</ele><time>2026-04-14T16:53:37.913Z</time></trkpt><trkpt lat="42.5441567" lon="-7.214525"><ele>989.0</ele><time>2026-04-14T16:53:38.913Z</time></trkpt><trkpt lat="42.544265" lon="-7.214465"><ele>989.5</ele><time>2026-04-14T16:53:39.914Z</time></trkpt><trkpt lat="42.54439" lon="-7.2144333"><ele>990.0</ele><time>2026-04-14T16:53:40.913Z</time></trkpt><trkpt lat="42.54452" lon="-7.2144167"><ele>991.25</ele><time>2026-04-14T16:53:41.914Z</time></trkpt><trkpt lat="42.5446567" lon="-7.2144517"><ele>992.5</ele><time>2026-04-14T16:53:42.914Z</time></trkpt><trkpt lat="42.5448017" lon="-7.2144867"><ele>993.75</ele><time>2026-04-14T16:53:43.913Z</time></trkpt><trkpt lat="42.5449433" lon="-7.2145167"><ele>995.0</ele><time>2026-04-14T16:53:44.913Z</time></trkpt><trkpt lat="42.5450767" lon="-7.2145267"><ele>995.0</ele><time>2026-04-14T16:53:45.913Z</time></trkpt><trkpt lat="42.5452233" lon="-7.2144967"><ele>995.0</ele><time>2026-04-14T16:53:46.913Z</time></trkpt><trkpt lat="42.5453683" lon="-7.2144267"><ele>995.0</ele><time>2026-04-14T16:53:47.914Z</time></trkpt><trkpt lat="42.545505" lon="-7.2143367"><ele>990.3333333333334</ele><time>2026-04-14T16:53:48.914Z</time></trkpt><trkpt lat="42.54564" lon="-7.2142317"><ele>985.6666666666667</ele><time>2026-04-14T16:53:49.914Z</time></trkpt><trkpt lat="42.545775" lon="-7.2141167"><ele>981.0</ele><time>2026-04-14T16:53:50.913Z</time></trkpt><trkpt lat="42.545915" lon="-7.214"><ele>982.3333333333333</ele><time>2026-04-14T16:53:51.913Z</time></trkpt><trkpt lat="42.5460583" lon="-7.2138833"><ele>983.6666666666666</ele><time>2026-04-14T16:53:52.913Z</time></trkpt><trkpt lat="42.5462133" lon="-7.2137667"><ele>985.0</ele><time>2026-04-14T16:53:53.914Z</time></trkpt><trkpt lat="42.54637" lon="-7.21366"><ele>985.0</ele><time>2026-04-14T16:53:54.913Z</time></trkpt><trkpt lat="42.5465333" lon="-7.2135683"><ele>985.0</ele><time>2026-04-14T16:53:55.914Z</time></trkpt><trkpt lat="42.546705" lon="-7.2134917"><ele>985.0</ele><time>2026-04-14T16:53:56.913Z</time></trkpt><trkpt lat="42.5468767" lon="-7.2134283"><ele>980.0</ele><time>2026-04-14T16:53:57.913Z</time></trkpt><trkpt lat="42.5470483" lon="-7.2133833"><ele>975.0</ele><time>2026-04-14T16:53:58.913Z</time></trkpt><trkpt lat="42.547225" lon="-7.21334"><ele>970.0</ele><time>2026-04-14T16:53:59.913Z</time></trkpt><trkpt lat="42.5474067" lon="-7.2132933"><ele>970.0</ele><time>2026-04-14T16:54:00.913Z</time></trkpt><trkpt lat="42.547585" lon="-7.2132417"><ele>970.0</ele><time>2026-04-14T16:54:01.914Z</time></trkpt><trkpt lat="42.547765" lon="-7.2131783"><ele>970.0</ele><time>2026-04-14T16:54:02.913Z</time></trkpt><trkpt lat="42.54795" lon="-7.21312"><ele>976.6666666666666</ele><time>2026-04-14T16:54:03.913Z</time></trkpt><trkpt lat="42.54814" lon="-7.2130733"><ele>983.3333333333333</ele><time>2026-04-14T16:54:04.914Z</time></trkpt><trkpt lat="42.548335" lon="-7.2130383"><ele>990.0</ele><time>2026-04-14T16:54:05.913Z</time></trkpt><trkpt lat="42.548525" lon="-7.2130517"><ele>994.3333333333333</ele><time>2026-04-14T16:54:06.913Z</time></trkpt><trkpt lat="42.5487183" lon="-7.2130867"><ele>998.6666666666666</ele><time>2026-04-14T16:54:07.913Z</time></trkpt><trkpt lat="42.5488983" lon="-7.2131483"><ele>1003.0</ele><time>2026-04-14T16:54:08.913Z</time></trkpt><trkpt lat="42.54909" lon="-7.2132483"><ele>993.3333333333333</ele><time>2026-04-14T16:54:09.914Z</time></trkpt><trkpt lat="42.549285" lon="-7.2133733"><ele>983.6666666666667</ele><time>2026-04-14T16:54:10.914Z</time></trkpt><trkpt lat="42.5494833" lon="-7.2134967"><ele>974.0</ele><time>2026-04-14T16:54:11.914Z</time></trkpt><trkpt lat="42.5496767" lon="-7.21361"><ele>974.0</ele><time>2026-04-14T16:54:12.913Z</time></trkpt><trkpt lat="42.5498717" lon="-7.213735"><ele>974.0</ele><time>2026-04-14T16:54:13.913Z</time></trkpt><trkpt lat="42.5500467" lon="-7.21384"><ele>974.0</ele><time>2026-04-14T16:54:14.913Z</time></trkpt><trkpt lat="42.55022" lon="-7.2139367"><ele>964.3333333333334</ele><time>2026-04-14T16:54:15.914Z</time></trkpt><trkpt lat="42.550375" lon="-7.2140133"><ele>954.6666666666667</ele><time>2026-04-14T16:54:16.913Z</time></trkpt><trkpt lat="42.550515" lon="-7.2140767"><ele>945.0</ele><time>2026-04-14T16:54:17.914Z</time></trkpt><trkpt lat="42.550655" lon="-7.21411"><ele>945.0</ele><time>2026-04-14T16:54:18.914Z</time></trkpt><trkpt lat="42.550785" lon="-7.2141083"><ele>945.0</ele><time>2026-04-14T16:54:19.913Z</time></trkpt><trkpt lat="42.55091" lon="-7.2140683"><ele>945.0</ele><time>2026-04-14T16:54:20.913Z</time></trkpt><trkpt lat="42.5510217" lon="-7.213985"><ele>945.0</ele><time>2026-04-14T16:54:21.914Z</time></trkpt><trkpt lat="42.5511183" lon="-7.2138717"><ele>940.5</ele><time>2026-04-14T16:54:22.913Z</time></trkpt><trkpt lat="42.5512017" lon="-7.2137283"><ele>936.0</ele><time>2026-04-14T16:54:23.914Z</time></trkpt><trkpt lat="42.5512767" lon="-7.2135633"><ele>931.5</ele><time>2026-04-14T16:54:24.914Z</time></trkpt><trkpt lat="42.5513517" lon="-7.2133883"><ele>927.0</ele><time>2026-04-14T16:54:25.913Z</time></trkpt><trkpt lat="42.551425" lon="-7.2132083"><ele>933.3333333333333</ele><time>2026-04-14T16:54:26.914Z</time></trkpt><trkpt lat="42.5515067" lon="-7.2130167"><ele>939.6666666666666</ele><time>2026-04-14T16:54:27.913Z</time></trkpt><trkpt lat="42.5515983" lon="-7.2128183"><ele>946.0</ele><time>2026-04-14T16:54:28.914Z</time></trkpt><trkpt lat="42.5516833" lon="-7.21261"><ele>946.0</ele><time>2026-04-14T16:54:29.913Z</time></trkpt><trkpt lat="42.5517683" lon="-7.21239"><ele>946.0</ele><time>2026-04-14T16:54:30.914Z</time></trkpt><trkpt lat="42.55184" lon="-7.2121733"><ele>946.0</ele><time>2026-04-14T16:54:31.914Z</time></trkpt><trkpt lat="42.5519083" lon="-7.2119483"><ele>950.3333333333333</ele><time>2026-04-14T16:54:32.914Z</time></trkpt><trkpt lat="42.5519633" lon="-7.2117133"><ele>954.6666666666667</ele><time>2026-04-14T16:54:33.914Z</time></trkpt><trkpt lat="42.5520017" lon="-7.2114733"><ele>959.0</ele><time>2026-04-14T16:54:34.914Z</time></trkpt><trkpt lat="42.552035" lon="-7.21123"><ele>948.6666666666667</ele><time>2026-04-14T16:54:35.913Z</time></trkpt><trkpt lat="42.552075" lon="-7.2109867"><ele>938.3333333333333</ele><time>2026-04-14T16:54:36.914Z</time></trkpt><trkpt lat="42.5521183" lon="-7.2107483"><ele>928.0</ele><time>2026-04-14T16:54:37.914Z</time></trkpt><trkpt lat="42.5521783" lon="-7.2105033"><ele>928.0</ele><time>2026-04-14T16:54:38.914Z</time></trkpt><trkpt lat="42.552255" lon="-7.210285"><ele>928.0</ele><time>2026-04-14T16:54:39.914Z</time></trkpt><trkpt lat="42.552345" lon="-7.2100667"><ele>928.0</ele><time>2026-04-14T16:54:40.914Z</time></trkpt><trkpt lat="42.5524633" lon="-7.2098483"><ele>922.6666666666666</ele><time>2026-04-14T16:54:41.913Z</time></trkpt><trkpt lat="42.5525933" lon="-7.2096483"><ele>917.3333333333333</ele><time>2026-04-14T16:54:42.914Z</time></trkpt><trkpt lat="42.5527383" lon="-7.2094683"><ele>912.0</ele><time>2026-04-14T16:54:43.913Z</time></trkpt><trkpt lat="42.5528933" lon="-7.2093017"><ele>912.0</ele><time>2026-04-14T16:54:44.914Z</time></trkpt><trkpt lat="42.5530417" lon="-7.2091467"><ele>912.0</ele><time>2026-04-14T16:54:45.913Z</time></trkpt><trkpt lat="42.55319" lon="-7.20899"><ele>912.0</ele><time>2026-04-14T16:54:46.914Z</time></trkpt><trkpt lat="42.5533217" lon="-7.2088283"><ele>921.0</ele><time>2026-04-14T16:54:47.913Z</time></trkpt><trkpt lat="42.553445" lon="-7.20865"><ele>930.0</ele><time>2026-04-14T16:54:48.914Z</time></trkpt><trkpt lat="42.5535517" lon="-7.2084417"><ele>939.0</ele><time>2026-04-14T16:54:49.914Z</time></trkpt><trkpt lat="42.553655" lon="-7.2082283"><ele>928.3333333333333</ele><time>2026-04-14T16:54:50.913Z</time></trkpt><trkpt lat="42.5537383" lon="-7.2080167"><ele>917.6666666666666</ele><time>2026-04-14T16:54:51.914Z</time></trkpt><trkpt lat="42.5538183" lon="-7.2078133"><ele>907.0</ele><time>2026-04-14T16:54:52.913Z</time></trkpt><trkpt lat="42.5539083" lon="-7.207605"><ele>907.0</ele><time>2026-04-14T16:54:53.914Z</time></trkpt><trkpt lat="42.55402" lon="-7.20741"><ele>907.0</ele><time>2026-04-14T16:54:54.914Z</time></trkpt><trkpt lat="42.5541517" lon="-7.2072267"><ele>907.0</ele><time>2026-04-14T16:54:55.914Z</time></trkpt><trkpt lat="42.5543" lon="-7.2070633"><ele>908.3333333333333</ele><time>2026-04-14T16:54:56.913Z</time></trkpt><trkpt lat="42.5544717" lon="-7.206925"><ele>909.6666666666667</ele><time>2026-04-14T16:54:57.913Z</time></trkpt><trkpt lat="42.5546567" lon="-7.2067933"><ele>911.0</ele><time>2026-04-14T16:54:58.913Z</time></trkpt><trkpt lat="42.5548467" lon="-7.2066867"><ele>911.0</ele><time>2026-04-14T16:54:59.913Z</time></trkpt><trkpt lat="42.555025" lon="-7.2065733"><ele>911.0</ele><time>2026-04-14T16:55:00.913Z</time></trkpt><trkpt lat="42.555195" lon="-7.2064467"><ele>911.0</ele><time>2026-04-14T16:55:01.913Z</time></trkpt><trkpt lat="42.555365" lon="-7.2063017"><ele>910.0</ele><time>2026-04-14T16:55:02.914Z</time></trkpt><trkpt lat="42.55553" lon="-7.20615"><ele>909.0</ele><time>2026-04-14T16:55:03.913Z</time></trkpt><trkpt lat="42.555685" lon="-7.2059933"><ele>908.0</ele><time>2026-04-14T16:55:04.913Z</time></trkpt><trkpt lat="42.5558383" lon="-7.2058317"><ele>908.0</ele><time>2026-04-14T16:55:05.914Z</time></trkpt><trkpt lat="42.55599" lon="-7.205675"><ele>908.0</ele><time>2026-04-14T16:55:06.913Z</time></trkpt><trkpt lat="42.5561433" lon="-7.20553"><ele>908.0</ele><time>2026-04-14T16:55:07.913Z</time></trkpt><trkpt lat="42.556295" lon="-7.2053883"><ele>908.6666666666667</ele><time>2026-04-14T16:55:08.914Z</time></trkpt><trkpt lat="42.5564417" lon="-7.205285"><ele>909.3333333333333</ele><time>2026-04-14T16:55:09.913Z</time></trkpt><trkpt lat="42.5566" lon="-7.2051883"><ele>910.0</ele><time>2026-04-14T16:55:10.913Z</time></trkpt><trkpt lat="42.5567733" lon="-7.2051233"><ele>910.0</ele><time>2026-04-14T16:55:11.913Z</time></trkpt><trkpt lat="42.55695" lon="-7.2050917"><ele>910.0</ele><time>2026-04-14T16:55:12.914Z</time></trkpt><trkpt lat="42.5571283" lon="-7.2051083"><ele>910.0</ele><time>2026-04-14T16:55:13.913Z</time></trkpt><trkpt lat="42.557315" lon="-7.2051567"><ele>908.0</ele><time>2026-04-14T16:55:14.913Z</time></trkpt><trkpt lat="42.5575" lon="-7.2052283"><ele>906.0</ele><time>2026-04-14T16:55:15.913Z</time></trkpt><trkpt lat="42.5576783" lon="-7.2053283"><ele>904.0</ele><time>2026-04-14T16:55:16.913Z</time></trkpt><trkpt lat="42.5578483" lon="-7.2054283"><ele>905.3333333333333</ele><time>2026-04-14T16:55:17.913Z</time></trkpt><trkpt lat="42.5580183" lon="-7.205515"><ele>906.6666666666667</ele><time>2026-04-14T16:55:18.913Z</time></trkpt><trkpt lat="42.5581783" lon="-7.20558"><ele>908.0</ele><time>2026-04-14T16:55:19.914Z</time></trkpt><trkpt lat="42.558335" lon="-7.2056033"><ele>908.0</ele><time>2026-04-14T16:55:20.913Z</time></trkpt><trkpt lat="42.5584783" lon="-7.2055917"><ele>908.0</ele><time>2026-04-14T16:55:21.914Z</time></trkpt><trkpt lat="42.5586233" lon="-7.2055367"><ele>908.0</ele><time>2026-04-14T16:55:22.914Z</time></trkpt><trkpt lat="42.5587567" lon="-7.2054317"><ele>908.0</ele><time>2026-04-14T16:55:23.913Z</time></trkpt><trkpt lat="42.5588917" lon="-7.2053183"><ele>898.6666666666667</ele><time>2026-04-14T16:55:24.913Z</time></trkpt><trkpt lat="42.5590417" lon="-7.2052067"><ele>889.3333333333333</ele><time>2026-04-14T16:55:25.913Z</time></trkpt><trkpt lat="42.5591933" lon="-7.2050967"><ele>880.0</ele><time>2026-04-14T16:55:26.913Z</time></trkpt><trkpt lat="42.559355" lon="-7.2050067"><ele>880.0</ele><time>2026-04-14T16:55:27.913Z</time></trkpt><trkpt lat="42.5595133" lon="-7.2049367"><ele>880.0</ele><time>2026-04-14T16:55:28.913Z</time></trkpt><trkpt lat="42.559695" lon="-7.2049167"><ele>880.0</ele><time>2026-04-14T16:55:29.914Z</time></trkpt><trkpt lat="42.55988" lon="-7.2049217"><ele>874.6666666666666</ele><time>2026-04-14T16:55:30.913Z</time></trkpt><trkpt lat="42.5600683" lon="-7.2049467"><ele>869.3333333333333</ele><time>2026-04-14T16:55:31.914Z</time></trkpt><trkpt lat="42.5602483" lon="-7.2049733"><ele>864.0</ele><time>2026-04-14T16:55:32.914Z</time></trkpt><trkpt lat="42.5604167" lon="-7.2050317"><ele>859.6666666666667</ele><time>2026-04-14T16:55:33.914Z</time></trkpt><trkpt lat="42.560565" lon="-7.2051183"><ele>855.3333333333334</ele><time>2026-04-14T16:55:34.913Z</time></trkpt><trkpt lat="42.5606983" lon="-7.2052283"><ele>851.0</ele><time>2026-04-14T16:55:35.914Z</time></trkpt><trkpt lat="42.560825" lon="-7.2053783"><ele>851.0</ele><time>2026-04-14T16:55:36.913Z</time></trkpt><trkpt lat="42.5609317" lon="-7.205565"><ele>851.0</ele><time>2026-04-14T16:55:37.914Z</time></trkpt><trkpt lat="42.5610233" lon="-7.20579"><ele>851.0</ele><time>2026-04-14T16:55:38.914Z</time></trkpt><trkpt lat="42.561085" lon="-7.2060283"><ele>845.3333333333334</ele><time>2026-04-14T16:55:39.914Z</time></trkpt><trkpt lat="42.5611233" lon="-7.206285"><ele>839.6666666666667</ele><time>2026-04-14T16:55:40.914Z</time></trkpt><trkpt lat="42.56115" lon="-7.206545"><ele>834.0</ele><time>2026-04-14T16:55:41.914Z</time></trkpt><trkpt lat="42.56118" lon="-7.2068033"><ele>842.0</ele><time>2026-04-14T16:55:42.914Z</time></trkpt><trkpt lat="42.5612367" lon="-7.2070517"><ele>850.0</ele><time>2026-04-14T16:55:43.914Z</time></trkpt><trkpt lat="42.5613167" lon="-7.207275"><ele>858.0</ele><time>2026-04-14T16:55:44.913Z</time></trkpt><trkpt lat="42.561425" lon="-7.2074633"><ele>858.0</ele><time>2026-04-14T16:55:45.913Z</time></trkpt><trkpt lat="42.56156" lon="-7.20762"><ele>858.0</ele><time>2026-04-14T16:55:46.913Z</time></trkpt><trkpt lat="42.5617133" lon="-7.2077583"><ele>858.0</ele><time>2026-04-14T16:55:47.913Z</time></trkpt><trkpt lat="42.5618733" lon="-7.2078733"><ele>862.3333333333333</ele><time>2026-04-14T16:55:48.914Z</time></trkpt><trkpt lat="42.5620367" lon="-7.2079867"><ele>866.6666666666666</ele><time>2026-04-14T16:55:49.913Z</time></trkpt><trkpt lat="42.5621983" lon="-7.2081033"><ele>871.0</ele><time>2026-04-14T16:55:50.913Z</time></trkpt><trkpt lat="42.5623483" lon="-7.2082283"><ele>871.0</ele><time>2026-04-14T16:55:51.914Z</time></trkpt><trkpt lat="42.5624883" lon="-7.208365"><ele>871.0</ele><time>2026-04-14T16:55:52.913Z</time></trkpt><trkpt lat="42.562605" lon="-7.2085167"><ele>871.0</ele><time>2026-04-14T16:55:53.914Z</time></trkpt><trkpt lat="42.5626983" lon="-7.2086933"><ele>871.0</ele><time>2026-04-14T16:55:54.914Z</time></trkpt><trkpt lat="42.56277" lon="-7.2088867"><ele>871.0</ele><time>2026-04-14T16:55:55.913Z</time></trkpt><trkpt lat="42.5628017" lon="-7.209105"><ele>871.0</ele><time>2026-04-14T16:55:56.914Z</time></trkpt><trkpt lat="42.5627983" lon="-7.209335"><ele>866.6666666666666</ele><time>2026-04-14T16:55:57.914Z</time></trkpt><trkpt lat="42.5627733" lon="-7.2095633"><ele>862.3333333333333</ele><time>2026-04-14T16:55:58.913Z</time></trkpt><trkpt lat="42.5627333" lon="-7.209795"><ele>858.0</ele><time>2026-04-14T16:55:59.913Z</time></trkpt><trkpt lat="42.5627133" lon="-7.21002"><ele>858.0</ele><time>2026-04-14T16:56:00.914Z</time></trkpt><trkpt lat="42.56272" lon="-7.2102267"><ele>858.0</ele><time>2026-04-14T16:56:01.913Z</time></trkpt><trkpt lat="42.5627617" lon="-7.2104067"><ele>858.0</ele><time>2026-04-14T16:56:02.913Z</time></trkpt><trkpt lat="42.56283" lon="-7.2105467"><ele>858.0</ele><time>2026-04-14T16:56:03.913Z</time></trkpt><trkpt lat="42.5629217" lon="-7.2106467"><ele>859.5</ele><time>2026-04-14T16:56:04.913Z</time></trkpt><trkpt lat="42.56304" lon="-7.2106967"><ele>861.0</ele><time>2026-04-14T16:56:05.913Z</time></trkpt><trkpt lat="42.5631733" lon="-7.21071"><ele>862.5</ele><time>2026-04-14T16:56:06.914Z</time></trkpt><trkpt lat="42.56331" lon="-7.2106917"><ele>864.0</ele><time>2026-04-14T16:56:07.914Z</time></trkpt><trkpt lat="42.5634533" lon="-7.2106383"><ele>871.3333333333333</ele><time>2026-04-14T16:56:08.914Z</time></trkpt><trkpt lat="42.563605" lon="-7.2105867"><ele>878.6666666666666</ele><time>2026-04-14T16:56:09.913Z</time></trkpt><trkpt lat="42.56377" lon="-7.21052"><ele>886.0</ele><time>2026-04-14T16:56:10.913Z</time></trkpt><trkpt lat="42.563935" lon="-7.2104533"><ele>887.3333333333333</ele><time>2026-04-14T16:56:11.913Z</time></trkpt><trkpt lat="42.5641033" lon="-7.21039"><ele>888.6666666666667</ele><time>2026-04-14T16:56:12.914Z</time></trkpt><trkpt lat="42.56428" lon="-7.2103233"><ele>890.0</ele><time>2026-04-14T16:56:13.913Z</time></trkpt><trkpt lat="42.5644533" lon="-7.2102617"><ele>889.3333333333334</ele><time>2026-04-14T16:56:14.913Z</time></trkpt><trkpt lat="42.5646283" lon="-7.2102067"><ele>888.6666666666667</ele><time>2026-04-14T16:56:15.913Z</time></trkpt><trkpt lat="42.5648033" lon="-7.2101567"><ele>888.0</ele><time>2026-04-14T16:56:16.914Z</time></trkpt><trkpt lat="42.5649917" lon="-7.2101383"><ele>888.0</ele><time>2026-04-14T16:56:17.913Z</time></trkpt><trkpt lat="42.56518" lon="-7.2101283"><ele>888.0</ele><time>2026-04-14T16:56:18.914Z</time></trkpt><trkpt lat="42.5653633" lon="-7.2101383"><ele>888.0</ele><time>2026-04-14T16:56:19.914Z</time></trkpt><trkpt lat="42.565535" lon="-7.210155"><ele>890.3333333333333</ele><time>2026-04-14T16:56:20.914Z</time></trkpt><trkpt lat="42.5656933" lon="-7.2101817"><ele>892.6666666666666</ele><time>2026-04-14T16:56:21.914Z</time></trkpt><trkpt lat="42.5658417" lon="-7.210195"><ele>895.0</ele><time>2026-04-14T16:56:22.913Z</time></trkpt><trkpt lat="42.5659833" lon="-7.2102"><ele>895.0</ele><time>2026-04-14T16:56:23.913Z</time></trkpt><trkpt lat="42.5661083" lon="-7.2101967"><ele>895.0</ele><time>2026-04-14T16:56:24.914Z</time></trkpt><trkpt lat="42.566215" lon="-7.2101567"><ele>895.0</ele><time>2026-04-14T16:56:25.914Z</time></trkpt><trkpt lat="42.5663183" lon="-7.21009"><ele>895.0</ele><time>2026-04-14T16:56:26.914Z</time></trkpt><trkpt lat="42.5663983" lon="-7.21"><ele>894.0</ele><time>2026-04-14T16:56:27.913Z</time></trkpt><trkpt lat="42.5664617" lon="-7.2098883"><ele>893.0</ele><time>2026-04-14T16:56:28.913Z</time></trkpt><trkpt lat="42.566505" lon="-7.2097667"><ele>892.0</ele><time>2026-04-14T16:56:29.914Z</time></trkpt><trkpt lat="42.5665367" lon="-7.2096383"><ele>891.0</ele><time>2026-04-14T16:56:30.914Z</time></trkpt><trkpt lat="42.5665533" lon="-7.2095"><ele>890.0</ele><time>2026-04-14T16:56:31.914Z</time></trkpt><trkpt lat="42.5665583" lon="-7.20938"><ele>890.0</ele><time>2026-04-14T16:56:32.913Z</time></trkpt><trkpt lat="42.5665717" lon="-7.2092583"><ele>890.0</ele><time>2026-04-14T16:56:33.913Z</time></trkpt><trkpt lat="42.56659" lon="-7.209135"><ele>890.0</ele><time>2026-04-14T16:56:34.914Z</time></trkpt><trkpt lat="42.5666" lon="-7.2089983"><ele>890.0</ele><time>2026-04-14T16:56:35.913Z</time></trkpt><trkpt lat="42.5666133" lon="-7.2088383"><ele>890.0</ele><time>2026-04-14T16:56:36.914Z</time></trkpt><trkpt lat="42.5666317" lon="-7.208655"><ele>891.25</ele><time>2026-04-14T16:56:37.914Z</time></trkpt><trkpt lat="42.5666683" lon="-7.2084667"><ele>892.5</ele><time>2026-04-14T16:56:38.913Z</time></trkpt><trkpt lat="42.566725" lon="-7.208275"><ele>893.75</ele><time>2026-04-14T16:56:39.913Z</time></trkpt><trkpt lat="42.5667817" lon="-7.2080817"><ele>895.0</ele><time>2026-04-14T16:56:40.914Z</time></trkpt><trkpt lat="42.5668583" lon="-7.2079067"><ele>900.0</ele><time>2026-04-14T16:56:41.913Z</time></trkpt><trkpt lat="42.5669483" lon="-7.2077283"><ele>905.0</ele><time>2026-04-14T16:56:42.913Z</time></trkpt><trkpt lat="42.5670467" lon="-7.2075417"><ele>910.0</ele><time>2026-04-14T16:56:43.913Z</time></trkpt><trkpt lat="42.5671333" lon="-7.2073483"><ele>898.75</ele><time>2026-04-14T16:56:44.914Z</time></trkpt><trkpt lat="42.5672033" lon="-7.207165"><ele>887.5</ele><time>2026-04-14T16:56:45.914Z</time></trkpt><trkpt lat="42.5672467" lon="-7.2069883"><ele>876.25</ele><time>2026-04-14T16:56:46.914Z</time></trkpt><trkpt lat="42.567255" lon="-7.206815"><ele>865.0</ele><time>2026-04-14T16:56:47.914Z</time></trkpt><trkpt lat="42.5672383" lon="-7.2066333"><ele>861.75</ele><time>2026-04-14T16:56:48.914Z</time></trkpt><trkpt lat="42.5671967" lon="-7.20645"><ele>858.5</ele><time>2026-04-14T16:56:49.913Z</time></trkpt><trkpt lat="42.5671417" lon="-7.2062633"><ele>855.25</ele><time>2026-04-14T16:56:50.913Z</time></trkpt><trkpt lat="42.5670917" lon="-7.2060617"><ele>852.0</ele><time>2026-04-14T16:56:51.913Z</time></trkpt><trkpt lat="42.56704" lon="-7.20586"><ele>870.3333333333333</ele><time>2026-04-14T16:56:52.914Z</time></trkpt><trkpt lat="42.5669967" lon="-7.2056533"><ele>888.6666666666666</ele><time>2026-04-14T16:56:53.914Z</time></trkpt><trkpt lat="42.56697" lon="-7.205445"><ele>907.0</ele><time>2026-04-14T16:56:54.914Z</time></trkpt><trkpt lat="42.56696" lon="-7.2052317"><ele>907.0</ele><time>2026-04-14T16:56:55.914Z</time></trkpt><trkpt lat="42.566965" lon="-7.2050133"><ele>907.0</ele><time>2026-04-14T16:56:56.914Z</time></trkpt><trkpt lat="42.566975" lon="-7.2047967"><ele>907.0</ele><time>2026-04-14T16:56:57.913Z</time></trkpt><trkpt lat="42.566985" lon="-7.20457"><ele>905.6666666666666</ele><time>2026-04-14T16:56:58.913Z</time></trkpt><trkpt lat="42.566995" lon="-7.2043533"><ele>904.3333333333333</ele><time>2026-04-14T16:56:59.913Z</time></trkpt><trkpt lat="42.567015" lon="-7.2041333"><ele>903.0</ele><time>2026-04-14T16:57:00.913Z</time></trkpt><trkpt lat="42.5670483" lon="-7.2039233"><ele>893.5</ele><time>2026-04-14T16:57:01.913Z</time></trkpt><trkpt lat="42.5670933" lon="-7.2037217"><ele>884.0</ele><time>2026-04-14T16:57:02.913Z</time></trkpt><trkpt lat="42.5671683" lon="-7.2035517"><ele>874.5</ele><time>2026-04-14T16:57:03.913Z</time></trkpt><trkpt lat="42.5672633" lon="-7.2034133"><ele>865.0</ele><time>2026-04-14T16:57:04.913Z</time></trkpt><trkpt lat="42.5673817" lon="-7.20331"><ele>865.0</ele><time>2026-04-14T16:57:05.913Z</time></trkpt><trkpt lat="42.5675267" lon="-7.2032333"><ele>865.0</ele><time>2026-04-14T16:57:06.913Z</time></trkpt><trkpt lat="42.5676817" lon="-7.2032033"><ele>865.0</ele><time>2026-04-14T16:57:07.913Z</time></trkpt><trkpt lat="42.5678433" lon="-7.2031767"><ele>860.6666666666666</ele><time>2026-04-14T16:57:08.913Z</time></trkpt><trkpt lat="42.5680133" lon="-7.203165"><ele>856.3333333333333</ele><time>2026-04-14T16:57:09.913Z</time></trkpt><trkpt lat="42.56819" lon="-7.203165"><ele>852.0</ele><time>2026-04-14T16:57:10.914Z</time></trkpt><trkpt lat="42.56836" lon="-7.2031717"><ele>852.0</ele><time>2026-04-14T16:57:11.914Z</time></trkpt><trkpt lat="42.568535" lon="-7.2031817"><ele>852.0</ele><time>2026-04-14T16:57:12.913Z</time></trkpt><trkpt lat="42.56872" lon="-7.203175"><ele>852.0</ele><time>2026-04-14T16:57:13.914Z</time></trkpt><trkpt lat="42.5689033" lon="-7.2031633"><ele>862.6666666666667</ele><time>2026-04-14T16:57:14.914Z</time></trkpt><trkpt lat="42.56909" lon="-7.2031483"><ele>873.3333333333334</ele><time>2026-04-14T16:57:15.914Z</time></trkpt><trkpt lat="42.569285" lon="-7.2031333"><ele>884.0</ele><time>2026-04-14T16:57:16.914Z</time></trkpt><trkpt lat="42.5694817" lon="-7.2031283"><ele>880.6666666666667</ele><time>2026-04-14T16:57:17.913Z</time></trkpt><trkpt lat="42.5696783" lon="-7.2031333"><ele>877.3333333333333</ele><time>2026-04-14T16:57:18.914Z</time></trkpt><trkpt lat="42.5698767" lon="-7.2031567"><ele>874.0</ele><time>2026-04-14T16:57:19.914Z</time></trkpt><trkpt lat="42.570065" lon="-7.2031883"><ele>862.0</ele><time>2026-04-14T16:57:20.913Z</time></trkpt><trkpt lat="42.57026" lon="-7.2032267"><ele>850.0</ele><time>2026-04-14T16:57:21.913Z</time></trkpt><trkpt lat="42.5704483" lon="-7.203265"><ele>838.0</ele><time>2026-04-14T16:57:22.914Z</time></trkpt><trkpt lat="42.5706433" lon="-7.20331"><ele>836.6666666666666</ele><time>2026-04-14T16:57:23.914Z</time></trkpt><trkpt lat="42.5708283" lon="-7.2033533"><ele>835.3333333333333</ele><time>2026-04-14T16:57:24.913Z</time></trkpt><trkpt lat="42.5710083" lon="-7.2033867"><ele>834.0</ele><time>2026-04-14T16:57:25.914Z</time></trkpt><trkpt lat="42.5711833" lon="-7.203405"><ele>833.0</ele><time>2026-04-14T16:57:26.914Z</time></trkpt><trkpt lat="42.571355" lon="-7.2033933"><ele>832.0</ele><time>2026-04-14T16:57:27.914Z</time></trkpt><trkpt lat="42.5715217" lon="-7.2033567"><ele>831.0</ele><time>2026-04-14T16:57:28.914Z</time></trkpt><trkpt lat="42.57168" lon="-7.2032717"><ele>833.6666666666667</ele><time>2026-04-14T16:57:29.914Z</time></trkpt><trkpt lat="42.5718233" lon="-7.203145"><ele>836.3333333333334</ele><time>2026-04-14T16:57:30.913Z</time></trkpt><trkpt lat="42.57195" lon="-7.2029867"><ele>839.0</ele><time>2026-04-14T16:57:31.915Z</time></trkpt><trkpt lat="42.5720517" lon="-7.2027983"><ele>830.0</ele><time>2026-04-14T16:57:32.914Z</time></trkpt><trkpt lat="42.5721133" lon="-7.2026"><ele>821.0</ele><time>2026-04-14T16:57:33.915Z</time></trkpt><trkpt lat="42.5721417" lon="-7.2024017"><ele>812.0</ele><time>2026-04-14T16:57:34.915Z</time></trkpt><trkpt lat="42.5721383" lon="-7.202195"><ele>810.3333333333334</ele><time>2026-04-14T16:57:35.914Z</time></trkpt><trkpt lat="42.5721033" lon="-7.20198"><ele>808.6666666666667</ele><time>2026-04-14T16:57:36.914Z</time></trkpt><trkpt lat="42.5720317" lon="-7.2017617"><ele>807.0</ele><time>2026-04-14T16:57:37.914Z</time></trkpt><trkpt lat="42.571935" lon="-7.2015567"><ele>809.0</ele><time>2026-04-14T16:57:38.915Z</time></trkpt><trkpt lat="42.5718067" lon="-7.201375"><ele>811.0</ele><time>2026-04-14T16:57:39.915Z</time></trkpt><trkpt lat="42.57168" lon="-7.2012133"><ele>813.0</ele><time>2026-04-14T16:57:40.914Z</time></trkpt><trkpt lat="42.571545" lon="-7.201065"><ele>813.0</ele><time>2026-04-14T16:57:41.915Z</time></trkpt><trkpt lat="42.5714183" lon="-7.2009167"><ele>813.0</ele><time>2026-04-14T16:57:42.914Z</time></trkpt><trkpt lat="42.57131" lon="-7.2007517"><ele>813.0</ele><time>2026-04-14T16:57:43.914Z</time></trkpt><trkpt lat="42.5712" lon="-7.2005833"><ele>815.3333333333333</ele><time>2026-04-14T16:57:44.914Z</time></trkpt><trkpt lat="42.5711117" lon="-7.200385"><ele>817.6666666666666</ele><time>2026-04-14T16:57:45.914Z</time></trkpt><trkpt lat="42.5710483" lon="-7.2001817"><ele>820.0</ele><time>2026-04-14T16:57:46.914Z</time></trkpt><trkpt lat="42.5709967" lon="-7.199965"><ele>816.3333333333333</ele><time>2026-04-14T16:57:47.914Z</time></trkpt><trkpt lat="42.5709683" lon="-7.1997317"><ele>812.6666666666667</ele><time>2026-04-14T16:57:48.914Z</time></trkpt><trkpt lat="42.5709633" lon="-7.199485"><ele>809.0</ele><time>2026-04-14T16:57:49.914Z</time></trkpt><trkpt lat="42.570975" lon="-7.1992417"><ele>809.0</ele><time>2026-04-14T16:57:50.915Z</time></trkpt><trkpt lat="42.570985" lon="-7.1990117"><ele>809.0</ele><time>2026-04-14T16:57:51.915Z</time></trkpt><trkpt lat="42.570985" lon="-7.19879"><ele>809.0</ele><time>2026-04-14T16:57:52.914Z</time></trkpt><trkpt lat="42.5709683" lon="-7.1985783"><ele>806.6666666666667</ele><time>2026-04-14T16:57:53.914Z</time></trkpt><trkpt lat="42.570945" lon="-7.1983667"><ele>804.3333333333333</ele><time>2026-04-14T16:57:54.915Z</time></trkpt><trkpt lat="42.5708783" lon="-7.198155"><ele>802.0</ele><time>2026-04-14T16:57:55.915Z</time></trkpt><trkpt lat="42.5707983" lon="-7.19795"><ele>796.0</ele><time>2026-04-14T16:57:56.914Z</time></trkpt><trkpt lat="42.5707167" lon="-7.197755"><ele>790.0</ele><time>2026-04-14T16:57:57.915Z</time></trkpt><trkpt lat="42.57065" lon="-7.1975683"><ele>784.0</ele><time>2026-04-14T16:57:58.915Z</time></trkpt><trkpt lat="42.5705933" lon="-7.1973983"><ele>782.5</ele><time>2026-04-14T16:57:59.915Z</time></trkpt><trkpt lat="42.5705733" lon="-7.197225"><ele>781.0</ele><time>2026-04-14T16:58:00.915Z</time></trkpt><trkpt lat="42.57058" lon="-7.1970533"><ele>779.5</ele><time>2026-04-14T16:58:01.914Z</time></trkpt><trkpt lat="42.57062" lon="-7.1969017"><ele>778.0</ele><time>2026-04-14T16:58:02.915Z</time></trkpt><trkpt lat="42.57069" lon="-7.196745"><ele>778.0</ele><time>2026-04-14T16:58:03.915Z</time></trkpt><trkpt lat="42.5707917" lon="-7.1965883"><ele>778.0</ele><time>2026-04-14T16:58:04.914Z</time></trkpt><trkpt lat="42.5708983" lon="-7.196435"><ele>778.0</ele><time>2026-04-14T16:58:05.914Z</time></trkpt><trkpt lat="42.5710083" lon="-7.1962767"><ele>776.3333333333333</ele><time>2026-04-14T16:58:06.914Z</time></trkpt><trkpt lat="42.57111" lon="-7.1961317"><ele>774.6666666666667</ele><time>2026-04-14T16:58:07.914Z</time></trkpt><trkpt lat="42.571225" lon="-7.1959717"><ele>773.0</ele><time>2026-04-14T16:58:08.915Z</time></trkpt><trkpt lat="42.5713533" lon="-7.195795"><ele>776.3333333333334</ele><time>2026-04-14T16:58:09.915Z</time></trkpt><trkpt lat="42.57147" lon="-7.195615"><ele>779.6666666666667</ele><time>2026-04-14T16:58:10.914Z</time></trkpt><trkpt lat="42.571585" lon="-7.19544"><ele>783.0</ele><time>2026-04-14T16:58:11.914Z</time></trkpt><trkpt lat="42.5716917" lon="-7.1952667"><ele>783.0</ele><time>2026-04-14T16:58:12.914Z</time></trkpt><trkpt lat="42.5717867" lon="-7.1950817"><ele>783.0</ele><time>2026-04-14T16:58:13.915Z</time></trkpt><trkpt lat="42.5718617" lon="-7.1948783"><ele>783.0</ele><time>2026-04-14T16:58:14.914Z</time></trkpt><trkpt lat="42.5719183" lon="-7.1946683"><ele>783.6666666666667</ele><time>2026-04-14T16:58:15.915Z</time></trkpt><trkpt lat="42.5719483" lon="-7.1944583"><ele>784.3333333333334</ele><time>2026-04-14T16:58:16.914Z</time></trkpt><trkpt lat="42.5719617" lon="-7.1942433"><ele>785.0</ele><time>2026-04-14T16:58:17.915Z</time></trkpt><trkpt lat="42.5719683" lon="-7.194015"><ele>782.3333333333334</ele><time>2026-04-14T16:58:18.914Z</time></trkpt><trkpt lat="42.5719717" lon="-7.1937933"><ele>779.6666666666667</ele><time>2026-04-14T16:58:19.915Z</time></trkpt><trkpt lat="42.5719767" lon="-7.1935833"><ele>777.0</ele><time>2026-04-14T16:58:20.915Z</time></trkpt><trkpt lat="42.571995" lon="-7.1933917"><ele>777.75</ele><time>2026-04-14T16:58:21.914Z</time></trkpt><trkpt lat="42.5720333" lon="-7.1932233"><ele>778.5</ele><time>2026-04-14T16:58:22.914Z</time></trkpt><trkpt lat="42.5720983" lon="-7.19308"><ele>779.25</ele><time>2026-04-14T16:58:23.914Z</time></trkpt><trkpt lat="42.5721867" lon="-7.1929617"><ele>780.0</ele><time>2026-04-14T16:58:24.915Z</time></trkpt><trkpt lat="42.57229" lon="-7.1928833"><ele>780.0</ele><time>2026-04-14T16:58:25.915Z</time></trkpt><trkpt lat="42.57242" lon="-7.192845"><ele>780.0</ele><time>2026-04-14T16:58:26.915Z</time></trkpt><trkpt lat="42.572555" lon="-7.1928683"><ele>780.0</ele><time>2026-04-14T16:58:27.915Z</time></trkpt><trkpt lat="42.572695" lon="-7.1929417"><ele>780.0</ele><time>2026-04-14T16:58:28.914Z</time></trkpt><trkpt lat="42.5728333" lon="-7.1930567"><ele>778.6666666666667</ele><time>2026-04-14T16:58:29.914Z</time></trkpt><trkpt lat="42.5729717" lon="-7.1931933"><ele>777.3333333333334</ele><time>2026-04-14T16:58:30.915Z</time></trkpt><trkpt lat="42.57311" lon="-7.193345"><ele>776.0</ele><time>2026-04-14T16:58:31.915Z</time></trkpt><trkpt lat="42.5732517" lon="-7.193495"><ele>776.0</ele><time>2026-04-14T16:58:32.915Z</time></trkpt><trkpt lat="42.5733917" lon="-7.19364"><ele>776.0</ele><time>2026-04-14T16:58:33.914Z</time></trkpt><trkpt lat="42.5735267" lon="-7.19378"><ele>776.0</ele><time>2026-04-14T16:58:34.915Z</time></trkpt><trkpt lat="42.5736667" lon="-7.1939333"><ele>777.6666666666667</ele><time>2026-04-14T16:58:35.915Z</time></trkpt><trkpt lat="42.5738" lon="-7.1940983"><ele>779.3333333333333</ele><time>2026-04-14T16:58:36.915Z</time></trkpt><trkpt lat="42.57392" lon="-7.1942733"><ele>781.0</ele><time>2026-04-14T16:58:37.914Z</time></trkpt><trkpt lat="42.5740283" lon="-7.1944567"><ele>781.0</ele><time>2026-04-14T16:58:38.914Z</time></trkpt><trkpt lat="42.5741167" lon="-7.1946767"><ele>781.0</ele><time>2026-04-14T16:58:39.915Z</time></trkpt><trkpt lat="42.574215" lon="-7.19489"><ele>781.0</ele><time>2026-04-14T16:58:40.914Z</time></trkpt><trkpt lat="42.5743133" lon="-7.1950967"><ele>782.0</ele><time>2026-04-14T16:58:41.915Z</time></trkpt><trkpt lat="42.5744217" lon="-7.1952983"><ele>783.0</ele><time>2026-04-14T16:58:42.914Z</time></trkpt><trkpt lat="42.57454" lon="-7.1954967"><ele>784.0</ele><time>2026-04-14T16:58:43.914Z</time></trkpt><trkpt lat="42.5746683" lon="-7.195685"><ele>771.6666666666666</ele><time>2026-04-14T16:58:44.914Z</time></trkpt><trkpt lat="42.5748017" lon="-7.1958683"><ele>759.3333333333333</ele><time>2026-04-14T16:58:45.915Z</time></trkpt><trkpt lat="42.5749433" lon="-7.19604"><ele>747.0</ele><time>2026-04-14T16:58:46.914Z</time></trkpt><trkpt lat="42.575085" lon="-7.1962067"><ele>747.0</ele><time>2026-04-14T16:58:47.914Z</time></trkpt><trkpt lat="42.5752283" lon="-7.1963833"><ele>747.0</ele><time>2026-04-14T16:58:48.914Z</time></trkpt><trkpt lat="42.57537" lon="-7.1965617"><ele>747.0</ele><time>2026-04-14T16:58:49.915Z</time></trkpt><trkpt lat="42.5755083" lon="-7.1967417"><ele>748.0</ele><time>2026-04-14T16:58:50.914Z</time></trkpt><trkpt lat="42.5756467" lon="-7.1969267"><ele>749.0</ele><time>2026-04-14T16:58:51.915Z</time></trkpt><trkpt lat="42.5757867" lon="-7.197105"><ele>750.0</ele><time>2026-04-14T16:58:52.914Z</time></trkpt><trkpt lat="42.5759333" lon="-7.19727"><ele>744.0</ele><time>2026-04-14T16:58:53.915Z</time></trkpt><trkpt lat="42.5760883" lon="-7.19741"><ele>738.0</ele><time>2026-04-14T16:58:54.915Z</time></trkpt><trkpt lat="42.5762583" lon="-7.1975083"><ele>732.0</ele><time>2026-04-14T16:58:55.915Z</time></trkpt><trkpt lat="42.576435" lon="-7.19757"><ele>732.0</ele><time>2026-04-14T16:58:56.915Z</time></trkpt><trkpt lat="42.5766267" lon="-7.19759"><ele>732.0</ele><time>2026-04-14T16:58:57.914Z</time></trkpt><trkpt lat="42.5768217" lon="-7.1975833"><ele>732.0</ele><time>2026-04-14T16:58:58.915Z</time></trkpt><trkpt lat="42.5770167" lon="-7.1975583"><ele>727.3333333333334</ele><time>2026-04-14T16:58:59.915Z</time></trkpt><trkpt lat="42.5772083" lon="-7.1975267"><ele>722.6666666666667</ele><time>2026-04-14T16:59:00.914Z</time></trkpt><trkpt lat="42.57739" lon="-7.1974967"><ele>718.0</ele><time>2026-04-14T16:59:01.915Z</time></trkpt><trkpt lat="42.5775667" lon="-7.1974533"><ele>718.0</ele><time>2026-04-14T16:59:02.914Z</time></trkpt><trkpt lat="42.5777383" lon="-7.1974083"><ele>718.0</ele><time>2026-04-14T16:59:03.914Z</time></trkpt><trkpt lat="42.5779067" lon="-7.197335"><ele>718.0</ele><time>2026-04-14T16:59:04.914Z</time></trkpt><trkpt lat="42.578065" lon="-7.1972267"><ele>719.3333333333334</ele><time>2026-04-14T16:59:05.915Z</time></trkpt><trkpt lat="42.5782267" lon="-7.1970883"><ele>720.6666666666666</ele><time>2026-04-14T16:59:06.914Z</time></trkpt><trkpt lat="42.5783833" lon="-7.196955"><ele>722.0</ele><time>2026-04-14T16:59:07.914Z</time></trkpt><trkpt lat="42.578535" lon="-7.1968017"><ele>722.0</ele><time>2026-04-14T16:59:08.915Z</time></trkpt><trkpt lat="42.578675" lon="-7.1966517"><ele>722.0</ele><time>2026-04-14T16:59:09.915Z</time></trkpt><trkpt lat="42.578805" lon="-7.1965067"><ele>722.0</ele><time>2026-04-14T16:59:10.915Z</time></trkpt><trkpt lat="42.5789333" lon="-7.196355"><ele>719.3333333333333</ele><time>2026-04-14T16:59:11.914Z</time></trkpt><trkpt lat="42.579065" lon="-7.1962233"><ele>716.6666666666666</ele><time>2026-04-14T16:59:12.915Z</time></trkpt><trkpt lat="42.5792033" lon="-7.19613"><ele>714.0</ele><time>2026-04-14T16:59:13.915Z</time></trkpt><trkpt lat="42.579345" lon="-7.1960833"><ele>714.0</ele><time>2026-04-14T16:59:14.915Z</time></trkpt><trkpt lat="42.57948" lon="-7.196075"><ele>714.0</ele><time>2026-04-14T16:59:15.915Z</time></trkpt><trkpt lat="42.5796017" lon="-7.1961317"><ele>714.0</ele><time>2026-04-14T16:59:16.914Z</time></trkpt><trkpt lat="42.5797117" lon="-7.1962183"><ele>714.0</ele><time>2026-04-14T16:59:17.914Z</time></trkpt><trkpt lat="42.5798033" lon="-7.1963517"><ele>718.5</ele><time>2026-04-14T16:59:18.914Z</time></trkpt><trkpt lat="42.57989" lon="-7.1965"><ele>723.0</ele><time>2026-04-14T16:59:19.915Z</time></trkpt><trkpt lat="42.5799633" lon="-7.19667"><ele>727.5</ele><time>2026-04-14T16:59:20.914Z</time></trkpt><trkpt lat="42.5800367" lon="-7.1968383"><ele>732.0</ele><time>2026-04-14T16:59:21.914Z</time></trkpt><trkpt lat="42.5801117" lon="-7.1970067"><ele>732.0</ele><time>2026-04-14T16:59:22.914Z</time></trkpt><trkpt lat="42.580195" lon="-7.1971683"><ele>732.0</ele><time>2026-04-14T16:59:23.914Z</time></trkpt><trkpt lat="42.58028" lon="-7.19733"><ele>732.0</ele><time>2026-04-14T16:59:24.915Z</time></trkpt><trkpt lat="42.5803633" lon="-7.197495"><ele>732.0</ele><time>2026-04-14T16:59:25.914Z</time></trkpt><trkpt lat="42.5804367" lon="-7.1976617"><ele>742.0</ele><time>2026-04-14T16:59:26.914Z</time></trkpt><trkpt lat="42.5804967" lon="-7.197835"><ele>752.0</ele><time>2026-04-14T16:59:27.914Z</time></trkpt><trkpt lat="42.580555" lon="-7.1980283"><ele>762.0</ele><time>2026-04-14T16:59:28.914Z</time></trkpt><trkpt lat="42.5806133" lon="-7.1982317"><ele>762.0</ele><time>2026-04-14T16:59:29.914Z</time></trkpt><trkpt lat="42.5806633" lon="-7.1984367"><ele>762.0</ele><time>2026-04-14T16:59:30.914Z</time></trkpt><trkpt lat="42.5807033" lon="-7.198655"><ele>762.0</ele><time>2026-04-14T16:59:31.914Z</time></trkpt><trkpt lat="42.5807233" lon="-7.1988783"><ele>762.6666666666666</ele><time>2026-04-14T16:59:32.914Z</time></trkpt><trkpt lat="42.58073" lon="-7.1991083"><ele>763.3333333333333</ele><time>2026-04-14T16:59:33.914Z</time></trkpt><trkpt lat="42.58073" lon="-7.199325"><ele>764.0</ele><time>2026-04-14T16:59:34.915Z</time></trkpt><trkpt lat="42.5807233" lon="-7.1995417"><ele>764.0</ele><time>2026-04-14T16:59:35.914Z</time></trkpt><trkpt lat="42.5807183" lon="-7.199755"><ele>764.0</ele><time>2026-04-14T16:59:36.915Z</time></trkpt><trkpt lat="42.5807067" lon="-7.1999683"><ele>764.0</ele><time>2026-04-14T16:59:37.914Z</time></trkpt><trkpt lat="42.5806917" lon="-7.2001783"><ele>767.3333333333333</ele><time>2026-04-14T16:59:38.914Z</time></trkpt><trkpt lat="42.5806667" lon="-7.200385"><ele>770.6666666666666</ele><time>2026-04-14T16:59:39.914Z</time></trkpt><trkpt lat="42.5806467" lon="-7.2006033"><ele>774.0</ele><time>2026-04-14T16:59:40.915Z</time></trkpt><trkpt lat="42.580635" lon="-7.200825"><ele>777.0</ele><time>2026-04-14T16:59:41.914Z</time></trkpt><trkpt lat="42.5806333" lon="-7.2010433"><ele>780.0</ele><time>2026-04-14T16:59:42.914Z</time></trkpt><trkpt lat="42.5806483" lon="-7.2012533"><ele>783.0</ele><time>2026-04-14T16:59:43.914Z</time></trkpt><trkpt lat="42.5806617" lon="-7.20146"><ele>782.3333333333333</ele><time>2026-04-14T16:59:44.914Z</time></trkpt><trkpt lat="42.580685" lon="-7.20167"><ele>781.6666666666666</ele><time>2026-04-14T16:59:45.915Z</time></trkpt><trkpt lat="42.5807067" lon="-7.20188"><ele>781.0</ele><time>2026-04-14T16:59:46.915Z</time></trkpt><trkpt lat="42.5807133" lon="-7.2020833"><ele>781.0</ele><time>2026-04-14T16:59:47.915Z</time></trkpt><trkpt lat="42.5807017" lon="-7.20228"><ele>781.0</ele><time>2026-04-14T16:59:48.914Z</time></trkpt><trkpt lat="42.5806783" lon="-7.2024833"><ele>781.0</ele><time>2026-04-14T16:59:49.914Z</time></trkpt><trkpt lat="42.58063" lon="-7.2026767"><ele>781.0</ele><time>2026-04-14T16:59:50.914Z</time></trkpt><trkpt lat="42.5805633" lon="-7.2028617"><ele>778.75</ele><time>2026-04-14T16:59:51.915Z</time></trkpt><trkpt lat="42.580485" lon="-7.2030333"><ele>776.5</ele><time>2026-04-14T16:59:52.914Z</time></trkpt><trkpt lat="42.5804" lon="-7.20319"><ele>774.25</ele><time>2026-04-14T16:59:53.914Z</time></trkpt><trkpt lat="42.580315" lon="-7.2033517"><ele>772.0</ele><time>2026-04-14T16:59:54.915Z</time></trkpt><trkpt lat="42.5802583" lon="-7.20351"><ele>764.25</ele><time>2026-04-14T16:59:55.914Z</time></trkpt><trkpt lat="42.5802217" lon="-7.2036767"><ele>756.5</ele><time>2026-04-14T16:59:56.915Z</time></trkpt><trkpt lat="42.5802217" lon="-7.2038467"><ele>748.75</ele><time>2026-04-14T16:59:57.915Z</time></trkpt><trkpt lat="42.580245" lon="-7.2039983"><ele>741.0</ele><time>2026-04-14T16:59:58.915Z</time></trkpt><trkpt lat="42.5802983" lon="-7.2041233"><ele>739.25</ele><time>2026-04-14T16:59:59.915Z</time></trkpt><trkpt lat="42.58038" lon="-7.2042367"><ele>737.5</ele><time>2026-04-14T17:00:00.914Z</time></trkpt><trkpt lat="42.58048" lon="-7.2043133"><ele>735.75</ele><time>2026-04-14T17:00:01.915Z</time></trkpt><trkpt lat="42.580595" lon="-7.2043467"><ele>734.0</ele><time>2026-04-14T17:00:02.915Z</time></trkpt><trkpt lat="42.58072" lon="-7.2043267"><ele>734.0</ele><time>2026-04-14T17:00:03.914Z</time></trkpt><trkpt lat="42.5808467" lon="-7.2042583"><ele>734.0</ele><time>2026-04-14T17:00:04.915Z</time></trkpt><trkpt lat="42.5809633" lon="-7.20415"><ele>734.0</ele><time>2026-04-14T17:00:05.914Z</time></trkpt><trkpt lat="42.5810733" lon="-7.2040167"><ele>734.0</ele><time>2026-04-14T17:00:06.914Z</time></trkpt><trkpt lat="42.581175" lon="-7.203865"><ele>730.0</ele><time>2026-04-14T17:00:07.914Z</time></trkpt><trkpt lat="42.5812733" lon="-7.2037033"><ele>726.0</ele><time>2026-04-14T17:00:08.915Z</time></trkpt><trkpt lat="42.5813633" lon="-7.2035417"><ele>722.0</ele><time>2026-04-14T17:00:09.914Z</time></trkpt><trkpt lat="42.5814583" lon="-7.2033833"><ele>722.0</ele><time>2026-04-14T17:00:10.915Z</time></trkpt><trkpt lat="42.5815683" lon="-7.2032283"><ele>722.0</ele><time>2026-04-14T17:00:11.914Z</time></trkpt><trkpt lat="42.5816867" lon="-7.2030833"><ele>722.0</ele><time>2026-04-14T17:00:12.915Z</time></trkpt><trkpt lat="42.5818117" lon="-7.202935"><ele>719.6666666666666</ele><time>2026-04-14T17:00:13.915Z</time></trkpt><trkpt lat="42.5819483" lon="-7.202795"><ele>717.3333333333334</ele><time>2026-04-14T17:00:14.914Z</time></trkpt><trkpt lat="42.5820917" lon="-7.2026583"><ele>715.0</ele><time>2026-04-14T17:00:15.915Z</time></trkpt><trkpt lat="42.582225" lon="-7.20253"><ele>715.0</ele><time>2026-04-14T17:00:16.914Z</time></trkpt><trkpt lat="42.5823483" lon="-7.2024033"><ele>715.0</ele><time>2026-04-14T17:00:17.915Z</time></trkpt><trkpt lat="42.5824583" lon="-7.2022633"><ele>715.0</ele><time>2026-04-14T17:00:18.915Z</time></trkpt><trkpt lat="42.582545" lon="-7.202105"><ele>719.3333333333334</ele><time>2026-04-14T17:00:19.915Z</time></trkpt><trkpt lat="42.58262" lon="-7.2019167"><ele>723.6666666666666</ele><time>2026-04-14T17:00:20.914Z</time></trkpt><trkpt lat="42.5826633" lon="-7.201715"><ele>728.0</ele><time>2026-04-14T17:00:21.914Z</time></trkpt><trkpt lat="42.5826817" lon="-7.201515"><ele>726.6666666666666</ele><time>2026-04-14T17:00:22.915Z</time></trkpt><trkpt lat="42.58266" lon="-7.2013217"><ele>725.3333333333334</ele><time>2026-04-14T17:00:23.914Z</time></trkpt><trkpt lat="42.5826217" lon="-7.2011217"><ele>724.0</ele><time>2026-04-14T17:00:24.915Z</time></trkpt><trkpt lat="42.5825733" lon="-7.200915"><ele>724.0</ele><time>2026-04-14T17:00:25.915Z</time></trkpt><trkpt lat="42.5825267" lon="-7.2006983"><ele>724.0</ele><time>2026-04-14T17:00:26.914Z</time></trkpt><trkpt lat="42.5824783" lon="-7.2004767"><ele>724.0</ele><time>2026-04-14T17:00:27.914Z</time></trkpt><trkpt lat="42.58243" lon="-7.2002617"><ele>720.0</ele><time>2026-04-14T17:00:28.915Z</time></trkpt><trkpt lat="42.58238" lon="-7.2000483"><ele>716.0</ele><time>2026-04-14T17:00:29.914Z</time></trkpt><trkpt lat="42.582345" lon="-7.1998317"><ele>712.0</ele><time>2026-04-14T17:00:30.915Z</time></trkpt><trkpt lat="42.5823317" lon="-7.1996067"><ele>712.3333333333334</ele><time>2026-04-14T17:00:31.914Z</time></trkpt><trkpt lat="42.5823467" lon="-7.19938"><ele>712.6666666666666</ele><time>2026-04-14T17:00:32.915Z</time></trkpt><trkpt lat="42.5823883" lon="-7.1991533"><ele>713.0</ele><time>2026-04-14T17:00:33.914Z</time></trkpt><trkpt lat="42.58245" lon="-7.1989317"><ele>713.0</ele><time>2026-04-14T17:00:34.914Z</time></trkpt><trkpt lat="42.5825283" lon="-7.1987133"><ele>713.0</ele><time>2026-04-14T17:00:35.914Z</time></trkpt><trkpt lat="42.5826133" lon="-7.1984983"><ele>713.0</ele><time>2026-04-14T17:00:36.914Z</time></trkpt><trkpt lat="42.5826983" lon="-7.198285"><ele>718.0</ele><time>2026-04-14T17:00:37.914Z</time></trkpt><trkpt lat="42.5827833" lon="-7.198075"><ele>723.0</ele><time>2026-04-14T17:00:38.914Z</time></trkpt><trkpt lat="42.58287" lon="-7.1978667"><ele>728.0</ele><time>2026-04-14T17:00:39.914Z</time></trkpt><trkpt lat="42.5829417" lon="-7.197655"><ele>713.6666666666666</ele><time>2026-04-14T17:00:40.914Z</time></trkpt><trkpt lat="42.5830133" lon="-7.19744"><ele>699.3333333333334</ele><time>2026-04-14T17:00:41.914Z</time></trkpt><trkpt lat="42.5830767" lon="-7.1972233"><ele>685.0</ele><time>2026-04-14T17:00:42.914Z</time></trkpt><trkpt lat="42.5831283" lon="-7.197005"><ele>685.0</ele><time>2026-04-14T17:00:43.914Z</time></trkpt><trkpt lat="42.5831717" lon="-7.1967767"><ele>685.0</ele><time>2026-04-14T17:00:44.914Z</time></trkpt><trkpt lat="42.5832" lon="-7.196545"><ele>685.0</ele><time>2026-04-14T17:00:45.914Z</time></trkpt><trkpt lat="42.5832283" lon="-7.1963117"><ele>686.3333333333334</ele><time>2026-04-14T17:00:46.915Z</time></trkpt><trkpt lat="42.5832567" lon="-7.196085"><ele>687.6666666666666</ele><time>2026-04-14T17:00:47.915Z</time></trkpt><trkpt lat="42.5832717" lon="-7.195855"><ele>689.0</ele><time>2026-04-14T17:00:48.914Z</time></trkpt><trkpt lat="42.58327" lon="-7.1956217"><ele>686.0</ele><time>2026-04-14T17:00:49.914Z</time></trkpt><trkpt lat="42.5832567" lon="-7.1953933"><ele>683.0</ele><time>2026-04-14T17:00:50.915Z</time></trkpt><trkpt lat="42.58321" lon="-7.195175"><ele>680.0</ele><time>2026-04-14T17:00:51.914Z</time></trkpt><trkpt lat="42.58317" lon="-7.194945"><ele>678.0</ele><time>2026-04-14T17:00:52.915Z</time></trkpt><trkpt lat="42.5831217" lon="-7.1947217"><ele>676.0</ele><time>2026-04-14T17:00:53.915Z</time></trkpt><trkpt lat="42.5830833" lon="-7.1945033"><ele>674.0</ele><time>2026-04-14T17:00:54.914Z</time></trkpt><trkpt lat="42.5830467" lon="-7.19432"><ele>674.0</ele><time>2026-04-14T17:00:55.915Z</time></trkpt><trkpt lat="42.5830533" lon="-7.19414"><ele>674.0</ele><time>2026-04-14T17:00:56.915Z</time></trkpt><trkpt lat="42.5831117" lon="-7.19395"><ele>674.0</ele><time>2026-04-14T17:00:57.915Z</time></trkpt><trkpt lat="42.5831983" lon="-7.1937767"><ele>674.0</ele><time>2026-04-14T17:00:58.915Z</time></trkpt><trkpt lat="42.5833133" lon="-7.193645"><ele>672.3333333333333</ele><time>2026-04-14T17:00:59.914Z</time></trkpt><trkpt lat="42.5834483" lon="-7.193555"><ele>670.6666666666666</ele><time>2026-04-14T17:01:00.914Z</time></trkpt><trkpt lat="42.5836" lon="-7.1935117"><ele>669.0</ele><time>2026-04-14T17:01:01.914Z</time></trkpt><trkpt lat="42.58376" lon="-7.1935017"><ele>669.0</ele><time>2026-04-14T17:01:02.914Z</time></trkpt><trkpt lat="42.5839117" lon="-7.1935"><ele>669.0</ele><time>2026-04-14T17:01:03.914Z</time></trkpt><trkpt lat="42.5840483" lon="-7.1934833"><ele>669.0</ele><time>2026-04-14T17:01:04.914Z</time></trkpt><trkpt lat="42.5841817" lon="-7.19344"><ele>669.0</ele><time>2026-04-14T17:01:05.915Z</time></trkpt><trkpt lat="42.5842983" lon="-7.193335"><ele>669.0</ele><time>2026-04-14T17:01:06.914Z</time></trkpt><trkpt lat="42.584395" lon="-7.1931917"><ele>669.0</ele><time>2026-04-14T17:01:07.914Z</time></trkpt><trkpt lat="42.584475" lon="-7.19301"><ele>669.0</ele><time>2026-04-14T17:01:08.915Z</time></trkpt><trkpt lat="42.584545" lon="-7.192805"><ele>661.6666666666666</ele><time>2026-04-14T17:01:09.914Z</time></trkpt><trkpt lat="42.5846083" lon="-7.1925883"><ele>654.3333333333333</ele><time>2026-04-14T17:01:10.914Z</time></trkpt><trkpt lat="42.58467" lon="-7.1923633"><ele>647.0</ele><time>2026-04-14T17:01:11.914Z</time></trkpt><trkpt lat="42.5847217" lon="-7.1921383"><ele>647.0</ele><time>2026-04-14T17:01:12.915Z</time></trkpt><trkpt lat="42.584775" lon="-7.191915"><ele>647.0</ele><time>2026-04-14T17:01:13.914Z</time></trkpt><trkpt lat="42.5848367" lon="-7.1916867"><ele>647.0</ele><time>2026-04-14T17:01:14.915Z</time></trkpt><trkpt lat="42.5848933" lon="-7.1914533"><ele>650.6666666666666</ele><time>2026-04-14T17:01:15.915Z</time></trkpt><trkpt lat="42.5849433" lon="-7.1912233"><ele>654.3333333333334</ele><time>2026-04-14T17:01:16.915Z</time></trkpt><trkpt lat="42.5849767" lon="-7.190995"><ele>658.0</ele><time>2026-04-14T17:01:17.914Z</time></trkpt><trkpt lat="42.5850067" lon="-7.19075"><ele>657.3333333333334</ele><time>2026-04-14T17:01:18.915Z</time></trkpt><trkpt lat="42.5850233" lon="-7.1905133"><ele>656.6666666666666</ele><time>2026-04-14T17:01:19.915Z</time></trkpt><trkpt lat="42.585015" lon="-7.190275"><ele>656.0</ele><time>2026-04-14T17:01:20.915Z</time></trkpt><trkpt lat="42.585005" lon="-7.190035"><ele>652.3333333333333</ele><time>2026-04-14T17:01:21.914Z</time></trkpt><trkpt lat="42.5849583" lon="-7.18981"><ele>648.6666666666666</ele><time>2026-04-14T17:01:22.915Z</time></trkpt><trkpt lat="42.5849017" lon="-7.1895917"><ele>645.0</ele><time>2026-04-14T17:01:23.915Z</time></trkpt><trkpt lat="42.5848483" lon="-7.1893883"><ele>645.0</ele><time>2026-04-14T17:01:24.914Z</time></trkpt><trkpt lat="42.5848033" lon="-7.1891933"><ele>645.0</ele><time>2026-04-14T17:01:25.915Z</time></trkpt><trkpt lat="42.5847617" lon="-7.188995"><ele>645.0</ele><time>2026-04-14T17:01:26.914Z</time></trkpt><trkpt lat="42.5847433" lon="-7.1887967"><ele>645.0</ele><time>2026-04-14T17:01:27.914Z</time></trkpt><trkpt lat="42.584745" lon="-7.188585"><ele>644.0</ele><time>2026-04-14T17:01:28.914Z</time></trkpt><trkpt lat="42.5847883" lon="-7.1883783"><ele>643.0</ele><time>2026-04-14T17:01:29.915Z</time></trkpt><trkpt lat="42.58487" lon="-7.1881833"><ele>642.0</ele><time>2026-04-14T17:01:30.914Z</time></trkpt><trkpt lat="42.5849667" lon="-7.18799"><ele>647.3333333333334</ele><time>2026-04-14T17:01:31.915Z</time></trkpt><trkpt lat="42.585065" lon="-7.187785"><ele>652.6666666666667</ele><time>2026-04-14T17:01:32.915Z</time></trkpt><trkpt lat="42.585175" lon="-7.18759"><ele>658.0</ele><time>2026-04-14T17:01:33.914Z</time></trkpt><trkpt lat="42.58529" lon="-7.1873833"><ele>648.6666666666667</ele><time>2026-04-14T17:01:34.915Z</time></trkpt><trkpt lat="42.5853983" lon="-7.1871733"><ele>639.3333333333334</ele><time>2026-04-14T17:01:35.914Z</time></trkpt><trkpt lat="42.5855033" lon="-7.1869767"><ele>630.0</ele><time>2026-04-14T17:01:36.914Z</time></trkpt><trkpt lat="42.5855817" lon="-7.1867967"><ele>630.0</ele><time>2026-04-14T17:01:37.914Z</time></trkpt><trkpt lat="42.585665" lon="-7.186625"><ele>630.0</ele><time>2026-04-14T17:01:38.915Z</time></trkpt><trkpt lat="42.5857417" lon="-7.1864617"><ele>630.0</ele><time>2026-04-14T17:01:39.915Z</time></trkpt><trkpt lat="42.5858283" lon="-7.18631"><ele>630.0</ele><time>2026-04-14T17:01:40.914Z</time></trkpt><trkpt lat="42.58593" lon="-7.1861933"><ele>630.5</ele><time>2026-04-14T17:01:41.915Z</time></trkpt><trkpt lat="42.586045" lon="-7.1861167"><ele>631.0</ele><time>2026-04-14T17:01:42.914Z</time></trkpt><trkpt lat="42.586165" lon="-7.186085"><ele>631.5</ele><time>2026-04-14T17:01:43.915Z</time></trkpt><trkpt lat="42.5862933" lon="-7.1861033"><ele>632.0</ele><time>2026-04-14T17:01:44.915Z</time></trkpt><trkpt lat="42.586405" lon="-7.1861667"><ele>632.0</ele><time>2026-04-14T17:01:45.915Z</time></trkpt><trkpt lat="42.586505" lon="-7.1862767"><ele>632.0</ele><time>2026-04-14T17:01:46.914Z</time></trkpt><trkpt lat="42.5865867" lon="-7.1864233"><ele>632.0</ele><time>2026-04-14T17:01:47.914Z</time></trkpt><trkpt lat="42.58665" lon="-7.1866067"><ele>632.0</ele><time>2026-04-14T17:01:48.915Z</time></trkpt><trkpt lat="42.5867033" lon="-7.1868017"><ele>631.3333333333333</ele><time>2026-04-14T17:01:49.914Z</time></trkpt><trkpt lat="42.58674" lon="-7.1870233"><ele>630.6666666666666</ele><time>2026-04-14T17:01:50.915Z</time></trkpt><trkpt lat="42.5867667" lon="-7.187255"><ele>630.0</ele><time>2026-04-14T17:01:51.915Z</time></trkpt><trkpt lat="42.5867933" lon="-7.1874833"><ele>629.6666666666666</ele><time>2026-04-14T17:01:52.914Z</time></trkpt><trkpt lat="42.5868367" lon="-7.1877067"><ele>629.3333333333333</ele><time>2026-04-14T17:01:53.914Z</time></trkpt><trkpt lat="42.5868883" lon="-7.1879233"><ele>629.0</ele><time>2026-04-14T17:01:54.914Z</time></trkpt><trkpt lat="42.586945" lon="-7.1881467"><ele>627.3333333333333</ele><time>2026-04-14T17:01:55.914Z</time></trkpt><trkpt lat="42.587005" lon="-7.1883733"><ele>625.6666666666666</ele><time>2026-04-14T17:01:56.914Z</time></trkpt><trkpt lat="42.5870683" lon="-7.1885783"><ele>624.0</ele><time>2026-04-14T17:01:57.914Z</time></trkpt><trkpt lat="42.5871333" lon="-7.188775"><ele>624.75</ele><time>2026-04-14T17:01:58.914Z</time></trkpt><trkpt lat="42.5871833" lon="-7.1889633"><ele>625.5</ele><time>2026-04-14T17:01:59.914Z</time></trkpt><trkpt lat="42.58724" lon="-7.1891383"><ele>626.25</ele><time>2026-04-14T17:02:00.914Z</time></trkpt><trkpt lat="42.587295" lon="-7.1893133"><ele>627.0</ele><time>2026-04-14T17:02:01.914Z</time></trkpt><trkpt lat="42.58735" lon="-7.18948"><ele>627.0</ele><time>2026-04-14T17:02:02.914Z</time></trkpt><trkpt lat="42.5874033" lon="-7.18965"><ele>627.0</ele><time>2026-04-14T17:02:03.915Z</time></trkpt><trkpt lat="42.5874617" lon="-7.1898233"><ele>627.0</ele><time>2026-04-14T17:02:04.914Z</time></trkpt><trkpt lat="42.587515" lon="-7.1899933"><ele>627.0</ele><time>2026-04-14T17:02:05.915Z</time></trkpt><trkpt lat="42.5875733" lon="-7.19016"><ele>625.25</ele><time>2026-04-14T17:02:06.914Z</time></trkpt><trkpt lat="42.5876317" lon="-7.1903283"><ele>623.5</ele><time>2026-04-14T17:02:07.915Z</time></trkpt><trkpt lat="42.587685" lon="-7.1904933"><ele>621.75</ele><time>2026-04-14T17:02:08.915Z</time></trkpt><trkpt lat="42.5877333" lon="-7.1906617"><ele>620.0</ele><time>2026-04-14T17:02:09.914Z</time></trkpt><trkpt lat="42.5877833" lon="-7.19083"><ele>619.5</ele><time>2026-04-14T17:02:10.914Z</time></trkpt><trkpt lat="42.58784" lon="-7.191005"><ele>619.0</ele><time>2026-04-14T17:02:11.914Z</time></trkpt><trkpt lat="42.5878933" lon="-7.19118"><ele>618.5</ele><time>2026-04-14T17:02:12.915Z</time></trkpt><trkpt lat="42.58795" lon="-7.1913567"><ele>618.0</ele><time>2026-04-14T17:02:13.914Z</time></trkpt><trkpt lat="42.588" lon="-7.1915267"><ele>618.0</ele><time>2026-04-14T17:02:14.915Z</time></trkpt><trkpt lat="42.5880433" lon="-7.191695"><ele>618.0</ele><time>2026-04-14T17:02:15.914Z</time></trkpt><trkpt lat="42.5880933" lon="-7.19186"><ele>618.0</ele><time>2026-04-14T17:02:16.915Z</time></trkpt><trkpt lat="42.5881433" lon="-7.1920183"><ele>618.0</ele><time>2026-04-14T17:02:17.914Z</time></trkpt><trkpt lat="42.5881833" lon="-7.1921767"><ele>618.0</ele><time>2026-04-14T17:02:18.915Z</time></trkpt><trkpt lat="42.5882183" lon="-7.1923333"><ele>618.0</ele><time>2026-04-14T17:02:19.915Z</time></trkpt><trkpt lat="42.5882333" lon="-7.1924867"><ele>618.0</ele><time>2026-04-14T17:02:20.915Z</time></trkpt><trkpt lat="42.5882467" lon="-7.1926467"><ele>618.0</ele><time>2026-04-14T17:02:21.914Z</time></trkpt><trkpt lat="42.58827" lon="-7.1927983"><ele>616.6</ele><time>2026-04-14T17:02:22.915Z</time></trkpt><trkpt lat="42.5883017" lon="-7.1929383"><ele>615.1999999999999</ele><time>2026-04-14T17:02:23.914Z</time></trkpt><trkpt lat="42.5883567" lon="-7.1930617"><ele>613.8</ele><time>2026-04-14T17:02:24.914Z</time></trkpt><trkpt lat="42.588425" lon="-7.19318"><ele>612.4</ele><time>2026-04-14T17:02:25.914Z</time></trkpt><trkpt lat="42.5884983" lon="-7.1932933"><ele>611.0</ele><time>2026-04-14T17:02:26.915Z</time></trkpt><trkpt lat="42.5885717" lon="-7.193425"><ele>610.25</ele><time>2026-04-14T17:02:27.914Z</time></trkpt><trkpt lat="42.58865" lon="-7.19356"><ele>609.5</ele><time>2026-04-14T17:02:28.914Z</time></trkpt><trkpt lat="42.5887317" lon="-7.19371"><ele>608.75</ele><time>2026-04-14T17:02:29.914Z</time></trkpt><trkpt lat="42.5888217" lon="-7.19387"><ele>608.0</ele><time>2026-04-14T17:02:30.915Z</time></trkpt><trkpt lat="42.5889167" lon="-7.19403"><ele>611.6666666666666</ele><time>2026-04-14T17:02:31.914Z</time></trkpt><trkpt lat="42.58902" lon="-7.1941767"><ele>615.3333333333334</ele><time>2026-04-14T17:02:32.914Z</time></trkpt><trkpt lat="42.5891267" lon="-7.19432"><ele>619.0</ele><time>2026-04-14T17:02:33.915Z</time></trkpt><trkpt lat="42.5892233" lon="-7.19448"><ele>619.0</ele><time>2026-04-14T17:02:34.914Z</time></trkpt><trkpt lat="42.58929" lon="-7.19466"><ele>619.0</ele><time>2026-04-14T17:02:35.915Z</time></trkpt><trkpt lat="42.5893417" lon="-7.194835"><ele>619.0</ele><time>2026-04-14T17:02:36.914Z</time></trkpt><trkpt lat="42.5893667" lon="-7.1950267"><ele>619.0</ele><time>2026-04-14T17:02:37.915Z</time></trkpt><trkpt lat="42.58938" lon="-7.1952333"><ele>617.25</ele><time>2026-04-14T17:02:38.915Z</time></trkpt><trkpt lat="42.5893817" lon="-7.1954333"><ele>615.5</ele><time>2026-04-14T17:02:39.914Z</time></trkpt><trkpt lat="42.58939" lon="-7.1956167"><ele>613.75</ele><time>2026-04-14T17:02:40.914Z</time></trkpt><trkpt lat="42.589415" lon="-7.1957917"><ele>612.0</ele><time>2026-04-14T17:02:41.914Z</time></trkpt><trkpt lat="42.5894533" lon="-7.1959517"><ele>616.5</ele><time>2026-04-14T17:02:42.914Z</time></trkpt><trkpt lat="42.589515" lon="-7.1961017"><ele>621.0</ele><time>2026-04-14T17:02:43.915Z</time></trkpt><trkpt lat="42.5895933" lon="-7.1962267"><ele>625.5</ele><time>2026-04-14T17:02:44.915Z</time></trkpt><trkpt lat="42.58966" lon="-7.1963433"><ele>630.0</ele><time>2026-04-14T17:02:45.914Z</time></trkpt><trkpt lat="42.589705" lon="-7.19646"><ele>628.8</ele><time>2026-04-14T17:02:46.914Z</time></trkpt><trkpt lat="42.5897233" lon="-7.1965983"><ele>627.6</ele><time>2026-04-14T17:02:47.914Z</time></trkpt><trkpt lat="42.589715" lon="-7.196745"><ele>626.4</ele><time>2026-04-14T17:02:48.915Z</time></trkpt><trkpt lat="42.5896917" lon="-7.1969"><ele>625.2</ele><time>2026-04-14T17:02:49.914Z</time></trkpt><trkpt lat="42.589665" lon="-7.1970583"><ele>624.0</ele><time>2026-04-14T17:02:50.915Z</time></trkpt><trkpt lat="42.5896383" lon="-7.197225"><ele>622.75</ele><time>2026-04-14T17:02:51.915Z</time></trkpt><trkpt lat="42.5896233" lon="-7.1974017"><ele>621.5</ele><time>2026-04-14T17:02:52.914Z</time></trkpt><trkpt lat="42.5896133" lon="-7.19757"><ele>620.25</ele><time>2026-04-14T17:02:53.915Z</time></trkpt><trkpt lat="42.5896117" lon="-7.1977383"><ele>619.0</ele><time>2026-04-14T17:02:54.914Z</time></trkpt><trkpt lat="42.589615" lon="-7.1979117"><ele>619.0</ele><time>2026-04-14T17:02:55.914Z</time></trkpt><trkpt lat="42.5896233" lon="-7.1980917"><ele>619.0</ele><time>2026-04-14T17:02:56.915Z</time></trkpt><trkpt lat="42.5896483" lon="-7.1982783"><ele>619.0</ele><time>2026-04-14T17:02:57.914Z</time></trkpt><trkpt lat="42.5896867" lon="-7.198455"><ele>619.0</ele><time>2026-04-14T17:02:58.914Z</time></trkpt><trkpt lat="42.5897167" lon="-7.1986317"><ele>617.0</ele><time>2026-04-14T17:02:59.915Z</time></trkpt><trkpt lat="42.5897317" lon="-7.1988033"><ele>615.0</ele><time>2026-04-14T17:03:00.915Z</time></trkpt><trkpt lat="42.5897333" lon="-7.1989683"><ele>613.0</ele><time>2026-04-14T17:03:01.914Z</time></trkpt><trkpt lat="42.58971" lon="-7.1991267"><ele>611.0</ele><time>2026-04-14T17:03:02.914Z</time></trkpt><trkpt lat="42.5896817" lon="-7.1992817"><ele>610.5</ele><time>2026-04-14T17:03:03.914Z</time></trkpt><trkpt lat="42.5896517" lon="-7.199435"><ele>610.0</ele><time>2026-04-14T17:03:04.915Z</time></trkpt><trkpt lat="42.58965" lon="-7.19962"><ele>609.5</ele><time>2026-04-14T17:03:05.915Z</time></trkpt><trkpt lat="42.5896767" lon="-7.1998083"><ele>609.0</ele><time>2026-04-14T17:03:06.915Z</time></trkpt><trkpt lat="42.5897183" lon="-7.2000033"><ele>608.0</ele><time>2026-04-14T17:03:07.915Z</time></trkpt><trkpt lat="42.589785" lon="-7.20019"><ele>607.0</ele><time>2026-04-14T17:03:08.915Z</time></trkpt><trkpt lat="42.5898533" lon="-7.2003717"><ele>606.0</ele><time>2026-04-14T17:03:09.915Z</time></trkpt><trkpt lat="42.5899433" lon="-7.2005283"><ele>605.0</ele><time>2026-04-14T17:03:10.914Z</time></trkpt><trkpt lat="42.5900433" lon="-7.2006833"><ele>605.5</ele><time>2026-04-14T17:03:11.915Z</time></trkpt><trkpt lat="42.5901467" lon="-7.20082"><ele>606.0</ele><time>2026-04-14T17:03:12.914Z</time></trkpt><trkpt lat="42.5902467" lon="-7.2009383"><ele>606.5</ele><time>2026-04-14T17:03:13.914Z</time></trkpt><trkpt lat="42.590345" lon="-7.2010333"><ele>607.0</ele><time>2026-04-14T17:03:14.914Z</time></trkpt><trkpt lat="42.5904517" lon="-7.20109"><ele>607.0</ele><time>2026-04-14T17:03:15.915Z</time></trkpt><trkpt lat="42.5905617" lon="-7.20112"><ele>607.0</ele><time>2026-04-14T17:03:16.914Z</time></trkpt><trkpt lat="42.5906683" lon="-7.2011383"><ele>607.0</ele><time>2026-04-14T17:03:17.914Z</time></trkpt><trkpt lat="42.59076" lon="-7.2011817"><ele>607.0</ele><time>2026-04-14T17:03:18.915Z</time></trkpt><trkpt lat="42.59083" lon="-7.20128"><ele>607.0</ele><time>2026-04-14T17:03:19.914Z</time></trkpt><trkpt lat="42.5908783" lon="-7.201425"><ele>602.75</ele><time>2026-04-14T17:03:20.915Z</time></trkpt><trkpt lat="42.5909117" lon="-7.2015917"><ele>598.5</ele><time>2026-04-14T17:03:21.915Z</time></trkpt><trkpt lat="42.5909417" lon="-7.20178"><ele>594.25</ele><time>2026-04-14T17:03:22.915Z</time></trkpt><trkpt lat="42.5909683" lon="-7.2019767"><ele>590.0</ele><time>2026-04-14T17:03:23.915Z</time></trkpt><trkpt lat="42.5909817" lon="-7.202185"><ele>586.5</ele><time>2026-04-14T17:03:24.915Z</time></trkpt><trkpt lat="42.5909817" lon="-7.2023817"><ele>583.0</ele><time>2026-04-14T17:03:25.914Z</time></trkpt><trkpt lat="42.5909667" lon="-7.2025667"><ele>579.5</ele><time>2026-04-14T17:03:26.914Z</time></trkpt><trkpt lat="42.5909517" lon="-7.2027417"><ele>576.0</ele><time>2026-04-14T17:03:27.914Z</time></trkpt><trkpt lat="42.5909433" lon="-7.2028933"><ele>576.0</ele><time>2026-04-14T17:03:28.915Z</time></trkpt><trkpt lat="42.590955" lon="-7.2030067"><ele>576.0</ele><time>2026-04-14T17:03:29.914Z</time></trkpt><trkpt lat="42.5909883" lon="-7.2031"><ele>576.0</ele><time>2026-04-14T17:03:30.915Z</time></trkpt><trkpt lat="42.5910933" lon="-7.2031683"><ele>576.0</ele><time>2026-04-14T17:03:32.914Z</time></trkpt><trkpt lat="42.5911633" lon="-7.2031283"><ele>576.0</ele><time>2026-04-14T17:03:33.915Z</time></trkpt><trkpt lat="42.5912367" lon="-7.2030467"><ele>576.0</ele><time>2026-04-14T17:03:34.914Z</time></trkpt><trkpt lat="42.591305" lon="-7.2029433"><ele>576.25</ele><time>2026-04-14T17:03:35.914Z</time></trkpt><trkpt lat="42.591375" lon="-7.2028217"><ele>576.5</ele><time>2026-04-14T17:03:36.914Z</time></trkpt><trkpt lat="42.5914567" lon="-7.2026917"><ele>576.75</ele><time>2026-04-14T17:03:37.914Z</time></trkpt><trkpt lat="42.5915567" lon="-7.20256"><ele>577.0</ele><time>2026-04-14T17:03:38.914Z</time></trkpt><trkpt lat="42.5916717" lon="-7.2024417"><ele>575.25</ele><time>2026-04-14T17:03:39.915Z</time></trkpt><trkpt lat="42.5918083" lon="-7.202325"><ele>573.5</ele><time>2026-04-14T17:03:40.915Z</time></trkpt><trkpt lat="42.5919483" lon="-7.2022467"><ele>571.75</ele><time>2026-04-14T17:03:41.915Z</time></trkpt><trkpt lat="42.592065" lon="-7.2021567"><ele>570.0</ele><time>2026-04-14T17:03:42.915Z</time></trkpt><trkpt lat="42.59215" lon="-7.2020517"><ele>570.0</ele><time>2026-04-14T17:03:43.915Z</time></trkpt><trkpt lat="42.59222" lon="-7.2019117"><ele>570.0</ele><time>2026-04-14T17:03:44.915Z</time></trkpt><trkpt lat="42.59228" lon="-7.2017567"><ele>570.0</ele><time>2026-04-14T17:03:45.915Z</time></trkpt><trkpt lat="42.59236" lon="-7.201615"><ele>570.0</ele><time>2026-04-14T17:03:46.914Z</time></trkpt><trkpt lat="42.592445" lon="-7.20148"><ele>576.5</ele><time>2026-04-14T17:03:47.914Z</time></trkpt><trkpt lat="42.5925567" lon="-7.2013817"><ele>583.0</ele><time>2026-04-14T17:03:48.915Z</time></trkpt><trkpt lat="42.592655" lon="-7.20131"><ele>589.5</ele><time>2026-04-14T17:03:49.914Z</time></trkpt><trkpt lat="42.5927717" lon="-7.201255"><ele>596.0</ele><time>2026-04-14T17:03:50.915Z</time></trkpt><trkpt lat="42.5928867" lon="-7.20125"><ele>596.0</ele><time>2026-04-14T17:03:51.915Z</time></trkpt><trkpt lat="42.59301" lon="-7.2012883"><ele>596.0</ele><time>2026-04-14T17:03:52.915Z</time></trkpt><trkpt lat="42.593125" lon="-7.20136"><ele>596.0</ele><time>2026-04-14T17:03:53.914Z</time></trkpt><trkpt lat="42.5932467" lon="-7.2014433"><ele>596.0</ele><time>2026-04-14T17:03:54.914Z</time></trkpt><trkpt lat="42.5933733" lon="-7.2015367"><ele>587.5</ele><time>2026-04-14T17:03:55.915Z</time></trkpt><trkpt lat="42.59351" lon="-7.201615"><ele>579.0</ele><time>2026-04-14T17:03:56.914Z</time></trkpt><trkpt lat="42.59364" lon="-7.2016717"><ele>570.5</ele><time>2026-04-14T17:03:57.914Z</time></trkpt><trkpt lat="42.5937767" lon="-7.20169"><ele>562.0</ele><time>2026-04-14T17:03:58.915Z</time></trkpt><trkpt lat="42.5939083" lon="-7.2016633"><ele>560.0</ele><time>2026-04-14T17:03:59.914Z</time></trkpt><trkpt lat="42.5940417" lon="-7.2016033"><ele>558.0</ele><time>2026-04-14T17:04:00.914Z</time></trkpt><trkpt lat="42.5941583" lon="-7.2015083"><ele>556.0</ele><time>2026-04-14T17:04:01.914Z</time></trkpt><trkpt lat="42.5942583" lon="-7.20137"><ele>554.0</ele><time>2026-04-14T17:04:02.914Z</time></trkpt><trkpt lat="42.5943417" lon="-7.2012133"><ele>560.3333333333333</ele><time>2026-04-14T17:04:03.914Z</time></trkpt><trkpt lat="42.5944167" lon="-7.2010383"><ele>566.6666666666666</ele><time>2026-04-14T17:04:04.914Z</time></trkpt><trkpt lat="42.59448" lon="-7.2008483"><ele>573.0</ele><time>2026-04-14T17:04:05.915Z</time></trkpt><trkpt lat="42.59452" lon="-7.2006517"><ele>556.6666666666666</ele><time>2026-04-14T17:04:06.915Z</time></trkpt><trkpt lat="42.5945533" lon="-7.2004433"><ele>540.3333333333333</ele><time>2026-04-14T17:04:07.915Z</time></trkpt><trkpt lat="42.594585" lon="-7.200235"><ele>524.0</ele><time>2026-04-14T17:04:08.915Z</time></trkpt><trkpt lat="42.594595" lon="-7.2000233"><ele>525.5</ele><time>2026-04-14T17:04:09.914Z</time></trkpt><trkpt lat="42.5945867" lon="-7.1998217"><ele>527.0</ele><time>2026-04-14T17:04:10.914Z</time></trkpt><trkpt lat="42.59457" lon="-7.1996283"><ele>528.5</ele><time>2026-04-14T17:04:11.915Z</time></trkpt><trkpt lat="42.5945517" lon="-7.1994417"><ele>530.0</ele><time>2026-04-14T17:04:12.914Z</time></trkpt><trkpt lat="42.5945333" lon="-7.1992483"><ele>530.0</ele><time>2026-04-14T17:04:13.915Z</time></trkpt><trkpt lat="42.594525" lon="-7.1990733"><ele>530.0</ele><time>2026-04-14T17:04:14.914Z</time></trkpt><trkpt lat="42.5945333" lon="-7.19893"><ele>530.0</ele><time>2026-04-14T17:04:15.915Z</time></trkpt><trkpt lat="42.594565" lon="-7.198815"><ele>530.0</ele><time>2026-04-14T17:04:16.914Z</time></trkpt><trkpt lat="42.5946133" lon="-7.1987167"><ele>530.0</ele><time>2026-04-14T17:04:17.914Z</time></trkpt><trkpt lat="42.59469" lon="-7.1986517"><ele>534.0</ele><time>2026-04-14T17:04:18.915Z</time></trkpt><trkpt lat="42.59479" lon="-7.1986067"><ele>538.0</ele><time>2026-04-14T17:04:19.915Z</time></trkpt><trkpt lat="42.59489" lon="-7.198565"><ele>542.0</ele><time>2026-04-14T17:04:20.915Z</time></trkpt><trkpt lat="42.5949783" lon="-7.1985067"><ele>546.0</ele><time>2026-04-14T17:04:21.915Z</time></trkpt><trkpt lat="42.5950367" lon="-7.19841"><ele>550.0</ele><time>2026-04-14T17:04:22.914Z</time></trkpt><trkpt lat="42.5950633" lon="-7.1982767"><ele>556.4</ele><time>2026-04-14T17:04:23.914Z</time></trkpt><trkpt lat="42.59508" lon="-7.1981267"><ele>562.8</ele><time>2026-04-14T17:04:24.915Z</time></trkpt><trkpt lat="42.5951033" lon="-7.1979733"><ele>569.2</ele><time>2026-04-14T17:04:25.915Z</time></trkpt><trkpt lat="42.5951383" lon="-7.1978267"><ele>575.6</ele><time>2026-04-14T17:04:26.915Z</time></trkpt><trkpt lat="42.5951933" lon="-7.1977133"><ele>582.0</ele><time>2026-04-14T17:04:27.914Z</time></trkpt><trkpt lat="42.595275" lon="-7.1976433"><ele>574.8000000000001</ele><time>2026-04-14T17:04:28.915Z</time></trkpt><trkpt lat="42.595375" lon="-7.1976067"><ele>567.6</ele><time>2026-04-14T17:04:29.915Z</time></trkpt><trkpt lat="42.595485" lon="-7.1975867"><ele>560.4000000000001</ele><time>2026-04-14T17:04:30.914Z</time></trkpt><trkpt lat="42.5955967" lon="-7.1975583"><ele>553.2</ele><time>2026-04-14T17:04:31.914Z</time></trkpt><trkpt lat="42.5956967" lon="-7.1974917"><ele>546.0</ele><time>2026-04-14T17:04:32.915Z</time></trkpt><trkpt lat="42.59579" lon="-7.197395"><ele>556.75</ele><time>2026-04-14T17:04:33.915Z</time></trkpt><trkpt lat="42.595885" lon="-7.1972817"><ele>567.5</ele><time>2026-04-14T17:04:34.915Z</time></trkpt><trkpt lat="42.5959817" lon="-7.19718"><ele>578.25</ele><time>2026-04-14T17:04:35.915Z</time></trkpt><trkpt lat="42.5960933" lon="-7.1971067"><ele>589.0</ele><time>2026-04-14T17:04:36.915Z</time></trkpt><trkpt lat="42.5962033" lon="-7.1970683"><ele>589.4</ele><time>2026-04-14T17:04:37.914Z</time></trkpt><trkpt lat="42.5963117" lon="-7.1970683"><ele>589.8</ele><time>2026-04-14T17:04:38.915Z</time></trkpt><trkpt lat="42.5964" lon="-7.1971117"><ele>590.2</ele><time>2026-04-14T17:04:39.914Z</time></trkpt><trkpt lat="42.5964717" lon="-7.1971867"><ele>590.6</ele><time>2026-04-14T17:04:40.914Z</time></trkpt><trkpt lat="42.596505" lon="-7.19729"><ele>591.0</ele><time>2026-04-14T17:04:41.915Z</time></trkpt><trkpt lat="42.5965083" lon="-7.197425"><ele>583.0</ele><time>2026-04-14T17:04:42.914Z</time></trkpt><trkpt lat="42.5965117" lon="-7.1975833"><ele>575.0</ele><time>2026-04-14T17:04:43.914Z</time></trkpt><trkpt lat="42.5965367" lon="-7.1977583"><ele>567.0</ele><time>2026-04-14T17:04:44.914Z</time></trkpt><trkpt lat="42.5965533" lon="-7.1979533"><ele>559.0</ele><time>2026-04-14T17:04:45.914Z</time></trkpt><trkpt lat="42.5965617" lon="-7.1981433"><ele>555.0</ele><time>2026-04-14T17:04:46.914Z</time></trkpt><trkpt lat="42.5965417" lon="-7.1983267"><ele>551.0</ele><time>2026-04-14T17:04:47.915Z</time></trkpt><trkpt lat="42.596515" lon="-7.1984883"><ele>547.0</ele><time>2026-04-14T17:04:48.914Z</time></trkpt><trkpt lat="42.596505" lon="-7.1986217"><ele>543.0</ele><time>2026-04-14T17:04:49.915Z</time></trkpt><trkpt lat="42.5965217" lon="-7.1987167"><ele>539.0</ele><time>2026-04-14T17:04:50.914Z</time></trkpt><trkpt lat="42.5965667" lon="-7.1987867"><ele>539.0</ele><time>2026-04-14T17:04:51.915Z</time></trkpt><trkpt lat="42.5966467" lon="-7.1988017"><ele>539.0</ele><time>2026-04-14T17:04:52.915Z</time></trkpt><trkpt lat="42.59675" lon="-7.198775"><ele>539.0</ele><time>2026-04-14T17:04:53.914Z</time></trkpt><trkpt lat="42.5968633" lon="-7.1987433"><ele>539.0</ele><time>2026-04-14T17:04:54.914Z</time></trkpt><trkpt lat="42.5969917" lon="-7.1987083"><ele>539.0</ele><time>2026-04-14T17:04:55.914Z</time></trkpt><trkpt lat="42.597125" lon="-7.1986783"><ele>537.0</ele><time>2026-04-14T17:04:56.914Z</time></trkpt><trkpt lat="42.5972567" lon="-7.1986283"><ele>535.0</ele><time>2026-04-14T17:04:57.914Z</time></trkpt><trkpt lat="42.5973817" lon="-7.198545"><ele>533.0</ele><time>2026-04-14T17:04:58.915Z</time></trkpt><trkpt lat="42.597495" lon="-7.1984267"><ele>531.0</ele><time>2026-04-14T17:04:59.914Z</time></trkpt><trkpt lat="42.597595" lon="-7.1982867"><ele>538.6666666666666</ele><time>2026-04-14T17:05:00.914Z</time></trkpt><trkpt lat="42.5976833" lon="-7.1981217"><ele>546.3333333333333</ele><time>2026-04-14T17:05:01.914Z</time></trkpt><trkpt lat="42.597765" lon="-7.1979467"><ele>554.0</ele><time>2026-04-14T17:05:02.915Z</time></trkpt><trkpt lat="42.5978417" lon="-7.1977583"><ele>541.6666666666666</ele><time>2026-04-14T17:05:03.914Z</time></trkpt><trkpt lat="42.59791" lon="-7.1975567"><ele>529.3333333333334</ele><time>2026-04-14T17:05:04.915Z</time></trkpt><trkpt lat="42.59797" lon="-7.19735"><ele>517.0</ele><time>2026-04-14T17:05:05.915Z</time></trkpt><trkpt lat="42.5980367" lon="-7.19714"><ele>517.0</ele><time>2026-04-14T17:05:06.914Z</time></trkpt><trkpt lat="42.5980983" lon="-7.1969383"><ele>517.0</ele><time>2026-04-14T17:05:07.914Z</time></trkpt><trkpt lat="42.598165" lon="-7.1967417"><ele>517.0</ele><time>2026-04-14T17:05:08.915Z</time></trkpt><trkpt lat="42.59823" lon="-7.1965617"><ele>519.0</ele><time>2026-04-14T17:05:09.915Z</time></trkpt><trkpt lat="42.598295" lon="-7.1964033"><ele>521.0</ele><time>2026-04-14T17:05:10.915Z</time></trkpt><trkpt lat="42.59834" lon="-7.196275"><ele>523.0</ele><time>2026-04-14T17:05:11.914Z</time></trkpt><trkpt lat="42.598365" lon="-7.1961483"><ele>525.0</ele><time>2026-04-14T17:05:12.914Z</time></trkpt><trkpt lat="42.59837" lon="-7.1959983"><ele>527.0</ele><time>2026-04-14T17:05:13.914Z</time></trkpt><trkpt lat="42.5983617" lon="-7.1958367"><ele>531.5</ele><time>2026-04-14T17:05:14.915Z</time></trkpt><trkpt lat="42.598365" lon="-7.1956683"><ele>536.0</ele><time>2026-04-14T17:05:15.914Z</time></trkpt><trkpt lat="42.598385" lon="-7.1955"><ele>540.5</ele><time>2026-04-14T17:05:16.914Z</time></trkpt><trkpt lat="42.5984233" lon="-7.1953533"><ele>545.0</ele><time>2026-04-14T17:05:17.915Z</time></trkpt><trkpt lat="42.5984783" lon="-7.1952233"><ele>545.0</ele><time>2026-04-14T17:05:18.915Z</time></trkpt><trkpt lat="42.59855" lon="-7.19514"><ele>545.0</ele><time>2026-04-14T17:05:19.915Z</time></trkpt><trkpt lat="42.5986367" lon="-7.1950883"><ele>545.0</ele><time>2026-04-14T17:05:20.914Z</time></trkpt><trkpt lat="42.59874" lon="-7.1950917"><ele>545.0</ele><time>2026-04-14T17:05:21.915Z</time></trkpt><trkpt lat="42.598855" lon="-7.195145"><ele>545.0</ele><time>2026-04-14T17:05:22.914Z</time></trkpt><trkpt lat="42.5989667" lon="-7.1952167"><ele>541.4</ele><time>2026-04-14T17:05:23.915Z</time></trkpt><trkpt lat="42.5990767" lon="-7.19525"><ele>537.8</ele><time>2026-04-14T17:05:24.914Z</time></trkpt><trkpt lat="42.59918" lon="-7.1952567"><ele>534.2</ele><time>2026-04-14T17:05:25.915Z</time></trkpt><trkpt lat="42.59929" lon="-7.1952383"><ele>530.6</ele><time>2026-04-14T17:05:26.915Z</time></trkpt><trkpt lat="42.5993933" lon="-7.1951667"><ele>527.0</ele><time>2026-04-14T17:05:27.914Z</time></trkpt><trkpt lat="42.5995083" lon="-7.1950983"><ele>521.5</ele><time>2026-04-14T17:05:28.915Z</time></trkpt><trkpt lat="42.5996383" lon="-7.1950483"><ele>516.0</ele><time>2026-04-14T17:05:29.914Z</time></trkpt><trkpt lat="42.5997833" lon="-7.1949983"><ele>510.5</ele><time>2026-04-14T17:05:30.914Z</time></trkpt><trkpt lat="42.599905" lon="-7.19494"><ele>505.0</ele><time>2026-04-14T17:05:31.915Z</time></trkpt><trkpt lat="42.6000083" lon="-7.1948667"><ele>517.75</ele><time>2026-04-14T17:05:32.915Z</time></trkpt><trkpt lat="42.6000933" lon="-7.1947767"><ele>530.5</ele><time>2026-04-14T17:05:33.914Z</time></trkpt><trkpt lat="42.6001633" lon="-7.1946583"><ele>543.25</ele><time>2026-04-14T17:05:34.915Z</time></trkpt><trkpt lat="42.60024" lon="-7.1945217"><ele>556.0</ele><time>2026-04-14T17:05:35.915Z</time></trkpt><trkpt lat="42.60033" lon="-7.1944217"><ele>554.0</ele><time>2026-04-14T17:05:36.914Z</time></trkpt><trkpt lat="42.6004333" lon="-7.1943717"><ele>552.0</ele><time>2026-04-14T17:05:37.915Z</time></trkpt><trkpt lat="42.6005433" lon="-7.1943767"><ele>550.0</ele><time>2026-04-14T17:05:38.914Z</time></trkpt><trkpt lat="42.6006467" lon="-7.1944067"><ele>548.0</ele><time>2026-04-14T17:05:39.915Z</time></trkpt><trkpt lat="42.60075" lon="-7.1944633"><ele>546.0</ele><time>2026-04-14T17:05:40.914Z</time></trkpt><trkpt lat="42.6008567" lon="-7.194555"><ele>546.0</ele><time>2026-04-14T17:05:41.915Z</time></trkpt><trkpt lat="42.6009583" lon="-7.1946483"><ele>546.0</ele><time>2026-04-14T17:05:42.914Z</time></trkpt><trkpt lat="42.6010733" lon="-7.1947433"><ele>546.0</ele><time>2026-04-14T17:05:43.915Z</time></trkpt><trkpt lat="42.6011983" lon="-7.194825"><ele>546.0</ele><time>2026-04-14T17:05:44.915Z</time></trkpt><trkpt lat="42.6013317" lon="-7.1948783"><ele>541.25</ele><time>2026-04-14T17:05:45.915Z</time></trkpt><trkpt lat="42.6014783" lon="-7.1949083"><ele>536.5</ele><time>2026-04-14T17:05:46.914Z</time></trkpt><trkpt lat="42.6016267" lon="-7.1949233"><ele>531.75</ele><time>2026-04-14T17:05:47.915Z</time></trkpt><trkpt lat="42.6017733" lon="-7.1949283"><ele>527.0</ele><time>2026-04-14T17:05:48.915Z</time></trkpt><trkpt lat="42.6019233" lon="-7.1949217"><ele>527.0</ele><time>2026-04-14T17:05:49.914Z</time></trkpt><trkpt lat="42.602075" lon="-7.1949117"><ele>527.0</ele><time>2026-04-14T17:05:50.914Z</time></trkpt><trkpt lat="42.6022233" lon="-7.1948817"><ele>527.0</ele><time>2026-04-14T17:05:51.915Z</time></trkpt><trkpt lat="42.6023717" lon="-7.1948383"><ele>541.0</ele><time>2026-04-14T17:05:52.914Z</time></trkpt><trkpt lat="42.6025183" lon="-7.1947833"><ele>555.0</ele><time>2026-04-14T17:05:53.914Z</time></trkpt><trkpt lat="42.6026633" lon="-7.1947383"><ele>569.0</ele><time>2026-04-14T17:05:54.914Z</time></trkpt><trkpt lat="42.6028167" lon="-7.1947183"><ele>568.0</ele><time>2026-04-14T17:05:55.914Z</time></trkpt><trkpt lat="42.6029567" lon="-7.1947383"><ele>567.0</ele><time>2026-04-14T17:05:56.914Z</time></trkpt><trkpt lat="42.6030817" lon="-7.1947817"><ele>566.0</ele><time>2026-04-14T17:05:57.915Z</time></trkpt><trkpt lat="42.6032" lon="-7.1948117"><ele>565.0</ele><time>2026-04-14T17:05:58.914Z</time></trkpt><trkpt lat="42.6033183" lon="-7.19482"><ele>565.0</ele><time>2026-04-14T17:05:59.915Z</time></trkpt><trkpt lat="42.60344" lon="-7.1947933"><ele>565.0</ele><time>2026-04-14T17:06:00.914Z</time></trkpt><trkpt lat="42.60357" lon="-7.19473"><ele>565.0</ele><time>2026-04-14T17:06:01.914Z</time></trkpt><trkpt lat="42.6036983" lon="-7.19467"><ele>565.0</ele><time>2026-04-14T17:06:02.915Z</time></trkpt><trkpt lat="42.6038233" lon="-7.1946017"><ele>559.0</ele><time>2026-04-14T17:06:03.915Z</time></trkpt><trkpt lat="42.6039367" lon="-7.1945167"><ele>553.0</ele><time>2026-04-14T17:06:04.914Z</time></trkpt><trkpt lat="42.604035" lon="-7.1944"><ele>547.0</ele><time>2026-04-14T17:06:05.914Z</time></trkpt><trkpt lat="42.6041283" lon="-7.1942483"><ele>541.0</ele><time>2026-04-14T17:06:06.914Z</time></trkpt><trkpt lat="42.6042167" lon="-7.194095"><ele>539.5</ele><time>2026-04-14T17:06:07.914Z</time></trkpt><trkpt lat="42.6043117" lon="-7.1939433"><ele>538.0</ele><time>2026-04-14T17:06:08.914Z</time></trkpt><trkpt lat="42.6044167" lon="-7.1938017"><ele>536.5</ele><time>2026-04-14T17:06:09.915Z</time></trkpt><trkpt lat="42.6045217" lon="-7.1936617"><ele>535.0</ele><time>2026-04-14T17:06:10.914Z</time></trkpt><trkpt lat="42.60463" lon="-7.193555"><ele>535.0</ele><time>2026-04-14T17:06:11.915Z</time></trkpt><trkpt lat="42.6047533" lon="-7.1934583"><ele>535.0</ele><time>2026-04-14T17:06:12.915Z</time></trkpt><trkpt lat="42.6048733" lon="-7.1933733"><ele>535.0</ele><time>2026-04-14T17:06:13.915Z</time></trkpt><trkpt lat="42.6049883" lon="-7.193265"><ele>535.0</ele><time>2026-04-14T17:06:14.916Z</time></trkpt><trkpt lat="42.60508" lon="-7.1931133"><ele>531.5</ele><time>2026-04-14T17:06:15.915Z</time></trkpt><trkpt lat="42.6051533" lon="-7.192945"><ele>528.0</ele><time>2026-04-14T17:06:16.915Z</time></trkpt><trkpt lat="42.60522" lon="-7.1927633"><ele>524.5</ele><time>2026-04-14T17:06:17.916Z</time></trkpt><trkpt lat="42.605285" lon="-7.1925733"><ele>521.0</ele><time>2026-04-14T17:06:18.915Z</time></trkpt><trkpt lat="42.605345" lon="-7.1923783"><ele>527.6666666666666</ele><time>2026-04-14T17:06:19.916Z</time></trkpt><trkpt lat="42.6054033" lon="-7.1921833"><ele>534.3333333333334</ele><time>2026-04-14T17:06:20.916Z</time></trkpt><trkpt lat="42.6054533" lon="-7.191985"><ele>541.0</ele><time>2026-04-14T17:06:21.915Z</time></trkpt><trkpt lat="42.6055" lon="-7.191785"><ele>541.0</ele><time>2026-04-14T17:06:22.916Z</time></trkpt><trkpt lat="42.6055467" lon="-7.1915917"><ele>541.0</ele><time>2026-04-14T17:06:23.916Z</time></trkpt><trkpt lat="42.6055917" lon="-7.1913983"><ele>541.0</ele><time>2026-04-14T17:06:24.915Z</time></trkpt><trkpt lat="42.605635" lon="-7.191205"><ele>541.0</ele><time>2026-04-14T17:06:25.916Z</time></trkpt><trkpt lat="42.60567" lon="-7.1910033"><ele>546.3333333333334</ele><time>2026-04-14T17:06:26.915Z</time></trkpt><trkpt lat="42.6056883" lon="-7.1907933"><ele>551.6666666666666</ele><time>2026-04-14T17:06:27.916Z</time></trkpt><trkpt lat="42.6057133" lon="-7.1905917"><ele>557.0</ele><time>2026-04-14T17:06:28.916Z</time></trkpt><trkpt lat="42.60575" lon="-7.1903867"><ele>559.6666666666666</ele><time>2026-04-14T17:06:29.916Z</time></trkpt><trkpt lat="42.6057767" lon="-7.1901733"><ele>562.3333333333334</ele><time>2026-04-14T17:06:30.916Z</time></trkpt><trkpt lat="42.6058067" lon="-7.1899683"><ele>565.0</ele><time>2026-04-14T17:06:31.916Z</time></trkpt><trkpt lat="42.60583" lon="-7.1897433"><ele>566.6666666666667</ele><time>2026-04-14T17:06:32.916Z</time></trkpt><trkpt lat="42.6058383" lon="-7.189515"><ele>568.3333333333334</ele><time>2026-04-14T17:06:33.916Z</time></trkpt><trkpt lat="42.605835" lon="-7.1892717"><ele>570.0</ele><time>2026-04-14T17:06:34.916Z</time></trkpt><trkpt lat="42.6058233" lon="-7.1890533"><ele>572.0</ele><time>2026-04-14T17:06:35.915Z</time></trkpt><trkpt lat="42.605805" lon="-7.18885"><ele>574.0</ele><time>2026-04-14T17:06:36.915Z</time></trkpt><trkpt lat="42.605775" lon="-7.1886833"><ele>576.0</ele><time>2026-04-14T17:06:37.916Z</time></trkpt><trkpt lat="42.6057583" lon="-7.1885483"><ele>578.0</ele><time>2026-04-14T17:06:38.915Z</time></trkpt><trkpt lat="42.6057567" lon="-7.1884433"><ele>578.0</ele><time>2026-04-14T17:06:39.916Z</time></trkpt><trkpt lat="42.6058" lon="-7.1883017"><ele>578.0</ele><time>2026-04-14T17:06:41.916Z</time></trkpt><trkpt lat="42.6058683" lon="-7.1882633"><ele>578.0</ele><time>2026-04-14T17:06:42.916Z</time></trkpt><trkpt lat="42.6059517" lon="-7.1882433"><ele>578.0</ele><time>2026-04-14T17:06:43.915Z</time></trkpt><trkpt lat="42.6060517" lon="-7.188285"><ele>578.0</ele><time>2026-04-14T17:06:44.916Z</time></trkpt><trkpt lat="42.6061733" lon="-7.1883633"><ele>580.5</ele><time>2026-04-14T17:06:45.915Z</time></trkpt><trkpt lat="42.6062933" lon="-7.1884617"><ele>583.0</ele><time>2026-04-14T17:06:46.916Z</time></trkpt><trkpt lat="42.6064167" lon="-7.1885683"><ele>585.5</ele><time>2026-04-14T17:06:47.915Z</time></trkpt><trkpt lat="42.6065133" lon="-7.1886667"><ele>588.0</ele><time>2026-04-14T17:06:48.916Z</time></trkpt><trkpt lat="42.606605" lon="-7.1887633"><ele>588.0</ele><time>2026-04-14T17:06:49.916Z</time></trkpt><trkpt lat="42.6067" lon="-7.1888467"><ele>588.0</ele><time>2026-04-14T17:06:50.916Z</time></trkpt><trkpt lat="42.6068067" lon="-7.1889033"><ele>588.0</ele><time>2026-04-14T17:06:51.916Z</time></trkpt><trkpt lat="42.6069233" lon="-7.188945"><ele>588.0</ele><time>2026-04-14T17:06:52.916Z</time></trkpt><trkpt lat="42.607045" lon="-7.1889733"><ele>590.5</ele><time>2026-04-14T17:06:53.916Z</time></trkpt><trkpt lat="42.607165" lon="-7.1889917"><ele>593.0</ele><time>2026-04-14T17:06:54.915Z</time></trkpt><trkpt lat="42.6072933" lon="-7.188985"><ele>595.5</ele><time>2026-04-14T17:06:55.916Z</time></trkpt><trkpt lat="42.607425" lon="-7.1889567"><ele>598.0</ele><time>2026-04-14T17:06:56.916Z</time></trkpt><trkpt lat="42.6075583" lon="-7.1889133"><ele>598.0</ele><time>2026-04-14T17:06:57.915Z</time></trkpt><trkpt lat="42.6076967" lon="-7.18885"><ele>598.0</ele><time>2026-04-14T17:06:58.916Z</time></trkpt><trkpt lat="42.607825" lon="-7.1887767"><ele>598.0</ele><time>2026-04-14T17:06:59.915Z</time></trkpt><trkpt lat="42.6079517" lon="-7.1886883"><ele>598.0</ele><time>2026-04-14T17:07:00.916Z</time></trkpt><trkpt lat="42.60807" lon="-7.18859"><ele>597.75</ele><time>2026-04-14T17:07:01.915Z</time></trkpt><trkpt lat="42.6081633" lon="-7.188445"><ele>597.5</ele><time>2026-04-14T17:07:02.916Z</time></trkpt><trkpt lat="42.60823" lon="-7.1882833"><ele>597.25</ele><time>2026-04-14T17:07:03.916Z</time></trkpt><trkpt lat="42.6082933" lon="-7.18811"><ele>597.0</ele><time>2026-04-14T17:07:04.915Z</time></trkpt><trkpt lat="42.6083567" lon="-7.1879267"><ele>597.0</ele><time>2026-04-14T17:07:05.915Z</time></trkpt><trkpt lat="42.6084083" lon="-7.18774"><ele>597.0</ele><time>2026-04-14T17:07:06.916Z</time></trkpt><trkpt lat="42.60845" lon="-7.1875483"><ele>597.0</ele><time>2026-04-14T17:07:07.916Z</time></trkpt><trkpt lat="42.608495" lon="-7.187355"><ele>597.0</ele><time>2026-04-14T17:07:08.915Z</time></trkpt><trkpt lat="42.6085333" lon="-7.18716"><ele>599.25</ele><time>2026-04-14T17:07:09.915Z</time></trkpt><trkpt lat="42.608575" lon="-7.18697"><ele>601.5</ele><time>2026-04-14T17:07:10.915Z</time></trkpt><trkpt lat="42.60862" lon="-7.186785"><ele>603.75</ele><time>2026-04-14T17:07:11.916Z</time></trkpt><trkpt lat="42.6086633" lon="-7.1866017"><ele>606.0</ele><time>2026-04-14T17:07:12.915Z</time></trkpt><trkpt lat="42.60873" lon="-7.1864283"><ele>578.0</ele><time>2026-04-14T17:07:13.916Z</time></trkpt><trkpt lat="42.6057583" lon="-7.1885483"><ele>578.0</ele><time>2026-04-14T17:06:38.915Z</time></trkpt><trkpt lat="42.6057567" lon="-7.1884433"><ele>578.0</ele><time>2026-04-14T17:06:39.916Z</time></trkpt><trkpt lat="42.6058" lon="-7.1883017"><ele>578.0</ele><time>2026-04-14T17:06:41.916Z</time></trkpt><trkpt lat="42.6058683" lon="-7.1882633"><ele>578.0</ele><time>2026-04-14T17:06:42.916Z</time></trkpt><trkpt lat="42.6059517" lon="-7.1882433"><ele>578.0</ele><time>2026-04-14T17:06:43.915Z</time></trkpt><trkpt lat="42.6060517" lon="-7.188285"><ele>580.5</ele><time>2026-04-14T17:06:44.916Z</time></trkpt><trkpt lat="42.6061733" lon="-7.1883633"><ele>583.0</ele><time>2026-04-14T17:06:45.915Z</time></trkpt><trkpt lat="42.6062933" lon="-7.1884617"><ele>585.5</ele><time>2026-04-14T17:06:46.916Z</time></trkpt><trkpt lat="42.6064167" lon="-7.1885683"><ele>588.0</ele><time>2026-04-14T17:06:47.915Z</time></trkpt><trkpt lat="42.6065133" lon="-7.1886667"><ele>588.0</ele><time>2026-04-14T17:06:48.916Z</time></trkpt><trkpt lat="42.606605" lon="-7.1887633"><ele>588.0</ele><time>2026-04-14T17:06:49.916Z</time></trkpt><trkpt lat="42.6067" lon="-7.1888467"><ele>588.0</ele><time>2026-04-14T17:06:50.916Z</time></trkpt><trkpt lat="42.6068067" lon="-7.1889033"><ele>588.0</ele><time>2026-04-14T17:06:51.916Z</time></trkpt><trkpt lat="42.6069233" lon="-7.188945"><ele>590.5</ele><time>2026-04-14T17:06:52.916Z</time></trkpt><trkpt lat="42.607045" lon="-7.1889733"><ele>593.0</ele><time>2026-04-14T17:06:53.916Z</time></trkpt><trkpt lat="42.607165" lon="-7.1889917"><ele>595.5</ele><time>2026-04-14T17:06:54.915Z</time></trkpt><trkpt lat="42.6072933" lon="-7.188985"><ele>598.0</ele><time>2026-04-14T17:06:55.916Z</time></trkpt><trkpt lat="42.607425" lon="-7.1889567"><ele>598.0</ele><time>2026-04-14T17:06:56.916Z</time></trkpt><trkpt lat="42.6075583" lon="-7.1889133"><ele>598.0</ele><time>2026-04-14T17:06:57.915Z</time></trkpt><trkpt lat="42.6076967" lon="-7.18885"><ele>598.0</ele><time>2026-04-14T17:06:58.916Z</time></trkpt><trkpt lat="42.607825" lon="-7.1887767"><ele>598.0</ele><time>2026-04-14T17:06:59.915Z</time></trkpt><trkpt lat="42.6079517" lon="-7.1886883"><ele>597.75</ele><time>2026-04-14T17:07:00.916Z</time></trkpt><trkpt lat="42.60807" lon="-7.18859"><ele>597.5</ele><time>2026-04-14T17:07:01.915Z</time></trkpt><trkpt lat="42.6081633" lon="-7.188445"><ele>597.25</ele><time>2026-04-14T17:07:02.916Z</time></trkpt><trkpt lat="42.60823" lon="-7.1882833"><ele>597.0</ele><time>2026-04-14T17:07:03.916Z</time></trkpt><trkpt lat="42.6082933" lon="-7.18811"><ele>597.0</ele><time>2026-04-14T17:07:04.915Z</time></trkpt><trkpt lat="42.6083567" lon="-7.1879267"><ele>597.0</ele><time>2026-04-14T17:07:05.915Z</time></trkpt><trkpt lat="42.6084083" lon="-7.18774"><ele>597.0</ele><time>2026-04-14T17:07:06.916Z</time></trkpt><trkpt lat="42.60845" lon="-7.1875483"><ele>597.0</ele><time>2026-04-14T17:07:07.916Z</time></trkpt><trkpt lat="42.608495" lon="-7.187355"><ele>601.0</ele><time>2026-04-14T17:07:08.915Z</time></trkpt><trkpt lat="42.6085333" lon="-7.18716"><ele>605.0</ele><time>2026-04-14T17:07:09.915Z</time></trkpt><trkpt lat="42.608575" lon="-7.18697"><ele>609.0</ele><time>2026-04-14T17:07:10.915Z</time></trkpt><trkpt lat="42.60862" lon="-7.186785"><ele>613.0</ele><time>2026-04-14T17:07:11.916Z</time></trkpt><trkpt lat="42.6086633" lon="-7.1866017"><ele>611.25</ele><time>2026-04-14T17:07:12.915Z</time></trkpt><trkpt lat="42.60873" lon="-7.1864283"><ele>609.5</ele><time>2026-04-14T17:07:13.916Z</time></trkpt><trkpt lat="42.608805" lon="-7.1862667"><ele>607.75</ele><time>2026-04-14T17:07:14.915Z</time></trkpt><trkpt lat="42.6088867" lon="-7.1861367"><ele>606.0</ele><time>2026-04-14T17:07:15.916Z</time></trkpt><trkpt lat="42.608995" lon="-7.18603"><ele>606.0</ele><time>2026-04-14T17:07:16.916Z</time></trkpt><trkpt lat="42.609115" lon="-7.1859433"><ele>606.0</ele><time>2026-04-14T17:07:17.916Z</time></trkpt><trkpt lat="42.60921" lon="-7.1858633"><ele>606.0</ele><time>2026-04-14T17:07:18.916Z</time></trkpt><trkpt lat="42.6093" lon="-7.1857983"><ele>606.0</ele><time>2026-04-14T17:07:19.915Z</time></trkpt><trkpt lat="42.60938" lon="-7.185715"><ele>602.5</ele><time>2026-04-14T17:07:20.915Z</time></trkpt><trkpt lat="42.609465" lon="-7.185625"><ele>599.0</ele><time>2026-04-14T17:07:21.915Z</time></trkpt><trkpt lat="42.6095383" lon="-7.18552"><ele>595.5</ele><time>2026-04-14T17:07:22.916Z</time></trkpt><trkpt lat="42.60962" lon="-7.1853983"><ele>592.0</ele><time>2026-04-14T17:07:23.916Z</time></trkpt><trkpt lat="42.6097083" lon="-7.1852717"><ele>592.0</ele><time>2026-04-14T17:07:24.916Z</time></trkpt><trkpt lat="42.6098" lon="-7.1851183"><ele>592.0</ele><time>2026-04-14T17:07:25.916Z</time></trkpt><trkpt lat="42.6098817" lon="-7.18496"><ele>592.0</ele><time>2026-04-14T17:07:26.916Z</time></trkpt><trkpt lat="42.609965" lon="-7.1848"><ele>592.0</ele><time>2026-04-14T17:07:27.916Z</time></trkpt><trkpt lat="42.6100333" lon="-7.1846267"><ele>596.75</ele><time>2026-04-14T17:07:28.915Z</time></trkpt><trkpt lat="42.610085" lon="-7.1844467"><ele>601.5</ele><time>2026-04-14T17:07:29.916Z</time></trkpt><trkpt lat="42.61014" lon="-7.18428"><ele>606.25</ele><time>2026-04-14T17:07:30.916Z</time></trkpt><trkpt lat="42.6101933" lon="-7.184125"><ele>611.0</ele><time>2026-04-14T17:07:31.915Z</time></trkpt><trkpt lat="42.6102667" lon="-7.1839883"><ele>604.5</ele><time>2026-04-14T17:07:32.915Z</time></trkpt><trkpt lat="42.6103667" lon="-7.1838833"><ele>598.0</ele><time>2026-04-14T17:07:33.915Z</time></trkpt><trkpt lat="42.61048" lon="-7.1837933"><ele>591.5</ele><time>2026-04-14T17:07:34.915Z</time></trkpt><trkpt lat="42.610595" lon="-7.1836833"><ele>585.0</ele><time>2026-04-14T17:07:35.915Z</time></trkpt><trkpt lat="42.6107217" lon="-7.1835483"><ele>585.0</ele><time>2026-04-14T17:07:36.916Z</time></trkpt><trkpt lat="42.6108417" lon="-7.1833767"><ele>585.0</ele><time>2026-04-14T17:07:37.915Z</time></trkpt><trkpt lat="42.6109767" lon="-7.1832033"><ele>585.0</ele><time>2026-04-14T17:07:38.915Z</time></trkpt><trkpt lat="42.6111183" lon="-7.1830167"><ele>582.6666666666666</ele><time>2026-04-14T17:07:39.916Z</time></trkpt><trkpt lat="42.6112583" lon="-7.1828433"><ele>580.3333333333333</ele><time>2026-04-14T17:07:40.916Z</time></trkpt><trkpt lat="42.611405" lon="-7.1826967"><ele>578.0</ele><time>2026-04-14T17:07:41.916Z</time></trkpt><trkpt lat="42.61152" lon="-7.1825367"><ele>578.0</ele><time>2026-04-14T17:07:42.916Z</time></trkpt><trkpt lat="42.6116233" lon="-7.1823783"><ele>578.0</ele><time>2026-04-14T17:07:43.916Z</time></trkpt><trkpt lat="42.611685" lon="-7.1822083"><ele>578.0</ele><time>2026-04-14T17:07:44.916Z</time></trkpt><trkpt lat="42.6117117" lon="-7.1820483"><ele>578.0</ele><time>2026-04-14T17:07:45.915Z</time></trkpt><trkpt lat="42.6117133" lon="-7.181895"><ele>578.5</ele><time>2026-04-14T17:07:46.915Z</time></trkpt><trkpt lat="42.611675" lon="-7.1817217"><ele>579.0</ele><time>2026-04-14T17:07:47.916Z</time></trkpt><trkpt lat="42.6116083" lon="-7.1815483"><ele>579.5</ele><time>2026-04-14T17:07:48.915Z</time></trkpt><trkpt lat="42.6115133" lon="-7.1813683"><ele>580.0</ele><time>2026-04-14T17:07:49.915Z</time></trkpt><trkpt lat="42.6114067" lon="-7.181195"><ele>581.3333333333334</ele><time>2026-04-14T17:07:50.916Z</time></trkpt><trkpt lat="42.61131" lon="-7.1810083"><ele>582.6666666666666</ele><time>2026-04-14T17:07:51.915Z</time></trkpt><trkpt lat="42.6112233" lon="-7.180795"><ele>584.0</ele><time>2026-04-14T17:07:52.916Z</time></trkpt><trkpt lat="42.6111483" lon="-7.1805867"><ele>584.0</ele><time>2026-04-14T17:07:53.915Z</time></trkpt><trkpt lat="42.6110783" lon="-7.1803733"><ele>584.0</ele><time>2026-04-14T17:07:54.916Z</time></trkpt><trkpt lat="42.6110083" lon="-7.1801717"><ele>584.0</ele><time>2026-04-14T17:07:55.915Z</time></trkpt><trkpt lat="42.6109517" lon="-7.1799883"><ele>580.25</ele><time>2026-04-14T17:07:56.916Z</time></trkpt><trkpt lat="42.6109083" lon="-7.1798283"><ele>576.5</ele><time>2026-04-14T17:07:57.916Z</time></trkpt><trkpt lat="42.61088" lon="-7.17967"><ele>572.75</ele><time>2026-04-14T17:07:58.916Z</time></trkpt><trkpt lat="42.6108883" lon="-7.1795033"><ele>569.0</ele><time>2026-04-14T17:07:59.916Z</time></trkpt><trkpt lat="42.6109033" lon="-7.1793267"><ele>569.0</ele><time>2026-04-14T17:08:00.916Z</time></trkpt><trkpt lat="42.610895" lon="-7.1791533"><ele>569.0</ele><time>2026-04-14T17:08:01.915Z</time></trkpt><trkpt lat="42.6108583" lon="-7.1789783"><ele>569.0</ele><time>2026-04-14T17:08:02.916Z</time></trkpt><trkpt lat="42.6107983" lon="-7.1788133"><ele>569.0</ele><time>2026-04-14T17:08:03.916Z</time></trkpt><trkpt lat="42.61072" lon="-7.17866"><ele>561.6666666666666</ele><time>2026-04-14T17:08:04.915Z</time></trkpt><trkpt lat="42.610615" lon="-7.1785133"><ele>554.3333333333334</ele><time>2026-04-14T17:08:05.915Z</time></trkpt><trkpt lat="42.6105067" lon="-7.1783683"><ele>547.0</ele><time>2026-04-14T17:08:06.915Z</time></trkpt><trkpt lat="42.61041" lon="-7.17821"><ele>542.3333333333334</ele><time>2026-04-14T17:08:07.915Z</time></trkpt><trkpt lat="42.6103267" lon="-7.1780283"><ele>537.6666666666666</ele><time>2026-04-14T17:08:08.916Z</time></trkpt><trkpt lat="42.6102667" lon="-7.1778117"><ele>533.0</ele><time>2026-04-14T17:08:09.916Z</time></trkpt><trkpt lat="42.6102183" lon="-7.1776"><ele>539.6666666666666</ele><time>2026-04-14T17:08:10.915Z</time></trkpt><trkpt lat="42.6101683" lon="-7.1773933"><ele>546.3333333333334</ele><time>2026-04-14T17:08:11.915Z</time></trkpt><trkpt lat="42.6101333" lon="-7.17719"><ele>553.0</ele><time>2026-04-14T17:08:12.915Z</time></trkpt><trkpt lat="42.6101017" lon="-7.1769917"><ele>553.0</ele><time>2026-04-14T17:08:13.915Z</time></trkpt><trkpt lat="42.6100683" lon="-7.176805"><ele>553.0</ele><time>2026-04-14T17:08:14.916Z</time></trkpt><trkpt lat="42.6100333" lon="-7.1766583"><ele>553.0</ele><time>2026-04-14T17:08:15.916Z</time></trkpt><trkpt lat="42.60998" lon="-7.1765583"><ele>553.0</ele><time>2026-04-14T17:08:16.916Z</time></trkpt><trkpt lat="42.6098917" lon="-7.176475"><ele>551.25</ele><time>2026-04-14T17:08:17.916Z</time></trkpt><trkpt lat="42.6097867" lon="-7.1764033"><ele>549.5</ele><time>2026-04-14T17:08:18.916Z</time></trkpt><trkpt lat="42.6096817" lon="-7.176335"><ele>547.75</ele><time>2026-04-14T17:08:19.915Z</time></trkpt><trkpt lat="42.60959" lon="-7.1762517"><ele>546.0</ele><time>2026-04-14T17:08:20.916Z</time></trkpt><trkpt lat="42.6095017" lon="-7.1761583"><ele>547.75</ele><time>2026-04-14T17:08:21.916Z</time></trkpt><trkpt lat="42.60942" lon="-7.176035"><ele>549.5</ele><time>2026-04-14T17:08:22.915Z</time></trkpt><trkpt lat="42.6093533" lon="-7.1758883"><ele>551.25</ele><time>2026-04-14T17:08:23.916Z</time></trkpt><trkpt lat="42.6092967" lon="-7.1757317"><ele>553.0</ele><time>2026-04-14T17:08:24.916Z</time></trkpt><trkpt lat="42.6092483" lon="-7.1756033"><ele>553.0</ele><time>2026-04-14T17:08:25.915Z</time></trkpt><trkpt lat="42.6091983" lon="-7.1754633"><ele>553.0</ele><time>2026-04-14T17:08:26.915Z</time></trkpt><trkpt lat="42.60917" lon="-7.17534"><ele>553.0</ele><time>2026-04-14T17:08:27.915Z</time></trkpt><trkpt lat="42.6091583" lon="-7.1752333"><ele>553.0</ele><time>2026-04-14T17:08:28.915Z</time></trkpt><trkpt lat="42.60916" lon="-7.175135"><ele>553.0</ele><time>2026-04-14T17:08:29.916Z</time></trkpt><trkpt lat="42.6091817" lon="-7.1750517"><ele>553.0</ele><time>2026-04-14T17:08:30.915Z</time></trkpt><trkpt lat="42.60922" lon="-7.1749733"><ele>553.0</ele><time>2026-04-14T17:08:31.915Z</time></trkpt><trkpt lat="42.6092717" lon="-7.1749017"><ele>553.0</ele><time>2026-04-14T17:08:32.915Z</time></trkpt><trkpt lat="42.609345" lon="-7.17486"><ele>553.0</ele><time>2026-04-14T17:08:33.915Z</time></trkpt><trkpt lat="42.6094533" lon="-7.1748617"><ele>553.0</ele><time>2026-04-14T17:08:34.915Z</time></trkpt><trkpt lat="42.6095617" lon="-7.1749067"><ele>553.0</ele><time>2026-04-14T17:08:35.916Z</time></trkpt><trkpt lat="42.6096517" lon="-7.174985"><ele>554.4</ele><time>2026-04-14T17:08:36.915Z</time></trkpt><trkpt lat="42.6097333" lon="-7.1750883"><ele>555.8</ele><time>2026-04-14T17:08:37.915Z</time></trkpt><trkpt lat="42.6097867" lon="-7.1752"><ele>557.2</ele><time>2026-04-14T17:08:38.915Z</time></trkpt><trkpt lat="42.609815" lon="-7.1753183"><ele>558.6</ele><time>2026-04-14T17:08:39.916Z</time></trkpt><trkpt lat="42.609825" lon="-7.175445"><ele>560.0</ele><time>2026-04-14T17:08:40.916Z</time></trkpt><trkpt lat="42.609835" lon="-7.1755583"><ele>581.0</ele><time>2026-04-14T17:08:41.915Z</time></trkpt><trkpt lat="42.6102183" lon="-7.1776"><ele>581.0</ele><time>2026-04-14T17:08:10.915Z</time></trkpt><trkpt lat="42.6101683" lon="-7.1773933"><ele>581.0</ele><time>2026-04-14T17:08:11.915Z</time></trkpt><trkpt lat="42.6101333" lon="-7.17719"><ele>581.0</ele><time>2026-04-14T17:08:12.915Z</time></trkpt><trkpt lat="42.6101017" lon="-7.1769917"><ele>574.0</ele><time>2026-04-14T17:08:13.915Z</time></trkpt><trkpt lat="42.6100683" lon="-7.176805"><ele>567.0</ele><time>2026-04-14T17:08:14.916Z</time></trkpt><trkpt lat="42.6100333" lon="-7.1766583"><ele>560.0</ele><time>2026-04-14T17:08:15.916Z</time></trkpt><trkpt lat="42.60998" lon="-7.1765583"><ele>553.0</ele><time>2026-04-14T17:08:16.916Z</time></trkpt><trkpt lat="42.6098917" lon="-7.176475"><ele>551.25</ele><time>2026-04-14T17:08:17.916Z</time></trkpt><trkpt lat="42.6097867" lon="-7.1764033"><ele>549.5</ele><time>2026-04-14T17:08:18.916Z</time></trkpt><trkpt lat="42.6096817" lon="-7.176335"><ele>547.75</ele><time>2026-04-14T17:08:19.915Z</time></trkpt><trkpt lat="42.60959" lon="-7.1762517"><ele>546.0</ele><time>2026-04-14T17:08:20.916Z</time></trkpt><trkpt lat="42.6095017" lon="-7.1761583"><ele>547.75</ele><time>2026-04-14T17:08:21.916Z</time></trkpt><trkpt lat="42.60942" lon="-7.176035"><ele>549.5</ele><time>2026-04-14T17:08:22.915Z</time></trkpt><trkpt lat="42.6093533" lon="-7.1758883"><ele>551.25</ele><time>2026-04-14T17:08:23.916Z</time></trkpt><trkpt lat="42.6092967" lon="-7.1757317"><ele>553.0</ele><time>2026-04-14T17:08:24.916Z</time></trkpt><trkpt lat="42.6092483" lon="-7.1756033"><ele>553.0</ele><time>2026-04-14T17:08:25.915Z</time></trkpt><trkpt lat="42.6091983" lon="-7.1754633"><ele>553.0</ele><time>2026-04-14T17:08:26.915Z</time></trkpt><trkpt lat="42.60917" lon="-7.17534"><ele>553.0</ele><time>2026-04-14T17:08:27.915Z</time></trkpt><trkpt lat="42.6091583" lon="-7.1752333"><ele>553.0</ele><time>2026-04-14T17:08:28.915Z</time></trkpt><trkpt lat="42.60916" lon="-7.175135"><ele>553.0</ele><time>2026-04-14T17:08:29.916Z</time></trkpt><trkpt lat="42.6091817" lon="-7.1750517"><ele>553.0</ele><time>2026-04-14T17:08:30.915Z</time></trkpt><trkpt lat="42.60922" lon="-7.1749733"><ele>553.0</ele><time>2026-04-14T17:08:31.915Z</time></trkpt><trkpt lat="42.6092717" lon="-7.1749017"><ele>553.0</ele><time>2026-04-14T17:08:32.915Z</time></trkpt><trkpt lat="42.609345" lon="-7.17486"><ele>553.0</ele><time>2026-04-14T17:08:33.915Z</time></trkpt><trkpt lat="42.6094533" lon="-7.1748617"><ele>553.0</ele><time>2026-04-14T17:08:34.915Z</time></trkpt><trkpt lat="42.6095617" lon="-7.1749067"><ele>553.0</ele><time>2026-04-14T17:08:35.916Z</time></trkpt><trkpt lat="42.6096517" lon="-7.174985"><ele>554.4</ele><time>2026-04-14T17:08:36.915Z</time></trkpt><trkpt lat="42.6097333" lon="-7.1750883"><ele>555.8</ele><time>2026-04-14T17:08:37.915Z</time></trkpt><trkpt lat="42.6097867" lon="-7.1752"><ele>557.2</ele><time>2026-04-14T17:08:38.915Z</time></trkpt><trkpt lat="42.609815" lon="-7.1753183"><ele>558.6</ele><time>2026-04-14T17:08:39.916Z</time></trkpt><trkpt lat="42.609825" lon="-7.175445"><ele>560.0</ele><time>2026-04-14T17:08:40.916Z</time></trkpt><trkpt lat="42.609835" lon="-7.1755583"><ele>560.0</ele><time>2026-04-14T17:08:41.915Z</time></trkpt><trkpt lat="42.6098767" lon="-7.17564"><ele>560.0</ele><time>2026-04-14T17:08:42.915Z</time></trkpt><trkpt lat="42.60994" lon="-7.175715"><ele>560.0</ele><time>2026-04-14T17:08:43.915Z</time></trkpt><trkpt lat="42.6100233" lon="-7.1757667"><ele>560.0</ele><time>2026-04-14T17:08:44.915Z</time></trkpt><trkpt lat="42.610125" lon="-7.1757983"><ele>560.0</ele><time>2026-04-14T17:08:45.916Z</time></trkpt><trkpt lat="42.6102233" lon="-7.1758383"><ele>562.75</ele><time>2026-04-14T17:08:46.915Z</time></trkpt><trkpt lat="42.6103117" lon="-7.1759"><ele>565.5</ele><time>2026-04-14T17:08:47.915Z</time></trkpt><trkpt lat="42.61039" lon="-7.1759967"><ele>568.25</ele><time>2026-04-14T17:08:48.916Z</time></trkpt><trkpt lat="42.6104583" lon="-7.17613"><ele>571.0</ele><time>2026-04-14T17:08:49.916Z</time></trkpt><trkpt lat="42.6105117" lon="-7.17629"><ele>571.0</ele><time>2026-04-14T17:08:50.915Z</time></trkpt><trkpt lat="42.6105617" lon="-7.176455"><ele>571.0</ele><time>2026-04-14T17:08:51.916Z</time></trkpt><trkpt lat="42.6106017" lon="-7.1766383"><ele>571.0</ele><time>2026-04-14T17:08:52.915Z</time></trkpt><trkpt lat="42.6106533" lon="-7.1768233"><ele>571.0</ele><time>2026-04-14T17:08:53.915Z</time></trkpt><trkpt lat="42.6107183" lon="-7.1770017"><ele>563.5</ele><time>2026-04-14T17:08:54.915Z</time></trkpt><trkpt lat="42.6107867" lon="-7.1771617"><ele>556.0</ele><time>2026-04-14T17:08:55.915Z</time></trkpt><trkpt lat="42.61086" lon="-7.1773017"><ele>548.5</ele><time>2026-04-14T17:08:56.916Z</time></trkpt><trkpt lat="42.6109417" lon="-7.177415"><ele>541.0</ele><time>2026-04-14T17:08:57.916Z</time></trkpt><trkpt lat="42.6110417" lon="-7.1775033"><ele>540.75</ele><time>2026-04-14T17:08:58.915Z</time></trkpt><trkpt lat="42.6111667" lon="-7.1775717"><ele>540.5</ele><time>2026-04-14T17:08:59.915Z</time></trkpt><trkpt lat="42.61131" lon="-7.1776333"><ele>540.25</ele><time>2026-04-14T17:09:00.915Z</time></trkpt><trkpt lat="42.6114567" lon="-7.1777017"><ele>540.0</ele><time>2026-04-14T17:09:01.916Z</time></trkpt><trkpt lat="42.611595" lon="-7.1777733"><ele>540.0</ele><time>2026-04-14T17:09:02.915Z</time></trkpt><trkpt lat="42.6117067" lon="-7.1778633"><ele>540.0</ele><time>2026-04-14T17:09:03.915Z</time></trkpt><trkpt lat="42.6118033" lon="-7.1779317"><ele>540.0</ele><time>2026-04-14T17:09:04.916Z</time></trkpt><trkpt lat="42.61188" lon="-7.1780167"><ele>540.0</ele><time>2026-04-14T17:09:05.916Z</time></trkpt><trkpt lat="42.6119333" lon="-7.1781233"><ele>540.0</ele><time>2026-04-14T17:09:06.915Z</time></trkpt><trkpt lat="42.6119717" lon="-7.1782567"><ele>535.0</ele><time>2026-04-14T17:09:07.916Z</time></trkpt><trkpt lat="42.611985" lon="-7.1784033"><ele>530.0</ele><time>2026-04-14T17:09:08.915Z</time></trkpt><trkpt lat="42.6119783" lon="-7.1785717"><ele>525.0</ele><time>2026-04-14T17:09:09.915Z</time></trkpt><trkpt lat="42.611965" lon="-7.1787367"><ele>520.0</ele><time>2026-04-14T17:09:10.916Z</time></trkpt><trkpt lat="42.6119517" lon="-7.178905"><ele>521.2</ele><time>2026-04-14T17:09:11.915Z</time></trkpt><trkpt lat="42.6119467" lon="-7.1790583"><ele>522.4</ele><time>2026-04-14T17:09:12.916Z</time></trkpt><trkpt lat="42.6119733" lon="-7.17919"><ele>523.6</ele><time>2026-04-14T17:09:13.916Z</time></trkpt><trkpt lat="42.61203" lon="-7.179305"><ele>524.8</ele><time>2026-04-14T17:09:14.916Z</time></trkpt><trkpt lat="42.6121133" lon="-7.1794167"><ele>526.0</ele><time>2026-04-14T17:09:15.915Z</time></trkpt><trkpt lat="42.6122167" lon="-7.1795367"><ele>527.0</ele><time>2026-04-14T17:09:16.915Z</time></trkpt><trkpt lat="42.6123383" lon="-7.1796583"><ele>528.0</ele><time>2026-04-14T17:09:17.915Z</time></trkpt><trkpt lat="42.6124483" lon="-7.179785"><ele>529.0</ele><time>2026-04-14T17:09:18.915Z</time></trkpt><trkpt lat="42.6125783" lon="-7.1799167"><ele>526.3333333333334</ele><time>2026-04-14T17:09:19.915Z</time></trkpt><trkpt lat="42.6126883" lon="-7.1800667"><ele>523.6666666666666</ele><time>2026-04-14T17:09:20.915Z</time></trkpt><trkpt lat="42.6128" lon="-7.1802183"><ele>521.0</ele><time>2026-04-14T17:09:21.916Z</time></trkpt><trkpt lat="42.612905" lon="-7.1803767"><ele>521.0</ele><time>2026-04-14T17:09:22.915Z</time></trkpt><trkpt lat="42.61301" lon="-7.1805267"><ele>521.0</ele><time>2026-04-14T17:09:23.916Z</time></trkpt><trkpt lat="42.6131067" lon="-7.1806667"><ele>521.0</ele><time>2026-04-14T17:09:24.915Z</time></trkpt><trkpt lat="42.613205" lon="-7.1807817"><ele>521.0</ele><time>2026-04-14T17:09:25.916Z</time></trkpt><trkpt lat="42.613295" lon="-7.1808667"><ele>522.1666666666666</ele><time>2026-04-14T17:09:26.915Z</time></trkpt><trkpt lat="42.6133767" lon="-7.1809033"><ele>523.3333333333333</ele><time>2026-04-14T17:09:27.915Z</time></trkpt><trkpt lat="42.6134517" lon="-7.1809083"><ele>524.5</ele><time>2026-04-14T17:09:28.915Z</time></trkpt><trkpt lat="42.6135283" lon="-7.1808917"><ele>525.6666666666666</ele><time>2026-04-14T17:09:29.915Z</time></trkpt><trkpt lat="42.613605" lon="-7.1808483"><ele>526.8333333333334</ele><time>2026-04-14T17:09:30.916Z</time></trkpt><trkpt lat="42.6136817" lon="-7.1807867"><ele>528.0</ele><time>2026-04-14T17:09:31.915Z</time></trkpt><trkpt lat="42.6137767" lon="-7.18067"><ele>524.25</ele><time>2026-04-14T17:09:32.915Z</time></trkpt><trkpt lat="42.6138733" lon="-7.1805383"><ele>520.5</ele><time>2026-04-14T17:09:33.915Z</time></trkpt><trkpt lat="42.6139617" lon="-7.18043"><ele>516.75</ele><time>2026-04-14T17:09:34.916Z</time></trkpt><trkpt lat="42.6140417" lon="-7.1803117"><ele>513.0</ele><time>2026-04-14T17:09:35.915Z</time></trkpt><trkpt lat="42.6141117" lon="-7.1801733"><ele>513.0</ele><time>2026-04-14T17:09:36.916Z</time></trkpt><trkpt lat="42.614175" lon="-7.180005"><ele>513.0</ele><time>2026-04-14T17:09:37.915Z</time></trkpt><trkpt lat="42.61424" lon="-7.1798333"><ele>513.0</ele><time>2026-04-14T17:09:38.916Z</time></trkpt><trkpt lat="42.6143117" lon="-7.1796683"><ele>513.0</ele><time>2026-04-14T17:09:39.916Z</time></trkpt><trkpt lat="42.6144033" lon="-7.1795233"><ele>514.0</ele><time>2026-04-14T17:09:40.915Z</time></trkpt><trkpt lat="42.614515" lon="-7.1794"><ele>515.0</ele><time>2026-04-14T17:09:41.915Z</time></trkpt><trkpt lat="42.6146417" lon="-7.1793017"><ele>516.0</ele><time>2026-04-14T17:09:42.915Z</time></trkpt><trkpt lat="42.6147767" lon="-7.1792517"><ele>517.0</ele><time>2026-04-14T17:09:43.915Z</time></trkpt><trkpt lat="42.614915" lon="-7.1792583"><ele>517.0</ele><time>2026-04-14T17:09:44.916Z</time></trkpt><trkpt lat="42.6150583" lon="-7.1792733"><ele>517.0</ele><time>2026-04-14T17:09:45.915Z</time></trkpt><trkpt lat="42.6151983" lon="-7.17927"><ele>517.0</ele><time>2026-04-14T17:09:46.915Z</time></trkpt><trkpt lat="42.61534" lon="-7.1792333"><ele>517.0</ele><time>2026-04-14T17:09:47.915Z</time></trkpt><trkpt lat="42.6154817" lon="-7.1791733"><ele>520.0</ele><time>2026-04-14T17:09:48.916Z</time></trkpt><trkpt lat="42.61562" lon="-7.1791017"><ele>523.0</ele><time>2026-04-14T17:09:49.915Z</time></trkpt><trkpt lat="42.6157733" lon="-7.1790417"><ele>526.0</ele><time>2026-04-14T17:09:50.915Z</time></trkpt><trkpt lat="42.6159283" lon="-7.1789933"><ele>524.0</ele><time>2026-04-14T17:09:51.916Z</time></trkpt><trkpt lat="42.6160883" lon="-7.178945"><ele>522.0</ele><time>2026-04-14T17:09:52.915Z</time></trkpt><trkpt lat="42.6162383" lon="-7.178895"><ele>520.0</ele><time>2026-04-14T17:09:53.915Z</time></trkpt><trkpt lat="42.6163733" lon="-7.1788483"><ele>520.0</ele><time>2026-04-14T17:09:54.916Z</time></trkpt><trkpt lat="42.6164833" lon="-7.1788217"><ele>520.0</ele><time>2026-04-14T17:09:55.915Z</time></trkpt><trkpt lat="42.6165883" lon="-7.178815"><ele>520.0</ele><time>2026-04-14T17:09:56.916Z</time></trkpt><trkpt lat="42.6166733" lon="-7.1788633"><ele>520.0</ele><time>2026-04-14T17:09:57.915Z</time></trkpt><trkpt lat="42.6167633" lon="-7.1789317"><ele>520.0</ele><time>2026-04-14T17:09:58.916Z</time></trkpt><trkpt lat="42.6168583" lon="-7.1789967"><ele>520.0</ele><time>2026-04-14T17:09:59.916Z</time></trkpt><trkpt lat="42.6169633" lon="-7.1790133"><ele>520.0</ele><time>2026-04-14T17:10:00.915Z</time></trkpt><trkpt lat="42.6170717" lon="-7.1789833"><ele>520.0</ele><time>2026-04-14T17:10:01.915Z</time></trkpt><trkpt lat="42.617185" lon="-7.178925"><ele>520.0</ele><time>2026-04-14T17:10:02.915Z</time></trkpt><trkpt lat="42.6173033" lon="-7.1788517"><ele>519.5</ele><time>2026-04-14T17:10:03.915Z</time></trkpt><trkpt lat="42.6174233" lon="-7.17878"><ele>519.0</ele><time>2026-04-14T17:10:04.915Z</time></trkpt><trkpt lat="42.6175433" lon="-7.1786917"><ele>518.5</ele><time>2026-04-14T17:10:05.916Z</time></trkpt><trkpt lat="42.6176633" lon="-7.17859"><ele>518.0</ele><time>2026-04-14T17:10:06.915Z</time></trkpt><trkpt lat="42.6177933" lon="-7.1784933"><ele>519.0</ele><time>2026-04-14T17:10:07.915Z</time></trkpt><trkpt lat="42.6179383" lon="-7.178415"><ele>520.0</ele><time>2026-04-14T17:10:08.916Z</time></trkpt><trkpt lat="42.618085" lon="-7.1783467"><ele>521.0</ele><time>2026-04-14T17:10:09.916Z</time></trkpt><trkpt lat="42.61424" lon="-7.1798333"><ele>521.25</ele><time>2026-04-14T17:09:38.916Z</time></trkpt><trkpt lat="42.6143117" lon="-7.1796683"><ele>521.5</ele><time>2026-04-14T17:09:39.916Z</time></trkpt><trkpt lat="42.6144033" lon="-7.1795233"><ele>521.75</ele><time>2026-04-14T17:09:40.915Z</time></trkpt><trkpt lat="42.614515" lon="-7.1794"><ele>522.0</ele><time>2026-04-14T17:09:41.915Z</time></trkpt><trkpt lat="42.6146417" lon="-7.1793017"><ele>520.75</ele><time>2026-04-14T17:09:42.915Z</time></trkpt><trkpt lat="42.6147767" lon="-7.1792517"><ele>519.5</ele><time>2026-04-14T17:09:43.915Z</time></trkpt><trkpt lat="42.614915" lon="-7.1792583"><ele>518.25</ele><time>2026-04-14T17:09:44.916Z</time></trkpt><trkpt lat="42.6150583" lon="-7.1792733"><ele>517.0</ele><time>2026-04-14T17:09:45.915Z</time></trkpt><trkpt lat="42.6151983" lon="-7.17927"><ele>519.25</ele><time>2026-04-14T17:09:46.915Z</time></trkpt><trkpt lat="42.61534" lon="-7.1792333"><ele>521.5</ele><time>2026-04-14T17:09:47.915Z</time></trkpt><trkpt lat="42.6154817" lon="-7.1791733"><ele>523.75</ele><time>2026-04-14T17:09:48.916Z</time></trkpt><trkpt lat="42.61562" lon="-7.1791017"><ele>526.0</ele><time>2026-04-14T17:09:49.915Z</time></trkpt><trkpt lat="42.6157733" lon="-7.1790417"><ele>524.0</ele><time>2026-04-14T17:09:50.915Z</time></trkpt><trkpt lat="42.6159283" lon="-7.1789933"><ele>522.0</ele><time>2026-04-14T17:09:51.916Z</time></trkpt><trkpt lat="42.6160883" lon="-7.178945"><ele>520.0</ele><time>2026-04-14T17:09:52.915Z</time></trkpt><trkpt lat="42.6162383" lon="-7.178895"><ele>520.0</ele><time>2026-04-14T17:09:53.915Z</time></trkpt><trkpt lat="42.6163733" lon="-7.1788483"><ele>520.0</ele><time>2026-04-14T17:09:54.916Z</time></trkpt><trkpt lat="42.6164833" lon="-7.1788217"><ele>520.0</ele><time>2026-04-14T17:09:55.915Z</time></trkpt><trkpt lat="42.6165883" lon="-7.178815"><ele>520.0</ele><time>2026-04-14T17:09:56.916Z</time></trkpt><trkpt lat="42.6166733" lon="-7.1788633"><ele>520.0</ele><time>2026-04-14T17:09:57.915Z</time></trkpt><trkpt lat="42.6167633" lon="-7.1789317"><ele>520.0</ele><time>2026-04-14T17:09:58.916Z</time></trkpt><trkpt lat="42.6168583" lon="-7.1789967"><ele>520.0</ele><time>2026-04-14T17:09:59.916Z</time></trkpt><trkpt lat="42.6169633" lon="-7.1790133"><ele>520.0</ele><time>2026-04-14T17:10:00.915Z</time></trkpt><trkpt lat="42.6170717" lon="-7.1789833"><ele>520.0</ele><time>2026-04-14T17:10:01.915Z</time></trkpt><trkpt lat="42.617185" lon="-7.178925"><ele>520.0</ele><time>2026-04-14T17:10:02.915Z</time></trkpt><trkpt lat="42.6173033" lon="-7.1788517"><ele>519.5</ele><time>2026-04-14T17:10:03.915Z</time></trkpt><trkpt lat="42.6174233" lon="-7.17878"><ele>519.0</ele><time>2026-04-14T17:10:04.915Z</time></trkpt><trkpt lat="42.6175433" lon="-7.1786917"><ele>518.5</ele><time>2026-04-14T17:10:05.916Z</time></trkpt><trkpt lat="42.6176633" lon="-7.17859"><ele>518.0</ele><time>2026-04-14T17:10:06.915Z</time></trkpt><trkpt lat="42.6177933" lon="-7.1784933"><ele>519.0</ele><time>2026-04-14T17:10:07.915Z</time></trkpt><trkpt lat="42.6179383" lon="-7.178415"><ele>520.0</ele><time>2026-04-14T17:10:08.916Z</time></trkpt><trkpt lat="42.618085" lon="-7.1783467"><ele>521.0</ele><time>2026-04-14T17:10:09.916Z</time></trkpt><trkpt lat="42.6182383" lon="-7.17829"><ele>521.0</ele><time>2026-04-14T17:10:10.915Z</time></trkpt><trkpt lat="42.618395" lon="-7.1782533"><ele>521.0</ele><time>2026-04-14T17:10:11.916Z</time></trkpt><trkpt lat="42.6185433" lon="-7.178225"><ele>521.0</ele><time>2026-04-14T17:10:12.916Z</time></trkpt><trkpt lat="42.61868" lon="-7.1782367"><ele>521.0</ele><time>2026-04-14T17:10:13.915Z</time></trkpt><trkpt lat="42.6188217" lon="-7.1782583"><ele>519.5</ele><time>2026-04-14T17:10:14.916Z</time></trkpt><trkpt lat="42.6189583" lon="-7.1782783"><ele>518.0</ele><time>2026-04-14T17:10:15.915Z</time></trkpt><trkpt lat="42.6190933" lon="-7.1783033"><ele>516.5</ele><time>2026-04-14T17:10:16.916Z</time></trkpt><trkpt lat="42.619235" lon="-7.1783033"><ele>515.0</ele><time>2026-04-14T17:10:17.915Z</time></trkpt><trkpt lat="42.6193767" lon="-7.1782867"><ele>514.0</ele><time>2026-04-14T17:10:18.915Z</time></trkpt><trkpt lat="42.6195183" lon="-7.1782417"><ele>513.0</ele><time>2026-04-14T17:10:19.915Z</time></trkpt><trkpt lat="42.6196533" lon="-7.178175"><ele>512.0</ele><time>2026-04-14T17:10:20.915Z</time></trkpt><trkpt lat="42.619785" lon="-7.178115"><ele>511.0</ele><time>2026-04-14T17:10:21.915Z</time></trkpt><trkpt lat="42.6198967" lon="-7.178055"><ele>511.0</ele><time>2026-04-14T17:10:22.915Z</time></trkpt><trkpt lat="42.6200117" lon="-7.1779917"><ele>511.0</ele><time>2026-04-14T17:10:23.915Z</time></trkpt><trkpt lat="42.6201217" lon="-7.1779083"><ele>511.0</ele><time>2026-04-14T17:10:24.916Z</time></trkpt><trkpt lat="42.6202233" lon="-7.1778067"><ele>511.0</ele><time>2026-04-14T17:10:25.916Z</time></trkpt><trkpt lat="42.6203183" lon="-7.1776733"><ele>516.25</ele><time>2026-04-14T17:10:26.915Z</time></trkpt><trkpt lat="42.620395" lon="-7.17753"><ele>521.5</ele><time>2026-04-14T17:10:27.916Z</time></trkpt><trkpt lat="42.6204617" lon="-7.17737"><ele>526.75</ele><time>2026-04-14T17:10:28.916Z</time></trkpt><trkpt lat="42.6204917" lon="-7.1771917"><ele>532.0</ele><time>2026-04-14T17:10:29.915Z</time></trkpt><trkpt lat="42.6204933" lon="-7.1769983"><ele>532.0</ele><time>2026-04-14T17:10:30.915Z</time></trkpt><trkpt lat="42.6204767" lon="-7.1768017"><ele>532.0</ele><time>2026-04-14T17:10:31.916Z</time></trkpt><trkpt lat="42.62045" lon="-7.1766033"><ele>532.0</ele><time>2026-04-14T17:10:32.916Z</time></trkpt><trkpt lat="42.620415" lon="-7.1764067"><ele>532.0</ele><time>2026-04-14T17:10:33.915Z</time></trkpt><trkpt lat="42.6203783" lon="-7.1762083"><ele>531.5</ele><time>2026-04-14T17:10:34.915Z</time></trkpt><trkpt lat="42.62034" lon="-7.17601"><ele>531.0</ele><time>2026-04-14T17:10:35.915Z</time></trkpt><trkpt lat="42.6203017" lon="-7.175825"><ele>530.5</ele><time>2026-04-14T17:10:36.915Z</time></trkpt><trkpt lat="42.6202833" lon="-7.175655"><ele>530.0</ele><time>2026-04-14T17:10:37.915Z</time></trkpt><trkpt lat="42.6202833" lon="-7.1754983"><ele>530.0</ele><time>2026-04-14T17:10:38.915Z</time></trkpt><trkpt lat="42.620305" lon="-7.1753633"><ele>530.0</ele><time>2026-04-14T17:10:39.915Z</time></trkpt><trkpt lat="42.6203517" lon="-7.1752633"><ele>530.0</ele><time>2026-04-14T17:10:40.915Z</time></trkpt><trkpt lat="42.6204067" lon="-7.17519"><ele>530.0</ele><time>2026-04-14T17:10:41.916Z</time></trkpt><trkpt lat="42.6204767" lon="-7.1751467"><ele>530.0</ele><time>2026-04-14T17:10:42.916Z</time></trkpt><trkpt lat="42.620565" lon="-7.1751683"><ele>530.0</ele><time>2026-04-14T17:10:43.915Z</time></trkpt><trkpt lat="42.6206567" lon="-7.1752017"><ele>527.6</ele><time>2026-04-14T17:10:44.916Z</time></trkpt><trkpt lat="42.6207417" lon="-7.175205"><ele>525.2</ele><time>2026-04-14T17:10:45.915Z</time></trkpt><trkpt lat="42.6208233" lon="-7.1751833"><ele>522.8</ele><time>2026-04-14T17:10:46.915Z</time></trkpt><trkpt lat="42.6209033" lon="-7.1751017"><ele>520.4</ele><time>2026-04-14T17:10:47.916Z</time></trkpt><trkpt lat="42.62098" lon="-7.1749817"><ele>518.0</ele><time>2026-04-14T17:10:48.916Z</time></trkpt><trkpt lat="42.6210683" lon="-7.174845"><ele>519.0</ele><time>2026-04-14T17:10:49.915Z</time></trkpt><trkpt lat="42.6211583" lon="-7.1747067"><ele>520.0</ele><time>2026-04-14T17:10:50.916Z</time></trkpt><trkpt lat="42.621245" lon="-7.1745583"><ele>521.0</ele><time>2026-04-14T17:10:51.915Z</time></trkpt><trkpt lat="42.6213317" lon="-7.1743967"><ele>522.0</ele><time>2026-04-14T17:10:52.916Z</time></trkpt><trkpt lat="42.6214133" lon="-7.1742283"><ele>522.0</ele><time>2026-04-14T17:10:53.916Z</time></trkpt><trkpt lat="42.6214917" lon="-7.17406"><ele>522.0</ele><time>2026-04-14T17:10:54.915Z</time></trkpt><trkpt lat="42.6215733" lon="-7.1739033"><ele>522.0</ele><time>2026-04-14T17:10:55.916Z</time></trkpt><trkpt lat="42.6216633" lon="-7.1737567"><ele>522.0</ele><time>2026-04-14T17:10:56.915Z</time></trkpt><trkpt lat="42.6217683" lon="-7.173635"><ele>520.75</ele><time>2026-04-14T17:10:57.916Z</time></trkpt><trkpt lat="42.6218867" lon="-7.1735367"><ele>519.5</ele><time>2026-04-14T17:10:58.915Z</time></trkpt><trkpt lat="42.62202" lon="-7.1734683"><ele>518.25</ele><time>2026-04-14T17:10:59.916Z</time></trkpt><trkpt lat="42.62216" lon="-7.1734183"><ele>517.0</ele><time>2026-04-14T17:11:00.916Z</time></trkpt><trkpt lat="42.62229" lon="-7.1733567"><ele>517.6</ele><time>2026-04-14T17:11:01.915Z</time></trkpt><trkpt lat="42.6223933" lon="-7.1732817"><ele>518.2</ele><time>2026-04-14T17:11:02.916Z</time></trkpt><trkpt lat="42.622465" lon="-7.1732017"><ele>518.8</ele><time>2026-04-14T17:11:03.915Z</time></trkpt><trkpt lat="42.622515" lon="-7.1730917"><ele>519.4</ele><time>2026-04-14T17:11:04.916Z</time></trkpt><trkpt lat="42.622545" lon="-7.1729683"><ele>520.0</ele><time>2026-04-14T17:11:05.915Z</time></trkpt><trkpt lat="42.6225667" lon="-7.172825"><ele>520.0</ele><time>2026-04-14T17:11:06.915Z</time></trkpt><trkpt lat="42.622585" lon="-7.1726733"><ele>520.0</ele><time>2026-04-14T17:11:07.916Z</time></trkpt><trkpt lat="42.622595" lon="-7.1725233"><ele>520.0</ele><time>2026-04-14T17:11:08.915Z</time></trkpt><trkpt lat="42.6225967" lon="-7.1723683"><ele>520.0</ele><time>2026-04-14T17:11:09.916Z</time></trkpt><trkpt lat="42.62259" lon="-7.1722167"><ele>519.5</ele><time>2026-04-14T17:11:10.915Z</time></trkpt><trkpt lat="42.6225783" lon="-7.1720633"><ele>519.0</ele><time>2026-04-14T17:11:11.915Z</time></trkpt><trkpt lat="42.622555" lon="-7.1718983"><ele>518.5</ele><time>2026-04-14T17:11:12.915Z</time></trkpt><trkpt lat="42.622525" lon="-7.1717233"><ele>518.0</ele><time>2026-04-14T17:11:13.915Z</time></trkpt><trkpt lat="42.6225017" lon="-7.17155"><ele>517.4</ele><time>2026-04-14T17:11:14.915Z</time></trkpt><trkpt lat="42.622485" lon="-7.17137"><ele>516.8</ele><time>2026-04-14T17:11:15.915Z</time></trkpt><trkpt lat="42.6224783" lon="-7.1711933"><ele>516.2</ele><time>2026-04-14T17:11:16.915Z</time></trkpt><trkpt lat="42.6224783" lon="-7.171055"><ele>515.6</ele><time>2026-04-14T17:11:17.916Z</time></trkpt><trkpt lat="42.622495" lon="-7.1709467"><ele>515.0</ele><time>2026-04-14T17:11:18.916Z</time></trkpt><trkpt lat="42.6225333" lon="-7.1708617"><ele>515.0</ele><time>2026-04-14T17:11:19.916Z</time></trkpt><trkpt lat="42.6225883" lon="-7.17079"><ele>515.0</ele><time>2026-04-14T17:11:20.915Z</time></trkpt><trkpt lat="42.62268" lon="-7.170755"><ele>515.0</ele><time>2026-04-14T17:11:21.916Z</time></trkpt><trkpt lat="42.6227983" lon="-7.1707517"><ele>515.0</ele><time>2026-04-14T17:11:22.915Z</time></trkpt><trkpt lat="42.6229267" lon="-7.17076"><ele>515.0</ele><time>2026-04-14T17:11:23.915Z</time></trkpt><trkpt lat="42.623065" lon="-7.17076"><ele>516.5</ele><time>2026-04-14T17:11:24.915Z</time></trkpt><trkpt lat="42.6232083" lon="-7.1707567"><ele>518.0</ele><time>2026-04-14T17:11:25.915Z</time></trkpt><trkpt lat="42.6233467" lon="-7.1707633"><ele>519.5</ele><time>2026-04-14T17:11:26.915Z</time></trkpt><trkpt lat="42.623475" lon="-7.1708033"><ele>521.0</ele><time>2026-04-14T17:11:27.916Z</time></trkpt><trkpt lat="42.6235883" lon="-7.17086"><ele>526.0</ele><time>2026-04-14T17:11:28.916Z</time></trkpt><trkpt lat="42.6237017" lon="-7.1708867"><ele>531.0</ele><time>2026-04-14T17:11:29.916Z</time></trkpt><trkpt lat="42.6238067" lon="-7.1708833"><ele>536.0</ele><time>2026-04-14T17:11:30.916Z</time></trkpt><trkpt lat="42.62393" lon="-7.170845"><ele>541.0</ele><time>2026-04-14T17:11:31.915Z</time></trkpt><trkpt lat="42.6240567" lon="-7.1707733"><ele>536.75</ele><time>2026-04-14T17:11:32.916Z</time></trkpt><trkpt lat="42.62418" lon="-7.1706717"><ele>532.5</ele><time>2026-04-14T17:11:33.915Z</time></trkpt><trkpt lat="42.6242933" lon="-7.170555"><ele>528.25</ele><time>2026-04-14T17:11:34.915Z</time></trkpt><trkpt lat="42.6243833" lon="-7.1704367"><ele>524.0</ele><time>2026-04-14T17:11:35.916Z</time></trkpt><trkpt lat="42.6244517" lon="-7.17029"><ele>522.6666666666666</ele><time>2026-04-14T17:11:36.915Z</time></trkpt><trkpt lat="42.6244817" lon="-7.1701067"><ele>521.3333333333334</ele><time>2026-04-14T17:11:37.916Z</time></trkpt><trkpt lat="42.6245017" lon="-7.16991"><ele>520.0</ele><time>2026-04-14T17:11:38.916Z</time></trkpt><trkpt lat="42.6225667" lon="-7.172825"><ele>520.0</ele><time>2026-04-14T17:11:06.915Z</time></trkpt><trkpt lat="42.622585" lon="-7.1726733"><ele>520.0</ele><time>2026-04-14T17:11:07.916Z</time></trkpt><trkpt lat="42.622595" lon="-7.1725233"><ele>520.0</ele><time>2026-04-14T17:11:08.915Z</time></trkpt><trkpt lat="42.6225967" lon="-7.1723683"><ele>520.0</ele><time>2026-04-14T17:11:09.916Z</time></trkpt><trkpt lat="42.62259" lon="-7.1722167"><ele>519.5</ele><time>2026-04-14T17:11:10.915Z</time></trkpt><trkpt lat="42.6225783" lon="-7.1720633"><ele>519.0</ele><time>2026-04-14T17:11:11.915Z</time></trkpt><trkpt lat="42.622555" lon="-7.1718983"><ele>518.5</ele><time>2026-04-14T17:11:12.915Z</time></trkpt><trkpt lat="42.622525" lon="-7.1717233"><ele>518.0</ele><time>2026-04-14T17:11:13.915Z</time></trkpt><trkpt lat="42.6225017" lon="-7.17155"><ele>517.4</ele><time>2026-04-14T17:11:14.915Z</time></trkpt><trkpt lat="42.622485" lon="-7.17137"><ele>516.8</ele><time>2026-04-14T17:11:15.915Z</time></trkpt><trkpt lat="42.6224783" lon="-7.1711933"><ele>516.2</ele><time>2026-04-14T17:11:16.915Z</time></trkpt><trkpt lat="42.6224783" lon="-7.171055"><ele>515.6</ele><time>2026-04-14T17:11:17.916Z</time></trkpt><trkpt lat="42.622495" lon="-7.1709467"><ele>515.0</ele><time>2026-04-14T17:11:18.916Z</time></trkpt><trkpt lat="42.6225333" lon="-7.1708617"><ele>515.0</ele><time>2026-04-14T17:11:19.916Z</time></trkpt><trkpt lat="42.6225883" lon="-7.17079"><ele>515.0</ele><time>2026-04-14T17:11:20.915Z</time></trkpt><trkpt lat="42.62268" lon="-7.170755"><ele>515.0</ele><time>2026-04-14T17:11:21.916Z</time></trkpt><trkpt lat="42.6227983" lon="-7.1707517"><ele>515.0</ele><time>2026-04-14T17:11:22.915Z</time></trkpt><trkpt lat="42.6229267" lon="-7.17076"><ele>515.0</ele><time>2026-04-14T17:11:23.915Z</time></trkpt><trkpt lat="42.623065" lon="-7.17076"><ele>516.5</ele><time>2026-04-14T17:11:24.915Z</time></trkpt><trkpt lat="42.6232083" lon="-7.1707567"><ele>518.0</ele><time>2026-04-14T17:11:25.915Z</time></trkpt><trkpt lat="42.6233467" lon="-7.1707633"><ele>519.5</ele><time>2026-04-14T17:11:26.915Z</time></trkpt><trkpt lat="42.623475" lon="-7.1708033"><ele>521.0</ele><time>2026-04-14T17:11:27.916Z</time></trkpt><trkpt lat="42.6235883" lon="-7.17086"><ele>526.0</ele><time>2026-04-14T17:11:28.916Z</time></trkpt><trkpt lat="42.6237017" lon="-7.1708867"><ele>531.0</ele><time>2026-04-14T17:11:29.916Z</time></trkpt><trkpt lat="42.6238067" lon="-7.1708833"><ele>536.0</ele><time>2026-04-14T17:11:30.916Z</time></trkpt><trkpt lat="42.62393" lon="-7.170845"><ele>541.0</ele><time>2026-04-14T17:11:31.915Z</time></trkpt><trkpt lat="42.6240567" lon="-7.1707733"><ele>536.75</ele><time>2026-04-14T17:11:32.916Z</time></trkpt><trkpt lat="42.62418" lon="-7.1706717"><ele>532.5</ele><time>2026-04-14T17:11:33.915Z</time></trkpt><trkpt lat="42.6242933" lon="-7.170555"><ele>528.25</ele><time>2026-04-14T17:11:34.915Z</time></trkpt><trkpt lat="42.6243833" lon="-7.1704367"><ele>524.0</ele><time>2026-04-14T17:11:35.916Z</time></trkpt><trkpt lat="42.6244517" lon="-7.17029"><ele>531.75</ele><time>2026-04-14T17:11:36.915Z</time></trkpt><trkpt lat="42.6244817" lon="-7.1701067"><ele>539.5</ele><time>2026-04-14T17:11:37.916Z</time></trkpt><trkpt lat="42.6245017" lon="-7.16991"><ele>547.25</ele><time>2026-04-14T17:11:38.916Z</time></trkpt><trkpt lat="42.62452" lon="-7.1697017"><ele>555.0</ele><time>2026-04-14T17:11:39.915Z</time></trkpt><trkpt lat="42.624535" lon="-7.1694917"><ele>555.0</ele><time>2026-04-14T17:11:40.915Z</time></trkpt><trkpt lat="42.6245583" lon="-7.16927"><ele>555.0</ele><time>2026-04-14T17:11:41.915Z</time></trkpt><trkpt lat="42.6245883" lon="-7.1690417"><ele>555.0</ele><time>2026-04-14T17:11:42.915Z</time></trkpt><trkpt lat="42.624635" lon="-7.1688383"><ele>548.6666666666666</ele><time>2026-04-14T17:11:43.915Z</time></trkpt><trkpt lat="42.6246833" lon="-7.1686183"><ele>542.3333333333333</ele><time>2026-04-14T17:11:44.916Z</time></trkpt><trkpt lat="42.62473" lon="-7.1684217"><ele>536.0</ele><time>2026-04-14T17:11:45.916Z</time></trkpt><trkpt lat="42.6247867" lon="-7.1682383"><ele>534.2</ele><time>2026-04-14T17:11:46.915Z</time></trkpt><trkpt lat="42.624835" lon="-7.1680733"><ele>532.4000000000001</ele><time>2026-04-14T17:11:47.916Z</time></trkpt><trkpt lat="42.624885" lon="-7.1679267"><ele>530.6</ele><time>2026-04-14T17:11:48.916Z</time></trkpt><trkpt lat="42.6249467" lon="-7.16781"><ele>528.8000000000001</ele><time>2026-04-14T17:11:49.916Z</time></trkpt><trkpt lat="42.625015" lon="-7.1677317"><ele>527.0</ele><time>2026-04-14T17:11:50.915Z</time></trkpt><trkpt lat="42.6251033" lon="-7.167695"><ele>527.0</ele><time>2026-04-14T17:11:51.916Z</time></trkpt><trkpt lat="42.6252" lon="-7.1676983"><ele>527.0</ele><time>2026-04-14T17:11:52.915Z</time></trkpt><trkpt lat="42.625305" lon="-7.1677267"><ele>527.0</ele><time>2026-04-14T17:11:53.915Z</time></trkpt><trkpt lat="42.6254167" lon="-7.1677783"><ele>527.0</ele><time>2026-04-14T17:11:54.915Z</time></trkpt><trkpt lat="42.62552" lon="-7.1678517"><ele>527.0</ele><time>2026-04-14T17:11:55.915Z</time></trkpt><trkpt lat="42.6256083" lon="-7.1679433"><ele>527.0</ele><time>2026-04-14T17:11:56.915Z</time></trkpt><trkpt lat="42.6256933" lon="-7.1680183"><ele>527.0</ele><time>2026-04-14T17:11:57.915Z</time></trkpt><trkpt lat="42.6257833" lon="-7.1680667"><ele>527.0</ele><time>2026-04-14T17:11:58.916Z</time></trkpt><trkpt lat="42.6258767" lon="-7.1680717"><ele>527.0</ele><time>2026-04-14T17:11:59.915Z</time></trkpt><trkpt lat="42.6259667" lon="-7.1680333"><ele>527.0</ele><time>2026-04-14T17:12:00.915Z</time></trkpt><trkpt lat="42.62605" lon="-7.1679583"><ele>527.0</ele><time>2026-04-14T17:12:01.916Z</time></trkpt><trkpt lat="42.626125" lon="-7.1678467"><ele>527.0</ele><time>2026-04-14T17:12:02.915Z</time></trkpt><trkpt lat="42.626185" lon="-7.1677117"><ele>527.0</ele><time>2026-04-14T17:12:03.915Z</time></trkpt><trkpt lat="42.6262517" lon="-7.1675517"><ele>527.0</ele><time>2026-04-14T17:12:04.915Z</time></trkpt><trkpt lat="42.6263167" lon="-7.1673917"><ele>527.5</ele><time>2026-04-14T17:12:05.915Z</time></trkpt><trkpt lat="42.6263783" lon="-7.1672267"><ele>528.0</ele><time>2026-04-14T17:12:06.916Z</time></trkpt><trkpt lat="42.6264333" lon="-7.167045"><ele>528.5</ele><time>2026-04-14T17:12:07.916Z</time></trkpt><trkpt lat="42.6265" lon="-7.1668867"><ele>529.0</ele><time>2026-04-14T17:12:08.915Z</time></trkpt><trkpt lat="42.6265517" lon="-7.1667417"><ele>529.0</ele><time>2026-04-14T17:12:09.915Z</time></trkpt><trkpt lat="42.6266017" lon="-7.16661"><ele>529.0</ele><time>2026-04-14T17:12:10.916Z</time></trkpt><trkpt lat="42.6266517" lon="-7.1665033"><ele>529.0</ele><time>2026-04-14T17:12:11.915Z</time></trkpt><trkpt lat="42.626715" lon="-7.1664267"><ele>529.0</ele><time>2026-04-14T17:12:12.915Z</time></trkpt><trkpt lat="42.6267883" lon="-7.1663917"><ele>529.0</ele><time>2026-04-14T17:12:13.915Z</time></trkpt><trkpt lat="42.62686" lon="-7.1664"><ele>529.0</ele><time>2026-04-14T17:12:14.916Z</time></trkpt><trkpt lat="42.62692" lon="-7.1664567"><ele>529.0</ele><time>2026-04-14T17:12:15.915Z</time></trkpt><trkpt lat="42.6269567" lon="-7.1665467"><ele>529.0</ele><time>2026-04-14T17:12:16.915Z</time></trkpt><trkpt lat="42.6269717" lon="-7.1666633"><ele>529.0</ele><time>2026-04-14T17:12:17.915Z</time></trkpt><trkpt lat="42.626975" lon="-7.166785"><ele>529.0</ele><time>2026-04-14T17:12:18.916Z</time></trkpt><trkpt lat="42.6269883" lon="-7.1668867"><ele>529.0</ele><time>2026-04-14T17:12:19.916Z</time></trkpt><trkpt lat="42.6270267" lon="-7.1669817"><ele>529.0</ele><time>2026-04-14T17:12:20.915Z</time></trkpt><trkpt lat="42.6270967" lon="-7.167065"><ele>528.0</ele><time>2026-04-14T17:12:21.915Z</time></trkpt><trkpt lat="42.62719" lon="-7.1671383"><ele>527.0</ele><time>2026-04-14T17:12:22.916Z</time></trkpt><trkpt lat="42.62729" lon="-7.1672167"><ele>526.0</ele><time>2026-04-14T17:12:23.915Z</time></trkpt><trkpt lat="42.6273983" lon="-7.167305"><ele>525.0</ele><time>2026-04-14T17:12:24.916Z</time></trkpt><trkpt lat="42.6275167" lon="-7.1673883"><ele>532.0</ele><time>2026-04-14T17:12:25.916Z</time></trkpt><trkpt lat="42.62765" lon="-7.1674433"><ele>539.0</ele><time>2026-04-14T17:12:26.915Z</time></trkpt><trkpt lat="42.6277933" lon="-7.16746"><ele>546.0</ele><time>2026-04-14T17:12:27.915Z</time></trkpt><trkpt lat="42.6279383" lon="-7.1674483"><ele>553.0</ele><time>2026-04-14T17:12:28.915Z</time></trkpt><trkpt lat="42.628075" lon="-7.1673983"><ele>549.0</ele><time>2026-04-14T17:12:29.915Z</time></trkpt><trkpt lat="42.628195" lon="-7.1673417"><ele>545.0</ele><time>2026-04-14T17:12:30.915Z</time></trkpt><trkpt lat="42.6283133" lon="-7.16727"><ele>541.0</ele><time>2026-04-14T17:12:31.915Z</time></trkpt><trkpt lat="42.6284067" lon="-7.1671733"><ele>537.0</ele><time>2026-04-14T17:12:32.916Z</time></trkpt><trkpt lat="42.6284733" lon="-7.1670533"><ele>537.0</ele><time>2026-04-14T17:12:33.915Z</time></trkpt><trkpt lat="42.62852" lon="-7.1669217"><ele>537.0</ele><time>2026-04-14T17:12:34.915Z</time></trkpt><trkpt lat="42.6285483" lon="-7.1667733"><ele>537.0</ele><time>2026-04-14T17:12:35.916Z</time></trkpt><trkpt lat="42.6285883" lon="-7.16662"><ele>537.0</ele><time>2026-04-14T17:12:36.916Z</time></trkpt><trkpt lat="42.6286267" lon="-7.1664767"><ele>542.0</ele><time>2026-04-14T17:12:37.915Z</time></trkpt><trkpt lat="42.628695" lon="-7.16633"><ele>547.0</ele><time>2026-04-14T17:12:38.916Z</time></trkpt><trkpt lat="42.6287683" lon="-7.1661967"><ele>552.0</ele><time>2026-04-14T17:12:39.916Z</time></trkpt><trkpt lat="42.628845" lon="-7.1660717"><ele>557.0</ele><time>2026-04-14T17:12:40.915Z</time></trkpt><trkpt lat="42.62891" lon="-7.1659383"><ele>557.0</ele><time>2026-04-14T17:12:41.915Z</time></trkpt><trkpt lat="42.6289483" lon="-7.16578"><ele>557.0</ele><time>2026-04-14T17:12:42.916Z</time></trkpt><trkpt lat="42.6289717" lon="-7.1656183"><ele>557.0</ele><time>2026-04-14T17:12:43.915Z</time></trkpt><trkpt lat="42.628985" lon="-7.16545"><ele>557.0</ele><time>2026-04-14T17:12:44.915Z</time></trkpt><trkpt lat="42.6290017" lon="-7.1652817"><ele>556.0</ele><time>2026-04-14T17:12:45.916Z</time></trkpt><trkpt lat="42.629025" lon="-7.1651267"><ele>555.0</ele><time>2026-04-14T17:12:46.916Z</time></trkpt><trkpt lat="42.6290367" lon="-7.16498"><ele>554.0</ele><time>2026-04-14T17:12:47.916Z</time></trkpt><trkpt lat="42.6290183" lon="-7.1648367"><ele>553.0</ele><time>2026-04-14T17:12:48.915Z</time></trkpt><trkpt lat="42.62897" lon="-7.1647"><ele>552.0</ele><time>2026-04-14T17:12:49.916Z</time></trkpt><trkpt lat="42.6289067" lon="-7.1645733"><ele>552.0</ele><time>2026-04-14T17:12:50.916Z</time></trkpt><trkpt lat="42.62884" lon="-7.1644517"><ele>552.0</ele><time>2026-04-14T17:12:51.915Z</time></trkpt><trkpt lat="42.6287967" lon="-7.1643017"><ele>552.0</ele><time>2026-04-14T17:12:52.915Z</time></trkpt><trkpt lat="42.62877" lon="-7.1641417"><ele>552.0</ele><time>2026-04-14T17:12:53.915Z</time></trkpt><trkpt lat="42.6287583" lon="-7.1639833"><ele>552.75</ele><time>2026-04-14T17:12:54.916Z</time></trkpt><trkpt lat="42.6287567" lon="-7.16386"><ele>553.5</ele><time>2026-04-14T17:12:55.915Z</time></trkpt><trkpt lat="42.6288133" lon="-7.1636833"><ele>554.25</ele><time>2026-04-14T17:12:56.916Z</time></trkpt><trkpt lat="42.6288783" lon="-7.1635183"><ele>555.0</ele><time>2026-04-14T17:12:57.915Z</time></trkpt><trkpt lat="42.628935" lon="-7.1633533"><ele>555.0</ele><time>2026-04-14T17:12:58.915Z</time></trkpt><trkpt lat="42.62899" lon="-7.1632"><ele>555.0</ele><time>2026-04-14T17:12:59.916Z</time></trkpt><trkpt lat="42.629045" lon="-7.1630517"><ele>555.0</ele><time>2026-04-14T17:13:00.915Z</time></trkpt><trkpt lat="42.6291183" lon="-7.1629133"><ele>555.0</ele><time>2026-04-14T17:13:01.915Z</time></trkpt><trkpt lat="42.6291967" lon="-7.1627817"><ele>552.5</ele><time>2026-04-14T17:13:02.915Z</time></trkpt><trkpt lat="42.629285" lon="-7.16266"><ele>550.0</ele><time>2026-04-14T17:13:03.916Z</time></trkpt><trkpt lat="42.62938" lon="-7.1625583"><ele>547.5</ele><time>2026-04-14T17:13:04.915Z</time></trkpt><trkpt lat="42.6294917" lon="-7.1624683"><ele>545.0</ele><time>2026-04-14T17:13:05.915Z</time></trkpt><trkpt lat="42.6296" lon="-7.1624133"><ele>537.0</ele><time>2026-04-14T17:13:06.916Z</time></trkpt><trkpt lat="42.6285483" lon="-7.1667733"><ele>537.0</ele><time>2026-04-14T17:12:35.916Z</time></trkpt><trkpt lat="42.6285883" lon="-7.16662"><ele>537.0</ele><time>2026-04-14T17:12:36.916Z</time></trkpt><trkpt lat="42.6286267" lon="-7.1664767"><ele>537.0</ele><time>2026-04-14T17:12:37.915Z</time></trkpt><trkpt lat="42.628695" lon="-7.16633"><ele>537.0</ele><time>2026-04-14T17:12:38.916Z</time></trkpt><trkpt lat="42.6287683" lon="-7.1661967"><ele>539.5</ele><time>2026-04-14T17:12:39.916Z</time></trkpt><trkpt lat="42.628845" lon="-7.1660717"><ele>542.0</ele><time>2026-04-14T17:12:40.915Z</time></trkpt><trkpt lat="42.62891" lon="-7.1659383"><ele>544.5</ele><time>2026-04-14T17:12:41.915Z</time></trkpt><trkpt lat="42.6289483" lon="-7.16578"><ele>547.0</ele><time>2026-04-14T17:12:42.916Z</time></trkpt><trkpt lat="42.6289717" lon="-7.1656183"><ele>547.0</ele><time>2026-04-14T17:12:43.915Z</time></trkpt><trkpt lat="42.628985" lon="-7.16545"><ele>547.0</ele><time>2026-04-14T17:12:44.915Z</time></trkpt><trkpt lat="42.6290017" lon="-7.1652817"><ele>547.0</ele><time>2026-04-14T17:12:45.916Z</time></trkpt><trkpt lat="42.629025" lon="-7.1651267"><ele>547.0</ele><time>2026-04-14T17:12:46.916Z</time></trkpt><trkpt lat="42.6290367" lon="-7.16498"><ele>548.0</ele><time>2026-04-14T17:12:47.916Z</time></trkpt><trkpt lat="42.6290183" lon="-7.1648367"><ele>549.0</ele><time>2026-04-14T17:12:48.915Z</time></trkpt><trkpt lat="42.62897" lon="-7.1647"><ele>550.0</ele><time>2026-04-14T17:12:49.916Z</time></trkpt><trkpt lat="42.6289067" lon="-7.1645733"><ele>551.0</ele><time>2026-04-14T17:12:50.916Z</time></trkpt><trkpt lat="42.62884" lon="-7.1644517"><ele>552.0</ele><time>2026-04-14T17:12:51.915Z</time></trkpt><trkpt lat="42.6287967" lon="-7.1643017"><ele>552.0</ele><time>2026-04-14T17:12:52.915Z</time></trkpt><trkpt lat="42.62877" lon="-7.1641417"><ele>552.0</ele><time>2026-04-14T17:12:53.915Z</time></trkpt><trkpt lat="42.6287583" lon="-7.1639833"><ele>552.0</ele><time>2026-04-14T17:12:54.916Z</time></trkpt><trkpt lat="42.6287567" lon="-7.16386"><ele>552.0</ele><time>2026-04-14T17:12:55.915Z</time></trkpt><trkpt lat="42.6288133" lon="-7.1636833"><ele>552.75</ele><time>2026-04-14T17:12:56.916Z</time></trkpt><trkpt lat="42.6288783" lon="-7.1635183"><ele>553.5</ele><time>2026-04-14T17:12:57.915Z</time></trkpt><trkpt lat="42.628935" lon="-7.1633533"><ele>554.25</ele><time>2026-04-14T17:12:58.915Z</time></trkpt><trkpt lat="42.62899" lon="-7.1632"><ele>555.0</ele><time>2026-04-14T17:12:59.916Z</time></trkpt><trkpt lat="42.629045" lon="-7.1630517"><ele>552.5</ele><time>2026-04-14T17:13:00.915Z</time></trkpt><trkpt lat="42.6291183" lon="-7.1629133"><ele>550.0</ele><time>2026-04-14T17:13:01.915Z</time></trkpt><trkpt lat="42.6291967" lon="-7.1627817"><ele>547.5</ele><time>2026-04-14T17:13:02.915Z</time></trkpt><trkpt lat="42.629285" lon="-7.16266"><ele>545.0</ele><time>2026-04-14T17:13:03.916Z</time></trkpt><trkpt lat="42.62938" lon="-7.1625583"><ele>550.25</ele><time>2026-04-14T17:13:04.915Z</time></trkpt><trkpt lat="42.6294917" lon="-7.1624683"><ele>555.5</ele><time>2026-04-14T17:13:05.915Z</time></trkpt><trkpt lat="42.6296" lon="-7.1624133"><ele>560.75</ele><time>2026-04-14T17:13:06.916Z</time></trkpt><trkpt lat="42.6297083" lon="-7.1623983"><ele>566.0</ele><time>2026-04-14T17:13:07.915Z</time></trkpt><trkpt lat="42.629815" lon="-7.16242"><ele>566.0</ele><time>2026-04-14T17:13:08.915Z</time></trkpt><trkpt lat="42.62993" lon="-7.162465"><ele>566.0</ele><time>2026-04-14T17:13:09.915Z</time></trkpt><trkpt lat="42.6300517" lon="-7.16252"><ele>566.0</ele><time>2026-04-14T17:13:10.915Z</time></trkpt><trkpt lat="42.6301783" lon="-7.1625583"><ele>566.0</ele><time>2026-04-14T17:13:11.915Z</time></trkpt><trkpt lat="42.630315" lon="-7.16256"><ele>569.5</ele><time>2026-04-14T17:13:12.915Z</time></trkpt><trkpt lat="42.6304517" lon="-7.1625267"><ele>573.0</ele><time>2026-04-14T17:13:13.916Z</time></trkpt><trkpt lat="42.63058" lon="-7.1624567"><ele>576.5</ele><time>2026-04-14T17:13:14.916Z</time></trkpt><trkpt lat="42.6306983" lon="-7.1623617"><ele>580.0</ele><time>2026-04-14T17:13:15.915Z</time></trkpt><trkpt lat="42.6307983" lon="-7.1622283"><ele>572.0</ele><time>2026-04-14T17:13:16.915Z</time></trkpt><trkpt lat="42.6308817" lon="-7.1620733"><ele>564.0</ele><time>2026-04-14T17:13:17.916Z</time></trkpt><trkpt lat="42.630935" lon="-7.161905"><ele>556.0</ele><time>2026-04-14T17:13:18.916Z</time></trkpt><trkpt lat="42.63098" lon="-7.1617267"><ele>548.0</ele><time>2026-04-14T17:13:19.915Z</time></trkpt><trkpt lat="42.6310217" lon="-7.1615317"><ele>547.0</ele><time>2026-04-14T17:13:20.915Z</time></trkpt><trkpt lat="42.63106" lon="-7.16136"><ele>546.0</ele><time>2026-04-14T17:13:21.915Z</time></trkpt><trkpt lat="42.631095" lon="-7.1611867"><ele>545.0</ele><time>2026-04-14T17:13:22.916Z</time></trkpt><trkpt lat="42.6311083" lon="-7.1610217"><ele>544.0</ele><time>2026-04-14T17:13:23.916Z</time></trkpt><trkpt lat="42.6310983" lon="-7.1608783"><ele>544.0</ele><time>2026-04-14T17:13:24.915Z</time></trkpt><trkpt lat="42.6310667" lon="-7.1607633"><ele>544.0</ele><time>2026-04-14T17:13:25.915Z</time></trkpt><trkpt lat="42.6310167" lon="-7.1606567"><ele>544.0</ele><time>2026-04-14T17:13:26.915Z</time></trkpt><trkpt lat="42.6309533" lon="-7.16056"><ele>544.0</ele><time>2026-04-14T17:13:27.916Z</time></trkpt><trkpt lat="42.6308933" lon="-7.1604517"><ele>544.0</ele><time>2026-04-14T17:13:28.915Z</time></trkpt><trkpt lat="42.6308533" lon="-7.1603267"><ele>544.5</ele><time>2026-04-14T17:13:29.915Z</time></trkpt><trkpt lat="42.6308417" lon="-7.16018"><ele>545.0</ele><time>2026-04-14T17:13:30.916Z</time></trkpt><trkpt lat="42.6308567" lon="-7.16003"><ele>545.5</ele><time>2026-04-14T17:13:31.916Z</time></trkpt><trkpt lat="42.630905" lon="-7.1598717"><ele>546.0</ele><time>2026-04-14T17:13:32.916Z</time></trkpt><trkpt lat="42.6309683" lon="-7.159735"><ele>546.0</ele><time>2026-04-14T17:13:33.916Z</time></trkpt><trkpt lat="42.63105" lon="-7.1596"><ele>546.0</ele><time>2026-04-14T17:13:34.916Z</time></trkpt><trkpt lat="42.631135" lon="-7.159465"><ele>546.0</ele><time>2026-04-14T17:13:35.916Z</time></trkpt><trkpt lat="42.6312317" lon="-7.1593383"><ele>546.0</ele><time>2026-04-14T17:13:36.916Z</time></trkpt><trkpt lat="42.6313367" lon="-7.1592217"><ele>548.75</ele><time>2026-04-14T17:13:37.915Z</time></trkpt><trkpt lat="42.6314533" lon="-7.1591233"><ele>551.5</ele><time>2026-04-14T17:13:38.916Z</time></trkpt><trkpt lat="42.63158" lon="-7.1590433"><ele>554.25</ele><time>2026-04-14T17:13:39.915Z</time></trkpt><trkpt lat="42.6317183" lon="-7.158995"><ele>557.0</ele><time>2026-04-14T17:13:40.916Z</time></trkpt><trkpt lat="42.6318617" lon="-7.158965"><ele>556.0</ele><time>2026-04-14T17:13:41.915Z</time></trkpt><trkpt lat="42.632005" lon="-7.1589467"><ele>555.0</ele><time>2026-04-14T17:13:42.916Z</time></trkpt><trkpt lat="42.6321633" lon="-7.1589167"><ele>554.0</ele><time>2026-04-14T17:13:43.915Z</time></trkpt><trkpt lat="42.6323217" lon="-7.15889"><ele>554.0</ele><time>2026-04-14T17:13:44.915Z</time></trkpt><trkpt lat="42.6324717" lon="-7.1588833"><ele>554.0</ele><time>2026-04-14T17:13:45.916Z</time></trkpt><trkpt lat="42.6326283" lon="-7.1588983"><ele>554.0</ele><time>2026-04-14T17:13:46.915Z</time></trkpt><trkpt lat="42.6327967" lon="-7.1589083"><ele>553.3333333333333</ele><time>2026-04-14T17:13:47.915Z</time></trkpt><trkpt lat="42.6329633" lon="-7.15893"><ele>552.6666666666666</ele><time>2026-04-14T17:13:48.915Z</time></trkpt><trkpt lat="42.6331233" lon="-7.1589317"><ele>552.0</ele><time>2026-04-14T17:13:49.916Z</time></trkpt><trkpt lat="42.6332833" lon="-7.1589283"><ele>552.0</ele><time>2026-04-14T17:13:50.916Z</time></trkpt><trkpt lat="42.6334467" lon="-7.1589167"><ele>552.0</ele><time>2026-04-14T17:13:51.916Z</time></trkpt><trkpt lat="42.6336033" lon="-7.1589183"><ele>552.0</ele><time>2026-04-14T17:13:52.916Z</time></trkpt><trkpt lat="42.63376" lon="-7.1589267"><ele>551.6666666666666</ele><time>2026-04-14T17:13:53.915Z</time></trkpt><trkpt lat="42.6339283" lon="-7.1589283"><ele>551.3333333333333</ele><time>2026-04-14T17:13:54.916Z</time></trkpt><trkpt lat="42.634085" lon="-7.1589117"><ele>551.0</ele><time>2026-04-14T17:13:55.915Z</time></trkpt><trkpt lat="42.6342317" lon="-7.15887"><ele>551.0</ele><time>2026-04-14T17:13:56.916Z</time></trkpt><trkpt lat="42.6343833" lon="-7.158805"><ele>551.0</ele><time>2026-04-14T17:13:57.915Z</time></trkpt><trkpt lat="42.6345267" lon="-7.15873"><ele>551.0</ele><time>2026-04-14T17:13:58.915Z</time></trkpt><trkpt lat="42.634665" lon="-7.1586217"><ele>556.3333333333333</ele><time>2026-04-14T17:13:59.915Z</time></trkpt><trkpt lat="42.6347767" lon="-7.158485"><ele>561.6666666666666</ele><time>2026-04-14T17:14:00.915Z</time></trkpt><trkpt lat="42.6348767" lon="-7.158325"><ele>567.0</ele><time>2026-04-14T17:14:01.916Z</time></trkpt><trkpt lat="42.6349483" lon="-7.1581483"><ele>567.0</ele><time>2026-04-14T17:14:02.916Z</time></trkpt><trkpt lat="42.6349933" lon="-7.1579567"><ele>567.0</ele><time>2026-04-14T17:14:03.916Z</time></trkpt><trkpt lat="42.635025" lon="-7.1577617"><ele>567.0</ele><time>2026-04-14T17:14:04.916Z</time></trkpt><trkpt lat="42.6350567" lon="-7.1575617"><ele>567.0</ele><time>2026-04-14T17:14:05.916Z</time></trkpt><trkpt lat="42.6350917" lon="-7.1573617"><ele>565.0</ele><time>2026-04-14T17:14:06.915Z</time></trkpt><trkpt lat="42.6351433" lon="-7.1571533"><ele>563.0</ele><time>2026-04-14T17:14:07.915Z</time></trkpt><trkpt lat="42.6352133" lon="-7.156975"><ele>561.0</ele><time>2026-04-14T17:14:08.916Z</time></trkpt><trkpt lat="42.635305" lon="-7.1567967"><ele>562.3333333333334</ele><time>2026-04-14T17:14:09.916Z</time></trkpt><trkpt lat="42.63539" lon="-7.1566183"><ele>563.6666666666667</ele><time>2026-04-14T17:14:10.915Z</time></trkpt><trkpt lat="42.635485" lon="-7.1564617"><ele>565.0</ele><time>2026-04-14T17:14:11.915Z</time></trkpt><trkpt lat="42.6355933" lon="-7.1563133"><ele>565.0</ele><time>2026-04-14T17:14:12.916Z</time></trkpt><trkpt lat="42.63572" lon="-7.1561683"><ele>565.0</ele><time>2026-04-14T17:14:13.916Z</time></trkpt><trkpt lat="42.63585" lon="-7.1560433"><ele>565.0</ele><time>2026-04-14T17:14:14.916Z</time></trkpt><trkpt lat="42.63599" lon="-7.155935"><ele>565.0</ele><time>2026-04-14T17:14:15.915Z</time></trkpt><trkpt lat="42.6361333" lon="-7.15585"><ele>565.0</ele><time>2026-04-14T17:14:16.915Z</time></trkpt><trkpt lat="42.6362767" lon="-7.1557783"><ele>565.0</ele><time>2026-04-14T17:14:17.915Z</time></trkpt><trkpt lat="42.6364067" lon="-7.1557"><ele>564.3333333333334</ele><time>2026-04-14T17:14:18.915Z</time></trkpt><trkpt lat="42.6365217" lon="-7.1555733"><ele>563.6666666666666</ele><time>2026-04-14T17:14:19.915Z</time></trkpt><trkpt lat="42.63663" lon="-7.1554183"><ele>563.0</ele><time>2026-04-14T17:14:20.916Z</time></trkpt><trkpt lat="42.6367333" lon="-7.155255"><ele>563.0</ele><time>2026-04-14T17:14:21.916Z</time></trkpt><trkpt lat="42.6368267" lon="-7.1551017"><ele>563.0</ele><time>2026-04-14T17:14:22.916Z</time></trkpt><trkpt lat="42.6369167" lon="-7.1549417"><ele>563.0</ele><time>2026-04-14T17:14:23.915Z</time></trkpt><trkpt lat="42.6369683" lon="-7.154775"><ele>563.0</ele><time>2026-04-14T17:14:24.915Z</time></trkpt><trkpt lat="42.6369933" lon="-7.15459"><ele>560.6666666666666</ele><time>2026-04-14T17:14:25.915Z</time></trkpt><trkpt lat="42.636975" lon="-7.1543867"><ele>558.3333333333334</ele><time>2026-04-14T17:14:26.915Z</time></trkpt><trkpt lat="42.6369383" lon="-7.1541767"><ele>556.0</ele><time>2026-04-14T17:14:27.916Z</time></trkpt><trkpt lat="42.6368967" lon="-7.1539683"><ele>555.6666666666667</ele><time>2026-04-14T17:14:28.915Z</time></trkpt><trkpt lat="42.6368583" lon="-7.1537667"><ele>555.3333333333334</ele><time>2026-04-14T17:14:29.915Z</time></trkpt><trkpt lat="42.636835" lon="-7.15357"><ele>555.0</ele><time>2026-04-14T17:14:30.916Z</time></trkpt><trkpt lat="42.6368117" lon="-7.153365"><ele>554.3333333333334</ele><time>2026-04-14T17:14:31.915Z</time></trkpt><trkpt lat="42.6367967" lon="-7.1531683"><ele>553.6666666666667</ele><time>2026-04-14T17:14:32.915Z</time></trkpt><trkpt lat="42.6368083" lon="-7.1529633"><ele>553.0</ele><time>2026-04-14T17:14:33.915Z</time></trkpt><trkpt lat="42.636835" lon="-7.1527583"><ele>567.0</ele><time>2026-04-14T17:14:34.916Z</time></trkpt><trkpt lat="42.6349933" lon="-7.1579567"><ele>567.0</ele><time>2026-04-14T17:14:03.916Z</time></trkpt><trkpt lat="42.635025" lon="-7.1577617"><ele>567.0</ele><time>2026-04-14T17:14:04.916Z</time></trkpt><trkpt lat="42.6350567" lon="-7.1575617"><ele>567.0</ele><time>2026-04-14T17:14:05.916Z</time></trkpt><trkpt lat="42.6350917" lon="-7.1573617"><ele>567.0</ele><time>2026-04-14T17:14:06.915Z</time></trkpt><trkpt lat="42.6351433" lon="-7.1571533"><ele>565.0</ele><time>2026-04-14T17:14:07.915Z</time></trkpt><trkpt lat="42.6352133" lon="-7.156975"><ele>563.0</ele><time>2026-04-14T17:14:08.916Z</time></trkpt><trkpt lat="42.635305" lon="-7.1567967"><ele>561.0</ele><time>2026-04-14T17:14:09.916Z</time></trkpt><trkpt lat="42.63539" lon="-7.1566183"><ele>562.3333333333334</ele><time>2026-04-14T17:14:10.915Z</time></trkpt><trkpt lat="42.635485" lon="-7.1564617"><ele>563.6666666666667</ele><time>2026-04-14T17:14:11.915Z</time></trkpt><trkpt lat="42.6355933" lon="-7.1563133"><ele>565.0</ele><time>2026-04-14T17:14:12.916Z</time></trkpt><trkpt lat="42.63572" lon="-7.1561683"><ele>565.0</ele><time>2026-04-14T17:14:13.916Z</time></trkpt><trkpt lat="42.63585" lon="-7.1560433"><ele>565.0</ele><time>2026-04-14T17:14:14.916Z</time></trkpt><trkpt lat="42.63599" lon="-7.155935"><ele>565.0</ele><time>2026-04-14T17:14:15.915Z</time></trkpt><trkpt lat="42.6361333" lon="-7.15585"><ele>564.5</ele><time>2026-04-14T17:14:16.915Z</time></trkpt><trkpt lat="42.6362767" lon="-7.1557783"><ele>564.0</ele><time>2026-04-14T17:14:17.915Z</time></trkpt><trkpt lat="42.6364067" lon="-7.1557"><ele>563.5</ele><time>2026-04-14T17:14:18.915Z</time></trkpt><trkpt lat="42.6365217" lon="-7.1555733"><ele>563.0</ele><time>2026-04-14T17:14:19.915Z</time></trkpt><trkpt lat="42.63663" lon="-7.1554183"><ele>563.0</ele><time>2026-04-14T17:14:20.916Z</time></trkpt><trkpt lat="42.6367333" lon="-7.155255"><ele>563.0</ele><time>2026-04-14T17:14:21.916Z</time></trkpt><trkpt lat="42.6368267" lon="-7.1551017"><ele>563.0</ele><time>2026-04-14T17:14:22.916Z</time></trkpt><trkpt lat="42.6369167" lon="-7.1549417"><ele>561.25</ele><time>2026-04-14T17:14:23.915Z</time></trkpt><trkpt lat="42.6369683" lon="-7.154775"><ele>559.5</ele><time>2026-04-14T17:14:24.915Z</time></trkpt><trkpt lat="42.6369933" lon="-7.15459"><ele>557.75</ele><time>2026-04-14T17:14:25.915Z</time></trkpt><trkpt lat="42.636975" lon="-7.1543867"><ele>556.0</ele><time>2026-04-14T17:14:26.915Z</time></trkpt><trkpt lat="42.6369383" lon="-7.1541767"><ele>555.6666666666667</ele><time>2026-04-14T17:14:27.916Z</time></trkpt><trkpt lat="42.6368967" lon="-7.1539683"><ele>555.3333333333334</ele><time>2026-04-14T17:14:28.915Z</time></trkpt><trkpt lat="42.6368583" lon="-7.1537667"><ele>555.0</ele><time>2026-04-14T17:14:29.915Z</time></trkpt><trkpt lat="42.636835" lon="-7.15357"><ele>555.0</ele><time>2026-04-14T17:14:30.916Z</time></trkpt><trkpt lat="42.6368117" lon="-7.153365"><ele>555.0</ele><time>2026-04-14T17:14:31.915Z</time></trkpt><trkpt lat="42.6367967" lon="-7.1531683"><ele>555.0</ele><time>2026-04-14T17:14:32.915Z</time></trkpt><trkpt lat="42.6368083" lon="-7.1529633"><ele>555.0</ele><time>2026-04-14T17:14:33.915Z</time></trkpt><trkpt lat="42.636835" lon="-7.1527583"><ele>554.5</ele><time>2026-04-14T17:14:34.916Z</time></trkpt><trkpt lat="42.6368817" lon="-7.1525817"><ele>554.0</ele><time>2026-04-14T17:14:35.916Z</time></trkpt><trkpt lat="42.636945" lon="-7.1524233"><ele>553.5</ele><time>2026-04-14T17:14:36.916Z</time></trkpt><trkpt lat="42.6370267" lon="-7.1522933"><ele>553.0</ele><time>2026-04-14T17:14:37.917Z</time></trkpt><trkpt lat="42.6371217" lon="-7.152175"><ele>558.0</ele><time>2026-04-14T17:14:38.917Z</time></trkpt><trkpt lat="42.63723" lon="-7.152065"><ele>563.0</ele><time>2026-04-14T17:14:39.917Z</time></trkpt><trkpt lat="42.6373483" lon="-7.1520117"><ele>568.0</ele><time>2026-04-14T17:14:40.917Z</time></trkpt><trkpt lat="42.6374733" lon="-7.1520017"><ele>573.0</ele><time>2026-04-14T17:14:41.917Z</time></trkpt><trkpt lat="42.6376" lon="-7.1520333"><ele>573.0</ele><time>2026-04-14T17:14:42.916Z</time></trkpt><trkpt lat="42.6377233" lon="-7.1520833"><ele>573.0</ele><time>2026-04-14T17:14:43.917Z</time></trkpt><trkpt lat="42.6378467" lon="-7.152155"><ele>573.0</ele><time>2026-04-14T17:14:44.916Z</time></trkpt><trkpt lat="42.6379633" lon="-7.1522517"><ele>573.0</ele><time>2026-04-14T17:14:45.917Z</time></trkpt><trkpt lat="42.638065" lon="-7.1523833"><ele>573.75</ele><time>2026-04-14T17:14:46.916Z</time></trkpt><trkpt lat="42.63816" lon="-7.15253"><ele>574.5</ele><time>2026-04-14T17:14:47.916Z</time></trkpt><trkpt lat="42.63825" lon="-7.15268"><ele>575.25</ele><time>2026-04-14T17:14:48.916Z</time></trkpt><trkpt lat="42.638345" lon="-7.1528183"><ele>576.0</ele><time>2026-04-14T17:14:49.917Z</time></trkpt><trkpt lat="42.6384533" lon="-7.1529283"><ele>576.0</ele><time>2026-04-14T17:14:50.916Z</time></trkpt><trkpt lat="42.6385683" lon="-7.15301"><ele>576.0</ele><time>2026-04-14T17:14:51.917Z</time></trkpt><trkpt lat="42.6386883" lon="-7.153055"><ele>576.0</ele><time>2026-04-14T17:14:52.917Z</time></trkpt><trkpt lat="42.6388" lon="-7.1530917"><ele>576.0</ele><time>2026-04-14T17:14:53.916Z</time></trkpt><trkpt lat="42.6389083" lon="-7.1531467"><ele>577.0</ele><time>2026-04-14T17:14:54.917Z</time></trkpt><trkpt lat="42.6389917" lon="-7.1532383"><ele>578.0</ele><time>2026-04-14T17:14:55.916Z</time></trkpt><trkpt lat="42.639045" lon="-7.15337"><ele>579.0</ele><time>2026-04-14T17:14:56.917Z</time></trkpt><trkpt lat="42.639075" lon="-7.153525"><ele>580.0</ele><time>2026-04-14T17:14:57.916Z</time></trkpt><trkpt lat="42.6390967" lon="-7.1536883"><ele>580.0</ele><time>2026-04-14T17:14:58.917Z</time></trkpt><trkpt lat="42.63914" lon="-7.153825"><ele>580.0</ele><time>2026-04-14T17:14:59.916Z</time></trkpt><trkpt lat="42.6392233" lon="-7.1539517"><ele>580.0</ele><time>2026-04-14T17:15:00.916Z</time></trkpt><trkpt lat="42.6393283" lon="-7.1540583"><ele>580.0</ele><time>2026-04-14T17:15:01.916Z</time></trkpt><trkpt lat="42.63945" lon="-7.1541333"><ele>579.75</ele><time>2026-04-14T17:15:02.917Z</time></trkpt><trkpt lat="42.6395817" lon="-7.15421"><ele>579.5</ele><time>2026-04-14T17:15:03.916Z</time></trkpt><trkpt lat="42.6397083" lon="-7.154305"><ele>579.25</ele><time>2026-04-14T17:15:04.916Z</time></trkpt><trkpt lat="42.6398283" lon="-7.15442"><ele>579.0</ele><time>2026-04-14T17:15:05.916Z</time></trkpt><trkpt lat="42.6399317" lon="-7.1545583"><ele>579.0</ele><time>2026-04-14T17:15:06.917Z</time></trkpt><trkpt lat="42.6400217" lon="-7.1547183"><ele>579.0</ele><time>2026-04-14T17:15:07.916Z</time></trkpt><trkpt lat="42.64011" lon="-7.1548867"><ele>579.0</ele><time>2026-04-14T17:15:08.917Z</time></trkpt><trkpt lat="42.6401967" lon="-7.1550483"><ele>579.0</ele><time>2026-04-14T17:15:09.916Z</time></trkpt><trkpt lat="42.6403" lon="-7.1552133"><ele>580.0</ele><time>2026-04-14T17:15:10.916Z</time></trkpt><trkpt lat="42.6404217" lon="-7.1553383"><ele>581.0</ele><time>2026-04-14T17:15:11.916Z</time></trkpt><trkpt lat="42.6405633" lon="-7.155435"><ele>582.0</ele><time>2026-04-14T17:15:12.917Z</time></trkpt><trkpt lat="42.64072" lon="-7.1555"><ele>582.0</ele><time>2026-04-14T17:15:13.916Z</time></trkpt><trkpt lat="42.6408867" lon="-7.1555283"><ele>582.0</ele><time>2026-04-14T17:15:14.916Z</time></trkpt><trkpt lat="42.6410433" lon="-7.15554"><ele>582.0</ele><time>2026-04-14T17:15:15.916Z</time></trkpt><trkpt lat="42.641185" lon="-7.15552"><ele>583.4</ele><time>2026-04-14T17:15:16.916Z</time></trkpt><trkpt lat="42.6413167" lon="-7.1554733"><ele>584.8000000000001</ele><time>2026-04-14T17:15:17.917Z</time></trkpt><trkpt lat="42.6414167" lon="-7.1554583"><ele>586.2</ele><time>2026-04-14T17:15:18.916Z</time></trkpt><trkpt lat="42.6415017" lon="-7.15546"><ele>587.6</ele><time>2026-04-14T17:15:19.916Z</time></trkpt><trkpt lat="42.64158" lon="-7.1554967"><ele>589.0</ele><time>2026-04-14T17:15:20.916Z</time></trkpt><trkpt lat="42.6416517" lon="-7.1555683"><ele>589.0</ele><time>2026-04-14T17:15:21.916Z</time></trkpt><trkpt lat="42.64173" lon="-7.15566"><ele>589.0</ele><time>2026-04-14T17:15:22.916Z</time></trkpt><trkpt lat="42.6418167" lon="-7.1557717"><ele>589.0</ele><time>2026-04-14T17:15:23.917Z</time></trkpt><trkpt lat="42.64191" lon="-7.1558883"><ele>589.0</ele><time>2026-04-14T17:15:24.917Z</time></trkpt><trkpt lat="42.642" lon="-7.15602"><ele>590.25</ele><time>2026-04-14T17:15:25.917Z</time></trkpt><trkpt lat="42.6420883" lon="-7.1561533"><ele>591.5</ele><time>2026-04-14T17:15:26.916Z</time></trkpt><trkpt lat="42.64219" lon="-7.1562583"><ele>592.75</ele><time>2026-04-14T17:15:27.916Z</time></trkpt><trkpt lat="42.64231" lon="-7.1563183"><ele>594.0</ele><time>2026-04-14T17:15:28.916Z</time></trkpt><trkpt lat="42.6424367" lon="-7.156365"><ele>594.0</ele><time>2026-04-14T17:15:29.917Z</time></trkpt><trkpt lat="42.6425683" lon="-7.1564233"><ele>594.0</ele><time>2026-04-14T17:15:30.917Z</time></trkpt><trkpt lat="42.6426917" lon="-7.156525"><ele>594.0</ele><time>2026-04-14T17:15:31.917Z</time></trkpt><trkpt lat="42.64281" lon="-7.1566233"><ele>594.0</ele><time>2026-04-14T17:15:32.916Z</time></trkpt><trkpt lat="42.642935" lon="-7.1566867"><ele>596.75</ele><time>2026-04-14T17:15:33.916Z</time></trkpt><trkpt lat="42.6430717" lon="-7.1567117"><ele>599.5</ele><time>2026-04-14T17:15:34.917Z</time></trkpt><trkpt lat="42.6432117" lon="-7.1567083"><ele>602.25</ele><time>2026-04-14T17:15:35.917Z</time></trkpt><trkpt lat="42.6433533" lon="-7.1567083"><ele>605.0</ele><time>2026-04-14T17:15:36.917Z</time></trkpt><trkpt lat="42.64349" lon="-7.156745"><ele>605.0</ele><time>2026-04-14T17:15:37.916Z</time></trkpt><trkpt lat="42.6436267" lon="-7.1568233"><ele>605.0</ele><time>2026-04-14T17:15:38.917Z</time></trkpt><trkpt lat="42.6437583" lon="-7.1569083"><ele>605.0</ele><time>2026-04-14T17:15:39.916Z</time></trkpt><trkpt lat="42.6438683" lon="-7.1569983"><ele>605.0</ele><time>2026-04-14T17:15:40.916Z</time></trkpt><trkpt lat="42.6439583" lon="-7.1570967"><ele>605.8</ele><time>2026-04-14T17:15:41.916Z</time></trkpt><trkpt lat="42.6440267" lon="-7.157195"><ele>606.6</ele><time>2026-04-14T17:15:42.917Z</time></trkpt><trkpt lat="42.6440683" lon="-7.157315"><ele>607.4</ele><time>2026-04-14T17:15:43.916Z</time></trkpt><trkpt lat="42.644095" lon="-7.1574567"><ele>608.2</ele><time>2026-04-14T17:15:44.916Z</time></trkpt><trkpt lat="42.6441117" lon="-7.1575883"><ele>609.0</ele><time>2026-04-14T17:15:45.916Z</time></trkpt><trkpt lat="42.6441367" lon="-7.1576983"><ele>609.0</ele><time>2026-04-14T17:15:46.916Z</time></trkpt><trkpt lat="42.6441833" lon="-7.1577683"><ele>609.0</ele><time>2026-04-14T17:15:47.916Z</time></trkpt><trkpt lat="42.64425" lon="-7.1578117"><ele>609.0</ele><time>2026-04-14T17:15:48.916Z</time></trkpt><trkpt lat="42.6443283" lon="-7.15782"><ele>609.0</ele><time>2026-04-14T17:15:49.917Z</time></trkpt><trkpt lat="42.644415" lon="-7.1577883"><ele>609.0</ele><time>2026-04-14T17:15:50.916Z</time></trkpt><trkpt lat="42.644515" lon="-7.1577283"><ele>609.0</ele><time>2026-04-14T17:15:51.916Z</time></trkpt><trkpt lat="42.6446333" lon="-7.1576367"><ele>610.3333333333334</ele><time>2026-04-14T17:15:52.917Z</time></trkpt><trkpt lat="42.644765" lon="-7.1575283"><ele>611.6666666666667</ele><time>2026-04-14T17:15:53.917Z</time></trkpt><trkpt lat="42.644885" lon="-7.1574183"><ele>613.0</ele><time>2026-04-14T17:15:54.916Z</time></trkpt><trkpt lat="42.645005" lon="-7.15728"><ele>611.75</ele><time>2026-04-14T17:15:55.917Z</time></trkpt><trkpt lat="42.6451233" lon="-7.15716"><ele>610.5</ele><time>2026-04-14T17:15:56.917Z</time></trkpt><trkpt lat="42.645245" lon="-7.1570767"><ele>609.25</ele><time>2026-04-14T17:15:57.916Z</time></trkpt><trkpt lat="42.6453517" lon="-7.1569767"><ele>608.0</ele><time>2026-04-14T17:15:58.917Z</time></trkpt><trkpt lat="42.6454317" lon="-7.1568667"><ele>608.0</ele><time>2026-04-14T17:15:59.917Z</time></trkpt><trkpt lat="42.6454933" lon="-7.1567633"><ele>608.0</ele><time>2026-04-14T17:16:00.917Z</time></trkpt><trkpt lat="42.64555" lon="-7.156675"><ele>608.0</ele><time>2026-04-14T17:16:01.916Z</time></trkpt><trkpt lat="42.645575" lon="-7.1565867"><ele>608.0</ele><time>2026-04-14T17:16:02.917Z</time></trkpt><trkpt lat="42.6426917" lon="-7.156525"><ele>607.25</ele><time>2026-04-14T17:15:31.917Z</time></trkpt><trkpt lat="42.64281" lon="-7.1566233"><ele>606.5</ele><time>2026-04-14T17:15:32.916Z</time></trkpt><trkpt lat="42.642935" lon="-7.1566867"><ele>605.75</ele><time>2026-04-14T17:15:33.916Z</time></trkpt><trkpt lat="42.6430717" lon="-7.1567117"><ele>605.0</ele><time>2026-04-14T17:15:34.917Z</time></trkpt><trkpt lat="42.6432117" lon="-7.1567083"><ele>605.0</ele><time>2026-04-14T17:15:35.917Z</time></trkpt><trkpt lat="42.6433533" lon="-7.1567083"><ele>605.0</ele><time>2026-04-14T17:15:36.917Z</time></trkpt><trkpt lat="42.64349" lon="-7.156745"><ele>605.0</ele><time>2026-04-14T17:15:37.916Z</time></trkpt><trkpt lat="42.6436267" lon="-7.1568233"><ele>605.0</ele><time>2026-04-14T17:15:38.917Z</time></trkpt><trkpt lat="42.6437583" lon="-7.1569083"><ele>605.8</ele><time>2026-04-14T17:15:39.916Z</time></trkpt><trkpt lat="42.6438683" lon="-7.1569983"><ele>606.6</ele><time>2026-04-14T17:15:40.916Z</time></trkpt><trkpt lat="42.6439583" lon="-7.1570967"><ele>607.4</ele><time>2026-04-14T17:15:41.916Z</time></trkpt><trkpt lat="42.6440267" lon="-7.157195"><ele>608.2</ele><time>2026-04-14T17:15:42.917Z</time></trkpt><trkpt lat="42.6440683" lon="-7.157315"><ele>609.0</ele><time>2026-04-14T17:15:43.916Z</time></trkpt><trkpt lat="42.644095" lon="-7.1574567"><ele>609.0</ele><time>2026-04-14T17:15:44.916Z</time></trkpt><trkpt lat="42.6441117" lon="-7.1575883"><ele>609.0</ele><time>2026-04-14T17:15:45.916Z</time></trkpt><trkpt lat="42.6441367" lon="-7.1576983"><ele>609.0</ele><time>2026-04-14T17:15:46.916Z</time></trkpt><trkpt lat="42.6441833" lon="-7.1577683"><ele>609.0</ele><time>2026-04-14T17:15:47.916Z</time></trkpt><trkpt lat="42.64425" lon="-7.1578117"><ele>609.0</ele><time>2026-04-14T17:15:48.916Z</time></trkpt><trkpt lat="42.6443283" lon="-7.15782"><ele>609.0</ele><time>2026-04-14T17:15:49.917Z</time></trkpt><trkpt lat="42.644415" lon="-7.1577883"><ele>610.0</ele><time>2026-04-14T17:15:50.916Z</time></trkpt><trkpt lat="42.644515" lon="-7.1577283"><ele>611.0</ele><time>2026-04-14T17:15:51.916Z</time></trkpt><trkpt lat="42.6446333" lon="-7.1576367"><ele>612.0</ele><time>2026-04-14T17:15:52.917Z</time></trkpt><trkpt lat="42.644765" lon="-7.1575283"><ele>613.0</ele><time>2026-04-14T17:15:53.917Z</time></trkpt><trkpt lat="42.644885" lon="-7.1574183"><ele>611.75</ele><time>2026-04-14T17:15:54.916Z</time></trkpt><trkpt lat="42.645005" lon="-7.15728"><ele>610.5</ele><time>2026-04-14T17:15:55.917Z</time></trkpt><trkpt lat="42.6451233" lon="-7.15716"><ele>609.25</ele><time>2026-04-14T17:15:56.917Z</time></trkpt><trkpt lat="42.645245" lon="-7.1570767"><ele>608.0</ele><time>2026-04-14T17:15:57.916Z</time></trkpt><trkpt lat="42.6453517" lon="-7.1569767"><ele>608.0</ele><time>2026-04-14T17:15:58.917Z</time></trkpt><trkpt lat="42.6454317" lon="-7.1568667"><ele>608.0</ele><time>2026-04-14T17:15:59.917Z</time></trkpt><trkpt lat="42.6454933" lon="-7.1567633"><ele>608.0</ele><time>2026-04-14T17:16:00.917Z</time></trkpt><trkpt lat="42.64555" lon="-7.156675"><ele>608.0</ele><time>2026-04-14T17:16:01.916Z</time></trkpt><trkpt lat="42.645575" lon="-7.1565867"><ele>608.0</ele><time>2026-04-14T17:16:02.917Z</time></trkpt><trkpt lat="42.645565" lon="-7.1564867"><ele>608.0</ele><time>2026-04-14T17:16:03.916Z</time></trkpt><trkpt lat="42.6455283" lon="-7.1563933"><ele>612.75</ele><time>2026-04-14T17:16:04.917Z</time></trkpt><trkpt lat="42.6454567" lon="-7.156315"><ele>617.5</ele><time>2026-04-14T17:16:05.917Z</time></trkpt><trkpt lat="42.6453533" lon="-7.1562317"><ele>622.25</ele><time>2026-04-14T17:16:06.916Z</time></trkpt><trkpt lat="42.6452217" lon="-7.1561567"><ele>627.0</ele><time>2026-04-14T17:16:07.917Z</time></trkpt><trkpt lat="42.6450967" lon="-7.1561033"><ele>627.0</ele><time>2026-04-14T17:16:08.916Z</time></trkpt><trkpt lat="42.6449733" lon="-7.1560783"><ele>627.0</ele><time>2026-04-14T17:16:09.917Z</time></trkpt><trkpt lat="42.6448483" lon="-7.1561"><ele>627.0</ele><time>2026-04-14T17:16:10.916Z</time></trkpt><trkpt lat="42.6447267" lon="-7.1561583"><ele>627.0</ele><time>2026-04-14T17:16:11.917Z</time></trkpt><trkpt lat="42.6446183" lon="-7.15624"><ele>627.0</ele><time>2026-04-14T17:16:12.917Z</time></trkpt><trkpt lat="42.6445083" lon="-7.15628"><ele>627.0</ele><time>2026-04-14T17:16:13.917Z</time></trkpt><trkpt lat="42.6444033" lon="-7.156275"><ele>627.0</ele><time>2026-04-14T17:16:14.917Z</time></trkpt><trkpt lat="42.6443183" lon="-7.1562283"><ele>627.0</ele><time>2026-04-14T17:16:15.917Z</time></trkpt><trkpt lat="42.644235" lon="-7.1561483"><ele>627.0</ele><time>2026-04-14T17:16:16.916Z</time></trkpt><trkpt lat="42.6441483" lon="-7.1560567"><ele>625.75</ele><time>2026-04-14T17:16:17.917Z</time></trkpt><trkpt lat="42.6440517" lon="-7.1559783"><ele>624.5</ele><time>2026-04-14T17:16:18.916Z</time></trkpt><trkpt lat="42.643935" lon="-7.155915"><ele>623.25</ele><time>2026-04-14T17:16:19.916Z</time></trkpt><trkpt lat="42.643805" lon="-7.1558567"><ele>622.0</ele><time>2026-04-14T17:16:20.917Z</time></trkpt><trkpt lat="42.643675" lon="-7.1557583"><ele>626.0</ele><time>2026-04-14T17:16:21.916Z</time></trkpt><trkpt lat="42.6435533" lon="-7.155645"><ele>630.0</ele><time>2026-04-14T17:16:22.917Z</time></trkpt><trkpt lat="42.6434333" lon="-7.1555367"><ele>634.0</ele><time>2026-04-14T17:16:23.916Z</time></trkpt><trkpt lat="42.6433" lon="-7.1554467"><ele>638.0</ele><time>2026-04-14T17:16:24.917Z</time></trkpt><trkpt lat="42.64316" lon="-7.1553567"><ele>638.0</ele><time>2026-04-14T17:16:25.916Z</time></trkpt><trkpt lat="42.643015" lon="-7.1552667"><ele>638.0</ele><time>2026-04-14T17:16:26.917Z</time></trkpt><trkpt lat="42.6428967" lon="-7.155155"><ele>638.0</ele><time>2026-04-14T17:16:27.916Z</time></trkpt><trkpt lat="42.642785" lon="-7.1550267"><ele>638.0</ele><time>2026-04-14T17:16:28.916Z</time></trkpt><trkpt lat="42.6426667" lon="-7.1548967"><ele>638.0</ele><time>2026-04-14T17:16:29.916Z</time></trkpt><trkpt lat="42.642575" lon="-7.1547417"><ele>638.0</ele><time>2026-04-14T17:16:30.917Z</time></trkpt><trkpt lat="42.6424833" lon="-7.1545767"><ele>638.0</ele><time>2026-04-14T17:16:31.916Z</time></trkpt><trkpt lat="42.6424" lon="-7.154405"><ele>638.0</ele><time>2026-04-14T17:16:32.916Z</time></trkpt><trkpt lat="42.6423133" lon="-7.154235"><ele>638.0</ele><time>2026-04-14T17:16:33.916Z</time></trkpt><trkpt lat="42.6422167" lon="-7.1540917"><ele>638.0</ele><time>2026-04-14T17:16:34.916Z</time></trkpt><trkpt lat="42.6421133" lon="-7.1539633"><ele>637.5</ele><time>2026-04-14T17:16:35.916Z</time></trkpt><trkpt lat="42.6420083" lon="-7.1538333"><ele>637.0</ele><time>2026-04-14T17:16:36.917Z</time></trkpt><trkpt lat="42.64191" lon="-7.153705"><ele>636.5</ele><time>2026-04-14T17:16:37.917Z</time></trkpt><trkpt lat="42.6418133" lon="-7.1535833"><ele>636.0</ele><time>2026-04-14T17:16:38.916Z</time></trkpt><trkpt lat="42.641725" lon="-7.153455"><ele>636.0</ele><time>2026-04-14T17:16:39.916Z</time></trkpt><trkpt lat="42.641635" lon="-7.15333"><ele>636.0</ele><time>2026-04-14T17:16:40.916Z</time></trkpt><trkpt lat="42.6415533" lon="-7.1532083"><ele>636.0</ele><time>2026-04-14T17:16:41.916Z</time></trkpt><trkpt lat="42.641495" lon="-7.15308"><ele>636.0</ele><time>2026-04-14T17:16:42.916Z</time></trkpt><trkpt lat="42.641455" lon="-7.1529333"><ele>638.3333333333334</ele><time>2026-04-14T17:16:43.917Z</time></trkpt><trkpt lat="42.6414317" lon="-7.15279"><ele>640.6666666666666</ele><time>2026-04-14T17:16:44.916Z</time></trkpt><trkpt lat="42.6414033" lon="-7.1526633"><ele>643.0</ele><time>2026-04-14T17:16:45.916Z</time></trkpt><trkpt lat="42.6413667" lon="-7.1525717"><ele>645.3333333333333</ele><time>2026-04-14T17:16:46.916Z</time></trkpt><trkpt lat="42.6413233" lon="-7.1524983"><ele>647.6666666666666</ele><time>2026-04-14T17:16:48.917Z</time></trkpt><trkpt lat="42.6412633" lon="-7.15241"><ele>650.0</ele><time>2026-04-14T17:16:53.916Z</time></trkpt><trkpt lat="42.641175" lon="-7.1523017"><ele>649.4</ele><time>2026-04-14T17:16:55.917Z</time></trkpt><trkpt lat="42.6411167" lon="-7.1522333"><ele>648.8</ele><time>2026-04-14T17:16:56.916Z</time></trkpt><trkpt lat="42.6410317" lon="-7.1521383"><ele>648.2</ele><time>2026-04-14T17:16:58.916Z</time></trkpt><trkpt lat="42.6409383" lon="-7.1520383"><ele>647.6</ele><time>2026-04-14T17:17:00.917Z</time></trkpt><trkpt lat="42.6408783" lon="-7.151985"><ele>647.0</ele><time>2026-04-14T17:17:01.916Z</time></trkpt><trkpt lat="42.64082" lon="-7.1519083"><ele>647.0</ele><time>2026-04-14T17:17:02.916Z</time></trkpt><trkpt lat="42.64075" lon="-7.1518283"><ele>647.0</ele><time>2026-04-14T17:17:03.917Z</time></trkpt><trkpt lat="42.6406667" lon="-7.1517383"><ele>647.0</ele><time>2026-04-14T17:17:04.917Z</time></trkpt><trkpt lat="42.6405867" lon="-7.1516433"><ele>647.0</ele><time>2026-04-14T17:17:05.916Z</time></trkpt><trkpt lat="42.6405033" lon="-7.1515517"><ele>647.0</ele><time>2026-04-14T17:17:06.916Z</time></trkpt><trkpt lat="42.6404267" lon="-7.151465"><ele>648.4000000000001</ele><time>2026-04-14T17:17:07.916Z</time></trkpt><trkpt lat="42.6403433" lon="-7.1513783"><ele>649.8000000000001</ele><time>2026-04-14T17:17:08.917Z</time></trkpt><trkpt lat="42.6402717" lon="-7.1512967"><ele>651.2</ele><time>2026-04-14T17:17:09.917Z</time></trkpt><trkpt lat="42.6401867" lon="-7.1512183"><ele>652.6</ele><time>2026-04-14T17:17:10.916Z</time></trkpt><trkpt lat="42.640085" lon="-7.15115"><ele>654.0</ele><time>2026-04-14T17:17:11.917Z</time></trkpt><trkpt lat="42.6399717" lon="-7.1511133"><ele>654.0</ele><time>2026-04-14T17:17:12.916Z</time></trkpt><trkpt lat="42.6398467" lon="-7.1510717"><ele>654.0</ele><time>2026-04-14T17:17:13.916Z</time></trkpt><trkpt lat="42.63974" lon="-7.151005"><ele>654.0</ele><time>2026-04-14T17:17:14.917Z</time></trkpt><trkpt lat="42.6396467" lon="-7.1509033"><ele>654.0</ele><time>2026-04-14T17:17:15.917Z</time></trkpt><trkpt lat="42.639565" lon="-7.150795"><ele>654.6</ele><time>2026-04-14T17:17:16.916Z</time></trkpt><trkpt lat="42.6394883" lon="-7.150685"><ele>655.2</ele><time>2026-04-14T17:17:17.917Z</time></trkpt><trkpt lat="42.6394133" lon="-7.1505783"><ele>655.8000000000001</ele><time>2026-04-14T17:17:18.917Z</time></trkpt><trkpt lat="42.6393267" lon="-7.1504967"><ele>656.4000000000001</ele><time>2026-04-14T17:17:19.916Z</time></trkpt><trkpt lat="42.639245" lon="-7.15044"><ele>657.0</ele><time>2026-04-14T17:17:20.916Z</time></trkpt><trkpt lat="42.6391767" lon="-7.1503983"><ele>657.0</ele><time>2026-04-14T17:17:21.917Z</time></trkpt><trkpt lat="42.63911" lon="-7.150385"><ele>657.0</ele><time>2026-04-14T17:17:22.916Z</time></trkpt><trkpt lat="42.6390117" lon="-7.1504"><ele>657.0</ele><time>2026-04-14T17:17:24.916Z</time></trkpt><trkpt lat="42.63892" lon="-7.1504267"><ele>657.0</ele><time>2026-04-14T17:17:26.917Z</time></trkpt><trkpt lat="42.6388183" lon="-7.150415"><ele>657.0</ele><time>2026-04-14T17:17:28.917Z</time></trkpt><trkpt lat="42.6387467" lon="-7.1503833"><ele>657.0</ele><time>2026-04-14T17:17:29.917Z</time></trkpt><trkpt lat="42.6386567" lon="-7.15034"><ele>652.0</ele><time>2026-04-14T17:17:30.917Z</time></trkpt><trkpt lat="42.6385583" lon="-7.1502867"><ele>647.0</ele><time>2026-04-14T17:17:31.916Z</time></trkpt><trkpt lat="42.6384667" lon="-7.1502117"><ele>642.0</ele><time>2026-04-14T17:17:32.916Z</time></trkpt><trkpt lat="42.6383867" lon="-7.1501233"><ele>637.0</ele><time>2026-04-14T17:17:33.917Z</time></trkpt><trkpt lat="42.6383233" lon="-7.150015"><ele>632.0</ele><time>2026-04-14T17:17:34.916Z</time></trkpt><trkpt lat="42.638275" lon="-7.149895"><ele>633.0</ele><time>2026-04-14T17:17:35.916Z</time></trkpt><trkpt lat="42.6382467" lon="-7.14975"><ele>634.0</ele><time>2026-04-14T17:17:36.917Z</time></trkpt><trkpt lat="42.638225" lon="-7.1496017"><ele>635.0</ele><time>2026-04-14T17:17:37.917Z</time></trkpt><trkpt lat="42.638215" lon="-7.1494617"><ele>636.0</ele><time>2026-04-14T17:17:38.917Z</time></trkpt><trkpt lat="42.63823" lon="-7.1493167"><ele>637.0</ele><time>2026-04-14T17:17:39.917Z</time></trkpt><trkpt lat="42.6382483" lon="-7.1491667"><ele>634.25</ele><time>2026-04-14T17:17:40.916Z</time></trkpt><trkpt lat="42.6382683" lon="-7.149015"><ele>631.5</ele><time>2026-04-14T17:17:41.916Z</time></trkpt><trkpt lat="42.6382883" lon="-7.1488617"><ele>628.75</ele><time>2026-04-14T17:17:42.916Z</time></trkpt><trkpt lat="42.6383" lon="-7.148705"><ele>626.0</ele><time>2026-04-14T17:17:43.916Z</time></trkpt><trkpt lat="42.6382883" lon="-7.1485333"><ele>626.0</ele><time>2026-04-14T17:17:44.917Z</time></trkpt><trkpt lat="42.6382633" lon="-7.14833"><ele>626.0</ele><time>2026-04-14T17:17:45.916Z</time></trkpt><trkpt lat="42.6382483" lon="-7.1481217"><ele>626.0</ele><time>2026-04-14T17:17:46.917Z</time></trkpt><trkpt lat="42.6382267" lon="-7.147925"><ele>626.6666666666666</ele><time>2026-04-14T17:17:47.916Z</time></trkpt><trkpt lat="42.638205" lon="-7.1477217"><ele>627.3333333333334</ele><time>2026-04-14T17:17:48.916Z</time></trkpt><trkpt lat="42.6381717" lon="-7.1475167"><ele>628.0</ele><time>2026-04-14T17:17:49.917Z</time></trkpt><trkpt lat="42.638135" lon="-7.1473267"><ele>629.25</ele><time>2026-04-14T17:17:50.916Z</time></trkpt><trkpt lat="42.6380917" lon="-7.1471417"><ele>630.5</ele><time>2026-04-14T17:17:51.917Z</time></trkpt><trkpt lat="42.6380533" lon="-7.1469617"><ele>631.75</ele><time>2026-04-14T17:17:52.917Z</time></trkpt><trkpt lat="42.638015" lon="-7.14677"><ele>633.0</ele><time>2026-04-14T17:17:53.916Z</time></trkpt><trkpt lat="42.63798" lon="-7.1465833"><ele>633.25</ele><time>2026-04-14T17:17:54.917Z</time></trkpt><trkpt lat="42.6379483" lon="-7.146395"><ele>633.5</ele><time>2026-04-14T17:17:55.916Z</time></trkpt><trkpt lat="42.63791" lon="-7.1462033"><ele>633.75</ele><time>2026-04-14T17:17:56.917Z</time></trkpt><trkpt lat="42.63786" lon="-7.14601"><ele>634.0</ele><time>2026-04-14T17:17:57.917Z</time></trkpt><trkpt lat="42.6378217" lon="-7.1458133"><ele>635.5</ele><time>2026-04-14T17:17:58.917Z</time></trkpt><trkpt lat="42.6378067" lon="-7.1456117"><ele>637.0</ele><time>2026-04-14T17:17:59.916Z</time></trkpt><trkpt lat="42.6377883" lon="-7.145415"><ele>638.5</ele><time>2026-04-14T17:18:00.917Z</time></trkpt><trkpt lat="42.6377817" lon="-7.1452167"><ele>640.0</ele><time>2026-04-14T17:18:01.916Z</time></trkpt><trkpt lat="42.6377817" lon="-7.1450167"><ele>639.0</ele><time>2026-04-14T17:18:02.917Z</time></trkpt><trkpt lat="42.637795" lon="-7.1448133"><ele>638.0</ele><time>2026-04-14T17:18:03.917Z</time></trkpt><trkpt lat="42.637825" lon="-7.1446083"><ele>637.0</ele><time>2026-04-14T17:18:04.916Z</time></trkpt><trkpt lat="42.637865" lon="-7.1444217"><ele>636.0</ele><time>2026-04-14T17:18:05.917Z</time></trkpt><trkpt lat="42.6379117" lon="-7.1442533"><ele>636.0</ele><time>2026-04-14T17:18:06.916Z</time></trkpt><trkpt lat="42.6379767" lon="-7.1440917"><ele>636.0</ele><time>2026-04-14T17:18:07.916Z</time></trkpt><trkpt lat="42.6380567" lon="-7.1439383"><ele>636.0</ele><time>2026-04-14T17:18:08.916Z</time></trkpt><trkpt lat="42.6381367" lon="-7.1438067"><ele>636.0</ele><time>2026-04-14T17:18:09.916Z</time></trkpt><trkpt lat="42.6382167" lon="-7.143635"><ele>632.6666666666666</ele><time>2026-04-14T17:18:10.917Z</time></trkpt><trkpt lat="42.63829" lon="-7.1434467"><ele>629.3333333333333</ele><time>2026-04-14T17:18:11.916Z</time></trkpt><trkpt lat="42.6383533" lon="-7.1432467"><ele>626.0</ele><time>2026-04-14T17:18:12.916Z</time></trkpt><trkpt lat="42.6384" lon="-7.1430333"><ele>620.3333333333333</ele><time>2026-04-14T17:18:13.917Z</time></trkpt><trkpt lat="42.638455" lon="-7.1428233"><ele>614.6666666666666</ele><time>2026-04-14T17:18:14.917Z</time></trkpt><trkpt lat="42.6385067" lon="-7.1426083"><ele>609.0</ele><time>2026-04-14T17:18:15.917Z</time></trkpt><trkpt lat="42.6385817" lon="-7.142425"><ele>621.6666666666666</ele><time>2026-04-14T17:18:16.917Z</time></trkpt><trkpt lat="42.6386617" lon="-7.142235"><ele>634.3333333333333</ele><time>2026-04-14T17:18:17.917Z</time></trkpt><trkpt lat="42.63874" lon="-7.1420683"><ele>647.0</ele><time>2026-04-14T17:18:18.917Z</time></trkpt><trkpt lat="42.6388117" lon="-7.1418933"><ele>647.0</ele><time>2026-04-14T17:18:19.917Z</time></trkpt><trkpt lat="42.6388783" lon="-7.1417083"><ele>647.0</ele><time>2026-04-14T17:18:20.916Z</time></trkpt><trkpt lat="42.6389383" lon="-7.14152"><ele>647.0</ele><time>2026-04-14T17:18:21.917Z</time></trkpt><trkpt lat="42.6389783" lon="-7.1413283"><ele>647.0</ele><time>2026-04-14T17:18:22.916Z</time></trkpt><trkpt lat="42.6390083" lon="-7.1411283"><ele>643.5</ele><time>2026-04-14T17:18:23.917Z</time></trkpt><trkpt lat="42.6390317" lon="-7.1409367"><ele>640.0</ele><time>2026-04-14T17:18:24.917Z</time></trkpt><trkpt lat="42.6390483" lon="-7.1407533"><ele>636.5</ele><time>2026-04-14T17:18:25.916Z</time></trkpt><trkpt lat="42.6390767" lon="-7.14058"><ele>633.0</ele><time>2026-04-14T17:18:26.917Z</time></trkpt><trkpt lat="42.6391133" lon="-7.1404117"><ele>629.0</ele><time>2026-04-14T17:18:27.916Z</time></trkpt><trkpt lat="42.6391733" lon="-7.1402383"><ele>625.0</ele><time>2026-04-14T17:18:28.917Z</time></trkpt><trkpt lat="42.639245" lon="-7.1400917"><ele>621.0</ele><time>2026-04-14T17:18:29.917Z</time></trkpt><trkpt lat="42.6393183" lon="-7.1399567"><ele>617.0</ele><time>2026-04-14T17:18:30.916Z</time></trkpt><trkpt lat="42.6394017" lon="-7.1398283"><ele>616.5</ele><time>2026-04-14T17:18:31.916Z</time></trkpt><trkpt lat="42.6394983" lon="-7.1397183"><ele>616.0</ele><time>2026-04-14T17:18:32.917Z</time></trkpt><trkpt lat="42.639615" lon="-7.139625"><ele>615.5</ele><time>2026-04-14T17:18:33.916Z</time></trkpt><trkpt lat="42.6397417" lon="-7.13954"><ele>615.0</ele><time>2026-04-14T17:18:34.916Z</time></trkpt><trkpt lat="42.6398833" lon="-7.1394583"><ele>636.0</ele><time>2026-04-14T17:18:35.917Z</time></trkpt><trkpt lat="42.637825" lon="-7.1446083"><ele>636.0</ele><time>2026-04-14T17:18:04.916Z</time></trkpt><trkpt lat="42.637865" lon="-7.1444217"><ele>636.0</ele><time>2026-04-14T17:18:05.917Z</time></trkpt><trkpt lat="42.6379117" lon="-7.1442533"><ele>636.0</ele><time>2026-04-14T17:18:06.916Z</time></trkpt><trkpt lat="42.6379767" lon="-7.1440917"><ele>636.0</ele><time>2026-04-14T17:18:07.916Z</time></trkpt><trkpt lat="42.6380567" lon="-7.1439383"><ele>633.5</ele><time>2026-04-14T17:18:08.916Z</time></trkpt><trkpt lat="42.6381367" lon="-7.1438067"><ele>631.0</ele><time>2026-04-14T17:18:09.916Z</time></trkpt><trkpt lat="42.6382167" lon="-7.143635"><ele>628.5</ele><time>2026-04-14T17:18:10.917Z</time></trkpt><trkpt lat="42.63829" lon="-7.1434467"><ele>626.0</ele><time>2026-04-14T17:18:11.916Z</time></trkpt><trkpt lat="42.6383533" lon="-7.1432467"><ele>620.3333333333333</ele><time>2026-04-14T17:18:12.916Z</time></trkpt><trkpt lat="42.6384" lon="-7.1430333"><ele>614.6666666666666</ele><time>2026-04-14T17:18:13.917Z</time></trkpt><trkpt lat="42.638455" lon="-7.1428233"><ele>609.0</ele><time>2026-04-14T17:18:14.917Z</time></trkpt><trkpt lat="42.6385067" lon="-7.1426083"><ele>609.0</ele><time>2026-04-14T17:18:15.917Z</time></trkpt><trkpt lat="42.6385817" lon="-7.142425"><ele>609.0</ele><time>2026-04-14T17:18:16.917Z</time></trkpt><trkpt lat="42.6386617" lon="-7.142235"><ele>609.0</ele><time>2026-04-14T17:18:17.917Z</time></trkpt><trkpt lat="42.63874" lon="-7.1420683"><ele>617.0</ele><time>2026-04-14T17:18:18.917Z</time></trkpt><trkpt lat="42.6388117" lon="-7.1418933"><ele>625.0</ele><time>2026-04-14T17:18:19.917Z</time></trkpt><trkpt lat="42.6388783" lon="-7.1417083"><ele>633.0</ele><time>2026-04-14T17:18:20.916Z</time></trkpt><trkpt lat="42.6389383" lon="-7.14152"><ele>633.0</ele><time>2026-04-14T17:18:21.917Z</time></trkpt><trkpt lat="42.6389783" lon="-7.1413283"><ele>633.0</ele><time>2026-04-14T17:18:22.916Z</time></trkpt><trkpt lat="42.6390083" lon="-7.1411283"><ele>633.0</ele><time>2026-04-14T17:18:23.917Z</time></trkpt><trkpt lat="42.6390317" lon="-7.1409367"><ele>633.0</ele><time>2026-04-14T17:18:24.917Z</time></trkpt><trkpt lat="42.6390483" lon="-7.1407533"><ele>629.0</ele><time>2026-04-14T17:18:25.916Z</time></trkpt><trkpt lat="42.6390767" lon="-7.14058"><ele>625.0</ele><time>2026-04-14T17:18:26.917Z</time></trkpt><trkpt lat="42.6391133" lon="-7.1404117"><ele>621.0</ele><time>2026-04-14T17:18:27.916Z</time></trkpt><trkpt lat="42.6391733" lon="-7.1402383"><ele>617.0</ele><time>2026-04-14T17:18:28.917Z</time></trkpt><trkpt lat="42.639245" lon="-7.1400917"><ele>617.0</ele><time>2026-04-14T17:18:29.917Z</time></trkpt><trkpt lat="42.6393183" lon="-7.1399567"><ele>617.0</ele><time>2026-04-14T17:18:30.916Z</time></trkpt><trkpt lat="42.6394017" lon="-7.1398283"><ele>617.0</ele><time>2026-04-14T17:18:31.916Z</time></trkpt><trkpt lat="42.6394983" lon="-7.1397183"><ele>617.0</ele><time>2026-04-14T17:18:32.917Z</time></trkpt><trkpt lat="42.639615" lon="-7.139625"><ele>616.5</ele><time>2026-04-14T17:18:33.916Z</time></trkpt><trkpt lat="42.6397417" lon="-7.13954"><ele>616.0</ele><time>2026-04-14T17:18:34.916Z</time></trkpt><trkpt lat="42.6398833" lon="-7.1394583"><ele>615.5</ele><time>2026-04-14T17:18:35.917Z</time></trkpt><trkpt lat="42.6400217" lon="-7.13937"><ele>615.0</ele><time>2026-04-14T17:18:36.917Z</time></trkpt><trkpt lat="42.64016" lon="-7.13928"><ele>609.6666666666666</ele><time>2026-04-14T17:18:37.916Z</time></trkpt><trkpt lat="42.6403" lon="-7.1391883"><ele>604.3333333333333</ele><time>2026-04-14T17:18:38.917Z</time></trkpt><trkpt lat="42.6404383" lon="-7.1391033"><ele>599.0</ele><time>2026-04-14T17:18:39.917Z</time></trkpt><trkpt lat="42.6405733" lon="-7.1390183"><ele>599.0</ele><time>2026-04-14T17:18:40.916Z</time></trkpt><trkpt lat="42.64071" lon="-7.13894"><ele>599.0</ele><time>2026-04-14T17:18:41.917Z</time></trkpt><trkpt lat="42.6408567" lon="-7.1388733"><ele>599.0</ele><time>2026-04-14T17:18:42.917Z</time></trkpt><trkpt lat="42.6410083" lon="-7.1388233"><ele>598.25</ele><time>2026-04-14T17:18:43.916Z</time></trkpt><trkpt lat="42.6411533" lon="-7.1387967"><ele>597.5</ele><time>2026-04-14T17:18:44.916Z</time></trkpt><trkpt lat="42.6412967" lon="-7.138785"><ele>596.75</ele><time>2026-04-14T17:18:45.916Z</time></trkpt><trkpt lat="42.641435" lon="-7.13876"><ele>596.0</ele><time>2026-04-14T17:18:46.916Z</time></trkpt><trkpt lat="42.641565" lon="-7.138735"><ele>596.0</ele><time>2026-04-14T17:18:47.916Z</time></trkpt><trkpt lat="42.6417067" lon="-7.138685"><ele>596.0</ele><time>2026-04-14T17:18:48.916Z</time></trkpt><trkpt lat="42.6418233" lon="-7.1386383"><ele>596.0</ele><time>2026-04-14T17:18:49.916Z</time></trkpt><trkpt lat="42.64193" lon="-7.13856"><ele>596.0</ele><time>2026-04-14T17:18:50.917Z</time></trkpt><trkpt lat="42.642025" lon="-7.1384667"><ele>597.75</ele><time>2026-04-14T17:18:51.917Z</time></trkpt><trkpt lat="42.642105" lon="-7.1383433"><ele>599.5</ele><time>2026-04-14T17:18:52.916Z</time></trkpt><trkpt lat="42.64218" lon="-7.1381967"><ele>601.25</ele><time>2026-04-14T17:18:53.916Z</time></trkpt><trkpt lat="42.64225" lon="-7.1380267"><ele>603.0</ele><time>2026-04-14T17:18:54.917Z</time></trkpt><trkpt lat="42.64231" lon="-7.1378633"><ele>603.0</ele><time>2026-04-14T17:18:55.916Z</time></trkpt><trkpt lat="42.6423733" lon="-7.1377017"><ele>603.0</ele><time>2026-04-14T17:18:56.917Z</time></trkpt><trkpt lat="42.64243" lon="-7.137535"><ele>603.0</ele><time>2026-04-14T17:18:57.916Z</time></trkpt><trkpt lat="42.6424833" lon="-7.1373683"><ele>603.0</ele><time>2026-04-14T17:18:58.917Z</time></trkpt><trkpt lat="42.64252" lon="-7.1372133"><ele>600.0</ele><time>2026-04-14T17:18:59.917Z</time></trkpt><trkpt lat="42.642545" lon="-7.1370483"><ele>597.0</ele><time>2026-04-14T17:19:00.917Z</time></trkpt><trkpt lat="42.642585" lon="-7.1369033"><ele>594.0</ele><time>2026-04-14T17:19:01.917Z</time></trkpt><trkpt lat="42.6426283" lon="-7.13677"><ele>591.0</ele><time>2026-04-14T17:19:02.917Z</time></trkpt><trkpt lat="42.6426617" lon="-7.13663"><ele>590.3333333333334</ele><time>2026-04-14T17:19:03.916Z</time></trkpt><trkpt lat="42.6426867" lon="-7.1365"><ele>589.6666666666666</ele><time>2026-04-14T17:19:04.916Z</time></trkpt><trkpt lat="42.6426867" lon="-7.13638"><ele>589.0</ele><time>2026-04-14T17:19:05.917Z</time></trkpt><trkpt lat="42.64267" lon="-7.13627"><ele>588.3333333333333</ele><time>2026-04-14T17:19:06.916Z</time></trkpt><trkpt lat="42.6426467" lon="-7.136175"><ele>587.6666666666666</ele><time>2026-04-14T17:19:07.916Z</time></trkpt><trkpt lat="42.642615" lon="-7.1360383"><ele>587.0</ele><time>2026-04-14T17:19:09.917Z</time></trkpt><trkpt lat="42.64259" lon="-7.1359567"><ele>587.0</ele><time>2026-04-14T17:32:43.918Z</time></trkpt><trkpt lat="42.6425183" lon="-7.1357883"><ele>587.0</ele><time>2026-04-14T17:33:51.919Z</time></trkpt><trkpt lat="42.6426033" lon="-7.1357567"><ele>587.0</ele><time>2026-04-14T17:34:05.918Z</time></trkpt><trkpt lat="42.6426817" lon="-7.1358583"><ele>587.0</ele><time>2026-04-14T17:42:15.919Z</time></trkpt><trkpt lat="42.6426767" lon="-7.135965"><ele>587.0</ele><time>2026-04-14T17:42:37.919Z</time></trkpt><trkpt lat="42.642695" lon="-7.1360967"><ele>587.0</ele><time>2026-04-14T17:42:39.919Z</time></trkpt><trkpt lat="42.6427067" lon="-7.1362317"><ele>587.0</ele><time>2026-04-14T17:42:41.919Z</time></trkpt><trkpt lat="42.6427183" lon="-7.1363583"><ele>587.0</ele><time>2026-04-14T17:42:43.919Z</time></trkpt><trkpt lat="42.6427067" lon="-7.1364717"><ele>587.0</ele><time>2026-04-14T17:42:45.92Z</time></trkpt><trkpt lat="42.6426733" lon="-7.1366167"><ele>587.0</ele><time>2026-04-14T17:42:47.919Z</time></trkpt><trkpt lat="42.6426383" lon="-7.1367333"><ele>587.6666666666666</ele><time>2026-04-14T17:42:48.92Z</time></trkpt><trkpt lat="42.642615" lon="-7.136815"><ele>588.3333333333333</ele><time>2026-04-14T17:42:49.92Z</time></trkpt><trkpt lat="42.6426" lon="-7.1369067"><ele>589.0</ele><time>2026-04-14T17:42:50.92Z</time></trkpt><trkpt lat="42.6425833" lon="-7.137005"><ele>589.6666666666666</ele><time>2026-04-14T17:42:51.919Z</time></trkpt><trkpt lat="42.642565" lon="-7.1371183"><ele>590.3333333333334</ele><time>2026-04-14T17:42:52.919Z</time></trkpt><trkpt lat="42.6425433" lon="-7.137235"><ele>591.0</ele><time>2026-04-14T17:42:53.919Z</time></trkpt><trkpt lat="42.642515" lon="-7.13735"><ele>593.4</ele><time>2026-04-14T17:42:54.919Z</time></trkpt><trkpt lat="42.642495" lon="-7.1374683"><ele>595.8</ele><time>2026-04-14T17:42:55.919Z</time></trkpt><trkpt lat="42.6424433" lon="-7.1375983"><ele>598.1999999999999</ele><time>2026-04-14T17:42:56.92Z</time></trkpt><trkpt lat="42.6424117" lon="-7.1377117"><ele>600.6</ele><time>2026-04-14T17:42:57.92Z</time></trkpt><trkpt lat="42.64237" lon="-7.13781"><ele>603.0</ele><time>2026-04-14T17:42:58.919Z</time></trkpt><trkpt lat="42.6423367" lon="-7.13791"><ele>603.0</ele><time>2026-04-14T17:42:59.92Z</time></trkpt><trkpt lat="42.6422967" lon="-7.1380183"><ele>603.0</ele><time>2026-04-14T17:43:00.92Z</time></trkpt><trkpt lat="42.6422517" lon="-7.1381233"><ele>603.0</ele><time>2026-04-14T17:43:01.92Z</time></trkpt><trkpt lat="42.6422083" lon="-7.1382417"><ele>603.0</ele><time>2026-04-14T17:43:02.919Z</time></trkpt><trkpt lat="42.6421767" lon="-7.1383517"><ele>603.0</ele><time>2026-04-14T17:43:03.919Z</time></trkpt><trkpt lat="42.6421333" lon="-7.1384517"><ele>603.0</ele><time>2026-04-14T17:43:04.92Z</time></trkpt><trkpt lat="42.6421033" lon="-7.1385583"><ele>602.0</ele><time>2026-04-14T17:43:05.92Z</time></trkpt><trkpt lat="42.6420883" lon="-7.1386717"><ele>601.0</ele><time>2026-04-14T17:43:06.919Z</time></trkpt><trkpt lat="42.6420517" lon="-7.1387583"><ele>600.0</ele><time>2026-04-14T17:43:07.92Z</time></trkpt><trkpt lat="42.6420133" lon="-7.1388367"><ele>599.0</ele><time>2026-04-14T17:43:08.919Z</time></trkpt><trkpt lat="42.64197" lon="-7.13891"><ele>598.0</ele><time>2026-04-14T17:43:09.92Z</time></trkpt><trkpt lat="42.641915" lon="-7.138975"><ele>597.0</ele><time>2026-04-14T17:43:10.919Z</time></trkpt><trkpt lat="42.6418633" lon="-7.1390483"><ele>596.0</ele><time>2026-04-14T17:43:11.919Z</time></trkpt><trkpt lat="42.6418" lon="-7.1390433"><ele>603.6666666666666</ele><time>2026-04-14T17:43:12.919Z</time></trkpt><trkpt lat="42.641695" lon="-7.139145"><ele>611.3333333333333</ele><time>2026-04-14T17:43:14.92Z</time></trkpt><trkpt lat="42.6416333" lon="-7.1391767"><ele>619.0</ele><time>2026-04-14T17:43:15.919Z</time></trkpt><trkpt lat="42.6415317" lon="-7.1391783"><ele>626.6666666666666</ele><time>2026-04-14T17:43:16.919Z</time></trkpt><trkpt lat="42.64147" lon="-7.1391983"><ele>634.3333333333334</ele><time>2026-04-14T17:43:17.919Z</time></trkpt><trkpt lat="42.6413817" lon="-7.1391783"><ele>642.0</ele><time>2026-04-14T17:43:18.92Z</time></trkpt><trkpt lat="42.64127" lon="-7.13917"><ele>642.0</ele><time>2026-04-14T17:43:19.919Z</time></trkpt><trkpt lat="42.6411617" lon="-7.1391617"><ele>642.0</ele><time>2026-04-14T17:43:20.919Z</time></trkpt><trkpt lat="42.6408867" lon="-7.138955"><ele>642.0</ele><time>2026-04-14T17:43:21.919Z</time></trkpt><trkpt lat="42.6407917" lon="-7.1389433"><ele>640.6666666666666</ele><time>2026-04-14T17:43:22.92Z</time></trkpt><trkpt lat="42.6407033" lon="-7.1389483"><ele>639.3333333333334</ele><time>2026-04-14T17:43:23.919Z</time></trkpt><trkpt lat="42.6406233" lon="-7.138975"><ele>638.0</ele><time>2026-04-14T17:43:24.919Z</time></trkpt><trkpt lat="42.6405467" lon="-7.1390267"><ele>636.6666666666667</ele><time>2026-04-14T17:43:25.919Z</time></trkpt><trkpt lat="42.6404767" lon="-7.13907"><ele>635.3333333333334</ele><time>2026-04-14T17:43:26.92Z</time></trkpt><trkpt lat="42.6404017" lon="-7.1391317"><ele>634.0</ele><time>2026-04-14T17:43:27.919Z</time></trkpt><trkpt lat="42.6403283" lon="-7.1391667"><ele>630.8333333333334</ele><time>2026-04-14T17:43:28.919Z</time></trkpt><trkpt lat="42.64024" lon="-7.13923"><ele>627.6666666666667</ele><time>2026-04-14T17:43:29.92Z</time></trkpt><trkpt lat="42.6401567" lon="-7.13927"><ele>624.5</ele><time>2026-04-14T17:43:30.92Z</time></trkpt><trkpt lat="42.6400867" lon="-7.1393083"><ele>621.3333333333334</ele><time>2026-04-14T17:43:31.919Z</time></trkpt><trkpt lat="42.64003" lon="-7.1393567"><ele>618.1666666666666</ele><time>2026-04-14T17:43:32.919Z</time></trkpt><trkpt lat="42.6399567" lon="-7.1394117"><ele>615.0</ele><time>2026-04-14T17:43:34.919Z</time></trkpt><trkpt lat="42.63988" lon="-7.1394633"><ele>615.0</ele><time>2026-04-14T17:43:36.92Z</time></trkpt><trkpt lat="42.6398017" lon="-7.1395117"><ele>615.0</ele><time>2026-04-14T17:43:38.92Z</time></trkpt><trkpt lat="42.6397433" lon="-7.1396167"><ele>615.0</ele><time>2026-04-14T17:43:40.92Z</time></trkpt><trkpt lat="42.639695" lon="-7.139745"><ele>615.0</ele><time>2026-04-14T17:43:42.92Z</time></trkpt><trkpt lat="42.63964" lon="-7.13981"><ele>615.0</ele><time>2026-04-14T17:43:44.92Z</time></trkpt><trkpt lat="42.639555" lon="-7.1398733"><ele>615.4</ele><time>2026-04-14T17:43:46.919Z</time></trkpt><trkpt lat="42.6394817" lon="-7.139975"><ele>615.8</ele><time>2026-04-14T17:43:48.92Z</time></trkpt><trkpt lat="42.6394183" lon="-7.140145"><ele>616.2</ele><time>2026-04-14T17:43:50.92Z</time></trkpt><trkpt lat="42.63936" lon="-7.1402133"><ele>616.6</ele><time>2026-04-14T17:43:51.92Z</time></trkpt><trkpt lat="42.6393117" lon="-7.1402817"><ele>617.0</ele><time>2026-04-14T17:43:52.919Z</time></trkpt><trkpt lat="42.6392417" lon="-7.140335"><ele>617.0</ele><time>2026-04-14T17:43:53.92Z</time></trkpt><trkpt lat="42.639175" lon="-7.14038"><ele>617.0</ele><time>2026-04-14T17:43:54.919Z</time></trkpt><trkpt lat="42.6391033" lon="-7.1404483"><ele>617.0</ele><time>2026-04-14T17:43:55.919Z</time></trkpt><trkpt lat="42.6390433" lon="-7.1405117"><ele>617.0</ele><time>2026-04-14T17:43:56.919Z</time></trkpt><trkpt lat="42.6389883" lon="-7.1405933"><ele>617.0</ele><time>2026-04-14T17:43:57.919Z</time></trkpt><trkpt lat="42.6389583" lon="-7.140715"><ele>617.0</ele><time>2026-04-14T17:43:58.92Z</time></trkpt><trkpt lat="42.6389367" lon="-7.1408433"><ele>619.6666666666666</ele><time>2026-04-14T17:43:59.92Z</time></trkpt><trkpt lat="42.6389217" lon="-7.140955"><ele>622.3333333333333</ele><time>2026-04-14T17:44:00.919Z</time></trkpt><trkpt lat="42.6389233" lon="-7.14108"><ele>625.0</ele><time>2026-04-14T17:44:01.919Z</time></trkpt><trkpt lat="42.6389233" lon="-7.1411783"><ele>627.6666666666666</ele><time>2026-04-14T17:44:02.92Z</time></trkpt><trkpt lat="42.6389067" lon="-7.1412933"><ele>630.3333333333334</ele><time>2026-04-14T17:44:03.92Z</time></trkpt><trkpt lat="42.638885" lon="-7.1414067"><ele>633.0</ele><time>2026-04-14T17:44:04.92Z</time></trkpt><trkpt lat="42.6388517" lon="-7.1415233"><ele>635.8</ele><time>2026-04-14T17:44:05.919Z</time></trkpt><trkpt lat="42.6388" lon="-7.1416417"><ele>638.5999999999999</ele><time>2026-04-14T17:44:06.919Z</time></trkpt><trkpt lat="42.6387467" lon="-7.1417867"><ele>641.4000000000001</ele><time>2026-04-14T17:44:07.92Z</time></trkpt><trkpt lat="42.638695" lon="-7.14191"><ele>644.2</ele><time>2026-04-14T17:44:08.92Z</time></trkpt><trkpt lat="42.6386383" lon="-7.14202"><ele>647.0</ele><time>2026-04-14T17:44:09.92Z</time></trkpt><trkpt lat="42.6386117" lon="-7.1421717"><ele>639.4</ele><time>2026-04-14T17:44:10.92Z</time></trkpt><trkpt lat="42.6386017" lon="-7.142325"><ele>631.8000000000001</ele><time>2026-04-14T17:44:11.919Z</time></trkpt><trkpt lat="42.6385567" lon="-7.1424367"><ele>624.2</ele><time>2026-04-14T17:44:12.919Z</time></trkpt><trkpt lat="42.638515" lon="-7.14255"><ele>616.6</ele><time>2026-04-14T17:44:13.92Z</time></trkpt><trkpt lat="42.6384683" lon="-7.142665"><ele>609.0</ele><time>2026-04-14T17:44:14.919Z</time></trkpt><trkpt lat="42.6384117" lon="-7.1427817"><ele>609.0</ele><time>2026-04-14T17:44:15.919Z</time></trkpt><trkpt lat="42.638345" lon="-7.1429"><ele>609.0</ele><time>2026-04-14T17:44:16.919Z</time></trkpt><trkpt lat="42.6382933" lon="-7.1430267"><ele>609.0</ele><time>2026-04-14T17:44:17.92Z</time></trkpt><trkpt lat="42.6382383" lon="-7.1431633"><ele>609.0</ele><time>2026-04-14T17:44:18.92Z</time></trkpt><trkpt lat="42.638185" lon="-7.1432983"><ele>609.0</ele><time>2026-04-14T17:44:19.92Z</time></trkpt><trkpt lat="42.63813" lon="-7.1434283"><ele>612.4</ele><time>2026-04-14T17:44:20.919Z</time></trkpt><trkpt lat="42.6380833" lon="-7.143555"><ele>615.8</ele><time>2026-04-14T17:44:21.92Z</time></trkpt><trkpt lat="42.638015" lon="-7.1436733"><ele>619.2</ele><time>2026-04-14T17:44:22.919Z</time></trkpt><trkpt lat="42.6379683" lon="-7.1437983"><ele>622.6</ele><time>2026-04-14T17:44:23.919Z</time></trkpt><trkpt lat="42.6379433" lon="-7.1439133"><ele>626.0</ele><time>2026-04-14T17:44:24.919Z</time></trkpt><trkpt lat="42.63791" lon="-7.1440083"><ele>627.6666666666666</ele><time>2026-04-14T17:44:25.92Z</time></trkpt><trkpt lat="42.6378717" lon="-7.1440967"><ele>629.3333333333333</ele><time>2026-04-14T17:44:26.92Z</time></trkpt><trkpt lat="42.6378367" lon="-7.1441917"><ele>631.0</ele><time>2026-04-14T17:44:27.92Z</time></trkpt><trkpt lat="42.6378033" lon="-7.1442917"><ele>632.6666666666666</ele><time>2026-04-14T17:44:28.919Z</time></trkpt><trkpt lat="42.6377667" lon="-7.1444083"><ele>634.3333333333334</ele><time>2026-04-14T17:44:29.92Z</time></trkpt><trkpt lat="42.637735" lon="-7.1445217"><ele>636.0</ele><time>2026-04-14T17:44:30.919Z</time></trkpt><trkpt lat="42.6377033" lon="-7.1446367"><ele>629.0</ele><time>2026-04-14T17:44:31.919Z</time></trkpt><trkpt lat="42.6377033" lon="-7.14478"><ele>622.0</ele><time>2026-04-14T17:44:32.919Z</time></trkpt><trkpt lat="42.6376883" lon="-7.1449433"><ele>615.0</ele><time>2026-04-14T17:44:33.92Z</time></trkpt><trkpt lat="42.637695" lon="-7.1450617"><ele>608.0</ele><time>2026-04-14T17:44:34.919Z</time></trkpt><trkpt lat="42.63768" lon="-7.145185"><ele>601.0</ele><time>2026-04-14T17:44:35.92Z</time></trkpt><trkpt lat="42.6376783" lon="-7.1453183"><ele>601.0</ele><time>2026-04-14T17:44:36.919Z</time></trkpt><trkpt lat="42.6376867" lon="-7.1454433"><ele>601.0</ele><time>2026-04-14T17:44:37.919Z</time></trkpt><trkpt lat="42.6376933" lon="-7.1455733"><ele>601.0</ele><time>2026-04-14T17:44:38.919Z</time></trkpt><trkpt lat="42.6377033" lon="-7.1457133"><ele>601.0</ele><time>2026-04-14T17:44:39.92Z</time></trkpt><trkpt lat="42.637745" lon="-7.14584"><ele>601.0</ele><time>2026-04-14T17:44:40.92Z</time></trkpt><trkpt lat="42.6377883" lon="-7.145965"><ele>606.3333333333334</ele><time>2026-04-14T17:44:41.919Z</time></trkpt><trkpt lat="42.6378133" lon="-7.1460983"><ele>611.6666666666667</ele><time>2026-04-14T17:44:42.919Z</time></trkpt><trkpt lat="42.6378433" lon="-7.1462083"><ele>617.0</ele><time>2026-04-14T17:44:43.919Z</time></trkpt><trkpt lat="42.6378683" lon="-7.1463233"><ele>622.3333333333334</ele><time>2026-04-14T17:44:44.92Z</time></trkpt><trkpt lat="42.6378883" lon="-7.1464267"><ele>627.6666666666666</ele><time>2026-04-14T17:44:45.919Z</time></trkpt><trkpt lat="42.6379133" lon="-7.14655"><ele>633.0</ele><time>2026-04-14T17:44:46.92Z</time></trkpt><trkpt lat="42.6379417" lon="-7.1466767"><ele>633.0</ele><time>2026-04-14T17:44:47.92Z</time></trkpt><trkpt lat="42.6379533" lon="-7.146815"><ele>633.0</ele><time>2026-04-14T17:44:48.919Z</time></trkpt><trkpt lat="42.63798" lon="-7.1469533"><ele>633.0</ele><time>2026-04-14T17:44:49.92Z</time></trkpt><trkpt lat="42.6379983" lon="-7.1470817"><ele>633.0</ele><time>2026-04-14T17:44:50.92Z</time></trkpt><trkpt lat="42.6380233" lon="-7.1472067"><ele>633.0</ele><time>2026-04-14T17:44:51.919Z</time></trkpt><trkpt lat="42.6380667" lon="-7.1473267"><ele>632.0</ele><time>2026-04-14T17:44:52.92Z</time></trkpt><trkpt lat="42.6380933" lon="-7.1474667"><ele>631.0</ele><time>2026-04-14T17:44:53.92Z</time></trkpt><trkpt lat="42.6381383" lon="-7.1476233"><ele>630.0</ele><time>2026-04-14T17:44:54.919Z</time></trkpt><trkpt lat="42.63818" lon="-7.1477683"><ele>629.0</ele><time>2026-04-14T17:44:55.919Z</time></trkpt><trkpt lat="42.6382083" lon="-7.1478917"><ele>628.0</ele><time>2026-04-14T17:44:56.919Z</time></trkpt><trkpt lat="42.638235" lon="-7.148025"><ele>628.0</ele><time>2026-04-14T17:44:57.919Z</time></trkpt><trkpt lat="42.6383367" lon="-7.1481817"><ele>628.0</ele><time>2026-04-14T17:44:58.919Z</time></trkpt><trkpt lat="42.63835" lon="-7.1483183"><ele>628.0</ele><time>2026-04-14T17:44:59.919Z</time></trkpt><trkpt lat="42.6383567" lon="-7.1484717"><ele>628.0</ele><time>2026-04-14T17:45:00.919Z</time></trkpt><trkpt lat="42.638365" lon="-7.148615"><ele>598.0</ele><time>2026-04-14T17:45:01.92Z</time></trkpt><trkpt lat="42.637735" lon="-7.1445217"><ele>598.0</ele><time>2026-04-14T17:44:30.919Z</time></trkpt><trkpt lat="42.6377033" lon="-7.1446367"><ele>598.0</ele><time>2026-04-14T17:44:31.919Z</time></trkpt><trkpt lat="42.6377033" lon="-7.14478"><ele>598.0</ele><time>2026-04-14T17:44:32.919Z</time></trkpt><trkpt lat="42.6376883" lon="-7.1449433"><ele>598.0</ele><time>2026-04-14T17:44:33.92Z</time></trkpt><trkpt lat="42.637695" lon="-7.1450617"><ele>598.0</ele><time>2026-04-14T17:44:34.919Z</time></trkpt><trkpt lat="42.63768" lon="-7.145185"><ele>598.6</ele><time>2026-04-14T17:44:35.92Z</time></trkpt><trkpt lat="42.6376783" lon="-7.1453183"><ele>599.1999999999999</ele><time>2026-04-14T17:44:36.919Z</time></trkpt><trkpt lat="42.6376867" lon="-7.1454433"><ele>599.8</ele><time>2026-04-14T17:44:37.919Z</time></trkpt><trkpt lat="42.6376933" lon="-7.1455733"><ele>600.4</ele><time>2026-04-14T17:44:38.919Z</time></trkpt><trkpt lat="42.6377033" lon="-7.1457133"><ele>601.0</ele><time>2026-04-14T17:44:39.92Z</time></trkpt><trkpt lat="42.637745" lon="-7.14584"><ele>599.2</ele><time>2026-04-14T17:44:40.92Z</time></trkpt><trkpt lat="42.6377883" lon="-7.145965"><ele>597.4000000000001</ele><time>2026-04-14T17:44:41.919Z</time></trkpt><trkpt lat="42.6378133" lon="-7.1460983"><ele>595.6</ele><time>2026-04-14T17:44:42.919Z</time></trkpt><trkpt lat="42.6378433" lon="-7.1462083"><ele>593.8000000000001</ele><time>2026-04-14T17:44:43.919Z</time></trkpt><trkpt lat="42.6378683" lon="-7.1463233"><ele>592.0</ele><time>2026-04-14T17:44:44.92Z</time></trkpt><trkpt lat="42.6378883" lon="-7.1464267"><ele>600.2</ele><time>2026-04-14T17:44:45.919Z</time></trkpt><trkpt lat="42.6379133" lon="-7.14655"><ele>608.4000000000001</ele><time>2026-04-14T17:44:46.92Z</time></trkpt><trkpt lat="42.6379417" lon="-7.1466767"><ele>616.5999999999999</ele><time>2026-04-14T17:44:47.92Z</time></trkpt><trkpt lat="42.6379533" lon="-7.146815"><ele>624.8</ele><time>2026-04-14T17:44:48.919Z</time></trkpt><trkpt lat="42.63798" lon="-7.1469533"><ele>633.0</ele><time>2026-04-14T17:44:49.92Z</time></trkpt><trkpt lat="42.6379983" lon="-7.1470817"><ele>633.0</ele><time>2026-04-14T17:44:50.92Z</time></trkpt><trkpt lat="42.6380233" lon="-7.1472067"><ele>633.0</ele><time>2026-04-14T17:44:51.919Z</time></trkpt><trkpt lat="42.6380667" lon="-7.1473267"><ele>633.0</ele><time>2026-04-14T17:44:52.92Z</time></trkpt><trkpt lat="42.6380933" lon="-7.1474667"><ele>633.0</ele><time>2026-04-14T17:44:53.92Z</time></trkpt><trkpt lat="42.6381383" lon="-7.1476233"><ele>633.0</ele><time>2026-04-14T17:44:54.919Z</time></trkpt><trkpt lat="42.63818" lon="-7.1477683"><ele>631.75</ele><time>2026-04-14T17:44:55.919Z</time></trkpt><trkpt lat="42.6382083" lon="-7.1478917"><ele>630.5</ele><time>2026-04-14T17:44:56.919Z</time></trkpt><trkpt lat="42.638235" lon="-7.148025"><ele>629.25</ele><time>2026-04-14T17:44:57.919Z</time></trkpt><trkpt lat="42.6383367" lon="-7.1481817"><ele>628.0</ele><time>2026-04-14T17:44:58.919Z</time></trkpt><trkpt lat="42.63835" lon="-7.1483183"><ele>627.6</ele><time>2026-04-14T17:44:59.919Z</time></trkpt><trkpt lat="42.6383567" lon="-7.1484717"><ele>627.1999999999999</ele><time>2026-04-14T17:45:00.919Z</time></trkpt><trkpt lat="42.638365" lon="-7.148615"><ele>626.8</ele><time>2026-04-14T17:45:01.92Z</time></trkpt><trkpt lat="42.6383683" lon="-7.1487583"><ele>626.4</ele><time>2026-04-14T17:45:02.919Z</time></trkpt><trkpt lat="42.638375" lon="-7.1488833"><ele>626.0</ele><time>2026-04-14T17:45:03.919Z</time></trkpt><trkpt lat="42.638385" lon="-7.1490233"><ele>627.8333333333333</ele><time>2026-04-14T17:45:04.919Z</time></trkpt><trkpt lat="42.6383917" lon="-7.1491533"><ele>629.6666666666666</ele><time>2026-04-14T17:45:05.919Z</time></trkpt><trkpt lat="42.6383967" lon="-7.149255"><ele>631.5</ele><time>2026-04-14T17:45:06.919Z</time></trkpt><trkpt lat="42.6383817" lon="-7.149355"><ele>633.3333333333334</ele><time>2026-04-14T17:45:07.919Z</time></trkpt><trkpt lat="42.63836" lon="-7.1494533"><ele>635.1666666666667</ele><time>2026-04-14T17:45:08.919Z</time></trkpt><trkpt lat="42.6383333" lon="-7.1495417"><ele>637.0</ele><time>2026-04-14T17:45:09.919Z</time></trkpt><trkpt lat="42.6383117" lon="-7.149635"><ele>637.0</ele><time>2026-04-14T17:45:10.92Z</time></trkpt><trkpt lat="42.6383017" lon="-7.149745"><ele>637.0</ele><time>2026-04-14T17:45:11.919Z</time></trkpt><trkpt lat="42.6382933" lon="-7.1498633"><ele>637.0</ele><time>2026-04-14T17:45:12.919Z</time></trkpt><trkpt lat="42.6382983" lon="-7.1499683"><ele>637.0</ele><time>2026-04-14T17:45:13.919Z</time></trkpt><trkpt lat="42.6383033" lon="-7.15007"><ele>637.0</ele><time>2026-04-14T17:45:14.919Z</time></trkpt><trkpt lat="42.638295" lon="-7.150235"><ele>637.0</ele><time>2026-04-14T17:45:16.919Z</time></trkpt><trkpt lat="42.6383167" lon="-7.1503183"><ele>636.1666666666667</ele><time>2026-04-14T17:45:17.92Z</time></trkpt><trkpt lat="42.6383233" lon="-7.150445"><ele>635.3333333333334</ele><time>2026-04-14T17:45:19.919Z</time></trkpt><trkpt lat="42.6383517" lon="-7.150535"><ele>634.5</ele><time>2026-04-14T17:45:20.92Z</time></trkpt><trkpt lat="42.6383917" lon="-7.150605"><ele>633.6666666666666</ele><time>2026-04-14T17:45:21.92Z</time></trkpt><trkpt lat="42.6385017" lon="-7.1506483"><ele>632.8333333333333</ele><time>2026-04-14T17:45:23.92Z</time></trkpt><trkpt lat="42.638585" lon="-7.1506483"><ele>632.0</ele><time>2026-04-14T17:45:25.92Z</time></trkpt><trkpt lat="42.63866" lon="-7.1506733"><ele>636.1666666666666</ele><time>2026-04-14T17:45:27.919Z</time></trkpt><trkpt lat="42.63873" lon="-7.150685"><ele>640.3333333333333</ele><time>2026-04-14T17:45:30.92Z</time></trkpt><trkpt lat="42.6387983" lon="-7.1506467"><ele>644.5</ele><time>2026-04-14T17:45:32.919Z</time></trkpt><trkpt lat="42.6388683" lon="-7.150585"><ele>648.6666666666666</ele><time>2026-04-14T17:45:34.919Z</time></trkpt><trkpt lat="42.63894" lon="-7.150525"><ele>652.8333333333334</ele><time>2026-04-14T17:45:38.92Z</time></trkpt><trkpt lat="42.6390183" lon="-7.150505"><ele>657.0</ele><time>2026-04-14T17:45:41.919Z</time></trkpt><trkpt lat="42.6390733" lon="-7.15055"><ele>657.0</ele><time>2026-04-14T17:45:44.919Z</time></trkpt><trkpt lat="42.6391617" lon="-7.1505983"><ele>657.0</ele><time>2026-04-14T17:45:50.919Z</time></trkpt><trkpt lat="42.639235" lon="-7.1505983"><ele>657.0</ele><time>2026-04-14T17:45:52.919Z</time></trkpt><trkpt lat="42.6393333" lon="-7.1506133"><ele>657.0</ele><time>2026-04-14T17:46:03.92Z</time></trkpt><trkpt lat="42.6394133" lon="-7.150645"><ele>657.0</ele><time>2026-04-14T17:46:10.92Z</time></trkpt><trkpt lat="42.639465" lon="-7.150735"><ele>657.0</ele><time>2026-04-14T17:46:12.92Z</time></trkpt><trkpt lat="42.639535" lon="-7.15084"><ele>656.5</ele><time>2026-04-14T17:46:14.92Z</time></trkpt><trkpt lat="42.6395817" lon="-7.1509083"><ele>656.0</ele><time>2026-04-14T17:46:17.92Z</time></trkpt><trkpt lat="42.6396633" lon="-7.1509317"><ele>655.5</ele><time>2026-04-14T17:46:26.92Z</time></trkpt><trkpt lat="42.639635" lon="-7.151045"><ele>655.0</ele><time>2026-04-14T17:49:21.92Z</time></trkpt><trkpt lat="42.6397017" lon="-7.151045"><ele>654.5</ele><time>2026-04-14T17:50:21.92Z</time></trkpt><trkpt lat="42.6398" lon="-7.151045"><ele>654.0</ele><time>2026-04-14T17:50:24.92Z</time></trkpt><trkpt lat="42.6398767" lon="-7.1510683"><ele>654.0</ele><time>2026-04-14T17:50:26.921Z</time></trkpt><trkpt lat="42.6399583" lon="-7.1511133"><ele>654.0</ele><time>2026-04-14T17:50:28.92Z</time></trkpt><trkpt lat="42.6400483" lon="-7.15118"><ele>654.0</ele><time>2026-04-14T17:50:30.92Z</time></trkpt><trkpt lat="42.6401233" lon="-7.151205"><ele>654.0</ele><time>2026-04-14T17:50:32.92Z</time></trkpt><trkpt lat="42.6401983" lon="-7.1512683"><ele>654.0</ele><time>2026-04-14T17:50:35.92Z</time></trkpt><trkpt lat="42.6402583" lon="-7.151335"><ele>654.0</ele><time>2026-04-14T17:50:38.92Z</time></trkpt><trkpt lat="42.6403117" lon="-7.1513917"><ele>652.6</ele><time>2026-04-14T17:50:40.921Z</time></trkpt><trkpt lat="42.640385" lon="-7.1514683"><ele>651.2</ele><time>2026-04-14T17:50:42.921Z</time></trkpt><trkpt lat="42.6404867" lon="-7.1515833"><ele>649.8000000000001</ele><time>2026-04-14T17:50:44.92Z</time></trkpt><trkpt lat="42.6405483" lon="-7.1516517"><ele>648.4000000000001</ele><time>2026-04-14T17:50:45.92Z</time></trkpt><trkpt lat="42.6406017" lon="-7.151705"><ele>647.0</ele><time>2026-04-14T17:50:46.921Z</time></trkpt><trkpt lat="42.6406717" lon="-7.1517733"><ele>647.0</ele><time>2026-04-14T17:50:47.92Z</time></trkpt><trkpt lat="42.64074" lon="-7.1518517"><ele>647.0</ele><time>2026-04-14T17:50:48.92Z</time></trkpt><trkpt lat="42.6408067" lon="-7.15193"><ele>647.0</ele><time>2026-04-14T17:50:49.92Z</time></trkpt><trkpt lat="42.6408867" lon="-7.151995"><ele>647.0</ele><time>2026-04-14T17:50:50.92Z</time></trkpt><trkpt lat="42.640965" lon="-7.15206"><ele>647.0</ele><time>2026-04-14T17:50:51.921Z</time></trkpt><trkpt lat="42.6410267" lon="-7.1521217"><ele>647.0</ele><time>2026-04-14T17:50:52.921Z</time></trkpt><trkpt lat="42.641075" lon="-7.1521867"><ele>647.5</ele><time>2026-04-14T17:50:53.92Z</time></trkpt><trkpt lat="42.6411367" lon="-7.1522567"><ele>648.0</ele><time>2026-04-14T17:50:54.92Z</time></trkpt><trkpt lat="42.64119" lon="-7.1523183"><ele>648.5</ele><time>2026-04-14T17:50:55.921Z</time></trkpt><trkpt lat="42.641245" lon="-7.1523783"><ele>649.0</ele><time>2026-04-14T17:50:56.92Z</time></trkpt><trkpt lat="42.6413317" lon="-7.1524867"><ele>649.5</ele><time>2026-04-14T17:50:58.92Z</time></trkpt><trkpt lat="42.641405" lon="-7.1525967"><ele>650.0</ele><time>2026-04-14T17:51:00.921Z</time></trkpt><trkpt lat="42.6414517" lon="-7.1526667"><ele>650.0</ele><time>2026-04-14T17:51:02.92Z</time></trkpt><trkpt lat="42.6413767" lon="-7.152615"><ele>650.0</ele><time>2026-04-14T17:51:30.92Z</time></trkpt><trkpt lat="42.64131" lon="-7.1525383"><ele>650.0</ele><time>2026-04-14T17:51:32.92Z</time></trkpt><trkpt lat="42.6412183" lon="-7.1524483"><ele>650.0</ele><time>2026-04-14T17:51:34.92Z</time></trkpt><trkpt lat="42.6411617" lon="-7.1524017"><ele>650.0</ele><time>2026-04-14T17:51:35.92Z</time></trkpt><trkpt lat="42.641095" lon="-7.1523283"><ele>650.0</ele><time>2026-04-14T17:51:36.92Z</time></trkpt><trkpt lat="42.641025" lon="-7.1522417"><ele>649.5</ele><time>2026-04-14T17:51:37.92Z</time></trkpt><trkpt lat="42.6409567" lon="-7.15216"><ele>649.0</ele><time>2026-04-14T17:51:38.921Z</time></trkpt><trkpt lat="42.640885" lon="-7.1520833"><ele>648.5</ele><time>2026-04-14T17:51:39.92Z</time></trkpt><trkpt lat="42.6408183" lon="-7.152005"><ele>648.0</ele><time>2026-04-14T17:51:40.921Z</time></trkpt><trkpt lat="42.6407633" lon="-7.151935"><ele>647.5</ele><time>2026-04-14T17:51:41.92Z</time></trkpt><trkpt lat="42.6407117" lon="-7.1518683"><ele>647.0</ele><time>2026-04-14T17:51:42.92Z</time></trkpt><trkpt lat="42.6406217" lon="-7.151755"><ele>647.0</ele><time>2026-04-14T17:51:44.92Z</time></trkpt><trkpt lat="42.6405433" lon="-7.1516717"><ele>647.0</ele><time>2026-04-14T17:51:46.92Z</time></trkpt><trkpt lat="42.64048" lon="-7.1516233"><ele>647.0</ele><time>2026-04-14T17:51:48.92Z</time></trkpt><trkpt lat="42.640415" lon="-7.1515617"><ele>647.0</ele><time>2026-04-14T17:52:28.921Z</time></trkpt><trkpt lat="42.640355" lon="-7.1515233"><ele>647.0</ele><time>2026-04-14T17:52:31.92Z</time></trkpt><trkpt lat="42.64029" lon="-7.1514917"><ele>647.0</ele><time>2026-04-14T17:56:53.922Z</time></trkpt><trkpt lat="42.6402167" lon="-7.151405"><ele>648.4000000000001</ele><time>2026-04-14T17:56:56.922Z</time></trkpt><trkpt lat="42.6401433" lon="-7.1513467"><ele>649.8000000000001</ele><time>2026-04-14T17:56:58.921Z</time></trkpt><trkpt lat="42.6400383" lon="-7.151295"><ele>651.2</ele><time>2026-04-14T17:57:00.921Z</time></trkpt><trkpt lat="42.639945" lon="-7.1511967"><ele>652.6</ele><time>2026-04-14T17:57:02.921Z</time></trkpt><trkpt lat="42.6398867" lon="-7.15116"><ele>654.0</ele><time>2026-04-14T17:57:03.921Z</time></trkpt><trkpt lat="42.639825" lon="-7.1511133"><ele>654.0</ele><time>2026-04-14T17:57:04.922Z</time></trkpt><trkpt lat="42.6397583" lon="-7.1510717"><ele>654.0</ele><time>2026-04-14T17:57:05.922Z</time></trkpt><trkpt lat="42.6396933" lon="-7.1510133"><ele>654.0</ele><time>2026-04-14T17:57:06.922Z</time></trkpt><trkpt lat="42.6396333" lon="-7.1509367"><ele>654.0</ele><time>2026-04-14T17:57:07.921Z</time></trkpt><trkpt lat="42.6395733" lon="-7.15086"><ele>654.0</ele><time>2026-04-14T17:57:08.921Z</time></trkpt><trkpt lat="42.6395117" lon="-7.150775"><ele>654.0</ele><time>2026-04-14T17:57:09.921Z</time></trkpt><trkpt lat="42.63945" lon="-7.15068"><ele>654.5</ele><time>2026-04-14T17:57:10.922Z</time></trkpt><trkpt lat="42.639385" lon="-7.15059"><ele>655.0</ele><time>2026-04-14T17:57:11.922Z</time></trkpt><trkpt lat="42.639315" lon="-7.150505"><ele>655.5</ele><time>2026-04-14T17:57:12.921Z</time></trkpt><trkpt lat="42.6392383" lon="-7.1504283"><ele>656.0</ele><time>2026-04-14T17:57:13.921Z</time></trkpt><trkpt lat="42.6391717" lon="-7.1503633"><ele>656.5</ele><time>2026-04-14T17:57:14.922Z</time></trkpt><trkpt lat="42.6391033" lon="-7.1503167"><ele>657.0</ele><time>2026-04-14T17:57:15.921Z</time></trkpt><trkpt lat="42.639035" lon="-7.1502633"><ele>657.0</ele><time>2026-04-14T17:57:16.921Z</time></trkpt><trkpt lat="42.6389617" lon="-7.1502067"><ele>657.0</ele><time>2026-04-14T17:57:17.921Z</time></trkpt><trkpt lat="42.638895" lon="-7.15013"><ele>657.0</ele><time>2026-04-14T17:57:18.921Z</time></trkpt><trkpt lat="42.6388283" lon="-7.1500467"><ele>657.0</ele><time>2026-04-14T17:57:19.922Z</time></trkpt><trkpt lat="42.63877" lon="-7.14995"><ele>657.0</ele><time>2026-04-14T17:57:20.922Z</time></trkpt><trkpt lat="42.6387217" lon="-7.1498483"><ele>657.0</ele><time>2026-04-14T17:57:21.921Z</time></trkpt><trkpt lat="42.63868" lon="-7.1497667"><ele>660.1666666666666</ele><time>2026-04-14T17:57:22.921Z</time></trkpt><trkpt lat="42.6386433" lon="-7.1496817"><ele>663.3333333333334</ele><time>2026-04-14T17:57:23.921Z</time></trkpt><trkpt lat="42.638605" lon="-7.14959"><ele>666.5</ele><time>2026-04-14T17:57:24.921Z</time></trkpt><trkpt lat="42.6385817" lon="-7.1494917"><ele>669.6666666666667</ele><time>2026-04-14T17:57:25.921Z</time></trkpt><trkpt lat="42.638575" lon="-7.1493867"><ele>672.8333333333334</ele><time>2026-04-14T17:57:26.922Z</time></trkpt><trkpt lat="42.638585" lon="-7.1492383"><ele>676.0</ele><time>2026-04-14T17:57:27.921Z</time></trkpt><trkpt lat="42.6385967" lon="-7.1491317"><ele>676.5</ele><time>2026-04-14T17:57:28.921Z</time></trkpt><trkpt lat="42.6386267" lon="-7.149015"><ele>677.0</ele><time>2026-04-14T17:57:29.921Z</time></trkpt><trkpt lat="42.63867" lon="-7.1489167"><ele>677.5</ele><time>2026-04-14T17:57:30.921Z</time></trkpt><trkpt lat="42.6387083" lon="-7.148825"><ele>678.0</ele><time>2026-04-14T17:57:31.922Z</time></trkpt><trkpt lat="42.6387517" lon="-7.14873"><ele>678.5</ele><time>2026-04-14T17:57:32.921Z</time></trkpt><trkpt lat="42.638785" lon="-7.14863"><ele>679.0</ele><time>2026-04-14T17:57:33.921Z</time></trkpt><trkpt lat="42.6388117" lon="-7.1485117"><ele>679.0</ele><time>2026-04-14T17:57:34.921Z</time></trkpt><trkpt lat="42.6388383" lon="-7.1483967"><ele>679.0</ele><time>2026-04-14T17:57:35.922Z</time></trkpt><trkpt lat="42.63886" lon="-7.14829"><ele>679.0</ele><time>2026-04-14T17:57:36.922Z</time></trkpt><trkpt lat="42.638885" lon="-7.1481833"><ele>679.0</ele><time>2026-04-14T17:57:37.921Z</time></trkpt><trkpt lat="42.6388983" lon="-7.1480767"><ele>679.0</ele><time>2026-04-14T17:57:38.922Z</time></trkpt><trkpt lat="42.6389133" lon="-7.1479867"><ele>679.0</ele><time>2026-04-14T17:57:39.922Z</time></trkpt><trkpt lat="42.63893" lon="-7.1479017"><ele>678.3333333333334</ele><time>2026-04-14T17:57:40.922Z</time></trkpt><trkpt lat="42.6389283" lon="-7.1478083"><ele>677.6666666666667</ele><time>2026-04-14T17:57:41.921Z</time></trkpt><trkpt lat="42.63892" lon="-7.1477017"><ele>677.0</ele><time>2026-04-14T17:57:42.921Z</time></trkpt><trkpt lat="42.63893" lon="-7.14759"><ele>676.3333333333334</ele><time>2026-04-14T17:57:43.922Z</time></trkpt><trkpt lat="42.638955" lon="-7.14747"><ele>675.6666666666666</ele><time>2026-04-14T17:57:44.921Z</time></trkpt><trkpt lat="42.63899" lon="-7.14735"><ele>675.0</ele><time>2026-04-14T17:57:45.921Z</time></trkpt><trkpt lat="42.639045" lon="-7.147235"><ele>674.8</ele><time>2026-04-14T17:57:46.921Z</time></trkpt><trkpt lat="42.639095" lon="-7.1471183"><ele>674.6</ele><time>2026-04-14T17:57:47.921Z</time></trkpt><trkpt lat="42.6391233" lon="-7.146995"><ele>674.4000000000001</ele><time>2026-04-14T17:57:48.922Z</time></trkpt><trkpt lat="42.639175" lon="-7.1468633"><ele>674.2</ele><time>2026-04-14T17:57:49.921Z</time></trkpt><trkpt lat="42.63922" lon="-7.1467317"><ele>674.0</ele><time>2026-04-14T17:57:50.922Z</time></trkpt><trkpt lat="42.63925" lon="-7.1465867"><ele>673.4000000000001</ele><time>2026-04-14T17:57:51.921Z</time></trkpt><trkpt lat="42.639285" lon="-7.146445"><ele>672.8</ele><time>2026-04-14T17:57:52.921Z</time></trkpt><trkpt lat="42.639325" lon="-7.1463117"><ele>672.2</ele><time>2026-04-14T17:57:53.921Z</time></trkpt><trkpt lat="42.6393683" lon="-7.1461833"><ele>671.5999999999999</ele><time>2026-04-14T17:57:54.922Z</time></trkpt><trkpt lat="42.6394133" lon="-7.1460667"><ele>671.0</ele><time>2026-04-14T17:57:55.922Z</time></trkpt><trkpt lat="42.639445" lon="-7.1459433"><ele>679.5999999999999</ele><time>2026-04-14T17:57:56.921Z</time></trkpt><trkpt lat="42.6394833" lon="-7.145825"><ele>688.2</ele><time>2026-04-14T17:57:57.921Z</time></trkpt><trkpt lat="42.6395083" lon="-7.1457117"><ele>696.8</ele><time>2026-04-14T17:57:58.921Z</time></trkpt><trkpt lat="42.6395383" lon="-7.14558"><ele>705.4000000000001</ele><time>2026-04-14T17:57:59.921Z</time></trkpt><trkpt lat="42.639555" lon="-7.1454633"><ele>714.0</ele><time>2026-04-14T17:58:00.921Z</time></trkpt><trkpt lat="42.6395417" lon="-7.14535"><ele>714.4000000000001</ele><time>2026-04-14T17:58:01.922Z</time></trkpt><trkpt lat="42.6395433" lon="-7.1452083"><ele>714.8</ele><time>2026-04-14T17:58:02.921Z</time></trkpt><trkpt lat="42.6395517" lon="-7.1450783"><ele>715.2</ele><time>2026-04-14T17:58:03.921Z</time></trkpt><trkpt lat="42.63957" lon="-7.1449433"><ele>715.5999999999999</ele><time>2026-04-14T17:58:04.921Z</time></trkpt><trkpt lat="42.639585" lon="-7.144805"><ele>716.0</ele><time>2026-04-14T17:58:05.921Z</time></trkpt><trkpt lat="42.6396083" lon="-7.1446683"><ele>716.1999999999999</ele><time>2026-04-14T17:58:06.921Z</time></trkpt><trkpt lat="42.63963" lon="-7.1445083"><ele>716.4</ele><time>2026-04-14T17:58:07.921Z</time></trkpt><trkpt lat="42.6396567" lon="-7.1443517"><ele>716.6</ele><time>2026-04-14T17:58:08.921Z</time></trkpt><trkpt lat="42.6396733" lon="-7.144225"><ele>716.8</ele><time>2026-04-14T17:58:09.922Z</time></trkpt><trkpt lat="42.6396983" lon="-7.1440733"><ele>717.0</ele><time>2026-04-14T17:58:10.921Z</time></trkpt><trkpt lat="42.6397283" lon="-7.143945"><ele>715.6666666666666</ele><time>2026-04-14T17:58:11.922Z</time></trkpt><trkpt lat="42.6397667" lon="-7.1438133"><ele>714.3333333333334</ele><time>2026-04-14T17:58:12.922Z</time></trkpt><trkpt lat="42.639775" lon="-7.1437133"><ele>713.0</ele><time>2026-04-14T17:58:13.921Z</time></trkpt><trkpt lat="42.63979" lon="-7.14361"><ele>711.6666666666667</ele><time>2026-04-14T17:58:14.921Z</time></trkpt><trkpt lat="42.6398033" lon="-7.1434867"><ele>710.3333333333334</ele><time>2026-04-14T17:58:15.921Z</time></trkpt><trkpt lat="42.6398067" lon="-7.1433783"><ele>709.0</ele><time>2026-04-14T17:58:16.921Z</time></trkpt><trkpt lat="42.6398033" lon="-7.1432817"><ele>708.3333333333334</ele><time>2026-04-14T17:58:17.921Z</time></trkpt><trkpt lat="42.6397867" lon="-7.14318"><ele>707.6666666666667</ele><time>2026-04-14T17:58:18.922Z</time></trkpt><trkpt lat="42.639775" lon="-7.1430317"><ele>707.0</ele><time>2026-04-14T17:58:20.921Z</time></trkpt><trkpt lat="42.6397717" lon="-7.1429067"><ele>706.3333333333334</ele><time>2026-04-14T17:58:22.922Z</time></trkpt><trkpt lat="42.6397833" lon="-7.1428083"><ele>705.6666666666666</ele><time>2026-04-14T17:58:24.921Z</time></trkpt><trkpt lat="42.6398017" lon="-7.1427083"><ele>705.0</ele><time>2026-04-14T17:58:27.921Z</time></trkpt><trkpt lat="42.6397783" lon="-7.14279"><ele>705.0</ele><time>2026-04-14T17:58:31.921Z</time></trkpt><trkpt lat="42.6397367" lon="-7.1428967"><ele>705.0</ele><time>2026-04-14T17:58:33.921Z</time></trkpt><trkpt lat="42.6397033" lon="-7.1430517"><ele>705.0</ele><time>2026-04-14T17:58:35.921Z</time></trkpt><trkpt lat="42.6396883" lon="-7.1431483"><ele>705.0</ele><time>2026-04-14T17:58:36.921Z</time></trkpt><trkpt lat="42.6396667" lon="-7.1432517"><ele>705.0</ele><time>2026-04-14T17:58:37.921Z</time></trkpt><trkpt lat="42.6396533" lon="-7.143365"><ele>705.0</ele><time>2026-04-14T17:58:38.921Z</time></trkpt><trkpt lat="42.6396333" lon="-7.14349"><ele>705.8</ele><time>2026-04-14T17:58:39.921Z</time></trkpt><trkpt lat="42.6395983" lon="-7.1436117"><ele>706.6</ele><time>2026-04-14T17:58:40.921Z</time></trkpt><trkpt lat="42.6395733" lon="-7.14373"><ele>707.4000000000001</ele><time>2026-04-14T17:58:41.921Z</time></trkpt><trkpt lat="42.639545" lon="-7.1438567"><ele>708.2</ele><time>2026-04-14T17:58:42.921Z</time></trkpt><trkpt lat="42.639505" lon="-7.143985"><ele>709.0</ele><time>2026-04-14T17:58:43.922Z</time></trkpt><trkpt lat="42.6394883" lon="-7.1441267"><ele>701.4000000000001</ele><time>2026-04-14T17:58:44.921Z</time></trkpt><trkpt lat="42.639455" lon="-7.144255"><ele>693.8</ele><time>2026-04-14T17:58:45.921Z</time></trkpt><trkpt lat="42.6394233" lon="-7.14438"><ele>686.2</ele><time>2026-04-14T17:58:46.922Z</time></trkpt><trkpt lat="42.6393983" lon="-7.144505"><ele>678.5999999999999</ele><time>2026-04-14T17:58:47.921Z</time></trkpt><trkpt lat="42.6393817" lon="-7.1446383"><ele>671.0</ele><time>2026-04-14T17:58:48.921Z</time></trkpt><trkpt lat="42.6393617" lon="-7.1447667"><ele>671.4</ele><time>2026-04-14T17:58:49.922Z</time></trkpt><trkpt lat="42.6393617" lon="-7.1449117"><ele>671.8</ele><time>2026-04-14T17:58:50.921Z</time></trkpt><trkpt lat="42.6393817" lon="-7.145045"><ele>672.1999999999999</ele><time>2026-04-14T17:58:51.921Z</time></trkpt><trkpt lat="42.6393967" lon="-7.145185"><ele>672.5999999999999</ele><time>2026-04-14T17:58:52.921Z</time></trkpt><trkpt lat="42.63941" lon="-7.1453317"><ele>673.0</ele><time>2026-04-14T17:58:53.921Z</time></trkpt><trkpt lat="42.6394283" lon="-7.1455"><ele>673.0</ele><time>2026-04-14T17:58:54.921Z</time></trkpt><trkpt lat="42.6394383" lon="-7.145655"><ele>673.0</ele><time>2026-04-14T17:58:55.922Z</time></trkpt><trkpt lat="42.6394567" lon="-7.1458017"><ele>673.0</ele><time>2026-04-14T17:58:56.921Z</time></trkpt><trkpt lat="42.6394533" lon="-7.1459617"><ele>673.0</ele><time>2026-04-14T17:58:57.922Z</time></trkpt><trkpt lat="42.6394433" lon="-7.1461267"><ele>673.25</ele><time>2026-04-14T17:58:58.922Z</time></trkpt><trkpt lat="42.6394283" lon="-7.146285"><ele>673.5</ele><time>2026-04-14T17:58:59.922Z</time></trkpt><trkpt lat="42.6394117" lon="-7.1464517"><ele>673.75</ele><time>2026-04-14T17:59:00.921Z</time></trkpt><trkpt lat="42.6394067" lon="-7.1466183"><ele>674.0</ele><time>2026-04-14T17:59:01.922Z</time></trkpt><trkpt lat="42.6393767" lon="-7.1467683"><ele>674.0</ele><time>2026-04-14T17:59:02.921Z</time></trkpt><trkpt lat="42.6393283" lon="-7.14691"><ele>674.0</ele><time>2026-04-14T17:59:03.921Z</time></trkpt><trkpt lat="42.639275" lon="-7.14704"><ele>674.0</ele><time>2026-04-14T17:59:04.922Z</time></trkpt><trkpt lat="42.6392233" lon="-7.147175"><ele>674.0</ele><time>2026-04-14T17:59:05.921Z</time></trkpt><trkpt lat="42.6391783" lon="-7.1472983"><ele>674.0</ele><time>2026-04-14T17:59:06.921Z</time></trkpt><trkpt lat="42.6391367" lon="-7.1474217"><ele>674.2</ele><time>2026-04-14T17:59:07.922Z</time></trkpt><trkpt lat="42.639105" lon="-7.1475617"><ele>674.4000000000001</ele><time>2026-04-14T17:59:08.921Z</time></trkpt><trkpt lat="42.6390717" lon="-7.1477133"><ele>674.6</ele><time>2026-04-14T17:59:09.921Z</time></trkpt><trkpt lat="42.63904" lon="-7.147855"><ele>674.8</ele><time>2026-04-14T17:59:10.922Z</time></trkpt><trkpt lat="42.6390283" lon="-7.14799"><ele>675.0</ele><time>2026-04-14T17:59:11.921Z</time></trkpt><trkpt lat="42.6390183" lon="-7.1481083"><ele>675.8</ele><time>2026-04-14T17:59:12.922Z</time></trkpt><trkpt lat="42.6390183" lon="-7.148235"><ele>676.6</ele><time>2026-04-14T17:59:13.921Z</time></trkpt><trkpt lat="42.6390267" lon="-7.1483583"><ele>677.4000000000001</ele><time>2026-04-14T17:59:14.922Z</time></trkpt><trkpt lat="42.6390317" lon="-7.1484867"><ele>678.2</ele><time>2026-04-14T17:59:15.921Z</time></trkpt><trkpt lat="42.63903" lon="-7.148605"><ele>679.0</ele><time>2026-04-14T17:59:16.921Z</time></trkpt><trkpt lat="42.6390217" lon="-7.148725"><ele>679.0</ele><time>2026-04-14T17:59:17.921Z</time></trkpt><trkpt lat="42.6389917" lon="-7.1488517"><ele>679.0</ele><time>2026-04-14T17:59:18.922Z</time></trkpt><trkpt lat="42.6389483" lon="-7.1489817"><ele>679.0</ele><time>2026-04-14T17:59:19.922Z</time></trkpt><trkpt lat="42.6388583" lon="-7.1491233"><ele>679.0</ele><time>2026-04-14T17:59:20.921Z</time></trkpt><trkpt lat="42.6387983" lon="-7.1492467"><ele>679.0</ele><time>2026-04-14T17:59:21.922Z</time></trkpt><trkpt lat="42.63874" lon="-7.1493383"><ele>678.5</ele><time>2026-04-14T17:59:22.922Z</time></trkpt><trkpt lat="42.6387033" lon="-7.1494567"><ele>678.0</ele><time>2026-04-14T17:59:23.921Z</time></trkpt><trkpt lat="42.6386567" lon="-7.1495617"><ele>677.5</ele><time>2026-04-14T17:59:24.921Z</time></trkpt><trkpt lat="42.6386233" lon="-7.14967"><ele>677.0</ele><time>2026-04-14T17:59:25.921Z</time></trkpt><trkpt lat="42.6386033" lon="-7.1497683"><ele>676.5</ele><time>2026-04-14T17:59:26.921Z</time></trkpt><trkpt lat="42.6386217" lon="-7.1498733"><ele>676.0</ele><time>2026-04-14T17:59:27.921Z</time></trkpt><trkpt lat="42.63861" lon="-7.1499883"><ele>673.2857142857143</ele><time>2026-04-14T17:59:28.922Z</time></trkpt><trkpt lat="42.6386683" lon="-7.1500417"><ele>670.5714285714286</ele><time>2026-04-14T17:59:29.921Z</time></trkpt><trkpt lat="42.6387317" lon="-7.15008"><ele>667.8571428571429</ele><time>2026-04-14T17:59:30.921Z</time></trkpt><trkpt lat="42.6388" lon="-7.15013"><ele>665.1428571428571</ele><time>2026-04-14T17:59:31.921Z</time></trkpt><trkpt lat="42.6388583" lon="-7.1501933"><ele>662.4285714285714</ele><time>2026-04-14T17:59:32.921Z</time></trkpt><trkpt lat="42.6389133" lon="-7.150245"><ele>659.7142857142857</ele><time>2026-04-14T17:59:33.922Z</time></trkpt><trkpt lat="42.63898" lon="-7.1502767"><ele>657.0</ele><time>2026-04-14T17:59:34.922Z</time></trkpt><trkpt lat="42.6390817" lon="-7.1503233"><ele>657.0</ele><time>2026-04-14T17:59:36.922Z</time></trkpt><trkpt lat="42.6391283" lon="-7.1503917"><ele>657.0</ele><time>2026-04-14T17:59:40.921Z</time></trkpt><trkpt lat="42.6390583" lon="-7.15044"><ele>657.0</ele><time>2026-04-14T17:59:44.921Z</time></trkpt><trkpt lat="42.6389783" lon="-7.1504283"><ele>657.0</ele><time>2026-04-14T17:59:46.921Z</time></trkpt><trkpt lat="42.638865" lon="-7.1503683"><ele>657.0</ele><time>2026-04-14T17:59:48.922Z</time></trkpt><trkpt lat="42.638795" lon="-7.15035"><ele>657.0</ele><time>2026-04-14T17:59:49.921Z</time></trkpt><trkpt lat="42.63872" lon="-7.15032"><ele>657.0</ele><time>2026-04-14T17:59:50.921Z</time></trkpt><trkpt lat="42.6386517" lon="-7.1502783"><ele>657.0</ele><time>2026-04-14T17:59:51.922Z</time></trkpt><trkpt lat="42.6385783" lon="-7.1502333"><ele>657.0</ele><time>2026-04-14T17:59:52.921Z</time></trkpt><trkpt lat="42.6385" lon="-7.1501683"><ele>657.0</ele><time>2026-04-14T17:59:53.922Z</time></trkpt><trkpt lat="42.6384333" lon="-7.1501083"><ele>657.0</ele><time>2026-04-14T17:59:54.921Z</time></trkpt><trkpt lat="42.6383783" lon="-7.15003"><ele>657.0</ele><time>2026-04-14T17:59:55.922Z</time></trkpt><trkpt lat="42.6383267" lon="-7.1499517"><ele>653.6666666666666</ele><time>2026-04-14T17:59:56.921Z</time></trkpt><trkpt lat="42.6382883" lon="-7.1498533"><ele>650.3333333333334</ele><time>2026-04-14T17:59:57.921Z</time></trkpt><trkpt lat="42.6382533" lon="-7.14975"><ele>647.0</ele><time>2026-04-14T17:59:58.921Z</time></trkpt><trkpt lat="42.63822" lon="-7.1496333"><ele>643.6666666666667</ele><time>2026-04-14T17:59:59.922Z</time></trkpt><trkpt lat="42.6382067" lon="-7.14952"><ele>640.3333333333334</ele><time>2026-04-14T18:00:00.921Z</time></trkpt><trkpt lat="42.6382083" lon="-7.1493917"><ele>637.0</ele><time>2026-04-14T18:00:01.922Z</time></trkpt><trkpt lat="42.638235" lon="-7.1492717"><ele>637.0</ele><time>2026-04-14T18:00:02.922Z</time></trkpt><trkpt lat="42.6382717" lon="-7.1491467"><ele>637.0</ele><time>2026-04-14T18:00:03.921Z</time></trkpt><trkpt lat="42.63831" lon="-7.14901"><ele>637.0</ele><time>2026-04-14T18:00:04.921Z</time></trkpt><trkpt lat="42.6383317" lon="-7.1488733"><ele>637.0</ele><time>2026-04-14T18:00:05.922Z</time></trkpt><trkpt lat="42.63833" lon="-7.1487317"><ele>637.0</ele><time>2026-04-14T18:00:06.921Z</time></trkpt><trkpt lat="42.6383217" lon="-7.14859"><ele>634.75</ele><time>2026-04-14T18:00:07.921Z</time></trkpt><trkpt lat="42.6383117" lon="-7.1484417"><ele>632.5</ele><time>2026-04-14T18:00:08.921Z</time></trkpt><trkpt lat="42.6382983" lon="-7.1482883"><ele>630.25</ele><time>2026-04-14T18:00:09.921Z</time></trkpt><trkpt lat="42.6382733" lon="-7.1481367"><ele>628.0</ele><time>2026-04-14T18:00:10.921Z</time></trkpt><trkpt lat="42.6382467" lon="-7.1479767"><ele>628.0</ele><time>2026-04-14T18:00:11.922Z</time></trkpt><trkpt lat="42.63824" lon="-7.1478133"><ele>628.0</ele><time>2026-04-14T18:00:12.922Z</time></trkpt><trkpt lat="42.63822" lon="-7.14765"><ele>628.0</ele><time>2026-04-14T18:00:13.921Z</time></trkpt><trkpt lat="42.63818" lon="-7.1474917"><ele>628.0</ele><time>2026-04-14T18:00:14.921Z</time></trkpt><trkpt lat="42.6381667" lon="-7.1473017"><ele>629.6666666666667</ele><time>2026-04-14T18:00:15.921Z</time></trkpt><trkpt lat="42.6381617" lon="-7.147105"><ele>631.3333333333334</ele><time>2026-04-14T18:00:16.922Z</time></trkpt><trkpt lat="42.638105" lon="-7.1469133"><ele>633.0</ele><time>2026-04-14T18:00:17.922Z</time></trkpt><trkpt lat="42.63806" lon="-7.1467083"><ele>633.25</ele><time>2026-04-14T18:00:18.922Z</time></trkpt><trkpt lat="42.6380367" lon="-7.1465117"><ele>633.5</ele><time>2026-04-14T18:00:19.921Z</time></trkpt><trkpt lat="42.6380033" lon="-7.146325"><ele>633.75</ele><time>2026-04-14T18:00:20.922Z</time></trkpt><trkpt lat="42.6379517" lon="-7.14612"><ele>634.0</ele><time>2026-04-14T18:00:21.921Z</time></trkpt><trkpt lat="42.6378933" lon="-7.1459317"><ele>634.0</ele><time>2026-04-14T18:00:22.922Z</time></trkpt><trkpt lat="42.6378433" lon="-7.145755"><ele>634.0</ele><time>2026-04-14T18:00:23.922Z</time></trkpt><trkpt lat="42.637805" lon="-7.1456"><ele>634.0</ele><time>2026-04-14T18:00:24.921Z</time></trkpt><trkpt lat="42.637765" lon="-7.1454367"><ele>634.0</ele><time>2026-04-14T18:00:25.922Z</time></trkpt><trkpt lat="42.6377383" lon="-7.1452817"><ele>625.75</ele><time>2026-04-14T18:00:26.921Z</time></trkpt><trkpt lat="42.6377217" lon="-7.1451083"><ele>617.5</ele><time>2026-04-14T18:00:27.921Z</time></trkpt><trkpt lat="42.6377117" lon="-7.1449583"><ele>609.25</ele><time>2026-04-14T18:00:28.922Z</time></trkpt><trkpt lat="42.6377333" lon="-7.144825"><ele>601.0</ele><time>2026-04-14T18:00:29.922Z</time></trkpt><trkpt lat="42.6377517" lon="-7.1446583"><ele>600.25</ele><time>2026-04-14T18:00:30.922Z</time></trkpt><trkpt lat="42.637775" lon="-7.1444983"><ele>599.5</ele><time>2026-04-14T18:00:31.922Z</time></trkpt><trkpt lat="42.6378" lon="-7.14434"><ele>598.75</ele><time>2026-04-14T18:00:32.921Z</time></trkpt><trkpt lat="42.6378333" lon="-7.1441683"><ele>598.0</ele><time>2026-04-14T18:00:33.922Z</time></trkpt><trkpt lat="42.6378833" lon="-7.1440117"><ele>605.0</ele><time>2026-04-14T18:00:34.922Z</time></trkpt><trkpt lat="42.63797" lon="-7.1438567"><ele>612.0</ele><time>2026-04-14T18:00:35.921Z</time></trkpt><trkpt lat="42.6380517" lon="-7.1436967"><ele>619.0</ele><time>2026-04-14T18:00:36.921Z</time></trkpt><trkpt lat="42.6381417" lon="-7.1435533"><ele>626.0</ele><time>2026-04-14T18:00:37.921Z</time></trkpt><trkpt lat="42.6382317" lon="-7.1433983"><ele>626.0</ele><time>2026-04-14T18:00:38.922Z</time></trkpt><trkpt lat="42.63832" lon="-7.1432567"><ele>626.0</ele><time>2026-04-14T18:00:39.921Z</time></trkpt><trkpt lat="42.6384083" lon="-7.143105"><ele>626.0</ele><time>2026-04-14T18:00:40.922Z</time></trkpt><trkpt lat="42.6384833" lon="-7.1429417"><ele>626.0</ele><time>2026-04-14T18:00:41.922Z</time></trkpt><trkpt lat="42.6385517" lon="-7.1427383"><ele>620.3333333333333</ele><time>2026-04-14T18:00:42.922Z</time></trkpt><trkpt lat="42.6386267" lon="-7.1425567"><ele>614.6666666666666</ele><time>2026-04-14T18:00:43.922Z</time></trkpt><trkpt lat="42.6386883" lon="-7.1423683"><ele>609.0</ele><time>2026-04-14T18:00:44.922Z</time></trkpt><trkpt lat="42.6387467" lon="-7.1421883"><ele>618.5</ele><time>2026-04-14T18:00:45.921Z</time></trkpt><trkpt lat="42.6387983" lon="-7.1420217"><ele>628.0</ele><time>2026-04-14T18:00:46.922Z</time></trkpt><trkpt lat="42.6388517" lon="-7.1418483"><ele>637.5</ele><time>2026-04-14T18:00:47.922Z</time></trkpt><trkpt lat="42.638905" lon="-7.1417033"><ele>647.0</ele><time>2026-04-14T18:00:48.921Z</time></trkpt><trkpt lat="42.6389433" lon="-7.141555"><ele>644.2</ele><time>2026-04-14T18:00:49.922Z</time></trkpt><trkpt lat="42.6389883" lon="-7.1414067"><ele>641.4000000000001</ele><time>2026-04-14T18:00:50.922Z</time></trkpt><trkpt lat="42.6390117" lon="-7.1412483"><ele>638.5999999999999</ele><time>2026-04-14T18:00:51.922Z</time></trkpt><trkpt lat="42.6390267" lon="-7.141095"><ele>635.8</ele><time>2026-04-14T18:00:52.922Z</time></trkpt><trkpt lat="42.639055" lon="-7.140975"><ele>633.0</ele><time>2026-04-14T18:00:53.921Z</time></trkpt><trkpt lat="42.6390667" lon="-7.1408517"><ele>629.8</ele><time>2026-04-14T18:00:54.921Z</time></trkpt><trkpt lat="42.6390783" lon="-7.14071"><ele>626.5999999999999</ele><time>2026-04-14T18:00:55.921Z</time></trkpt><trkpt lat="42.6390867" lon="-7.1405567"><ele>623.4000000000001</ele><time>2026-04-14T18:00:56.921Z</time></trkpt><trkpt lat="42.6391267" lon="-7.1404283"><ele>620.2</ele><time>2026-04-14T18:00:57.922Z</time></trkpt><trkpt lat="42.6391683" lon="-7.140285"><ele>617.0</ele><time>2026-04-14T18:00:58.922Z</time></trkpt><trkpt lat="42.6392233" lon="-7.1401433"><ele>617.0</ele><time>2026-04-14T18:00:59.922Z</time></trkpt><trkpt lat="42.6392833" lon="-7.1400133"><ele>617.0</ele><time>2026-04-14T18:01:00.922Z</time></trkpt><trkpt lat="42.6393567" lon="-7.1398833"><ele>617.0</ele><time>2026-04-14T18:01:01.922Z</time></trkpt><trkpt lat="42.6394283" lon="-7.1397667"><ele>617.0</ele><time>2026-04-14T18:01:02.922Z</time></trkpt><trkpt lat="42.6395017" lon="-7.1396567"><ele>616.5</ele><time>2026-04-14T18:01:03.922Z</time></trkpt><trkpt lat="42.63958" lon="-7.13955"><ele>616.0</ele><time>2026-04-14T18:01:04.921Z</time></trkpt><trkpt lat="42.63966" lon="-7.1394383"><ele>615.5</ele><time>2026-04-14T18:01:05.921Z</time></trkpt><trkpt lat="42.6397583" lon="-7.1393267"><ele>615.0</ele><time>2026-04-14T18:01:06.922Z</time></trkpt><trkpt lat="42.6398617" lon="-7.1392417"><ele>615.0</ele><time>2026-04-14T18:01:07.922Z</time></trkpt><trkpt lat="42.6399533" lon="-7.1391417"><ele>615.0</ele><time>2026-04-14T18:01:08.922Z</time></trkpt><trkpt lat="42.6400583" lon="-7.13905"><ele>615.0</ele><time>2026-04-14T18:01:09.922Z</time></trkpt><trkpt lat="42.6401917" lon="-7.1390067"><ele>615.0</ele><time>2026-04-14T18:01:10.921Z</time></trkpt><trkpt lat="42.6403117" lon="-7.138925"><ele>611.0</ele><time>2026-04-14T18:01:11.921Z</time></trkpt><trkpt lat="42.640435" lon="-7.138855"><ele>607.0</ele><time>2026-04-14T18:01:12.921Z</time></trkpt><trkpt lat="42.6405667" lon="-7.1387783"><ele>603.0</ele><time>2026-04-14T18:01:13.921Z</time></trkpt><trkpt lat="42.6406967" lon="-7.13873"><ele>599.0</ele><time>2026-04-14T18:01:14.922Z</time></trkpt><trkpt lat="42.6408183" lon="-7.1386683"><ele>599.0</ele><time>2026-04-14T18:01:15.922Z</time></trkpt><trkpt lat="42.6409383" lon="-7.1385967"><ele>599.0</ele><time>2026-04-14T18:01:16.922Z</time></trkpt><trkpt lat="42.6410717" lon="-7.1385533"><ele>599.0</ele><time>2026-04-14T18:01:17.922Z</time></trkpt><trkpt lat="42.6412133" lon="-7.1385233"><ele>599.0</ele><time>2026-04-14T18:01:18.923Z</time></trkpt><trkpt lat="42.6413517" lon="-7.1385083"><ele>598.25</ele><time>2026-04-14T18:01:19.922Z</time></trkpt><trkpt lat="42.6415033" lon="-7.1385333"><ele>597.5</ele><time>2026-04-14T18:01:20.923Z</time></trkpt><trkpt lat="42.64164" lon="-7.13854"><ele>596.75</ele><time>2026-04-14T18:01:21.922Z</time></trkpt><trkpt lat="42.6417633" lon="-7.1385483"><ele>596.0</ele><time>2026-04-14T18:01:22.922Z</time></trkpt><trkpt lat="42.6418717" lon="-7.13854"><ele>602.4</ele><time>2026-04-14T18:01:23.922Z</time></trkpt><trkpt lat="42.6419683" lon="-7.1385617"><ele>608.8</ele><time>2026-04-14T18:01:24.922Z</time></trkpt><trkpt lat="42.6420783" lon="-7.1385333"><ele>615.1999999999999</ele><time>2026-04-14T18:01:25.923Z</time></trkpt><trkpt lat="42.6421767" lon="-7.1384983"><ele>621.6</ele><time>2026-04-14T18:01:26.923Z</time></trkpt><trkpt lat="42.6422617" lon="-7.1384517"><ele>628.0</ele><time>2026-04-14T18:01:27.923Z</time></trkpt><trkpt lat="42.6423483" lon="-7.1383933"><ele>628.0</ele><time>2026-04-14T18:01:28.923Z</time></trkpt><trkpt lat="42.6424417" lon="-7.1383433"><ele>628.0</ele><time>2026-04-14T18:01:29.922Z</time></trkpt><trkpt lat="42.642515" lon="-7.1382083"><ele>628.0</ele><time>2026-04-14T18:01:30.922Z</time></trkpt><trkpt lat="42.6425833" lon="-7.138095"><ele>628.0</ele><time>2026-04-14T18:01:31.922Z</time></trkpt><trkpt lat="42.6426333" lon="-7.1379567"><ele>628.0</ele><time>2026-04-14T18:01:32.922Z</time></trkpt><trkpt lat="42.642695" lon="-7.137875"><ele>629.6</ele><time>2026-04-14T18:01:33.922Z</time></trkpt><trkpt lat="42.64273" lon="-7.1377617"><ele>631.1999999999999</ele><time>2026-04-14T18:01:34.923Z</time></trkpt><trkpt lat="42.6427917" lon="-7.1376817"><ele>632.8</ele><time>2026-04-14T18:01:35.922Z</time></trkpt><trkpt lat="42.6428133" lon="-7.1375367"><ele>634.4</ele><time>2026-04-14T18:01:36.922Z</time></trkpt><trkpt lat="42.6428517" lon="-7.1373783"><ele>636.0</ele><time>2026-04-14T18:01:37.922Z</time></trkpt><trkpt lat="42.6428817" lon="-7.1372217"><ele>631.75</ele><time>2026-04-14T18:01:38.923Z</time></trkpt><trkpt lat="42.6429317" lon="-7.1370783"><ele>627.5</ele><time>2026-04-14T18:01:39.923Z</time></trkpt><trkpt lat="42.6429517" lon="-7.1369217"><ele>623.25</ele><time>2026-04-14T18:01:40.923Z</time></trkpt><trkpt lat="42.6429583" lon="-7.13675"><ele>619.0</ele><time>2026-04-14T18:01:41.922Z</time></trkpt><trkpt lat="42.6429233" lon="-7.13657"><ele>614.5</ele><time>2026-04-14T18:01:42.922Z</time></trkpt><trkpt lat="42.6428467" lon="-7.1364483"><ele>610.0</ele><time>2026-04-14T18:01:43.923Z</time></trkpt><trkpt lat="42.64278" lon="-7.1363767"><ele>605.5</ele><time>2026-04-14T18:01:44.923Z</time></trkpt><trkpt lat="42.64271" lon="-7.1363917"><ele>601.0</ele><time>2026-04-14T18:01:46.923Z</time></trkpt><trkpt lat="42.6426517" lon="-7.1363517"><ele>596.5</ele><time>2026-04-14T18:01:50.923Z</time></trkpt><trkpt lat="42.6426117" lon="-7.1362183"><ele>592.0</ele><time>2026-04-14T18:02:01.922Z</time></trkpt><trkpt lat="42.6426433" lon="-7.1361333"><ele>591.1666666666667</ele><time>2026-04-14T18:02:05.922Z</time></trkpt><trkpt lat="42.6426667" lon="-7.136035"><ele>590.3333333333334</ele><time>2026-04-14T18:02:08.922Z</time></trkpt><trkpt lat="42.6426683" lon="-7.1359417"><ele>589.5</ele><time>2026-04-14T18:02:10.923Z</time></trkpt><trkpt lat="42.642665" lon="-7.1358383"><ele>588.6666666666666</ele><time>2026-04-14T18:02:12.923Z</time></trkpt><trkpt lat="42.642675" lon="-7.135725"><ele>587.8333333333333</ele><time>2026-04-14T18:02:14.922Z</time></trkpt><trkpt lat="42.6426833" lon="-7.135595"><ele>587.0</ele><time>2026-04-14T18:02:16.923Z</time></trkpt><trkpt lat="42.6427067" lon="-7.1354783"><ele>587.0</ele><time>2026-04-14T18:02:18.922Z</time></trkpt><trkpt lat="42.6427683" lon="-7.1354"><ele>587.0</ele><time>2026-04-14T18:02:28.922Z</time></trkpt><trkpt lat="42.642805" lon="-7.1353217"><ele>587.0</ele><time>2026-04-14T18:02:33.923Z</time></trkpt><trkpt lat="42.6427533" lon="-7.135465"><ele>587.0</ele><time>2026-04-14T18:02:41.922Z</time></trkpt><trkpt lat="42.6427217" lon="-7.1355567"><ele>587.0</ele><time>2026-04-14T18:02:43.922Z</time></trkpt><trkpt lat="42.64268" lon="-7.1356233"><ele>587.0</ele><time>2026-04-14T18:02:45.923Z</time></trkpt><trkpt lat="42.642655" lon="-7.1357233"><ele>587.0</ele><time>2026-04-14T18:02:50.922Z</time></trkpt><trkpt lat="42.6426217" lon="-7.1358433"><ele>587.0</ele><time>2026-04-14T18:02:54.923Z</time></trkpt><trkpt lat="42.6426183" lon="-7.135945"><ele>587.0</ele><time>2026-04-14T18:04:24.923Z</time></trkpt><trkpt lat="42.6426167" lon="-7.1360467"><ele>587.0</ele><time>2026-04-14T18:04:26.923Z</time></trkpt><trkpt lat="42.64258" lon="-7.136145"><ele>587.0</ele><time>2026-04-14T18:04:29.922Z</time></trkpt><trkpt lat="42.6425733" lon="-7.1363067"><ele>587.0</ele><time>2026-04-14T18:04:31.923Z</time></trkpt><trkpt lat="42.6425417" lon="-7.136515"><ele>587.6666666666666</ele><time>2026-04-14T18:04:33.923Z</time></trkpt><trkpt lat="42.64252" lon="-7.1366467"><ele>588.3333333333333</ele><time>2026-04-14T18:04:34.923Z</time></trkpt><trkpt lat="42.64251" lon="-7.1367433"><ele>589.0</ele><time>2026-04-14T18:04:35.922Z</time></trkpt><trkpt lat="42.642495" lon="-7.1368667"><ele>589.6666666666666</ele><time>2026-04-14T18:04:36.922Z</time></trkpt><trkpt lat="42.6424917" lon="-7.1369783"><ele>590.3333333333334</ele><time>2026-04-14T18:04:37.922Z</time></trkpt><trkpt lat="42.6424917" lon="-7.1370817"><ele>591.0</ele><time>2026-04-14T18:04:38.923Z</time></trkpt><trkpt lat="42.6424833" lon="-7.1371767"><ele>591.0</ele><time>2026-04-14T18:04:39.923Z</time></trkpt><trkpt lat="42.6424833" lon="-7.1372767"><ele>591.0</ele><time>2026-04-14T18:04:40.923Z</time></trkpt><trkpt lat="42.6424683" lon="-7.13737"><ele>591.0</ele><time>2026-04-14T18:04:41.922Z</time></trkpt><trkpt lat="42.6424517" lon="-7.13746"><ele>591.0</ele><time>2026-04-14T18:04:42.923Z</time></trkpt><trkpt lat="42.6424317" lon="-7.137565"><ele>591.0</ele><time>2026-04-14T18:04:43.922Z</time></trkpt><trkpt lat="42.6423983" lon="-7.137665"><ele>591.0</ele><time>2026-04-14T18:04:44.922Z</time></trkpt><trkpt lat="42.6423583" lon="-7.13776"><ele>594.0</ele><time>2026-04-14T18:04:45.922Z</time></trkpt><trkpt lat="42.6423233" lon="-7.137905"><ele>597.0</ele><time>2026-04-14T18:04:46.922Z</time></trkpt><trkpt lat="42.6422717" lon="-7.1380617"><ele>600.0</ele><time>2026-04-14T18:04:47.922Z</time></trkpt><trkpt lat="42.6422133" lon="-7.1382017"><ele>603.0</ele><time>2026-04-14T18:04:48.923Z</time></trkpt><trkpt lat="42.642165" lon="-7.1383283"><ele>601.8333333333334</ele><time>2026-04-14T18:04:49.922Z</time></trkpt><trkpt lat="42.6421083" lon="-7.1384367"><ele>600.6666666666666</ele><time>2026-04-14T18:04:50.922Z</time></trkpt><trkpt lat="42.64206" lon="-7.1385417"><ele>599.5</ele><time>2026-04-14T18:04:51.923Z</time></trkpt><trkpt lat="42.6420083" lon="-7.138635"><ele>598.3333333333333</ele><time>2026-04-14T18:04:52.922Z</time></trkpt><trkpt lat="42.6419583" lon="-7.1387217"><ele>597.1666666666666</ele><time>2026-04-14T18:04:53.923Z</time></trkpt><trkpt lat="42.6419083" lon="-7.138805"><ele>596.0</ele><time>2026-04-14T18:04:54.922Z</time></trkpt><trkpt lat="42.641795" lon="-7.13889"><ele>596.0</ele><time>2026-04-14T18:04:56.922Z</time></trkpt><trkpt lat="42.6417433" lon="-7.13896"><ele>596.0</ele><time>2026-04-14T18:04:57.922Z</time></trkpt><trkpt lat="42.6416483" lon="-7.13905"><ele>596.0</ele><time>2026-04-14T18:04:59.923Z</time></trkpt><trkpt lat="42.64153" lon="-7.139095"><ele>596.0</ele><time>2026-04-14T18:05:01.922Z</time></trkpt><trkpt lat="42.6414067" lon="-7.1391033"><ele>596.0</ele><time>2026-04-14T18:05:03.923Z</time></trkpt><trkpt lat="42.6413367" lon="-7.1391033"><ele>605.5</ele><time>2026-04-14T18:05:04.922Z</time></trkpt><trkpt lat="42.6412583" lon="-7.1390967"><ele>615.0</ele><time>2026-04-14T18:05:05.922Z</time></trkpt><trkpt lat="42.6410967" lon="-7.13907"><ele>624.5</ele><time>2026-04-14T18:05:07.922Z</time></trkpt><trkpt lat="42.6409817" lon="-7.139065"><ele>634.0</ele><time>2026-04-14T18:05:08.923Z</time></trkpt><trkpt lat="42.6408667" lon="-7.1390717"><ele>634.0</ele><time>2026-04-14T18:05:09.923Z</time></trkpt><trkpt lat="42.640775" lon="-7.1390917"><ele>634.0</ele><time>2026-04-14T18:05:10.922Z</time></trkpt><trkpt lat="42.640655" lon="-7.1390867"><ele>634.0</ele><time>2026-04-14T18:05:11.922Z</time></trkpt><trkpt lat="42.6405617" lon="-7.1390983"><ele>634.0</ele><time>2026-04-14T18:05:12.922Z</time></trkpt><trkpt lat="42.6404783" lon="-7.1391317"><ele>634.0</ele><time>2026-04-14T18:05:13.922Z</time></trkpt><trkpt lat="42.640415" lon="-7.13917"><ele>634.0</ele><time>2026-04-14T18:05:14.923Z</time></trkpt><trkpt lat="42.6403333" lon="-7.139235"><ele>634.0</ele><time>2026-04-14T18:05:15.922Z</time></trkpt><trkpt lat="42.6402383" lon="-7.13932"><ele>634.0</ele><time>2026-04-14T18:05:16.923Z</time></trkpt><trkpt lat="42.6401533" lon="-7.1394017"><ele>634.0</ele><time>2026-04-14T18:05:17.923Z</time></trkpt><trkpt lat="42.64007" lon="-7.139505"><ele>634.0</ele><time>2026-04-14T18:05:18.923Z</time></trkpt><trkpt lat="42.63999" lon="-7.1395983"><ele>636.8</ele><time>2026-04-14T18:05:19.922Z</time></trkpt><trkpt lat="42.639905" lon="-7.1396817"><ele>639.5999999999999</ele><time>2026-04-14T18:05:20.922Z</time></trkpt><trkpt lat="42.6398517" lon="-7.1398483"><ele>642.4</ele><time>2026-04-14T18:05:21.922Z</time></trkpt><trkpt lat="42.63977" lon="-7.139915"><ele>645.1999999999999</ele><time>2026-04-14T18:05:22.922Z</time></trkpt><trkpt lat="42.6397033" lon="-7.1399883"><ele>648.0</ele><time>2026-04-14T18:05:23.922Z</time></trkpt><trkpt lat="42.639605" lon="-7.1400433"><ele>648.0</ele><time>2026-04-14T18:05:24.923Z</time></trkpt><trkpt lat="42.6395267" lon="-7.1400967"><ele>648.0</ele><time>2026-04-14T18:05:25.923Z</time></trkpt><trkpt lat="42.639425" lon="-7.1401417"><ele>648.0</ele><time>2026-04-14T18:05:26.922Z</time></trkpt><trkpt lat="42.63932" lon="-7.1402033"><ele>648.0</ele><time>2026-04-14T18:05:27.922Z</time></trkpt><trkpt lat="42.6392333" lon="-7.1402833"><ele>648.0</ele><time>2026-04-14T18:05:28.922Z</time></trkpt><trkpt lat="42.639145" lon="-7.1403917"><ele>645.0</ele><time>2026-04-14T18:05:29.922Z</time></trkpt><trkpt lat="42.639065" lon="-7.140475"><ele>642.0</ele><time>2026-04-14T18:05:30.923Z</time></trkpt><trkpt lat="42.6389933" lon="-7.1405867"><ele>639.0</ele><time>2026-04-14T18:05:31.922Z</time></trkpt><trkpt lat="42.6388983" lon="-7.14069"><ele>636.0</ele><time>2026-04-14T18:05:32.922Z</time></trkpt><trkpt lat="42.6388567" lon="-7.1408117"><ele>633.0</ele><time>2026-04-14T18:05:33.922Z</time></trkpt><trkpt lat="42.6388483" lon="-7.14094"><ele>633.0</ele><time>2026-04-14T18:05:34.923Z</time></trkpt><trkpt lat="42.6388367" lon="-7.1410917"><ele>633.0</ele><time>2026-04-14T18:05:35.922Z</time></trkpt><trkpt lat="42.6388517" lon="-7.1412317"><ele>633.0</ele><time>2026-04-14T18:05:36.923Z</time></trkpt><trkpt lat="42.6388583" lon="-7.1413817"><ele>633.0</ele><time>2026-04-14T18:05:37.923Z</time></trkpt><trkpt lat="42.6388467" lon="-7.141535"><ele>633.0</ele><time>2026-04-14T18:05:38.923Z</time></trkpt><trkpt lat="42.6388333" lon="-7.1416833"><ele>635.8</ele><time>2026-04-14T18:05:39.922Z</time></trkpt><trkpt lat="42.6388133" lon="-7.14183"><ele>638.5999999999999</ele><time>2026-04-14T18:05:40.923Z</time></trkpt><trkpt lat="42.6387767" lon="-7.1419683"><ele>641.4000000000001</ele><time>2026-04-14T18:05:41.923Z</time></trkpt><trkpt lat="42.6387467" lon="-7.1420967"><ele>644.2</ele><time>2026-04-14T18:05:42.923Z</time></trkpt><trkpt lat="42.6387083" lon="-7.142225"><ele>647.0</ele><time>2026-04-14T18:05:43.922Z</time></trkpt><trkpt lat="42.6386683" lon="-7.1423567"><ele>650.0</ele><time>2026-04-14T18:05:44.923Z</time></trkpt><trkpt lat="42.6386367" lon="-7.14249"><ele>653.0</ele><time>2026-04-14T18:05:45.923Z</time></trkpt><trkpt lat="42.6386" lon="-7.142605"><ele>656.0</ele><time>2026-04-14T18:05:46.922Z</time></trkpt><trkpt lat="42.638565" lon="-7.1427467"><ele>659.0</ele><time>2026-04-14T18:05:47.922Z</time></trkpt><trkpt lat="42.6385367" lon="-7.14289"><ele>662.0</ele><time>2026-04-14T18:05:48.923Z</time></trkpt><trkpt lat="42.6385217" lon="-7.143065"><ele>653.0</ele><time>2026-04-14T18:05:49.922Z</time></trkpt><trkpt lat="42.6384917" lon="-7.1432433"><ele>644.0</ele><time>2026-04-14T18:05:50.923Z</time></trkpt><trkpt lat="42.6384383" lon="-7.14341"><ele>635.0</ele><time>2026-04-14T18:05:51.922Z</time></trkpt><trkpt lat="42.6384033" lon="-7.143585"><ele>626.0</ele><time>2026-04-14T18:05:52.923Z</time></trkpt><trkpt lat="42.63836" lon="-7.1437583"><ele>626.0</ele><time>2026-04-14T18:05:53.922Z</time></trkpt><trkpt lat="42.6383133" lon="-7.14391"><ele>626.0</ele><time>2026-04-14T18:05:54.923Z</time></trkpt><trkpt lat="42.6382517" lon="-7.1440517"><ele>626.0</ele><time>2026-04-14T18:05:55.923Z</time></trkpt><trkpt lat="42.6382" lon="-7.1441983"><ele>626.0</ele><time>2026-04-14T18:05:56.922Z</time></trkpt><trkpt lat="42.63815" lon="-7.1442783"><ele>626.0</ele><time>2026-04-14T18:05:57.923Z</time></trkpt><trkpt lat="42.63807" lon="-7.14432"><ele>628.5</ele><time>2026-04-14T18:05:58.922Z</time></trkpt><trkpt lat="42.6379633" lon="-7.14441"><ele>631.0</ele><time>2026-04-14T18:05:59.922Z</time></trkpt><trkpt lat="42.6378867" lon="-7.1445183"><ele>633.5</ele><time>2026-04-14T18:06:00.922Z</time></trkpt><trkpt lat="42.63782" lon="-7.1446067"><ele>636.0</ele><time>2026-04-14T18:06:01.923Z</time></trkpt><trkpt lat="42.63768" lon="-7.1447217"><ele>629.0</ele><time>2026-04-14T18:06:03.922Z</time></trkpt><trkpt lat="42.6375917" lon="-7.14478"><ele>622.0</ele><time>2026-04-14T18:06:04.922Z</time></trkpt><trkpt lat="42.6374783" lon="-7.144805"><ele>615.0</ele><time>2026-04-14T18:06:05.922Z</time></trkpt><trkpt lat="42.6373767" lon="-7.144865"><ele>608.0</ele><time>2026-04-14T18:06:06.923Z</time></trkpt><trkpt lat="42.6373033" lon="-7.14493"><ele>601.0</ele><time>2026-04-14T18:06:07.923Z</time></trkpt><trkpt lat="42.6372467" lon="-7.1449983"><ele>601.0</ele><time>2026-04-14T18:06:08.922Z</time></trkpt><trkpt lat="42.6371933" lon="-7.1451533"><ele>601.0</ele><time>2026-04-14T18:06:10.922Z</time></trkpt><trkpt lat="42.6371467" lon="-7.1452367"><ele>601.0</ele><time>2026-04-14T18:06:11.922Z</time></trkpt><trkpt lat="42.63705" lon="-7.1452867"><ele>601.0</ele><time>2026-04-14T18:06:12.923Z</time></trkpt><trkpt lat="42.636995" lon="-7.14538"><ele>601.0</ele><time>2026-04-14T18:06:15.922Z</time></trkpt><trkpt lat="42.6370383" lon="-7.1455167"><ele>596.5</ele><time>2026-04-14T18:06:17.923Z</time></trkpt><trkpt lat="42.637235" lon="-7.1458317"><ele>592.0</ele><time>2026-04-14T18:06:18.922Z</time></trkpt><trkpt lat="42.6374167" lon="-7.146085"><ele>592.0</ele><time>2026-04-14T18:06:19.923Z</time></trkpt><trkpt lat="42.637455" lon="-7.1462367"><ele>592.0</ele><time>2026-04-14T18:06:20.922Z</time></trkpt><trkpt lat="42.63749" lon="-7.1463967"><ele>592.0</ele><time>2026-04-14T18:06:21.923Z</time></trkpt><trkpt lat="42.6375383" lon="-7.146525"><ele>592.0</ele><time>2026-04-14T18:06:22.922Z</time></trkpt><trkpt lat="42.6376" lon="-7.1466783"><ele>590.6</ele><time>2026-04-14T18:06:23.923Z</time></trkpt><trkpt lat="42.6376267" lon="-7.1468183"><ele>589.2</ele><time>2026-04-14T18:06:24.922Z</time></trkpt><trkpt lat="42.63766" lon="-7.1469633"><ele>587.8</ele><time>2026-04-14T18:06:25.923Z</time></trkpt><trkpt lat="42.63768" lon="-7.1471117"><ele>586.4</ele><time>2026-04-14T18:06:26.923Z</time></trkpt><trkpt lat="42.637695" lon="-7.147245"><ele>585.0</ele><time>2026-04-14T18:06:27.922Z</time></trkpt><trkpt lat="42.637705" lon="-7.147395"><ele>584.6</ele><time>2026-04-14T18:06:28.923Z</time></trkpt><trkpt lat="42.63773" lon="-7.1475383"><ele>584.2</ele><time>2026-04-14T18:06:29.922Z</time></trkpt><trkpt lat="42.6377517" lon="-7.1476817"><ele>583.8</ele><time>2026-04-14T18:06:30.922Z</time></trkpt><trkpt lat="42.6377617" lon="-7.1477917"><ele>583.4</ele><time>2026-04-14T18:06:31.922Z</time></trkpt><trkpt lat="42.6377683" lon="-7.1479583"><ele>583.0</ele><time>2026-04-14T18:06:32.923Z</time></trkpt><trkpt lat="42.6377917" lon="-7.1481017"><ele>590.1666666666667</ele><time>2026-04-14T18:06:33.923Z</time></trkpt><trkpt lat="42.6378183" lon="-7.148215"><ele>597.3333333333334</ele><time>2026-04-14T18:06:34.922Z</time></trkpt><trkpt lat="42.6378633" lon="-7.1483417"><ele>604.5</ele><time>2026-04-14T18:06:35.922Z</time></trkpt><trkpt lat="42.6378667" lon="-7.1484617"><ele>611.6666666666666</ele><time>2026-04-14T18:06:36.922Z</time></trkpt><trkpt lat="42.637865" lon="-7.1485883"><ele>618.8333333333333</ele><time>2026-04-14T18:06:37.922Z</time></trkpt><trkpt lat="42.6378733" lon="-7.14869"><ele>626.0</ele><time>2026-04-14T18:06:38.922Z</time></trkpt><trkpt lat="42.63792" lon="-7.14881"><ele>626.0</ele><time>2026-04-14T18:06:39.922Z</time></trkpt><trkpt lat="42.6379633" lon="-7.148915"><ele>626.0</ele><time>2026-04-14T18:06:40.922Z</time></trkpt><trkpt lat="42.637995" lon="-7.1490033"><ele>626.0</ele><time>2026-04-14T18:06:41.922Z</time></trkpt><trkpt lat="42.6380217" lon="-7.1490967"><ele>626.0</ele><time>2026-04-14T18:06:42.923Z</time></trkpt><trkpt lat="42.6380483" lon="-7.1491867"><ele>626.0</ele><time>2026-04-14T18:06:43.923Z</time></trkpt><trkpt lat="42.638075" lon="-7.14933"><ele>626.0</ele><time>2026-04-14T18:06:45.922Z</time></trkpt><trkpt lat="42.6380733" lon="-7.1494717"><ele>627.2</ele><time>2026-04-14T18:06:47.922Z</time></trkpt><trkpt lat="42.6380933" lon="-7.1496583"><ele>628.4000000000001</ele><time>2026-04-14T18:06:49.922Z</time></trkpt><trkpt lat="42.6381117" lon="-7.1497633"><ele>629.6</ele><time>2026-04-14T18:06:50.922Z</time></trkpt><trkpt lat="42.63816" lon="-7.1498617"><ele>630.8000000000001</ele><time>2026-04-14T18:06:51.923Z</time></trkpt><trkpt lat="42.6382267" lon="-7.1499633"><ele>632.0</ele><time>2026-04-14T18:06:52.923Z</time></trkpt><trkpt lat="42.6382767" lon="-7.1500183"><ele>632.0</ele><time>2026-04-14T18:06:53.923Z</time></trkpt><trkpt lat="42.6383517" lon="-7.1500983"><ele>632.0</ele><time>2026-04-14T18:06:54.922Z</time></trkpt><trkpt lat="42.6384283" lon="-7.15017"><ele>632.0</ele><time>2026-04-14T18:06:55.922Z</time></trkpt><trkpt lat="42.63847" lon="-7.1502383"><ele>632.0</ele><time>2026-04-14T18:06:56.922Z</time></trkpt><trkpt lat="42.6385683" lon="-7.1502617"><ele>632.0</ele><time>2026-04-14T18:06:57.922Z</time></trkpt><trkpt lat="42.6386467" lon="-7.1503083"><ele>632.0</ele><time>2026-04-14T18:06:58.923Z</time></trkpt><trkpt lat="42.63872" lon="-7.15036"><ele>637.0</ele><time>2026-04-14T18:06:59.923Z</time></trkpt><trkpt lat="42.6388117" lon="-7.1504067"><ele>642.0</ele><time>2026-04-14T18:07:00.923Z</time></trkpt><trkpt lat="42.6389317" lon="-7.1504383"><ele>647.0</ele><time>2026-04-14T18:07:02.923Z</time></trkpt><trkpt lat="42.6390383" lon="-7.150485"><ele>652.0</ele><time>2026-04-14T18:07:04.922Z</time></trkpt><trkpt lat="42.63911" lon="-7.1505117"><ele>657.0</ele><time>2026-04-14T18:07:05.923Z</time></trkpt><trkpt lat="42.6392067" lon="-7.15055"><ele>657.0</ele><time>2026-04-14T18:07:07.922Z</time></trkpt><trkpt lat="42.6393" lon="-7.15059"><ele>657.0</ele><time>2026-04-14T18:07:10.922Z</time></trkpt><trkpt lat="42.6393633" lon="-7.1506017"><ele>657.0</ele><time>2026-04-14T18:07:12.922Z</time></trkpt><trkpt lat="42.6394417" lon="-7.1505967"><ele>657.0</ele><time>2026-04-14T18:07:14.923Z</time></trkpt><trkpt lat="42.63951" lon="-7.1504767"><ele>657.0</ele><time>2026-04-14T18:07:17.922Z</time></trkpt><trkpt lat="42.63958" lon="-7.15043"><ele>657.0</ele><time>2026-04-14T18:07:19.922Z</time></trkpt><trkpt lat="42.6396667" lon="-7.1505033"><ele>657.0</ele><time>2026-04-14T18:07:23.922Z</time></trkpt><trkpt lat="42.639705" lon="-7.150585"><ele>657.0</ele><time>2026-04-14T18:07:25.922Z</time></trkpt><trkpt lat="42.63976" lon="-7.1506983"><ele>657.0</ele><time>2026-04-14T18:07:28.922Z</time></trkpt><trkpt lat="42.63979" lon="-7.150795"><ele>657.0</ele><time>2026-04-14T18:07:30.923Z</time></trkpt><trkpt lat="42.6386467" lon="-7.1503083"><ele>657.0</ele><time>2026-04-14T18:06:58.923Z</time></trkpt><trkpt lat="42.63872" lon="-7.15036"><ele>657.0</ele><time>2026-04-14T18:06:59.923Z</time></trkpt><trkpt lat="42.6388117" lon="-7.1504067"><ele>657.0</ele><time>2026-04-14T18:07:00.923Z</time></trkpt><trkpt lat="42.6389317" lon="-7.1504383"><ele>657.0</ele><time>2026-04-14T18:07:02.923Z</time></trkpt><trkpt lat="42.6390383" lon="-7.150485"><ele>657.0</ele><time>2026-04-14T18:07:04.922Z</time></trkpt><trkpt lat="42.63911" lon="-7.1505117"><ele>657.0</ele><time>2026-04-14T18:07:05.923Z</time></trkpt><trkpt lat="42.6392067" lon="-7.15055"><ele>657.0</ele><time>2026-04-14T18:07:07.922Z</time></trkpt><trkpt lat="42.6393" lon="-7.15059"><ele>657.0</ele><time>2026-04-14T18:07:10.922Z</time></trkpt><trkpt lat="42.6393633" lon="-7.1506017"><ele>657.0</ele><time>2026-04-14T18:07:12.922Z</time></trkpt><trkpt lat="42.6394417" lon="-7.1505967"><ele>657.0</ele><time>2026-04-14T18:07:14.923Z</time></trkpt><trkpt lat="42.63951" lon="-7.1504767"><ele>656.5</ele><time>2026-04-14T18:07:17.922Z</time></trkpt><trkpt lat="42.63958" lon="-7.15043"><ele>656.0</ele><time>2026-04-14T18:07:19.922Z</time></trkpt><trkpt lat="42.6396667" lon="-7.1505033"><ele>655.5</ele><time>2026-04-14T18:07:23.922Z</time></trkpt><trkpt lat="42.639705" lon="-7.150585"><ele>655.0</ele><time>2026-04-14T18:07:25.922Z</time></trkpt><trkpt lat="42.63976" lon="-7.1506983"><ele>654.5</ele><time>2026-04-14T18:07:28.922Z</time></trkpt><trkpt lat="42.63979" lon="-7.150795"><ele>654.0</ele><time>2026-04-14T18:07:30.923Z</time></trkpt><trkpt lat="42.6398217" lon="-7.150875"><ele>654.0</ele><time>2026-04-14T18:07:31.922Z</time></trkpt><trkpt lat="42.639865" lon="-7.15101"><ele>654.0</ele><time>2026-04-14T18:07:33.922Z</time></trkpt><trkpt lat="42.63988" lon="-7.15115"><ele>654.0</ele><time>2026-04-14T18:07:35.923Z</time></trkpt><trkpt lat="42.6399183" lon="-7.15132"><ele>654.0</ele><time>2026-04-14T18:07:38.922Z</time></trkpt><trkpt lat="42.63987" lon="-7.1513883"><ele>654.0</ele><time>2026-04-14T18:07:40.922Z</time></trkpt><trkpt lat="42.6398683" lon="-7.1512383"><ele>654.0</ele><time>2026-04-14T18:08:20.923Z</time></trkpt><trkpt lat="42.63992" lon="-7.1511867"><ele>654.0</ele><time>2026-04-14T18:08:49.922Z</time></trkpt><trkpt lat="42.6398433" lon="-7.1511367"><ele>654.0</ele><time>2026-04-14T18:09:08.923Z</time></trkpt><trkpt lat="42.639665" lon="-7.1511933"><ele>654.0</ele><time>2026-04-14T18:09:17.922Z</time></trkpt><trkpt lat="42.6397233" lon="-7.1511183"><ele>654.0</ele><time>2026-04-14T18:10:16.924Z</time></trkpt><trkpt lat="42.6397917" lon="-7.1511283"><ele>654.0</ele><time>2026-04-14T18:11:09.923Z</time></trkpt><trkpt lat="42.6398683" lon="-7.1511383"><ele>654.0</ele><time>2026-04-14T18:11:12.923Z</time></trkpt><trkpt lat="42.6399467" lon="-7.1511583"><ele>654.0</ele><time>2026-04-14T18:11:14.923Z</time></trkpt><trkpt lat="42.6400367" lon="-7.1511733"><ele>654.0</ele><time>2026-04-14T18:11:16.923Z</time></trkpt><trkpt lat="42.6401017" lon="-7.151185"><ele>654.0</ele><time>2026-04-14T18:11:17.924Z</time></trkpt><trkpt lat="42.6402117" lon="-7.151265"><ele>654.0</ele><time>2026-04-14T18:11:19.924Z</time></trkpt><trkpt lat="42.6402817" lon="-7.151335"><ele>652.6</ele><time>2026-04-14T18:11:20.923Z</time></trkpt><trkpt lat="42.640345" lon="-7.1513983"><ele>651.2</ele><time>2026-04-14T18:11:21.923Z</time></trkpt><trkpt lat="42.6404633" lon="-7.151515"><ele>649.8000000000001</ele><time>2026-04-14T18:11:23.924Z</time></trkpt><trkpt lat="42.6405067" lon="-7.1515967"><ele>648.4000000000001</ele><time>2026-04-14T18:11:24.924Z</time></trkpt><trkpt lat="42.6405633" lon="-7.1516567"><ele>647.0</ele><time>2026-04-14T18:11:25.923Z</time></trkpt><trkpt lat="42.6406217" lon="-7.15176"><ele>647.0</ele><time>2026-04-14T18:11:27.924Z</time></trkpt><trkpt lat="42.6405667" lon="-7.1516933"><ele>647.0</ele><time>2026-04-14T18:12:31.923Z</time></trkpt><trkpt lat="42.6405917" lon="-7.1517733"><ele>647.0</ele><time>2026-04-14T18:12:39.924Z</time></trkpt><trkpt lat="42.640665" lon="-7.15183"><ele>647.0</ele><time>2026-04-14T18:12:42.924Z</time></trkpt><trkpt lat="42.64072" lon="-7.1518883"><ele>647.0</ele><time>2026-04-14T18:12:45.923Z</time></trkpt><trkpt lat="42.6408" lon="-7.1519333"><ele>647.0</ele><time>2026-04-14T18:12:48.924Z</time></trkpt><trkpt lat="42.6408833" lon="-7.15181"><ele>647.0</ele><time>2026-04-14T18:12:58.924Z</time></trkpt><trkpt lat="42.6408317" lon="-7.1518917"><ele>647.0</ele><time>2026-04-14T18:13:30.923Z</time></trkpt><trkpt lat="42.6408783" lon="-7.151815"><ele>647.0</ele><time>2026-04-14T18:13:54.923Z</time></trkpt><trkpt lat="42.6409517" lon="-7.1518033"><ele>647.0</ele><time>2026-04-14T18:14:41.923Z</time></trkpt><trkpt lat="42.6410083" lon="-7.15191"><ele>647.0</ele><time>2026-04-14T18:15:17.923Z</time></trkpt><trkpt lat="42.6410817" lon="-7.151985"><ele>647.0</ele><time>2026-04-14T18:15:19.924Z</time></trkpt><trkpt lat="42.6411267" lon="-7.152045"><ele>647.5</ele><time>2026-04-14T18:15:21.924Z</time></trkpt><trkpt lat="42.6411917" lon="-7.1521017"><ele>648.0</ele><time>2026-04-14T18:15:23.924Z</time></trkpt><trkpt lat="42.64124" lon="-7.1521683"><ele>648.5</ele><time>2026-04-14T18:15:25.924Z</time></trkpt><trkpt lat="42.6412817" lon="-7.1522433"><ele>649.0</ele><time>2026-04-14T18:15:27.924Z</time></trkpt><trkpt lat="42.641335" lon="-7.1523367"><ele>649.5</ele><time>2026-04-14T18:15:31.924Z</time></trkpt><trkpt lat="42.64136" lon="-7.1524283"><ele>650.0</ele><time>2026-04-14T18:15:33.924Z</time></trkpt><trkpt lat="42.6413967" lon="-7.1525417"><ele>650.0</ele><time>2026-04-14T18:15:36.924Z</time></trkpt><trkpt lat="42.641485" lon="-7.1526017"><ele>650.0</ele><time>2026-04-14T18:15:39.923Z</time></trkpt><trkpt lat="42.6415633" lon="-7.1526367"><ele>650.0</ele><time>2026-04-14T18:15:42.923Z</time></trkpt><trkpt lat="42.6416217" lon="-7.152705"><ele>650.0</ele><time>2026-04-14T18:15:45.924Z</time></trkpt><trkpt lat="42.6415" lon="-7.152595"><ele>650.0</ele><time>2026-04-14T18:16:33.924Z</time></trkpt><trkpt lat="42.6415" lon="-7.152595"><ele>650.0</ele><time>2026-04-14T18:16:33.924Z</time></trkpt><trkpt lat="42.6414133" lon="-7.1525917"><ele>650.0</ele><time>2026-04-14T18:17:10.923Z</time></trkpt><trkpt lat="42.64134" lon="-7.1525467"><ele>650.0</ele><time>2026-04-14T18:17:12.923Z</time></trkpt><trkpt lat="42.6412617" lon="-7.1524817"><ele>650.0</ele><time>2026-04-14T18:17:14.923Z</time></trkpt><trkpt lat="42.64119" lon="-7.1524283"><ele>650.0</ele><time>2026-04-14T18:17:16.923Z</time></trkpt><trkpt lat="42.6411233" lon="-7.1523533"><ele>650.0</ele><time>2026-04-14T18:17:18.924Z</time></trkpt><trkpt lat="42.64105" lon="-7.1522617"><ele>650.0</ele><time>2026-04-14T18:17:20.923Z</time></trkpt><trkpt lat="42.6409567" lon="-7.1521633"><ele>649.5</ele><time>2026-04-14T18:17:22.924Z</time></trkpt><trkpt lat="42.6409017" lon="-7.1521167"><ele>649.0</ele><time>2026-04-14T18:17:23.923Z</time></trkpt><trkpt lat="42.6408033" lon="-7.1520083"><ele>648.5</ele><time>2026-04-14T18:17:25.923Z</time></trkpt><trkpt lat="42.64075" lon="-7.1519517"><ele>648.0</ele><time>2026-04-14T18:17:26.923Z</time></trkpt><trkpt lat="42.6407083" lon="-7.1518783"><ele>647.5</ele><time>2026-04-14T18:17:27.923Z</time></trkpt><trkpt lat="42.6406633" lon="-7.1518067"><ele>647.0</ele><time>2026-04-14T18:17:28.924Z</time></trkpt><trkpt lat="42.64062" lon="-7.1517217"><ele>647.0</ele><time>2026-04-14T18:17:29.923Z</time></trkpt><trkpt lat="42.6405733" lon="-7.151645"><ele>647.0</ele><time>2026-04-14T18:17:30.924Z</time></trkpt><trkpt lat="42.64052" lon="-7.1515833"><ele>647.0</ele><time>2026-04-14T18:17:31.923Z</time></trkpt><trkpt lat="42.64045" lon="-7.151545"><ele>647.0</ele><time>2026-04-14T18:17:32.924Z</time></trkpt><trkpt lat="42.6403883" lon="-7.1515083"><ele>647.0</ele><time>2026-04-14T18:17:33.923Z</time></trkpt><trkpt lat="42.6403333" lon="-7.151455"><ele>647.0</ele><time>2026-04-14T18:17:34.924Z</time></trkpt><trkpt lat="42.640285" lon="-7.1514"><ele>647.0</ele><time>2026-04-14T18:17:35.923Z</time></trkpt><trkpt lat="42.6402383" lon="-7.15134"><ele>648.0</ele><time>2026-04-14T18:17:36.923Z</time></trkpt><trkpt lat="42.6401833" lon="-7.1512983"><ele>649.0</ele><time>2026-04-14T18:17:37.924Z</time></trkpt><trkpt lat="42.6401217" lon="-7.1512583"><ele>650.0</ele><time>2026-04-14T18:17:38.923Z</time></trkpt><trkpt lat="42.6400617" lon="-7.1512117"><ele>651.0</ele><time>2026-04-14T18:17:39.924Z</time></trkpt><trkpt lat="42.6399983" lon="-7.1511533"><ele>652.0</ele><time>2026-04-14T18:17:40.924Z</time></trkpt><trkpt lat="42.63993" lon="-7.1511033"><ele>653.0</ele><time>2026-04-14T18:17:41.923Z</time></trkpt><trkpt lat="42.6398617" lon="-7.1510683"><ele>654.0</ele><time>2026-04-14T18:17:42.924Z</time></trkpt><trkpt lat="42.6397967" lon="-7.1510383"><ele>654.0</ele><time>2026-04-14T18:17:43.923Z</time></trkpt><trkpt lat="42.6397467" lon="-7.1509783"><ele>654.0</ele><time>2026-04-14T18:17:44.923Z</time></trkpt><trkpt lat="42.6396483" lon="-7.1508583"><ele>654.0</ele><time>2026-04-14T18:17:46.923Z</time></trkpt><trkpt lat="42.639605" lon="-7.1507833"><ele>654.0</ele><time>2026-04-14T18:17:47.923Z</time></trkpt><trkpt lat="42.6395667" lon="-7.1506967"><ele>654.0</ele><time>2026-04-14T18:17:48.924Z</time></trkpt><trkpt lat="42.6394583" lon="-7.15057"><ele>654.5</ele><time>2026-04-14T18:17:50.923Z</time></trkpt><trkpt lat="42.6393933" lon="-7.1505117"><ele>655.0</ele><time>2026-04-14T18:17:51.923Z</time></trkpt><trkpt lat="42.6393367" lon="-7.1504733"><ele>655.5</ele><time>2026-04-14T18:17:52.923Z</time></trkpt><trkpt lat="42.639235" lon="-7.150415"><ele>656.0</ele><time>2026-04-14T18:17:54.924Z</time></trkpt><trkpt lat="42.6391717" lon="-7.150375"><ele>656.5</ele><time>2026-04-14T18:17:55.923Z</time></trkpt><trkpt lat="42.6391117" lon="-7.150345"><ele>657.0</ele><time>2026-04-14T18:17:56.924Z</time></trkpt><trkpt lat="42.6390483" lon="-7.150315"><ele>657.0</ele><time>2026-04-14T18:17:57.923Z</time></trkpt><trkpt lat="42.638925" lon="-7.1502867"><ele>657.0</ele><time>2026-04-14T18:17:59.923Z</time></trkpt><trkpt lat="42.6388583" lon="-7.1502767"><ele>657.0</ele><time>2026-04-14T18:18:01.923Z</time></trkpt><trkpt lat="42.63893" lon="-7.15027"><ele>657.0</ele><time>2026-04-14T18:18:12.923Z</time></trkpt><trkpt lat="42.6390183" lon="-7.1503083"><ele>657.0</ele><time>2026-04-14T18:18:13.923Z</time></trkpt><trkpt lat="42.6390917" lon="-7.1503883"><ele>657.0</ele><time>2026-04-14T18:18:15.924Z</time></trkpt><trkpt lat="42.63914" lon="-7.15045"><ele>657.0</ele><time>2026-04-14T18:18:18.924Z</time></trkpt><trkpt lat="42.63906" lon="-7.1504467"><ele>657.0</ele><time>2026-04-14T18:18:22.924Z</time></trkpt><trkpt lat="42.63898" lon="-7.15044"><ele>657.0</ele><time>2026-04-14T18:18:24.925Z</time></trkpt><trkpt lat="42.639235" lon="-7.150415"><ele>657.0</ele><time>2026-04-14T18:17:54.924Z</time></trkpt><trkpt lat="42.6391717" lon="-7.150375"><ele>657.0</ele><time>2026-04-14T18:17:55.923Z</time></trkpt><trkpt lat="42.6391117" lon="-7.150345"><ele>657.0</ele><time>2026-04-14T18:17:56.924Z</time></trkpt><trkpt lat="42.6390483" lon="-7.150315"><ele>657.0</ele><time>2026-04-14T18:17:57.923Z</time></trkpt><trkpt lat="42.638925" lon="-7.1502867"><ele>657.0</ele><time>2026-04-14T18:17:59.923Z</time></trkpt><trkpt lat="42.6388583" lon="-7.1502767"><ele>657.0</ele><time>2026-04-14T18:18:01.923Z</time></trkpt><trkpt lat="42.63893" lon="-7.15027"><ele>657.0</ele><time>2026-04-14T18:18:12.923Z</time></trkpt><trkpt lat="42.6390183" lon="-7.1503083"><ele>657.0</ele><time>2026-04-14T18:18:13.923Z</time></trkpt><trkpt lat="42.6390917" lon="-7.1503883"><ele>657.0</ele><time>2026-04-14T18:18:15.924Z</time></trkpt><trkpt lat="42.63914" lon="-7.15045"><ele>657.0</ele><time>2026-04-14T18:18:18.924Z</time></trkpt><trkpt lat="42.63906" lon="-7.1504467"><ele>657.0</ele><time>2026-04-14T18:18:22.924Z</time></trkpt><trkpt lat="42.63898" lon="-7.15044"><ele>657.0</ele><time>2026-04-14T18:18:24.925Z</time></trkpt><trkpt lat="42.63885" lon="-7.15041"><ele>657.0</ele><time>2026-04-14T18:18:26.924Z</time></trkpt><trkpt lat="42.638765" lon="-7.1504"><ele>657.0</ele><time>2026-04-14T18:18:27.925Z</time></trkpt><trkpt lat="42.63868" lon="-7.1503833"><ele>657.0</ele><time>2026-04-14T18:18:28.925Z</time></trkpt><trkpt lat="42.6385917" lon="-7.1503533"><ele>657.0</ele><time>2026-04-14T18:18:29.924Z</time></trkpt><trkpt lat="42.63851" lon="-7.15031"><ele>657.0</ele><time>2026-04-14T18:18:30.925Z</time></trkpt><trkpt lat="42.63843" lon="-7.150235"><ele>657.0</ele><time>2026-04-14T18:18:31.924Z</time></trkpt><trkpt lat="42.63836" lon="-7.15015"><ele>653.0</ele><time>2026-04-14T18:18:32.924Z</time></trkpt><trkpt lat="42.6382983" lon="-7.1500517"><ele>649.0</ele><time>2026-04-14T18:18:33.924Z</time></trkpt><trkpt lat="42.6382483" lon="-7.149935"><ele>645.0</ele><time>2026-04-14T18:18:34.925Z</time></trkpt><trkpt lat="42.6381933" lon="-7.1498317"><ele>641.0</ele><time>2026-04-14T18:18:35.925Z</time></trkpt><trkpt lat="42.6381583" lon="-7.14972"><ele>637.0</ele><time>2026-04-14T18:18:36.924Z</time></trkpt><trkpt lat="42.6381333" lon="-7.1496"><ele>637.0</ele><time>2026-04-14T18:18:37.925Z</time></trkpt><trkpt lat="42.6381083" lon="-7.1494933"><ele>637.0</ele><time>2026-04-14T18:18:38.924Z</time></trkpt><trkpt lat="42.6380933" lon="-7.1493683"><ele>637.0</ele><time>2026-04-14T18:18:39.924Z</time></trkpt><trkpt lat="42.638125" lon="-7.149235"><ele>637.0</ele><time>2026-04-14T18:18:40.925Z</time></trkpt><trkpt lat="42.63814" lon="-7.1491233"><ele>637.0</ele><time>2026-04-14T18:18:41.925Z</time></trkpt><trkpt lat="42.6381517" lon="-7.1490167"><ele>637.0</ele><time>2026-04-14T18:18:42.924Z</time></trkpt><trkpt lat="42.6381433" lon="-7.1489183"><ele>634.8000000000001</ele><time>2026-04-14T18:18:43.925Z</time></trkpt><trkpt lat="42.6381667" lon="-7.14882"><ele>632.6</ele><time>2026-04-14T18:18:44.925Z</time></trkpt><trkpt lat="42.6381717" lon="-7.1487117"><ele>630.4000000000001</ele><time>2026-04-14T18:18:45.925Z</time></trkpt><trkpt lat="42.638175" lon="-7.1485833"><ele>628.2</ele><time>2026-04-14T18:18:46.924Z</time></trkpt><trkpt lat="42.6381783" lon="-7.1484467"><ele>626.0</ele><time>2026-04-14T18:18:47.924Z</time></trkpt><trkpt lat="42.63818" lon="-7.1483"><ele>626.5</ele><time>2026-04-14T18:18:48.924Z</time></trkpt><trkpt lat="42.63819" lon="-7.1481617"><ele>627.0</ele><time>2026-04-14T18:18:49.924Z</time></trkpt><trkpt lat="42.6381833" lon="-7.14801"><ele>627.5</ele><time>2026-04-14T18:18:50.924Z</time></trkpt><trkpt lat="42.6381533" lon="-7.14785"><ele>628.0</ele><time>2026-04-14T18:18:51.925Z</time></trkpt><trkpt lat="42.63813" lon="-7.1476833"><ele>628.0</ele><time>2026-04-14T18:18:52.925Z</time></trkpt><trkpt lat="42.6381083" lon="-7.1475283"><ele>628.0</ele><time>2026-04-14T18:18:53.924Z</time></trkpt><trkpt lat="42.6380867" lon="-7.1473683"><ele>628.0</ele><time>2026-04-14T18:18:54.924Z</time></trkpt><trkpt lat="42.6380283" lon="-7.1471733"><ele>628.0</ele><time>2026-04-14T18:18:55.925Z</time></trkpt><trkpt lat="42.6380017" lon="-7.1469717"><ele>629.25</ele><time>2026-04-14T18:18:56.925Z</time></trkpt><trkpt lat="42.637985" lon="-7.1467883"><ele>630.5</ele><time>2026-04-14T18:18:57.925Z</time></trkpt><trkpt lat="42.6379883" lon="-7.146615"><ele>631.75</ele><time>2026-04-14T18:18:58.925Z</time></trkpt><trkpt lat="42.6379783" lon="-7.1464433"><ele>633.0</ele><time>2026-04-14T18:18:59.924Z</time></trkpt><trkpt lat="42.637985" lon="-7.146285"><ele>633.1999999999999</ele><time>2026-04-14T18:19:00.924Z</time></trkpt><trkpt lat="42.6379867" lon="-7.146125"><ele>633.4</ele><time>2026-04-14T18:19:01.924Z</time></trkpt><trkpt lat="42.637985" lon="-7.1459833"><ele>633.5999999999999</ele><time>2026-04-14T18:19:02.925Z</time></trkpt><trkpt lat="42.6379733" lon="-7.1458383"><ele>633.8</ele><time>2026-04-14T18:19:03.924Z</time></trkpt><trkpt lat="42.6379733" lon="-7.1457133"><ele>634.0</ele><time>2026-04-14T18:19:04.925Z</time></trkpt><trkpt lat="42.6379533" lon="-7.1455933"><ele>635.2</ele><time>2026-04-14T18:19:05.924Z</time></trkpt><trkpt lat="42.6379417" lon="-7.1454633"><ele>636.4</ele><time>2026-04-14T18:19:06.925Z</time></trkpt><trkpt lat="42.6379367" lon="-7.1453167"><ele>637.6</ele><time>2026-04-14T18:19:07.925Z</time></trkpt><trkpt lat="42.6379183" lon="-7.1451767"><ele>638.8</ele><time>2026-04-14T18:19:08.924Z</time></trkpt><trkpt lat="42.6378933" lon="-7.1450367"><ele>640.0</ele><time>2026-04-14T18:19:09.925Z</time></trkpt><trkpt lat="42.637865" lon="-7.1448933"><ele>639.2</ele><time>2026-04-14T18:19:10.924Z</time></trkpt><trkpt lat="42.6378617" lon="-7.1447517"><ele>638.4</ele><time>2026-04-14T18:19:11.924Z</time></trkpt><trkpt lat="42.63786" lon="-7.1446183"><ele>637.6</ele><time>2026-04-14T18:19:12.924Z</time></trkpt><trkpt lat="42.6378683" lon="-7.1444567"><ele>636.8</ele><time>2026-04-14T18:19:13.925Z</time></trkpt><trkpt lat="42.6378883" lon="-7.144325"><ele>636.0</ele><time>2026-04-14T18:19:14.924Z</time></trkpt><trkpt lat="42.6379283" lon="-7.1441917"><ele>636.0</ele><time>2026-04-14T18:19:15.925Z</time></trkpt><trkpt lat="42.6379883" lon="-7.144055"><ele>636.0</ele><time>2026-04-14T18:19:16.925Z</time></trkpt><trkpt lat="42.638035" lon="-7.143895"><ele>636.0</ele><time>2026-04-14T18:19:17.924Z</time></trkpt><trkpt lat="42.6380883" lon="-7.1437417"><ele>636.0</ele><time>2026-04-14T18:19:18.924Z</time></trkpt><trkpt lat="42.6381467" lon="-7.143595"><ele>634.0</ele><time>2026-04-14T18:19:19.924Z</time></trkpt><trkpt lat="42.6381967" lon="-7.1434683"><ele>632.0</ele><time>2026-04-14T18:19:20.924Z</time></trkpt><trkpt lat="42.6382583" lon="-7.1433633"><ele>630.0</ele><time>2026-04-14T18:19:21.925Z</time></trkpt><trkpt lat="42.63832" lon="-7.1432683"><ele>628.0</ele><time>2026-04-14T18:19:22.924Z</time></trkpt><trkpt lat="42.638385" lon="-7.1431767"><ele>626.0</ele><time>2026-04-14T18:19:23.924Z</time></trkpt><trkpt lat="42.6384333" lon="-7.143095"><ele>622.6</ele><time>2026-04-14T18:19:24.924Z</time></trkpt><trkpt lat="42.6384617" lon="-7.1429717"><ele>619.2</ele><time>2026-04-14T18:19:25.924Z</time></trkpt><trkpt lat="42.6384917" lon="-7.1428317"><ele>615.8</ele><time>2026-04-14T18:19:26.924Z</time></trkpt><trkpt lat="42.6385367" lon="-7.1427217"><ele>612.4</ele><time>2026-04-14T18:19:27.924Z</time></trkpt><trkpt lat="42.63858" lon="-7.1426033"><ele>609.0</ele><time>2026-04-14T18:19:28.925Z</time></trkpt><trkpt lat="42.6386183" lon="-7.14248"><ele>616.6</ele><time>2026-04-14T18:19:29.925Z</time></trkpt><trkpt lat="42.6386717" lon="-7.1423533"><ele>624.2</ele><time>2026-04-14T18:19:30.925Z</time></trkpt><trkpt lat="42.6387267" lon="-7.1422267"><ele>631.8000000000001</ele><time>2026-04-14T18:19:31.924Z</time></trkpt><trkpt lat="42.6387917" lon="-7.1421067"><ele>639.4</ele><time>2026-04-14T18:19:32.924Z</time></trkpt><trkpt lat="42.6388583" lon="-7.1419867"><ele>647.0</ele><time>2026-04-14T18:19:33.924Z</time></trkpt><trkpt lat="42.6389183" lon="-7.1418483"><ele>647.0</ele><time>2026-04-14T18:19:34.925Z</time></trkpt><trkpt lat="42.63894" lon="-7.14171"><ele>647.0</ele><time>2026-04-14T18:19:35.924Z</time></trkpt><trkpt lat="42.63897" lon="-7.1415833"><ele>647.0</ele><time>2026-04-14T18:19:36.924Z</time></trkpt><trkpt lat="42.6389833" lon="-7.1414533"><ele>647.0</ele><time>2026-04-14T18:19:37.925Z</time></trkpt><trkpt lat="42.6390083" lon="-7.141325"><ele>647.0</ele><time>2026-04-14T18:19:38.925Z</time></trkpt><trkpt lat="42.63902" lon="-7.14116"><ele>644.2</ele><time>2026-04-14T18:19:39.924Z</time></trkpt><trkpt lat="42.639035" lon="-7.1409967"><ele>641.4000000000001</ele><time>2026-04-14T18:19:40.924Z</time></trkpt><trkpt lat="42.63904" lon="-7.1408433"><ele>638.5999999999999</ele><time>2026-04-14T18:19:41.925Z</time></trkpt><trkpt lat="42.6390533" lon="-7.1407167"><ele>635.8</ele><time>2026-04-14T18:19:42.924Z</time></trkpt><trkpt lat="42.6390567" lon="-7.1405933"><ele>633.0</ele><time>2026-04-14T18:19:43.925Z</time></trkpt><trkpt lat="42.6390817" lon="-7.1404767"><ele>629.8</ele><time>2026-04-14T18:19:44.925Z</time></trkpt><trkpt lat="42.639115" lon="-7.140365"><ele>626.5999999999999</ele><time>2026-04-14T18:19:45.924Z</time></trkpt><trkpt lat="42.639155" lon="-7.1402483"><ele>623.4000000000001</ele><time>2026-04-14T18:19:46.924Z</time></trkpt><trkpt lat="42.6392033" lon="-7.14013"><ele>620.2</ele><time>2026-04-14T18:19:47.924Z</time></trkpt><trkpt lat="42.6392717" lon="-7.14007"><ele>617.0</ele><time>2026-04-14T18:19:48.924Z</time></trkpt><trkpt lat="42.6393433" lon="-7.1400017"><ele>617.0</ele><time>2026-04-14T18:19:49.925Z</time></trkpt><trkpt lat="42.639395" lon="-7.13989"><ele>617.0</ele><time>2026-04-14T18:19:50.924Z</time></trkpt><trkpt lat="42.6394467" lon="-7.1397817"><ele>617.0</ele><time>2026-04-14T18:19:51.924Z</time></trkpt><trkpt lat="42.639495" lon="-7.1396767"><ele>617.0</ele><time>2026-04-14T18:19:52.925Z</time></trkpt><trkpt lat="42.63955" lon="-7.1395867"><ele>617.0</ele><time>2026-04-14T18:19:53.924Z</time></trkpt><trkpt lat="42.63832" lon="-7.1432683"><ele>615.4</ele><time>2026-04-14T18:19:22.924Z</time></trkpt><trkpt lat="42.638385" lon="-7.1431767"><ele>613.8000000000001</ele><time>2026-04-14T18:19:23.924Z</time></trkpt><trkpt lat="42.6384333" lon="-7.143095"><ele>612.2</ele><time>2026-04-14T18:19:24.924Z</time></trkpt><trkpt lat="42.6384617" lon="-7.1429717"><ele>610.6</ele><time>2026-04-14T18:19:25.924Z</time></trkpt><trkpt lat="42.6384917" lon="-7.1428317"><ele>609.0</ele><time>2026-04-14T18:19:26.924Z</time></trkpt><trkpt lat="42.6385367" lon="-7.1427217"><ele>609.0</ele><time>2026-04-14T18:19:27.924Z</time></trkpt><trkpt lat="42.63858" lon="-7.1426033"><ele>609.0</ele><time>2026-04-14T18:19:28.925Z</time></trkpt><trkpt lat="42.6386183" lon="-7.14248"><ele>609.0</ele><time>2026-04-14T18:19:29.925Z</time></trkpt><trkpt lat="42.6386717" lon="-7.1423533"><ele>609.0</ele><time>2026-04-14T18:19:30.925Z</time></trkpt><trkpt lat="42.6387267" lon="-7.1422267"><ele>609.0</ele><time>2026-04-14T18:19:31.924Z</time></trkpt><trkpt lat="42.6387917" lon="-7.1421067"><ele>613.8</ele><time>2026-04-14T18:19:32.924Z</time></trkpt><trkpt lat="42.6388583" lon="-7.1419867"><ele>618.5999999999999</ele><time>2026-04-14T18:19:33.924Z</time></trkpt><trkpt lat="42.6389183" lon="-7.1418483"><ele>623.4</ele><time>2026-04-14T18:19:34.925Z</time></trkpt><trkpt lat="42.63894" lon="-7.14171"><ele>628.1999999999999</ele><time>2026-04-14T18:19:35.924Z</time></trkpt><trkpt lat="42.63897" lon="-7.1415833"><ele>633.0</ele><time>2026-04-14T18:19:36.924Z</time></trkpt><trkpt lat="42.6389833" lon="-7.1414533"><ele>633.0</ele><time>2026-04-14T18:19:37.925Z</time></trkpt><trkpt lat="42.6390083" lon="-7.141325"><ele>633.0</ele><time>2026-04-14T18:19:38.925Z</time></trkpt><trkpt lat="42.63902" lon="-7.14116"><ele>633.0</ele><time>2026-04-14T18:19:39.924Z</time></trkpt><trkpt lat="42.639035" lon="-7.1409967"><ele>633.0</ele><time>2026-04-14T18:19:40.924Z</time></trkpt><trkpt lat="42.63904" lon="-7.1408433"><ele>633.0</ele><time>2026-04-14T18:19:41.925Z</time></trkpt><trkpt lat="42.6390533" lon="-7.1407167"><ele>633.0</ele><time>2026-04-14T18:19:42.924Z</time></trkpt><trkpt lat="42.6390567" lon="-7.1405933"><ele>633.0</ele><time>2026-04-14T18:19:43.925Z</time></trkpt><trkpt lat="42.6390817" lon="-7.1404767"><ele>633.0</ele><time>2026-04-14T18:19:44.925Z</time></trkpt><trkpt lat="42.639115" lon="-7.140365"><ele>633.0</ele><time>2026-04-14T18:19:45.924Z</time></trkpt><trkpt lat="42.639155" lon="-7.1402483"><ele>629.8</ele><time>2026-04-14T18:19:46.924Z</time></trkpt><trkpt lat="42.6392033" lon="-7.14013"><ele>626.5999999999999</ele><time>2026-04-14T18:19:47.924Z</time></trkpt><trkpt lat="42.6392717" lon="-7.14007"><ele>623.4000000000001</ele><time>2026-04-14T18:19:48.924Z</time></trkpt><trkpt lat="42.6393433" lon="-7.1400017"><ele>620.2</ele><time>2026-04-14T18:19:49.925Z</time></trkpt><trkpt lat="42.639395" lon="-7.13989"><ele>617.0</ele><time>2026-04-14T18:19:50.924Z</time></trkpt><trkpt lat="42.6394467" lon="-7.1397817"><ele>616.6</ele><time>2026-04-14T18:19:51.924Z</time></trkpt><trkpt lat="42.639495" lon="-7.1396767"><ele>616.2</ele><time>2026-04-14T18:19:52.925Z</time></trkpt><trkpt lat="42.63955" lon="-7.1395867"><ele>615.8</ele><time>2026-04-14T18:19:53.924Z</time></trkpt><trkpt lat="42.6396217" lon="-7.1395117"><ele>615.4</ele><time>2026-04-14T18:19:54.925Z</time></trkpt><trkpt lat="42.6396983" lon="-7.1394117"><ele>615.0</ele><time>2026-04-14T18:19:55.924Z</time></trkpt><trkpt lat="42.639785" lon="-7.13931"><ele>615.0</ele><time>2026-04-14T18:19:56.925Z</time></trkpt><trkpt lat="42.63986" lon="-7.1392117"><ele>615.0</ele><time>2026-04-14T18:19:57.925Z</time></trkpt><trkpt lat="42.63992" lon="-7.13911"><ele>615.0</ele><time>2026-04-14T18:19:58.925Z</time></trkpt><trkpt lat="42.64001" lon="-7.1390567"><ele>615.0</ele><time>2026-04-14T18:19:59.925Z</time></trkpt><trkpt lat="42.6400933" lon="-7.1390067"><ele>615.0</ele><time>2026-04-14T18:20:00.924Z</time></trkpt><trkpt lat="42.6401817" lon="-7.1389817"><ele>611.8</ele><time>2026-04-14T18:20:01.924Z</time></trkpt><trkpt lat="42.6402883" lon="-7.1389833"><ele>608.6</ele><time>2026-04-14T18:20:02.924Z</time></trkpt><trkpt lat="42.640375" lon="-7.13894"><ele>605.4</ele><time>2026-04-14T18:20:03.924Z</time></trkpt><trkpt lat="42.640475" lon="-7.1389533"><ele>602.2</ele><time>2026-04-14T18:20:04.924Z</time></trkpt><trkpt lat="42.6405567" lon="-7.1389583"><ele>599.0</ele><time>2026-04-14T18:20:05.924Z</time></trkpt><trkpt lat="42.640635" lon="-7.1389117"><ele>599.0</ele><time>2026-04-14T18:20:06.924Z</time></trkpt><trkpt lat="42.6407067" lon="-7.1388633"><ele>599.0</ele><time>2026-04-14T18:20:07.925Z</time></trkpt><trkpt lat="42.640765" lon="-7.1388233"><ele>599.0</ele><time>2026-04-14T18:20:08.925Z</time></trkpt><trkpt lat="42.6408333" lon="-7.13879"><ele>599.0</ele><time>2026-04-14T18:20:09.924Z</time></trkpt><trkpt lat="42.640905" lon="-7.1387667"><ele>599.0</ele><time>2026-04-14T18:20:10.924Z</time></trkpt><trkpt lat="42.6409867" lon="-7.13876"><ele>599.0</ele><time>2026-04-14T18:20:11.925Z</time></trkpt><trkpt lat="42.6410733" lon="-7.1387617"><ele>598.4</ele><time>2026-04-14T18:20:12.925Z</time></trkpt><trkpt lat="42.641165" lon="-7.1387683"><ele>597.8</ele><time>2026-04-14T18:20:13.924Z</time></trkpt><trkpt lat="42.6412583" lon="-7.1387867"><ele>597.2</ele><time>2026-04-14T18:20:14.925Z</time></trkpt><trkpt lat="42.641345" lon="-7.138795"><ele>596.6</ele><time>2026-04-14T18:20:15.924Z</time></trkpt><trkpt lat="42.6414383" lon="-7.138815"><ele>596.0</ele><time>2026-04-14T18:20:16.924Z</time></trkpt><trkpt lat="42.641535" lon="-7.1388283"><ele>596.0</ele><time>2026-04-14T18:20:17.924Z</time></trkpt><trkpt lat="42.6416267" lon="-7.13886"><ele>596.0</ele><time>2026-04-14T18:20:18.924Z</time></trkpt><trkpt lat="42.6417133" lon="-7.1388483"><ele>596.0</ele><time>2026-04-14T18:20:19.925Z</time></trkpt><trkpt lat="42.6417783" lon="-7.1388233"><ele>596.0</ele><time>2026-04-14T18:20:20.925Z</time></trkpt><trkpt lat="42.64186" lon="-7.1388"><ele>596.0</ele><time>2026-04-14T18:20:21.924Z</time></trkpt><trkpt lat="42.64193" lon="-7.1387833"><ele>596.0</ele><time>2026-04-14T18:20:22.924Z</time></trkpt><trkpt lat="42.6420133" lon="-7.13874"><ele>601.3333333333333</ele><time>2026-04-14T18:20:23.925Z</time></trkpt><trkpt lat="42.6420817" lon="-7.1386633"><ele>606.6666666666666</ele><time>2026-04-14T18:20:24.925Z</time></trkpt><trkpt lat="42.6421467" lon="-7.1385833"><ele>612.0</ele><time>2026-04-14T18:20:25.924Z</time></trkpt><trkpt lat="42.6422183" lon="-7.13854"><ele>617.3333333333334</ele><time>2026-04-14T18:20:26.924Z</time></trkpt><trkpt lat="42.6422883" lon="-7.1384917"><ele>622.6666666666667</ele><time>2026-04-14T18:20:27.925Z</time></trkpt><trkpt lat="42.64236" lon="-7.13843"><ele>628.0</ele><time>2026-04-14T18:20:28.925Z</time></trkpt><trkpt lat="42.6424167" lon="-7.138355"><ele>628.0</ele><time>2026-04-14T18:20:29.924Z</time></trkpt><trkpt lat="42.642485" lon="-7.138275"><ele>628.0</ele><time>2026-04-14T18:20:30.924Z</time></trkpt><trkpt lat="42.6425367" lon="-7.1381167"><ele>628.0</ele><time>2026-04-14T18:20:31.925Z</time></trkpt><trkpt lat="42.6425783" lon="-7.137965"><ele>628.0</ele><time>2026-04-14T18:20:32.924Z</time></trkpt><trkpt lat="42.6426117" lon="-7.1378417"><ele>628.0</ele><time>2026-04-14T18:20:33.924Z</time></trkpt><trkpt lat="42.6426833" lon="-7.1377117"><ele>629.6</ele><time>2026-04-14T18:20:34.924Z</time></trkpt><trkpt lat="42.6427617" lon="-7.1375683"><ele>631.1999999999999</ele><time>2026-04-14T18:20:35.925Z</time></trkpt><trkpt lat="42.6428383" lon="-7.1374533"><ele>632.8</ele><time>2026-04-14T18:20:36.924Z</time></trkpt><trkpt lat="42.6429133" lon="-7.1373483"><ele>634.4</ele><time>2026-04-14T18:20:37.924Z</time></trkpt><trkpt lat="42.64297" lon="-7.137245"><ele>636.0</ele><time>2026-04-14T18:20:38.925Z</time></trkpt><trkpt lat="42.6430183" lon="-7.13715"><ele>630.3333333333334</ele><time>2026-04-14T18:20:39.925Z</time></trkpt><trkpt lat="42.6430583" lon="-7.1370717"><ele>624.6666666666667</ele><time>2026-04-14T18:20:40.924Z</time></trkpt><trkpt lat="42.6431117" lon="-7.136925"><ele>619.0</ele><time>2026-04-14T18:20:42.924Z</time></trkpt><trkpt lat="42.6429567" lon="-7.1366017"><ele>613.6</ele><time>2026-04-14T18:20:43.924Z</time></trkpt><trkpt lat="42.642885" lon="-7.1364333"><ele>608.2</ele><time>2026-04-14T18:20:44.924Z</time></trkpt><trkpt lat="42.64285" lon="-7.1363233"><ele>602.8000000000001</ele><time>2026-04-14T18:20:45.924Z</time></trkpt><trkpt lat="42.6428033" lon="-7.136255"><ele>597.4</ele><time>2026-04-14T18:20:48.925Z</time></trkpt><trkpt lat="42.6427567" lon="-7.1361717"><ele>592.0</ele><time>2026-04-14T18:20:57.924Z</time></trkpt><trkpt lat="42.6427267" lon="-7.1360817"><ele>591.1666666666667</ele><time>2026-04-14T18:20:59.924Z</time></trkpt><trkpt lat="42.6427367" lon="-7.1359667"><ele>590.3333333333334</ele><time>2026-04-14T18:21:01.925Z</time></trkpt><trkpt lat="42.6427783" lon="-7.135885"><ele>589.5</ele><time>2026-04-14T18:21:03.925Z</time></trkpt><trkpt lat="42.64273" lon="-7.1358083"><ele>588.6666666666666</ele><time>2026-04-14T18:21:06.924Z</time></trkpt><trkpt lat="42.6427233" lon="-7.1356867"><ele>587.8333333333333</ele><time>2026-04-14T18:21:10.924Z</time></trkpt><trkpt lat="42.6427417" lon="-7.1355533"><ele>587.0</ele><time>2026-04-14T18:21:13.924Z</time></trkpt><trkpt lat="42.6427433" lon="-7.1354383"><ele>588.6666666666666</ele><time>2026-04-14T18:21:15.925Z</time></trkpt><trkpt lat="42.6427417" lon="-7.1353417"><ele>590.3333333333333</ele><time>2026-04-14T18:21:17.924Z</time></trkpt><trkpt lat="42.64272" lon="-7.1352417"><ele>592.0</ele><time>2026-04-14T18:21:20.925Z</time></trkpt><trkpt lat="42.6426667" lon="-7.1353067"><ele>593.6666666666666</ele><time>2026-04-14T18:21:34.924Z</time></trkpt><trkpt lat="42.6426033" lon="-7.13537"><ele>595.3333333333334</ele><time>2026-04-14T18:21:36.925Z</time></trkpt><trkpt lat="42.642545" lon="-7.1354917"><ele>597.0</ele><time>2026-04-14T18:21:38.925Z</time></trkpt><trkpt lat="42.6425133" lon="-7.13566"><ele>595.0</ele><time>2026-04-14T18:21:40.924Z</time></trkpt><trkpt lat="42.6424883" lon="-7.1358333"><ele>593.0</ele><time>2026-04-14T18:21:42.925Z</time></trkpt><trkpt lat="42.6424783" lon="-7.1359233"><ele>591.0</ele><time>2026-04-14T18:21:43.924Z</time></trkpt><trkpt lat="42.6424917" lon="-7.1360833"><ele>589.0</ele><time>2026-04-14T18:21:45.925Z</time></trkpt><trkpt lat="42.6425033" lon="-7.13618"><ele>587.0</ele><time>2026-04-14T18:21:46.925Z</time></trkpt><trkpt lat="42.64251" lon="-7.1362817"><ele>587.0</ele><time>2026-04-14T18:21:47.925Z</time></trkpt><trkpt lat="42.6425117" lon="-7.1363867"><ele>587.0</ele><time>2026-04-14T18:21:48.925Z</time></trkpt><trkpt lat="42.642495" lon="-7.136495"><ele>587.0</ele><time>2026-04-14T18:21:49.924Z</time></trkpt><trkpt lat="42.6424733" lon="-7.1366167"><ele>587.0</ele><time>2026-04-14T18:21:50.924Z</time></trkpt><trkpt lat="42.6424417" lon="-7.1367417"><ele>587.0</ele><time>2026-04-14T18:21:51.924Z</time></trkpt><trkpt lat="42.6423933" lon="-7.136885"><ele>588.0</ele><time>2026-04-14T18:21:52.924Z</time></trkpt><trkpt lat="42.64237" lon="-7.13705"><ele>589.0</ele><time>2026-04-14T18:21:53.924Z</time></trkpt><trkpt lat="42.64236" lon="-7.13724"><ele>590.0</ele><time>2026-04-14T18:21:54.924Z</time></trkpt><trkpt lat="42.6423367" lon="-7.137395"><ele>591.0</ele><time>2026-04-14T18:21:55.924Z</time></trkpt><trkpt lat="42.6422667" lon="-7.1375883"><ele>594.0</ele><time>2026-04-14T18:21:56.924Z</time></trkpt><trkpt lat="42.642215" lon="-7.1377667"><ele>597.0</ele><time>2026-04-14T18:21:57.924Z</time></trkpt><trkpt lat="42.64217" lon="-7.1379183"><ele>600.0</ele><time>2026-04-14T18:21:58.925Z</time></trkpt><trkpt lat="42.6421333" lon="-7.138045"><ele>603.0</ele><time>2026-04-14T18:21:59.925Z</time></trkpt><trkpt lat="42.6420833" lon="-7.1381833"><ele>601.6</ele><time>2026-04-14T18:22:00.925Z</time></trkpt><trkpt lat="42.6420333" lon="-7.1383167"><ele>600.1999999999999</ele><time>2026-04-14T18:22:01.925Z</time></trkpt><trkpt lat="42.641955" lon="-7.138415"><ele>598.8</ele><time>2026-04-14T18:22:02.925Z</time></trkpt><trkpt lat="42.6419117" lon="-7.1385133"><ele>597.4</ele><time>2026-04-14T18:22:03.924Z</time></trkpt><trkpt lat="42.6418617" lon="-7.1386183"><ele>596.0</ele><time>2026-04-14T18:22:04.924Z</time></trkpt><trkpt lat="42.641805" lon="-7.1387083"><ele>596.0</ele><time>2026-04-14T18:22:05.924Z</time></trkpt><trkpt lat="42.6417533" lon="-7.138795"><ele>596.0</ele><time>2026-04-14T18:22:06.924Z</time></trkpt><trkpt lat="42.641705" lon="-7.1388683"><ele>596.0</ele><time>2026-04-14T18:22:07.924Z</time></trkpt><trkpt lat="42.6416567" lon="-7.1389267"><ele>596.0</ele><time>2026-04-14T18:22:08.925Z</time></trkpt><trkpt lat="42.641595" lon="-7.1389833"><ele>596.0</ele><time>2026-04-14T18:22:09.925Z</time></trkpt><trkpt lat="42.6414933" lon="-7.1390267"><ele>596.0</ele><time>2026-04-14T18:22:10.924Z</time></trkpt><trkpt lat="42.641395" lon="-7.13907"><ele>603.6</ele><time>2026-04-14T18:22:11.925Z</time></trkpt><trkpt lat="42.6412817" lon="-7.13912"><ele>611.2</ele><time>2026-04-14T18:22:12.924Z</time></trkpt><trkpt lat="42.6411567" lon="-7.13918"><ele>618.8</ele><time>2026-04-14T18:22:13.925Z</time></trkpt><trkpt lat="42.6410867" lon="-7.1392383"><ele>626.4</ele><time>2026-04-14T18:22:14.925Z</time></trkpt><trkpt lat="42.6410017" lon="-7.1392867"><ele>634.0</ele><time>2026-04-14T18:22:15.925Z</time></trkpt><trkpt lat="42.64092" lon="-7.1393283"><ele>634.0</ele><time>2026-04-14T18:22:16.924Z</time></trkpt><trkpt lat="42.64076" lon="-7.1393233"><ele>634.0</ele><time>2026-04-14T18:22:18.924Z</time></trkpt><trkpt lat="42.64067" lon="-7.139365"><ele>634.0</ele><time>2026-04-14T18:22:19.925Z</time></trkpt><trkpt lat="42.640575" lon="-7.139405"><ele>634.0</ele><time>2026-04-14T18:22:20.924Z</time></trkpt><trkpt lat="42.6404967" lon="-7.1394683"><ele>634.0</ele><time>2026-04-14T18:22:21.925Z</time></trkpt><trkpt lat="42.640405" lon="-7.1395117"><ele>634.0</ele><time>2026-04-14T18:22:22.925Z</time></trkpt><trkpt lat="42.6403183" lon="-7.1395717"><ele>634.0</ele><time>2026-04-14T18:22:23.925Z</time></trkpt><trkpt lat="42.64023" lon="-7.1396333"><ele>634.0</ele><time>2026-04-14T18:22:24.924Z</time></trkpt><trkpt lat="42.6401333" lon="-7.1396917"><ele>634.0</ele><time>2026-04-14T18:22:25.925Z</time></trkpt><trkpt lat="42.6400333" lon="-7.1397517"><ele>634.0</ele><time>2026-04-14T18:22:26.925Z</time></trkpt><trkpt lat="42.6399367" lon="-7.1398183"><ele>636.3333333333334</ele><time>2026-04-14T18:22:27.925Z</time></trkpt><trkpt lat="42.6398583" lon="-7.1398917"><ele>638.6666666666667</ele><time>2026-04-14T18:22:28.924Z</time></trkpt><trkpt lat="42.6397783" lon="-7.1399517"><ele>641.0</ele><time>2026-04-14T18:22:29.924Z</time></trkpt><trkpt lat="42.63969" lon="-7.139965"><ele>643.3333333333334</ele><time>2026-04-14T18:22:30.924Z</time></trkpt><trkpt lat="42.639595" lon="-7.1399717"><ele>645.6666666666666</ele><time>2026-04-14T18:22:31.924Z</time></trkpt><trkpt lat="42.63952" lon="-7.139985"><ele>648.0</ele><time>2026-04-14T18:22:32.925Z</time></trkpt><trkpt lat="42.6394483" lon="-7.1400467"><ele>641.8</ele><time>2026-04-14T18:22:33.925Z</time></trkpt><trkpt lat="42.6393733" lon="-7.1401383"><ele>635.5999999999999</ele><time>2026-04-14T18:22:34.925Z</time></trkpt><trkpt lat="42.6393" lon="-7.14025"><ele>629.4000000000001</ele><time>2026-04-14T18:22:35.925Z</time></trkpt><trkpt lat="42.6392133" lon="-7.14032"><ele>623.2</ele><time>2026-04-14T18:22:36.925Z</time></trkpt><trkpt lat="42.6391433" lon="-7.1404067"><ele>617.0</ele><time>2026-04-14T18:22:37.925Z</time></trkpt><trkpt lat="42.639085" lon="-7.1405017"><ele>617.0</ele><time>2026-04-14T18:22:38.924Z</time></trkpt><trkpt lat="42.6390283" lon="-7.1406133"><ele>617.0</ele><time>2026-04-14T18:22:39.925Z</time></trkpt><trkpt lat="42.6389783" lon="-7.1407333"><ele>617.0</ele><time>2026-04-14T18:22:40.924Z</time></trkpt><trkpt lat="42.6389317" lon="-7.1408067"><ele>617.0</ele><time>2026-04-14T18:22:41.924Z</time></trkpt><trkpt lat="42.6389017" lon="-7.14091"><ele>617.0</ele><time>2026-04-14T18:22:42.925Z</time></trkpt><trkpt lat="42.6388933" lon="-7.1410233"><ele>617.0</ele><time>2026-04-14T18:22:43.925Z</time></trkpt><trkpt lat="42.6388867" lon="-7.1411433"><ele>620.2</ele><time>2026-04-14T18:22:44.924Z</time></trkpt><trkpt lat="42.6388517" lon="-7.1412533"><ele>623.4000000000001</ele><time>2026-04-14T18:22:45.924Z</time></trkpt><trkpt lat="42.6388167" lon="-7.141355"><ele>626.5999999999999</ele><time>2026-04-14T18:22:46.925Z</time></trkpt><trkpt lat="42.6387867" lon="-7.1414767"><ele>629.8</ele><time>2026-04-14T18:22:47.924Z</time></trkpt><trkpt lat="42.6387683" lon="-7.14163"><ele>633.0</ele><time>2026-04-14T18:22:48.924Z</time></trkpt><trkpt lat="42.63875" lon="-7.1417933"><ele>636.5</ele><time>2026-04-14T18:22:49.924Z</time></trkpt><trkpt lat="42.6387283" lon="-7.1419567"><ele>640.0</ele><time>2026-04-14T18:22:50.924Z</time></trkpt><trkpt lat="42.6387067" lon="-7.1421217"><ele>643.5</ele><time>2026-04-14T18:22:51.924Z</time></trkpt><trkpt lat="42.6386767" lon="-7.1422683"><ele>647.0</ele><time>2026-04-14T18:22:52.924Z</time></trkpt><trkpt lat="42.6386467" lon="-7.1424033"><ele>637.5</ele><time>2026-04-14T18:22:53.924Z</time></trkpt><trkpt lat="42.638615" lon="-7.1425567"><ele>628.0</ele><time>2026-04-14T18:22:54.924Z</time></trkpt><trkpt lat="42.6385883" lon="-7.1427083"><ele>618.5</ele><time>2026-04-14T18:22:55.924Z</time></trkpt><trkpt lat="42.6385517" lon="-7.1428617"><ele>609.0</ele><time>2026-04-14T18:22:56.925Z</time></trkpt><trkpt lat="42.63853" lon="-7.1430083"><ele>609.0</ele><time>2026-04-14T18:22:57.924Z</time></trkpt><trkpt lat="42.6385017" lon="-7.1431633"><ele>609.0</ele><time>2026-04-14T18:22:58.924Z</time></trkpt><trkpt lat="42.6384733" lon="-7.14331"><ele>609.0</ele><time>2026-04-14T18:22:59.924Z</time></trkpt><trkpt lat="42.6384267" lon="-7.1434567"><ele>609.0</ele><time>2026-04-14T18:23:00.924Z</time></trkpt><trkpt lat="42.63839" lon="-7.1435767"><ele>609.0</ele><time>2026-04-14T18:23:01.925Z</time></trkpt><trkpt lat="42.6383417" lon="-7.1437217"><ele>611.8333333333334</ele><time>2026-04-14T18:23:02.924Z</time></trkpt><trkpt lat="42.6382833" lon="-7.1438317"><ele>614.6666666666666</ele><time>2026-04-14T18:23:03.924Z</time></trkpt><trkpt lat="42.6382167" lon="-7.1439283"><ele>617.5</ele><time>2026-04-14T18:23:04.924Z</time></trkpt><trkpt lat="42.6381633" lon="-7.1440083"><ele>620.3333333333333</ele><time>2026-04-14T18:23:05.925Z</time></trkpt><trkpt lat="42.6381133" lon="-7.144085"><ele>623.1666666666666</ele><time>2026-04-14T18:23:06.925Z</time></trkpt><trkpt lat="42.6380683" lon="-7.1441583"><ele>626.0</ele><time>2026-04-14T18:23:07.925Z</time></trkpt><trkpt lat="42.6380217" lon="-7.1443167"><ele>627.4285714285714</ele><time>2026-04-14T18:23:09.924Z</time></trkpt><trkpt lat="42.6380183" lon="-7.1444083"><ele>628.8571428571429</ele><time>2026-04-14T18:23:10.924Z</time></trkpt><trkpt lat="42.637985" lon="-7.1444917"><ele>630.2857142857142</ele><time>2026-04-14T18:23:11.924Z</time></trkpt><trkpt lat="42.6379517" lon="-7.144585"><ele>631.7142857142858</ele><time>2026-04-14T18:23:12.924Z</time></trkpt><trkpt lat="42.6379" lon="-7.1446683"><ele>633.1428571428572</ele><time>2026-04-14T18:23:13.925Z</time></trkpt><trkpt lat="42.637885" lon="-7.144755"><ele>634.5714285714286</ele><time>2026-04-14T18:23:14.925Z</time></trkpt><trkpt lat="42.6378733" lon="-7.144845"><ele>636.0</ele><time>2026-04-14T18:23:15.924Z</time></trkpt><trkpt lat="42.637855" lon="-7.144955"><ele>636.8</ele><time>2026-04-14T18:23:16.925Z</time></trkpt><trkpt lat="42.6378333" lon="-7.1450717"><ele>637.6</ele><time>2026-04-14T18:23:17.925Z</time></trkpt><trkpt lat="42.6377933" lon="-7.1452067"><ele>638.4</ele><time>2026-04-14T18:23:18.925Z</time></trkpt><trkpt lat="42.637765" lon="-7.1453383"><ele>639.2</ele><time>2026-04-14T18:23:19.925Z</time></trkpt><trkpt lat="42.63774" lon="-7.1454667"><ele>640.0</ele><time>2026-04-14T18:23:20.924Z</time></trkpt><trkpt lat="42.6376967" lon="-7.1455567"><ele>633.5</ele><time>2026-04-14T18:23:21.924Z</time></trkpt><trkpt lat="42.6376317" lon="-7.1456483"><ele>627.0</ele><time>2026-04-14T18:23:22.925Z</time></trkpt><trkpt lat="42.637585" lon="-7.1457433"><ele>620.5</ele><time>2026-04-14T18:23:23.925Z</time></trkpt><trkpt lat="42.6375617" lon="-7.14586"><ele>614.0</ele><time>2026-04-14T18:23:24.925Z</time></trkpt><trkpt lat="42.6375417" lon="-7.1459717"><ele>607.5</ele><time>2026-04-14T18:23:25.924Z</time></trkpt><trkpt lat="42.6375317" lon="-7.1460767"><ele>601.0</ele><time>2026-04-14T18:23:26.925Z</time></trkpt><trkpt lat="42.6375317" lon="-7.1461783"><ele>599.5</ele><time>2026-04-14T18:23:27.925Z</time></trkpt><trkpt lat="42.6375433" lon="-7.1462833"><ele>598.0</ele><time>2026-04-14T18:23:28.924Z</time></trkpt><trkpt lat="42.6375517" lon="-7.1463867"><ele>596.5</ele><time>2026-04-14T18:23:29.924Z</time></trkpt><trkpt lat="42.637595" lon="-7.1465017"><ele>595.0</ele><time>2026-04-14T18:23:30.925Z</time></trkpt><trkpt lat="42.637615" lon="-7.1466167"><ele>593.5</ele><time>2026-04-14T18:23:31.925Z</time></trkpt><trkpt lat="42.6376467" lon="-7.14674"><ele>592.0</ele><time>2026-04-14T18:23:32.924Z</time></trkpt><trkpt lat="42.6376633" lon="-7.1468567"><ele>590.6</ele><time>2026-04-14T18:23:33.924Z</time></trkpt><trkpt lat="42.637685" lon="-7.1469833"><ele>589.2</ele><time>2026-04-14T18:23:34.924Z</time></trkpt><trkpt lat="42.6377117" lon="-7.1471383"><ele>587.8</ele><time>2026-04-14T18:23:35.925Z</time></trkpt><trkpt lat="42.6377367" lon="-7.14728"><ele>586.4</ele><time>2026-04-14T18:23:36.924Z</time></trkpt><trkpt lat="42.6377767" lon="-7.14741"><ele>585.0</ele><time>2026-04-14T18:23:37.924Z</time></trkpt><trkpt lat="42.6378483" lon="-7.1475583"><ele>599.3333333333334</ele><time>2026-04-14T18:23:38.925Z</time></trkpt><trkpt lat="42.6379533" lon="-7.1477567"><ele>613.6666666666667</ele><time>2026-04-14T18:23:39.924Z</time></trkpt><trkpt lat="42.6380483" lon="-7.1479333"><ele>628.0</ele><time>2026-04-14T18:23:40.924Z</time></trkpt><trkpt lat="42.6381333" lon="-7.148115"><ele>627.5</ele><time>2026-04-14T18:23:41.924Z</time></trkpt><trkpt lat="42.6382233" lon="-7.14831"><ele>627.0</ele><time>2026-04-14T18:23:42.925Z</time></trkpt><trkpt lat="42.6382867" lon="-7.1484633"><ele>626.5</ele><time>2026-04-14T18:23:43.924Z</time></trkpt><trkpt lat="42.63833" lon="-7.148645"><ele>626.0</ele><time>2026-04-14T18:23:44.924Z</time></trkpt><trkpt lat="42.638365" lon="-7.1488133"><ele>626.0</ele><time>2026-04-14T18:23:45.925Z</time></trkpt><trkpt lat="42.6384117" lon="-7.1489833"><ele>626.0</ele><time>2026-04-14T18:23:46.925Z</time></trkpt><trkpt lat="42.6384467" lon="-7.1491267"><ele>626.0</ele><time>2026-04-14T18:23:47.924Z</time></trkpt><trkpt lat="42.6384867" lon="-7.1492817"><ele>626.0</ele><time>2026-04-14T18:23:48.925Z</time></trkpt><trkpt lat="42.6384783" lon="-7.1494067"><ele>627.0</ele><time>2026-04-14T18:23:49.925Z</time></trkpt><trkpt lat="42.638475" lon="-7.1495233"><ele>628.0</ele><time>2026-04-14T18:23:50.925Z</time></trkpt><trkpt lat="42.638475" lon="-7.1496533"><ele>629.0</ele><time>2026-04-14T18:23:51.924Z</time></trkpt><trkpt lat="42.6384567" lon="-7.1497633"><ele>630.0</ele><time>2026-04-14T18:23:52.924Z</time></trkpt><trkpt lat="42.6384533" lon="-7.1498717"><ele>631.0</ele><time>2026-04-14T18:23:53.925Z</time></trkpt><trkpt lat="42.6384633" lon="-7.1499817"><ele>632.0</ele><time>2026-04-14T18:23:54.925Z</time></trkpt><trkpt lat="42.6384617" lon="-7.150095"><ele>632.0</ele><time>2026-04-14T18:23:55.925Z</time></trkpt><trkpt lat="42.6384633" lon="-7.1502033"><ele>632.0</ele><time>2026-04-14T18:23:56.924Z</time></trkpt><trkpt lat="42.6384717" lon="-7.1503133"><ele>632.0</ele><time>2026-04-14T18:23:57.924Z</time></trkpt><trkpt lat="42.6375417" lon="-7.1459717"><ele>625.3333333333333</ele><time>2026-04-14T18:23:25.924Z</time></trkpt><trkpt lat="42.6375317" lon="-7.1460767"><ele>618.6666666666666</ele><time>2026-04-14T18:23:26.925Z</time></trkpt><trkpt lat="42.6375317" lon="-7.1461783"><ele>612.0</ele><time>2026-04-14T18:23:27.925Z</time></trkpt><trkpt lat="42.6375433" lon="-7.1462833"><ele>605.3333333333334</ele><time>2026-04-14T18:23:28.924Z</time></trkpt><trkpt lat="42.6375517" lon="-7.1463867"><ele>598.6666666666667</ele><time>2026-04-14T18:23:29.924Z</time></trkpt><trkpt lat="42.637595" lon="-7.1465017"><ele>592.0</ele><time>2026-04-14T18:23:30.925Z</time></trkpt><trkpt lat="42.637615" lon="-7.1466167"><ele>590.6</ele><time>2026-04-14T18:23:31.925Z</time></trkpt><trkpt lat="42.6376467" lon="-7.14674"><ele>589.2</ele><time>2026-04-14T18:23:32.924Z</time></trkpt><trkpt lat="42.6376633" lon="-7.1468567"><ele>587.8</ele><time>2026-04-14T18:23:33.924Z</time></trkpt><trkpt lat="42.637685" lon="-7.1469833"><ele>586.4</ele><time>2026-04-14T18:23:34.924Z</time></trkpt><trkpt lat="42.6377117" lon="-7.1471383"><ele>585.0</ele><time>2026-04-14T18:23:35.925Z</time></trkpt><trkpt lat="42.6377367" lon="-7.14728"><ele>584.5</ele><time>2026-04-14T18:23:36.924Z</time></trkpt><trkpt lat="42.6377767" lon="-7.14741"><ele>584.0</ele><time>2026-04-14T18:23:37.924Z</time></trkpt><trkpt lat="42.6378483" lon="-7.1475583"><ele>583.5</ele><time>2026-04-14T18:23:38.925Z</time></trkpt><trkpt lat="42.6379533" lon="-7.1477567"><ele>583.0</ele><time>2026-04-14T18:23:39.924Z</time></trkpt><trkpt lat="42.6380483" lon="-7.1479333"><ele>597.3333333333334</ele><time>2026-04-14T18:23:40.924Z</time></trkpt><trkpt lat="42.6381333" lon="-7.148115"><ele>611.6666666666666</ele><time>2026-04-14T18:23:41.924Z</time></trkpt><trkpt lat="42.6382233" lon="-7.14831"><ele>626.0</ele><time>2026-04-14T18:23:42.925Z</time></trkpt><trkpt lat="42.6382867" lon="-7.1484633"><ele>626.0</ele><time>2026-04-14T18:23:43.924Z</time></trkpt><trkpt lat="42.63833" lon="-7.148645"><ele>626.0</ele><time>2026-04-14T18:23:44.924Z</time></trkpt><trkpt lat="42.638365" lon="-7.1488133"><ele>626.0</ele><time>2026-04-14T18:23:45.925Z</time></trkpt><trkpt lat="42.6384117" lon="-7.1489833"><ele>626.0</ele><time>2026-04-14T18:23:46.925Z</time></trkpt><trkpt lat="42.6384467" lon="-7.1491267"><ele>628.2</ele><time>2026-04-14T18:23:47.924Z</time></trkpt><trkpt lat="42.6384867" lon="-7.1492817"><ele>630.4000000000001</ele><time>2026-04-14T18:23:48.925Z</time></trkpt><trkpt lat="42.6384783" lon="-7.1494067"><ele>632.6</ele><time>2026-04-14T18:23:49.925Z</time></trkpt><trkpt lat="42.638475" lon="-7.1495233"><ele>634.8000000000001</ele><time>2026-04-14T18:23:50.925Z</time></trkpt><trkpt lat="42.638475" lon="-7.1496533"><ele>637.0</ele><time>2026-04-14T18:23:51.924Z</time></trkpt><trkpt lat="42.6384567" lon="-7.1497633"><ele>637.0</ele><time>2026-04-14T18:23:52.924Z</time></trkpt><trkpt lat="42.6384533" lon="-7.1498717"><ele>637.0</ele><time>2026-04-14T18:23:53.925Z</time></trkpt><trkpt lat="42.6384633" lon="-7.1499817"><ele>637.0</ele><time>2026-04-14T18:23:54.925Z</time></trkpt><trkpt lat="42.6384617" lon="-7.150095"><ele>637.0</ele><time>2026-04-14T18:23:55.925Z</time></trkpt><trkpt lat="42.6384633" lon="-7.1502033"><ele>637.0</ele><time>2026-04-14T18:23:56.924Z</time></trkpt><trkpt lat="42.6384717" lon="-7.1503133"><ele>637.0</ele><time>2026-04-14T18:23:57.924Z</time></trkpt><trkpt lat="42.6384667" lon="-7.1504017"><ele>636.0</ele><time>2026-04-14T18:23:58.925Z</time></trkpt><trkpt lat="42.6384783" lon="-7.15051"><ele>635.0</ele><time>2026-04-14T18:23:59.924Z</time></trkpt><trkpt lat="42.6385917" lon="-7.1505517"><ele>634.0</ele><time>2026-04-14T18:24:01.924Z</time></trkpt><trkpt lat="42.63867" lon="-7.1506417"><ele>633.0</ele><time>2026-04-14T18:24:03.925Z</time></trkpt><trkpt lat="42.6387517" lon="-7.1506017"><ele>632.0</ele><time>2026-04-14T18:24:05.924Z</time></trkpt><trkpt lat="42.6388133" lon="-7.15054"><ele>636.1666666666666</ele><time>2026-04-14T18:24:07.925Z</time></trkpt><trkpt lat="42.6388683" lon="-7.15042"><ele>640.3333333333333</ele><time>2026-04-14T18:24:08.925Z</time></trkpt><trkpt lat="42.638905" lon="-7.1503067"><ele>644.5</ele><time>2026-04-14T18:24:10.925Z</time></trkpt><trkpt lat="42.6389267" lon="-7.15022"><ele>648.6666666666666</ele><time>2026-04-14T18:24:12.925Z</time></trkpt><trkpt lat="42.6389817" lon="-7.150175"><ele>652.8333333333334</ele><time>2026-04-14T18:24:14.924Z</time></trkpt><trkpt lat="42.63905" lon="-7.1501667"><ele>657.0</ele><time>2026-04-14T18:24:19.925Z</time></trkpt><trkpt lat="42.6391317" lon="-7.1501483"><ele>657.0</ele><time>2026-04-14T18:24:54.924Z</time></trkpt><trkpt lat="42.6392417" lon="-7.1501317"><ele>657.0</ele><time>2026-04-14T18:25:08.924Z</time></trkpt><trkpt lat="42.6391933" lon="-7.1500733"><ele>657.0</ele><time>2026-04-14T18:25:57.924Z</time></trkpt><trkpt lat="42.6391467" lon="-7.15017"><ele>657.0</ele><time>2026-04-14T18:25:59.924Z</time></trkpt><trkpt lat="42.6392417" lon="-7.1501317"><ele>657.0</ele><time>2026-04-14T18:25:08.924Z</time></trkpt><trkpt lat="42.6391933" lon="-7.1500733"><ele>657.0</ele><time>2026-04-14T18:25:57.924Z</time></trkpt><trkpt lat="42.6391467" lon="-7.15017"><ele>657.0</ele><time>2026-04-14T18:25:59.924Z</time></trkpt><trkpt lat="42.63909" lon="-7.1502133"><ele>657.0</ele><time>2026-04-14T18:26:02.925Z</time></trkpt><trkpt lat="42.6391367" lon="-7.1501233"><ele>657.0</ele><time>2026-04-14T18:26:21.925Z</time></trkpt><trkpt lat="42.6392217" lon="-7.150125"><ele>657.0</ele><time>2026-04-14T18:26:54.925Z</time></trkpt><trkpt lat="42.6392283" lon="-7.150215"><ele>657.0</ele><time>2026-04-14T18:27:20.925Z</time></trkpt><trkpt lat="42.639245" lon="-7.1503567"><ele>657.0</ele><time>2026-04-14T18:27:23.926Z</time></trkpt><trkpt lat="42.639195" lon="-7.1504383"><ele>657.0</ele><time>2026-04-14T18:27:26.926Z</time></trkpt><trkpt lat="42.6391283" lon="-7.1504717"><ele>657.0</ele><time>2026-04-14T18:27:32.925Z</time></trkpt><trkpt lat="42.639055" lon="-7.1503883"><ele>657.0</ele><time>2026-04-14T18:27:40.926Z</time></trkpt><trkpt lat="42.6392283" lon="-7.150215"><ele>657.0</ele><time>2026-04-14T18:27:20.925Z</time></trkpt><trkpt lat="42.639245" lon="-7.1503567"><ele>657.0</ele><time>2026-04-14T18:27:23.926Z</time></trkpt><trkpt lat="42.639195" lon="-7.1504383"><ele>657.0</ele><time>2026-04-14T18:27:26.926Z</time></trkpt><trkpt lat="42.6391283" lon="-7.1504717"><ele>657.0</ele><time>2026-04-14T18:27:32.925Z</time></trkpt><trkpt lat="42.639055" lon="-7.1503883"><ele>657.0</ele><time>2026-04-14T18:27:40.926Z</time></trkpt><trkpt lat="42.6391117" lon="-7.150265"><ele>657.0</ele><time>2026-04-14T18:28:05.926Z</time></trkpt><trkpt lat="42.63923" lon="-7.1501967"><ele>657.0</ele><time>2026-04-14T18:28:26.925Z</time></trkpt><trkpt lat="42.6393767" lon="-7.1501367"><ele>657.0</ele><time>2026-04-14T18:28:29.926Z</time></trkpt><trkpt lat="42.639445" lon="-7.1502267"><ele>657.0</ele><time>2026-04-14T18:28:32.925Z</time></trkpt><trkpt lat="42.6394933" lon="-7.1502817"><ele>657.0</ele><time>2026-04-14T18:28:33.925Z</time></trkpt><trkpt lat="42.639545" lon="-7.1503467"><ele>657.0</ele><time>2026-04-14T18:28:34.926Z</time></trkpt><trkpt lat="42.6395867" lon="-7.15044"><ele>656.4000000000001</ele><time>2026-04-14T18:28:35.926Z</time></trkpt><trkpt lat="42.6396333" lon="-7.1505583"><ele>655.8000000000001</ele><time>2026-04-14T18:28:36.926Z</time></trkpt><trkpt lat="42.639685" lon="-7.15064"><ele>655.2</ele><time>2026-04-14T18:28:37.926Z</time></trkpt><trkpt lat="42.6397433" lon="-7.150715"><ele>654.6</ele><time>2026-04-14T18:28:38.926Z</time></trkpt><trkpt lat="42.6397883" lon="-7.1507917"><ele>654.0</ele><time>2026-04-14T18:28:39.926Z</time></trkpt><trkpt lat="42.63987" lon="-7.15093"><ele>654.0</ele><time>2026-04-14T18:28:41.925Z</time></trkpt><trkpt lat="42.6399117" lon="-7.1509967"><ele>654.0</ele><time>2026-04-14T18:28:42.926Z</time></trkpt><trkpt lat="42.6399433" lon="-7.1510767"><ele>654.0</ele><time>2026-04-14T18:28:44.925Z</time></trkpt><trkpt lat="42.6399567" lon="-7.15118"><ele>654.0</ele><time>2026-04-14T18:28:48.925Z</time></trkpt><trkpt lat="42.6399067" lon="-7.1512417"><ele>654.0</ele><time>2026-04-14T18:28:51.926Z</time></trkpt><trkpt lat="42.6398133" lon="-7.1512233"><ele>654.0</ele><time>2026-04-14T18:28:55.925Z</time></trkpt><trkpt lat="42.6396033" lon="-7.15126"><ele>654.0</ele><time>2026-04-14T18:28:58.925Z</time></trkpt><trkpt lat="42.6395" lon="-7.1512667"><ele>654.0</ele><time>2026-04-14T18:29:00.926Z</time></trkpt><trkpt lat="42.639685" lon="-7.15064"><ele>654.0</ele><time>2026-04-14T18:28:37.926Z</time></trkpt><trkpt lat="42.6397433" lon="-7.150715"><ele>654.0</ele><time>2026-04-14T18:28:38.926Z</time></trkpt><trkpt lat="42.6397883" lon="-7.1507917"><ele>654.0</ele><time>2026-04-14T18:28:39.926Z</time></trkpt><trkpt lat="42.63987" lon="-7.15093"><ele>654.0</ele><time>2026-04-14T18:28:41.925Z</time></trkpt><trkpt lat="42.6399117" lon="-7.1509967"><ele>654.0</ele><time>2026-04-14T18:28:42.926Z</time></trkpt><trkpt lat="42.6399433" lon="-7.1510767"><ele>654.0</ele><time>2026-04-14T18:28:44.925Z</time></trkpt><trkpt lat="42.6399567" lon="-7.15118"><ele>654.0</ele><time>2026-04-14T18:28:48.925Z</time></trkpt><trkpt lat="42.6399067" lon="-7.1512417"><ele>654.0</ele><time>2026-04-14T18:28:51.926Z</time></trkpt><trkpt lat="42.6398133" lon="-7.1512233"><ele>654.0</ele><time>2026-04-14T18:28:55.925Z</time></trkpt><trkpt lat="42.6396033" lon="-7.15126"><ele>654.0</ele><time>2026-04-14T18:28:58.925Z</time></trkpt><trkpt lat="42.6395" lon="-7.1512667"><ele>654.0</ele><time>2026-04-14T18:29:00.926Z</time></trkpt><trkpt lat="42.6395717" lon="-7.1512717"><ele>654.0</ele><time>2026-04-14T18:29:16.925Z</time></trkpt><trkpt lat="42.6396533" lon="-7.151235"><ele>654.0</ele><time>2026-04-14T18:29:17.925Z</time></trkpt><trkpt lat="42.6397217" lon="-7.1512133"><ele>654.0</ele><time>2026-04-14T18:29:18.925Z</time></trkpt><trkpt lat="42.63979" lon="-7.1511883"><ele>654.0</ele><time>2026-04-14T18:29:19.925Z</time></trkpt><trkpt lat="42.6398933" lon="-7.15115"><ele>654.0</ele><time>2026-04-14T18:29:21.925Z</time></trkpt><trkpt lat="42.6399883" lon="-7.1511717"><ele>654.0</ele><time>2026-04-14T18:29:23.926Z</time></trkpt><trkpt lat="42.6400933" lon="-7.1511933"><ele>654.0</ele><time>2026-04-14T18:29:24.925Z</time></trkpt><trkpt lat="42.6401667" lon="-7.1512433"><ele>654.0</ele><time>2026-04-14T18:29:25.925Z</time></trkpt><trkpt lat="42.6402317" lon="-7.1512883"><ele>654.0</ele><time>2026-04-14T18:29:26.926Z</time></trkpt><trkpt lat="42.6403283" lon="-7.15138"><ele>654.0</ele><time>2026-04-14T18:29:28.926Z</time></trkpt><trkpt lat="42.64039" lon="-7.1514683"><ele>652.8333333333334</ele><time>2026-04-14T18:29:30.925Z</time></trkpt><trkpt lat="42.6404617" lon="-7.1514683"><ele>651.6666666666666</ele><time>2026-04-14T18:29:35.925Z</time></trkpt><trkpt lat="42.640545" lon="-7.1515483"><ele>650.5</ele><time>2026-04-14T18:29:38.926Z</time></trkpt><trkpt lat="42.6406317" lon="-7.1516483"><ele>649.3333333333333</ele><time>2026-04-14T18:29:40.926Z</time></trkpt><trkpt lat="42.6407183" lon="-7.1516533"><ele>648.1666666666666</ele><time>2026-04-14T18:29:42.926Z</time></trkpt><trkpt lat="42.6407633" lon="-7.15172"><ele>647.0</ele><time>2026-04-14T18:29:44.926Z</time></trkpt><trkpt lat="42.6408133" lon="-7.1517733"><ele>647.0</ele><time>2026-04-14T18:29:46.925Z</time></trkpt><trkpt lat="42.640865" lon="-7.1518467"><ele>647.0</ele><time>2026-04-14T18:29:48.926Z</time></trkpt><trkpt lat="42.6408617" lon="-7.151935"><ele>647.0</ele><time>2026-04-14T18:29:52.925Z</time></trkpt><trkpt lat="42.64081" lon="-7.1519917"><ele>647.0</ele><time>2026-04-14T18:29:54.925Z</time></trkpt><trkpt lat="42.6407283" lon="-7.1519867"><ele>647.0</ele><time>2026-04-14T18:29:56.925Z</time></trkpt><trkpt lat="42.64081" lon="-7.1519567"><ele>647.0</ele><time>2026-04-14T18:30:27.925Z</time></trkpt><trkpt lat="42.6409133" lon="-7.1519283"><ele>647.0</ele><time>2026-04-14T18:30:43.926Z</time></trkpt><trkpt lat="42.64088" lon="-7.1518433"><ele>647.0</ele><time>2026-04-14T18:30:51.925Z</time></trkpt><trkpt lat="42.6409683" lon="-7.151935"><ele>647.0</ele><time>2026-04-14T18:31:43.926Z</time></trkpt><trkpt lat="42.6409" lon="-7.1518617"><ele>647.0</ele><time>2026-04-14T18:32:10.925Z</time></trkpt><trkpt lat="42.6409" lon="-7.1518617"><ele>647.0</ele><time>2026-04-14T18:32:10.925Z</time></trkpt><trkpt lat="42.6408267" lon="-7.1518467"><ele>647.0</ele><time>2026-04-14T18:32:32.925Z</time></trkpt><trkpt lat="42.64079" lon="-7.151775"><ele>647.0</ele><time>2026-04-14T18:32:50.925Z</time></trkpt><trkpt lat="42.640845" lon="-7.15172"><ele>647.0</ele><time>2026-04-14T18:32:56.926Z</time></trkpt><trkpt lat="42.6408883" lon="-7.1518133"><ele>647.0</ele><time>2026-04-14T18:32:59.925Z</time></trkpt><trkpt lat="42.64095" lon="-7.1518617"><ele>647.0</ele><time>2026-04-14T18:33:03.925Z</time></trkpt><trkpt lat="42.641" lon="-7.1519467"><ele>647.0</ele><time>2026-04-14T18:33:05.925Z</time></trkpt><trkpt lat="42.6410633" lon="-7.1520383"><ele>647.0</ele><time>2026-04-14T18:33:07.926Z</time></trkpt><trkpt lat="42.6410967" lon="-7.15213"><ele>647.0</ele><time>2026-04-14T18:33:08.926Z</time></trkpt><trkpt lat="42.641175" lon="-7.1522483"><ele>647.4285714285714</ele><time>2026-04-14T18:33:10.925Z</time></trkpt><trkpt lat="42.6412217" lon="-7.15232"><ele>647.8571428571429</ele><time>2026-04-14T18:33:11.925Z</time></trkpt><trkpt lat="42.641275" lon="-7.15238"><ele>648.2857142857142</ele><time>2026-04-14T18:33:12.925Z</time></trkpt><trkpt lat="42.64132" lon="-7.152445"><ele>648.7142857142858</ele><time>2026-04-14T18:33:13.926Z</time></trkpt><trkpt lat="42.6413517" lon="-7.1525267"><ele>649.1428571428572</ele><time>2026-04-14T18:33:14.926Z</time></trkpt><trkpt lat="42.6413717" lon="-7.15262"><ele>649.5714285714286</ele><time>2026-04-14T18:33:15.926Z</time></trkpt><trkpt lat="42.6413917" lon="-7.1527033"><ele>650.0</ele><time>2026-04-14T18:33:16.926Z</time></trkpt><trkpt lat="42.6414167" lon="-7.1528567"><ele>650.0</ele><time>2026-04-14T18:33:18.926Z</time></trkpt><trkpt lat="42.64143" lon="-7.1530083"><ele>650.0</ele><time>2026-04-14T18:33:20.925Z</time></trkpt><trkpt lat="42.6414683" lon="-7.1531183"><ele>650.0</ele><time>2026-04-14T18:33:22.926Z</time></trkpt><trkpt lat="42.641505" lon="-7.1532033"><ele>650.0</ele><time>2026-04-14T18:33:24.926Z</time></trkpt><trkpt lat="42.6415433" lon="-7.1531033"><ele>650.0</ele><time>2026-04-14T18:33:51.926Z</time></trkpt><trkpt lat="42.6415017" lon="-7.1530317"><ele>650.0</ele><time>2026-04-14T18:33:54.925Z</time></trkpt><trkpt lat="42.6414833" lon="-7.1529367"><ele>650.0</ele><time>2026-04-14T18:33:56.925Z</time></trkpt><trkpt lat="42.6414683" lon="-7.1528067"><ele>650.0</ele><time>2026-04-14T18:33:58.926Z</time></trkpt><trkpt lat="42.6415433" lon="-7.1531033"><ele>650.0</ele><time>2026-04-14T18:33:51.926Z</time></trkpt><trkpt lat="42.6415017" lon="-7.1530317"><ele>650.0</ele><time>2026-04-14T18:33:54.925Z</time></trkpt><trkpt lat="42.6414833" lon="-7.1529367"><ele>650.0</ele><time>2026-04-14T18:33:56.925Z</time></trkpt><trkpt lat="42.6414683" lon="-7.1528067"><ele>650.0</ele><time>2026-04-14T18:33:58.926Z</time></trkpt><trkpt lat="42.641445" lon="-7.1526417"><ele>650.0</ele><time>2026-04-14T18:34:00.927Z</time></trkpt><trkpt lat="42.64144" lon="-7.1525517"><ele>650.0</ele><time>2026-04-14T18:34:01.927Z</time></trkpt><trkpt lat="42.6413767" lon="-7.1524333"><ele>650.0</ele><time>2026-04-14T18:34:03.927Z</time></trkpt><trkpt lat="42.6412883" lon="-7.152325"><ele>649.5</ele><time>2026-04-14T18:34:05.926Z</time></trkpt><trkpt lat="42.641225" lon="-7.1522617"><ele>649.0</ele><time>2026-04-14T18:34:06.927Z</time></trkpt><trkpt lat="42.64116" lon="-7.152185"><ele>648.5</ele><time>2026-04-14T18:34:07.927Z</time></trkpt><trkpt lat="42.6410867" lon="-7.1521083"><ele>648.0</ele><time>2026-04-14T18:34:08.927Z</time></trkpt><trkpt lat="42.6410083" lon="-7.152035"><ele>647.5</ele><time>2026-04-14T18:34:09.927Z</time></trkpt><trkpt lat="42.64093" lon="-7.15197"><ele>647.0</ele><time>2026-04-14T18:34:10.927Z</time></trkpt><trkpt lat="42.6408583" lon="-7.151895"><ele>647.0</ele><time>2026-04-14T18:34:11.926Z</time></trkpt><trkpt lat="42.64079" lon="-7.1518217"><ele>647.0</ele><time>2026-04-14T18:34:12.926Z</time></trkpt><trkpt lat="42.6407183" lon="-7.15176"><ele>647.0</ele><time>2026-04-14T18:34:13.926Z</time></trkpt><trkpt lat="42.6406467" lon="-7.151695"><ele>647.0</ele><time>2026-04-14T18:34:14.927Z</time></trkpt><trkpt lat="42.6405733" lon="-7.151635"><ele>647.0</ele><time>2026-04-14T18:34:15.926Z</time></trkpt><trkpt lat="42.6404933" lon="-7.1515783"><ele>647.0</ele><time>2026-04-14T18:34:16.926Z</time></trkpt><trkpt lat="42.64042" lon="-7.1515217"><ele>648.1666666666666</ele><time>2026-04-14T18:34:17.926Z</time></trkpt><trkpt lat="42.640355" lon="-7.1514717"><ele>649.3333333333333</ele><time>2026-04-14T18:34:18.926Z</time></trkpt><trkpt lat="42.6403" lon="-7.1514217"><ele>650.5</ele><time>2026-04-14T18:34:19.926Z</time></trkpt><trkpt lat="42.6402683" lon="-7.1513333"><ele>651.6666666666666</ele><time>2026-04-14T18:34:20.926Z</time></trkpt><trkpt lat="42.6402033" lon="-7.1512833"><ele>652.8333333333334</ele><time>2026-04-14T18:34:22.926Z</time></trkpt><trkpt lat="42.64025" lon="-7.151365"><ele>654.0</ele><time>2026-04-14T18:34:39.927Z</time></trkpt><trkpt lat="42.6401867" lon="-7.151265"><ele>654.0</ele><time>2026-04-14T18:34:42.927Z</time></trkpt><trkpt lat="42.640115" lon="-7.15119"><ele>654.0</ele><time>2026-04-14T18:34:45.926Z</time></trkpt><trkpt lat="42.640055" lon="-7.1511383"><ele>654.0</ele><time>2026-04-14T18:34:47.927Z</time></trkpt><trkpt lat="42.63999" lon="-7.1510717"><ele>654.0</ele><time>2026-04-14T18:34:49.927Z</time></trkpt><trkpt lat="42.6398933" lon="-7.1510033"><ele>654.0</ele><time>2026-04-14T18:34:51.926Z</time></trkpt><trkpt lat="42.6397917" lon="-7.15094"><ele>654.0</ele><time>2026-04-14T18:34:53.927Z</time></trkpt><trkpt lat="42.6396867" lon="-7.1509117"><ele>654.0</ele><time>2026-04-14T18:34:55.926Z</time></trkpt><trkpt lat="42.6396117" lon="-7.1508533"><ele>654.0</ele><time>2026-04-14T18:34:57.927Z</time></trkpt><trkpt lat="42.6395717" lon="-7.150765"><ele>654.0</ele><time>2026-04-14T18:34:59.926Z</time></trkpt><trkpt lat="42.639515" lon="-7.1506983"><ele>654.0</ele><time>2026-04-14T18:35:02.927Z</time></trkpt><trkpt lat="42.6396033" lon="-7.150855"><ele>654.0</ele><time>2026-04-14T18:35:15.927Z</time></trkpt><trkpt lat="42.63966" lon="-7.1510617"><ele>654.0</ele><time>2026-04-14T18:35:57.927Z</time></trkpt><trkpt lat="42.6396117" lon="-7.1508533"><ele>654.0</ele><time>2026-04-14T18:34:57.927Z</time></trkpt><trkpt lat="42.6395717" lon="-7.150765"><ele>654.0</ele><time>2026-04-14T18:34:59.926Z</time></trkpt><trkpt lat="42.639515" lon="-7.1506983"><ele>654.0</ele><time>2026-04-14T18:35:02.927Z</time></trkpt><trkpt lat="42.6396033" lon="-7.150855"><ele>654.0</ele><time>2026-04-14T18:35:15.927Z</time></trkpt><trkpt lat="42.63966" lon="-7.1510617"><ele>654.0</ele><time>2026-04-14T18:35:57.927Z</time></trkpt><trkpt lat="42.6397983" lon="-7.1509967"><ele>654.0</ele><time>2026-04-14T18:35:59.926Z</time></trkpt><trkpt lat="42.639885" lon="-7.1509567"><ele>654.0</ele><time>2026-04-14T18:36:01.927Z</time></trkpt><trkpt lat="42.639985" lon="-7.1508967"><ele>654.0</ele><time>2026-04-14T18:36:03.927Z</time></trkpt><trkpt lat="42.6400667" lon="-7.1509117"><ele>654.0</ele><time>2026-04-14T18:36:06.927Z</time></trkpt><trkpt lat="42.6399583" lon="-7.1509567"><ele>654.0</ele><time>2026-04-14T18:36:45.927Z</time></trkpt><trkpt lat="42.6398717" lon="-7.1509583"><ele>654.0</ele><time>2026-04-14T18:36:52.927Z</time></trkpt><trkpt lat="42.63979" lon="-7.15097"><ele>654.0</ele><time>2026-04-14T18:36:56.927Z</time></trkpt><trkpt lat="42.63968" lon="-7.1508733"><ele>654.0</ele><time>2026-04-14T18:37:11.927Z</time></trkpt><trkpt lat="42.6395567" lon="-7.150875"><ele>654.0</ele><time>2026-04-14T18:37:25.926Z</time></trkpt><trkpt lat="42.63979" lon="-7.15097"><ele>654.0</ele><time>2026-04-14T18:36:56.927Z</time></trkpt><trkpt lat="42.63968" lon="-7.1508733"><ele>654.0</ele><time>2026-04-14T18:37:11.927Z</time></trkpt><trkpt lat="42.6395567" lon="-7.150875"><ele>654.0</ele><time>2026-04-14T18:37:25.926Z</time></trkpt><trkpt lat="42.63941" lon="-7.150885"><ele>654.0</ele><time>2026-04-14T18:37:36.927Z</time></trkpt><trkpt lat="42.6393233" lon="-7.1508567"><ele>654.0</ele><time>2026-04-14T18:37:41.927Z</time></trkpt><trkpt lat="42.6393517" lon="-7.1509783"><ele>654.0</ele><time>2026-04-14T18:38:04.926Z</time></trkpt><trkpt lat="42.63947" lon="-7.1509883"><ele>654.0</ele><time>2026-04-14T18:38:19.926Z</time></trkpt><trkpt lat="42.6395333" lon="-7.1510217"><ele>654.0</ele><time>2026-04-14T18:38:31.926Z</time></trkpt><trkpt lat="42.63963" lon="-7.1509867"><ele>654.0</ele><time>2026-04-14T18:38:47.926Z</time></trkpt><trkpt lat="42.63969" lon="-7.1510217"><ele>654.0</ele><time>2026-04-14T18:38:49.927Z</time></trkpt><trkpt lat="42.63961" lon="-7.151185"><ele>654.0</ele><time>2026-04-14T18:39:05.926Z</time></trkpt><trkpt lat="42.6395333" lon="-7.1510217"><ele>654.0</ele><time>2026-04-14T18:38:31.926Z</time></trkpt><trkpt lat="42.63963" lon="-7.1509867"><ele>654.0</ele><time>2026-04-14T18:38:47.926Z</time></trkpt><trkpt lat="42.63969" lon="-7.1510217"><ele>654.0</ele><time>2026-04-14T18:38:49.927Z</time></trkpt><trkpt lat="42.63961" lon="-7.151185"><ele>654.0</ele><time>2026-04-14T18:39:05.926Z</time></trkpt><trkpt lat="42.63966" lon="-7.1512383"><ele>654.0</ele><time>2026-04-14T18:39:32.927Z</time></trkpt><trkpt lat="42.639555" lon="-7.1512083"><ele>654.0</ele><time>2026-04-14T18:39:56.926Z</time></trkpt><trkpt lat="42.6396317" lon="-7.1512133"><ele>654.0</ele><time>2026-04-14T18:40:34.927Z</time></trkpt><trkpt lat="42.639705" lon="-7.1512017"><ele>654.0</ele><time>2026-04-14T18:40:37.927Z</time></trkpt><trkpt lat="42.6397017" lon="-7.1512983"><ele>654.0</ele><time>2026-04-14T18:40:42.927Z</time></trkpt><trkpt lat="42.6398017" lon="-7.1513933"><ele>654.0</ele><time>2026-04-14T18:40:45.926Z</time></trkpt><trkpt lat="42.63986" lon="-7.151435"><ele>654.0</ele><time>2026-04-14T18:40:47.927Z</time></trkpt><trkpt lat="42.63983" lon="-7.1513567"><ele>654.0</ele><time>2026-04-14T18:41:34.927Z</time></trkpt><trkpt lat="42.6397583" lon="-7.1513417"><ele>654.0</ele><time>2026-04-14T18:41:35.927Z</time></trkpt><trkpt lat="42.6396317" lon="-7.1512133"><ele>654.0</ele><time>2026-04-14T18:40:34.927Z</time></trkpt><trkpt lat="42.639705" lon="-7.1512017"><ele>654.0</ele><time>2026-04-14T18:40:37.927Z</time></trkpt><trkpt lat="42.6397017" lon="-7.1512983"><ele>654.0</ele><time>2026-04-14T18:40:42.927Z</time></trkpt><trkpt lat="42.6398017" lon="-7.1513933"><ele>654.0</ele><time>2026-04-14T18:40:45.926Z</time></trkpt><trkpt lat="42.63986" lon="-7.151435"><ele>654.0</ele><time>2026-04-14T18:40:47.927Z</time></trkpt><trkpt lat="42.63983" lon="-7.1513567"><ele>654.0</ele><time>2026-04-14T18:41:34.927Z</time></trkpt><trkpt lat="42.6397583" lon="-7.1513417"><ele>654.0</ele><time>2026-04-14T18:41:35.927Z</time></trkpt><trkpt lat="42.6397667" lon="-7.1514267"><ele>654.0</ele><time>2026-04-14T18:41:39.927Z</time></trkpt><trkpt lat="42.6398067" lon="-7.1513117"><ele>654.0</ele><time>2026-04-14T18:41:48.927Z</time></trkpt><trkpt lat="42.6397383" lon="-7.1513433"><ele>654.0</ele><time>2026-04-14T18:42:08.927Z</time></trkpt><trkpt lat="42.6395917" lon="-7.1512917"><ele>654.0</ele><time>2026-04-14T18:42:23.927Z</time></trkpt><trkpt lat="42.6395183" lon="-7.1512583"><ele>654.0</ele><time>2026-04-14T18:42:25.928Z</time></trkpt><trkpt lat="42.63945" lon="-7.151225"><ele>654.0</ele><time>2026-04-14T18:42:27.928Z</time></trkpt><trkpt lat="42.639475" lon="-7.151145"><ele>654.0</ele><time>2026-04-14T18:42:55.927Z</time></trkpt><trkpt lat="42.6394117" lon="-7.1511733"><ele>654.0</ele><time>2026-04-14T18:43:09.927Z</time></trkpt><trkpt lat="42.6394967" lon="-7.1512867"><ele>654.0</ele><time>2026-04-14T18:44:14.927Z</time></trkpt><trkpt lat="42.63956" lon="-7.1513267"><ele>654.0</ele><time>2026-04-14T18:44:17.928Z</time></trkpt><trkpt lat="42.639655" lon="-7.1512567"><ele>654.0</ele><time>2026-04-14T18:44:24.927Z</time></trkpt><trkpt lat="42.6396833" lon="-7.1511667"><ele>654.0</ele><time>2026-04-14T18:44:27.928Z</time></trkpt><trkpt lat="42.6396267" lon="-7.15108"><ele>654.0</ele><time>2026-04-14T18:44:45.927Z</time></trkpt><trkpt lat="42.6394967" lon="-7.1512867"><ele>654.0</ele><time>2026-04-14T18:44:14.927Z</time></trkpt><trkpt lat="42.63956" lon="-7.1513267"><ele>654.0</ele><time>2026-04-14T18:44:17.928Z</time></trkpt><trkpt lat="42.639655" lon="-7.1512567"><ele>654.0</ele><time>2026-04-14T18:44:24.927Z</time></trkpt><trkpt lat="42.6396833" lon="-7.1511667"><ele>654.0</ele><time>2026-04-14T18:44:27.928Z</time></trkpt><trkpt lat="42.6396267" lon="-7.15108"><ele>654.0</ele><time>2026-04-14T18:44:45.927Z</time></trkpt><trkpt lat="42.6395633" lon="-7.1511183"><ele>654.0</ele><time>2026-04-14T18:44:49.927Z</time></trkpt><trkpt lat="42.6395483" lon="-7.1512317"><ele>654.0</ele><time>2026-04-14T18:44:53.927Z</time></trkpt><trkpt lat="42.6396067" lon="-7.151275"><ele>654.0</ele><time>2026-04-14T18:45:02.927Z</time></trkpt><trkpt lat="42.6396633" lon="-7.1512217"><ele>654.0</ele><time>2026-04-14T18:45:05.927Z</time></trkpt><trkpt lat="42.6397233" lon="-7.15113"><ele>654.0</ele><time>2026-04-14T18:45:08.927Z</time></trkpt><trkpt lat="42.639765" lon="-7.1510367"><ele>654.0</ele><time>2026-04-14T18:45:10.928Z</time></trkpt><trkpt lat="42.63978" lon="-7.1509283"><ele>654.0</ele><time>2026-04-14T18:45:13.928Z</time></trkpt><trkpt lat="42.63978" lon="-7.1510167"><ele>654.0</ele><time>2026-04-14T18:45:33.928Z</time></trkpt><trkpt lat="42.6397117" lon="-7.1511317"><ele>654.0</ele><time>2026-04-14T18:45:46.928Z</time></trkpt><trkpt lat="42.6397683" lon="-7.1512267"><ele>654.0</ele><time>2026-04-14T18:46:19.928Z</time></trkpt><trkpt lat="42.6397683" lon="-7.1512267"><ele>654.0</ele><time>2026-04-14T18:46:19.928Z</time></trkpt><trkpt lat="42.6398217" lon="-7.1511583"><ele>654.0</ele><time>2026-04-14T18:46:23.928Z</time></trkpt><trkpt lat="42.6397333" lon="-7.15111"><ele>654.0</ele><time>2026-04-14T18:46:38.928Z</time></trkpt><trkpt lat="42.6396133" lon="-7.1511583"><ele>654.0</ele><time>2026-04-14T18:47:24.928Z</time></trkpt><trkpt lat="42.639685" lon="-7.1510733"><ele>654.0</ele><time>2026-04-14T18:48:36.927Z</time></trkpt><trkpt lat="42.6396" lon="-7.151085"><ele>654.0</ele><time>2026-04-14T18:49:15.928Z</time></trkpt><trkpt lat="42.6396" lon="-7.151085"><ele>654.0</ele><time>2026-04-14T18:49:15.928Z</time></trkpt><trkpt lat="42.6395183" lon="-7.15112"><ele>654.0</ele><time>2026-04-14T18:50:18.928Z</time></trkpt><trkpt lat="42.639585" lon="-7.1511167"><ele>654.0</ele><time>2026-04-14T18:50:35.928Z</time></trkpt><trkpt lat="42.6396267" lon="-7.151015"><ele>654.0</ele><time>2026-04-14T18:51:35.929Z</time></trkpt><trkpt lat="42.6397067" lon="-7.1509983"><ele>654.0</ele><time>2026-04-14T18:51:41.929Z</time></trkpt><trkpt lat="42.6398717" lon="-7.1510183"><ele>654.0</ele><time>2026-04-14T18:51:49.928Z</time></trkpt><trkpt lat="42.6399467" lon="-7.15106"><ele>654.0</ele><time>2026-04-14T18:51:51.929Z</time></trkpt><trkpt lat="42.6398583" lon="-7.1510683"><ele>654.0</ele><time>2026-04-14T18:52:49.929Z</time></trkpt><trkpt lat="42.63976" lon="-7.1510183"><ele>654.0</ele><time>2026-04-14T18:53:03.929Z</time></trkpt><trkpt lat="42.6396283" lon="-7.151095"><ele>654.0</ele><time>2026-04-14T18:53:56.929Z</time></trkpt><trkpt lat="42.639765" lon="-7.1510617"><ele>654.0</ele><time>2026-04-14T18:54:19.928Z</time></trkpt><trkpt lat="42.6397417" lon="-7.1509633"><ele>654.0</ele><time>2026-04-14T18:54:56.928Z</time></trkpt><trkpt lat="42.639605" lon="-7.15092"><ele>654.0</ele><time>2026-04-14T18:55:37.928Z</time></trkpt><trkpt lat="42.6396067" lon="-7.1510867"><ele>654.0</ele><time>2026-04-14T19:03:50.93Z</time></trkpt><trkpt lat="42.6395467" lon="-7.1509883"><ele>654.0</ele><time>2026-04-14T19:08:00.931Z</time></trkpt><trkpt lat="42.6396806" lon="-7.1509995"><ele>654.0</ele><time>2026-04-14T19:13:59.836Z</time></trkpt><trkpt lat="42.6397142" lon="-7.1511082"><ele>654.0</ele><time>2026-04-14T19:14:02.836Z</time></trkpt><trkpt lat="42.6396492" lon="-7.15109"><ele>654.0</ele><time>2026-04-14T19:14:19.835Z</time></trkpt><trkpt lat="42.6396919" lon="-7.1511621"><ele>654.0</ele><time>2026-04-14T19:15:55.836Z</time></trkpt><trkpt lat="42.6396624" lon="-7.1510804"><ele>654.0</ele><time>2026-04-14T19:18:14.837Z</time></trkpt><trkpt lat="42.6395996" lon="-7.1510588"><ele>654.0</ele><time>2026-04-14T19:53:16.842Z</time></trkpt><trkpt lat="42.6396679" lon="-7.1510974"><ele>654.0</ele><time>2026-04-14T19:58:26.843Z</time></trkpt><trkpt lat="42.6396005" lon="-7.1511103"><ele>654.0</ele><time>2026-04-14T20:02:23.842Z</time></trkpt><trkpt lat="42.6396779" lon="-7.1510881"><ele>654.0</ele><time>2026-04-14T20:02:40.843Z</time></trkpt><trkpt lat="42.6396296" lon="-7.1512003"><ele>654.0</ele><time>2026-04-14T20:05:27.843Z</time></trkpt><trkpt lat="42.6396296" lon="-7.1512003"><ele>654.0</ele><time>2026-04-14T20:05:27.843Z</time></trkpt></trkseg></trk></gpx>